<?xml version="1.0" encoding="UTF-8" standalone="no" ?>
<gpx xmlns="http://www.topografix.com/GPX/1/1" xmlns:xsi="http://www.w3.org/2001/XMLSchema-instance" xsi:schemaLocation="http://www.topografix.com/GPX/1/1 http://www.topografix.com/GPX/1/1/gpx.xsd" version="1.1" creator="VisuGPX - https://www.visugpx.com">
  <metadata>
    <name>secteur Saverne - Dabo - Petite Pierre</name>
  </metadata>
  <trk>
    <name><![CDATA[secteur Saverne - Dabo - Petite Pierre_1]]></name>
    <trkseg>
      <trkpt lat="48.65366" lon="7.23579">
        <ele>470.4</ele>
        <time>2020-08-27T12:02:05Z</time>
      </trkpt>
      <trkpt lat="48.65366" lon="7.23579">
        <ele>470.4</ele>
        <time>2020-08-27T12:02:05Z</time>
      </trkpt>
      <trkpt lat="48.65366" lon="7.23579">
        <ele>470.4</ele>
        <time>2020-08-27T12:02:05Z</time>
      </trkpt>
      <trkpt lat="48.65366" lon="7.23579">
        <ele>470.4</ele>
        <time>2020-08-27T12:02:05Z</time>
      </trkpt>
      <trkpt lat="48.65366" lon="7.23579">
        <ele>470.4</ele>
        <time>2020-08-27T12:02:05Z</time>
      </trkpt>
      <trkpt lat="48.65366" lon="7.23579">
        <ele>470.4</ele>
        <time>2020-08-27T12:02:05Z</time>
      </trkpt>
      <trkpt lat="48.65366" lon="7.23579">
        <ele>470.4</ele>
        <time>2020-08-27T12:02:05Z</time>
      </trkpt>
      <trkpt lat="48.65366" lon="7.23579">
        <ele>470.4</ele>
        <time>2020-08-27T12:02:05Z</time>
      </trkpt>
      <trkpt lat="48.65366" lon="7.23579">
        <ele>470.4</ele>
        <time>2020-08-27T12:02:05Z</time>
      </trkpt>
      <trkpt lat="48.65364" lon="7.23572">
        <ele>468.7</ele>
        <time>2020-08-27T12:02:15Z</time>
      </trkpt>
      <trkpt lat="48.65362" lon="7.23565">
        <ele>467.7</ele>
        <time>2020-08-27T12:02:17Z</time>
      </trkpt>
      <trkpt lat="48.6536" lon="7.23557">
        <ele>466.3</ele>
        <time>2020-08-27T12:02:19Z</time>
      </trkpt>
      <trkpt lat="48.65359" lon="7.23547">
        <ele>465.5</ele>
        <time>2020-08-27T12:02:21Z</time>
      </trkpt>
      <trkpt lat="48.65363" lon="7.23535">
        <ele>464.1</ele>
        <time>2020-08-27T12:02:23Z</time>
      </trkpt>
      <trkpt lat="48.65371" lon="7.23528">
        <ele>463</ele>
        <time>2020-08-27T12:02:25Z</time>
      </trkpt>
      <trkpt lat="48.6538" lon="7.23524">
        <ele>462.1</ele>
        <time>2020-08-27T12:02:27Z</time>
      </trkpt>
      <trkpt lat="48.65388" lon="7.2352">
        <ele>461.7</ele>
        <time>2020-08-27T12:02:29Z</time>
      </trkpt>
      <trkpt lat="48.65394" lon="7.23515">
        <ele>461.9</ele>
        <time>2020-08-27T12:02:31Z</time>
      </trkpt>
      <trkpt lat="48.65398" lon="7.23509">
        <ele>462.5</ele>
        <time>2020-08-27T12:02:33Z</time>
      </trkpt>
      <trkpt lat="48.65399" lon="7.23499">
        <ele>463.5</ele>
        <time>2020-08-27T12:02:36Z</time>
      </trkpt>
      <trkpt lat="48.65399" lon="7.23492">
        <ele>464.1</ele>
        <time>2020-08-27T12:02:38Z</time>
      </trkpt>
      <trkpt lat="48.65399" lon="7.23484">
        <ele>464.2</ele>
        <time>2020-08-27T12:02:40Z</time>
      </trkpt>
      <trkpt lat="48.65399" lon="7.23477">
        <ele>464.2</ele>
        <time>2020-08-27T12:02:42Z</time>
      </trkpt>
      <trkpt lat="48.654" lon="7.23484">
        <ele>466.3</ele>
        <time>2020-08-27T12:02:52Z</time>
      </trkpt>
      <trkpt lat="48.654" lon="7.23491">
        <ele>466.7</ele>
        <time>2020-08-27T12:02:54Z</time>
      </trkpt>
      <trkpt lat="48.654" lon="7.235">
        <ele>466.8</ele>
        <time>2020-08-27T12:02:56Z</time>
      </trkpt>
      <trkpt lat="48.65401" lon="7.23508">
        <ele>467</ele>
        <time>2020-08-27T12:02:58Z</time>
      </trkpt>
      <trkpt lat="48.65404" lon="7.23514">
        <ele>468</ele>
        <time>2020-08-27T12:03:00Z</time>
      </trkpt>
      <trkpt lat="48.65409" lon="7.23515">
        <ele>467.9</ele>
        <time>2020-08-27T12:03:02Z</time>
      </trkpt>
      <trkpt lat="48.65413" lon="7.23513">
        <ele>468</ele>
        <time>2020-08-27T12:03:04Z</time>
      </trkpt>
      <trkpt lat="48.65411" lon="7.23506">
        <ele>467.9</ele>
        <time>2020-08-27T12:03:08Z</time>
      </trkpt>
      <trkpt lat="48.65406" lon="7.23506">
        <ele>468.2</ele>
        <time>2020-08-27T12:03:10Z</time>
      </trkpt>
      <trkpt lat="48.65401" lon="7.23505">
        <ele>468.2</ele>
        <time>2020-08-27T12:03:12Z</time>
      </trkpt>
      <trkpt lat="48.65398" lon="7.235">
        <ele>467.3</ele>
        <time>2020-08-27T12:03:14Z</time>
      </trkpt>
      <trkpt lat="48.65398" lon="7.23492">
        <ele>466.8</ele>
        <time>2020-08-27T12:03:16Z</time>
      </trkpt>
      <trkpt lat="48.65399" lon="7.23482">
        <ele>466</ele>
        <time>2020-08-27T12:03:18Z</time>
      </trkpt>
      <trkpt lat="48.654" lon="7.2347">
        <ele>465.6</ele>
        <time>2020-08-27T12:03:20Z</time>
      </trkpt>
      <trkpt lat="48.65399" lon="7.23457">
        <ele>465</ele>
        <time>2020-08-27T12:03:22Z</time>
      </trkpt>
      <trkpt lat="48.65399" lon="7.23442">
        <ele>463.2</ele>
        <time>2020-08-27T12:03:24Z</time>
      </trkpt>
      <trkpt lat="48.654" lon="7.23429">
        <ele>462.8</ele>
        <time>2020-08-27T12:03:26Z</time>
      </trkpt>
      <trkpt lat="48.654" lon="7.23416">
        <ele>462.4</ele>
        <time>2020-08-27T12:03:28Z</time>
      </trkpt>
      <trkpt lat="48.65401" lon="7.23402">
        <ele>462.2</ele>
        <time>2020-08-27T12:03:30Z</time>
      </trkpt>
      <trkpt lat="48.65403" lon="7.23389">
        <ele>461.9</ele>
        <time>2020-08-27T12:03:32Z</time>
      </trkpt>
      <trkpt lat="48.65404" lon="7.23376">
        <ele>461.3</ele>
        <time>2020-08-27T12:03:34Z</time>
      </trkpt>
      <trkpt lat="48.65405" lon="7.23365">
        <ele>460.9</ele>
        <time>2020-08-27T12:03:36Z</time>
      </trkpt>
      <trkpt lat="48.65407" lon="7.23358">
        <ele>461.1</ele>
        <time>2020-08-27T12:03:41Z</time>
      </trkpt>
      <trkpt lat="48.65412" lon="7.23358">
        <ele>463.1</ele>
        <time>2020-08-27T12:03:47Z</time>
      </trkpt>
      <trkpt lat="48.65416" lon="7.2336">
        <ele>464.4</ele>
        <time>2020-08-27T12:03:52Z</time>
      </trkpt>
      <trkpt lat="48.65421" lon="7.2336">
        <ele>466.5</ele>
        <time>2020-08-27T12:03:57Z</time>
      </trkpt>
      <trkpt lat="48.65426" lon="7.23358">
        <ele>467.3</ele>
        <time>2020-08-27T12:04:02Z</time>
      </trkpt>
      <trkpt lat="48.65431" lon="7.23356">
        <ele>467.5</ele>
        <time>2020-08-27T12:04:11Z</time>
      </trkpt>
      <trkpt lat="48.65435" lon="7.2335">
        <ele>468.2</ele>
        <time>2020-08-27T12:04:16Z</time>
      </trkpt>
      <trkpt lat="48.65439" lon="7.23346">
        <ele>468.8</ele>
        <time>2020-08-27T12:04:20Z</time>
      </trkpt>
      <trkpt lat="48.65443" lon="7.23342">
        <ele>469.3</ele>
        <time>2020-08-27T12:04:24Z</time>
      </trkpt>
      <trkpt lat="48.65447" lon="7.23338">
        <ele>470.3</ele>
        <time>2020-08-27T12:04:29Z</time>
      </trkpt>
      <trkpt lat="48.65451" lon="7.23333">
        <ele>472</ele>
        <time>2020-08-27T12:04:35Z</time>
      </trkpt>
      <trkpt lat="48.65454" lon="7.23339">
        <ele>472.9</ele>
        <time>2020-08-27T12:04:41Z</time>
      </trkpt>
      <trkpt lat="48.65454" lon="7.23346">
        <ele>473.6</ele>
        <time>2020-08-27T12:04:47Z</time>
      </trkpt>
      <trkpt lat="48.65455" lon="7.23353">
        <ele>476</ele>
        <time>2020-08-27T12:04:54Z</time>
      </trkpt>
      <trkpt lat="48.6546" lon="7.23355">
        <ele>477.9</ele>
        <time>2020-08-27T12:05:00Z</time>
      </trkpt>
      <trkpt lat="48.65463" lon="7.23361">
        <ele>477.7</ele>
        <time>2020-08-27T12:05:06Z</time>
      </trkpt>
      <trkpt lat="48.65464" lon="7.23367">
        <ele>479</ele>
        <time>2020-08-27T12:05:11Z</time>
      </trkpt>
      <trkpt lat="48.65465" lon="7.23375">
        <ele>480.7</ele>
        <time>2020-08-27T12:05:16Z</time>
      </trkpt>
      <trkpt lat="48.65467" lon="7.23383">
        <ele>481.1</ele>
        <time>2020-08-27T12:05:20Z</time>
      </trkpt>
      <trkpt lat="48.65468" lon="7.23389">
        <ele>481.6</ele>
        <time>2020-08-27T12:05:24Z</time>
      </trkpt>
      <trkpt lat="48.6547" lon="7.23397">
        <ele>481.6</ele>
        <time>2020-08-27T12:05:29Z</time>
      </trkpt>
      <trkpt lat="48.65472" lon="7.23404">
        <ele>481.7</ele>
        <time>2020-08-27T12:05:34Z</time>
      </trkpt>
      <trkpt lat="48.65474" lon="7.2341">
        <ele>482.4</ele>
        <time>2020-08-27T12:05:41Z</time>
      </trkpt>
      <trkpt lat="48.65477" lon="7.23418">
        <ele>481.8</ele>
        <time>2020-08-27T12:05:54Z</time>
      </trkpt>
      <trkpt lat="48.65478" lon="7.23425">
        <ele>482.1</ele>
        <time>2020-08-27T12:05:57Z</time>
      </trkpt>
      <trkpt lat="48.6548" lon="7.23432">
        <ele>482</ele>
        <time>2020-08-27T12:06:00Z</time>
      </trkpt>
      <trkpt lat="48.65482" lon="7.2344">
        <ele>480.9</ele>
        <time>2020-08-27T12:06:03Z</time>
      </trkpt>
      <trkpt lat="48.65487" lon="7.23448">
        <ele>479.9</ele>
        <time>2020-08-27T12:06:06Z</time>
      </trkpt>
      <trkpt lat="48.6549" lon="7.23453">
        <ele>479.5</ele>
        <time>2020-08-27T12:06:08Z</time>
      </trkpt>
      <trkpt lat="48.65493" lon="7.23458">
        <ele>479.2</ele>
        <time>2020-08-27T12:06:10Z</time>
      </trkpt>
      <trkpt lat="48.65496" lon="7.23463">
        <ele>478.8</ele>
        <time>2020-08-27T12:06:12Z</time>
      </trkpt>
      <trkpt lat="48.655" lon="7.23469">
        <ele>478.2</ele>
        <time>2020-08-27T12:06:14Z</time>
      </trkpt>
      <trkpt lat="48.65502" lon="7.23474">
        <ele>478.2</ele>
        <time>2020-08-27T12:06:16Z</time>
      </trkpt>
      <trkpt lat="48.65507" lon="7.23481">
        <ele>479</ele>
        <time>2020-08-27T12:06:19Z</time>
      </trkpt>
      <trkpt lat="48.65512" lon="7.23487">
        <ele>479</ele>
        <time>2020-08-27T12:06:22Z</time>
      </trkpt>
      <trkpt lat="48.65516" lon="7.23491">
        <ele>478.9</ele>
        <time>2020-08-27T12:06:24Z</time>
      </trkpt>
      <trkpt lat="48.65522" lon="7.23497">
        <ele>478.7</ele>
        <time>2020-08-27T12:06:27Z</time>
      </trkpt>
      <trkpt lat="48.65526" lon="7.23501">
        <ele>479.1</ele>
        <time>2020-08-27T12:06:29Z</time>
      </trkpt>
      <trkpt lat="48.6553" lon="7.23504">
        <ele>479.1</ele>
        <time>2020-08-27T12:06:31Z</time>
      </trkpt>
      <trkpt lat="48.65534" lon="7.23508">
        <ele>479.2</ele>
        <time>2020-08-27T12:06:33Z</time>
      </trkpt>
      <trkpt lat="48.65539" lon="7.23514">
        <ele>479.3</ele>
        <time>2020-08-27T12:06:36Z</time>
      </trkpt>
      <trkpt lat="48.65544" lon="7.23521">
        <ele>479.2</ele>
        <time>2020-08-27T12:06:39Z</time>
      </trkpt>
      <trkpt lat="48.65548" lon="7.23526">
        <ele>479.4</ele>
        <time>2020-08-27T12:06:41Z</time>
      </trkpt>
      <trkpt lat="48.65552" lon="7.23531">
        <ele>478.9</ele>
        <time>2020-08-27T12:06:43Z</time>
      </trkpt>
      <trkpt lat="48.65557" lon="7.23536">
        <ele>478.1</ele>
        <time>2020-08-27T12:06:45Z</time>
      </trkpt>
      <trkpt lat="48.65562" lon="7.23541">
        <ele>477.5</ele>
        <time>2020-08-27T12:06:47Z</time>
      </trkpt>
      <trkpt lat="48.65568" lon="7.23545">
        <ele>477.1</ele>
        <time>2020-08-27T12:06:49Z</time>
      </trkpt>
      <trkpt lat="48.65574" lon="7.23547">
        <ele>476.8</ele>
        <time>2020-08-27T12:06:51Z</time>
      </trkpt>
      <trkpt lat="48.65581" lon="7.23549">
        <ele>476.7</ele>
        <time>2020-08-27T12:06:53Z</time>
      </trkpt>
      <trkpt lat="48.65587" lon="7.23551">
        <ele>477.3</ele>
        <time>2020-08-27T12:06:55Z</time>
      </trkpt>
      <trkpt lat="48.65593" lon="7.23554">
        <ele>477.7</ele>
        <time>2020-08-27T12:06:57Z</time>
      </trkpt>
      <trkpt lat="48.65599" lon="7.23556">
        <ele>477.9</ele>
        <time>2020-08-27T12:06:59Z</time>
      </trkpt>
      <trkpt lat="48.65605" lon="7.23559">
        <ele>477.8</ele>
        <time>2020-08-27T12:07:01Z</time>
      </trkpt>
      <trkpt lat="48.65612" lon="7.23561">
        <ele>478</ele>
        <time>2020-08-27T12:07:03Z</time>
      </trkpt>
      <trkpt lat="48.65619" lon="7.23563">
        <ele>478</ele>
        <time>2020-08-27T12:07:05Z</time>
      </trkpt>
      <trkpt lat="48.65625" lon="7.23564">
        <ele>477.8</ele>
        <time>2020-08-27T12:07:07Z</time>
      </trkpt>
      <trkpt lat="48.65632" lon="7.23565">
        <ele>478.2</ele>
        <time>2020-08-27T12:07:09Z</time>
      </trkpt>
      <trkpt lat="48.65639" lon="7.23566">
        <ele>478.2</ele>
        <time>2020-08-27T12:07:11Z</time>
      </trkpt>
      <trkpt lat="48.65645" lon="7.23565">
        <ele>478.6</ele>
        <time>2020-08-27T12:07:13Z</time>
      </trkpt>
      <trkpt lat="48.65651" lon="7.23564">
        <ele>478.7</ele>
        <time>2020-08-27T12:07:15Z</time>
      </trkpt>
      <trkpt lat="48.65657" lon="7.23562">
        <ele>478.6</ele>
        <time>2020-08-27T12:07:17Z</time>
      </trkpt>
      <trkpt lat="48.65662" lon="7.23559">
        <ele>478</ele>
        <time>2020-08-27T12:07:20Z</time>
      </trkpt>
      <trkpt lat="48.65668" lon="7.23556">
        <ele>476.1</ele>
        <time>2020-08-27T12:07:35Z</time>
      </trkpt>
      <trkpt lat="48.65674" lon="7.23556">
        <ele>475.6</ele>
        <time>2020-08-27T12:07:37Z</time>
      </trkpt>
      <trkpt lat="48.65681" lon="7.23556">
        <ele>474.9</ele>
        <time>2020-08-27T12:07:39Z</time>
      </trkpt>
      <trkpt lat="48.65689" lon="7.23557">
        <ele>474</ele>
        <time>2020-08-27T12:07:41Z</time>
      </trkpt>
      <trkpt lat="48.65697" lon="7.23559">
        <ele>473.3</ele>
        <time>2020-08-27T12:07:43Z</time>
      </trkpt>
      <trkpt lat="48.65706" lon="7.2356">
        <ele>472.2</ele>
        <time>2020-08-27T12:07:45Z</time>
      </trkpt>
      <trkpt lat="48.65715" lon="7.23562">
        <ele>471.2</ele>
        <time>2020-08-27T12:07:47Z</time>
      </trkpt>
      <trkpt lat="48.65724" lon="7.23565">
        <ele>470.5</ele>
        <time>2020-08-27T12:07:49Z</time>
      </trkpt>
      <trkpt lat="48.65732" lon="7.23569">
        <ele>469.9</ele>
        <time>2020-08-27T12:07:51Z</time>
      </trkpt>
      <trkpt lat="48.65737" lon="7.23575">
        <ele>469</ele>
        <time>2020-08-27T12:07:53Z</time>
      </trkpt>
      <trkpt lat="48.65741" lon="7.23583">
        <ele>468.6</ele>
        <time>2020-08-27T12:07:55Z</time>
      </trkpt>
      <trkpt lat="48.65744" lon="7.2359">
        <ele>468.1</ele>
        <time>2020-08-27T12:07:58Z</time>
      </trkpt>
    </trkseg>
  </trk>
  <trk>
    <name><![CDATA[secteur Saverne - Dabo - Petite Pierre_2]]></name>
    <trkseg>
      <trkpt lat="48.65809" lon="7.21055">
        <ele>396.1</ele>
        <time>2020-08-27T12:33:53Z</time>
      </trkpt>
      <trkpt lat="48.65809" lon="7.21055">
        <ele>396.1</ele>
        <time>2020-08-27T12:33:53Z</time>
      </trkpt>
      <trkpt lat="48.65809" lon="7.21055">
        <ele>396.1</ele>
        <time>2020-08-27T12:33:53Z</time>
      </trkpt>
      <trkpt lat="48.65809" lon="7.21055">
        <ele>396.1</ele>
        <time>2020-08-27T12:33:53Z</time>
      </trkpt>
      <trkpt lat="48.65809" lon="7.21055">
        <ele>396.1</ele>
        <time>2020-08-27T12:33:53Z</time>
      </trkpt>
      <trkpt lat="48.65809" lon="7.21055">
        <ele>396.1</ele>
        <time>2020-08-27T12:33:53Z</time>
      </trkpt>
      <trkpt lat="48.65809" lon="7.21055">
        <ele>396.1</ele>
        <time>2020-08-27T12:33:53Z</time>
      </trkpt>
      <trkpt lat="48.65809" lon="7.21055">
        <ele>396.1</ele>
        <time>2020-08-27T12:33:53Z</time>
      </trkpt>
      <trkpt lat="48.65806" lon="7.21044">
        <ele>395.7</ele>
        <time>2020-08-27T12:33:56Z</time>
      </trkpt>
      <trkpt lat="48.65803" lon="7.21032">
        <ele>395.1</ele>
        <time>2020-08-27T12:34:00Z</time>
      </trkpt>
      <trkpt lat="48.658" lon="7.2102">
        <ele>395</ele>
        <time>2020-08-27T12:34:01Z</time>
      </trkpt>
      <trkpt lat="48.65798" lon="7.21012">
        <ele>394.6</ele>
        <time>2020-08-27T12:34:03Z</time>
      </trkpt>
      <trkpt lat="48.65796" lon="7.21004">
        <ele>394.5</ele>
        <time>2020-08-27T12:34:05Z</time>
      </trkpt>
      <trkpt lat="48.65795" lon="7.20996">
        <ele>394.8</ele>
        <time>2020-08-27T12:34:08Z</time>
      </trkpt>
      <trkpt lat="48.65792" lon="7.2099">
        <ele>394.9</ele>
        <time>2020-08-27T12:34:10Z</time>
      </trkpt>
      <trkpt lat="48.65788" lon="7.20983">
        <ele>395.3</ele>
        <time>2020-08-27T12:34:12Z</time>
      </trkpt>
      <trkpt lat="48.65779" lon="7.20971">
        <ele>395</ele>
        <time>2020-08-27T12:34:15Z</time>
      </trkpt>
      <trkpt lat="48.65774" lon="7.20963">
        <ele>394.4</ele>
        <time>2020-08-27T12:34:17Z</time>
      </trkpt>
      <trkpt lat="48.65769" lon="7.20954">
        <ele>394.1</ele>
        <time>2020-08-27T12:34:19Z</time>
      </trkpt>
      <trkpt lat="48.65761" lon="7.20943">
        <ele>393.4</ele>
        <time>2020-08-27T12:34:22Z</time>
      </trkpt>
      <trkpt lat="48.65754" lon="7.20929">
        <ele>392.6</ele>
        <time>2020-08-27T12:34:25Z</time>
      </trkpt>
      <trkpt lat="48.65753" lon="7.20916">
        <ele>391.7</ele>
        <time>2020-08-27T12:34:28Z</time>
      </trkpt>
      <trkpt lat="48.65751" lon="7.20904">
        <ele>390.6</ele>
        <time>2020-08-27T12:34:31Z</time>
      </trkpt>
      <trkpt lat="48.65748" lon="7.2089">
        <ele>389.6</ele>
        <time>2020-08-27T12:34:34Z</time>
      </trkpt>
      <trkpt lat="48.65745" lon="7.2087">
        <ele>388</ele>
        <time>2020-08-27T12:34:37Z</time>
      </trkpt>
      <trkpt lat="48.65739" lon="7.20852">
        <ele>388</ele>
        <time>2020-08-27T12:34:40Z</time>
      </trkpt>
      <trkpt lat="48.65735" lon="7.20837">
        <ele>386.2</ele>
        <time>2020-08-27T12:34:43Z</time>
      </trkpt>
      <trkpt lat="48.65736" lon="7.20825">
        <ele>384.9</ele>
        <time>2020-08-27T12:34:45Z</time>
      </trkpt>
      <trkpt lat="48.65737" lon="7.20807">
        <ele>383.1</ele>
        <time>2020-08-27T12:34:47Z</time>
      </trkpt>
      <trkpt lat="48.65737" lon="7.20799">
        <ele>383</ele>
        <time>2020-08-27T12:34:49Z</time>
      </trkpt>
      <trkpt lat="48.65736" lon="7.20788">
        <ele>382.3</ele>
        <time>2020-08-27T12:34:52Z</time>
      </trkpt>
      <trkpt lat="48.65734" lon="7.20778">
        <ele>381.8</ele>
        <time>2020-08-27T12:34:55Z</time>
      </trkpt>
      <trkpt lat="48.65734" lon="7.2077">
        <ele>382.7</ele>
        <time>2020-08-27T12:34:58Z</time>
      </trkpt>
      <trkpt lat="48.65732" lon="7.20759">
        <ele>384.1</ele>
        <time>2020-08-27T12:35:00Z</time>
      </trkpt>
      <trkpt lat="48.6573" lon="7.20746">
        <ele>384.1</ele>
        <time>2020-08-27T12:35:03Z</time>
      </trkpt>
      <trkpt lat="48.65727" lon="7.2073">
        <ele>383.9</ele>
        <time>2020-08-27T12:35:04Z</time>
      </trkpt>
      <trkpt lat="48.65724" lon="7.20714">
        <ele>384.3</ele>
        <time>2020-08-27T12:35:06Z</time>
      </trkpt>
      <trkpt lat="48.65721" lon="7.207">
        <ele>384</ele>
        <time>2020-08-27T12:35:08Z</time>
      </trkpt>
      <trkpt lat="48.65719" lon="7.20687">
        <ele>383.4</ele>
        <time>2020-08-27T12:35:10Z</time>
      </trkpt>
      <trkpt lat="48.65717" lon="7.20674">
        <ele>382.4</ele>
        <time>2020-08-27T12:35:12Z</time>
      </trkpt>
      <trkpt lat="48.65715" lon="7.20659">
        <ele>381.6</ele>
        <time>2020-08-27T12:35:14Z</time>
      </trkpt>
      <trkpt lat="48.65713" lon="7.20643">
        <ele>381</ele>
        <time>2020-08-27T12:35:17Z</time>
      </trkpt>
      <trkpt lat="48.65711" lon="7.20624">
        <ele>379</ele>
        <time>2020-08-27T12:35:19Z</time>
      </trkpt>
      <trkpt lat="48.65709" lon="7.20611">
        <ele>378</ele>
        <time>2020-08-27T12:35:21Z</time>
      </trkpt>
      <trkpt lat="48.65704" lon="7.206">
        <ele>376.2</ele>
        <time>2020-08-27T12:35:23Z</time>
      </trkpt>
      <trkpt lat="48.65701" lon="7.20591">
        <ele>375.3</ele>
        <time>2020-08-27T12:35:25Z</time>
      </trkpt>
      <trkpt lat="48.657" lon="7.20579">
        <ele>374</ele>
        <time>2020-08-27T12:35:27Z</time>
      </trkpt>
      <trkpt lat="48.65698" lon="7.20569">
        <ele>372.9</ele>
        <time>2020-08-27T12:35:29Z</time>
      </trkpt>
      <trkpt lat="48.65697" lon="7.2056">
        <ele>371.8</ele>
        <time>2020-08-27T12:35:31Z</time>
      </trkpt>
      <trkpt lat="48.65696" lon="7.20551">
        <ele>370.5</ele>
        <time>2020-08-27T12:35:33Z</time>
      </trkpt>
      <trkpt lat="48.65695" lon="7.20542">
        <ele>369.3</ele>
        <time>2020-08-27T12:35:35Z</time>
      </trkpt>
      <trkpt lat="48.65694" lon="7.2053">
        <ele>367.8</ele>
        <time>2020-08-27T12:35:37Z</time>
      </trkpt>
      <trkpt lat="48.65693" lon="7.20519">
        <ele>366.6</ele>
        <time>2020-08-27T12:35:39Z</time>
      </trkpt>
      <trkpt lat="48.65693" lon="7.20507">
        <ele>366.3</ele>
        <time>2020-08-27T12:35:42Z</time>
      </trkpt>
      <trkpt lat="48.65693" lon="7.20496">
        <ele>365.6</ele>
        <time>2020-08-27T12:35:44Z</time>
      </trkpt>
      <trkpt lat="48.65694" lon="7.20485">
        <ele>365</ele>
        <time>2020-08-27T12:35:46Z</time>
      </trkpt>
      <trkpt lat="48.65694" lon="7.20474">
        <ele>364.4</ele>
        <time>2020-08-27T12:35:47Z</time>
      </trkpt>
      <trkpt lat="48.65695" lon="7.20456">
        <ele>362.8</ele>
        <time>2020-08-27T12:35:50Z</time>
      </trkpt>
      <trkpt lat="48.65697" lon="7.20444">
        <ele>362.4</ele>
        <time>2020-08-27T12:35:52Z</time>
      </trkpt>
      <trkpt lat="48.65699" lon="7.20433">
        <ele>362.3</ele>
        <time>2020-08-27T12:35:54Z</time>
      </trkpt>
      <trkpt lat="48.65699" lon="7.20425">
        <ele>362.5</ele>
        <time>2020-08-27T12:35:56Z</time>
      </trkpt>
      <trkpt lat="48.65702" lon="7.20412">
        <ele>362.4</ele>
        <time>2020-08-27T12:35:58Z</time>
      </trkpt>
      <trkpt lat="48.65703" lon="7.20396">
        <ele>362.1</ele>
        <time>2020-08-27T12:36:00Z</time>
      </trkpt>
      <trkpt lat="48.65707" lon="7.20383">
        <ele>361.1</ele>
        <time>2020-08-27T12:36:02Z</time>
      </trkpt>
      <trkpt lat="48.65709" lon="7.20371">
        <ele>360.2</ele>
        <time>2020-08-27T12:36:05Z</time>
      </trkpt>
      <trkpt lat="48.65712" lon="7.20361">
        <ele>359.2</ele>
        <time>2020-08-27T12:36:07Z</time>
      </trkpt>
      <trkpt lat="48.65714" lon="7.20354">
        <ele>359.1</ele>
        <time>2020-08-27T12:36:09Z</time>
      </trkpt>
      <trkpt lat="48.65715" lon="7.20342">
        <ele>358.3</ele>
        <time>2020-08-27T12:36:12Z</time>
      </trkpt>
      <trkpt lat="48.65721" lon="7.2032">
        <ele>356.9</ele>
        <time>2020-08-27T12:36:15Z</time>
      </trkpt>
      <trkpt lat="48.65726" lon="7.203">
        <ele>355.7</ele>
        <time>2020-08-27T12:36:17Z</time>
      </trkpt>
      <trkpt lat="48.65728" lon="7.20286">
        <ele>354.1</ele>
        <time>2020-08-27T12:36:19Z</time>
      </trkpt>
      <trkpt lat="48.65732" lon="7.2027">
        <ele>352.2</ele>
        <time>2020-08-27T12:36:22Z</time>
      </trkpt>
      <trkpt lat="48.65735" lon="7.20255">
        <ele>349.9</ele>
        <time>2020-08-27T12:36:24Z</time>
      </trkpt>
      <trkpt lat="48.65737" lon="7.2024">
        <ele>348.6</ele>
        <time>2020-08-27T12:36:26Z</time>
      </trkpt>
      <trkpt lat="48.65739" lon="7.20227">
        <ele>346.8</ele>
        <time>2020-08-27T12:36:27Z</time>
      </trkpt>
      <trkpt lat="48.65741" lon="7.20219">
        <ele>345.3</ele>
        <time>2020-08-27T12:36:29Z</time>
      </trkpt>
      <trkpt lat="48.65745" lon="7.20212">
        <ele>343.4</ele>
        <time>2020-08-27T12:36:32Z</time>
      </trkpt>
      <trkpt lat="48.65746" lon="7.20204">
        <ele>340.2</ele>
        <time>2020-08-27T12:36:47Z</time>
      </trkpt>
      <trkpt lat="48.6575" lon="7.20199">
        <ele>339</ele>
        <time>2020-08-27T12:36:53Z</time>
      </trkpt>
      <trkpt lat="48.65755" lon="7.20193">
        <ele>341</ele>
        <time>2020-08-27T12:36:56Z</time>
      </trkpt>
      <trkpt lat="48.6576" lon="7.2019">
        <ele>341.9</ele>
        <time>2020-08-27T12:36:58Z</time>
      </trkpt>
      <trkpt lat="48.65765" lon="7.20186">
        <ele>341.8</ele>
        <time>2020-08-27T12:37:00Z</time>
      </trkpt>
      <trkpt lat="48.65771" lon="7.20182">
        <ele>340.7</ele>
        <time>2020-08-27T12:37:03Z</time>
      </trkpt>
      <trkpt lat="48.65776" lon="7.20177">
        <ele>339.4</ele>
        <time>2020-08-27T12:37:06Z</time>
      </trkpt>
      <trkpt lat="48.6578" lon="7.20173">
        <ele>338.2</ele>
        <time>2020-08-27T12:37:09Z</time>
      </trkpt>
      <trkpt lat="48.65784" lon="7.20169">
        <ele>337.2</ele>
        <time>2020-08-27T12:37:11Z</time>
      </trkpt>
      <trkpt lat="48.65789" lon="7.20163">
        <ele>336.1</ele>
        <time>2020-08-27T12:37:13Z</time>
      </trkpt>
      <trkpt lat="48.65794" lon="7.20161">
        <ele>334</ele>
        <time>2020-08-27T12:37:18Z</time>
      </trkpt>
      <trkpt lat="48.65797" lon="7.20155">
        <ele>332.4</ele>
        <time>2020-08-27T12:37:23Z</time>
      </trkpt>
      <trkpt lat="48.65799" lon="7.20149">
        <ele>331.8</ele>
        <time>2020-08-27T12:37:30Z</time>
      </trkpt>
      <trkpt lat="48.65801" lon="7.20142">
        <ele>331.7</ele>
        <time>2020-08-27T12:37:36Z</time>
      </trkpt>
      <trkpt lat="48.65805" lon="7.20135">
        <ele>331.2</ele>
        <time>2020-08-27T12:37:41Z</time>
      </trkpt>
      <trkpt lat="48.65807" lon="7.20129">
        <ele>331.3</ele>
        <time>2020-08-27T12:37:43Z</time>
      </trkpt>
      <trkpt lat="48.6581" lon="7.20121">
        <ele>330.9</ele>
        <time>2020-08-27T12:37:47Z</time>
      </trkpt>
      <trkpt lat="48.65811" lon="7.20113">
        <ele>330.7</ele>
        <time>2020-08-27T12:37:49Z</time>
      </trkpt>
      <trkpt lat="48.65814" lon="7.20104">
        <ele>329.5</ele>
        <time>2020-08-27T12:37:54Z</time>
      </trkpt>
      <trkpt lat="48.65817" lon="7.20097">
        <ele>328.8</ele>
        <time>2020-08-27T12:37:56Z</time>
      </trkpt>
      <trkpt lat="48.65821" lon="7.20087">
        <ele>328.1</ele>
        <time>2020-08-27T12:37:58Z</time>
      </trkpt>
      <trkpt lat="48.65825" lon="7.2008">
        <ele>327.4</ele>
        <time>2020-08-27T12:38:00Z</time>
      </trkpt>
      <trkpt lat="48.65829" lon="7.20069">
        <ele>327.4</ele>
        <time>2020-08-27T12:38:02Z</time>
      </trkpt>
      <trkpt lat="48.6583" lon="7.20059">
        <ele>327.4</ele>
        <time>2020-08-27T12:38:04Z</time>
      </trkpt>
      <trkpt lat="48.65832" lon="7.20051">
        <ele>327.1</ele>
        <time>2020-08-27T12:38:06Z</time>
      </trkpt>
      <trkpt lat="48.65834" lon="7.20042">
        <ele>326.7</ele>
        <time>2020-08-27T12:38:08Z</time>
      </trkpt>
      <trkpt lat="48.65835" lon="7.20036">
        <ele>325.7</ele>
        <time>2020-08-27T12:38:10Z</time>
      </trkpt>
      <trkpt lat="48.65838" lon="7.20027">
        <ele>325</ele>
        <time>2020-08-27T12:38:13Z</time>
      </trkpt>
      <trkpt lat="48.65839" lon="7.20017">
        <ele>324</ele>
        <time>2020-08-27T12:38:16Z</time>
      </trkpt>
      <trkpt lat="48.65841" lon="7.20009">
        <ele>322.2</ele>
        <time>2020-08-27T12:38:18Z</time>
      </trkpt>
      <trkpt lat="48.65846" lon="7.2">
        <ele>321.4</ele>
        <time>2020-08-27T12:38:20Z</time>
      </trkpt>
      <trkpt lat="48.65849" lon="7.19991">
        <ele>321.4</ele>
        <time>2020-08-27T12:38:22Z</time>
      </trkpt>
      <trkpt lat="48.65851" lon="7.19981">
        <ele>320.6</ele>
        <time>2020-08-27T12:38:24Z</time>
      </trkpt>
      <trkpt lat="48.65852" lon="7.19972">
        <ele>320</ele>
        <time>2020-08-27T12:38:26Z</time>
      </trkpt>
      <trkpt lat="48.65854" lon="7.19964">
        <ele>319.8</ele>
        <time>2020-08-27T12:38:29Z</time>
      </trkpt>
      <trkpt lat="48.65859" lon="7.19953">
        <ele>317.6</ele>
        <time>2020-08-27T12:38:31Z</time>
      </trkpt>
      <trkpt lat="48.65863" lon="7.19947">
        <ele>317.1</ele>
        <time>2020-08-27T12:38:33Z</time>
      </trkpt>
      <trkpt lat="48.65866" lon="7.19941">
        <ele>316.3</ele>
        <time>2020-08-27T12:38:36Z</time>
      </trkpt>
      <trkpt lat="48.6587" lon="7.19938">
        <ele>310.1</ele>
        <time>2020-08-27T12:38:46Z</time>
      </trkpt>
      <trkpt lat="48.65871" lon="7.19931">
        <ele>307.4</ele>
        <time>2020-08-27T12:39:08Z</time>
      </trkpt>
      <trkpt lat="48.65873" lon="7.19924">
        <ele>306.6</ele>
        <time>2020-08-27T12:39:12Z</time>
      </trkpt>
      <trkpt lat="48.65875" lon="7.19916">
        <ele>305.6</ele>
        <time>2020-08-27T12:39:17Z</time>
      </trkpt>
      <trkpt lat="48.65877" lon="7.1991">
        <ele>305</ele>
        <time>2020-08-27T12:39:23Z</time>
      </trkpt>
      <trkpt lat="48.65877" lon="7.19903">
        <ele>304.7</ele>
        <time>2020-08-27T12:39:34Z</time>
      </trkpt>
      <trkpt lat="48.65876" lon="7.19896">
        <ele>304.3</ele>
        <time>2020-08-27T12:39:42Z</time>
      </trkpt>
      <trkpt lat="48.65875" lon="7.19888">
        <ele>303.4</ele>
        <time>2020-08-27T12:39:49Z</time>
      </trkpt>
      <trkpt lat="48.65874" lon="7.19881">
        <ele>303.2</ele>
        <time>2020-08-27T12:39:57Z</time>
      </trkpt>
      <trkpt lat="48.65874" lon="7.19874">
        <ele>302</ele>
        <time>2020-08-27T12:40:03Z</time>
      </trkpt>
      <trkpt lat="48.65876" lon="7.19865">
        <ele>300.5</ele>
        <time>2020-08-27T12:40:06Z</time>
      </trkpt>
      <trkpt lat="48.65878" lon="7.19858">
        <ele>302.6</ele>
        <time>2020-08-27T12:40:09Z</time>
      </trkpt>
      <trkpt lat="48.6588" lon="7.1985">
        <ele>301</ele>
        <time>2020-08-27T12:40:13Z</time>
      </trkpt>
      <trkpt lat="48.65883" lon="7.19844">
        <ele>298.8</ele>
        <time>2020-08-27T12:40:16Z</time>
      </trkpt>
      <trkpt lat="48.65885" lon="7.19839">
        <ele>297</ele>
        <time>2020-08-27T12:40:19Z</time>
      </trkpt>
      <trkpt lat="48.65887" lon="7.1983">
        <ele>296</ele>
        <time>2020-08-27T12:40:22Z</time>
      </trkpt>
      <trkpt lat="48.65889" lon="7.19823">
        <ele>294</ele>
        <time>2020-08-27T12:40:25Z</time>
      </trkpt>
      <trkpt lat="48.65891" lon="7.19817">
        <ele>291.3</ele>
        <time>2020-08-27T12:40:32Z</time>
      </trkpt>
      <trkpt lat="48.65894" lon="7.1981">
        <ele>288.2</ele>
        <time>2020-08-27T12:40:41Z</time>
      </trkpt>
      <trkpt lat="48.65894" lon="7.19802">
        <ele>287.4</ele>
        <time>2020-08-27T12:40:49Z</time>
      </trkpt>
      <trkpt lat="48.65887" lon="7.19802">
        <ele>285.5</ele>
        <time>2020-08-27T12:41:06Z</time>
      </trkpt>
      <trkpt lat="48.65881" lon="7.19806">
        <ele>285.6</ele>
        <time>2020-08-27T12:41:09Z</time>
      </trkpt>
      <trkpt lat="48.65878" lon="7.19811">
        <ele>285.6</ele>
        <time>2020-08-27T12:41:11Z</time>
      </trkpt>
      <trkpt lat="48.65874" lon="7.19819">
        <ele>284.2</ele>
        <time>2020-08-27T12:41:14Z</time>
      </trkpt>
      <trkpt lat="48.65871" lon="7.19827">
        <ele>282.9</ele>
        <time>2020-08-27T12:41:17Z</time>
      </trkpt>
      <trkpt lat="48.65869" lon="7.19835">
        <ele>281.9</ele>
        <time>2020-08-27T12:41:20Z</time>
      </trkpt>
      <trkpt lat="48.65866" lon="7.19844">
        <ele>281</ele>
        <time>2020-08-27T12:41:23Z</time>
      </trkpt>
      <trkpt lat="48.65864" lon="7.19851">
        <ele>280.2</ele>
        <time>2020-08-27T12:41:25Z</time>
      </trkpt>
      <trkpt lat="48.65862" lon="7.19858">
        <ele>279.8</ele>
        <time>2020-08-27T12:41:27Z</time>
      </trkpt>
      <trkpt lat="48.6586" lon="7.19864">
        <ele>279.7</ele>
        <time>2020-08-27T12:41:29Z</time>
      </trkpt>
      <trkpt lat="48.65858" lon="7.1987">
        <ele>278.9</ele>
        <time>2020-08-27T12:41:31Z</time>
      </trkpt>
      <trkpt lat="48.65855" lon="7.19879">
        <ele>277.4</ele>
        <time>2020-08-27T12:41:34Z</time>
      </trkpt>
      <trkpt lat="48.65852" lon="7.19886">
        <ele>277.1</ele>
        <time>2020-08-27T12:41:36Z</time>
      </trkpt>
      <trkpt lat="48.6585" lon="7.19893">
        <ele>276.6</ele>
        <time>2020-08-27T12:41:38Z</time>
      </trkpt>
      <trkpt lat="48.65847" lon="7.199">
        <ele>276.5</ele>
        <time>2020-08-27T12:41:41Z</time>
      </trkpt>
      <trkpt lat="48.65843" lon="7.19907">
        <ele>276.7</ele>
        <time>2020-08-27T12:41:43Z</time>
      </trkpt>
      <trkpt lat="48.6584" lon="7.19916">
        <ele>276.3</ele>
        <time>2020-08-27T12:41:45Z</time>
      </trkpt>
      <trkpt lat="48.6584" lon="7.19928">
        <ele>276.1</ele>
        <time>2020-08-27T12:41:48Z</time>
      </trkpt>
      <trkpt lat="48.65838" lon="7.19936">
        <ele>276.2</ele>
        <time>2020-08-27T12:41:50Z</time>
      </trkpt>
      <trkpt lat="48.65837" lon="7.19947">
        <ele>275.6</ele>
        <time>2020-08-27T12:41:52Z</time>
      </trkpt>
      <trkpt lat="48.65836" lon="7.19957">
        <ele>275.5</ele>
        <time>2020-08-27T12:41:54Z</time>
      </trkpt>
      <trkpt lat="48.65833" lon="7.19964">
        <ele>275.1</ele>
        <time>2020-08-27T12:41:56Z</time>
      </trkpt>
      <trkpt lat="48.65831" lon="7.19972">
        <ele>274.7</ele>
        <time>2020-08-27T12:41:58Z</time>
      </trkpt>
      <trkpt lat="48.65829" lon="7.19986">
        <ele>274.8</ele>
        <time>2020-08-27T12:42:00Z</time>
      </trkpt>
      <trkpt lat="48.65827" lon="7.19996">
        <ele>275.8</ele>
        <time>2020-08-27T12:42:03Z</time>
      </trkpt>
      <trkpt lat="48.65826" lon="7.20005">
        <ele>276.6</ele>
        <time>2020-08-27T12:42:04Z</time>
      </trkpt>
      <trkpt lat="48.65822" lon="7.20015">
        <ele>277.4</ele>
        <time>2020-08-27T12:42:06Z</time>
      </trkpt>
      <trkpt lat="48.65815" lon="7.20027">
        <ele>277.1</ele>
        <time>2020-08-27T12:42:08Z</time>
      </trkpt>
      <trkpt lat="48.65808" lon="7.20036">
        <ele>277</ele>
        <time>2020-08-27T12:42:10Z</time>
      </trkpt>
      <trkpt lat="48.65799" lon="7.20044">
        <ele>277.1</ele>
        <time>2020-08-27T12:42:12Z</time>
      </trkpt>
      <trkpt lat="48.6579" lon="7.20054">
        <ele>278</ele>
        <time>2020-08-27T12:42:14Z</time>
      </trkpt>
      <trkpt lat="48.65781" lon="7.20064">
        <ele>279.1</ele>
        <time>2020-08-27T12:42:16Z</time>
      </trkpt>
      <trkpt lat="48.65774" lon="7.20073">
        <ele>280.1</ele>
        <time>2020-08-27T12:42:18Z</time>
      </trkpt>
      <trkpt lat="48.65766" lon="7.2008">
        <ele>281.5</ele>
        <time>2020-08-27T12:42:20Z</time>
      </trkpt>
      <trkpt lat="48.65757" lon="7.20086">
        <ele>283.1</ele>
        <time>2020-08-27T12:42:22Z</time>
      </trkpt>
      <trkpt lat="48.65747" lon="7.20088">
        <ele>283.7</ele>
        <time>2020-08-27T12:42:24Z</time>
      </trkpt>
      <trkpt lat="48.65738" lon="7.20087">
        <ele>284.6</ele>
        <time>2020-08-27T12:42:26Z</time>
      </trkpt>
      <trkpt lat="48.65729" lon="7.20083">
        <ele>285.9</ele>
        <time>2020-08-27T12:42:28Z</time>
      </trkpt>
      <trkpt lat="48.65721" lon="7.20079">
        <ele>286.9</ele>
        <time>2020-08-27T12:42:30Z</time>
      </trkpt>
      <trkpt lat="48.65714" lon="7.20074">
        <ele>286.7</ele>
        <time>2020-08-27T12:42:32Z</time>
      </trkpt>
      <trkpt lat="48.65708" lon="7.20069">
        <ele>286.7</ele>
        <time>2020-08-27T12:42:34Z</time>
      </trkpt>
      <trkpt lat="48.65701" lon="7.20063">
        <ele>286.7</ele>
        <time>2020-08-27T12:42:36Z</time>
      </trkpt>
      <trkpt lat="48.65694" lon="7.20058">
        <ele>286.8</ele>
        <time>2020-08-27T12:42:38Z</time>
      </trkpt>
      <trkpt lat="48.65687" lon="7.20058">
        <ele>286.2</ele>
        <time>2020-08-27T12:42:40Z</time>
      </trkpt>
      <trkpt lat="48.65682" lon="7.20059">
        <ele>285.4</ele>
        <time>2020-08-27T12:42:42Z</time>
      </trkpt>
      <trkpt lat="48.65678" lon="7.20065">
        <ele>284.7</ele>
        <time>2020-08-27T12:42:44Z</time>
      </trkpt>
      <trkpt lat="48.65678" lon="7.20075">
        <ele>283.9</ele>
        <time>2020-08-27T12:42:46Z</time>
      </trkpt>
      <trkpt lat="48.6568" lon="7.20086">
        <ele>283.2</ele>
        <time>2020-08-27T12:42:48Z</time>
      </trkpt>
      <trkpt lat="48.65681" lon="7.20095">
        <ele>282.6</ele>
        <time>2020-08-27T12:42:50Z</time>
      </trkpt>
      <trkpt lat="48.65683" lon="7.20102">
        <ele>282</ele>
        <time>2020-08-27T12:42:52Z</time>
      </trkpt>
      <trkpt lat="48.65685" lon="7.2011">
        <ele>281.3</ele>
        <time>2020-08-27T12:42:54Z</time>
      </trkpt>
      <trkpt lat="48.65687" lon="7.2012">
        <ele>281.2</ele>
        <time>2020-08-27T12:42:57Z</time>
      </trkpt>
      <trkpt lat="48.65687" lon="7.20127">
        <ele>281.1</ele>
        <time>2020-08-27T12:43:00Z</time>
      </trkpt>
      <trkpt lat="48.65687" lon="7.20135">
        <ele>281.2</ele>
        <time>2020-08-27T12:43:02Z</time>
      </trkpt>
      <trkpt lat="48.65686" lon="7.20144">
        <ele>281</ele>
        <time>2020-08-27T12:43:04Z</time>
      </trkpt>
      <trkpt lat="48.65686" lon="7.20155">
        <ele>281.9</ele>
        <time>2020-08-27T12:43:06Z</time>
      </trkpt>
      <trkpt lat="48.65687" lon="7.20164">
        <ele>282.5</ele>
        <time>2020-08-27T12:43:08Z</time>
      </trkpt>
      <trkpt lat="48.65689" lon="7.20173">
        <ele>282.4</ele>
        <time>2020-08-27T12:43:10Z</time>
      </trkpt>
      <trkpt lat="48.6569" lon="7.2018">
        <ele>281.6</ele>
        <time>2020-08-27T12:43:12Z</time>
      </trkpt>
      <trkpt lat="48.65691" lon="7.20189">
        <ele>281.6</ele>
        <time>2020-08-27T12:43:15Z</time>
      </trkpt>
      <trkpt lat="48.65689" lon="7.20197">
        <ele>282.4</ele>
        <time>2020-08-27T12:43:17Z</time>
      </trkpt>
      <trkpt lat="48.65686" lon="7.20206">
        <ele>282.9</ele>
        <time>2020-08-27T12:43:19Z</time>
      </trkpt>
      <trkpt lat="48.65683" lon="7.20214">
        <ele>283.8</ele>
        <time>2020-08-27T12:43:21Z</time>
      </trkpt>
      <trkpt lat="48.65681" lon="7.20222">
        <ele>284.9</ele>
        <time>2020-08-27T12:43:23Z</time>
      </trkpt>
      <trkpt lat="48.65677" lon="7.20231">
        <ele>286.1</ele>
        <time>2020-08-27T12:43:25Z</time>
      </trkpt>
      <trkpt lat="48.65674" lon="7.20239">
        <ele>287.8</ele>
        <time>2020-08-27T12:43:27Z</time>
      </trkpt>
      <trkpt lat="48.65671" lon="7.20249">
        <ele>288.8</ele>
        <time>2020-08-27T12:43:29Z</time>
      </trkpt>
      <trkpt lat="48.65668" lon="7.20259">
        <ele>289.7</ele>
        <time>2020-08-27T12:43:31Z</time>
      </trkpt>
      <trkpt lat="48.65665" lon="7.2027">
        <ele>290.4</ele>
        <time>2020-08-27T12:43:33Z</time>
      </trkpt>
      <trkpt lat="48.65662" lon="7.20282">
        <ele>291.1</ele>
        <time>2020-08-27T12:43:35Z</time>
      </trkpt>
      <trkpt lat="48.65658" lon="7.20291">
        <ele>292.2</ele>
        <time>2020-08-27T12:43:37Z</time>
      </trkpt>
      <trkpt lat="48.65654" lon="7.20298">
        <ele>292.8</ele>
        <time>2020-08-27T12:43:39Z</time>
      </trkpt>
      <trkpt lat="48.65651" lon="7.20305">
        <ele>292.8</ele>
        <time>2020-08-27T12:43:41Z</time>
      </trkpt>
      <trkpt lat="48.65647" lon="7.20307">
        <ele>299.4</ele>
        <time>2020-08-27T12:44:07Z</time>
      </trkpt>
      <trkpt lat="48.65642" lon="7.20309">
        <ele>299.2</ele>
        <time>2020-08-27T12:44:14Z</time>
      </trkpt>
      <trkpt lat="48.65635" lon="7.20313">
        <ele>298</ele>
        <time>2020-08-27T12:44:17Z</time>
      </trkpt>
      <trkpt lat="48.65631" lon="7.20316">
        <ele>297</ele>
        <time>2020-08-27T12:44:19Z</time>
      </trkpt>
      <trkpt lat="48.65627" lon="7.20323">
        <ele>296.3</ele>
        <time>2020-08-27T12:44:22Z</time>
      </trkpt>
      <trkpt lat="48.65623" lon="7.20328">
        <ele>297</ele>
        <time>2020-08-27T12:44:27Z</time>
      </trkpt>
      <trkpt lat="48.65618" lon="7.20331">
        <ele>299.8</ele>
        <time>2020-08-27T12:44:36Z</time>
      </trkpt>
      <trkpt lat="48.65613" lon="7.20332">
        <ele>299.1</ele>
        <time>2020-08-27T12:44:38Z</time>
      </trkpt>
      <trkpt lat="48.65608" lon="7.20334">
        <ele>298.3</ele>
        <time>2020-08-27T12:44:40Z</time>
      </trkpt>
      <trkpt lat="48.65604" lon="7.20339">
        <ele>298</ele>
        <time>2020-08-27T12:44:42Z</time>
      </trkpt>
      <trkpt lat="48.65599" lon="7.20345">
        <ele>297.6</ele>
        <time>2020-08-27T12:44:44Z</time>
      </trkpt>
      <trkpt lat="48.65595" lon="7.2035">
        <ele>296.3</ele>
        <time>2020-08-27T12:44:46Z</time>
      </trkpt>
      <trkpt lat="48.65591" lon="7.20353">
        <ele>295.3</ele>
        <time>2020-08-27T12:44:48Z</time>
      </trkpt>
      <trkpt lat="48.65584" lon="7.20354">
        <ele>295.2</ele>
        <time>2020-08-27T12:44:51Z</time>
      </trkpt>
      <trkpt lat="48.65579" lon="7.2035">
        <ele>310.2</ele>
        <time>2020-08-27T12:44:54Z</time>
      </trkpt>
      <trkpt lat="48.65574" lon="7.20347">
        <ele>313.4</ele>
        <time>2020-08-27T12:44:56Z</time>
      </trkpt>
      <trkpt lat="48.65569" lon="7.20345">
        <ele>321.2</ele>
        <time>2020-08-27T12:44:58Z</time>
      </trkpt>
      <trkpt lat="48.65565" lon="7.20349">
        <ele>318.6</ele>
        <time>2020-08-27T12:45:02Z</time>
      </trkpt>
      <trkpt lat="48.65562" lon="7.20355">
        <ele>327.5</ele>
        <time>2020-08-27T12:45:09Z</time>
      </trkpt>
      <trkpt lat="48.65557" lon="7.20358">
        <ele>326.7</ele>
        <time>2020-08-27T12:45:14Z</time>
      </trkpt>
      <trkpt lat="48.65553" lon="7.2036">
        <ele>318.2</ele>
        <time>2020-08-27T12:45:18Z</time>
      </trkpt>
      <trkpt lat="48.65548" lon="7.20362">
        <ele>307</ele>
        <time>2020-08-27T12:45:24Z</time>
      </trkpt>
      <trkpt lat="48.65544" lon="7.20359">
        <ele>297.9</ele>
        <time>2020-08-27T12:45:32Z</time>
      </trkpt>
      <trkpt lat="48.6554" lon="7.2035">
        <ele>296.5</ele>
        <time>2020-08-27T12:45:35Z</time>
      </trkpt>
      <trkpt lat="48.65539" lon="7.20342">
        <ele>294.4</ele>
        <time>2020-08-27T12:45:37Z</time>
      </trkpt>
      <trkpt lat="48.65539" lon="7.20333">
        <ele>293.5</ele>
        <time>2020-08-27T12:45:39Z</time>
      </trkpt>
      <trkpt lat="48.6554" lon="7.20323">
        <ele>293</ele>
        <time>2020-08-27T12:45:41Z</time>
      </trkpt>
      <trkpt lat="48.65541" lon="7.20312">
        <ele>293</ele>
        <time>2020-08-27T12:45:43Z</time>
      </trkpt>
      <trkpt lat="48.6554" lon="7.203">
        <ele>292</ele>
        <time>2020-08-27T12:45:45Z</time>
      </trkpt>
      <trkpt lat="48.6554" lon="7.20289">
        <ele>290.6</ele>
        <time>2020-08-27T12:45:47Z</time>
      </trkpt>
      <trkpt lat="48.65543" lon="7.20277">
        <ele>289.5</ele>
        <time>2020-08-27T12:45:49Z</time>
      </trkpt>
      <trkpt lat="48.65547" lon="7.20267">
        <ele>288.1</ele>
        <time>2020-08-27T12:45:51Z</time>
      </trkpt>
      <trkpt lat="48.65552" lon="7.20257">
        <ele>287.4</ele>
        <time>2020-08-27T12:45:53Z</time>
      </trkpt>
      <trkpt lat="48.65558" lon="7.20249">
        <ele>287.1</ele>
        <time>2020-08-27T12:45:55Z</time>
      </trkpt>
      <trkpt lat="48.65564" lon="7.20241">
        <ele>287</ele>
        <time>2020-08-27T12:45:57Z</time>
      </trkpt>
      <trkpt lat="48.65569" lon="7.20231">
        <ele>287.6</ele>
        <time>2020-08-27T12:45:59Z</time>
      </trkpt>
      <trkpt lat="48.65572" lon="7.20223">
        <ele>287.4</ele>
        <time>2020-08-27T12:46:01Z</time>
      </trkpt>
      <trkpt lat="48.65574" lon="7.20216">
        <ele>288.1</ele>
        <time>2020-08-27T12:46:04Z</time>
      </trkpt>
      <trkpt lat="48.65571" lon="7.20221">
        <ele>288.8</ele>
        <time>2020-08-27T12:46:08Z</time>
      </trkpt>
      <trkpt lat="48.65567" lon="7.20225">
        <ele>289.8</ele>
        <time>2020-08-27T12:46:25Z</time>
      </trkpt>
      <trkpt lat="48.65562" lon="7.2023">
        <ele>290.4</ele>
        <time>2020-08-27T12:46:28Z</time>
      </trkpt>
      <trkpt lat="48.65558" lon="7.20235">
        <ele>290.5</ele>
        <time>2020-08-27T12:46:30Z</time>
      </trkpt>
      <trkpt lat="48.65553" lon="7.20241">
        <ele>290.5</ele>
        <time>2020-08-27T12:46:32Z</time>
      </trkpt>
      <trkpt lat="48.65547" lon="7.20247">
        <ele>290</ele>
        <time>2020-08-27T12:46:34Z</time>
      </trkpt>
      <trkpt lat="48.6554" lon="7.20251">
        <ele>289.4</ele>
        <time>2020-08-27T12:46:36Z</time>
      </trkpt>
      <trkpt lat="48.65531" lon="7.20255">
        <ele>288.8</ele>
        <time>2020-08-27T12:46:38Z</time>
      </trkpt>
      <trkpt lat="48.65522" lon="7.20259">
        <ele>288.6</ele>
        <time>2020-08-27T12:46:40Z</time>
      </trkpt>
      <trkpt lat="48.65511" lon="7.20261">
        <ele>288</ele>
        <time>2020-08-27T12:46:42Z</time>
      </trkpt>
      <trkpt lat="48.65502" lon="7.20264">
        <ele>287.7</ele>
        <time>2020-08-27T12:46:44Z</time>
      </trkpt>
      <trkpt lat="48.65491" lon="7.20265">
        <ele>287.6</ele>
        <time>2020-08-27T12:46:46Z</time>
      </trkpt>
      <trkpt lat="48.65481" lon="7.20263">
        <ele>287.8</ele>
        <time>2020-08-27T12:46:48Z</time>
      </trkpt>
      <trkpt lat="48.6547" lon="7.20261">
        <ele>287.7</ele>
        <time>2020-08-27T12:46:50Z</time>
      </trkpt>
      <trkpt lat="48.65461" lon="7.20257">
        <ele>287.7</ele>
        <time>2020-08-27T12:46:52Z</time>
      </trkpt>
      <trkpt lat="48.65451" lon="7.20254">
        <ele>287.6</ele>
        <time>2020-08-27T12:46:54Z</time>
      </trkpt>
      <trkpt lat="48.6544" lon="7.20252">
        <ele>287.1</ele>
        <time>2020-08-27T12:46:56Z</time>
      </trkpt>
      <trkpt lat="48.65429" lon="7.20249">
        <ele>286.8</ele>
        <time>2020-08-27T12:46:58Z</time>
      </trkpt>
      <trkpt lat="48.65418" lon="7.20246">
        <ele>286.2</ele>
        <time>2020-08-27T12:47:00Z</time>
      </trkpt>
      <trkpt lat="48.65406" lon="7.20243">
        <ele>286</ele>
        <time>2020-08-27T12:47:02Z</time>
      </trkpt>
      <trkpt lat="48.65395" lon="7.20237">
        <ele>285.9</ele>
        <time>2020-08-27T12:47:04Z</time>
      </trkpt>
      <trkpt lat="48.65382" lon="7.20231">
        <ele>285.6</ele>
        <time>2020-08-27T12:47:06Z</time>
      </trkpt>
      <trkpt lat="48.65371" lon="7.20221">
        <ele>285.8</ele>
        <time>2020-08-27T12:47:08Z</time>
      </trkpt>
      <trkpt lat="48.65358" lon="7.20211">
        <ele>286</ele>
        <time>2020-08-27T12:47:10Z</time>
      </trkpt>
      <trkpt lat="48.65345" lon="7.20201">
        <ele>286.4</ele>
        <time>2020-08-27T12:47:12Z</time>
      </trkpt>
      <trkpt lat="48.65332" lon="7.20191">
        <ele>286.9</ele>
        <time>2020-08-27T12:47:14Z</time>
      </trkpt>
      <trkpt lat="48.65318" lon="7.20181">
        <ele>287.2</ele>
        <time>2020-08-27T12:47:16Z</time>
      </trkpt>
      <trkpt lat="48.65305" lon="7.2017">
        <ele>287.6</ele>
        <time>2020-08-27T12:47:18Z</time>
      </trkpt>
      <trkpt lat="48.65293" lon="7.20159">
        <ele>287.6</ele>
        <time>2020-08-27T12:47:20Z</time>
      </trkpt>
      <trkpt lat="48.65279" lon="7.20149">
        <ele>287.6</ele>
        <time>2020-08-27T12:47:22Z</time>
      </trkpt>
      <trkpt lat="48.65266" lon="7.2014">
        <ele>287.7</ele>
        <time>2020-08-27T12:47:24Z</time>
      </trkpt>
      <trkpt lat="48.65252" lon="7.20131">
        <ele>287.9</ele>
        <time>2020-08-27T12:47:26Z</time>
      </trkpt>
      <trkpt lat="48.65238" lon="7.20124">
        <ele>288.5</ele>
        <time>2020-08-27T12:47:28Z</time>
      </trkpt>
      <trkpt lat="48.65224" lon="7.20119">
        <ele>288.5</ele>
        <time>2020-08-27T12:47:30Z</time>
      </trkpt>
      <trkpt lat="48.6521" lon="7.20114">
        <ele>288.4</ele>
        <time>2020-08-27T12:47:32Z</time>
      </trkpt>
      <trkpt lat="48.65195" lon="7.2011">
        <ele>288.6</ele>
        <time>2020-08-27T12:47:34Z</time>
      </trkpt>
      <trkpt lat="48.65181" lon="7.20108">
        <ele>288.6</ele>
        <time>2020-08-27T12:47:36Z</time>
      </trkpt>
      <trkpt lat="48.65166" lon="7.20107">
        <ele>289.1</ele>
        <time>2020-08-27T12:47:38Z</time>
      </trkpt>
      <trkpt lat="48.6515" lon="7.20105">
        <ele>289.2</ele>
        <time>2020-08-27T12:47:40Z</time>
      </trkpt>
      <trkpt lat="48.65136" lon="7.20102">
        <ele>289.4</ele>
        <time>2020-08-27T12:47:42Z</time>
      </trkpt>
      <trkpt lat="48.65122" lon="7.20095">
        <ele>290.1</ele>
        <time>2020-08-27T12:47:44Z</time>
      </trkpt>
      <trkpt lat="48.65109" lon="7.20086">
        <ele>290.2</ele>
        <time>2020-08-27T12:47:46Z</time>
      </trkpt>
      <trkpt lat="48.65097" lon="7.20074">
        <ele>290.1</ele>
        <time>2020-08-27T12:47:48Z</time>
      </trkpt>
      <trkpt lat="48.65086" lon="7.2006">
        <ele>290.3</ele>
        <time>2020-08-27T12:47:50Z</time>
      </trkpt>
      <trkpt lat="48.65075" lon="7.20043">
        <ele>290.2</ele>
        <time>2020-08-27T12:47:52Z</time>
      </trkpt>
      <trkpt lat="48.65065" lon="7.20025">
        <ele>289.9</ele>
        <time>2020-08-27T12:47:54Z</time>
      </trkpt>
      <trkpt lat="48.65054" lon="7.20008">
        <ele>290</ele>
        <time>2020-08-27T12:47:56Z</time>
      </trkpt>
      <trkpt lat="48.65043" lon="7.19992">
        <ele>289.9</ele>
        <time>2020-08-27T12:47:58Z</time>
      </trkpt>
      <trkpt lat="48.65032" lon="7.19976">
        <ele>289.4</ele>
        <time>2020-08-27T12:48:00Z</time>
      </trkpt>
      <trkpt lat="48.65021" lon="7.19959">
        <ele>289.1</ele>
        <time>2020-08-27T12:48:02Z</time>
      </trkpt>
      <trkpt lat="48.6501" lon="7.19944">
        <ele>288.8</ele>
        <time>2020-08-27T12:48:04Z</time>
      </trkpt>
      <trkpt lat="48.64997" lon="7.19929">
        <ele>288.9</ele>
        <time>2020-08-27T12:48:06Z</time>
      </trkpt>
      <trkpt lat="48.64984" lon="7.19918">
        <ele>289</ele>
        <time>2020-08-27T12:48:08Z</time>
      </trkpt>
      <trkpt lat="48.64969" lon="7.19912">
        <ele>289.1</ele>
        <time>2020-08-27T12:48:10Z</time>
      </trkpt>
      <trkpt lat="48.64954" lon="7.19912">
        <ele>289.7</ele>
        <time>2020-08-27T12:48:12Z</time>
      </trkpt>
      <trkpt lat="48.64939" lon="7.19915">
        <ele>290</ele>
        <time>2020-08-27T12:48:14Z</time>
      </trkpt>
      <trkpt lat="48.64925" lon="7.19923">
        <ele>290.6</ele>
        <time>2020-08-27T12:48:16Z</time>
      </trkpt>
      <trkpt lat="48.64912" lon="7.19935">
        <ele>290.9</ele>
        <time>2020-08-27T12:48:18Z</time>
      </trkpt>
      <trkpt lat="48.649" lon="7.1995">
        <ele>291.3</ele>
        <time>2020-08-27T12:48:20Z</time>
      </trkpt>
      <trkpt lat="48.64889" lon="7.19967">
        <ele>291.9</ele>
        <time>2020-08-27T12:48:22Z</time>
      </trkpt>
      <trkpt lat="48.6488" lon="7.19985">
        <ele>292.5</ele>
        <time>2020-08-27T12:48:24Z</time>
      </trkpt>
      <trkpt lat="48.64872" lon="7.20002">
        <ele>293.2</ele>
        <time>2020-08-27T12:48:26Z</time>
      </trkpt>
      <trkpt lat="48.64863" lon="7.20019">
        <ele>293.7</ele>
        <time>2020-08-27T12:48:28Z</time>
      </trkpt>
      <trkpt lat="48.64854" lon="7.20035">
        <ele>294</ele>
        <time>2020-08-27T12:48:30Z</time>
      </trkpt>
      <trkpt lat="48.64845" lon="7.20048">
        <ele>294</ele>
        <time>2020-08-27T12:48:32Z</time>
      </trkpt>
      <trkpt lat="48.64839" lon="7.20058">
        <ele>293.4</ele>
        <time>2020-08-27T12:48:34Z</time>
      </trkpt>
      <trkpt lat="48.64838" lon="7.20066">
        <ele>292.9</ele>
        <time>2020-08-27T12:48:36Z</time>
      </trkpt>
      <trkpt lat="48.64841" lon="7.20072">
        <ele>292.1</ele>
        <time>2020-08-27T12:48:38Z</time>
      </trkpt>
      <trkpt lat="48.64846" lon="7.20078">
        <ele>291.4</ele>
        <time>2020-08-27T12:48:40Z</time>
      </trkpt>
      <trkpt lat="48.64852" lon="7.20085">
        <ele>290.8</ele>
        <time>2020-08-27T12:48:42Z</time>
      </trkpt>
      <trkpt lat="48.64858" lon="7.20094">
        <ele>290.9</ele>
        <time>2020-08-27T12:48:44Z</time>
      </trkpt>
      <trkpt lat="48.64866" lon="7.20101">
        <ele>290.8</ele>
        <time>2020-08-27T12:48:46Z</time>
      </trkpt>
      <trkpt lat="48.64872" lon="7.20109">
        <ele>291</ele>
        <time>2020-08-27T12:48:48Z</time>
      </trkpt>
      <trkpt lat="48.64876" lon="7.20114">
        <ele>291.2</ele>
        <time>2020-08-27T12:48:50Z</time>
      </trkpt>
      <trkpt lat="48.64882" lon="7.20114">
        <ele>288.2</ele>
        <time>2020-08-27T12:49:03Z</time>
      </trkpt>
      <trkpt lat="48.64886" lon="7.2011">
        <ele>288</ele>
        <time>2020-08-27T12:49:05Z</time>
      </trkpt>
      <trkpt lat="48.64891" lon="7.20104">
        <ele>287.2</ele>
        <time>2020-08-27T12:49:07Z</time>
      </trkpt>
      <trkpt lat="48.64896" lon="7.20097">
        <ele>288</ele>
        <time>2020-08-27T12:49:09Z</time>
      </trkpt>
      <trkpt lat="48.64903" lon="7.20091">
        <ele>288.2</ele>
        <time>2020-08-27T12:49:11Z</time>
      </trkpt>
      <trkpt lat="48.64911" lon="7.20083">
        <ele>288.7</ele>
        <time>2020-08-27T12:49:13Z</time>
      </trkpt>
      <trkpt lat="48.6492" lon="7.20075">
        <ele>288.8</ele>
        <time>2020-08-27T12:49:15Z</time>
      </trkpt>
      <trkpt lat="48.6493" lon="7.20071">
        <ele>289.3</ele>
        <time>2020-08-27T12:49:17Z</time>
      </trkpt>
      <trkpt lat="48.64939" lon="7.2007">
        <ele>289.6</ele>
        <time>2020-08-27T12:49:19Z</time>
      </trkpt>
      <trkpt lat="48.64948" lon="7.2007">
        <ele>290</ele>
        <time>2020-08-27T12:49:21Z</time>
      </trkpt>
      <trkpt lat="48.64956" lon="7.2007">
        <ele>290.2</ele>
        <time>2020-08-27T12:49:23Z</time>
      </trkpt>
      <trkpt lat="48.64962" lon="7.20071">
        <ele>291.2</ele>
        <time>2020-08-27T12:49:25Z</time>
      </trkpt>
      <trkpt lat="48.64967" lon="7.20072">
        <ele>291.1</ele>
        <time>2020-08-27T12:49:29Z</time>
      </trkpt>
      <trkpt lat="48.64972" lon="7.20072">
        <ele>289.2</ele>
        <time>2020-08-27T12:49:38Z</time>
      </trkpt>
      <trkpt lat="48.64975" lon="7.20077">
        <ele>290.5</ele>
        <time>2020-08-27T12:49:43Z</time>
      </trkpt>
      <trkpt lat="48.64979" lon="7.20079">
        <ele>294.3</ele>
        <time>2020-08-27T12:49:54Z</time>
      </trkpt>
      <trkpt lat="48.64984" lon="7.20082">
        <ele>297.1</ele>
        <time>2020-08-27T12:49:59Z</time>
      </trkpt>
      <trkpt lat="48.64989" lon="7.20086">
        <ele>299</ele>
        <time>2020-08-27T12:50:09Z</time>
      </trkpt>
      <trkpt lat="48.64993" lon="7.2009">
        <ele>302.5</ele>
        <time>2020-08-27T12:50:16Z</time>
      </trkpt>
      <trkpt lat="48.64996" lon="7.20096">
        <ele>304.1</ele>
        <time>2020-08-27T12:50:20Z</time>
      </trkpt>
      <trkpt lat="48.65" lon="7.20101">
        <ele>306.4</ele>
        <time>2020-08-27T12:50:25Z</time>
      </trkpt>
      <trkpt lat="48.65004" lon="7.20105">
        <ele>308</ele>
        <time>2020-08-27T12:50:30Z</time>
      </trkpt>
      <trkpt lat="48.65008" lon="7.20109">
        <ele>308.5</ele>
        <time>2020-08-27T12:51:07Z</time>
      </trkpt>
      <trkpt lat="48.65011" lon="7.20117">
        <ele>307.3</ele>
        <time>2020-08-27T12:51:15Z</time>
      </trkpt>
      <trkpt lat="48.65013" lon="7.20124">
        <ele>306.8</ele>
        <time>2020-08-27T12:51:19Z</time>
      </trkpt>
      <trkpt lat="48.65015" lon="7.2013">
        <ele>308.4</ele>
        <time>2020-08-27T12:51:24Z</time>
      </trkpt>
      <trkpt lat="48.65019" lon="7.20135">
        <ele>309.2</ele>
        <time>2020-08-27T12:51:29Z</time>
      </trkpt>
      <trkpt lat="48.65022" lon="7.20142">
        <ele>311.2</ele>
        <time>2020-08-27T12:51:59Z</time>
      </trkpt>
      <trkpt lat="48.65025" lon="7.20147">
        <ele>311.2</ele>
        <time>2020-08-27T12:52:03Z</time>
      </trkpt>
      <trkpt lat="48.65028" lon="7.20153">
        <ele>310.5</ele>
        <time>2020-08-27T12:52:10Z</time>
      </trkpt>
      <trkpt lat="48.65031" lon="7.20159">
        <ele>309.5</ele>
        <time>2020-08-27T12:52:22Z</time>
      </trkpt>
      <trkpt lat="48.65035" lon="7.20163">
        <ele>309.3</ele>
        <time>2020-08-27T12:52:31Z</time>
      </trkpt>
      <trkpt lat="48.65039" lon="7.20167">
        <ele>309</ele>
        <time>2020-08-27T12:52:42Z</time>
      </trkpt>
      <trkpt lat="48.65042" lon="7.20172">
        <ele>309.3</ele>
        <time>2020-08-27T12:52:48Z</time>
      </trkpt>
      <trkpt lat="48.65045" lon="7.20178">
        <ele>309.3</ele>
        <time>2020-08-27T12:52:53Z</time>
      </trkpt>
      <trkpt lat="48.65049" lon="7.20184">
        <ele>309.5</ele>
        <time>2020-08-27T12:53:01Z</time>
      </trkpt>
      <trkpt lat="48.65052" lon="7.20188">
        <ele>309.6</ele>
        <time>2020-08-27T12:53:15Z</time>
      </trkpt>
      <trkpt lat="48.65057" lon="7.2019">
        <ele>314.5</ele>
        <time>2020-08-27T12:53:48Z</time>
      </trkpt>
      <trkpt lat="48.65061" lon="7.20194">
        <ele>317</ele>
        <time>2020-08-27T12:53:59Z</time>
      </trkpt>
      <trkpt lat="48.65064" lon="7.202">
        <ele>319.1</ele>
        <time>2020-08-27T12:54:06Z</time>
      </trkpt>
      <trkpt lat="48.65069" lon="7.20204">
        <ele>321.4</ele>
        <time>2020-08-27T12:54:12Z</time>
      </trkpt>
      <trkpt lat="48.65072" lon="7.20209">
        <ele>323</ele>
        <time>2020-08-27T12:54:19Z</time>
      </trkpt>
      <trkpt lat="48.65075" lon="7.20215">
        <ele>327.2</ele>
        <time>2020-08-27T12:54:48Z</time>
      </trkpt>
      <trkpt lat="48.65078" lon="7.20221">
        <ele>325.2</ele>
        <time>2020-08-27T12:54:54Z</time>
      </trkpt>
      <trkpt lat="48.65082" lon="7.20224">
        <ele>323.5</ele>
        <time>2020-08-27T12:54:59Z</time>
      </trkpt>
      <trkpt lat="48.65086" lon="7.20227">
        <ele>325.9</ele>
        <time>2020-08-27T12:55:13Z</time>
      </trkpt>
      <trkpt lat="48.65091" lon="7.2023">
        <ele>331.4</ele>
        <time>2020-08-27T12:55:20Z</time>
      </trkpt>
      <trkpt lat="48.65095" lon="7.20235">
        <ele>329.7</ele>
        <time>2020-08-27T12:55:26Z</time>
      </trkpt>
      <trkpt lat="48.65099" lon="7.2024">
        <ele>328.7</ele>
        <time>2020-08-27T12:55:31Z</time>
      </trkpt>
      <trkpt lat="48.65105" lon="7.20244">
        <ele>328.5</ele>
        <time>2020-08-27T12:55:36Z</time>
      </trkpt>
      <trkpt lat="48.65109" lon="7.20248">
        <ele>328</ele>
        <time>2020-08-27T12:55:41Z</time>
      </trkpt>
      <trkpt lat="48.65113" lon="7.20253">
        <ele>328.5</ele>
        <time>2020-08-27T12:55:44Z</time>
      </trkpt>
      <trkpt lat="48.65117" lon="7.20256">
        <ele>329.1</ele>
        <time>2020-08-27T12:55:49Z</time>
      </trkpt>
      <trkpt lat="48.65121" lon="7.20262">
        <ele>330.2</ele>
        <time>2020-08-27T12:55:56Z</time>
      </trkpt>
      <trkpt lat="48.65125" lon="7.20265">
        <ele>334.2</ele>
        <time>2020-08-27T12:56:00Z</time>
      </trkpt>
      <trkpt lat="48.6513" lon="7.20266">
        <ele>333.3</ele>
        <time>2020-08-27T12:56:04Z</time>
      </trkpt>
      <trkpt lat="48.65135" lon="7.20268">
        <ele>333.2</ele>
        <time>2020-08-27T12:56:11Z</time>
      </trkpt>
      <trkpt lat="48.6514" lon="7.2027">
        <ele>339</ele>
        <time>2020-08-27T12:56:17Z</time>
      </trkpt>
      <trkpt lat="48.65144" lon="7.20272">
        <ele>340.5</ele>
        <time>2020-08-27T12:56:21Z</time>
      </trkpt>
      <trkpt lat="48.65149" lon="7.20275">
        <ele>338.1</ele>
        <time>2020-08-27T12:56:26Z</time>
      </trkpt>
      <trkpt lat="48.65153" lon="7.20278">
        <ele>336.6</ele>
        <time>2020-08-27T12:56:30Z</time>
      </trkpt>
      <trkpt lat="48.65157" lon="7.20279">
        <ele>336.7</ele>
        <time>2020-08-27T12:56:34Z</time>
      </trkpt>
      <trkpt lat="48.65162" lon="7.20277">
        <ele>338.7</ele>
        <time>2020-08-27T12:56:44Z</time>
      </trkpt>
      <trkpt lat="48.65166" lon="7.2028">
        <ele>340.4</ele>
        <time>2020-08-27T12:56:51Z</time>
      </trkpt>
      <trkpt lat="48.6517" lon="7.20284">
        <ele>342.6</ele>
        <time>2020-08-27T12:56:55Z</time>
      </trkpt>
      <trkpt lat="48.65174" lon="7.20288">
        <ele>343.9</ele>
        <time>2020-08-27T12:57:01Z</time>
      </trkpt>
      <trkpt lat="48.65179" lon="7.20293">
        <ele>344.6</ele>
        <time>2020-08-27T12:57:05Z</time>
      </trkpt>
      <trkpt lat="48.65183" lon="7.20295">
        <ele>345.4</ele>
        <time>2020-08-27T12:57:10Z</time>
      </trkpt>
      <trkpt lat="48.65187" lon="7.20299">
        <ele>346.3</ele>
        <time>2020-08-27T12:57:16Z</time>
      </trkpt>
      <trkpt lat="48.65192" lon="7.20302">
        <ele>348.1</ele>
        <time>2020-08-27T12:57:23Z</time>
      </trkpt>
      <trkpt lat="48.65196" lon="7.20302">
        <ele>348.3</ele>
        <time>2020-08-27T12:57:28Z</time>
      </trkpt>
      <trkpt lat="48.652" lon="7.20307">
        <ele>347.6</ele>
        <time>2020-08-27T12:57:32Z</time>
      </trkpt>
      <trkpt lat="48.65204" lon="7.20311">
        <ele>347.2</ele>
        <time>2020-08-27T12:57:36Z</time>
      </trkpt>
      <trkpt lat="48.65209" lon="7.20315">
        <ele>347.1</ele>
        <time>2020-08-27T12:57:41Z</time>
      </trkpt>
      <trkpt lat="48.65211" lon="7.20322">
        <ele>347.5</ele>
        <time>2020-08-27T12:57:48Z</time>
      </trkpt>
      <trkpt lat="48.65215" lon="7.20327">
        <ele>349.5</ele>
        <time>2020-08-27T12:57:54Z</time>
      </trkpt>
      <trkpt lat="48.65219" lon="7.20332">
        <ele>350.6</ele>
        <time>2020-08-27T12:57:59Z</time>
      </trkpt>
      <trkpt lat="48.65223" lon="7.20336">
        <ele>352.5</ele>
        <time>2020-08-27T12:58:04Z</time>
      </trkpt>
      <trkpt lat="48.65227" lon="7.20339">
        <ele>354.2</ele>
        <time>2020-08-27T12:58:10Z</time>
      </trkpt>
      <trkpt lat="48.6523" lon="7.20344">
        <ele>356.2</ele>
        <time>2020-08-27T12:58:15Z</time>
      </trkpt>
      <trkpt lat="48.65234" lon="7.2035">
        <ele>356.8</ele>
        <time>2020-08-27T12:58:20Z</time>
      </trkpt>
      <trkpt lat="48.65237" lon="7.20355">
        <ele>357.6</ele>
        <time>2020-08-27T12:58:27Z</time>
      </trkpt>
      <trkpt lat="48.65239" lon="7.20361">
        <ele>357.5</ele>
        <time>2020-08-27T12:58:37Z</time>
      </trkpt>
      <trkpt lat="48.65242" lon="7.20367">
        <ele>358.4</ele>
        <time>2020-08-27T12:58:42Z</time>
      </trkpt>
      <trkpt lat="48.65246" lon="7.20374">
        <ele>357.6</ele>
        <time>2020-08-27T12:58:46Z</time>
      </trkpt>
      <trkpt lat="48.65248" lon="7.20381">
        <ele>357</ele>
        <time>2020-08-27T12:58:49Z</time>
      </trkpt>
      <trkpt lat="48.65251" lon="7.20387">
        <ele>356.3</ele>
        <time>2020-08-27T12:58:53Z</time>
      </trkpt>
      <trkpt lat="48.65255" lon="7.20392">
        <ele>356.5</ele>
        <time>2020-08-27T12:58:58Z</time>
      </trkpt>
      <trkpt lat="48.65258" lon="7.20397">
        <ele>357.2</ele>
        <time>2020-08-27T12:59:05Z</time>
      </trkpt>
      <trkpt lat="48.65262" lon="7.20403">
        <ele>358.3</ele>
        <time>2020-08-27T12:59:14Z</time>
      </trkpt>
      <trkpt lat="48.65265" lon="7.2041">
        <ele>360.1</ele>
        <time>2020-08-27T12:59:19Z</time>
      </trkpt>
      <trkpt lat="48.65268" lon="7.20417">
        <ele>361.6</ele>
        <time>2020-08-27T12:59:23Z</time>
      </trkpt>
      <trkpt lat="48.6527" lon="7.20423">
        <ele>364.2</ele>
        <time>2020-08-27T12:59:27Z</time>
      </trkpt>
      <trkpt lat="48.65274" lon="7.2043">
        <ele>365.9</ele>
        <time>2020-08-27T12:59:32Z</time>
      </trkpt>
      <trkpt lat="48.65277" lon="7.20435">
        <ele>366.8</ele>
        <time>2020-08-27T12:59:35Z</time>
      </trkpt>
      <trkpt lat="48.6528" lon="7.2044">
        <ele>367.8</ele>
        <time>2020-08-27T12:59:38Z</time>
      </trkpt>
      <trkpt lat="48.65282" lon="7.20447">
        <ele>368.6</ele>
        <time>2020-08-27T12:59:43Z</time>
      </trkpt>
      <trkpt lat="48.65283" lon="7.20453">
        <ele>370.6</ele>
        <time>2020-08-27T12:59:49Z</time>
      </trkpt>
      <trkpt lat="48.65286" lon="7.20459">
        <ele>372.3</ele>
        <time>2020-08-27T12:59:54Z</time>
      </trkpt>
      <trkpt lat="48.65289" lon="7.20464">
        <ele>373.8</ele>
        <time>2020-08-27T12:59:58Z</time>
      </trkpt>
      <trkpt lat="48.6529" lon="7.20472">
        <ele>374.8</ele>
        <time>2020-08-27T13:00:04Z</time>
      </trkpt>
      <trkpt lat="48.65292" lon="7.2048">
        <ele>374.9</ele>
        <time>2020-08-27T13:00:09Z</time>
      </trkpt>
      <trkpt lat="48.65295" lon="7.20487">
        <ele>375.7</ele>
        <time>2020-08-27T13:00:14Z</time>
      </trkpt>
      <trkpt lat="48.65298" lon="7.20493">
        <ele>377.4</ele>
        <time>2020-08-27T13:00:18Z</time>
      </trkpt>
      <trkpt lat="48.65301" lon="7.205">
        <ele>376.9</ele>
        <time>2020-08-27T13:00:22Z</time>
      </trkpt>
      <trkpt lat="48.65303" lon="7.20507">
        <ele>374.8</ele>
        <time>2020-08-27T13:00:27Z</time>
      </trkpt>
      <trkpt lat="48.65305" lon="7.20513">
        <ele>373.9</ele>
        <time>2020-08-27T13:00:31Z</time>
      </trkpt>
      <trkpt lat="48.65307" lon="7.2052">
        <ele>373.9</ele>
        <time>2020-08-27T13:00:36Z</time>
      </trkpt>
      <trkpt lat="48.6531" lon="7.20527">
        <ele>374</ele>
        <time>2020-08-27T13:00:54Z</time>
      </trkpt>
      <trkpt lat="48.65311" lon="7.20533">
        <ele>374.4</ele>
        <time>2020-08-27T13:01:00Z</time>
      </trkpt>
      <trkpt lat="48.65315" lon="7.2054">
        <ele>376.1</ele>
        <time>2020-08-27T13:01:06Z</time>
      </trkpt>
      <trkpt lat="48.65318" lon="7.20545">
        <ele>376.5</ele>
        <time>2020-08-27T13:01:11Z</time>
      </trkpt>
      <trkpt lat="48.65321" lon="7.20551">
        <ele>376</ele>
        <time>2020-08-27T13:01:15Z</time>
      </trkpt>
      <trkpt lat="48.65324" lon="7.20557">
        <ele>376.1</ele>
        <time>2020-08-27T13:01:19Z</time>
      </trkpt>
      <trkpt lat="48.65326" lon="7.20563">
        <ele>377.4</ele>
        <time>2020-08-27T13:01:23Z</time>
      </trkpt>
      <trkpt lat="48.6533" lon="7.20569">
        <ele>380.9</ele>
        <time>2020-08-27T13:01:30Z</time>
      </trkpt>
      <trkpt lat="48.6533" lon="7.20576">
        <ele>381.3</ele>
        <time>2020-08-27T13:01:48Z</time>
      </trkpt>
      <trkpt lat="48.65331" lon="7.20583">
        <ele>380.7</ele>
        <time>2020-08-27T13:01:52Z</time>
      </trkpt>
      <trkpt lat="48.65333" lon="7.2059">
        <ele>380.7</ele>
        <time>2020-08-27T13:02:00Z</time>
      </trkpt>
      <trkpt lat="48.65335" lon="7.20596">
        <ele>380.4</ele>
        <time>2020-08-27T13:02:08Z</time>
      </trkpt>
      <trkpt lat="48.65338" lon="7.20603">
        <ele>380.2</ele>
        <time>2020-08-27T13:02:11Z</time>
      </trkpt>
      <trkpt lat="48.65342" lon="7.20609">
        <ele>380.9</ele>
        <time>2020-08-27T13:02:14Z</time>
      </trkpt>
      <trkpt lat="48.65346" lon="7.20616">
        <ele>381.6</ele>
        <time>2020-08-27T13:02:17Z</time>
      </trkpt>
      <trkpt lat="48.65349" lon="7.20623">
        <ele>383.3</ele>
        <time>2020-08-27T13:02:20Z</time>
      </trkpt>
      <trkpt lat="48.65351" lon="7.20631">
        <ele>383.2</ele>
        <time>2020-08-27T13:02:23Z</time>
      </trkpt>
      <trkpt lat="48.65354" lon="7.20637">
        <ele>383.5</ele>
        <time>2020-08-27T13:02:25Z</time>
      </trkpt>
      <trkpt lat="48.65356" lon="7.20643">
        <ele>383.7</ele>
        <time>2020-08-27T13:02:27Z</time>
      </trkpt>
      <trkpt lat="48.65357" lon="7.20652">
        <ele>383.4</ele>
        <time>2020-08-27T13:02:30Z</time>
      </trkpt>
      <trkpt lat="48.65358" lon="7.20661">
        <ele>383.3</ele>
        <time>2020-08-27T13:02:33Z</time>
      </trkpt>
      <trkpt lat="48.6536" lon="7.20671">
        <ele>384</ele>
        <time>2020-08-27T13:02:36Z</time>
      </trkpt>
      <trkpt lat="48.65362" lon="7.20677">
        <ele>384.4</ele>
        <time>2020-08-27T13:02:38Z</time>
      </trkpt>
      <trkpt lat="48.65362" lon="7.20687">
        <ele>385.3</ele>
        <time>2020-08-27T13:02:41Z</time>
      </trkpt>
      <trkpt lat="48.65363" lon="7.20695">
        <ele>386.3</ele>
        <time>2020-08-27T13:02:44Z</time>
      </trkpt>
      <trkpt lat="48.65364" lon="7.20703">
        <ele>387.1</ele>
        <time>2020-08-27T13:02:47Z</time>
      </trkpt>
      <trkpt lat="48.65364" lon="7.2071">
        <ele>387.9</ele>
        <time>2020-08-27T13:02:50Z</time>
      </trkpt>
      <trkpt lat="48.65363" lon="7.20716">
        <ele>388.4</ele>
        <time>2020-08-27T13:02:53Z</time>
      </trkpt>
      <trkpt lat="48.65362" lon="7.20723">
        <ele>387.9</ele>
        <time>2020-08-27T13:02:55Z</time>
      </trkpt>
      <trkpt lat="48.65362" lon="7.20731">
        <ele>388.2</ele>
        <time>2020-08-27T13:02:57Z</time>
      </trkpt>
      <trkpt lat="48.65361" lon="7.20738">
        <ele>388.4</ele>
        <time>2020-08-27T13:03:00Z</time>
      </trkpt>
      <trkpt lat="48.6536" lon="7.20748">
        <ele>389.9</ele>
        <time>2020-08-27T13:03:02Z</time>
      </trkpt>
      <trkpt lat="48.6536" lon="7.20758">
        <ele>390.4</ele>
        <time>2020-08-27T13:03:05Z</time>
      </trkpt>
      <trkpt lat="48.65358" lon="7.20764">
        <ele>390.6</ele>
        <time>2020-08-27T13:03:07Z</time>
      </trkpt>
      <trkpt lat="48.65357" lon="7.20772">
        <ele>390.8</ele>
        <time>2020-08-27T13:03:10Z</time>
      </trkpt>
      <trkpt lat="48.65356" lon="7.20781">
        <ele>390.8</ele>
        <time>2020-08-27T13:03:13Z</time>
      </trkpt>
      <trkpt lat="48.65354" lon="7.20791">
        <ele>390.8</ele>
        <time>2020-08-27T13:03:16Z</time>
      </trkpt>
      <trkpt lat="48.6535" lon="7.20799">
        <ele>391</ele>
        <time>2020-08-27T13:03:18Z</time>
      </trkpt>
      <trkpt lat="48.65347" lon="7.20806">
        <ele>391.1</ele>
        <time>2020-08-27T13:03:20Z</time>
      </trkpt>
      <trkpt lat="48.65343" lon="7.20814">
        <ele>390.7</ele>
        <time>2020-08-27T13:03:22Z</time>
      </trkpt>
      <trkpt lat="48.6534" lon="7.20822">
        <ele>389.6</ele>
        <time>2020-08-27T13:03:24Z</time>
      </trkpt>
      <trkpt lat="48.65336" lon="7.2083">
        <ele>389.4</ele>
        <time>2020-08-27T13:03:26Z</time>
      </trkpt>
      <trkpt lat="48.65333" lon="7.20838">
        <ele>388.7</ele>
        <time>2020-08-27T13:03:29Z</time>
      </trkpt>
      <trkpt lat="48.6533" lon="7.20845">
        <ele>389.1</ele>
        <time>2020-08-27T13:03:30Z</time>
      </trkpt>
      <trkpt lat="48.65327" lon="7.20853">
        <ele>390.2</ele>
        <time>2020-08-27T13:03:32Z</time>
      </trkpt>
      <trkpt lat="48.65324" lon="7.20862">
        <ele>390.7</ele>
        <time>2020-08-27T13:03:34Z</time>
      </trkpt>
      <trkpt lat="48.6532" lon="7.20871">
        <ele>390.4</ele>
        <time>2020-08-27T13:03:36Z</time>
      </trkpt>
      <trkpt lat="48.65316" lon="7.20879">
        <ele>389.1</ele>
        <time>2020-08-27T13:03:38Z</time>
      </trkpt>
      <trkpt lat="48.65313" lon="7.20889">
        <ele>388.7</ele>
        <time>2020-08-27T13:03:40Z</time>
      </trkpt>
      <trkpt lat="48.6531" lon="7.20899">
        <ele>388.3</ele>
        <time>2020-08-27T13:03:42Z</time>
      </trkpt>
      <trkpt lat="48.65309" lon="7.2091">
        <ele>387.9</ele>
        <time>2020-08-27T13:03:45Z</time>
      </trkpt>
      <trkpt lat="48.65308" lon="7.20923">
        <ele>387.3</ele>
        <time>2020-08-27T13:03:47Z</time>
      </trkpt>
      <trkpt lat="48.65307" lon="7.20935">
        <ele>386.5</ele>
        <time>2020-08-27T13:03:48Z</time>
      </trkpt>
      <trkpt lat="48.65306" lon="7.20948">
        <ele>384.7</ele>
        <time>2020-08-27T13:03:50Z</time>
      </trkpt>
      <trkpt lat="48.65304" lon="7.2096">
        <ele>383.7</ele>
        <time>2020-08-27T13:03:52Z</time>
      </trkpt>
      <trkpt lat="48.65302" lon="7.20971">
        <ele>383.1</ele>
        <time>2020-08-27T13:03:54Z</time>
      </trkpt>
      <trkpt lat="48.653" lon="7.20979">
        <ele>382.1</ele>
        <time>2020-08-27T13:03:56Z</time>
      </trkpt>
      <trkpt lat="48.65298" lon="7.20986">
        <ele>381.7</ele>
        <time>2020-08-27T13:03:59Z</time>
      </trkpt>
      <trkpt lat="48.65299" lon="7.20978">
        <ele>382.2</ele>
        <time>2020-08-27T13:04:16Z</time>
      </trkpt>
      <trkpt lat="48.65299" lon="7.20971">
        <ele>382.5</ele>
        <time>2020-08-27T13:04:19Z</time>
      </trkpt>
      <trkpt lat="48.65294" lon="7.20968">
        <ele>383.7</ele>
        <time>2020-08-27T13:04:25Z</time>
      </trkpt>
      <trkpt lat="48.6529" lon="7.20969">
        <ele>384.7</ele>
        <time>2020-08-27T13:04:32Z</time>
      </trkpt>
      <trkpt lat="48.65285" lon="7.20969">
        <ele>387.1</ele>
        <time>2020-08-27T13:04:41Z</time>
      </trkpt>
      <trkpt lat="48.65281" lon="7.20973">
        <ele>387</ele>
        <time>2020-08-27T13:04:47Z</time>
      </trkpt>
      <trkpt lat="48.65275" lon="7.20973">
        <ele>387.6</ele>
        <time>2020-08-27T13:04:50Z</time>
      </trkpt>
      <trkpt lat="48.65268" lon="7.20972">
        <ele>388.4</ele>
        <time>2020-08-27T13:04:53Z</time>
      </trkpt>
      <trkpt lat="48.65263" lon="7.20971">
        <ele>388.6</ele>
        <time>2020-08-27T13:04:55Z</time>
      </trkpt>
      <trkpt lat="48.65257" lon="7.20969">
        <ele>389.6</ele>
        <time>2020-08-27T13:04:58Z</time>
      </trkpt>
      <trkpt lat="48.65254" lon="7.20962">
        <ele>390.4</ele>
        <time>2020-08-27T13:05:02Z</time>
      </trkpt>
      <trkpt lat="48.65253" lon="7.20956">
        <ele>389.7</ele>
        <time>2020-08-27T13:05:04Z</time>
      </trkpt>
      <trkpt lat="48.6525" lon="7.20948">
        <ele>389.8</ele>
        <time>2020-08-27T13:05:06Z</time>
      </trkpt>
      <trkpt lat="48.65248" lon="7.2094">
        <ele>390.2</ele>
        <time>2020-08-27T13:05:08Z</time>
      </trkpt>
      <trkpt lat="48.65246" lon="7.20932">
        <ele>390.3</ele>
        <time>2020-08-27T13:05:10Z</time>
      </trkpt>
      <trkpt lat="48.65244" lon="7.20924">
        <ele>389.1</ele>
        <time>2020-08-27T13:05:13Z</time>
      </trkpt>
      <trkpt lat="48.65241" lon="7.20918">
        <ele>388.6</ele>
        <time>2020-08-27T13:05:14Z</time>
      </trkpt>
      <trkpt lat="48.65237" lon="7.20914">
        <ele>388.6</ele>
        <time>2020-08-27T13:05:16Z</time>
      </trkpt>
      <trkpt lat="48.65233" lon="7.20921">
        <ele>390.3</ele>
        <time>2020-08-27T13:05:21Z</time>
      </trkpt>
      <trkpt lat="48.65233" lon="7.20928">
        <ele>391.4</ele>
        <time>2020-08-27T13:05:24Z</time>
      </trkpt>
      <trkpt lat="48.65231" lon="7.20935">
        <ele>392.2</ele>
        <time>2020-08-27T13:05:26Z</time>
      </trkpt>
      <trkpt lat="48.65229" lon="7.20945">
        <ele>394.3</ele>
        <time>2020-08-27T13:05:28Z</time>
      </trkpt>
      <trkpt lat="48.65227" lon="7.20952">
        <ele>395.2</ele>
        <time>2020-08-27T13:05:30Z</time>
      </trkpt>
      <trkpt lat="48.65225" lon="7.20959">
        <ele>396.8</ele>
        <time>2020-08-27T13:05:32Z</time>
      </trkpt>
      <trkpt lat="48.65223" lon="7.20967">
        <ele>397.9</ele>
        <time>2020-08-27T13:05:34Z</time>
      </trkpt>
      <trkpt lat="48.65222" lon="7.20974">
        <ele>399.5</ele>
        <time>2020-08-27T13:05:36Z</time>
      </trkpt>
      <trkpt lat="48.6522" lon="7.20982">
        <ele>400.9</ele>
        <time>2020-08-27T13:05:38Z</time>
      </trkpt>
      <trkpt lat="48.6522" lon="7.2099">
        <ele>402.5</ele>
        <time>2020-08-27T13:05:40Z</time>
      </trkpt>
      <trkpt lat="48.65218" lon="7.20998">
        <ele>403.9</ele>
        <time>2020-08-27T13:05:42Z</time>
      </trkpt>
      <trkpt lat="48.65217" lon="7.21006">
        <ele>404.2</ele>
        <time>2020-08-27T13:05:44Z</time>
      </trkpt>
      <trkpt lat="48.65214" lon="7.21015">
        <ele>404.8</ele>
        <time>2020-08-27T13:05:46Z</time>
      </trkpt>
      <trkpt lat="48.65212" lon="7.21023">
        <ele>405.5</ele>
        <time>2020-08-27T13:05:48Z</time>
      </trkpt>
      <trkpt lat="48.6521" lon="7.21031">
        <ele>406.1</ele>
        <time>2020-08-27T13:05:50Z</time>
      </trkpt>
      <trkpt lat="48.65207" lon="7.2104">
        <ele>406.7</ele>
        <time>2020-08-27T13:05:52Z</time>
      </trkpt>
      <trkpt lat="48.65204" lon="7.21048">
        <ele>407.1</ele>
        <time>2020-08-27T13:05:54Z</time>
      </trkpt>
      <trkpt lat="48.65202" lon="7.21055">
        <ele>408.1</ele>
        <time>2020-08-27T13:05:56Z</time>
      </trkpt>
      <trkpt lat="48.65199" lon="7.21062">
        <ele>408.6</ele>
        <time>2020-08-27T13:05:58Z</time>
      </trkpt>
      <trkpt lat="48.65195" lon="7.21069">
        <ele>409.6</ele>
        <time>2020-08-27T13:06:00Z</time>
      </trkpt>
      <trkpt lat="48.65192" lon="7.21075">
        <ele>409.8</ele>
        <time>2020-08-27T13:06:02Z</time>
      </trkpt>
      <trkpt lat="48.65187" lon="7.21081">
        <ele>409.7</ele>
        <time>2020-08-27T13:06:04Z</time>
      </trkpt>
      <trkpt lat="48.65182" lon="7.21087">
        <ele>409.2</ele>
        <time>2020-08-27T13:06:06Z</time>
      </trkpt>
      <trkpt lat="48.65177" lon="7.21093">
        <ele>408.3</ele>
        <time>2020-08-27T13:06:08Z</time>
      </trkpt>
      <trkpt lat="48.65171" lon="7.21099">
        <ele>407.7</ele>
        <time>2020-08-27T13:06:10Z</time>
      </trkpt>
      <trkpt lat="48.65165" lon="7.21104">
        <ele>407.1</ele>
        <time>2020-08-27T13:06:12Z</time>
      </trkpt>
      <trkpt lat="48.6516" lon="7.2111">
        <ele>406.7</ele>
        <time>2020-08-27T13:06:14Z</time>
      </trkpt>
      <trkpt lat="48.65156" lon="7.21115">
        <ele>406.4</ele>
        <time>2020-08-27T13:06:16Z</time>
      </trkpt>
      <trkpt lat="48.65152" lon="7.2112">
        <ele>406.1</ele>
        <time>2020-08-27T13:06:18Z</time>
      </trkpt>
      <trkpt lat="48.65147" lon="7.21124">
        <ele>405.8</ele>
        <time>2020-08-27T13:06:20Z</time>
      </trkpt>
      <trkpt lat="48.65141" lon="7.21127">
        <ele>405.2</ele>
        <time>2020-08-27T13:06:22Z</time>
      </trkpt>
      <trkpt lat="48.65136" lon="7.21131">
        <ele>404.5</ele>
        <time>2020-08-27T13:06:24Z</time>
      </trkpt>
      <trkpt lat="48.65131" lon="7.21135">
        <ele>404.2</ele>
        <time>2020-08-27T13:06:26Z</time>
      </trkpt>
      <trkpt lat="48.65126" lon="7.2114">
        <ele>404.2</ele>
        <time>2020-08-27T13:06:28Z</time>
      </trkpt>
      <trkpt lat="48.65121" lon="7.21144">
        <ele>404</ele>
        <time>2020-08-27T13:06:30Z</time>
      </trkpt>
      <trkpt lat="48.65115" lon="7.21148">
        <ele>403.9</ele>
        <time>2020-08-27T13:06:32Z</time>
      </trkpt>
      <trkpt lat="48.6511" lon="7.21151">
        <ele>403.6</ele>
        <time>2020-08-27T13:06:34Z</time>
      </trkpt>
      <trkpt lat="48.65104" lon="7.21155">
        <ele>404.1</ele>
        <time>2020-08-27T13:06:36Z</time>
      </trkpt>
      <trkpt lat="48.65099" lon="7.21159">
        <ele>403.9</ele>
        <time>2020-08-27T13:06:38Z</time>
      </trkpt>
      <trkpt lat="48.65093" lon="7.21162">
        <ele>403.6</ele>
        <time>2020-08-27T13:06:40Z</time>
      </trkpt>
      <trkpt lat="48.65088" lon="7.21165">
        <ele>403.7</ele>
        <time>2020-08-27T13:06:42Z</time>
      </trkpt>
      <trkpt lat="48.65083" lon="7.21167">
        <ele>404.1</ele>
        <time>2020-08-27T13:06:44Z</time>
      </trkpt>
      <trkpt lat="48.65078" lon="7.21169">
        <ele>404.4</ele>
        <time>2020-08-27T13:06:46Z</time>
      </trkpt>
      <trkpt lat="48.65073" lon="7.21171">
        <ele>404.7</ele>
        <time>2020-08-27T13:06:48Z</time>
      </trkpt>
      <trkpt lat="48.65067" lon="7.21173">
        <ele>405.2</ele>
        <time>2020-08-27T13:06:50Z</time>
      </trkpt>
      <trkpt lat="48.65063" lon="7.21176">
        <ele>405.6</ele>
        <time>2020-08-27T13:06:52Z</time>
      </trkpt>
      <trkpt lat="48.65058" lon="7.2118">
        <ele>406.5</ele>
        <time>2020-08-27T13:06:54Z</time>
      </trkpt>
      <trkpt lat="48.65054" lon="7.21185">
        <ele>407.9</ele>
        <time>2020-08-27T13:06:57Z</time>
      </trkpt>
      <trkpt lat="48.65052" lon="7.21191">
        <ele>410.1</ele>
        <time>2020-08-27T13:06:59Z</time>
      </trkpt>
      <trkpt lat="48.65051" lon="7.21198">
        <ele>412.8</ele>
        <time>2020-08-27T13:07:10Z</time>
      </trkpt>
      <trkpt lat="48.65054" lon="7.21191">
        <ele>416.2</ele>
        <time>2020-08-27T13:07:19Z</time>
      </trkpt>
      <trkpt lat="48.65058" lon="7.21187">
        <ele>419.9</ele>
        <time>2020-08-27T13:07:27Z</time>
      </trkpt>
      <trkpt lat="48.65063" lon="7.21183">
        <ele>421.1</ele>
        <time>2020-08-27T13:07:33Z</time>
      </trkpt>
      <trkpt lat="48.65067" lon="7.21181">
        <ele>420.4</ele>
        <time>2020-08-27T13:07:38Z</time>
      </trkpt>
      <trkpt lat="48.65062" lon="7.21184">
        <ele>418.2</ele>
        <time>2020-08-27T13:07:48Z</time>
      </trkpt>
      <trkpt lat="48.65058" lon="7.21188">
        <ele>418.1</ele>
        <time>2020-08-27T13:07:52Z</time>
      </trkpt>
      <trkpt lat="48.65057" lon="7.21195">
        <ele>417.7</ele>
        <time>2020-08-27T13:07:59Z</time>
      </trkpt>
      <trkpt lat="48.65061" lon="7.21199">
        <ele>415.6</ele>
        <time>2020-08-27T13:08:11Z</time>
      </trkpt>
      <trkpt lat="48.65061" lon="7.21207">
        <ele>413.8</ele>
        <time>2020-08-27T13:08:18Z</time>
      </trkpt>
      <trkpt lat="48.6506" lon="7.21214">
        <ele>412.4</ele>
        <time>2020-08-27T13:08:23Z</time>
      </trkpt>
      <trkpt lat="48.6506" lon="7.21222">
        <ele>412.5</ele>
        <time>2020-08-27T13:08:31Z</time>
      </trkpt>
      <trkpt lat="48.6506" lon="7.2123">
        <ele>413</ele>
        <time>2020-08-27T13:08:38Z</time>
      </trkpt>
      <trkpt lat="48.6506" lon="7.21237">
        <ele>411.3</ele>
        <time>2020-08-27T13:08:43Z</time>
      </trkpt>
      <trkpt lat="48.65059" lon="7.21244">
        <ele>410.6</ele>
        <time>2020-08-27T13:08:49Z</time>
      </trkpt>
      <trkpt lat="48.65059" lon="7.21251">
        <ele>409.3</ele>
        <time>2020-08-27T13:08:54Z</time>
      </trkpt>
      <trkpt lat="48.65056" lon="7.21258">
        <ele>408</ele>
        <time>2020-08-27T13:08:57Z</time>
      </trkpt>
      <trkpt lat="48.65053" lon="7.21263">
        <ele>406.8</ele>
        <time>2020-08-27T13:09:03Z</time>
      </trkpt>
      <trkpt lat="48.65052" lon="7.21271">
        <ele>407.3</ele>
        <time>2020-08-27T13:09:10Z</time>
      </trkpt>
      <trkpt lat="48.65052" lon="7.21279">
        <ele>403.8</ele>
        <time>2020-08-27T13:09:13Z</time>
      </trkpt>
      <trkpt lat="48.65051" lon="7.21289">
        <ele>404</ele>
        <time>2020-08-27T13:09:15Z</time>
      </trkpt>
      <trkpt lat="48.65051" lon="7.21296">
        <ele>404.4</ele>
        <time>2020-08-27T13:09:17Z</time>
      </trkpt>
      <trkpt lat="48.6505" lon="7.21306">
        <ele>406.2</ele>
        <time>2020-08-27T13:09:20Z</time>
      </trkpt>
      <trkpt lat="48.65049" lon="7.21316">
        <ele>401.5</ele>
        <time>2020-08-27T13:09:23Z</time>
      </trkpt>
      <trkpt lat="48.65048" lon="7.21325">
        <ele>402.9</ele>
        <time>2020-08-27T13:09:26Z</time>
      </trkpt>
      <trkpt lat="48.65047" lon="7.21335">
        <ele>406</ele>
        <time>2020-08-27T13:09:29Z</time>
      </trkpt>
      <trkpt lat="48.65047" lon="7.21342">
        <ele>407.7</ele>
        <time>2020-08-27T13:09:31Z</time>
      </trkpt>
      <trkpt lat="48.65046" lon="7.2135">
        <ele>410.3</ele>
        <time>2020-08-27T13:09:33Z</time>
      </trkpt>
      <trkpt lat="48.65046" lon="7.21357">
        <ele>412.5</ele>
        <time>2020-08-27T13:09:35Z</time>
      </trkpt>
      <trkpt lat="48.65043" lon="7.21367">
        <ele>414.3</ele>
        <time>2020-08-27T13:09:38Z</time>
      </trkpt>
      <trkpt lat="48.65041" lon="7.21374">
        <ele>414.7</ele>
        <time>2020-08-27T13:09:40Z</time>
      </trkpt>
      <trkpt lat="48.65039" lon="7.21383">
        <ele>415</ele>
        <time>2020-08-27T13:09:42Z</time>
      </trkpt>
      <trkpt lat="48.65037" lon="7.21391">
        <ele>414.3</ele>
        <time>2020-08-27T13:09:44Z</time>
      </trkpt>
      <trkpt lat="48.65035" lon="7.21398">
        <ele>414.3</ele>
        <time>2020-08-27T13:09:46Z</time>
      </trkpt>
      <trkpt lat="48.65035" lon="7.21406">
        <ele>414.5</ele>
        <time>2020-08-27T13:09:48Z</time>
      </trkpt>
      <trkpt lat="48.65034" lon="7.21413">
        <ele>415.3</ele>
        <time>2020-08-27T13:09:50Z</time>
      </trkpt>
      <trkpt lat="48.65033" lon="7.21422">
        <ele>415.7</ele>
        <time>2020-08-27T13:09:52Z</time>
      </trkpt>
      <trkpt lat="48.65033" lon="7.21431">
        <ele>416.6</ele>
        <time>2020-08-27T13:09:54Z</time>
      </trkpt>
      <trkpt lat="48.65033" lon="7.2144">
        <ele>417.5</ele>
        <time>2020-08-27T13:09:56Z</time>
      </trkpt>
      <trkpt lat="48.65033" lon="7.21449">
        <ele>418.4</ele>
        <time>2020-08-27T13:09:58Z</time>
      </trkpt>
      <trkpt lat="48.65033" lon="7.21457">
        <ele>418.8</ele>
        <time>2020-08-27T13:10:00Z</time>
      </trkpt>
      <trkpt lat="48.65032" lon="7.21464">
        <ele>419.8</ele>
        <time>2020-08-27T13:10:02Z</time>
      </trkpt>
      <trkpt lat="48.65031" lon="7.21471">
        <ele>420.3</ele>
        <time>2020-08-27T13:10:04Z</time>
      </trkpt>
      <trkpt lat="48.65029" lon="7.21478">
        <ele>420.8</ele>
        <time>2020-08-27T13:10:06Z</time>
      </trkpt>
      <trkpt lat="48.65027" lon="7.21484">
        <ele>420.6</ele>
        <time>2020-08-27T13:10:08Z</time>
      </trkpt>
      <trkpt lat="48.65024" lon="7.21491">
        <ele>420.1</ele>
        <time>2020-08-27T13:10:10Z</time>
      </trkpt>
      <trkpt lat="48.65021" lon="7.21498">
        <ele>420</ele>
        <time>2020-08-27T13:10:12Z</time>
      </trkpt>
      <trkpt lat="48.65018" lon="7.21504">
        <ele>420.2</ele>
        <time>2020-08-27T13:10:14Z</time>
      </trkpt>
      <trkpt lat="48.65012" lon="7.2151">
        <ele>419.3</ele>
        <time>2020-08-27T13:10:16Z</time>
      </trkpt>
      <trkpt lat="48.65007" lon="7.21516">
        <ele>418.9</ele>
        <time>2020-08-27T13:10:18Z</time>
      </trkpt>
      <trkpt lat="48.65002" lon="7.2152">
        <ele>418.5</ele>
        <time>2020-08-27T13:10:20Z</time>
      </trkpt>
      <trkpt lat="48.64997" lon="7.21524">
        <ele>418.4</ele>
        <time>2020-08-27T13:10:22Z</time>
      </trkpt>
      <trkpt lat="48.64993" lon="7.2153">
        <ele>417.6</ele>
        <time>2020-08-27T13:10:25Z</time>
      </trkpt>
      <trkpt lat="48.64988" lon="7.21535">
        <ele>417</ele>
        <time>2020-08-27T13:10:27Z</time>
      </trkpt>
      <trkpt lat="48.6498" lon="7.21544">
        <ele>416.1</ele>
        <time>2020-08-27T13:10:30Z</time>
      </trkpt>
      <trkpt lat="48.64972" lon="7.21553">
        <ele>415.3</ele>
        <time>2020-08-27T13:10:32Z</time>
      </trkpt>
      <trkpt lat="48.64967" lon="7.21559">
        <ele>414.6</ele>
        <time>2020-08-27T13:10:34Z</time>
      </trkpt>
      <trkpt lat="48.64962" lon="7.21565">
        <ele>414.4</ele>
        <time>2020-08-27T13:10:36Z</time>
      </trkpt>
      <trkpt lat="48.64958" lon="7.21571">
        <ele>413.7</ele>
        <time>2020-08-27T13:10:38Z</time>
      </trkpt>
      <trkpt lat="48.64954" lon="7.21576">
        <ele>413.5</ele>
        <time>2020-08-27T13:10:40Z</time>
      </trkpt>
      <trkpt lat="48.6495" lon="7.21581">
        <ele>413.2</ele>
        <time>2020-08-27T13:10:42Z</time>
      </trkpt>
      <trkpt lat="48.64946" lon="7.21585">
        <ele>413.1</ele>
        <time>2020-08-27T13:10:44Z</time>
      </trkpt>
      <trkpt lat="48.64942" lon="7.21587">
        <ele>412.9</ele>
        <time>2020-08-27T13:10:46Z</time>
      </trkpt>
      <trkpt lat="48.64937" lon="7.2159">
        <ele>413.2</ele>
        <time>2020-08-27T13:10:48Z</time>
      </trkpt>
      <trkpt lat="48.64931" lon="7.21592">
        <ele>413.2</ele>
        <time>2020-08-27T13:10:50Z</time>
      </trkpt>
      <trkpt lat="48.64927" lon="7.21592">
        <ele>412.8</ele>
        <time>2020-08-27T13:10:52Z</time>
      </trkpt>
      <trkpt lat="48.64921" lon="7.21591">
        <ele>412</ele>
        <time>2020-08-27T13:10:54Z</time>
      </trkpt>
      <trkpt lat="48.64915" lon="7.21589">
        <ele>411.3</ele>
        <time>2020-08-27T13:10:57Z</time>
      </trkpt>
      <trkpt lat="48.64907" lon="7.21587">
        <ele>411.4</ele>
        <time>2020-08-27T13:10:59Z</time>
      </trkpt>
      <trkpt lat="48.64902" lon="7.21585">
        <ele>411.2</ele>
        <time>2020-08-27T13:11:01Z</time>
      </trkpt>
      <trkpt lat="48.64896" lon="7.21583">
        <ele>410.7</ele>
        <time>2020-08-27T13:11:03Z</time>
      </trkpt>
      <trkpt lat="48.64889" lon="7.21582">
        <ele>410.6</ele>
        <time>2020-08-27T13:11:05Z</time>
      </trkpt>
      <trkpt lat="48.64883" lon="7.2158">
        <ele>410.6</ele>
        <time>2020-08-27T13:11:07Z</time>
      </trkpt>
      <trkpt lat="48.64875" lon="7.2158">
        <ele>410.9</ele>
        <time>2020-08-27T13:11:09Z</time>
      </trkpt>
      <trkpt lat="48.64868" lon="7.21579">
        <ele>410.7</ele>
        <time>2020-08-27T13:11:11Z</time>
      </trkpt>
      <trkpt lat="48.64862" lon="7.21579">
        <ele>410.8</ele>
        <time>2020-08-27T13:11:13Z</time>
      </trkpt>
      <trkpt lat="48.64857" lon="7.21579">
        <ele>410.1</ele>
        <time>2020-08-27T13:11:15Z</time>
      </trkpt>
      <trkpt lat="48.64851" lon="7.21584">
        <ele>409.9</ele>
        <time>2020-08-27T13:11:18Z</time>
      </trkpt>
      <trkpt lat="48.64849" lon="7.21591">
        <ele>410.3</ele>
        <time>2020-08-27T13:11:20Z</time>
      </trkpt>
      <trkpt lat="48.64849" lon="7.21598">
        <ele>411.8</ele>
        <time>2020-08-27T13:11:22Z</time>
      </trkpt>
      <trkpt lat="48.64849" lon="7.21606">
        <ele>413</ele>
        <time>2020-08-27T13:11:24Z</time>
      </trkpt>
      <trkpt lat="48.64848" lon="7.21614">
        <ele>414.7</ele>
        <time>2020-08-27T13:11:26Z</time>
      </trkpt>
      <trkpt lat="48.64849" lon="7.21623">
        <ele>415.3</ele>
        <time>2020-08-27T13:11:29Z</time>
      </trkpt>
      <trkpt lat="48.64849" lon="7.21631">
        <ele>416.6</ele>
        <time>2020-08-27T13:11:31Z</time>
      </trkpt>
      <trkpt lat="48.64851" lon="7.21637">
        <ele>417.4</ele>
        <time>2020-08-27T13:11:37Z</time>
      </trkpt>
      <trkpt lat="48.64852" lon="7.21646">
        <ele>418.7</ele>
        <time>2020-08-27T13:11:48Z</time>
      </trkpt>
      <trkpt lat="48.64854" lon="7.21653">
        <ele>419.2</ele>
        <time>2020-08-27T13:11:50Z</time>
      </trkpt>
      <trkpt lat="48.64855" lon="7.2166">
        <ele>419.5</ele>
        <time>2020-08-27T13:11:52Z</time>
      </trkpt>
      <trkpt lat="48.64855" lon="7.21667">
        <ele>420.2</ele>
        <time>2020-08-27T13:11:54Z</time>
      </trkpt>
      <trkpt lat="48.64855" lon="7.21674">
        <ele>420.5</ele>
        <time>2020-08-27T13:11:57Z</time>
      </trkpt>
      <trkpt lat="48.64856" lon="7.21686">
        <ele>419.8</ele>
        <time>2020-08-27T13:11:59Z</time>
      </trkpt>
      <trkpt lat="48.64856" lon="7.21695">
        <ele>419.6</ele>
        <time>2020-08-27T13:12:02Z</time>
      </trkpt>
      <trkpt lat="48.64856" lon="7.21707">
        <ele>419.9</ele>
        <time>2020-08-27T13:12:04Z</time>
      </trkpt>
      <trkpt lat="48.64856" lon="7.21715">
        <ele>420.2</ele>
        <time>2020-08-27T13:12:07Z</time>
      </trkpt>
      <trkpt lat="48.64857" lon="7.21725">
        <ele>420.2</ele>
        <time>2020-08-27T13:12:09Z</time>
      </trkpt>
      <trkpt lat="48.64857" lon="7.21734">
        <ele>418.3</ele>
        <time>2020-08-27T13:12:11Z</time>
      </trkpt>
      <trkpt lat="48.64855" lon="7.21749">
        <ele>418.3</ele>
        <time>2020-08-27T13:12:14Z</time>
      </trkpt>
      <trkpt lat="48.64852" lon="7.21765">
        <ele>418.8</ele>
        <time>2020-08-27T13:12:16Z</time>
      </trkpt>
      <trkpt lat="48.64851" lon="7.21775">
        <ele>418.7</ele>
        <time>2020-08-27T13:12:18Z</time>
      </trkpt>
      <trkpt lat="48.64851" lon="7.21787">
        <ele>417.6</ele>
        <time>2020-08-27T13:12:21Z</time>
      </trkpt>
      <trkpt lat="48.64851" lon="7.21803">
        <ele>416.7</ele>
        <time>2020-08-27T13:12:23Z</time>
      </trkpt>
      <trkpt lat="48.64849" lon="7.21814">
        <ele>415.9</ele>
        <time>2020-08-27T13:12:25Z</time>
      </trkpt>
      <trkpt lat="48.64847" lon="7.21824">
        <ele>415.6</ele>
        <time>2020-08-27T13:12:27Z</time>
      </trkpt>
      <trkpt lat="48.64846" lon="7.21831">
        <ele>415.6</ele>
        <time>2020-08-27T13:12:29Z</time>
      </trkpt>
      <trkpt lat="48.64844" lon="7.21839">
        <ele>415.7</ele>
        <time>2020-08-27T13:12:31Z</time>
      </trkpt>
      <trkpt lat="48.64842" lon="7.21846">
        <ele>415.7</ele>
        <time>2020-08-27T13:12:33Z</time>
      </trkpt>
      <trkpt lat="48.6484" lon="7.21852">
        <ele>415.5</ele>
        <time>2020-08-27T13:12:35Z</time>
      </trkpt>
      <trkpt lat="48.64835" lon="7.21859">
        <ele>414.7</ele>
        <time>2020-08-27T13:12:37Z</time>
      </trkpt>
      <trkpt lat="48.6483" lon="7.21864">
        <ele>414.7</ele>
        <time>2020-08-27T13:12:40Z</time>
      </trkpt>
      <trkpt lat="48.64821" lon="7.2187">
        <ele>414.1</ele>
        <time>2020-08-27T13:12:42Z</time>
      </trkpt>
      <trkpt lat="48.64813" lon="7.21875">
        <ele>414.3</ele>
        <time>2020-08-27T13:12:45Z</time>
      </trkpt>
      <trkpt lat="48.64807" lon="7.21883">
        <ele>414.1</ele>
        <time>2020-08-27T13:12:48Z</time>
      </trkpt>
      <trkpt lat="48.64803" lon="7.21889">
        <ele>414.4</ele>
        <time>2020-08-27T13:12:50Z</time>
      </trkpt>
      <trkpt lat="48.64799" lon="7.21894">
        <ele>414.4</ele>
        <time>2020-08-27T13:12:52Z</time>
      </trkpt>
      <trkpt lat="48.64793" lon="7.21899">
        <ele>414</ele>
        <time>2020-08-27T13:12:56Z</time>
      </trkpt>
      <trkpt lat="48.64785" lon="7.21903">
        <ele>413.3</ele>
        <time>2020-08-27T13:12:58Z</time>
      </trkpt>
      <trkpt lat="48.64779" lon="7.21907">
        <ele>412.6</ele>
        <time>2020-08-27T13:13:01Z</time>
      </trkpt>
      <trkpt lat="48.64771" lon="7.2191">
        <ele>411.8</ele>
        <time>2020-08-27T13:13:03Z</time>
      </trkpt>
      <trkpt lat="48.64765" lon="7.21915">
        <ele>411.7</ele>
        <time>2020-08-27T13:13:05Z</time>
      </trkpt>
      <trkpt lat="48.64759" lon="7.21919">
        <ele>411.7</ele>
        <time>2020-08-27T13:13:07Z</time>
      </trkpt>
      <trkpt lat="48.6475" lon="7.21928">
        <ele>412</ele>
        <time>2020-08-27T13:13:10Z</time>
      </trkpt>
      <trkpt lat="48.64741" lon="7.21935">
        <ele>411.9</ele>
        <time>2020-08-27T13:13:13Z</time>
      </trkpt>
      <trkpt lat="48.64736" lon="7.21939">
        <ele>412.5</ele>
        <time>2020-08-27T13:13:15Z</time>
      </trkpt>
      <trkpt lat="48.64731" lon="7.21943">
        <ele>413.2</ele>
        <time>2020-08-27T13:13:17Z</time>
      </trkpt>
      <trkpt lat="48.64725" lon="7.21947">
        <ele>414.4</ele>
        <time>2020-08-27T13:13:19Z</time>
      </trkpt>
      <trkpt lat="48.64718" lon="7.21952">
        <ele>412.6</ele>
        <time>2020-08-27T13:13:22Z</time>
      </trkpt>
      <trkpt lat="48.64712" lon="7.21956">
        <ele>412.7</ele>
        <time>2020-08-27T13:13:24Z</time>
      </trkpt>
      <trkpt lat="48.64707" lon="7.21958">
        <ele>413.4</ele>
        <time>2020-08-27T13:13:26Z</time>
      </trkpt>
      <trkpt lat="48.64699" lon="7.21961">
        <ele>414.9</ele>
        <time>2020-08-27T13:13:29Z</time>
      </trkpt>
      <trkpt lat="48.64693" lon="7.21963">
        <ele>416.7</ele>
        <time>2020-08-27T13:13:31Z</time>
      </trkpt>
      <trkpt lat="48.64682" lon="7.21968">
        <ele>418.6</ele>
        <time>2020-08-27T13:13:34Z</time>
      </trkpt>
      <trkpt lat="48.64676" lon="7.2197">
        <ele>419.8</ele>
        <time>2020-08-27T13:13:36Z</time>
      </trkpt>
      <trkpt lat="48.64669" lon="7.21971">
        <ele>420.6</ele>
        <time>2020-08-27T13:13:38Z</time>
      </trkpt>
      <trkpt lat="48.64662" lon="7.21973">
        <ele>420.8</ele>
        <time>2020-08-27T13:13:40Z</time>
      </trkpt>
      <trkpt lat="48.64655" lon="7.21975">
        <ele>420.7</ele>
        <time>2020-08-27T13:13:44Z</time>
      </trkpt>
      <trkpt lat="48.64644" lon="7.21983">
        <ele>421.1</ele>
        <time>2020-08-27T13:13:47Z</time>
      </trkpt>
      <trkpt lat="48.64639" lon="7.21987">
        <ele>420.6</ele>
        <time>2020-08-27T13:13:47Z</time>
      </trkpt>
      <trkpt lat="48.64632" lon="7.21992">
        <ele>420.2</ele>
        <time>2020-08-27T13:13:49Z</time>
      </trkpt>
      <trkpt lat="48.64625" lon="7.21997">
        <ele>420.2</ele>
        <time>2020-08-27T13:13:51Z</time>
      </trkpt>
      <trkpt lat="48.64618" lon="7.22001">
        <ele>420.3</ele>
        <time>2020-08-27T13:13:53Z</time>
      </trkpt>
      <trkpt lat="48.64613" lon="7.22006">
        <ele>420.5</ele>
        <time>2020-08-27T13:13:55Z</time>
      </trkpt>
      <trkpt lat="48.64609" lon="7.2201">
        <ele>420.9</ele>
        <time>2020-08-27T13:13:57Z</time>
      </trkpt>
      <trkpt lat="48.64605" lon="7.22017">
        <ele>421</ele>
        <time>2020-08-27T13:14:00Z</time>
      </trkpt>
      <trkpt lat="48.64603" lon="7.22023">
        <ele>423</ele>
        <time>2020-08-27T13:14:07Z</time>
      </trkpt>
      <trkpt lat="48.64599" lon="7.22028">
        <ele>436.5</ele>
        <time>2020-08-27T13:14:27Z</time>
      </trkpt>
      <trkpt lat="48.64595" lon="7.22033">
        <ele>431.6</ele>
        <time>2020-08-27T13:14:37Z</time>
      </trkpt>
      <trkpt lat="48.64592" lon="7.22037">
        <ele>430.2</ele>
        <time>2020-08-27T13:14:40Z</time>
      </trkpt>
      <trkpt lat="48.6459" lon="7.22045">
        <ele>429.3</ele>
        <time>2020-08-27T13:14:43Z</time>
      </trkpt>
      <trkpt lat="48.64588" lon="7.22052">
        <ele>429.4</ele>
        <time>2020-08-27T13:14:45Z</time>
      </trkpt>
      <trkpt lat="48.64586" lon="7.2206">
        <ele>429.2</ele>
        <time>2020-08-27T13:14:48Z</time>
      </trkpt>
      <trkpt lat="48.64585" lon="7.22068">
        <ele>427.8</ele>
        <time>2020-08-27T13:14:52Z</time>
      </trkpt>
      <trkpt lat="48.64585" lon="7.22076">
        <ele>427.3</ele>
        <time>2020-08-27T13:14:54Z</time>
      </trkpt>
      <trkpt lat="48.64586" lon="7.22085">
        <ele>426.3</ele>
        <time>2020-08-27T13:14:56Z</time>
      </trkpt>
      <trkpt lat="48.64589" lon="7.22092">
        <ele>425</ele>
        <time>2020-08-27T13:14:58Z</time>
      </trkpt>
      <trkpt lat="48.64594" lon="7.22096">
        <ele>424.1</ele>
        <time>2020-08-27T13:15:00Z</time>
      </trkpt>
      <trkpt lat="48.64599" lon="7.22099">
        <ele>423.6</ele>
        <time>2020-08-27T13:15:02Z</time>
      </trkpt>
      <trkpt lat="48.64604" lon="7.221">
        <ele>423.9</ele>
        <time>2020-08-27T13:15:05Z</time>
      </trkpt>
      <trkpt lat="48.64609" lon="7.22102">
        <ele>423.3</ele>
        <time>2020-08-27T13:15:09Z</time>
      </trkpt>
      <trkpt lat="48.64615" lon="7.22103">
        <ele>422.7</ele>
        <time>2020-08-27T13:15:13Z</time>
      </trkpt>
      <trkpt lat="48.6462" lon="7.22106">
        <ele>422.6</ele>
        <time>2020-08-27T13:15:15Z</time>
      </trkpt>
      <trkpt lat="48.64625" lon="7.22108">
        <ele>430.7</ele>
        <time>2020-08-27T13:15:18Z</time>
      </trkpt>
      <trkpt lat="48.64632" lon="7.22109">
        <ele>433.6</ele>
        <time>2020-08-27T13:15:20Z</time>
      </trkpt>
      <trkpt lat="48.64638" lon="7.22109">
        <ele>434.2</ele>
        <time>2020-08-27T13:15:23Z</time>
      </trkpt>
      <trkpt lat="48.64642" lon="7.22108">
        <ele>432.9</ele>
        <time>2020-08-27T13:15:26Z</time>
      </trkpt>
      <trkpt lat="48.64651" lon="7.2211">
        <ele>431.5</ele>
        <time>2020-08-27T13:15:29Z</time>
      </trkpt>
      <trkpt lat="48.64657" lon="7.22112">
        <ele>430.3</ele>
        <time>2020-08-27T13:15:31Z</time>
      </trkpt>
      <trkpt lat="48.64661" lon="7.22115">
        <ele>429.3</ele>
        <time>2020-08-27T13:15:34Z</time>
      </trkpt>
      <trkpt lat="48.64666" lon="7.22118">
        <ele>427.8</ele>
        <time>2020-08-27T13:15:36Z</time>
      </trkpt>
      <trkpt lat="48.64672" lon="7.2212">
        <ele>426.1</ele>
        <time>2020-08-27T13:15:40Z</time>
      </trkpt>
      <trkpt lat="48.64678" lon="7.22123">
        <ele>424</ele>
        <time>2020-08-27T13:15:45Z</time>
      </trkpt>
      <trkpt lat="48.64683" lon="7.22128">
        <ele>422.6</ele>
        <time>2020-08-27T13:15:48Z</time>
      </trkpt>
      <trkpt lat="48.64687" lon="7.22132">
        <ele>422</ele>
        <time>2020-08-27T13:15:50Z</time>
      </trkpt>
      <trkpt lat="48.64694" lon="7.22137">
        <ele>421.9</ele>
        <time>2020-08-27T13:15:52Z</time>
      </trkpt>
      <trkpt lat="48.64701" lon="7.22142">
        <ele>421.5</ele>
        <time>2020-08-27T13:15:54Z</time>
      </trkpt>
      <trkpt lat="48.64707" lon="7.22146">
        <ele>422.1</ele>
        <time>2020-08-27T13:15:56Z</time>
      </trkpt>
      <trkpt lat="48.64712" lon="7.22149">
        <ele>421.6</ele>
        <time>2020-08-27T13:15:58Z</time>
      </trkpt>
      <trkpt lat="48.64717" lon="7.22153">
        <ele>421.3</ele>
        <time>2020-08-27T13:16:00Z</time>
      </trkpt>
      <trkpt lat="48.64724" lon="7.22157">
        <ele>420.7</ele>
        <time>2020-08-27T13:16:02Z</time>
      </trkpt>
      <trkpt lat="48.64732" lon="7.22161">
        <ele>421.4</ele>
        <time>2020-08-27T13:16:04Z</time>
      </trkpt>
      <trkpt lat="48.64741" lon="7.22166">
        <ele>422.3</ele>
        <time>2020-08-27T13:16:06Z</time>
      </trkpt>
      <trkpt lat="48.6475" lon="7.22172">
        <ele>423.5</ele>
        <time>2020-08-27T13:16:08Z</time>
      </trkpt>
      <trkpt lat="48.64758" lon="7.22179">
        <ele>423.6</ele>
        <time>2020-08-27T13:16:11Z</time>
      </trkpt>
      <trkpt lat="48.6477" lon="7.2219">
        <ele>424.5</ele>
        <time>2020-08-27T13:16:13Z</time>
      </trkpt>
      <trkpt lat="48.64783" lon="7.22205">
        <ele>426</ele>
        <time>2020-08-27T13:16:15Z</time>
      </trkpt>
      <trkpt lat="48.64789" lon="7.22212">
        <ele>426.9</ele>
        <time>2020-08-27T13:16:17Z</time>
      </trkpt>
      <trkpt lat="48.64796" lon="7.22221">
        <ele>428.1</ele>
        <time>2020-08-27T13:16:19Z</time>
      </trkpt>
      <trkpt lat="48.64803" lon="7.2223">
        <ele>428.3</ele>
        <time>2020-08-27T13:16:22Z</time>
      </trkpt>
      <trkpt lat="48.6481" lon="7.22241">
        <ele>430</ele>
        <time>2020-08-27T13:16:24Z</time>
      </trkpt>
      <trkpt lat="48.64814" lon="7.22247">
        <ele>431</ele>
        <time>2020-08-27T13:16:26Z</time>
      </trkpt>
      <trkpt lat="48.64817" lon="7.22255">
        <ele>439.5</ele>
        <time>2020-08-27T13:16:29Z</time>
      </trkpt>
      <trkpt lat="48.6482" lon="7.22265">
        <ele>439.6</ele>
        <time>2020-08-27T13:16:32Z</time>
      </trkpt>
      <trkpt lat="48.64822" lon="7.22274">
        <ele>439.2</ele>
        <time>2020-08-27T13:16:34Z</time>
      </trkpt>
      <trkpt lat="48.64826" lon="7.22283">
        <ele>438.5</ele>
        <time>2020-08-27T13:16:36Z</time>
      </trkpt>
      <trkpt lat="48.6483" lon="7.22293">
        <ele>438</ele>
        <time>2020-08-27T13:16:38Z</time>
      </trkpt>
      <trkpt lat="48.64836" lon="7.22305">
        <ele>443.6</ele>
        <time>2020-08-27T13:16:42Z</time>
      </trkpt>
      <trkpt lat="48.64841" lon="7.22318">
        <ele>441.3</ele>
        <time>2020-08-27T13:16:45Z</time>
      </trkpt>
      <trkpt lat="48.64843" lon="7.22327">
        <ele>440.6</ele>
        <time>2020-08-27T13:16:47Z</time>
      </trkpt>
      <trkpt lat="48.64846" lon="7.22338">
        <ele>440.2</ele>
        <time>2020-08-27T13:16:49Z</time>
      </trkpt>
      <trkpt lat="48.64849" lon="7.22349">
        <ele>439.5</ele>
        <time>2020-08-27T13:16:51Z</time>
      </trkpt>
      <trkpt lat="48.64851" lon="7.22358">
        <ele>438.6</ele>
        <time>2020-08-27T13:16:53Z</time>
      </trkpt>
      <trkpt lat="48.64854" lon="7.22368">
        <ele>437</ele>
        <time>2020-08-27T13:16:55Z</time>
      </trkpt>
      <trkpt lat="48.64858" lon="7.22382">
        <ele>437.1</ele>
        <time>2020-08-27T13:16:58Z</time>
      </trkpt>
      <trkpt lat="48.6486" lon="7.22393">
        <ele>438.8</ele>
        <time>2020-08-27T13:17:01Z</time>
      </trkpt>
      <trkpt lat="48.64861" lon="7.22401">
        <ele>439.7</ele>
        <time>2020-08-27T13:17:03Z</time>
      </trkpt>
      <trkpt lat="48.64862" lon="7.22412">
        <ele>440.7</ele>
        <time>2020-08-27T13:17:05Z</time>
      </trkpt>
      <trkpt lat="48.64864" lon="7.22422">
        <ele>441.8</ele>
        <time>2020-08-27T13:17:07Z</time>
      </trkpt>
      <trkpt lat="48.64864" lon="7.2243">
        <ele>442.6</ele>
        <time>2020-08-27T13:17:09Z</time>
      </trkpt>
      <trkpt lat="48.64864" lon="7.22438">
        <ele>435</ele>
        <time>2020-08-27T13:17:16Z</time>
      </trkpt>
      <trkpt lat="48.64866" lon="7.22446">
        <ele>437.2</ele>
        <time>2020-08-27T13:17:19Z</time>
      </trkpt>
      <trkpt lat="48.64867" lon="7.22455">
        <ele>438.3</ele>
        <time>2020-08-27T13:17:21Z</time>
      </trkpt>
      <trkpt lat="48.64869" lon="7.22465">
        <ele>440.4</ele>
        <time>2020-08-27T13:17:23Z</time>
      </trkpt>
      <trkpt lat="48.64871" lon="7.22477">
        <ele>441.6</ele>
        <time>2020-08-27T13:17:25Z</time>
      </trkpt>
      <trkpt lat="48.64872" lon="7.22488">
        <ele>443.1</ele>
        <time>2020-08-27T13:17:27Z</time>
      </trkpt>
      <trkpt lat="48.64874" lon="7.22499">
        <ele>443.3</ele>
        <time>2020-08-27T13:17:29Z</time>
      </trkpt>
      <trkpt lat="48.64875" lon="7.22509">
        <ele>443.7</ele>
        <time>2020-08-27T13:17:31Z</time>
      </trkpt>
      <trkpt lat="48.64878" lon="7.22518">
        <ele>444.2</ele>
        <time>2020-08-27T13:17:33Z</time>
      </trkpt>
      <trkpt lat="48.64881" lon="7.22527">
        <ele>444.9</ele>
        <time>2020-08-27T13:17:35Z</time>
      </trkpt>
      <trkpt lat="48.64884" lon="7.22536">
        <ele>444.9</ele>
        <time>2020-08-27T13:17:37Z</time>
      </trkpt>
      <trkpt lat="48.64887" lon="7.22542">
        <ele>445.5</ele>
        <time>2020-08-27T13:17:39Z</time>
      </trkpt>
      <trkpt lat="48.64891" lon="7.22549">
        <ele>446.4</ele>
        <time>2020-08-27T13:17:41Z</time>
      </trkpt>
      <trkpt lat="48.64895" lon="7.22556">
        <ele>447.3</ele>
        <time>2020-08-27T13:17:43Z</time>
      </trkpt>
      <trkpt lat="48.64898" lon="7.22562">
        <ele>448.2</ele>
        <time>2020-08-27T13:17:45Z</time>
      </trkpt>
      <trkpt lat="48.64902" lon="7.2257">
        <ele>447.2</ele>
        <time>2020-08-27T13:17:47Z</time>
      </trkpt>
      <trkpt lat="48.64907" lon="7.22578">
        <ele>447.6</ele>
        <time>2020-08-27T13:17:49Z</time>
      </trkpt>
      <trkpt lat="48.64912" lon="7.22586">
        <ele>447.6</ele>
        <time>2020-08-27T13:17:51Z</time>
      </trkpt>
      <trkpt lat="48.64917" lon="7.22593">
        <ele>447.5</ele>
        <time>2020-08-27T13:17:53Z</time>
      </trkpt>
      <trkpt lat="48.64922" lon="7.22601">
        <ele>447.5</ele>
        <time>2020-08-27T13:17:55Z</time>
      </trkpt>
      <trkpt lat="48.64931" lon="7.2261">
        <ele>447.1</ele>
        <time>2020-08-27T13:17:57Z</time>
      </trkpt>
      <trkpt lat="48.64939" lon="7.22618">
        <ele>446.6</ele>
        <time>2020-08-27T13:17:59Z</time>
      </trkpt>
      <trkpt lat="48.64946" lon="7.22629">
        <ele>446</ele>
        <time>2020-08-27T13:18:01Z</time>
      </trkpt>
      <trkpt lat="48.64953" lon="7.22639">
        <ele>450.7</ele>
        <time>2020-08-27T13:18:03Z</time>
      </trkpt>
      <trkpt lat="48.64961" lon="7.22652">
        <ele>450.9</ele>
        <time>2020-08-27T13:18:05Z</time>
      </trkpt>
      <trkpt lat="48.64967" lon="7.22662">
        <ele>451.1</ele>
        <time>2020-08-27T13:18:07Z</time>
      </trkpt>
      <trkpt lat="48.64973" lon="7.22673">
        <ele>450.2</ele>
        <time>2020-08-27T13:18:09Z</time>
      </trkpt>
      <trkpt lat="48.64976" lon="7.22685">
        <ele>449.6</ele>
        <time>2020-08-27T13:18:11Z</time>
      </trkpt>
      <trkpt lat="48.64978" lon="7.22692">
        <ele>449.5</ele>
        <time>2020-08-27T13:18:13Z</time>
      </trkpt>
      <trkpt lat="48.64982" lon="7.22696">
        <ele>453.5</ele>
        <time>2020-08-27T13:18:31Z</time>
      </trkpt>
      <trkpt lat="48.64984" lon="7.22704">
        <ele>455</ele>
        <time>2020-08-27T13:18:37Z</time>
      </trkpt>
      <trkpt lat="48.64985" lon="7.22711">
        <ele>454.1</ele>
        <time>2020-08-27T13:18:40Z</time>
      </trkpt>
      <trkpt lat="48.64986" lon="7.22722">
        <ele>455.5</ele>
        <time>2020-08-27T13:18:43Z</time>
      </trkpt>
      <trkpt lat="48.64987" lon="7.22731">
        <ele>455.7</ele>
        <time>2020-08-27T13:18:45Z</time>
      </trkpt>
      <trkpt lat="48.64987" lon="7.2274">
        <ele>456.7</ele>
        <time>2020-08-27T13:18:47Z</time>
      </trkpt>
      <trkpt lat="48.64987" lon="7.22751">
        <ele>455.7</ele>
        <time>2020-08-27T13:18:49Z</time>
      </trkpt>
      <trkpt lat="48.64987" lon="7.22764">
        <ele>454.8</ele>
        <time>2020-08-27T13:18:51Z</time>
      </trkpt>
      <trkpt lat="48.64986" lon="7.22779">
        <ele>454.4</ele>
        <time>2020-08-27T13:18:53Z</time>
      </trkpt>
      <trkpt lat="48.64985" lon="7.22794">
        <ele>453.9</ele>
        <time>2020-08-27T13:18:55Z</time>
      </trkpt>
      <trkpt lat="48.64985" lon="7.22809">
        <ele>452.4</ele>
        <time>2020-08-27T13:18:57Z</time>
      </trkpt>
      <trkpt lat="48.64981" lon="7.22822">
        <ele>451.4</ele>
        <time>2020-08-27T13:18:59Z</time>
      </trkpt>
      <trkpt lat="48.64977" lon="7.22837">
        <ele>450</ele>
        <time>2020-08-27T13:19:01Z</time>
      </trkpt>
      <trkpt lat="48.64973" lon="7.22851">
        <ele>449.5</ele>
        <time>2020-08-27T13:19:03Z</time>
      </trkpt>
      <trkpt lat="48.64969" lon="7.22865">
        <ele>448.4</ele>
        <time>2020-08-27T13:19:05Z</time>
      </trkpt>
      <trkpt lat="48.64965" lon="7.22878">
        <ele>447.7</ele>
        <time>2020-08-27T13:19:07Z</time>
      </trkpt>
      <trkpt lat="48.64961" lon="7.2289">
        <ele>446.6</ele>
        <time>2020-08-27T13:19:09Z</time>
      </trkpt>
      <trkpt lat="48.64956" lon="7.22904">
        <ele>445.6</ele>
        <time>2020-08-27T13:19:11Z</time>
      </trkpt>
      <trkpt lat="48.64951" lon="7.22918">
        <ele>444.8</ele>
        <time>2020-08-27T13:19:13Z</time>
      </trkpt>
      <trkpt lat="48.64946" lon="7.2293">
        <ele>444.3</ele>
        <time>2020-08-27T13:19:15Z</time>
      </trkpt>
      <trkpt lat="48.64943" lon="7.22944">
        <ele>444</ele>
        <time>2020-08-27T13:19:17Z</time>
      </trkpt>
      <trkpt lat="48.64937" lon="7.22956">
        <ele>443.2</ele>
        <time>2020-08-27T13:19:19Z</time>
      </trkpt>
      <trkpt lat="48.64932" lon="7.22968">
        <ele>448.6</ele>
        <time>2020-08-27T13:19:21Z</time>
      </trkpt>
      <trkpt lat="48.64929" lon="7.22979">
        <ele>448.5</ele>
        <time>2020-08-27T13:19:23Z</time>
      </trkpt>
      <trkpt lat="48.64924" lon="7.22989">
        <ele>448.6</ele>
        <time>2020-08-27T13:19:25Z</time>
      </trkpt>
      <trkpt lat="48.6492" lon="7.23002">
        <ele>448.1</ele>
        <time>2020-08-27T13:19:27Z</time>
      </trkpt>
      <trkpt lat="48.64916" lon="7.23016">
        <ele>447.7</ele>
        <time>2020-08-27T13:19:29Z</time>
      </trkpt>
      <trkpt lat="48.64912" lon="7.23031">
        <ele>451.7</ele>
        <time>2020-08-27T13:19:31Z</time>
      </trkpt>
      <trkpt lat="48.64909" lon="7.23044">
        <ele>451.1</ele>
        <time>2020-08-27T13:19:33Z</time>
      </trkpt>
      <trkpt lat="48.64906" lon="7.23057">
        <ele>451.5</ele>
        <time>2020-08-27T13:19:35Z</time>
      </trkpt>
      <trkpt lat="48.64902" lon="7.2307">
        <ele>451.4</ele>
        <time>2020-08-27T13:19:37Z</time>
      </trkpt>
      <trkpt lat="48.64899" lon="7.23085">
        <ele>450.6</ele>
        <time>2020-08-27T13:19:39Z</time>
      </trkpt>
      <trkpt lat="48.64896" lon="7.23097">
        <ele>450.2</ele>
        <time>2020-08-27T13:19:41Z</time>
      </trkpt>
      <trkpt lat="48.64892" lon="7.23111">
        <ele>449.2</ele>
        <time>2020-08-27T13:19:43Z</time>
      </trkpt>
      <trkpt lat="48.64889" lon="7.23126">
        <ele>449</ele>
        <time>2020-08-27T13:19:45Z</time>
      </trkpt>
      <trkpt lat="48.64888" lon="7.23143">
        <ele>449.2</ele>
        <time>2020-08-27T13:19:47Z</time>
      </trkpt>
      <trkpt lat="48.64887" lon="7.23156">
        <ele>449.7</ele>
        <time>2020-08-27T13:19:49Z</time>
      </trkpt>
      <trkpt lat="48.64883" lon="7.23167">
        <ele>450.4</ele>
        <time>2020-08-27T13:19:51Z</time>
      </trkpt>
      <trkpt lat="48.64879" lon="7.23178">
        <ele>451.3</ele>
        <time>2020-08-27T13:19:53Z</time>
      </trkpt>
      <trkpt lat="48.64873" lon="7.23186">
        <ele>451.2</ele>
        <time>2020-08-27T13:19:55Z</time>
      </trkpt>
      <trkpt lat="48.64869" lon="7.23193">
        <ele>451.6</ele>
        <time>2020-08-27T13:19:57Z</time>
      </trkpt>
      <trkpt lat="48.64864" lon="7.23198">
        <ele>451.4</ele>
        <time>2020-08-27T13:19:59Z</time>
      </trkpt>
      <trkpt lat="48.64857" lon="7.23201">
        <ele>451.5</ele>
        <time>2020-08-27T13:20:01Z</time>
      </trkpt>
      <trkpt lat="48.6485" lon="7.23203">
        <ele>451.4</ele>
        <time>2020-08-27T13:20:03Z</time>
      </trkpt>
      <trkpt lat="48.64842" lon="7.23203">
        <ele>451.2</ele>
        <time>2020-08-27T13:20:05Z</time>
      </trkpt>
      <trkpt lat="48.64835" lon="7.23203">
        <ele>451</ele>
        <time>2020-08-27T13:20:07Z</time>
      </trkpt>
      <trkpt lat="48.64828" lon="7.23203">
        <ele>450.7</ele>
        <time>2020-08-27T13:20:09Z</time>
      </trkpt>
      <trkpt lat="48.64821" lon="7.23203">
        <ele>450.8</ele>
        <time>2020-08-27T13:20:11Z</time>
      </trkpt>
      <trkpt lat="48.64815" lon="7.23203">
        <ele>450.8</ele>
        <time>2020-08-27T13:20:13Z</time>
      </trkpt>
      <trkpt lat="48.64809" lon="7.23204">
        <ele>451.2</ele>
        <time>2020-08-27T13:20:15Z</time>
      </trkpt>
      <trkpt lat="48.64801" lon="7.23206">
        <ele>452.9</ele>
        <time>2020-08-27T13:20:17Z</time>
      </trkpt>
      <trkpt lat="48.64793" lon="7.2321">
        <ele>453</ele>
        <time>2020-08-27T13:20:19Z</time>
      </trkpt>
      <trkpt lat="48.64783" lon="7.23215">
        <ele>454.6</ele>
        <time>2020-08-27T13:20:21Z</time>
      </trkpt>
      <trkpt lat="48.64773" lon="7.2322">
        <ele>455.4</ele>
        <time>2020-08-27T13:20:23Z</time>
      </trkpt>
      <trkpt lat="48.64764" lon="7.23227">
        <ele>455.8</ele>
        <time>2020-08-27T13:20:25Z</time>
      </trkpt>
      <trkpt lat="48.64759" lon="7.23238">
        <ele>456.2</ele>
        <time>2020-08-27T13:20:27Z</time>
      </trkpt>
      <trkpt lat="48.64758" lon="7.23252">
        <ele>455.9</ele>
        <time>2020-08-27T13:20:29Z</time>
      </trkpt>
      <trkpt lat="48.64761" lon="7.23267">
        <ele>456.1</ele>
        <time>2020-08-27T13:20:31Z</time>
      </trkpt>
      <trkpt lat="48.64766" lon="7.23283">
        <ele>456.4</ele>
        <time>2020-08-27T13:20:33Z</time>
      </trkpt>
      <trkpt lat="48.64771" lon="7.23297">
        <ele>456.2</ele>
        <time>2020-08-27T13:20:35Z</time>
      </trkpt>
      <trkpt lat="48.64775" lon="7.23313">
        <ele>456.7</ele>
        <time>2020-08-27T13:20:37Z</time>
      </trkpt>
      <trkpt lat="48.64776" lon="7.23327">
        <ele>456.7</ele>
        <time>2020-08-27T13:20:39Z</time>
      </trkpt>
      <trkpt lat="48.64774" lon="7.23343">
        <ele>456.1</ele>
        <time>2020-08-27T13:20:41Z</time>
      </trkpt>
      <trkpt lat="48.6477" lon="7.23359">
        <ele>454.7</ele>
        <time>2020-08-27T13:20:43Z</time>
      </trkpt>
      <trkpt lat="48.64767" lon="7.23377">
        <ele>453.3</ele>
        <time>2020-08-27T13:20:45Z</time>
      </trkpt>
      <trkpt lat="48.64762" lon="7.23394">
        <ele>450.9</ele>
        <time>2020-08-27T13:20:47Z</time>
      </trkpt>
      <trkpt lat="48.64759" lon="7.23412">
        <ele>449.4</ele>
        <time>2020-08-27T13:20:49Z</time>
      </trkpt>
      <trkpt lat="48.64755" lon="7.23431">
        <ele>447.4</ele>
        <time>2020-08-27T13:20:51Z</time>
      </trkpt>
      <trkpt lat="48.6475" lon="7.2345">
        <ele>448.6</ele>
        <time>2020-08-27T13:20:53Z</time>
      </trkpt>
      <trkpt lat="48.64745" lon="7.2347">
        <ele>447.3</ele>
        <time>2020-08-27T13:20:55Z</time>
      </trkpt>
      <trkpt lat="48.6474" lon="7.23488">
        <ele>446.3</ele>
        <time>2020-08-27T13:20:57Z</time>
      </trkpt>
      <trkpt lat="48.64736" lon="7.23507">
        <ele>445.4</ele>
        <time>2020-08-27T13:20:59Z</time>
      </trkpt>
      <trkpt lat="48.64731" lon="7.23523">
        <ele>444.4</ele>
        <time>2020-08-27T13:21:01Z</time>
      </trkpt>
      <trkpt lat="48.64725" lon="7.23541">
        <ele>443.2</ele>
        <time>2020-08-27T13:21:03Z</time>
      </trkpt>
      <trkpt lat="48.64721" lon="7.23561">
        <ele>442.3</ele>
        <time>2020-08-27T13:21:05Z</time>
      </trkpt>
      <trkpt lat="48.64715" lon="7.23577">
        <ele>445</ele>
        <time>2020-08-27T13:21:07Z</time>
      </trkpt>
      <trkpt lat="48.64708" lon="7.23594">
        <ele>444.1</ele>
        <time>2020-08-27T13:21:09Z</time>
      </trkpt>
      <trkpt lat="48.647" lon="7.23611">
        <ele>444</ele>
        <time>2020-08-27T13:21:11Z</time>
      </trkpt>
      <trkpt lat="48.64694" lon="7.23629">
        <ele>443.4</ele>
        <time>2020-08-27T13:21:13Z</time>
      </trkpt>
      <trkpt lat="48.64691" lon="7.23647">
        <ele>442.7</ele>
        <time>2020-08-27T13:21:15Z</time>
      </trkpt>
      <trkpt lat="48.64693" lon="7.23659">
        <ele>442.4</ele>
        <time>2020-08-27T13:21:17Z</time>
      </trkpt>
      <trkpt lat="48.64697" lon="7.23664">
        <ele>442</ele>
        <time>2020-08-27T13:21:19Z</time>
      </trkpt>
      <trkpt lat="48.64701" lon="7.23665">
        <ele>442.1</ele>
        <time>2020-08-27T13:21:21Z</time>
      </trkpt>
      <trkpt lat="48.64706" lon="7.23663">
        <ele>442.1</ele>
        <time>2020-08-27T13:21:23Z</time>
      </trkpt>
      <trkpt lat="48.64713" lon="7.23661">
        <ele>442.7</ele>
        <time>2020-08-27T13:21:25Z</time>
      </trkpt>
      <trkpt lat="48.64722" lon="7.23658">
        <ele>442.8</ele>
        <time>2020-08-27T13:21:27Z</time>
      </trkpt>
      <trkpt lat="48.64731" lon="7.23654">
        <ele>443.1</ele>
        <time>2020-08-27T13:21:29Z</time>
      </trkpt>
      <trkpt lat="48.6474" lon="7.2365">
        <ele>443.6</ele>
        <time>2020-08-27T13:21:31Z</time>
      </trkpt>
      <trkpt lat="48.6475" lon="7.23646">
        <ele>444.3</ele>
        <time>2020-08-27T13:21:33Z</time>
      </trkpt>
      <trkpt lat="48.6476" lon="7.23643">
        <ele>444.2</ele>
        <time>2020-08-27T13:21:35Z</time>
      </trkpt>
      <trkpt lat="48.64769" lon="7.23637">
        <ele>444.4</ele>
        <time>2020-08-27T13:21:37Z</time>
      </trkpt>
      <trkpt lat="48.64777" lon="7.23631">
        <ele>444.5</ele>
        <time>2020-08-27T13:21:39Z</time>
      </trkpt>
      <trkpt lat="48.64785" lon="7.23622">
        <ele>445.7</ele>
        <time>2020-08-27T13:21:41Z</time>
      </trkpt>
      <trkpt lat="48.64792" lon="7.23613">
        <ele>446.1</ele>
        <time>2020-08-27T13:21:43Z</time>
      </trkpt>
      <trkpt lat="48.648" lon="7.23603">
        <ele>447</ele>
        <time>2020-08-27T13:21:45Z</time>
      </trkpt>
      <trkpt lat="48.64807" lon="7.23595">
        <ele>447.1</ele>
        <time>2020-08-27T13:21:47Z</time>
      </trkpt>
      <trkpt lat="48.64815" lon="7.23586">
        <ele>446.7</ele>
        <time>2020-08-27T13:21:49Z</time>
      </trkpt>
      <trkpt lat="48.64822" lon="7.23577">
        <ele>449.4</ele>
        <time>2020-08-27T13:21:51Z</time>
      </trkpt>
      <trkpt lat="48.64828" lon="7.23567">
        <ele>450.9</ele>
        <time>2020-08-27T13:21:53Z</time>
      </trkpt>
      <trkpt lat="48.64833" lon="7.23558">
        <ele>450.7</ele>
        <time>2020-08-27T13:21:55Z</time>
      </trkpt>
      <trkpt lat="48.64839" lon="7.23547">
        <ele>450.3</ele>
        <time>2020-08-27T13:21:57Z</time>
      </trkpt>
      <trkpt lat="48.64846" lon="7.23535">
        <ele>450.2</ele>
        <time>2020-08-27T13:21:59Z</time>
      </trkpt>
      <trkpt lat="48.64853" lon="7.23529">
        <ele>450.8</ele>
        <time>2020-08-27T13:22:01Z</time>
      </trkpt>
      <trkpt lat="48.6486" lon="7.23523">
        <ele>451.4</ele>
        <time>2020-08-27T13:22:03Z</time>
      </trkpt>
      <trkpt lat="48.64868" lon="7.23517">
        <ele>451.6</ele>
        <time>2020-08-27T13:22:05Z</time>
      </trkpt>
      <trkpt lat="48.64876" lon="7.2351">
        <ele>453.3</ele>
        <time>2020-08-27T13:22:07Z</time>
      </trkpt>
      <trkpt lat="48.64883" lon="7.23502">
        <ele>454.6</ele>
        <time>2020-08-27T13:22:09Z</time>
      </trkpt>
      <trkpt lat="48.64891" lon="7.23495">
        <ele>455</ele>
        <time>2020-08-27T13:22:11Z</time>
      </trkpt>
      <trkpt lat="48.649" lon="7.23488">
        <ele>456.5</ele>
        <time>2020-08-27T13:22:13Z</time>
      </trkpt>
      <trkpt lat="48.64909" lon="7.23483">
        <ele>457.2</ele>
        <time>2020-08-27T13:22:15Z</time>
      </trkpt>
      <trkpt lat="48.6492" lon="7.23479">
        <ele>458.1</ele>
        <time>2020-08-27T13:22:17Z</time>
      </trkpt>
      <trkpt lat="48.64933" lon="7.23477">
        <ele>458.7</ele>
        <time>2020-08-27T13:22:19Z</time>
      </trkpt>
      <trkpt lat="48.64948" lon="7.23473">
        <ele>458.6</ele>
        <time>2020-08-27T13:22:21Z</time>
      </trkpt>
      <trkpt lat="48.64963" lon="7.23466">
        <ele>458.5</ele>
        <time>2020-08-27T13:22:23Z</time>
      </trkpt>
      <trkpt lat="48.64978" lon="7.23455">
        <ele>458.2</ele>
        <time>2020-08-27T13:22:25Z</time>
      </trkpt>
      <trkpt lat="48.64992" lon="7.23442">
        <ele>458.3</ele>
        <time>2020-08-27T13:22:27Z</time>
      </trkpt>
      <trkpt lat="48.65007" lon="7.23431">
        <ele>457.8</ele>
        <time>2020-08-27T13:22:29Z</time>
      </trkpt>
      <trkpt lat="48.65021" lon="7.23424">
        <ele>457.1</ele>
        <time>2020-08-27T13:22:31Z</time>
      </trkpt>
      <trkpt lat="48.65035" lon="7.23423">
        <ele>456.5</ele>
        <time>2020-08-27T13:22:33Z</time>
      </trkpt>
      <trkpt lat="48.65049" lon="7.23425">
        <ele>456.2</ele>
        <time>2020-08-27T13:22:35Z</time>
      </trkpt>
      <trkpt lat="48.65064" lon="7.23431">
        <ele>455.3</ele>
        <time>2020-08-27T13:22:37Z</time>
      </trkpt>
      <trkpt lat="48.6508" lon="7.23441">
        <ele>455.1</ele>
        <time>2020-08-27T13:22:39Z</time>
      </trkpt>
      <trkpt lat="48.65095" lon="7.23452">
        <ele>455.1</ele>
        <time>2020-08-27T13:22:41Z</time>
      </trkpt>
      <trkpt lat="48.6511" lon="7.23465">
        <ele>455.2</ele>
        <time>2020-08-27T13:22:43Z</time>
      </trkpt>
      <trkpt lat="48.65123" lon="7.23477">
        <ele>455.4</ele>
        <time>2020-08-27T13:22:45Z</time>
      </trkpt>
      <trkpt lat="48.65138" lon="7.23488">
        <ele>455.7</ele>
        <time>2020-08-27T13:22:47Z</time>
      </trkpt>
      <trkpt lat="48.65154" lon="7.23498">
        <ele>455.9</ele>
        <time>2020-08-27T13:22:49Z</time>
      </trkpt>
      <trkpt lat="48.65167" lon="7.23504">
        <ele>456.3</ele>
        <time>2020-08-27T13:22:51Z</time>
      </trkpt>
      <trkpt lat="48.6518" lon="7.2351">
        <ele>456.3</ele>
        <time>2020-08-27T13:22:53Z</time>
      </trkpt>
      <trkpt lat="48.65193" lon="7.23515">
        <ele>456.6</ele>
        <time>2020-08-27T13:22:55Z</time>
      </trkpt>
      <trkpt lat="48.65212" lon="7.23523">
        <ele>457</ele>
        <time>2020-08-27T13:22:58Z</time>
      </trkpt>
      <trkpt lat="48.65224" lon="7.23528">
        <ele>457.4</ele>
        <time>2020-08-27T13:23:00Z</time>
      </trkpt>
      <trkpt lat="48.65235" lon="7.23534">
        <ele>457.2</ele>
        <time>2020-08-27T13:23:02Z</time>
      </trkpt>
      <trkpt lat="48.65246" lon="7.23541">
        <ele>457.6</ele>
        <time>2020-08-27T13:23:04Z</time>
      </trkpt>
      <trkpt lat="48.65257" lon="7.23549">
        <ele>458</ele>
        <time>2020-08-27T13:23:06Z</time>
      </trkpt>
      <trkpt lat="48.65274" lon="7.2356">
        <ele>459.2</ele>
        <time>2020-08-27T13:23:08Z</time>
      </trkpt>
      <trkpt lat="48.6529" lon="7.23573">
        <ele>461.2</ele>
        <time>2020-08-27T13:23:11Z</time>
      </trkpt>
      <trkpt lat="48.65296" lon="7.23576">
        <ele>461.4</ele>
        <time>2020-08-27T13:23:12Z</time>
      </trkpt>
      <trkpt lat="48.65304" lon="7.23582">
        <ele>462.9</ele>
        <time>2020-08-27T13:23:14Z</time>
      </trkpt>
      <trkpt lat="48.65311" lon="7.23587">
        <ele>463.3</ele>
        <time>2020-08-27T13:23:16Z</time>
      </trkpt>
      <trkpt lat="48.65318" lon="7.23584">
        <ele>463.9</ele>
        <time>2020-08-27T13:23:18Z</time>
      </trkpt>
      <trkpt lat="48.65326" lon="7.23574">
        <ele>463.9</ele>
        <time>2020-08-27T13:23:20Z</time>
      </trkpt>
      <trkpt lat="48.65335" lon="7.23564">
        <ele>463.8</ele>
        <time>2020-08-27T13:23:22Z</time>
      </trkpt>
      <trkpt lat="48.65345" lon="7.23554">
        <ele>463.3</ele>
        <time>2020-08-27T13:23:24Z</time>
      </trkpt>
      <trkpt lat="48.65353" lon="7.23551">
        <ele>463.4</ele>
        <time>2020-08-27T13:23:26Z</time>
      </trkpt>
      <trkpt lat="48.65359" lon="7.23558">
        <ele>463.2</ele>
        <time>2020-08-27T13:23:28Z</time>
      </trkpt>
      <trkpt lat="48.65364" lon="7.23565">
        <ele>463.7</ele>
        <time>2020-08-27T13:23:30Z</time>
      </trkpt>
    </trkseg>
  </trk>
  <trk>
    <name><![CDATA[secteur Saverne - Dabo - Petite Pierre_3]]></name>
    <trkseg>
      <trkpt lat="48.65811" lon="7.21061">
        <ele>396.5</ele>
        <time>2020-08-27T12:33:50Z</time>
      </trkpt>
      <trkpt lat="48.65811" lon="7.21061">
        <ele>396.5</ele>
        <time>2020-08-27T12:33:50Z</time>
      </trkpt>
      <trkpt lat="48.65811" lon="7.21061">
        <ele>396.5</ele>
        <time>2020-08-27T12:33:50Z</time>
      </trkpt>
      <trkpt lat="48.65811" lon="7.21061">
        <ele>396.5</ele>
        <time>2020-08-27T12:33:50Z</time>
      </trkpt>
      <trkpt lat="48.65811" lon="7.21061">
        <ele>396.5</ele>
        <time>2020-08-27T12:33:50Z</time>
      </trkpt>
      <trkpt lat="48.65811" lon="7.21061">
        <ele>396.5</ele>
        <time>2020-08-27T12:33:50Z</time>
      </trkpt>
      <trkpt lat="48.65811" lon="7.21061">
        <ele>396.5</ele>
        <time>2020-08-27T12:33:50Z</time>
      </trkpt>
      <trkpt lat="48.65811" lon="7.21061">
        <ele>396.5</ele>
        <time>2020-08-27T12:33:50Z</time>
      </trkpt>
      <trkpt lat="48.65809" lon="7.21055">
        <ele>396.1</ele>
        <time>2020-08-27T12:33:53Z</time>
      </trkpt>
    </trkseg>
  </trk>
  <trk>
    <name><![CDATA[secteur Saverne - Dabo - Petite Pierre_4]]></name>
    <trkseg>
      <trkpt lat="48.65745" lon="7.23596">
        <ele>466.1</ele>
        <time>2020-08-27T12:09:17Z</time>
      </trkpt>
      <trkpt lat="48.65745" lon="7.23596">
        <ele>466.1</ele>
        <time>2020-08-27T12:09:17Z</time>
      </trkpt>
      <trkpt lat="48.65745" lon="7.23596">
        <ele>466.1</ele>
        <time>2020-08-27T12:09:17Z</time>
      </trkpt>
      <trkpt lat="48.65745" lon="7.23596">
        <ele>466.1</ele>
        <time>2020-08-27T12:09:17Z</time>
      </trkpt>
      <trkpt lat="48.65745" lon="7.23596">
        <ele>466.1</ele>
        <time>2020-08-27T12:09:17Z</time>
      </trkpt>
      <trkpt lat="48.65745" lon="7.23596">
        <ele>466.1</ele>
        <time>2020-08-27T12:09:17Z</time>
      </trkpt>
      <trkpt lat="48.65745" lon="7.23596">
        <ele>466.1</ele>
        <time>2020-08-27T12:09:17Z</time>
      </trkpt>
      <trkpt lat="48.65745" lon="7.23596">
        <ele>466.1</ele>
        <time>2020-08-27T12:09:17Z</time>
      </trkpt>
      <trkpt lat="48.65746" lon="7.23586">
        <ele>465.9</ele>
        <time>2020-08-27T12:09:19Z</time>
      </trkpt>
      <trkpt lat="48.65745" lon="7.23577">
        <ele>466.1</ele>
        <time>2020-08-27T12:09:21Z</time>
      </trkpt>
      <trkpt lat="48.65741" lon="7.23569">
        <ele>466.3</ele>
        <time>2020-08-27T12:09:23Z</time>
      </trkpt>
      <trkpt lat="48.65736" lon="7.23564">
        <ele>466.3</ele>
        <time>2020-08-27T12:09:25Z</time>
      </trkpt>
      <trkpt lat="48.6573" lon="7.2356">
        <ele>466.6</ele>
        <time>2020-08-27T12:09:27Z</time>
      </trkpt>
      <trkpt lat="48.65725" lon="7.23558">
        <ele>466.9</ele>
        <time>2020-08-27T12:09:29Z</time>
      </trkpt>
      <trkpt lat="48.65721" lon="7.23551">
        <ele>467.5</ele>
        <time>2020-08-27T12:09:32Z</time>
      </trkpt>
      <trkpt lat="48.65721" lon="7.23544">
        <ele>467.8</ele>
        <time>2020-08-27T12:09:34Z</time>
      </trkpt>
      <trkpt lat="48.65722" lon="7.23536">
        <ele>467.4</ele>
        <time>2020-08-27T12:09:36Z</time>
      </trkpt>
      <trkpt lat="48.65723" lon="7.23525">
        <ele>467.1</ele>
        <time>2020-08-27T12:09:38Z</time>
      </trkpt>
      <trkpt lat="48.65723" lon="7.23514">
        <ele>467.3</ele>
        <time>2020-08-27T12:09:40Z</time>
      </trkpt>
      <trkpt lat="48.65724" lon="7.23502">
        <ele>467.3</ele>
        <time>2020-08-27T12:09:42Z</time>
      </trkpt>
      <trkpt lat="48.65723" lon="7.23491">
        <ele>467.2</ele>
        <time>2020-08-27T12:09:44Z</time>
      </trkpt>
      <trkpt lat="48.65723" lon="7.2348">
        <ele>467.4</ele>
        <time>2020-08-27T12:09:46Z</time>
      </trkpt>
      <trkpt lat="48.65723" lon="7.2347">
        <ele>467.7</ele>
        <time>2020-08-27T12:09:48Z</time>
      </trkpt>
      <trkpt lat="48.65722" lon="7.23461">
        <ele>468.4</ele>
        <time>2020-08-27T12:09:50Z</time>
      </trkpt>
      <trkpt lat="48.65721" lon="7.23454">
        <ele>469.4</ele>
        <time>2020-08-27T12:09:53Z</time>
      </trkpt>
      <trkpt lat="48.65725" lon="7.2345">
        <ele>469.7</ele>
        <time>2020-08-27T12:09:57Z</time>
      </trkpt>
      <trkpt lat="48.65729" lon="7.23444">
        <ele>470.1</ele>
        <time>2020-08-27T12:10:03Z</time>
      </trkpt>
      <trkpt lat="48.65727" lon="7.23435">
        <ele>469.6</ele>
        <time>2020-08-27T12:10:06Z</time>
      </trkpt>
      <trkpt lat="48.65726" lon="7.23428">
        <ele>469.1</ele>
        <time>2020-08-27T12:10:08Z</time>
      </trkpt>
      <trkpt lat="48.65724" lon="7.2342">
        <ele>468.4</ele>
        <time>2020-08-27T12:10:10Z</time>
      </trkpt>
      <trkpt lat="48.65723" lon="7.23413">
        <ele>467.7</ele>
        <time>2020-08-27T12:10:12Z</time>
      </trkpt>
      <trkpt lat="48.65722" lon="7.23406">
        <ele>467.1</ele>
        <time>2020-08-27T12:10:14Z</time>
      </trkpt>
      <trkpt lat="48.65719" lon="7.23397">
        <ele>466.4</ele>
        <time>2020-08-27T12:10:17Z</time>
      </trkpt>
      <trkpt lat="48.65717" lon="7.23391">
        <ele>465.8</ele>
        <time>2020-08-27T12:10:19Z</time>
      </trkpt>
      <trkpt lat="48.65714" lon="7.23384">
        <ele>465.1</ele>
        <time>2020-08-27T12:10:21Z</time>
      </trkpt>
      <trkpt lat="48.65711" lon="7.23377">
        <ele>464.4</ele>
        <time>2020-08-27T12:10:23Z</time>
      </trkpt>
      <trkpt lat="48.65709" lon="7.23369">
        <ele>463.4</ele>
        <time>2020-08-27T12:10:25Z</time>
      </trkpt>
      <trkpt lat="48.65706" lon="7.23362">
        <ele>463.2</ele>
        <time>2020-08-27T12:10:27Z</time>
      </trkpt>
      <trkpt lat="48.65703" lon="7.23355">
        <ele>462.7</ele>
        <time>2020-08-27T12:10:29Z</time>
      </trkpt>
      <trkpt lat="48.657" lon="7.23347">
        <ele>462.5</ele>
        <time>2020-08-27T12:10:31Z</time>
      </trkpt>
      <trkpt lat="48.65697" lon="7.2334">
        <ele>461.9</ele>
        <time>2020-08-27T12:10:33Z</time>
      </trkpt>
      <trkpt lat="48.65695" lon="7.23333">
        <ele>461.6</ele>
        <time>2020-08-27T12:10:35Z</time>
      </trkpt>
      <trkpt lat="48.65693" lon="7.23325">
        <ele>461.3</ele>
        <time>2020-08-27T12:10:37Z</time>
      </trkpt>
      <trkpt lat="48.65691" lon="7.23317">
        <ele>461.2</ele>
        <time>2020-08-27T12:10:39Z</time>
      </trkpt>
      <trkpt lat="48.65687" lon="7.2331">
        <ele>461.2</ele>
        <time>2020-08-27T12:10:41Z</time>
      </trkpt>
      <trkpt lat="48.65683" lon="7.23302">
        <ele>462.4</ele>
        <time>2020-08-27T12:10:43Z</time>
      </trkpt>
      <trkpt lat="48.65679" lon="7.23296">
        <ele>463.4</ele>
        <time>2020-08-27T12:10:45Z</time>
      </trkpt>
      <trkpt lat="48.65677" lon="7.23288">
        <ele>464.2</ele>
        <time>2020-08-27T12:10:47Z</time>
      </trkpt>
      <trkpt lat="48.65675" lon="7.2328">
        <ele>465</ele>
        <time>2020-08-27T12:10:49Z</time>
      </trkpt>
      <trkpt lat="48.65672" lon="7.23273">
        <ele>464.2</ele>
        <time>2020-08-27T12:10:51Z</time>
      </trkpt>
      <trkpt lat="48.65669" lon="7.23266">
        <ele>464.5</ele>
        <time>2020-08-27T12:10:53Z</time>
      </trkpt>
      <trkpt lat="48.65665" lon="7.23261">
        <ele>465.8</ele>
        <time>2020-08-27T12:10:56Z</time>
      </trkpt>
      <trkpt lat="48.65661" lon="7.23256">
        <ele>469.2</ele>
        <time>2020-08-27T12:11:06Z</time>
      </trkpt>
      <trkpt lat="48.65658" lon="7.23247">
        <ele>470.4</ele>
        <time>2020-08-27T12:11:09Z</time>
      </trkpt>
      <trkpt lat="48.65655" lon="7.23238">
        <ele>471.1</ele>
        <time>2020-08-27T12:11:11Z</time>
      </trkpt>
      <trkpt lat="48.65654" lon="7.23228">
        <ele>472.5</ele>
        <time>2020-08-27T12:11:13Z</time>
      </trkpt>
      <trkpt lat="48.65654" lon="7.23217">
        <ele>473</ele>
        <time>2020-08-27T12:11:15Z</time>
      </trkpt>
      <trkpt lat="48.65655" lon="7.23206">
        <ele>472.8</ele>
        <time>2020-08-27T12:11:17Z</time>
      </trkpt>
      <trkpt lat="48.65657" lon="7.23194">
        <ele>472.3</ele>
        <time>2020-08-27T12:11:19Z</time>
      </trkpt>
      <trkpt lat="48.65658" lon="7.23182">
        <ele>471.1</ele>
        <time>2020-08-27T12:11:21Z</time>
      </trkpt>
      <trkpt lat="48.65657" lon="7.23163">
        <ele>470.2</ele>
        <time>2020-08-27T12:11:23Z</time>
      </trkpt>
      <trkpt lat="48.65657" lon="7.23145">
        <ele>469.8</ele>
        <time>2020-08-27T12:11:25Z</time>
      </trkpt>
      <trkpt lat="48.65657" lon="7.23127">
        <ele>469.3</ele>
        <time>2020-08-27T12:11:27Z</time>
      </trkpt>
      <trkpt lat="48.65658" lon="7.2311">
        <ele>469.3</ele>
        <time>2020-08-27T12:11:29Z</time>
      </trkpt>
      <trkpt lat="48.65659" lon="7.23094">
        <ele>474.4</ele>
        <time>2020-08-27T12:11:31Z</time>
      </trkpt>
      <trkpt lat="48.6566" lon="7.23078">
        <ele>474.9</ele>
        <time>2020-08-27T12:11:33Z</time>
      </trkpt>
      <trkpt lat="48.65661" lon="7.23066">
        <ele>474.5</ele>
        <time>2020-08-27T12:11:35Z</time>
      </trkpt>
      <trkpt lat="48.65662" lon="7.23054">
        <ele>474.2</ele>
        <time>2020-08-27T12:11:37Z</time>
      </trkpt>
      <trkpt lat="48.65663" lon="7.23045">
        <ele>473.5</ele>
        <time>2020-08-27T12:11:39Z</time>
      </trkpt>
      <trkpt lat="48.65663" lon="7.23034">
        <ele>472.8</ele>
        <time>2020-08-27T12:11:41Z</time>
      </trkpt>
      <trkpt lat="48.65664" lon="7.23023">
        <ele>472.4</ele>
        <time>2020-08-27T12:11:43Z</time>
      </trkpt>
      <trkpt lat="48.65667" lon="7.23013">
        <ele>472.2</ele>
        <time>2020-08-27T12:11:45Z</time>
      </trkpt>
      <trkpt lat="48.65669" lon="7.23004">
        <ele>471.3</ele>
        <time>2020-08-27T12:11:47Z</time>
      </trkpt>
      <trkpt lat="48.65672" lon="7.22995">
        <ele>470.5</ele>
        <time>2020-08-27T12:11:49Z</time>
      </trkpt>
      <trkpt lat="48.65674" lon="7.22984">
        <ele>470.3</ele>
        <time>2020-08-27T12:11:51Z</time>
      </trkpt>
      <trkpt lat="48.65676" lon="7.22974">
        <ele>470.2</ele>
        <time>2020-08-27T12:11:53Z</time>
      </trkpt>
      <trkpt lat="48.65678" lon="7.22962">
        <ele>470.3</ele>
        <time>2020-08-27T12:11:55Z</time>
      </trkpt>
      <trkpt lat="48.6568" lon="7.2295">
        <ele>470.6</ele>
        <time>2020-08-27T12:11:57Z</time>
      </trkpt>
      <trkpt lat="48.65682" lon="7.22933">
        <ele>471.1</ele>
        <time>2020-08-27T12:12:00Z</time>
      </trkpt>
      <trkpt lat="48.65683" lon="7.22921">
        <ele>471.4</ele>
        <time>2020-08-27T12:12:02Z</time>
      </trkpt>
      <trkpt lat="48.65684" lon="7.22912">
        <ele>470.1</ele>
        <time>2020-08-27T12:12:04Z</time>
      </trkpt>
      <trkpt lat="48.65684" lon="7.22904">
        <ele>469</ele>
        <time>2020-08-27T12:12:06Z</time>
      </trkpt>
      <trkpt lat="48.65685" lon="7.22894">
        <ele>468.3</ele>
        <time>2020-08-27T12:12:08Z</time>
      </trkpt>
      <trkpt lat="48.65689" lon="7.22879">
        <ele>468.3</ele>
        <time>2020-08-27T12:12:10Z</time>
      </trkpt>
      <trkpt lat="48.6569" lon="7.22864">
        <ele>468.2</ele>
        <time>2020-08-27T12:12:12Z</time>
      </trkpt>
      <trkpt lat="48.6569" lon="7.22854">
        <ele>468.6</ele>
        <time>2020-08-27T12:12:14Z</time>
      </trkpt>
      <trkpt lat="48.65686" lon="7.22845">
        <ele>468.1</ele>
        <time>2020-08-27T12:12:16Z</time>
      </trkpt>
      <trkpt lat="48.65684" lon="7.22838">
        <ele>468.1</ele>
        <time>2020-08-27T12:12:18Z</time>
      </trkpt>
      <trkpt lat="48.65686" lon="7.2283">
        <ele>468.5</ele>
        <time>2020-08-27T12:12:21Z</time>
      </trkpt>
      <trkpt lat="48.65689" lon="7.22826">
        <ele>469.6</ele>
        <time>2020-08-27T12:12:32Z</time>
      </trkpt>
      <trkpt lat="48.65693" lon="7.22821">
        <ele>469.7</ele>
        <time>2020-08-27T12:12:34Z</time>
      </trkpt>
      <trkpt lat="48.65698" lon="7.22816">
        <ele>469.9</ele>
        <time>2020-08-27T12:12:36Z</time>
      </trkpt>
      <trkpt lat="48.65704" lon="7.2281">
        <ele>469.8</ele>
        <time>2020-08-27T12:12:38Z</time>
      </trkpt>
      <trkpt lat="48.6571" lon="7.22805">
        <ele>470</ele>
        <time>2020-08-27T12:12:40Z</time>
      </trkpt>
      <trkpt lat="48.65717" lon="7.228">
        <ele>469.9</ele>
        <time>2020-08-27T12:12:42Z</time>
      </trkpt>
      <trkpt lat="48.65723" lon="7.22795">
        <ele>470</ele>
        <time>2020-08-27T12:12:44Z</time>
      </trkpt>
      <trkpt lat="48.65729" lon="7.22791">
        <ele>470.1</ele>
        <time>2020-08-27T12:12:46Z</time>
      </trkpt>
      <trkpt lat="48.65735" lon="7.22786">
        <ele>469.7</ele>
        <time>2020-08-27T12:12:48Z</time>
      </trkpt>
      <trkpt lat="48.65744" lon="7.2278">
        <ele>471.9</ele>
        <time>2020-08-27T12:12:50Z</time>
      </trkpt>
      <trkpt lat="48.65751" lon="7.22774">
        <ele>470.7</ele>
        <time>2020-08-27T12:12:52Z</time>
      </trkpt>
      <trkpt lat="48.65758" lon="7.22768">
        <ele>469.7</ele>
        <time>2020-08-27T12:12:54Z</time>
      </trkpt>
      <trkpt lat="48.65765" lon="7.22761">
        <ele>468.7</ele>
        <time>2020-08-27T12:12:56Z</time>
      </trkpt>
      <trkpt lat="48.65774" lon="7.22754">
        <ele>468.1</ele>
        <time>2020-08-27T12:12:58Z</time>
      </trkpt>
      <trkpt lat="48.65782" lon="7.22746">
        <ele>467.4</ele>
        <time>2020-08-27T12:13:00Z</time>
      </trkpt>
      <trkpt lat="48.65791" lon="7.22737">
        <ele>466.9</ele>
        <time>2020-08-27T12:13:02Z</time>
      </trkpt>
      <trkpt lat="48.658" lon="7.22726">
        <ele>466.9</ele>
        <time>2020-08-27T12:13:04Z</time>
      </trkpt>
      <trkpt lat="48.65808" lon="7.22714">
        <ele>466.8</ele>
        <time>2020-08-27T12:13:06Z</time>
      </trkpt>
      <trkpt lat="48.65814" lon="7.22702">
        <ele>466.7</ele>
        <time>2020-08-27T12:13:08Z</time>
      </trkpt>
      <trkpt lat="48.6582" lon="7.22693">
        <ele>467.1</ele>
        <time>2020-08-27T12:13:10Z</time>
      </trkpt>
      <trkpt lat="48.65823" lon="7.22687">
        <ele>467.3</ele>
        <time>2020-08-27T12:13:12Z</time>
      </trkpt>
      <trkpt lat="48.65826" lon="7.2268">
        <ele>466.4</ele>
        <time>2020-08-27T12:13:17Z</time>
      </trkpt>
      <trkpt lat="48.6583" lon="7.22673">
        <ele>466.7</ele>
        <time>2020-08-27T12:13:22Z</time>
      </trkpt>
      <trkpt lat="48.65834" lon="7.22666">
        <ele>467.1</ele>
        <time>2020-08-27T12:13:24Z</time>
      </trkpt>
      <trkpt lat="48.65841" lon="7.22657">
        <ele>467.1</ele>
        <time>2020-08-27T12:13:26Z</time>
      </trkpt>
      <trkpt lat="48.65847" lon="7.22647">
        <ele>466.8</ele>
        <time>2020-08-27T12:13:28Z</time>
      </trkpt>
      <trkpt lat="48.65853" lon="7.22636">
        <ele>469</ele>
        <time>2020-08-27T12:13:30Z</time>
      </trkpt>
      <trkpt lat="48.6586" lon="7.22621">
        <ele>468.7</ele>
        <time>2020-08-27T12:13:32Z</time>
      </trkpt>
      <trkpt lat="48.65867" lon="7.22604">
        <ele>468.5</ele>
        <time>2020-08-27T12:13:34Z</time>
      </trkpt>
      <trkpt lat="48.65874" lon="7.22589">
        <ele>467.7</ele>
        <time>2020-08-27T12:13:36Z</time>
      </trkpt>
      <trkpt lat="48.65879" lon="7.22575">
        <ele>467</ele>
        <time>2020-08-27T12:13:38Z</time>
      </trkpt>
      <trkpt lat="48.65878" lon="7.22564">
        <ele>464.8</ele>
        <time>2020-08-27T12:13:40Z</time>
      </trkpt>
      <trkpt lat="48.65878" lon="7.22557">
        <ele>463.9</ele>
        <time>2020-08-27T12:13:42Z</time>
      </trkpt>
      <trkpt lat="48.65879" lon="7.2255">
        <ele>462</ele>
        <time>2020-08-27T12:13:48Z</time>
      </trkpt>
      <trkpt lat="48.65882" lon="7.22542">
        <ele>461.2</ele>
        <time>2020-08-27T12:13:52Z</time>
      </trkpt>
      <trkpt lat="48.65885" lon="7.22534">
        <ele>460.7</ele>
        <time>2020-08-27T12:13:54Z</time>
      </trkpt>
      <trkpt lat="48.65888" lon="7.22524">
        <ele>460.9</ele>
        <time>2020-08-27T12:13:56Z</time>
      </trkpt>
      <trkpt lat="48.6589" lon="7.22511">
        <ele>460.4</ele>
        <time>2020-08-27T12:13:58Z</time>
      </trkpt>
      <trkpt lat="48.65891" lon="7.22498">
        <ele>460.1</ele>
        <time>2020-08-27T12:14:00Z</time>
      </trkpt>
      <trkpt lat="48.65892" lon="7.22486">
        <ele>461.5</ele>
        <time>2020-08-27T12:14:02Z</time>
      </trkpt>
      <trkpt lat="48.65891" lon="7.22476">
        <ele>462</ele>
        <time>2020-08-27T12:14:04Z</time>
      </trkpt>
      <trkpt lat="48.6589" lon="7.22466">
        <ele>461.9</ele>
        <time>2020-08-27T12:14:06Z</time>
      </trkpt>
      <trkpt lat="48.6589" lon="7.22457">
        <ele>462</ele>
        <time>2020-08-27T12:14:08Z</time>
      </trkpt>
      <trkpt lat="48.6589" lon="7.22447">
        <ele>461.6</ele>
        <time>2020-08-27T12:14:10Z</time>
      </trkpt>
      <trkpt lat="48.65889" lon="7.22439">
        <ele>462.4</ele>
        <time>2020-08-27T12:14:12Z</time>
      </trkpt>
      <trkpt lat="48.65888" lon="7.22431">
        <ele>462.7</ele>
        <time>2020-08-27T12:14:14Z</time>
      </trkpt>
      <trkpt lat="48.65886" lon="7.22424">
        <ele>463.4</ele>
        <time>2020-08-27T12:14:16Z</time>
      </trkpt>
      <trkpt lat="48.65884" lon="7.22417">
        <ele>464.3</ele>
        <time>2020-08-27T12:14:18Z</time>
      </trkpt>
      <trkpt lat="48.65882" lon="7.22409">
        <ele>465</ele>
        <time>2020-08-27T12:14:20Z</time>
      </trkpt>
      <trkpt lat="48.65879" lon="7.224">
        <ele>465.2</ele>
        <time>2020-08-27T12:14:23Z</time>
      </trkpt>
      <trkpt lat="48.65878" lon="7.22393">
        <ele>464.3</ele>
        <time>2020-08-27T12:14:33Z</time>
      </trkpt>
      <trkpt lat="48.65879" lon="7.22385">
        <ele>463.8</ele>
        <time>2020-08-27T12:14:37Z</time>
      </trkpt>
      <trkpt lat="48.65879" lon="7.22378">
        <ele>463.7</ele>
        <time>2020-08-27T12:14:39Z</time>
      </trkpt>
      <trkpt lat="48.65881" lon="7.22369">
        <ele>463.8</ele>
        <time>2020-08-27T12:14:41Z</time>
      </trkpt>
      <trkpt lat="48.65883" lon="7.22361">
        <ele>464.1</ele>
        <time>2020-08-27T12:14:43Z</time>
      </trkpt>
      <trkpt lat="48.65885" lon="7.22354">
        <ele>464.5</ele>
        <time>2020-08-27T12:14:45Z</time>
      </trkpt>
      <trkpt lat="48.65886" lon="7.22346">
        <ele>464.9</ele>
        <time>2020-08-27T12:14:47Z</time>
      </trkpt>
      <trkpt lat="48.65887" lon="7.2234">
        <ele>465.7</ele>
        <time>2020-08-27T12:14:49Z</time>
      </trkpt>
      <trkpt lat="48.65889" lon="7.2233">
        <ele>451.4</ele>
        <time>2020-08-27T12:14:52Z</time>
      </trkpt>
      <trkpt lat="48.65892" lon="7.22323">
        <ele>448</ele>
        <time>2020-08-27T12:14:55Z</time>
      </trkpt>
      <trkpt lat="48.65895" lon="7.22318">
        <ele>449</ele>
        <time>2020-08-27T12:14:58Z</time>
      </trkpt>
      <trkpt lat="48.65898" lon="7.22311">
        <ele>454.3</ele>
        <time>2020-08-27T12:15:03Z</time>
      </trkpt>
      <trkpt lat="48.659" lon="7.22303">
        <ele>474.1</ele>
        <time>2020-08-27T12:15:27Z</time>
      </trkpt>
      <trkpt lat="48.65903" lon="7.22296">
        <ele>474.6</ele>
        <time>2020-08-27T12:15:30Z</time>
      </trkpt>
      <trkpt lat="48.65908" lon="7.22287">
        <ele>475.5</ele>
        <time>2020-08-27T12:15:33Z</time>
      </trkpt>
      <trkpt lat="48.65912" lon="7.22278">
        <ele>475.9</ele>
        <time>2020-08-27T12:15:35Z</time>
      </trkpt>
      <trkpt lat="48.65916" lon="7.22265">
        <ele>476.5</ele>
        <time>2020-08-27T12:15:37Z</time>
      </trkpt>
      <trkpt lat="48.6592" lon="7.22255">
        <ele>477.3</ele>
        <time>2020-08-27T12:15:39Z</time>
      </trkpt>
      <trkpt lat="48.65924" lon="7.22247">
        <ele>478.7</ele>
        <time>2020-08-27T12:15:41Z</time>
      </trkpt>
      <trkpt lat="48.65927" lon="7.22239">
        <ele>480.5</ele>
        <time>2020-08-27T12:15:43Z</time>
      </trkpt>
      <trkpt lat="48.65931" lon="7.22229">
        <ele>481.9</ele>
        <time>2020-08-27T12:15:45Z</time>
      </trkpt>
      <trkpt lat="48.65935" lon="7.2222">
        <ele>483.1</ele>
        <time>2020-08-27T12:15:47Z</time>
      </trkpt>
      <trkpt lat="48.65939" lon="7.22211">
        <ele>483.4</ele>
        <time>2020-08-27T12:15:49Z</time>
      </trkpt>
      <trkpt lat="48.65943" lon="7.22204">
        <ele>483.4</ele>
        <time>2020-08-27T12:15:51Z</time>
      </trkpt>
      <trkpt lat="48.65948" lon="7.22197">
        <ele>484.4</ele>
        <time>2020-08-27T12:15:53Z</time>
      </trkpt>
      <trkpt lat="48.65954" lon="7.22191">
        <ele>484.1</ele>
        <time>2020-08-27T12:15:55Z</time>
      </trkpt>
      <trkpt lat="48.6596" lon="7.22185">
        <ele>484.9</ele>
        <time>2020-08-27T12:15:57Z</time>
      </trkpt>
      <trkpt lat="48.65965" lon="7.2218">
        <ele>485</ele>
        <time>2020-08-27T12:15:59Z</time>
      </trkpt>
      <trkpt lat="48.65971" lon="7.22176">
        <ele>486.1</ele>
        <time>2020-08-27T12:16:01Z</time>
      </trkpt>
      <trkpt lat="48.65977" lon="7.22173">
        <ele>482.7</ele>
        <time>2020-08-27T12:16:03Z</time>
      </trkpt>
      <trkpt lat="48.65983" lon="7.22169">
        <ele>482.4</ele>
        <time>2020-08-27T12:16:05Z</time>
      </trkpt>
      <trkpt lat="48.65989" lon="7.22165">
        <ele>481.8</ele>
        <time>2020-08-27T12:16:07Z</time>
      </trkpt>
      <trkpt lat="48.65996" lon="7.22159">
        <ele>483.1</ele>
        <time>2020-08-27T12:16:09Z</time>
      </trkpt>
      <trkpt lat="48.66004" lon="7.22152">
        <ele>483.7</ele>
        <time>2020-08-27T12:16:11Z</time>
      </trkpt>
      <trkpt lat="48.66011" lon="7.22144">
        <ele>485.4</ele>
        <time>2020-08-27T12:16:13Z</time>
      </trkpt>
      <trkpt lat="48.66018" lon="7.22134">
        <ele>486.4</ele>
        <time>2020-08-27T12:16:15Z</time>
      </trkpt>
      <trkpt lat="48.66023" lon="7.22128">
        <ele>488.4</ele>
        <time>2020-08-27T12:16:17Z</time>
      </trkpt>
      <trkpt lat="48.6603" lon="7.22123">
        <ele>488.8</ele>
        <time>2020-08-27T12:16:19Z</time>
      </trkpt>
      <trkpt lat="48.66036" lon="7.22121">
        <ele>490.1</ele>
        <time>2020-08-27T12:16:21Z</time>
      </trkpt>
      <trkpt lat="48.66042" lon="7.22119">
        <ele>490.5</ele>
        <time>2020-08-27T12:16:23Z</time>
      </trkpt>
      <trkpt lat="48.66049" lon="7.22118">
        <ele>491</ele>
        <time>2020-08-27T12:16:25Z</time>
      </trkpt>
      <trkpt lat="48.6606" lon="7.22112">
        <ele>490.7</ele>
        <time>2020-08-27T12:16:27Z</time>
      </trkpt>
      <trkpt lat="48.66071" lon="7.22105">
        <ele>487</ele>
        <time>2020-08-27T12:16:29Z</time>
      </trkpt>
      <trkpt lat="48.66083" lon="7.22098">
        <ele>485.1</ele>
        <time>2020-08-27T12:16:31Z</time>
      </trkpt>
      <trkpt lat="48.66094" lon="7.2209">
        <ele>484.6</ele>
        <time>2020-08-27T12:16:33Z</time>
      </trkpt>
      <trkpt lat="48.66105" lon="7.22083">
        <ele>484.1</ele>
        <time>2020-08-27T12:16:35Z</time>
      </trkpt>
      <trkpt lat="48.66115" lon="7.22072">
        <ele>481.2</ele>
        <time>2020-08-27T12:16:37Z</time>
      </trkpt>
      <trkpt lat="48.66122" lon="7.22063">
        <ele>481.1</ele>
        <time>2020-08-27T12:16:39Z</time>
      </trkpt>
      <trkpt lat="48.66128" lon="7.22054">
        <ele>478.8</ele>
        <time>2020-08-27T12:16:41Z</time>
      </trkpt>
      <trkpt lat="48.66132" lon="7.22043">
        <ele>479.7</ele>
        <time>2020-08-27T12:16:43Z</time>
      </trkpt>
      <trkpt lat="48.66135" lon="7.22031">
        <ele>480.3</ele>
        <time>2020-08-27T12:16:45Z</time>
      </trkpt>
      <trkpt lat="48.66137" lon="7.22024">
        <ele>480.9</ele>
        <time>2020-08-27T12:16:47Z</time>
      </trkpt>
      <trkpt lat="48.66142" lon="7.22027">
        <ele>487.4</ele>
        <time>2020-08-27T12:17:04Z</time>
      </trkpt>
      <trkpt lat="48.66145" lon="7.22018">
        <ele>488.8</ele>
        <time>2020-08-27T12:17:09Z</time>
      </trkpt>
      <trkpt lat="48.66149" lon="7.22008">
        <ele>488.6</ele>
        <time>2020-08-27T12:17:11Z</time>
      </trkpt>
      <trkpt lat="48.66152" lon="7.21997">
        <ele>488.6</ele>
        <time>2020-08-27T12:17:13Z</time>
      </trkpt>
      <trkpt lat="48.66155" lon="7.21985">
        <ele>488.2</ele>
        <time>2020-08-27T12:17:15Z</time>
      </trkpt>
      <trkpt lat="48.6616" lon="7.21974">
        <ele>488.2</ele>
        <time>2020-08-27T12:17:17Z</time>
      </trkpt>
      <trkpt lat="48.66166" lon="7.21963">
        <ele>487.8</ele>
        <time>2020-08-27T12:17:19Z</time>
      </trkpt>
      <trkpt lat="48.6617" lon="7.21952">
        <ele>487.5</ele>
        <time>2020-08-27T12:17:21Z</time>
      </trkpt>
      <trkpt lat="48.66174" lon="7.21943">
        <ele>487.5</ele>
        <time>2020-08-27T12:17:23Z</time>
      </trkpt>
      <trkpt lat="48.66178" lon="7.21936">
        <ele>487.2</ele>
        <time>2020-08-27T12:17:25Z</time>
      </trkpt>
      <trkpt lat="48.66181" lon="7.21929">
        <ele>487.2</ele>
        <time>2020-08-27T12:17:27Z</time>
      </trkpt>
      <trkpt lat="48.66184" lon="7.21923">
        <ele>486.1</ele>
        <time>2020-08-27T12:17:29Z</time>
      </trkpt>
      <trkpt lat="48.66187" lon="7.21915">
        <ele>485.1</ele>
        <time>2020-08-27T12:17:31Z</time>
      </trkpt>
      <trkpt lat="48.66191" lon="7.21907">
        <ele>484.1</ele>
        <time>2020-08-27T12:17:33Z</time>
      </trkpt>
      <trkpt lat="48.66196" lon="7.21893">
        <ele>482.2</ele>
        <time>2020-08-27T12:17:35Z</time>
      </trkpt>
      <trkpt lat="48.66203" lon="7.2188">
        <ele>480.7</ele>
        <time>2020-08-27T12:17:37Z</time>
      </trkpt>
      <trkpt lat="48.66209" lon="7.2187">
        <ele>479.7</ele>
        <time>2020-08-27T12:17:39Z</time>
      </trkpt>
      <trkpt lat="48.66215" lon="7.21861">
        <ele>479</ele>
        <time>2020-08-27T12:17:41Z</time>
      </trkpt>
      <trkpt lat="48.66219" lon="7.21852">
        <ele>478.9</ele>
        <time>2020-08-27T12:17:43Z</time>
      </trkpt>
      <trkpt lat="48.66225" lon="7.21843">
        <ele>479.6</ele>
        <time>2020-08-27T12:17:45Z</time>
      </trkpt>
      <trkpt lat="48.66231" lon="7.21834">
        <ele>480.4</ele>
        <time>2020-08-27T12:17:47Z</time>
      </trkpt>
      <trkpt lat="48.66237" lon="7.21825">
        <ele>480.8</ele>
        <time>2020-08-27T12:17:49Z</time>
      </trkpt>
      <trkpt lat="48.66244" lon="7.21812">
        <ele>480.5</ele>
        <time>2020-08-27T12:17:51Z</time>
      </trkpt>
      <trkpt lat="48.66251" lon="7.21799">
        <ele>481.1</ele>
        <time>2020-08-27T12:17:53Z</time>
      </trkpt>
      <trkpt lat="48.66256" lon="7.2179">
        <ele>481.5</ele>
        <time>2020-08-27T12:17:55Z</time>
      </trkpt>
      <trkpt lat="48.66263" lon="7.21781">
        <ele>482.9</ele>
        <time>2020-08-27T12:17:57Z</time>
      </trkpt>
      <trkpt lat="48.66269" lon="7.21773">
        <ele>482.7</ele>
        <time>2020-08-27T12:17:59Z</time>
      </trkpt>
      <trkpt lat="48.66276" lon="7.21763">
        <ele>483.4</ele>
        <time>2020-08-27T12:18:01Z</time>
      </trkpt>
      <trkpt lat="48.66282" lon="7.21755">
        <ele>483.8</ele>
        <time>2020-08-27T12:18:03Z</time>
      </trkpt>
      <trkpt lat="48.6629" lon="7.21746">
        <ele>484.5</ele>
        <time>2020-08-27T12:18:05Z</time>
      </trkpt>
      <trkpt lat="48.66297" lon="7.21736">
        <ele>484.5</ele>
        <time>2020-08-27T12:18:07Z</time>
      </trkpt>
      <trkpt lat="48.66303" lon="7.21729">
        <ele>484.7</ele>
        <time>2020-08-27T12:18:09Z</time>
      </trkpt>
      <trkpt lat="48.66307" lon="7.21724">
        <ele>484.6</ele>
        <time>2020-08-27T12:18:12Z</time>
      </trkpt>
      <trkpt lat="48.66311" lon="7.21717">
        <ele>483.5</ele>
        <time>2020-08-27T12:18:16Z</time>
      </trkpt>
      <trkpt lat="48.66316" lon="7.21713">
        <ele>483.6</ele>
        <time>2020-08-27T12:18:18Z</time>
      </trkpt>
      <trkpt lat="48.66319" lon="7.21707">
        <ele>483.5</ele>
        <time>2020-08-27T12:18:20Z</time>
      </trkpt>
      <trkpt lat="48.66323" lon="7.21699">
        <ele>482.9</ele>
        <time>2020-08-27T12:18:23Z</time>
      </trkpt>
      <trkpt lat="48.66326" lon="7.21692">
        <ele>482.4</ele>
        <time>2020-08-27T12:18:25Z</time>
      </trkpt>
      <trkpt lat="48.66328" lon="7.21684">
        <ele>482</ele>
        <time>2020-08-27T12:18:27Z</time>
      </trkpt>
      <trkpt lat="48.66331" lon="7.21675">
        <ele>481.5</ele>
        <time>2020-08-27T12:18:29Z</time>
      </trkpt>
      <trkpt lat="48.66334" lon="7.21666">
        <ele>481.3</ele>
        <time>2020-08-27T12:18:31Z</time>
      </trkpt>
      <trkpt lat="48.66335" lon="7.21657">
        <ele>480.9</ele>
        <time>2020-08-27T12:18:33Z</time>
      </trkpt>
      <trkpt lat="48.66336" lon="7.21648">
        <ele>481.4</ele>
        <time>2020-08-27T12:18:35Z</time>
      </trkpt>
      <trkpt lat="48.66338" lon="7.21638">
        <ele>481.8</ele>
        <time>2020-08-27T12:18:37Z</time>
      </trkpt>
      <trkpt lat="48.66341" lon="7.21627">
        <ele>482.5</ele>
        <time>2020-08-27T12:18:39Z</time>
      </trkpt>
      <trkpt lat="48.66343" lon="7.21614">
        <ele>483</ele>
        <time>2020-08-27T12:18:41Z</time>
      </trkpt>
      <trkpt lat="48.66346" lon="7.21602">
        <ele>483.3</ele>
        <time>2020-08-27T12:18:43Z</time>
      </trkpt>
      <trkpt lat="48.6635" lon="7.2159">
        <ele>483.7</ele>
        <time>2020-08-27T12:18:45Z</time>
      </trkpt>
      <trkpt lat="48.66353" lon="7.21579">
        <ele>484.2</ele>
        <time>2020-08-27T12:18:47Z</time>
      </trkpt>
      <trkpt lat="48.66356" lon="7.21568">
        <ele>484.6</ele>
        <time>2020-08-27T12:18:49Z</time>
      </trkpt>
      <trkpt lat="48.6636" lon="7.21558">
        <ele>484.8</ele>
        <time>2020-08-27T12:18:51Z</time>
      </trkpt>
      <trkpt lat="48.66364" lon="7.21548">
        <ele>485.4</ele>
        <time>2020-08-27T12:18:53Z</time>
      </trkpt>
      <trkpt lat="48.66369" lon="7.21539">
        <ele>486</ele>
        <time>2020-08-27T12:18:55Z</time>
      </trkpt>
      <trkpt lat="48.66375" lon="7.2153">
        <ele>487.2</ele>
        <time>2020-08-27T12:18:57Z</time>
      </trkpt>
      <trkpt lat="48.66379" lon="7.21521">
        <ele>488.4</ele>
        <time>2020-08-27T12:18:59Z</time>
      </trkpt>
      <trkpt lat="48.66383" lon="7.21514">
        <ele>489.5</ele>
        <time>2020-08-27T12:19:01Z</time>
      </trkpt>
      <trkpt lat="48.66386" lon="7.21505">
        <ele>490</ele>
        <time>2020-08-27T12:19:03Z</time>
      </trkpt>
      <trkpt lat="48.66389" lon="7.21495">
        <ele>491.3</ele>
        <time>2020-08-27T12:19:05Z</time>
      </trkpt>
      <trkpt lat="48.66393" lon="7.21485">
        <ele>491.4</ele>
        <time>2020-08-27T12:19:07Z</time>
      </trkpt>
      <trkpt lat="48.66397" lon="7.21474">
        <ele>492.2</ele>
        <time>2020-08-27T12:19:09Z</time>
      </trkpt>
      <trkpt lat="48.664" lon="7.21463">
        <ele>492</ele>
        <time>2020-08-27T12:19:11Z</time>
      </trkpt>
      <trkpt lat="48.66404" lon="7.21452">
        <ele>491.8</ele>
        <time>2020-08-27T12:19:13Z</time>
      </trkpt>
      <trkpt lat="48.66411" lon="7.21439">
        <ele>491.8</ele>
        <time>2020-08-27T12:19:15Z</time>
      </trkpt>
      <trkpt lat="48.66417" lon="7.21429">
        <ele>492.8</ele>
        <time>2020-08-27T12:19:17Z</time>
      </trkpt>
      <trkpt lat="48.66422" lon="7.2142">
        <ele>492.8</ele>
        <time>2020-08-27T12:19:19Z</time>
      </trkpt>
      <trkpt lat="48.66428" lon="7.2141">
        <ele>493.9</ele>
        <time>2020-08-27T12:19:21Z</time>
      </trkpt>
      <trkpt lat="48.66435" lon="7.21399">
        <ele>494.8</ele>
        <time>2020-08-27T12:19:23Z</time>
      </trkpt>
      <trkpt lat="48.66443" lon="7.21388">
        <ele>494.8</ele>
        <time>2020-08-27T12:19:25Z</time>
      </trkpt>
      <trkpt lat="48.66451" lon="7.21377">
        <ele>495.8</ele>
        <time>2020-08-27T12:19:27Z</time>
      </trkpt>
      <trkpt lat="48.66458" lon="7.21368">
        <ele>496.6</ele>
        <time>2020-08-27T12:19:29Z</time>
      </trkpt>
      <trkpt lat="48.66465" lon="7.21359">
        <ele>497.7</ele>
        <time>2020-08-27T12:19:31Z</time>
      </trkpt>
      <trkpt lat="48.66474" lon="7.21348">
        <ele>498.2</ele>
        <time>2020-08-27T12:19:33Z</time>
      </trkpt>
      <trkpt lat="48.66481" lon="7.21337">
        <ele>498.5</ele>
        <time>2020-08-27T12:19:35Z</time>
      </trkpt>
      <trkpt lat="48.66488" lon="7.21328">
        <ele>498.3</ele>
        <time>2020-08-27T12:19:37Z</time>
      </trkpt>
      <trkpt lat="48.66497" lon="7.2132">
        <ele>498.4</ele>
        <time>2020-08-27T12:19:39Z</time>
      </trkpt>
      <trkpt lat="48.66505" lon="7.21312">
        <ele>498.1</ele>
        <time>2020-08-27T12:19:41Z</time>
      </trkpt>
      <trkpt lat="48.66513" lon="7.21304">
        <ele>497</ele>
        <time>2020-08-27T12:19:43Z</time>
      </trkpt>
      <trkpt lat="48.66521" lon="7.21297">
        <ele>496.3</ele>
        <time>2020-08-27T12:19:45Z</time>
      </trkpt>
      <trkpt lat="48.66531" lon="7.21291">
        <ele>495.4</ele>
        <time>2020-08-27T12:19:47Z</time>
      </trkpt>
      <trkpt lat="48.66539" lon="7.21288">
        <ele>494.4</ele>
        <time>2020-08-27T12:19:49Z</time>
      </trkpt>
      <trkpt lat="48.66547" lon="7.21283">
        <ele>493.1</ele>
        <time>2020-08-27T12:19:51Z</time>
      </trkpt>
      <trkpt lat="48.66555" lon="7.21279">
        <ele>492</ele>
        <time>2020-08-27T12:19:53Z</time>
      </trkpt>
      <trkpt lat="48.66562" lon="7.21274">
        <ele>491.6</ele>
        <time>2020-08-27T12:19:55Z</time>
      </trkpt>
      <trkpt lat="48.66566" lon="7.21269">
        <ele>491.4</ele>
        <time>2020-08-27T12:19:57Z</time>
      </trkpt>
      <trkpt lat="48.66571" lon="7.21267">
        <ele>492.4</ele>
        <time>2020-08-27T12:20:03Z</time>
      </trkpt>
      <trkpt lat="48.66576" lon="7.21265">
        <ele>491.9</ele>
        <time>2020-08-27T12:20:05Z</time>
      </trkpt>
      <trkpt lat="48.66583" lon="7.21263">
        <ele>491.5</ele>
        <time>2020-08-27T12:20:07Z</time>
      </trkpt>
      <trkpt lat="48.6659" lon="7.21261">
        <ele>490.7</ele>
        <time>2020-08-27T12:20:09Z</time>
      </trkpt>
      <trkpt lat="48.66596" lon="7.21259">
        <ele>490.5</ele>
        <time>2020-08-27T12:20:11Z</time>
      </trkpt>
      <trkpt lat="48.66603" lon="7.21257">
        <ele>489.8</ele>
        <time>2020-08-27T12:20:13Z</time>
      </trkpt>
      <trkpt lat="48.6661" lon="7.21255">
        <ele>489.2</ele>
        <time>2020-08-27T12:20:15Z</time>
      </trkpt>
      <trkpt lat="48.66614" lon="7.21255">
        <ele>488.7</ele>
        <time>2020-08-27T12:20:17Z</time>
      </trkpt>
      <trkpt lat="48.6662" lon="7.21253">
        <ele>487.5</ele>
        <time>2020-08-27T12:20:22Z</time>
      </trkpt>
      <trkpt lat="48.66627" lon="7.21251">
        <ele>486.7</ele>
        <time>2020-08-27T12:20:25Z</time>
      </trkpt>
      <trkpt lat="48.66632" lon="7.21248">
        <ele>485.9</ele>
        <time>2020-08-27T12:20:27Z</time>
      </trkpt>
      <trkpt lat="48.66637" lon="7.21245">
        <ele>485.2</ele>
        <time>2020-08-27T12:20:29Z</time>
      </trkpt>
      <trkpt lat="48.66642" lon="7.21247">
        <ele>484.7</ele>
        <time>2020-08-27T12:20:31Z</time>
      </trkpt>
      <trkpt lat="48.66645" lon="7.21253">
        <ele>484.3</ele>
        <time>2020-08-27T12:20:34Z</time>
      </trkpt>
      <trkpt lat="48.66644" lon="7.21245">
        <ele>472.2</ele>
        <time>2020-08-27T12:20:51Z</time>
      </trkpt>
      <trkpt lat="48.66646" lon="7.21239">
        <ele>476.9</ele>
        <time>2020-08-27T12:20:56Z</time>
      </trkpt>
      <trkpt lat="48.66651" lon="7.21232">
        <ele>478.4</ele>
        <time>2020-08-27T12:20:59Z</time>
      </trkpt>
      <trkpt lat="48.66654" lon="7.21225">
        <ele>479.4</ele>
        <time>2020-08-27T12:21:01Z</time>
      </trkpt>
      <trkpt lat="48.66656" lon="7.21216">
        <ele>479.7</ele>
        <time>2020-08-27T12:21:03Z</time>
      </trkpt>
      <trkpt lat="48.66657" lon="7.21207">
        <ele>480.3</ele>
        <time>2020-08-27T12:21:05Z</time>
      </trkpt>
      <trkpt lat="48.66656" lon="7.212">
        <ele>480.7</ele>
        <time>2020-08-27T12:21:07Z</time>
      </trkpt>
      <trkpt lat="48.66655" lon="7.2119">
        <ele>481.1</ele>
        <time>2020-08-27T12:21:10Z</time>
      </trkpt>
      <trkpt lat="48.66658" lon="7.21184">
        <ele>480.7</ele>
        <time>2020-08-27T12:21:12Z</time>
      </trkpt>
      <trkpt lat="48.66663" lon="7.21181">
        <ele>480.1</ele>
        <time>2020-08-27T12:21:14Z</time>
      </trkpt>
      <trkpt lat="48.66669" lon="7.21178">
        <ele>479.4</ele>
        <time>2020-08-27T12:21:16Z</time>
      </trkpt>
      <trkpt lat="48.66676" lon="7.21177">
        <ele>478.5</ele>
        <time>2020-08-27T12:21:18Z</time>
      </trkpt>
      <trkpt lat="48.66683" lon="7.21176">
        <ele>477.4</ele>
        <time>2020-08-27T12:21:20Z</time>
      </trkpt>
      <trkpt lat="48.66688" lon="7.21173">
        <ele>476.3</ele>
        <time>2020-08-27T12:21:22Z</time>
      </trkpt>
      <trkpt lat="48.66694" lon="7.2117">
        <ele>475.4</ele>
        <time>2020-08-27T12:21:24Z</time>
      </trkpt>
      <trkpt lat="48.66698" lon="7.21164">
        <ele>474.6</ele>
        <time>2020-08-27T12:21:26Z</time>
      </trkpt>
      <trkpt lat="48.66702" lon="7.21158">
        <ele>474</ele>
        <time>2020-08-27T12:21:28Z</time>
      </trkpt>
      <trkpt lat="48.66705" lon="7.21152">
        <ele>473.5</ele>
        <time>2020-08-27T12:21:30Z</time>
      </trkpt>
      <trkpt lat="48.66709" lon="7.21144">
        <ele>472.4</ele>
        <time>2020-08-27T12:21:33Z</time>
      </trkpt>
      <trkpt lat="48.6671" lon="7.21137">
        <ele>472.8</ele>
        <time>2020-08-27T12:21:36Z</time>
      </trkpt>
      <trkpt lat="48.66712" lon="7.21127">
        <ele>473.4</ele>
        <time>2020-08-27T12:21:39Z</time>
      </trkpt>
      <trkpt lat="48.66714" lon="7.21119">
        <ele>473.2</ele>
        <time>2020-08-27T12:21:41Z</time>
      </trkpt>
      <trkpt lat="48.66716" lon="7.21111">
        <ele>473.4</ele>
        <time>2020-08-27T12:21:43Z</time>
      </trkpt>
      <trkpt lat="48.66718" lon="7.21102">
        <ele>473</ele>
        <time>2020-08-27T12:21:45Z</time>
      </trkpt>
      <trkpt lat="48.6672" lon="7.21094">
        <ele>472.5</ele>
        <time>2020-08-27T12:21:47Z</time>
      </trkpt>
      <trkpt lat="48.66721" lon="7.21086">
        <ele>472.4</ele>
        <time>2020-08-27T12:21:49Z</time>
      </trkpt>
      <trkpt lat="48.66723" lon="7.21077">
        <ele>471.7</ele>
        <time>2020-08-27T12:21:51Z</time>
      </trkpt>
      <trkpt lat="48.66726" lon="7.21067">
        <ele>459.9</ele>
        <time>2020-08-27T12:21:53Z</time>
      </trkpt>
      <trkpt lat="48.66728" lon="7.21058">
        <ele>451.5</ele>
        <time>2020-08-27T12:21:55Z</time>
      </trkpt>
      <trkpt lat="48.6673" lon="7.21048">
        <ele>448.2</ele>
        <time>2020-08-27T12:21:57Z</time>
      </trkpt>
      <trkpt lat="48.66731" lon="7.2104">
        <ele>449.3</ele>
        <time>2020-08-27T12:21:59Z</time>
      </trkpt>
      <trkpt lat="48.66731" lon="7.21032">
        <ele>455.5</ele>
        <time>2020-08-27T12:22:03Z</time>
      </trkpt>
      <trkpt lat="48.66733" lon="7.21024">
        <ele>460.7</ele>
        <time>2020-08-27T12:22:07Z</time>
      </trkpt>
      <trkpt lat="48.66735" lon="7.21018">
        <ele>462.7</ele>
        <time>2020-08-27T12:22:11Z</time>
      </trkpt>
      <trkpt lat="48.66738" lon="7.21011">
        <ele>466.4</ele>
        <time>2020-08-27T12:22:18Z</time>
      </trkpt>
      <trkpt lat="48.66736" lon="7.21004">
        <ele>466.1</ele>
        <time>2020-08-27T12:22:27Z</time>
      </trkpt>
      <trkpt lat="48.66738" lon="7.20996">
        <ele>467.1</ele>
        <time>2020-08-27T12:22:31Z</time>
      </trkpt>
      <trkpt lat="48.66739" lon="7.20987">
        <ele>468.3</ele>
        <time>2020-08-27T12:22:34Z</time>
      </trkpt>
      <trkpt lat="48.66739" lon="7.20979">
        <ele>468.3</ele>
        <time>2020-08-27T12:22:36Z</time>
      </trkpt>
      <trkpt lat="48.66738" lon="7.20971">
        <ele>469.2</ele>
        <time>2020-08-27T12:22:38Z</time>
      </trkpt>
      <trkpt lat="48.66738" lon="7.20964">
        <ele>469.2</ele>
        <time>2020-08-27T12:22:40Z</time>
      </trkpt>
      <trkpt lat="48.66738" lon="7.20956">
        <ele>468.9</ele>
        <time>2020-08-27T12:22:42Z</time>
      </trkpt>
      <trkpt lat="48.66739" lon="7.20945">
        <ele>468.4</ele>
        <time>2020-08-27T12:22:44Z</time>
      </trkpt>
      <trkpt lat="48.66739" lon="7.20937">
        <ele>468.9</ele>
        <time>2020-08-27T12:22:46Z</time>
      </trkpt>
      <trkpt lat="48.66735" lon="7.20934">
        <ele>469</ele>
        <time>2020-08-27T12:22:50Z</time>
      </trkpt>
      <trkpt lat="48.66731" lon="7.20938">
        <ele>468.7</ele>
        <time>2020-08-27T12:22:52Z</time>
      </trkpt>
      <trkpt lat="48.66727" lon="7.20941">
        <ele>469.9</ele>
        <time>2020-08-27T12:23:08Z</time>
      </trkpt>
      <trkpt lat="48.66721" lon="7.20947">
        <ele>468</ele>
        <time>2020-08-27T12:23:16Z</time>
      </trkpt>
      <trkpt lat="48.66711" lon="7.20956">
        <ele>466.6</ele>
        <time>2020-08-27T12:23:19Z</time>
      </trkpt>
      <trkpt lat="48.66703" lon="7.20963">
        <ele>465.5</ele>
        <time>2020-08-27T12:23:21Z</time>
      </trkpt>
      <trkpt lat="48.66695" lon="7.20967">
        <ele>465.2</ele>
        <time>2020-08-27T12:23:23Z</time>
      </trkpt>
      <trkpt lat="48.66689" lon="7.20968">
        <ele>465.3</ele>
        <time>2020-08-27T12:23:25Z</time>
      </trkpt>
      <trkpt lat="48.66683" lon="7.20968">
        <ele>465.5</ele>
        <time>2020-08-27T12:23:27Z</time>
      </trkpt>
      <trkpt lat="48.66677" lon="7.20967">
        <ele>454.8</ele>
        <time>2020-08-27T12:23:29Z</time>
      </trkpt>
      <trkpt lat="48.66669" lon="7.20963">
        <ele>452.5</ele>
        <time>2020-08-27T12:23:31Z</time>
      </trkpt>
      <trkpt lat="48.66662" lon="7.2096">
        <ele>451.6</ele>
        <time>2020-08-27T12:23:33Z</time>
      </trkpt>
      <trkpt lat="48.66654" lon="7.20963">
        <ele>454.1</ele>
        <time>2020-08-27T12:23:35Z</time>
      </trkpt>
      <trkpt lat="48.66643" lon="7.20972">
        <ele>458</ele>
        <time>2020-08-27T12:23:38Z</time>
      </trkpt>
      <trkpt lat="48.66637" lon="7.20976">
        <ele>460.9</ele>
        <time>2020-08-27T12:23:40Z</time>
      </trkpt>
      <trkpt lat="48.66632" lon="7.20977">
        <ele>463</ele>
        <time>2020-08-27T12:23:42Z</time>
      </trkpt>
      <trkpt lat="48.66626" lon="7.20978">
        <ele>465.8</ele>
        <time>2020-08-27T12:23:45Z</time>
      </trkpt>
      <trkpt lat="48.66621" lon="7.20978">
        <ele>467.3</ele>
        <time>2020-08-27T12:23:51Z</time>
      </trkpt>
      <trkpt lat="48.66617" lon="7.20976">
        <ele>469.3</ele>
        <time>2020-08-27T12:23:59Z</time>
      </trkpt>
      <trkpt lat="48.66612" lon="7.20975">
        <ele>469.6</ele>
        <time>2020-08-27T12:24:01Z</time>
      </trkpt>
      <trkpt lat="48.66606" lon="7.20973">
        <ele>469.6</ele>
        <time>2020-08-27T12:24:03Z</time>
      </trkpt>
      <trkpt lat="48.666" lon="7.20973">
        <ele>469.3</ele>
        <time>2020-08-27T12:24:05Z</time>
      </trkpt>
      <trkpt lat="48.66593" lon="7.20972">
        <ele>469.1</ele>
        <time>2020-08-27T12:24:07Z</time>
      </trkpt>
      <trkpt lat="48.66586" lon="7.2097">
        <ele>468.7</ele>
        <time>2020-08-27T12:24:09Z</time>
      </trkpt>
      <trkpt lat="48.66578" lon="7.20966">
        <ele>468.8</ele>
        <time>2020-08-27T12:24:11Z</time>
      </trkpt>
      <trkpt lat="48.6657" lon="7.20961">
        <ele>467.5</ele>
        <time>2020-08-27T12:24:13Z</time>
      </trkpt>
      <trkpt lat="48.66562" lon="7.20955">
        <ele>467.1</ele>
        <time>2020-08-27T12:24:15Z</time>
      </trkpt>
      <trkpt lat="48.66554" lon="7.20951">
        <ele>467.8</ele>
        <time>2020-08-27T12:24:17Z</time>
      </trkpt>
      <trkpt lat="48.66547" lon="7.20947">
        <ele>467.8</ele>
        <time>2020-08-27T12:24:19Z</time>
      </trkpt>
      <trkpt lat="48.66542" lon="7.20942">
        <ele>468.5</ele>
        <time>2020-08-27T12:24:21Z</time>
      </trkpt>
      <trkpt lat="48.66537" lon="7.20937">
        <ele>468.4</ele>
        <time>2020-08-27T12:24:23Z</time>
      </trkpt>
      <trkpt lat="48.66533" lon="7.20931">
        <ele>468.7</ele>
        <time>2020-08-27T12:24:25Z</time>
      </trkpt>
      <trkpt lat="48.66529" lon="7.20927">
        <ele>468.7</ele>
        <time>2020-08-27T12:24:27Z</time>
      </trkpt>
      <trkpt lat="48.66524" lon="7.20923">
        <ele>468.4</ele>
        <time>2020-08-27T12:24:29Z</time>
      </trkpt>
      <trkpt lat="48.66519" lon="7.20916">
        <ele>468.2</ele>
        <time>2020-08-27T12:24:31Z</time>
      </trkpt>
      <trkpt lat="48.66514" lon="7.20909">
        <ele>467.9</ele>
        <time>2020-08-27T12:24:33Z</time>
      </trkpt>
      <trkpt lat="48.66508" lon="7.20902">
        <ele>467.5</ele>
        <time>2020-08-27T12:24:35Z</time>
      </trkpt>
      <trkpt lat="48.66501" lon="7.20894">
        <ele>467</ele>
        <time>2020-08-27T12:24:37Z</time>
      </trkpt>
      <trkpt lat="48.66493" lon="7.20886">
        <ele>467.2</ele>
        <time>2020-08-27T12:24:39Z</time>
      </trkpt>
      <trkpt lat="48.66484" lon="7.20876">
        <ele>467</ele>
        <time>2020-08-27T12:24:41Z</time>
      </trkpt>
      <trkpt lat="48.66475" lon="7.20867">
        <ele>467.1</ele>
        <time>2020-08-27T12:24:43Z</time>
      </trkpt>
      <trkpt lat="48.66467" lon="7.20858">
        <ele>467.1</ele>
        <time>2020-08-27T12:24:45Z</time>
      </trkpt>
      <trkpt lat="48.66459" lon="7.20847">
        <ele>467.5</ele>
        <time>2020-08-27T12:24:47Z</time>
      </trkpt>
      <trkpt lat="48.66451" lon="7.20839">
        <ele>467.6</ele>
        <time>2020-08-27T12:24:49Z</time>
      </trkpt>
      <trkpt lat="48.66443" lon="7.20833">
        <ele>467.9</ele>
        <time>2020-08-27T12:24:51Z</time>
      </trkpt>
      <trkpt lat="48.66437" lon="7.20827">
        <ele>468.1</ele>
        <time>2020-08-27T12:24:53Z</time>
      </trkpt>
      <trkpt lat="48.66431" lon="7.20824">
        <ele>469.3</ele>
        <time>2020-08-27T12:24:55Z</time>
      </trkpt>
      <trkpt lat="48.66426" lon="7.2082">
        <ele>472</ele>
        <time>2020-08-27T12:24:58Z</time>
      </trkpt>
      <trkpt lat="48.66422" lon="7.20815">
        <ele>475</ele>
        <time>2020-08-27T12:25:03Z</time>
      </trkpt>
      <trkpt lat="48.66418" lon="7.20809">
        <ele>476</ele>
        <time>2020-08-27T12:25:07Z</time>
      </trkpt>
      <trkpt lat="48.66413" lon="7.20804">
        <ele>476.1</ele>
        <time>2020-08-27T12:25:10Z</time>
      </trkpt>
      <trkpt lat="48.66408" lon="7.20801">
        <ele>476.2</ele>
        <time>2020-08-27T12:25:12Z</time>
      </trkpt>
      <trkpt lat="48.66403" lon="7.20799">
        <ele>476.5</ele>
        <time>2020-08-27T12:25:14Z</time>
      </trkpt>
      <trkpt lat="48.66397" lon="7.20796">
        <ele>476.6</ele>
        <time>2020-08-27T12:25:16Z</time>
      </trkpt>
      <trkpt lat="48.66392" lon="7.20793">
        <ele>476.4</ele>
        <time>2020-08-27T12:25:18Z</time>
      </trkpt>
      <trkpt lat="48.66387" lon="7.20792">
        <ele>475.8</ele>
        <time>2020-08-27T12:25:20Z</time>
      </trkpt>
      <trkpt lat="48.66382" lon="7.20792">
        <ele>474.7</ele>
        <time>2020-08-27T12:25:22Z</time>
      </trkpt>
      <trkpt lat="48.66375" lon="7.20793">
        <ele>474.1</ele>
        <time>2020-08-27T12:25:24Z</time>
      </trkpt>
      <trkpt lat="48.66369" lon="7.20794">
        <ele>473</ele>
        <time>2020-08-27T12:25:26Z</time>
      </trkpt>
      <trkpt lat="48.66363" lon="7.20795">
        <ele>472.3</ele>
        <time>2020-08-27T12:25:28Z</time>
      </trkpt>
      <trkpt lat="48.66356" lon="7.20797">
        <ele>471</ele>
        <time>2020-08-27T12:25:30Z</time>
      </trkpt>
      <trkpt lat="48.6635" lon="7.20798">
        <ele>469.6</ele>
        <time>2020-08-27T12:25:32Z</time>
      </trkpt>
      <trkpt lat="48.66343" lon="7.20799">
        <ele>468.6</ele>
        <time>2020-08-27T12:25:34Z</time>
      </trkpt>
      <trkpt lat="48.66337" lon="7.20801">
        <ele>467.7</ele>
        <time>2020-08-27T12:25:36Z</time>
      </trkpt>
      <trkpt lat="48.66329" lon="7.20803">
        <ele>467.1</ele>
        <time>2020-08-27T12:25:38Z</time>
      </trkpt>
      <trkpt lat="48.66321" lon="7.20806">
        <ele>466.6</ele>
        <time>2020-08-27T12:25:40Z</time>
      </trkpt>
      <trkpt lat="48.66312" lon="7.20808">
        <ele>466.1</ele>
        <time>2020-08-27T12:25:42Z</time>
      </trkpt>
      <trkpt lat="48.66304" lon="7.20809">
        <ele>466.4</ele>
        <time>2020-08-27T12:25:44Z</time>
      </trkpt>
      <trkpt lat="48.66297" lon="7.2081">
        <ele>466.4</ele>
        <time>2020-08-27T12:25:46Z</time>
      </trkpt>
      <trkpt lat="48.66291" lon="7.2081">
        <ele>465.9</ele>
        <time>2020-08-27T12:25:48Z</time>
      </trkpt>
      <trkpt lat="48.66286" lon="7.2081">
        <ele>465.2</ele>
        <time>2020-08-27T12:25:50Z</time>
      </trkpt>
      <trkpt lat="48.6628" lon="7.20809">
        <ele>464.5</ele>
        <time>2020-08-27T12:25:52Z</time>
      </trkpt>
      <trkpt lat="48.66275" lon="7.20808">
        <ele>464.7</ele>
        <time>2020-08-27T12:25:54Z</time>
      </trkpt>
      <trkpt lat="48.66268" lon="7.20807">
        <ele>464.1</ele>
        <time>2020-08-27T12:25:57Z</time>
      </trkpt>
      <trkpt lat="48.66263" lon="7.20808">
        <ele>463.9</ele>
        <time>2020-08-27T12:25:59Z</time>
      </trkpt>
      <trkpt lat="48.66258" lon="7.20807">
        <ele>463.2</ele>
        <time>2020-08-27T12:26:01Z</time>
      </trkpt>
      <trkpt lat="48.66253" lon="7.20806">
        <ele>462</ele>
        <time>2020-08-27T12:26:03Z</time>
      </trkpt>
      <trkpt lat="48.66248" lon="7.20802">
        <ele>461.2</ele>
        <time>2020-08-27T12:26:05Z</time>
      </trkpt>
      <trkpt lat="48.66243" lon="7.20798">
        <ele>460.9</ele>
        <time>2020-08-27T12:26:07Z</time>
      </trkpt>
      <trkpt lat="48.66236" lon="7.20792">
        <ele>459.8</ele>
        <time>2020-08-27T12:26:09Z</time>
      </trkpt>
      <trkpt lat="48.66229" lon="7.20787">
        <ele>459</ele>
        <time>2020-08-27T12:26:11Z</time>
      </trkpt>
      <trkpt lat="48.66223" lon="7.20782">
        <ele>458.4</ele>
        <time>2020-08-27T12:26:13Z</time>
      </trkpt>
      <trkpt lat="48.66217" lon="7.20776">
        <ele>457.8</ele>
        <time>2020-08-27T12:26:15Z</time>
      </trkpt>
      <trkpt lat="48.66212" lon="7.20769">
        <ele>456.8</ele>
        <time>2020-08-27T12:26:17Z</time>
      </trkpt>
      <trkpt lat="48.66206" lon="7.2076">
        <ele>456.2</ele>
        <time>2020-08-27T12:26:19Z</time>
      </trkpt>
      <trkpt lat="48.66201" lon="7.20751">
        <ele>456</ele>
        <time>2020-08-27T12:26:21Z</time>
      </trkpt>
      <trkpt lat="48.66197" lon="7.20743">
        <ele>455.6</ele>
        <time>2020-08-27T12:26:23Z</time>
      </trkpt>
      <trkpt lat="48.66193" lon="7.20737">
        <ele>455.6</ele>
        <time>2020-08-27T12:26:25Z</time>
      </trkpt>
      <trkpt lat="48.66188" lon="7.2073">
        <ele>455.2</ele>
        <time>2020-08-27T12:26:27Z</time>
      </trkpt>
      <trkpt lat="48.66183" lon="7.20721">
        <ele>454.8</ele>
        <time>2020-08-27T12:26:29Z</time>
      </trkpt>
      <trkpt lat="48.66177" lon="7.20708">
        <ele>454.2</ele>
        <time>2020-08-27T12:26:31Z</time>
      </trkpt>
      <trkpt lat="48.66171" lon="7.20697">
        <ele>452.8</ele>
        <time>2020-08-27T12:26:33Z</time>
      </trkpt>
      <trkpt lat="48.66166" lon="7.20687">
        <ele>451.3</ele>
        <time>2020-08-27T12:26:35Z</time>
      </trkpt>
      <trkpt lat="48.66161" lon="7.20678">
        <ele>450.2</ele>
        <time>2020-08-27T12:26:37Z</time>
      </trkpt>
      <trkpt lat="48.66157" lon="7.20674">
        <ele>449.4</ele>
        <time>2020-08-27T12:26:39Z</time>
      </trkpt>
      <trkpt lat="48.66152" lon="7.20669">
        <ele>449.7</ele>
        <time>2020-08-27T12:26:43Z</time>
      </trkpt>
      <trkpt lat="48.66148" lon="7.20665">
        <ele>449.1</ele>
        <time>2020-08-27T12:26:50Z</time>
      </trkpt>
      <trkpt lat="48.66143" lon="7.20659">
        <ele>449.1</ele>
        <time>2020-08-27T12:26:52Z</time>
      </trkpt>
      <trkpt lat="48.66138" lon="7.2065">
        <ele>449.2</ele>
        <time>2020-08-27T12:26:54Z</time>
      </trkpt>
      <trkpt lat="48.66134" lon="7.20638">
        <ele>448.3</ele>
        <time>2020-08-27T12:26:56Z</time>
      </trkpt>
      <trkpt lat="48.66129" lon="7.20626">
        <ele>447.3</ele>
        <time>2020-08-27T12:26:58Z</time>
      </trkpt>
      <trkpt lat="48.66123" lon="7.20613">
        <ele>445.9</ele>
        <time>2020-08-27T12:27:00Z</time>
      </trkpt>
      <trkpt lat="48.66115" lon="7.206">
        <ele>444.8</ele>
        <time>2020-08-27T12:27:02Z</time>
      </trkpt>
      <trkpt lat="48.66108" lon="7.20587">
        <ele>443.9</ele>
        <time>2020-08-27T12:27:04Z</time>
      </trkpt>
      <trkpt lat="48.66101" lon="7.20574">
        <ele>442.3</ele>
        <time>2020-08-27T12:27:06Z</time>
      </trkpt>
      <trkpt lat="48.66093" lon="7.20562">
        <ele>441.4</ele>
        <time>2020-08-27T12:27:08Z</time>
      </trkpt>
      <trkpt lat="48.66085" lon="7.20549">
        <ele>439.4</ele>
        <time>2020-08-27T12:27:10Z</time>
      </trkpt>
      <trkpt lat="48.66078" lon="7.20538">
        <ele>437</ele>
        <time>2020-08-27T12:27:12Z</time>
      </trkpt>
      <trkpt lat="48.66071" lon="7.20529">
        <ele>435</ele>
        <time>2020-08-27T12:27:14Z</time>
      </trkpt>
      <trkpt lat="48.66065" lon="7.20521">
        <ele>433.3</ele>
        <time>2020-08-27T12:27:16Z</time>
      </trkpt>
      <trkpt lat="48.66061" lon="7.20512">
        <ele>430.4</ele>
        <time>2020-08-27T12:27:18Z</time>
      </trkpt>
      <trkpt lat="48.66056" lon="7.20505">
        <ele>428.5</ele>
        <time>2020-08-27T12:27:20Z</time>
      </trkpt>
      <trkpt lat="48.66053" lon="7.20495">
        <ele>427.1</ele>
        <time>2020-08-27T12:27:22Z</time>
      </trkpt>
      <trkpt lat="48.66048" lon="7.20486">
        <ele>425.6</ele>
        <time>2020-08-27T12:27:24Z</time>
      </trkpt>
      <trkpt lat="48.66043" lon="7.20479">
        <ele>423.4</ele>
        <time>2020-08-27T12:27:26Z</time>
      </trkpt>
      <trkpt lat="48.66037" lon="7.20473">
        <ele>422</ele>
        <time>2020-08-27T12:27:28Z</time>
      </trkpt>
      <trkpt lat="48.66031" lon="7.20467">
        <ele>420.8</ele>
        <time>2020-08-27T12:27:30Z</time>
      </trkpt>
      <trkpt lat="48.66025" lon="7.20462">
        <ele>419.1</ele>
        <time>2020-08-27T12:27:32Z</time>
      </trkpt>
      <trkpt lat="48.6602" lon="7.20457">
        <ele>415.9</ele>
        <time>2020-08-27T12:27:34Z</time>
      </trkpt>
      <trkpt lat="48.66016" lon="7.20451">
        <ele>414.2</ele>
        <time>2020-08-27T12:27:36Z</time>
      </trkpt>
      <trkpt lat="48.66011" lon="7.20443">
        <ele>412.2</ele>
        <time>2020-08-27T12:27:38Z</time>
      </trkpt>
      <trkpt lat="48.66006" lon="7.20436">
        <ele>410.3</ele>
        <time>2020-08-27T12:27:40Z</time>
      </trkpt>
      <trkpt lat="48.66" lon="7.20429">
        <ele>407.3</ele>
        <time>2020-08-27T12:27:42Z</time>
      </trkpt>
      <trkpt lat="48.65993" lon="7.20422">
        <ele>405.4</ele>
        <time>2020-08-27T12:27:44Z</time>
      </trkpt>
      <trkpt lat="48.65985" lon="7.20414">
        <ele>404.3</ele>
        <time>2020-08-27T12:27:46Z</time>
      </trkpt>
      <trkpt lat="48.65977" lon="7.20407">
        <ele>402.5</ele>
        <time>2020-08-27T12:27:48Z</time>
      </trkpt>
      <trkpt lat="48.65968" lon="7.204">
        <ele>401.1</ele>
        <time>2020-08-27T12:27:50Z</time>
      </trkpt>
      <trkpt lat="48.65961" lon="7.20393">
        <ele>389.9</ele>
        <time>2020-08-27T12:27:52Z</time>
      </trkpt>
      <trkpt lat="48.65953" lon="7.20382">
        <ele>388.3</ele>
        <time>2020-08-27T12:27:54Z</time>
      </trkpt>
      <trkpt lat="48.65944" lon="7.2037">
        <ele>382.5</ele>
        <time>2020-08-27T12:27:56Z</time>
      </trkpt>
      <trkpt lat="48.65937" lon="7.20361">
        <ele>382.4</ele>
        <time>2020-08-27T12:27:58Z</time>
      </trkpt>
      <trkpt lat="48.65931" lon="7.20356">
        <ele>382.8</ele>
        <time>2020-08-27T12:28:00Z</time>
      </trkpt>
      <trkpt lat="48.65925" lon="7.20352">
        <ele>383.4</ele>
        <time>2020-08-27T12:28:02Z</time>
      </trkpt>
      <trkpt lat="48.65919" lon="7.20349">
        <ele>384.5</ele>
        <time>2020-08-27T12:28:04Z</time>
      </trkpt>
      <trkpt lat="48.65913" lon="7.20346">
        <ele>385.3</ele>
        <time>2020-08-27T12:28:06Z</time>
      </trkpt>
      <trkpt lat="48.65907" lon="7.20347">
        <ele>386.9</ele>
        <time>2020-08-27T12:28:08Z</time>
      </trkpt>
      <trkpt lat="48.659" lon="7.20349">
        <ele>387.4</ele>
        <time>2020-08-27T12:28:10Z</time>
      </trkpt>
      <trkpt lat="48.65894" lon="7.20352">
        <ele>388.3</ele>
        <time>2020-08-27T12:28:12Z</time>
      </trkpt>
      <trkpt lat="48.65889" lon="7.20356">
        <ele>388.6</ele>
        <time>2020-08-27T12:28:14Z</time>
      </trkpt>
      <trkpt lat="48.65882" lon="7.20363">
        <ele>384.5</ele>
        <time>2020-08-27T12:28:18Z</time>
      </trkpt>
      <trkpt lat="48.65875" lon="7.20373">
        <ele>385.1</ele>
        <time>2020-08-27T12:28:20Z</time>
      </trkpt>
      <trkpt lat="48.65871" lon="7.20381">
        <ele>386.1</ele>
        <time>2020-08-27T12:28:22Z</time>
      </trkpt>
      <trkpt lat="48.65867" lon="7.20389">
        <ele>387.2</ele>
        <time>2020-08-27T12:28:24Z</time>
      </trkpt>
      <trkpt lat="48.65863" lon="7.20397">
        <ele>388.4</ele>
        <time>2020-08-27T12:28:26Z</time>
      </trkpt>
      <trkpt lat="48.65859" lon="7.20405">
        <ele>389.9</ele>
        <time>2020-08-27T12:28:28Z</time>
      </trkpt>
      <trkpt lat="48.65855" lon="7.20412">
        <ele>390.8</ele>
        <time>2020-08-27T12:28:30Z</time>
      </trkpt>
      <trkpt lat="48.65852" lon="7.20421">
        <ele>391.2</ele>
        <time>2020-08-27T12:28:32Z</time>
      </trkpt>
      <trkpt lat="48.65849" lon="7.20429">
        <ele>391.6</ele>
        <time>2020-08-27T12:28:34Z</time>
      </trkpt>
      <trkpt lat="48.65846" lon="7.20438">
        <ele>391.7</ele>
        <time>2020-08-27T12:28:36Z</time>
      </trkpt>
      <trkpt lat="48.65843" lon="7.20448">
        <ele>390.9</ele>
        <time>2020-08-27T12:28:38Z</time>
      </trkpt>
      <trkpt lat="48.6584" lon="7.20457">
        <ele>390.4</ele>
        <time>2020-08-27T12:28:40Z</time>
      </trkpt>
      <trkpt lat="48.65838" lon="7.20464">
        <ele>390.9</ele>
        <time>2020-08-27T12:28:42Z</time>
      </trkpt>
      <trkpt lat="48.65835" lon="7.20469">
        <ele>394.1</ele>
        <time>2020-08-27T12:28:54Z</time>
      </trkpt>
      <trkpt lat="48.65834" lon="7.20477">
        <ele>394.8</ele>
        <time>2020-08-27T12:28:59Z</time>
      </trkpt>
      <trkpt lat="48.6583" lon="7.20485">
        <ele>394.8</ele>
        <time>2020-08-27T12:29:01Z</time>
      </trkpt>
      <trkpt lat="48.65825" lon="7.20498">
        <ele>395.7</ele>
        <time>2020-08-27T12:29:04Z</time>
      </trkpt>
      <trkpt lat="48.6582" lon="7.20507">
        <ele>396.5</ele>
        <time>2020-08-27T12:29:07Z</time>
      </trkpt>
      <trkpt lat="48.65816" lon="7.20524">
        <ele>397.5</ele>
        <time>2020-08-27T12:29:09Z</time>
      </trkpt>
      <trkpt lat="48.65814" lon="7.20535">
        <ele>398</ele>
        <time>2020-08-27T12:29:11Z</time>
      </trkpt>
      <trkpt lat="48.65815" lon="7.20547">
        <ele>398.1</ele>
        <time>2020-08-27T12:29:13Z</time>
      </trkpt>
      <trkpt lat="48.65816" lon="7.20558">
        <ele>398.7</ele>
        <time>2020-08-27T12:29:15Z</time>
      </trkpt>
      <trkpt lat="48.65816" lon="7.20568">
        <ele>398.9</ele>
        <time>2020-08-27T12:29:17Z</time>
      </trkpt>
      <trkpt lat="48.65815" lon="7.20579">
        <ele>399.6</ele>
        <time>2020-08-27T12:29:19Z</time>
      </trkpt>
      <trkpt lat="48.65815" lon="7.20588">
        <ele>401.1</ele>
        <time>2020-08-27T12:29:21Z</time>
      </trkpt>
      <trkpt lat="48.65814" lon="7.20601">
        <ele>401.9</ele>
        <time>2020-08-27T12:29:23Z</time>
      </trkpt>
      <trkpt lat="48.65813" lon="7.20613">
        <ele>402.5</ele>
        <time>2020-08-27T12:29:25Z</time>
      </trkpt>
      <trkpt lat="48.65812" lon="7.20626">
        <ele>402.9</ele>
        <time>2020-08-27T12:29:27Z</time>
      </trkpt>
      <trkpt lat="48.6581" lon="7.20639">
        <ele>402.5</ele>
        <time>2020-08-27T12:29:29Z</time>
      </trkpt>
      <trkpt lat="48.65809" lon="7.20653">
        <ele>402.1</ele>
        <time>2020-08-27T12:29:31Z</time>
      </trkpt>
      <trkpt lat="48.65808" lon="7.20667">
        <ele>401.7</ele>
        <time>2020-08-27T12:29:33Z</time>
      </trkpt>
      <trkpt lat="48.65808" lon="7.20681">
        <ele>401.2</ele>
        <time>2020-08-27T12:29:35Z</time>
      </trkpt>
      <trkpt lat="48.65806" lon="7.20696">
        <ele>400.2</ele>
        <time>2020-08-27T12:29:37Z</time>
      </trkpt>
      <trkpt lat="48.65805" lon="7.20711">
        <ele>399.8</ele>
        <time>2020-08-27T12:29:39Z</time>
      </trkpt>
      <trkpt lat="48.65804" lon="7.20727">
        <ele>398.7</ele>
        <time>2020-08-27T12:29:41Z</time>
      </trkpt>
      <trkpt lat="48.65803" lon="7.20742">
        <ele>398.5</ele>
        <time>2020-08-27T12:29:43Z</time>
      </trkpt>
      <trkpt lat="48.658" lon="7.20757">
        <ele>397.9</ele>
        <time>2020-08-27T12:29:45Z</time>
      </trkpt>
      <trkpt lat="48.65797" lon="7.20772">
        <ele>397.6</ele>
        <time>2020-08-27T12:29:47Z</time>
      </trkpt>
      <trkpt lat="48.65796" lon="7.20785">
        <ele>397.3</ele>
        <time>2020-08-27T12:29:49Z</time>
      </trkpt>
      <trkpt lat="48.65794" lon="7.20799">
        <ele>397</ele>
        <time>2020-08-27T12:29:51Z</time>
      </trkpt>
      <trkpt lat="48.65792" lon="7.20814">
        <ele>396.6</ele>
        <time>2020-08-27T12:29:53Z</time>
      </trkpt>
      <trkpt lat="48.65792" lon="7.20828">
        <ele>395.8</ele>
        <time>2020-08-27T12:29:55Z</time>
      </trkpt>
      <trkpt lat="48.65792" lon="7.20842">
        <ele>395.6</ele>
        <time>2020-08-27T12:29:57Z</time>
      </trkpt>
      <trkpt lat="48.65793" lon="7.20853">
        <ele>395.5</ele>
        <time>2020-08-27T12:30:00Z</time>
      </trkpt>
      <trkpt lat="48.65793" lon="7.2087">
        <ele>395.4</ele>
        <time>2020-08-27T12:30:03Z</time>
      </trkpt>
      <trkpt lat="48.65794" lon="7.20888">
        <ele>394.7</ele>
        <time>2020-08-27T12:30:05Z</time>
      </trkpt>
      <trkpt lat="48.65794" lon="7.20898">
        <ele>395.3</ele>
        <time>2020-08-27T12:30:08Z</time>
      </trkpt>
      <trkpt lat="48.65795" lon="7.20911">
        <ele>395.9</ele>
        <time>2020-08-27T12:30:10Z</time>
      </trkpt>
      <trkpt lat="48.65795" lon="7.20931">
        <ele>396.2</ele>
        <time>2020-08-27T12:30:12Z</time>
      </trkpt>
      <trkpt lat="48.65796" lon="7.20947">
        <ele>397.4</ele>
        <time>2020-08-27T12:30:15Z</time>
      </trkpt>
      <trkpt lat="48.65797" lon="7.20971">
        <ele>398.5</ele>
        <time>2020-08-27T12:30:18Z</time>
      </trkpt>
      <trkpt lat="48.658" lon="7.20997">
        <ele>399.2</ele>
        <time>2020-08-27T12:30:21Z</time>
      </trkpt>
      <trkpt lat="48.65801" lon="7.21014">
        <ele>399.2</ele>
        <time>2020-08-27T12:30:23Z</time>
      </trkpt>
      <trkpt lat="48.65805" lon="7.21039">
        <ele>398.9</ele>
        <time>2020-08-27T12:30:25Z</time>
      </trkpt>
    </trkseg>
  </trk>
  <trk>
    <name><![CDATA[secteur Saverne - Dabo - Petite Pierre_5]]></name>
    <trkseg>
      <trkpt lat="48.67549" lon="7.25984">
        <ele>467.5</ele>
        <time>2020-08-12T06:27:24Z</time>
      </trkpt>
      <trkpt lat="48.67549" lon="7.25984">
        <ele>467.5</ele>
        <time>2020-08-12T06:27:24Z</time>
      </trkpt>
      <trkpt lat="48.67549" lon="7.25984">
        <ele>467.5</ele>
        <time>2020-08-12T06:27:24Z</time>
      </trkpt>
      <trkpt lat="48.67549" lon="7.25984">
        <ele>467.5</ele>
        <time>2020-08-12T06:27:24Z</time>
      </trkpt>
      <trkpt lat="48.67549" lon="7.25984">
        <ele>467.5</ele>
        <time>2020-08-12T06:27:24Z</time>
      </trkpt>
      <trkpt lat="48.67549" lon="7.25984">
        <ele>467.5</ele>
        <time>2020-08-12T06:27:24Z</time>
      </trkpt>
      <trkpt lat="48.67549" lon="7.25984">
        <ele>467.5</ele>
        <time>2020-08-12T06:27:24Z</time>
      </trkpt>
      <trkpt lat="48.67549" lon="7.25984">
        <ele>467.5</ele>
        <time>2020-08-12T06:27:24Z</time>
      </trkpt>
      <trkpt lat="48.67549" lon="7.25984">
        <ele>467.5</ele>
        <time>2020-08-12T06:27:24Z</time>
      </trkpt>
      <trkpt lat="48.67544" lon="7.2598">
        <ele>469.1</ele>
        <time>2020-08-12T06:27:32Z</time>
      </trkpt>
      <trkpt lat="48.67539" lon="7.25974">
        <ele>470</ele>
        <time>2020-08-12T06:27:35Z</time>
      </trkpt>
      <trkpt lat="48.67535" lon="7.25971">
        <ele>470.5</ele>
        <time>2020-08-12T06:27:37Z</time>
      </trkpt>
      <trkpt lat="48.6753" lon="7.25968">
        <ele>471.2</ele>
        <time>2020-08-12T06:27:40Z</time>
      </trkpt>
      <trkpt lat="48.67525" lon="7.25964">
        <ele>471.1</ele>
        <time>2020-08-12T06:27:43Z</time>
      </trkpt>
      <trkpt lat="48.6752" lon="7.25961">
        <ele>471.9</ele>
        <time>2020-08-12T06:27:46Z</time>
      </trkpt>
      <trkpt lat="48.67515" lon="7.25958">
        <ele>472.7</ele>
        <time>2020-08-12T06:27:49Z</time>
      </trkpt>
      <trkpt lat="48.6751" lon="7.25956">
        <ele>473.4</ele>
        <time>2020-08-12T06:27:51Z</time>
      </trkpt>
      <trkpt lat="48.67506" lon="7.25955">
        <ele>473.7</ele>
        <time>2020-08-12T06:27:53Z</time>
      </trkpt>
      <trkpt lat="48.675" lon="7.25952">
        <ele>473.9</ele>
        <time>2020-08-12T06:27:56Z</time>
      </trkpt>
      <trkpt lat="48.67494" lon="7.25948">
        <ele>475.3</ele>
        <time>2020-08-12T06:28:00Z</time>
      </trkpt>
      <trkpt lat="48.6749" lon="7.25945">
        <ele>477.6</ele>
        <time>2020-08-12T06:28:03Z</time>
      </trkpt>
      <trkpt lat="48.67486" lon="7.2594">
        <ele>479.7</ele>
        <time>2020-08-12T06:28:06Z</time>
      </trkpt>
      <trkpt lat="48.6748" lon="7.25934">
        <ele>480.5</ele>
        <time>2020-08-12T06:28:09Z</time>
      </trkpt>
      <trkpt lat="48.67475" lon="7.2593">
        <ele>480.2</ele>
        <time>2020-08-12T06:28:12Z</time>
      </trkpt>
      <trkpt lat="48.6747" lon="7.25926">
        <ele>479.9</ele>
        <time>2020-08-12T06:28:14Z</time>
      </trkpt>
      <trkpt lat="48.67466" lon="7.25923">
        <ele>479.8</ele>
        <time>2020-08-12T06:28:16Z</time>
      </trkpt>
      <trkpt lat="48.67461" lon="7.25922">
        <ele>480</ele>
        <time>2020-08-12T06:28:19Z</time>
      </trkpt>
      <trkpt lat="48.67455" lon="7.2592">
        <ele>480</ele>
        <time>2020-08-12T06:28:23Z</time>
      </trkpt>
      <trkpt lat="48.6745" lon="7.25919">
        <ele>480.3</ele>
        <time>2020-08-12T06:28:26Z</time>
      </trkpt>
      <trkpt lat="48.67444" lon="7.25917">
        <ele>481</ele>
        <time>2020-08-12T06:28:29Z</time>
      </trkpt>
      <trkpt lat="48.67439" lon="7.25915">
        <ele>481.3</ele>
        <time>2020-08-12T06:28:32Z</time>
      </trkpt>
      <trkpt lat="48.67433" lon="7.25912">
        <ele>481.1</ele>
        <time>2020-08-12T06:28:35Z</time>
      </trkpt>
      <trkpt lat="48.67426" lon="7.25908">
        <ele>481.5</ele>
        <time>2020-08-12T06:28:38Z</time>
      </trkpt>
      <trkpt lat="48.67422" lon="7.25905">
        <ele>482.5</ele>
        <time>2020-08-12T06:28:40Z</time>
      </trkpt>
      <trkpt lat="48.67418" lon="7.25902">
        <ele>483.4</ele>
        <time>2020-08-12T06:28:42Z</time>
      </trkpt>
      <trkpt lat="48.67414" lon="7.259">
        <ele>483.6</ele>
        <time>2020-08-12T06:28:44Z</time>
      </trkpt>
      <trkpt lat="48.67409" lon="7.25897">
        <ele>484</ele>
        <time>2020-08-12T06:28:46Z</time>
      </trkpt>
      <trkpt lat="48.67403" lon="7.25897">
        <ele>484.7</ele>
        <time>2020-08-12T06:28:48Z</time>
      </trkpt>
      <trkpt lat="48.67397" lon="7.25896">
        <ele>485.9</ele>
        <time>2020-08-12T06:28:51Z</time>
      </trkpt>
      <trkpt lat="48.67392" lon="7.25895">
        <ele>486.7</ele>
        <time>2020-08-12T06:28:53Z</time>
      </trkpt>
      <trkpt lat="48.67386" lon="7.25893">
        <ele>488.5</ele>
        <time>2020-08-12T06:28:56Z</time>
      </trkpt>
      <trkpt lat="48.67383" lon="7.25889">
        <ele>489</ele>
        <time>2020-08-12T06:28:59Z</time>
      </trkpt>
      <trkpt lat="48.67377" lon="7.25886">
        <ele>489.4</ele>
        <time>2020-08-12T06:29:02Z</time>
      </trkpt>
      <trkpt lat="48.67371" lon="7.25886">
        <ele>490.3</ele>
        <time>2020-08-12T06:29:05Z</time>
      </trkpt>
      <trkpt lat="48.67365" lon="7.25886">
        <ele>491.8</ele>
        <time>2020-08-12T06:29:08Z</time>
      </trkpt>
      <trkpt lat="48.67359" lon="7.25884">
        <ele>492.1</ele>
        <time>2020-08-12T06:29:11Z</time>
      </trkpt>
      <trkpt lat="48.67354" lon="7.25884">
        <ele>493.1</ele>
        <time>2020-08-12T06:29:13Z</time>
      </trkpt>
      <trkpt lat="48.67348" lon="7.25884">
        <ele>494.2</ele>
        <time>2020-08-12T06:29:16Z</time>
      </trkpt>
      <trkpt lat="48.67343" lon="7.25883">
        <ele>495.1</ele>
        <time>2020-08-12T06:29:18Z</time>
      </trkpt>
      <trkpt lat="48.67338" lon="7.25884">
        <ele>495.6</ele>
        <time>2020-08-12T06:29:20Z</time>
      </trkpt>
      <trkpt lat="48.67333" lon="7.25885">
        <ele>496.8</ele>
        <time>2020-08-12T06:29:22Z</time>
      </trkpt>
      <trkpt lat="48.67326" lon="7.25884">
        <ele>497.4</ele>
        <time>2020-08-12T06:29:25Z</time>
      </trkpt>
      <trkpt lat="48.67322" lon="7.25882">
        <ele>497.7</ele>
        <time>2020-08-12T06:29:27Z</time>
      </trkpt>
      <trkpt lat="48.67317" lon="7.25879">
        <ele>497.9</ele>
        <time>2020-08-12T06:29:30Z</time>
      </trkpt>
      <trkpt lat="48.67312" lon="7.25877">
        <ele>497.6</ele>
        <time>2020-08-12T06:29:33Z</time>
      </trkpt>
      <trkpt lat="48.67306" lon="7.25873">
        <ele>496.8</ele>
        <time>2020-08-12T06:29:36Z</time>
      </trkpt>
      <trkpt lat="48.67301" lon="7.25868">
        <ele>496.7</ele>
        <time>2020-08-12T06:29:38Z</time>
      </trkpt>
      <trkpt lat="48.67296" lon="7.25863">
        <ele>496.1</ele>
        <time>2020-08-12T06:29:40Z</time>
      </trkpt>
      <trkpt lat="48.67292" lon="7.25858">
        <ele>496.7</ele>
        <time>2020-08-12T06:29:42Z</time>
      </trkpt>
      <trkpt lat="48.67288" lon="7.25852">
        <ele>495.3</ele>
        <time>2020-08-12T06:29:44Z</time>
      </trkpt>
      <trkpt lat="48.67285" lon="7.25847">
        <ele>494.7</ele>
        <time>2020-08-12T06:29:46Z</time>
      </trkpt>
      <trkpt lat="48.67281" lon="7.2584">
        <ele>493.5</ele>
        <time>2020-08-12T06:29:49Z</time>
      </trkpt>
      <trkpt lat="48.67278" lon="7.25833">
        <ele>492.8</ele>
        <time>2020-08-12T06:29:51Z</time>
      </trkpt>
      <trkpt lat="48.67275" lon="7.25827">
        <ele>492.2</ele>
        <time>2020-08-12T06:29:53Z</time>
      </trkpt>
      <trkpt lat="48.67271" lon="7.25821">
        <ele>492</ele>
        <time>2020-08-12T06:29:55Z</time>
      </trkpt>
      <trkpt lat="48.67267" lon="7.25813">
        <ele>491.9</ele>
        <time>2020-08-12T06:29:58Z</time>
      </trkpt>
      <trkpt lat="48.67264" lon="7.25804">
        <ele>492.6</ele>
        <time>2020-08-12T06:30:01Z</time>
      </trkpt>
      <trkpt lat="48.67262" lon="7.25797">
        <ele>492.8</ele>
        <time>2020-08-12T06:30:03Z</time>
      </trkpt>
      <trkpt lat="48.67259" lon="7.25788">
        <ele>493.6</ele>
        <time>2020-08-12T06:30:05Z</time>
      </trkpt>
      <trkpt lat="48.67256" lon="7.25778">
        <ele>493.9</ele>
        <time>2020-08-12T06:30:07Z</time>
      </trkpt>
      <trkpt lat="48.67252" lon="7.25768">
        <ele>494.7</ele>
        <time>2020-08-12T06:30:09Z</time>
      </trkpt>
      <trkpt lat="48.6725" lon="7.25759">
        <ele>495.9</ele>
        <time>2020-08-12T06:30:11Z</time>
      </trkpt>
      <trkpt lat="48.67248" lon="7.25752">
        <ele>496.9</ele>
        <time>2020-08-12T06:30:13Z</time>
      </trkpt>
      <trkpt lat="48.67248" lon="7.25741">
        <ele>498</ele>
        <time>2020-08-12T06:30:16Z</time>
      </trkpt>
      <trkpt lat="48.67247" lon="7.25732">
        <ele>498.5</ele>
        <time>2020-08-12T06:30:18Z</time>
      </trkpt>
      <trkpt lat="48.67245" lon="7.25723">
        <ele>499.1</ele>
        <time>2020-08-12T06:30:20Z</time>
      </trkpt>
      <trkpt lat="48.67244" lon="7.25714">
        <ele>500.1</ele>
        <time>2020-08-12T06:30:22Z</time>
      </trkpt>
      <trkpt lat="48.67243" lon="7.25704">
        <ele>500.5</ele>
        <time>2020-08-12T06:30:24Z</time>
      </trkpt>
      <trkpt lat="48.67241" lon="7.25693">
        <ele>501.7</ele>
        <time>2020-08-12T06:30:26Z</time>
      </trkpt>
      <trkpt lat="48.67239" lon="7.25683">
        <ele>502.5</ele>
        <time>2020-08-12T06:30:28Z</time>
      </trkpt>
      <trkpt lat="48.67238" lon="7.25675">
        <ele>503.1</ele>
        <time>2020-08-12T06:30:30Z</time>
      </trkpt>
      <trkpt lat="48.67235" lon="7.25668">
        <ele>504.6</ele>
        <time>2020-08-12T06:30:32Z</time>
      </trkpt>
      <trkpt lat="48.67234" lon="7.25661">
        <ele>506</ele>
        <time>2020-08-12T06:30:34Z</time>
      </trkpt>
      <trkpt lat="48.67233" lon="7.25652">
        <ele>506.4</ele>
        <time>2020-08-12T06:30:36Z</time>
      </trkpt>
      <trkpt lat="48.67232" lon="7.25643">
        <ele>507.2</ele>
        <time>2020-08-12T06:30:38Z</time>
      </trkpt>
      <trkpt lat="48.67231" lon="7.25635">
        <ele>507.9</ele>
        <time>2020-08-12T06:30:40Z</time>
      </trkpt>
      <trkpt lat="48.6723" lon="7.25627">
        <ele>508.5</ele>
        <time>2020-08-12T06:30:42Z</time>
      </trkpt>
      <trkpt lat="48.67229" lon="7.25619">
        <ele>510.1</ele>
        <time>2020-08-12T06:30:44Z</time>
      </trkpt>
      <trkpt lat="48.67228" lon="7.2561">
        <ele>510.9</ele>
        <time>2020-08-12T06:30:46Z</time>
      </trkpt>
      <trkpt lat="48.67228" lon="7.25601">
        <ele>512</ele>
        <time>2020-08-12T06:30:49Z</time>
      </trkpt>
      <trkpt lat="48.67227" lon="7.25594">
        <ele>516</ele>
        <time>2020-08-12T06:31:07Z</time>
      </trkpt>
      <trkpt lat="48.67229" lon="7.25586">
        <ele>515.8</ele>
        <time>2020-08-12T06:31:10Z</time>
      </trkpt>
      <trkpt lat="48.67232" lon="7.25578">
        <ele>514.8</ele>
        <time>2020-08-12T06:31:13Z</time>
      </trkpt>
      <trkpt lat="48.67235" lon="7.25569">
        <ele>513.9</ele>
        <time>2020-08-12T06:31:15Z</time>
      </trkpt>
      <trkpt lat="48.67236" lon="7.25558">
        <ele>512.5</ele>
        <time>2020-08-12T06:31:17Z</time>
      </trkpt>
      <trkpt lat="48.67238" lon="7.25547">
        <ele>511</ele>
        <time>2020-08-12T06:31:19Z</time>
      </trkpt>
      <trkpt lat="48.67241" lon="7.25535">
        <ele>510.2</ele>
        <time>2020-08-12T06:31:21Z</time>
      </trkpt>
      <trkpt lat="48.67245" lon="7.25525">
        <ele>509.9</ele>
        <time>2020-08-12T06:31:23Z</time>
      </trkpt>
      <trkpt lat="48.67251" lon="7.25516">
        <ele>509.6</ele>
        <time>2020-08-12T06:31:25Z</time>
      </trkpt>
      <trkpt lat="48.67255" lon="7.25508">
        <ele>509.3</ele>
        <time>2020-08-12T06:31:27Z</time>
      </trkpt>
      <trkpt lat="48.67259" lon="7.25501">
        <ele>508.8</ele>
        <time>2020-08-12T06:31:29Z</time>
      </trkpt>
      <trkpt lat="48.67264" lon="7.25496">
        <ele>508.4</ele>
        <time>2020-08-12T06:31:31Z</time>
      </trkpt>
      <trkpt lat="48.67267" lon="7.25491">
        <ele>508.4</ele>
        <time>2020-08-12T06:31:33Z</time>
      </trkpt>
      <trkpt lat="48.6727" lon="7.25485">
        <ele>508.7</ele>
        <time>2020-08-12T06:31:39Z</time>
      </trkpt>
      <trkpt lat="48.67274" lon="7.25478">
        <ele>508</ele>
        <time>2020-08-12T06:31:48Z</time>
      </trkpt>
      <trkpt lat="48.67278" lon="7.25474">
        <ele>507.8</ele>
        <time>2020-08-12T06:31:50Z</time>
      </trkpt>
      <trkpt lat="48.67282" lon="7.25469">
        <ele>507.2</ele>
        <time>2020-08-12T06:31:52Z</time>
      </trkpt>
      <trkpt lat="48.67284" lon="7.25462">
        <ele>506.1</ele>
        <time>2020-08-12T06:31:54Z</time>
      </trkpt>
      <trkpt lat="48.67287" lon="7.25455">
        <ele>505.9</ele>
        <time>2020-08-12T06:31:56Z</time>
      </trkpt>
      <trkpt lat="48.67291" lon="7.25448">
        <ele>505.6</ele>
        <time>2020-08-12T06:31:58Z</time>
      </trkpt>
      <trkpt lat="48.67295" lon="7.2544">
        <ele>505.3</ele>
        <time>2020-08-12T06:32:00Z</time>
      </trkpt>
      <trkpt lat="48.67298" lon="7.25433">
        <ele>505.1</ele>
        <time>2020-08-12T06:32:02Z</time>
      </trkpt>
      <trkpt lat="48.673" lon="7.25426">
        <ele>503</ele>
        <time>2020-08-12T06:32:04Z</time>
      </trkpt>
      <trkpt lat="48.67301" lon="7.25416">
        <ele>502.7</ele>
        <time>2020-08-12T06:32:07Z</time>
      </trkpt>
      <trkpt lat="48.67301" lon="7.25407">
        <ele>502.5</ele>
        <time>2020-08-12T06:32:10Z</time>
      </trkpt>
      <trkpt lat="48.67298" lon="7.254">
        <ele>502.2</ele>
        <time>2020-08-12T06:32:15Z</time>
      </trkpt>
      <trkpt lat="48.67299" lon="7.25392">
        <ele>502.9</ele>
        <time>2020-08-12T06:32:22Z</time>
      </trkpt>
      <trkpt lat="48.673" lon="7.25384">
        <ele>502.7</ele>
        <time>2020-08-12T06:32:24Z</time>
      </trkpt>
      <trkpt lat="48.673" lon="7.25374">
        <ele>502.6</ele>
        <time>2020-08-12T06:32:26Z</time>
      </trkpt>
      <trkpt lat="48.67302" lon="7.25365">
        <ele>501.9</ele>
        <time>2020-08-12T06:32:28Z</time>
      </trkpt>
      <trkpt lat="48.67305" lon="7.25355">
        <ele>501</ele>
        <time>2020-08-12T06:32:30Z</time>
      </trkpt>
      <trkpt lat="48.67306" lon="7.25346">
        <ele>500.8</ele>
        <time>2020-08-12T06:32:32Z</time>
      </trkpt>
      <trkpt lat="48.67306" lon="7.25339">
        <ele>499</ele>
        <time>2020-08-12T06:32:37Z</time>
      </trkpt>
      <trkpt lat="48.67307" lon="7.25329">
        <ele>498.9</ele>
        <time>2020-08-12T06:32:54Z</time>
      </trkpt>
      <trkpt lat="48.67307" lon="7.25321">
        <ele>499.3</ele>
        <time>2020-08-12T06:32:56Z</time>
      </trkpt>
      <trkpt lat="48.67308" lon="7.25312">
        <ele>498.3</ele>
        <time>2020-08-12T06:32:59Z</time>
      </trkpt>
      <trkpt lat="48.67307" lon="7.25304">
        <ele>498.3</ele>
        <time>2020-08-12T06:33:02Z</time>
      </trkpt>
      <trkpt lat="48.67306" lon="7.25294">
        <ele>497.9</ele>
        <time>2020-08-12T06:33:05Z</time>
      </trkpt>
      <trkpt lat="48.67306" lon="7.25285">
        <ele>497.8</ele>
        <time>2020-08-12T06:33:08Z</time>
      </trkpt>
      <trkpt lat="48.67305" lon="7.25278">
        <ele>496.4</ele>
        <time>2020-08-12T06:33:10Z</time>
      </trkpt>
      <trkpt lat="48.67303" lon="7.25271">
        <ele>495.7</ele>
        <time>2020-08-12T06:33:12Z</time>
      </trkpt>
      <trkpt lat="48.67301" lon="7.25264">
        <ele>494.4</ele>
        <time>2020-08-12T06:33:14Z</time>
      </trkpt>
    </trkseg>
  </trk>
  <trk>
    <name><![CDATA[secteur Saverne - Dabo - Petite Pierre_6]]></name>
    <trkseg>
      <trkpt lat="48.66086" lon="7.17766">
        <ele>456.8</ele>
        <time>2020-08-12T07:19:12Z</time>
      </trkpt>
      <trkpt lat="48.66086" lon="7.17766">
        <ele>456.8</ele>
        <time>2020-08-12T07:19:12Z</time>
      </trkpt>
      <trkpt lat="48.66086" lon="7.17766">
        <ele>456.8</ele>
        <time>2020-08-12T07:19:12Z</time>
      </trkpt>
      <trkpt lat="48.66086" lon="7.17766">
        <ele>456.8</ele>
        <time>2020-08-12T07:19:12Z</time>
      </trkpt>
      <trkpt lat="48.66086" lon="7.17766">
        <ele>456.8</ele>
        <time>2020-08-12T07:19:12Z</time>
      </trkpt>
      <trkpt lat="48.66086" lon="7.17766">
        <ele>456.8</ele>
        <time>2020-08-12T07:19:12Z</time>
      </trkpt>
      <trkpt lat="48.66086" lon="7.17766">
        <ele>456.8</ele>
        <time>2020-08-12T07:19:12Z</time>
      </trkpt>
      <trkpt lat="48.66086" lon="7.17766">
        <ele>456.8</ele>
        <time>2020-08-12T07:19:12Z</time>
      </trkpt>
      <trkpt lat="48.66077" lon="7.17769">
        <ele>456.8</ele>
        <time>2020-08-12T07:19:14Z</time>
      </trkpt>
      <trkpt lat="48.66069" lon="7.17768">
        <ele>456.7</ele>
        <time>2020-08-12T07:19:16Z</time>
      </trkpt>
      <trkpt lat="48.6606" lon="7.17765">
        <ele>457</ele>
        <time>2020-08-12T07:19:18Z</time>
      </trkpt>
      <trkpt lat="48.66051" lon="7.17762">
        <ele>457</ele>
        <time>2020-08-12T07:19:20Z</time>
      </trkpt>
      <trkpt lat="48.66042" lon="7.17759">
        <ele>456.7</ele>
        <time>2020-08-12T07:19:22Z</time>
      </trkpt>
      <trkpt lat="48.66032" lon="7.17756">
        <ele>456.6</ele>
        <time>2020-08-12T07:19:24Z</time>
      </trkpt>
      <trkpt lat="48.66023" lon="7.17756">
        <ele>456.7</ele>
        <time>2020-08-12T07:19:26Z</time>
      </trkpt>
      <trkpt lat="48.66014" lon="7.17759">
        <ele>457.2</ele>
        <time>2020-08-12T07:19:28Z</time>
      </trkpt>
      <trkpt lat="48.66007" lon="7.17761">
        <ele>457.6</ele>
        <time>2020-08-12T07:19:30Z</time>
      </trkpt>
      <trkpt lat="48.66003" lon="7.17764">
        <ele>457.6</ele>
        <time>2020-08-12T07:19:32Z</time>
      </trkpt>
      <trkpt lat="48.65999" lon="7.17769">
        <ele>457.2</ele>
        <time>2020-08-12T07:19:35Z</time>
      </trkpt>
      <trkpt lat="48.65995" lon="7.17773">
        <ele>456.9</ele>
        <time>2020-08-12T07:19:47Z</time>
      </trkpt>
      <trkpt lat="48.6599" lon="7.17775">
        <ele>457.6</ele>
        <time>2020-08-12T07:19:54Z</time>
      </trkpt>
      <trkpt lat="48.65985" lon="7.17778">
        <ele>457.1</ele>
        <time>2020-08-12T07:19:57Z</time>
      </trkpt>
      <trkpt lat="48.65981" lon="7.1778">
        <ele>456.8</ele>
        <time>2020-08-12T07:19:59Z</time>
      </trkpt>
      <trkpt lat="48.65975" lon="7.17783">
        <ele>457.4</ele>
        <time>2020-08-12T07:20:02Z</time>
      </trkpt>
      <trkpt lat="48.65969" lon="7.17788">
        <ele>458</ele>
        <time>2020-08-12T07:20:05Z</time>
      </trkpt>
      <trkpt lat="48.65965" lon="7.17792">
        <ele>458.3</ele>
        <time>2020-08-12T07:20:07Z</time>
      </trkpt>
      <trkpt lat="48.6596" lon="7.17798">
        <ele>458.7</ele>
        <time>2020-08-12T07:20:10Z</time>
      </trkpt>
      <trkpt lat="48.65955" lon="7.17803">
        <ele>459.3</ele>
        <time>2020-08-12T07:20:12Z</time>
      </trkpt>
      <trkpt lat="48.65949" lon="7.17807">
        <ele>459.5</ele>
        <time>2020-08-12T07:20:14Z</time>
      </trkpt>
      <trkpt lat="48.65945" lon="7.17809">
        <ele>459.6</ele>
        <time>2020-08-12T07:20:16Z</time>
      </trkpt>
      <trkpt lat="48.6594" lon="7.17812">
        <ele>459.3</ele>
        <time>2020-08-12T07:20:18Z</time>
      </trkpt>
      <trkpt lat="48.65934" lon="7.17815">
        <ele>460.1</ele>
        <time>2020-08-12T07:20:21Z</time>
      </trkpt>
      <trkpt lat="48.65929" lon="7.17818">
        <ele>460.8</ele>
        <time>2020-08-12T07:20:23Z</time>
      </trkpt>
      <trkpt lat="48.65923" lon="7.17821">
        <ele>461.9</ele>
        <time>2020-08-12T07:20:26Z</time>
      </trkpt>
      <trkpt lat="48.65919" lon="7.17823">
        <ele>462.3</ele>
        <time>2020-08-12T07:20:28Z</time>
      </trkpt>
      <trkpt lat="48.65913" lon="7.17823">
        <ele>463</ele>
        <time>2020-08-12T07:20:30Z</time>
      </trkpt>
      <trkpt lat="48.65907" lon="7.17823">
        <ele>463.6</ele>
        <time>2020-08-12T07:20:32Z</time>
      </trkpt>
      <trkpt lat="48.65901" lon="7.17822">
        <ele>464.2</ele>
        <time>2020-08-12T07:20:34Z</time>
      </trkpt>
      <trkpt lat="48.65895" lon="7.1782">
        <ele>464.2</ele>
        <time>2020-08-12T07:20:36Z</time>
      </trkpt>
      <trkpt lat="48.65888" lon="7.17816">
        <ele>464.6</ele>
        <time>2020-08-12T07:20:38Z</time>
      </trkpt>
      <trkpt lat="48.6588" lon="7.17812">
        <ele>465.2</ele>
        <time>2020-08-12T07:20:40Z</time>
      </trkpt>
      <trkpt lat="48.65873" lon="7.1781">
        <ele>465.6</ele>
        <time>2020-08-12T07:20:42Z</time>
      </trkpt>
      <trkpt lat="48.65865" lon="7.17806">
        <ele>466.1</ele>
        <time>2020-08-12T07:20:44Z</time>
      </trkpt>
      <trkpt lat="48.6586" lon="7.17803">
        <ele>464.1</ele>
        <time>2020-08-12T07:20:46Z</time>
      </trkpt>
      <trkpt lat="48.65857" lon="7.17798">
        <ele>465.9</ele>
        <time>2020-08-12T07:20:57Z</time>
      </trkpt>
      <trkpt lat="48.65852" lon="7.17793">
        <ele>463</ele>
        <time>2020-08-12T07:21:10Z</time>
      </trkpt>
      <trkpt lat="48.65848" lon="7.17791">
        <ele>462.3</ele>
        <time>2020-08-12T07:21:13Z</time>
      </trkpt>
      <trkpt lat="48.65841" lon="7.17789">
        <ele>461.6</ele>
        <time>2020-08-12T07:21:16Z</time>
      </trkpt>
      <trkpt lat="48.65837" lon="7.17785">
        <ele>461.3</ele>
        <time>2020-08-12T07:21:18Z</time>
      </trkpt>
      <trkpt lat="48.65834" lon="7.1778">
        <ele>461.2</ele>
        <time>2020-08-12T07:21:20Z</time>
      </trkpt>
      <trkpt lat="48.65831" lon="7.17775">
        <ele>461.1</ele>
        <time>2020-08-12T07:21:22Z</time>
      </trkpt>
      <trkpt lat="48.65825" lon="7.17772">
        <ele>460.7</ele>
        <time>2020-08-12T07:21:25Z</time>
      </trkpt>
      <trkpt lat="48.65819" lon="7.17769">
        <ele>460.5</ele>
        <time>2020-08-12T07:21:27Z</time>
      </trkpt>
      <trkpt lat="48.6581" lon="7.17763">
        <ele>459.9</ele>
        <time>2020-08-12T07:21:29Z</time>
      </trkpt>
      <trkpt lat="48.65802" lon="7.17758">
        <ele>460.3</ele>
        <time>2020-08-12T07:21:31Z</time>
      </trkpt>
      <trkpt lat="48.65793" lon="7.17751">
        <ele>459.8</ele>
        <time>2020-08-12T07:21:33Z</time>
      </trkpt>
      <trkpt lat="48.65785" lon="7.17746">
        <ele>459.7</ele>
        <time>2020-08-12T07:21:35Z</time>
      </trkpt>
      <trkpt lat="48.65776" lon="7.17744">
        <ele>460.1</ele>
        <time>2020-08-12T07:21:37Z</time>
      </trkpt>
      <trkpt lat="48.65766" lon="7.17746">
        <ele>460.1</ele>
        <time>2020-08-12T07:21:39Z</time>
      </trkpt>
      <trkpt lat="48.65756" lon="7.17748">
        <ele>459.2</ele>
        <time>2020-08-12T07:21:41Z</time>
      </trkpt>
      <trkpt lat="48.65745" lon="7.17748">
        <ele>458.9</ele>
        <time>2020-08-12T07:21:43Z</time>
      </trkpt>
      <trkpt lat="48.65733" lon="7.17748">
        <ele>459.2</ele>
        <time>2020-08-12T07:21:45Z</time>
      </trkpt>
      <trkpt lat="48.65722" lon="7.17748">
        <ele>459.7</ele>
        <time>2020-08-12T07:21:47Z</time>
      </trkpt>
      <trkpt lat="48.65713" lon="7.17749">
        <ele>459.4</ele>
        <time>2020-08-12T07:21:49Z</time>
      </trkpt>
      <trkpt lat="48.65705" lon="7.17748">
        <ele>459.1</ele>
        <time>2020-08-12T07:21:51Z</time>
      </trkpt>
      <trkpt lat="48.65697" lon="7.17749">
        <ele>459.1</ele>
        <time>2020-08-12T07:21:53Z</time>
      </trkpt>
      <trkpt lat="48.65689" lon="7.17751">
        <ele>459.2</ele>
        <time>2020-08-12T07:21:55Z</time>
      </trkpt>
      <trkpt lat="48.65681" lon="7.17753">
        <ele>459.1</ele>
        <time>2020-08-12T07:21:57Z</time>
      </trkpt>
      <trkpt lat="48.65673" lon="7.17754">
        <ele>459.1</ele>
        <time>2020-08-12T07:21:59Z</time>
      </trkpt>
      <trkpt lat="48.65665" lon="7.17754">
        <ele>459</ele>
        <time>2020-08-12T07:22:01Z</time>
      </trkpt>
      <trkpt lat="48.65657" lon="7.17754">
        <ele>459</ele>
        <time>2020-08-12T07:22:03Z</time>
      </trkpt>
      <trkpt lat="48.6565" lon="7.17753">
        <ele>459</ele>
        <time>2020-08-12T07:22:05Z</time>
      </trkpt>
      <trkpt lat="48.65645" lon="7.17751">
        <ele>459.3</ele>
        <time>2020-08-12T07:22:10Z</time>
      </trkpt>
      <trkpt lat="48.6564" lon="7.17747">
        <ele>459.7</ele>
        <time>2020-08-12T07:22:23Z</time>
      </trkpt>
      <trkpt lat="48.65635" lon="7.17744">
        <ele>459.3</ele>
        <time>2020-08-12T07:22:25Z</time>
      </trkpt>
      <trkpt lat="48.6563" lon="7.17741">
        <ele>459.5</ele>
        <time>2020-08-12T07:22:27Z</time>
      </trkpt>
      <trkpt lat="48.65624" lon="7.17736">
        <ele>459.2</ele>
        <time>2020-08-12T07:22:29Z</time>
      </trkpt>
      <trkpt lat="48.65618" lon="7.17733">
        <ele>459.2</ele>
        <time>2020-08-12T07:22:31Z</time>
      </trkpt>
      <trkpt lat="48.65611" lon="7.1773">
        <ele>459.2</ele>
        <time>2020-08-12T07:22:33Z</time>
      </trkpt>
      <trkpt lat="48.65603" lon="7.17726">
        <ele>459.4</ele>
        <time>2020-08-12T07:22:35Z</time>
      </trkpt>
      <trkpt lat="48.65595" lon="7.17723">
        <ele>458.9</ele>
        <time>2020-08-12T07:22:37Z</time>
      </trkpt>
      <trkpt lat="48.65587" lon="7.17719">
        <ele>459.5</ele>
        <time>2020-08-12T07:22:39Z</time>
      </trkpt>
      <trkpt lat="48.65579" lon="7.17714">
        <ele>459.8</ele>
        <time>2020-08-12T07:22:41Z</time>
      </trkpt>
      <trkpt lat="48.65571" lon="7.1771">
        <ele>460.1</ele>
        <time>2020-08-12T07:22:43Z</time>
      </trkpt>
      <trkpt lat="48.65563" lon="7.17705">
        <ele>460.6</ele>
        <time>2020-08-12T07:22:45Z</time>
      </trkpt>
      <trkpt lat="48.65554" lon="7.17701">
        <ele>461</ele>
        <time>2020-08-12T07:22:47Z</time>
      </trkpt>
      <trkpt lat="48.65547" lon="7.17696">
        <ele>461.5</ele>
        <time>2020-08-12T07:22:49Z</time>
      </trkpt>
      <trkpt lat="48.65539" lon="7.17691">
        <ele>462.1</ele>
        <time>2020-08-12T07:22:51Z</time>
      </trkpt>
      <trkpt lat="48.65531" lon="7.17686">
        <ele>462.5</ele>
        <time>2020-08-12T07:22:53Z</time>
      </trkpt>
      <trkpt lat="48.65524" lon="7.17681">
        <ele>463.1</ele>
        <time>2020-08-12T07:22:55Z</time>
      </trkpt>
      <trkpt lat="48.65518" lon="7.17676">
        <ele>463.8</ele>
        <time>2020-08-12T07:22:57Z</time>
      </trkpt>
      <trkpt lat="48.65511" lon="7.17671">
        <ele>464.4</ele>
        <time>2020-08-12T07:22:59Z</time>
      </trkpt>
      <trkpt lat="48.65505" lon="7.17666">
        <ele>464.3</ele>
        <time>2020-08-12T07:23:01Z</time>
      </trkpt>
      <trkpt lat="48.65498" lon="7.17661">
        <ele>464</ele>
        <time>2020-08-12T07:23:03Z</time>
      </trkpt>
      <trkpt lat="48.65491" lon="7.17655">
        <ele>463.6</ele>
        <time>2020-08-12T07:23:05Z</time>
      </trkpt>
      <trkpt lat="48.65485" lon="7.17648">
        <ele>463.6</ele>
        <time>2020-08-12T07:23:07Z</time>
      </trkpt>
      <trkpt lat="48.65478" lon="7.17641">
        <ele>463.4</ele>
        <time>2020-08-12T07:23:09Z</time>
      </trkpt>
      <trkpt lat="48.65473" lon="7.17633">
        <ele>463.2</ele>
        <time>2020-08-12T07:23:11Z</time>
      </trkpt>
      <trkpt lat="48.65465" lon="7.17619">
        <ele>463.3</ele>
        <time>2020-08-12T07:23:14Z</time>
      </trkpt>
      <trkpt lat="48.65459" lon="7.1761">
        <ele>464</ele>
        <time>2020-08-12T07:23:16Z</time>
      </trkpt>
      <trkpt lat="48.65453" lon="7.17603">
        <ele>464</ele>
        <time>2020-08-12T07:23:18Z</time>
      </trkpt>
      <trkpt lat="48.65448" lon="7.17593">
        <ele>463.9</ele>
        <time>2020-08-12T07:23:20Z</time>
      </trkpt>
      <trkpt lat="48.65444" lon="7.17582">
        <ele>463.8</ele>
        <time>2020-08-12T07:23:22Z</time>
      </trkpt>
      <trkpt lat="48.6544" lon="7.17573">
        <ele>464.1</ele>
        <time>2020-08-12T07:23:24Z</time>
      </trkpt>
      <trkpt lat="48.65436" lon="7.17562">
        <ele>463.9</ele>
        <time>2020-08-12T07:23:26Z</time>
      </trkpt>
      <trkpt lat="48.65432" lon="7.17549">
        <ele>465</ele>
        <time>2020-08-12T07:23:29Z</time>
      </trkpt>
      <trkpt lat="48.65431" lon="7.17539">
        <ele>465.2</ele>
        <time>2020-08-12T07:23:31Z</time>
      </trkpt>
      <trkpt lat="48.6543" lon="7.17526">
        <ele>465.7</ele>
        <time>2020-08-12T07:23:33Z</time>
      </trkpt>
      <trkpt lat="48.65427" lon="7.17508">
        <ele>466.9</ele>
        <time>2020-08-12T07:23:36Z</time>
      </trkpt>
      <trkpt lat="48.65428" lon="7.17497">
        <ele>467.5</ele>
        <time>2020-08-12T07:23:38Z</time>
      </trkpt>
      <trkpt lat="48.65429" lon="7.17485">
        <ele>468.3</ele>
        <time>2020-08-12T07:23:40Z</time>
      </trkpt>
      <trkpt lat="48.65431" lon="7.1747">
        <ele>469.4</ele>
        <time>2020-08-12T07:23:43Z</time>
      </trkpt>
      <trkpt lat="48.65431" lon="7.1746">
        <ele>469.7</ele>
        <time>2020-08-12T07:23:45Z</time>
      </trkpt>
      <trkpt lat="48.65431" lon="7.17451">
        <ele>470.1</ele>
        <time>2020-08-12T07:23:47Z</time>
      </trkpt>
      <trkpt lat="48.65431" lon="7.17442">
        <ele>470.7</ele>
        <time>2020-08-12T07:23:49Z</time>
      </trkpt>
      <trkpt lat="48.65431" lon="7.17431">
        <ele>471.4</ele>
        <time>2020-08-12T07:23:51Z</time>
      </trkpt>
      <trkpt lat="48.65433" lon="7.17419">
        <ele>472.2</ele>
        <time>2020-08-12T07:23:53Z</time>
      </trkpt>
      <trkpt lat="48.65437" lon="7.17405">
        <ele>472.9</ele>
        <time>2020-08-12T07:23:55Z</time>
      </trkpt>
      <trkpt lat="48.65441" lon="7.17393">
        <ele>473.4</ele>
        <time>2020-08-12T07:23:57Z</time>
      </trkpt>
      <trkpt lat="48.65443" lon="7.17381">
        <ele>473.9</ele>
        <time>2020-08-12T07:23:59Z</time>
      </trkpt>
      <trkpt lat="48.65445" lon="7.17371">
        <ele>475.3</ele>
        <time>2020-08-12T07:24:01Z</time>
      </trkpt>
      <trkpt lat="48.65448" lon="7.17361">
        <ele>476.5</ele>
        <time>2020-08-12T07:24:03Z</time>
      </trkpt>
      <trkpt lat="48.65451" lon="7.1735">
        <ele>473.2</ele>
        <time>2020-08-12T07:24:05Z</time>
      </trkpt>
      <trkpt lat="48.65455" lon="7.17339">
        <ele>473.9</ele>
        <time>2020-08-12T07:24:07Z</time>
      </trkpt>
      <trkpt lat="48.65459" lon="7.17331">
        <ele>475</ele>
        <time>2020-08-12T07:24:09Z</time>
      </trkpt>
      <trkpt lat="48.65462" lon="7.17323">
        <ele>476.3</ele>
        <time>2020-08-12T07:24:11Z</time>
      </trkpt>
      <trkpt lat="48.65466" lon="7.17313">
        <ele>477.3</ele>
        <time>2020-08-12T07:24:13Z</time>
      </trkpt>
      <trkpt lat="48.65469" lon="7.173">
        <ele>478.1</ele>
        <time>2020-08-12T07:24:15Z</time>
      </trkpt>
      <trkpt lat="48.65473" lon="7.17287">
        <ele>478.7</ele>
        <time>2020-08-12T07:24:17Z</time>
      </trkpt>
      <trkpt lat="48.65479" lon="7.17272">
        <ele>479.1</ele>
        <time>2020-08-12T07:24:19Z</time>
      </trkpt>
      <trkpt lat="48.65484" lon="7.17257">
        <ele>479.5</ele>
        <time>2020-08-12T07:24:21Z</time>
      </trkpt>
      <trkpt lat="48.65489" lon="7.17242">
        <ele>479.8</ele>
        <time>2020-08-12T07:24:23Z</time>
      </trkpt>
      <trkpt lat="48.65494" lon="7.17227">
        <ele>480</ele>
        <time>2020-08-12T07:24:25Z</time>
      </trkpt>
      <trkpt lat="48.65499" lon="7.1721">
        <ele>480.4</ele>
        <time>2020-08-12T07:24:27Z</time>
      </trkpt>
      <trkpt lat="48.65503" lon="7.17195">
        <ele>480.6</ele>
        <time>2020-08-12T07:24:29Z</time>
      </trkpt>
      <trkpt lat="48.65507" lon="7.17181">
        <ele>481.1</ele>
        <time>2020-08-12T07:24:31Z</time>
      </trkpt>
      <trkpt lat="48.65512" lon="7.17167">
        <ele>481.3</ele>
        <time>2020-08-12T07:24:33Z</time>
      </trkpt>
      <trkpt lat="48.65517" lon="7.17155">
        <ele>481.8</ele>
        <time>2020-08-12T07:24:35Z</time>
      </trkpt>
      <trkpt lat="48.65524" lon="7.17145">
        <ele>482.4</ele>
        <time>2020-08-12T07:24:37Z</time>
      </trkpt>
      <trkpt lat="48.6553" lon="7.17137">
        <ele>482.6</ele>
        <time>2020-08-12T07:24:39Z</time>
      </trkpt>
      <trkpt lat="48.65537" lon="7.1713">
        <ele>482.8</ele>
        <time>2020-08-12T07:24:41Z</time>
      </trkpt>
      <trkpt lat="48.65545" lon="7.17124">
        <ele>482.6</ele>
        <time>2020-08-12T07:24:43Z</time>
      </trkpt>
      <trkpt lat="48.65552" lon="7.17119">
        <ele>482.6</ele>
        <time>2020-08-12T07:24:45Z</time>
      </trkpt>
      <trkpt lat="48.6556" lon="7.17114">
        <ele>482.3</ele>
        <time>2020-08-12T07:24:47Z</time>
      </trkpt>
      <trkpt lat="48.65564" lon="7.17109">
        <ele>482.3</ele>
        <time>2020-08-12T07:24:49Z</time>
      </trkpt>
      <trkpt lat="48.65565" lon="7.17102">
        <ele>485.8</ele>
        <time>2020-08-12T07:25:07Z</time>
      </trkpt>
      <trkpt lat="48.65568" lon="7.17094">
        <ele>486.2</ele>
        <time>2020-08-12T07:25:11Z</time>
      </trkpt>
      <trkpt lat="48.65571" lon="7.17088">
        <ele>486.3</ele>
        <time>2020-08-12T07:25:13Z</time>
      </trkpt>
      <trkpt lat="48.65573" lon="7.1708">
        <ele>486.2</ele>
        <time>2020-08-12T07:25:15Z</time>
      </trkpt>
      <trkpt lat="48.65576" lon="7.17067">
        <ele>485.7</ele>
        <time>2020-08-12T07:25:17Z</time>
      </trkpt>
      <trkpt lat="48.65576" lon="7.17051">
        <ele>484.8</ele>
        <time>2020-08-12T07:25:19Z</time>
      </trkpt>
      <trkpt lat="48.65574" lon="7.17034">
        <ele>484.3</ele>
        <time>2020-08-12T07:25:21Z</time>
      </trkpt>
      <trkpt lat="48.65571" lon="7.17015">
        <ele>483.8</ele>
        <time>2020-08-12T07:25:23Z</time>
      </trkpt>
      <trkpt lat="48.65568" lon="7.16998">
        <ele>483.6</ele>
        <time>2020-08-12T07:25:25Z</time>
      </trkpt>
      <trkpt lat="48.65563" lon="7.16983">
        <ele>483.4</ele>
        <time>2020-08-12T07:25:27Z</time>
      </trkpt>
      <trkpt lat="48.65558" lon="7.16967">
        <ele>483.4</ele>
        <time>2020-08-12T07:25:29Z</time>
      </trkpt>
      <trkpt lat="48.65555" lon="7.1695">
        <ele>483</ele>
        <time>2020-08-12T07:25:31Z</time>
      </trkpt>
      <trkpt lat="48.65552" lon="7.1693">
        <ele>482.4</ele>
        <time>2020-08-12T07:25:33Z</time>
      </trkpt>
      <trkpt lat="48.65548" lon="7.16911">
        <ele>481.3</ele>
        <time>2020-08-12T07:25:35Z</time>
      </trkpt>
      <trkpt lat="48.65544" lon="7.16893">
        <ele>480.3</ele>
        <time>2020-08-12T07:25:37Z</time>
      </trkpt>
      <trkpt lat="48.65542" lon="7.16876">
        <ele>478</ele>
        <time>2020-08-12T07:25:39Z</time>
      </trkpt>
      <trkpt lat="48.65539" lon="7.16858">
        <ele>476.6</ele>
        <time>2020-08-12T07:25:41Z</time>
      </trkpt>
      <trkpt lat="48.65535" lon="7.1684">
        <ele>475.4</ele>
        <time>2020-08-12T07:25:43Z</time>
      </trkpt>
      <trkpt lat="48.65531" lon="7.16823">
        <ele>474.5</ele>
        <time>2020-08-12T07:25:45Z</time>
      </trkpt>
      <trkpt lat="48.65531" lon="7.16803">
        <ele>473.5</ele>
        <time>2020-08-12T07:25:47Z</time>
      </trkpt>
      <trkpt lat="48.6553" lon="7.16786">
        <ele>472.2</ele>
        <time>2020-08-12T07:25:49Z</time>
      </trkpt>
      <trkpt lat="48.65528" lon="7.1677">
        <ele>471.2</ele>
        <time>2020-08-12T07:25:51Z</time>
      </trkpt>
      <trkpt lat="48.65526" lon="7.16757">
        <ele>470.4</ele>
        <time>2020-08-12T07:25:53Z</time>
      </trkpt>
      <trkpt lat="48.65526" lon="7.16747">
        <ele>469</ele>
        <time>2020-08-12T07:25:55Z</time>
      </trkpt>
      <trkpt lat="48.65525" lon="7.16738">
        <ele>467.9</ele>
        <time>2020-08-12T07:25:57Z</time>
      </trkpt>
      <trkpt lat="48.65525" lon="7.16731">
        <ele>466.5</ele>
        <time>2020-08-12T07:26:00Z</time>
      </trkpt>
      <trkpt lat="48.65522" lon="7.16722">
        <ele>463.3</ele>
        <time>2020-08-12T07:26:09Z</time>
      </trkpt>
      <trkpt lat="48.65521" lon="7.16714">
        <ele>463</ele>
        <time>2020-08-12T07:26:11Z</time>
      </trkpt>
      <trkpt lat="48.6552" lon="7.16705">
        <ele>463.1</ele>
        <time>2020-08-12T07:26:13Z</time>
      </trkpt>
      <trkpt lat="48.65521" lon="7.16694">
        <ele>463.1</ele>
        <time>2020-08-12T07:26:15Z</time>
      </trkpt>
      <trkpt lat="48.65522" lon="7.16682">
        <ele>463.2</ele>
        <time>2020-08-12T07:26:17Z</time>
      </trkpt>
      <trkpt lat="48.65525" lon="7.16668">
        <ele>463.4</ele>
        <time>2020-08-12T07:26:19Z</time>
      </trkpt>
      <trkpt lat="48.65528" lon="7.16653">
        <ele>463.6</ele>
        <time>2020-08-12T07:26:21Z</time>
      </trkpt>
      <trkpt lat="48.65532" lon="7.16637">
        <ele>463.5</ele>
        <time>2020-08-12T07:26:23Z</time>
      </trkpt>
      <trkpt lat="48.65537" lon="7.16622">
        <ele>463.1</ele>
        <time>2020-08-12T07:26:25Z</time>
      </trkpt>
      <trkpt lat="48.65543" lon="7.16607">
        <ele>463.1</ele>
        <time>2020-08-12T07:26:27Z</time>
      </trkpt>
      <trkpt lat="48.65548" lon="7.16593">
        <ele>462.8</ele>
        <time>2020-08-12T07:26:29Z</time>
      </trkpt>
      <trkpt lat="48.6555" lon="7.16582">
        <ele>462.7</ele>
        <time>2020-08-12T07:26:31Z</time>
      </trkpt>
      <trkpt lat="48.65553" lon="7.16571">
        <ele>462.7</ele>
        <time>2020-08-12T07:26:33Z</time>
      </trkpt>
      <trkpt lat="48.65555" lon="7.16558">
        <ele>463</ele>
        <time>2020-08-12T07:26:35Z</time>
      </trkpt>
      <trkpt lat="48.65556" lon="7.16543">
        <ele>463</ele>
        <time>2020-08-12T07:26:37Z</time>
      </trkpt>
      <trkpt lat="48.65558" lon="7.16529">
        <ele>463.2</ele>
        <time>2020-08-12T07:26:39Z</time>
      </trkpt>
      <trkpt lat="48.65559" lon="7.16517">
        <ele>463.6</ele>
        <time>2020-08-12T07:26:41Z</time>
      </trkpt>
      <trkpt lat="48.6556" lon="7.16505">
        <ele>463.5</ele>
        <time>2020-08-12T07:26:43Z</time>
      </trkpt>
      <trkpt lat="48.6556" lon="7.16493">
        <ele>463.5</ele>
        <time>2020-08-12T07:26:45Z</time>
      </trkpt>
      <trkpt lat="48.65559" lon="7.16479">
        <ele>465</ele>
        <time>2020-08-12T07:26:47Z</time>
      </trkpt>
      <trkpt lat="48.65557" lon="7.16465">
        <ele>465.8</ele>
        <time>2020-08-12T07:26:49Z</time>
      </trkpt>
      <trkpt lat="48.65555" lon="7.1645">
        <ele>466.9</ele>
        <time>2020-08-12T07:26:51Z</time>
      </trkpt>
      <trkpt lat="48.65552" lon="7.16435">
        <ele>467.8</ele>
        <time>2020-08-12T07:26:53Z</time>
      </trkpt>
      <trkpt lat="48.6555" lon="7.16421">
        <ele>468</ele>
        <time>2020-08-12T07:26:55Z</time>
      </trkpt>
      <trkpt lat="48.65548" lon="7.16408">
        <ele>468.7</ele>
        <time>2020-08-12T07:26:57Z</time>
      </trkpt>
      <trkpt lat="48.65546" lon="7.16395">
        <ele>469</ele>
        <time>2020-08-12T07:26:59Z</time>
      </trkpt>
      <trkpt lat="48.65543" lon="7.16383">
        <ele>469.4</ele>
        <time>2020-08-12T07:27:01Z</time>
      </trkpt>
      <trkpt lat="48.65539" lon="7.16368">
        <ele>469.4</ele>
        <time>2020-08-12T07:27:03Z</time>
      </trkpt>
      <trkpt lat="48.65536" lon="7.16354">
        <ele>469.4</ele>
        <time>2020-08-12T07:27:05Z</time>
      </trkpt>
      <trkpt lat="48.65533" lon="7.16339">
        <ele>470.4</ele>
        <time>2020-08-12T07:27:07Z</time>
      </trkpt>
      <trkpt lat="48.6553" lon="7.16324">
        <ele>470.7</ele>
        <time>2020-08-12T07:27:09Z</time>
      </trkpt>
      <trkpt lat="48.65526" lon="7.16312">
        <ele>471.3</ele>
        <time>2020-08-12T07:27:11Z</time>
      </trkpt>
      <trkpt lat="48.65523" lon="7.16301">
        <ele>471.3</ele>
        <time>2020-08-12T07:27:13Z</time>
      </trkpt>
      <trkpt lat="48.65519" lon="7.1629">
        <ele>471</ele>
        <time>2020-08-12T07:27:15Z</time>
      </trkpt>
      <trkpt lat="48.65515" lon="7.16281">
        <ele>470.1</ele>
        <time>2020-08-12T07:27:17Z</time>
      </trkpt>
      <trkpt lat="48.65512" lon="7.1627">
        <ele>469.1</ele>
        <time>2020-08-12T07:27:19Z</time>
      </trkpt>
      <trkpt lat="48.65506" lon="7.16258">
        <ele>468.7</ele>
        <time>2020-08-12T07:27:21Z</time>
      </trkpt>
      <trkpt lat="48.65502" lon="7.16246">
        <ele>468.2</ele>
        <time>2020-08-12T07:27:23Z</time>
      </trkpt>
      <trkpt lat="48.65499" lon="7.16235">
        <ele>467.8</ele>
        <time>2020-08-12T07:27:25Z</time>
      </trkpt>
      <trkpt lat="48.65496" lon="7.16228">
        <ele>467.9</ele>
        <time>2020-08-12T07:27:28Z</time>
      </trkpt>
      <trkpt lat="48.65493" lon="7.1622">
        <ele>466.9</ele>
        <time>2020-08-12T07:27:34Z</time>
      </trkpt>
      <trkpt lat="48.65489" lon="7.16214">
        <ele>466.4</ele>
        <time>2020-08-12T07:27:36Z</time>
      </trkpt>
      <trkpt lat="48.65485" lon="7.16206">
        <ele>465.7</ele>
        <time>2020-08-12T07:27:38Z</time>
      </trkpt>
      <trkpt lat="48.6548" lon="7.16197">
        <ele>464.5</ele>
        <time>2020-08-12T07:27:40Z</time>
      </trkpt>
      <trkpt lat="48.65476" lon="7.16189">
        <ele>463.9</ele>
        <time>2020-08-12T07:27:42Z</time>
      </trkpt>
      <trkpt lat="48.65472" lon="7.16182">
        <ele>463.3</ele>
        <time>2020-08-12T07:27:45Z</time>
      </trkpt>
      <trkpt lat="48.65467" lon="7.16174">
        <ele>462.5</ele>
        <time>2020-08-12T07:27:48Z</time>
      </trkpt>
      <trkpt lat="48.65462" lon="7.16166">
        <ele>462.3</ele>
        <time>2020-08-12T07:27:50Z</time>
      </trkpt>
      <trkpt lat="48.65457" lon="7.16159">
        <ele>462.3</ele>
        <time>2020-08-12T07:27:52Z</time>
      </trkpt>
      <trkpt lat="48.65453" lon="7.16151">
        <ele>461.9</ele>
        <time>2020-08-12T07:27:54Z</time>
      </trkpt>
      <trkpt lat="48.65448" lon="7.16145">
        <ele>461.6</ele>
        <time>2020-08-12T07:27:57Z</time>
      </trkpt>
      <trkpt lat="48.65444" lon="7.1614">
        <ele>461.3</ele>
        <time>2020-08-12T07:28:07Z</time>
      </trkpt>
      <trkpt lat="48.65442" lon="7.1613">
        <ele>460.5</ele>
        <time>2020-08-12T07:28:09Z</time>
      </trkpt>
      <trkpt lat="48.65442" lon="7.16117">
        <ele>459.7</ele>
        <time>2020-08-12T07:28:11Z</time>
      </trkpt>
      <trkpt lat="48.65445" lon="7.16103">
        <ele>458.6</ele>
        <time>2020-08-12T07:28:13Z</time>
      </trkpt>
      <trkpt lat="48.6545" lon="7.1609">
        <ele>457.5</ele>
        <time>2020-08-12T07:28:15Z</time>
      </trkpt>
      <trkpt lat="48.65458" lon="7.16075">
        <ele>456.6</ele>
        <time>2020-08-12T07:28:17Z</time>
      </trkpt>
      <trkpt lat="48.65467" lon="7.16057">
        <ele>455.4</ele>
        <time>2020-08-12T07:28:19Z</time>
      </trkpt>
      <trkpt lat="48.65477" lon="7.16034">
        <ele>453.3</ele>
        <time>2020-08-12T07:28:21Z</time>
      </trkpt>
      <trkpt lat="48.65486" lon="7.1601">
        <ele>452.2</ele>
        <time>2020-08-12T07:28:23Z</time>
      </trkpt>
      <trkpt lat="48.65496" lon="7.15986">
        <ele>451.8</ele>
        <time>2020-08-12T07:28:25Z</time>
      </trkpt>
      <trkpt lat="48.65508" lon="7.15962">
        <ele>451.1</ele>
        <time>2020-08-12T07:28:27Z</time>
      </trkpt>
      <trkpt lat="48.6552" lon="7.15939">
        <ele>450</ele>
        <time>2020-08-12T07:28:29Z</time>
      </trkpt>
      <trkpt lat="48.65532" lon="7.15916">
        <ele>448.2</ele>
        <time>2020-08-12T07:28:31Z</time>
      </trkpt>
      <trkpt lat="48.65544" lon="7.15894">
        <ele>446.2</ele>
        <time>2020-08-12T07:28:33Z</time>
      </trkpt>
      <trkpt lat="48.65557" lon="7.15873">
        <ele>443.8</ele>
        <time>2020-08-12T07:28:35Z</time>
      </trkpt>
      <trkpt lat="48.65567" lon="7.15853">
        <ele>441.8</ele>
        <time>2020-08-12T07:28:37Z</time>
      </trkpt>
      <trkpt lat="48.65574" lon="7.15835">
        <ele>439.9</ele>
        <time>2020-08-12T07:28:39Z</time>
      </trkpt>
      <trkpt lat="48.65581" lon="7.15819">
        <ele>437.7</ele>
        <time>2020-08-12T07:28:41Z</time>
      </trkpt>
      <trkpt lat="48.65587" lon="7.15802">
        <ele>435.9</ele>
        <time>2020-08-12T07:28:43Z</time>
      </trkpt>
      <trkpt lat="48.65594" lon="7.15784">
        <ele>434.1</ele>
        <time>2020-08-12T07:28:45Z</time>
      </trkpt>
      <trkpt lat="48.65602" lon="7.15766">
        <ele>432.6</ele>
        <time>2020-08-12T07:28:47Z</time>
      </trkpt>
      <trkpt lat="48.65608" lon="7.15745">
        <ele>430.8</ele>
        <time>2020-08-12T07:28:49Z</time>
      </trkpt>
      <trkpt lat="48.65611" lon="7.15723">
        <ele>429</ele>
        <time>2020-08-12T07:28:51Z</time>
      </trkpt>
      <trkpt lat="48.65612" lon="7.157">
        <ele>426.1</ele>
        <time>2020-08-12T07:28:53Z</time>
      </trkpt>
      <trkpt lat="48.65611" lon="7.15677">
        <ele>423.2</ele>
        <time>2020-08-12T07:28:55Z</time>
      </trkpt>
      <trkpt lat="48.65608" lon="7.15658">
        <ele>420</ele>
        <time>2020-08-12T07:28:57Z</time>
      </trkpt>
      <trkpt lat="48.65603" lon="7.15641">
        <ele>416.9</ele>
        <time>2020-08-12T07:28:59Z</time>
      </trkpt>
      <trkpt lat="48.65595" lon="7.15631">
        <ele>414.2</ele>
        <time>2020-08-12T07:29:01Z</time>
      </trkpt>
      <trkpt lat="48.65585" lon="7.1563">
        <ele>412.3</ele>
        <time>2020-08-12T07:29:03Z</time>
      </trkpt>
      <trkpt lat="48.65573" lon="7.15637">
        <ele>410.2</ele>
        <time>2020-08-12T07:29:05Z</time>
      </trkpt>
      <trkpt lat="48.65557" lon="7.1565">
        <ele>406.8</ele>
        <time>2020-08-12T07:29:08Z</time>
      </trkpt>
      <trkpt lat="48.65546" lon="7.15656">
        <ele>404.7</ele>
        <time>2020-08-12T07:29:10Z</time>
      </trkpt>
      <trkpt lat="48.6554" lon="7.15658">
        <ele>403.4</ele>
        <time>2020-08-12T07:29:12Z</time>
      </trkpt>
      <trkpt lat="48.65536" lon="7.1566">
        <ele>401.8</ele>
        <time>2020-08-12T07:29:21Z</time>
      </trkpt>
      <trkpt lat="48.65529" lon="7.15663">
        <ele>401.6</ele>
        <time>2020-08-12T07:29:24Z</time>
      </trkpt>
      <trkpt lat="48.65522" lon="7.15666">
        <ele>401.3</ele>
        <time>2020-08-12T07:29:26Z</time>
      </trkpt>
      <trkpt lat="48.65513" lon="7.15668">
        <ele>401.4</ele>
        <time>2020-08-12T07:29:28Z</time>
      </trkpt>
      <trkpt lat="48.65504" lon="7.15671">
        <ele>401.4</ele>
        <time>2020-08-12T07:29:30Z</time>
      </trkpt>
      <trkpt lat="48.65495" lon="7.15672">
        <ele>400.9</ele>
        <time>2020-08-12T07:29:33Z</time>
      </trkpt>
      <trkpt lat="48.6549" lon="7.15673">
        <ele>400</ele>
        <time>2020-08-12T07:29:35Z</time>
      </trkpt>
      <trkpt lat="48.65481" lon="7.15674">
        <ele>398.8</ele>
        <time>2020-08-12T07:29:37Z</time>
      </trkpt>
      <trkpt lat="48.65469" lon="7.15676">
        <ele>397.2</ele>
        <time>2020-08-12T07:29:39Z</time>
      </trkpt>
      <trkpt lat="48.65456" lon="7.15677">
        <ele>395.5</ele>
        <time>2020-08-12T07:29:41Z</time>
      </trkpt>
      <trkpt lat="48.65434" lon="7.15679">
        <ele>392</ele>
        <time>2020-08-12T07:29:44Z</time>
      </trkpt>
      <trkpt lat="48.65419" lon="7.15678">
        <ele>390</ele>
        <time>2020-08-12T07:29:46Z</time>
      </trkpt>
      <trkpt lat="48.65399" lon="7.15668">
        <ele>386.1</ele>
        <time>2020-08-12T07:29:49Z</time>
      </trkpt>
      <trkpt lat="48.65388" lon="7.15652">
        <ele>383.4</ele>
        <time>2020-08-12T07:29:51Z</time>
      </trkpt>
      <trkpt lat="48.65378" lon="7.15631">
        <ele>381.1</ele>
        <time>2020-08-12T07:29:53Z</time>
      </trkpt>
      <trkpt lat="48.65369" lon="7.15608">
        <ele>379.2</ele>
        <time>2020-08-12T07:29:55Z</time>
      </trkpt>
      <trkpt lat="48.65361" lon="7.15584">
        <ele>376.8</ele>
        <time>2020-08-12T07:29:57Z</time>
      </trkpt>
      <trkpt lat="48.65354" lon="7.15559">
        <ele>374.4</ele>
        <time>2020-08-12T07:29:59Z</time>
      </trkpt>
      <trkpt lat="48.65348" lon="7.15533">
        <ele>372.2</ele>
        <time>2020-08-12T07:30:01Z</time>
      </trkpt>
      <trkpt lat="48.65343" lon="7.15506">
        <ele>369.8</ele>
        <time>2020-08-12T07:30:03Z</time>
      </trkpt>
      <trkpt lat="48.65337" lon="7.15467">
        <ele>366</ele>
        <time>2020-08-12T07:30:06Z</time>
      </trkpt>
      <trkpt lat="48.65334" lon="7.1544">
        <ele>363.4</ele>
        <time>2020-08-12T07:30:08Z</time>
      </trkpt>
      <trkpt lat="48.65332" lon="7.15412">
        <ele>360.9</ele>
        <time>2020-08-12T07:30:10Z</time>
      </trkpt>
      <trkpt lat="48.65329" lon="7.15385">
        <ele>358.7</ele>
        <time>2020-08-12T07:30:12Z</time>
      </trkpt>
      <trkpt lat="48.65325" lon="7.15344">
        <ele>355.4</ele>
        <time>2020-08-12T07:30:15Z</time>
      </trkpt>
      <trkpt lat="48.65322" lon="7.15317">
        <ele>353.4</ele>
        <time>2020-08-12T07:30:17Z</time>
      </trkpt>
      <trkpt lat="48.65319" lon="7.15291">
        <ele>351.2</ele>
        <time>2020-08-12T07:30:19Z</time>
      </trkpt>
      <trkpt lat="48.65317" lon="7.15265">
        <ele>349.3</ele>
        <time>2020-08-12T07:30:21Z</time>
      </trkpt>
      <trkpt lat="48.65317" lon="7.1524">
        <ele>347.3</ele>
        <time>2020-08-12T07:30:23Z</time>
      </trkpt>
      <trkpt lat="48.65316" lon="7.15216">
        <ele>345.7</ele>
        <time>2020-08-12T07:30:25Z</time>
      </trkpt>
      <trkpt lat="48.65315" lon="7.15184">
        <ele>343.7</ele>
        <time>2020-08-12T07:30:28Z</time>
      </trkpt>
      <trkpt lat="48.65314" lon="7.15165">
        <ele>342.4</ele>
        <time>2020-08-12T07:30:30Z</time>
      </trkpt>
      <trkpt lat="48.65314" lon="7.15148">
        <ele>341.4</ele>
        <time>2020-08-12T07:30:32Z</time>
      </trkpt>
      <trkpt lat="48.65316" lon="7.15134">
        <ele>340.2</ele>
        <time>2020-08-12T07:30:34Z</time>
      </trkpt>
      <trkpt lat="48.65317" lon="7.15127">
        <ele>339.8</ele>
        <time>2020-08-12T07:30:36Z</time>
      </trkpt>
      <trkpt lat="48.65317" lon="7.1512">
        <ele>340.5</ele>
        <time>2020-08-12T07:30:49Z</time>
      </trkpt>
      <trkpt lat="48.65314" lon="7.15112">
        <ele>342</ele>
        <time>2020-08-12T07:30:59Z</time>
      </trkpt>
      <trkpt lat="48.65309" lon="7.15109">
        <ele>342.1</ele>
        <time>2020-08-12T07:31:01Z</time>
      </trkpt>
      <trkpt lat="48.65304" lon="7.15107">
        <ele>342.3</ele>
        <time>2020-08-12T07:31:03Z</time>
      </trkpt>
      <trkpt lat="48.65299" lon="7.15104">
        <ele>341.9</ele>
        <time>2020-08-12T07:31:05Z</time>
      </trkpt>
      <trkpt lat="48.65293" lon="7.15102">
        <ele>342.2</ele>
        <time>2020-08-12T07:31:08Z</time>
      </trkpt>
      <trkpt lat="48.65289" lon="7.15098">
        <ele>343.8</ele>
        <time>2020-08-12T07:31:14Z</time>
      </trkpt>
      <trkpt lat="48.65285" lon="7.15098">
        <ele>344.5</ele>
        <time>2020-08-12T07:31:17Z</time>
      </trkpt>
      <trkpt lat="48.65278" lon="7.15097">
        <ele>345</ele>
        <time>2020-08-12T07:31:20Z</time>
      </trkpt>
      <trkpt lat="48.65272" lon="7.15096">
        <ele>345.1</ele>
        <time>2020-08-12T07:31:22Z</time>
      </trkpt>
      <trkpt lat="48.65271" lon="7.15102">
        <ele>341.2</ele>
        <time>2020-08-12T07:31:40Z</time>
      </trkpt>
      <trkpt lat="48.65266" lon="7.151">
        <ele>339.4</ele>
        <time>2020-08-12T07:32:31Z</time>
      </trkpt>
      <trkpt lat="48.65264" lon="7.15091">
        <ele>338.7</ele>
        <time>2020-08-12T07:32:33Z</time>
      </trkpt>
      <trkpt lat="48.65263" lon="7.15079">
        <ele>337.9</ele>
        <time>2020-08-12T07:32:35Z</time>
      </trkpt>
      <trkpt lat="48.65262" lon="7.15063">
        <ele>337.1</ele>
        <time>2020-08-12T07:32:37Z</time>
      </trkpt>
      <trkpt lat="48.65263" lon="7.1504">
        <ele>335.6</ele>
        <time>2020-08-12T07:32:40Z</time>
      </trkpt>
      <trkpt lat="48.65263" lon="7.1503">
        <ele>334.9</ele>
        <time>2020-08-12T07:32:42Z</time>
      </trkpt>
      <trkpt lat="48.65262" lon="7.15023">
        <ele>333.1</ele>
        <time>2020-08-12T07:32:52Z</time>
      </trkpt>
      <trkpt lat="48.65259" lon="7.15016">
        <ele>331.8</ele>
        <time>2020-08-12T07:32:58Z</time>
      </trkpt>
      <trkpt lat="48.65248" lon="7.15012">
        <ele>331.3</ele>
        <time>2020-08-12T07:33:01Z</time>
      </trkpt>
      <trkpt lat="48.65237" lon="7.15">
        <ele>331.2</ele>
        <time>2020-08-12T07:33:04Z</time>
      </trkpt>
      <trkpt lat="48.65233" lon="7.14987">
        <ele>331.3</ele>
        <time>2020-08-12T07:33:06Z</time>
      </trkpt>
      <trkpt lat="48.65229" lon="7.14973">
        <ele>331.6</ele>
        <time>2020-08-12T07:33:08Z</time>
      </trkpt>
      <trkpt lat="48.65225" lon="7.14958">
        <ele>331.2</ele>
        <time>2020-08-12T07:33:10Z</time>
      </trkpt>
      <trkpt lat="48.65222" lon="7.14944">
        <ele>330.6</ele>
        <time>2020-08-12T07:33:12Z</time>
      </trkpt>
      <trkpt lat="48.65222" lon="7.14933">
        <ele>329.5</ele>
        <time>2020-08-12T07:33:14Z</time>
      </trkpt>
      <trkpt lat="48.6522" lon="7.14927">
        <ele>327.9</ele>
        <time>2020-08-12T07:33:32Z</time>
      </trkpt>
      <trkpt lat="48.65217" lon="7.14921">
        <ele>328.1</ele>
        <time>2020-08-12T07:34:41Z</time>
      </trkpt>
      <trkpt lat="48.65214" lon="7.14915">
        <ele>328</ele>
        <time>2020-08-12T07:34:43Z</time>
      </trkpt>
      <trkpt lat="48.65211" lon="7.14906">
        <ele>328</ele>
        <time>2020-08-12T07:34:45Z</time>
      </trkpt>
      <trkpt lat="48.65207" lon="7.14898">
        <ele>327.9</ele>
        <time>2020-08-12T07:34:47Z</time>
      </trkpt>
      <trkpt lat="48.65202" lon="7.14889">
        <ele>327.8</ele>
        <time>2020-08-12T07:34:49Z</time>
      </trkpt>
      <trkpt lat="48.65197" lon="7.14883">
        <ele>327.6</ele>
        <time>2020-08-12T07:34:51Z</time>
      </trkpt>
      <trkpt lat="48.65191" lon="7.14878">
        <ele>328</ele>
        <time>2020-08-12T07:34:53Z</time>
      </trkpt>
      <trkpt lat="48.65185" lon="7.14874">
        <ele>328.3</ele>
        <time>2020-08-12T07:34:55Z</time>
      </trkpt>
      <trkpt lat="48.6518" lon="7.14871">
        <ele>328.3</ele>
        <time>2020-08-12T07:34:57Z</time>
      </trkpt>
      <trkpt lat="48.65175" lon="7.14869">
        <ele>328.4</ele>
        <time>2020-08-12T07:34:59Z</time>
      </trkpt>
      <trkpt lat="48.65169" lon="7.14867">
        <ele>328.4</ele>
        <time>2020-08-12T07:35:01Z</time>
      </trkpt>
      <trkpt lat="48.65163" lon="7.14865">
        <ele>328.9</ele>
        <time>2020-08-12T07:35:03Z</time>
      </trkpt>
      <trkpt lat="48.65157" lon="7.14864">
        <ele>329.1</ele>
        <time>2020-08-12T07:35:05Z</time>
      </trkpt>
      <trkpt lat="48.6515" lon="7.14863">
        <ele>330</ele>
        <time>2020-08-12T07:35:07Z</time>
      </trkpt>
      <trkpt lat="48.65144" lon="7.14863">
        <ele>330.5</ele>
        <time>2020-08-12T07:35:09Z</time>
      </trkpt>
      <trkpt lat="48.65137" lon="7.14863">
        <ele>331.1</ele>
        <time>2020-08-12T07:35:11Z</time>
      </trkpt>
      <trkpt lat="48.65131" lon="7.14864">
        <ele>331.4</ele>
        <time>2020-08-12T07:35:13Z</time>
      </trkpt>
      <trkpt lat="48.65124" lon="7.14866">
        <ele>332.3</ele>
        <time>2020-08-12T07:35:15Z</time>
      </trkpt>
      <trkpt lat="48.65118" lon="7.14867">
        <ele>333.9</ele>
        <time>2020-08-12T07:35:17Z</time>
      </trkpt>
      <trkpt lat="48.65112" lon="7.1487">
        <ele>334.9</ele>
        <time>2020-08-12T07:35:19Z</time>
      </trkpt>
      <trkpt lat="48.65106" lon="7.14873">
        <ele>335.9</ele>
        <time>2020-08-12T07:35:21Z</time>
      </trkpt>
      <trkpt lat="48.651" lon="7.14876">
        <ele>336.7</ele>
        <time>2020-08-12T07:35:23Z</time>
      </trkpt>
      <trkpt lat="48.65094" lon="7.14878">
        <ele>336.8</ele>
        <time>2020-08-12T07:35:25Z</time>
      </trkpt>
      <trkpt lat="48.65089" lon="7.14881">
        <ele>337.1</ele>
        <time>2020-08-12T07:35:27Z</time>
      </trkpt>
      <trkpt lat="48.65083" lon="7.14884">
        <ele>337.1</ele>
        <time>2020-08-12T07:35:29Z</time>
      </trkpt>
      <trkpt lat="48.65078" lon="7.14887">
        <ele>337.4</ele>
        <time>2020-08-12T07:35:31Z</time>
      </trkpt>
      <trkpt lat="48.65073" lon="7.1489">
        <ele>337.6</ele>
        <time>2020-08-12T07:35:33Z</time>
      </trkpt>
      <trkpt lat="48.65067" lon="7.14892">
        <ele>338</ele>
        <time>2020-08-12T07:35:35Z</time>
      </trkpt>
      <trkpt lat="48.65062" lon="7.14894">
        <ele>338.5</ele>
        <time>2020-08-12T07:35:37Z</time>
      </trkpt>
      <trkpt lat="48.65056" lon="7.14895">
        <ele>338.5</ele>
        <time>2020-08-12T07:35:39Z</time>
      </trkpt>
      <trkpt lat="48.6505" lon="7.14897">
        <ele>338.6</ele>
        <time>2020-08-12T07:35:41Z</time>
      </trkpt>
      <trkpt lat="48.65044" lon="7.14899">
        <ele>338.8</ele>
        <time>2020-08-12T07:35:43Z</time>
      </trkpt>
      <trkpt lat="48.65038" lon="7.14901">
        <ele>339</ele>
        <time>2020-08-12T07:35:45Z</time>
      </trkpt>
      <trkpt lat="48.65032" lon="7.14903">
        <ele>339</ele>
        <time>2020-08-12T07:35:47Z</time>
      </trkpt>
      <trkpt lat="48.65026" lon="7.14905">
        <ele>338.9</ele>
        <time>2020-08-12T07:35:49Z</time>
      </trkpt>
      <trkpt lat="48.6502" lon="7.14906">
        <ele>339.2</ele>
        <time>2020-08-12T07:35:51Z</time>
      </trkpt>
      <trkpt lat="48.65014" lon="7.14907">
        <ele>339.4</ele>
        <time>2020-08-12T07:35:53Z</time>
      </trkpt>
      <trkpt lat="48.65007" lon="7.14908">
        <ele>339.8</ele>
        <time>2020-08-12T07:35:55Z</time>
      </trkpt>
      <trkpt lat="48.65" lon="7.14908">
        <ele>340.2</ele>
        <time>2020-08-12T07:35:57Z</time>
      </trkpt>
      <trkpt lat="48.64993" lon="7.14907">
        <ele>340.6</ele>
        <time>2020-08-12T07:35:59Z</time>
      </trkpt>
      <trkpt lat="48.64985" lon="7.14906">
        <ele>341</ele>
        <time>2020-08-12T07:36:01Z</time>
      </trkpt>
      <trkpt lat="48.64977" lon="7.14905">
        <ele>341.1</ele>
        <time>2020-08-12T07:36:03Z</time>
      </trkpt>
      <trkpt lat="48.6497" lon="7.14904">
        <ele>341.3</ele>
        <time>2020-08-12T07:36:05Z</time>
      </trkpt>
      <trkpt lat="48.64962" lon="7.14902">
        <ele>341.6</ele>
        <time>2020-08-12T07:36:07Z</time>
      </trkpt>
      <trkpt lat="48.64956" lon="7.14898">
        <ele>341.8</ele>
        <time>2020-08-12T07:36:09Z</time>
      </trkpt>
      <trkpt lat="48.64949" lon="7.14894">
        <ele>342</ele>
        <time>2020-08-12T07:36:11Z</time>
      </trkpt>
      <trkpt lat="48.64942" lon="7.1489">
        <ele>341.8</ele>
        <time>2020-08-12T07:36:13Z</time>
      </trkpt>
      <trkpt lat="48.64935" lon="7.14885">
        <ele>341.9</ele>
        <time>2020-08-12T07:36:15Z</time>
      </trkpt>
      <trkpt lat="48.64929" lon="7.1488">
        <ele>341.6</ele>
        <time>2020-08-12T07:36:17Z</time>
      </trkpt>
      <trkpt lat="48.64922" lon="7.14875">
        <ele>341.5</ele>
        <time>2020-08-12T07:36:19Z</time>
      </trkpt>
      <trkpt lat="48.64916" lon="7.14869">
        <ele>341</ele>
        <time>2020-08-12T07:36:21Z</time>
      </trkpt>
      <trkpt lat="48.6491" lon="7.14862">
        <ele>340.4</ele>
        <time>2020-08-12T07:36:23Z</time>
      </trkpt>
      <trkpt lat="48.64904" lon="7.14856">
        <ele>340.2</ele>
        <time>2020-08-12T07:36:25Z</time>
      </trkpt>
      <trkpt lat="48.64898" lon="7.14849">
        <ele>340.1</ele>
        <time>2020-08-12T07:36:27Z</time>
      </trkpt>
      <trkpt lat="48.64892" lon="7.14841">
        <ele>339.6</ele>
        <time>2020-08-12T07:36:29Z</time>
      </trkpt>
      <trkpt lat="48.64886" lon="7.14832">
        <ele>339.5</ele>
        <time>2020-08-12T07:36:31Z</time>
      </trkpt>
      <trkpt lat="48.6488" lon="7.14823">
        <ele>339.1</ele>
        <time>2020-08-12T07:36:33Z</time>
      </trkpt>
      <trkpt lat="48.64873" lon="7.14814">
        <ele>339.1</ele>
        <time>2020-08-12T07:36:35Z</time>
      </trkpt>
      <trkpt lat="48.64866" lon="7.14804">
        <ele>338.9</ele>
        <time>2020-08-12T07:36:37Z</time>
      </trkpt>
      <trkpt lat="48.6486" lon="7.14795">
        <ele>338.7</ele>
        <time>2020-08-12T07:36:39Z</time>
      </trkpt>
      <trkpt lat="48.64853" lon="7.14785">
        <ele>338.3</ele>
        <time>2020-08-12T07:36:41Z</time>
      </trkpt>
      <trkpt lat="48.64845" lon="7.14778">
        <ele>338.1</ele>
        <time>2020-08-12T07:36:43Z</time>
      </trkpt>
      <trkpt lat="48.64836" lon="7.14774">
        <ele>338</ele>
        <time>2020-08-12T07:36:45Z</time>
      </trkpt>
      <trkpt lat="48.64827" lon="7.14774">
        <ele>338.2</ele>
        <time>2020-08-12T07:36:47Z</time>
      </trkpt>
      <trkpt lat="48.64818" lon="7.14776">
        <ele>338.4</ele>
        <time>2020-08-12T07:36:49Z</time>
      </trkpt>
      <trkpt lat="48.6481" lon="7.14782">
        <ele>338.6</ele>
        <time>2020-08-12T07:36:51Z</time>
      </trkpt>
      <trkpt lat="48.64804" lon="7.14789">
        <ele>338.8</ele>
        <time>2020-08-12T07:36:53Z</time>
      </trkpt>
      <trkpt lat="48.64798" lon="7.14796">
        <ele>339</ele>
        <time>2020-08-12T07:36:55Z</time>
      </trkpt>
      <trkpt lat="48.64792" lon="7.14804">
        <ele>339.3</ele>
        <time>2020-08-12T07:36:57Z</time>
      </trkpt>
      <trkpt lat="48.64787" lon="7.14813">
        <ele>339.8</ele>
        <time>2020-08-12T07:36:59Z</time>
      </trkpt>
      <trkpt lat="48.64782" lon="7.14821">
        <ele>340.2</ele>
        <time>2020-08-12T07:37:01Z</time>
      </trkpt>
      <trkpt lat="48.64776" lon="7.14829">
        <ele>340.8</ele>
        <time>2020-08-12T07:37:03Z</time>
      </trkpt>
      <trkpt lat="48.64771" lon="7.14838">
        <ele>341.1</ele>
        <time>2020-08-12T07:37:05Z</time>
      </trkpt>
      <trkpt lat="48.64766" lon="7.14845">
        <ele>342.1</ele>
        <time>2020-08-12T07:37:07Z</time>
      </trkpt>
      <trkpt lat="48.6476" lon="7.14852">
        <ele>342.7</ele>
        <time>2020-08-12T07:37:09Z</time>
      </trkpt>
      <trkpt lat="48.64754" lon="7.14857">
        <ele>343.6</ele>
        <time>2020-08-12T07:37:11Z</time>
      </trkpt>
      <trkpt lat="48.64747" lon="7.14861">
        <ele>344.7</ele>
        <time>2020-08-12T07:37:13Z</time>
      </trkpt>
      <trkpt lat="48.6474" lon="7.14862">
        <ele>346.1</ele>
        <time>2020-08-12T07:37:15Z</time>
      </trkpt>
      <trkpt lat="48.64734" lon="7.14862">
        <ele>347.4</ele>
        <time>2020-08-12T07:37:17Z</time>
      </trkpt>
      <trkpt lat="48.64728" lon="7.14865">
        <ele>348.6</ele>
        <time>2020-08-12T07:37:19Z</time>
      </trkpt>
      <trkpt lat="48.64725" lon="7.14871">
        <ele>349.8</ele>
        <time>2020-08-12T07:37:21Z</time>
      </trkpt>
      <trkpt lat="48.64728" lon="7.14865">
        <ele>352.8</ele>
        <time>2020-08-12T07:37:42Z</time>
      </trkpt>
      <trkpt lat="48.64724" lon="7.14858">
        <ele>352.7</ele>
        <time>2020-08-12T07:37:45Z</time>
      </trkpt>
      <trkpt lat="48.64718" lon="7.14853">
        <ele>353.1</ele>
        <time>2020-08-12T07:37:48Z</time>
      </trkpt>
      <trkpt lat="48.64714" lon="7.1485">
        <ele>353.1</ele>
        <time>2020-08-12T07:37:50Z</time>
      </trkpt>
      <trkpt lat="48.64709" lon="7.14846">
        <ele>353.3</ele>
        <time>2020-08-12T07:37:52Z</time>
      </trkpt>
      <trkpt lat="48.64704" lon="7.14843">
        <ele>353.5</ele>
        <time>2020-08-12T07:37:54Z</time>
      </trkpt>
      <trkpt lat="48.64699" lon="7.14839">
        <ele>353.5</ele>
        <time>2020-08-12T07:37:56Z</time>
      </trkpt>
      <trkpt lat="48.64694" lon="7.14836">
        <ele>353.7</ele>
        <time>2020-08-12T07:37:58Z</time>
      </trkpt>
      <trkpt lat="48.64689" lon="7.14832">
        <ele>353.9</ele>
        <time>2020-08-12T07:38:00Z</time>
      </trkpt>
      <trkpt lat="48.64685" lon="7.14828">
        <ele>354</ele>
        <time>2020-08-12T07:38:02Z</time>
      </trkpt>
      <trkpt lat="48.64679" lon="7.14825">
        <ele>354.4</ele>
        <time>2020-08-12T07:38:04Z</time>
      </trkpt>
      <trkpt lat="48.64674" lon="7.14823">
        <ele>354.6</ele>
        <time>2020-08-12T07:38:06Z</time>
      </trkpt>
      <trkpt lat="48.64668" lon="7.1482">
        <ele>355.1</ele>
        <time>2020-08-12T07:38:08Z</time>
      </trkpt>
      <trkpt lat="48.64662" lon="7.14817">
        <ele>355.4</ele>
        <time>2020-08-12T07:38:10Z</time>
      </trkpt>
      <trkpt lat="48.64656" lon="7.14813">
        <ele>355.7</ele>
        <time>2020-08-12T07:38:12Z</time>
      </trkpt>
      <trkpt lat="48.64651" lon="7.14806">
        <ele>356.5</ele>
        <time>2020-08-12T07:38:14Z</time>
      </trkpt>
      <trkpt lat="48.64646" lon="7.14799">
        <ele>357.4</ele>
        <time>2020-08-12T07:38:16Z</time>
      </trkpt>
      <trkpt lat="48.64642" lon="7.14792">
        <ele>358.3</ele>
        <time>2020-08-12T07:38:18Z</time>
      </trkpt>
      <trkpt lat="48.64637" lon="7.14788">
        <ele>359.1</ele>
        <time>2020-08-12T07:38:20Z</time>
      </trkpt>
      <trkpt lat="48.64629" lon="7.14785">
        <ele>360.1</ele>
        <time>2020-08-12T07:38:23Z</time>
      </trkpt>
      <trkpt lat="48.64625" lon="7.14784">
        <ele>361</ele>
        <time>2020-08-12T07:38:25Z</time>
      </trkpt>
      <trkpt lat="48.6462" lon="7.14783">
        <ele>361.8</ele>
        <time>2020-08-12T07:38:27Z</time>
      </trkpt>
      <trkpt lat="48.64615" lon="7.14782">
        <ele>362.4</ele>
        <time>2020-08-12T07:38:29Z</time>
      </trkpt>
      <trkpt lat="48.6461" lon="7.1478">
        <ele>362.7</ele>
        <time>2020-08-12T07:38:31Z</time>
      </trkpt>
      <trkpt lat="48.64605" lon="7.14777">
        <ele>362.8</ele>
        <time>2020-08-12T07:38:33Z</time>
      </trkpt>
      <trkpt lat="48.64601" lon="7.14776">
        <ele>362.9</ele>
        <time>2020-08-12T07:38:35Z</time>
      </trkpt>
      <trkpt lat="48.64596" lon="7.14776">
        <ele>363.1</ele>
        <time>2020-08-12T07:38:37Z</time>
      </trkpt>
      <trkpt lat="48.6459" lon="7.14775">
        <ele>363.2</ele>
        <time>2020-08-12T07:38:39Z</time>
      </trkpt>
      <trkpt lat="48.64584" lon="7.14775">
        <ele>363.4</ele>
        <time>2020-08-12T07:38:41Z</time>
      </trkpt>
      <trkpt lat="48.64578" lon="7.14774">
        <ele>363.4</ele>
        <time>2020-08-12T07:38:43Z</time>
      </trkpt>
      <trkpt lat="48.64571" lon="7.14773">
        <ele>363.4</ele>
        <time>2020-08-12T07:38:45Z</time>
      </trkpt>
      <trkpt lat="48.64564" lon="7.14772">
        <ele>363.7</ele>
        <time>2020-08-12T07:38:47Z</time>
      </trkpt>
      <trkpt lat="48.64558" lon="7.14772">
        <ele>364.2</ele>
        <time>2020-08-12T07:38:49Z</time>
      </trkpt>
      <trkpt lat="48.64553" lon="7.14773">
        <ele>364.5</ele>
        <time>2020-08-12T07:38:51Z</time>
      </trkpt>
      <trkpt lat="48.64547" lon="7.14773">
        <ele>365.4</ele>
        <time>2020-08-12T07:38:53Z</time>
      </trkpt>
      <trkpt lat="48.64541" lon="7.14771">
        <ele>366.4</ele>
        <time>2020-08-12T07:38:56Z</time>
      </trkpt>
      <trkpt lat="48.64536" lon="7.14769">
        <ele>369.3</ele>
        <time>2020-08-12T07:39:08Z</time>
      </trkpt>
      <trkpt lat="48.64531" lon="7.14768">
        <ele>370.6</ele>
        <time>2020-08-12T07:39:13Z</time>
      </trkpt>
      <trkpt lat="48.64526" lon="7.14766">
        <ele>371.2</ele>
        <time>2020-08-12T07:39:18Z</time>
      </trkpt>
      <trkpt lat="48.64523" lon="7.14762">
        <ele>371.4</ele>
        <time>2020-08-12T07:39:28Z</time>
      </trkpt>
      <trkpt lat="48.64518" lon="7.14765">
        <ele>370.3</ele>
        <time>2020-08-12T07:39:34Z</time>
      </trkpt>
      <trkpt lat="48.64512" lon="7.14765">
        <ele>370</ele>
        <time>2020-08-12T07:39:39Z</time>
      </trkpt>
      <trkpt lat="48.6451" lon="7.14759">
        <ele>370.5</ele>
        <time>2020-08-12T07:39:45Z</time>
      </trkpt>
      <trkpt lat="48.64511" lon="7.14752">
        <ele>371.8</ele>
        <time>2020-08-12T07:40:02Z</time>
      </trkpt>
      <trkpt lat="48.64509" lon="7.14746">
        <ele>376.5</ele>
        <time>2020-08-12T07:40:40Z</time>
      </trkpt>
      <trkpt lat="48.64507" lon="7.1474">
        <ele>368.3</ele>
        <time>2020-08-12T07:40:59Z</time>
      </trkpt>
      <trkpt lat="48.64505" lon="7.14733">
        <ele>369.7</ele>
        <time>2020-08-12T07:41:07Z</time>
      </trkpt>
      <trkpt lat="48.64505" lon="7.14725">
        <ele>368.4</ele>
        <time>2020-08-12T07:41:20Z</time>
      </trkpt>
      <trkpt lat="48.64503" lon="7.14718">
        <ele>372.7</ele>
        <time>2020-08-12T07:41:25Z</time>
      </trkpt>
      <trkpt lat="48.64501" lon="7.1471">
        <ele>369.9</ele>
        <time>2020-08-12T07:41:32Z</time>
      </trkpt>
      <trkpt lat="48.645" lon="7.14704">
        <ele>372.5</ele>
        <time>2020-08-12T07:41:39Z</time>
      </trkpt>
      <trkpt lat="48.64499" lon="7.14696">
        <ele>378.7</ele>
        <time>2020-08-12T07:41:47Z</time>
      </trkpt>
      <trkpt lat="48.64498" lon="7.1469">
        <ele>381.9</ele>
        <time>2020-08-12T07:41:54Z</time>
      </trkpt>
      <trkpt lat="48.64498" lon="7.14682">
        <ele>383.7</ele>
        <time>2020-08-12T07:42:01Z</time>
      </trkpt>
      <trkpt lat="48.64497" lon="7.14675">
        <ele>388.4</ele>
        <time>2020-08-12T07:42:13Z</time>
      </trkpt>
    </trkseg>
  </trk>
  <trk>
    <name><![CDATA[secteur Saverne - Dabo - Petite Pierre_7]]></name>
    <trkseg>
      <trkpt lat="48.64488" lon="7.14674">
        <ele>378.1</ele>
        <time>2020-08-12T07:44:04Z</time>
      </trkpt>
      <trkpt lat="48.64488" lon="7.14674">
        <ele>378.1</ele>
        <time>2020-08-12T07:44:04Z</time>
      </trkpt>
      <trkpt lat="48.64488" lon="7.14674">
        <ele>378.1</ele>
        <time>2020-08-12T07:44:04Z</time>
      </trkpt>
      <trkpt lat="48.64488" lon="7.14674">
        <ele>378.1</ele>
        <time>2020-08-12T07:44:04Z</time>
      </trkpt>
      <trkpt lat="48.64488" lon="7.14674">
        <ele>378.1</ele>
        <time>2020-08-12T07:44:04Z</time>
      </trkpt>
      <trkpt lat="48.64488" lon="7.14674">
        <ele>378.1</ele>
        <time>2020-08-12T07:44:04Z</time>
      </trkpt>
      <trkpt lat="48.64488" lon="7.14674">
        <ele>378.1</ele>
        <time>2020-08-12T07:44:04Z</time>
      </trkpt>
      <trkpt lat="48.64488" lon="7.14674">
        <ele>378.1</ele>
        <time>2020-08-12T07:44:04Z</time>
      </trkpt>
      <trkpt lat="48.64495" lon="7.14674">
        <ele>379.3</ele>
        <time>2020-08-12T07:44:06Z</time>
      </trkpt>
      <trkpt lat="48.64501" lon="7.14673">
        <ele>381.5</ele>
        <time>2020-08-12T07:44:09Z</time>
      </trkpt>
      <trkpt lat="48.64505" lon="7.14674">
        <ele>387.2</ele>
        <time>2020-08-12T07:44:15Z</time>
      </trkpt>
      <trkpt lat="48.64509" lon="7.14678">
        <ele>398.1</ele>
        <time>2020-08-12T07:44:54Z</time>
      </trkpt>
      <trkpt lat="48.64516" lon="7.14679">
        <ele>397</ele>
        <time>2020-08-12T07:44:59Z</time>
      </trkpt>
      <trkpt lat="48.64521" lon="7.14681">
        <ele>397.1</ele>
        <time>2020-08-12T07:45:01Z</time>
      </trkpt>
      <trkpt lat="48.64516" lon="7.14677">
        <ele>398.8</ele>
        <time>2020-08-12T07:45:28Z</time>
      </trkpt>
      <trkpt lat="48.64511" lon="7.14676">
        <ele>399.1</ele>
        <time>2020-08-12T07:45:30Z</time>
      </trkpt>
      <trkpt lat="48.64506" lon="7.14674">
        <ele>399.4</ele>
        <time>2020-08-12T07:45:32Z</time>
      </trkpt>
      <trkpt lat="48.64501" lon="7.14671">
        <ele>398.7</ele>
        <time>2020-08-12T07:45:34Z</time>
      </trkpt>
    </trkseg>
  </trk>
  <trk>
    <name><![CDATA[secteur Saverne - Dabo - Petite Pierre_8]]></name>
    <trkseg>
      <trkpt lat="48.64501" lon="7.1467">
        <ele>390.9</ele>
        <time>2020-08-12T07:46:56Z</time>
      </trkpt>
      <trkpt lat="48.64501" lon="7.1467">
        <ele>390.9</ele>
        <time>2020-08-12T07:46:56Z</time>
      </trkpt>
      <trkpt lat="48.64501" lon="7.1467">
        <ele>390.9</ele>
        <time>2020-08-12T07:46:56Z</time>
      </trkpt>
      <trkpt lat="48.64501" lon="7.1467">
        <ele>390.9</ele>
        <time>2020-08-12T07:46:56Z</time>
      </trkpt>
      <trkpt lat="48.64501" lon="7.1467">
        <ele>390.9</ele>
        <time>2020-08-12T07:46:56Z</time>
      </trkpt>
      <trkpt lat="48.64501" lon="7.1467">
        <ele>390.9</ele>
        <time>2020-08-12T07:46:56Z</time>
      </trkpt>
      <trkpt lat="48.64501" lon="7.1467">
        <ele>390.9</ele>
        <time>2020-08-12T07:46:56Z</time>
      </trkpt>
      <trkpt lat="48.64501" lon="7.1467">
        <ele>390.9</ele>
        <time>2020-08-12T07:46:56Z</time>
      </trkpt>
      <trkpt lat="48.64507" lon="7.14673">
        <ele>390.7</ele>
        <time>2020-08-12T07:46:58Z</time>
      </trkpt>
      <trkpt lat="48.64514" lon="7.14676">
        <ele>390.5</ele>
        <time>2020-08-12T07:47:00Z</time>
      </trkpt>
      <trkpt lat="48.64522" lon="7.14679">
        <ele>390.3</ele>
        <time>2020-08-12T07:47:02Z</time>
      </trkpt>
      <trkpt lat="48.6453" lon="7.14682">
        <ele>390</ele>
        <time>2020-08-12T07:47:04Z</time>
      </trkpt>
      <trkpt lat="48.6454" lon="7.14684">
        <ele>389.5</ele>
        <time>2020-08-12T07:47:06Z</time>
      </trkpt>
      <trkpt lat="48.64549" lon="7.14686">
        <ele>389.3</ele>
        <time>2020-08-12T07:47:08Z</time>
      </trkpt>
      <trkpt lat="48.6456" lon="7.1469">
        <ele>388.4</ele>
        <time>2020-08-12T07:47:10Z</time>
      </trkpt>
      <trkpt lat="48.64571" lon="7.14693">
        <ele>388.3</ele>
        <time>2020-08-12T07:47:12Z</time>
      </trkpt>
      <trkpt lat="48.6458" lon="7.14692">
        <ele>387.5</ele>
        <time>2020-08-12T07:47:14Z</time>
      </trkpt>
      <trkpt lat="48.64585" lon="7.14691">
        <ele>386.5</ele>
        <time>2020-08-12T07:47:17Z</time>
      </trkpt>
      <trkpt lat="48.6459" lon="7.14689">
        <ele>385.1</ele>
        <time>2020-08-12T07:47:31Z</time>
      </trkpt>
      <trkpt lat="48.64594" lon="7.14684">
        <ele>385.2</ele>
        <time>2020-08-12T07:47:34Z</time>
      </trkpt>
      <trkpt lat="48.64597" lon="7.14678">
        <ele>384.9</ele>
        <time>2020-08-12T07:47:36Z</time>
      </trkpt>
      <trkpt lat="48.64599" lon="7.14671">
        <ele>384.3</ele>
        <time>2020-08-12T07:47:38Z</time>
      </trkpt>
      <trkpt lat="48.64602" lon="7.14662">
        <ele>384.1</ele>
        <time>2020-08-12T07:47:41Z</time>
      </trkpt>
      <trkpt lat="48.64605" lon="7.14655">
        <ele>383.9</ele>
        <time>2020-08-12T07:47:44Z</time>
      </trkpt>
      <trkpt lat="48.64607" lon="7.14648">
        <ele>383.2</ele>
        <time>2020-08-12T07:47:47Z</time>
      </trkpt>
      <trkpt lat="48.64612" lon="7.14641">
        <ele>381.7</ele>
        <time>2020-08-12T07:47:50Z</time>
      </trkpt>
      <trkpt lat="48.64618" lon="7.14638">
        <ele>380.8</ele>
        <time>2020-08-12T07:47:52Z</time>
      </trkpt>
      <trkpt lat="48.64626" lon="7.14636">
        <ele>380</ele>
        <time>2020-08-12T07:47:54Z</time>
      </trkpt>
      <trkpt lat="48.64635" lon="7.14634">
        <ele>379.8</ele>
        <time>2020-08-12T07:47:56Z</time>
      </trkpt>
      <trkpt lat="48.64643" lon="7.14631">
        <ele>380.2</ele>
        <time>2020-08-12T07:47:58Z</time>
      </trkpt>
      <trkpt lat="48.6465" lon="7.14627">
        <ele>381</ele>
        <time>2020-08-12T07:48:00Z</time>
      </trkpt>
      <trkpt lat="48.64655" lon="7.1462">
        <ele>381.6</ele>
        <time>2020-08-12T07:48:02Z</time>
      </trkpt>
      <trkpt lat="48.64658" lon="7.14611">
        <ele>381.5</ele>
        <time>2020-08-12T07:48:04Z</time>
      </trkpt>
      <trkpt lat="48.64659" lon="7.14602">
        <ele>381.5</ele>
        <time>2020-08-12T07:48:06Z</time>
      </trkpt>
      <trkpt lat="48.64659" lon="7.14594">
        <ele>381.7</ele>
        <time>2020-08-12T07:48:08Z</time>
      </trkpt>
      <trkpt lat="48.64658" lon="7.14586">
        <ele>382.2</ele>
        <time>2020-08-12T07:48:10Z</time>
      </trkpt>
      <trkpt lat="48.64656" lon="7.14577">
        <ele>382.8</ele>
        <time>2020-08-12T07:48:12Z</time>
      </trkpt>
      <trkpt lat="48.64655" lon="7.14568">
        <ele>384.5</ele>
        <time>2020-08-12T07:48:14Z</time>
      </trkpt>
      <trkpt lat="48.64654" lon="7.1456">
        <ele>385.6</ele>
        <time>2020-08-12T07:48:16Z</time>
      </trkpt>
      <trkpt lat="48.64654" lon="7.14551">
        <ele>386.4</ele>
        <time>2020-08-12T07:48:18Z</time>
      </trkpt>
      <trkpt lat="48.64655" lon="7.14541">
        <ele>386.9</ele>
        <time>2020-08-12T07:48:20Z</time>
      </trkpt>
      <trkpt lat="48.64654" lon="7.14531">
        <ele>387.1</ele>
        <time>2020-08-12T07:48:22Z</time>
      </trkpt>
      <trkpt lat="48.64654" lon="7.1452">
        <ele>387.4</ele>
        <time>2020-08-12T07:48:24Z</time>
      </trkpt>
      <trkpt lat="48.64653" lon="7.14508">
        <ele>387.3</ele>
        <time>2020-08-12T07:48:26Z</time>
      </trkpt>
      <trkpt lat="48.64653" lon="7.14497">
        <ele>387.6</ele>
        <time>2020-08-12T07:48:28Z</time>
      </trkpt>
      <trkpt lat="48.64653" lon="7.14486">
        <ele>387.3</ele>
        <time>2020-08-12T07:48:30Z</time>
      </trkpt>
      <trkpt lat="48.64652" lon="7.14475">
        <ele>387.2</ele>
        <time>2020-08-12T07:48:32Z</time>
      </trkpt>
      <trkpt lat="48.64651" lon="7.14465">
        <ele>387.2</ele>
        <time>2020-08-12T07:48:34Z</time>
      </trkpt>
      <trkpt lat="48.64652" lon="7.14453">
        <ele>387.4</ele>
        <time>2020-08-12T07:48:36Z</time>
      </trkpt>
      <trkpt lat="48.64652" lon="7.14442">
        <ele>388.5</ele>
        <time>2020-08-12T07:48:38Z</time>
      </trkpt>
      <trkpt lat="48.64651" lon="7.14431">
        <ele>389.3</ele>
        <time>2020-08-12T07:48:40Z</time>
      </trkpt>
      <trkpt lat="48.64649" lon="7.1442">
        <ele>390.1</ele>
        <time>2020-08-12T07:48:42Z</time>
      </trkpt>
      <trkpt lat="48.64648" lon="7.14408">
        <ele>390.8</ele>
        <time>2020-08-12T07:48:44Z</time>
      </trkpt>
      <trkpt lat="48.64647" lon="7.14396">
        <ele>391.6</ele>
        <time>2020-08-12T07:48:46Z</time>
      </trkpt>
      <trkpt lat="48.64647" lon="7.14384">
        <ele>391.7</ele>
        <time>2020-08-12T07:48:48Z</time>
      </trkpt>
      <trkpt lat="48.64646" lon="7.14372">
        <ele>392.1</ele>
        <time>2020-08-12T07:48:50Z</time>
      </trkpt>
      <trkpt lat="48.64645" lon="7.1436">
        <ele>392.6</ele>
        <time>2020-08-12T07:48:52Z</time>
      </trkpt>
      <trkpt lat="48.64644" lon="7.1435">
        <ele>393.1</ele>
        <time>2020-08-12T07:48:54Z</time>
      </trkpt>
      <trkpt lat="48.64643" lon="7.14341">
        <ele>394.5</ele>
        <time>2020-08-12T07:48:56Z</time>
      </trkpt>
      <trkpt lat="48.64641" lon="7.1433">
        <ele>395.3</ele>
        <time>2020-08-12T07:48:58Z</time>
      </trkpt>
      <trkpt lat="48.6464" lon="7.1432">
        <ele>395.4</ele>
        <time>2020-08-12T07:49:00Z</time>
      </trkpt>
      <trkpt lat="48.6464" lon="7.14309">
        <ele>395.5</ele>
        <time>2020-08-12T07:49:02Z</time>
      </trkpt>
      <trkpt lat="48.6464" lon="7.14298">
        <ele>395.7</ele>
        <time>2020-08-12T07:49:04Z</time>
      </trkpt>
      <trkpt lat="48.64639" lon="7.14287">
        <ele>396.8</ele>
        <time>2020-08-12T07:49:06Z</time>
      </trkpt>
      <trkpt lat="48.64638" lon="7.14275">
        <ele>397.3</ele>
        <time>2020-08-12T07:49:08Z</time>
      </trkpt>
      <trkpt lat="48.64637" lon="7.14263">
        <ele>397.7</ele>
        <time>2020-08-12T07:49:10Z</time>
      </trkpt>
      <trkpt lat="48.64637" lon="7.14253">
        <ele>398.5</ele>
        <time>2020-08-12T07:49:12Z</time>
      </trkpt>
      <trkpt lat="48.64635" lon="7.14242">
        <ele>398.4</ele>
        <time>2020-08-12T07:49:14Z</time>
      </trkpt>
      <trkpt lat="48.64634" lon="7.14233">
        <ele>399</ele>
        <time>2020-08-12T07:49:16Z</time>
      </trkpt>
      <trkpt lat="48.64633" lon="7.14225">
        <ele>398.8</ele>
        <time>2020-08-12T07:49:18Z</time>
      </trkpt>
      <trkpt lat="48.64634" lon="7.14216">
        <ele>399.3</ele>
        <time>2020-08-12T07:49:20Z</time>
      </trkpt>
      <trkpt lat="48.64633" lon="7.14206">
        <ele>399.6</ele>
        <time>2020-08-12T07:49:22Z</time>
      </trkpt>
      <trkpt lat="48.64633" lon="7.14196">
        <ele>399.6</ele>
        <time>2020-08-12T07:49:24Z</time>
      </trkpt>
      <trkpt lat="48.64633" lon="7.14185">
        <ele>398.4</ele>
        <time>2020-08-12T07:49:26Z</time>
      </trkpt>
      <trkpt lat="48.64633" lon="7.14174">
        <ele>398.4</ele>
        <time>2020-08-12T07:49:28Z</time>
      </trkpt>
      <trkpt lat="48.64634" lon="7.14164">
        <ele>398.3</ele>
        <time>2020-08-12T07:49:30Z</time>
      </trkpt>
      <trkpt lat="48.64637" lon="7.14155">
        <ele>397.8</ele>
        <time>2020-08-12T07:49:32Z</time>
      </trkpt>
      <trkpt lat="48.64641" lon="7.14147">
        <ele>397.6</ele>
        <time>2020-08-12T07:49:34Z</time>
      </trkpt>
      <trkpt lat="48.64646" lon="7.1414">
        <ele>396.8</ele>
        <time>2020-08-12T07:49:36Z</time>
      </trkpt>
      <trkpt lat="48.64651" lon="7.14135">
        <ele>396.3</ele>
        <time>2020-08-12T07:49:38Z</time>
      </trkpt>
      <trkpt lat="48.64657" lon="7.14132">
        <ele>395.7</ele>
        <time>2020-08-12T07:49:40Z</time>
      </trkpt>
      <trkpt lat="48.64663" lon="7.14128">
        <ele>395.5</ele>
        <time>2020-08-12T07:49:42Z</time>
      </trkpt>
      <trkpt lat="48.64669" lon="7.14124">
        <ele>394.6</ele>
        <time>2020-08-12T07:49:44Z</time>
      </trkpt>
      <trkpt lat="48.64676" lon="7.14119">
        <ele>394.3</ele>
        <time>2020-08-12T07:49:46Z</time>
      </trkpt>
      <trkpt lat="48.64683" lon="7.14116">
        <ele>394.8</ele>
        <time>2020-08-12T07:49:48Z</time>
      </trkpt>
      <trkpt lat="48.64691" lon="7.14113">
        <ele>395</ele>
        <time>2020-08-12T07:49:50Z</time>
      </trkpt>
      <trkpt lat="48.64699" lon="7.14112">
        <ele>395.4</ele>
        <time>2020-08-12T07:49:52Z</time>
      </trkpt>
      <trkpt lat="48.64706" lon="7.14111">
        <ele>395.8</ele>
        <time>2020-08-12T07:49:54Z</time>
      </trkpt>
      <trkpt lat="48.64714" lon="7.14112">
        <ele>396.3</ele>
        <time>2020-08-12T07:49:56Z</time>
      </trkpt>
      <trkpt lat="48.64722" lon="7.14112">
        <ele>396.6</ele>
        <time>2020-08-12T07:49:58Z</time>
      </trkpt>
      <trkpt lat="48.64729" lon="7.14113">
        <ele>396.9</ele>
        <time>2020-08-12T07:50:00Z</time>
      </trkpt>
      <trkpt lat="48.64735" lon="7.14113">
        <ele>397.7</ele>
        <time>2020-08-12T07:50:02Z</time>
      </trkpt>
      <trkpt lat="48.64736" lon="7.14106">
        <ele>399.1</ele>
        <time>2020-08-12T07:50:05Z</time>
      </trkpt>
      <trkpt lat="48.64732" lon="7.141">
        <ele>400</ele>
        <time>2020-08-12T07:50:07Z</time>
      </trkpt>
      <trkpt lat="48.64727" lon="7.14095">
        <ele>400.7</ele>
        <time>2020-08-12T07:50:09Z</time>
      </trkpt>
      <trkpt lat="48.64721" lon="7.1409">
        <ele>401.3</ele>
        <time>2020-08-12T07:50:11Z</time>
      </trkpt>
      <trkpt lat="48.64715" lon="7.14085">
        <ele>400.6</ele>
        <time>2020-08-12T07:50:13Z</time>
      </trkpt>
      <trkpt lat="48.64709" lon="7.14082">
        <ele>401</ele>
        <time>2020-08-12T07:50:15Z</time>
      </trkpt>
      <trkpt lat="48.64703" lon="7.14078">
        <ele>400.7</ele>
        <time>2020-08-12T07:50:17Z</time>
      </trkpt>
      <trkpt lat="48.64699" lon="7.14074">
        <ele>400.3</ele>
        <time>2020-08-12T07:50:19Z</time>
      </trkpt>
      <trkpt lat="48.64696" lon="7.14068">
        <ele>400.8</ele>
        <time>2020-08-12T07:50:26Z</time>
      </trkpt>
      <trkpt lat="48.64691" lon="7.14065">
        <ele>401.9</ele>
        <time>2020-08-12T07:50:30Z</time>
      </trkpt>
      <trkpt lat="48.64686" lon="7.14062">
        <ele>403.2</ele>
        <time>2020-08-12T07:50:34Z</time>
      </trkpt>
      <trkpt lat="48.64682" lon="7.14058">
        <ele>405</ele>
        <time>2020-08-12T07:50:38Z</time>
      </trkpt>
      <trkpt lat="48.64677" lon="7.14055">
        <ele>406.9</ele>
        <time>2020-08-12T07:50:43Z</time>
      </trkpt>
      <trkpt lat="48.64673" lon="7.14053">
        <ele>408.3</ele>
        <time>2020-08-12T07:50:47Z</time>
      </trkpt>
      <trkpt lat="48.64668" lon="7.14051">
        <ele>410.6</ele>
        <time>2020-08-12T07:50:52Z</time>
      </trkpt>
      <trkpt lat="48.64664" lon="7.14047">
        <ele>413.6</ele>
        <time>2020-08-12T07:50:57Z</time>
      </trkpt>
      <trkpt lat="48.64659" lon="7.14044">
        <ele>415.5</ele>
        <time>2020-08-12T07:51:03Z</time>
      </trkpt>
      <trkpt lat="48.64653" lon="7.14042">
        <ele>417.9</ele>
        <time>2020-08-12T07:51:08Z</time>
      </trkpt>
      <trkpt lat="48.64647" lon="7.14041">
        <ele>420.7</ele>
        <time>2020-08-12T07:51:12Z</time>
      </trkpt>
      <trkpt lat="48.64641" lon="7.1404">
        <ele>421.7</ele>
        <time>2020-08-12T07:51:16Z</time>
      </trkpt>
      <trkpt lat="48.64636" lon="7.14039">
        <ele>423</ele>
        <time>2020-08-12T07:51:20Z</time>
      </trkpt>
      <trkpt lat="48.64632" lon="7.14036">
        <ele>424.4</ele>
        <time>2020-08-12T07:51:24Z</time>
      </trkpt>
      <trkpt lat="48.64628" lon="7.14032">
        <ele>423</ele>
        <time>2020-08-12T07:51:29Z</time>
      </trkpt>
      <trkpt lat="48.64624" lon="7.14029">
        <ele>423.6</ele>
        <time>2020-08-12T07:51:33Z</time>
      </trkpt>
      <trkpt lat="48.6462" lon="7.14025">
        <ele>424.7</ele>
        <time>2020-08-12T07:51:37Z</time>
      </trkpt>
      <trkpt lat="48.64615" lon="7.14022">
        <ele>426.5</ele>
        <time>2020-08-12T07:51:41Z</time>
      </trkpt>
      <trkpt lat="48.64611" lon="7.1402">
        <ele>428.7</ele>
        <time>2020-08-12T07:51:46Z</time>
      </trkpt>
      <trkpt lat="48.64605" lon="7.14017">
        <ele>429.8</ele>
        <time>2020-08-12T07:51:52Z</time>
      </trkpt>
      <trkpt lat="48.64599" lon="7.14014">
        <ele>430.7</ele>
        <time>2020-08-12T07:51:55Z</time>
      </trkpt>
      <trkpt lat="48.64594" lon="7.14011">
        <ele>431.3</ele>
        <time>2020-08-12T07:51:57Z</time>
      </trkpt>
      <trkpt lat="48.64589" lon="7.14008">
        <ele>431.9</ele>
        <time>2020-08-12T07:51:59Z</time>
      </trkpt>
      <trkpt lat="48.64584" lon="7.14005">
        <ele>432.5</ele>
        <time>2020-08-12T07:52:01Z</time>
      </trkpt>
      <trkpt lat="48.64579" lon="7.14003">
        <ele>433.2</ele>
        <time>2020-08-12T07:52:03Z</time>
      </trkpt>
      <trkpt lat="48.64575" lon="7.14">
        <ele>433.2</ele>
        <time>2020-08-12T07:52:05Z</time>
      </trkpt>
      <trkpt lat="48.6457" lon="7.13996">
        <ele>433.7</ele>
        <time>2020-08-12T07:52:07Z</time>
      </trkpt>
      <trkpt lat="48.64566" lon="7.13992">
        <ele>433.9</ele>
        <time>2020-08-12T07:52:09Z</time>
      </trkpt>
      <trkpt lat="48.64562" lon="7.13989">
        <ele>434.5</ele>
        <time>2020-08-12T07:52:11Z</time>
      </trkpt>
      <trkpt lat="48.64557" lon="7.13984">
        <ele>435.4</ele>
        <time>2020-08-12T07:52:13Z</time>
      </trkpt>
      <trkpt lat="48.64552" lon="7.13979">
        <ele>435.9</ele>
        <time>2020-08-12T07:52:15Z</time>
      </trkpt>
      <trkpt lat="48.64546" lon="7.13974">
        <ele>436.6</ele>
        <time>2020-08-12T07:52:17Z</time>
      </trkpt>
      <trkpt lat="48.64541" lon="7.13968">
        <ele>437.1</ele>
        <time>2020-08-12T07:52:19Z</time>
      </trkpt>
      <trkpt lat="48.64536" lon="7.13963">
        <ele>437.2</ele>
        <time>2020-08-12T07:52:21Z</time>
      </trkpt>
      <trkpt lat="48.64531" lon="7.13957">
        <ele>437.5</ele>
        <time>2020-08-12T07:52:23Z</time>
      </trkpt>
      <trkpt lat="48.64526" lon="7.13952">
        <ele>437.7</ele>
        <time>2020-08-12T07:52:25Z</time>
      </trkpt>
      <trkpt lat="48.64522" lon="7.13946">
        <ele>437.9</ele>
        <time>2020-08-12T07:52:27Z</time>
      </trkpt>
      <trkpt lat="48.64518" lon="7.1394">
        <ele>437.9</ele>
        <time>2020-08-12T07:52:29Z</time>
      </trkpt>
      <trkpt lat="48.64516" lon="7.13934">
        <ele>438.8</ele>
        <time>2020-08-12T07:52:34Z</time>
      </trkpt>
      <trkpt lat="48.64515" lon="7.13927">
        <ele>440.4</ele>
        <time>2020-08-12T07:54:09Z</time>
      </trkpt>
      <trkpt lat="48.64514" lon="7.1392">
        <ele>440.7</ele>
        <time>2020-08-12T07:54:30Z</time>
      </trkpt>
      <trkpt lat="48.64512" lon="7.13913">
        <ele>439.4</ele>
        <time>2020-08-12T07:54:33Z</time>
      </trkpt>
      <trkpt lat="48.6451" lon="7.13905">
        <ele>437.7</ele>
        <time>2020-08-12T07:54:36Z</time>
      </trkpt>
      <trkpt lat="48.64507" lon="7.13899">
        <ele>437.2</ele>
        <time>2020-08-12T07:54:38Z</time>
      </trkpt>
    </trkseg>
  </trk>
  <trk>
    <name><![CDATA[secteur Saverne - Dabo - Petite Pierre_9]]></name>
    <trkseg>
      <trkpt lat="48.64508" lon="7.13917">
        <ele>430.7</ele>
        <time>2020-08-12T07:58:04Z</time>
      </trkpt>
      <trkpt lat="48.64508" lon="7.13917">
        <ele>430.7</ele>
        <time>2020-08-12T07:58:04Z</time>
      </trkpt>
      <trkpt lat="48.64508" lon="7.13917">
        <ele>430.7</ele>
        <time>2020-08-12T07:58:04Z</time>
      </trkpt>
      <trkpt lat="48.64508" lon="7.13917">
        <ele>430.7</ele>
        <time>2020-08-12T07:58:04Z</time>
      </trkpt>
      <trkpt lat="48.64508" lon="7.13917">
        <ele>430.7</ele>
        <time>2020-08-12T07:58:04Z</time>
      </trkpt>
      <trkpt lat="48.64508" lon="7.13917">
        <ele>430.7</ele>
        <time>2020-08-12T07:58:04Z</time>
      </trkpt>
      <trkpt lat="48.64508" lon="7.13917">
        <ele>430.7</ele>
        <time>2020-08-12T07:58:04Z</time>
      </trkpt>
      <trkpt lat="48.64508" lon="7.13917">
        <ele>430.7</ele>
        <time>2020-08-12T07:58:04Z</time>
      </trkpt>
      <trkpt lat="48.64512" lon="7.13912">
        <ele>431.7</ele>
        <time>2020-08-12T07:58:23Z</time>
      </trkpt>
      <trkpt lat="48.64512" lon="7.13903">
        <ele>430.5</ele>
        <time>2020-08-12T07:58:27Z</time>
      </trkpt>
      <trkpt lat="48.64512" lon="7.13895">
        <ele>430.9</ele>
        <time>2020-08-12T07:58:29Z</time>
      </trkpt>
      <trkpt lat="48.64512" lon="7.13885">
        <ele>430.7</ele>
        <time>2020-08-12T07:58:31Z</time>
      </trkpt>
      <trkpt lat="48.64511" lon="7.13875">
        <ele>430.8</ele>
        <time>2020-08-12T07:58:33Z</time>
      </trkpt>
      <trkpt lat="48.6451" lon="7.13864">
        <ele>430.8</ele>
        <time>2020-08-12T07:58:35Z</time>
      </trkpt>
      <trkpt lat="48.6451" lon="7.13852">
        <ele>431.9</ele>
        <time>2020-08-12T07:58:37Z</time>
      </trkpt>
      <trkpt lat="48.64512" lon="7.1384">
        <ele>432.2</ele>
        <time>2020-08-12T07:58:39Z</time>
      </trkpt>
      <trkpt lat="48.64513" lon="7.13828">
        <ele>432.2</ele>
        <time>2020-08-12T07:58:41Z</time>
      </trkpt>
      <trkpt lat="48.64513" lon="7.13815">
        <ele>432.8</ele>
        <time>2020-08-12T07:58:43Z</time>
      </trkpt>
      <trkpt lat="48.64512" lon="7.13802">
        <ele>433.8</ele>
        <time>2020-08-12T07:58:45Z</time>
      </trkpt>
      <trkpt lat="48.64509" lon="7.13789">
        <ele>435.4</ele>
        <time>2020-08-12T07:58:47Z</time>
      </trkpt>
      <trkpt lat="48.64507" lon="7.13776">
        <ele>437</ele>
        <time>2020-08-12T07:58:49Z</time>
      </trkpt>
      <trkpt lat="48.64505" lon="7.13762">
        <ele>438.2</ele>
        <time>2020-08-12T07:58:51Z</time>
      </trkpt>
      <trkpt lat="48.64505" lon="7.13749">
        <ele>439.5</ele>
        <time>2020-08-12T07:58:53Z</time>
      </trkpt>
      <trkpt lat="48.64506" lon="7.13735">
        <ele>440.4</ele>
        <time>2020-08-12T07:58:55Z</time>
      </trkpt>
      <trkpt lat="48.64507" lon="7.13723">
        <ele>441.1</ele>
        <time>2020-08-12T07:58:57Z</time>
      </trkpt>
      <trkpt lat="48.64508" lon="7.13711">
        <ele>441.8</ele>
        <time>2020-08-12T07:58:59Z</time>
      </trkpt>
      <trkpt lat="48.64508" lon="7.13699">
        <ele>442.1</ele>
        <time>2020-08-12T07:59:01Z</time>
      </trkpt>
      <trkpt lat="48.64507" lon="7.13685">
        <ele>442.2</ele>
        <time>2020-08-12T07:59:03Z</time>
      </trkpt>
      <trkpt lat="48.64506" lon="7.13671">
        <ele>442.1</ele>
        <time>2020-08-12T07:59:05Z</time>
      </trkpt>
      <trkpt lat="48.64504" lon="7.13659">
        <ele>442.8</ele>
        <time>2020-08-12T07:59:07Z</time>
      </trkpt>
      <trkpt lat="48.64503" lon="7.13648">
        <ele>443.8</ele>
        <time>2020-08-12T07:59:09Z</time>
      </trkpt>
      <trkpt lat="48.64501" lon="7.13635">
        <ele>444.7</ele>
        <time>2020-08-12T07:59:11Z</time>
      </trkpt>
      <trkpt lat="48.645" lon="7.13622">
        <ele>445.1</ele>
        <time>2020-08-12T07:59:13Z</time>
      </trkpt>
      <trkpt lat="48.64499" lon="7.13608">
        <ele>445.5</ele>
        <time>2020-08-12T07:59:15Z</time>
      </trkpt>
      <trkpt lat="48.645" lon="7.13596">
        <ele>445.7</ele>
        <time>2020-08-12T07:59:17Z</time>
      </trkpt>
      <trkpt lat="48.645" lon="7.1359">
        <ele>446</ele>
        <time>2020-08-12T07:59:19Z</time>
      </trkpt>
      <trkpt lat="48.64499" lon="7.13582">
        <ele>447.2</ele>
        <time>2020-08-12T08:00:03Z</time>
      </trkpt>
      <trkpt lat="48.64501" lon="7.13569">
        <ele>447.1</ele>
        <time>2020-08-12T08:00:06Z</time>
      </trkpt>
      <trkpt lat="48.64502" lon="7.13559">
        <ele>446.9</ele>
        <time>2020-08-12T08:00:08Z</time>
      </trkpt>
      <trkpt lat="48.64504" lon="7.13548">
        <ele>446.6</ele>
        <time>2020-08-12T08:00:10Z</time>
      </trkpt>
      <trkpt lat="48.64506" lon="7.13536">
        <ele>446.2</ele>
        <time>2020-08-12T08:00:12Z</time>
      </trkpt>
      <trkpt lat="48.6451" lon="7.13525">
        <ele>445.9</ele>
        <time>2020-08-12T08:00:14Z</time>
      </trkpt>
      <trkpt lat="48.64517" lon="7.13515">
        <ele>445.6</ele>
        <time>2020-08-12T08:00:16Z</time>
      </trkpt>
      <trkpt lat="48.64523" lon="7.13506">
        <ele>444.9</ele>
        <time>2020-08-12T08:00:18Z</time>
      </trkpt>
      <trkpt lat="48.64529" lon="7.13499">
        <ele>444.7</ele>
        <time>2020-08-12T08:00:20Z</time>
      </trkpt>
      <trkpt lat="48.64533" lon="7.13492">
        <ele>443.9</ele>
        <time>2020-08-12T08:00:22Z</time>
      </trkpt>
      <trkpt lat="48.64539" lon="7.13483">
        <ele>443.3</ele>
        <time>2020-08-12T08:00:24Z</time>
      </trkpt>
      <trkpt lat="48.64544" lon="7.13473">
        <ele>443.5</ele>
        <time>2020-08-12T08:00:26Z</time>
      </trkpt>
      <trkpt lat="48.64548" lon="7.13463">
        <ele>443.4</ele>
        <time>2020-08-12T08:00:28Z</time>
      </trkpt>
      <trkpt lat="48.64551" lon="7.13452">
        <ele>443.5</ele>
        <time>2020-08-12T08:00:30Z</time>
      </trkpt>
      <trkpt lat="48.64554" lon="7.13441">
        <ele>443.6</ele>
        <time>2020-08-12T08:00:32Z</time>
      </trkpt>
      <trkpt lat="48.64557" lon="7.13427">
        <ele>443.9</ele>
        <time>2020-08-12T08:00:34Z</time>
      </trkpt>
      <trkpt lat="48.6456" lon="7.13415">
        <ele>442.9</ele>
        <time>2020-08-12T08:00:36Z</time>
      </trkpt>
      <trkpt lat="48.64565" lon="7.13399">
        <ele>443.1</ele>
        <time>2020-08-12T08:00:38Z</time>
      </trkpt>
      <trkpt lat="48.64571" lon="7.13382">
        <ele>443</ele>
        <time>2020-08-12T08:00:40Z</time>
      </trkpt>
      <trkpt lat="48.64575" lon="7.13367">
        <ele>443.1</ele>
        <time>2020-08-12T08:00:42Z</time>
      </trkpt>
      <trkpt lat="48.64578" lon="7.13352">
        <ele>443.5</ele>
        <time>2020-08-12T08:00:44Z</time>
      </trkpt>
      <trkpt lat="48.64582" lon="7.13337">
        <ele>443.5</ele>
        <time>2020-08-12T08:00:46Z</time>
      </trkpt>
      <trkpt lat="48.64584" lon="7.13323">
        <ele>444.5</ele>
        <time>2020-08-12T08:00:48Z</time>
      </trkpt>
      <trkpt lat="48.64584" lon="7.13315">
        <ele>445.7</ele>
        <time>2020-08-12T08:00:50Z</time>
      </trkpt>
      <trkpt lat="48.64583" lon="7.13308">
        <ele>447.5</ele>
        <time>2020-08-12T08:00:56Z</time>
      </trkpt>
      <trkpt lat="48.64584" lon="7.13299">
        <ele>448.9</ele>
        <time>2020-08-12T08:01:03Z</time>
      </trkpt>
      <trkpt lat="48.64584" lon="7.1329">
        <ele>449.1</ele>
        <time>2020-08-12T08:01:05Z</time>
      </trkpt>
      <trkpt lat="48.64584" lon="7.13279">
        <ele>449.3</ele>
        <time>2020-08-12T08:01:07Z</time>
      </trkpt>
      <trkpt lat="48.64584" lon="7.13265">
        <ele>448.9</ele>
        <time>2020-08-12T08:01:09Z</time>
      </trkpt>
      <trkpt lat="48.64582" lon="7.1325">
        <ele>448.7</ele>
        <time>2020-08-12T08:01:11Z</time>
      </trkpt>
      <trkpt lat="48.6458" lon="7.13235">
        <ele>448.7</ele>
        <time>2020-08-12T08:01:13Z</time>
      </trkpt>
      <trkpt lat="48.64578" lon="7.1322">
        <ele>448.9</ele>
        <time>2020-08-12T08:01:15Z</time>
      </trkpt>
      <trkpt lat="48.64574" lon="7.13205">
        <ele>449.7</ele>
        <time>2020-08-12T08:01:17Z</time>
      </trkpt>
      <trkpt lat="48.64572" lon="7.13189">
        <ele>450</ele>
        <time>2020-08-12T08:01:19Z</time>
      </trkpt>
      <trkpt lat="48.64569" lon="7.13176">
        <ele>451.2</ele>
        <time>2020-08-12T08:01:21Z</time>
      </trkpt>
      <trkpt lat="48.64566" lon="7.13163">
        <ele>451.7</ele>
        <time>2020-08-12T08:01:23Z</time>
      </trkpt>
      <trkpt lat="48.64564" lon="7.13151">
        <ele>452.6</ele>
        <time>2020-08-12T08:01:25Z</time>
      </trkpt>
      <trkpt lat="48.6456" lon="7.1314">
        <ele>453.7</ele>
        <time>2020-08-12T08:01:27Z</time>
      </trkpt>
      <trkpt lat="48.64557" lon="7.13129">
        <ele>454.5</ele>
        <time>2020-08-12T08:01:29Z</time>
      </trkpt>
      <trkpt lat="48.64552" lon="7.1312">
        <ele>456.1</ele>
        <time>2020-08-12T08:01:31Z</time>
      </trkpt>
      <trkpt lat="48.64549" lon="7.13108">
        <ele>457.4</ele>
        <time>2020-08-12T08:01:33Z</time>
      </trkpt>
      <trkpt lat="48.64546" lon="7.13096">
        <ele>458.5</ele>
        <time>2020-08-12T08:01:35Z</time>
      </trkpt>
      <trkpt lat="48.64544" lon="7.13085">
        <ele>458.5</ele>
        <time>2020-08-12T08:01:37Z</time>
      </trkpt>
      <trkpt lat="48.64541" lon="7.13074">
        <ele>458.6</ele>
        <time>2020-08-12T08:01:39Z</time>
      </trkpt>
      <trkpt lat="48.64538" lon="7.13062">
        <ele>458.6</ele>
        <time>2020-08-12T08:01:41Z</time>
      </trkpt>
      <trkpt lat="48.64534" lon="7.1305">
        <ele>459</ele>
        <time>2020-08-12T08:01:43Z</time>
      </trkpt>
      <trkpt lat="48.64531" lon="7.13041">
        <ele>459.1</ele>
        <time>2020-08-12T08:01:45Z</time>
      </trkpt>
      <trkpt lat="48.64529" lon="7.13035">
        <ele>458.9</ele>
        <time>2020-08-12T08:01:49Z</time>
      </trkpt>
      <trkpt lat="48.64527" lon="7.13026">
        <ele>458.2</ele>
        <time>2020-08-12T08:01:54Z</time>
      </trkpt>
      <trkpt lat="48.64527" lon="7.13018">
        <ele>457.8</ele>
        <time>2020-08-12T08:01:56Z</time>
      </trkpt>
      <trkpt lat="48.64527" lon="7.13008">
        <ele>457.7</ele>
        <time>2020-08-12T08:01:58Z</time>
      </trkpt>
      <trkpt lat="48.64524" lon="7.12997">
        <ele>457.6</ele>
        <time>2020-08-12T08:02:00Z</time>
      </trkpt>
      <trkpt lat="48.64521" lon="7.12987">
        <ele>457.1</ele>
        <time>2020-08-12T08:02:02Z</time>
      </trkpt>
      <trkpt lat="48.64517" lon="7.12977">
        <ele>456.7</ele>
        <time>2020-08-12T08:02:04Z</time>
      </trkpt>
      <trkpt lat="48.64512" lon="7.12968">
        <ele>457.2</ele>
        <time>2020-08-12T08:02:06Z</time>
      </trkpt>
      <trkpt lat="48.64508" lon="7.12959">
        <ele>457</ele>
        <time>2020-08-12T08:02:08Z</time>
      </trkpt>
      <trkpt lat="48.64504" lon="7.12949">
        <ele>456.8</ele>
        <time>2020-08-12T08:02:10Z</time>
      </trkpt>
      <trkpt lat="48.645" lon="7.12938">
        <ele>456</ele>
        <time>2020-08-12T08:02:12Z</time>
      </trkpt>
      <trkpt lat="48.64495" lon="7.12927">
        <ele>455.4</ele>
        <time>2020-08-12T08:02:14Z</time>
      </trkpt>
      <trkpt lat="48.64489" lon="7.12917">
        <ele>455.1</ele>
        <time>2020-08-12T08:02:16Z</time>
      </trkpt>
      <trkpt lat="48.64484" lon="7.12905">
        <ele>454.9</ele>
        <time>2020-08-12T08:02:18Z</time>
      </trkpt>
      <trkpt lat="48.64479" lon="7.12893">
        <ele>455.1</ele>
        <time>2020-08-12T08:02:20Z</time>
      </trkpt>
      <trkpt lat="48.64474" lon="7.1288">
        <ele>455.8</ele>
        <time>2020-08-12T08:02:22Z</time>
      </trkpt>
      <trkpt lat="48.6447" lon="7.12869">
        <ele>456.1</ele>
        <time>2020-08-12T08:02:24Z</time>
      </trkpt>
      <trkpt lat="48.64466" lon="7.12858">
        <ele>456.1</ele>
        <time>2020-08-12T08:02:26Z</time>
      </trkpt>
      <trkpt lat="48.64463" lon="7.12846">
        <ele>456.1</ele>
        <time>2020-08-12T08:02:28Z</time>
      </trkpt>
      <trkpt lat="48.64461" lon="7.12834">
        <ele>456</ele>
        <time>2020-08-12T08:02:30Z</time>
      </trkpt>
      <trkpt lat="48.64457" lon="7.12822">
        <ele>456.4</ele>
        <time>2020-08-12T08:02:32Z</time>
      </trkpt>
      <trkpt lat="48.64454" lon="7.1281">
        <ele>456.3</ele>
        <time>2020-08-12T08:02:34Z</time>
      </trkpt>
      <trkpt lat="48.6445" lon="7.12798">
        <ele>457.2</ele>
        <time>2020-08-12T08:02:36Z</time>
      </trkpt>
      <trkpt lat="48.64447" lon="7.12785">
        <ele>457.7</ele>
        <time>2020-08-12T08:02:38Z</time>
      </trkpt>
      <trkpt lat="48.64445" lon="7.12773">
        <ele>458.4</ele>
        <time>2020-08-12T08:02:40Z</time>
      </trkpt>
      <trkpt lat="48.64442" lon="7.12761">
        <ele>458.3</ele>
        <time>2020-08-12T08:02:42Z</time>
      </trkpt>
      <trkpt lat="48.6444" lon="7.12748">
        <ele>458.4</ele>
        <time>2020-08-12T08:02:44Z</time>
      </trkpt>
      <trkpt lat="48.64438" lon="7.12736">
        <ele>457.8</ele>
        <time>2020-08-12T08:02:46Z</time>
      </trkpt>
      <trkpt lat="48.64435" lon="7.12724">
        <ele>457.7</ele>
        <time>2020-08-12T08:02:48Z</time>
      </trkpt>
      <trkpt lat="48.64434" lon="7.12712">
        <ele>457.5</ele>
        <time>2020-08-12T08:02:50Z</time>
      </trkpt>
      <trkpt lat="48.64432" lon="7.127">
        <ele>458</ele>
        <time>2020-08-12T08:02:52Z</time>
      </trkpt>
      <trkpt lat="48.64429" lon="7.12688">
        <ele>457.6</ele>
        <time>2020-08-12T08:02:54Z</time>
      </trkpt>
      <trkpt lat="48.64427" lon="7.12675">
        <ele>457.6</ele>
        <time>2020-08-12T08:02:56Z</time>
      </trkpt>
      <trkpt lat="48.64425" lon="7.12662">
        <ele>457.6</ele>
        <time>2020-08-12T08:02:58Z</time>
      </trkpt>
      <trkpt lat="48.64424" lon="7.1265">
        <ele>457.7</ele>
        <time>2020-08-12T08:03:00Z</time>
      </trkpt>
      <trkpt lat="48.64423" lon="7.12636">
        <ele>456.9</ele>
        <time>2020-08-12T08:03:02Z</time>
      </trkpt>
      <trkpt lat="48.64424" lon="7.12623">
        <ele>456.6</ele>
        <time>2020-08-12T08:03:04Z</time>
      </trkpt>
      <trkpt lat="48.64425" lon="7.1261">
        <ele>456.5</ele>
        <time>2020-08-12T08:03:06Z</time>
      </trkpt>
      <trkpt lat="48.64427" lon="7.12595">
        <ele>456.6</ele>
        <time>2020-08-12T08:03:08Z</time>
      </trkpt>
      <trkpt lat="48.64428" lon="7.12583">
        <ele>456.5</ele>
        <time>2020-08-12T08:03:10Z</time>
      </trkpt>
      <trkpt lat="48.64429" lon="7.12575">
        <ele>457.7</ele>
        <time>2020-08-12T08:03:14Z</time>
      </trkpt>
      <trkpt lat="48.64427" lon="7.12566">
        <ele>458.3</ele>
        <time>2020-08-12T08:03:20Z</time>
      </trkpt>
      <trkpt lat="48.64425" lon="7.12559">
        <ele>458.8</ele>
        <time>2020-08-12T08:03:22Z</time>
      </trkpt>
      <trkpt lat="48.64425" lon="7.12551">
        <ele>458.5</ele>
        <time>2020-08-12T08:03:25Z</time>
      </trkpt>
      <trkpt lat="48.64424" lon="7.12542">
        <ele>459.1</ele>
        <time>2020-08-12T08:03:27Z</time>
      </trkpt>
      <trkpt lat="48.64422" lon="7.12533">
        <ele>459.2</ele>
        <time>2020-08-12T08:03:29Z</time>
      </trkpt>
      <trkpt lat="48.6442" lon="7.12523">
        <ele>459.4</ele>
        <time>2020-08-12T08:03:31Z</time>
      </trkpt>
      <trkpt lat="48.64419" lon="7.12511">
        <ele>459.8</ele>
        <time>2020-08-12T08:03:33Z</time>
      </trkpt>
      <trkpt lat="48.64418" lon="7.12498">
        <ele>459.8</ele>
        <time>2020-08-12T08:03:35Z</time>
      </trkpt>
      <trkpt lat="48.64417" lon="7.12484">
        <ele>460.1</ele>
        <time>2020-08-12T08:03:37Z</time>
      </trkpt>
      <trkpt lat="48.64415" lon="7.12472">
        <ele>460.4</ele>
        <time>2020-08-12T08:03:39Z</time>
      </trkpt>
      <trkpt lat="48.64412" lon="7.12462">
        <ele>460.2</ele>
        <time>2020-08-12T08:03:41Z</time>
      </trkpt>
      <trkpt lat="48.64408" lon="7.12453">
        <ele>460.1</ele>
        <time>2020-08-12T08:03:43Z</time>
      </trkpt>
      <trkpt lat="48.64405" lon="7.12444">
        <ele>460.7</ele>
        <time>2020-08-12T08:03:45Z</time>
      </trkpt>
      <trkpt lat="48.64404" lon="7.12434">
        <ele>460.7</ele>
        <time>2020-08-12T08:03:47Z</time>
      </trkpt>
      <trkpt lat="48.64403" lon="7.12423">
        <ele>460.6</ele>
        <time>2020-08-12T08:03:49Z</time>
      </trkpt>
      <trkpt lat="48.64402" lon="7.12413">
        <ele>461.6</ele>
        <time>2020-08-12T08:03:51Z</time>
      </trkpt>
      <trkpt lat="48.644" lon="7.12405">
        <ele>461.8</ele>
        <time>2020-08-12T08:03:53Z</time>
      </trkpt>
      <trkpt lat="48.64396" lon="7.12398">
        <ele>462.6</ele>
        <time>2020-08-12T08:03:55Z</time>
      </trkpt>
      <trkpt lat="48.64392" lon="7.12389">
        <ele>463.2</ele>
        <time>2020-08-12T08:03:57Z</time>
      </trkpt>
      <trkpt lat="48.64389" lon="7.12378">
        <ele>463</ele>
        <time>2020-08-12T08:03:59Z</time>
      </trkpt>
      <trkpt lat="48.64388" lon="7.12367">
        <ele>463</ele>
        <time>2020-08-12T08:04:01Z</time>
      </trkpt>
      <trkpt lat="48.64384" lon="7.12354">
        <ele>462.8</ele>
        <time>2020-08-12T08:04:03Z</time>
      </trkpt>
      <trkpt lat="48.64381" lon="7.12341">
        <ele>462.7</ele>
        <time>2020-08-12T08:04:05Z</time>
      </trkpt>
      <trkpt lat="48.64378" lon="7.1233">
        <ele>461.9</ele>
        <time>2020-08-12T08:04:07Z</time>
      </trkpt>
      <trkpt lat="48.64376" lon="7.1232">
        <ele>461.4</ele>
        <time>2020-08-12T08:04:09Z</time>
      </trkpt>
      <trkpt lat="48.64373" lon="7.12309">
        <ele>461.2</ele>
        <time>2020-08-12T08:04:11Z</time>
      </trkpt>
      <trkpt lat="48.6437" lon="7.12299">
        <ele>459.7</ele>
        <time>2020-08-12T08:04:13Z</time>
      </trkpt>
      <trkpt lat="48.64365" lon="7.1229">
        <ele>458.7</ele>
        <time>2020-08-12T08:04:15Z</time>
      </trkpt>
      <trkpt lat="48.64359" lon="7.1228">
        <ele>457.6</ele>
        <time>2020-08-12T08:04:17Z</time>
      </trkpt>
      <trkpt lat="48.64351" lon="7.12272">
        <ele>455.4</ele>
        <time>2020-08-12T08:04:19Z</time>
      </trkpt>
      <trkpt lat="48.64346" lon="7.12266">
        <ele>453.9</ele>
        <time>2020-08-12T08:04:21Z</time>
      </trkpt>
      <trkpt lat="48.64342" lon="7.12263">
        <ele>451.5</ele>
        <time>2020-08-12T08:04:26Z</time>
      </trkpt>
      <trkpt lat="48.64337" lon="7.12258">
        <ele>452</ele>
        <time>2020-08-12T08:04:32Z</time>
      </trkpt>
      <trkpt lat="48.64332" lon="7.12253">
        <ele>452.5</ele>
        <time>2020-08-12T08:04:34Z</time>
      </trkpt>
      <trkpt lat="48.64327" lon="7.12246">
        <ele>452.6</ele>
        <time>2020-08-12T08:04:36Z</time>
      </trkpt>
      <trkpt lat="48.6432" lon="7.12237">
        <ele>452.2</ele>
        <time>2020-08-12T08:04:38Z</time>
      </trkpt>
      <trkpt lat="48.64313" lon="7.12227">
        <ele>451.8</ele>
        <time>2020-08-12T08:04:40Z</time>
      </trkpt>
      <trkpt lat="48.64307" lon="7.12218">
        <ele>451.2</ele>
        <time>2020-08-12T08:04:42Z</time>
      </trkpt>
      <trkpt lat="48.64302" lon="7.12209">
        <ele>449.8</ele>
        <time>2020-08-12T08:04:44Z</time>
      </trkpt>
      <trkpt lat="48.64296" lon="7.12201">
        <ele>449.6</ele>
        <time>2020-08-12T08:04:46Z</time>
      </trkpt>
      <trkpt lat="48.64291" lon="7.12191">
        <ele>449.4</ele>
        <time>2020-08-12T08:04:48Z</time>
      </trkpt>
      <trkpt lat="48.64285" lon="7.12182">
        <ele>449.3</ele>
        <time>2020-08-12T08:04:50Z</time>
      </trkpt>
      <trkpt lat="48.64278" lon="7.12173">
        <ele>449.6</ele>
        <time>2020-08-12T08:04:52Z</time>
      </trkpt>
      <trkpt lat="48.6427" lon="7.12164">
        <ele>450.1</ele>
        <time>2020-08-12T08:04:54Z</time>
      </trkpt>
      <trkpt lat="48.64262" lon="7.12155">
        <ele>450.1</ele>
        <time>2020-08-12T08:04:56Z</time>
      </trkpt>
      <trkpt lat="48.64255" lon="7.12146">
        <ele>449.7</ele>
        <time>2020-08-12T08:04:58Z</time>
      </trkpt>
      <trkpt lat="48.64248" lon="7.12136">
        <ele>450</ele>
        <time>2020-08-12T08:05:00Z</time>
      </trkpt>
      <trkpt lat="48.6424" lon="7.12125">
        <ele>449.6</ele>
        <time>2020-08-12T08:05:02Z</time>
      </trkpt>
      <trkpt lat="48.64233" lon="7.12115">
        <ele>449.3</ele>
        <time>2020-08-12T08:05:04Z</time>
      </trkpt>
      <trkpt lat="48.64225" lon="7.12104">
        <ele>449.1</ele>
        <time>2020-08-12T08:05:06Z</time>
      </trkpt>
      <trkpt lat="48.64218" lon="7.12095">
        <ele>449.1</ele>
        <time>2020-08-12T08:05:08Z</time>
      </trkpt>
      <trkpt lat="48.64211" lon="7.12085">
        <ele>448.5</ele>
        <time>2020-08-12T08:05:10Z</time>
      </trkpt>
      <trkpt lat="48.64203" lon="7.12076">
        <ele>447.9</ele>
        <time>2020-08-12T08:05:12Z</time>
      </trkpt>
      <trkpt lat="48.64195" lon="7.12066">
        <ele>448.6</ele>
        <time>2020-08-12T08:05:14Z</time>
      </trkpt>
      <trkpt lat="48.64187" lon="7.12056">
        <ele>448.7</ele>
        <time>2020-08-12T08:05:16Z</time>
      </trkpt>
      <trkpt lat="48.64178" lon="7.12047">
        <ele>449.4</ele>
        <time>2020-08-12T08:05:18Z</time>
      </trkpt>
      <trkpt lat="48.64171" lon="7.12038">
        <ele>449.8</ele>
        <time>2020-08-12T08:05:20Z</time>
      </trkpt>
      <trkpt lat="48.64164" lon="7.12029">
        <ele>450.1</ele>
        <time>2020-08-12T08:05:22Z</time>
      </trkpt>
      <trkpt lat="48.64157" lon="7.1202">
        <ele>450</ele>
        <time>2020-08-12T08:05:24Z</time>
      </trkpt>
      <trkpt lat="48.6415" lon="7.12011">
        <ele>450.1</ele>
        <time>2020-08-12T08:05:26Z</time>
      </trkpt>
      <trkpt lat="48.64144" lon="7.12001">
        <ele>450</ele>
        <time>2020-08-12T08:05:28Z</time>
      </trkpt>
      <trkpt lat="48.64137" lon="7.1199">
        <ele>450.6</ele>
        <time>2020-08-12T08:05:30Z</time>
      </trkpt>
      <trkpt lat="48.64131" lon="7.11979">
        <ele>451.4</ele>
        <time>2020-08-12T08:05:32Z</time>
      </trkpt>
      <trkpt lat="48.64125" lon="7.1197">
        <ele>451.2</ele>
        <time>2020-08-12T08:05:34Z</time>
      </trkpt>
      <trkpt lat="48.64119" lon="7.11958">
        <ele>451.3</ele>
        <time>2020-08-12T08:05:36Z</time>
      </trkpt>
      <trkpt lat="48.64112" lon="7.11947">
        <ele>451.1</ele>
        <time>2020-08-12T08:05:38Z</time>
      </trkpt>
      <trkpt lat="48.64103" lon="7.11937">
        <ele>451.3</ele>
        <time>2020-08-12T08:05:40Z</time>
      </trkpt>
      <trkpt lat="48.64094" lon="7.11928">
        <ele>452</ele>
        <time>2020-08-12T08:05:42Z</time>
      </trkpt>
      <trkpt lat="48.64086" lon="7.1192">
        <ele>452.3</ele>
        <time>2020-08-12T08:05:44Z</time>
      </trkpt>
      <trkpt lat="48.64078" lon="7.11912">
        <ele>452.3</ele>
        <time>2020-08-12T08:05:46Z</time>
      </trkpt>
      <trkpt lat="48.6407" lon="7.11904">
        <ele>451.6</ele>
        <time>2020-08-12T08:05:48Z</time>
      </trkpt>
      <trkpt lat="48.64063" lon="7.11895">
        <ele>450.7</ele>
        <time>2020-08-12T08:05:50Z</time>
      </trkpt>
      <trkpt lat="48.64055" lon="7.11885">
        <ele>450.1</ele>
        <time>2020-08-12T08:05:52Z</time>
      </trkpt>
      <trkpt lat="48.64047" lon="7.11873">
        <ele>449.8</ele>
        <time>2020-08-12T08:05:54Z</time>
      </trkpt>
      <trkpt lat="48.64039" lon="7.11862">
        <ele>449.1</ele>
        <time>2020-08-12T08:05:56Z</time>
      </trkpt>
      <trkpt lat="48.64031" lon="7.1185">
        <ele>448.9</ele>
        <time>2020-08-12T08:05:58Z</time>
      </trkpt>
      <trkpt lat="48.64024" lon="7.11837">
        <ele>448.7</ele>
        <time>2020-08-12T08:06:00Z</time>
      </trkpt>
      <trkpt lat="48.64017" lon="7.11824">
        <ele>448.6</ele>
        <time>2020-08-12T08:06:02Z</time>
      </trkpt>
      <trkpt lat="48.64008" lon="7.11814">
        <ele>448.1</ele>
        <time>2020-08-12T08:06:04Z</time>
      </trkpt>
      <trkpt lat="48.63999" lon="7.11804">
        <ele>447.1</ele>
        <time>2020-08-12T08:06:06Z</time>
      </trkpt>
      <trkpt lat="48.6399" lon="7.11793">
        <ele>446.5</ele>
        <time>2020-08-12T08:06:08Z</time>
      </trkpt>
      <trkpt lat="48.63981" lon="7.11781">
        <ele>446</ele>
        <time>2020-08-12T08:06:10Z</time>
      </trkpt>
      <trkpt lat="48.63971" lon="7.1177">
        <ele>445.5</ele>
        <time>2020-08-12T08:06:12Z</time>
      </trkpt>
      <trkpt lat="48.63961" lon="7.1176">
        <ele>445.2</ele>
        <time>2020-08-12T08:06:14Z</time>
      </trkpt>
      <trkpt lat="48.63953" lon="7.11749">
        <ele>444.6</ele>
        <time>2020-08-12T08:06:16Z</time>
      </trkpt>
      <trkpt lat="48.63946" lon="7.11741">
        <ele>443.9</ele>
        <time>2020-08-12T08:06:18Z</time>
      </trkpt>
      <trkpt lat="48.6394" lon="7.11733">
        <ele>443.7</ele>
        <time>2020-08-12T08:06:20Z</time>
      </trkpt>
      <trkpt lat="48.63932" lon="7.11725">
        <ele>443.5</ele>
        <time>2020-08-12T08:06:22Z</time>
      </trkpt>
      <trkpt lat="48.63923" lon="7.11718">
        <ele>443.8</ele>
        <time>2020-08-12T08:06:24Z</time>
      </trkpt>
      <trkpt lat="48.63914" lon="7.11712">
        <ele>443.7</ele>
        <time>2020-08-12T08:06:26Z</time>
      </trkpt>
      <trkpt lat="48.63907" lon="7.11706">
        <ele>443.4</ele>
        <time>2020-08-12T08:06:28Z</time>
      </trkpt>
      <trkpt lat="48.63898" lon="7.11701">
        <ele>442.9</ele>
        <time>2020-08-12T08:06:30Z</time>
      </trkpt>
      <trkpt lat="48.6389" lon="7.11695">
        <ele>442.6</ele>
        <time>2020-08-12T08:06:32Z</time>
      </trkpt>
      <trkpt lat="48.6388" lon="7.1169">
        <ele>441.7</ele>
        <time>2020-08-12T08:06:34Z</time>
      </trkpt>
      <trkpt lat="48.63871" lon="7.11682">
        <ele>440.8</ele>
        <time>2020-08-12T08:06:36Z</time>
      </trkpt>
      <trkpt lat="48.63861" lon="7.11675">
        <ele>440.2</ele>
        <time>2020-08-12T08:06:38Z</time>
      </trkpt>
      <trkpt lat="48.63852" lon="7.11667">
        <ele>439.3</ele>
        <time>2020-08-12T08:06:40Z</time>
      </trkpt>
      <trkpt lat="48.63841" lon="7.11659">
        <ele>439.3</ele>
        <time>2020-08-12T08:06:42Z</time>
      </trkpt>
      <trkpt lat="48.63831" lon="7.1165">
        <ele>439</ele>
        <time>2020-08-12T08:06:44Z</time>
      </trkpt>
      <trkpt lat="48.63823" lon="7.11639">
        <ele>438.5</ele>
        <time>2020-08-12T08:06:46Z</time>
      </trkpt>
      <trkpt lat="48.63813" lon="7.11629">
        <ele>438.7</ele>
        <time>2020-08-12T08:06:48Z</time>
      </trkpt>
      <trkpt lat="48.63803" lon="7.11619">
        <ele>437.8</ele>
        <time>2020-08-12T08:06:50Z</time>
      </trkpt>
      <trkpt lat="48.63793" lon="7.1161">
        <ele>437.5</ele>
        <time>2020-08-12T08:06:52Z</time>
      </trkpt>
      <trkpt lat="48.63784" lon="7.11599">
        <ele>437</ele>
        <time>2020-08-12T08:06:54Z</time>
      </trkpt>
      <trkpt lat="48.63774" lon="7.1159">
        <ele>436.8</ele>
        <time>2020-08-12T08:06:56Z</time>
      </trkpt>
      <trkpt lat="48.63764" lon="7.11582">
        <ele>436.1</ele>
        <time>2020-08-12T08:06:58Z</time>
      </trkpt>
      <trkpt lat="48.63753" lon="7.11577">
        <ele>435.9</ele>
        <time>2020-08-12T08:07:00Z</time>
      </trkpt>
      <trkpt lat="48.63741" lon="7.11576">
        <ele>435.6</ele>
        <time>2020-08-12T08:07:02Z</time>
      </trkpt>
      <trkpt lat="48.63731" lon="7.11575">
        <ele>434.5</ele>
        <time>2020-08-12T08:07:04Z</time>
      </trkpt>
      <trkpt lat="48.6372" lon="7.11574">
        <ele>434.2</ele>
        <time>2020-08-12T08:07:06Z</time>
      </trkpt>
      <trkpt lat="48.63709" lon="7.11569">
        <ele>434.5</ele>
        <time>2020-08-12T08:07:08Z</time>
      </trkpt>
      <trkpt lat="48.63698" lon="7.11563">
        <ele>435.2</ele>
        <time>2020-08-12T08:07:10Z</time>
      </trkpt>
      <trkpt lat="48.63687" lon="7.11558">
        <ele>436.4</ele>
        <time>2020-08-12T08:07:12Z</time>
      </trkpt>
      <trkpt lat="48.63675" lon="7.11553">
        <ele>437.1</ele>
        <time>2020-08-12T08:07:14Z</time>
      </trkpt>
      <trkpt lat="48.63663" lon="7.11549">
        <ele>437.6</ele>
        <time>2020-08-12T08:07:16Z</time>
      </trkpt>
      <trkpt lat="48.63652" lon="7.11543">
        <ele>438</ele>
        <time>2020-08-12T08:07:18Z</time>
      </trkpt>
      <trkpt lat="48.63642" lon="7.11538">
        <ele>438.3</ele>
        <time>2020-08-12T08:07:20Z</time>
      </trkpt>
      <trkpt lat="48.63632" lon="7.11536">
        <ele>438.3</ele>
        <time>2020-08-12T08:07:22Z</time>
      </trkpt>
      <trkpt lat="48.63623" lon="7.11534">
        <ele>438.4</ele>
        <time>2020-08-12T08:07:24Z</time>
      </trkpt>
      <trkpt lat="48.63613" lon="7.11534">
        <ele>438</ele>
        <time>2020-08-12T08:07:26Z</time>
      </trkpt>
      <trkpt lat="48.63602" lon="7.11532">
        <ele>437.8</ele>
        <time>2020-08-12T08:07:28Z</time>
      </trkpt>
      <trkpt lat="48.63591" lon="7.1153">
        <ele>437.3</ele>
        <time>2020-08-12T08:07:30Z</time>
      </trkpt>
      <trkpt lat="48.63581" lon="7.11528">
        <ele>437.2</ele>
        <time>2020-08-12T08:07:32Z</time>
      </trkpt>
      <trkpt lat="48.6357" lon="7.11526">
        <ele>437.1</ele>
        <time>2020-08-12T08:07:34Z</time>
      </trkpt>
      <trkpt lat="48.6356" lon="7.11524">
        <ele>437.6</ele>
        <time>2020-08-12T08:07:36Z</time>
      </trkpt>
      <trkpt lat="48.6355" lon="7.11522">
        <ele>438</ele>
        <time>2020-08-12T08:07:38Z</time>
      </trkpt>
      <trkpt lat="48.63541" lon="7.11522">
        <ele>438.4</ele>
        <time>2020-08-12T08:07:40Z</time>
      </trkpt>
      <trkpt lat="48.63532" lon="7.1152">
        <ele>438.9</ele>
        <time>2020-08-12T08:07:42Z</time>
      </trkpt>
      <trkpt lat="48.63524" lon="7.11519">
        <ele>439.4</ele>
        <time>2020-08-12T08:07:44Z</time>
      </trkpt>
      <trkpt lat="48.63515" lon="7.11521">
        <ele>439.3</ele>
        <time>2020-08-12T08:07:46Z</time>
      </trkpt>
      <trkpt lat="48.63506" lon="7.11522">
        <ele>439.1</ele>
        <time>2020-08-12T08:07:48Z</time>
      </trkpt>
      <trkpt lat="48.63497" lon="7.11525">
        <ele>438.8</ele>
        <time>2020-08-12T08:07:50Z</time>
      </trkpt>
      <trkpt lat="48.63489" lon="7.1153">
        <ele>439</ele>
        <time>2020-08-12T08:07:52Z</time>
      </trkpt>
      <trkpt lat="48.6348" lon="7.11535">
        <ele>438.9</ele>
        <time>2020-08-12T08:07:54Z</time>
      </trkpt>
      <trkpt lat="48.63471" lon="7.11539">
        <ele>439.2</ele>
        <time>2020-08-12T08:07:56Z</time>
      </trkpt>
      <trkpt lat="48.63462" lon="7.11541">
        <ele>439.4</ele>
        <time>2020-08-12T08:07:58Z</time>
      </trkpt>
      <trkpt lat="48.63453" lon="7.11545">
        <ele>439.6</ele>
        <time>2020-08-12T08:08:00Z</time>
      </trkpt>
      <trkpt lat="48.63446" lon="7.11549">
        <ele>439.9</ele>
        <time>2020-08-12T08:08:02Z</time>
      </trkpt>
      <trkpt lat="48.63442" lon="7.11553">
        <ele>440.1</ele>
        <time>2020-08-12T08:08:06Z</time>
      </trkpt>
      <trkpt lat="48.63435" lon="7.11557">
        <ele>440.1</ele>
        <time>2020-08-12T08:08:17Z</time>
      </trkpt>
      <trkpt lat="48.63429" lon="7.11561">
        <ele>440.5</ele>
        <time>2020-08-12T08:08:19Z</time>
      </trkpt>
      <trkpt lat="48.63422" lon="7.11564">
        <ele>440.7</ele>
        <time>2020-08-12T08:08:21Z</time>
      </trkpt>
      <trkpt lat="48.63415" lon="7.11566">
        <ele>440.8</ele>
        <time>2020-08-12T08:08:23Z</time>
      </trkpt>
      <trkpt lat="48.63407" lon="7.11566">
        <ele>441</ele>
        <time>2020-08-12T08:08:25Z</time>
      </trkpt>
      <trkpt lat="48.63398" lon="7.11567">
        <ele>440.9</ele>
        <time>2020-08-12T08:08:27Z</time>
      </trkpt>
      <trkpt lat="48.63389" lon="7.11569">
        <ele>440.6</ele>
        <time>2020-08-12T08:08:29Z</time>
      </trkpt>
      <trkpt lat="48.63381" lon="7.11573">
        <ele>440.1</ele>
        <time>2020-08-12T08:08:31Z</time>
      </trkpt>
      <trkpt lat="48.63373" lon="7.11576">
        <ele>439.6</ele>
        <time>2020-08-12T08:08:33Z</time>
      </trkpt>
      <trkpt lat="48.63366" lon="7.11579">
        <ele>438.8</ele>
        <time>2020-08-12T08:08:35Z</time>
      </trkpt>
      <trkpt lat="48.63359" lon="7.11582">
        <ele>438.7</ele>
        <time>2020-08-12T08:08:37Z</time>
      </trkpt>
      <trkpt lat="48.63351" lon="7.11585">
        <ele>438.2</ele>
        <time>2020-08-12T08:08:39Z</time>
      </trkpt>
      <trkpt lat="48.63343" lon="7.11585">
        <ele>437.1</ele>
        <time>2020-08-12T08:08:41Z</time>
      </trkpt>
      <trkpt lat="48.63332" lon="7.11586">
        <ele>436.9</ele>
        <time>2020-08-12T08:08:43Z</time>
      </trkpt>
      <trkpt lat="48.63322" lon="7.11583">
        <ele>436.3</ele>
        <time>2020-08-12T08:08:45Z</time>
      </trkpt>
      <trkpt lat="48.63313" lon="7.11576">
        <ele>435.9</ele>
        <time>2020-08-12T08:08:47Z</time>
      </trkpt>
      <trkpt lat="48.63306" lon="7.11566">
        <ele>435.2</ele>
        <time>2020-08-12T08:08:49Z</time>
      </trkpt>
      <trkpt lat="48.633" lon="7.11555">
        <ele>435.3</ele>
        <time>2020-08-12T08:08:51Z</time>
      </trkpt>
      <trkpt lat="48.63295" lon="7.11544">
        <ele>435.2</ele>
        <time>2020-08-12T08:08:53Z</time>
      </trkpt>
      <trkpt lat="48.63289" lon="7.11531">
        <ele>435.1</ele>
        <time>2020-08-12T08:08:55Z</time>
      </trkpt>
      <trkpt lat="48.63285" lon="7.11519">
        <ele>434.9</ele>
        <time>2020-08-12T08:08:57Z</time>
      </trkpt>
      <trkpt lat="48.6328" lon="7.11505">
        <ele>434.8</ele>
        <time>2020-08-12T08:08:59Z</time>
      </trkpt>
      <trkpt lat="48.63276" lon="7.11491">
        <ele>434.7</ele>
        <time>2020-08-12T08:09:01Z</time>
      </trkpt>
      <trkpt lat="48.63273" lon="7.11478">
        <ele>434.3</ele>
        <time>2020-08-12T08:09:03Z</time>
      </trkpt>
      <trkpt lat="48.63271" lon="7.11465">
        <ele>433.8</ele>
        <time>2020-08-12T08:09:05Z</time>
      </trkpt>
      <trkpt lat="48.6327" lon="7.11451">
        <ele>432.9</ele>
        <time>2020-08-12T08:09:07Z</time>
      </trkpt>
      <trkpt lat="48.63272" lon="7.11437">
        <ele>432</ele>
        <time>2020-08-12T08:09:09Z</time>
      </trkpt>
      <trkpt lat="48.63275" lon="7.11421">
        <ele>430.8</ele>
        <time>2020-08-12T08:09:11Z</time>
      </trkpt>
      <trkpt lat="48.63278" lon="7.11406">
        <ele>429.9</ele>
        <time>2020-08-12T08:09:13Z</time>
      </trkpt>
      <trkpt lat="48.63282" lon="7.1139">
        <ele>428.4</ele>
        <time>2020-08-12T08:09:15Z</time>
      </trkpt>
      <trkpt lat="48.63287" lon="7.11376">
        <ele>427.2</ele>
        <time>2020-08-12T08:09:17Z</time>
      </trkpt>
      <trkpt lat="48.63292" lon="7.11363">
        <ele>425.5</ele>
        <time>2020-08-12T08:09:19Z</time>
      </trkpt>
      <trkpt lat="48.63298" lon="7.11352">
        <ele>424.3</ele>
        <time>2020-08-12T08:09:21Z</time>
      </trkpt>
      <trkpt lat="48.633" lon="7.11341">
        <ele>423.1</ele>
        <time>2020-08-12T08:09:23Z</time>
      </trkpt>
      <trkpt lat="48.63303" lon="7.11336">
        <ele>420.9</ele>
        <time>2020-08-12T08:09:31Z</time>
      </trkpt>
      <trkpt lat="48.63299" lon="7.11342">
        <ele>418.4</ele>
        <time>2020-08-12T08:09:42Z</time>
      </trkpt>
      <trkpt lat="48.63294" lon="7.11347">
        <ele>418.3</ele>
        <time>2020-08-12T08:09:44Z</time>
      </trkpt>
      <trkpt lat="48.63288" lon="7.11354">
        <ele>418.2</ele>
        <time>2020-08-12T08:09:46Z</time>
      </trkpt>
      <trkpt lat="48.63279" lon="7.11365">
        <ele>417.7</ele>
        <time>2020-08-12T08:09:48Z</time>
      </trkpt>
      <trkpt lat="48.6327" lon="7.11378">
        <ele>417.4</ele>
        <time>2020-08-12T08:09:50Z</time>
      </trkpt>
      <trkpt lat="48.6326" lon="7.11394">
        <ele>417.1</ele>
        <time>2020-08-12T08:09:52Z</time>
      </trkpt>
      <trkpt lat="48.6325" lon="7.11409">
        <ele>417</ele>
        <time>2020-08-12T08:09:54Z</time>
      </trkpt>
      <trkpt lat="48.6324" lon="7.11425">
        <ele>417</ele>
        <time>2020-08-12T08:09:56Z</time>
      </trkpt>
      <trkpt lat="48.63229" lon="7.1144">
        <ele>416.4</ele>
        <time>2020-08-12T08:09:58Z</time>
      </trkpt>
      <trkpt lat="48.6322" lon="7.11455">
        <ele>417.2</ele>
        <time>2020-08-12T08:10:00Z</time>
      </trkpt>
      <trkpt lat="48.63212" lon="7.11473">
        <ele>416.8</ele>
        <time>2020-08-12T08:10:02Z</time>
      </trkpt>
      <trkpt lat="48.63208" lon="7.11493">
        <ele>415.9</ele>
        <time>2020-08-12T08:10:04Z</time>
      </trkpt>
      <trkpt lat="48.63207" lon="7.11513">
        <ele>415.1</ele>
        <time>2020-08-12T08:10:06Z</time>
      </trkpt>
      <trkpt lat="48.63208" lon="7.11532">
        <ele>413.9</ele>
        <time>2020-08-12T08:10:08Z</time>
      </trkpt>
      <trkpt lat="48.6321" lon="7.11553">
        <ele>413.1</ele>
        <time>2020-08-12T08:10:10Z</time>
      </trkpt>
      <trkpt lat="48.63214" lon="7.11571">
        <ele>412</ele>
        <time>2020-08-12T08:10:12Z</time>
      </trkpt>
      <trkpt lat="48.63219" lon="7.11589">
        <ele>411</ele>
        <time>2020-08-12T08:10:14Z</time>
      </trkpt>
      <trkpt lat="48.63227" lon="7.11605">
        <ele>409.9</ele>
        <time>2020-08-12T08:10:16Z</time>
      </trkpt>
      <trkpt lat="48.63236" lon="7.11619">
        <ele>409.3</ele>
        <time>2020-08-12T08:10:18Z</time>
      </trkpt>
      <trkpt lat="48.63246" lon="7.11633">
        <ele>408.7</ele>
        <time>2020-08-12T08:10:20Z</time>
      </trkpt>
      <trkpt lat="48.63257" lon="7.11646">
        <ele>408.1</ele>
        <time>2020-08-12T08:10:22Z</time>
      </trkpt>
      <trkpt lat="48.63267" lon="7.11657">
        <ele>407.6</ele>
        <time>2020-08-12T08:10:24Z</time>
      </trkpt>
      <trkpt lat="48.63277" lon="7.11667">
        <ele>406.9</ele>
        <time>2020-08-12T08:10:26Z</time>
      </trkpt>
      <trkpt lat="48.63286" lon="7.11676">
        <ele>406.8</ele>
        <time>2020-08-12T08:10:28Z</time>
      </trkpt>
      <trkpt lat="48.63296" lon="7.11683">
        <ele>406.4</ele>
        <time>2020-08-12T08:10:30Z</time>
      </trkpt>
      <trkpt lat="48.63306" lon="7.1169">
        <ele>406.2</ele>
        <time>2020-08-12T08:10:32Z</time>
      </trkpt>
      <trkpt lat="48.63316" lon="7.11698">
        <ele>405.8</ele>
        <time>2020-08-12T08:10:34Z</time>
      </trkpt>
      <trkpt lat="48.63326" lon="7.11706">
        <ele>405.4</ele>
        <time>2020-08-12T08:10:36Z</time>
      </trkpt>
      <trkpt lat="48.63335" lon="7.11713">
        <ele>405.3</ele>
        <time>2020-08-12T08:10:38Z</time>
      </trkpt>
      <trkpt lat="48.63345" lon="7.1172">
        <ele>405.4</ele>
        <time>2020-08-12T08:10:40Z</time>
      </trkpt>
      <trkpt lat="48.63354" lon="7.11726">
        <ele>406</ele>
        <time>2020-08-12T08:10:42Z</time>
      </trkpt>
      <trkpt lat="48.63363" lon="7.11732">
        <ele>406.5</ele>
        <time>2020-08-12T08:10:44Z</time>
      </trkpt>
      <trkpt lat="48.63372" lon="7.11738">
        <ele>406.4</ele>
        <time>2020-08-12T08:10:46Z</time>
      </trkpt>
      <trkpt lat="48.63381" lon="7.11745">
        <ele>406.4</ele>
        <time>2020-08-12T08:10:48Z</time>
      </trkpt>
      <trkpt lat="48.63391" lon="7.11754">
        <ele>406.3</ele>
        <time>2020-08-12T08:10:50Z</time>
      </trkpt>
      <trkpt lat="48.634" lon="7.11761">
        <ele>406.2</ele>
        <time>2020-08-12T08:10:52Z</time>
      </trkpt>
    </trkseg>
  </trk>
  <trk>
    <name><![CDATA[secteur Saverne - Dabo - Petite Pierre_10]]></name>
    <trkseg>
      <trkpt lat="48.63396" lon="7.11757">
        <ele>406.6</ele>
        <time>2020-08-12T08:14:50Z</time>
      </trkpt>
      <trkpt lat="48.63396" lon="7.11757">
        <ele>406.6</ele>
        <time>2020-08-12T08:14:50Z</time>
      </trkpt>
      <trkpt lat="48.63396" lon="7.11757">
        <ele>406.6</ele>
        <time>2020-08-12T08:14:50Z</time>
      </trkpt>
      <trkpt lat="48.63396" lon="7.11757">
        <ele>406.6</ele>
        <time>2020-08-12T08:14:50Z</time>
      </trkpt>
      <trkpt lat="48.63396" lon="7.11757">
        <ele>406.6</ele>
        <time>2020-08-12T08:14:50Z</time>
      </trkpt>
      <trkpt lat="48.63396" lon="7.11757">
        <ele>406.6</ele>
        <time>2020-08-12T08:14:50Z</time>
      </trkpt>
      <trkpt lat="48.63396" lon="7.11757">
        <ele>406.6</ele>
        <time>2020-08-12T08:14:50Z</time>
      </trkpt>
      <trkpt lat="48.63396" lon="7.11757">
        <ele>406.6</ele>
        <time>2020-08-12T08:14:50Z</time>
      </trkpt>
      <trkpt lat="48.63392" lon="7.11754">
        <ele>406.2</ele>
        <time>2020-08-12T08:15:01Z</time>
      </trkpt>
      <trkpt lat="48.63386" lon="7.11753">
        <ele>405.2</ele>
        <time>2020-08-12T08:15:05Z</time>
      </trkpt>
      <trkpt lat="48.63382" lon="7.11751">
        <ele>404.9</ele>
        <time>2020-08-12T08:15:07Z</time>
      </trkpt>
      <trkpt lat="48.63377" lon="7.1175">
        <ele>404.4</ele>
        <time>2020-08-12T08:15:09Z</time>
      </trkpt>
      <trkpt lat="48.63372" lon="7.1175">
        <ele>404</ele>
        <time>2020-08-12T08:15:11Z</time>
      </trkpt>
      <trkpt lat="48.63367" lon="7.11751">
        <ele>403.6</ele>
        <time>2020-08-12T08:15:13Z</time>
      </trkpt>
      <trkpt lat="48.6336" lon="7.11752">
        <ele>402.9</ele>
        <time>2020-08-12T08:15:15Z</time>
      </trkpt>
      <trkpt lat="48.63354" lon="7.11751">
        <ele>401</ele>
        <time>2020-08-12T08:15:17Z</time>
      </trkpt>
      <trkpt lat="48.63347" lon="7.11751">
        <ele>399.5</ele>
        <time>2020-08-12T08:15:19Z</time>
      </trkpt>
      <trkpt lat="48.6334" lon="7.11749">
        <ele>397.5</ele>
        <time>2020-08-12T08:15:21Z</time>
      </trkpt>
      <trkpt lat="48.63333" lon="7.11749">
        <ele>395.5</ele>
        <time>2020-08-12T08:15:23Z</time>
      </trkpt>
      <trkpt lat="48.63326" lon="7.11749">
        <ele>393.5</ele>
        <time>2020-08-12T08:15:25Z</time>
      </trkpt>
      <trkpt lat="48.63318" lon="7.1175">
        <ele>392.1</ele>
        <time>2020-08-12T08:15:27Z</time>
      </trkpt>
      <trkpt lat="48.63308" lon="7.11752">
        <ele>391.6</ele>
        <time>2020-08-12T08:15:29Z</time>
      </trkpt>
      <trkpt lat="48.63299" lon="7.1175">
        <ele>390.8</ele>
        <time>2020-08-12T08:15:31Z</time>
      </trkpt>
      <trkpt lat="48.63292" lon="7.11748">
        <ele>389.8</ele>
        <time>2020-08-12T08:15:33Z</time>
      </trkpt>
      <trkpt lat="48.63285" lon="7.11746">
        <ele>388.9</ele>
        <time>2020-08-12T08:15:35Z</time>
      </trkpt>
      <trkpt lat="48.63279" lon="7.11746">
        <ele>388.7</ele>
        <time>2020-08-12T08:15:37Z</time>
      </trkpt>
      <trkpt lat="48.63272" lon="7.11745">
        <ele>387.7</ele>
        <time>2020-08-12T08:15:39Z</time>
      </trkpt>
      <trkpt lat="48.63266" lon="7.11745">
        <ele>387.4</ele>
        <time>2020-08-12T08:15:41Z</time>
      </trkpt>
      <trkpt lat="48.63258" lon="7.11742">
        <ele>391.3</ele>
        <time>2020-08-12T08:15:43Z</time>
      </trkpt>
      <trkpt lat="48.63249" lon="7.11738">
        <ele>390.7</ele>
        <time>2020-08-12T08:15:45Z</time>
      </trkpt>
      <trkpt lat="48.63238" lon="7.1173">
        <ele>389.9</ele>
        <time>2020-08-12T08:15:47Z</time>
      </trkpt>
      <trkpt lat="48.63226" lon="7.11722">
        <ele>388.1</ele>
        <time>2020-08-12T08:15:49Z</time>
      </trkpt>
      <trkpt lat="48.63217" lon="7.11714">
        <ele>385.9</ele>
        <time>2020-08-12T08:15:51Z</time>
      </trkpt>
      <trkpt lat="48.63211" lon="7.11704">
        <ele>383.4</ele>
        <time>2020-08-12T08:15:53Z</time>
      </trkpt>
      <trkpt lat="48.63206" lon="7.11698">
        <ele>381.5</ele>
        <time>2020-08-12T08:15:55Z</time>
      </trkpt>
      <trkpt lat="48.632" lon="7.11693">
        <ele>380</ele>
        <time>2020-08-12T08:15:57Z</time>
      </trkpt>
      <trkpt lat="48.63195" lon="7.11685">
        <ele>378.9</ele>
        <time>2020-08-12T08:15:59Z</time>
      </trkpt>
      <trkpt lat="48.63189" lon="7.11675">
        <ele>377.9</ele>
        <time>2020-08-12T08:16:01Z</time>
      </trkpt>
      <trkpt lat="48.63183" lon="7.11665">
        <ele>376.7</ele>
        <time>2020-08-12T08:16:03Z</time>
      </trkpt>
      <trkpt lat="48.63177" lon="7.11654">
        <ele>375.8</ele>
        <time>2020-08-12T08:16:05Z</time>
      </trkpt>
      <trkpt lat="48.63171" lon="7.11641">
        <ele>375</ele>
        <time>2020-08-12T08:16:07Z</time>
      </trkpt>
      <trkpt lat="48.63165" lon="7.11628">
        <ele>373.9</ele>
        <time>2020-08-12T08:16:09Z</time>
      </trkpt>
      <trkpt lat="48.63158" lon="7.11618">
        <ele>373.3</ele>
        <time>2020-08-12T08:16:11Z</time>
      </trkpt>
      <trkpt lat="48.63153" lon="7.1161">
        <ele>373</ele>
        <time>2020-08-12T08:16:13Z</time>
      </trkpt>
      <trkpt lat="48.63146" lon="7.11599">
        <ele>372.3</ele>
        <time>2020-08-12T08:16:15Z</time>
      </trkpt>
      <trkpt lat="48.63142" lon="7.11586">
        <ele>371.5</ele>
        <time>2020-08-12T08:16:17Z</time>
      </trkpt>
      <trkpt lat="48.63139" lon="7.11573">
        <ele>371</ele>
        <time>2020-08-12T08:16:19Z</time>
      </trkpt>
      <trkpt lat="48.63137" lon="7.11561">
        <ele>369.8</ele>
        <time>2020-08-12T08:16:21Z</time>
      </trkpt>
      <trkpt lat="48.63135" lon="7.1155">
        <ele>369.4</ele>
        <time>2020-08-12T08:16:23Z</time>
      </trkpt>
      <trkpt lat="48.63133" lon="7.11539">
        <ele>369.7</ele>
        <time>2020-08-12T08:16:25Z</time>
      </trkpt>
      <trkpt lat="48.63131" lon="7.11526">
        <ele>369.1</ele>
        <time>2020-08-12T08:16:27Z</time>
      </trkpt>
      <trkpt lat="48.63131" lon="7.1151">
        <ele>368.5</ele>
        <time>2020-08-12T08:16:29Z</time>
      </trkpt>
      <trkpt lat="48.6313" lon="7.11494">
        <ele>367.2</ele>
        <time>2020-08-12T08:16:31Z</time>
      </trkpt>
      <trkpt lat="48.63131" lon="7.11478">
        <ele>366.4</ele>
        <time>2020-08-12T08:16:33Z</time>
      </trkpt>
      <trkpt lat="48.63134" lon="7.11463">
        <ele>365.3</ele>
        <time>2020-08-12T08:16:35Z</time>
      </trkpt>
      <trkpt lat="48.63137" lon="7.11451">
        <ele>365.2</ele>
        <time>2020-08-12T08:16:37Z</time>
      </trkpt>
      <trkpt lat="48.6314" lon="7.11439">
        <ele>365</ele>
        <time>2020-08-12T08:16:39Z</time>
      </trkpt>
      <trkpt lat="48.63141" lon="7.11426">
        <ele>365.3</ele>
        <time>2020-08-12T08:16:41Z</time>
      </trkpt>
      <trkpt lat="48.63143" lon="7.11415">
        <ele>365.8</ele>
        <time>2020-08-12T08:16:43Z</time>
      </trkpt>
      <trkpt lat="48.63144" lon="7.11408">
        <ele>366.4</ele>
        <time>2020-08-12T08:16:46Z</time>
      </trkpt>
      <trkpt lat="48.63145" lon="7.11402">
        <ele>366.8</ele>
        <time>2020-08-12T08:16:55Z</time>
      </trkpt>
      <trkpt lat="48.63144" lon="7.11391">
        <ele>366</ele>
        <time>2020-08-12T08:16:59Z</time>
      </trkpt>
      <trkpt lat="48.63144" lon="7.11381">
        <ele>365.6</ele>
        <time>2020-08-12T08:17:01Z</time>
      </trkpt>
      <trkpt lat="48.63143" lon="7.11366">
        <ele>364.8</ele>
        <time>2020-08-12T08:17:03Z</time>
      </trkpt>
      <trkpt lat="48.63141" lon="7.11349">
        <ele>364.2</ele>
        <time>2020-08-12T08:17:05Z</time>
      </trkpt>
      <trkpt lat="48.6314" lon="7.11337">
        <ele>363.1</ele>
        <time>2020-08-12T08:17:07Z</time>
      </trkpt>
      <trkpt lat="48.6314" lon="7.11324">
        <ele>362.1</ele>
        <time>2020-08-12T08:17:09Z</time>
      </trkpt>
      <trkpt lat="48.63141" lon="7.11313">
        <ele>362</ele>
        <time>2020-08-12T08:17:11Z</time>
      </trkpt>
      <trkpt lat="48.6314" lon="7.11305">
        <ele>361.4</ele>
        <time>2020-08-12T08:17:13Z</time>
      </trkpt>
      <trkpt lat="48.63142" lon="7.11298">
        <ele>360.9</ele>
        <time>2020-08-12T08:17:16Z</time>
      </trkpt>
      <trkpt lat="48.63143" lon="7.11291">
        <ele>361</ele>
        <time>2020-08-12T08:17:18Z</time>
      </trkpt>
      <trkpt lat="48.63143" lon="7.11284">
        <ele>361</ele>
        <time>2020-08-12T08:17:21Z</time>
      </trkpt>
      <trkpt lat="48.63139" lon="7.11281">
        <ele>360.8</ele>
        <time>2020-08-12T08:17:29Z</time>
      </trkpt>
      <trkpt lat="48.63137" lon="7.11289">
        <ele>360.5</ele>
        <time>2020-08-12T08:17:32Z</time>
      </trkpt>
      <trkpt lat="48.63135" lon="7.11297">
        <ele>360.2</ele>
        <time>2020-08-12T08:17:34Z</time>
      </trkpt>
      <trkpt lat="48.63133" lon="7.11308">
        <ele>360.1</ele>
        <time>2020-08-12T08:17:36Z</time>
      </trkpt>
      <trkpt lat="48.6313" lon="7.11319">
        <ele>359.6</ele>
        <time>2020-08-12T08:17:38Z</time>
      </trkpt>
      <trkpt lat="48.63127" lon="7.11331">
        <ele>359.4</ele>
        <time>2020-08-12T08:17:40Z</time>
      </trkpt>
      <trkpt lat="48.63124" lon="7.11343">
        <ele>359</ele>
        <time>2020-08-12T08:17:42Z</time>
      </trkpt>
      <trkpt lat="48.63121" lon="7.11355">
        <ele>358.5</ele>
        <time>2020-08-12T08:17:44Z</time>
      </trkpt>
      <trkpt lat="48.63119" lon="7.11366">
        <ele>357.9</ele>
        <time>2020-08-12T08:17:46Z</time>
      </trkpt>
      <trkpt lat="48.63116" lon="7.11378">
        <ele>357.3</ele>
        <time>2020-08-12T08:17:48Z</time>
      </trkpt>
      <trkpt lat="48.63112" lon="7.11391">
        <ele>356.5</ele>
        <time>2020-08-12T08:17:50Z</time>
      </trkpt>
      <trkpt lat="48.63108" lon="7.11405">
        <ele>355.6</ele>
        <time>2020-08-12T08:17:52Z</time>
      </trkpt>
      <trkpt lat="48.63105" lon="7.11418">
        <ele>355.3</ele>
        <time>2020-08-12T08:17:54Z</time>
      </trkpt>
      <trkpt lat="48.63102" lon="7.1143">
        <ele>354.9</ele>
        <time>2020-08-12T08:17:56Z</time>
      </trkpt>
      <trkpt lat="48.63101" lon="7.11442">
        <ele>354.2</ele>
        <time>2020-08-12T08:17:58Z</time>
      </trkpt>
      <trkpt lat="48.63099" lon="7.11453">
        <ele>353.5</ele>
        <time>2020-08-12T08:18:00Z</time>
      </trkpt>
      <trkpt lat="48.63098" lon="7.11466">
        <ele>353.2</ele>
        <time>2020-08-12T08:18:02Z</time>
      </trkpt>
      <trkpt lat="48.63097" lon="7.11481">
        <ele>352.7</ele>
        <time>2020-08-12T08:18:04Z</time>
      </trkpt>
      <trkpt lat="48.63096" lon="7.11494">
        <ele>352.8</ele>
        <time>2020-08-12T08:18:06Z</time>
      </trkpt>
      <trkpt lat="48.63096" lon="7.11506">
        <ele>351.9</ele>
        <time>2020-08-12T08:18:08Z</time>
      </trkpt>
      <trkpt lat="48.63098" lon="7.11518">
        <ele>351.3</ele>
        <time>2020-08-12T08:18:10Z</time>
      </trkpt>
      <trkpt lat="48.63099" lon="7.11529">
        <ele>349.9</ele>
        <time>2020-08-12T08:18:12Z</time>
      </trkpt>
      <trkpt lat="48.63099" lon="7.11541">
        <ele>349.2</ele>
        <time>2020-08-12T08:18:14Z</time>
      </trkpt>
      <trkpt lat="48.631" lon="7.11551">
        <ele>347.8</ele>
        <time>2020-08-12T08:18:16Z</time>
      </trkpt>
      <trkpt lat="48.631" lon="7.1156">
        <ele>347.3</ele>
        <time>2020-08-12T08:18:18Z</time>
      </trkpt>
      <trkpt lat="48.631" lon="7.1157">
        <ele>346.4</ele>
        <time>2020-08-12T08:18:20Z</time>
      </trkpt>
      <trkpt lat="48.631" lon="7.1158">
        <ele>346.4</ele>
        <time>2020-08-12T08:18:22Z</time>
      </trkpt>
      <trkpt lat="48.631" lon="7.11591">
        <ele>347</ele>
        <time>2020-08-12T08:18:24Z</time>
      </trkpt>
      <trkpt lat="48.63099" lon="7.11602">
        <ele>348</ele>
        <time>2020-08-12T08:18:26Z</time>
      </trkpt>
      <trkpt lat="48.63098" lon="7.11611">
        <ele>348</ele>
        <time>2020-08-12T08:18:28Z</time>
      </trkpt>
      <trkpt lat="48.63099" lon="7.11619">
        <ele>348.1</ele>
        <time>2020-08-12T08:18:30Z</time>
      </trkpt>
      <trkpt lat="48.631" lon="7.11627">
        <ele>347.9</ele>
        <time>2020-08-12T08:18:32Z</time>
      </trkpt>
      <trkpt lat="48.63102" lon="7.11638">
        <ele>347.2</ele>
        <time>2020-08-12T08:18:34Z</time>
      </trkpt>
      <trkpt lat="48.63106" lon="7.11649">
        <ele>346.5</ele>
        <time>2020-08-12T08:18:36Z</time>
      </trkpt>
      <trkpt lat="48.63109" lon="7.11662">
        <ele>345.8</ele>
        <time>2020-08-12T08:18:38Z</time>
      </trkpt>
      <trkpt lat="48.63111" lon="7.11674">
        <ele>344.2</ele>
        <time>2020-08-12T08:18:40Z</time>
      </trkpt>
      <trkpt lat="48.63113" lon="7.11686">
        <ele>346.5</ele>
        <time>2020-08-12T08:18:42Z</time>
      </trkpt>
      <trkpt lat="48.63115" lon="7.11698">
        <ele>347.1</ele>
        <time>2020-08-12T08:18:44Z</time>
      </trkpt>
      <trkpt lat="48.63118" lon="7.11712">
        <ele>347.8</ele>
        <time>2020-08-12T08:18:46Z</time>
      </trkpt>
      <trkpt lat="48.6312" lon="7.11725">
        <ele>346.5</ele>
        <time>2020-08-12T08:18:48Z</time>
      </trkpt>
      <trkpt lat="48.63122" lon="7.11737">
        <ele>345.1</ele>
        <time>2020-08-12T08:18:50Z</time>
      </trkpt>
      <trkpt lat="48.63123" lon="7.11746">
        <ele>343.4</ele>
        <time>2020-08-12T08:18:52Z</time>
      </trkpt>
      <trkpt lat="48.63124" lon="7.11754">
        <ele>341.9</ele>
        <time>2020-08-12T08:18:54Z</time>
      </trkpt>
      <trkpt lat="48.63125" lon="7.11764">
        <ele>339.5</ele>
        <time>2020-08-12T08:18:57Z</time>
      </trkpt>
      <trkpt lat="48.63125" lon="7.11774">
        <ele>336.6</ele>
        <time>2020-08-12T08:19:00Z</time>
      </trkpt>
      <trkpt lat="48.63123" lon="7.11781">
        <ele>335</ele>
        <time>2020-08-12T08:19:02Z</time>
      </trkpt>
      <trkpt lat="48.6312" lon="7.11787">
        <ele>333.6</ele>
        <time>2020-08-12T08:19:04Z</time>
      </trkpt>
      <trkpt lat="48.63116" lon="7.11791">
        <ele>331.7</ele>
        <time>2020-08-12T08:19:06Z</time>
      </trkpt>
      <trkpt lat="48.6311" lon="7.11792">
        <ele>327.3</ele>
        <time>2020-08-12T08:19:11Z</time>
      </trkpt>
      <trkpt lat="48.63105" lon="7.11792">
        <ele>325.3</ele>
        <time>2020-08-12T08:19:13Z</time>
      </trkpt>
      <trkpt lat="48.63099" lon="7.1179">
        <ele>323.6</ele>
        <time>2020-08-12T08:19:15Z</time>
      </trkpt>
      <trkpt lat="48.63087" lon="7.11784">
        <ele>321.6</ele>
        <time>2020-08-12T08:19:17Z</time>
      </trkpt>
      <trkpt lat="48.63078" lon="7.1178">
        <ele>320.2</ele>
        <time>2020-08-12T08:19:19Z</time>
      </trkpt>
      <trkpt lat="48.63073" lon="7.11777">
        <ele>319</ele>
        <time>2020-08-12T08:19:22Z</time>
      </trkpt>
      <trkpt lat="48.63067" lon="7.11772">
        <ele>317.6</ele>
        <time>2020-08-12T08:19:25Z</time>
      </trkpt>
      <trkpt lat="48.63062" lon="7.11765">
        <ele>316.5</ele>
        <time>2020-08-12T08:19:27Z</time>
      </trkpt>
      <trkpt lat="48.63057" lon="7.11756">
        <ele>315.5</ele>
        <time>2020-08-12T08:19:29Z</time>
      </trkpt>
      <trkpt lat="48.63052" lon="7.11743">
        <ele>314.2</ele>
        <time>2020-08-12T08:19:31Z</time>
      </trkpt>
      <trkpt lat="48.63047" lon="7.11731">
        <ele>313.1</ele>
        <time>2020-08-12T08:19:33Z</time>
      </trkpt>
      <trkpt lat="48.63044" lon="7.11718">
        <ele>311.8</ele>
        <time>2020-08-12T08:19:35Z</time>
      </trkpt>
      <trkpt lat="48.63042" lon="7.11706">
        <ele>309.8</ele>
        <time>2020-08-12T08:19:37Z</time>
      </trkpt>
      <trkpt lat="48.6304" lon="7.11699">
        <ele>307.7</ele>
        <time>2020-08-12T08:19:39Z</time>
      </trkpt>
      <trkpt lat="48.63035" lon="7.11697">
        <ele>303.5</ele>
        <time>2020-08-12T08:19:49Z</time>
      </trkpt>
      <trkpt lat="48.63031" lon="7.11703">
        <ele>302.2</ele>
        <time>2020-08-12T08:19:52Z</time>
      </trkpt>
      <trkpt lat="48.63029" lon="7.1171">
        <ele>302</ele>
        <time>2020-08-12T08:19:54Z</time>
      </trkpt>
      <trkpt lat="48.63028" lon="7.11719">
        <ele>301.5</ele>
        <time>2020-08-12T08:19:56Z</time>
      </trkpt>
      <trkpt lat="48.63028" lon="7.11729">
        <ele>301.3</ele>
        <time>2020-08-12T08:19:58Z</time>
      </trkpt>
      <trkpt lat="48.63028" lon="7.1174">
        <ele>301.1</ele>
        <time>2020-08-12T08:20:00Z</time>
      </trkpt>
      <trkpt lat="48.63027" lon="7.1175">
        <ele>300.3</ele>
        <time>2020-08-12T08:20:02Z</time>
      </trkpt>
      <trkpt lat="48.63026" lon="7.11761">
        <ele>300.2</ele>
        <time>2020-08-12T08:20:04Z</time>
      </trkpt>
      <trkpt lat="48.63024" lon="7.11773">
        <ele>300.2</ele>
        <time>2020-08-12T08:20:06Z</time>
      </trkpt>
      <trkpt lat="48.63021" lon="7.11785">
        <ele>300.1</ele>
        <time>2020-08-12T08:20:08Z</time>
      </trkpt>
      <trkpt lat="48.63017" lon="7.11796">
        <ele>300.5</ele>
        <time>2020-08-12T08:20:10Z</time>
      </trkpt>
      <trkpt lat="48.63012" lon="7.11808">
        <ele>300.8</ele>
        <time>2020-08-12T08:20:12Z</time>
      </trkpt>
      <trkpt lat="48.63007" lon="7.11819">
        <ele>300.7</ele>
        <time>2020-08-12T08:20:14Z</time>
      </trkpt>
      <trkpt lat="48.63003" lon="7.11831">
        <ele>300.8</ele>
        <time>2020-08-12T08:20:16Z</time>
      </trkpt>
      <trkpt lat="48.62999" lon="7.11841">
        <ele>300.9</ele>
        <time>2020-08-12T08:20:18Z</time>
      </trkpt>
      <trkpt lat="48.62998" lon="7.11851">
        <ele>301.1</ele>
        <time>2020-08-12T08:20:20Z</time>
      </trkpt>
      <trkpt lat="48.62999" lon="7.11858">
        <ele>301.4</ele>
        <time>2020-08-12T08:20:22Z</time>
      </trkpt>
      <trkpt lat="48.63004" lon="7.11861">
        <ele>301.1</ele>
        <time>2020-08-12T08:20:34Z</time>
      </trkpt>
      <trkpt lat="48.63006" lon="7.11855">
        <ele>300.7</ele>
        <time>2020-08-12T08:20:51Z</time>
      </trkpt>
      <trkpt lat="48.63002" lon="7.11848">
        <ele>298.5</ele>
        <time>2020-08-12T08:21:24Z</time>
      </trkpt>
      <trkpt lat="48.62997" lon="7.11848">
        <ele>298.6</ele>
        <time>2020-08-12T08:21:27Z</time>
      </trkpt>
      <trkpt lat="48.62993" lon="7.11855">
        <ele>298.9</ele>
        <time>2020-08-12T08:21:30Z</time>
      </trkpt>
      <trkpt lat="48.6299" lon="7.11861">
        <ele>299.2</ele>
        <time>2020-08-12T08:21:32Z</time>
      </trkpt>
      <trkpt lat="48.62987" lon="7.11867">
        <ele>299.1</ele>
        <time>2020-08-12T08:21:34Z</time>
      </trkpt>
      <trkpt lat="48.62984" lon="7.11873">
        <ele>299.5</ele>
        <time>2020-08-12T08:21:36Z</time>
      </trkpt>
      <trkpt lat="48.62981" lon="7.11879">
        <ele>299.2</ele>
        <time>2020-08-12T08:21:38Z</time>
      </trkpt>
      <trkpt lat="48.62977" lon="7.11884">
        <ele>299.5</ele>
        <time>2020-08-12T08:21:40Z</time>
      </trkpt>
      <trkpt lat="48.62972" lon="7.11889">
        <ele>299.7</ele>
        <time>2020-08-12T08:21:42Z</time>
      </trkpt>
      <trkpt lat="48.62968" lon="7.11894">
        <ele>300.2</ele>
        <time>2020-08-12T08:21:44Z</time>
      </trkpt>
      <trkpt lat="48.62964" lon="7.11899">
        <ele>300.7</ele>
        <time>2020-08-12T08:21:46Z</time>
      </trkpt>
      <trkpt lat="48.62962" lon="7.11906">
        <ele>301.2</ele>
        <time>2020-08-12T08:21:48Z</time>
      </trkpt>
      <trkpt lat="48.62962" lon="7.11916">
        <ele>301.8</ele>
        <time>2020-08-12T08:21:50Z</time>
      </trkpt>
      <trkpt lat="48.6296" lon="7.11924">
        <ele>302.6</ele>
        <time>2020-08-12T08:21:52Z</time>
      </trkpt>
      <trkpt lat="48.62956" lon="7.11931">
        <ele>303.2</ele>
        <time>2020-08-12T08:21:54Z</time>
      </trkpt>
      <trkpt lat="48.62951" lon="7.11936">
        <ele>304.2</ele>
        <time>2020-08-12T08:21:56Z</time>
      </trkpt>
      <trkpt lat="48.62945" lon="7.11941">
        <ele>305.3</ele>
        <time>2020-08-12T08:21:58Z</time>
      </trkpt>
      <trkpt lat="48.62939" lon="7.11945">
        <ele>306.3</ele>
        <time>2020-08-12T08:22:00Z</time>
      </trkpt>
      <trkpt lat="48.62933" lon="7.11951">
        <ele>307.5</ele>
        <time>2020-08-12T08:22:02Z</time>
      </trkpt>
      <trkpt lat="48.62927" lon="7.11958">
        <ele>308.8</ele>
        <time>2020-08-12T08:22:04Z</time>
      </trkpt>
      <trkpt lat="48.62922" lon="7.11965">
        <ele>309.9</ele>
        <time>2020-08-12T08:22:06Z</time>
      </trkpt>
      <trkpt lat="48.62917" lon="7.11973">
        <ele>311.1</ele>
        <time>2020-08-12T08:22:08Z</time>
      </trkpt>
      <trkpt lat="48.62913" lon="7.11982">
        <ele>312.5</ele>
        <time>2020-08-12T08:22:10Z</time>
      </trkpt>
      <trkpt lat="48.62909" lon="7.1199">
        <ele>314.2</ele>
        <time>2020-08-12T08:22:12Z</time>
      </trkpt>
      <trkpt lat="48.62906" lon="7.11999">
        <ele>315.1</ele>
        <time>2020-08-12T08:22:14Z</time>
      </trkpt>
      <trkpt lat="48.62903" lon="7.12007">
        <ele>316.5</ele>
        <time>2020-08-12T08:22:16Z</time>
      </trkpt>
      <trkpt lat="48.629" lon="7.12015">
        <ele>317.6</ele>
        <time>2020-08-12T08:22:18Z</time>
      </trkpt>
      <trkpt lat="48.62897" lon="7.12024">
        <ele>318.4</ele>
        <time>2020-08-12T08:22:20Z</time>
      </trkpt>
      <trkpt lat="48.62896" lon="7.12034">
        <ele>319</ele>
        <time>2020-08-12T08:22:22Z</time>
      </trkpt>
      <trkpt lat="48.62895" lon="7.12044">
        <ele>319.8</ele>
        <time>2020-08-12T08:22:24Z</time>
      </trkpt>
      <trkpt lat="48.62893" lon="7.12054">
        <ele>320.7</ele>
        <time>2020-08-12T08:22:26Z</time>
      </trkpt>
      <trkpt lat="48.62892" lon="7.12062">
        <ele>321.5</ele>
        <time>2020-08-12T08:22:28Z</time>
      </trkpt>
      <trkpt lat="48.62891" lon="7.1207">
        <ele>322.9</ele>
        <time>2020-08-12T08:22:30Z</time>
      </trkpt>
      <trkpt lat="48.6289" lon="7.12078">
        <ele>323.8</ele>
        <time>2020-08-12T08:22:32Z</time>
      </trkpt>
      <trkpt lat="48.62891" lon="7.12085">
        <ele>324.7</ele>
        <time>2020-08-12T08:22:36Z</time>
      </trkpt>
      <trkpt lat="48.62891" lon="7.12093">
        <ele>325.7</ele>
        <time>2020-08-12T08:22:44Z</time>
      </trkpt>
      <trkpt lat="48.62889" lon="7.121">
        <ele>326.5</ele>
        <time>2020-08-12T08:22:49Z</time>
      </trkpt>
      <trkpt lat="48.62889" lon="7.12108">
        <ele>327.4</ele>
        <time>2020-08-12T08:22:54Z</time>
      </trkpt>
      <trkpt lat="48.6289" lon="7.12116">
        <ele>328.1</ele>
        <time>2020-08-12T08:22:58Z</time>
      </trkpt>
      <trkpt lat="48.62891" lon="7.12123">
        <ele>328.5</ele>
        <time>2020-08-12T08:23:03Z</time>
      </trkpt>
      <trkpt lat="48.62892" lon="7.1213">
        <ele>328.4</ele>
        <time>2020-08-12T08:23:06Z</time>
      </trkpt>
      <trkpt lat="48.62893" lon="7.12138">
        <ele>328.7</ele>
        <time>2020-08-12T08:23:10Z</time>
      </trkpt>
      <trkpt lat="48.62895" lon="7.12144">
        <ele>330.3</ele>
        <time>2020-08-12T08:23:15Z</time>
      </trkpt>
      <trkpt lat="48.62899" lon="7.12148">
        <ele>331.8</ele>
        <time>2020-08-12T08:23:21Z</time>
      </trkpt>
      <trkpt lat="48.62904" lon="7.1215">
        <ele>333.7</ele>
        <time>2020-08-12T08:23:30Z</time>
      </trkpt>
      <trkpt lat="48.62909" lon="7.12148">
        <ele>336.4</ele>
        <time>2020-08-12T08:23:36Z</time>
      </trkpt>
      <trkpt lat="48.62913" lon="7.12146">
        <ele>337</ele>
        <time>2020-08-12T08:23:42Z</time>
      </trkpt>
      <trkpt lat="48.62918" lon="7.12142">
        <ele>337.7</ele>
        <time>2020-08-12T08:23:50Z</time>
      </trkpt>
      <trkpt lat="48.62922" lon="7.12138">
        <ele>338.2</ele>
        <time>2020-08-12T08:23:54Z</time>
      </trkpt>
      <trkpt lat="48.62927" lon="7.12135">
        <ele>337.8</ele>
        <time>2020-08-12T08:23:58Z</time>
      </trkpt>
      <trkpt lat="48.62932" lon="7.12133">
        <ele>338.7</ele>
        <time>2020-08-12T08:24:02Z</time>
      </trkpt>
      <trkpt lat="48.62936" lon="7.1213">
        <ele>339.2</ele>
        <time>2020-08-12T08:24:06Z</time>
      </trkpt>
      <trkpt lat="48.6294" lon="7.12127">
        <ele>339.7</ele>
        <time>2020-08-12T08:24:10Z</time>
      </trkpt>
      <trkpt lat="48.62945" lon="7.12125">
        <ele>340.6</ele>
        <time>2020-08-12T08:24:15Z</time>
      </trkpt>
      <trkpt lat="48.6295" lon="7.12124">
        <ele>341.3</ele>
        <time>2020-08-12T08:24:21Z</time>
      </trkpt>
      <trkpt lat="48.62955" lon="7.12124">
        <ele>341.5</ele>
        <time>2020-08-12T08:24:23Z</time>
      </trkpt>
      <trkpt lat="48.6296" lon="7.12125">
        <ele>341.7</ele>
        <time>2020-08-12T08:24:25Z</time>
      </trkpt>
      <trkpt lat="48.62966" lon="7.12126">
        <ele>342.7</ele>
        <time>2020-08-12T08:24:28Z</time>
      </trkpt>
      <trkpt lat="48.62971" lon="7.12127">
        <ele>344</ele>
        <time>2020-08-12T08:24:30Z</time>
      </trkpt>
      <trkpt lat="48.62977" lon="7.12129">
        <ele>345</ele>
        <time>2020-08-12T08:24:32Z</time>
      </trkpt>
      <trkpt lat="48.62983" lon="7.12132">
        <ele>346</ele>
        <time>2020-08-12T08:24:34Z</time>
      </trkpt>
      <trkpt lat="48.62988" lon="7.12135">
        <ele>347.1</ele>
        <time>2020-08-12T08:24:36Z</time>
      </trkpt>
      <trkpt lat="48.62992" lon="7.12137">
        <ele>348.1</ele>
        <time>2020-08-12T08:24:38Z</time>
      </trkpt>
      <trkpt lat="48.62997" lon="7.1214">
        <ele>348.7</ele>
        <time>2020-08-12T08:24:40Z</time>
      </trkpt>
      <trkpt lat="48.63002" lon="7.12144">
        <ele>349.2</ele>
        <time>2020-08-12T08:24:42Z</time>
      </trkpt>
      <trkpt lat="48.63008" lon="7.1215">
        <ele>350.3</ele>
        <time>2020-08-12T08:24:44Z</time>
      </trkpt>
      <trkpt lat="48.63013" lon="7.12154">
        <ele>351.7</ele>
        <time>2020-08-12T08:24:46Z</time>
      </trkpt>
      <trkpt lat="48.63017" lon="7.12158">
        <ele>352.7</ele>
        <time>2020-08-12T08:24:48Z</time>
      </trkpt>
      <trkpt lat="48.63023" lon="7.12162">
        <ele>354.2</ele>
        <time>2020-08-12T08:24:50Z</time>
      </trkpt>
      <trkpt lat="48.63028" lon="7.12166">
        <ele>355.3</ele>
        <time>2020-08-12T08:24:52Z</time>
      </trkpt>
      <trkpt lat="48.63033" lon="7.12171">
        <ele>357</ele>
        <time>2020-08-12T08:24:54Z</time>
      </trkpt>
      <trkpt lat="48.63038" lon="7.12176">
        <ele>358.4</ele>
        <time>2020-08-12T08:24:56Z</time>
      </trkpt>
      <trkpt lat="48.63043" lon="7.12182">
        <ele>359.1</ele>
        <time>2020-08-12T08:24:58Z</time>
      </trkpt>
      <trkpt lat="48.63047" lon="7.1219">
        <ele>360.1</ele>
        <time>2020-08-12T08:25:00Z</time>
      </trkpt>
      <trkpt lat="48.6305" lon="7.12196">
        <ele>360.6</ele>
        <time>2020-08-12T08:25:02Z</time>
      </trkpt>
      <trkpt lat="48.63053" lon="7.12202">
        <ele>361</ele>
        <time>2020-08-12T08:25:05Z</time>
      </trkpt>
      <trkpt lat="48.63056" lon="7.12207">
        <ele>362.3</ele>
        <time>2020-08-12T08:25:11Z</time>
      </trkpt>
      <trkpt lat="48.6306" lon="7.12211">
        <ele>363.7</ele>
        <time>2020-08-12T08:25:16Z</time>
      </trkpt>
      <trkpt lat="48.63064" lon="7.12214">
        <ele>366.3</ele>
        <time>2020-08-12T08:25:35Z</time>
      </trkpt>
    </trkseg>
  </trk>
  <trk>
    <name><![CDATA[secteur Saverne - Dabo - Petite Pierre_11]]></name>
    <trkseg>
      <trkpt lat="48.63062" lon="7.12215">
        <ele>357.3</ele>
        <time>2020-08-12T08:26:23Z</time>
      </trkpt>
      <trkpt lat="48.63062" lon="7.12215">
        <ele>357.3</ele>
        <time>2020-08-12T08:26:23Z</time>
      </trkpt>
      <trkpt lat="48.63062" lon="7.12215">
        <ele>357.3</ele>
        <time>2020-08-12T08:26:23Z</time>
      </trkpt>
      <trkpt lat="48.63062" lon="7.12215">
        <ele>357.3</ele>
        <time>2020-08-12T08:26:23Z</time>
      </trkpt>
      <trkpt lat="48.63062" lon="7.12215">
        <ele>357.3</ele>
        <time>2020-08-12T08:26:23Z</time>
      </trkpt>
      <trkpt lat="48.63062" lon="7.12215">
        <ele>357.3</ele>
        <time>2020-08-12T08:26:23Z</time>
      </trkpt>
      <trkpt lat="48.63062" lon="7.12215">
        <ele>357.3</ele>
        <time>2020-08-12T08:26:23Z</time>
      </trkpt>
      <trkpt lat="48.63062" lon="7.12215">
        <ele>357.3</ele>
        <time>2020-08-12T08:26:23Z</time>
      </trkpt>
      <trkpt lat="48.63059" lon="7.1222">
        <ele>357.5</ele>
        <time>2020-08-12T08:26:27Z</time>
      </trkpt>
      <trkpt lat="48.63061" lon="7.12227">
        <ele>359.2</ele>
        <time>2020-08-12T08:26:44Z</time>
      </trkpt>
      <trkpt lat="48.63065" lon="7.12232">
        <ele>361.2</ele>
        <time>2020-08-12T08:26:49Z</time>
      </trkpt>
      <trkpt lat="48.63069" lon="7.12236">
        <ele>362.6</ele>
        <time>2020-08-12T08:26:53Z</time>
      </trkpt>
      <trkpt lat="48.63073" lon="7.12242">
        <ele>363.1</ele>
        <time>2020-08-12T08:27:00Z</time>
      </trkpt>
      <trkpt lat="48.63068" lon="7.1224">
        <ele>369.9</ele>
        <time>2020-08-12T08:27:43Z</time>
      </trkpt>
      <trkpt lat="48.63063" lon="7.12239">
        <ele>371</ele>
        <time>2020-08-12T08:27:49Z</time>
      </trkpt>
      <trkpt lat="48.63058" lon="7.1224">
        <ele>371.4</ele>
        <time>2020-08-12T08:28:01Z</time>
      </trkpt>
      <trkpt lat="48.63054" lon="7.12245">
        <ele>371.4</ele>
        <time>2020-08-12T08:28:10Z</time>
      </trkpt>
      <trkpt lat="48.63052" lon="7.12251">
        <ele>370.9</ele>
        <time>2020-08-12T08:28:22Z</time>
      </trkpt>
      <trkpt lat="48.63049" lon="7.12256">
        <ele>370.8</ele>
        <time>2020-08-12T08:28:32Z</time>
      </trkpt>
      <trkpt lat="48.63044" lon="7.12258">
        <ele>370.7</ele>
        <time>2020-08-12T08:28:37Z</time>
      </trkpt>
      <trkpt lat="48.6304" lon="7.12262">
        <ele>371.7</ele>
        <time>2020-08-12T08:28:42Z</time>
      </trkpt>
      <trkpt lat="48.63036" lon="7.12266">
        <ele>374.2</ele>
        <time>2020-08-12T08:28:50Z</time>
      </trkpt>
      <trkpt lat="48.63031" lon="7.1227">
        <ele>372.5</ele>
        <time>2020-08-12T08:28:54Z</time>
      </trkpt>
      <trkpt lat="48.63026" lon="7.12272">
        <ele>371.8</ele>
        <time>2020-08-12T08:28:57Z</time>
      </trkpt>
      <trkpt lat="48.63022" lon="7.12279">
        <ele>370.2</ele>
        <time>2020-08-12T08:29:00Z</time>
      </trkpt>
      <trkpt lat="48.63017" lon="7.12285">
        <ele>370.1</ele>
        <time>2020-08-12T08:29:03Z</time>
      </trkpt>
      <trkpt lat="48.63013" lon="7.12289">
        <ele>370.5</ele>
        <time>2020-08-12T08:29:05Z</time>
      </trkpt>
      <trkpt lat="48.6301" lon="7.12294">
        <ele>370.5</ele>
        <time>2020-08-12T08:29:07Z</time>
      </trkpt>
      <trkpt lat="48.63006" lon="7.12299">
        <ele>370.1</ele>
        <time>2020-08-12T08:29:09Z</time>
      </trkpt>
      <trkpt lat="48.63004" lon="7.12305">
        <ele>370</ele>
        <time>2020-08-12T08:29:11Z</time>
      </trkpt>
      <trkpt lat="48.63001" lon="7.12312">
        <ele>370.1</ele>
        <time>2020-08-12T08:29:13Z</time>
      </trkpt>
      <trkpt lat="48.62999" lon="7.12319">
        <ele>369.9</ele>
        <time>2020-08-12T08:29:15Z</time>
      </trkpt>
      <trkpt lat="48.62998" lon="7.12328">
        <ele>370.4</ele>
        <time>2020-08-12T08:29:17Z</time>
      </trkpt>
      <trkpt lat="48.62999" lon="7.12337">
        <ele>370.5</ele>
        <time>2020-08-12T08:29:19Z</time>
      </trkpt>
      <trkpt lat="48.63" lon="7.12345">
        <ele>371.5</ele>
        <time>2020-08-12T08:29:21Z</time>
      </trkpt>
      <trkpt lat="48.63001" lon="7.12353">
        <ele>372.6</ele>
        <time>2020-08-12T08:29:25Z</time>
      </trkpt>
      <trkpt lat="48.63002" lon="7.1236">
        <ele>373</ele>
        <time>2020-08-12T08:29:33Z</time>
      </trkpt>
      <trkpt lat="48.63003" lon="7.12367">
        <ele>374.9</ele>
        <time>2020-08-12T08:29:39Z</time>
      </trkpt>
      <trkpt lat="48.63003" lon="7.12374">
        <ele>374.5</ele>
        <time>2020-08-12T08:29:42Z</time>
      </trkpt>
      <trkpt lat="48.63004" lon="7.12381">
        <ele>373.7</ele>
        <time>2020-08-12T08:29:45Z</time>
      </trkpt>
      <trkpt lat="48.63006" lon="7.12388">
        <ele>373.9</ele>
        <time>2020-08-12T08:29:48Z</time>
      </trkpt>
      <trkpt lat="48.6301" lon="7.12393">
        <ele>374.4</ele>
        <time>2020-08-12T08:29:55Z</time>
      </trkpt>
      <trkpt lat="48.63013" lon="7.12399">
        <ele>375.3</ele>
        <time>2020-08-12T08:30:02Z</time>
      </trkpt>
      <trkpt lat="48.63014" lon="7.12406">
        <ele>378.7</ele>
        <time>2020-08-12T08:30:11Z</time>
      </trkpt>
      <trkpt lat="48.63013" lon="7.12398">
        <ele>392.2</ele>
        <time>2020-08-12T08:30:32Z</time>
      </trkpt>
      <trkpt lat="48.63014" lon="7.1239">
        <ele>395.2</ele>
        <time>2020-08-12T08:30:37Z</time>
      </trkpt>
      <trkpt lat="48.63014" lon="7.12382">
        <ele>397</ele>
        <time>2020-08-12T08:30:42Z</time>
      </trkpt>
      <trkpt lat="48.63017" lon="7.12374">
        <ele>397.8</ele>
        <time>2020-08-12T08:30:47Z</time>
      </trkpt>
      <trkpt lat="48.63019" lon="7.12368">
        <ele>398.1</ele>
        <time>2020-08-12T08:30:51Z</time>
      </trkpt>
      <trkpt lat="48.6302" lon="7.1236">
        <ele>397.2</ele>
        <time>2020-08-12T08:31:06Z</time>
      </trkpt>
      <trkpt lat="48.63023" lon="7.12354">
        <ele>397.9</ele>
        <time>2020-08-12T08:31:09Z</time>
      </trkpt>
      <trkpt lat="48.63026" lon="7.12348">
        <ele>397.8</ele>
        <time>2020-08-12T08:31:11Z</time>
      </trkpt>
      <trkpt lat="48.63031" lon="7.12344">
        <ele>398</ele>
        <time>2020-08-12T08:31:13Z</time>
      </trkpt>
      <trkpt lat="48.63036" lon="7.12341">
        <ele>398.4</ele>
        <time>2020-08-12T08:31:15Z</time>
      </trkpt>
      <trkpt lat="48.63043" lon="7.12341">
        <ele>398.4</ele>
        <time>2020-08-12T08:31:18Z</time>
      </trkpt>
      <trkpt lat="48.63049" lon="7.12344">
        <ele>398.6</ele>
        <time>2020-08-12T08:31:21Z</time>
      </trkpt>
      <trkpt lat="48.63053" lon="7.12348">
        <ele>398.5</ele>
        <time>2020-08-12T08:31:23Z</time>
      </trkpt>
      <trkpt lat="48.63058" lon="7.12351">
        <ele>398.8</ele>
        <time>2020-08-12T08:31:27Z</time>
      </trkpt>
      <trkpt lat="48.63063" lon="7.12354">
        <ele>399.2</ele>
        <time>2020-08-12T08:31:30Z</time>
      </trkpt>
      <trkpt lat="48.63067" lon="7.12359">
        <ele>398.9</ele>
        <time>2020-08-12T08:31:33Z</time>
      </trkpt>
      <trkpt lat="48.63073" lon="7.12363">
        <ele>398.9</ele>
        <time>2020-08-12T08:31:36Z</time>
      </trkpt>
      <trkpt lat="48.63076" lon="7.12368">
        <ele>399.3</ele>
        <time>2020-08-12T08:31:41Z</time>
      </trkpt>
      <trkpt lat="48.63078" lon="7.12375">
        <ele>400.1</ele>
        <time>2020-08-12T08:31:46Z</time>
      </trkpt>
      <trkpt lat="48.63082" lon="7.12381">
        <ele>400.8</ele>
        <time>2020-08-12T08:31:53Z</time>
      </trkpt>
      <trkpt lat="48.63086" lon="7.12386">
        <ele>402</ele>
        <time>2020-08-12T08:32:14Z</time>
      </trkpt>
      <trkpt lat="48.63091" lon="7.12387">
        <ele>403.2</ele>
        <time>2020-08-12T08:32:30Z</time>
      </trkpt>
      <trkpt lat="48.63093" lon="7.12393">
        <ele>403.3</ele>
        <time>2020-08-12T08:32:39Z</time>
      </trkpt>
      <trkpt lat="48.63096" lon="7.124">
        <ele>403.5</ele>
        <time>2020-08-12T08:32:45Z</time>
      </trkpt>
      <trkpt lat="48.63099" lon="7.12406">
        <ele>405.4</ele>
        <time>2020-08-12T08:32:56Z</time>
      </trkpt>
      <trkpt lat="48.63102" lon="7.12413">
        <ele>405.6</ele>
        <time>2020-08-12T08:33:00Z</time>
      </trkpt>
      <trkpt lat="48.63107" lon="7.12419">
        <ele>405.9</ele>
        <time>2020-08-12T08:33:03Z</time>
      </trkpt>
      <trkpt lat="48.6311" lon="7.12427">
        <ele>406.7</ele>
        <time>2020-08-12T08:33:06Z</time>
      </trkpt>
      <trkpt lat="48.63114" lon="7.12433">
        <ele>407.9</ele>
        <time>2020-08-12T08:33:08Z</time>
      </trkpt>
      <trkpt lat="48.63118" lon="7.12438">
        <ele>408.9</ele>
        <time>2020-08-12T08:33:10Z</time>
      </trkpt>
      <trkpt lat="48.63122" lon="7.12444">
        <ele>410</ele>
        <time>2020-08-12T08:33:15Z</time>
      </trkpt>
      <trkpt lat="48.63123" lon="7.12451">
        <ele>411.1</ele>
        <time>2020-08-12T08:33:22Z</time>
      </trkpt>
      <trkpt lat="48.63119" lon="7.12448">
        <ele>419.6</ele>
        <time>2020-08-12T08:34:07Z</time>
      </trkpt>
      <trkpt lat="48.63114" lon="7.12447">
        <ele>426.2</ele>
        <time>2020-08-12T08:34:58Z</time>
      </trkpt>
      <trkpt lat="48.6311" lon="7.12447">
        <ele>428.5</ele>
        <time>2020-08-12T08:35:22Z</time>
      </trkpt>
      <trkpt lat="48.63104" lon="7.12446">
        <ele>429.9</ele>
        <time>2020-08-12T08:35:29Z</time>
      </trkpt>
      <trkpt lat="48.631" lon="7.12451">
        <ele>430.1</ele>
        <time>2020-08-12T08:35:34Z</time>
      </trkpt>
      <trkpt lat="48.631" lon="7.12459">
        <ele>428.8</ele>
        <time>2020-08-12T08:36:01Z</time>
      </trkpt>
      <trkpt lat="48.63102" lon="7.12466">
        <ele>428.2</ele>
        <time>2020-08-12T08:36:05Z</time>
      </trkpt>
      <trkpt lat="48.63105" lon="7.12473">
        <ele>428.4</ele>
        <time>2020-08-12T08:36:08Z</time>
      </trkpt>
      <trkpt lat="48.63108" lon="7.12479">
        <ele>428.5</ele>
        <time>2020-08-12T08:36:12Z</time>
      </trkpt>
      <trkpt lat="48.63113" lon="7.1248">
        <ele>427.1</ele>
        <time>2020-08-12T08:36:24Z</time>
      </trkpt>
      <trkpt lat="48.63118" lon="7.12484">
        <ele>427.7</ele>
        <time>2020-08-12T08:36:27Z</time>
      </trkpt>
      <trkpt lat="48.63123" lon="7.1249">
        <ele>428.4</ele>
        <time>2020-08-12T08:36:30Z</time>
      </trkpt>
      <trkpt lat="48.63126" lon="7.12497">
        <ele>428.8</ele>
        <time>2020-08-12T08:36:32Z</time>
      </trkpt>
      <trkpt lat="48.63129" lon="7.12504">
        <ele>429.7</ele>
        <time>2020-08-12T08:36:34Z</time>
      </trkpt>
      <trkpt lat="48.63132" lon="7.12512">
        <ele>431.1</ele>
        <time>2020-08-12T08:36:36Z</time>
      </trkpt>
      <trkpt lat="48.63134" lon="7.1252">
        <ele>432.2</ele>
        <time>2020-08-12T08:36:38Z</time>
      </trkpt>
      <trkpt lat="48.63137" lon="7.12528">
        <ele>433.1</ele>
        <time>2020-08-12T08:36:40Z</time>
      </trkpt>
      <trkpt lat="48.63141" lon="7.12534">
        <ele>434.8</ele>
        <time>2020-08-12T08:36:42Z</time>
      </trkpt>
      <trkpt lat="48.63143" lon="7.1254">
        <ele>435.3</ele>
        <time>2020-08-12T08:36:44Z</time>
      </trkpt>
      <trkpt lat="48.63145" lon="7.12547">
        <ele>435.6</ele>
        <time>2020-08-12T08:36:46Z</time>
      </trkpt>
      <trkpt lat="48.63148" lon="7.12555">
        <ele>435.5</ele>
        <time>2020-08-12T08:36:48Z</time>
      </trkpt>
      <trkpt lat="48.6315" lon="7.12563">
        <ele>435.2</ele>
        <time>2020-08-12T08:36:50Z</time>
      </trkpt>
      <trkpt lat="48.63153" lon="7.12572">
        <ele>435.5</ele>
        <time>2020-08-12T08:36:52Z</time>
      </trkpt>
      <trkpt lat="48.63156" lon="7.12581">
        <ele>435.3</ele>
        <time>2020-08-12T08:36:54Z</time>
      </trkpt>
      <trkpt lat="48.63159" lon="7.1259">
        <ele>434.7</ele>
        <time>2020-08-12T08:36:56Z</time>
      </trkpt>
      <trkpt lat="48.63162" lon="7.12601">
        <ele>434.6</ele>
        <time>2020-08-12T08:36:58Z</time>
      </trkpt>
      <trkpt lat="48.63166" lon="7.12611">
        <ele>434.1</ele>
        <time>2020-08-12T08:37:00Z</time>
      </trkpt>
      <trkpt lat="48.6317" lon="7.12622">
        <ele>434.3</ele>
        <time>2020-08-12T08:37:02Z</time>
      </trkpt>
      <trkpt lat="48.63173" lon="7.12632">
        <ele>435.2</ele>
        <time>2020-08-12T08:37:04Z</time>
      </trkpt>
      <trkpt lat="48.63177" lon="7.12642">
        <ele>436.1</ele>
        <time>2020-08-12T08:37:06Z</time>
      </trkpt>
      <trkpt lat="48.63179" lon="7.12651">
        <ele>436.8</ele>
        <time>2020-08-12T08:37:08Z</time>
      </trkpt>
      <trkpt lat="48.63181" lon="7.12659">
        <ele>438</ele>
        <time>2020-08-12T08:37:10Z</time>
      </trkpt>
      <trkpt lat="48.63182" lon="7.12667">
        <ele>438.6</ele>
        <time>2020-08-12T08:37:12Z</time>
      </trkpt>
      <trkpt lat="48.63184" lon="7.12674">
        <ele>439.4</ele>
        <time>2020-08-12T08:37:14Z</time>
      </trkpt>
      <trkpt lat="48.63186" lon="7.12683">
        <ele>439.2</ele>
        <time>2020-08-12T08:37:16Z</time>
      </trkpt>
      <trkpt lat="48.63187" lon="7.12696">
        <ele>437.8</ele>
        <time>2020-08-12T08:37:18Z</time>
      </trkpt>
      <trkpt lat="48.63188" lon="7.12709">
        <ele>437.3</ele>
        <time>2020-08-12T08:37:20Z</time>
      </trkpt>
      <trkpt lat="48.6319" lon="7.12723">
        <ele>436.4</ele>
        <time>2020-08-12T08:37:22Z</time>
      </trkpt>
      <trkpt lat="48.63193" lon="7.12741">
        <ele>436.2</ele>
        <time>2020-08-12T08:37:24Z</time>
      </trkpt>
      <trkpt lat="48.63199" lon="7.12762">
        <ele>435.5</ele>
        <time>2020-08-12T08:37:26Z</time>
      </trkpt>
      <trkpt lat="48.63205" lon="7.12786">
        <ele>436</ele>
        <time>2020-08-12T08:37:28Z</time>
      </trkpt>
      <trkpt lat="48.63207" lon="7.12808">
        <ele>434.9</ele>
        <time>2020-08-12T08:37:30Z</time>
      </trkpt>
      <trkpt lat="48.63203" lon="7.12828">
        <ele>434.2</ele>
        <time>2020-08-12T08:37:32Z</time>
      </trkpt>
      <trkpt lat="48.63197" lon="7.1284">
        <ele>434.2</ele>
        <time>2020-08-12T08:37:34Z</time>
      </trkpt>
      <trkpt lat="48.6319" lon="7.12847">
        <ele>434</ele>
        <time>2020-08-12T08:37:36Z</time>
      </trkpt>
      <trkpt lat="48.63183" lon="7.12853">
        <ele>433.7</ele>
        <time>2020-08-12T08:37:38Z</time>
      </trkpt>
      <trkpt lat="48.63176" lon="7.12857">
        <ele>434.7</ele>
        <time>2020-08-12T08:37:40Z</time>
      </trkpt>
      <trkpt lat="48.6317" lon="7.1286">
        <ele>435</ele>
        <time>2020-08-12T08:37:42Z</time>
      </trkpt>
      <trkpt lat="48.63164" lon="7.12864">
        <ele>435.7</ele>
        <time>2020-08-12T08:37:44Z</time>
      </trkpt>
      <trkpt lat="48.63157" lon="7.12866">
        <ele>436.1</ele>
        <time>2020-08-12T08:37:46Z</time>
      </trkpt>
      <trkpt lat="48.6315" lon="7.12869">
        <ele>436</ele>
        <time>2020-08-12T08:37:48Z</time>
      </trkpt>
      <trkpt lat="48.63141" lon="7.12871">
        <ele>435.7</ele>
        <time>2020-08-12T08:37:50Z</time>
      </trkpt>
      <trkpt lat="48.63132" lon="7.12872">
        <ele>436</ele>
        <time>2020-08-12T08:37:52Z</time>
      </trkpt>
      <trkpt lat="48.63125" lon="7.12873">
        <ele>436.6</ele>
        <time>2020-08-12T08:37:54Z</time>
      </trkpt>
      <trkpt lat="48.63117" lon="7.12874">
        <ele>437</ele>
        <time>2020-08-12T08:37:56Z</time>
      </trkpt>
      <trkpt lat="48.63104" lon="7.12877">
        <ele>437.2</ele>
        <time>2020-08-12T08:37:58Z</time>
      </trkpt>
      <trkpt lat="48.63094" lon="7.1288">
        <ele>436.9</ele>
        <time>2020-08-12T08:38:00Z</time>
      </trkpt>
      <trkpt lat="48.63086" lon="7.12884">
        <ele>437.5</ele>
        <time>2020-08-12T08:38:02Z</time>
      </trkpt>
      <trkpt lat="48.63077" lon="7.12885">
        <ele>437.1</ele>
        <time>2020-08-12T08:38:04Z</time>
      </trkpt>
      <trkpt lat="48.63069" lon="7.12885">
        <ele>437.2</ele>
        <time>2020-08-12T08:38:06Z</time>
      </trkpt>
      <trkpt lat="48.63061" lon="7.12886">
        <ele>437.8</ele>
        <time>2020-08-12T08:38:08Z</time>
      </trkpt>
      <trkpt lat="48.63052" lon="7.12887">
        <ele>438.1</ele>
        <time>2020-08-12T08:38:10Z</time>
      </trkpt>
      <trkpt lat="48.63044" lon="7.12887">
        <ele>438.6</ele>
        <time>2020-08-12T08:38:12Z</time>
      </trkpt>
      <trkpt lat="48.63033" lon="7.12888">
        <ele>439.2</ele>
        <time>2020-08-12T08:38:14Z</time>
      </trkpt>
      <trkpt lat="48.63024" lon="7.1289">
        <ele>439.4</ele>
        <time>2020-08-12T08:38:16Z</time>
      </trkpt>
      <trkpt lat="48.63016" lon="7.12895">
        <ele>439.4</ele>
        <time>2020-08-12T08:38:18Z</time>
      </trkpt>
      <trkpt lat="48.63012" lon="7.129">
        <ele>439.1</ele>
        <time>2020-08-12T08:38:20Z</time>
      </trkpt>
      <trkpt lat="48.63009" lon="7.12906">
        <ele>438.7</ele>
        <time>2020-08-12T08:38:26Z</time>
      </trkpt>
      <trkpt lat="48.63009" lon="7.12916">
        <ele>437.3</ele>
        <time>2020-08-12T08:38:29Z</time>
      </trkpt>
      <trkpt lat="48.63008" lon="7.12925">
        <ele>436.6</ele>
        <time>2020-08-12T08:38:31Z</time>
      </trkpt>
      <trkpt lat="48.63004" lon="7.12937">
        <ele>435.3</ele>
        <time>2020-08-12T08:38:33Z</time>
      </trkpt>
      <trkpt lat="48.62999" lon="7.12949">
        <ele>434.3</ele>
        <time>2020-08-12T08:38:35Z</time>
      </trkpt>
      <trkpt lat="48.62994" lon="7.1296">
        <ele>433.9</ele>
        <time>2020-08-12T08:38:37Z</time>
      </trkpt>
      <trkpt lat="48.62989" lon="7.12972">
        <ele>433.2</ele>
        <time>2020-08-12T08:38:39Z</time>
      </trkpt>
      <trkpt lat="48.62984" lon="7.12986">
        <ele>432.3</ele>
        <time>2020-08-12T08:38:41Z</time>
      </trkpt>
      <trkpt lat="48.62976" lon="7.13">
        <ele>431.7</ele>
        <time>2020-08-12T08:38:43Z</time>
      </trkpt>
      <trkpt lat="48.62967" lon="7.1301">
        <ele>431.4</ele>
        <time>2020-08-12T08:38:45Z</time>
      </trkpt>
      <trkpt lat="48.62961" lon="7.13016">
        <ele>430.7</ele>
        <time>2020-08-12T08:38:47Z</time>
      </trkpt>
      <trkpt lat="48.62957" lon="7.1302">
        <ele>429.2</ele>
        <time>2020-08-12T08:38:50Z</time>
      </trkpt>
      <trkpt lat="48.62952" lon="7.13024">
        <ele>426.4</ele>
        <time>2020-08-12T08:39:05Z</time>
      </trkpt>
      <trkpt lat="48.62947" lon="7.13019">
        <ele>425.8</ele>
        <time>2020-08-12T08:39:08Z</time>
      </trkpt>
      <trkpt lat="48.62944" lon="7.13014">
        <ele>425.5</ele>
        <time>2020-08-12T08:39:10Z</time>
      </trkpt>
      <trkpt lat="48.62939" lon="7.13009">
        <ele>425.1</ele>
        <time>2020-08-12T08:39:12Z</time>
      </trkpt>
      <trkpt lat="48.62933" lon="7.13004">
        <ele>424.5</ele>
        <time>2020-08-12T08:39:14Z</time>
      </trkpt>
      <trkpt lat="48.62928" lon="7.12999">
        <ele>423.9</ele>
        <time>2020-08-12T08:39:16Z</time>
      </trkpt>
      <trkpt lat="48.62923" lon="7.12995">
        <ele>423.4</ele>
        <time>2020-08-12T08:39:18Z</time>
      </trkpt>
      <trkpt lat="48.62917" lon="7.12991">
        <ele>422.4</ele>
        <time>2020-08-12T08:39:20Z</time>
      </trkpt>
      <trkpt lat="48.62911" lon="7.12989">
        <ele>422.2</ele>
        <time>2020-08-12T08:39:22Z</time>
      </trkpt>
      <trkpt lat="48.62905" lon="7.12987">
        <ele>421.5</ele>
        <time>2020-08-12T08:39:24Z</time>
      </trkpt>
      <trkpt lat="48.629" lon="7.12984">
        <ele>421.4</ele>
        <time>2020-08-12T08:39:26Z</time>
      </trkpt>
      <trkpt lat="48.62895" lon="7.12982">
        <ele>421.9</ele>
        <time>2020-08-12T08:39:28Z</time>
      </trkpt>
      <trkpt lat="48.62889" lon="7.1298">
        <ele>421.6</ele>
        <time>2020-08-12T08:39:30Z</time>
      </trkpt>
      <trkpt lat="48.62884" lon="7.12978">
        <ele>421.4</ele>
        <time>2020-08-12T08:39:32Z</time>
      </trkpt>
      <trkpt lat="48.6288" lon="7.12974">
        <ele>420.8</ele>
        <time>2020-08-12T08:39:34Z</time>
      </trkpt>
      <trkpt lat="48.62876" lon="7.1297">
        <ele>418.7</ele>
        <time>2020-08-12T08:39:37Z</time>
      </trkpt>
      <trkpt lat="48.62871" lon="7.1297">
        <ele>416.4</ele>
        <time>2020-08-12T08:39:41Z</time>
      </trkpt>
      <trkpt lat="48.62874" lon="7.12977">
        <ele>414.8</ele>
        <time>2020-08-12T08:39:47Z</time>
      </trkpt>
      <trkpt lat="48.62876" lon="7.12984">
        <ele>414.4</ele>
        <time>2020-08-12T08:39:50Z</time>
      </trkpt>
      <trkpt lat="48.62879" lon="7.12991">
        <ele>414.1</ele>
        <time>2020-08-12T08:39:55Z</time>
      </trkpt>
      <trkpt lat="48.62881" lon="7.12998">
        <ele>413.5</ele>
        <time>2020-08-12T08:39:58Z</time>
      </trkpt>
      <trkpt lat="48.62884" lon="7.13005">
        <ele>413.5</ele>
        <time>2020-08-12T08:40:00Z</time>
      </trkpt>
      <trkpt lat="48.62888" lon="7.13012">
        <ele>413.3</ele>
        <time>2020-08-12T08:40:02Z</time>
      </trkpt>
      <trkpt lat="48.62892" lon="7.1302">
        <ele>413.3</ele>
        <time>2020-08-12T08:40:04Z</time>
      </trkpt>
      <trkpt lat="48.62897" lon="7.13026">
        <ele>414</ele>
        <time>2020-08-12T08:40:06Z</time>
      </trkpt>
      <trkpt lat="48.629" lon="7.13032">
        <ele>414.8</ele>
        <time>2020-08-12T08:40:08Z</time>
      </trkpt>
      <trkpt lat="48.62902" lon="7.13038">
        <ele>415.2</ele>
        <time>2020-08-12T08:40:11Z</time>
      </trkpt>
      <trkpt lat="48.62902" lon="7.13045">
        <ele>415.5</ele>
        <time>2020-08-12T08:40:14Z</time>
      </trkpt>
      <trkpt lat="48.62901" lon="7.13053">
        <ele>415.8</ele>
        <time>2020-08-12T08:40:16Z</time>
      </trkpt>
      <trkpt lat="48.629" lon="7.13063">
        <ele>415.5</ele>
        <time>2020-08-12T08:40:18Z</time>
      </trkpt>
      <trkpt lat="48.62899" lon="7.13075">
        <ele>414.9</ele>
        <time>2020-08-12T08:40:20Z</time>
      </trkpt>
      <trkpt lat="48.62896" lon="7.13086">
        <ele>414.9</ele>
        <time>2020-08-12T08:40:22Z</time>
      </trkpt>
      <trkpt lat="48.62894" lon="7.13096">
        <ele>415.2</ele>
        <time>2020-08-12T08:40:24Z</time>
      </trkpt>
      <trkpt lat="48.62893" lon="7.13107">
        <ele>414.9</ele>
        <time>2020-08-12T08:40:26Z</time>
      </trkpt>
      <trkpt lat="48.62894" lon="7.13117">
        <ele>414.1</ele>
        <time>2020-08-12T08:40:28Z</time>
      </trkpt>
      <trkpt lat="48.62894" lon="7.13127">
        <ele>413.8</ele>
        <time>2020-08-12T08:40:30Z</time>
      </trkpt>
      <trkpt lat="48.62892" lon="7.13138">
        <ele>413.5</ele>
        <time>2020-08-12T08:40:32Z</time>
      </trkpt>
      <trkpt lat="48.6289" lon="7.13148">
        <ele>413.6</ele>
        <time>2020-08-12T08:40:34Z</time>
      </trkpt>
      <trkpt lat="48.62887" lon="7.13158">
        <ele>413.2</ele>
        <time>2020-08-12T08:40:36Z</time>
      </trkpt>
      <trkpt lat="48.62885" lon="7.13167">
        <ele>413</ele>
        <time>2020-08-12T08:40:38Z</time>
      </trkpt>
      <trkpt lat="48.62884" lon="7.13174">
        <ele>412.7</ele>
        <time>2020-08-12T08:40:40Z</time>
      </trkpt>
      <trkpt lat="48.62882" lon="7.13181">
        <ele>413.3</ele>
        <time>2020-08-12T08:40:42Z</time>
      </trkpt>
      <trkpt lat="48.6288" lon="7.1319">
        <ele>414.1</ele>
        <time>2020-08-12T08:40:44Z</time>
      </trkpt>
      <trkpt lat="48.62877" lon="7.13198">
        <ele>414.9</ele>
        <time>2020-08-12T08:40:46Z</time>
      </trkpt>
      <trkpt lat="48.62873" lon="7.13205">
        <ele>415.4</ele>
        <time>2020-08-12T08:40:48Z</time>
      </trkpt>
      <trkpt lat="48.62868" lon="7.13211">
        <ele>415.7</ele>
        <time>2020-08-12T08:40:50Z</time>
      </trkpt>
      <trkpt lat="48.62862" lon="7.13216">
        <ele>415.5</ele>
        <time>2020-08-12T08:40:52Z</time>
      </trkpt>
      <trkpt lat="48.62856" lon="7.13221">
        <ele>414.1</ele>
        <time>2020-08-12T08:40:54Z</time>
      </trkpt>
      <trkpt lat="48.6285" lon="7.13226">
        <ele>413.3</ele>
        <time>2020-08-12T08:40:56Z</time>
      </trkpt>
      <trkpt lat="48.62844" lon="7.13233">
        <ele>412.4</ele>
        <time>2020-08-12T08:40:58Z</time>
      </trkpt>
      <trkpt lat="48.62839" lon="7.13241">
        <ele>411.9</ele>
        <time>2020-08-12T08:41:00Z</time>
      </trkpt>
      <trkpt lat="48.62834" lon="7.13249">
        <ele>411.2</ele>
        <time>2020-08-12T08:41:02Z</time>
      </trkpt>
      <trkpt lat="48.6283" lon="7.13258">
        <ele>410.8</ele>
        <time>2020-08-12T08:41:04Z</time>
      </trkpt>
      <trkpt lat="48.62826" lon="7.13266">
        <ele>410.7</ele>
        <time>2020-08-12T08:41:06Z</time>
      </trkpt>
      <trkpt lat="48.62821" lon="7.13272">
        <ele>410.4</ele>
        <time>2020-08-12T08:41:08Z</time>
      </trkpt>
      <trkpt lat="48.62818" lon="7.13278">
        <ele>410.2</ele>
        <time>2020-08-12T08:41:10Z</time>
      </trkpt>
      <trkpt lat="48.62814" lon="7.13283">
        <ele>410.2</ele>
        <time>2020-08-12T08:41:12Z</time>
      </trkpt>
      <trkpt lat="48.62811" lon="7.13288">
        <ele>410.3</ele>
        <time>2020-08-12T08:41:14Z</time>
      </trkpt>
      <trkpt lat="48.62806" lon="7.13293">
        <ele>410.4</ele>
        <time>2020-08-12T08:41:16Z</time>
      </trkpt>
      <trkpt lat="48.62802" lon="7.133">
        <ele>410.5</ele>
        <time>2020-08-12T08:41:18Z</time>
      </trkpt>
      <trkpt lat="48.62797" lon="7.13305">
        <ele>410.7</ele>
        <time>2020-08-12T08:41:20Z</time>
      </trkpt>
      <trkpt lat="48.62792" lon="7.13309">
        <ele>410.6</ele>
        <time>2020-08-12T08:41:22Z</time>
      </trkpt>
      <trkpt lat="48.62788" lon="7.13314">
        <ele>407.7</ele>
        <time>2020-08-12T08:41:24Z</time>
      </trkpt>
      <trkpt lat="48.62783" lon="7.13321">
        <ele>406.4</ele>
        <time>2020-08-12T08:41:26Z</time>
      </trkpt>
      <trkpt lat="48.62778" lon="7.13327">
        <ele>404.7</ele>
        <time>2020-08-12T08:41:28Z</time>
      </trkpt>
      <trkpt lat="48.62771" lon="7.13331">
        <ele>403.4</ele>
        <time>2020-08-12T08:41:30Z</time>
      </trkpt>
      <trkpt lat="48.62763" lon="7.13334">
        <ele>403</ele>
        <time>2020-08-12T08:41:32Z</time>
      </trkpt>
      <trkpt lat="48.62756" lon="7.13336">
        <ele>400.3</ele>
        <time>2020-08-12T08:41:34Z</time>
      </trkpt>
      <trkpt lat="48.62749" lon="7.13339">
        <ele>399.5</ele>
        <time>2020-08-12T08:41:36Z</time>
      </trkpt>
      <trkpt lat="48.62743" lon="7.13343">
        <ele>398.9</ele>
        <time>2020-08-12T08:41:38Z</time>
      </trkpt>
      <trkpt lat="48.62737" lon="7.1335">
        <ele>400.6</ele>
        <time>2020-08-12T08:41:40Z</time>
      </trkpt>
      <trkpt lat="48.6273" lon="7.13359">
        <ele>401.3</ele>
        <time>2020-08-12T08:41:42Z</time>
      </trkpt>
      <trkpt lat="48.62724" lon="7.13368">
        <ele>402.9</ele>
        <time>2020-08-12T08:41:44Z</time>
      </trkpt>
      <trkpt lat="48.62719" lon="7.13377">
        <ele>404</ele>
        <time>2020-08-12T08:41:46Z</time>
      </trkpt>
      <trkpt lat="48.62716" lon="7.13384">
        <ele>405.3</ele>
        <time>2020-08-12T08:41:48Z</time>
      </trkpt>
      <trkpt lat="48.62714" lon="7.1339">
        <ele>406.9</ele>
        <time>2020-08-12T08:41:51Z</time>
      </trkpt>
      <trkpt lat="48.62714" lon="7.13398">
        <ele>410.4</ele>
        <time>2020-08-12T08:41:56Z</time>
      </trkpt>
      <trkpt lat="48.62718" lon="7.13406">
        <ele>412.1</ele>
        <time>2020-08-12T08:41:59Z</time>
      </trkpt>
      <trkpt lat="48.62721" lon="7.13414">
        <ele>412.7</ele>
        <time>2020-08-12T08:42:01Z</time>
      </trkpt>
      <trkpt lat="48.62725" lon="7.1342">
        <ele>413.5</ele>
        <time>2020-08-12T08:42:03Z</time>
      </trkpt>
      <trkpt lat="48.62729" lon="7.13427">
        <ele>414.9</ele>
        <time>2020-08-12T08:42:05Z</time>
      </trkpt>
      <trkpt lat="48.62734" lon="7.13433">
        <ele>416.2</ele>
        <time>2020-08-12T08:42:07Z</time>
      </trkpt>
      <trkpt lat="48.62738" lon="7.13438">
        <ele>417.3</ele>
        <time>2020-08-12T08:42:09Z</time>
      </trkpt>
      <trkpt lat="48.62742" lon="7.13442">
        <ele>418.7</ele>
        <time>2020-08-12T08:42:11Z</time>
      </trkpt>
      <trkpt lat="48.62746" lon="7.13447">
        <ele>420.5</ele>
        <time>2020-08-12T08:42:15Z</time>
      </trkpt>
      <trkpt lat="48.62751" lon="7.13451">
        <ele>424.2</ele>
        <time>2020-08-12T08:42:21Z</time>
      </trkpt>
      <trkpt lat="48.62755" lon="7.13457">
        <ele>427.8</ele>
        <time>2020-08-12T08:42:25Z</time>
      </trkpt>
      <trkpt lat="48.62758" lon="7.13463">
        <ele>431.2</ele>
        <time>2020-08-12T08:42:29Z</time>
      </trkpt>
      <trkpt lat="48.62763" lon="7.13468">
        <ele>435.3</ele>
        <time>2020-08-12T08:42:39Z</time>
      </trkpt>
      <trkpt lat="48.62768" lon="7.13473">
        <ele>436.2</ele>
        <time>2020-08-12T08:42:42Z</time>
      </trkpt>
      <trkpt lat="48.62771" lon="7.13478">
        <ele>437.1</ele>
        <time>2020-08-12T08:42:44Z</time>
      </trkpt>
      <trkpt lat="48.62775" lon="7.13484">
        <ele>438.1</ele>
        <time>2020-08-12T08:42:46Z</time>
      </trkpt>
      <trkpt lat="48.6278" lon="7.1349">
        <ele>437.5</ele>
        <time>2020-08-12T08:42:48Z</time>
      </trkpt>
      <trkpt lat="48.62784" lon="7.13494">
        <ele>437.5</ele>
        <time>2020-08-12T08:42:50Z</time>
      </trkpt>
      <trkpt lat="48.62788" lon="7.135">
        <ele>437.5</ele>
        <time>2020-08-12T08:42:52Z</time>
      </trkpt>
      <trkpt lat="48.6279" lon="7.13507">
        <ele>439.2</ele>
        <time>2020-08-12T08:42:54Z</time>
      </trkpt>
      <trkpt lat="48.62793" lon="7.13514">
        <ele>441.3</ele>
        <time>2020-08-12T08:42:56Z</time>
      </trkpt>
      <trkpt lat="48.62797" lon="7.13518">
        <ele>443.6</ele>
        <time>2020-08-12T08:42:58Z</time>
      </trkpt>
      <trkpt lat="48.628" lon="7.13524">
        <ele>444.7</ele>
        <time>2020-08-12T08:43:00Z</time>
      </trkpt>
      <trkpt lat="48.62803" lon="7.13532">
        <ele>445.8</ele>
        <time>2020-08-12T08:43:03Z</time>
      </trkpt>
      <trkpt lat="48.62807" lon="7.13538">
        <ele>446.4</ele>
        <time>2020-08-12T08:43:08Z</time>
      </trkpt>
      <trkpt lat="48.62811" lon="7.13542">
        <ele>444.7</ele>
        <time>2020-08-12T08:43:16Z</time>
      </trkpt>
      <trkpt lat="48.62815" lon="7.13548">
        <ele>444.3</ele>
        <time>2020-08-12T08:43:19Z</time>
      </trkpt>
      <trkpt lat="48.62819" lon="7.13556">
        <ele>444.5</ele>
        <time>2020-08-12T08:43:21Z</time>
      </trkpt>
      <trkpt lat="48.62823" lon="7.13564">
        <ele>444.7</ele>
        <time>2020-08-12T08:43:23Z</time>
      </trkpt>
      <trkpt lat="48.62828" lon="7.13572">
        <ele>445.7</ele>
        <time>2020-08-12T08:43:25Z</time>
      </trkpt>
      <trkpt lat="48.62831" lon="7.13579">
        <ele>447.1</ele>
        <time>2020-08-12T08:43:27Z</time>
      </trkpt>
      <trkpt lat="48.62834" lon="7.13585">
        <ele>448.4</ele>
        <time>2020-08-12T08:43:29Z</time>
      </trkpt>
      <trkpt lat="48.62837" lon="7.13591">
        <ele>448.9</ele>
        <time>2020-08-12T08:43:31Z</time>
      </trkpt>
      <trkpt lat="48.6284" lon="7.13597">
        <ele>452.7</ele>
        <time>2020-08-12T08:43:36Z</time>
      </trkpt>
      <trkpt lat="48.62844" lon="7.13604">
        <ele>455.9</ele>
        <time>2020-08-12T08:43:48Z</time>
      </trkpt>
      <trkpt lat="48.62848" lon="7.1361">
        <ele>456</ele>
        <time>2020-08-12T08:43:50Z</time>
      </trkpt>
      <trkpt lat="48.62852" lon="7.13618">
        <ele>455.9</ele>
        <time>2020-08-12T08:43:52Z</time>
      </trkpt>
      <trkpt lat="48.62858" lon="7.13627">
        <ele>456.3</ele>
        <time>2020-08-12T08:43:54Z</time>
      </trkpt>
      <trkpt lat="48.62863" lon="7.13637">
        <ele>455.1</ele>
        <time>2020-08-12T08:43:56Z</time>
      </trkpt>
      <trkpt lat="48.62868" lon="7.13646">
        <ele>455</ele>
        <time>2020-08-12T08:43:58Z</time>
      </trkpt>
      <trkpt lat="48.62872" lon="7.13652">
        <ele>454.1</ele>
        <time>2020-08-12T08:44:00Z</time>
      </trkpt>
      <trkpt lat="48.62876" lon="7.13649">
        <ele>448.5</ele>
        <time>2020-08-12T08:44:22Z</time>
      </trkpt>
      <trkpt lat="48.62881" lon="7.13651">
        <ele>448.2</ele>
        <time>2020-08-12T08:44:35Z</time>
      </trkpt>
      <trkpt lat="48.62886" lon="7.13651">
        <ele>445.1</ele>
        <time>2020-08-12T08:44:42Z</time>
      </trkpt>
      <trkpt lat="48.6289" lon="7.13653">
        <ele>445.3</ele>
        <time>2020-08-12T08:44:49Z</time>
      </trkpt>
      <trkpt lat="48.62895" lon="7.13656">
        <ele>444.8</ele>
        <time>2020-08-12T08:44:55Z</time>
      </trkpt>
      <trkpt lat="48.62899" lon="7.13662">
        <ele>442.5</ele>
        <time>2020-08-12T08:44:59Z</time>
      </trkpt>
      <trkpt lat="48.62903" lon="7.13666">
        <ele>439</ele>
        <time>2020-08-12T08:45:04Z</time>
      </trkpt>
      <trkpt lat="48.62908" lon="7.13671">
        <ele>437.2</ele>
        <time>2020-08-12T08:45:09Z</time>
      </trkpt>
      <trkpt lat="48.62912" lon="7.13676">
        <ele>435.6</ele>
        <time>2020-08-12T08:45:13Z</time>
      </trkpt>
      <trkpt lat="48.62917" lon="7.1368">
        <ele>435.4</ele>
        <time>2020-08-12T08:45:17Z</time>
      </trkpt>
      <trkpt lat="48.62922" lon="7.13682">
        <ele>435.6</ele>
        <time>2020-08-12T08:45:21Z</time>
      </trkpt>
      <trkpt lat="48.62927" lon="7.13685">
        <ele>434.2</ele>
        <time>2020-08-12T08:45:26Z</time>
      </trkpt>
      <trkpt lat="48.6293" lon="7.13689">
        <ele>429.7</ele>
        <time>2020-08-12T08:45:31Z</time>
      </trkpt>
      <trkpt lat="48.62935" lon="7.13693">
        <ele>428</ele>
        <time>2020-08-12T08:45:37Z</time>
      </trkpt>
      <trkpt lat="48.62939" lon="7.13697">
        <ele>427.1</ele>
        <time>2020-08-12T08:45:43Z</time>
      </trkpt>
      <trkpt lat="48.62943" lon="7.13702">
        <ele>427.9</ele>
        <time>2020-08-12T08:45:48Z</time>
      </trkpt>
      <trkpt lat="48.62948" lon="7.13705">
        <ele>428.5</ele>
        <time>2020-08-12T08:45:52Z</time>
      </trkpt>
      <trkpt lat="48.62953" lon="7.13707">
        <ele>431.4</ele>
        <time>2020-08-12T08:45:57Z</time>
      </trkpt>
      <trkpt lat="48.62958" lon="7.13711">
        <ele>434.6</ele>
        <time>2020-08-12T08:46:02Z</time>
      </trkpt>
      <trkpt lat="48.62962" lon="7.13713">
        <ele>438.3</ele>
        <time>2020-08-12T08:46:08Z</time>
      </trkpt>
      <trkpt lat="48.62967" lon="7.13715">
        <ele>440.3</ele>
        <time>2020-08-12T08:46:13Z</time>
      </trkpt>
      <trkpt lat="48.62971" lon="7.1372">
        <ele>444.5</ele>
        <time>2020-08-12T08:46:17Z</time>
      </trkpt>
      <trkpt lat="48.62975" lon="7.13724">
        <ele>447.1</ele>
        <time>2020-08-12T08:46:22Z</time>
      </trkpt>
      <trkpt lat="48.6298" lon="7.13726">
        <ele>447.5</ele>
        <time>2020-08-12T08:46:27Z</time>
      </trkpt>
      <trkpt lat="48.62985" lon="7.13726">
        <ele>447.9</ele>
        <time>2020-08-12T08:46:32Z</time>
      </trkpt>
      <trkpt lat="48.62989" lon="7.13727">
        <ele>449.9</ele>
        <time>2020-08-12T08:46:39Z</time>
      </trkpt>
      <trkpt lat="48.62994" lon="7.1373">
        <ele>450.8</ele>
        <time>2020-08-12T08:46:45Z</time>
      </trkpt>
      <trkpt lat="48.62999" lon="7.13733">
        <ele>451.9</ele>
        <time>2020-08-12T08:46:50Z</time>
      </trkpt>
      <trkpt lat="48.63003" lon="7.13736">
        <ele>453.3</ele>
        <time>2020-08-12T08:46:55Z</time>
      </trkpt>
      <trkpt lat="48.63007" lon="7.1374">
        <ele>452</ele>
        <time>2020-08-12T08:47:01Z</time>
      </trkpt>
      <trkpt lat="48.63012" lon="7.13738">
        <ele>452.3</ele>
        <time>2020-08-12T08:47:09Z</time>
      </trkpt>
      <trkpt lat="48.63017" lon="7.13739">
        <ele>455.5</ele>
        <time>2020-08-12T08:47:19Z</time>
      </trkpt>
      <trkpt lat="48.63021" lon="7.13737">
        <ele>458.8</ele>
        <time>2020-08-12T08:47:28Z</time>
      </trkpt>
      <trkpt lat="48.63024" lon="7.13731">
        <ele>460.8</ele>
        <time>2020-08-12T08:47:34Z</time>
      </trkpt>
      <trkpt lat="48.63028" lon="7.13727">
        <ele>462.7</ele>
        <time>2020-08-12T08:47:42Z</time>
      </trkpt>
      <trkpt lat="48.63033" lon="7.13729">
        <ele>463.1</ele>
        <time>2020-08-12T08:47:48Z</time>
      </trkpt>
      <trkpt lat="48.63037" lon="7.13734">
        <ele>462.8</ele>
        <time>2020-08-12T08:47:53Z</time>
      </trkpt>
      <trkpt lat="48.63042" lon="7.13734">
        <ele>462.1</ele>
        <time>2020-08-12T08:48:00Z</time>
      </trkpt>
      <trkpt lat="48.63046" lon="7.13737">
        <ele>462.7</ele>
        <time>2020-08-12T08:48:07Z</time>
      </trkpt>
      <trkpt lat="48.63051" lon="7.1374">
        <ele>464.1</ele>
        <time>2020-08-12T08:48:13Z</time>
      </trkpt>
      <trkpt lat="48.63055" lon="7.13742">
        <ele>465.1</ele>
        <time>2020-08-12T08:48:16Z</time>
      </trkpt>
      <trkpt lat="48.6306" lon="7.13743">
        <ele>466.2</ele>
        <time>2020-08-12T08:48:19Z</time>
      </trkpt>
      <trkpt lat="48.63064" lon="7.13739">
        <ele>467.8</ele>
        <time>2020-08-12T08:48:23Z</time>
      </trkpt>
      <trkpt lat="48.63069" lon="7.13736">
        <ele>470.2</ele>
        <time>2020-08-12T08:48:31Z</time>
      </trkpt>
      <trkpt lat="48.63074" lon="7.13739">
        <ele>470.1</ele>
        <time>2020-08-12T08:48:35Z</time>
      </trkpt>
      <trkpt lat="48.63078" lon="7.13743">
        <ele>469.8</ele>
        <time>2020-08-12T08:48:37Z</time>
      </trkpt>
      <trkpt lat="48.63083" lon="7.13748">
        <ele>470.1</ele>
        <time>2020-08-12T08:48:39Z</time>
      </trkpt>
      <trkpt lat="48.63087" lon="7.13753">
        <ele>470.7</ele>
        <time>2020-08-12T08:48:41Z</time>
      </trkpt>
      <trkpt lat="48.63091" lon="7.13758">
        <ele>470.7</ele>
        <time>2020-08-12T08:48:43Z</time>
      </trkpt>
      <trkpt lat="48.63096" lon="7.13762">
        <ele>470.5</ele>
        <time>2020-08-12T08:48:46Z</time>
      </trkpt>
      <trkpt lat="48.63102" lon="7.13763">
        <ele>469.9</ele>
        <time>2020-08-12T08:48:49Z</time>
      </trkpt>
      <trkpt lat="48.63107" lon="7.13765">
        <ele>469.7</ele>
        <time>2020-08-12T08:48:51Z</time>
      </trkpt>
      <trkpt lat="48.63112" lon="7.13769">
        <ele>468.5</ele>
        <time>2020-08-12T08:48:53Z</time>
      </trkpt>
      <trkpt lat="48.63116" lon="7.13774">
        <ele>467.6</ele>
        <time>2020-08-12T08:48:55Z</time>
      </trkpt>
      <trkpt lat="48.6312" lon="7.13778">
        <ele>466.8</ele>
        <time>2020-08-12T08:48:57Z</time>
      </trkpt>
      <trkpt lat="48.63125" lon="7.1378">
        <ele>465.5</ele>
        <time>2020-08-12T08:48:59Z</time>
      </trkpt>
      <trkpt lat="48.63131" lon="7.13783">
        <ele>464.5</ele>
        <time>2020-08-12T08:49:01Z</time>
      </trkpt>
      <trkpt lat="48.63136" lon="7.13788">
        <ele>463</ele>
        <time>2020-08-12T08:49:03Z</time>
      </trkpt>
      <trkpt lat="48.63142" lon="7.13795">
        <ele>462.1</ele>
        <time>2020-08-12T08:49:05Z</time>
      </trkpt>
      <trkpt lat="48.63147" lon="7.13802">
        <ele>461</ele>
        <time>2020-08-12T08:49:07Z</time>
      </trkpt>
      <trkpt lat="48.63152" lon="7.13811">
        <ele>460.6</ele>
        <time>2020-08-12T08:49:09Z</time>
      </trkpt>
      <trkpt lat="48.63157" lon="7.13819">
        <ele>460.3</ele>
        <time>2020-08-12T08:49:11Z</time>
      </trkpt>
      <trkpt lat="48.63161" lon="7.13828">
        <ele>460.5</ele>
        <time>2020-08-12T08:49:13Z</time>
      </trkpt>
    </trkseg>
  </trk>
  <trk>
    <name><![CDATA[secteur Saverne - Dabo - Petite Pierre_12]]></name>
    <trkseg>
      <trkpt lat="48.63163" lon="7.13829">
        <ele>472.3</ele>
        <time>2020-08-12T08:50:52Z</time>
      </trkpt>
      <trkpt lat="48.63163" lon="7.13829">
        <ele>472.3</ele>
        <time>2020-08-12T08:50:52Z</time>
      </trkpt>
      <trkpt lat="48.63163" lon="7.13829">
        <ele>472.3</ele>
        <time>2020-08-12T08:50:52Z</time>
      </trkpt>
      <trkpt lat="48.63163" lon="7.13829">
        <ele>472.3</ele>
        <time>2020-08-12T08:50:52Z</time>
      </trkpt>
      <trkpt lat="48.63163" lon="7.13829">
        <ele>472.3</ele>
        <time>2020-08-12T08:50:52Z</time>
      </trkpt>
      <trkpt lat="48.63163" lon="7.13829">
        <ele>472.3</ele>
        <time>2020-08-12T08:50:52Z</time>
      </trkpt>
      <trkpt lat="48.63163" lon="7.13829">
        <ele>472.3</ele>
        <time>2020-08-12T08:50:52Z</time>
      </trkpt>
      <trkpt lat="48.63163" lon="7.13829">
        <ele>472.3</ele>
        <time>2020-08-12T08:50:52Z</time>
      </trkpt>
      <trkpt lat="48.63156" lon="7.13825">
        <ele>473.1</ele>
        <time>2020-08-12T08:50:54Z</time>
      </trkpt>
      <trkpt lat="48.63148" lon="7.13827">
        <ele>473.4</ele>
        <time>2020-08-12T08:50:56Z</time>
      </trkpt>
      <trkpt lat="48.63142" lon="7.13831">
        <ele>473.9</ele>
        <time>2020-08-12T08:50:58Z</time>
      </trkpt>
      <trkpt lat="48.63136" lon="7.13835">
        <ele>473.5</ele>
        <time>2020-08-12T08:51:00Z</time>
      </trkpt>
      <trkpt lat="48.6313" lon="7.13839">
        <ele>473.2</ele>
        <time>2020-08-12T08:51:02Z</time>
      </trkpt>
      <trkpt lat="48.63126" lon="7.13841">
        <ele>473.1</ele>
        <time>2020-08-12T08:51:04Z</time>
      </trkpt>
      <trkpt lat="48.63121" lon="7.13842">
        <ele>472.3</ele>
        <time>2020-08-12T08:51:07Z</time>
      </trkpt>
      <trkpt lat="48.6312" lon="7.1385">
        <ele>469.5</ele>
        <time>2020-08-12T08:51:20Z</time>
      </trkpt>
      <trkpt lat="48.63124" lon="7.13857">
        <ele>468.5</ele>
        <time>2020-08-12T08:51:23Z</time>
      </trkpt>
      <trkpt lat="48.63128" lon="7.13862">
        <ele>468.2</ele>
        <time>2020-08-12T08:51:25Z</time>
      </trkpt>
      <trkpt lat="48.63134" lon="7.13869">
        <ele>468</ele>
        <time>2020-08-12T08:51:27Z</time>
      </trkpt>
      <trkpt lat="48.63141" lon="7.13875">
        <ele>468.3</ele>
        <time>2020-08-12T08:51:29Z</time>
      </trkpt>
      <trkpt lat="48.63151" lon="7.1388">
        <ele>468.3</ele>
        <time>2020-08-12T08:51:31Z</time>
      </trkpt>
      <trkpt lat="48.63161" lon="7.13889">
        <ele>468</ele>
        <time>2020-08-12T08:51:33Z</time>
      </trkpt>
      <trkpt lat="48.63174" lon="7.139">
        <ele>467.6</ele>
        <time>2020-08-12T08:51:35Z</time>
      </trkpt>
      <trkpt lat="48.63187" lon="7.13911">
        <ele>466</ele>
        <time>2020-08-12T08:51:37Z</time>
      </trkpt>
      <trkpt lat="48.63198" lon="7.13919">
        <ele>464.8</ele>
        <time>2020-08-12T08:51:39Z</time>
      </trkpt>
      <trkpt lat="48.63209" lon="7.13929">
        <ele>463.5</ele>
        <time>2020-08-12T08:51:41Z</time>
      </trkpt>
      <trkpt lat="48.63219" lon="7.13943">
        <ele>462.2</ele>
        <time>2020-08-12T08:51:43Z</time>
      </trkpt>
      <trkpt lat="48.63229" lon="7.13957">
        <ele>460.9</ele>
        <time>2020-08-12T08:51:45Z</time>
      </trkpt>
      <trkpt lat="48.63238" lon="7.13974">
        <ele>459.8</ele>
        <time>2020-08-12T08:51:47Z</time>
      </trkpt>
      <trkpt lat="48.63242" lon="7.13993">
        <ele>457.9</ele>
        <time>2020-08-12T08:51:49Z</time>
      </trkpt>
      <trkpt lat="48.63245" lon="7.1401">
        <ele>456.9</ele>
        <time>2020-08-12T08:51:51Z</time>
      </trkpt>
      <trkpt lat="48.6325" lon="7.14025">
        <ele>455.8</ele>
        <time>2020-08-12T08:51:53Z</time>
      </trkpt>
      <trkpt lat="48.63255" lon="7.14042">
        <ele>455.6</ele>
        <time>2020-08-12T08:51:55Z</time>
      </trkpt>
      <trkpt lat="48.63256" lon="7.14056">
        <ele>455.2</ele>
        <time>2020-08-12T08:51:57Z</time>
      </trkpt>
      <trkpt lat="48.63256" lon="7.14067">
        <ele>454.9</ele>
        <time>2020-08-12T08:51:59Z</time>
      </trkpt>
      <trkpt lat="48.63251" lon="7.1407">
        <ele>453.2</ele>
        <time>2020-08-12T08:52:02Z</time>
      </trkpt>
      <trkpt lat="48.63246" lon="7.14062">
        <ele>451.1</ele>
        <time>2020-08-12T08:52:05Z</time>
      </trkpt>
      <trkpt lat="48.63243" lon="7.14054">
        <ele>449.4</ele>
        <time>2020-08-12T08:52:07Z</time>
      </trkpt>
      <trkpt lat="48.63236" lon="7.14041">
        <ele>447.4</ele>
        <time>2020-08-12T08:52:09Z</time>
      </trkpt>
      <trkpt lat="48.63227" lon="7.14028">
        <ele>446</ele>
        <time>2020-08-12T08:52:11Z</time>
      </trkpt>
      <trkpt lat="48.63217" lon="7.14017">
        <ele>444.4</ele>
        <time>2020-08-12T08:52:13Z</time>
      </trkpt>
      <trkpt lat="48.63207" lon="7.14008">
        <ele>435.5</ele>
        <time>2020-08-12T08:52:15Z</time>
      </trkpt>
      <trkpt lat="48.63195" lon="7.13999">
        <ele>433</ele>
        <time>2020-08-12T08:52:17Z</time>
      </trkpt>
      <trkpt lat="48.63186" lon="7.1399">
        <ele>428.1</ele>
        <time>2020-08-12T08:52:19Z</time>
      </trkpt>
      <trkpt lat="48.63175" lon="7.13983">
        <ele>426.5</ele>
        <time>2020-08-12T08:52:21Z</time>
      </trkpt>
      <trkpt lat="48.63165" lon="7.13978">
        <ele>426.1</ele>
        <time>2020-08-12T08:52:23Z</time>
      </trkpt>
      <trkpt lat="48.63155" lon="7.13976">
        <ele>426.5</ele>
        <time>2020-08-12T08:52:25Z</time>
      </trkpt>
      <trkpt lat="48.63144" lon="7.13975">
        <ele>426.8</ele>
        <time>2020-08-12T08:52:27Z</time>
      </trkpt>
      <trkpt lat="48.63137" lon="7.13977">
        <ele>427.7</ele>
        <time>2020-08-12T08:52:29Z</time>
      </trkpt>
      <trkpt lat="48.6314" lon="7.13984">
        <ele>427.1</ele>
        <time>2020-08-12T08:52:40Z</time>
      </trkpt>
      <trkpt lat="48.63146" lon="7.13986">
        <ele>427.8</ele>
        <time>2020-08-12T08:52:44Z</time>
      </trkpt>
      <trkpt lat="48.6315" lon="7.13989">
        <ele>427.8</ele>
        <time>2020-08-12T08:52:46Z</time>
      </trkpt>
      <trkpt lat="48.63156" lon="7.13994">
        <ele>428.7</ele>
        <time>2020-08-12T08:52:48Z</time>
      </trkpt>
      <trkpt lat="48.63162" lon="7.13998">
        <ele>429.8</ele>
        <time>2020-08-12T08:52:50Z</time>
      </trkpt>
      <trkpt lat="48.63168" lon="7.14002">
        <ele>430.2</ele>
        <time>2020-08-12T08:52:52Z</time>
      </trkpt>
      <trkpt lat="48.63174" lon="7.14007">
        <ele>429.6</ele>
        <time>2020-08-12T08:52:54Z</time>
      </trkpt>
      <trkpt lat="48.63179" lon="7.14013">
        <ele>428.6</ele>
        <time>2020-08-12T08:52:56Z</time>
      </trkpt>
      <trkpt lat="48.63184" lon="7.1402">
        <ele>428.2</ele>
        <time>2020-08-12T08:52:58Z</time>
      </trkpt>
      <trkpt lat="48.63189" lon="7.14028">
        <ele>427.4</ele>
        <time>2020-08-12T08:53:00Z</time>
      </trkpt>
      <trkpt lat="48.63194" lon="7.14037">
        <ele>426.7</ele>
        <time>2020-08-12T08:53:02Z</time>
      </trkpt>
      <trkpt lat="48.63201" lon="7.1405">
        <ele>425.9</ele>
        <time>2020-08-12T08:53:04Z</time>
      </trkpt>
      <trkpt lat="48.6321" lon="7.14064">
        <ele>424.4</ele>
        <time>2020-08-12T08:53:06Z</time>
      </trkpt>
      <trkpt lat="48.63218" lon="7.14078">
        <ele>424</ele>
        <time>2020-08-12T08:53:08Z</time>
      </trkpt>
      <trkpt lat="48.63221" lon="7.14089">
        <ele>423.8</ele>
        <time>2020-08-12T08:53:10Z</time>
      </trkpt>
      <trkpt lat="48.63225" lon="7.14103">
        <ele>419.7</ele>
        <time>2020-08-12T08:53:12Z</time>
      </trkpt>
      <trkpt lat="48.63225" lon="7.14123">
        <ele>418.3</ele>
        <time>2020-08-12T08:53:15Z</time>
      </trkpt>
      <trkpt lat="48.63226" lon="7.14137">
        <ele>417.3</ele>
        <time>2020-08-12T08:53:17Z</time>
      </trkpt>
      <trkpt lat="48.63227" lon="7.14153">
        <ele>416.6</ele>
        <time>2020-08-12T08:53:19Z</time>
      </trkpt>
      <trkpt lat="48.63231" lon="7.14168">
        <ele>415.9</ele>
        <time>2020-08-12T08:53:21Z</time>
      </trkpt>
      <trkpt lat="48.63235" lon="7.14185">
        <ele>415.8</ele>
        <time>2020-08-12T08:53:23Z</time>
      </trkpt>
      <trkpt lat="48.63239" lon="7.14202">
        <ele>415.7</ele>
        <time>2020-08-12T08:53:25Z</time>
      </trkpt>
      <trkpt lat="48.63243" lon="7.14219">
        <ele>416.6</ele>
        <time>2020-08-12T08:53:27Z</time>
      </trkpt>
      <trkpt lat="48.63248" lon="7.14235">
        <ele>415.6</ele>
        <time>2020-08-12T08:53:29Z</time>
      </trkpt>
      <trkpt lat="48.63253" lon="7.14249">
        <ele>415</ele>
        <time>2020-08-12T08:53:31Z</time>
      </trkpt>
      <trkpt lat="48.63256" lon="7.14263">
        <ele>415.3</ele>
        <time>2020-08-12T08:53:33Z</time>
      </trkpt>
      <trkpt lat="48.6326" lon="7.14276">
        <ele>415</ele>
        <time>2020-08-12T08:53:35Z</time>
      </trkpt>
      <trkpt lat="48.63264" lon="7.14289">
        <ele>414.8</ele>
        <time>2020-08-12T08:53:37Z</time>
      </trkpt>
      <trkpt lat="48.63269" lon="7.14303">
        <ele>414.7</ele>
        <time>2020-08-12T08:53:39Z</time>
      </trkpt>
      <trkpt lat="48.63274" lon="7.14317">
        <ele>415.1</ele>
        <time>2020-08-12T08:53:41Z</time>
      </trkpt>
      <trkpt lat="48.63278" lon="7.14329">
        <ele>415.4</ele>
        <time>2020-08-12T08:53:43Z</time>
      </trkpt>
      <trkpt lat="48.63282" lon="7.1434">
        <ele>415.9</ele>
        <time>2020-08-12T08:53:45Z</time>
      </trkpt>
      <trkpt lat="48.63285" lon="7.14351">
        <ele>416.6</ele>
        <time>2020-08-12T08:53:47Z</time>
      </trkpt>
      <trkpt lat="48.63291" lon="7.14359">
        <ele>417.6</ele>
        <time>2020-08-12T08:53:49Z</time>
      </trkpt>
      <trkpt lat="48.63296" lon="7.14368">
        <ele>418.6</ele>
        <time>2020-08-12T08:53:51Z</time>
      </trkpt>
      <trkpt lat="48.63301" lon="7.14375">
        <ele>419</ele>
        <time>2020-08-12T08:53:53Z</time>
      </trkpt>
      <trkpt lat="48.63306" lon="7.14382">
        <ele>419.8</ele>
        <time>2020-08-12T08:53:55Z</time>
      </trkpt>
      <trkpt lat="48.6331" lon="7.14389">
        <ele>420.6</ele>
        <time>2020-08-12T08:53:57Z</time>
      </trkpt>
      <trkpt lat="48.63314" lon="7.14394">
        <ele>421.3</ele>
        <time>2020-08-12T08:53:59Z</time>
      </trkpt>
      <trkpt lat="48.63318" lon="7.14399">
        <ele>421.6</ele>
        <time>2020-08-12T08:54:01Z</time>
      </trkpt>
      <trkpt lat="48.63323" lon="7.14403">
        <ele>422.3</ele>
        <time>2020-08-12T08:54:03Z</time>
      </trkpt>
      <trkpt lat="48.63328" lon="7.14408">
        <ele>423.1</ele>
        <time>2020-08-12T08:54:05Z</time>
      </trkpt>
      <trkpt lat="48.63333" lon="7.14411">
        <ele>423.4</ele>
        <time>2020-08-12T08:54:07Z</time>
      </trkpt>
      <trkpt lat="48.63337" lon="7.14414">
        <ele>423.6</ele>
        <time>2020-08-12T08:54:09Z</time>
      </trkpt>
      <trkpt lat="48.63344" lon="7.14417">
        <ele>431.5</ele>
        <time>2020-08-12T08:54:12Z</time>
      </trkpt>
      <trkpt lat="48.63348" lon="7.14419">
        <ele>432.5</ele>
        <time>2020-08-12T08:54:14Z</time>
      </trkpt>
      <trkpt lat="48.63353" lon="7.14421">
        <ele>432.5</ele>
        <time>2020-08-12T08:54:16Z</time>
      </trkpt>
      <trkpt lat="48.63358" lon="7.14423">
        <ele>432</ele>
        <time>2020-08-12T08:54:18Z</time>
      </trkpt>
      <trkpt lat="48.63363" lon="7.14425">
        <ele>429.6</ele>
        <time>2020-08-12T08:54:21Z</time>
      </trkpt>
      <trkpt lat="48.6337" lon="7.14428">
        <ele>426.8</ele>
        <time>2020-08-12T08:54:24Z</time>
      </trkpt>
      <trkpt lat="48.63375" lon="7.14428">
        <ele>424.3</ele>
        <time>2020-08-12T08:54:26Z</time>
      </trkpt>
      <trkpt lat="48.63381" lon="7.14429">
        <ele>422.4</ele>
        <time>2020-08-12T08:54:28Z</time>
      </trkpt>
      <trkpt lat="48.63386" lon="7.14433">
        <ele>432.2</ele>
        <time>2020-08-12T08:54:31Z</time>
      </trkpt>
      <trkpt lat="48.63391" lon="7.14436">
        <ele>433.6</ele>
        <time>2020-08-12T08:54:33Z</time>
      </trkpt>
      <trkpt lat="48.63396" lon="7.14438">
        <ele>432.7</ele>
        <time>2020-08-12T08:54:35Z</time>
      </trkpt>
      <trkpt lat="48.63401" lon="7.14437">
        <ele>431.3</ele>
        <time>2020-08-12T08:54:37Z</time>
      </trkpt>
      <trkpt lat="48.63408" lon="7.14436">
        <ele>429.3</ele>
        <time>2020-08-12T08:54:40Z</time>
      </trkpt>
      <trkpt lat="48.63413" lon="7.14437">
        <ele>428.4</ele>
        <time>2020-08-12T08:54:42Z</time>
      </trkpt>
      <trkpt lat="48.63418" lon="7.14438">
        <ele>427.9</ele>
        <time>2020-08-12T08:54:44Z</time>
      </trkpt>
      <trkpt lat="48.63423" lon="7.14441">
        <ele>427.4</ele>
        <time>2020-08-12T08:54:46Z</time>
      </trkpt>
      <trkpt lat="48.6343" lon="7.14445">
        <ele>427.9</ele>
        <time>2020-08-12T08:54:48Z</time>
      </trkpt>
      <trkpt lat="48.63436" lon="7.1445">
        <ele>428.6</ele>
        <time>2020-08-12T08:54:50Z</time>
      </trkpt>
      <trkpt lat="48.63441" lon="7.14453">
        <ele>429.7</ele>
        <time>2020-08-12T08:54:52Z</time>
      </trkpt>
      <trkpt lat="48.63446" lon="7.14456">
        <ele>430.5</ele>
        <time>2020-08-12T08:54:54Z</time>
      </trkpt>
      <trkpt lat="48.63451" lon="7.14456">
        <ele>430.2</ele>
        <time>2020-08-12T08:54:56Z</time>
      </trkpt>
      <trkpt lat="48.63456" lon="7.14457">
        <ele>429.7</ele>
        <time>2020-08-12T08:54:58Z</time>
      </trkpt>
      <trkpt lat="48.63463" lon="7.14458">
        <ele>428.3</ele>
        <time>2020-08-12T08:55:01Z</time>
      </trkpt>
      <trkpt lat="48.63468" lon="7.14459">
        <ele>427.4</ele>
        <time>2020-08-12T08:55:03Z</time>
      </trkpt>
      <trkpt lat="48.63473" lon="7.1446">
        <ele>427.6</ele>
        <time>2020-08-12T08:55:05Z</time>
      </trkpt>
      <trkpt lat="48.63478" lon="7.14462">
        <ele>428.2</ele>
        <time>2020-08-12T08:55:07Z</time>
      </trkpt>
      <trkpt lat="48.63482" lon="7.14466">
        <ele>428.4</ele>
        <time>2020-08-12T08:55:09Z</time>
      </trkpt>
      <trkpt lat="48.63488" lon="7.14471">
        <ele>428.6</ele>
        <time>2020-08-12T08:55:11Z</time>
      </trkpt>
      <trkpt lat="48.63493" lon="7.14475">
        <ele>428.8</ele>
        <time>2020-08-12T08:55:13Z</time>
      </trkpt>
      <trkpt lat="48.63499" lon="7.14479">
        <ele>428.9</ele>
        <time>2020-08-12T08:55:15Z</time>
      </trkpt>
      <trkpt lat="48.63504" lon="7.14484">
        <ele>429.1</ele>
        <time>2020-08-12T08:55:17Z</time>
      </trkpt>
      <trkpt lat="48.63509" lon="7.14489">
        <ele>429</ele>
        <time>2020-08-12T08:55:19Z</time>
      </trkpt>
      <trkpt lat="48.63514" lon="7.14494">
        <ele>429.6</ele>
        <time>2020-08-12T08:55:21Z</time>
      </trkpt>
      <trkpt lat="48.63518" lon="7.14498">
        <ele>429</ele>
        <time>2020-08-12T08:55:23Z</time>
      </trkpt>
      <trkpt lat="48.63523" lon="7.14503">
        <ele>429</ele>
        <time>2020-08-12T08:55:25Z</time>
      </trkpt>
      <trkpt lat="48.63528" lon="7.14508">
        <ele>430.1</ele>
        <time>2020-08-12T08:55:27Z</time>
      </trkpt>
      <trkpt lat="48.63533" lon="7.14514">
        <ele>431.3</ele>
        <time>2020-08-12T08:55:29Z</time>
      </trkpt>
      <trkpt lat="48.63536" lon="7.14523">
        <ele>432.9</ele>
        <time>2020-08-12T08:55:31Z</time>
      </trkpt>
      <trkpt lat="48.63539" lon="7.14532">
        <ele>434.1</ele>
        <time>2020-08-12T08:55:33Z</time>
      </trkpt>
      <trkpt lat="48.63541" lon="7.1454">
        <ele>435</ele>
        <time>2020-08-12T08:55:35Z</time>
      </trkpt>
      <trkpt lat="48.63543" lon="7.14548">
        <ele>436.5</ele>
        <time>2020-08-12T08:55:37Z</time>
      </trkpt>
      <trkpt lat="48.63546" lon="7.14556">
        <ele>437.1</ele>
        <time>2020-08-12T08:55:39Z</time>
      </trkpt>
      <trkpt lat="48.63548" lon="7.14565">
        <ele>437</ele>
        <time>2020-08-12T08:55:41Z</time>
      </trkpt>
      <trkpt lat="48.63551" lon="7.14574">
        <ele>437.5</ele>
        <time>2020-08-12T08:55:43Z</time>
      </trkpt>
      <trkpt lat="48.63555" lon="7.14586">
        <ele>438.2</ele>
        <time>2020-08-12T08:55:45Z</time>
      </trkpt>
      <trkpt lat="48.63556" lon="7.14602">
        <ele>438.2</ele>
        <time>2020-08-12T08:55:47Z</time>
      </trkpt>
      <trkpt lat="48.63558" lon="7.14619">
        <ele>439.2</ele>
        <time>2020-08-12T08:55:49Z</time>
      </trkpt>
      <trkpt lat="48.63558" lon="7.14635">
        <ele>440.5</ele>
        <time>2020-08-12T08:55:51Z</time>
      </trkpt>
      <trkpt lat="48.63558" lon="7.14648">
        <ele>440.9</ele>
        <time>2020-08-12T08:55:53Z</time>
      </trkpt>
      <trkpt lat="48.63558" lon="7.14662">
        <ele>441.8</ele>
        <time>2020-08-12T08:55:55Z</time>
      </trkpt>
      <trkpt lat="48.63557" lon="7.14672">
        <ele>442.9</ele>
        <time>2020-08-12T08:55:57Z</time>
      </trkpt>
      <trkpt lat="48.63556" lon="7.14684">
        <ele>443.5</ele>
        <time>2020-08-12T08:55:59Z</time>
      </trkpt>
      <trkpt lat="48.63554" lon="7.14697">
        <ele>444.3</ele>
        <time>2020-08-12T08:56:01Z</time>
      </trkpt>
      <trkpt lat="48.63554" lon="7.14709">
        <ele>445.7</ele>
        <time>2020-08-12T08:56:03Z</time>
      </trkpt>
      <trkpt lat="48.63554" lon="7.14721">
        <ele>446.8</ele>
        <time>2020-08-12T08:56:05Z</time>
      </trkpt>
      <trkpt lat="48.63555" lon="7.14733">
        <ele>447.4</ele>
        <time>2020-08-12T08:56:07Z</time>
      </trkpt>
      <trkpt lat="48.63557" lon="7.14744">
        <ele>448.6</ele>
        <time>2020-08-12T08:56:09Z</time>
      </trkpt>
      <trkpt lat="48.63557" lon="7.14752">
        <ele>450</ele>
        <time>2020-08-12T08:56:11Z</time>
      </trkpt>
      <trkpt lat="48.63557" lon="7.14762">
        <ele>450.8</ele>
        <time>2020-08-12T08:56:13Z</time>
      </trkpt>
      <trkpt lat="48.63557" lon="7.14772">
        <ele>451.4</ele>
        <time>2020-08-12T08:56:15Z</time>
      </trkpt>
      <trkpt lat="48.63556" lon="7.14782">
        <ele>452.1</ele>
        <time>2020-08-12T08:56:17Z</time>
      </trkpt>
      <trkpt lat="48.63557" lon="7.14793">
        <ele>451.3</ele>
        <time>2020-08-12T08:56:19Z</time>
      </trkpt>
      <trkpt lat="48.63558" lon="7.14804">
        <ele>450.9</ele>
        <time>2020-08-12T08:56:21Z</time>
      </trkpt>
      <trkpt lat="48.63558" lon="7.14816">
        <ele>451.3</ele>
        <time>2020-08-12T08:56:23Z</time>
      </trkpt>
      <trkpt lat="48.63558" lon="7.14826">
        <ele>451.2</ele>
        <time>2020-08-12T08:56:25Z</time>
      </trkpt>
      <trkpt lat="48.63557" lon="7.14838">
        <ele>450.7</ele>
        <time>2020-08-12T08:56:27Z</time>
      </trkpt>
      <trkpt lat="48.63556" lon="7.14849">
        <ele>451.1</ele>
        <time>2020-08-12T08:56:29Z</time>
      </trkpt>
      <trkpt lat="48.63555" lon="7.14861">
        <ele>451.3</ele>
        <time>2020-08-12T08:56:31Z</time>
      </trkpt>
      <trkpt lat="48.63554" lon="7.14873">
        <ele>451.7</ele>
        <time>2020-08-12T08:56:33Z</time>
      </trkpt>
      <trkpt lat="48.63554" lon="7.14883">
        <ele>452.2</ele>
        <time>2020-08-12T08:56:35Z</time>
      </trkpt>
      <trkpt lat="48.63554" lon="7.14893">
        <ele>454.3</ele>
        <time>2020-08-12T08:56:37Z</time>
      </trkpt>
      <trkpt lat="48.63554" lon="7.14902">
        <ele>455.1</ele>
        <time>2020-08-12T08:56:39Z</time>
      </trkpt>
      <trkpt lat="48.63553" lon="7.14918">
        <ele>456.7</ele>
        <time>2020-08-12T08:56:42Z</time>
      </trkpt>
      <trkpt lat="48.63551" lon="7.14929">
        <ele>456.6</ele>
        <time>2020-08-12T08:56:44Z</time>
      </trkpt>
      <trkpt lat="48.63547" lon="7.14945">
        <ele>457.7</ele>
        <time>2020-08-12T08:56:47Z</time>
      </trkpt>
      <trkpt lat="48.63544" lon="7.14956">
        <ele>458.3</ele>
        <time>2020-08-12T08:56:49Z</time>
      </trkpt>
      <trkpt lat="48.63541" lon="7.14966">
        <ele>458.4</ele>
        <time>2020-08-12T08:56:51Z</time>
      </trkpt>
      <trkpt lat="48.63539" lon="7.14975">
        <ele>459.4</ele>
        <time>2020-08-12T08:56:53Z</time>
      </trkpt>
      <trkpt lat="48.63535" lon="7.14985">
        <ele>459.8</ele>
        <time>2020-08-12T08:56:55Z</time>
      </trkpt>
      <trkpt lat="48.63531" lon="7.14994">
        <ele>460.3</ele>
        <time>2020-08-12T08:56:57Z</time>
      </trkpt>
      <trkpt lat="48.63528" lon="7.15002">
        <ele>459.6</ele>
        <time>2020-08-12T08:56:59Z</time>
      </trkpt>
      <trkpt lat="48.63524" lon="7.15009">
        <ele>458.8</ele>
        <time>2020-08-12T08:57:01Z</time>
      </trkpt>
      <trkpt lat="48.63518" lon="7.15015">
        <ele>458</ele>
        <time>2020-08-12T08:57:03Z</time>
      </trkpt>
      <trkpt lat="48.63514" lon="7.1502">
        <ele>457.3</ele>
        <time>2020-08-12T08:57:05Z</time>
      </trkpt>
      <trkpt lat="48.63509" lon="7.15022">
        <ele>454.8</ele>
        <time>2020-08-12T08:57:10Z</time>
      </trkpt>
      <trkpt lat="48.6351" lon="7.15029">
        <ele>456.9</ele>
        <time>2020-08-12T08:57:29Z</time>
      </trkpt>
      <trkpt lat="48.63514" lon="7.15034">
        <ele>458.1</ele>
        <time>2020-08-12T08:57:42Z</time>
      </trkpt>
      <trkpt lat="48.63517" lon="7.15039">
        <ele>460.9</ele>
        <time>2020-08-12T08:57:53Z</time>
      </trkpt>
      <trkpt lat="48.63522" lon="7.15043">
        <ele>463.4</ele>
        <time>2020-08-12T08:57:59Z</time>
      </trkpt>
      <trkpt lat="48.63525" lon="7.15049">
        <ele>464.5</ele>
        <time>2020-08-12T08:58:05Z</time>
      </trkpt>
      <trkpt lat="48.63528" lon="7.15054">
        <ele>465.1</ele>
        <time>2020-08-12T08:58:10Z</time>
      </trkpt>
      <trkpt lat="48.63532" lon="7.15059">
        <ele>465.8</ele>
        <time>2020-08-12T08:58:19Z</time>
      </trkpt>
      <trkpt lat="48.63536" lon="7.15064">
        <ele>467.2</ele>
        <time>2020-08-12T08:58:25Z</time>
      </trkpt>
      <trkpt lat="48.63539" lon="7.1507">
        <ele>468.4</ele>
        <time>2020-08-12T08:58:29Z</time>
      </trkpt>
      <trkpt lat="48.63542" lon="7.15076">
        <ele>469.5</ele>
        <time>2020-08-12T08:58:33Z</time>
      </trkpt>
      <trkpt lat="48.63546" lon="7.15083">
        <ele>469.7</ele>
        <time>2020-08-12T08:58:38Z</time>
      </trkpt>
      <trkpt lat="48.63549" lon="7.15089">
        <ele>471.2</ele>
        <time>2020-08-12T08:58:45Z</time>
      </trkpt>
      <trkpt lat="48.6355" lon="7.15096">
        <ele>472</ele>
        <time>2020-08-12T08:58:53Z</time>
      </trkpt>
      <trkpt lat="48.6355" lon="7.15103">
        <ele>471.9</ele>
        <time>2020-08-12T08:58:57Z</time>
      </trkpt>
      <trkpt lat="48.63553" lon="7.15108">
        <ele>474.9</ele>
        <time>2020-08-12T08:59:18Z</time>
      </trkpt>
      <trkpt lat="48.63557" lon="7.15113">
        <ele>486.1</ele>
        <time>2020-08-12T09:01:23Z</time>
      </trkpt>
      <trkpt lat="48.6356" lon="7.15119">
        <ele>484.1</ele>
        <time>2020-08-12T09:01:29Z</time>
      </trkpt>
      <trkpt lat="48.63561" lon="7.15126">
        <ele>482.5</ele>
        <time>2020-08-12T09:01:40Z</time>
      </trkpt>
      <trkpt lat="48.63566" lon="7.15126">
        <ele>480.7</ele>
        <time>2020-08-12T09:01:55Z</time>
      </trkpt>
      <trkpt lat="48.63571" lon="7.1513">
        <ele>479.6</ele>
        <time>2020-08-12T09:01:59Z</time>
      </trkpt>
      <trkpt lat="48.63575" lon="7.15132">
        <ele>478.5</ele>
        <time>2020-08-12T09:02:03Z</time>
      </trkpt>
      <trkpt lat="48.63582" lon="7.15134">
        <ele>478.2</ele>
        <time>2020-08-12T09:02:06Z</time>
      </trkpt>
      <trkpt lat="48.63588" lon="7.15142">
        <ele>478.5</ele>
        <time>2020-08-12T09:02:08Z</time>
      </trkpt>
      <trkpt lat="48.63594" lon="7.15146">
        <ele>477.6</ele>
        <time>2020-08-12T09:02:10Z</time>
      </trkpt>
      <trkpt lat="48.63599" lon="7.15149">
        <ele>477</ele>
        <time>2020-08-12T09:02:12Z</time>
      </trkpt>
      <trkpt lat="48.636" lon="7.15158">
        <ele>476.8</ele>
        <time>2020-08-12T09:02:15Z</time>
      </trkpt>
      <trkpt lat="48.63599" lon="7.15165">
        <ele>477.4</ele>
        <time>2020-08-12T09:02:22Z</time>
      </trkpt>
      <trkpt lat="48.63596" lon="7.15172">
        <ele>477.4</ele>
        <time>2020-08-12T09:02:24Z</time>
      </trkpt>
      <trkpt lat="48.63592" lon="7.15179">
        <ele>478.2</ele>
        <time>2020-08-12T09:02:26Z</time>
      </trkpt>
      <trkpt lat="48.63589" lon="7.15185">
        <ele>478.5</ele>
        <time>2020-08-12T09:02:30Z</time>
      </trkpt>
      <trkpt lat="48.63586" lon="7.15191">
        <ele>478.1</ele>
        <time>2020-08-12T09:02:38Z</time>
      </trkpt>
      <trkpt lat="48.63583" lon="7.15198">
        <ele>478</ele>
        <time>2020-08-12T09:02:41Z</time>
      </trkpt>
      <trkpt lat="48.63579" lon="7.15207">
        <ele>477.4</ele>
        <time>2020-08-12T09:02:43Z</time>
      </trkpt>
      <trkpt lat="48.63575" lon="7.15216">
        <ele>476.9</ele>
        <time>2020-08-12T09:02:45Z</time>
      </trkpt>
      <trkpt lat="48.63571" lon="7.15228">
        <ele>476.9</ele>
        <time>2020-08-12T09:02:47Z</time>
      </trkpt>
      <trkpt lat="48.63567" lon="7.15243">
        <ele>476.8</ele>
        <time>2020-08-12T09:02:49Z</time>
      </trkpt>
      <trkpt lat="48.63562" lon="7.15255">
        <ele>474.7</ele>
        <time>2020-08-12T09:02:51Z</time>
      </trkpt>
      <trkpt lat="48.63558" lon="7.15266">
        <ele>474</ele>
        <time>2020-08-12T09:02:53Z</time>
      </trkpt>
      <trkpt lat="48.63552" lon="7.15282">
        <ele>472.4</ele>
        <time>2020-08-12T09:02:56Z</time>
      </trkpt>
      <trkpt lat="48.63549" lon="7.15296">
        <ele>472.8</ele>
        <time>2020-08-12T09:02:58Z</time>
      </trkpt>
      <trkpt lat="48.63542" lon="7.15317">
        <ele>471</ele>
        <time>2020-08-12T09:03:01Z</time>
      </trkpt>
      <trkpt lat="48.63539" lon="7.15332">
        <ele>470.5</ele>
        <time>2020-08-12T09:03:03Z</time>
      </trkpt>
      <trkpt lat="48.63536" lon="7.15358">
        <ele>469.5</ele>
        <time>2020-08-12T09:03:06Z</time>
      </trkpt>
      <trkpt lat="48.63534" lon="7.15375">
        <ele>469.6</ele>
        <time>2020-08-12T09:03:08Z</time>
      </trkpt>
      <trkpt lat="48.63532" lon="7.15393">
        <ele>468.5</ele>
        <time>2020-08-12T09:03:10Z</time>
      </trkpt>
      <trkpt lat="48.63529" lon="7.15413">
        <ele>467.3</ele>
        <time>2020-08-12T09:03:12Z</time>
      </trkpt>
      <trkpt lat="48.63526" lon="7.15447">
        <ele>465.7</ele>
        <time>2020-08-12T09:03:15Z</time>
      </trkpt>
      <trkpt lat="48.63526" lon="7.15469">
        <ele>464.4</ele>
        <time>2020-08-12T09:03:17Z</time>
      </trkpt>
      <trkpt lat="48.63522" lon="7.15491">
        <ele>463.4</ele>
        <time>2020-08-12T09:03:19Z</time>
      </trkpt>
      <trkpt lat="48.63521" lon="7.15512">
        <ele>463.3</ele>
        <time>2020-08-12T09:03:21Z</time>
      </trkpt>
      <trkpt lat="48.6352" lon="7.15538">
        <ele>462.1</ele>
        <time>2020-08-12T09:03:24Z</time>
      </trkpt>
      <trkpt lat="48.63519" lon="7.15552">
        <ele>461</ele>
        <time>2020-08-12T09:03:26Z</time>
      </trkpt>
      <trkpt lat="48.6352" lon="7.15565">
        <ele>459.7</ele>
        <time>2020-08-12T09:03:28Z</time>
      </trkpt>
      <trkpt lat="48.6352" lon="7.15577">
        <ele>459.2</ele>
        <time>2020-08-12T09:03:30Z</time>
      </trkpt>
      <trkpt lat="48.63522" lon="7.1559">
        <ele>459.2</ele>
        <time>2020-08-12T09:03:32Z</time>
      </trkpt>
      <trkpt lat="48.63523" lon="7.15601">
        <ele>459</ele>
        <time>2020-08-12T09:03:34Z</time>
      </trkpt>
      <trkpt lat="48.63523" lon="7.1561">
        <ele>458.1</ele>
        <time>2020-08-12T09:03:36Z</time>
      </trkpt>
      <trkpt lat="48.63524" lon="7.15625">
        <ele>457.6</ele>
        <time>2020-08-12T09:03:39Z</time>
      </trkpt>
      <trkpt lat="48.63525" lon="7.15636">
        <ele>459</ele>
        <time>2020-08-12T09:03:41Z</time>
      </trkpt>
      <trkpt lat="48.63526" lon="7.15649">
        <ele>459.2</ele>
        <time>2020-08-12T09:03:43Z</time>
      </trkpt>
      <trkpt lat="48.63525" lon="7.1566">
        <ele>458</ele>
        <time>2020-08-12T09:03:45Z</time>
      </trkpt>
      <trkpt lat="48.63525" lon="7.1567">
        <ele>457.5</ele>
        <time>2020-08-12T09:03:47Z</time>
      </trkpt>
      <trkpt lat="48.63527" lon="7.15677">
        <ele>457</ele>
        <time>2020-08-12T09:03:49Z</time>
      </trkpt>
      <trkpt lat="48.63528" lon="7.15684">
        <ele>456.6</ele>
        <time>2020-08-12T09:03:52Z</time>
      </trkpt>
      <trkpt lat="48.63526" lon="7.15691">
        <ele>457</ele>
        <time>2020-08-12T09:05:37Z</time>
      </trkpt>
      <trkpt lat="48.6352" lon="7.1569">
        <ele>457.9</ele>
        <time>2020-08-12T09:05:41Z</time>
      </trkpt>
      <trkpt lat="48.63514" lon="7.1569">
        <ele>459.1</ele>
        <time>2020-08-12T09:05:44Z</time>
      </trkpt>
      <trkpt lat="48.63509" lon="7.15692">
        <ele>460.2</ele>
        <time>2020-08-12T09:05:47Z</time>
      </trkpt>
      <trkpt lat="48.63503" lon="7.15693">
        <ele>461</ele>
        <time>2020-08-12T09:05:50Z</time>
      </trkpt>
      <trkpt lat="48.63497" lon="7.15694">
        <ele>461.3</ele>
        <time>2020-08-12T09:05:53Z</time>
      </trkpt>
      <trkpt lat="48.63491" lon="7.15696">
        <ele>461.4</ele>
        <time>2020-08-12T09:05:56Z</time>
      </trkpt>
      <trkpt lat="48.63485" lon="7.15697">
        <ele>461.6</ele>
        <time>2020-08-12T09:05:59Z</time>
      </trkpt>
      <trkpt lat="48.6348" lon="7.15698">
        <ele>462.7</ele>
        <time>2020-08-12T09:06:02Z</time>
      </trkpt>
      <trkpt lat="48.63474" lon="7.15699">
        <ele>464.3</ele>
        <time>2020-08-12T09:06:05Z</time>
      </trkpt>
      <trkpt lat="48.63468" lon="7.15701">
        <ele>465.7</ele>
        <time>2020-08-12T09:06:08Z</time>
      </trkpt>
      <trkpt lat="48.63463" lon="7.15702">
        <ele>466.5</ele>
        <time>2020-08-12T09:06:10Z</time>
      </trkpt>
      <trkpt lat="48.63458" lon="7.15703">
        <ele>467.2</ele>
        <time>2020-08-12T09:06:12Z</time>
      </trkpt>
      <trkpt lat="48.63446" lon="7.15707">
        <ele>467.4</ele>
        <time>2020-08-12T09:06:15Z</time>
      </trkpt>
      <trkpt lat="48.63437" lon="7.15713">
        <ele>467.5</ele>
        <time>2020-08-12T09:06:17Z</time>
      </trkpt>
      <trkpt lat="48.63426" lon="7.15721">
        <ele>467.5</ele>
        <time>2020-08-12T09:06:20Z</time>
      </trkpt>
      <trkpt lat="48.63419" lon="7.15724">
        <ele>468.5</ele>
        <time>2020-08-12T09:06:22Z</time>
      </trkpt>
      <trkpt lat="48.63411" lon="7.15728">
        <ele>468.5</ele>
        <time>2020-08-12T09:06:24Z</time>
      </trkpt>
      <trkpt lat="48.63401" lon="7.15732">
        <ele>468.7</ele>
        <time>2020-08-12T09:06:26Z</time>
      </trkpt>
      <trkpt lat="48.63396" lon="7.15735">
        <ele>468.4</ele>
        <time>2020-08-12T09:06:28Z</time>
      </trkpt>
      <trkpt lat="48.6339" lon="7.15741">
        <ele>468.5</ele>
        <time>2020-08-12T09:06:30Z</time>
      </trkpt>
      <trkpt lat="48.63385" lon="7.15748">
        <ele>468.7</ele>
        <time>2020-08-12T09:06:32Z</time>
      </trkpt>
      <trkpt lat="48.63381" lon="7.15753">
        <ele>469.3</ele>
        <time>2020-08-12T09:06:34Z</time>
      </trkpt>
      <trkpt lat="48.63375" lon="7.15759">
        <ele>468.8</ele>
        <time>2020-08-12T09:06:36Z</time>
      </trkpt>
      <trkpt lat="48.63369" lon="7.15761">
        <ele>467.5</ele>
        <time>2020-08-12T09:06:38Z</time>
      </trkpt>
      <trkpt lat="48.63364" lon="7.15761">
        <ele>465.9</ele>
        <time>2020-08-12T09:06:40Z</time>
      </trkpt>
      <trkpt lat="48.63358" lon="7.15757">
        <ele>464.6</ele>
        <time>2020-08-12T09:06:43Z</time>
      </trkpt>
      <trkpt lat="48.63353" lon="7.15754">
        <ele>464.2</ele>
        <time>2020-08-12T09:06:45Z</time>
      </trkpt>
      <trkpt lat="48.63344" lon="7.15751">
        <ele>464.2</ele>
        <time>2020-08-12T09:06:48Z</time>
      </trkpt>
      <trkpt lat="48.63339" lon="7.15749">
        <ele>464.1</ele>
        <time>2020-08-12T09:06:50Z</time>
      </trkpt>
      <trkpt lat="48.63334" lon="7.15746">
        <ele>464.1</ele>
        <time>2020-08-12T09:06:52Z</time>
      </trkpt>
      <trkpt lat="48.6333" lon="7.15744">
        <ele>464.3</ele>
        <time>2020-08-12T09:06:54Z</time>
      </trkpt>
      <trkpt lat="48.63323" lon="7.15742">
        <ele>464.9</ele>
        <time>2020-08-12T09:06:57Z</time>
      </trkpt>
      <trkpt lat="48.63316" lon="7.1574">
        <ele>464.2</ele>
        <time>2020-08-12T09:07:00Z</time>
      </trkpt>
      <trkpt lat="48.63312" lon="7.15739">
        <ele>465.4</ele>
        <time>2020-08-12T09:07:05Z</time>
      </trkpt>
      <trkpt lat="48.63316" lon="7.15743">
        <ele>462.8</ele>
        <time>2020-08-12T09:07:25Z</time>
      </trkpt>
      <trkpt lat="48.63321" lon="7.15746">
        <ele>462.5</ele>
        <time>2020-08-12T09:07:27Z</time>
      </trkpt>
      <trkpt lat="48.63326" lon="7.1575">
        <ele>462.7</ele>
        <time>2020-08-12T09:07:29Z</time>
      </trkpt>
      <trkpt lat="48.6333" lon="7.15753">
        <ele>463</ele>
        <time>2020-08-12T09:07:31Z</time>
      </trkpt>
      <trkpt lat="48.63335" lon="7.15757">
        <ele>464</ele>
        <time>2020-08-12T09:07:34Z</time>
      </trkpt>
      <trkpt lat="48.63332" lon="7.15763">
        <ele>464</ele>
        <time>2020-08-12T09:07:38Z</time>
      </trkpt>
      <trkpt lat="48.63327" lon="7.15768">
        <ele>463.4</ele>
        <time>2020-08-12T09:07:40Z</time>
      </trkpt>
      <trkpt lat="48.63321" lon="7.15774">
        <ele>463.2</ele>
        <time>2020-08-12T09:07:42Z</time>
      </trkpt>
      <trkpt lat="48.63315" lon="7.1578">
        <ele>462.3</ele>
        <time>2020-08-12T09:07:44Z</time>
      </trkpt>
      <trkpt lat="48.63308" lon="7.15785">
        <ele>462.2</ele>
        <time>2020-08-12T09:07:46Z</time>
      </trkpt>
      <trkpt lat="48.633" lon="7.15785">
        <ele>462.4</ele>
        <time>2020-08-12T09:07:48Z</time>
      </trkpt>
      <trkpt lat="48.63293" lon="7.15785">
        <ele>461.5</ele>
        <time>2020-08-12T09:07:50Z</time>
      </trkpt>
      <trkpt lat="48.63285" lon="7.15783">
        <ele>461.5</ele>
        <time>2020-08-12T09:07:52Z</time>
      </trkpt>
      <trkpt lat="48.63277" lon="7.15782">
        <ele>461.9</ele>
        <time>2020-08-12T09:07:54Z</time>
      </trkpt>
      <trkpt lat="48.63271" lon="7.15785">
        <ele>462.2</ele>
        <time>2020-08-12T09:07:56Z</time>
      </trkpt>
      <trkpt lat="48.63266" lon="7.1579">
        <ele>462</ele>
        <time>2020-08-12T09:07:58Z</time>
      </trkpt>
      <trkpt lat="48.63261" lon="7.15797">
        <ele>462.5</ele>
        <time>2020-08-12T09:08:00Z</time>
      </trkpt>
      <trkpt lat="48.63256" lon="7.15803">
        <ele>463.6</ele>
        <time>2020-08-12T09:08:02Z</time>
      </trkpt>
      <trkpt lat="48.63252" lon="7.15809">
        <ele>464.9</ele>
        <time>2020-08-12T09:08:04Z</time>
      </trkpt>
      <trkpt lat="48.63248" lon="7.15815">
        <ele>465.3</ele>
        <time>2020-08-12T09:08:06Z</time>
      </trkpt>
      <trkpt lat="48.63244" lon="7.1582">
        <ele>465.3</ele>
        <time>2020-08-12T09:08:08Z</time>
      </trkpt>
      <trkpt lat="48.63241" lon="7.15825">
        <ele>464.8</ele>
        <time>2020-08-12T09:08:10Z</time>
      </trkpt>
      <trkpt lat="48.63238" lon="7.15831">
        <ele>464.5</ele>
        <time>2020-08-12T09:08:12Z</time>
      </trkpt>
      <trkpt lat="48.63235" lon="7.15838">
        <ele>464</ele>
        <time>2020-08-12T09:08:14Z</time>
      </trkpt>
      <trkpt lat="48.63232" lon="7.15845">
        <ele>463.9</ele>
        <time>2020-08-12T09:08:16Z</time>
      </trkpt>
      <trkpt lat="48.63227" lon="7.15851">
        <ele>462.8</ele>
        <time>2020-08-12T09:08:18Z</time>
      </trkpt>
      <trkpt lat="48.63222" lon="7.15854">
        <ele>462.7</ele>
        <time>2020-08-12T09:08:20Z</time>
      </trkpt>
      <trkpt lat="48.63216" lon="7.15857">
        <ele>462.4</ele>
        <time>2020-08-12T09:08:22Z</time>
      </trkpt>
      <trkpt lat="48.63212" lon="7.15861">
        <ele>463</ele>
        <time>2020-08-12T09:08:25Z</time>
      </trkpt>
      <trkpt lat="48.63209" lon="7.15867">
        <ele>459.5</ele>
        <time>2020-08-12T09:08:40Z</time>
      </trkpt>
      <trkpt lat="48.63205" lon="7.15875">
        <ele>459.7</ele>
        <time>2020-08-12T09:08:43Z</time>
      </trkpt>
      <trkpt lat="48.63203" lon="7.15882">
        <ele>460.6</ele>
        <time>2020-08-12T09:08:45Z</time>
      </trkpt>
      <trkpt lat="48.632" lon="7.15889">
        <ele>461</ele>
        <time>2020-08-12T09:08:47Z</time>
      </trkpt>
      <trkpt lat="48.63197" lon="7.15895">
        <ele>461.1</ele>
        <time>2020-08-12T09:08:49Z</time>
      </trkpt>
      <trkpt lat="48.63192" lon="7.15903">
        <ele>461.7</ele>
        <time>2020-08-12T09:08:52Z</time>
      </trkpt>
      <trkpt lat="48.6319" lon="7.15909">
        <ele>461.8</ele>
        <time>2020-08-12T09:08:54Z</time>
      </trkpt>
      <trkpt lat="48.63187" lon="7.15917">
        <ele>460.9</ele>
        <time>2020-08-12T09:08:57Z</time>
      </trkpt>
      <trkpt lat="48.63184" lon="7.15925">
        <ele>460.7</ele>
        <time>2020-08-12T09:09:00Z</time>
      </trkpt>
      <trkpt lat="48.63181" lon="7.15933">
        <ele>461.1</ele>
        <time>2020-08-12T09:09:03Z</time>
      </trkpt>
      <trkpt lat="48.63179" lon="7.15942">
        <ele>461.4</ele>
        <time>2020-08-12T09:09:06Z</time>
      </trkpt>
      <trkpt lat="48.63177" lon="7.15951">
        <ele>461.8</ele>
        <time>2020-08-12T09:09:09Z</time>
      </trkpt>
      <trkpt lat="48.63174" lon="7.15959">
        <ele>463</ele>
        <time>2020-08-12T09:09:12Z</time>
      </trkpt>
      <trkpt lat="48.63171" lon="7.15966">
        <ele>463.9</ele>
        <time>2020-08-12T09:09:15Z</time>
      </trkpt>
      <trkpt lat="48.63167" lon="7.15972">
        <ele>465.1</ele>
        <time>2020-08-12T09:09:18Z</time>
      </trkpt>
      <trkpt lat="48.63162" lon="7.15978">
        <ele>466.7</ele>
        <time>2020-08-12T09:09:22Z</time>
      </trkpt>
      <trkpt lat="48.63158" lon="7.15984">
        <ele>468.6</ele>
        <time>2020-08-12T09:09:25Z</time>
      </trkpt>
      <trkpt lat="48.63153" lon="7.1599">
        <ele>470.2</ele>
        <time>2020-08-12T09:09:28Z</time>
      </trkpt>
      <trkpt lat="48.6315" lon="7.15996">
        <ele>470.6</ele>
        <time>2020-08-12T09:09:31Z</time>
      </trkpt>
      <trkpt lat="48.63146" lon="7.16001">
        <ele>473.5</ele>
        <time>2020-08-12T09:09:34Z</time>
      </trkpt>
      <trkpt lat="48.63142" lon="7.16006">
        <ele>474.9</ele>
        <time>2020-08-12T09:09:37Z</time>
      </trkpt>
      <trkpt lat="48.63138" lon="7.1601">
        <ele>475.9</ele>
        <time>2020-08-12T09:09:40Z</time>
      </trkpt>
      <trkpt lat="48.63133" lon="7.16015">
        <ele>476.4</ele>
        <time>2020-08-12T09:09:43Z</time>
      </trkpt>
      <trkpt lat="48.63129" lon="7.16019">
        <ele>476.6</ele>
        <time>2020-08-12T09:09:46Z</time>
      </trkpt>
      <trkpt lat="48.63124" lon="7.16024">
        <ele>476.7</ele>
        <time>2020-08-12T09:09:49Z</time>
      </trkpt>
      <trkpt lat="48.6312" lon="7.1603">
        <ele>477.9</ele>
        <time>2020-08-12T09:09:52Z</time>
      </trkpt>
      <trkpt lat="48.63115" lon="7.16037">
        <ele>479</ele>
        <time>2020-08-12T09:09:55Z</time>
      </trkpt>
      <trkpt lat="48.6311" lon="7.16041">
        <ele>478.7</ele>
        <time>2020-08-12T09:09:58Z</time>
      </trkpt>
      <trkpt lat="48.63105" lon="7.16044">
        <ele>478.5</ele>
        <time>2020-08-12T09:10:01Z</time>
      </trkpt>
      <trkpt lat="48.63099" lon="7.16047">
        <ele>478.2</ele>
        <time>2020-08-12T09:10:04Z</time>
      </trkpt>
      <trkpt lat="48.63094" lon="7.16052">
        <ele>479</ele>
        <time>2020-08-12T09:10:07Z</time>
      </trkpt>
      <trkpt lat="48.63089" lon="7.16056">
        <ele>478.3</ele>
        <time>2020-08-12T09:10:10Z</time>
      </trkpt>
      <trkpt lat="48.63084" lon="7.16058">
        <ele>477.3</ele>
        <time>2020-08-12T09:10:13Z</time>
      </trkpt>
      <trkpt lat="48.63079" lon="7.16059">
        <ele>476.7</ele>
        <time>2020-08-12T09:10:15Z</time>
      </trkpt>
      <trkpt lat="48.63073" lon="7.16062">
        <ele>475.5</ele>
        <time>2020-08-12T09:10:17Z</time>
      </trkpt>
      <trkpt lat="48.63068" lon="7.16063">
        <ele>475.1</ele>
        <time>2020-08-12T09:10:19Z</time>
      </trkpt>
      <trkpt lat="48.63063" lon="7.16063">
        <ele>474.3</ele>
        <time>2020-08-12T09:10:21Z</time>
      </trkpt>
      <trkpt lat="48.63057" lon="7.16064">
        <ele>474.3</ele>
        <time>2020-08-12T09:10:23Z</time>
      </trkpt>
      <trkpt lat="48.63051" lon="7.16064">
        <ele>473.2</ele>
        <time>2020-08-12T09:10:25Z</time>
      </trkpt>
      <trkpt lat="48.63044" lon="7.16064">
        <ele>472.4</ele>
        <time>2020-08-12T09:10:27Z</time>
      </trkpt>
      <trkpt lat="48.63037" lon="7.16065">
        <ele>471.6</ele>
        <time>2020-08-12T09:10:29Z</time>
      </trkpt>
      <trkpt lat="48.63028" lon="7.16064">
        <ele>471.3</ele>
        <time>2020-08-12T09:10:31Z</time>
      </trkpt>
      <trkpt lat="48.6302" lon="7.16064">
        <ele>470.7</ele>
        <time>2020-08-12T09:10:33Z</time>
      </trkpt>
      <trkpt lat="48.63011" lon="7.16063">
        <ele>470.7</ele>
        <time>2020-08-12T09:10:35Z</time>
      </trkpt>
      <trkpt lat="48.63003" lon="7.16059">
        <ele>470.5</ele>
        <time>2020-08-12T09:10:37Z</time>
      </trkpt>
      <trkpt lat="48.62995" lon="7.16055">
        <ele>469.8</ele>
        <time>2020-08-12T09:10:39Z</time>
      </trkpt>
      <trkpt lat="48.62988" lon="7.16053">
        <ele>469.9</ele>
        <time>2020-08-12T09:10:41Z</time>
      </trkpt>
      <trkpt lat="48.62981" lon="7.16051">
        <ele>470.1</ele>
        <time>2020-08-12T09:10:43Z</time>
      </trkpt>
      <trkpt lat="48.62974" lon="7.16049">
        <ele>469.6</ele>
        <time>2020-08-12T09:10:45Z</time>
      </trkpt>
      <trkpt lat="48.62968" lon="7.16046">
        <ele>469.2</ele>
        <time>2020-08-12T09:10:47Z</time>
      </trkpt>
      <trkpt lat="48.62961" lon="7.16043">
        <ele>469.7</ele>
        <time>2020-08-12T09:10:49Z</time>
      </trkpt>
      <trkpt lat="48.62954" lon="7.16041">
        <ele>468.4</ele>
        <time>2020-08-12T09:10:51Z</time>
      </trkpt>
      <trkpt lat="48.62947" lon="7.16037">
        <ele>467.6</ele>
        <time>2020-08-12T09:10:53Z</time>
      </trkpt>
      <trkpt lat="48.62939" lon="7.16033">
        <ele>467.4</ele>
        <time>2020-08-12T09:10:55Z</time>
      </trkpt>
      <trkpt lat="48.62932" lon="7.16031">
        <ele>466.4</ele>
        <time>2020-08-12T09:10:57Z</time>
      </trkpt>
      <trkpt lat="48.62925" lon="7.1603">
        <ele>467</ele>
        <time>2020-08-12T09:10:59Z</time>
      </trkpt>
      <trkpt lat="48.62918" lon="7.16028">
        <ele>468.2</ele>
        <time>2020-08-12T09:11:01Z</time>
      </trkpt>
      <trkpt lat="48.62911" lon="7.16028">
        <ele>469.4</ele>
        <time>2020-08-12T09:11:03Z</time>
      </trkpt>
      <trkpt lat="48.62901" lon="7.16027">
        <ele>470.8</ele>
        <time>2020-08-12T09:11:06Z</time>
      </trkpt>
      <trkpt lat="48.62895" lon="7.16027">
        <ele>471.6</ele>
        <time>2020-08-12T09:11:08Z</time>
      </trkpt>
      <trkpt lat="48.6289" lon="7.16027">
        <ele>472.6</ele>
        <time>2020-08-12T09:11:10Z</time>
      </trkpt>
      <trkpt lat="48.6288" lon="7.16029">
        <ele>474.2</ele>
        <time>2020-08-12T09:11:13Z</time>
      </trkpt>
      <trkpt lat="48.62875" lon="7.1603">
        <ele>475.5</ele>
        <time>2020-08-12T09:11:15Z</time>
      </trkpt>
      <trkpt lat="48.62868" lon="7.1603">
        <ele>476.5</ele>
        <time>2020-08-12T09:11:18Z</time>
      </trkpt>
      <trkpt lat="48.62862" lon="7.16027">
        <ele>477.6</ele>
        <time>2020-08-12T09:11:21Z</time>
      </trkpt>
      <trkpt lat="48.62857" lon="7.16025">
        <ele>478.1</ele>
        <time>2020-08-12T09:11:24Z</time>
      </trkpt>
      <trkpt lat="48.62853" lon="7.16029">
        <ele>481.5</ele>
        <time>2020-08-12T09:11:34Z</time>
      </trkpt>
      <trkpt lat="48.62848" lon="7.16029">
        <ele>482.7</ele>
        <time>2020-08-12T09:11:39Z</time>
      </trkpt>
      <trkpt lat="48.62843" lon="7.1603">
        <ele>484.1</ele>
        <time>2020-08-12T09:11:42Z</time>
      </trkpt>
      <trkpt lat="48.62837" lon="7.1603">
        <ele>484.9</ele>
        <time>2020-08-12T09:11:45Z</time>
      </trkpt>
      <trkpt lat="48.62832" lon="7.1603">
        <ele>485.1</ele>
        <time>2020-08-12T09:11:47Z</time>
      </trkpt>
      <trkpt lat="48.62826" lon="7.16028">
        <ele>486.2</ele>
        <time>2020-08-12T09:11:50Z</time>
      </trkpt>
      <trkpt lat="48.62821" lon="7.16028">
        <ele>487.2</ele>
        <time>2020-08-12T09:11:52Z</time>
      </trkpt>
      <trkpt lat="48.62816" lon="7.16028">
        <ele>487.9</ele>
        <time>2020-08-12T09:11:54Z</time>
      </trkpt>
      <trkpt lat="48.62811" lon="7.16028">
        <ele>488.4</ele>
        <time>2020-08-12T09:11:56Z</time>
      </trkpt>
      <trkpt lat="48.62805" lon="7.16028">
        <ele>489.7</ele>
        <time>2020-08-12T09:11:58Z</time>
      </trkpt>
      <trkpt lat="48.62799" lon="7.16027">
        <ele>491.1</ele>
        <time>2020-08-12T09:12:00Z</time>
      </trkpt>
      <trkpt lat="48.62793" lon="7.16026">
        <ele>490.9</ele>
        <time>2020-08-12T09:12:02Z</time>
      </trkpt>
      <trkpt lat="48.62786" lon="7.16024">
        <ele>490.8</ele>
        <time>2020-08-12T09:12:04Z</time>
      </trkpt>
      <trkpt lat="48.6278" lon="7.16022">
        <ele>491.1</ele>
        <time>2020-08-12T09:12:06Z</time>
      </trkpt>
      <trkpt lat="48.62775" lon="7.16022">
        <ele>491.1</ele>
        <time>2020-08-12T09:12:08Z</time>
      </trkpt>
      <trkpt lat="48.62769" lon="7.16023">
        <ele>490.5</ele>
        <time>2020-08-12T09:12:10Z</time>
      </trkpt>
      <trkpt lat="48.62763" lon="7.16024">
        <ele>490.9</ele>
        <time>2020-08-12T09:12:12Z</time>
      </trkpt>
      <trkpt lat="48.62758" lon="7.16027">
        <ele>491.4</ele>
        <time>2020-08-12T09:12:14Z</time>
      </trkpt>
      <trkpt lat="48.62754" lon="7.16029">
        <ele>491.6</ele>
        <time>2020-08-12T09:12:16Z</time>
      </trkpt>
      <trkpt lat="48.62748" lon="7.16032">
        <ele>492.4</ele>
        <time>2020-08-12T09:12:19Z</time>
      </trkpt>
      <trkpt lat="48.62743" lon="7.16034">
        <ele>493.3</ele>
        <time>2020-08-12T09:12:21Z</time>
      </trkpt>
      <trkpt lat="48.62738" lon="7.16037">
        <ele>494.6</ele>
        <time>2020-08-12T09:12:24Z</time>
      </trkpt>
      <trkpt lat="48.62733" lon="7.1604">
        <ele>495.7</ele>
        <time>2020-08-12T09:12:27Z</time>
      </trkpt>
      <trkpt lat="48.62728" lon="7.1604">
        <ele>496.3</ele>
        <time>2020-08-12T09:12:30Z</time>
      </trkpt>
      <trkpt lat="48.62722" lon="7.1604">
        <ele>496.5</ele>
        <time>2020-08-12T09:12:33Z</time>
      </trkpt>
      <trkpt lat="48.62716" lon="7.16041">
        <ele>496.8</ele>
        <time>2020-08-12T09:12:36Z</time>
      </trkpt>
      <trkpt lat="48.62709" lon="7.16041">
        <ele>496.8</ele>
        <time>2020-08-12T09:12:39Z</time>
      </trkpt>
      <trkpt lat="48.62703" lon="7.16042">
        <ele>496.6</ele>
        <time>2020-08-12T09:12:42Z</time>
      </trkpt>
      <trkpt lat="48.62697" lon="7.16042">
        <ele>496.8</ele>
        <time>2020-08-12T09:12:45Z</time>
      </trkpt>
      <trkpt lat="48.62691" lon="7.16042">
        <ele>494.7</ele>
        <time>2020-08-12T09:12:48Z</time>
      </trkpt>
      <trkpt lat="48.62685" lon="7.16043">
        <ele>494.9</ele>
        <time>2020-08-12T09:12:51Z</time>
      </trkpt>
      <trkpt lat="48.6268" lon="7.16043">
        <ele>496.4</ele>
        <time>2020-08-12T09:12:54Z</time>
      </trkpt>
      <trkpt lat="48.62674" lon="7.16043">
        <ele>498.5</ele>
        <time>2020-08-12T09:12:57Z</time>
      </trkpt>
      <trkpt lat="48.62667" lon="7.16043">
        <ele>501</ele>
        <time>2020-08-12T09:13:00Z</time>
      </trkpt>
      <trkpt lat="48.62661" lon="7.16044">
        <ele>502.8</ele>
        <time>2020-08-12T09:13:03Z</time>
      </trkpt>
      <trkpt lat="48.62656" lon="7.16046">
        <ele>504.9</ele>
        <time>2020-08-12T09:13:06Z</time>
      </trkpt>
      <trkpt lat="48.6265" lon="7.16047">
        <ele>505.5</ele>
        <time>2020-08-12T09:13:09Z</time>
      </trkpt>
      <trkpt lat="48.62644" lon="7.16048">
        <ele>505.7</ele>
        <time>2020-08-12T09:13:12Z</time>
      </trkpt>
      <trkpt lat="48.62638" lon="7.1605">
        <ele>507</ele>
        <time>2020-08-12T09:13:15Z</time>
      </trkpt>
      <trkpt lat="48.62633" lon="7.16052">
        <ele>507.7</ele>
        <time>2020-08-12T09:13:18Z</time>
      </trkpt>
      <trkpt lat="48.62628" lon="7.16053">
        <ele>507.7</ele>
        <time>2020-08-12T09:13:21Z</time>
      </trkpt>
      <trkpt lat="48.62623" lon="7.16054">
        <ele>507.1</ele>
        <time>2020-08-12T09:13:24Z</time>
      </trkpt>
      <trkpt lat="48.62618" lon="7.16054">
        <ele>506.8</ele>
        <time>2020-08-12T09:13:27Z</time>
      </trkpt>
      <trkpt lat="48.62613" lon="7.16055">
        <ele>507</ele>
        <time>2020-08-12T09:13:30Z</time>
      </trkpt>
      <trkpt lat="48.62608" lon="7.16055">
        <ele>506.7</ele>
        <time>2020-08-12T09:13:33Z</time>
      </trkpt>
      <trkpt lat="48.62602" lon="7.16054">
        <ele>505.9</ele>
        <time>2020-08-12T09:13:36Z</time>
      </trkpt>
      <trkpt lat="48.62596" lon="7.16054">
        <ele>504.3</ele>
        <time>2020-08-12T09:13:39Z</time>
      </trkpt>
      <trkpt lat="48.62591" lon="7.16052">
        <ele>502.7</ele>
        <time>2020-08-12T09:13:42Z</time>
      </trkpt>
      <trkpt lat="48.62585" lon="7.16051">
        <ele>501.5</ele>
        <time>2020-08-12T09:13:45Z</time>
      </trkpt>
      <trkpt lat="48.62579" lon="7.1605">
        <ele>499.8</ele>
        <time>2020-08-12T09:13:48Z</time>
      </trkpt>
      <trkpt lat="48.62573" lon="7.16048">
        <ele>500.2</ele>
        <time>2020-08-12T09:13:51Z</time>
      </trkpt>
      <trkpt lat="48.62568" lon="7.16046">
        <ele>500.3</ele>
        <time>2020-08-12T09:13:55Z</time>
      </trkpt>
      <trkpt lat="48.62563" lon="7.16046">
        <ele>498.4</ele>
        <time>2020-08-12T09:14:13Z</time>
      </trkpt>
      <trkpt lat="48.62558" lon="7.16043">
        <ele>497.3</ele>
        <time>2020-08-12T09:14:16Z</time>
      </trkpt>
      <trkpt lat="48.62553" lon="7.16041">
        <ele>497</ele>
        <time>2020-08-12T09:14:18Z</time>
      </trkpt>
      <trkpt lat="48.62549" lon="7.1604">
        <ele>496.5</ele>
        <time>2020-08-12T09:14:20Z</time>
      </trkpt>
      <trkpt lat="48.62543" lon="7.16037">
        <ele>495.8</ele>
        <time>2020-08-12T09:14:22Z</time>
      </trkpt>
      <trkpt lat="48.62538" lon="7.16035">
        <ele>496</ele>
        <time>2020-08-12T09:14:24Z</time>
      </trkpt>
      <trkpt lat="48.62532" lon="7.16032">
        <ele>492.5</ele>
        <time>2020-08-12T09:14:26Z</time>
      </trkpt>
      <trkpt lat="48.62525" lon="7.16028">
        <ele>492.2</ele>
        <time>2020-08-12T09:14:28Z</time>
      </trkpt>
      <trkpt lat="48.62519" lon="7.16025">
        <ele>492.6</ele>
        <time>2020-08-12T09:14:30Z</time>
      </trkpt>
      <trkpt lat="48.62512" lon="7.16021">
        <ele>493.6</ele>
        <time>2020-08-12T09:14:32Z</time>
      </trkpt>
      <trkpt lat="48.62506" lon="7.16016">
        <ele>493.7</ele>
        <time>2020-08-12T09:14:34Z</time>
      </trkpt>
      <trkpt lat="48.62499" lon="7.16011">
        <ele>494.3</ele>
        <time>2020-08-12T09:14:36Z</time>
      </trkpt>
      <trkpt lat="48.62493" lon="7.16007">
        <ele>495.2</ele>
        <time>2020-08-12T09:14:38Z</time>
      </trkpt>
      <trkpt lat="48.62483" lon="7.16001">
        <ele>496.5</ele>
        <time>2020-08-12T09:14:41Z</time>
      </trkpt>
      <trkpt lat="48.62477" lon="7.15998">
        <ele>496.8</ele>
        <time>2020-08-12T09:14:43Z</time>
      </trkpt>
      <trkpt lat="48.62472" lon="7.15994">
        <ele>495.9</ele>
        <time>2020-08-12T09:14:45Z</time>
      </trkpt>
      <trkpt lat="48.62466" lon="7.1599">
        <ele>495.6</ele>
        <time>2020-08-12T09:14:47Z</time>
      </trkpt>
      <trkpt lat="48.6246" lon="7.15986">
        <ele>495.5</ele>
        <time>2020-08-12T09:14:49Z</time>
      </trkpt>
      <trkpt lat="48.62455" lon="7.15981">
        <ele>494.8</ele>
        <time>2020-08-12T09:14:51Z</time>
      </trkpt>
      <trkpt lat="48.62449" lon="7.15977">
        <ele>494.7</ele>
        <time>2020-08-12T09:14:53Z</time>
      </trkpt>
      <trkpt lat="48.62442" lon="7.15972">
        <ele>494.4</ele>
        <time>2020-08-12T09:14:55Z</time>
      </trkpt>
      <trkpt lat="48.62436" lon="7.15968">
        <ele>494.1</ele>
        <time>2020-08-12T09:14:57Z</time>
      </trkpt>
      <trkpt lat="48.62429" lon="7.15965">
        <ele>493.2</ele>
        <time>2020-08-12T09:14:59Z</time>
      </trkpt>
      <trkpt lat="48.62422" lon="7.15963">
        <ele>493.3</ele>
        <time>2020-08-12T09:15:01Z</time>
      </trkpt>
      <trkpt lat="48.62415" lon="7.15964">
        <ele>494.1</ele>
        <time>2020-08-12T09:15:03Z</time>
      </trkpt>
      <trkpt lat="48.62411" lon="7.15968">
        <ele>495.5</ele>
        <time>2020-08-12T09:15:06Z</time>
      </trkpt>
      <trkpt lat="48.62407" lon="7.15974">
        <ele>500</ele>
        <time>2020-08-12T09:15:23Z</time>
      </trkpt>
      <trkpt lat="48.62403" lon="7.15978">
        <ele>500</ele>
        <time>2020-08-12T09:15:26Z</time>
      </trkpt>
      <trkpt lat="48.62398" lon="7.15982">
        <ele>500.7</ele>
        <time>2020-08-12T09:15:28Z</time>
      </trkpt>
      <trkpt lat="48.62392" lon="7.15987">
        <ele>500.9</ele>
        <time>2020-08-12T09:15:30Z</time>
      </trkpt>
      <trkpt lat="48.62388" lon="7.15991">
        <ele>501.4</ele>
        <time>2020-08-12T09:15:33Z</time>
      </trkpt>
      <trkpt lat="48.62383" lon="7.15993">
        <ele>502.6</ele>
        <time>2020-08-12T09:15:44Z</time>
      </trkpt>
      <trkpt lat="48.62378" lon="7.15997">
        <ele>502.3</ele>
        <time>2020-08-12T09:15:48Z</time>
      </trkpt>
      <trkpt lat="48.62374" lon="7.16003">
        <ele>501</ele>
        <time>2020-08-12T09:15:51Z</time>
      </trkpt>
      <trkpt lat="48.62371" lon="7.16009">
        <ele>500.5</ele>
        <time>2020-08-12T09:15:53Z</time>
      </trkpt>
      <trkpt lat="48.62368" lon="7.16016">
        <ele>500.1</ele>
        <time>2020-08-12T09:15:55Z</time>
      </trkpt>
      <trkpt lat="48.62366" lon="7.16024">
        <ele>499.1</ele>
        <time>2020-08-12T09:15:57Z</time>
      </trkpt>
      <trkpt lat="48.62365" lon="7.16031">
        <ele>498.5</ele>
        <time>2020-08-12T09:15:59Z</time>
      </trkpt>
      <trkpt lat="48.62363" lon="7.16038">
        <ele>498.2</ele>
        <time>2020-08-12T09:16:01Z</time>
      </trkpt>
      <trkpt lat="48.62362" lon="7.16044">
        <ele>497.7</ele>
        <time>2020-08-12T09:16:03Z</time>
      </trkpt>
      <trkpt lat="48.6236" lon="7.16051">
        <ele>496.9</ele>
        <time>2020-08-12T09:16:06Z</time>
      </trkpt>
      <trkpt lat="48.62359" lon="7.16058">
        <ele>495.6</ele>
        <time>2020-08-12T09:16:12Z</time>
      </trkpt>
      <trkpt lat="48.6236" lon="7.16065">
        <ele>495</ele>
        <time>2020-08-12T09:16:15Z</time>
      </trkpt>
      <trkpt lat="48.6236" lon="7.16072">
        <ele>495.2</ele>
        <time>2020-08-12T09:16:17Z</time>
      </trkpt>
      <trkpt lat="48.62359" lon="7.1608">
        <ele>496</ele>
        <time>2020-08-12T09:16:19Z</time>
      </trkpt>
      <trkpt lat="48.62359" lon="7.16089">
        <ele>497.1</ele>
        <time>2020-08-12T09:16:21Z</time>
      </trkpt>
      <trkpt lat="48.62359" lon="7.161">
        <ele>497.9</ele>
        <time>2020-08-12T09:16:23Z</time>
      </trkpt>
      <trkpt lat="48.6236" lon="7.16111">
        <ele>497.1</ele>
        <time>2020-08-12T09:16:25Z</time>
      </trkpt>
      <trkpt lat="48.6236" lon="7.16123">
        <ele>495</ele>
        <time>2020-08-12T09:16:27Z</time>
      </trkpt>
      <trkpt lat="48.62359" lon="7.16136">
        <ele>493.9</ele>
        <time>2020-08-12T09:16:29Z</time>
      </trkpt>
      <trkpt lat="48.62357" lon="7.1615">
        <ele>492.7</ele>
        <time>2020-08-12T09:16:31Z</time>
      </trkpt>
      <trkpt lat="48.62357" lon="7.16164">
        <ele>491.7</ele>
        <time>2020-08-12T09:16:33Z</time>
      </trkpt>
      <trkpt lat="48.62358" lon="7.16176">
        <ele>479.2</ele>
        <time>2020-08-12T09:16:35Z</time>
      </trkpt>
      <trkpt lat="48.6236" lon="7.16191">
        <ele>478.6</ele>
        <time>2020-08-12T09:16:37Z</time>
      </trkpt>
      <trkpt lat="48.6236" lon="7.16205">
        <ele>478.1</ele>
        <time>2020-08-12T09:16:39Z</time>
      </trkpt>
      <trkpt lat="48.62361" lon="7.16221">
        <ele>478</ele>
        <time>2020-08-12T09:16:41Z</time>
      </trkpt>
      <trkpt lat="48.62362" lon="7.16242">
        <ele>477.8</ele>
        <time>2020-08-12T09:16:43Z</time>
      </trkpt>
      <trkpt lat="48.62362" lon="7.16259">
        <ele>478</ele>
        <time>2020-08-12T09:16:45Z</time>
      </trkpt>
      <trkpt lat="48.62361" lon="7.16277">
        <ele>477.8</ele>
        <time>2020-08-12T09:16:47Z</time>
      </trkpt>
      <trkpt lat="48.62359" lon="7.16293">
        <ele>477.7</ele>
        <time>2020-08-12T09:16:49Z</time>
      </trkpt>
      <trkpt lat="48.62356" lon="7.16308">
        <ele>476.4</ele>
        <time>2020-08-12T09:16:51Z</time>
      </trkpt>
      <trkpt lat="48.62354" lon="7.16322">
        <ele>475.3</ele>
        <time>2020-08-12T09:16:53Z</time>
      </trkpt>
      <trkpt lat="48.62353" lon="7.16336">
        <ele>473.8</ele>
        <time>2020-08-12T09:16:55Z</time>
      </trkpt>
      <trkpt lat="48.62352" lon="7.1635">
        <ele>472.7</ele>
        <time>2020-08-12T09:16:57Z</time>
      </trkpt>
      <trkpt lat="48.62352" lon="7.16364">
        <ele>471.4</ele>
        <time>2020-08-12T09:16:59Z</time>
      </trkpt>
      <trkpt lat="48.6235" lon="7.16378">
        <ele>471</ele>
        <time>2020-08-12T09:17:01Z</time>
      </trkpt>
      <trkpt lat="48.62349" lon="7.16393">
        <ele>470</ele>
        <time>2020-08-12T09:17:03Z</time>
      </trkpt>
      <trkpt lat="48.62349" lon="7.16405">
        <ele>469.1</ele>
        <time>2020-08-12T09:17:05Z</time>
      </trkpt>
      <trkpt lat="48.62348" lon="7.16418">
        <ele>468.4</ele>
        <time>2020-08-12T09:17:07Z</time>
      </trkpt>
      <trkpt lat="48.62347" lon="7.16432">
        <ele>467.4</ele>
        <time>2020-08-12T09:17:09Z</time>
      </trkpt>
      <trkpt lat="48.62347" lon="7.16446">
        <ele>466.3</ele>
        <time>2020-08-12T09:17:11Z</time>
      </trkpt>
      <trkpt lat="48.62345" lon="7.16461">
        <ele>466.1</ele>
        <time>2020-08-12T09:17:13Z</time>
      </trkpt>
      <trkpt lat="48.62342" lon="7.1647">
        <ele>464.8</ele>
        <time>2020-08-12T09:17:15Z</time>
      </trkpt>
      <trkpt lat="48.62342" lon="7.16477">
        <ele>465.1</ele>
        <time>2020-08-12T09:17:19Z</time>
      </trkpt>
      <trkpt lat="48.62341" lon="7.16484">
        <ele>464.5</ele>
        <time>2020-08-12T09:17:23Z</time>
      </trkpt>
      <trkpt lat="48.62339" lon="7.16491">
        <ele>465.1</ele>
        <time>2020-08-12T09:17:26Z</time>
      </trkpt>
      <trkpt lat="48.62336" lon="7.16497">
        <ele>465.2</ele>
        <time>2020-08-12T09:17:28Z</time>
      </trkpt>
      <trkpt lat="48.62332" lon="7.16503">
        <ele>465.1</ele>
        <time>2020-08-12T09:17:30Z</time>
      </trkpt>
      <trkpt lat="48.62327" lon="7.16509">
        <ele>465.1</ele>
        <time>2020-08-12T09:17:32Z</time>
      </trkpt>
      <trkpt lat="48.62321" lon="7.16515">
        <ele>464</ele>
        <time>2020-08-12T09:17:34Z</time>
      </trkpt>
      <trkpt lat="48.62314" lon="7.16519">
        <ele>461.8</ele>
        <time>2020-08-12T09:17:36Z</time>
      </trkpt>
      <trkpt lat="48.62312" lon="7.16526">
        <ele>461.2</ele>
        <time>2020-08-12T09:17:38Z</time>
      </trkpt>
      <trkpt lat="48.62314" lon="7.16533">
        <ele>458.8</ele>
        <time>2020-08-12T09:17:43Z</time>
      </trkpt>
      <trkpt lat="48.62319" lon="7.16531">
        <ele>456.7</ele>
        <time>2020-08-12T09:17:51Z</time>
      </trkpt>
      <trkpt lat="48.62329" lon="7.16526">
        <ele>456.7</ele>
        <time>2020-08-12T09:17:54Z</time>
      </trkpt>
      <trkpt lat="48.62336" lon="7.1652">
        <ele>457.9</ele>
        <time>2020-08-12T09:17:56Z</time>
      </trkpt>
      <trkpt lat="48.62346" lon="7.16513">
        <ele>458.4</ele>
        <time>2020-08-12T09:17:58Z</time>
      </trkpt>
      <trkpt lat="48.62357" lon="7.16503">
        <ele>458.6</ele>
        <time>2020-08-12T09:18:00Z</time>
      </trkpt>
      <trkpt lat="48.62367" lon="7.16491">
        <ele>458.4</ele>
        <time>2020-08-12T09:18:02Z</time>
      </trkpt>
      <trkpt lat="48.62377" lon="7.16478">
        <ele>457.6</ele>
        <time>2020-08-12T09:18:04Z</time>
      </trkpt>
      <trkpt lat="48.62386" lon="7.16464">
        <ele>457.2</ele>
        <time>2020-08-12T09:18:06Z</time>
      </trkpt>
      <trkpt lat="48.62393" lon="7.16448">
        <ele>455.7</ele>
        <time>2020-08-12T09:18:08Z</time>
      </trkpt>
      <trkpt lat="48.62399" lon="7.16431">
        <ele>454.4</ele>
        <time>2020-08-12T09:18:10Z</time>
      </trkpt>
      <trkpt lat="48.62405" lon="7.16414">
        <ele>452.9</ele>
        <time>2020-08-12T09:18:12Z</time>
      </trkpt>
      <trkpt lat="48.6241" lon="7.16395">
        <ele>451.7</ele>
        <time>2020-08-12T09:18:14Z</time>
      </trkpt>
      <trkpt lat="48.62416" lon="7.16377">
        <ele>449.9</ele>
        <time>2020-08-12T09:18:16Z</time>
      </trkpt>
      <trkpt lat="48.62423" lon="7.16356">
        <ele>448.3</ele>
        <time>2020-08-12T09:18:18Z</time>
      </trkpt>
      <trkpt lat="48.62429" lon="7.16337">
        <ele>447</ele>
        <time>2020-08-12T09:18:20Z</time>
      </trkpt>
      <trkpt lat="48.62435" lon="7.16317">
        <ele>445.6</ele>
        <time>2020-08-12T09:18:22Z</time>
      </trkpt>
      <trkpt lat="48.6244" lon="7.16299">
        <ele>444.8</ele>
        <time>2020-08-12T09:18:24Z</time>
      </trkpt>
      <trkpt lat="48.62444" lon="7.16277">
        <ele>443.5</ele>
        <time>2020-08-12T09:18:26Z</time>
      </trkpt>
      <trkpt lat="48.62449" lon="7.16257">
        <ele>442.4</ele>
        <time>2020-08-12T09:18:28Z</time>
      </trkpt>
      <trkpt lat="48.62456" lon="7.16239">
        <ele>441.7</ele>
        <time>2020-08-12T09:18:30Z</time>
      </trkpt>
      <trkpt lat="48.62474" lon="7.16226">
        <ele>441.2</ele>
        <time>2020-08-12T09:18:33Z</time>
      </trkpt>
      <trkpt lat="48.62485" lon="7.16229">
        <ele>440.2</ele>
        <time>2020-08-12T09:18:35Z</time>
      </trkpt>
      <trkpt lat="48.62497" lon="7.16236">
        <ele>439.6</ele>
        <time>2020-08-12T09:18:37Z</time>
      </trkpt>
      <trkpt lat="48.62509" lon="7.16244">
        <ele>438.8</ele>
        <time>2020-08-12T09:18:39Z</time>
      </trkpt>
      <trkpt lat="48.62521" lon="7.16255">
        <ele>440.7</ele>
        <time>2020-08-12T09:18:41Z</time>
      </trkpt>
      <trkpt lat="48.62534" lon="7.16264">
        <ele>440.6</ele>
        <time>2020-08-12T09:18:43Z</time>
      </trkpt>
      <trkpt lat="48.62549" lon="7.16274">
        <ele>440.9</ele>
        <time>2020-08-12T09:18:45Z</time>
      </trkpt>
      <trkpt lat="48.6256" lon="7.16279">
        <ele>440</ele>
        <time>2020-08-12T09:18:47Z</time>
      </trkpt>
      <trkpt lat="48.62572" lon="7.16283">
        <ele>439.8</ele>
        <time>2020-08-12T09:18:49Z</time>
      </trkpt>
      <trkpt lat="48.62588" lon="7.1629">
        <ele>438.8</ele>
        <time>2020-08-12T09:18:51Z</time>
      </trkpt>
      <trkpt lat="48.62602" lon="7.16299">
        <ele>437.9</ele>
        <time>2020-08-12T09:18:53Z</time>
      </trkpt>
      <trkpt lat="48.62617" lon="7.16307">
        <ele>436.9</ele>
        <time>2020-08-12T09:18:55Z</time>
      </trkpt>
      <trkpt lat="48.62629" lon="7.16312">
        <ele>435.7</ele>
        <time>2020-08-12T09:18:57Z</time>
      </trkpt>
      <trkpt lat="48.62642" lon="7.16317">
        <ele>433.5</ele>
        <time>2020-08-12T09:18:59Z</time>
      </trkpt>
      <trkpt lat="48.62656" lon="7.16318">
        <ele>432</ele>
        <time>2020-08-12T09:19:01Z</time>
      </trkpt>
      <trkpt lat="48.62671" lon="7.16318">
        <ele>430.8</ele>
        <time>2020-08-12T09:19:03Z</time>
      </trkpt>
      <trkpt lat="48.6269" lon="7.16322">
        <ele>429.2</ele>
        <time>2020-08-12T09:19:05Z</time>
      </trkpt>
      <trkpt lat="48.62709" lon="7.16325">
        <ele>427.6</ele>
        <time>2020-08-12T09:19:07Z</time>
      </trkpt>
      <trkpt lat="48.62729" lon="7.16328">
        <ele>426.6</ele>
        <time>2020-08-12T09:19:09Z</time>
      </trkpt>
      <trkpt lat="48.62749" lon="7.16331">
        <ele>425.8</ele>
        <time>2020-08-12T09:19:11Z</time>
      </trkpt>
      <trkpt lat="48.62765" lon="7.16338">
        <ele>425.3</ele>
        <time>2020-08-12T09:19:13Z</time>
      </trkpt>
      <trkpt lat="48.62781" lon="7.16348">
        <ele>424.6</ele>
        <time>2020-08-12T09:19:15Z</time>
      </trkpt>
      <trkpt lat="48.62797" lon="7.1636">
        <ele>423.8</ele>
        <time>2020-08-12T09:19:17Z</time>
      </trkpt>
      <trkpt lat="48.62811" lon="7.16372">
        <ele>423.6</ele>
        <time>2020-08-12T09:19:19Z</time>
      </trkpt>
      <trkpt lat="48.62822" lon="7.16385">
        <ele>422.9</ele>
        <time>2020-08-12T09:19:21Z</time>
      </trkpt>
      <trkpt lat="48.62835" lon="7.16394">
        <ele>421.5</ele>
        <time>2020-08-12T09:19:23Z</time>
      </trkpt>
      <trkpt lat="48.62848" lon="7.16405">
        <ele>420.6</ele>
        <time>2020-08-12T09:19:25Z</time>
      </trkpt>
      <trkpt lat="48.6286" lon="7.16417">
        <ele>418.9</ele>
        <time>2020-08-12T09:19:27Z</time>
      </trkpt>
      <trkpt lat="48.62871" lon="7.16427">
        <ele>418.4</ele>
        <time>2020-08-12T09:19:29Z</time>
      </trkpt>
      <trkpt lat="48.6288" lon="7.16434">
        <ele>417.5</ele>
        <time>2020-08-12T09:19:31Z</time>
      </trkpt>
      <trkpt lat="48.62884" lon="7.1644">
        <ele>416.2</ele>
        <time>2020-08-12T09:19:39Z</time>
      </trkpt>
      <trkpt lat="48.62878" lon="7.16444">
        <ele>419.7</ele>
        <time>2020-08-12T09:19:55Z</time>
      </trkpt>
      <trkpt lat="48.62872" lon="7.16447">
        <ele>420.4</ele>
        <time>2020-08-12T09:19:58Z</time>
      </trkpt>
      <trkpt lat="48.62866" lon="7.16447">
        <ele>420.6</ele>
        <time>2020-08-12T09:20:00Z</time>
      </trkpt>
      <trkpt lat="48.62861" lon="7.16447">
        <ele>420.6</ele>
        <time>2020-08-12T09:20:02Z</time>
      </trkpt>
      <trkpt lat="48.62855" lon="7.16446">
        <ele>419.8</ele>
        <time>2020-08-12T09:20:04Z</time>
      </trkpt>
      <trkpt lat="48.62848" lon="7.16444">
        <ele>418.4</ele>
        <time>2020-08-12T09:20:06Z</time>
      </trkpt>
      <trkpt lat="48.6284" lon="7.16442">
        <ele>416.9</ele>
        <time>2020-08-12T09:20:08Z</time>
      </trkpt>
      <trkpt lat="48.62831" lon="7.16436">
        <ele>415.2</ele>
        <time>2020-08-12T09:20:10Z</time>
      </trkpt>
      <trkpt lat="48.62823" lon="7.16432">
        <ele>414.1</ele>
        <time>2020-08-12T09:20:12Z</time>
      </trkpt>
      <trkpt lat="48.6281" lon="7.16425">
        <ele>411.7</ele>
        <time>2020-08-12T09:20:15Z</time>
      </trkpt>
      <trkpt lat="48.628" lon="7.16423">
        <ele>411.2</ele>
        <time>2020-08-12T09:20:17Z</time>
      </trkpt>
      <trkpt lat="48.6279" lon="7.16419">
        <ele>410.4</ele>
        <time>2020-08-12T09:20:19Z</time>
      </trkpt>
      <trkpt lat="48.62775" lon="7.16406">
        <ele>409.4</ele>
        <time>2020-08-12T09:20:22Z</time>
      </trkpt>
      <trkpt lat="48.62763" lon="7.16403">
        <ele>410</ele>
        <time>2020-08-12T09:20:25Z</time>
      </trkpt>
      <trkpt lat="48.62755" lon="7.16405">
        <ele>408.5</ele>
        <time>2020-08-12T09:20:27Z</time>
      </trkpt>
      <trkpt lat="48.62748" lon="7.16412">
        <ele>408.5</ele>
        <time>2020-08-12T09:20:29Z</time>
      </trkpt>
      <trkpt lat="48.62743" lon="7.16419">
        <ele>408.2</ele>
        <time>2020-08-12T09:20:31Z</time>
      </trkpt>
      <trkpt lat="48.62738" lon="7.16429">
        <ele>407.7</ele>
        <time>2020-08-12T09:20:33Z</time>
      </trkpt>
      <trkpt lat="48.62736" lon="7.16439">
        <ele>407.1</ele>
        <time>2020-08-12T09:20:35Z</time>
      </trkpt>
      <trkpt lat="48.62735" lon="7.16453">
        <ele>406.7</ele>
        <time>2020-08-12T09:20:37Z</time>
      </trkpt>
      <trkpt lat="48.62736" lon="7.16466">
        <ele>406.4</ele>
        <time>2020-08-12T09:20:39Z</time>
      </trkpt>
      <trkpt lat="48.62737" lon="7.16478">
        <ele>406.4</ele>
        <time>2020-08-12T09:20:41Z</time>
      </trkpt>
      <trkpt lat="48.62738" lon="7.1649">
        <ele>406.1</ele>
        <time>2020-08-12T09:20:43Z</time>
      </trkpt>
      <trkpt lat="48.62737" lon="7.16503">
        <ele>405.6</ele>
        <time>2020-08-12T09:20:45Z</time>
      </trkpt>
      <trkpt lat="48.62736" lon="7.16514">
        <ele>405.5</ele>
        <time>2020-08-12T09:20:47Z</time>
      </trkpt>
      <trkpt lat="48.62732" lon="7.16523">
        <ele>404.4</ele>
        <time>2020-08-12T09:20:49Z</time>
      </trkpt>
      <trkpt lat="48.62727" lon="7.16532">
        <ele>404.2</ele>
        <time>2020-08-12T09:20:51Z</time>
      </trkpt>
      <trkpt lat="48.6272" lon="7.16539">
        <ele>403.4</ele>
        <time>2020-08-12T09:20:53Z</time>
      </trkpt>
      <trkpt lat="48.62709" lon="7.16546">
        <ele>402.5</ele>
        <time>2020-08-12T09:20:55Z</time>
      </trkpt>
      <trkpt lat="48.62701" lon="7.16551">
        <ele>401.9</ele>
        <time>2020-08-12T09:20:57Z</time>
      </trkpt>
      <trkpt lat="48.62692" lon="7.16552">
        <ele>400.2</ele>
        <time>2020-08-12T09:20:59Z</time>
      </trkpt>
      <trkpt lat="48.62683" lon="7.16553">
        <ele>399.6</ele>
        <time>2020-08-12T09:21:01Z</time>
      </trkpt>
      <trkpt lat="48.62672" lon="7.16551">
        <ele>397.5</ele>
        <time>2020-08-12T09:21:03Z</time>
      </trkpt>
      <trkpt lat="48.62664" lon="7.16547">
        <ele>396.5</ele>
        <time>2020-08-12T09:21:05Z</time>
      </trkpt>
      <trkpt lat="48.62657" lon="7.16543">
        <ele>395.3</ele>
        <time>2020-08-12T09:21:07Z</time>
      </trkpt>
      <trkpt lat="48.62652" lon="7.16539">
        <ele>395</ele>
        <time>2020-08-12T09:21:09Z</time>
      </trkpt>
      <trkpt lat="48.62648" lon="7.16535">
        <ele>395</ele>
        <time>2020-08-12T09:21:11Z</time>
      </trkpt>
      <trkpt lat="48.62643" lon="7.16529">
        <ele>395.2</ele>
        <time>2020-08-12T09:21:14Z</time>
      </trkpt>
      <trkpt lat="48.62639" lon="7.16523">
        <ele>395.7</ele>
        <time>2020-08-12T09:21:16Z</time>
      </trkpt>
      <trkpt lat="48.62635" lon="7.16516">
        <ele>395.1</ele>
        <time>2020-08-12T09:21:18Z</time>
      </trkpt>
      <trkpt lat="48.62631" lon="7.16511">
        <ele>395.6</ele>
        <time>2020-08-12T09:21:20Z</time>
      </trkpt>
      <trkpt lat="48.62627" lon="7.16506">
        <ele>396.1</ele>
        <time>2020-08-12T09:21:22Z</time>
      </trkpt>
      <trkpt lat="48.62626" lon="7.16514">
        <ele>397.9</ele>
        <time>2020-08-12T09:21:27Z</time>
      </trkpt>
      <trkpt lat="48.62626" lon="7.16523">
        <ele>398.3</ele>
        <time>2020-08-12T09:21:29Z</time>
      </trkpt>
      <trkpt lat="48.62622" lon="7.1654">
        <ele>398.6</ele>
        <time>2020-08-12T09:21:32Z</time>
      </trkpt>
      <trkpt lat="48.62619" lon="7.16551">
        <ele>399</ele>
        <time>2020-08-12T09:21:34Z</time>
      </trkpt>
      <trkpt lat="48.62613" lon="7.16562">
        <ele>400.2</ele>
        <time>2020-08-12T09:21:36Z</time>
      </trkpt>
      <trkpt lat="48.62604" lon="7.16573">
        <ele>401.9</ele>
        <time>2020-08-12T09:21:39Z</time>
      </trkpt>
      <trkpt lat="48.62599" lon="7.16576">
        <ele>402.9</ele>
        <time>2020-08-12T09:21:41Z</time>
      </trkpt>
      <trkpt lat="48.6259" lon="7.1658">
        <ele>404.6</ele>
        <time>2020-08-12T09:21:44Z</time>
      </trkpt>
      <trkpt lat="48.62584" lon="7.16581">
        <ele>405.2</ele>
        <time>2020-08-12T09:21:46Z</time>
      </trkpt>
      <trkpt lat="48.62578" lon="7.16583">
        <ele>405.8</ele>
        <time>2020-08-12T09:21:48Z</time>
      </trkpt>
      <trkpt lat="48.62572" lon="7.16584">
        <ele>405.7</ele>
        <time>2020-08-12T09:21:50Z</time>
      </trkpt>
      <trkpt lat="48.62566" lon="7.16583">
        <ele>404.8</ele>
        <time>2020-08-12T09:21:52Z</time>
      </trkpt>
      <trkpt lat="48.62559" lon="7.16584">
        <ele>404.9</ele>
        <time>2020-08-12T09:21:54Z</time>
      </trkpt>
      <trkpt lat="48.62553" lon="7.16586">
        <ele>405.1</ele>
        <time>2020-08-12T09:21:56Z</time>
      </trkpt>
      <trkpt lat="48.62544" lon="7.1659">
        <ele>405.6</ele>
        <time>2020-08-12T09:21:59Z</time>
      </trkpt>
      <trkpt lat="48.62538" lon="7.16592">
        <ele>405.6</ele>
        <time>2020-08-12T09:22:01Z</time>
      </trkpt>
      <trkpt lat="48.62531" lon="7.16598">
        <ele>406</ele>
        <time>2020-08-12T09:22:04Z</time>
      </trkpt>
      <trkpt lat="48.62525" lon="7.16603">
        <ele>405.9</ele>
        <time>2020-08-12T09:22:06Z</time>
      </trkpt>
      <trkpt lat="48.62517" lon="7.16608">
        <ele>405.5</ele>
        <time>2020-08-12T09:22:09Z</time>
      </trkpt>
      <trkpt lat="48.62509" lon="7.16614">
        <ele>404.8</ele>
        <time>2020-08-12T09:22:12Z</time>
      </trkpt>
      <trkpt lat="48.62502" lon="7.16619">
        <ele>405.4</ele>
        <time>2020-08-12T09:22:14Z</time>
      </trkpt>
      <trkpt lat="48.62496" lon="7.16624">
        <ele>405.7</ele>
        <time>2020-08-12T09:22:16Z</time>
      </trkpt>
      <trkpt lat="48.62488" lon="7.16632">
        <ele>407.4</ele>
        <time>2020-08-12T09:22:19Z</time>
      </trkpt>
      <trkpt lat="48.62483" lon="7.16636">
        <ele>408.3</ele>
        <time>2020-08-12T09:22:21Z</time>
      </trkpt>
      <trkpt lat="48.62479" lon="7.16642">
        <ele>409</ele>
        <time>2020-08-12T09:22:23Z</time>
      </trkpt>
      <trkpt lat="48.62474" lon="7.16648">
        <ele>410.1</ele>
        <time>2020-08-12T09:22:25Z</time>
      </trkpt>
      <trkpt lat="48.62467" lon="7.16655">
        <ele>412</ele>
        <time>2020-08-12T09:22:28Z</time>
      </trkpt>
      <trkpt lat="48.62464" lon="7.1666">
        <ele>413</ele>
        <time>2020-08-12T09:22:30Z</time>
      </trkpt>
      <trkpt lat="48.62457" lon="7.16667">
        <ele>413.9</ele>
        <time>2020-08-12T09:22:33Z</time>
      </trkpt>
      <trkpt lat="48.62453" lon="7.16675">
        <ele>414.6</ele>
        <time>2020-08-12T09:22:36Z</time>
      </trkpt>
      <trkpt lat="48.62451" lon="7.16681">
        <ele>417.7</ele>
        <time>2020-08-12T09:23:03Z</time>
      </trkpt>
      <trkpt lat="48.62453" lon="7.16675">
        <ele>414.9</ele>
        <time>2020-08-12T09:24:09Z</time>
      </trkpt>
      <trkpt lat="48.6246" lon="7.16674">
        <ele>411.3</ele>
        <time>2020-08-12T09:24:25Z</time>
      </trkpt>
      <trkpt lat="48.62469" lon="7.16671">
        <ele>409.9</ele>
        <time>2020-08-12T09:24:27Z</time>
      </trkpt>
      <trkpt lat="48.62485" lon="7.16667">
        <ele>408.1</ele>
        <time>2020-08-12T09:24:30Z</time>
      </trkpt>
      <trkpt lat="48.62495" lon="7.16663">
        <ele>406.7</ele>
        <time>2020-08-12T09:24:32Z</time>
      </trkpt>
      <trkpt lat="48.62504" lon="7.16659">
        <ele>406</ele>
        <time>2020-08-12T09:24:34Z</time>
      </trkpt>
      <trkpt lat="48.62511" lon="7.16657">
        <ele>405.8</ele>
        <time>2020-08-12T09:24:36Z</time>
      </trkpt>
      <trkpt lat="48.62521" lon="7.16653">
        <ele>405.9</ele>
        <time>2020-08-12T09:24:39Z</time>
      </trkpt>
      <trkpt lat="48.62526" lon="7.16653">
        <ele>405.5</ele>
        <time>2020-08-12T09:24:41Z</time>
      </trkpt>
      <trkpt lat="48.62533" lon="7.16652">
        <ele>405.5</ele>
        <time>2020-08-12T09:24:43Z</time>
      </trkpt>
      <trkpt lat="48.62546" lon="7.16654">
        <ele>404.7</ele>
        <time>2020-08-12T09:24:46Z</time>
      </trkpt>
      <trkpt lat="48.62553" lon="7.16658">
        <ele>403.8</ele>
        <time>2020-08-12T09:24:48Z</time>
      </trkpt>
      <trkpt lat="48.6256" lon="7.16662">
        <ele>403.2</ele>
        <time>2020-08-12T09:24:50Z</time>
      </trkpt>
      <trkpt lat="48.62565" lon="7.16666">
        <ele>402.4</ele>
        <time>2020-08-12T09:24:52Z</time>
      </trkpt>
      <trkpt lat="48.62573" lon="7.16674">
        <ele>402.5</ele>
        <time>2020-08-12T09:24:55Z</time>
      </trkpt>
      <trkpt lat="48.62579" lon="7.16675">
        <ele>402.6</ele>
        <time>2020-08-12T09:24:58Z</time>
      </trkpt>
      <trkpt lat="48.62584" lon="7.16678">
        <ele>402.6</ele>
        <time>2020-08-12T09:25:01Z</time>
      </trkpt>
      <trkpt lat="48.62588" lon="7.16682">
        <ele>405.2</ele>
        <time>2020-08-12T09:25:17Z</time>
      </trkpt>
      <trkpt lat="48.62595" lon="7.16691">
        <ele>406.7</ele>
        <time>2020-08-12T09:25:20Z</time>
      </trkpt>
      <trkpt lat="48.62603" lon="7.167">
        <ele>408.3</ele>
        <time>2020-08-12T09:25:23Z</time>
      </trkpt>
      <trkpt lat="48.62609" lon="7.16705">
        <ele>409.4</ele>
        <time>2020-08-12T09:25:25Z</time>
      </trkpt>
      <trkpt lat="48.62616" lon="7.16712">
        <ele>410.4</ele>
        <time>2020-08-12T09:25:28Z</time>
      </trkpt>
      <trkpt lat="48.62623" lon="7.1672">
        <ele>411.1</ele>
        <time>2020-08-12T09:25:31Z</time>
      </trkpt>
      <trkpt lat="48.62624" lon="7.16728">
        <ele>412.6</ele>
        <time>2020-08-12T09:25:48Z</time>
      </trkpt>
      <trkpt lat="48.62628" lon="7.16733">
        <ele>413.9</ele>
        <time>2020-08-12T09:25:53Z</time>
      </trkpt>
      <trkpt lat="48.62631" lon="7.16738">
        <ele>414</ele>
        <time>2020-08-12T09:25:58Z</time>
      </trkpt>
      <trkpt lat="48.62634" lon="7.16744">
        <ele>414.6</ele>
        <time>2020-08-12T09:26:06Z</time>
      </trkpt>
      <trkpt lat="48.62636" lon="7.1675">
        <ele>414.3</ele>
        <time>2020-08-12T09:26:09Z</time>
      </trkpt>
      <trkpt lat="48.62639" lon="7.16759">
        <ele>415.2</ele>
        <time>2020-08-12T09:26:13Z</time>
      </trkpt>
      <trkpt lat="48.62643" lon="7.16769">
        <ele>416</ele>
        <time>2020-08-12T09:26:16Z</time>
      </trkpt>
      <trkpt lat="48.62645" lon="7.16776">
        <ele>416.2</ele>
        <time>2020-08-12T09:26:18Z</time>
      </trkpt>
      <trkpt lat="48.6265" lon="7.16782">
        <ele>416.4</ele>
        <time>2020-08-12T09:26:20Z</time>
      </trkpt>
      <trkpt lat="48.62654" lon="7.16787">
        <ele>416.9</ele>
        <time>2020-08-12T09:26:22Z</time>
      </trkpt>
      <trkpt lat="48.62658" lon="7.16793">
        <ele>417.8</ele>
        <time>2020-08-12T09:26:25Z</time>
      </trkpt>
      <trkpt lat="48.6266" lon="7.16801">
        <ele>418</ele>
        <time>2020-08-12T09:26:27Z</time>
      </trkpt>
      <trkpt lat="48.62663" lon="7.16808">
        <ele>418.3</ele>
        <time>2020-08-12T09:26:29Z</time>
      </trkpt>
      <trkpt lat="48.62667" lon="7.16819">
        <ele>419.5</ele>
        <time>2020-08-12T09:26:32Z</time>
      </trkpt>
      <trkpt lat="48.62669" lon="7.16828">
        <ele>420.1</ele>
        <time>2020-08-12T09:26:34Z</time>
      </trkpt>
      <trkpt lat="48.6267" lon="7.16837">
        <ele>421.5</ele>
        <time>2020-08-12T09:26:36Z</time>
      </trkpt>
      <trkpt lat="48.62673" lon="7.16845">
        <ele>421.6</ele>
        <time>2020-08-12T09:26:38Z</time>
      </trkpt>
      <trkpt lat="48.62676" lon="7.16854">
        <ele>422.4</ele>
        <time>2020-08-12T09:26:41Z</time>
      </trkpt>
      <trkpt lat="48.62678" lon="7.16862">
        <ele>423.9</ele>
        <time>2020-08-12T09:26:53Z</time>
      </trkpt>
      <trkpt lat="48.62679" lon="7.16871">
        <ele>424.3</ele>
        <time>2020-08-12T09:26:56Z</time>
      </trkpt>
      <trkpt lat="48.62679" lon="7.1688">
        <ele>424.3</ele>
        <time>2020-08-12T09:26:59Z</time>
      </trkpt>
      <trkpt lat="48.62679" lon="7.16888">
        <ele>423.2</ele>
        <time>2020-08-12T09:27:06Z</time>
      </trkpt>
      <trkpt lat="48.62679" lon="7.16896">
        <ele>422.2</ele>
        <time>2020-08-12T09:27:15Z</time>
      </trkpt>
      <trkpt lat="48.62678" lon="7.16904">
        <ele>421.5</ele>
        <time>2020-08-12T09:27:18Z</time>
      </trkpt>
      <trkpt lat="48.62678" lon="7.16911">
        <ele>423.7</ele>
        <time>2020-08-12T09:27:25Z</time>
      </trkpt>
      <trkpt lat="48.62679" lon="7.16919">
        <ele>426.8</ele>
        <time>2020-08-12T09:27:32Z</time>
      </trkpt>
      <trkpt lat="48.6268" lon="7.16926">
        <ele>427.9</ele>
        <time>2020-08-12T09:27:39Z</time>
      </trkpt>
      <trkpt lat="48.62678" lon="7.16933">
        <ele>429.9</ele>
        <time>2020-08-12T09:27:43Z</time>
      </trkpt>
      <trkpt lat="48.62675" lon="7.16939">
        <ele>431.8</ele>
        <time>2020-08-12T09:27:48Z</time>
      </trkpt>
      <trkpt lat="48.6267" lon="7.16943">
        <ele>432.8</ele>
        <time>2020-08-12T09:27:52Z</time>
      </trkpt>
      <trkpt lat="48.62667" lon="7.16949">
        <ele>433.6</ele>
        <time>2020-08-12T09:27:57Z</time>
      </trkpt>
      <trkpt lat="48.62663" lon="7.16954">
        <ele>434.4</ele>
        <time>2020-08-12T09:28:03Z</time>
      </trkpt>
      <trkpt lat="48.62658" lon="7.16958">
        <ele>435.1</ele>
        <time>2020-08-12T09:28:08Z</time>
      </trkpt>
      <trkpt lat="48.62652" lon="7.16965">
        <ele>434.3</ele>
        <time>2020-08-12T09:28:11Z</time>
      </trkpt>
      <trkpt lat="48.62648" lon="7.1697">
        <ele>433.5</ele>
        <time>2020-08-12T09:28:13Z</time>
      </trkpt>
      <trkpt lat="48.62642" lon="7.16984">
        <ele>434.2</ele>
        <time>2020-08-12T09:28:16Z</time>
      </trkpt>
      <trkpt lat="48.62638" lon="7.16993">
        <ele>433.9</ele>
        <time>2020-08-12T09:28:18Z</time>
      </trkpt>
      <trkpt lat="48.62633" lon="7.17005">
        <ele>434.7</ele>
        <time>2020-08-12T09:28:20Z</time>
      </trkpt>
      <trkpt lat="48.62628" lon="7.17016">
        <ele>434.8</ele>
        <time>2020-08-12T09:28:22Z</time>
      </trkpt>
      <trkpt lat="48.62627" lon="7.17024">
        <ele>435.4</ele>
        <time>2020-08-12T09:28:24Z</time>
      </trkpt>
      <trkpt lat="48.62622" lon="7.17031">
        <ele>436.5</ele>
        <time>2020-08-12T09:28:26Z</time>
      </trkpt>
      <trkpt lat="48.62618" lon="7.17042">
        <ele>437.2</ele>
        <time>2020-08-12T09:28:28Z</time>
      </trkpt>
      <trkpt lat="48.62613" lon="7.17056">
        <ele>438.4</ele>
        <time>2020-08-12T09:28:30Z</time>
      </trkpt>
      <trkpt lat="48.6261" lon="7.17067">
        <ele>439.1</ele>
        <time>2020-08-12T09:28:32Z</time>
      </trkpt>
      <trkpt lat="48.62605" lon="7.17077">
        <ele>439.9</ele>
        <time>2020-08-12T09:28:34Z</time>
      </trkpt>
      <trkpt lat="48.62603" lon="7.17094">
        <ele>441.3</ele>
        <time>2020-08-12T09:28:37Z</time>
      </trkpt>
      <trkpt lat="48.62603" lon="7.17113">
        <ele>443</ele>
        <time>2020-08-12T09:28:40Z</time>
      </trkpt>
      <trkpt lat="48.62603" lon="7.17124">
        <ele>444.9</ele>
        <time>2020-08-12T09:28:42Z</time>
      </trkpt>
      <trkpt lat="48.62603" lon="7.17135">
        <ele>446.1</ele>
        <time>2020-08-12T09:28:44Z</time>
      </trkpt>
      <trkpt lat="48.626" lon="7.17145">
        <ele>447.7</ele>
        <time>2020-08-12T09:28:46Z</time>
      </trkpt>
      <trkpt lat="48.626" lon="7.17158">
        <ele>448</ele>
        <time>2020-08-12T09:28:48Z</time>
      </trkpt>
      <trkpt lat="48.62599" lon="7.17171">
        <ele>449.2</ele>
        <time>2020-08-12T09:28:50Z</time>
      </trkpt>
      <trkpt lat="48.62598" lon="7.17188">
        <ele>450.5</ele>
        <time>2020-08-12T09:28:53Z</time>
      </trkpt>
      <trkpt lat="48.62597" lon="7.17203">
        <ele>450.3</ele>
        <time>2020-08-12T09:28:55Z</time>
      </trkpt>
      <trkpt lat="48.62598" lon="7.17216">
        <ele>451.8</ele>
        <time>2020-08-12T09:28:57Z</time>
      </trkpt>
      <trkpt lat="48.62599" lon="7.1723">
        <ele>453.7</ele>
        <time>2020-08-12T09:28:59Z</time>
      </trkpt>
      <trkpt lat="48.62598" lon="7.17243">
        <ele>455.3</ele>
        <time>2020-08-12T09:29:01Z</time>
      </trkpt>
      <trkpt lat="48.62599" lon="7.17256">
        <ele>455.6</ele>
        <time>2020-08-12T09:29:03Z</time>
      </trkpt>
      <trkpt lat="48.62599" lon="7.17269">
        <ele>456.4</ele>
        <time>2020-08-12T09:29:05Z</time>
      </trkpt>
      <trkpt lat="48.62598" lon="7.17287">
        <ele>456.5</ele>
        <time>2020-08-12T09:29:08Z</time>
      </trkpt>
      <trkpt lat="48.62597" lon="7.17298">
        <ele>457.7</ele>
        <time>2020-08-12T09:29:10Z</time>
      </trkpt>
      <trkpt lat="48.62598" lon="7.17312">
        <ele>457.9</ele>
        <time>2020-08-12T09:29:12Z</time>
      </trkpt>
      <trkpt lat="48.62597" lon="7.17326">
        <ele>459.1</ele>
        <time>2020-08-12T09:29:14Z</time>
      </trkpt>
      <trkpt lat="48.626" lon="7.17339">
        <ele>460.3</ele>
        <time>2020-08-12T09:29:16Z</time>
      </trkpt>
      <trkpt lat="48.62601" lon="7.17358">
        <ele>461.5</ele>
        <time>2020-08-12T09:29:19Z</time>
      </trkpt>
      <trkpt lat="48.626" lon="7.17371">
        <ele>463</ele>
        <time>2020-08-12T09:29:21Z</time>
      </trkpt>
      <trkpt lat="48.62598" lon="7.17383">
        <ele>463.7</ele>
        <time>2020-08-12T09:29:23Z</time>
      </trkpt>
      <trkpt lat="48.62592" lon="7.174">
        <ele>465</ele>
        <time>2020-08-12T09:29:26Z</time>
      </trkpt>
      <trkpt lat="48.62587" lon="7.17418">
        <ele>466</ele>
        <time>2020-08-12T09:29:29Z</time>
      </trkpt>
      <trkpt lat="48.62584" lon="7.1743">
        <ele>466.8</ele>
        <time>2020-08-12T09:29:31Z</time>
      </trkpt>
      <trkpt lat="48.62581" lon="7.17445">
        <ele>467.8</ele>
        <time>2020-08-12T09:29:34Z</time>
      </trkpt>
      <trkpt lat="48.6258" lon="7.17458">
        <ele>468.6</ele>
        <time>2020-08-12T09:29:36Z</time>
      </trkpt>
      <trkpt lat="48.62579" lon="7.17472">
        <ele>469.6</ele>
        <time>2020-08-12T09:29:38Z</time>
      </trkpt>
      <trkpt lat="48.62582" lon="7.17484">
        <ele>471</ele>
        <time>2020-08-12T09:29:40Z</time>
      </trkpt>
      <trkpt lat="48.62583" lon="7.17497">
        <ele>472</ele>
        <time>2020-08-12T09:29:42Z</time>
      </trkpt>
      <trkpt lat="48.62582" lon="7.17509">
        <ele>473.4</ele>
        <time>2020-08-12T09:29:44Z</time>
      </trkpt>
      <trkpt lat="48.62583" lon="7.17522">
        <ele>474.1</ele>
        <time>2020-08-12T09:29:46Z</time>
      </trkpt>
      <trkpt lat="48.62582" lon="7.17541">
        <ele>475.6</ele>
        <time>2020-08-12T09:29:49Z</time>
      </trkpt>
      <trkpt lat="48.62582" lon="7.17554">
        <ele>477.2</ele>
        <time>2020-08-12T09:29:51Z</time>
      </trkpt>
      <trkpt lat="48.62581" lon="7.17567">
        <ele>477.8</ele>
        <time>2020-08-12T09:29:53Z</time>
      </trkpt>
      <trkpt lat="48.62582" lon="7.1758">
        <ele>479.5</ele>
        <time>2020-08-12T09:29:55Z</time>
      </trkpt>
      <trkpt lat="48.62581" lon="7.17593">
        <ele>479.5</ele>
        <time>2020-08-12T09:29:57Z</time>
      </trkpt>
      <trkpt lat="48.62579" lon="7.17612">
        <ele>481.4</ele>
        <time>2020-08-12T09:30:00Z</time>
      </trkpt>
      <trkpt lat="48.62579" lon="7.17624">
        <ele>482.4</ele>
        <time>2020-08-12T09:30:02Z</time>
      </trkpt>
      <trkpt lat="48.62577" lon="7.17637">
        <ele>483.5</ele>
        <time>2020-08-12T09:30:04Z</time>
      </trkpt>
      <trkpt lat="48.62575" lon="7.17649">
        <ele>484.4</ele>
        <time>2020-08-12T09:30:06Z</time>
      </trkpt>
      <trkpt lat="48.62573" lon="7.17661">
        <ele>485</ele>
        <time>2020-08-12T09:30:08Z</time>
      </trkpt>
      <trkpt lat="48.62571" lon="7.17674">
        <ele>485.5</ele>
        <time>2020-08-12T09:30:10Z</time>
      </trkpt>
      <trkpt lat="48.6257" lon="7.17686">
        <ele>486.4</ele>
        <time>2020-08-12T09:30:12Z</time>
      </trkpt>
      <trkpt lat="48.62569" lon="7.17698">
        <ele>487</ele>
        <time>2020-08-12T09:30:14Z</time>
      </trkpt>
      <trkpt lat="48.62568" lon="7.17711">
        <ele>487.7</ele>
        <time>2020-08-12T09:30:16Z</time>
      </trkpt>
      <trkpt lat="48.62567" lon="7.17724">
        <ele>487.9</ele>
        <time>2020-08-12T09:30:18Z</time>
      </trkpt>
      <trkpt lat="48.62568" lon="7.17738">
        <ele>488.6</ele>
        <time>2020-08-12T09:30:20Z</time>
      </trkpt>
      <trkpt lat="48.62566" lon="7.17751">
        <ele>488.9</ele>
        <time>2020-08-12T09:30:22Z</time>
      </trkpt>
      <trkpt lat="48.62565" lon="7.17764">
        <ele>489.7</ele>
        <time>2020-08-12T09:30:24Z</time>
      </trkpt>
      <trkpt lat="48.62563" lon="7.17776">
        <ele>490.4</ele>
        <time>2020-08-12T09:30:26Z</time>
      </trkpt>
      <trkpt lat="48.6256" lon="7.17787">
        <ele>491.1</ele>
        <time>2020-08-12T09:30:28Z</time>
      </trkpt>
      <trkpt lat="48.62556" lon="7.17799">
        <ele>491.7</ele>
        <time>2020-08-12T09:30:30Z</time>
      </trkpt>
      <trkpt lat="48.62554" lon="7.17806">
        <ele>492.6</ele>
        <time>2020-08-12T09:30:34Z</time>
      </trkpt>
      <trkpt lat="48.62559" lon="7.17805">
        <ele>495.1</ele>
        <time>2020-08-12T09:31:00Z</time>
      </trkpt>
      <trkpt lat="48.62565" lon="7.17806">
        <ele>495.1</ele>
        <time>2020-08-12T09:31:03Z</time>
      </trkpt>
      <trkpt lat="48.6257" lon="7.17807">
        <ele>495</ele>
        <time>2020-08-12T09:31:06Z</time>
      </trkpt>
      <trkpt lat="48.62576" lon="7.17804">
        <ele>495.1</ele>
        <time>2020-08-12T09:31:09Z</time>
      </trkpt>
      <trkpt lat="48.6258" lon="7.17801">
        <ele>494.8</ele>
        <time>2020-08-12T09:31:11Z</time>
      </trkpt>
      <trkpt lat="48.62584" lon="7.17796">
        <ele>494.3</ele>
        <time>2020-08-12T09:31:13Z</time>
      </trkpt>
      <trkpt lat="48.6259" lon="7.17791">
        <ele>493.9</ele>
        <time>2020-08-12T09:31:15Z</time>
      </trkpt>
      <trkpt lat="48.62596" lon="7.17786">
        <ele>493.7</ele>
        <time>2020-08-12T09:31:17Z</time>
      </trkpt>
      <trkpt lat="48.62608" lon="7.17778">
        <ele>493.5</ele>
        <time>2020-08-12T09:31:20Z</time>
      </trkpt>
      <trkpt lat="48.62625" lon="7.1777">
        <ele>493.5</ele>
        <time>2020-08-12T09:31:23Z</time>
      </trkpt>
      <trkpt lat="48.62638" lon="7.17765">
        <ele>492.7</ele>
        <time>2020-08-12T09:31:25Z</time>
      </trkpt>
      <trkpt lat="48.62657" lon="7.17758">
        <ele>492.1</ele>
        <time>2020-08-12T09:31:28Z</time>
      </trkpt>
      <trkpt lat="48.62666" lon="7.17754">
        <ele>492.1</ele>
        <time>2020-08-12T09:31:30Z</time>
      </trkpt>
      <trkpt lat="48.62675" lon="7.17753">
        <ele>491.3</ele>
        <time>2020-08-12T09:31:32Z</time>
      </trkpt>
      <trkpt lat="48.6269" lon="7.17748">
        <ele>490.2</ele>
        <time>2020-08-12T09:31:35Z</time>
      </trkpt>
      <trkpt lat="48.62701" lon="7.17742">
        <ele>489.5</ele>
        <time>2020-08-12T09:31:37Z</time>
      </trkpt>
      <trkpt lat="48.6271" lon="7.17735">
        <ele>488.8</ele>
        <time>2020-08-12T09:31:39Z</time>
      </trkpt>
      <trkpt lat="48.62719" lon="7.17727">
        <ele>488.8</ele>
        <time>2020-08-12T09:31:41Z</time>
      </trkpt>
      <trkpt lat="48.62729" lon="7.1772">
        <ele>488.7</ele>
        <time>2020-08-12T09:31:43Z</time>
      </trkpt>
      <trkpt lat="48.6274" lon="7.17712">
        <ele>489.2</ele>
        <time>2020-08-12T09:31:45Z</time>
      </trkpt>
      <trkpt lat="48.62751" lon="7.17704">
        <ele>488.3</ele>
        <time>2020-08-12T09:31:47Z</time>
      </trkpt>
      <trkpt lat="48.6276" lon="7.17693">
        <ele>488.4</ele>
        <time>2020-08-12T09:31:49Z</time>
      </trkpt>
      <trkpt lat="48.62768" lon="7.17681">
        <ele>489.2</ele>
        <time>2020-08-12T09:31:51Z</time>
      </trkpt>
      <trkpt lat="48.62775" lon="7.17667">
        <ele>490</ele>
        <time>2020-08-12T09:31:53Z</time>
      </trkpt>
      <trkpt lat="48.62783" lon="7.17655">
        <ele>490.2</ele>
        <time>2020-08-12T09:31:55Z</time>
      </trkpt>
      <trkpt lat="48.62788" lon="7.17639">
        <ele>491.7</ele>
        <time>2020-08-12T09:31:57Z</time>
      </trkpt>
      <trkpt lat="48.62793" lon="7.17626">
        <ele>493.4</ele>
        <time>2020-08-12T09:31:59Z</time>
      </trkpt>
      <trkpt lat="48.628" lon="7.17615">
        <ele>494.8</ele>
        <time>2020-08-12T09:32:01Z</time>
      </trkpt>
      <trkpt lat="48.6281" lon="7.176">
        <ele>497.3</ele>
        <time>2020-08-12T09:32:04Z</time>
      </trkpt>
      <trkpt lat="48.62817" lon="7.17591">
        <ele>498.1</ele>
        <time>2020-08-12T09:32:06Z</time>
      </trkpt>
      <trkpt lat="48.62825" lon="7.17584">
        <ele>499.1</ele>
        <time>2020-08-12T09:32:08Z</time>
      </trkpt>
      <trkpt lat="48.62831" lon="7.17576">
        <ele>499.2</ele>
        <time>2020-08-12T09:32:10Z</time>
      </trkpt>
      <trkpt lat="48.6284" lon="7.17562">
        <ele>500.5</ele>
        <time>2020-08-12T09:32:13Z</time>
      </trkpt>
      <trkpt lat="48.62848" lon="7.17547">
        <ele>501.6</ele>
        <time>2020-08-12T09:32:16Z</time>
      </trkpt>
      <trkpt lat="48.62853" lon="7.17537">
        <ele>502.4</ele>
        <time>2020-08-12T09:32:18Z</time>
      </trkpt>
      <trkpt lat="48.62858" lon="7.17528">
        <ele>503.5</ele>
        <time>2020-08-12T09:32:20Z</time>
      </trkpt>
      <trkpt lat="48.62865" lon="7.1752">
        <ele>504.5</ele>
        <time>2020-08-12T09:32:22Z</time>
      </trkpt>
      <trkpt lat="48.62874" lon="7.17506">
        <ele>507.1</ele>
        <time>2020-08-12T09:32:25Z</time>
      </trkpt>
      <trkpt lat="48.62881" lon="7.17497">
        <ele>508.9</ele>
        <time>2020-08-12T09:32:27Z</time>
      </trkpt>
      <trkpt lat="48.6289" lon="7.17483">
        <ele>510.8</ele>
        <time>2020-08-12T09:32:30Z</time>
      </trkpt>
      <trkpt lat="48.62898" lon="7.17469">
        <ele>512.2</ele>
        <time>2020-08-12T09:32:32Z</time>
      </trkpt>
      <trkpt lat="48.62904" lon="7.17459">
        <ele>513.7</ele>
        <time>2020-08-12T09:32:34Z</time>
      </trkpt>
      <trkpt lat="48.62911" lon="7.17449">
        <ele>514.2</ele>
        <time>2020-08-12T09:32:36Z</time>
      </trkpt>
      <trkpt lat="48.62917" lon="7.17441">
        <ele>514.9</ele>
        <time>2020-08-12T09:32:38Z</time>
      </trkpt>
      <trkpt lat="48.62925" lon="7.17434">
        <ele>515.6</ele>
        <time>2020-08-12T09:32:40Z</time>
      </trkpt>
      <trkpt lat="48.62932" lon="7.17428">
        <ele>516.4</ele>
        <time>2020-08-12T09:32:42Z</time>
      </trkpt>
      <trkpt lat="48.62941" lon="7.17426">
        <ele>516.9</ele>
        <time>2020-08-12T09:32:44Z</time>
      </trkpt>
      <trkpt lat="48.6295" lon="7.17425">
        <ele>516.9</ele>
        <time>2020-08-12T09:32:46Z</time>
      </trkpt>
      <trkpt lat="48.62959" lon="7.17426">
        <ele>516.9</ele>
        <time>2020-08-12T09:32:48Z</time>
      </trkpt>
      <trkpt lat="48.62968" lon="7.17428">
        <ele>516.9</ele>
        <time>2020-08-12T09:32:50Z</time>
      </trkpt>
      <trkpt lat="48.62972" lon="7.17429">
        <ele>517.1</ele>
        <time>2020-08-12T09:32:52Z</time>
      </trkpt>
      <trkpt lat="48.62976" lon="7.17425">
        <ele>522.5</ele>
        <time>2020-08-12T09:33:07Z</time>
      </trkpt>
      <trkpt lat="48.62982" lon="7.17425">
        <ele>525.7</ele>
        <time>2020-08-12T09:33:23Z</time>
      </trkpt>
      <trkpt lat="48.62987" lon="7.17426">
        <ele>526.3</ele>
        <time>2020-08-12T09:33:25Z</time>
      </trkpt>
      <trkpt lat="48.62992" lon="7.17427">
        <ele>526.2</ele>
        <time>2020-08-12T09:33:27Z</time>
      </trkpt>
      <trkpt lat="48.62997" lon="7.17429">
        <ele>526.2</ele>
        <time>2020-08-12T09:33:29Z</time>
      </trkpt>
      <trkpt lat="48.63002" lon="7.17429">
        <ele>525.5</ele>
        <time>2020-08-12T09:33:31Z</time>
      </trkpt>
      <trkpt lat="48.63008" lon="7.17431">
        <ele>524.9</ele>
        <time>2020-08-12T09:33:33Z</time>
      </trkpt>
      <trkpt lat="48.63014" lon="7.17433">
        <ele>524.8</ele>
        <time>2020-08-12T09:33:35Z</time>
      </trkpt>
      <trkpt lat="48.63021" lon="7.17435">
        <ele>524.6</ele>
        <time>2020-08-12T09:33:37Z</time>
      </trkpt>
      <trkpt lat="48.63028" lon="7.17435">
        <ele>525.3</ele>
        <time>2020-08-12T09:33:39Z</time>
      </trkpt>
      <trkpt lat="48.63035" lon="7.17434">
        <ele>526</ele>
        <time>2020-08-12T09:33:41Z</time>
      </trkpt>
      <trkpt lat="48.63042" lon="7.17433">
        <ele>527.3</ele>
        <time>2020-08-12T09:33:43Z</time>
      </trkpt>
      <trkpt lat="48.63048" lon="7.17433">
        <ele>528.3</ele>
        <time>2020-08-12T09:33:45Z</time>
      </trkpt>
      <trkpt lat="48.63048" lon="7.17442">
        <ele>530.8</ele>
        <time>2020-08-12T09:33:50Z</time>
      </trkpt>
      <trkpt lat="48.63045" lon="7.17447">
        <ele>531.3</ele>
        <time>2020-08-12T09:33:52Z</time>
      </trkpt>
      <trkpt lat="48.63041" lon="7.17452">
        <ele>530.7</ele>
        <time>2020-08-12T09:33:54Z</time>
      </trkpt>
      <trkpt lat="48.63037" lon="7.17457">
        <ele>530.7</ele>
        <time>2020-08-12T09:33:56Z</time>
      </trkpt>
      <trkpt lat="48.63032" lon="7.17463">
        <ele>530.6</ele>
        <time>2020-08-12T09:33:58Z</time>
      </trkpt>
      <trkpt lat="48.63027" lon="7.17469">
        <ele>530.3</ele>
        <time>2020-08-12T09:34:00Z</time>
      </trkpt>
      <trkpt lat="48.63022" lon="7.17476">
        <ele>530.9</ele>
        <time>2020-08-12T09:34:02Z</time>
      </trkpt>
      <trkpt lat="48.63018" lon="7.17483">
        <ele>531.6</ele>
        <time>2020-08-12T09:34:04Z</time>
      </trkpt>
      <trkpt lat="48.63013" lon="7.17492">
        <ele>532</ele>
        <time>2020-08-12T09:34:06Z</time>
      </trkpt>
      <trkpt lat="48.63008" lon="7.175">
        <ele>530.7</ele>
        <time>2020-08-12T09:34:08Z</time>
      </trkpt>
      <trkpt lat="48.62999" lon="7.17509">
        <ele>530.3</ele>
        <time>2020-08-12T09:34:10Z</time>
      </trkpt>
      <trkpt lat="48.62991" lon="7.17517">
        <ele>530.4</ele>
        <time>2020-08-12T09:34:12Z</time>
      </trkpt>
      <trkpt lat="48.62984" lon="7.17525">
        <ele>530.4</ele>
        <time>2020-08-12T09:34:14Z</time>
      </trkpt>
      <trkpt lat="48.62978" lon="7.17531">
        <ele>530</ele>
        <time>2020-08-12T09:34:16Z</time>
      </trkpt>
      <trkpt lat="48.62972" lon="7.1754">
        <ele>529.8</ele>
        <time>2020-08-12T09:34:18Z</time>
      </trkpt>
      <trkpt lat="48.62966" lon="7.17547">
        <ele>529.7</ele>
        <time>2020-08-12T09:34:20Z</time>
      </trkpt>
      <trkpt lat="48.62959" lon="7.17555">
        <ele>529.3</ele>
        <time>2020-08-12T09:34:22Z</time>
      </trkpt>
      <trkpt lat="48.62953" lon="7.1756">
        <ele>528.4</ele>
        <time>2020-08-12T09:34:24Z</time>
      </trkpt>
      <trkpt lat="48.62945" lon="7.17566">
        <ele>528.4</ele>
        <time>2020-08-12T09:34:26Z</time>
      </trkpt>
      <trkpt lat="48.62939" lon="7.17573">
        <ele>528.2</ele>
        <time>2020-08-12T09:34:28Z</time>
      </trkpt>
      <trkpt lat="48.62933" lon="7.1758">
        <ele>528.9</ele>
        <time>2020-08-12T09:34:30Z</time>
      </trkpt>
      <trkpt lat="48.62926" lon="7.17587">
        <ele>529</ele>
        <time>2020-08-12T09:34:32Z</time>
      </trkpt>
      <trkpt lat="48.62919" lon="7.17594">
        <ele>529.8</ele>
        <time>2020-08-12T09:34:34Z</time>
      </trkpt>
      <trkpt lat="48.62911" lon="7.17604">
        <ele>531.2</ele>
        <time>2020-08-12T09:34:36Z</time>
      </trkpt>
      <trkpt lat="48.62903" lon="7.17616">
        <ele>532</ele>
        <time>2020-08-12T09:34:38Z</time>
      </trkpt>
      <trkpt lat="48.62894" lon="7.17628">
        <ele>532.9</ele>
        <time>2020-08-12T09:34:40Z</time>
      </trkpt>
      <trkpt lat="48.62884" lon="7.17641">
        <ele>533.2</ele>
        <time>2020-08-12T09:34:42Z</time>
      </trkpt>
      <trkpt lat="48.62875" lon="7.17655">
        <ele>533.6</ele>
        <time>2020-08-12T09:34:44Z</time>
      </trkpt>
      <trkpt lat="48.62864" lon="7.17673">
        <ele>534.3</ele>
        <time>2020-08-12T09:34:46Z</time>
      </trkpt>
      <trkpt lat="48.62854" lon="7.17692">
        <ele>531.8</ele>
        <time>2020-08-12T09:34:48Z</time>
      </trkpt>
      <trkpt lat="48.62842" lon="7.17711">
        <ele>533.2</ele>
        <time>2020-08-12T09:34:50Z</time>
      </trkpt>
      <trkpt lat="48.62831" lon="7.1773">
        <ele>534.8</ele>
        <time>2020-08-12T09:34:52Z</time>
      </trkpt>
      <trkpt lat="48.6282" lon="7.17748">
        <ele>536.5</ele>
        <time>2020-08-12T09:34:54Z</time>
      </trkpt>
      <trkpt lat="48.62809" lon="7.17763">
        <ele>538.1</ele>
        <time>2020-08-12T09:34:56Z</time>
      </trkpt>
      <trkpt lat="48.62801" lon="7.1778">
        <ele>539.3</ele>
        <time>2020-08-12T09:34:58Z</time>
      </trkpt>
      <trkpt lat="48.62796" lon="7.17799">
        <ele>540</ele>
        <time>2020-08-12T09:35:00Z</time>
      </trkpt>
      <trkpt lat="48.6279" lon="7.17815">
        <ele>539.3</ele>
        <time>2020-08-12T09:35:02Z</time>
      </trkpt>
      <trkpt lat="48.62783" lon="7.1783">
        <ele>539.7</ele>
        <time>2020-08-12T09:35:04Z</time>
      </trkpt>
      <trkpt lat="48.62776" lon="7.17844">
        <ele>539.9</ele>
        <time>2020-08-12T09:35:06Z</time>
      </trkpt>
      <trkpt lat="48.62769" lon="7.17856">
        <ele>539.7</ele>
        <time>2020-08-12T09:35:08Z</time>
      </trkpt>
      <trkpt lat="48.62761" lon="7.17868">
        <ele>540.3</ele>
        <time>2020-08-12T09:35:10Z</time>
      </trkpt>
      <trkpt lat="48.62755" lon="7.1788">
        <ele>540.6</ele>
        <time>2020-08-12T09:35:12Z</time>
      </trkpt>
      <trkpt lat="48.62749" lon="7.17891">
        <ele>541.1</ele>
        <time>2020-08-12T09:35:14Z</time>
      </trkpt>
      <trkpt lat="48.62742" lon="7.17903">
        <ele>542.2</ele>
        <time>2020-08-12T09:35:16Z</time>
      </trkpt>
      <trkpt lat="48.62736" lon="7.17912">
        <ele>542.6</ele>
        <time>2020-08-12T09:35:18Z</time>
      </trkpt>
      <trkpt lat="48.6273" lon="7.17919">
        <ele>542.7</ele>
        <time>2020-08-12T09:35:20Z</time>
      </trkpt>
      <trkpt lat="48.62723" lon="7.17927">
        <ele>542.6</ele>
        <time>2020-08-12T09:35:22Z</time>
      </trkpt>
      <trkpt lat="48.62718" lon="7.17938">
        <ele>542.5</ele>
        <time>2020-08-12T09:35:24Z</time>
      </trkpt>
      <trkpt lat="48.62716" lon="7.17948">
        <ele>543</ele>
        <time>2020-08-12T09:35:26Z</time>
      </trkpt>
      <trkpt lat="48.62716" lon="7.17959">
        <ele>544.2</ele>
        <time>2020-08-12T09:35:28Z</time>
      </trkpt>
      <trkpt lat="48.62719" lon="7.17971">
        <ele>545.1</ele>
        <time>2020-08-12T09:35:30Z</time>
      </trkpt>
      <trkpt lat="48.62722" lon="7.17984">
        <ele>545.9</ele>
        <time>2020-08-12T09:35:32Z</time>
      </trkpt>
      <trkpt lat="48.62723" lon="7.17995">
        <ele>546.7</ele>
        <time>2020-08-12T09:35:34Z</time>
      </trkpt>
      <trkpt lat="48.62724" lon="7.18007">
        <ele>547.6</ele>
        <time>2020-08-12T09:35:36Z</time>
      </trkpt>
      <trkpt lat="48.62725" lon="7.18021">
        <ele>548.3</ele>
        <time>2020-08-12T09:35:38Z</time>
      </trkpt>
      <trkpt lat="48.62728" lon="7.18037">
        <ele>548.5</ele>
        <time>2020-08-12T09:35:40Z</time>
      </trkpt>
      <trkpt lat="48.62731" lon="7.18052">
        <ele>548.4</ele>
        <time>2020-08-12T09:35:42Z</time>
      </trkpt>
      <trkpt lat="48.62732" lon="7.18068">
        <ele>547.1</ele>
        <time>2020-08-12T09:35:44Z</time>
      </trkpt>
      <trkpt lat="48.62733" lon="7.18081">
        <ele>545.9</ele>
        <time>2020-08-12T09:35:46Z</time>
      </trkpt>
      <trkpt lat="48.62737" lon="7.18093">
        <ele>545.2</ele>
        <time>2020-08-12T09:35:48Z</time>
      </trkpt>
      <trkpt lat="48.62742" lon="7.18107">
        <ele>544.1</ele>
        <time>2020-08-12T09:35:50Z</time>
      </trkpt>
      <trkpt lat="48.62745" lon="7.18119">
        <ele>543.7</ele>
        <time>2020-08-12T09:35:52Z</time>
      </trkpt>
      <trkpt lat="48.62746" lon="7.18131">
        <ele>542.7</ele>
        <time>2020-08-12T09:35:54Z</time>
      </trkpt>
      <trkpt lat="48.6275" lon="7.18143">
        <ele>542.4</ele>
        <time>2020-08-12T09:35:56Z</time>
      </trkpt>
      <trkpt lat="48.62755" lon="7.18154">
        <ele>513.5</ele>
        <time>2020-08-12T09:35:58Z</time>
      </trkpt>
      <trkpt lat="48.62757" lon="7.18161">
        <ele>511.6</ele>
        <time>2020-08-12T09:35:59Z</time>
      </trkpt>
      <trkpt lat="48.62759" lon="7.18167">
        <ele>510.1</ele>
        <time>2020-08-12T09:36:00Z</time>
      </trkpt>
      <trkpt lat="48.62763" lon="7.18179">
        <ele>494.7</ele>
        <time>2020-08-12T09:36:02Z</time>
      </trkpt>
      <trkpt lat="48.62768" lon="7.18192">
        <ele>486.7</ele>
        <time>2020-08-12T09:36:04Z</time>
      </trkpt>
      <trkpt lat="48.62773" lon="7.18205">
        <ele>487</ele>
        <time>2020-08-12T09:36:06Z</time>
      </trkpt>
      <trkpt lat="48.62778" lon="7.18222">
        <ele>493.2</ele>
        <time>2020-08-12T09:36:08Z</time>
      </trkpt>
      <trkpt lat="48.62783" lon="7.1824">
        <ele>498.4</ele>
        <time>2020-08-12T09:36:10Z</time>
      </trkpt>
      <trkpt lat="48.62793" lon="7.18256">
        <ele>506.7</ele>
        <time>2020-08-12T09:36:12Z</time>
      </trkpt>
      <trkpt lat="48.62804" lon="7.18271">
        <ele>493.8</ele>
        <time>2020-08-12T09:36:14Z</time>
      </trkpt>
      <trkpt lat="48.62814" lon="7.18284">
        <ele>489.2</ele>
        <time>2020-08-12T09:36:16Z</time>
      </trkpt>
      <trkpt lat="48.62824" lon="7.18294">
        <ele>496.9</ele>
        <time>2020-08-12T09:36:18Z</time>
      </trkpt>
      <trkpt lat="48.62832" lon="7.18303">
        <ele>505</ele>
        <time>2020-08-12T09:36:20Z</time>
      </trkpt>
      <trkpt lat="48.62837" lon="7.18308">
        <ele>497.6</ele>
        <time>2020-08-12T09:36:22Z</time>
      </trkpt>
      <trkpt lat="48.62842" lon="7.18312">
        <ele>488.7</ele>
        <time>2020-08-12T09:36:24Z</time>
      </trkpt>
      <trkpt lat="48.62847" lon="7.18318">
        <ele>496</ele>
        <time>2020-08-12T09:36:26Z</time>
      </trkpt>
      <trkpt lat="48.62853" lon="7.18326">
        <ele>503.6</ele>
        <time>2020-08-12T09:36:28Z</time>
      </trkpt>
      <trkpt lat="48.62861" lon="7.18338">
        <ele>510.5</ele>
        <time>2020-08-12T09:36:30Z</time>
      </trkpt>
      <trkpt lat="48.62868" lon="7.18345">
        <ele>516.6</ele>
        <time>2020-08-12T09:36:32Z</time>
      </trkpt>
      <trkpt lat="48.62872" lon="7.1835">
        <ele>524.2</ele>
        <time>2020-08-12T09:36:35Z</time>
      </trkpt>
      <trkpt lat="48.62876" lon="7.18342">
        <ele>535.5</ele>
        <time>2020-08-12T09:36:58Z</time>
      </trkpt>
      <trkpt lat="48.62878" lon="7.18335">
        <ele>536</ele>
        <time>2020-08-12T09:37:00Z</time>
      </trkpt>
      <trkpt lat="48.62879" lon="7.18326">
        <ele>536.3</ele>
        <time>2020-08-12T09:37:02Z</time>
      </trkpt>
      <trkpt lat="48.6288" lon="7.18319">
        <ele>536.8</ele>
        <time>2020-08-12T09:37:04Z</time>
      </trkpt>
      <trkpt lat="48.62879" lon="7.18311">
        <ele>540.1</ele>
        <time>2020-08-12T09:37:20Z</time>
      </trkpt>
      <trkpt lat="48.62876" lon="7.18304">
        <ele>540.5</ele>
        <time>2020-08-12T09:37:23Z</time>
      </trkpt>
      <trkpt lat="48.62875" lon="7.18294">
        <ele>540.5</ele>
        <time>2020-08-12T09:37:26Z</time>
      </trkpt>
      <trkpt lat="48.62875" lon="7.18285">
        <ele>540.7</ele>
        <time>2020-08-12T09:37:28Z</time>
      </trkpt>
      <trkpt lat="48.62875" lon="7.18274">
        <ele>541.5</ele>
        <time>2020-08-12T09:37:30Z</time>
      </trkpt>
      <trkpt lat="48.62875" lon="7.18262">
        <ele>541.7</ele>
        <time>2020-08-12T09:37:32Z</time>
      </trkpt>
      <trkpt lat="48.62875" lon="7.18251">
        <ele>530.5</ele>
        <time>2020-08-12T09:37:34Z</time>
      </trkpt>
      <trkpt lat="48.62875" lon="7.18239">
        <ele>525.5</ele>
        <time>2020-08-12T09:37:36Z</time>
      </trkpt>
      <trkpt lat="48.62876" lon="7.18222">
        <ele>524.6</ele>
        <time>2020-08-12T09:37:38Z</time>
      </trkpt>
      <trkpt lat="48.62879" lon="7.18205">
        <ele>526</ele>
        <time>2020-08-12T09:37:40Z</time>
      </trkpt>
      <trkpt lat="48.6288" lon="7.18191">
        <ele>527.8</ele>
        <time>2020-08-12T09:37:42Z</time>
      </trkpt>
      <trkpt lat="48.62879" lon="7.18178">
        <ele>529</ele>
        <time>2020-08-12T09:37:44Z</time>
      </trkpt>
      <trkpt lat="48.62877" lon="7.18168">
        <ele>530.6</ele>
        <time>2020-08-12T09:37:46Z</time>
      </trkpt>
      <trkpt lat="48.62879" lon="7.18156">
        <ele>531.7</ele>
        <time>2020-08-12T09:37:48Z</time>
      </trkpt>
      <trkpt lat="48.62884" lon="7.18142">
        <ele>532.6</ele>
        <time>2020-08-12T09:37:50Z</time>
      </trkpt>
      <trkpt lat="48.62888" lon="7.18129">
        <ele>533.9</ele>
        <time>2020-08-12T09:37:52Z</time>
      </trkpt>
      <trkpt lat="48.62891" lon="7.18117">
        <ele>535.2</ele>
        <time>2020-08-12T09:37:54Z</time>
      </trkpt>
      <trkpt lat="48.62894" lon="7.18106">
        <ele>536</ele>
        <time>2020-08-12T09:37:56Z</time>
      </trkpt>
      <trkpt lat="48.62895" lon="7.18097">
        <ele>536.3</ele>
        <time>2020-08-12T09:37:58Z</time>
      </trkpt>
      <trkpt lat="48.62897" lon="7.18087">
        <ele>537.1</ele>
        <time>2020-08-12T09:38:00Z</time>
      </trkpt>
      <trkpt lat="48.62898" lon="7.18075">
        <ele>537.7</ele>
        <time>2020-08-12T09:38:02Z</time>
      </trkpt>
      <trkpt lat="48.62901" lon="7.1806">
        <ele>537</ele>
        <time>2020-08-12T09:38:04Z</time>
      </trkpt>
      <trkpt lat="48.62905" lon="7.18043">
        <ele>535.5</ele>
        <time>2020-08-12T09:38:06Z</time>
      </trkpt>
      <trkpt lat="48.6291" lon="7.18024">
        <ele>534.3</ele>
        <time>2020-08-12T09:38:08Z</time>
      </trkpt>
      <trkpt lat="48.62915" lon="7.1801">
        <ele>533.5</ele>
        <time>2020-08-12T09:38:10Z</time>
      </trkpt>
      <trkpt lat="48.62921" lon="7.17996">
        <ele>533.4</ele>
        <time>2020-08-12T09:38:12Z</time>
      </trkpt>
      <trkpt lat="48.62926" lon="7.17983">
        <ele>516.6</ele>
        <time>2020-08-12T09:38:14Z</time>
      </trkpt>
      <trkpt lat="48.62933" lon="7.1797">
        <ele>514.1</ele>
        <time>2020-08-12T09:38:16Z</time>
      </trkpt>
      <trkpt lat="48.62938" lon="7.17958">
        <ele>504.7</ele>
        <time>2020-08-12T09:38:18Z</time>
      </trkpt>
      <trkpt lat="48.6294" lon="7.17944">
        <ele>504.7</ele>
        <time>2020-08-12T09:38:20Z</time>
      </trkpt>
      <trkpt lat="48.62946" lon="7.17934">
        <ele>508.3</ele>
        <time>2020-08-12T09:38:22Z</time>
      </trkpt>
      <trkpt lat="48.62951" lon="7.17924">
        <ele>511.4</ele>
        <time>2020-08-12T09:38:24Z</time>
      </trkpt>
      <trkpt lat="48.62955" lon="7.17914">
        <ele>514.6</ele>
        <time>2020-08-12T09:38:26Z</time>
      </trkpt>
      <trkpt lat="48.6296" lon="7.17903">
        <ele>517.2</ele>
        <time>2020-08-12T09:38:28Z</time>
      </trkpt>
      <trkpt lat="48.62964" lon="7.17892">
        <ele>510.5</ele>
        <time>2020-08-12T09:38:30Z</time>
      </trkpt>
      <trkpt lat="48.62973" lon="7.1788">
        <ele>514</ele>
        <time>2020-08-12T09:38:32Z</time>
      </trkpt>
      <trkpt lat="48.62983" lon="7.17868">
        <ele>516.7</ele>
        <time>2020-08-12T09:38:34Z</time>
      </trkpt>
      <trkpt lat="48.62992" lon="7.17854">
        <ele>518.5</ele>
        <time>2020-08-12T09:38:36Z</time>
      </trkpt>
      <trkpt lat="48.63" lon="7.17837">
        <ele>520.4</ele>
        <time>2020-08-12T09:38:38Z</time>
      </trkpt>
      <trkpt lat="48.63008" lon="7.1782">
        <ele>521.6</ele>
        <time>2020-08-12T09:38:40Z</time>
      </trkpt>
      <trkpt lat="48.63016" lon="7.17806">
        <ele>522.5</ele>
        <time>2020-08-12T09:38:42Z</time>
      </trkpt>
      <trkpt lat="48.63026" lon="7.17794">
        <ele>522.8</ele>
        <time>2020-08-12T09:38:44Z</time>
      </trkpt>
      <trkpt lat="48.63033" lon="7.17782">
        <ele>524.3</ele>
        <time>2020-08-12T09:38:46Z</time>
      </trkpt>
      <trkpt lat="48.6304" lon="7.17767">
        <ele>525.8</ele>
        <time>2020-08-12T09:38:48Z</time>
      </trkpt>
      <trkpt lat="48.63047" lon="7.1775">
        <ele>526.6</ele>
        <time>2020-08-12T09:38:50Z</time>
      </trkpt>
      <trkpt lat="48.63054" lon="7.17735">
        <ele>528.1</ele>
        <time>2020-08-12T09:38:52Z</time>
      </trkpt>
      <trkpt lat="48.63061" lon="7.17721">
        <ele>528.8</ele>
        <time>2020-08-12T09:38:54Z</time>
      </trkpt>
      <trkpt lat="48.63068" lon="7.17711">
        <ele>528.7</ele>
        <time>2020-08-12T09:38:56Z</time>
      </trkpt>
      <trkpt lat="48.63077" lon="7.17701">
        <ele>529.3</ele>
        <time>2020-08-12T09:38:58Z</time>
      </trkpt>
      <trkpt lat="48.63083" lon="7.17691">
        <ele>528.3</ele>
        <time>2020-08-12T09:39:00Z</time>
      </trkpt>
      <trkpt lat="48.63086" lon="7.17685">
        <ele>528.5</ele>
        <time>2020-08-12T09:39:02Z</time>
      </trkpt>
      <trkpt lat="48.6309" lon="7.1768">
        <ele>529.5</ele>
        <time>2020-08-12T09:39:07Z</time>
      </trkpt>
      <trkpt lat="48.63093" lon="7.17673">
        <ele>530.4</ele>
        <time>2020-08-12T09:39:37Z</time>
      </trkpt>
      <trkpt lat="48.63099" lon="7.17668">
        <ele>529.8</ele>
        <time>2020-08-12T09:39:40Z</time>
      </trkpt>
      <trkpt lat="48.63102" lon="7.17663">
        <ele>531.4</ele>
        <time>2020-08-12T09:39:50Z</time>
      </trkpt>
      <trkpt lat="48.63107" lon="7.17659">
        <ele>531.7</ele>
        <time>2020-08-12T09:39:53Z</time>
      </trkpt>
      <trkpt lat="48.6311" lon="7.17654">
        <ele>532.6</ele>
        <time>2020-08-12T09:39:55Z</time>
      </trkpt>
      <trkpt lat="48.63114" lon="7.17647">
        <ele>532.2</ele>
        <time>2020-08-12T09:39:57Z</time>
      </trkpt>
      <trkpt lat="48.63119" lon="7.17638">
        <ele>532.8</ele>
        <time>2020-08-12T09:39:59Z</time>
      </trkpt>
      <trkpt lat="48.63124" lon="7.1763">
        <ele>533.3</ele>
        <time>2020-08-12T09:40:01Z</time>
      </trkpt>
      <trkpt lat="48.63131" lon="7.17624">
        <ele>533.9</ele>
        <time>2020-08-12T09:40:03Z</time>
      </trkpt>
      <trkpt lat="48.63136" lon="7.17619">
        <ele>534.5</ele>
        <time>2020-08-12T09:40:05Z</time>
      </trkpt>
      <trkpt lat="48.63141" lon="7.17615">
        <ele>534</ele>
        <time>2020-08-12T09:40:07Z</time>
      </trkpt>
      <trkpt lat="48.63145" lon="7.1761">
        <ele>533.2</ele>
        <time>2020-08-12T09:40:12Z</time>
      </trkpt>
      <trkpt lat="48.63152" lon="7.17606">
        <ele>532.6</ele>
        <time>2020-08-12T09:40:15Z</time>
      </trkpt>
      <trkpt lat="48.63158" lon="7.17602">
        <ele>532.7</ele>
        <time>2020-08-12T09:40:17Z</time>
      </trkpt>
      <trkpt lat="48.63165" lon="7.17599">
        <ele>532.5</ele>
        <time>2020-08-12T09:40:19Z</time>
      </trkpt>
      <trkpt lat="48.63172" lon="7.17596">
        <ele>532.2</ele>
        <time>2020-08-12T09:40:21Z</time>
      </trkpt>
      <trkpt lat="48.63178" lon="7.17592">
        <ele>531.8</ele>
        <time>2020-08-12T09:40:23Z</time>
      </trkpt>
      <trkpt lat="48.63184" lon="7.17587">
        <ele>532.4</ele>
        <time>2020-08-12T09:40:25Z</time>
      </trkpt>
      <trkpt lat="48.63192" lon="7.17582">
        <ele>532.5</ele>
        <time>2020-08-12T09:40:27Z</time>
      </trkpt>
      <trkpt lat="48.632" lon="7.17578">
        <ele>532.6</ele>
        <time>2020-08-12T09:40:29Z</time>
      </trkpt>
      <trkpt lat="48.63208" lon="7.17574">
        <ele>532.2</ele>
        <time>2020-08-12T09:40:31Z</time>
      </trkpt>
      <trkpt lat="48.63217" lon="7.17573">
        <ele>532.3</ele>
        <time>2020-08-12T09:40:33Z</time>
      </trkpt>
      <trkpt lat="48.63224" lon="7.17572">
        <ele>532.3</ele>
        <time>2020-08-12T09:40:35Z</time>
      </trkpt>
      <trkpt lat="48.63232" lon="7.17573">
        <ele>532.4</ele>
        <time>2020-08-12T09:40:37Z</time>
      </trkpt>
      <trkpt lat="48.6324" lon="7.17575">
        <ele>532.4</ele>
        <time>2020-08-12T09:40:39Z</time>
      </trkpt>
      <trkpt lat="48.63249" lon="7.17577">
        <ele>532.7</ele>
        <time>2020-08-12T09:40:41Z</time>
      </trkpt>
      <trkpt lat="48.63255" lon="7.17577">
        <ele>532.9</ele>
        <time>2020-08-12T09:40:43Z</time>
      </trkpt>
      <trkpt lat="48.6326" lon="7.17579">
        <ele>533.2</ele>
        <time>2020-08-12T09:40:48Z</time>
      </trkpt>
      <trkpt lat="48.63263" lon="7.17583">
        <ele>531</ele>
        <time>2020-08-12T09:40:56Z</time>
      </trkpt>
      <trkpt lat="48.63268" lon="7.17588">
        <ele>530.8</ele>
        <time>2020-08-12T09:41:00Z</time>
      </trkpt>
      <trkpt lat="48.63274" lon="7.17592">
        <ele>530.8</ele>
        <time>2020-08-12T09:41:03Z</time>
      </trkpt>
      <trkpt lat="48.63279" lon="7.17595">
        <ele>530.4</ele>
        <time>2020-08-12T09:41:05Z</time>
      </trkpt>
      <trkpt lat="48.63285" lon="7.17598">
        <ele>530.8</ele>
        <time>2020-08-12T09:41:07Z</time>
      </trkpt>
      <trkpt lat="48.6329" lon="7.17599">
        <ele>530.7</ele>
        <time>2020-08-12T09:41:09Z</time>
      </trkpt>
      <trkpt lat="48.63296" lon="7.17602">
        <ele>530.6</ele>
        <time>2020-08-12T09:41:11Z</time>
      </trkpt>
      <trkpt lat="48.63301" lon="7.17606">
        <ele>530.2</ele>
        <time>2020-08-12T09:41:13Z</time>
      </trkpt>
      <trkpt lat="48.63307" lon="7.17611">
        <ele>529.4</ele>
        <time>2020-08-12T09:41:15Z</time>
      </trkpt>
      <trkpt lat="48.63313" lon="7.17616">
        <ele>528.4</ele>
        <time>2020-08-12T09:41:17Z</time>
      </trkpt>
      <trkpt lat="48.6332" lon="7.17621">
        <ele>527.5</ele>
        <time>2020-08-12T09:41:19Z</time>
      </trkpt>
      <trkpt lat="48.63328" lon="7.17627">
        <ele>527</ele>
        <time>2020-08-12T09:41:21Z</time>
      </trkpt>
      <trkpt lat="48.63336" lon="7.17634">
        <ele>526.6</ele>
        <time>2020-08-12T09:41:23Z</time>
      </trkpt>
      <trkpt lat="48.63343" lon="7.17639">
        <ele>526.3</ele>
        <time>2020-08-12T09:41:25Z</time>
      </trkpt>
      <trkpt lat="48.6335" lon="7.17645">
        <ele>525.5</ele>
        <time>2020-08-12T09:41:27Z</time>
      </trkpt>
      <trkpt lat="48.63357" lon="7.17651">
        <ele>524.7</ele>
        <time>2020-08-12T09:41:29Z</time>
      </trkpt>
      <trkpt lat="48.63364" lon="7.1766">
        <ele>523.7</ele>
        <time>2020-08-12T09:41:31Z</time>
      </trkpt>
      <trkpt lat="48.63371" lon="7.17669">
        <ele>522.9</ele>
        <time>2020-08-12T09:41:33Z</time>
      </trkpt>
      <trkpt lat="48.63378" lon="7.17678">
        <ele>522.2</ele>
        <time>2020-08-12T09:41:35Z</time>
      </trkpt>
      <trkpt lat="48.63385" lon="7.17685">
        <ele>521.8</ele>
        <time>2020-08-12T09:41:38Z</time>
      </trkpt>
      <trkpt lat="48.63393" lon="7.17696">
        <ele>522</ele>
        <time>2020-08-12T09:41:40Z</time>
      </trkpt>
      <trkpt lat="48.63408" lon="7.17711">
        <ele>522.4</ele>
        <time>2020-08-12T09:41:43Z</time>
      </trkpt>
      <trkpt lat="48.63415" lon="7.17721">
        <ele>522.4</ele>
        <time>2020-08-12T09:41:45Z</time>
      </trkpt>
      <trkpt lat="48.63426" lon="7.17736">
        <ele>522.4</ele>
        <time>2020-08-12T09:41:48Z</time>
      </trkpt>
      <trkpt lat="48.63433" lon="7.17744">
        <ele>522.1</ele>
        <time>2020-08-12T09:41:50Z</time>
      </trkpt>
      <trkpt lat="48.63439" lon="7.17753">
        <ele>522.1</ele>
        <time>2020-08-12T09:41:52Z</time>
      </trkpt>
      <trkpt lat="48.63447" lon="7.17762">
        <ele>521.8</ele>
        <time>2020-08-12T09:41:55Z</time>
      </trkpt>
      <trkpt lat="48.63451" lon="7.17766">
        <ele>522.3</ele>
        <time>2020-08-12T09:41:58Z</time>
      </trkpt>
      <trkpt lat="48.63455" lon="7.1777">
        <ele>527.2</ele>
        <time>2020-08-12T09:42:13Z</time>
      </trkpt>
      <trkpt lat="48.63459" lon="7.17776">
        <ele>528.2</ele>
        <time>2020-08-12T09:42:27Z</time>
      </trkpt>
      <trkpt lat="48.63464" lon="7.1778">
        <ele>528.1</ele>
        <time>2020-08-12T09:42:30Z</time>
      </trkpt>
      <trkpt lat="48.63469" lon="7.17786">
        <ele>528.1</ele>
        <time>2020-08-12T09:42:32Z</time>
      </trkpt>
      <trkpt lat="48.63477" lon="7.17799">
        <ele>527.6</ele>
        <time>2020-08-12T09:42:35Z</time>
      </trkpt>
      <trkpt lat="48.63482" lon="7.17809">
        <ele>527.8</ele>
        <time>2020-08-12T09:42:37Z</time>
      </trkpt>
      <trkpt lat="48.63488" lon="7.17818">
        <ele>527.7</ele>
        <time>2020-08-12T09:42:39Z</time>
      </trkpt>
      <trkpt lat="48.63493" lon="7.17827">
        <ele>528.3</ele>
        <time>2020-08-12T09:42:41Z</time>
      </trkpt>
      <trkpt lat="48.63499" lon="7.17836">
        <ele>528.8</ele>
        <time>2020-08-12T09:42:43Z</time>
      </trkpt>
      <trkpt lat="48.63506" lon="7.17849">
        <ele>529.1</ele>
        <time>2020-08-12T09:42:46Z</time>
      </trkpt>
      <trkpt lat="48.63511" lon="7.17859">
        <ele>529.2</ele>
        <time>2020-08-12T09:42:48Z</time>
      </trkpt>
      <trkpt lat="48.63515" lon="7.17867">
        <ele>529.3</ele>
        <time>2020-08-12T09:42:50Z</time>
      </trkpt>
      <trkpt lat="48.63519" lon="7.17875">
        <ele>529.2</ele>
        <time>2020-08-12T09:42:52Z</time>
      </trkpt>
      <trkpt lat="48.63523" lon="7.17885">
        <ele>528.9</ele>
        <time>2020-08-12T09:42:54Z</time>
      </trkpt>
      <trkpt lat="48.63529" lon="7.17894">
        <ele>528.5</ele>
        <time>2020-08-12T09:42:56Z</time>
      </trkpt>
      <trkpt lat="48.63536" lon="7.17903">
        <ele>528.5</ele>
        <time>2020-08-12T09:42:58Z</time>
      </trkpt>
      <trkpt lat="48.63544" lon="7.17912">
        <ele>528.2</ele>
        <time>2020-08-12T09:43:00Z</time>
      </trkpt>
      <trkpt lat="48.63549" lon="7.17922">
        <ele>528</ele>
        <time>2020-08-12T09:43:02Z</time>
      </trkpt>
      <trkpt lat="48.63558" lon="7.17937">
        <ele>527.1</ele>
        <time>2020-08-12T09:43:05Z</time>
      </trkpt>
      <trkpt lat="48.63563" lon="7.17946">
        <ele>526.8</ele>
        <time>2020-08-12T09:43:07Z</time>
      </trkpt>
      <trkpt lat="48.63569" lon="7.17954">
        <ele>526.9</ele>
        <time>2020-08-12T09:43:09Z</time>
      </trkpt>
      <trkpt lat="48.63573" lon="7.17959">
        <ele>527.1</ele>
        <time>2020-08-12T09:43:12Z</time>
      </trkpt>
      <trkpt lat="48.63578" lon="7.1796">
        <ele>527.8</ele>
        <time>2020-08-12T09:43:33Z</time>
      </trkpt>
      <trkpt lat="48.6358" lon="7.17968">
        <ele>527.5</ele>
        <time>2020-08-12T09:43:36Z</time>
      </trkpt>
      <trkpt lat="48.63582" lon="7.17974">
        <ele>527.4</ele>
        <time>2020-08-12T09:43:38Z</time>
      </trkpt>
      <trkpt lat="48.63583" lon="7.17982">
        <ele>527.8</ele>
        <time>2020-08-12T09:43:41Z</time>
      </trkpt>
      <trkpt lat="48.63585" lon="7.17989">
        <ele>528.3</ele>
        <time>2020-08-12T09:43:43Z</time>
      </trkpt>
      <trkpt lat="48.63591" lon="7.18003">
        <ele>528.7</ele>
        <time>2020-08-12T09:43:46Z</time>
      </trkpt>
      <trkpt lat="48.63599" lon="7.18013">
        <ele>529.2</ele>
        <time>2020-08-12T09:43:48Z</time>
      </trkpt>
      <trkpt lat="48.63605" lon="7.18022">
        <ele>529.6</ele>
        <time>2020-08-12T09:43:50Z</time>
      </trkpt>
      <trkpt lat="48.63609" lon="7.18033">
        <ele>530.3</ele>
        <time>2020-08-12T09:43:52Z</time>
      </trkpt>
      <trkpt lat="48.63613" lon="7.18042">
        <ele>530.7</ele>
        <time>2020-08-12T09:43:54Z</time>
      </trkpt>
      <trkpt lat="48.63617" lon="7.18052">
        <ele>531.5</ele>
        <time>2020-08-12T09:43:56Z</time>
      </trkpt>
      <trkpt lat="48.63621" lon="7.18062">
        <ele>531.5</ele>
        <time>2020-08-12T09:43:58Z</time>
      </trkpt>
      <trkpt lat="48.63624" lon="7.18072">
        <ele>531.8</ele>
        <time>2020-08-12T09:44:00Z</time>
      </trkpt>
      <trkpt lat="48.63627" lon="7.18082">
        <ele>531.4</ele>
        <time>2020-08-12T09:44:02Z</time>
      </trkpt>
      <trkpt lat="48.6363" lon="7.18091">
        <ele>531.6</ele>
        <time>2020-08-12T09:44:04Z</time>
      </trkpt>
      <trkpt lat="48.63636" lon="7.18105">
        <ele>530.7</ele>
        <time>2020-08-12T09:44:07Z</time>
      </trkpt>
      <trkpt lat="48.6364" lon="7.18114">
        <ele>530.2</ele>
        <time>2020-08-12T09:44:09Z</time>
      </trkpt>
      <trkpt lat="48.63643" lon="7.18121">
        <ele>529.7</ele>
        <time>2020-08-12T09:44:11Z</time>
      </trkpt>
      <trkpt lat="48.63646" lon="7.18126">
        <ele>529.4</ele>
        <time>2020-08-12T09:44:13Z</time>
      </trkpt>
      <trkpt lat="48.63648" lon="7.18133">
        <ele>528.7</ele>
        <time>2020-08-12T09:44:15Z</time>
      </trkpt>
      <trkpt lat="48.63651" lon="7.1814">
        <ele>528.3</ele>
        <time>2020-08-12T09:44:17Z</time>
      </trkpt>
      <trkpt lat="48.63654" lon="7.18146">
        <ele>527.7</ele>
        <time>2020-08-12T09:44:19Z</time>
      </trkpt>
      <trkpt lat="48.63663" lon="7.18156">
        <ele>527.7</ele>
        <time>2020-08-12T09:44:22Z</time>
      </trkpt>
      <trkpt lat="48.63668" lon="7.18162">
        <ele>528.2</ele>
        <time>2020-08-12T09:44:24Z</time>
      </trkpt>
      <trkpt lat="48.63671" lon="7.18168">
        <ele>528.8</ele>
        <time>2020-08-12T09:44:27Z</time>
      </trkpt>
      <trkpt lat="48.63673" lon="7.18175">
        <ele>529.3</ele>
        <time>2020-08-12T09:44:32Z</time>
      </trkpt>
      <trkpt lat="48.63676" lon="7.18183">
        <ele>529.4</ele>
        <time>2020-08-12T09:44:35Z</time>
      </trkpt>
      <trkpt lat="48.63679" lon="7.1819">
        <ele>529.5</ele>
        <time>2020-08-12T09:44:38Z</time>
      </trkpt>
      <trkpt lat="48.63682" lon="7.18194">
        <ele>530.4</ele>
        <time>2020-08-12T09:45:13Z</time>
      </trkpt>
      <trkpt lat="48.63687" lon="7.18197">
        <ele>530.2</ele>
        <time>2020-08-12T09:45:18Z</time>
      </trkpt>
      <trkpt lat="48.6369" lon="7.18202">
        <ele>529</ele>
        <time>2020-08-12T09:45:20Z</time>
      </trkpt>
      <trkpt lat="48.63695" lon="7.18211">
        <ele>528.1</ele>
        <time>2020-08-12T09:45:22Z</time>
      </trkpt>
      <trkpt lat="48.637" lon="7.1822">
        <ele>526.9</ele>
        <time>2020-08-12T09:45:24Z</time>
      </trkpt>
      <trkpt lat="48.63704" lon="7.18229">
        <ele>526.4</ele>
        <time>2020-08-12T09:45:26Z</time>
      </trkpt>
      <trkpt lat="48.63708" lon="7.18239">
        <ele>525.3</ele>
        <time>2020-08-12T09:45:28Z</time>
      </trkpt>
      <trkpt lat="48.63711" lon="7.18251">
        <ele>514.8</ele>
        <time>2020-08-12T09:45:30Z</time>
      </trkpt>
      <trkpt lat="48.63714" lon="7.18262">
        <ele>507.4</ele>
        <time>2020-08-12T09:45:32Z</time>
      </trkpt>
      <trkpt lat="48.63717" lon="7.18275">
        <ele>509.2</ele>
        <time>2020-08-12T09:45:34Z</time>
      </trkpt>
      <trkpt lat="48.63721" lon="7.18287">
        <ele>510</ele>
        <time>2020-08-12T09:45:36Z</time>
      </trkpt>
      <trkpt lat="48.63724" lon="7.18299">
        <ele>512.2</ele>
        <time>2020-08-12T09:45:38Z</time>
      </trkpt>
      <trkpt lat="48.63726" lon="7.18311">
        <ele>513.3</ele>
        <time>2020-08-12T09:45:40Z</time>
      </trkpt>
      <trkpt lat="48.63726" lon="7.18323">
        <ele>514.3</ele>
        <time>2020-08-12T09:45:42Z</time>
      </trkpt>
      <trkpt lat="48.63727" lon="7.18334">
        <ele>516.3</ele>
        <time>2020-08-12T09:45:44Z</time>
      </trkpt>
      <trkpt lat="48.63729" lon="7.18344">
        <ele>516.6</ele>
        <time>2020-08-12T09:45:46Z</time>
      </trkpt>
      <trkpt lat="48.63732" lon="7.1835">
        <ele>516.9</ele>
        <time>2020-08-12T09:45:48Z</time>
      </trkpt>
      <trkpt lat="48.63734" lon="7.18357">
        <ele>517.9</ele>
        <time>2020-08-12T09:45:53Z</time>
      </trkpt>
      <trkpt lat="48.63739" lon="7.18361">
        <ele>518.8</ele>
        <time>2020-08-12T09:45:59Z</time>
      </trkpt>
      <trkpt lat="48.63743" lon="7.18363">
        <ele>518.9</ele>
        <time>2020-08-12T09:46:01Z</time>
      </trkpt>
      <trkpt lat="48.63749" lon="7.18365">
        <ele>519.1</ele>
        <time>2020-08-12T09:46:03Z</time>
      </trkpt>
      <trkpt lat="48.63754" lon="7.18369">
        <ele>518.7</ele>
        <time>2020-08-12T09:46:05Z</time>
      </trkpt>
      <trkpt lat="48.63759" lon="7.18372">
        <ele>518.5</ele>
        <time>2020-08-12T09:46:07Z</time>
      </trkpt>
      <trkpt lat="48.63764" lon="7.18375">
        <ele>518.2</ele>
        <time>2020-08-12T09:46:09Z</time>
      </trkpt>
      <trkpt lat="48.63772" lon="7.18376">
        <ele>517.6</ele>
        <time>2020-08-12T09:46:11Z</time>
      </trkpt>
      <trkpt lat="48.63778" lon="7.18375">
        <ele>516.6</ele>
        <time>2020-08-12T09:46:13Z</time>
      </trkpt>
      <trkpt lat="48.63785" lon="7.1837">
        <ele>515.4</ele>
        <time>2020-08-12T09:46:15Z</time>
      </trkpt>
      <trkpt lat="48.63794" lon="7.18361">
        <ele>513.8</ele>
        <time>2020-08-12T09:46:17Z</time>
      </trkpt>
      <trkpt lat="48.63803" lon="7.18354">
        <ele>512.4</ele>
        <time>2020-08-12T09:46:19Z</time>
      </trkpt>
      <trkpt lat="48.63811" lon="7.18349">
        <ele>511.6</ele>
        <time>2020-08-12T09:46:21Z</time>
      </trkpt>
      <trkpt lat="48.63817" lon="7.18342">
        <ele>510.9</ele>
        <time>2020-08-12T09:46:23Z</time>
      </trkpt>
      <trkpt lat="48.63824" lon="7.18337">
        <ele>510.1</ele>
        <time>2020-08-12T09:46:25Z</time>
      </trkpt>
      <trkpt lat="48.63831" lon="7.18334">
        <ele>510.7</ele>
        <time>2020-08-12T09:46:27Z</time>
      </trkpt>
      <trkpt lat="48.63836" lon="7.18332">
        <ele>510.9</ele>
        <time>2020-08-12T09:46:29Z</time>
      </trkpt>
      <trkpt lat="48.63845" lon="7.18332">
        <ele>510.7</ele>
        <time>2020-08-12T09:46:31Z</time>
      </trkpt>
      <trkpt lat="48.63856" lon="7.18334">
        <ele>510.1</ele>
        <time>2020-08-12T09:46:33Z</time>
      </trkpt>
      <trkpt lat="48.63867" lon="7.18336">
        <ele>509.1</ele>
        <time>2020-08-12T09:46:35Z</time>
      </trkpt>
      <trkpt lat="48.63877" lon="7.18338">
        <ele>508.9</ele>
        <time>2020-08-12T09:46:37Z</time>
      </trkpt>
      <trkpt lat="48.63889" lon="7.18342">
        <ele>508.2</ele>
        <time>2020-08-12T09:46:39Z</time>
      </trkpt>
      <trkpt lat="48.639" lon="7.18344">
        <ele>507.5</ele>
        <time>2020-08-12T09:46:41Z</time>
      </trkpt>
      <trkpt lat="48.63909" lon="7.18346">
        <ele>507</ele>
        <time>2020-08-12T09:46:43Z</time>
      </trkpt>
      <trkpt lat="48.63914" lon="7.18347">
        <ele>506.7</ele>
        <time>2020-08-12T09:46:46Z</time>
      </trkpt>
      <trkpt lat="48.63917" lon="7.18354">
        <ele>505.4</ele>
        <time>2020-08-12T09:46:52Z</time>
      </trkpt>
      <trkpt lat="48.63914" lon="7.18364">
        <ele>505.6</ele>
        <time>2020-08-12T09:46:55Z</time>
      </trkpt>
      <trkpt lat="48.6391" lon="7.18372">
        <ele>505.6</ele>
        <time>2020-08-12T09:46:57Z</time>
      </trkpt>
      <trkpt lat="48.63905" lon="7.1838">
        <ele>505.5</ele>
        <time>2020-08-12T09:46:59Z</time>
      </trkpt>
      <trkpt lat="48.639" lon="7.18388">
        <ele>505.8</ele>
        <time>2020-08-12T09:47:01Z</time>
      </trkpt>
      <trkpt lat="48.63896" lon="7.18395">
        <ele>506.1</ele>
        <time>2020-08-12T09:47:03Z</time>
      </trkpt>
      <trkpt lat="48.63894" lon="7.18403">
        <ele>505.5</ele>
        <time>2020-08-12T09:47:05Z</time>
      </trkpt>
      <trkpt lat="48.63897" lon="7.18408">
        <ele>507.8</ele>
        <time>2020-08-12T09:47:16Z</time>
      </trkpt>
      <trkpt lat="48.639" lon="7.18415">
        <ele>508.2</ele>
        <time>2020-08-12T09:47:20Z</time>
      </trkpt>
      <trkpt lat="48.63904" lon="7.18424">
        <ele>508</ele>
        <time>2020-08-12T09:47:22Z</time>
      </trkpt>
      <trkpt lat="48.63908" lon="7.18433">
        <ele>507.7</ele>
        <time>2020-08-12T09:47:24Z</time>
      </trkpt>
      <trkpt lat="48.63913" lon="7.18443">
        <ele>506.9</ele>
        <time>2020-08-12T09:47:27Z</time>
      </trkpt>
      <trkpt lat="48.63917" lon="7.18448">
        <ele>505.9</ele>
        <time>2020-08-12T09:47:33Z</time>
      </trkpt>
      <trkpt lat="48.63921" lon="7.18456">
        <ele>503.1</ele>
        <time>2020-08-12T09:47:38Z</time>
      </trkpt>
      <trkpt lat="48.6393" lon="7.18462">
        <ele>501.6</ele>
        <time>2020-08-12T09:47:40Z</time>
      </trkpt>
      <trkpt lat="48.6394" lon="7.18468">
        <ele>501.2</ele>
        <time>2020-08-12T09:47:42Z</time>
      </trkpt>
      <trkpt lat="48.6395" lon="7.18477">
        <ele>500.9</ele>
        <time>2020-08-12T09:47:44Z</time>
      </trkpt>
      <trkpt lat="48.63965" lon="7.18489">
        <ele>500.5</ele>
        <time>2020-08-12T09:47:47Z</time>
      </trkpt>
      <trkpt lat="48.63974" lon="7.18497">
        <ele>500.5</ele>
        <time>2020-08-12T09:47:49Z</time>
      </trkpt>
      <trkpt lat="48.63983" lon="7.18504">
        <ele>500.6</ele>
        <time>2020-08-12T09:47:51Z</time>
      </trkpt>
      <trkpt lat="48.63992" lon="7.18509">
        <ele>500.4</ele>
        <time>2020-08-12T09:47:53Z</time>
      </trkpt>
      <trkpt lat="48.64" lon="7.18515">
        <ele>500.2</ele>
        <time>2020-08-12T09:47:55Z</time>
      </trkpt>
      <trkpt lat="48.64008" lon="7.1852">
        <ele>500</ele>
        <time>2020-08-12T09:47:57Z</time>
      </trkpt>
      <trkpt lat="48.64018" lon="7.18527">
        <ele>501.2</ele>
        <time>2020-08-12T09:48:00Z</time>
      </trkpt>
      <trkpt lat="48.64026" lon="7.18536">
        <ele>498</ele>
        <time>2020-08-12T09:48:02Z</time>
      </trkpt>
      <trkpt lat="48.64034" lon="7.18543">
        <ele>498.8</ele>
        <time>2020-08-12T09:48:04Z</time>
      </trkpt>
      <trkpt lat="48.64041" lon="7.18547">
        <ele>498.8</ele>
        <time>2020-08-12T09:48:06Z</time>
      </trkpt>
      <trkpt lat="48.64048" lon="7.18552">
        <ele>499.8</ele>
        <time>2020-08-12T09:48:08Z</time>
      </trkpt>
      <trkpt lat="48.6406" lon="7.18558">
        <ele>500.4</ele>
        <time>2020-08-12T09:48:11Z</time>
      </trkpt>
      <trkpt lat="48.64068" lon="7.18559">
        <ele>501.5</ele>
        <time>2020-08-12T09:48:13Z</time>
      </trkpt>
      <trkpt lat="48.64074" lon="7.1856">
        <ele>502</ele>
        <time>2020-08-12T09:48:15Z</time>
      </trkpt>
      <trkpt lat="48.64082" lon="7.1856">
        <ele>502.2</ele>
        <time>2020-08-12T09:48:17Z</time>
      </trkpt>
      <trkpt lat="48.6409" lon="7.18559">
        <ele>502.5</ele>
        <time>2020-08-12T09:48:19Z</time>
      </trkpt>
      <trkpt lat="48.64099" lon="7.18556">
        <ele>503.1</ele>
        <time>2020-08-12T09:48:21Z</time>
      </trkpt>
      <trkpt lat="48.64107" lon="7.18553">
        <ele>502.8</ele>
        <time>2020-08-12T09:48:23Z</time>
      </trkpt>
      <trkpt lat="48.64114" lon="7.1855">
        <ele>503.4</ele>
        <time>2020-08-12T09:48:25Z</time>
      </trkpt>
      <trkpt lat="48.6412" lon="7.18547">
        <ele>503.8</ele>
        <time>2020-08-12T09:48:27Z</time>
      </trkpt>
      <trkpt lat="48.64127" lon="7.18544">
        <ele>504.7</ele>
        <time>2020-08-12T09:48:29Z</time>
      </trkpt>
      <trkpt lat="48.64132" lon="7.18542">
        <ele>505.6</ele>
        <time>2020-08-12T09:48:31Z</time>
      </trkpt>
      <trkpt lat="48.64137" lon="7.1854">
        <ele>480.8</ele>
        <time>2020-08-12T09:48:35Z</time>
      </trkpt>
      <trkpt lat="48.64141" lon="7.18538">
        <ele>503.1</ele>
        <time>2020-08-12T09:48:50Z</time>
      </trkpt>
      <trkpt lat="48.64147" lon="7.18537">
        <ele>507.4</ele>
        <time>2020-08-12T09:48:57Z</time>
      </trkpt>
      <trkpt lat="48.64153" lon="7.18534">
        <ele>507.9</ele>
        <time>2020-08-12T09:49:00Z</time>
      </trkpt>
      <trkpt lat="48.64159" lon="7.18531">
        <ele>508.2</ele>
        <time>2020-08-12T09:49:02Z</time>
      </trkpt>
      <trkpt lat="48.64167" lon="7.18528">
        <ele>508.7</ele>
        <time>2020-08-12T09:49:04Z</time>
      </trkpt>
      <trkpt lat="48.64175" lon="7.18526">
        <ele>508.3</ele>
        <time>2020-08-12T09:49:06Z</time>
      </trkpt>
      <trkpt lat="48.64189" lon="7.18522">
        <ele>508.6</ele>
        <time>2020-08-12T09:49:08Z</time>
      </trkpt>
      <trkpt lat="48.64199" lon="7.18518">
        <ele>510.3</ele>
        <time>2020-08-12T09:49:10Z</time>
      </trkpt>
      <trkpt lat="48.64209" lon="7.18518">
        <ele>511.1</ele>
        <time>2020-08-12T09:49:12Z</time>
      </trkpt>
      <trkpt lat="48.6422" lon="7.18526">
        <ele>511.7</ele>
        <time>2020-08-12T09:49:14Z</time>
      </trkpt>
      <trkpt lat="48.64232" lon="7.18535">
        <ele>512.2</ele>
        <time>2020-08-12T09:49:16Z</time>
      </trkpt>
      <trkpt lat="48.64244" lon="7.18547">
        <ele>512.4</ele>
        <time>2020-08-12T09:49:18Z</time>
      </trkpt>
      <trkpt lat="48.64253" lon="7.18558">
        <ele>512.2</ele>
        <time>2020-08-12T09:49:20Z</time>
      </trkpt>
      <trkpt lat="48.64263" lon="7.18572">
        <ele>511.5</ele>
        <time>2020-08-12T09:49:22Z</time>
      </trkpt>
      <trkpt lat="48.6427" lon="7.18588">
        <ele>511.3</ele>
        <time>2020-08-12T09:49:24Z</time>
      </trkpt>
      <trkpt lat="48.64277" lon="7.18607">
        <ele>510.3</ele>
        <time>2020-08-12T09:49:26Z</time>
      </trkpt>
      <trkpt lat="48.64285" lon="7.18626">
        <ele>509.5</ele>
        <time>2020-08-12T09:49:28Z</time>
      </trkpt>
      <trkpt lat="48.64291" lon="7.18644">
        <ele>509</ele>
        <time>2020-08-12T09:49:30Z</time>
      </trkpt>
      <trkpt lat="48.64298" lon="7.1866">
        <ele>507.5</ele>
        <time>2020-08-12T09:49:32Z</time>
      </trkpt>
      <trkpt lat="48.64305" lon="7.18676">
        <ele>506.4</ele>
        <time>2020-08-12T09:49:34Z</time>
      </trkpt>
      <trkpt lat="48.64311" lon="7.1869">
        <ele>505.9</ele>
        <time>2020-08-12T09:49:36Z</time>
      </trkpt>
      <trkpt lat="48.64319" lon="7.18704">
        <ele>504.4</ele>
        <time>2020-08-12T09:49:38Z</time>
      </trkpt>
      <trkpt lat="48.64326" lon="7.18716">
        <ele>503.2</ele>
        <time>2020-08-12T09:49:40Z</time>
      </trkpt>
      <trkpt lat="48.64332" lon="7.18726">
        <ele>502.4</ele>
        <time>2020-08-12T09:49:42Z</time>
      </trkpt>
      <trkpt lat="48.64337" lon="7.18736">
        <ele>502</ele>
        <time>2020-08-12T09:49:44Z</time>
      </trkpt>
      <trkpt lat="48.64343" lon="7.18745">
        <ele>500.8</ele>
        <time>2020-08-12T09:49:46Z</time>
      </trkpt>
      <trkpt lat="48.64349" lon="7.18755">
        <ele>500.5</ele>
        <time>2020-08-12T09:49:48Z</time>
      </trkpt>
      <trkpt lat="48.64354" lon="7.18768">
        <ele>500.2</ele>
        <time>2020-08-12T09:49:50Z</time>
      </trkpt>
      <trkpt lat="48.6436" lon="7.18778">
        <ele>499.8</ele>
        <time>2020-08-12T09:49:52Z</time>
      </trkpt>
      <trkpt lat="48.64366" lon="7.18789">
        <ele>499.7</ele>
        <time>2020-08-12T09:49:54Z</time>
      </trkpt>
      <trkpt lat="48.64372" lon="7.18796">
        <ele>499.6</ele>
        <time>2020-08-12T09:49:56Z</time>
      </trkpt>
      <trkpt lat="48.64378" lon="7.18802">
        <ele>499.7</ele>
        <time>2020-08-12T09:49:58Z</time>
      </trkpt>
      <trkpt lat="48.64384" lon="7.18807">
        <ele>499.9</ele>
        <time>2020-08-12T09:50:00Z</time>
      </trkpt>
      <trkpt lat="48.64392" lon="7.18814">
        <ele>500.2</ele>
        <time>2020-08-12T09:50:02Z</time>
      </trkpt>
      <trkpt lat="48.64398" lon="7.18824">
        <ele>500.1</ele>
        <time>2020-08-12T09:50:04Z</time>
      </trkpt>
      <trkpt lat="48.64405" lon="7.18834">
        <ele>500.2</ele>
        <time>2020-08-12T09:50:06Z</time>
      </trkpt>
      <trkpt lat="48.64411" lon="7.18844">
        <ele>499.9</ele>
        <time>2020-08-12T09:50:08Z</time>
      </trkpt>
      <trkpt lat="48.64416" lon="7.18855">
        <ele>499.1</ele>
        <time>2020-08-12T09:50:10Z</time>
      </trkpt>
      <trkpt lat="48.64419" lon="7.18865">
        <ele>498</ele>
        <time>2020-08-12T09:50:12Z</time>
      </trkpt>
      <trkpt lat="48.64419" lon="7.18873">
        <ele>497.3</ele>
        <time>2020-08-12T09:50:14Z</time>
      </trkpt>
      <trkpt lat="48.64419" lon="7.1888">
        <ele>496.3</ele>
        <time>2020-08-12T09:50:26Z</time>
      </trkpt>
      <trkpt lat="48.64423" lon="7.18884">
        <ele>500</ele>
        <time>2020-08-12T09:50:38Z</time>
      </trkpt>
      <trkpt lat="48.64429" lon="7.1889">
        <ele>500.5</ele>
        <time>2020-08-12T09:50:41Z</time>
      </trkpt>
      <trkpt lat="48.64434" lon="7.18892">
        <ele>501.1</ele>
        <time>2020-08-12T09:50:43Z</time>
      </trkpt>
      <trkpt lat="48.64439" lon="7.18891">
        <ele>501.4</ele>
        <time>2020-08-12T09:50:46Z</time>
      </trkpt>
      <trkpt lat="48.64436" lon="7.18896">
        <ele>503</ele>
        <time>2020-08-12T09:51:01Z</time>
      </trkpt>
      <trkpt lat="48.64431" lon="7.18895">
        <ele>504.5</ele>
        <time>2020-08-12T09:51:08Z</time>
      </trkpt>
      <trkpt lat="48.64427" lon="7.18892">
        <ele>505.4</ele>
        <time>2020-08-12T09:51:12Z</time>
      </trkpt>
      <trkpt lat="48.64424" lon="7.18885">
        <ele>505</ele>
        <time>2020-08-12T09:51:16Z</time>
      </trkpt>
      <trkpt lat="48.64422" lon="7.18879">
        <ele>504.3</ele>
        <time>2020-08-12T09:51:21Z</time>
      </trkpt>
      <trkpt lat="48.6442" lon="7.18871">
        <ele>503.5</ele>
        <time>2020-08-12T09:51:25Z</time>
      </trkpt>
      <trkpt lat="48.64416" lon="7.18863">
        <ele>503.8</ele>
        <time>2020-08-12T09:51:28Z</time>
      </trkpt>
      <trkpt lat="48.64411" lon="7.18856">
        <ele>504</ele>
        <time>2020-08-12T09:51:31Z</time>
      </trkpt>
      <trkpt lat="48.64408" lon="7.18851">
        <ele>503.9</ele>
        <time>2020-08-12T09:51:33Z</time>
      </trkpt>
      <trkpt lat="48.64404" lon="7.18844">
        <ele>503.2</ele>
        <time>2020-08-12T09:51:35Z</time>
      </trkpt>
      <trkpt lat="48.64402" lon="7.18835">
        <ele>502.8</ele>
        <time>2020-08-12T09:51:37Z</time>
      </trkpt>
      <trkpt lat="48.64397" lon="7.18827">
        <ele>503</ele>
        <time>2020-08-12T09:51:39Z</time>
      </trkpt>
      <trkpt lat="48.64392" lon="7.18819">
        <ele>503.5</ele>
        <time>2020-08-12T09:51:41Z</time>
      </trkpt>
      <trkpt lat="48.64389" lon="7.18815">
        <ele>503.4</ele>
        <time>2020-08-12T09:51:43Z</time>
      </trkpt>
      <trkpt lat="48.64384" lon="7.18813">
        <ele>504.5</ele>
        <time>2020-08-12T09:51:56Z</time>
      </trkpt>
      <trkpt lat="48.6438" lon="7.18807">
        <ele>504</ele>
        <time>2020-08-12T09:51:59Z</time>
      </trkpt>
      <trkpt lat="48.64376" lon="7.188">
        <ele>503.8</ele>
        <time>2020-08-12T09:52:01Z</time>
      </trkpt>
      <trkpt lat="48.6437" lon="7.18792">
        <ele>502.9</ele>
        <time>2020-08-12T09:52:03Z</time>
      </trkpt>
      <trkpt lat="48.64365" lon="7.18782">
        <ele>502.1</ele>
        <time>2020-08-12T09:52:05Z</time>
      </trkpt>
      <trkpt lat="48.64359" lon="7.18771">
        <ele>501.7</ele>
        <time>2020-08-12T09:52:07Z</time>
      </trkpt>
      <trkpt lat="48.64354" lon="7.18761">
        <ele>501.4</ele>
        <time>2020-08-12T09:52:09Z</time>
      </trkpt>
      <trkpt lat="48.64349" lon="7.18747">
        <ele>500.9</ele>
        <time>2020-08-12T09:52:11Z</time>
      </trkpt>
      <trkpt lat="48.64342" lon="7.18736">
        <ele>501.3</ele>
        <time>2020-08-12T09:52:13Z</time>
      </trkpt>
      <trkpt lat="48.64334" lon="7.18726">
        <ele>501.2</ele>
        <time>2020-08-12T09:52:15Z</time>
      </trkpt>
      <trkpt lat="48.64328" lon="7.18714">
        <ele>500.9</ele>
        <time>2020-08-12T09:52:17Z</time>
      </trkpt>
      <trkpt lat="48.64321" lon="7.18703">
        <ele>501.1</ele>
        <time>2020-08-12T09:52:19Z</time>
      </trkpt>
      <trkpt lat="48.64314" lon="7.18688">
        <ele>500.8</ele>
        <time>2020-08-12T09:52:21Z</time>
      </trkpt>
      <trkpt lat="48.64307" lon="7.18675">
        <ele>501</ele>
        <time>2020-08-12T09:52:23Z</time>
      </trkpt>
      <trkpt lat="48.64301" lon="7.1866">
        <ele>500.7</ele>
        <time>2020-08-12T09:52:25Z</time>
      </trkpt>
      <trkpt lat="48.64297" lon="7.18648">
        <ele>501.2</ele>
        <time>2020-08-12T09:52:27Z</time>
      </trkpt>
      <trkpt lat="48.64294" lon="7.18634">
        <ele>502.1</ele>
        <time>2020-08-12T09:52:29Z</time>
      </trkpt>
      <trkpt lat="48.64289" lon="7.1862">
        <ele>502.1</ele>
        <time>2020-08-12T09:52:31Z</time>
      </trkpt>
      <trkpt lat="48.64284" lon="7.18608">
        <ele>502.9</ele>
        <time>2020-08-12T09:52:33Z</time>
      </trkpt>
      <trkpt lat="48.64279" lon="7.18595">
        <ele>486</ele>
        <time>2020-08-12T09:52:35Z</time>
      </trkpt>
      <trkpt lat="48.64274" lon="7.18582">
        <ele>484.5</ele>
        <time>2020-08-12T09:52:37Z</time>
      </trkpt>
      <trkpt lat="48.64267" lon="7.1857">
        <ele>485</ele>
        <time>2020-08-12T09:52:39Z</time>
      </trkpt>
      <trkpt lat="48.64259" lon="7.18557">
        <ele>488</ele>
        <time>2020-08-12T09:52:41Z</time>
      </trkpt>
      <trkpt lat="48.64249" lon="7.18546">
        <ele>491.2</ele>
        <time>2020-08-12T09:52:43Z</time>
      </trkpt>
      <trkpt lat="48.64239" lon="7.18537">
        <ele>495</ele>
        <time>2020-08-12T09:52:45Z</time>
      </trkpt>
      <trkpt lat="48.64231" lon="7.18528">
        <ele>497.9</ele>
        <time>2020-08-12T09:52:47Z</time>
      </trkpt>
      <trkpt lat="48.64215" lon="7.18521">
        <ele>501.2</ele>
        <time>2020-08-12T09:52:50Z</time>
      </trkpt>
      <trkpt lat="48.64203" lon="7.18524">
        <ele>503.4</ele>
        <time>2020-08-12T09:52:52Z</time>
      </trkpt>
      <trkpt lat="48.6419" lon="7.18527">
        <ele>504.6</ele>
        <time>2020-08-12T09:52:54Z</time>
      </trkpt>
      <trkpt lat="48.64172" lon="7.18532">
        <ele>506.6</ele>
        <time>2020-08-12T09:52:57Z</time>
      </trkpt>
      <trkpt lat="48.64162" lon="7.18535">
        <ele>507.7</ele>
        <time>2020-08-12T09:52:59Z</time>
      </trkpt>
      <trkpt lat="48.64152" lon="7.18538">
        <ele>508.8</ele>
        <time>2020-08-12T09:53:01Z</time>
      </trkpt>
      <trkpt lat="48.64148" lon="7.1854">
        <ele>510.3</ele>
        <time>2020-08-12T09:53:05Z</time>
      </trkpt>
      <trkpt lat="48.64145" lon="7.18546">
        <ele>515.2</ele>
        <time>2020-08-12T09:53:25Z</time>
      </trkpt>
      <trkpt lat="48.64139" lon="7.18547">
        <ele>514.7</ele>
        <time>2020-08-12T09:53:28Z</time>
      </trkpt>
      <trkpt lat="48.64129" lon="7.18551">
        <ele>514</ele>
        <time>2020-08-12T09:53:31Z</time>
      </trkpt>
      <trkpt lat="48.64123" lon="7.18555">
        <ele>513</ele>
        <time>2020-08-12T09:53:33Z</time>
      </trkpt>
      <trkpt lat="48.64114" lon="7.18558">
        <ele>512</ele>
        <time>2020-08-12T09:53:35Z</time>
      </trkpt>
      <trkpt lat="48.64105" lon="7.1856">
        <ele>510.7</ele>
        <time>2020-08-12T09:53:37Z</time>
      </trkpt>
      <trkpt lat="48.64095" lon="7.18563">
        <ele>510</ele>
        <time>2020-08-12T09:53:39Z</time>
      </trkpt>
      <trkpt lat="48.64084" lon="7.18563">
        <ele>509</ele>
        <time>2020-08-12T09:53:41Z</time>
      </trkpt>
      <trkpt lat="48.64071" lon="7.1856">
        <ele>507.7</ele>
        <time>2020-08-12T09:53:43Z</time>
      </trkpt>
      <trkpt lat="48.64058" lon="7.18556">
        <ele>507.4</ele>
        <time>2020-08-12T09:53:45Z</time>
      </trkpt>
      <trkpt lat="48.64045" lon="7.1855">
        <ele>506.4</ele>
        <time>2020-08-12T09:53:47Z</time>
      </trkpt>
      <trkpt lat="48.64035" lon="7.18544">
        <ele>505.7</ele>
        <time>2020-08-12T09:53:49Z</time>
      </trkpt>
      <trkpt lat="48.64025" lon="7.18536">
        <ele>505.8</ele>
        <time>2020-08-12T09:53:51Z</time>
      </trkpt>
      <trkpt lat="48.64016" lon="7.1853">
        <ele>505.8</ele>
        <time>2020-08-12T09:53:53Z</time>
      </trkpt>
      <trkpt lat="48.64005" lon="7.18524">
        <ele>506.3</ele>
        <time>2020-08-12T09:53:55Z</time>
      </trkpt>
      <trkpt lat="48.63994" lon="7.18519">
        <ele>506.3</ele>
        <time>2020-08-12T09:53:57Z</time>
      </trkpt>
      <trkpt lat="48.63984" lon="7.18514">
        <ele>505.6</ele>
        <time>2020-08-12T09:53:59Z</time>
      </trkpt>
      <trkpt lat="48.63973" lon="7.18503">
        <ele>504.5</ele>
        <time>2020-08-12T09:54:01Z</time>
      </trkpt>
      <trkpt lat="48.63963" lon="7.18498">
        <ele>503.5</ele>
        <time>2020-08-12T09:54:03Z</time>
      </trkpt>
      <trkpt lat="48.63951" lon="7.18488">
        <ele>503.3</ele>
        <time>2020-08-12T09:54:05Z</time>
      </trkpt>
      <trkpt lat="48.6394" lon="7.18477">
        <ele>503.2</ele>
        <time>2020-08-12T09:54:07Z</time>
      </trkpt>
      <trkpt lat="48.6393" lon="7.18464">
        <ele>503</ele>
        <time>2020-08-12T09:54:09Z</time>
      </trkpt>
      <trkpt lat="48.6392" lon="7.18452">
        <ele>502.6</ele>
        <time>2020-08-12T09:54:11Z</time>
      </trkpt>
      <trkpt lat="48.63911" lon="7.18439">
        <ele>502.6</ele>
        <time>2020-08-12T09:54:13Z</time>
      </trkpt>
      <trkpt lat="48.63905" lon="7.18427">
        <ele>502.4</ele>
        <time>2020-08-12T09:54:15Z</time>
      </trkpt>
      <trkpt lat="48.63901" lon="7.18414">
        <ele>501.7</ele>
        <time>2020-08-12T09:54:17Z</time>
      </trkpt>
      <trkpt lat="48.63896" lon="7.18407">
        <ele>501.8</ele>
        <time>2020-08-12T09:54:19Z</time>
      </trkpt>
      <trkpt lat="48.6389" lon="7.18407">
        <ele>501.2</ele>
        <time>2020-08-12T09:54:21Z</time>
      </trkpt>
      <trkpt lat="48.63884" lon="7.18412">
        <ele>500.4</ele>
        <time>2020-08-12T09:54:23Z</time>
      </trkpt>
      <trkpt lat="48.63879" lon="7.18417">
        <ele>499.6</ele>
        <time>2020-08-12T09:54:25Z</time>
      </trkpt>
      <trkpt lat="48.63874" lon="7.18423">
        <ele>499.4</ele>
        <time>2020-08-12T09:54:27Z</time>
      </trkpt>
      <trkpt lat="48.63871" lon="7.18428">
        <ele>499.4</ele>
        <time>2020-08-12T09:54:31Z</time>
      </trkpt>
      <trkpt lat="48.63873" lon="7.18421">
        <ele>498.8</ele>
        <time>2020-08-12T09:54:56Z</time>
      </trkpt>
      <trkpt lat="48.63876" lon="7.18415">
        <ele>499.2</ele>
        <time>2020-08-12T09:54:59Z</time>
      </trkpt>
      <trkpt lat="48.63881" lon="7.18408">
        <ele>500.4</ele>
        <time>2020-08-12T09:55:02Z</time>
      </trkpt>
      <trkpt lat="48.63884" lon="7.18403">
        <ele>498</ele>
        <time>2020-08-12T09:55:04Z</time>
      </trkpt>
      <trkpt lat="48.63888" lon="7.18398">
        <ele>499.8</ele>
        <time>2020-08-12T09:55:06Z</time>
      </trkpt>
      <trkpt lat="48.63894" lon="7.18391">
        <ele>500</ele>
        <time>2020-08-12T09:55:08Z</time>
      </trkpt>
      <trkpt lat="48.639" lon="7.18383">
        <ele>501.4</ele>
        <time>2020-08-12T09:55:10Z</time>
      </trkpt>
      <trkpt lat="48.63907" lon="7.18374">
        <ele>502.2</ele>
        <time>2020-08-12T09:55:12Z</time>
      </trkpt>
      <trkpt lat="48.63912" lon="7.18363">
        <ele>502.1</ele>
        <time>2020-08-12T09:55:14Z</time>
      </trkpt>
      <trkpt lat="48.63918" lon="7.18352">
        <ele>502.3</ele>
        <time>2020-08-12T09:55:16Z</time>
      </trkpt>
      <trkpt lat="48.63923" lon="7.18343">
        <ele>502.5</ele>
        <time>2020-08-12T09:55:18Z</time>
      </trkpt>
      <trkpt lat="48.63927" lon="7.18337">
        <ele>502.8</ele>
        <time>2020-08-12T09:55:20Z</time>
      </trkpt>
      <trkpt lat="48.63932" lon="7.1833">
        <ele>503.7</ele>
        <time>2020-08-12T09:55:22Z</time>
      </trkpt>
      <trkpt lat="48.63938" lon="7.18327">
        <ele>504.5</ele>
        <time>2020-08-12T09:55:24Z</time>
      </trkpt>
      <trkpt lat="48.63942" lon="7.18323">
        <ele>505.2</ele>
        <time>2020-08-12T09:55:31Z</time>
      </trkpt>
      <trkpt lat="48.63936" lon="7.18325">
        <ele>506.3</ele>
        <time>2020-08-12T09:55:53Z</time>
      </trkpt>
      <trkpt lat="48.63931" lon="7.18331">
        <ele>505</ele>
        <time>2020-08-12T09:55:56Z</time>
      </trkpt>
      <trkpt lat="48.63929" lon="7.18339">
        <ele>505</ele>
        <time>2020-08-12T09:55:59Z</time>
      </trkpt>
      <trkpt lat="48.6393" lon="7.18346">
        <ele>505.4</ele>
        <time>2020-08-12T09:56:02Z</time>
      </trkpt>
      <trkpt lat="48.63935" lon="7.18351">
        <ele>505.6</ele>
        <time>2020-08-12T09:56:05Z</time>
      </trkpt>
      <trkpt lat="48.63939" lon="7.18353">
        <ele>504.2</ele>
        <time>2020-08-12T09:56:18Z</time>
      </trkpt>
      <trkpt lat="48.63941" lon="7.1836">
        <ele>503.6</ele>
        <time>2020-08-12T09:56:27Z</time>
      </trkpt>
      <trkpt lat="48.63936" lon="7.18356">
        <ele>509.2</ele>
        <time>2020-08-12T09:56:55Z</time>
      </trkpt>
      <trkpt lat="48.6393" lon="7.18349">
        <ele>509.1</ele>
        <time>2020-08-12T09:56:58Z</time>
      </trkpt>
      <trkpt lat="48.63924" lon="7.18346">
        <ele>508.2</ele>
        <time>2020-08-12T09:57:00Z</time>
      </trkpt>
      <trkpt lat="48.63919" lon="7.18349">
        <ele>508.1</ele>
        <time>2020-08-12T09:57:02Z</time>
      </trkpt>
      <trkpt lat="48.63913" lon="7.18362">
        <ele>507.8</ele>
        <time>2020-08-12T09:57:05Z</time>
      </trkpt>
      <trkpt lat="48.63909" lon="7.18371">
        <ele>507.6</ele>
        <time>2020-08-12T09:57:07Z</time>
      </trkpt>
      <trkpt lat="48.63904" lon="7.1838">
        <ele>506.9</ele>
        <time>2020-08-12T09:57:09Z</time>
      </trkpt>
      <trkpt lat="48.63899" lon="7.18389">
        <ele>506.5</ele>
        <time>2020-08-12T09:57:11Z</time>
      </trkpt>
      <trkpt lat="48.63897" lon="7.18398">
        <ele>505.5</ele>
        <time>2020-08-12T09:57:13Z</time>
      </trkpt>
      <trkpt lat="48.63898" lon="7.18406">
        <ele>504.8</ele>
        <time>2020-08-12T09:57:15Z</time>
      </trkpt>
      <trkpt lat="48.639" lon="7.18414">
        <ele>503.5</ele>
        <time>2020-08-12T09:57:18Z</time>
      </trkpt>
      <trkpt lat="48.63901" lon="7.18422">
        <ele>499.6</ele>
        <time>2020-08-12T09:57:29Z</time>
      </trkpt>
      <trkpt lat="48.63903" lon="7.18429">
        <ele>499.1</ele>
        <time>2020-08-12T09:57:31Z</time>
      </trkpt>
      <trkpt lat="48.63906" lon="7.18436">
        <ele>498.7</ele>
        <time>2020-08-12T09:57:33Z</time>
      </trkpt>
      <trkpt lat="48.63911" lon="7.18441">
        <ele>498.2</ele>
        <time>2020-08-12T09:57:39Z</time>
      </trkpt>
      <trkpt lat="48.63914" lon="7.18449">
        <ele>498</ele>
        <time>2020-08-12T09:57:43Z</time>
      </trkpt>
      <trkpt lat="48.63917" lon="7.18456">
        <ele>497.7</ele>
        <time>2020-08-12T09:57:45Z</time>
      </trkpt>
      <trkpt lat="48.63922" lon="7.18462">
        <ele>497.5</ele>
        <time>2020-08-12T09:57:47Z</time>
      </trkpt>
      <trkpt lat="48.63928" lon="7.18468">
        <ele>498</ele>
        <time>2020-08-12T09:57:49Z</time>
      </trkpt>
      <trkpt lat="48.63934" lon="7.18472">
        <ele>498.5</ele>
        <time>2020-08-12T09:57:51Z</time>
      </trkpt>
      <trkpt lat="48.63939" lon="7.18475">
        <ele>499.5</ele>
        <time>2020-08-12T09:57:54Z</time>
      </trkpt>
      <trkpt lat="48.63943" lon="7.1848">
        <ele>502.5</ele>
        <time>2020-08-12T09:58:05Z</time>
      </trkpt>
      <trkpt lat="48.63949" lon="7.18481">
        <ele>505.5</ele>
        <time>2020-08-12T09:58:24Z</time>
      </trkpt>
      <trkpt lat="48.63957" lon="7.18487">
        <ele>505.5</ele>
        <time>2020-08-12T09:58:26Z</time>
      </trkpt>
      <trkpt lat="48.63965" lon="7.18493">
        <ele>505.4</ele>
        <time>2020-08-12T09:58:28Z</time>
      </trkpt>
      <trkpt lat="48.63972" lon="7.18502">
        <ele>505</ele>
        <time>2020-08-12T09:58:30Z</time>
      </trkpt>
      <trkpt lat="48.63984" lon="7.1851">
        <ele>505.8</ele>
        <time>2020-08-12T09:58:33Z</time>
      </trkpt>
      <trkpt lat="48.63992" lon="7.18514">
        <ele>505.9</ele>
        <time>2020-08-12T09:58:35Z</time>
      </trkpt>
      <trkpt lat="48.63999" lon="7.1852">
        <ele>505.4</ele>
        <time>2020-08-12T09:58:37Z</time>
      </trkpt>
      <trkpt lat="48.64005" lon="7.18523">
        <ele>505.6</ele>
        <time>2020-08-12T09:58:39Z</time>
      </trkpt>
      <trkpt lat="48.64015" lon="7.18531">
        <ele>506.1</ele>
        <time>2020-08-12T09:58:42Z</time>
      </trkpt>
      <trkpt lat="48.64022" lon="7.18538">
        <ele>506.4</ele>
        <time>2020-08-12T09:58:44Z</time>
      </trkpt>
      <trkpt lat="48.64031" lon="7.18545">
        <ele>505.7</ele>
        <time>2020-08-12T09:58:46Z</time>
      </trkpt>
      <trkpt lat="48.64044" lon="7.18552">
        <ele>505.9</ele>
        <time>2020-08-12T09:58:49Z</time>
      </trkpt>
      <trkpt lat="48.64055" lon="7.18555">
        <ele>506.2</ele>
        <time>2020-08-12T09:58:51Z</time>
      </trkpt>
      <trkpt lat="48.64065" lon="7.18559">
        <ele>507.8</ele>
        <time>2020-08-12T09:58:53Z</time>
      </trkpt>
      <trkpt lat="48.64076" lon="7.18562">
        <ele>508.6</ele>
        <time>2020-08-12T09:58:55Z</time>
      </trkpt>
      <trkpt lat="48.64086" lon="7.18562">
        <ele>509.6</ele>
        <time>2020-08-12T09:58:57Z</time>
      </trkpt>
      <trkpt lat="48.64096" lon="7.18558">
        <ele>510.7</ele>
        <time>2020-08-12T09:58:59Z</time>
      </trkpt>
      <trkpt lat="48.64105" lon="7.18554">
        <ele>512.3</ele>
        <time>2020-08-12T09:59:01Z</time>
      </trkpt>
      <trkpt lat="48.64113" lon="7.1855">
        <ele>513.6</ele>
        <time>2020-08-12T09:59:03Z</time>
      </trkpt>
      <trkpt lat="48.64122" lon="7.18546">
        <ele>514.4</ele>
        <time>2020-08-12T09:59:05Z</time>
      </trkpt>
      <trkpt lat="48.6413" lon="7.18542">
        <ele>514.8</ele>
        <time>2020-08-12T09:59:07Z</time>
      </trkpt>
      <trkpt lat="48.64135" lon="7.1854">
        <ele>493.1</ele>
        <time>2020-08-12T09:59:09Z</time>
      </trkpt>
      <trkpt lat="48.6414" lon="7.18539">
        <ele>493.9</ele>
        <time>2020-08-12T09:59:14Z</time>
      </trkpt>
      <trkpt lat="48.64144" lon="7.18538">
        <ele>504.4</ele>
        <time>2020-08-12T09:59:22Z</time>
      </trkpt>
      <trkpt lat="48.6415" lon="7.18536">
        <ele>505.5</ele>
        <time>2020-08-12T09:59:26Z</time>
      </trkpt>
      <trkpt lat="48.64156" lon="7.18534">
        <ele>506.5</ele>
        <time>2020-08-12T09:59:29Z</time>
      </trkpt>
      <trkpt lat="48.64163" lon="7.18532">
        <ele>507.9</ele>
        <time>2020-08-12T09:59:31Z</time>
      </trkpt>
      <trkpt lat="48.64171" lon="7.1853">
        <ele>508.5</ele>
        <time>2020-08-12T09:59:33Z</time>
      </trkpt>
      <trkpt lat="48.64183" lon="7.18526">
        <ele>509.9</ele>
        <time>2020-08-12T09:59:35Z</time>
      </trkpt>
      <trkpt lat="48.64196" lon="7.18524">
        <ele>510.5</ele>
        <time>2020-08-12T09:59:37Z</time>
      </trkpt>
      <trkpt lat="48.64208" lon="7.18525">
        <ele>511.6</ele>
        <time>2020-08-12T09:59:39Z</time>
      </trkpt>
      <trkpt lat="48.6422" lon="7.1853">
        <ele>512.5</ele>
        <time>2020-08-12T09:59:41Z</time>
      </trkpt>
      <trkpt lat="48.64234" lon="7.18538">
        <ele>513.2</ele>
        <time>2020-08-12T09:59:43Z</time>
      </trkpt>
      <trkpt lat="48.64246" lon="7.18549">
        <ele>513.5</ele>
        <time>2020-08-12T09:59:45Z</time>
      </trkpt>
      <trkpt lat="48.64257" lon="7.18561">
        <ele>513.7</ele>
        <time>2020-08-12T09:59:47Z</time>
      </trkpt>
      <trkpt lat="48.64269" lon="7.18576">
        <ele>513.3</ele>
        <time>2020-08-12T09:59:49Z</time>
      </trkpt>
      <trkpt lat="48.64282" lon="7.18602">
        <ele>513.3</ele>
        <time>2020-08-12T09:59:52Z</time>
      </trkpt>
      <trkpt lat="48.64288" lon="7.18622">
        <ele>512.7</ele>
        <time>2020-08-12T09:59:54Z</time>
      </trkpt>
      <trkpt lat="48.64295" lon="7.18641">
        <ele>511.2</ele>
        <time>2020-08-12T09:59:56Z</time>
      </trkpt>
      <trkpt lat="48.64298" lon="7.18657">
        <ele>511</ele>
        <time>2020-08-12T09:59:58Z</time>
      </trkpt>
      <trkpt lat="48.64302" lon="7.18672">
        <ele>510</ele>
        <time>2020-08-12T10:00:00Z</time>
      </trkpt>
      <trkpt lat="48.64308" lon="7.18687">
        <ele>509.2</ele>
        <time>2020-08-12T10:00:02Z</time>
      </trkpt>
      <trkpt lat="48.64315" lon="7.187">
        <ele>507.8</ele>
        <time>2020-08-12T10:00:04Z</time>
      </trkpt>
      <trkpt lat="48.64323" lon="7.18712">
        <ele>506.9</ele>
        <time>2020-08-12T10:00:06Z</time>
      </trkpt>
      <trkpt lat="48.6433" lon="7.18724">
        <ele>506.5</ele>
        <time>2020-08-12T10:00:08Z</time>
      </trkpt>
      <trkpt lat="48.64338" lon="7.18733">
        <ele>506</ele>
        <time>2020-08-12T10:00:10Z</time>
      </trkpt>
      <trkpt lat="48.64344" lon="7.18744">
        <ele>505.3</ele>
        <time>2020-08-12T10:00:12Z</time>
      </trkpt>
      <trkpt lat="48.64351" lon="7.18755">
        <ele>504.9</ele>
        <time>2020-08-12T10:00:14Z</time>
      </trkpt>
      <trkpt lat="48.64356" lon="7.18766">
        <ele>504.7</ele>
        <time>2020-08-12T10:00:16Z</time>
      </trkpt>
      <trkpt lat="48.64362" lon="7.18778">
        <ele>504.5</ele>
        <time>2020-08-12T10:00:18Z</time>
      </trkpt>
      <trkpt lat="48.64369" lon="7.18788">
        <ele>504.2</ele>
        <time>2020-08-12T10:00:20Z</time>
      </trkpt>
      <trkpt lat="48.64377" lon="7.18797">
        <ele>503.9</ele>
        <time>2020-08-12T10:00:22Z</time>
      </trkpt>
      <trkpt lat="48.64383" lon="7.18805">
        <ele>504.3</ele>
        <time>2020-08-12T10:00:24Z</time>
      </trkpt>
      <trkpt lat="48.6439" lon="7.18814">
        <ele>505.1</ele>
        <time>2020-08-12T10:00:26Z</time>
      </trkpt>
      <trkpt lat="48.64398" lon="7.18825">
        <ele>505.3</ele>
        <time>2020-08-12T10:00:28Z</time>
      </trkpt>
      <trkpt lat="48.64406" lon="7.18835">
        <ele>505.7</ele>
        <time>2020-08-12T10:00:30Z</time>
      </trkpt>
      <trkpt lat="48.64413" lon="7.18847">
        <ele>506.2</ele>
        <time>2020-08-12T10:00:32Z</time>
      </trkpt>
      <trkpt lat="48.64419" lon="7.18861">
        <ele>506.6</ele>
        <time>2020-08-12T10:00:34Z</time>
      </trkpt>
      <trkpt lat="48.64423" lon="7.18875">
        <ele>507</ele>
        <time>2020-08-12T10:00:36Z</time>
      </trkpt>
      <trkpt lat="48.64426" lon="7.18885">
        <ele>507.5</ele>
        <time>2020-08-12T10:00:38Z</time>
      </trkpt>
      <trkpt lat="48.64431" lon="7.18891">
        <ele>507.6</ele>
        <time>2020-08-12T10:00:40Z</time>
      </trkpt>
      <trkpt lat="48.64437" lon="7.1889">
        <ele>507.5</ele>
        <time>2020-08-12T10:00:42Z</time>
      </trkpt>
      <trkpt lat="48.64444" lon="7.18885">
        <ele>506.9</ele>
        <time>2020-08-12T10:00:44Z</time>
      </trkpt>
      <trkpt lat="48.64452" lon="7.18878">
        <ele>506.9</ele>
        <time>2020-08-12T10:00:46Z</time>
      </trkpt>
      <trkpt lat="48.6446" lon="7.18869">
        <ele>506.5</ele>
        <time>2020-08-12T10:00:48Z</time>
      </trkpt>
      <trkpt lat="48.64469" lon="7.18861">
        <ele>506.4</ele>
        <time>2020-08-12T10:00:50Z</time>
      </trkpt>
      <trkpt lat="48.64479" lon="7.18853">
        <ele>505.7</ele>
        <time>2020-08-12T10:00:52Z</time>
      </trkpt>
      <trkpt lat="48.64488" lon="7.18844">
        <ele>505.2</ele>
        <time>2020-08-12T10:00:54Z</time>
      </trkpt>
      <trkpt lat="48.64497" lon="7.18835">
        <ele>504.6</ele>
        <time>2020-08-12T10:00:56Z</time>
      </trkpt>
      <trkpt lat="48.64505" lon="7.18826">
        <ele>504.7</ele>
        <time>2020-08-12T10:00:58Z</time>
      </trkpt>
      <trkpt lat="48.64514" lon="7.18818">
        <ele>504.5</ele>
        <time>2020-08-12T10:01:00Z</time>
      </trkpt>
      <trkpt lat="48.64522" lon="7.1881">
        <ele>504.5</ele>
        <time>2020-08-12T10:01:02Z</time>
      </trkpt>
      <trkpt lat="48.64536" lon="7.18798">
        <ele>504.9</ele>
        <time>2020-08-12T10:01:05Z</time>
      </trkpt>
      <trkpt lat="48.64545" lon="7.18791">
        <ele>504.8</ele>
        <time>2020-08-12T10:01:07Z</time>
      </trkpt>
      <trkpt lat="48.64554" lon="7.18785">
        <ele>505.1</ele>
        <time>2020-08-12T10:01:09Z</time>
      </trkpt>
      <trkpt lat="48.64565" lon="7.18784">
        <ele>505.8</ele>
        <time>2020-08-12T10:01:11Z</time>
      </trkpt>
      <trkpt lat="48.64573" lon="7.18781">
        <ele>505.9</ele>
        <time>2020-08-12T10:01:13Z</time>
      </trkpt>
      <trkpt lat="48.64581" lon="7.18777">
        <ele>506.3</ele>
        <time>2020-08-12T10:01:15Z</time>
      </trkpt>
      <trkpt lat="48.64588" lon="7.18775">
        <ele>505.3</ele>
        <time>2020-08-12T10:01:17Z</time>
      </trkpt>
      <trkpt lat="48.64597" lon="7.18777">
        <ele>506.4</ele>
        <time>2020-08-12T10:01:19Z</time>
      </trkpt>
      <trkpt lat="48.64604" lon="7.18777">
        <ele>507</ele>
        <time>2020-08-12T10:01:21Z</time>
      </trkpt>
      <trkpt lat="48.64614" lon="7.18776">
        <ele>508.6</ele>
        <time>2020-08-12T10:01:23Z</time>
      </trkpt>
      <trkpt lat="48.64625" lon="7.18777">
        <ele>510.4</ele>
        <time>2020-08-12T10:01:25Z</time>
      </trkpt>
      <trkpt lat="48.64633" lon="7.18783">
        <ele>511.1</ele>
        <time>2020-08-12T10:01:27Z</time>
      </trkpt>
      <trkpt lat="48.64639" lon="7.18791">
        <ele>512.1</ele>
        <time>2020-08-12T10:01:29Z</time>
      </trkpt>
      <trkpt lat="48.64645" lon="7.188">
        <ele>511.4</ele>
        <time>2020-08-12T10:01:31Z</time>
      </trkpt>
      <trkpt lat="48.64654" lon="7.18811">
        <ele>511.9</ele>
        <time>2020-08-12T10:01:33Z</time>
      </trkpt>
      <trkpt lat="48.64661" lon="7.18822">
        <ele>510.8</ele>
        <time>2020-08-12T10:01:35Z</time>
      </trkpt>
      <trkpt lat="48.64671" lon="7.18834">
        <ele>510.5</ele>
        <time>2020-08-12T10:01:37Z</time>
      </trkpt>
      <trkpt lat="48.64683" lon="7.18853">
        <ele>510.1</ele>
        <time>2020-08-12T10:01:40Z</time>
      </trkpt>
      <trkpt lat="48.64689" lon="7.18864">
        <ele>510.2</ele>
        <time>2020-08-12T10:01:42Z</time>
      </trkpt>
      <trkpt lat="48.64698" lon="7.18874">
        <ele>510.2</ele>
        <time>2020-08-12T10:01:44Z</time>
      </trkpt>
      <trkpt lat="48.64704" lon="7.18888">
        <ele>510.2</ele>
        <time>2020-08-12T10:01:47Z</time>
      </trkpt>
      <trkpt lat="48.64712" lon="7.18899">
        <ele>510.9</ele>
        <time>2020-08-12T10:01:49Z</time>
      </trkpt>
      <trkpt lat="48.6472" lon="7.18909">
        <ele>511.7</ele>
        <time>2020-08-12T10:01:51Z</time>
      </trkpt>
      <trkpt lat="48.64728" lon="7.18919">
        <ele>511.9</ele>
        <time>2020-08-12T10:01:53Z</time>
      </trkpt>
      <trkpt lat="48.64735" lon="7.18929">
        <ele>512.7</ele>
        <time>2020-08-12T10:01:55Z</time>
      </trkpt>
      <trkpt lat="48.64745" lon="7.18943">
        <ele>513.4</ele>
        <time>2020-08-12T10:01:58Z</time>
      </trkpt>
      <trkpt lat="48.64753" lon="7.18959">
        <ele>513.6</ele>
        <time>2020-08-12T10:02:00Z</time>
      </trkpt>
      <trkpt lat="48.64758" lon="7.18973">
        <ele>513.2</ele>
        <time>2020-08-12T10:02:02Z</time>
      </trkpt>
      <trkpt lat="48.64763" lon="7.18985">
        <ele>513.4</ele>
        <time>2020-08-12T10:02:04Z</time>
      </trkpt>
      <trkpt lat="48.64766" lon="7.18992">
        <ele>513.8</ele>
        <time>2020-08-12T10:02:06Z</time>
      </trkpt>
      <trkpt lat="48.6477" lon="7.18997">
        <ele>514.3</ele>
        <time>2020-08-12T10:02:10Z</time>
      </trkpt>
      <trkpt lat="48.64773" lon="7.19001">
        <ele>513.4</ele>
        <time>2020-08-12T10:02:24Z</time>
      </trkpt>
      <trkpt lat="48.64776" lon="7.19008">
        <ele>513.8</ele>
        <time>2020-08-12T10:02:30Z</time>
      </trkpt>
      <trkpt lat="48.64778" lon="7.19017">
        <ele>513.9</ele>
        <time>2020-08-12T10:02:32Z</time>
      </trkpt>
      <trkpt lat="48.64783" lon="7.19029">
        <ele>513.3</ele>
        <time>2020-08-12T10:02:34Z</time>
      </trkpt>
      <trkpt lat="48.64789" lon="7.19042">
        <ele>513</ele>
        <time>2020-08-12T10:02:36Z</time>
      </trkpt>
      <trkpt lat="48.64794" lon="7.19056">
        <ele>512.5</ele>
        <time>2020-08-12T10:02:38Z</time>
      </trkpt>
      <trkpt lat="48.64797" lon="7.1907">
        <ele>512.7</ele>
        <time>2020-08-12T10:02:40Z</time>
      </trkpt>
      <trkpt lat="48.648" lon="7.19086">
        <ele>512.3</ele>
        <time>2020-08-12T10:02:42Z</time>
      </trkpt>
      <trkpt lat="48.64803" lon="7.19103">
        <ele>512.1</ele>
        <time>2020-08-12T10:02:44Z</time>
      </trkpt>
      <trkpt lat="48.64808" lon="7.19118">
        <ele>511.6</ele>
        <time>2020-08-12T10:02:46Z</time>
      </trkpt>
      <trkpt lat="48.64815" lon="7.19135">
        <ele>511.2</ele>
        <time>2020-08-12T10:02:48Z</time>
      </trkpt>
      <trkpt lat="48.64822" lon="7.19153">
        <ele>510.2</ele>
        <time>2020-08-12T10:02:50Z</time>
      </trkpt>
      <trkpt lat="48.64829" lon="7.19171">
        <ele>509.1</ele>
        <time>2020-08-12T10:02:52Z</time>
      </trkpt>
      <trkpt lat="48.64835" lon="7.19189">
        <ele>507.4</ele>
        <time>2020-08-12T10:02:54Z</time>
      </trkpt>
      <trkpt lat="48.64841" lon="7.19205">
        <ele>506.2</ele>
        <time>2020-08-12T10:02:56Z</time>
      </trkpt>
      <trkpt lat="48.64847" lon="7.19222">
        <ele>505.2</ele>
        <time>2020-08-12T10:02:58Z</time>
      </trkpt>
      <trkpt lat="48.64853" lon="7.19237">
        <ele>504.6</ele>
        <time>2020-08-12T10:03:00Z</time>
      </trkpt>
      <trkpt lat="48.64863" lon="7.19252">
        <ele>503.5</ele>
        <time>2020-08-12T10:03:02Z</time>
      </trkpt>
      <trkpt lat="48.64874" lon="7.19264">
        <ele>502.8</ele>
        <time>2020-08-12T10:03:04Z</time>
      </trkpt>
      <trkpt lat="48.64885" lon="7.19276">
        <ele>502.2</ele>
        <time>2020-08-12T10:03:06Z</time>
      </trkpt>
      <trkpt lat="48.64896" lon="7.19285">
        <ele>502.2</ele>
        <time>2020-08-12T10:03:08Z</time>
      </trkpt>
      <trkpt lat="48.64903" lon="7.19294">
        <ele>502</ele>
        <time>2020-08-12T10:03:10Z</time>
      </trkpt>
      <trkpt lat="48.64912" lon="7.19304">
        <ele>502.4</ele>
        <time>2020-08-12T10:03:12Z</time>
      </trkpt>
      <trkpt lat="48.64919" lon="7.19315">
        <ele>501.8</ele>
        <time>2020-08-12T10:03:14Z</time>
      </trkpt>
      <trkpt lat="48.64928" lon="7.19325">
        <ele>501.9</ele>
        <time>2020-08-12T10:03:16Z</time>
      </trkpt>
      <trkpt lat="48.64937" lon="7.19334">
        <ele>502.1</ele>
        <time>2020-08-12T10:03:18Z</time>
      </trkpt>
      <trkpt lat="48.64946" lon="7.19343">
        <ele>501.7</ele>
        <time>2020-08-12T10:03:20Z</time>
      </trkpt>
      <trkpt lat="48.64956" lon="7.1935">
        <ele>501.6</ele>
        <time>2020-08-12T10:03:22Z</time>
      </trkpt>
      <trkpt lat="48.64966" lon="7.19357">
        <ele>501.5</ele>
        <time>2020-08-12T10:03:24Z</time>
      </trkpt>
      <trkpt lat="48.64974" lon="7.19364">
        <ele>500.7</ele>
        <time>2020-08-12T10:03:26Z</time>
      </trkpt>
      <trkpt lat="48.64984" lon="7.1937">
        <ele>500.6</ele>
        <time>2020-08-12T10:03:28Z</time>
      </trkpt>
      <trkpt lat="48.64992" lon="7.19378">
        <ele>499.8</ele>
        <time>2020-08-12T10:03:30Z</time>
      </trkpt>
      <trkpt lat="48.65001" lon="7.19385">
        <ele>500</ele>
        <time>2020-08-12T10:03:32Z</time>
      </trkpt>
      <trkpt lat="48.6501" lon="7.19392">
        <ele>500.4</ele>
        <time>2020-08-12T10:03:34Z</time>
      </trkpt>
      <trkpt lat="48.65019" lon="7.19398">
        <ele>500.9</ele>
        <time>2020-08-12T10:03:36Z</time>
      </trkpt>
      <trkpt lat="48.65027" lon="7.19403">
        <ele>501.2</ele>
        <time>2020-08-12T10:03:38Z</time>
      </trkpt>
      <trkpt lat="48.65036" lon="7.19408">
        <ele>501.7</ele>
        <time>2020-08-12T10:03:40Z</time>
      </trkpt>
      <trkpt lat="48.65045" lon="7.19413">
        <ele>502.2</ele>
        <time>2020-08-12T10:03:42Z</time>
      </trkpt>
      <trkpt lat="48.65053" lon="7.19419">
        <ele>502.7</ele>
        <time>2020-08-12T10:03:44Z</time>
      </trkpt>
      <trkpt lat="48.65062" lon="7.19428">
        <ele>502.9</ele>
        <time>2020-08-12T10:03:46Z</time>
      </trkpt>
      <trkpt lat="48.65071" lon="7.19436">
        <ele>503</ele>
        <time>2020-08-12T10:03:48Z</time>
      </trkpt>
      <trkpt lat="48.65078" lon="7.19445">
        <ele>503.1</ele>
        <time>2020-08-12T10:03:50Z</time>
      </trkpt>
      <trkpt lat="48.65084" lon="7.19453">
        <ele>503.4</ele>
        <time>2020-08-12T10:03:52Z</time>
      </trkpt>
      <trkpt lat="48.65094" lon="7.19463">
        <ele>504.2</ele>
        <time>2020-08-12T10:03:54Z</time>
      </trkpt>
      <trkpt lat="48.65104" lon="7.19474">
        <ele>503.2</ele>
        <time>2020-08-12T10:03:56Z</time>
      </trkpt>
      <trkpt lat="48.65114" lon="7.19484">
        <ele>503.1</ele>
        <time>2020-08-12T10:03:58Z</time>
      </trkpt>
      <trkpt lat="48.65124" lon="7.19495">
        <ele>502.2</ele>
        <time>2020-08-12T10:04:00Z</time>
      </trkpt>
      <trkpt lat="48.65131" lon="7.19505">
        <ele>501.5</ele>
        <time>2020-08-12T10:04:02Z</time>
      </trkpt>
      <trkpt lat="48.65138" lon="7.19517">
        <ele>501</ele>
        <time>2020-08-12T10:04:04Z</time>
      </trkpt>
      <trkpt lat="48.65147" lon="7.19528">
        <ele>500.3</ele>
        <time>2020-08-12T10:04:06Z</time>
      </trkpt>
      <trkpt lat="48.65156" lon="7.19538">
        <ele>499.6</ele>
        <time>2020-08-12T10:04:08Z</time>
      </trkpt>
      <trkpt lat="48.65165" lon="7.19547">
        <ele>498.5</ele>
        <time>2020-08-12T10:04:10Z</time>
      </trkpt>
      <trkpt lat="48.65175" lon="7.19554">
        <ele>497.3</ele>
        <time>2020-08-12T10:04:12Z</time>
      </trkpt>
      <trkpt lat="48.65184" lon="7.1956">
        <ele>496.3</ele>
        <time>2020-08-12T10:04:14Z</time>
      </trkpt>
      <trkpt lat="48.65193" lon="7.19567">
        <ele>496</ele>
        <time>2020-08-12T10:04:16Z</time>
      </trkpt>
      <trkpt lat="48.65203" lon="7.1957">
        <ele>495.7</ele>
        <time>2020-08-12T10:04:18Z</time>
      </trkpt>
      <trkpt lat="48.65212" lon="7.19569">
        <ele>496</ele>
        <time>2020-08-12T10:04:20Z</time>
      </trkpt>
      <trkpt lat="48.65217" lon="7.19565">
        <ele>496.3</ele>
        <time>2020-08-12T10:04:22Z</time>
      </trkpt>
      <trkpt lat="48.65221" lon="7.19563">
        <ele>498.7</ele>
        <time>2020-08-12T10:04:30Z</time>
      </trkpt>
      <trkpt lat="48.65226" lon="7.19557">
        <ele>500.8</ele>
        <time>2020-08-12T10:04:40Z</time>
      </trkpt>
      <trkpt lat="48.6523" lon="7.19551">
        <ele>500.9</ele>
        <time>2020-08-12T10:04:42Z</time>
      </trkpt>
      <trkpt lat="48.65234" lon="7.19541">
        <ele>500.1</ele>
        <time>2020-08-12T10:04:44Z</time>
      </trkpt>
      <trkpt lat="48.65238" lon="7.19528">
        <ele>499.3</ele>
        <time>2020-08-12T10:04:46Z</time>
      </trkpt>
      <trkpt lat="48.65243" lon="7.19518">
        <ele>498.8</ele>
        <time>2020-08-12T10:04:48Z</time>
      </trkpt>
      <trkpt lat="48.65246" lon="7.19507">
        <ele>498.9</ele>
        <time>2020-08-12T10:04:50Z</time>
      </trkpt>
      <trkpt lat="48.65249" lon="7.19495">
        <ele>498.3</ele>
        <time>2020-08-12T10:04:52Z</time>
      </trkpt>
      <trkpt lat="48.65251" lon="7.19481">
        <ele>498.1</ele>
        <time>2020-08-12T10:04:54Z</time>
      </trkpt>
      <trkpt lat="48.65254" lon="7.19467">
        <ele>497.7</ele>
        <time>2020-08-12T10:04:56Z</time>
      </trkpt>
      <trkpt lat="48.65257" lon="7.19452">
        <ele>497.1</ele>
        <time>2020-08-12T10:04:58Z</time>
      </trkpt>
      <trkpt lat="48.65261" lon="7.1944">
        <ele>497.4</ele>
        <time>2020-08-12T10:05:00Z</time>
      </trkpt>
      <trkpt lat="48.65266" lon="7.19434">
        <ele>497.4</ele>
        <time>2020-08-12T10:05:02Z</time>
      </trkpt>
      <trkpt lat="48.6527" lon="7.19436">
        <ele>497.2</ele>
        <time>2020-08-12T10:05:07Z</time>
      </trkpt>
      <trkpt lat="48.65274" lon="7.19441">
        <ele>497.6</ele>
        <time>2020-08-12T10:05:17Z</time>
      </trkpt>
      <trkpt lat="48.65276" lon="7.19449">
        <ele>497.4</ele>
        <time>2020-08-12T10:05:19Z</time>
      </trkpt>
      <trkpt lat="48.65276" lon="7.19456">
        <ele>497.9</ele>
        <time>2020-08-12T10:05:22Z</time>
      </trkpt>
      <trkpt lat="48.65281" lon="7.19463">
        <ele>497.2</ele>
        <time>2020-08-12T10:06:03Z</time>
      </trkpt>
      <trkpt lat="48.65282" lon="7.19476">
        <ele>496.4</ele>
        <time>2020-08-12T10:06:05Z</time>
      </trkpt>
      <trkpt lat="48.65281" lon="7.19489">
        <ele>494.7</ele>
        <time>2020-08-12T10:06:07Z</time>
      </trkpt>
      <trkpt lat="48.65281" lon="7.19502">
        <ele>493.7</ele>
        <time>2020-08-12T10:06:09Z</time>
      </trkpt>
      <trkpt lat="48.6528" lon="7.19516">
        <ele>493.3</ele>
        <time>2020-08-12T10:06:11Z</time>
      </trkpt>
      <trkpt lat="48.65276" lon="7.19532">
        <ele>492.7</ele>
        <time>2020-08-12T10:06:13Z</time>
      </trkpt>
      <trkpt lat="48.65273" lon="7.19547">
        <ele>492.9</ele>
        <time>2020-08-12T10:06:15Z</time>
      </trkpt>
      <trkpt lat="48.65268" lon="7.19563">
        <ele>492.4</ele>
        <time>2020-08-12T10:06:17Z</time>
      </trkpt>
      <trkpt lat="48.65262" lon="7.19579">
        <ele>492.1</ele>
        <time>2020-08-12T10:06:19Z</time>
      </trkpt>
      <trkpt lat="48.65256" lon="7.19595">
        <ele>491.7</ele>
        <time>2020-08-12T10:06:21Z</time>
      </trkpt>
      <trkpt lat="48.65249" lon="7.1961">
        <ele>491.1</ele>
        <time>2020-08-12T10:06:23Z</time>
      </trkpt>
      <trkpt lat="48.65242" lon="7.19627">
        <ele>490.3</ele>
        <time>2020-08-12T10:06:25Z</time>
      </trkpt>
      <trkpt lat="48.65236" lon="7.19641">
        <ele>489.2</ele>
        <time>2020-08-12T10:06:27Z</time>
      </trkpt>
      <trkpt lat="48.65227" lon="7.19649">
        <ele>488.3</ele>
        <time>2020-08-12T10:06:29Z</time>
      </trkpt>
      <trkpt lat="48.65215" lon="7.19651">
        <ele>487.8</ele>
        <time>2020-08-12T10:06:31Z</time>
      </trkpt>
      <trkpt lat="48.65203" lon="7.19647">
        <ele>486.2</ele>
        <time>2020-08-12T10:06:33Z</time>
      </trkpt>
      <trkpt lat="48.65191" lon="7.19643">
        <ele>484.9</ele>
        <time>2020-08-12T10:06:35Z</time>
      </trkpt>
      <trkpt lat="48.6518" lon="7.19637">
        <ele>483.7</ele>
        <time>2020-08-12T10:06:37Z</time>
      </trkpt>
      <trkpt lat="48.65168" lon="7.1963">
        <ele>482.5</ele>
        <time>2020-08-12T10:06:39Z</time>
      </trkpt>
      <trkpt lat="48.65157" lon="7.19622">
        <ele>482.1</ele>
        <time>2020-08-12T10:06:41Z</time>
      </trkpt>
      <trkpt lat="48.65146" lon="7.19615">
        <ele>481.7</ele>
        <time>2020-08-12T10:06:43Z</time>
      </trkpt>
      <trkpt lat="48.65134" lon="7.19608">
        <ele>480.8</ele>
        <time>2020-08-12T10:06:45Z</time>
      </trkpt>
      <trkpt lat="48.6512" lon="7.19601">
        <ele>480.4</ele>
        <time>2020-08-12T10:06:47Z</time>
      </trkpt>
      <trkpt lat="48.65111" lon="7.19592">
        <ele>478.5</ele>
        <time>2020-08-12T10:06:49Z</time>
      </trkpt>
      <trkpt lat="48.65101" lon="7.19582">
        <ele>476.2</ele>
        <time>2020-08-12T10:06:51Z</time>
      </trkpt>
      <trkpt lat="48.65091" lon="7.19573">
        <ele>474.6</ele>
        <time>2020-08-12T10:06:53Z</time>
      </trkpt>
      <trkpt lat="48.65082" lon="7.19564">
        <ele>473.2</ele>
        <time>2020-08-12T10:06:55Z</time>
      </trkpt>
      <trkpt lat="48.65071" lon="7.19553">
        <ele>471.6</ele>
        <time>2020-08-12T10:06:57Z</time>
      </trkpt>
      <trkpt lat="48.6506" lon="7.19544">
        <ele>470.7</ele>
        <time>2020-08-12T10:06:59Z</time>
      </trkpt>
      <trkpt lat="48.6505" lon="7.19534">
        <ele>470</ele>
        <time>2020-08-12T10:07:01Z</time>
      </trkpt>
      <trkpt lat="48.65041" lon="7.19525">
        <ele>469.6</ele>
        <time>2020-08-12T10:07:03Z</time>
      </trkpt>
      <trkpt lat="48.65032" lon="7.19515">
        <ele>469</ele>
        <time>2020-08-12T10:07:05Z</time>
      </trkpt>
      <trkpt lat="48.65022" lon="7.19506">
        <ele>468.4</ele>
        <time>2020-08-12T10:07:07Z</time>
      </trkpt>
      <trkpt lat="48.65009" lon="7.19498">
        <ele>467.7</ele>
        <time>2020-08-12T10:07:09Z</time>
      </trkpt>
      <trkpt lat="48.64994" lon="7.19492">
        <ele>467.2</ele>
        <time>2020-08-12T10:07:11Z</time>
      </trkpt>
      <trkpt lat="48.64979" lon="7.1949">
        <ele>466.2</ele>
        <time>2020-08-12T10:07:13Z</time>
      </trkpt>
      <trkpt lat="48.64965" lon="7.19491">
        <ele>465.1</ele>
        <time>2020-08-12T10:07:15Z</time>
      </trkpt>
      <trkpt lat="48.64952" lon="7.19492">
        <ele>464</ele>
        <time>2020-08-12T10:07:17Z</time>
      </trkpt>
      <trkpt lat="48.6494" lon="7.1949">
        <ele>463.4</ele>
        <time>2020-08-12T10:07:19Z</time>
      </trkpt>
      <trkpt lat="48.64929" lon="7.19486">
        <ele>461.5</ele>
        <time>2020-08-12T10:07:21Z</time>
      </trkpt>
      <trkpt lat="48.64921" lon="7.19479">
        <ele>459.4</ele>
        <time>2020-08-12T10:07:23Z</time>
      </trkpt>
      <trkpt lat="48.64911" lon="7.19472">
        <ele>457.5</ele>
        <time>2020-08-12T10:07:25Z</time>
      </trkpt>
      <trkpt lat="48.649" lon="7.19462">
        <ele>455.4</ele>
        <time>2020-08-12T10:07:27Z</time>
      </trkpt>
      <trkpt lat="48.6489" lon="7.19451">
        <ele>453.5</ele>
        <time>2020-08-12T10:07:29Z</time>
      </trkpt>
      <trkpt lat="48.6488" lon="7.19437">
        <ele>450.6</ele>
        <time>2020-08-12T10:07:31Z</time>
      </trkpt>
      <trkpt lat="48.64869" lon="7.19423">
        <ele>448.5</ele>
        <time>2020-08-12T10:07:33Z</time>
      </trkpt>
      <trkpt lat="48.64858" lon="7.19409">
        <ele>446.1</ele>
        <time>2020-08-12T10:07:35Z</time>
      </trkpt>
      <trkpt lat="48.64851" lon="7.19398">
        <ele>444.6</ele>
        <time>2020-08-12T10:07:37Z</time>
      </trkpt>
      <trkpt lat="48.64847" lon="7.19393">
        <ele>443.8</ele>
        <time>2020-08-12T10:07:39Z</time>
      </trkpt>
      <trkpt lat="48.64843" lon="7.19396">
        <ele>445.1</ele>
        <time>2020-08-12T10:07:50Z</time>
      </trkpt>
      <trkpt lat="48.64839" lon="7.19392">
        <ele>445.3</ele>
        <time>2020-08-12T10:07:56Z</time>
      </trkpt>
      <trkpt lat="48.64834" lon="7.19387">
        <ele>444.6</ele>
        <time>2020-08-12T10:07:58Z</time>
      </trkpt>
      <trkpt lat="48.64829" lon="7.19379">
        <ele>444.3</ele>
        <time>2020-08-12T10:08:00Z</time>
      </trkpt>
      <trkpt lat="48.64822" lon="7.19372">
        <ele>444.1</ele>
        <time>2020-08-12T10:08:02Z</time>
      </trkpt>
      <trkpt lat="48.64815" lon="7.19362">
        <ele>443.6</ele>
        <time>2020-08-12T10:08:04Z</time>
      </trkpt>
      <trkpt lat="48.64808" lon="7.19354">
        <ele>443.4</ele>
        <time>2020-08-12T10:08:06Z</time>
      </trkpt>
      <trkpt lat="48.648" lon="7.19347">
        <ele>443.4</ele>
        <time>2020-08-12T10:08:08Z</time>
      </trkpt>
      <trkpt lat="48.64791" lon="7.19338">
        <ele>443.5</ele>
        <time>2020-08-12T10:08:10Z</time>
      </trkpt>
      <trkpt lat="48.64783" lon="7.19327">
        <ele>443.4</ele>
        <time>2020-08-12T10:08:12Z</time>
      </trkpt>
      <trkpt lat="48.64774" lon="7.19314">
        <ele>443.2</ele>
        <time>2020-08-12T10:08:14Z</time>
      </trkpt>
      <trkpt lat="48.64766" lon="7.19302">
        <ele>442.7</ele>
        <time>2020-08-12T10:08:16Z</time>
      </trkpt>
      <trkpt lat="48.64757" lon="7.1929">
        <ele>442.9</ele>
        <time>2020-08-12T10:08:18Z</time>
      </trkpt>
      <trkpt lat="48.64749" lon="7.19278">
        <ele>443.1</ele>
        <time>2020-08-12T10:08:20Z</time>
      </trkpt>
      <trkpt lat="48.64742" lon="7.19263">
        <ele>443.4</ele>
        <time>2020-08-12T10:08:22Z</time>
      </trkpt>
      <trkpt lat="48.64736" lon="7.19248">
        <ele>443.3</ele>
        <time>2020-08-12T10:08:24Z</time>
      </trkpt>
      <trkpt lat="48.6473" lon="7.1923">
        <ele>443.6</ele>
        <time>2020-08-12T10:08:26Z</time>
      </trkpt>
      <trkpt lat="48.64725" lon="7.19212">
        <ele>443.5</ele>
        <time>2020-08-12T10:08:28Z</time>
      </trkpt>
      <trkpt lat="48.6472" lon="7.19195">
        <ele>444</ele>
        <time>2020-08-12T10:08:30Z</time>
      </trkpt>
      <trkpt lat="48.64715" lon="7.1918">
        <ele>444.4</ele>
        <time>2020-08-12T10:08:32Z</time>
      </trkpt>
      <trkpt lat="48.6471" lon="7.19168">
        <ele>444.9</ele>
        <time>2020-08-12T10:08:34Z</time>
      </trkpt>
      <trkpt lat="48.64706" lon="7.19156">
        <ele>445.2</ele>
        <time>2020-08-12T10:08:36Z</time>
      </trkpt>
      <trkpt lat="48.64703" lon="7.19143">
        <ele>445.5</ele>
        <time>2020-08-12T10:08:38Z</time>
      </trkpt>
      <trkpt lat="48.64697" lon="7.19128">
        <ele>445.7</ele>
        <time>2020-08-12T10:08:40Z</time>
      </trkpt>
      <trkpt lat="48.64691" lon="7.19113">
        <ele>445.6</ele>
        <time>2020-08-12T10:08:42Z</time>
      </trkpt>
      <trkpt lat="48.64688" lon="7.19108">
        <ele>445.6</ele>
        <time>2020-08-12T10:08:43Z</time>
      </trkpt>
      <trkpt lat="48.64684" lon="7.191">
        <ele>445.5</ele>
        <time>2020-08-12T10:08:44Z</time>
      </trkpt>
      <trkpt lat="48.64678" lon="7.19086">
        <ele>445.6</ele>
        <time>2020-08-12T10:08:46Z</time>
      </trkpt>
      <trkpt lat="48.64665" lon="7.19065">
        <ele>445</ele>
        <time>2020-08-12T10:08:49Z</time>
      </trkpt>
      <trkpt lat="48.64658" lon="7.1905">
        <ele>445.5</ele>
        <time>2020-08-12T10:08:51Z</time>
      </trkpt>
      <trkpt lat="48.64653" lon="7.19032">
        <ele>444.1</ele>
        <time>2020-08-12T10:08:53Z</time>
      </trkpt>
      <trkpt lat="48.64644" lon="7.19016">
        <ele>444.1</ele>
        <time>2020-08-12T10:08:55Z</time>
      </trkpt>
      <trkpt lat="48.64635" lon="7.19003">
        <ele>443.6</ele>
        <time>2020-08-12T10:08:57Z</time>
      </trkpt>
      <trkpt lat="48.64625" lon="7.18992">
        <ele>443</ele>
        <time>2020-08-12T10:08:59Z</time>
      </trkpt>
      <trkpt lat="48.64615" lon="7.1898">
        <ele>442.6</ele>
        <time>2020-08-12T10:09:01Z</time>
      </trkpt>
      <trkpt lat="48.64599" lon="7.18963">
        <ele>442.5</ele>
        <time>2020-08-12T10:09:04Z</time>
      </trkpt>
      <trkpt lat="48.64586" lon="7.18958">
        <ele>442.7</ele>
        <time>2020-08-12T10:09:06Z</time>
      </trkpt>
      <trkpt lat="48.64574" lon="7.1896">
        <ele>442.6</ele>
        <time>2020-08-12T10:09:08Z</time>
      </trkpt>
      <trkpt lat="48.64561" lon="7.18978">
        <ele>440.7</ele>
        <time>2020-08-12T10:09:11Z</time>
      </trkpt>
      <trkpt lat="48.64552" lon="7.18994">
        <ele>439.3</ele>
        <time>2020-08-12T10:09:13Z</time>
      </trkpt>
      <trkpt lat="48.64543" lon="7.19011">
        <ele>437.9</ele>
        <time>2020-08-12T10:09:15Z</time>
      </trkpt>
      <trkpt lat="48.64534" lon="7.19026">
        <ele>436.4</ele>
        <time>2020-08-12T10:09:17Z</time>
      </trkpt>
      <trkpt lat="48.64527" lon="7.19037">
        <ele>435.1</ele>
        <time>2020-08-12T10:09:19Z</time>
      </trkpt>
      <trkpt lat="48.64519" lon="7.1905">
        <ele>433.5</ele>
        <time>2020-08-12T10:09:21Z</time>
      </trkpt>
      <trkpt lat="48.64513" lon="7.19062">
        <ele>432.9</ele>
        <time>2020-08-12T10:09:23Z</time>
      </trkpt>
      <trkpt lat="48.64507" lon="7.19075">
        <ele>432</ele>
        <time>2020-08-12T10:09:25Z</time>
      </trkpt>
      <trkpt lat="48.645" lon="7.1909">
        <ele>430.9</ele>
        <time>2020-08-12T10:09:27Z</time>
      </trkpt>
      <trkpt lat="48.64493" lon="7.19108">
        <ele>429.7</ele>
        <time>2020-08-12T10:09:29Z</time>
      </trkpt>
      <trkpt lat="48.64487" lon="7.19128">
        <ele>428.6</ele>
        <time>2020-08-12T10:09:31Z</time>
      </trkpt>
      <trkpt lat="48.64481" lon="7.19148">
        <ele>426.9</ele>
        <time>2020-08-12T10:09:33Z</time>
      </trkpt>
      <trkpt lat="48.64475" lon="7.19168">
        <ele>425.4</ele>
        <time>2020-08-12T10:09:35Z</time>
      </trkpt>
      <trkpt lat="48.6447" lon="7.19187">
        <ele>424.3</ele>
        <time>2020-08-12T10:09:37Z</time>
      </trkpt>
      <trkpt lat="48.64467" lon="7.19207">
        <ele>423.3</ele>
        <time>2020-08-12T10:09:39Z</time>
      </trkpt>
      <trkpt lat="48.64463" lon="7.19226">
        <ele>421.9</ele>
        <time>2020-08-12T10:09:41Z</time>
      </trkpt>
      <trkpt lat="48.64459" lon="7.19243">
        <ele>420.7</ele>
        <time>2020-08-12T10:09:43Z</time>
      </trkpt>
      <trkpt lat="48.64454" lon="7.19257">
        <ele>419.7</ele>
        <time>2020-08-12T10:09:45Z</time>
      </trkpt>
      <trkpt lat="48.64444" lon="7.19263">
        <ele>417.6</ele>
        <time>2020-08-12T10:09:47Z</time>
      </trkpt>
      <trkpt lat="48.64433" lon="7.19262">
        <ele>416</ele>
        <time>2020-08-12T10:09:49Z</time>
      </trkpt>
      <trkpt lat="48.64423" lon="7.19261">
        <ele>415</ele>
        <time>2020-08-12T10:09:51Z</time>
      </trkpt>
      <trkpt lat="48.64419" lon="7.19265">
        <ele>412.9</ele>
        <time>2020-08-12T10:09:54Z</time>
      </trkpt>
      <trkpt lat="48.64422" lon="7.19271">
        <ele>405.1</ele>
        <time>2020-08-12T10:10:25Z</time>
      </trkpt>
      <trkpt lat="48.64426" lon="7.19275">
        <ele>406</ele>
        <time>2020-08-12T10:10:27Z</time>
      </trkpt>
      <trkpt lat="48.64432" lon="7.19284">
        <ele>406.1</ele>
        <time>2020-08-12T10:10:29Z</time>
      </trkpt>
      <trkpt lat="48.64437" lon="7.19289">
        <ele>405</ele>
        <time>2020-08-12T10:10:31Z</time>
      </trkpt>
      <trkpt lat="48.64445" lon="7.19293">
        <ele>405.1</ele>
        <time>2020-08-12T10:10:33Z</time>
      </trkpt>
      <trkpt lat="48.64456" lon="7.1929">
        <ele>404</ele>
        <time>2020-08-12T10:10:35Z</time>
      </trkpt>
      <trkpt lat="48.6447" lon="7.19274">
        <ele>402.9</ele>
        <time>2020-08-12T10:10:38Z</time>
      </trkpt>
      <trkpt lat="48.64483" lon="7.19248">
        <ele>401.4</ele>
        <time>2020-08-12T10:10:41Z</time>
      </trkpt>
      <trkpt lat="48.64494" lon="7.19229">
        <ele>400.3</ele>
        <time>2020-08-12T10:10:43Z</time>
      </trkpt>
      <trkpt lat="48.64506" lon="7.19209">
        <ele>398.7</ele>
        <time>2020-08-12T10:10:45Z</time>
      </trkpt>
      <trkpt lat="48.6452" lon="7.1919">
        <ele>397.4</ele>
        <time>2020-08-12T10:10:47Z</time>
      </trkpt>
      <trkpt lat="48.64534" lon="7.19174">
        <ele>395.8</ele>
        <time>2020-08-12T10:10:49Z</time>
      </trkpt>
      <trkpt lat="48.64547" lon="7.1916">
        <ele>394</ele>
        <time>2020-08-12T10:10:51Z</time>
      </trkpt>
      <trkpt lat="48.64558" lon="7.19152">
        <ele>392.3</ele>
        <time>2020-08-12T10:10:53Z</time>
      </trkpt>
      <trkpt lat="48.64567" lon="7.19152">
        <ele>390.9</ele>
        <time>2020-08-12T10:10:55Z</time>
      </trkpt>
      <trkpt lat="48.64572" lon="7.19155">
        <ele>389.9</ele>
        <time>2020-08-12T10:10:57Z</time>
      </trkpt>
      <trkpt lat="48.64576" lon="7.19155">
        <ele>389.1</ele>
        <time>2020-08-12T10:11:03Z</time>
      </trkpt>
      <trkpt lat="48.6458" lon="7.19159">
        <ele>393.1</ele>
        <time>2020-08-12T10:11:21Z</time>
      </trkpt>
      <trkpt lat="48.64584" lon="7.19169">
        <ele>393.3</ele>
        <time>2020-08-12T10:11:25Z</time>
      </trkpt>
      <trkpt lat="48.64589" lon="7.19181">
        <ele>392.1</ele>
        <time>2020-08-12T10:11:27Z</time>
      </trkpt>
      <trkpt lat="48.64594" lon="7.19197">
        <ele>391</ele>
        <time>2020-08-12T10:11:29Z</time>
      </trkpt>
      <trkpt lat="48.64601" lon="7.19217">
        <ele>389.8</ele>
        <time>2020-08-12T10:11:31Z</time>
      </trkpt>
      <trkpt lat="48.64609" lon="7.1924">
        <ele>388.1</ele>
        <time>2020-08-12T10:11:33Z</time>
      </trkpt>
      <trkpt lat="48.64615" lon="7.19266">
        <ele>387.2</ele>
        <time>2020-08-12T10:11:35Z</time>
      </trkpt>
      <trkpt lat="48.64617" lon="7.19291">
        <ele>386.6</ele>
        <time>2020-08-12T10:11:37Z</time>
      </trkpt>
      <trkpt lat="48.64617" lon="7.19316">
        <ele>385.4</ele>
        <time>2020-08-12T10:11:39Z</time>
      </trkpt>
      <trkpt lat="48.64616" lon="7.19334">
        <ele>384.4</ele>
        <time>2020-08-12T10:11:41Z</time>
      </trkpt>
      <trkpt lat="48.64615" lon="7.19343">
        <ele>383.5</ele>
        <time>2020-08-12T10:11:43Z</time>
      </trkpt>
      <trkpt lat="48.64614" lon="7.19351">
        <ele>379.5</ele>
        <time>2020-08-12T10:11:55Z</time>
      </trkpt>
      <trkpt lat="48.64614" lon="7.19359">
        <ele>378.9</ele>
        <time>2020-08-12T10:11:57Z</time>
      </trkpt>
      <trkpt lat="48.64613" lon="7.19369">
        <ele>378</ele>
        <time>2020-08-12T10:11:59Z</time>
      </trkpt>
      <trkpt lat="48.64613" lon="7.19383">
        <ele>376.8</ele>
        <time>2020-08-12T10:12:01Z</time>
      </trkpt>
      <trkpt lat="48.64612" lon="7.194">
        <ele>375.5</ele>
        <time>2020-08-12T10:12:03Z</time>
      </trkpt>
      <trkpt lat="48.64612" lon="7.19419">
        <ele>374.4</ele>
        <time>2020-08-12T10:12:05Z</time>
      </trkpt>
      <trkpt lat="48.64612" lon="7.19438">
        <ele>373.7</ele>
        <time>2020-08-12T10:12:07Z</time>
      </trkpt>
      <trkpt lat="48.6461" lon="7.19457">
        <ele>372.2</ele>
        <time>2020-08-12T10:12:09Z</time>
      </trkpt>
      <trkpt lat="48.64605" lon="7.19488">
        <ele>369.7</ele>
        <time>2020-08-12T10:12:12Z</time>
      </trkpt>
      <trkpt lat="48.64602" lon="7.1951">
        <ele>368.1</ele>
        <time>2020-08-12T10:12:14Z</time>
      </trkpt>
      <trkpt lat="48.64601" lon="7.19532">
        <ele>366.5</ele>
        <time>2020-08-12T10:12:16Z</time>
      </trkpt>
      <trkpt lat="48.64602" lon="7.1955">
        <ele>364.1</ele>
        <time>2020-08-12T10:12:18Z</time>
      </trkpt>
      <trkpt lat="48.64604" lon="7.19568">
        <ele>361.8</ele>
        <time>2020-08-12T10:12:20Z</time>
      </trkpt>
      <trkpt lat="48.6461" lon="7.19585">
        <ele>360.2</ele>
        <time>2020-08-12T10:12:22Z</time>
      </trkpt>
      <trkpt lat="48.64619" lon="7.19595">
        <ele>358.5</ele>
        <time>2020-08-12T10:12:24Z</time>
      </trkpt>
      <trkpt lat="48.64629" lon="7.19599">
        <ele>356.6</ele>
        <time>2020-08-12T10:12:26Z</time>
      </trkpt>
      <trkpt lat="48.64641" lon="7.19595">
        <ele>355.7</ele>
        <time>2020-08-12T10:12:28Z</time>
      </trkpt>
      <trkpt lat="48.64652" lon="7.19584">
        <ele>355.1</ele>
        <time>2020-08-12T10:12:30Z</time>
      </trkpt>
      <trkpt lat="48.64662" lon="7.19572">
        <ele>354.9</ele>
        <time>2020-08-12T10:12:32Z</time>
      </trkpt>
      <trkpt lat="48.64677" lon="7.19568">
        <ele>353.8</ele>
        <time>2020-08-12T10:12:34Z</time>
      </trkpt>
      <trkpt lat="48.64693" lon="7.19566">
        <ele>353.1</ele>
        <time>2020-08-12T10:12:36Z</time>
      </trkpt>
      <trkpt lat="48.64707" lon="7.19562">
        <ele>352.9</ele>
        <time>2020-08-12T10:12:38Z</time>
      </trkpt>
      <trkpt lat="48.64719" lon="7.19564">
        <ele>352.3</ele>
        <time>2020-08-12T10:12:40Z</time>
      </trkpt>
      <trkpt lat="48.64729" lon="7.19574">
        <ele>350.9</ele>
        <time>2020-08-12T10:12:42Z</time>
      </trkpt>
      <trkpt lat="48.64733" lon="7.19592">
        <ele>348.9</ele>
        <time>2020-08-12T10:12:44Z</time>
      </trkpt>
      <trkpt lat="48.64734" lon="7.19614">
        <ele>347.6</ele>
        <time>2020-08-12T10:12:46Z</time>
      </trkpt>
      <trkpt lat="48.64733" lon="7.19638">
        <ele>346.2</ele>
        <time>2020-08-12T10:12:48Z</time>
      </trkpt>
      <trkpt lat="48.64728" lon="7.19664">
        <ele>344.9</ele>
        <time>2020-08-12T10:12:50Z</time>
      </trkpt>
      <trkpt lat="48.64725" lon="7.1969">
        <ele>343.7</ele>
        <time>2020-08-12T10:12:52Z</time>
      </trkpt>
      <trkpt lat="48.6472" lon="7.19715">
        <ele>341.9</ele>
        <time>2020-08-12T10:12:54Z</time>
      </trkpt>
      <trkpt lat="48.64716" lon="7.19738">
        <ele>339.5</ele>
        <time>2020-08-12T10:12:56Z</time>
      </trkpt>
      <trkpt lat="48.64711" lon="7.19761">
        <ele>337.7</ele>
        <time>2020-08-12T10:12:58Z</time>
      </trkpt>
      <trkpt lat="48.64707" lon="7.19784">
        <ele>335.2</ele>
        <time>2020-08-12T10:13:00Z</time>
      </trkpt>
      <trkpt lat="48.64705" lon="7.19807">
        <ele>333.2</ele>
        <time>2020-08-12T10:13:02Z</time>
      </trkpt>
      <trkpt lat="48.64707" lon="7.1983">
        <ele>331.1</ele>
        <time>2020-08-12T10:13:04Z</time>
      </trkpt>
      <trkpt lat="48.64711" lon="7.19853">
        <ele>328.8</ele>
        <time>2020-08-12T10:13:06Z</time>
      </trkpt>
      <trkpt lat="48.64716" lon="7.19874">
        <ele>326.8</ele>
        <time>2020-08-12T10:13:08Z</time>
      </trkpt>
      <trkpt lat="48.64722" lon="7.19892">
        <ele>325</ele>
        <time>2020-08-12T10:13:10Z</time>
      </trkpt>
      <trkpt lat="48.64728" lon="7.1991">
        <ele>323.2</ele>
        <time>2020-08-12T10:13:12Z</time>
      </trkpt>
      <trkpt lat="48.64735" lon="7.19929">
        <ele>321.1</ele>
        <time>2020-08-12T10:13:14Z</time>
      </trkpt>
      <trkpt lat="48.64743" lon="7.19949">
        <ele>319.4</ele>
        <time>2020-08-12T10:13:16Z</time>
      </trkpt>
      <trkpt lat="48.64754" lon="7.19969">
        <ele>317.5</ele>
        <time>2020-08-12T10:13:18Z</time>
      </trkpt>
      <trkpt lat="48.64766" lon="7.1999">
        <ele>315.8</ele>
        <time>2020-08-12T10:13:20Z</time>
      </trkpt>
      <trkpt lat="48.64781" lon="7.20011">
        <ele>314</ele>
        <time>2020-08-12T10:13:22Z</time>
      </trkpt>
      <trkpt lat="48.64794" lon="7.20032">
        <ele>311.9</ele>
        <time>2020-08-12T10:13:24Z</time>
      </trkpt>
      <trkpt lat="48.64807" lon="7.20052">
        <ele>310.1</ele>
        <time>2020-08-12T10:13:26Z</time>
      </trkpt>
      <trkpt lat="48.64819" lon="7.20066">
        <ele>308.6</ele>
        <time>2020-08-12T10:13:28Z</time>
      </trkpt>
      <trkpt lat="48.64829" lon="7.20071">
        <ele>307.7</ele>
        <time>2020-08-12T10:13:30Z</time>
      </trkpt>
      <trkpt lat="48.64835" lon="7.20071">
        <ele>306.8</ele>
        <time>2020-08-12T10:13:32Z</time>
      </trkpt>
      <trkpt lat="48.6484" lon="7.2007">
        <ele>309.4</ele>
        <time>2020-08-12T10:13:48Z</time>
      </trkpt>
      <trkpt lat="48.64845" lon="7.20077">
        <ele>309.5</ele>
        <time>2020-08-12T10:13:51Z</time>
      </trkpt>
      <trkpt lat="48.64848" lon="7.20084">
        <ele>309.7</ele>
        <time>2020-08-12T10:13:53Z</time>
      </trkpt>
      <trkpt lat="48.64854" lon="7.2009">
        <ele>309.6</ele>
        <time>2020-08-12T10:13:55Z</time>
      </trkpt>
      <trkpt lat="48.64861" lon="7.20095">
        <ele>309.4</ele>
        <time>2020-08-12T10:13:57Z</time>
      </trkpt>
      <trkpt lat="48.64867" lon="7.20102">
        <ele>309</ele>
        <time>2020-08-12T10:13:59Z</time>
      </trkpt>
      <trkpt lat="48.64872" lon="7.20107">
        <ele>307.9</ele>
        <time>2020-08-12T10:14:01Z</time>
      </trkpt>
      <trkpt lat="48.64878" lon="7.20109">
        <ele>307.4</ele>
        <time>2020-08-12T10:14:03Z</time>
      </trkpt>
      <trkpt lat="48.64883" lon="7.20106">
        <ele>306.9</ele>
        <time>2020-08-12T10:14:07Z</time>
      </trkpt>
      <trkpt lat="48.64887" lon="7.20102">
        <ele>308.2</ele>
        <time>2020-08-12T10:14:16Z</time>
      </trkpt>
      <trkpt lat="48.64892" lon="7.20094">
        <ele>307.8</ele>
        <time>2020-08-12T10:14:19Z</time>
      </trkpt>
      <trkpt lat="48.64896" lon="7.20088">
        <ele>307.9</ele>
        <time>2020-08-12T10:14:21Z</time>
      </trkpt>
      <trkpt lat="48.64902" lon="7.20082">
        <ele>307.9</ele>
        <time>2020-08-12T10:14:23Z</time>
      </trkpt>
      <trkpt lat="48.64909" lon="7.20075">
        <ele>307.6</ele>
        <time>2020-08-12T10:14:25Z</time>
      </trkpt>
      <trkpt lat="48.64916" lon="7.2007">
        <ele>307.1</ele>
        <time>2020-08-12T10:14:27Z</time>
      </trkpt>
      <trkpt lat="48.64925" lon="7.20068">
        <ele>306.5</ele>
        <time>2020-08-12T10:14:29Z</time>
      </trkpt>
      <trkpt lat="48.64935" lon="7.20066">
        <ele>306</ele>
        <time>2020-08-12T10:14:31Z</time>
      </trkpt>
      <trkpt lat="48.64944" lon="7.20065">
        <ele>305.9</ele>
        <time>2020-08-12T10:14:33Z</time>
      </trkpt>
      <trkpt lat="48.64954" lon="7.20066">
        <ele>305.8</ele>
        <time>2020-08-12T10:14:35Z</time>
      </trkpt>
      <trkpt lat="48.64963" lon="7.2007">
        <ele>305.1</ele>
        <time>2020-08-12T10:14:37Z</time>
      </trkpt>
      <trkpt lat="48.64972" lon="7.20074">
        <ele>304.8</ele>
        <time>2020-08-12T10:14:39Z</time>
      </trkpt>
      <trkpt lat="48.64981" lon="7.2008">
        <ele>304.6</ele>
        <time>2020-08-12T10:14:41Z</time>
      </trkpt>
      <trkpt lat="48.64987" lon="7.20085">
        <ele>305.5</ele>
        <time>2020-08-12T10:14:43Z</time>
      </trkpt>
      <trkpt lat="48.64993" lon="7.20091">
        <ele>307.2</ele>
        <time>2020-08-12T10:14:45Z</time>
      </trkpt>
      <trkpt lat="48.65" lon="7.20098">
        <ele>308</ele>
        <time>2020-08-12T10:14:47Z</time>
      </trkpt>
      <trkpt lat="48.65007" lon="7.20102">
        <ele>309</ele>
        <time>2020-08-12T10:14:49Z</time>
      </trkpt>
      <trkpt lat="48.65011" lon="7.20106">
        <ele>310.2</ele>
        <time>2020-08-12T10:14:53Z</time>
      </trkpt>
      <trkpt lat="48.65014" lon="7.20112">
        <ele>311.6</ele>
        <time>2020-08-12T10:15:26Z</time>
      </trkpt>
      <trkpt lat="48.65019" lon="7.20115">
        <ele>311.6</ele>
        <time>2020-08-12T10:15:29Z</time>
      </trkpt>
      <trkpt lat="48.65025" lon="7.2012">
        <ele>312.2</ele>
        <time>2020-08-12T10:15:31Z</time>
      </trkpt>
      <trkpt lat="48.65029" lon="7.20124">
        <ele>313.2</ele>
        <time>2020-08-12T10:15:33Z</time>
      </trkpt>
      <trkpt lat="48.65035" lon="7.20129">
        <ele>313.5</ele>
        <time>2020-08-12T10:15:35Z</time>
      </trkpt>
      <trkpt lat="48.65039" lon="7.20134">
        <ele>314.1</ele>
        <time>2020-08-12T10:15:37Z</time>
      </trkpt>
      <trkpt lat="48.65048" lon="7.20142">
        <ele>314.5</ele>
        <time>2020-08-12T10:15:39Z</time>
      </trkpt>
      <trkpt lat="48.65057" lon="7.20148">
        <ele>314.5</ele>
        <time>2020-08-12T10:15:41Z</time>
      </trkpt>
      <trkpt lat="48.65067" lon="7.20154">
        <ele>314.1</ele>
        <time>2020-08-12T10:15:43Z</time>
      </trkpt>
      <trkpt lat="48.65077" lon="7.2016">
        <ele>314</ele>
        <time>2020-08-12T10:15:45Z</time>
      </trkpt>
      <trkpt lat="48.65089" lon="7.20167">
        <ele>313.3</ele>
        <time>2020-08-12T10:15:47Z</time>
      </trkpt>
      <trkpt lat="48.65101" lon="7.20173">
        <ele>312.4</ele>
        <time>2020-08-12T10:15:49Z</time>
      </trkpt>
      <trkpt lat="48.65113" lon="7.20179">
        <ele>312.2</ele>
        <time>2020-08-12T10:15:51Z</time>
      </trkpt>
      <trkpt lat="48.65125" lon="7.20183">
        <ele>312.5</ele>
        <time>2020-08-12T10:15:53Z</time>
      </trkpt>
      <trkpt lat="48.65136" lon="7.20187">
        <ele>312.2</ele>
        <time>2020-08-12T10:15:55Z</time>
      </trkpt>
      <trkpt lat="48.65146" lon="7.20192">
        <ele>311.9</ele>
        <time>2020-08-12T10:15:57Z</time>
      </trkpt>
      <trkpt lat="48.65157" lon="7.20194">
        <ele>312</ele>
        <time>2020-08-12T10:15:59Z</time>
      </trkpt>
      <trkpt lat="48.65167" lon="7.20193">
        <ele>311.7</ele>
        <time>2020-08-12T10:16:01Z</time>
      </trkpt>
      <trkpt lat="48.65178" lon="7.20193">
        <ele>311.6</ele>
        <time>2020-08-12T10:16:03Z</time>
      </trkpt>
      <trkpt lat="48.65188" lon="7.20195">
        <ele>311.3</ele>
        <time>2020-08-12T10:16:05Z</time>
      </trkpt>
      <trkpt lat="48.652" lon="7.20197">
        <ele>311.1</ele>
        <time>2020-08-12T10:16:07Z</time>
      </trkpt>
      <trkpt lat="48.65209" lon="7.202">
        <ele>310.6</ele>
        <time>2020-08-12T10:16:09Z</time>
      </trkpt>
      <trkpt lat="48.6522" lon="7.20205">
        <ele>309.9</ele>
        <time>2020-08-12T10:16:11Z</time>
      </trkpt>
      <trkpt lat="48.6523" lon="7.2021">
        <ele>309.8</ele>
        <time>2020-08-12T10:16:13Z</time>
      </trkpt>
      <trkpt lat="48.65241" lon="7.20217">
        <ele>310.1</ele>
        <time>2020-08-12T10:16:15Z</time>
      </trkpt>
      <trkpt lat="48.65245" lon="7.20222">
        <ele>309.7</ele>
        <time>2020-08-12T10:16:17Z</time>
      </trkpt>
      <trkpt lat="48.65248" lon="7.20228">
        <ele>309.4</ele>
        <time>2020-08-12T10:16:23Z</time>
      </trkpt>
      <trkpt lat="48.65253" lon="7.20232">
        <ele>307.8</ele>
        <time>2020-08-12T10:16:33Z</time>
      </trkpt>
      <trkpt lat="48.65259" lon="7.20234">
        <ele>307.4</ele>
        <time>2020-08-12T10:16:35Z</time>
      </trkpt>
      <trkpt lat="48.65266" lon="7.20237">
        <ele>307.2</ele>
        <time>2020-08-12T10:16:37Z</time>
      </trkpt>
      <trkpt lat="48.65274" lon="7.20241">
        <ele>307.4</ele>
        <time>2020-08-12T10:16:39Z</time>
      </trkpt>
      <trkpt lat="48.65284" lon="7.20246">
        <ele>307.4</ele>
        <time>2020-08-12T10:16:41Z</time>
      </trkpt>
      <trkpt lat="48.65293" lon="7.20253">
        <ele>307.6</ele>
        <time>2020-08-12T10:16:43Z</time>
      </trkpt>
      <trkpt lat="48.65301" lon="7.2026">
        <ele>308.2</ele>
        <time>2020-08-12T10:16:45Z</time>
      </trkpt>
      <trkpt lat="48.65311" lon="7.20269">
        <ele>307.8</ele>
        <time>2020-08-12T10:16:47Z</time>
      </trkpt>
      <trkpt lat="48.65322" lon="7.2028">
        <ele>307.3</ele>
        <time>2020-08-12T10:16:49Z</time>
      </trkpt>
      <trkpt lat="48.65332" lon="7.20289">
        <ele>306.8</ele>
        <time>2020-08-12T10:16:51Z</time>
      </trkpt>
      <trkpt lat="48.65344" lon="7.20299">
        <ele>306.5</ele>
        <time>2020-08-12T10:16:53Z</time>
      </trkpt>
      <trkpt lat="48.65353" lon="7.20306">
        <ele>306.3</ele>
        <time>2020-08-12T10:16:55Z</time>
      </trkpt>
      <trkpt lat="48.65364" lon="7.20313">
        <ele>306.1</ele>
        <time>2020-08-12T10:16:57Z</time>
      </trkpt>
      <trkpt lat="48.65374" lon="7.2032">
        <ele>304.9</ele>
        <time>2020-08-12T10:16:59Z</time>
      </trkpt>
      <trkpt lat="48.65384" lon="7.20325">
        <ele>304</ele>
        <time>2020-08-12T10:17:01Z</time>
      </trkpt>
      <trkpt lat="48.65393" lon="7.20329">
        <ele>303.1</ele>
        <time>2020-08-12T10:17:03Z</time>
      </trkpt>
      <trkpt lat="48.654" lon="7.20333">
        <ele>302.5</ele>
        <time>2020-08-12T10:17:05Z</time>
      </trkpt>
      <trkpt lat="48.6541" lon="7.20337">
        <ele>302</ele>
        <time>2020-08-12T10:17:07Z</time>
      </trkpt>
      <trkpt lat="48.65419" lon="7.20341">
        <ele>302</ele>
        <time>2020-08-12T10:17:09Z</time>
      </trkpt>
      <trkpt lat="48.65428" lon="7.20341">
        <ele>302</ele>
        <time>2020-08-12T10:17:11Z</time>
      </trkpt>
      <trkpt lat="48.65434" lon="7.20344">
        <ele>301.8</ele>
        <time>2020-08-12T10:17:13Z</time>
      </trkpt>
      <trkpt lat="48.6544" lon="7.20348">
        <ele>302.2</ele>
        <time>2020-08-12T10:17:15Z</time>
      </trkpt>
      <trkpt lat="48.65447" lon="7.20351">
        <ele>302.5</ele>
        <time>2020-08-12T10:17:17Z</time>
      </trkpt>
      <trkpt lat="48.65454" lon="7.20355">
        <ele>303.2</ele>
        <time>2020-08-12T10:17:19Z</time>
      </trkpt>
      <trkpt lat="48.65464" lon="7.20357">
        <ele>304</ele>
        <time>2020-08-12T10:17:21Z</time>
      </trkpt>
      <trkpt lat="48.65472" lon="7.2036">
        <ele>303.9</ele>
        <time>2020-08-12T10:17:23Z</time>
      </trkpt>
      <trkpt lat="48.65476" lon="7.20362">
        <ele>304.4</ele>
        <time>2020-08-12T10:17:26Z</time>
      </trkpt>
      <trkpt lat="48.65481" lon="7.20363">
        <ele>306.6</ele>
        <time>2020-08-12T10:17:39Z</time>
      </trkpt>
      <trkpt lat="48.65487" lon="7.20364">
        <ele>306.8</ele>
        <time>2020-08-12T10:17:42Z</time>
      </trkpt>
      <trkpt lat="48.65492" lon="7.20364">
        <ele>305.6</ele>
        <time>2020-08-12T10:17:44Z</time>
      </trkpt>
      <trkpt lat="48.65497" lon="7.20367">
        <ele>304.6</ele>
        <time>2020-08-12T10:17:47Z</time>
      </trkpt>
      <trkpt lat="48.65503" lon="7.20368">
        <ele>304.2</ele>
        <time>2020-08-12T10:17:51Z</time>
      </trkpt>
      <trkpt lat="48.65509" lon="7.20366">
        <ele>304</ele>
        <time>2020-08-12T10:17:54Z</time>
      </trkpt>
      <trkpt lat="48.65514" lon="7.20364">
        <ele>303.5</ele>
        <time>2020-08-12T10:17:56Z</time>
      </trkpt>
      <trkpt lat="48.65519" lon="7.20365">
        <ele>302.9</ele>
        <time>2020-08-12T10:18:00Z</time>
      </trkpt>
      <trkpt lat="48.65524" lon="7.20364">
        <ele>301.3</ele>
        <time>2020-08-12T10:18:06Z</time>
      </trkpt>
      <trkpt lat="48.65528" lon="7.20368">
        <ele>299.1</ele>
        <time>2020-08-12T10:18:12Z</time>
      </trkpt>
      <trkpt lat="48.65532" lon="7.20365">
        <ele>298.7</ele>
        <time>2020-08-12T10:18:17Z</time>
      </trkpt>
      <trkpt lat="48.65537" lon="7.20367">
        <ele>297.7</ele>
        <time>2020-08-12T10:18:28Z</time>
      </trkpt>
      <trkpt lat="48.65543" lon="7.20365">
        <ele>298.2</ele>
        <time>2020-08-12T10:18:34Z</time>
      </trkpt>
      <trkpt lat="48.65547" lon="7.20361">
        <ele>298.9</ele>
        <time>2020-08-12T10:18:37Z</time>
      </trkpt>
      <trkpt lat="48.65553" lon="7.20358">
        <ele>297.4</ele>
        <time>2020-08-12T10:18:40Z</time>
      </trkpt>
      <trkpt lat="48.65558" lon="7.20354">
        <ele>296.2</ele>
        <time>2020-08-12T10:18:43Z</time>
      </trkpt>
      <trkpt lat="48.65563" lon="7.20354">
        <ele>295.8</ele>
        <time>2020-08-12T10:18:57Z</time>
      </trkpt>
      <trkpt lat="48.65569" lon="7.20356">
        <ele>296.5</ele>
        <time>2020-08-12T10:19:02Z</time>
      </trkpt>
      <trkpt lat="48.65573" lon="7.20359">
        <ele>299.8</ele>
        <time>2020-08-12T10:19:10Z</time>
      </trkpt>
      <trkpt lat="48.65578" lon="7.20357">
        <ele>299.9</ele>
        <time>2020-08-12T10:19:19Z</time>
      </trkpt>
      <trkpt lat="48.65583" lon="7.2035">
        <ele>301.8</ele>
        <time>2020-08-12T10:19:23Z</time>
      </trkpt>
      <trkpt lat="48.65587" lon="7.20345">
        <ele>303</ele>
        <time>2020-08-12T10:19:25Z</time>
      </trkpt>
      <trkpt lat="48.65592" lon="7.20341">
        <ele>302.6</ele>
        <time>2020-08-12T10:19:27Z</time>
      </trkpt>
      <trkpt lat="48.65598" lon="7.20337">
        <ele>302.7</ele>
        <time>2020-08-12T10:19:29Z</time>
      </trkpt>
      <trkpt lat="48.65604" lon="7.20332">
        <ele>301.8</ele>
        <time>2020-08-12T10:19:31Z</time>
      </trkpt>
      <trkpt lat="48.6561" lon="7.20327">
        <ele>301.2</ele>
        <time>2020-08-12T10:19:33Z</time>
      </trkpt>
      <trkpt lat="48.65616" lon="7.20322">
        <ele>299.9</ele>
        <time>2020-08-12T10:19:35Z</time>
      </trkpt>
      <trkpt lat="48.65624" lon="7.20317">
        <ele>299.3</ele>
        <time>2020-08-12T10:19:37Z</time>
      </trkpt>
      <trkpt lat="48.65632" lon="7.20314">
        <ele>299.2</ele>
        <time>2020-08-12T10:19:39Z</time>
      </trkpt>
      <trkpt lat="48.65639" lon="7.20311">
        <ele>299.2</ele>
        <time>2020-08-12T10:19:41Z</time>
      </trkpt>
      <trkpt lat="48.65645" lon="7.20304">
        <ele>299.3</ele>
        <time>2020-08-12T10:19:43Z</time>
      </trkpt>
      <trkpt lat="48.65651" lon="7.20292">
        <ele>299.2</ele>
        <time>2020-08-12T10:19:45Z</time>
      </trkpt>
      <trkpt lat="48.65656" lon="7.20277">
        <ele>298.9</ele>
        <time>2020-08-12T10:19:47Z</time>
      </trkpt>
      <trkpt lat="48.65661" lon="7.20261">
        <ele>298.6</ele>
        <time>2020-08-12T10:19:49Z</time>
      </trkpt>
      <trkpt lat="48.65664" lon="7.20253">
        <ele>297.9</ele>
        <time>2020-08-12T10:19:51Z</time>
      </trkpt>
      <trkpt lat="48.65667" lon="7.20245">
        <ele>298.8</ele>
        <time>2020-08-12T10:20:13Z</time>
      </trkpt>
      <trkpt lat="48.65669" lon="7.20238">
        <ele>297.7</ele>
        <time>2020-08-12T10:20:15Z</time>
      </trkpt>
      <trkpt lat="48.65672" lon="7.20225">
        <ele>297</ele>
        <time>2020-08-12T10:20:17Z</time>
      </trkpt>
      <trkpt lat="48.65675" lon="7.20212">
        <ele>296.7</ele>
        <time>2020-08-12T10:20:19Z</time>
      </trkpt>
      <trkpt lat="48.65678" lon="7.20198">
        <ele>296.4</ele>
        <time>2020-08-12T10:20:21Z</time>
      </trkpt>
      <trkpt lat="48.6568" lon="7.20183">
        <ele>295.7</ele>
        <time>2020-08-12T10:20:23Z</time>
      </trkpt>
      <trkpt lat="48.6568" lon="7.20166">
        <ele>295.6</ele>
        <time>2020-08-12T10:20:25Z</time>
      </trkpt>
      <trkpt lat="48.6568" lon="7.20149">
        <ele>294.4</ele>
        <time>2020-08-12T10:20:27Z</time>
      </trkpt>
      <trkpt lat="48.65679" lon="7.20132">
        <ele>293.8</ele>
        <time>2020-08-12T10:20:29Z</time>
      </trkpt>
      <trkpt lat="48.65676" lon="7.20116">
        <ele>293.1</ele>
        <time>2020-08-12T10:20:31Z</time>
      </trkpt>
      <trkpt lat="48.65674" lon="7.20098">
        <ele>292.2</ele>
        <time>2020-08-12T10:20:33Z</time>
      </trkpt>
      <trkpt lat="48.65672" lon="7.20079">
        <ele>291.5</ele>
        <time>2020-08-12T10:20:35Z</time>
      </trkpt>
      <trkpt lat="48.65676" lon="7.20068">
        <ele>290.2</ele>
        <time>2020-08-12T10:20:37Z</time>
      </trkpt>
      <trkpt lat="48.65679" lon="7.20062">
        <ele>291</ele>
        <time>2020-08-12T10:20:39Z</time>
      </trkpt>
      <trkpt lat="48.65687" lon="7.20062">
        <ele>291.7</ele>
        <time>2020-08-12T10:20:42Z</time>
      </trkpt>
      <trkpt lat="48.65695" lon="7.20066">
        <ele>292.4</ele>
        <time>2020-08-12T10:20:44Z</time>
      </trkpt>
      <trkpt lat="48.65701" lon="7.20072">
        <ele>292.8</ele>
        <time>2020-08-12T10:20:46Z</time>
      </trkpt>
      <trkpt lat="48.6571" lon="7.20079">
        <ele>292.3</ele>
        <time>2020-08-12T10:20:48Z</time>
      </trkpt>
      <trkpt lat="48.65718" lon="7.20085">
        <ele>292.2</ele>
        <time>2020-08-12T10:20:50Z</time>
      </trkpt>
      <trkpt lat="48.65728" lon="7.20088">
        <ele>292.6</ele>
        <time>2020-08-12T10:20:52Z</time>
      </trkpt>
      <trkpt lat="48.65738" lon="7.20089">
        <ele>292.4</ele>
        <time>2020-08-12T10:20:54Z</time>
      </trkpt>
      <trkpt lat="48.65748" lon="7.20086">
        <ele>292.5</ele>
        <time>2020-08-12T10:20:56Z</time>
      </trkpt>
      <trkpt lat="48.65757" lon="7.20083">
        <ele>291.9</ele>
        <time>2020-08-12T10:20:58Z</time>
      </trkpt>
      <trkpt lat="48.65765" lon="7.20078">
        <ele>292</ele>
        <time>2020-08-12T10:21:00Z</time>
      </trkpt>
      <trkpt lat="48.65773" lon="7.20072">
        <ele>291.9</ele>
        <time>2020-08-12T10:21:02Z</time>
      </trkpt>
      <trkpt lat="48.65779" lon="7.20064">
        <ele>291.9</ele>
        <time>2020-08-12T10:21:04Z</time>
      </trkpt>
      <trkpt lat="48.65785" lon="7.20055">
        <ele>292.4</ele>
        <time>2020-08-12T10:21:06Z</time>
      </trkpt>
      <trkpt lat="48.65792" lon="7.20047">
        <ele>292.9</ele>
        <time>2020-08-12T10:21:08Z</time>
      </trkpt>
      <trkpt lat="48.65799" lon="7.20036">
        <ele>293.6</ele>
        <time>2020-08-12T10:21:10Z</time>
      </trkpt>
      <trkpt lat="48.65804" lon="7.20025">
        <ele>292.4</ele>
        <time>2020-08-12T10:21:12Z</time>
      </trkpt>
      <trkpt lat="48.65809" lon="7.20012">
        <ele>291.3</ele>
        <time>2020-08-12T10:21:14Z</time>
      </trkpt>
      <trkpt lat="48.65812" lon="7.19997">
        <ele>290.5</ele>
        <time>2020-08-12T10:21:16Z</time>
      </trkpt>
      <trkpt lat="48.65817" lon="7.19981">
        <ele>289.1</ele>
        <time>2020-08-12T10:21:18Z</time>
      </trkpt>
      <trkpt lat="48.65821" lon="7.19965">
        <ele>288.6</ele>
        <time>2020-08-12T10:21:20Z</time>
      </trkpt>
      <trkpt lat="48.65826" lon="7.19949">
        <ele>288</ele>
        <time>2020-08-12T10:21:22Z</time>
      </trkpt>
      <trkpt lat="48.6583" lon="7.19933">
        <ele>287.6</ele>
        <time>2020-08-12T10:21:24Z</time>
      </trkpt>
      <trkpt lat="48.65834" lon="7.19918">
        <ele>287.7</ele>
        <time>2020-08-12T10:21:26Z</time>
      </trkpt>
      <trkpt lat="48.6584" lon="7.19902">
        <ele>287.8</ele>
        <time>2020-08-12T10:21:28Z</time>
      </trkpt>
      <trkpt lat="48.65847" lon="7.19889">
        <ele>287.8</ele>
        <time>2020-08-12T10:21:30Z</time>
      </trkpt>
      <trkpt lat="48.65853" lon="7.19873">
        <ele>288.1</ele>
        <time>2020-08-12T10:21:32Z</time>
      </trkpt>
      <trkpt lat="48.65858" lon="7.19856">
        <ele>288</ele>
        <time>2020-08-12T10:21:34Z</time>
      </trkpt>
      <trkpt lat="48.65864" lon="7.1984">
        <ele>287.9</ele>
        <time>2020-08-12T10:21:36Z</time>
      </trkpt>
      <trkpt lat="48.6587" lon="7.19824">
        <ele>288.3</ele>
        <time>2020-08-12T10:21:38Z</time>
      </trkpt>
      <trkpt lat="48.65877" lon="7.19811">
        <ele>288.2</ele>
        <time>2020-08-12T10:21:40Z</time>
      </trkpt>
      <trkpt lat="48.65885" lon="7.19799">
        <ele>287.5</ele>
        <time>2020-08-12T10:21:42Z</time>
      </trkpt>
      <trkpt lat="48.65894" lon="7.19792">
        <ele>287.2</ele>
        <time>2020-08-12T10:21:44Z</time>
      </trkpt>
      <trkpt lat="48.65905" lon="7.19791">
        <ele>286.6</ele>
        <time>2020-08-12T10:21:46Z</time>
      </trkpt>
      <trkpt lat="48.65914" lon="7.19794">
        <ele>286.8</ele>
        <time>2020-08-12T10:21:48Z</time>
      </trkpt>
      <trkpt lat="48.65924" lon="7.19803">
        <ele>285.9</ele>
        <time>2020-08-12T10:21:50Z</time>
      </trkpt>
      <trkpt lat="48.65933" lon="7.19815">
        <ele>284.9</ele>
        <time>2020-08-12T10:21:52Z</time>
      </trkpt>
      <trkpt lat="48.65941" lon="7.1983">
        <ele>283.7</ele>
        <time>2020-08-12T10:21:54Z</time>
      </trkpt>
      <trkpt lat="48.65948" lon="7.19846">
        <ele>282.7</ele>
        <time>2020-08-12T10:21:56Z</time>
      </trkpt>
      <trkpt lat="48.65955" lon="7.19862">
        <ele>282.5</ele>
        <time>2020-08-12T10:21:58Z</time>
      </trkpt>
      <trkpt lat="48.65962" lon="7.1988">
        <ele>281.9</ele>
        <time>2020-08-12T10:22:00Z</time>
      </trkpt>
      <trkpt lat="48.65967" lon="7.19897">
        <ele>281</ele>
        <time>2020-08-12T10:22:02Z</time>
      </trkpt>
      <trkpt lat="48.65973" lon="7.19912">
        <ele>280.1</ele>
        <time>2020-08-12T10:22:04Z</time>
      </trkpt>
      <trkpt lat="48.65979" lon="7.19927">
        <ele>279.4</ele>
        <time>2020-08-12T10:22:06Z</time>
      </trkpt>
      <trkpt lat="48.65985" lon="7.1994">
        <ele>279.2</ele>
        <time>2020-08-12T10:22:08Z</time>
      </trkpt>
      <trkpt lat="48.65995" lon="7.19952">
        <ele>279.1</ele>
        <time>2020-08-12T10:22:10Z</time>
      </trkpt>
      <trkpt lat="48.66006" lon="7.19962">
        <ele>278.8</ele>
        <time>2020-08-12T10:22:12Z</time>
      </trkpt>
      <trkpt lat="48.66017" lon="7.19972">
        <ele>278.1</ele>
        <time>2020-08-12T10:22:14Z</time>
      </trkpt>
      <trkpt lat="48.66028" lon="7.1998">
        <ele>277.6</ele>
        <time>2020-08-12T10:22:16Z</time>
      </trkpt>
      <trkpt lat="48.66041" lon="7.19988">
        <ele>277.2</ele>
        <time>2020-08-12T10:22:18Z</time>
      </trkpt>
      <trkpt lat="48.66053" lon="7.19995">
        <ele>277.3</ele>
        <time>2020-08-12T10:22:20Z</time>
      </trkpt>
      <trkpt lat="48.66065" lon="7.2">
        <ele>278.8</ele>
        <time>2020-08-12T10:22:22Z</time>
      </trkpt>
      <trkpt lat="48.66076" lon="7.20005">
        <ele>279.8</ele>
        <time>2020-08-12T10:22:24Z</time>
      </trkpt>
      <trkpt lat="48.66089" lon="7.20011">
        <ele>280.7</ele>
        <time>2020-08-12T10:22:26Z</time>
      </trkpt>
      <trkpt lat="48.66101" lon="7.20018">
        <ele>281.4</ele>
        <time>2020-08-12T10:22:28Z</time>
      </trkpt>
      <trkpt lat="48.66113" lon="7.2002">
        <ele>281.9</ele>
        <time>2020-08-12T10:22:30Z</time>
      </trkpt>
      <trkpt lat="48.66124" lon="7.20017">
        <ele>282.2</ele>
        <time>2020-08-12T10:22:32Z</time>
      </trkpt>
      <trkpt lat="48.66136" lon="7.20013">
        <ele>281.7</ele>
        <time>2020-08-12T10:22:34Z</time>
      </trkpt>
      <trkpt lat="48.66147" lon="7.20007">
        <ele>281.2</ele>
        <time>2020-08-12T10:22:36Z</time>
      </trkpt>
      <trkpt lat="48.66157" lon="7.2">
        <ele>281.2</ele>
        <time>2020-08-12T10:22:38Z</time>
      </trkpt>
      <trkpt lat="48.66167" lon="7.19992">
        <ele>281.4</ele>
        <time>2020-08-12T10:22:40Z</time>
      </trkpt>
      <trkpt lat="48.66177" lon="7.19984">
        <ele>281.1</ele>
        <time>2020-08-12T10:22:42Z</time>
      </trkpt>
      <trkpt lat="48.66187" lon="7.19975">
        <ele>280.8</ele>
        <time>2020-08-12T10:22:44Z</time>
      </trkpt>
      <trkpt lat="48.66197" lon="7.19966">
        <ele>280.7</ele>
        <time>2020-08-12T10:22:46Z</time>
      </trkpt>
      <trkpt lat="48.66208" lon="7.19958">
        <ele>280.3</ele>
        <time>2020-08-12T10:22:48Z</time>
      </trkpt>
      <trkpt lat="48.66219" lon="7.1995">
        <ele>280.2</ele>
        <time>2020-08-12T10:22:50Z</time>
      </trkpt>
      <trkpt lat="48.6623" lon="7.19943">
        <ele>279.7</ele>
        <time>2020-08-12T10:22:52Z</time>
      </trkpt>
      <trkpt lat="48.66241" lon="7.19934">
        <ele>279.8</ele>
        <time>2020-08-12T10:22:54Z</time>
      </trkpt>
      <trkpt lat="48.6625" lon="7.19921">
        <ele>279.6</ele>
        <time>2020-08-12T10:22:56Z</time>
      </trkpt>
      <trkpt lat="48.66258" lon="7.19912">
        <ele>279.6</ele>
        <time>2020-08-12T10:22:58Z</time>
      </trkpt>
      <trkpt lat="48.66268" lon="7.19897">
        <ele>279.5</ele>
        <time>2020-08-12T10:23:01Z</time>
      </trkpt>
      <trkpt lat="48.66277" lon="7.19878">
        <ele>279.5</ele>
        <time>2020-08-12T10:23:04Z</time>
      </trkpt>
      <trkpt lat="48.66283" lon="7.19857">
        <ele>279.1</ele>
        <time>2020-08-12T10:23:07Z</time>
      </trkpt>
      <trkpt lat="48.66286" lon="7.19842">
        <ele>279.1</ele>
        <time>2020-08-12T10:23:09Z</time>
      </trkpt>
      <trkpt lat="48.6629" lon="7.19828">
        <ele>278.7</ele>
        <time>2020-08-12T10:23:11Z</time>
      </trkpt>
      <trkpt lat="48.66291" lon="7.19814">
        <ele>278.4</ele>
        <time>2020-08-12T10:23:13Z</time>
      </trkpt>
      <trkpt lat="48.6629" lon="7.19791">
        <ele>277.9</ele>
        <time>2020-08-12T10:23:16Z</time>
      </trkpt>
      <trkpt lat="48.66288" lon="7.19778">
        <ele>278.6</ele>
        <time>2020-08-12T10:23:18Z</time>
      </trkpt>
      <trkpt lat="48.66285" lon="7.19765">
        <ele>278.7</ele>
        <time>2020-08-12T10:23:20Z</time>
      </trkpt>
      <trkpt lat="48.66284" lon="7.19748">
        <ele>278.7</ele>
        <time>2020-08-12T10:23:22Z</time>
      </trkpt>
      <trkpt lat="48.66282" lon="7.19733">
        <ele>278.5</ele>
        <time>2020-08-12T10:23:24Z</time>
      </trkpt>
      <trkpt lat="48.66281" lon="7.19717">
        <ele>278.1</ele>
        <time>2020-08-12T10:23:26Z</time>
      </trkpt>
      <trkpt lat="48.66281" lon="7.19694">
        <ele>277.4</ele>
        <time>2020-08-12T10:23:29Z</time>
      </trkpt>
      <trkpt lat="48.66283" lon="7.19678">
        <ele>277.5</ele>
        <time>2020-08-12T10:23:31Z</time>
      </trkpt>
      <trkpt lat="48.66288" lon="7.19664">
        <ele>277.2</ele>
        <time>2020-08-12T10:23:33Z</time>
      </trkpt>
      <trkpt lat="48.66298" lon="7.19645">
        <ele>279.2</ele>
        <time>2020-08-12T10:23:36Z</time>
      </trkpt>
      <trkpt lat="48.66306" lon="7.19634">
        <ele>280.5</ele>
        <time>2020-08-12T10:23:38Z</time>
      </trkpt>
      <trkpt lat="48.66316" lon="7.19625">
        <ele>281.4</ele>
        <time>2020-08-12T10:23:40Z</time>
      </trkpt>
      <trkpt lat="48.66326" lon="7.19617">
        <ele>282.2</ele>
        <time>2020-08-12T10:23:42Z</time>
      </trkpt>
      <trkpt lat="48.66342" lon="7.19606">
        <ele>282.1</ele>
        <time>2020-08-12T10:23:45Z</time>
      </trkpt>
      <trkpt lat="48.66353" lon="7.19601">
        <ele>282</ele>
        <time>2020-08-12T10:23:47Z</time>
      </trkpt>
      <trkpt lat="48.66365" lon="7.19597">
        <ele>280.7</ele>
        <time>2020-08-12T10:23:49Z</time>
      </trkpt>
      <trkpt lat="48.66375" lon="7.19594">
        <ele>280.1</ele>
        <time>2020-08-12T10:23:51Z</time>
      </trkpt>
      <trkpt lat="48.66385" lon="7.1959">
        <ele>279.4</ele>
        <time>2020-08-12T10:23:53Z</time>
      </trkpt>
      <trkpt lat="48.66397" lon="7.19587">
        <ele>279.2</ele>
        <time>2020-08-12T10:23:55Z</time>
      </trkpt>
      <trkpt lat="48.66408" lon="7.19584">
        <ele>279.1</ele>
        <time>2020-08-12T10:23:57Z</time>
      </trkpt>
      <trkpt lat="48.66421" lon="7.19584">
        <ele>279.1</ele>
        <time>2020-08-12T10:23:59Z</time>
      </trkpt>
      <trkpt lat="48.66432" lon="7.19586">
        <ele>279.2</ele>
        <time>2020-08-12T10:24:01Z</time>
      </trkpt>
      <trkpt lat="48.66444" lon="7.19589">
        <ele>279.2</ele>
        <time>2020-08-12T10:24:03Z</time>
      </trkpt>
      <trkpt lat="48.66455" lon="7.19591">
        <ele>279.6</ele>
        <time>2020-08-12T10:24:05Z</time>
      </trkpt>
      <trkpt lat="48.66466" lon="7.19593">
        <ele>279.5</ele>
        <time>2020-08-12T10:24:07Z</time>
      </trkpt>
      <trkpt lat="48.66482" lon="7.19592">
        <ele>279.2</ele>
        <time>2020-08-12T10:24:10Z</time>
      </trkpt>
      <trkpt lat="48.66489" lon="7.19593">
        <ele>278.8</ele>
        <time>2020-08-12T10:24:12Z</time>
      </trkpt>
      <trkpt lat="48.665" lon="7.19594">
        <ele>278.3</ele>
        <time>2020-08-12T10:24:14Z</time>
      </trkpt>
      <trkpt lat="48.66515" lon="7.19594">
        <ele>277.8</ele>
        <time>2020-08-12T10:24:17Z</time>
      </trkpt>
      <trkpt lat="48.66521" lon="7.19594">
        <ele>277</ele>
        <time>2020-08-12T10:24:19Z</time>
      </trkpt>
      <trkpt lat="48.66526" lon="7.19594">
        <ele>280.2</ele>
        <time>2020-08-12T10:24:59Z</time>
      </trkpt>
      <trkpt lat="48.66531" lon="7.19595">
        <ele>279</ele>
        <time>2020-08-12T10:25:11Z</time>
      </trkpt>
      <trkpt lat="48.66538" lon="7.19597">
        <ele>276.8</ele>
        <time>2020-08-12T10:25:14Z</time>
      </trkpt>
      <trkpt lat="48.6655" lon="7.19602">
        <ele>275.1</ele>
        <time>2020-08-12T10:25:17Z</time>
      </trkpt>
      <trkpt lat="48.66561" lon="7.19607">
        <ele>274.6</ele>
        <time>2020-08-12T10:25:19Z</time>
      </trkpt>
      <trkpt lat="48.6657" lon="7.19611">
        <ele>274.2</ele>
        <time>2020-08-12T10:25:21Z</time>
      </trkpt>
      <trkpt lat="48.66578" lon="7.19617">
        <ele>272.5</ele>
        <time>2020-08-12T10:25:23Z</time>
      </trkpt>
      <trkpt lat="48.66588" lon="7.19623">
        <ele>271.7</ele>
        <time>2020-08-12T10:25:25Z</time>
      </trkpt>
      <trkpt lat="48.66596" lon="7.19626">
        <ele>271.1</ele>
        <time>2020-08-12T10:25:27Z</time>
      </trkpt>
      <trkpt lat="48.66606" lon="7.1963">
        <ele>271</ele>
        <time>2020-08-12T10:25:29Z</time>
      </trkpt>
      <trkpt lat="48.66615" lon="7.19634">
        <ele>270.9</ele>
        <time>2020-08-12T10:25:31Z</time>
      </trkpt>
      <trkpt lat="48.66625" lon="7.19642">
        <ele>269.1</ele>
        <time>2020-08-12T10:25:34Z</time>
      </trkpt>
      <trkpt lat="48.66631" lon="7.19647">
        <ele>269.7</ele>
        <time>2020-08-12T10:25:36Z</time>
      </trkpt>
      <trkpt lat="48.66636" lon="7.19652">
        <ele>269</ele>
        <time>2020-08-12T10:25:38Z</time>
      </trkpt>
      <trkpt lat="48.66641" lon="7.19655">
        <ele>269.3</ele>
        <time>2020-08-12T10:25:44Z</time>
      </trkpt>
      <trkpt lat="48.66645" lon="7.19658">
        <ele>269.3</ele>
        <time>2020-08-12T10:25:57Z</time>
      </trkpt>
      <trkpt lat="48.66654" lon="7.19661">
        <ele>269.6</ele>
        <time>2020-08-12T10:25:59Z</time>
      </trkpt>
      <trkpt lat="48.66665" lon="7.19663">
        <ele>269.6</ele>
        <time>2020-08-12T10:26:02Z</time>
      </trkpt>
      <trkpt lat="48.66676" lon="7.19666">
        <ele>269.4</ele>
        <time>2020-08-12T10:26:05Z</time>
      </trkpt>
      <trkpt lat="48.66684" lon="7.19669">
        <ele>269.2</ele>
        <time>2020-08-12T10:26:07Z</time>
      </trkpt>
      <trkpt lat="48.66691" lon="7.19672">
        <ele>268.9</ele>
        <time>2020-08-12T10:26:09Z</time>
      </trkpt>
      <trkpt lat="48.667" lon="7.19678">
        <ele>269.3</ele>
        <time>2020-08-12T10:26:12Z</time>
      </trkpt>
      <trkpt lat="48.66707" lon="7.19683">
        <ele>270.3</ele>
        <time>2020-08-12T10:26:14Z</time>
      </trkpt>
      <trkpt lat="48.6672" lon="7.19692">
        <ele>271.8</ele>
        <time>2020-08-12T10:26:17Z</time>
      </trkpt>
      <trkpt lat="48.66725" lon="7.19694">
        <ele>272.8</ele>
        <time>2020-08-12T10:26:19Z</time>
      </trkpt>
      <trkpt lat="48.66735" lon="7.197">
        <ele>273.3</ele>
        <time>2020-08-12T10:26:21Z</time>
      </trkpt>
      <trkpt lat="48.66746" lon="7.19708">
        <ele>273.9</ele>
        <time>2020-08-12T10:26:24Z</time>
      </trkpt>
      <trkpt lat="48.66754" lon="7.19713">
        <ele>319.3</ele>
        <time>2020-08-12T10:26:26Z</time>
      </trkpt>
      <trkpt lat="48.66761" lon="7.19717">
        <ele>319.6</ele>
        <time>2020-08-12T10:26:28Z</time>
      </trkpt>
      <trkpt lat="48.66771" lon="7.19722">
        <ele>318.6</ele>
        <time>2020-08-12T10:26:30Z</time>
      </trkpt>
      <trkpt lat="48.66781" lon="7.19726">
        <ele>315</ele>
        <time>2020-08-12T10:26:32Z</time>
      </trkpt>
      <trkpt lat="48.66791" lon="7.19728">
        <ele>309.8</ele>
        <time>2020-08-12T10:26:34Z</time>
      </trkpt>
      <trkpt lat="48.66799" lon="7.19729">
        <ele>305.9</ele>
        <time>2020-08-12T10:26:36Z</time>
      </trkpt>
      <trkpt lat="48.66808" lon="7.19729">
        <ele>300.3</ele>
        <time>2020-08-12T10:26:38Z</time>
      </trkpt>
      <trkpt lat="48.66818" lon="7.1973">
        <ele>294.6</ele>
        <time>2020-08-12T10:26:40Z</time>
      </trkpt>
      <trkpt lat="48.66828" lon="7.1973">
        <ele>289.7</ele>
        <time>2020-08-12T10:26:42Z</time>
      </trkpt>
      <trkpt lat="48.66837" lon="7.19729">
        <ele>285.4</ele>
        <time>2020-08-12T10:26:44Z</time>
      </trkpt>
      <trkpt lat="48.66847" lon="7.19727">
        <ele>281.8</ele>
        <time>2020-08-12T10:26:46Z</time>
      </trkpt>
      <trkpt lat="48.66856" lon="7.19725">
        <ele>278.7</ele>
        <time>2020-08-12T10:26:48Z</time>
      </trkpt>
      <trkpt lat="48.66865" lon="7.19722">
        <ele>275.6</ele>
        <time>2020-08-12T10:26:50Z</time>
      </trkpt>
      <trkpt lat="48.66875" lon="7.19721">
        <ele>273.4</ele>
        <time>2020-08-12T10:26:52Z</time>
      </trkpt>
      <trkpt lat="48.66883" lon="7.19717">
        <ele>309.8</ele>
        <time>2020-08-12T10:26:54Z</time>
      </trkpt>
      <trkpt lat="48.66892" lon="7.19714">
        <ele>305.7</ele>
        <time>2020-08-12T10:26:56Z</time>
      </trkpt>
      <trkpt lat="48.669" lon="7.19712">
        <ele>308.9</ele>
        <time>2020-08-12T10:26:58Z</time>
      </trkpt>
      <trkpt lat="48.66907" lon="7.19712">
        <ele>307.8</ele>
        <time>2020-08-12T10:27:00Z</time>
      </trkpt>
      <trkpt lat="48.66918" lon="7.19707">
        <ele>302.3</ele>
        <time>2020-08-12T10:27:02Z</time>
      </trkpt>
      <trkpt lat="48.66928" lon="7.19702">
        <ele>296.6</ele>
        <time>2020-08-12T10:27:04Z</time>
      </trkpt>
      <trkpt lat="48.66938" lon="7.19693">
        <ele>291.9</ele>
        <time>2020-08-12T10:27:06Z</time>
      </trkpt>
      <trkpt lat="48.6695" lon="7.1969">
        <ele>287.8</ele>
        <time>2020-08-12T10:27:08Z</time>
      </trkpt>
      <trkpt lat="48.66962" lon="7.19688">
        <ele>314</ele>
        <time>2020-08-12T10:27:10Z</time>
      </trkpt>
      <trkpt lat="48.66974" lon="7.19685">
        <ele>314.3</ele>
        <time>2020-08-12T10:27:12Z</time>
      </trkpt>
      <trkpt lat="48.66985" lon="7.19682">
        <ele>310.1</ele>
        <time>2020-08-12T10:27:14Z</time>
      </trkpt>
      <trkpt lat="48.66996" lon="7.19681">
        <ele>304.3</ele>
        <time>2020-08-12T10:27:16Z</time>
      </trkpt>
      <trkpt lat="48.67007" lon="7.1968">
        <ele>299.6</ele>
        <time>2020-08-12T10:27:18Z</time>
      </trkpt>
      <trkpt lat="48.67019" lon="7.19681">
        <ele>295.6</ele>
        <time>2020-08-12T10:27:20Z</time>
      </trkpt>
      <trkpt lat="48.6703" lon="7.1968">
        <ele>292.5</ele>
        <time>2020-08-12T10:27:22Z</time>
      </trkpt>
      <trkpt lat="48.67042" lon="7.19683">
        <ele>288.6</ele>
        <time>2020-08-12T10:27:24Z</time>
      </trkpt>
      <trkpt lat="48.67052" lon="7.19686">
        <ele>285.3</ele>
        <time>2020-08-12T10:27:26Z</time>
      </trkpt>
      <trkpt lat="48.67063" lon="7.19689">
        <ele>283.1</ele>
        <time>2020-08-12T10:27:28Z</time>
      </trkpt>
      <trkpt lat="48.67076" lon="7.19692">
        <ele>280.3</ele>
        <time>2020-08-12T10:27:30Z</time>
      </trkpt>
      <trkpt lat="48.67095" lon="7.197">
        <ele>277.2</ele>
        <time>2020-08-12T10:27:33Z</time>
      </trkpt>
      <trkpt lat="48.67107" lon="7.19703">
        <ele>275.8</ele>
        <time>2020-08-12T10:27:35Z</time>
      </trkpt>
      <trkpt lat="48.67119" lon="7.19707">
        <ele>274.9</ele>
        <time>2020-08-12T10:27:37Z</time>
      </trkpt>
      <trkpt lat="48.67129" lon="7.1971">
        <ele>274.3</ele>
        <time>2020-08-12T10:27:39Z</time>
      </trkpt>
      <trkpt lat="48.67142" lon="7.19712">
        <ele>274.5</ele>
        <time>2020-08-12T10:27:41Z</time>
      </trkpt>
      <trkpt lat="48.67155" lon="7.19714">
        <ele>274.4</ele>
        <time>2020-08-12T10:27:43Z</time>
      </trkpt>
      <trkpt lat="48.67166" lon="7.19716">
        <ele>274.9</ele>
        <time>2020-08-12T10:27:45Z</time>
      </trkpt>
      <trkpt lat="48.67176" lon="7.19717">
        <ele>275.4</ele>
        <time>2020-08-12T10:27:47Z</time>
      </trkpt>
      <trkpt lat="48.67188" lon="7.1972">
        <ele>276</ele>
        <time>2020-08-12T10:27:49Z</time>
      </trkpt>
      <trkpt lat="48.67197" lon="7.19723">
        <ele>276.8</ele>
        <time>2020-08-12T10:27:51Z</time>
      </trkpt>
      <trkpt lat="48.67202" lon="7.19726">
        <ele>276.9</ele>
        <time>2020-08-12T10:27:54Z</time>
      </trkpt>
      <trkpt lat="48.67209" lon="7.19726">
        <ele>274.6</ele>
        <time>2020-08-12T10:28:11Z</time>
      </trkpt>
      <trkpt lat="48.67214" lon="7.19726">
        <ele>274.2</ele>
        <time>2020-08-12T10:28:13Z</time>
      </trkpt>
      <trkpt lat="48.6722" lon="7.19727">
        <ele>273.7</ele>
        <time>2020-08-12T10:28:15Z</time>
      </trkpt>
      <trkpt lat="48.67228" lon="7.19728">
        <ele>273.1</ele>
        <time>2020-08-12T10:28:17Z</time>
      </trkpt>
      <trkpt lat="48.67238" lon="7.19728">
        <ele>272.1</ele>
        <time>2020-08-12T10:28:19Z</time>
      </trkpt>
      <trkpt lat="48.67248" lon="7.19728">
        <ele>271.7</ele>
        <time>2020-08-12T10:28:21Z</time>
      </trkpt>
      <trkpt lat="48.67257" lon="7.19728">
        <ele>271.7</ele>
        <time>2020-08-12T10:28:23Z</time>
      </trkpt>
      <trkpt lat="48.67267" lon="7.19729">
        <ele>272.2</ele>
        <time>2020-08-12T10:28:25Z</time>
      </trkpt>
      <trkpt lat="48.67278" lon="7.19731">
        <ele>272.8</ele>
        <time>2020-08-12T10:28:27Z</time>
      </trkpt>
      <trkpt lat="48.67291" lon="7.19732">
        <ele>273.4</ele>
        <time>2020-08-12T10:28:29Z</time>
      </trkpt>
      <trkpt lat="48.67305" lon="7.19734">
        <ele>273.5</ele>
        <time>2020-08-12T10:28:31Z</time>
      </trkpt>
      <trkpt lat="48.67317" lon="7.19735">
        <ele>273.4</ele>
        <time>2020-08-12T10:28:33Z</time>
      </trkpt>
      <trkpt lat="48.67329" lon="7.19736">
        <ele>272.9</ele>
        <time>2020-08-12T10:28:35Z</time>
      </trkpt>
      <trkpt lat="48.6734" lon="7.19739">
        <ele>272.3</ele>
        <time>2020-08-12T10:28:37Z</time>
      </trkpt>
      <trkpt lat="48.67351" lon="7.19742">
        <ele>271.9</ele>
        <time>2020-08-12T10:28:39Z</time>
      </trkpt>
      <trkpt lat="48.67363" lon="7.19745">
        <ele>271.1</ele>
        <time>2020-08-12T10:28:41Z</time>
      </trkpt>
      <trkpt lat="48.67373" lon="7.19752">
        <ele>270</ele>
        <time>2020-08-12T10:28:43Z</time>
      </trkpt>
      <trkpt lat="48.67383" lon="7.19758">
        <ele>269.6</ele>
        <time>2020-08-12T10:28:45Z</time>
      </trkpt>
      <trkpt lat="48.67391" lon="7.19763">
        <ele>269.1</ele>
        <time>2020-08-12T10:28:47Z</time>
      </trkpt>
      <trkpt lat="48.674" lon="7.19771">
        <ele>268.6</ele>
        <time>2020-08-12T10:28:49Z</time>
      </trkpt>
      <trkpt lat="48.67409" lon="7.19778">
        <ele>268.3</ele>
        <time>2020-08-12T10:28:51Z</time>
      </trkpt>
      <trkpt lat="48.6742" lon="7.19785">
        <ele>269</ele>
        <time>2020-08-12T10:28:53Z</time>
      </trkpt>
      <trkpt lat="48.6743" lon="7.19793">
        <ele>269.3</ele>
        <time>2020-08-12T10:28:55Z</time>
      </trkpt>
      <trkpt lat="48.67439" lon="7.198">
        <ele>269.7</ele>
        <time>2020-08-12T10:28:57Z</time>
      </trkpt>
      <trkpt lat="48.6745" lon="7.19807">
        <ele>269.3</ele>
        <time>2020-08-12T10:28:59Z</time>
      </trkpt>
      <trkpt lat="48.67465" lon="7.19814">
        <ele>268.8</ele>
        <time>2020-08-12T10:29:01Z</time>
      </trkpt>
      <trkpt lat="48.67476" lon="7.19819">
        <ele>268.6</ele>
        <time>2020-08-12T10:29:03Z</time>
      </trkpt>
      <trkpt lat="48.67484" lon="7.19824">
        <ele>268.4</ele>
        <time>2020-08-12T10:29:05Z</time>
      </trkpt>
      <trkpt lat="48.67495" lon="7.1983">
        <ele>267.6</ele>
        <time>2020-08-12T10:29:07Z</time>
      </trkpt>
      <trkpt lat="48.67506" lon="7.19834">
        <ele>266.7</ele>
        <time>2020-08-12T10:29:09Z</time>
      </trkpt>
      <trkpt lat="48.67515" lon="7.19839">
        <ele>266</ele>
        <time>2020-08-12T10:29:11Z</time>
      </trkpt>
      <trkpt lat="48.67524" lon="7.19842">
        <ele>264.5</ele>
        <time>2020-08-12T10:29:13Z</time>
      </trkpt>
      <trkpt lat="48.67533" lon="7.19844">
        <ele>263.7</ele>
        <time>2020-08-12T10:29:15Z</time>
      </trkpt>
      <trkpt lat="48.67541" lon="7.19843">
        <ele>263.1</ele>
        <time>2020-08-12T10:29:17Z</time>
      </trkpt>
      <trkpt lat="48.67551" lon="7.19845">
        <ele>263</ele>
        <time>2020-08-12T10:29:19Z</time>
      </trkpt>
      <trkpt lat="48.67559" lon="7.19847">
        <ele>292.2</ele>
        <time>2020-08-12T10:29:21Z</time>
      </trkpt>
      <trkpt lat="48.67565" lon="7.19851">
        <ele>293.2</ele>
        <time>2020-08-12T10:29:23Z</time>
      </trkpt>
      <trkpt lat="48.67572" lon="7.19856">
        <ele>289.9</ele>
        <time>2020-08-12T10:29:25Z</time>
      </trkpt>
      <trkpt lat="48.6758" lon="7.1986">
        <ele>286.7</ele>
        <time>2020-08-12T10:29:27Z</time>
      </trkpt>
      <trkpt lat="48.67589" lon="7.19865">
        <ele>283.6</ele>
        <time>2020-08-12T10:29:29Z</time>
      </trkpt>
      <trkpt lat="48.67599" lon="7.19871">
        <ele>280.1</ele>
        <time>2020-08-12T10:29:31Z</time>
      </trkpt>
      <trkpt lat="48.67608" lon="7.19874">
        <ele>276.9</ele>
        <time>2020-08-12T10:29:33Z</time>
      </trkpt>
      <trkpt lat="48.67617" lon="7.19876">
        <ele>274.7</ele>
        <time>2020-08-12T10:29:35Z</time>
      </trkpt>
      <trkpt lat="48.67627" lon="7.19876">
        <ele>273.6</ele>
        <time>2020-08-12T10:29:37Z</time>
      </trkpt>
      <trkpt lat="48.67636" lon="7.19877">
        <ele>273.3</ele>
        <time>2020-08-12T10:29:39Z</time>
      </trkpt>
      <trkpt lat="48.67643" lon="7.19878">
        <ele>273.4</ele>
        <time>2020-08-12T10:29:41Z</time>
      </trkpt>
      <trkpt lat="48.67648" lon="7.19879">
        <ele>272.5</ele>
        <time>2020-08-12T10:29:45Z</time>
      </trkpt>
      <trkpt lat="48.67652" lon="7.19883">
        <ele>270.8</ele>
        <time>2020-08-12T10:30:37Z</time>
      </trkpt>
      <trkpt lat="48.67659" lon="7.19883">
        <ele>271.2</ele>
        <time>2020-08-12T10:30:40Z</time>
      </trkpt>
      <trkpt lat="48.67664" lon="7.19883">
        <ele>271.6</ele>
        <time>2020-08-12T10:30:42Z</time>
      </trkpt>
      <trkpt lat="48.67669" lon="7.1988">
        <ele>270.7</ele>
        <time>2020-08-12T10:30:49Z</time>
      </trkpt>
      <trkpt lat="48.67673" lon="7.19877">
        <ele>270.4</ele>
        <time>2020-08-12T10:30:51Z</time>
      </trkpt>
      <trkpt lat="48.6768" lon="7.19874">
        <ele>270.1</ele>
        <time>2020-08-12T10:30:53Z</time>
      </trkpt>
      <trkpt lat="48.67689" lon="7.19869">
        <ele>269.7</ele>
        <time>2020-08-12T10:30:55Z</time>
      </trkpt>
      <trkpt lat="48.677" lon="7.19863">
        <ele>269.2</ele>
        <time>2020-08-12T10:30:57Z</time>
      </trkpt>
      <trkpt lat="48.67712" lon="7.19856">
        <ele>268.4</ele>
        <time>2020-08-12T10:30:59Z</time>
      </trkpt>
      <trkpt lat="48.67724" lon="7.19848">
        <ele>267.5</ele>
        <time>2020-08-12T10:31:01Z</time>
      </trkpt>
      <trkpt lat="48.67738" lon="7.19837">
        <ele>266.8</ele>
        <time>2020-08-12T10:31:03Z</time>
      </trkpt>
      <trkpt lat="48.67754" lon="7.19824">
        <ele>265.8</ele>
        <time>2020-08-12T10:31:05Z</time>
      </trkpt>
      <trkpt lat="48.67771" lon="7.19809">
        <ele>264.7</ele>
        <time>2020-08-12T10:31:07Z</time>
      </trkpt>
      <trkpt lat="48.67788" lon="7.19795">
        <ele>264</ele>
        <time>2020-08-12T10:31:09Z</time>
      </trkpt>
      <trkpt lat="48.67804" lon="7.19783">
        <ele>263</ele>
        <time>2020-08-12T10:31:11Z</time>
      </trkpt>
      <trkpt lat="48.67821" lon="7.19769">
        <ele>261.8</ele>
        <time>2020-08-12T10:31:13Z</time>
      </trkpt>
      <trkpt lat="48.67839" lon="7.19756">
        <ele>260.5</ele>
        <time>2020-08-12T10:31:15Z</time>
      </trkpt>
      <trkpt lat="48.67857" lon="7.19744">
        <ele>259.1</ele>
        <time>2020-08-12T10:31:17Z</time>
      </trkpt>
      <trkpt lat="48.67874" lon="7.19732">
        <ele>257.9</ele>
        <time>2020-08-12T10:31:19Z</time>
      </trkpt>
      <trkpt lat="48.67892" lon="7.19721">
        <ele>256.8</ele>
        <time>2020-08-12T10:31:21Z</time>
      </trkpt>
      <trkpt lat="48.67908" lon="7.19711">
        <ele>256.5</ele>
        <time>2020-08-12T10:31:23Z</time>
      </trkpt>
      <trkpt lat="48.67923" lon="7.19705">
        <ele>255.4</ele>
        <time>2020-08-12T10:31:25Z</time>
      </trkpt>
      <trkpt lat="48.67936" lon="7.197">
        <ele>255</ele>
        <time>2020-08-12T10:31:27Z</time>
      </trkpt>
      <trkpt lat="48.6795" lon="7.19696">
        <ele>254.2</ele>
        <time>2020-08-12T10:31:29Z</time>
      </trkpt>
      <trkpt lat="48.67965" lon="7.19693">
        <ele>253.7</ele>
        <time>2020-08-12T10:31:31Z</time>
      </trkpt>
      <trkpt lat="48.67981" lon="7.19694">
        <ele>253</ele>
        <time>2020-08-12T10:31:33Z</time>
      </trkpt>
      <trkpt lat="48.67997" lon="7.19696">
        <ele>252.2</ele>
        <time>2020-08-12T10:31:35Z</time>
      </trkpt>
      <trkpt lat="48.68014" lon="7.19701">
        <ele>251.2</ele>
        <time>2020-08-12T10:31:37Z</time>
      </trkpt>
      <trkpt lat="48.68032" lon="7.19707">
        <ele>250.3</ele>
        <time>2020-08-12T10:31:39Z</time>
      </trkpt>
      <trkpt lat="48.68049" lon="7.19716">
        <ele>249.2</ele>
        <time>2020-08-12T10:31:41Z</time>
      </trkpt>
      <trkpt lat="48.68067" lon="7.19723">
        <ele>249</ele>
        <time>2020-08-12T10:31:43Z</time>
      </trkpt>
      <trkpt lat="48.68085" lon="7.19727">
        <ele>248.5</ele>
        <time>2020-08-12T10:31:45Z</time>
      </trkpt>
      <trkpt lat="48.68105" lon="7.19727">
        <ele>247.7</ele>
        <time>2020-08-12T10:31:47Z</time>
      </trkpt>
      <trkpt lat="48.68124" lon="7.19726">
        <ele>246.3</ele>
        <time>2020-08-12T10:31:49Z</time>
      </trkpt>
      <trkpt lat="48.68143" lon="7.19724">
        <ele>245</ele>
        <time>2020-08-12T10:31:51Z</time>
      </trkpt>
      <trkpt lat="48.6816" lon="7.19722">
        <ele>244.2</ele>
        <time>2020-08-12T10:31:53Z</time>
      </trkpt>
      <trkpt lat="48.68172" lon="7.19721">
        <ele>243.3</ele>
        <time>2020-08-12T10:31:55Z</time>
      </trkpt>
      <trkpt lat="48.68181" lon="7.19723">
        <ele>243.1</ele>
        <time>2020-08-12T10:31:57Z</time>
      </trkpt>
      <trkpt lat="48.68183" lon="7.19731">
        <ele>243.5</ele>
        <time>2020-08-12T10:32:00Z</time>
      </trkpt>
    </trkseg>
  </trk>
  <trk>
    <name><![CDATA[secteur Saverne - Dabo - Petite Pierre_13]]></name>
    <trkseg>
      <trkpt lat="48.67305" lon="7.25222">
        <ele>487.2</ele>
        <time>2020-08-12T06:35:47Z</time>
      </trkpt>
      <trkpt lat="48.67305" lon="7.25222">
        <ele>487.2</ele>
        <time>2020-08-12T06:35:47Z</time>
      </trkpt>
      <trkpt lat="48.67305" lon="7.25222">
        <ele>487.2</ele>
        <time>2020-08-12T06:35:47Z</time>
      </trkpt>
      <trkpt lat="48.67305" lon="7.25222">
        <ele>487.2</ele>
        <time>2020-08-12T06:35:47Z</time>
      </trkpt>
      <trkpt lat="48.67305" lon="7.25222">
        <ele>487.2</ele>
        <time>2020-08-12T06:35:47Z</time>
      </trkpt>
      <trkpt lat="48.67305" lon="7.25222">
        <ele>487.2</ele>
        <time>2020-08-12T06:35:47Z</time>
      </trkpt>
      <trkpt lat="48.67305" lon="7.25222">
        <ele>487.2</ele>
        <time>2020-08-12T06:35:47Z</time>
      </trkpt>
      <trkpt lat="48.67305" lon="7.25222">
        <ele>487.2</ele>
        <time>2020-08-12T06:35:47Z</time>
      </trkpt>
      <trkpt lat="48.673" lon="7.25221">
        <ele>486.7</ele>
        <time>2020-08-12T06:35:49Z</time>
      </trkpt>
      <trkpt lat="48.67295" lon="7.25219">
        <ele>486.5</ele>
        <time>2020-08-12T06:35:53Z</time>
      </trkpt>
      <trkpt lat="48.6729" lon="7.25219">
        <ele>483.8</ele>
        <time>2020-08-12T06:36:13Z</time>
      </trkpt>
      <trkpt lat="48.67286" lon="7.25217">
        <ele>481.4</ele>
        <time>2020-08-12T06:36:20Z</time>
      </trkpt>
      <trkpt lat="48.67281" lon="7.25217">
        <ele>480.7</ele>
        <time>2020-08-12T06:36:22Z</time>
      </trkpt>
      <trkpt lat="48.67276" lon="7.25219">
        <ele>480.5</ele>
        <time>2020-08-12T06:36:24Z</time>
      </trkpt>
      <trkpt lat="48.67271" lon="7.25222">
        <ele>481.8</ele>
        <time>2020-08-12T06:36:26Z</time>
      </trkpt>
      <trkpt lat="48.67265" lon="7.25226">
        <ele>482.5</ele>
        <time>2020-08-12T06:36:28Z</time>
      </trkpt>
      <trkpt lat="48.67256" lon="7.25235">
        <ele>482.3</ele>
        <time>2020-08-12T06:36:30Z</time>
      </trkpt>
      <trkpt lat="48.67247" lon="7.25244">
        <ele>482.2</ele>
        <time>2020-08-12T06:36:32Z</time>
      </trkpt>
      <trkpt lat="48.67239" lon="7.2525">
        <ele>482</ele>
        <time>2020-08-12T06:36:34Z</time>
      </trkpt>
      <trkpt lat="48.6723" lon="7.25254">
        <ele>481.6</ele>
        <time>2020-08-12T06:36:36Z</time>
      </trkpt>
      <trkpt lat="48.67219" lon="7.25258">
        <ele>480.4</ele>
        <time>2020-08-12T06:36:38Z</time>
      </trkpt>
      <trkpt lat="48.67209" lon="7.25263">
        <ele>478.2</ele>
        <time>2020-08-12T06:36:40Z</time>
      </trkpt>
      <trkpt lat="48.67199" lon="7.2527">
        <ele>476.6</ele>
        <time>2020-08-12T06:36:42Z</time>
      </trkpt>
      <trkpt lat="48.67191" lon="7.25276">
        <ele>474.9</ele>
        <time>2020-08-12T06:36:44Z</time>
      </trkpt>
      <trkpt lat="48.67182" lon="7.25281">
        <ele>473.8</ele>
        <time>2020-08-12T06:36:46Z</time>
      </trkpt>
      <trkpt lat="48.67175" lon="7.25286">
        <ele>472.8</ele>
        <time>2020-08-12T06:36:48Z</time>
      </trkpt>
      <trkpt lat="48.67168" lon="7.25289">
        <ele>472.3</ele>
        <time>2020-08-12T06:36:50Z</time>
      </trkpt>
      <trkpt lat="48.67163" lon="7.25289">
        <ele>471.1</ele>
        <time>2020-08-12T06:36:53Z</time>
      </trkpt>
      <trkpt lat="48.67167" lon="7.25284">
        <ele>470.7</ele>
        <time>2020-08-12T06:36:58Z</time>
      </trkpt>
      <trkpt lat="48.67171" lon="7.25279">
        <ele>470.5</ele>
        <time>2020-08-12T06:37:00Z</time>
      </trkpt>
      <trkpt lat="48.67177" lon="7.25272">
        <ele>470.9</ele>
        <time>2020-08-12T06:37:02Z</time>
      </trkpt>
      <trkpt lat="48.67183" lon="7.25263">
        <ele>470.5</ele>
        <time>2020-08-12T06:37:04Z</time>
      </trkpt>
      <trkpt lat="48.67189" lon="7.25255">
        <ele>470.8</ele>
        <time>2020-08-12T06:37:06Z</time>
      </trkpt>
      <trkpt lat="48.67194" lon="7.25246">
        <ele>471.2</ele>
        <time>2020-08-12T06:37:08Z</time>
      </trkpt>
      <trkpt lat="48.67199" lon="7.25239">
        <ele>471.1</ele>
        <time>2020-08-12T06:37:10Z</time>
      </trkpt>
      <trkpt lat="48.67204" lon="7.2523">
        <ele>471</ele>
        <time>2020-08-12T06:37:12Z</time>
      </trkpt>
      <trkpt lat="48.67209" lon="7.25223">
        <ele>471.2</ele>
        <time>2020-08-12T06:37:14Z</time>
      </trkpt>
      <trkpt lat="48.67215" lon="7.25212">
        <ele>471.8</ele>
        <time>2020-08-12T06:37:16Z</time>
      </trkpt>
      <trkpt lat="48.67222" lon="7.25201">
        <ele>472.1</ele>
        <time>2020-08-12T06:37:18Z</time>
      </trkpt>
      <trkpt lat="48.6723" lon="7.25189">
        <ele>472</ele>
        <time>2020-08-12T06:37:20Z</time>
      </trkpt>
      <trkpt lat="48.67238" lon="7.25178">
        <ele>471.8</ele>
        <time>2020-08-12T06:37:22Z</time>
      </trkpt>
      <trkpt lat="48.67245" lon="7.2517">
        <ele>472.6</ele>
        <time>2020-08-12T06:37:24Z</time>
      </trkpt>
      <trkpt lat="48.67252" lon="7.25162">
        <ele>472.7</ele>
        <time>2020-08-12T06:37:26Z</time>
      </trkpt>
      <trkpt lat="48.6726" lon="7.25153">
        <ele>472.9</ele>
        <time>2020-08-12T06:37:28Z</time>
      </trkpt>
      <trkpt lat="48.67268" lon="7.25144">
        <ele>473.3</ele>
        <time>2020-08-12T06:37:30Z</time>
      </trkpt>
      <trkpt lat="48.67275" lon="7.25136">
        <ele>472.6</ele>
        <time>2020-08-12T06:37:32Z</time>
      </trkpt>
      <trkpt lat="48.67283" lon="7.25127">
        <ele>472.1</ele>
        <time>2020-08-12T06:37:34Z</time>
      </trkpt>
      <trkpt lat="48.67291" lon="7.25118">
        <ele>471.2</ele>
        <time>2020-08-12T06:37:36Z</time>
      </trkpt>
      <trkpt lat="48.67298" lon="7.25112">
        <ele>471.1</ele>
        <time>2020-08-12T06:37:38Z</time>
      </trkpt>
      <trkpt lat="48.67307" lon="7.25104">
        <ele>470.6</ele>
        <time>2020-08-12T06:37:40Z</time>
      </trkpt>
      <trkpt lat="48.67316" lon="7.25097">
        <ele>470.3</ele>
        <time>2020-08-12T06:37:42Z</time>
      </trkpt>
      <trkpt lat="48.67324" lon="7.2509">
        <ele>470.3</ele>
        <time>2020-08-12T06:37:44Z</time>
      </trkpt>
      <trkpt lat="48.67332" lon="7.25084">
        <ele>469.9</ele>
        <time>2020-08-12T06:37:46Z</time>
      </trkpt>
      <trkpt lat="48.67339" lon="7.25079">
        <ele>469.5</ele>
        <time>2020-08-12T06:37:48Z</time>
      </trkpt>
      <trkpt lat="48.67347" lon="7.25073">
        <ele>469.4</ele>
        <time>2020-08-12T06:37:50Z</time>
      </trkpt>
      <trkpt lat="48.67355" lon="7.25066">
        <ele>469.4</ele>
        <time>2020-08-12T06:37:52Z</time>
      </trkpt>
      <trkpt lat="48.67363" lon="7.2506">
        <ele>469.3</ele>
        <time>2020-08-12T06:37:54Z</time>
      </trkpt>
      <trkpt lat="48.67372" lon="7.25053">
        <ele>470</ele>
        <time>2020-08-12T06:37:56Z</time>
      </trkpt>
      <trkpt lat="48.67381" lon="7.25044">
        <ele>469.9</ele>
        <time>2020-08-12T06:37:58Z</time>
      </trkpt>
      <trkpt lat="48.67388" lon="7.25036">
        <ele>470.1</ele>
        <time>2020-08-12T06:38:00Z</time>
      </trkpt>
      <trkpt lat="48.67394" lon="7.25028">
        <ele>470.1</ele>
        <time>2020-08-12T06:38:02Z</time>
      </trkpt>
      <trkpt lat="48.67401" lon="7.25021">
        <ele>470.2</ele>
        <time>2020-08-12T06:38:04Z</time>
      </trkpt>
      <trkpt lat="48.67407" lon="7.25016">
        <ele>470.8</ele>
        <time>2020-08-12T06:38:06Z</time>
      </trkpt>
      <trkpt lat="48.67414" lon="7.25009">
        <ele>471.1</ele>
        <time>2020-08-12T06:38:08Z</time>
      </trkpt>
      <trkpt lat="48.6742" lon="7.25001">
        <ele>471.1</ele>
        <time>2020-08-12T06:38:10Z</time>
      </trkpt>
      <trkpt lat="48.67428" lon="7.24992">
        <ele>470.4</ele>
        <time>2020-08-12T06:38:12Z</time>
      </trkpt>
      <trkpt lat="48.67435" lon="7.24985">
        <ele>470</ele>
        <time>2020-08-12T06:38:14Z</time>
      </trkpt>
      <trkpt lat="48.67441" lon="7.24977">
        <ele>470.3</ele>
        <time>2020-08-12T06:38:16Z</time>
      </trkpt>
      <trkpt lat="48.67448" lon="7.24969">
        <ele>470.4</ele>
        <time>2020-08-12T06:38:18Z</time>
      </trkpt>
      <trkpt lat="48.67455" lon="7.24959">
        <ele>469.4</ele>
        <time>2020-08-12T06:38:20Z</time>
      </trkpt>
      <trkpt lat="48.67462" lon="7.24949">
        <ele>469.2</ele>
        <time>2020-08-12T06:38:22Z</time>
      </trkpt>
      <trkpt lat="48.67468" lon="7.24938">
        <ele>468.9</ele>
        <time>2020-08-12T06:38:24Z</time>
      </trkpt>
      <trkpt lat="48.67474" lon="7.24929">
        <ele>468.8</ele>
        <time>2020-08-12T06:38:26Z</time>
      </trkpt>
      <trkpt lat="48.67478" lon="7.24922">
        <ele>468.7</ele>
        <time>2020-08-12T06:38:28Z</time>
      </trkpt>
      <trkpt lat="48.67483" lon="7.24915">
        <ele>468.4</ele>
        <time>2020-08-12T06:38:31Z</time>
      </trkpt>
      <trkpt lat="48.67487" lon="7.2491">
        <ele>467.6</ele>
        <time>2020-08-12T06:38:38Z</time>
      </trkpt>
      <trkpt lat="48.67487" lon="7.24903">
        <ele>469.8</ele>
        <time>2020-08-12T06:39:30Z</time>
      </trkpt>
      <trkpt lat="48.6749" lon="7.24897">
        <ele>469.4</ele>
        <time>2020-08-12T06:39:43Z</time>
      </trkpt>
      <trkpt lat="48.67493" lon="7.24889">
        <ele>468.4</ele>
        <time>2020-08-12T06:39:46Z</time>
      </trkpt>
      <trkpt lat="48.67494" lon="7.24882">
        <ele>468.7</ele>
        <time>2020-08-12T06:40:03Z</time>
      </trkpt>
      <trkpt lat="48.67495" lon="7.24875">
        <ele>468.5</ele>
        <time>2020-08-12T06:40:07Z</time>
      </trkpt>
      <trkpt lat="48.67495" lon="7.24867">
        <ele>468.2</ele>
        <time>2020-08-12T06:40:10Z</time>
      </trkpt>
      <trkpt lat="48.67495" lon="7.24858">
        <ele>467.5</ele>
        <time>2020-08-12T06:40:12Z</time>
      </trkpt>
      <trkpt lat="48.67494" lon="7.2485">
        <ele>466.8</ele>
        <time>2020-08-12T06:40:14Z</time>
      </trkpt>
      <trkpt lat="48.67493" lon="7.24843">
        <ele>466.5</ele>
        <time>2020-08-12T06:40:16Z</time>
      </trkpt>
      <trkpt lat="48.67492" lon="7.24836">
        <ele>466</ele>
        <time>2020-08-12T06:40:18Z</time>
      </trkpt>
      <trkpt lat="48.6749" lon="7.24829">
        <ele>465.4</ele>
        <time>2020-08-12T06:40:20Z</time>
      </trkpt>
      <trkpt lat="48.67489" lon="7.2482">
        <ele>463.1</ele>
        <time>2020-08-12T06:40:23Z</time>
      </trkpt>
      <trkpt lat="48.67489" lon="7.24812">
        <ele>460.9</ele>
        <time>2020-08-12T06:40:25Z</time>
      </trkpt>
      <trkpt lat="48.67489" lon="7.24804">
        <ele>458.6</ele>
        <time>2020-08-12T06:40:27Z</time>
      </trkpt>
      <trkpt lat="48.67487" lon="7.24795">
        <ele>455.7</ele>
        <time>2020-08-12T06:40:29Z</time>
      </trkpt>
      <trkpt lat="48.67485" lon="7.24786">
        <ele>454.1</ele>
        <time>2020-08-12T06:40:31Z</time>
      </trkpt>
      <trkpt lat="48.67484" lon="7.24778">
        <ele>452.7</ele>
        <time>2020-08-12T06:40:34Z</time>
      </trkpt>
      <trkpt lat="48.67483" lon="7.24771">
        <ele>448.5</ele>
        <time>2020-08-12T06:40:40Z</time>
      </trkpt>
      <trkpt lat="48.67482" lon="7.24763">
        <ele>447.5</ele>
        <time>2020-08-12T06:40:42Z</time>
      </trkpt>
      <trkpt lat="48.6748" lon="7.24752">
        <ele>447.1</ele>
        <time>2020-08-12T06:40:44Z</time>
      </trkpt>
      <trkpt lat="48.67479" lon="7.24741">
        <ele>450.9</ele>
        <time>2020-08-12T06:40:46Z</time>
      </trkpt>
      <trkpt lat="48.67479" lon="7.24733">
        <ele>451.2</ele>
        <time>2020-08-12T06:40:48Z</time>
      </trkpt>
      <trkpt lat="48.6748" lon="7.24725">
        <ele>451.9</ele>
        <time>2020-08-12T06:40:50Z</time>
      </trkpt>
      <trkpt lat="48.67481" lon="7.24715">
        <ele>452</ele>
        <time>2020-08-12T06:40:52Z</time>
      </trkpt>
      <trkpt lat="48.67482" lon="7.24705">
        <ele>451.9</ele>
        <time>2020-08-12T06:40:54Z</time>
      </trkpt>
      <trkpt lat="48.67483" lon="7.24695">
        <ele>451.4</ele>
        <time>2020-08-12T06:40:56Z</time>
      </trkpt>
      <trkpt lat="48.67484" lon="7.24684">
        <ele>451.1</ele>
        <time>2020-08-12T06:40:58Z</time>
      </trkpt>
      <trkpt lat="48.67484" lon="7.24672">
        <ele>454.5</ele>
        <time>2020-08-12T06:41:00Z</time>
      </trkpt>
      <trkpt lat="48.6748" lon="7.24658">
        <ele>454.4</ele>
        <time>2020-08-12T06:41:02Z</time>
      </trkpt>
      <trkpt lat="48.67477" lon="7.24645">
        <ele>454.5</ele>
        <time>2020-08-12T06:41:04Z</time>
      </trkpt>
      <trkpt lat="48.67477" lon="7.24633">
        <ele>454</ele>
        <time>2020-08-12T06:41:06Z</time>
      </trkpt>
      <trkpt lat="48.67477" lon="7.24619">
        <ele>453.4</ele>
        <time>2020-08-12T06:41:08Z</time>
      </trkpt>
      <trkpt lat="48.67478" lon="7.24603">
        <ele>453</ele>
        <time>2020-08-12T06:41:10Z</time>
      </trkpt>
      <trkpt lat="48.6748" lon="7.24584">
        <ele>452.2</ele>
        <time>2020-08-12T06:41:12Z</time>
      </trkpt>
      <trkpt lat="48.67485" lon="7.24565">
        <ele>450.9</ele>
        <time>2020-08-12T06:41:14Z</time>
      </trkpt>
      <trkpt lat="48.6749" lon="7.24548">
        <ele>449.5</ele>
        <time>2020-08-12T06:41:16Z</time>
      </trkpt>
      <trkpt lat="48.67493" lon="7.24531">
        <ele>448.4</ele>
        <time>2020-08-12T06:41:18Z</time>
      </trkpt>
      <trkpt lat="48.67497" lon="7.24514">
        <ele>447.7</ele>
        <time>2020-08-12T06:41:20Z</time>
      </trkpt>
      <trkpt lat="48.67502" lon="7.24498">
        <ele>446.6</ele>
        <time>2020-08-12T06:41:22Z</time>
      </trkpt>
      <trkpt lat="48.67507" lon="7.24482">
        <ele>445.4</ele>
        <time>2020-08-12T06:41:24Z</time>
      </trkpt>
      <trkpt lat="48.67512" lon="7.24467">
        <ele>444</ele>
        <time>2020-08-12T06:41:26Z</time>
      </trkpt>
      <trkpt lat="48.67515" lon="7.24449">
        <ele>443.2</ele>
        <time>2020-08-12T06:41:28Z</time>
      </trkpt>
      <trkpt lat="48.67517" lon="7.24432">
        <ele>442.2</ele>
        <time>2020-08-12T06:41:30Z</time>
      </trkpt>
      <trkpt lat="48.67519" lon="7.24416">
        <ele>441.9</ele>
        <time>2020-08-12T06:41:32Z</time>
      </trkpt>
      <trkpt lat="48.67522" lon="7.24397">
        <ele>442.2</ele>
        <time>2020-08-12T06:41:34Z</time>
      </trkpt>
      <trkpt lat="48.67525" lon="7.24381">
        <ele>442</ele>
        <time>2020-08-12T06:41:36Z</time>
      </trkpt>
      <trkpt lat="48.67529" lon="7.24366">
        <ele>440.7</ele>
        <time>2020-08-12T06:41:38Z</time>
      </trkpt>
      <trkpt lat="48.67532" lon="7.24353">
        <ele>445.9</ele>
        <time>2020-08-12T06:41:40Z</time>
      </trkpt>
      <trkpt lat="48.67537" lon="7.24338">
        <ele>446.9</ele>
        <time>2020-08-12T06:41:42Z</time>
      </trkpt>
      <trkpt lat="48.67542" lon="7.24319">
        <ele>445.4</ele>
        <time>2020-08-12T06:41:44Z</time>
      </trkpt>
      <trkpt lat="48.67547" lon="7.24302">
        <ele>443</ele>
        <time>2020-08-12T06:41:46Z</time>
      </trkpt>
      <trkpt lat="48.67555" lon="7.24288">
        <ele>440.9</ele>
        <time>2020-08-12T06:41:48Z</time>
      </trkpt>
      <trkpt lat="48.67563" lon="7.24273">
        <ele>438.3</ele>
        <time>2020-08-12T06:41:50Z</time>
      </trkpt>
      <trkpt lat="48.67571" lon="7.24258">
        <ele>435.2</ele>
        <time>2020-08-12T06:41:52Z</time>
      </trkpt>
      <trkpt lat="48.6758" lon="7.24242">
        <ele>433.1</ele>
        <time>2020-08-12T06:41:54Z</time>
      </trkpt>
      <trkpt lat="48.67589" lon="7.24225">
        <ele>431.2</ele>
        <time>2020-08-12T06:41:56Z</time>
      </trkpt>
      <trkpt lat="48.67597" lon="7.24208">
        <ele>429.5</ele>
        <time>2020-08-12T06:41:58Z</time>
      </trkpt>
      <trkpt lat="48.67605" lon="7.24191">
        <ele>428.6</ele>
        <time>2020-08-12T06:42:00Z</time>
      </trkpt>
      <trkpt lat="48.67613" lon="7.24176">
        <ele>428</ele>
        <time>2020-08-12T06:42:02Z</time>
      </trkpt>
      <trkpt lat="48.67621" lon="7.24162">
        <ele>427.3</ele>
        <time>2020-08-12T06:42:04Z</time>
      </trkpt>
      <trkpt lat="48.67629" lon="7.24148">
        <ele>427</ele>
        <time>2020-08-12T06:42:06Z</time>
      </trkpt>
      <trkpt lat="48.67637" lon="7.24137">
        <ele>426.8</ele>
        <time>2020-08-12T06:42:08Z</time>
      </trkpt>
      <trkpt lat="48.67644" lon="7.24124">
        <ele>426.3</ele>
        <time>2020-08-12T06:42:10Z</time>
      </trkpt>
      <trkpt lat="48.6765" lon="7.24115">
        <ele>425.5</ele>
        <time>2020-08-12T06:42:12Z</time>
      </trkpt>
      <trkpt lat="48.67656" lon="7.24103">
        <ele>425.2</ele>
        <time>2020-08-12T06:42:14Z</time>
      </trkpt>
      <trkpt lat="48.67661" lon="7.24089">
        <ele>424.9</ele>
        <time>2020-08-12T06:42:16Z</time>
      </trkpt>
      <trkpt lat="48.67665" lon="7.24075">
        <ele>424.7</ele>
        <time>2020-08-12T06:42:18Z</time>
      </trkpt>
      <trkpt lat="48.67669" lon="7.2406">
        <ele>424.4</ele>
        <time>2020-08-12T06:42:20Z</time>
      </trkpt>
      <trkpt lat="48.67673" lon="7.24044">
        <ele>423.8</ele>
        <time>2020-08-12T06:42:22Z</time>
      </trkpt>
      <trkpt lat="48.67677" lon="7.24032">
        <ele>424.3</ele>
        <time>2020-08-12T06:42:24Z</time>
      </trkpt>
      <trkpt lat="48.6768" lon="7.24021">
        <ele>424.7</ele>
        <time>2020-08-12T06:42:26Z</time>
      </trkpt>
      <trkpt lat="48.67683" lon="7.24008">
        <ele>425</ele>
        <time>2020-08-12T06:42:28Z</time>
      </trkpt>
      <trkpt lat="48.67685" lon="7.23994">
        <ele>425.5</ele>
        <time>2020-08-12T06:42:30Z</time>
      </trkpt>
      <trkpt lat="48.67687" lon="7.23981">
        <ele>425.4</ele>
        <time>2020-08-12T06:42:32Z</time>
      </trkpt>
      <trkpt lat="48.67687" lon="7.2397">
        <ele>426.1</ele>
        <time>2020-08-12T06:42:34Z</time>
      </trkpt>
      <trkpt lat="48.67688" lon="7.23959">
        <ele>427</ele>
        <time>2020-08-12T06:42:36Z</time>
      </trkpt>
      <trkpt lat="48.67691" lon="7.23946">
        <ele>427.1</ele>
        <time>2020-08-12T06:42:38Z</time>
      </trkpt>
      <trkpt lat="48.67693" lon="7.23931">
        <ele>427</ele>
        <time>2020-08-12T06:42:40Z</time>
      </trkpt>
      <trkpt lat="48.67695" lon="7.23916">
        <ele>427.6</ele>
        <time>2020-08-12T06:42:42Z</time>
      </trkpt>
      <trkpt lat="48.67697" lon="7.23901">
        <ele>428.3</ele>
        <time>2020-08-12T06:42:44Z</time>
      </trkpt>
      <trkpt lat="48.67701" lon="7.23889">
        <ele>428</ele>
        <time>2020-08-12T06:42:46Z</time>
      </trkpt>
      <trkpt lat="48.67704" lon="7.23876">
        <ele>428.5</ele>
        <time>2020-08-12T06:42:48Z</time>
      </trkpt>
      <trkpt lat="48.67707" lon="7.23864">
        <ele>428.6</ele>
        <time>2020-08-12T06:42:50Z</time>
      </trkpt>
      <trkpt lat="48.67709" lon="7.23853">
        <ele>428.4</ele>
        <time>2020-08-12T06:42:52Z</time>
      </trkpt>
      <trkpt lat="48.67709" lon="7.23839">
        <ele>428.8</ele>
        <time>2020-08-12T06:42:54Z</time>
      </trkpt>
      <trkpt lat="48.67709" lon="7.23825">
        <ele>429.6</ele>
        <time>2020-08-12T06:42:56Z</time>
      </trkpt>
      <trkpt lat="48.6771" lon="7.23812">
        <ele>430.8</ele>
        <time>2020-08-12T06:42:58Z</time>
      </trkpt>
      <trkpt lat="48.6771" lon="7.23798">
        <ele>431.3</ele>
        <time>2020-08-12T06:43:00Z</time>
      </trkpt>
      <trkpt lat="48.67711" lon="7.23784">
        <ele>431.3</ele>
        <time>2020-08-12T06:43:02Z</time>
      </trkpt>
      <trkpt lat="48.67711" lon="7.2377">
        <ele>432.2</ele>
        <time>2020-08-12T06:43:04Z</time>
      </trkpt>
      <trkpt lat="48.67712" lon="7.23757">
        <ele>432.8</ele>
        <time>2020-08-12T06:43:06Z</time>
      </trkpt>
      <trkpt lat="48.67712" lon="7.23744">
        <ele>433.1</ele>
        <time>2020-08-12T06:43:08Z</time>
      </trkpt>
      <trkpt lat="48.6771" lon="7.23731">
        <ele>441.8</ele>
        <time>2020-08-12T06:43:10Z</time>
      </trkpt>
      <trkpt lat="48.67706" lon="7.23714">
        <ele>443.5</ele>
        <time>2020-08-12T06:43:12Z</time>
      </trkpt>
      <trkpt lat="48.67703" lon="7.23696">
        <ele>444.9</ele>
        <time>2020-08-12T06:43:14Z</time>
      </trkpt>
      <trkpt lat="48.677" lon="7.23677">
        <ele>444.8</ele>
        <time>2020-08-12T06:43:16Z</time>
      </trkpt>
      <trkpt lat="48.67697" lon="7.23656">
        <ele>444.3</ele>
        <time>2020-08-12T06:43:18Z</time>
      </trkpt>
      <trkpt lat="48.67694" lon="7.23636">
        <ele>443.9</ele>
        <time>2020-08-12T06:43:20Z</time>
      </trkpt>
      <trkpt lat="48.67692" lon="7.23619">
        <ele>443.4</ele>
        <time>2020-08-12T06:43:22Z</time>
      </trkpt>
      <trkpt lat="48.67692" lon="7.23603">
        <ele>442.8</ele>
        <time>2020-08-12T06:43:24Z</time>
      </trkpt>
      <trkpt lat="48.67691" lon="7.23588">
        <ele>442.8</ele>
        <time>2020-08-12T06:43:26Z</time>
      </trkpt>
      <trkpt lat="48.6769" lon="7.23573">
        <ele>443</ele>
        <time>2020-08-12T06:43:28Z</time>
      </trkpt>
      <trkpt lat="48.67689" lon="7.23561">
        <ele>442.9</ele>
        <time>2020-08-12T06:43:30Z</time>
      </trkpt>
      <trkpt lat="48.67687" lon="7.23548">
        <ele>443.4</ele>
        <time>2020-08-12T06:43:32Z</time>
      </trkpt>
      <trkpt lat="48.67685" lon="7.23536">
        <ele>443.4</ele>
        <time>2020-08-12T06:43:34Z</time>
      </trkpt>
      <trkpt lat="48.67686" lon="7.23529">
        <ele>442</ele>
        <time>2020-08-12T06:43:36Z</time>
      </trkpt>
      <trkpt lat="48.67687" lon="7.23522">
        <ele>438.8</ele>
        <time>2020-08-12T06:43:41Z</time>
      </trkpt>
      <trkpt lat="48.67687" lon="7.23513">
        <ele>436.8</ele>
        <time>2020-08-12T06:43:46Z</time>
      </trkpt>
      <trkpt lat="48.67687" lon="7.23504">
        <ele>436.2</ele>
        <time>2020-08-12T06:43:48Z</time>
      </trkpt>
      <trkpt lat="48.67686" lon="7.23489">
        <ele>434.8</ele>
        <time>2020-08-12T06:43:50Z</time>
      </trkpt>
      <trkpt lat="48.67684" lon="7.23472">
        <ele>433.6</ele>
        <time>2020-08-12T06:43:52Z</time>
      </trkpt>
      <trkpt lat="48.67681" lon="7.23455">
        <ele>432.1</ele>
        <time>2020-08-12T06:43:54Z</time>
      </trkpt>
      <trkpt lat="48.6768" lon="7.23435">
        <ele>431.8</ele>
        <time>2020-08-12T06:43:56Z</time>
      </trkpt>
      <trkpt lat="48.67677" lon="7.23416">
        <ele>431.4</ele>
        <time>2020-08-12T06:43:58Z</time>
      </trkpt>
      <trkpt lat="48.67674" lon="7.23395">
        <ele>431</ele>
        <time>2020-08-12T06:44:00Z</time>
      </trkpt>
      <trkpt lat="48.6767" lon="7.23378">
        <ele>439.1</ele>
        <time>2020-08-12T06:44:02Z</time>
      </trkpt>
      <trkpt lat="48.67667" lon="7.2336">
        <ele>439.8</ele>
        <time>2020-08-12T06:44:04Z</time>
      </trkpt>
      <trkpt lat="48.67664" lon="7.23342">
        <ele>439.5</ele>
        <time>2020-08-12T06:44:06Z</time>
      </trkpt>
      <trkpt lat="48.67661" lon="7.23323">
        <ele>438.4</ele>
        <time>2020-08-12T06:44:08Z</time>
      </trkpt>
      <trkpt lat="48.67657" lon="7.23304">
        <ele>436.6</ele>
        <time>2020-08-12T06:44:10Z</time>
      </trkpt>
      <trkpt lat="48.67655" lon="7.23285">
        <ele>434.8</ele>
        <time>2020-08-12T06:44:12Z</time>
      </trkpt>
      <trkpt lat="48.67654" lon="7.23264">
        <ele>432.1</ele>
        <time>2020-08-12T06:44:14Z</time>
      </trkpt>
      <trkpt lat="48.6765" lon="7.23244">
        <ele>430.5</ele>
        <time>2020-08-12T06:44:16Z</time>
      </trkpt>
      <trkpt lat="48.67647" lon="7.23222">
        <ele>428.8</ele>
        <time>2020-08-12T06:44:18Z</time>
      </trkpt>
      <trkpt lat="48.67644" lon="7.232">
        <ele>426.4</ele>
        <time>2020-08-12T06:44:20Z</time>
      </trkpt>
      <trkpt lat="48.67642" lon="7.2318">
        <ele>425</ele>
        <time>2020-08-12T06:44:22Z</time>
      </trkpt>
      <trkpt lat="48.67644" lon="7.23162">
        <ele>423.7</ele>
        <time>2020-08-12T06:44:24Z</time>
      </trkpt>
      <trkpt lat="48.67643" lon="7.23142">
        <ele>422.6</ele>
        <time>2020-08-12T06:44:26Z</time>
      </trkpt>
      <trkpt lat="48.67642" lon="7.23122">
        <ele>422</ele>
        <time>2020-08-12T06:44:28Z</time>
      </trkpt>
      <trkpt lat="48.67639" lon="7.23101">
        <ele>421.6</ele>
        <time>2020-08-12T06:44:30Z</time>
      </trkpt>
      <trkpt lat="48.67634" lon="7.2308">
        <ele>421.5</ele>
        <time>2020-08-12T06:44:32Z</time>
      </trkpt>
      <trkpt lat="48.67628" lon="7.2306">
        <ele>420.7</ele>
        <time>2020-08-12T06:44:34Z</time>
      </trkpt>
      <trkpt lat="48.67626" lon="7.23041">
        <ele>419.9</ele>
        <time>2020-08-12T06:44:36Z</time>
      </trkpt>
      <trkpt lat="48.67625" lon="7.23023">
        <ele>419.8</ele>
        <time>2020-08-12T06:44:38Z</time>
      </trkpt>
      <trkpt lat="48.67625" lon="7.23003">
        <ele>419.7</ele>
        <time>2020-08-12T06:44:40Z</time>
      </trkpt>
      <trkpt lat="48.67626" lon="7.22987">
        <ele>419.7</ele>
        <time>2020-08-12T06:44:42Z</time>
      </trkpt>
      <trkpt lat="48.67628" lon="7.22971">
        <ele>418.3</ele>
        <time>2020-08-12T06:44:44Z</time>
      </trkpt>
      <trkpt lat="48.67627" lon="7.22955">
        <ele>417.2</ele>
        <time>2020-08-12T06:44:46Z</time>
      </trkpt>
      <trkpt lat="48.67624" lon="7.2294">
        <ele>416.8</ele>
        <time>2020-08-12T06:44:48Z</time>
      </trkpt>
      <trkpt lat="48.67621" lon="7.22923">
        <ele>415.4</ele>
        <time>2020-08-12T06:44:50Z</time>
      </trkpt>
      <trkpt lat="48.67618" lon="7.22906">
        <ele>414.7</ele>
        <time>2020-08-12T06:44:52Z</time>
      </trkpt>
      <trkpt lat="48.67613" lon="7.22888">
        <ele>413.2</ele>
        <time>2020-08-12T06:44:54Z</time>
      </trkpt>
      <trkpt lat="48.67609" lon="7.22867">
        <ele>412.2</ele>
        <time>2020-08-12T06:44:56Z</time>
      </trkpt>
      <trkpt lat="48.67604" lon="7.22846">
        <ele>412.1</ele>
        <time>2020-08-12T06:44:58Z</time>
      </trkpt>
      <trkpt lat="48.67599" lon="7.22826">
        <ele>411.2</ele>
        <time>2020-08-12T06:45:00Z</time>
      </trkpt>
      <trkpt lat="48.67594" lon="7.22806">
        <ele>409.3</ele>
        <time>2020-08-12T06:45:02Z</time>
      </trkpt>
      <trkpt lat="48.67589" lon="7.22786">
        <ele>407.9</ele>
        <time>2020-08-12T06:45:04Z</time>
      </trkpt>
      <trkpt lat="48.67583" lon="7.22767">
        <ele>407</ele>
        <time>2020-08-12T06:45:06Z</time>
      </trkpt>
      <trkpt lat="48.67578" lon="7.22751">
        <ele>405.6</ele>
        <time>2020-08-12T06:45:08Z</time>
      </trkpt>
      <trkpt lat="48.67574" lon="7.22736">
        <ele>404.1</ele>
        <time>2020-08-12T06:45:10Z</time>
      </trkpt>
      <trkpt lat="48.67571" lon="7.22723">
        <ele>403.7</ele>
        <time>2020-08-12T06:45:12Z</time>
      </trkpt>
      <trkpt lat="48.67569" lon="7.22709">
        <ele>404</ele>
        <time>2020-08-12T06:45:14Z</time>
      </trkpt>
      <trkpt lat="48.67567" lon="7.22694">
        <ele>402.4</ele>
        <time>2020-08-12T06:45:16Z</time>
      </trkpt>
      <trkpt lat="48.67564" lon="7.2268">
        <ele>400.2</ele>
        <time>2020-08-12T06:45:18Z</time>
      </trkpt>
      <trkpt lat="48.67562" lon="7.22668">
        <ele>397.9</ele>
        <time>2020-08-12T06:45:20Z</time>
      </trkpt>
      <trkpt lat="48.6756" lon="7.22655">
        <ele>396.4</ele>
        <time>2020-08-12T06:45:22Z</time>
      </trkpt>
      <trkpt lat="48.67557" lon="7.2264">
        <ele>395.4</ele>
        <time>2020-08-12T06:45:24Z</time>
      </trkpt>
      <trkpt lat="48.67554" lon="7.22623">
        <ele>394.7</ele>
        <time>2020-08-12T06:45:26Z</time>
      </trkpt>
      <trkpt lat="48.67551" lon="7.22608">
        <ele>394.4</ele>
        <time>2020-08-12T06:45:28Z</time>
      </trkpt>
      <trkpt lat="48.6755" lon="7.22592">
        <ele>393.7</ele>
        <time>2020-08-12T06:45:30Z</time>
      </trkpt>
      <trkpt lat="48.67549" lon="7.22578">
        <ele>394</ele>
        <time>2020-08-12T06:45:32Z</time>
      </trkpt>
      <trkpt lat="48.67546" lon="7.22562">
        <ele>394.1</ele>
        <time>2020-08-12T06:45:34Z</time>
      </trkpt>
      <trkpt lat="48.67541" lon="7.22547">
        <ele>395.4</ele>
        <time>2020-08-12T06:45:36Z</time>
      </trkpt>
      <trkpt lat="48.67536" lon="7.22532">
        <ele>396.6</ele>
        <time>2020-08-12T06:45:38Z</time>
      </trkpt>
      <trkpt lat="48.67531" lon="7.22517">
        <ele>398.1</ele>
        <time>2020-08-12T06:45:40Z</time>
      </trkpt>
      <trkpt lat="48.67528" lon="7.22503">
        <ele>398.3</ele>
        <time>2020-08-12T06:45:42Z</time>
      </trkpt>
      <trkpt lat="48.67525" lon="7.22493">
        <ele>409.3</ele>
        <time>2020-08-12T06:45:44Z</time>
      </trkpt>
      <trkpt lat="48.67524" lon="7.22483">
        <ele>414</ele>
        <time>2020-08-12T06:45:46Z</time>
      </trkpt>
      <trkpt lat="48.67524" lon="7.22473">
        <ele>419.5</ele>
        <time>2020-08-12T06:45:48Z</time>
      </trkpt>
      <trkpt lat="48.67524" lon="7.22462">
        <ele>423.4</ele>
        <time>2020-08-12T06:45:50Z</time>
      </trkpt>
      <trkpt lat="48.67526" lon="7.22454">
        <ele>422.3</ele>
        <time>2020-08-12T06:45:52Z</time>
      </trkpt>
      <trkpt lat="48.67527" lon="7.22447">
        <ele>418.8</ele>
        <time>2020-08-12T06:45:54Z</time>
      </trkpt>
      <trkpt lat="48.67528" lon="7.22438">
        <ele>415.2</ele>
        <time>2020-08-12T06:45:56Z</time>
      </trkpt>
      <trkpt lat="48.67529" lon="7.22427">
        <ele>410.6</ele>
        <time>2020-08-12T06:45:58Z</time>
      </trkpt>
      <trkpt lat="48.6753" lon="7.22414">
        <ele>418.9</ele>
        <time>2020-08-12T06:46:00Z</time>
      </trkpt>
      <trkpt lat="48.67531" lon="7.22401">
        <ele>417.7</ele>
        <time>2020-08-12T06:46:02Z</time>
      </trkpt>
      <trkpt lat="48.67531" lon="7.22389">
        <ele>414.3</ele>
        <time>2020-08-12T06:46:04Z</time>
      </trkpt>
      <trkpt lat="48.6753" lon="7.22372">
        <ele>411.7</ele>
        <time>2020-08-12T06:46:06Z</time>
      </trkpt>
      <trkpt lat="48.6753" lon="7.22357">
        <ele>408.8</ele>
        <time>2020-08-12T06:46:08Z</time>
      </trkpt>
      <trkpt lat="48.6753" lon="7.22343">
        <ele>405</ele>
        <time>2020-08-12T06:46:10Z</time>
      </trkpt>
      <trkpt lat="48.67532" lon="7.2233">
        <ele>402.5</ele>
        <time>2020-08-12T06:46:12Z</time>
      </trkpt>
      <trkpt lat="48.67534" lon="7.22316">
        <ele>400.2</ele>
        <time>2020-08-12T06:46:14Z</time>
      </trkpt>
      <trkpt lat="48.67538" lon="7.22303">
        <ele>410</ele>
        <time>2020-08-12T06:46:16Z</time>
      </trkpt>
      <trkpt lat="48.67541" lon="7.22293">
        <ele>409.4</ele>
        <time>2020-08-12T06:46:18Z</time>
      </trkpt>
      <trkpt lat="48.67544" lon="7.22283">
        <ele>408</ele>
        <time>2020-08-12T06:46:20Z</time>
      </trkpt>
      <trkpt lat="48.67547" lon="7.22276">
        <ele>405.8</ele>
        <time>2020-08-12T06:46:22Z</time>
      </trkpt>
      <trkpt lat="48.67549" lon="7.22269">
        <ele>402.9</ele>
        <time>2020-08-12T06:46:24Z</time>
      </trkpt>
      <trkpt lat="48.67551" lon="7.22261">
        <ele>400.2</ele>
        <time>2020-08-12T06:46:27Z</time>
      </trkpt>
      <trkpt lat="48.67551" lon="7.22255">
        <ele>395.8</ele>
        <time>2020-08-12T06:46:36Z</time>
      </trkpt>
      <trkpt lat="48.67548" lon="7.22249">
        <ele>394.2</ele>
        <time>2020-08-12T06:46:43Z</time>
      </trkpt>
      <trkpt lat="48.67547" lon="7.22242">
        <ele>392.6</ele>
        <time>2020-08-12T06:46:54Z</time>
      </trkpt>
      <trkpt lat="48.67551" lon="7.22237">
        <ele>392</ele>
        <time>2020-08-12T06:46:57Z</time>
      </trkpt>
      <trkpt lat="48.67555" lon="7.22229">
        <ele>392.1</ele>
        <time>2020-08-12T06:47:00Z</time>
      </trkpt>
      <trkpt lat="48.67559" lon="7.22223">
        <ele>392.1</ele>
        <time>2020-08-12T06:47:03Z</time>
      </trkpt>
      <trkpt lat="48.67563" lon="7.22219">
        <ele>392.6</ele>
        <time>2020-08-12T06:47:18Z</time>
      </trkpt>
      <trkpt lat="48.67567" lon="7.22215">
        <ele>394.8</ele>
        <time>2020-08-12T06:47:22Z</time>
      </trkpt>
      <trkpt lat="48.67573" lon="7.22209">
        <ele>395.7</ele>
        <time>2020-08-12T06:47:25Z</time>
      </trkpt>
      <trkpt lat="48.67578" lon="7.22205">
        <ele>396.7</ele>
        <time>2020-08-12T06:47:27Z</time>
      </trkpt>
      <trkpt lat="48.67584" lon="7.222">
        <ele>397.7</ele>
        <time>2020-08-12T06:47:30Z</time>
      </trkpt>
      <trkpt lat="48.67589" lon="7.22197">
        <ele>398.9</ele>
        <time>2020-08-12T06:47:32Z</time>
      </trkpt>
      <trkpt lat="48.67594" lon="7.22194">
        <ele>399.6</ele>
        <time>2020-08-12T06:47:34Z</time>
      </trkpt>
      <trkpt lat="48.67599" lon="7.2219">
        <ele>400.6</ele>
        <time>2020-08-12T06:47:36Z</time>
      </trkpt>
      <trkpt lat="48.67605" lon="7.22187">
        <ele>401.6</ele>
        <time>2020-08-12T06:47:38Z</time>
      </trkpt>
      <trkpt lat="48.6761" lon="7.22184">
        <ele>402.7</ele>
        <time>2020-08-12T06:47:40Z</time>
      </trkpt>
      <trkpt lat="48.67616" lon="7.22182">
        <ele>403.9</ele>
        <time>2020-08-12T06:47:42Z</time>
      </trkpt>
      <trkpt lat="48.67621" lon="7.22182">
        <ele>404.7</ele>
        <time>2020-08-12T06:47:44Z</time>
      </trkpt>
      <trkpt lat="48.67626" lon="7.22182">
        <ele>405.4</ele>
        <time>2020-08-12T06:47:46Z</time>
      </trkpt>
      <trkpt lat="48.67631" lon="7.22185">
        <ele>405.8</ele>
        <time>2020-08-12T06:47:48Z</time>
      </trkpt>
      <trkpt lat="48.67637" lon="7.22188">
        <ele>406.5</ele>
        <time>2020-08-12T06:47:51Z</time>
      </trkpt>
      <trkpt lat="48.67639" lon="7.22182">
        <ele>407.7</ele>
        <time>2020-08-12T06:48:00Z</time>
      </trkpt>
      <trkpt lat="48.67633" lon="7.22179">
        <ele>407.6</ele>
        <time>2020-08-12T06:48:03Z</time>
      </trkpt>
      <trkpt lat="48.67627" lon="7.22179">
        <ele>407.4</ele>
        <time>2020-08-12T06:48:05Z</time>
      </trkpt>
      <trkpt lat="48.6762" lon="7.2218">
        <ele>407.3</ele>
        <time>2020-08-12T06:48:07Z</time>
      </trkpt>
      <trkpt lat="48.67611" lon="7.22183">
        <ele>407.1</ele>
        <time>2020-08-12T06:48:09Z</time>
      </trkpt>
      <trkpt lat="48.67599" lon="7.2219">
        <ele>405.9</ele>
        <time>2020-08-12T06:48:11Z</time>
      </trkpt>
      <trkpt lat="48.67586" lon="7.22198">
        <ele>404.6</ele>
        <time>2020-08-12T06:48:13Z</time>
      </trkpt>
      <trkpt lat="48.67574" lon="7.22207">
        <ele>403</ele>
        <time>2020-08-12T06:48:15Z</time>
      </trkpt>
      <trkpt lat="48.67566" lon="7.22214">
        <ele>401.9</ele>
        <time>2020-08-12T06:48:17Z</time>
      </trkpt>
      <trkpt lat="48.67566" lon="7.22205">
        <ele>399.2</ele>
        <time>2020-08-12T06:48:23Z</time>
      </trkpt>
      <trkpt lat="48.6757" lon="7.222">
        <ele>398.8</ele>
        <time>2020-08-12T06:48:25Z</time>
      </trkpt>
      <trkpt lat="48.67576" lon="7.22195">
        <ele>399.1</ele>
        <time>2020-08-12T06:48:28Z</time>
      </trkpt>
      <trkpt lat="48.67581" lon="7.22192">
        <ele>399.1</ele>
        <time>2020-08-12T06:48:31Z</time>
      </trkpt>
      <trkpt lat="48.67586" lon="7.22189">
        <ele>398.6</ele>
        <time>2020-08-12T06:48:33Z</time>
      </trkpt>
      <trkpt lat="48.67591" lon="7.22185">
        <ele>398.3</ele>
        <time>2020-08-12T06:48:35Z</time>
      </trkpt>
      <trkpt lat="48.67596" lon="7.2218">
        <ele>398.1</ele>
        <time>2020-08-12T06:48:37Z</time>
      </trkpt>
      <trkpt lat="48.67602" lon="7.22176">
        <ele>397.9</ele>
        <time>2020-08-12T06:48:39Z</time>
      </trkpt>
      <trkpt lat="48.67607" lon="7.22173">
        <ele>398.7</ele>
        <time>2020-08-12T06:48:41Z</time>
      </trkpt>
      <trkpt lat="48.67613" lon="7.22171">
        <ele>399.5</ele>
        <time>2020-08-12T06:48:43Z</time>
      </trkpt>
      <trkpt lat="48.67618" lon="7.22169">
        <ele>400.1</ele>
        <time>2020-08-12T06:48:45Z</time>
      </trkpt>
      <trkpt lat="48.67623" lon="7.22166">
        <ele>400.1</ele>
        <time>2020-08-12T06:48:48Z</time>
      </trkpt>
      <trkpt lat="48.67627" lon="7.22161">
        <ele>399</ele>
        <time>2020-08-12T06:48:56Z</time>
      </trkpt>
      <trkpt lat="48.67632" lon="7.22155">
        <ele>398.1</ele>
        <time>2020-08-12T06:48:59Z</time>
      </trkpt>
      <trkpt lat="48.67636" lon="7.22151">
        <ele>397.6</ele>
        <time>2020-08-12T06:49:01Z</time>
      </trkpt>
      <trkpt lat="48.67641" lon="7.22148">
        <ele>397</ele>
        <time>2020-08-12T06:49:03Z</time>
      </trkpt>
      <trkpt lat="48.67646" lon="7.22144">
        <ele>396.8</ele>
        <time>2020-08-12T06:49:05Z</time>
      </trkpt>
      <trkpt lat="48.67652" lon="7.2214">
        <ele>396.3</ele>
        <time>2020-08-12T06:49:07Z</time>
      </trkpt>
      <trkpt lat="48.67658" lon="7.22137">
        <ele>395.6</ele>
        <time>2020-08-12T06:49:09Z</time>
      </trkpt>
      <trkpt lat="48.67664" lon="7.22134">
        <ele>395</ele>
        <time>2020-08-12T06:49:11Z</time>
      </trkpt>
      <trkpt lat="48.67671" lon="7.22131">
        <ele>394.2</ele>
        <time>2020-08-12T06:49:13Z</time>
      </trkpt>
      <trkpt lat="48.67677" lon="7.22129">
        <ele>393.9</ele>
        <time>2020-08-12T06:49:15Z</time>
      </trkpt>
      <trkpt lat="48.67682" lon="7.22129">
        <ele>392.9</ele>
        <time>2020-08-12T06:49:17Z</time>
      </trkpt>
      <trkpt lat="48.67689" lon="7.22132">
        <ele>391.6</ele>
        <time>2020-08-12T06:49:19Z</time>
      </trkpt>
      <trkpt lat="48.67694" lon="7.22133">
        <ele>391.2</ele>
        <time>2020-08-12T06:49:21Z</time>
      </trkpt>
      <trkpt lat="48.67699" lon="7.22134">
        <ele>390.9</ele>
        <time>2020-08-12T06:49:23Z</time>
      </trkpt>
      <trkpt lat="48.67705" lon="7.22136">
        <ele>390.7</ele>
        <time>2020-08-12T06:49:25Z</time>
      </trkpt>
      <trkpt lat="48.67714" lon="7.22136">
        <ele>390.7</ele>
        <time>2020-08-12T06:49:27Z</time>
      </trkpt>
      <trkpt lat="48.67724" lon="7.22139">
        <ele>390.7</ele>
        <time>2020-08-12T06:49:29Z</time>
      </trkpt>
      <trkpt lat="48.67733" lon="7.2214">
        <ele>390.6</ele>
        <time>2020-08-12T06:49:31Z</time>
      </trkpt>
      <trkpt lat="48.67742" lon="7.22142">
        <ele>390.7</ele>
        <time>2020-08-12T06:49:33Z</time>
      </trkpt>
      <trkpt lat="48.67752" lon="7.22143">
        <ele>391</ele>
        <time>2020-08-12T06:49:35Z</time>
      </trkpt>
      <trkpt lat="48.67766" lon="7.22146">
        <ele>391.5</ele>
        <time>2020-08-12T06:49:37Z</time>
      </trkpt>
      <trkpt lat="48.67778" lon="7.2215">
        <ele>392</ele>
        <time>2020-08-12T06:49:39Z</time>
      </trkpt>
      <trkpt lat="48.6779" lon="7.22154">
        <ele>392.4</ele>
        <time>2020-08-12T06:49:41Z</time>
      </trkpt>
      <trkpt lat="48.67803" lon="7.22159">
        <ele>392.7</ele>
        <time>2020-08-12T06:49:43Z</time>
      </trkpt>
      <trkpt lat="48.67815" lon="7.22164">
        <ele>392.5</ele>
        <time>2020-08-12T06:49:45Z</time>
      </trkpt>
      <trkpt lat="48.67829" lon="7.22173">
        <ele>391.8</ele>
        <time>2020-08-12T06:49:47Z</time>
      </trkpt>
      <trkpt lat="48.6784" lon="7.22182">
        <ele>391.7</ele>
        <time>2020-08-12T06:49:49Z</time>
      </trkpt>
      <trkpt lat="48.67852" lon="7.22191">
        <ele>391.3</ele>
        <time>2020-08-12T06:49:51Z</time>
      </trkpt>
      <trkpt lat="48.67865" lon="7.222">
        <ele>391.1</ele>
        <time>2020-08-12T06:49:53Z</time>
      </trkpt>
      <trkpt lat="48.67877" lon="7.22206">
        <ele>390.3</ele>
        <time>2020-08-12T06:49:55Z</time>
      </trkpt>
      <trkpt lat="48.67889" lon="7.2221">
        <ele>389.4</ele>
        <time>2020-08-12T06:49:57Z</time>
      </trkpt>
      <trkpt lat="48.67901" lon="7.22214">
        <ele>388.6</ele>
        <time>2020-08-12T06:49:59Z</time>
      </trkpt>
      <trkpt lat="48.67911" lon="7.22218">
        <ele>388.2</ele>
        <time>2020-08-12T06:50:01Z</time>
      </trkpt>
      <trkpt lat="48.67925" lon="7.22224">
        <ele>387.3</ele>
        <time>2020-08-12T06:50:03Z</time>
      </trkpt>
      <trkpt lat="48.67938" lon="7.2223">
        <ele>387.1</ele>
        <time>2020-08-12T06:50:05Z</time>
      </trkpt>
      <trkpt lat="48.67951" lon="7.22237">
        <ele>386.6</ele>
        <time>2020-08-12T06:50:07Z</time>
      </trkpt>
      <trkpt lat="48.67963" lon="7.22245">
        <ele>386.3</ele>
        <time>2020-08-12T06:50:09Z</time>
      </trkpt>
      <trkpt lat="48.67974" lon="7.22259">
        <ele>384.6</ele>
        <time>2020-08-12T06:50:11Z</time>
      </trkpt>
      <trkpt lat="48.67984" lon="7.22277">
        <ele>382.8</ele>
        <time>2020-08-12T06:50:13Z</time>
      </trkpt>
      <trkpt lat="48.67993" lon="7.22287">
        <ele>381.3</ele>
        <time>2020-08-12T06:50:15Z</time>
      </trkpt>
      <trkpt lat="48.68001" lon="7.22298">
        <ele>379.8</ele>
        <time>2020-08-12T06:50:17Z</time>
      </trkpt>
      <trkpt lat="48.68009" lon="7.22307">
        <ele>378.8</ele>
        <time>2020-08-12T06:50:19Z</time>
      </trkpt>
      <trkpt lat="48.68019" lon="7.22316">
        <ele>377.6</ele>
        <time>2020-08-12T06:50:21Z</time>
      </trkpt>
      <trkpt lat="48.68029" lon="7.2233">
        <ele>376.4</ele>
        <time>2020-08-12T06:50:23Z</time>
      </trkpt>
      <trkpt lat="48.68039" lon="7.22343">
        <ele>375.5</ele>
        <time>2020-08-12T06:50:25Z</time>
      </trkpt>
      <trkpt lat="48.68047" lon="7.22354">
        <ele>374.9</ele>
        <time>2020-08-12T06:50:27Z</time>
      </trkpt>
      <trkpt lat="48.68056" lon="7.22361">
        <ele>373.9</ele>
        <time>2020-08-12T06:50:29Z</time>
      </trkpt>
      <trkpt lat="48.68063" lon="7.22364">
        <ele>373.6</ele>
        <time>2020-08-12T06:50:31Z</time>
      </trkpt>
      <trkpt lat="48.68069" lon="7.22361">
        <ele>373.4</ele>
        <time>2020-08-12T06:50:33Z</time>
      </trkpt>
      <trkpt lat="48.68074" lon="7.22356">
        <ele>373.6</ele>
        <time>2020-08-12T06:50:35Z</time>
      </trkpt>
      <trkpt lat="48.68078" lon="7.22347">
        <ele>373.7</ele>
        <time>2020-08-12T06:50:37Z</time>
      </trkpt>
      <trkpt lat="48.68082" lon="7.22336">
        <ele>373.8</ele>
        <time>2020-08-12T06:50:39Z</time>
      </trkpt>
      <trkpt lat="48.68086" lon="7.22322">
        <ele>373.5</ele>
        <time>2020-08-12T06:50:41Z</time>
      </trkpt>
      <trkpt lat="48.68088" lon="7.22304">
        <ele>372.8</ele>
        <time>2020-08-12T06:50:43Z</time>
      </trkpt>
      <trkpt lat="48.68091" lon="7.22286">
        <ele>372.4</ele>
        <time>2020-08-12T06:50:45Z</time>
      </trkpt>
      <trkpt lat="48.68093" lon="7.22269">
        <ele>371.9</ele>
        <time>2020-08-12T06:50:47Z</time>
      </trkpt>
      <trkpt lat="48.68094" lon="7.22251">
        <ele>371.3</ele>
        <time>2020-08-12T06:50:49Z</time>
      </trkpt>
      <trkpt lat="48.68094" lon="7.22244">
        <ele>370.2</ele>
        <time>2020-08-12T06:50:51Z</time>
      </trkpt>
      <trkpt lat="48.68094" lon="7.22228">
        <ele>369</ele>
        <time>2020-08-12T06:50:53Z</time>
      </trkpt>
      <trkpt lat="48.68092" lon="7.22209">
        <ele>367.7</ele>
        <time>2020-08-12T06:50:55Z</time>
      </trkpt>
      <trkpt lat="48.68091" lon="7.22186">
        <ele>366.5</ele>
        <time>2020-08-12T06:50:57Z</time>
      </trkpt>
      <trkpt lat="48.68089" lon="7.22165">
        <ele>365.5</ele>
        <time>2020-08-12T06:50:59Z</time>
      </trkpt>
      <trkpt lat="48.68085" lon="7.22145">
        <ele>365.8</ele>
        <time>2020-08-12T06:51:01Z</time>
      </trkpt>
      <trkpt lat="48.68082" lon="7.22125">
        <ele>364.5</ele>
        <time>2020-08-12T06:51:03Z</time>
      </trkpt>
      <trkpt lat="48.68078" lon="7.22106">
        <ele>363.6</ele>
        <time>2020-08-12T06:51:05Z</time>
      </trkpt>
      <trkpt lat="48.68074" lon="7.22087">
        <ele>361.4</ele>
        <time>2020-08-12T06:51:07Z</time>
      </trkpt>
      <trkpt lat="48.68068" lon="7.22072">
        <ele>359.8</ele>
        <time>2020-08-12T06:51:09Z</time>
      </trkpt>
      <trkpt lat="48.68062" lon="7.22054">
        <ele>359.2</ele>
        <time>2020-08-12T06:51:11Z</time>
      </trkpt>
      <trkpt lat="48.68058" lon="7.22033">
        <ele>358.7</ele>
        <time>2020-08-12T06:51:13Z</time>
      </trkpt>
      <trkpt lat="48.68053" lon="7.2201">
        <ele>357.9</ele>
        <time>2020-08-12T06:51:15Z</time>
      </trkpt>
      <trkpt lat="48.68049" lon="7.21989">
        <ele>361.7</ele>
        <time>2020-08-12T06:51:17Z</time>
      </trkpt>
      <trkpt lat="48.68044" lon="7.21968">
        <ele>360.2</ele>
        <time>2020-08-12T06:51:19Z</time>
      </trkpt>
      <trkpt lat="48.68038" lon="7.21949">
        <ele>359.3</ele>
        <time>2020-08-12T06:51:21Z</time>
      </trkpt>
      <trkpt lat="48.6803" lon="7.2193">
        <ele>357.8</ele>
        <time>2020-08-12T06:51:23Z</time>
      </trkpt>
      <trkpt lat="48.68025" lon="7.21912">
        <ele>356.6</ele>
        <time>2020-08-12T06:51:25Z</time>
      </trkpt>
      <trkpt lat="48.68019" lon="7.21892">
        <ele>354.7</ele>
        <time>2020-08-12T06:51:27Z</time>
      </trkpt>
      <trkpt lat="48.68015" lon="7.21872">
        <ele>356.8</ele>
        <time>2020-08-12T06:51:29Z</time>
      </trkpt>
      <trkpt lat="48.68014" lon="7.21855">
        <ele>354.1</ele>
        <time>2020-08-12T06:51:31Z</time>
      </trkpt>
      <trkpt lat="48.68015" lon="7.21837">
        <ele>351.5</ele>
        <time>2020-08-12T06:51:33Z</time>
      </trkpt>
      <trkpt lat="48.68018" lon="7.21823">
        <ele>350.1</ele>
        <time>2020-08-12T06:51:35Z</time>
      </trkpt>
      <trkpt lat="48.68024" lon="7.21812">
        <ele>348.3</ele>
        <time>2020-08-12T06:51:37Z</time>
      </trkpt>
      <trkpt lat="48.68031" lon="7.21802">
        <ele>347</ele>
        <time>2020-08-12T06:51:39Z</time>
      </trkpt>
      <trkpt lat="48.68041" lon="7.21791">
        <ele>345.6</ele>
        <time>2020-08-12T06:51:41Z</time>
      </trkpt>
      <trkpt lat="48.6805" lon="7.2178">
        <ele>344.5</ele>
        <time>2020-08-12T06:51:43Z</time>
      </trkpt>
      <trkpt lat="48.68056" lon="7.21767">
        <ele>343.3</ele>
        <time>2020-08-12T06:51:45Z</time>
      </trkpt>
      <trkpt lat="48.68059" lon="7.21753">
        <ele>342.2</ele>
        <time>2020-08-12T06:51:47Z</time>
      </trkpt>
      <trkpt lat="48.68059" lon="7.21739">
        <ele>341.9</ele>
        <time>2020-08-12T06:51:49Z</time>
      </trkpt>
      <trkpt lat="48.68056" lon="7.21725">
        <ele>341.9</ele>
        <time>2020-08-12T06:51:51Z</time>
      </trkpt>
      <trkpt lat="48.68055" lon="7.21709">
        <ele>345.7</ele>
        <time>2020-08-12T06:51:53Z</time>
      </trkpt>
      <trkpt lat="48.68052" lon="7.21696">
        <ele>346.2</ele>
        <time>2020-08-12T06:51:55Z</time>
      </trkpt>
      <trkpt lat="48.68051" lon="7.21685">
        <ele>346.4</ele>
        <time>2020-08-12T06:51:57Z</time>
      </trkpt>
      <trkpt lat="48.6805" lon="7.21675">
        <ele>346.6</ele>
        <time>2020-08-12T06:51:59Z</time>
      </trkpt>
      <trkpt lat="48.68047" lon="7.21665">
        <ele>346.5</ele>
        <time>2020-08-12T06:52:01Z</time>
      </trkpt>
      <trkpt lat="48.68041" lon="7.21653">
        <ele>345.3</ele>
        <time>2020-08-12T06:52:03Z</time>
      </trkpt>
      <trkpt lat="48.68034" lon="7.21645">
        <ele>343.9</ele>
        <time>2020-08-12T06:52:05Z</time>
      </trkpt>
      <trkpt lat="48.6803" lon="7.21642">
        <ele>343.4</ele>
        <time>2020-08-12T06:52:07Z</time>
      </trkpt>
      <trkpt lat="48.68025" lon="7.21642">
        <ele>354.7</ele>
        <time>2020-08-12T06:52:17Z</time>
      </trkpt>
      <trkpt lat="48.68018" lon="7.21642">
        <ele>352</ele>
        <time>2020-08-12T06:52:20Z</time>
      </trkpt>
      <trkpt lat="48.68013" lon="7.2164">
        <ele>349.4</ele>
        <time>2020-08-12T06:52:22Z</time>
      </trkpt>
      <trkpt lat="48.68008" lon="7.2164">
        <ele>347.5</ele>
        <time>2020-08-12T06:52:24Z</time>
      </trkpt>
      <trkpt lat="48.68002" lon="7.21643">
        <ele>345.4</ele>
        <time>2020-08-12T06:52:26Z</time>
      </trkpt>
      <trkpt lat="48.67995" lon="7.21646">
        <ele>343.1</ele>
        <time>2020-08-12T06:52:28Z</time>
      </trkpt>
      <trkpt lat="48.67988" lon="7.21648">
        <ele>340.8</ele>
        <time>2020-08-12T06:52:30Z</time>
      </trkpt>
      <trkpt lat="48.6798" lon="7.21652">
        <ele>338.5</ele>
        <time>2020-08-12T06:52:32Z</time>
      </trkpt>
      <trkpt lat="48.67971" lon="7.21658">
        <ele>344.6</ele>
        <time>2020-08-12T06:52:34Z</time>
      </trkpt>
      <trkpt lat="48.67963" lon="7.21661">
        <ele>347.5</ele>
        <time>2020-08-12T06:52:36Z</time>
      </trkpt>
      <trkpt lat="48.67954" lon="7.21664">
        <ele>345.1</ele>
        <time>2020-08-12T06:52:38Z</time>
      </trkpt>
      <trkpt lat="48.67944" lon="7.21667">
        <ele>343.2</ele>
        <time>2020-08-12T06:52:40Z</time>
      </trkpt>
      <trkpt lat="48.67934" lon="7.2167">
        <ele>340.1</ele>
        <time>2020-08-12T06:52:42Z</time>
      </trkpt>
      <trkpt lat="48.67923" lon="7.21669">
        <ele>337.1</ele>
        <time>2020-08-12T06:52:44Z</time>
      </trkpt>
      <trkpt lat="48.67913" lon="7.21666">
        <ele>333.5</ele>
        <time>2020-08-12T06:52:46Z</time>
      </trkpt>
      <trkpt lat="48.67903" lon="7.21658">
        <ele>330.4</ele>
        <time>2020-08-12T06:52:48Z</time>
      </trkpt>
      <trkpt lat="48.67894" lon="7.21649">
        <ele>327.3</ele>
        <time>2020-08-12T06:52:50Z</time>
      </trkpt>
      <trkpt lat="48.67883" lon="7.21639">
        <ele>324.9</ele>
        <time>2020-08-12T06:52:52Z</time>
      </trkpt>
      <trkpt lat="48.67872" lon="7.21627">
        <ele>322.8</ele>
        <time>2020-08-12T06:52:54Z</time>
      </trkpt>
      <trkpt lat="48.6786" lon="7.21614">
        <ele>320.8</ele>
        <time>2020-08-12T06:52:56Z</time>
      </trkpt>
      <trkpt lat="48.67849" lon="7.21602">
        <ele>319.4</ele>
        <time>2020-08-12T06:52:58Z</time>
      </trkpt>
      <trkpt lat="48.67837" lon="7.21589">
        <ele>317.9</ele>
        <time>2020-08-12T06:53:00Z</time>
      </trkpt>
      <trkpt lat="48.67825" lon="7.21578">
        <ele>316.2</ele>
        <time>2020-08-12T06:53:02Z</time>
      </trkpt>
      <trkpt lat="48.67814" lon="7.21567">
        <ele>315.4</ele>
        <time>2020-08-12T06:53:04Z</time>
      </trkpt>
      <trkpt lat="48.67803" lon="7.21555">
        <ele>314.3</ele>
        <time>2020-08-12T06:53:06Z</time>
      </trkpt>
      <trkpt lat="48.67791" lon="7.21547">
        <ele>313.1</ele>
        <time>2020-08-12T06:53:08Z</time>
      </trkpt>
      <trkpt lat="48.6778" lon="7.21537">
        <ele>312.6</ele>
        <time>2020-08-12T06:53:10Z</time>
      </trkpt>
      <trkpt lat="48.6777" lon="7.21527">
        <ele>310.2</ele>
        <time>2020-08-12T06:53:12Z</time>
      </trkpt>
      <trkpt lat="48.67761" lon="7.21515">
        <ele>309.3</ele>
        <time>2020-08-12T06:53:14Z</time>
      </trkpt>
      <trkpt lat="48.67751" lon="7.21504">
        <ele>322.1</ele>
        <time>2020-08-12T06:53:16Z</time>
      </trkpt>
      <trkpt lat="48.67741" lon="7.21493">
        <ele>320.8</ele>
        <time>2020-08-12T06:53:18Z</time>
      </trkpt>
      <trkpt lat="48.67731" lon="7.2148">
        <ele>320</ele>
        <time>2020-08-12T06:53:20Z</time>
      </trkpt>
      <trkpt lat="48.67722" lon="7.21467">
        <ele>316.5</ele>
        <time>2020-08-12T06:53:22Z</time>
      </trkpt>
      <trkpt lat="48.67713" lon="7.21456">
        <ele>313.5</ele>
        <time>2020-08-12T06:53:24Z</time>
      </trkpt>
      <trkpt lat="48.67705" lon="7.21443">
        <ele>309.9</ele>
        <time>2020-08-12T06:53:26Z</time>
      </trkpt>
      <trkpt lat="48.67696" lon="7.21429">
        <ele>307</ele>
        <time>2020-08-12T06:53:28Z</time>
      </trkpt>
      <trkpt lat="48.67689" lon="7.21415">
        <ele>304.9</ele>
        <time>2020-08-12T06:53:30Z</time>
      </trkpt>
      <trkpt lat="48.67682" lon="7.21401">
        <ele>303.1</ele>
        <time>2020-08-12T06:53:32Z</time>
      </trkpt>
      <trkpt lat="48.67676" lon="7.21389">
        <ele>302.3</ele>
        <time>2020-08-12T06:53:34Z</time>
      </trkpt>
      <trkpt lat="48.6767" lon="7.21378">
        <ele>301.2</ele>
        <time>2020-08-12T06:53:36Z</time>
      </trkpt>
      <trkpt lat="48.67668" lon="7.21366">
        <ele>300.5</ele>
        <time>2020-08-12T06:53:38Z</time>
      </trkpt>
      <trkpt lat="48.67666" lon="7.21354">
        <ele>300</ele>
        <time>2020-08-12T06:53:40Z</time>
      </trkpt>
      <trkpt lat="48.67666" lon="7.21341">
        <ele>299.2</ele>
        <time>2020-08-12T06:53:42Z</time>
      </trkpt>
      <trkpt lat="48.67666" lon="7.2133">
        <ele>298.5</ele>
        <time>2020-08-12T06:53:44Z</time>
      </trkpt>
      <trkpt lat="48.67668" lon="7.21315">
        <ele>298.2</ele>
        <time>2020-08-12T06:53:46Z</time>
      </trkpt>
      <trkpt lat="48.6767" lon="7.21299">
        <ele>297.5</ele>
        <time>2020-08-12T06:53:48Z</time>
      </trkpt>
      <trkpt lat="48.67672" lon="7.21283">
        <ele>295.9</ele>
        <time>2020-08-12T06:53:50Z</time>
      </trkpt>
      <trkpt lat="48.67676" lon="7.21265">
        <ele>294.3</ele>
        <time>2020-08-12T06:53:52Z</time>
      </trkpt>
      <trkpt lat="48.6768" lon="7.21248">
        <ele>292.6</ele>
        <time>2020-08-12T06:53:54Z</time>
      </trkpt>
      <trkpt lat="48.67684" lon="7.21231">
        <ele>290.5</ele>
        <time>2020-08-12T06:53:56Z</time>
      </trkpt>
      <trkpt lat="48.67688" lon="7.21215">
        <ele>288.7</ele>
        <time>2020-08-12T06:53:58Z</time>
      </trkpt>
      <trkpt lat="48.67693" lon="7.21199">
        <ele>287.1</ele>
        <time>2020-08-12T06:54:00Z</time>
      </trkpt>
      <trkpt lat="48.67698" lon="7.21184">
        <ele>284.9</ele>
        <time>2020-08-12T06:54:02Z</time>
      </trkpt>
      <trkpt lat="48.67703" lon="7.21166">
        <ele>283.3</ele>
        <time>2020-08-12T06:54:04Z</time>
      </trkpt>
      <trkpt lat="48.67707" lon="7.21146">
        <ele>282.5</ele>
        <time>2020-08-12T06:54:06Z</time>
      </trkpt>
      <trkpt lat="48.67709" lon="7.21127">
        <ele>282.3</ele>
        <time>2020-08-12T06:54:08Z</time>
      </trkpt>
      <trkpt lat="48.67709" lon="7.21111">
        <ele>280.4</ele>
        <time>2020-08-12T06:54:10Z</time>
      </trkpt>
      <trkpt lat="48.67709" lon="7.21093">
        <ele>278.9</ele>
        <time>2020-08-12T06:54:12Z</time>
      </trkpt>
      <trkpt lat="48.6771" lon="7.21075">
        <ele>277.6</ele>
        <time>2020-08-12T06:54:14Z</time>
      </trkpt>
      <trkpt lat="48.67711" lon="7.21057">
        <ele>276</ele>
        <time>2020-08-12T06:54:16Z</time>
      </trkpt>
      <trkpt lat="48.67713" lon="7.2104">
        <ele>274.7</ele>
        <time>2020-08-12T06:54:18Z</time>
      </trkpt>
      <trkpt lat="48.67716" lon="7.21021">
        <ele>274.2</ele>
        <time>2020-08-12T06:54:20Z</time>
      </trkpt>
      <trkpt lat="48.67718" lon="7.21002">
        <ele>273.7</ele>
        <time>2020-08-12T06:54:22Z</time>
      </trkpt>
      <trkpt lat="48.67719" lon="7.20983">
        <ele>273</ele>
        <time>2020-08-12T06:54:24Z</time>
      </trkpt>
      <trkpt lat="48.67721" lon="7.20966">
        <ele>272.4</ele>
        <time>2020-08-12T06:54:26Z</time>
      </trkpt>
      <trkpt lat="48.67722" lon="7.20951">
        <ele>271.9</ele>
        <time>2020-08-12T06:54:28Z</time>
      </trkpt>
      <trkpt lat="48.67724" lon="7.20938">
        <ele>271.2</ele>
        <time>2020-08-12T06:54:30Z</time>
      </trkpt>
      <trkpt lat="48.67725" lon="7.20926">
        <ele>270.7</ele>
        <time>2020-08-12T06:54:32Z</time>
      </trkpt>
      <trkpt lat="48.67725" lon="7.20918">
        <ele>269.8</ele>
        <time>2020-08-12T06:54:35Z</time>
      </trkpt>
      <trkpt lat="48.67727" lon="7.20911">
        <ele>270.4</ele>
        <time>2020-08-12T06:54:54Z</time>
      </trkpt>
      <trkpt lat="48.67733" lon="7.20905">
        <ele>270.7</ele>
        <time>2020-08-12T06:54:57Z</time>
      </trkpt>
      <trkpt lat="48.67737" lon="7.20899">
        <ele>271.4</ele>
        <time>2020-08-12T06:54:59Z</time>
      </trkpt>
      <trkpt lat="48.67741" lon="7.20893">
        <ele>271.5</ele>
        <time>2020-08-12T06:55:01Z</time>
      </trkpt>
      <trkpt lat="48.67745" lon="7.20886">
        <ele>271.6</ele>
        <time>2020-08-12T06:55:03Z</time>
      </trkpt>
      <trkpt lat="48.67749" lon="7.20877">
        <ele>271.4</ele>
        <time>2020-08-12T06:55:05Z</time>
      </trkpt>
      <trkpt lat="48.67755" lon="7.20867">
        <ele>271.1</ele>
        <time>2020-08-12T06:55:07Z</time>
      </trkpt>
      <trkpt lat="48.67761" lon="7.20857">
        <ele>271.3</ele>
        <time>2020-08-12T06:55:09Z</time>
      </trkpt>
      <trkpt lat="48.67767" lon="7.20847">
        <ele>271.3</ele>
        <time>2020-08-12T06:55:11Z</time>
      </trkpt>
      <trkpt lat="48.67774" lon="7.20839">
        <ele>271.5</ele>
        <time>2020-08-12T06:55:13Z</time>
      </trkpt>
      <trkpt lat="48.67781" lon="7.2083">
        <ele>271.6</ele>
        <time>2020-08-12T06:55:15Z</time>
      </trkpt>
      <trkpt lat="48.67786" lon="7.20821">
        <ele>271.7</ele>
        <time>2020-08-12T06:55:17Z</time>
      </trkpt>
      <trkpt lat="48.67791" lon="7.20812">
        <ele>272</ele>
        <time>2020-08-12T06:55:19Z</time>
      </trkpt>
      <trkpt lat="48.67795" lon="7.208">
        <ele>272.3</ele>
        <time>2020-08-12T06:55:21Z</time>
      </trkpt>
      <trkpt lat="48.67798" lon="7.20788">
        <ele>272.5</ele>
        <time>2020-08-12T06:55:23Z</time>
      </trkpt>
      <trkpt lat="48.67802" lon="7.20775">
        <ele>272.1</ele>
        <time>2020-08-12T06:55:25Z</time>
      </trkpt>
      <trkpt lat="48.67806" lon="7.20762">
        <ele>272.2</ele>
        <time>2020-08-12T06:55:27Z</time>
      </trkpt>
      <trkpt lat="48.6781" lon="7.20747">
        <ele>272.3</ele>
        <time>2020-08-12T06:55:29Z</time>
      </trkpt>
      <trkpt lat="48.67813" lon="7.20733">
        <ele>271.8</ele>
        <time>2020-08-12T06:55:31Z</time>
      </trkpt>
      <trkpt lat="48.67816" lon="7.20717">
        <ele>271.2</ele>
        <time>2020-08-12T06:55:33Z</time>
      </trkpt>
      <trkpt lat="48.67819" lon="7.20701">
        <ele>270.9</ele>
        <time>2020-08-12T06:55:35Z</time>
      </trkpt>
      <trkpt lat="48.67821" lon="7.20686">
        <ele>270.2</ele>
        <time>2020-08-12T06:55:37Z</time>
      </trkpt>
      <trkpt lat="48.67824" lon="7.20669">
        <ele>269.5</ele>
        <time>2020-08-12T06:55:39Z</time>
      </trkpt>
      <trkpt lat="48.67827" lon="7.20653">
        <ele>268.5</ele>
        <time>2020-08-12T06:55:41Z</time>
      </trkpt>
      <trkpt lat="48.6783" lon="7.20638">
        <ele>268</ele>
        <time>2020-08-12T06:55:43Z</time>
      </trkpt>
      <trkpt lat="48.67833" lon="7.20624">
        <ele>268.1</ele>
        <time>2020-08-12T06:55:45Z</time>
      </trkpt>
      <trkpt lat="48.67834" lon="7.20612">
        <ele>268</ele>
        <time>2020-08-12T06:55:47Z</time>
      </trkpt>
      <trkpt lat="48.67835" lon="7.20599">
        <ele>267.6</ele>
        <time>2020-08-12T06:55:49Z</time>
      </trkpt>
      <trkpt lat="48.67837" lon="7.20585">
        <ele>267.7</ele>
        <time>2020-08-12T06:55:51Z</time>
      </trkpt>
      <trkpt lat="48.67838" lon="7.20572">
        <ele>267.9</ele>
        <time>2020-08-12T06:55:53Z</time>
      </trkpt>
      <trkpt lat="48.6784" lon="7.20559">
        <ele>268.6</ele>
        <time>2020-08-12T06:55:55Z</time>
      </trkpt>
      <trkpt lat="48.67844" lon="7.20546">
        <ele>269.2</ele>
        <time>2020-08-12T06:55:57Z</time>
      </trkpt>
      <trkpt lat="48.67848" lon="7.20534">
        <ele>270</ele>
        <time>2020-08-12T06:55:59Z</time>
      </trkpt>
      <trkpt lat="48.67852" lon="7.20521">
        <ele>270.5</ele>
        <time>2020-08-12T06:56:01Z</time>
      </trkpt>
      <trkpt lat="48.67856" lon="7.20506">
        <ele>270.3</ele>
        <time>2020-08-12T06:56:03Z</time>
      </trkpt>
      <trkpt lat="48.6786" lon="7.20491">
        <ele>270</ele>
        <time>2020-08-12T06:56:05Z</time>
      </trkpt>
      <trkpt lat="48.67864" lon="7.20476">
        <ele>269.4</ele>
        <time>2020-08-12T06:56:07Z</time>
      </trkpt>
      <trkpt lat="48.67867" lon="7.20458">
        <ele>268.3</ele>
        <time>2020-08-12T06:56:09Z</time>
      </trkpt>
      <trkpt lat="48.67871" lon="7.2044">
        <ele>266.6</ele>
        <time>2020-08-12T06:56:11Z</time>
      </trkpt>
      <trkpt lat="48.67871" lon="7.20431">
        <ele>266</ele>
        <time>2020-08-12T06:56:13Z</time>
      </trkpt>
      <trkpt lat="48.67872" lon="7.20423">
        <ele>276.9</ele>
        <time>2020-08-12T06:56:22Z</time>
      </trkpt>
      <trkpt lat="48.67873" lon="7.20417">
        <ele>274.6</ele>
        <time>2020-08-12T06:56:24Z</time>
      </trkpt>
      <trkpt lat="48.67877" lon="7.20407">
        <ele>273.3</ele>
        <time>2020-08-12T06:56:26Z</time>
      </trkpt>
      <trkpt lat="48.67882" lon="7.20396">
        <ele>271.6</ele>
        <time>2020-08-12T06:56:28Z</time>
      </trkpt>
      <trkpt lat="48.67889" lon="7.20384">
        <ele>269.7</ele>
        <time>2020-08-12T06:56:30Z</time>
      </trkpt>
      <trkpt lat="48.67897" lon="7.20373">
        <ele>268.2</ele>
        <time>2020-08-12T06:56:32Z</time>
      </trkpt>
      <trkpt lat="48.67906" lon="7.20359">
        <ele>266.9</ele>
        <time>2020-08-12T06:56:34Z</time>
      </trkpt>
      <trkpt lat="48.67914" lon="7.20345">
        <ele>266.1</ele>
        <time>2020-08-12T06:56:36Z</time>
      </trkpt>
      <trkpt lat="48.67922" lon="7.20331">
        <ele>265.1</ele>
        <time>2020-08-12T06:56:38Z</time>
      </trkpt>
      <trkpt lat="48.67932" lon="7.20319">
        <ele>263.8</ele>
        <time>2020-08-12T06:56:40Z</time>
      </trkpt>
      <trkpt lat="48.67942" lon="7.20307">
        <ele>263</ele>
        <time>2020-08-12T06:56:42Z</time>
      </trkpt>
      <trkpt lat="48.67951" lon="7.20296">
        <ele>262</ele>
        <time>2020-08-12T06:56:44Z</time>
      </trkpt>
      <trkpt lat="48.67961" lon="7.20282">
        <ele>261.9</ele>
        <time>2020-08-12T06:56:46Z</time>
      </trkpt>
      <trkpt lat="48.67969" lon="7.20266">
        <ele>261.4</ele>
        <time>2020-08-12T06:56:48Z</time>
      </trkpt>
      <trkpt lat="48.67976" lon="7.20247">
        <ele>261.3</ele>
        <time>2020-08-12T06:56:50Z</time>
      </trkpt>
      <trkpt lat="48.67982" lon="7.20228">
        <ele>260.8</ele>
        <time>2020-08-12T06:56:52Z</time>
      </trkpt>
      <trkpt lat="48.67987" lon="7.20209">
        <ele>260.9</ele>
        <time>2020-08-12T06:56:54Z</time>
      </trkpt>
      <trkpt lat="48.67991" lon="7.20189">
        <ele>261.2</ele>
        <time>2020-08-12T06:56:56Z</time>
      </trkpt>
      <trkpt lat="48.67993" lon="7.2017">
        <ele>261.8</ele>
        <time>2020-08-12T06:56:58Z</time>
      </trkpt>
      <trkpt lat="48.67995" lon="7.20153">
        <ele>262</ele>
        <time>2020-08-12T06:57:00Z</time>
      </trkpt>
      <trkpt lat="48.67997" lon="7.20136">
        <ele>262.2</ele>
        <time>2020-08-12T06:57:02Z</time>
      </trkpt>
      <trkpt lat="48.68" lon="7.20121">
        <ele>262.1</ele>
        <time>2020-08-12T06:57:04Z</time>
      </trkpt>
      <trkpt lat="48.68001" lon="7.20106">
        <ele>261.8</ele>
        <time>2020-08-12T06:57:06Z</time>
      </trkpt>
      <trkpt lat="48.68" lon="7.20093">
        <ele>261.8</ele>
        <time>2020-08-12T06:57:08Z</time>
      </trkpt>
      <trkpt lat="48.67997" lon="7.2008">
        <ele>260.9</ele>
        <time>2020-08-12T06:57:10Z</time>
      </trkpt>
      <trkpt lat="48.67997" lon="7.20066">
        <ele>260.2</ele>
        <time>2020-08-12T06:57:12Z</time>
      </trkpt>
      <trkpt lat="48.67996" lon="7.20054">
        <ele>259.7</ele>
        <time>2020-08-12T06:57:14Z</time>
      </trkpt>
      <trkpt lat="48.67994" lon="7.20038">
        <ele>259.3</ele>
        <time>2020-08-12T06:57:16Z</time>
      </trkpt>
      <trkpt lat="48.67992" lon="7.20021">
        <ele>258.5</ele>
        <time>2020-08-12T06:57:18Z</time>
      </trkpt>
      <trkpt lat="48.67989" lon="7.20004">
        <ele>257.8</ele>
        <time>2020-08-12T06:57:20Z</time>
      </trkpt>
      <trkpt lat="48.67987" lon="7.19988">
        <ele>256.7</ele>
        <time>2020-08-12T06:57:22Z</time>
      </trkpt>
      <trkpt lat="48.67984" lon="7.19972">
        <ele>256.7</ele>
        <time>2020-08-12T06:57:24Z</time>
      </trkpt>
      <trkpt lat="48.67985" lon="7.19953">
        <ele>277.4</ele>
        <time>2020-08-12T06:57:26Z</time>
      </trkpt>
      <trkpt lat="48.67987" lon="7.19935">
        <ele>276.4</ele>
        <time>2020-08-12T06:57:28Z</time>
      </trkpt>
      <trkpt lat="48.67989" lon="7.19918">
        <ele>274.1</ele>
        <time>2020-08-12T06:57:30Z</time>
      </trkpt>
      <trkpt lat="48.67993" lon="7.19903">
        <ele>270.5</ele>
        <time>2020-08-12T06:57:32Z</time>
      </trkpt>
      <trkpt lat="48.67998" lon="7.1989">
        <ele>267.5</ele>
        <time>2020-08-12T06:57:34Z</time>
      </trkpt>
      <trkpt lat="48.68005" lon="7.19881">
        <ele>265.2</ele>
        <time>2020-08-12T06:57:36Z</time>
      </trkpt>
      <trkpt lat="48.68014" lon="7.19872">
        <ele>263.3</ele>
        <time>2020-08-12T06:57:38Z</time>
      </trkpt>
      <trkpt lat="48.68024" lon="7.19865">
        <ele>261.7</ele>
        <time>2020-08-12T06:57:40Z</time>
      </trkpt>
      <trkpt lat="48.68034" lon="7.19857">
        <ele>260.2</ele>
        <time>2020-08-12T06:57:42Z</time>
      </trkpt>
      <trkpt lat="48.68043" lon="7.19852">
        <ele>259</ele>
        <time>2020-08-12T06:57:44Z</time>
      </trkpt>
      <trkpt lat="48.68052" lon="7.19847">
        <ele>258.2</ele>
        <time>2020-08-12T06:57:46Z</time>
      </trkpt>
      <trkpt lat="48.68061" lon="7.19844">
        <ele>257.3</ele>
        <time>2020-08-12T06:57:48Z</time>
      </trkpt>
      <trkpt lat="48.68069" lon="7.19842">
        <ele>256.8</ele>
        <time>2020-08-12T06:57:50Z</time>
      </trkpt>
      <trkpt lat="48.68078" lon="7.19839">
        <ele>256.4</ele>
        <time>2020-08-12T06:57:52Z</time>
      </trkpt>
      <trkpt lat="48.68087" lon="7.19835">
        <ele>256.4</ele>
        <time>2020-08-12T06:57:54Z</time>
      </trkpt>
      <trkpt lat="48.68097" lon="7.19832">
        <ele>255.8</ele>
        <time>2020-08-12T06:57:56Z</time>
      </trkpt>
      <trkpt lat="48.68107" lon="7.19828">
        <ele>255.5</ele>
        <time>2020-08-12T06:57:58Z</time>
      </trkpt>
      <trkpt lat="48.68117" lon="7.19821">
        <ele>255</ele>
        <time>2020-08-12T06:58:00Z</time>
      </trkpt>
      <trkpt lat="48.68128" lon="7.19813">
        <ele>254.5</ele>
        <time>2020-08-12T06:58:02Z</time>
      </trkpt>
      <trkpt lat="48.68138" lon="7.19801">
        <ele>254.2</ele>
        <time>2020-08-12T06:58:04Z</time>
      </trkpt>
      <trkpt lat="48.68145" lon="7.1979">
        <ele>253.6</ele>
        <time>2020-08-12T06:58:06Z</time>
      </trkpt>
      <trkpt lat="48.6815" lon="7.19781">
        <ele>253.1</ele>
        <time>2020-08-12T06:58:08Z</time>
      </trkpt>
      <trkpt lat="48.68152" lon="7.19772">
        <ele>252.6</ele>
        <time>2020-08-12T06:58:10Z</time>
      </trkpt>
      <trkpt lat="48.68154" lon="7.19763">
        <ele>252.4</ele>
        <time>2020-08-12T06:58:12Z</time>
      </trkpt>
      <trkpt lat="48.68158" lon="7.19757">
        <ele>251.7</ele>
        <time>2020-08-12T06:58:14Z</time>
      </trkpt>
      <trkpt lat="48.68164" lon="7.19753">
        <ele>251.3</ele>
        <time>2020-08-12T06:58:16Z</time>
      </trkpt>
      <trkpt lat="48.68171" lon="7.1975">
        <ele>250.9</ele>
        <time>2020-08-12T06:58:18Z</time>
      </trkpt>
      <trkpt lat="48.68178" lon="7.19746">
        <ele>250.6</ele>
        <time>2020-08-12T06:58:20Z</time>
      </trkpt>
      <trkpt lat="48.68184" lon="7.19742">
        <ele>250.3</ele>
        <time>2020-08-12T06:58:22Z</time>
      </trkpt>
      <trkpt lat="48.68189" lon="7.19737">
        <ele>250</ele>
        <time>2020-08-12T06:58:24Z</time>
      </trkpt>
      <trkpt lat="48.68191" lon="7.1973">
        <ele>250.4</ele>
        <time>2020-08-12T06:58:26Z</time>
      </trkpt>
      <trkpt lat="48.68189" lon="7.19723">
        <ele>254.2</ele>
        <time>2020-08-12T06:58:44Z</time>
      </trkpt>
      <trkpt lat="48.68186" lon="7.19713">
        <ele>253.7</ele>
        <time>2020-08-12T06:58:47Z</time>
      </trkpt>
      <trkpt lat="48.68182" lon="7.19703">
        <ele>252.8</ele>
        <time>2020-08-12T06:58:49Z</time>
      </trkpt>
      <trkpt lat="48.68179" lon="7.1969">
        <ele>252.1</ele>
        <time>2020-08-12T06:58:51Z</time>
      </trkpt>
      <trkpt lat="48.68176" lon="7.19681">
        <ele>250.2</ele>
        <time>2020-08-12T06:58:53Z</time>
      </trkpt>
      <trkpt lat="48.68172" lon="7.19673">
        <ele>248.8</ele>
        <time>2020-08-12T06:58:55Z</time>
      </trkpt>
      <trkpt lat="48.68167" lon="7.19662">
        <ele>247</ele>
        <time>2020-08-12T06:58:57Z</time>
      </trkpt>
      <trkpt lat="48.6816" lon="7.19652">
        <ele>246.3</ele>
        <time>2020-08-12T06:58:59Z</time>
      </trkpt>
      <trkpt lat="48.68153" lon="7.19644">
        <ele>245.5</ele>
        <time>2020-08-12T06:59:01Z</time>
      </trkpt>
      <trkpt lat="48.68146" lon="7.19638">
        <ele>245.4</ele>
        <time>2020-08-12T06:59:03Z</time>
      </trkpt>
      <trkpt lat="48.68139" lon="7.19631">
        <ele>245.5</ele>
        <time>2020-08-12T06:59:05Z</time>
      </trkpt>
      <trkpt lat="48.68132" lon="7.19627">
        <ele>245.5</ele>
        <time>2020-08-12T06:59:07Z</time>
      </trkpt>
      <trkpt lat="48.68127" lon="7.19625">
        <ele>246.2</ele>
        <time>2020-08-12T06:59:09Z</time>
      </trkpt>
      <trkpt lat="48.68122" lon="7.19624">
        <ele>245.2</ele>
        <time>2020-08-12T06:59:26Z</time>
      </trkpt>
      <trkpt lat="48.68118" lon="7.19627">
        <ele>251.2</ele>
        <time>2020-08-12T07:00:27Z</time>
      </trkpt>
      <trkpt lat="48.68111" lon="7.19624">
        <ele>251.7</ele>
        <time>2020-08-12T07:00:30Z</time>
      </trkpt>
      <trkpt lat="48.68104" lon="7.19621">
        <ele>252.1</ele>
        <time>2020-08-12T07:00:32Z</time>
      </trkpt>
      <trkpt lat="48.68096" lon="7.19618">
        <ele>252.1</ele>
        <time>2020-08-12T07:00:34Z</time>
      </trkpt>
      <trkpt lat="48.68089" lon="7.19616">
        <ele>252.2</ele>
        <time>2020-08-12T07:00:36Z</time>
      </trkpt>
      <trkpt lat="48.68081" lon="7.19613">
        <ele>252.3</ele>
        <time>2020-08-12T07:00:38Z</time>
      </trkpt>
      <trkpt lat="48.68072" lon="7.19611">
        <ele>252.4</ele>
        <time>2020-08-12T07:00:40Z</time>
      </trkpt>
      <trkpt lat="48.68064" lon="7.19609">
        <ele>252.7</ele>
        <time>2020-08-12T07:00:42Z</time>
      </trkpt>
      <trkpt lat="48.68055" lon="7.19608">
        <ele>252.9</ele>
        <time>2020-08-12T07:00:44Z</time>
      </trkpt>
      <trkpt lat="48.68046" lon="7.19606">
        <ele>252.9</ele>
        <time>2020-08-12T07:00:46Z</time>
      </trkpt>
      <trkpt lat="48.68037" lon="7.19604">
        <ele>253.1</ele>
        <time>2020-08-12T07:00:48Z</time>
      </trkpt>
      <trkpt lat="48.68027" lon="7.19602">
        <ele>253.5</ele>
        <time>2020-08-12T07:00:50Z</time>
      </trkpt>
      <trkpt lat="48.68018" lon="7.19599">
        <ele>253.9</ele>
        <time>2020-08-12T07:00:52Z</time>
      </trkpt>
      <trkpt lat="48.68008" lon="7.19596">
        <ele>254.6</ele>
        <time>2020-08-12T07:00:54Z</time>
      </trkpt>
      <trkpt lat="48.67999" lon="7.19593">
        <ele>255.1</ele>
        <time>2020-08-12T07:00:56Z</time>
      </trkpt>
      <trkpt lat="48.67989" lon="7.19591">
        <ele>255.6</ele>
        <time>2020-08-12T07:00:58Z</time>
      </trkpt>
      <trkpt lat="48.6798" lon="7.19587">
        <ele>255.8</ele>
        <time>2020-08-12T07:01:00Z</time>
      </trkpt>
      <trkpt lat="48.6797" lon="7.19585">
        <ele>256.2</ele>
        <time>2020-08-12T07:01:02Z</time>
      </trkpt>
      <trkpt lat="48.67961" lon="7.19583">
        <ele>256.6</ele>
        <time>2020-08-12T07:01:04Z</time>
      </trkpt>
      <trkpt lat="48.67951" lon="7.19581">
        <ele>257.1</ele>
        <time>2020-08-12T07:01:06Z</time>
      </trkpt>
      <trkpt lat="48.67941" lon="7.19579">
        <ele>257.4</ele>
        <time>2020-08-12T07:01:08Z</time>
      </trkpt>
      <trkpt lat="48.67932" lon="7.19578">
        <ele>257.8</ele>
        <time>2020-08-12T07:01:10Z</time>
      </trkpt>
      <trkpt lat="48.67922" lon="7.19577">
        <ele>258.1</ele>
        <time>2020-08-12T07:01:12Z</time>
      </trkpt>
      <trkpt lat="48.67913" lon="7.19577">
        <ele>258.2</ele>
        <time>2020-08-12T07:01:14Z</time>
      </trkpt>
      <trkpt lat="48.67903" lon="7.19578">
        <ele>258.6</ele>
        <time>2020-08-12T07:01:16Z</time>
      </trkpt>
      <trkpt lat="48.67893" lon="7.1958">
        <ele>259.3</ele>
        <time>2020-08-12T07:01:18Z</time>
      </trkpt>
      <trkpt lat="48.67883" lon="7.19583">
        <ele>259.7</ele>
        <time>2020-08-12T07:01:20Z</time>
      </trkpt>
      <trkpt lat="48.67873" lon="7.19586">
        <ele>260.2</ele>
        <time>2020-08-12T07:01:22Z</time>
      </trkpt>
      <trkpt lat="48.67863" lon="7.19588">
        <ele>260.4</ele>
        <time>2020-08-12T07:01:24Z</time>
      </trkpt>
      <trkpt lat="48.67853" lon="7.19593">
        <ele>260.7</ele>
        <time>2020-08-12T07:01:26Z</time>
      </trkpt>
      <trkpt lat="48.67843" lon="7.19597">
        <ele>260.7</ele>
        <time>2020-08-12T07:01:28Z</time>
      </trkpt>
      <trkpt lat="48.67834" lon="7.19601">
        <ele>260.7</ele>
        <time>2020-08-12T07:01:30Z</time>
      </trkpt>
      <trkpt lat="48.67824" lon="7.19607">
        <ele>260.7</ele>
        <time>2020-08-12T07:01:32Z</time>
      </trkpt>
      <trkpt lat="48.67814" lon="7.19612">
        <ele>260.7</ele>
        <time>2020-08-12T07:01:34Z</time>
      </trkpt>
      <trkpt lat="48.67805" lon="7.19618">
        <ele>260.4</ele>
        <time>2020-08-12T07:01:36Z</time>
      </trkpt>
      <trkpt lat="48.67795" lon="7.19625">
        <ele>260.5</ele>
        <time>2020-08-12T07:01:38Z</time>
      </trkpt>
      <trkpt lat="48.67785" lon="7.1963">
        <ele>258.8</ele>
        <time>2020-08-12T07:01:40Z</time>
      </trkpt>
      <trkpt lat="48.67775" lon="7.19636">
        <ele>258</ele>
        <time>2020-08-12T07:01:42Z</time>
      </trkpt>
      <trkpt lat="48.67766" lon="7.1964">
        <ele>257.6</ele>
        <time>2020-08-12T07:01:44Z</time>
      </trkpt>
      <trkpt lat="48.67756" lon="7.19645">
        <ele>257.8</ele>
        <time>2020-08-12T07:01:46Z</time>
      </trkpt>
      <trkpt lat="48.67746" lon="7.19648">
        <ele>258.8</ele>
        <time>2020-08-12T07:01:48Z</time>
      </trkpt>
      <trkpt lat="48.67736" lon="7.19651">
        <ele>259.4</ele>
        <time>2020-08-12T07:01:50Z</time>
      </trkpt>
      <trkpt lat="48.67726" lon="7.19653">
        <ele>259.6</ele>
        <time>2020-08-12T07:01:52Z</time>
      </trkpt>
      <trkpt lat="48.67715" lon="7.19655">
        <ele>260.1</ele>
        <time>2020-08-12T07:01:54Z</time>
      </trkpt>
      <trkpt lat="48.67704" lon="7.19659">
        <ele>260.7</ele>
        <time>2020-08-12T07:01:56Z</time>
      </trkpt>
      <trkpt lat="48.67693" lon="7.19663">
        <ele>261</ele>
        <time>2020-08-12T07:01:58Z</time>
      </trkpt>
      <trkpt lat="48.67681" lon="7.19667">
        <ele>261</ele>
        <time>2020-08-12T07:02:00Z</time>
      </trkpt>
      <trkpt lat="48.67669" lon="7.19671">
        <ele>261.8</ele>
        <time>2020-08-12T07:02:02Z</time>
      </trkpt>
      <trkpt lat="48.67658" lon="7.19674">
        <ele>262.8</ele>
        <time>2020-08-12T07:02:04Z</time>
      </trkpt>
      <trkpt lat="48.67647" lon="7.19675">
        <ele>263.3</ele>
        <time>2020-08-12T07:02:06Z</time>
      </trkpt>
      <trkpt lat="48.67636" lon="7.19673">
        <ele>263.2</ele>
        <time>2020-08-12T07:02:08Z</time>
      </trkpt>
      <trkpt lat="48.67626" lon="7.19669">
        <ele>262.9</ele>
        <time>2020-08-12T07:02:10Z</time>
      </trkpt>
      <trkpt lat="48.67616" lon="7.19663">
        <ele>262.8</ele>
        <time>2020-08-12T07:02:12Z</time>
      </trkpt>
      <trkpt lat="48.67606" lon="7.19657">
        <ele>262.7</ele>
        <time>2020-08-12T07:02:14Z</time>
      </trkpt>
      <trkpt lat="48.67596" lon="7.19651">
        <ele>262.6</ele>
        <time>2020-08-12T07:02:16Z</time>
      </trkpt>
      <trkpt lat="48.67588" lon="7.19643">
        <ele>262.1</ele>
        <time>2020-08-12T07:02:18Z</time>
      </trkpt>
      <trkpt lat="48.6758" lon="7.19635">
        <ele>262.1</ele>
        <time>2020-08-12T07:02:20Z</time>
      </trkpt>
      <trkpt lat="48.67573" lon="7.19627">
        <ele>262</ele>
        <time>2020-08-12T07:02:22Z</time>
      </trkpt>
      <trkpt lat="48.67564" lon="7.19617">
        <ele>262</ele>
        <time>2020-08-12T07:02:24Z</time>
      </trkpt>
      <trkpt lat="48.67555" lon="7.19608">
        <ele>261.8</ele>
        <time>2020-08-12T07:02:26Z</time>
      </trkpt>
      <trkpt lat="48.67543" lon="7.19599">
        <ele>261.6</ele>
        <time>2020-08-12T07:02:28Z</time>
      </trkpt>
      <trkpt lat="48.67531" lon="7.19589">
        <ele>261.4</ele>
        <time>2020-08-12T07:02:30Z</time>
      </trkpt>
      <trkpt lat="48.6752" lon="7.1958">
        <ele>261.4</ele>
        <time>2020-08-12T07:02:32Z</time>
      </trkpt>
      <trkpt lat="48.67507" lon="7.19569">
        <ele>261.7</ele>
        <time>2020-08-12T07:02:34Z</time>
      </trkpt>
      <trkpt lat="48.67495" lon="7.19559">
        <ele>261.8</ele>
        <time>2020-08-12T07:02:36Z</time>
      </trkpt>
      <trkpt lat="48.67484" lon="7.19549">
        <ele>261.7</ele>
        <time>2020-08-12T07:02:38Z</time>
      </trkpt>
      <trkpt lat="48.67473" lon="7.19539">
        <ele>261.8</ele>
        <time>2020-08-12T07:02:40Z</time>
      </trkpt>
      <trkpt lat="48.67462" lon="7.19529">
        <ele>261.9</ele>
        <time>2020-08-12T07:02:42Z</time>
      </trkpt>
      <trkpt lat="48.67453" lon="7.19518">
        <ele>261.8</ele>
        <time>2020-08-12T07:02:44Z</time>
      </trkpt>
      <trkpt lat="48.67444" lon="7.19506">
        <ele>261.5</ele>
        <time>2020-08-12T07:02:46Z</time>
      </trkpt>
      <trkpt lat="48.67437" lon="7.19495">
        <ele>261.5</ele>
        <time>2020-08-12T07:02:48Z</time>
      </trkpt>
      <trkpt lat="48.67433" lon="7.19489">
        <ele>261.8</ele>
        <time>2020-08-12T07:02:50Z</time>
      </trkpt>
      <trkpt lat="48.67429" lon="7.19485">
        <ele>262.5</ele>
        <time>2020-08-12T07:02:55Z</time>
      </trkpt>
      <trkpt lat="48.67425" lon="7.19484">
        <ele>262.8</ele>
        <time>2020-08-12T07:02:57Z</time>
      </trkpt>
      <trkpt lat="48.6742" lon="7.19482">
        <ele>262.7</ele>
        <time>2020-08-12T07:02:59Z</time>
      </trkpt>
      <trkpt lat="48.67413" lon="7.19479">
        <ele>262.8</ele>
        <time>2020-08-12T07:03:01Z</time>
      </trkpt>
      <trkpt lat="48.67405" lon="7.19478">
        <ele>262.7</ele>
        <time>2020-08-12T07:03:03Z</time>
      </trkpt>
      <trkpt lat="48.67396" lon="7.19478">
        <ele>263.2</ele>
        <time>2020-08-12T07:03:05Z</time>
      </trkpt>
      <trkpt lat="48.67387" lon="7.19478">
        <ele>263.3</ele>
        <time>2020-08-12T07:03:07Z</time>
      </trkpt>
      <trkpt lat="48.67382" lon="7.19478">
        <ele>263.4</ele>
        <time>2020-08-12T07:03:09Z</time>
      </trkpt>
      <trkpt lat="48.67377" lon="7.19477">
        <ele>263.7</ele>
        <time>2020-08-12T07:03:16Z</time>
      </trkpt>
      <trkpt lat="48.6737" lon="7.19478">
        <ele>263.7</ele>
        <time>2020-08-12T07:03:19Z</time>
      </trkpt>
      <trkpt lat="48.67363" lon="7.1948">
        <ele>263.6</ele>
        <time>2020-08-12T07:03:21Z</time>
      </trkpt>
      <trkpt lat="48.67356" lon="7.19481">
        <ele>263.5</ele>
        <time>2020-08-12T07:03:23Z</time>
      </trkpt>
      <trkpt lat="48.67348" lon="7.19482">
        <ele>263.2</ele>
        <time>2020-08-12T07:03:25Z</time>
      </trkpt>
      <trkpt lat="48.6734" lon="7.19483">
        <ele>262.8</ele>
        <time>2020-08-12T07:03:27Z</time>
      </trkpt>
      <trkpt lat="48.67332" lon="7.19484">
        <ele>262.9</ele>
        <time>2020-08-12T07:03:29Z</time>
      </trkpt>
      <trkpt lat="48.67323" lon="7.19484">
        <ele>262.8</ele>
        <time>2020-08-12T07:03:31Z</time>
      </trkpt>
      <trkpt lat="48.67314" lon="7.19482">
        <ele>262.8</ele>
        <time>2020-08-12T07:03:33Z</time>
      </trkpt>
      <trkpt lat="48.67306" lon="7.19479">
        <ele>263.5</ele>
        <time>2020-08-12T07:03:35Z</time>
      </trkpt>
      <trkpt lat="48.67299" lon="7.19475">
        <ele>264</ele>
        <time>2020-08-12T07:03:37Z</time>
      </trkpt>
      <trkpt lat="48.67293" lon="7.1947">
        <ele>264.8</ele>
        <time>2020-08-12T07:03:39Z</time>
      </trkpt>
      <trkpt lat="48.67288" lon="7.19467">
        <ele>265.2</ele>
        <time>2020-08-12T07:03:41Z</time>
      </trkpt>
      <trkpt lat="48.67283" lon="7.19463">
        <ele>266.5</ele>
        <time>2020-08-12T07:03:43Z</time>
      </trkpt>
      <trkpt lat="48.67279" lon="7.19459">
        <ele>267.9</ele>
        <time>2020-08-12T07:03:45Z</time>
      </trkpt>
      <trkpt lat="48.67275" lon="7.19455">
        <ele>269.2</ele>
        <time>2020-08-12T07:03:47Z</time>
      </trkpt>
      <trkpt lat="48.67269" lon="7.1945">
        <ele>270.1</ele>
        <time>2020-08-12T07:03:49Z</time>
      </trkpt>
      <trkpt lat="48.67264" lon="7.19444">
        <ele>270.8</ele>
        <time>2020-08-12T07:03:51Z</time>
      </trkpt>
      <trkpt lat="48.67259" lon="7.1944">
        <ele>270.8</ele>
        <time>2020-08-12T07:03:53Z</time>
      </trkpt>
      <trkpt lat="48.67252" lon="7.19435">
        <ele>270.9</ele>
        <time>2020-08-12T07:03:55Z</time>
      </trkpt>
      <trkpt lat="48.67245" lon="7.19429">
        <ele>271.2</ele>
        <time>2020-08-12T07:03:57Z</time>
      </trkpt>
      <trkpt lat="48.67238" lon="7.19425">
        <ele>271.4</ele>
        <time>2020-08-12T07:03:59Z</time>
      </trkpt>
      <trkpt lat="48.67231" lon="7.19419">
        <ele>271.6</ele>
        <time>2020-08-12T07:04:01Z</time>
      </trkpt>
      <trkpt lat="48.67223" lon="7.19414">
        <ele>289</ele>
        <time>2020-08-12T07:04:03Z</time>
      </trkpt>
      <trkpt lat="48.67216" lon="7.19411">
        <ele>291.7</ele>
        <time>2020-08-12T07:04:05Z</time>
      </trkpt>
      <trkpt lat="48.67211" lon="7.19411">
        <ele>292.5</ele>
        <time>2020-08-12T07:04:08Z</time>
      </trkpt>
      <trkpt lat="48.67206" lon="7.19412">
        <ele>284.7</ele>
        <time>2020-08-12T07:04:14Z</time>
      </trkpt>
      <trkpt lat="48.67202" lon="7.19408">
        <ele>293.1</ele>
        <time>2020-08-12T07:04:25Z</time>
      </trkpt>
      <trkpt lat="48.67199" lon="7.19404">
        <ele>302.4</ele>
        <time>2020-08-12T07:04:41Z</time>
      </trkpt>
      <trkpt lat="48.67196" lon="7.19398">
        <ele>307.7</ele>
        <time>2020-08-12T07:04:45Z</time>
      </trkpt>
      <trkpt lat="48.67193" lon="7.19391">
        <ele>304</ele>
        <time>2020-08-12T07:04:48Z</time>
      </trkpt>
      <trkpt lat="48.67189" lon="7.19386">
        <ele>300.5</ele>
        <time>2020-08-12T07:04:50Z</time>
      </trkpt>
      <trkpt lat="48.67184" lon="7.1938">
        <ele>297.7</ele>
        <time>2020-08-12T07:04:52Z</time>
      </trkpt>
      <trkpt lat="48.67179" lon="7.19375">
        <ele>295.3</ele>
        <time>2020-08-12T07:04:54Z</time>
      </trkpt>
      <trkpt lat="48.67172" lon="7.19371">
        <ele>293.9</ele>
        <time>2020-08-12T07:04:56Z</time>
      </trkpt>
      <trkpt lat="48.67166" lon="7.19367">
        <ele>292.7</ele>
        <time>2020-08-12T07:04:58Z</time>
      </trkpt>
      <trkpt lat="48.6716" lon="7.19361">
        <ele>292.3</ele>
        <time>2020-08-12T07:05:00Z</time>
      </trkpt>
      <trkpt lat="48.67155" lon="7.19354">
        <ele>292.1</ele>
        <time>2020-08-12T07:05:02Z</time>
      </trkpt>
      <trkpt lat="48.67149" lon="7.19348">
        <ele>292</ele>
        <time>2020-08-12T07:05:04Z</time>
      </trkpt>
      <trkpt lat="48.67143" lon="7.1934">
        <ele>291.9</ele>
        <time>2020-08-12T07:05:06Z</time>
      </trkpt>
      <trkpt lat="48.67137" lon="7.19333">
        <ele>291.7</ele>
        <time>2020-08-12T07:05:08Z</time>
      </trkpt>
      <trkpt lat="48.67131" lon="7.19326">
        <ele>292.1</ele>
        <time>2020-08-12T07:05:10Z</time>
      </trkpt>
      <trkpt lat="48.67125" lon="7.19319">
        <ele>293.4</ele>
        <time>2020-08-12T07:05:12Z</time>
      </trkpt>
      <trkpt lat="48.67119" lon="7.19312">
        <ele>300.4</ele>
        <time>2020-08-12T07:05:14Z</time>
      </trkpt>
      <trkpt lat="48.67112" lon="7.19305">
        <ele>301.2</ele>
        <time>2020-08-12T07:05:16Z</time>
      </trkpt>
      <trkpt lat="48.67105" lon="7.19297">
        <ele>301.2</ele>
        <time>2020-08-12T07:05:18Z</time>
      </trkpt>
      <trkpt lat="48.67099" lon="7.19289">
        <ele>301.7</ele>
        <time>2020-08-12T07:05:20Z</time>
      </trkpt>
      <trkpt lat="48.67093" lon="7.19283">
        <ele>301.5</ele>
        <time>2020-08-12T07:05:22Z</time>
      </trkpt>
      <trkpt lat="48.67087" lon="7.19278">
        <ele>302.1</ele>
        <time>2020-08-12T07:05:24Z</time>
      </trkpt>
      <trkpt lat="48.6708" lon="7.19273">
        <ele>302.6</ele>
        <time>2020-08-12T07:05:26Z</time>
      </trkpt>
      <trkpt lat="48.67074" lon="7.19267">
        <ele>302.9</ele>
        <time>2020-08-12T07:05:28Z</time>
      </trkpt>
      <trkpt lat="48.67069" lon="7.19261">
        <ele>302.6</ele>
        <time>2020-08-12T07:05:30Z</time>
      </trkpt>
      <trkpt lat="48.67065" lon="7.19256">
        <ele>302.4</ele>
        <time>2020-08-12T07:05:32Z</time>
      </trkpt>
      <trkpt lat="48.6706" lon="7.19249">
        <ele>302</ele>
        <time>2020-08-12T07:05:34Z</time>
      </trkpt>
      <trkpt lat="48.67054" lon="7.19241">
        <ele>302.8</ele>
        <time>2020-08-12T07:05:36Z</time>
      </trkpt>
      <trkpt lat="48.67049" lon="7.19233">
        <ele>303.3</ele>
        <time>2020-08-12T07:05:38Z</time>
      </trkpt>
      <trkpt lat="48.67044" lon="7.19225">
        <ele>303.9</ele>
        <time>2020-08-12T07:05:40Z</time>
      </trkpt>
      <trkpt lat="48.67038" lon="7.19216">
        <ele>304.6</ele>
        <time>2020-08-12T07:05:42Z</time>
      </trkpt>
      <trkpt lat="48.67033" lon="7.19207">
        <ele>305.2</ele>
        <time>2020-08-12T07:05:44Z</time>
      </trkpt>
      <trkpt lat="48.67027" lon="7.19198">
        <ele>306.8</ele>
        <time>2020-08-12T07:05:46Z</time>
      </trkpt>
      <trkpt lat="48.67022" lon="7.19188">
        <ele>307.4</ele>
        <time>2020-08-12T07:05:48Z</time>
      </trkpt>
      <trkpt lat="48.67017" lon="7.19178">
        <ele>307.6</ele>
        <time>2020-08-12T07:05:50Z</time>
      </trkpt>
      <trkpt lat="48.67012" lon="7.19168">
        <ele>307.8</ele>
        <time>2020-08-12T07:05:52Z</time>
      </trkpt>
      <trkpt lat="48.67009" lon="7.19157">
        <ele>308.1</ele>
        <time>2020-08-12T07:05:54Z</time>
      </trkpt>
      <trkpt lat="48.67005" lon="7.19145">
        <ele>308.8</ele>
        <time>2020-08-12T07:05:56Z</time>
      </trkpt>
      <trkpt lat="48.67001" lon="7.19132">
        <ele>310</ele>
        <time>2020-08-12T07:05:58Z</time>
      </trkpt>
      <trkpt lat="48.66998" lon="7.1912">
        <ele>311.1</ele>
        <time>2020-08-12T07:06:00Z</time>
      </trkpt>
      <trkpt lat="48.66995" lon="7.19108">
        <ele>312.7</ele>
        <time>2020-08-12T07:06:02Z</time>
      </trkpt>
      <trkpt lat="48.66992" lon="7.19096">
        <ele>314</ele>
        <time>2020-08-12T07:06:04Z</time>
      </trkpt>
      <trkpt lat="48.6699" lon="7.19084">
        <ele>330.6</ele>
        <time>2020-08-12T07:06:06Z</time>
      </trkpt>
      <trkpt lat="48.66989" lon="7.19074">
        <ele>334</ele>
        <time>2020-08-12T07:06:08Z</time>
      </trkpt>
      <trkpt lat="48.66989" lon="7.19064">
        <ele>335.4</ele>
        <time>2020-08-12T07:06:10Z</time>
      </trkpt>
      <trkpt lat="48.66989" lon="7.19054">
        <ele>335.4</ele>
        <time>2020-08-12T07:06:12Z</time>
      </trkpt>
      <trkpt lat="48.66989" lon="7.19043">
        <ele>335.4</ele>
        <time>2020-08-12T07:06:14Z</time>
      </trkpt>
      <trkpt lat="48.66988" lon="7.19032">
        <ele>334</ele>
        <time>2020-08-12T07:06:16Z</time>
      </trkpt>
      <trkpt lat="48.66986" lon="7.19021">
        <ele>332.9</ele>
        <time>2020-08-12T07:06:18Z</time>
      </trkpt>
      <trkpt lat="48.66982" lon="7.19012">
        <ele>332.6</ele>
        <time>2020-08-12T07:06:20Z</time>
      </trkpt>
      <trkpt lat="48.66979" lon="7.19005">
        <ele>331.9</ele>
        <time>2020-08-12T07:06:23Z</time>
      </trkpt>
      <trkpt lat="48.66974" lon="7.19001">
        <ele>340.9</ele>
        <time>2020-08-12T07:06:29Z</time>
      </trkpt>
      <trkpt lat="48.66975" lon="7.19008">
        <ele>338.7</ele>
        <time>2020-08-12T07:06:39Z</time>
      </trkpt>
      <trkpt lat="48.6698" lon="7.19013">
        <ele>337.1</ele>
        <time>2020-08-12T07:06:42Z</time>
      </trkpt>
      <trkpt lat="48.66985" lon="7.19016">
        <ele>336.4</ele>
        <time>2020-08-12T07:06:45Z</time>
      </trkpt>
      <trkpt lat="48.6699" lon="7.1902">
        <ele>336.3</ele>
        <time>2020-08-12T07:06:48Z</time>
      </trkpt>
      <trkpt lat="48.66996" lon="7.19025">
        <ele>334.7</ele>
        <time>2020-08-12T07:06:51Z</time>
      </trkpt>
      <trkpt lat="48.67" lon="7.19029">
        <ele>343</ele>
        <time>2020-08-12T07:06:53Z</time>
      </trkpt>
      <trkpt lat="48.67004" lon="7.19034">
        <ele>348.8</ele>
        <time>2020-08-12T07:06:55Z</time>
      </trkpt>
      <trkpt lat="48.67008" lon="7.19039">
        <ele>353.3</ele>
        <time>2020-08-12T07:06:57Z</time>
      </trkpt>
      <trkpt lat="48.67013" lon="7.19042">
        <ele>350.8</ele>
        <time>2020-08-12T07:06:59Z</time>
      </trkpt>
      <trkpt lat="48.67018" lon="7.19043">
        <ele>347.6</ele>
        <time>2020-08-12T07:07:01Z</time>
      </trkpt>
      <trkpt lat="48.67022" lon="7.19042">
        <ele>340.8</ele>
        <time>2020-08-12T07:07:06Z</time>
      </trkpt>
      <trkpt lat="48.67018" lon="7.19037">
        <ele>334.3</ele>
        <time>2020-08-12T07:07:16Z</time>
      </trkpt>
      <trkpt lat="48.67013" lon="7.19033">
        <ele>332.7</ele>
        <time>2020-08-12T07:07:18Z</time>
      </trkpt>
      <trkpt lat="48.67007" lon="7.19026">
        <ele>331.9</ele>
        <time>2020-08-12T07:07:20Z</time>
      </trkpt>
      <trkpt lat="48.66999" lon="7.19019">
        <ele>331.1</ele>
        <time>2020-08-12T07:07:22Z</time>
      </trkpt>
      <trkpt lat="48.66992" lon="7.19011">
        <ele>330</ele>
        <time>2020-08-12T07:07:24Z</time>
      </trkpt>
      <trkpt lat="48.66987" lon="7.19001">
        <ele>329.6</ele>
        <time>2020-08-12T07:07:26Z</time>
      </trkpt>
      <trkpt lat="48.66983" lon="7.18991">
        <ele>329.5</ele>
        <time>2020-08-12T07:07:28Z</time>
      </trkpt>
      <trkpt lat="48.66982" lon="7.18985">
        <ele>339.1</ele>
        <time>2020-08-12T07:07:30Z</time>
      </trkpt>
      <trkpt lat="48.66979" lon="7.18978">
        <ele>340.6</ele>
        <time>2020-08-12T07:07:33Z</time>
      </trkpt>
      <trkpt lat="48.66977" lon="7.18971">
        <ele>339.3</ele>
        <time>2020-08-12T07:07:38Z</time>
      </trkpt>
      <trkpt lat="48.66977" lon="7.18963">
        <ele>337.6</ele>
        <time>2020-08-12T07:07:43Z</time>
      </trkpt>
      <trkpt lat="48.66976" lon="7.18956">
        <ele>336.9</ele>
        <time>2020-08-12T07:07:47Z</time>
      </trkpt>
      <trkpt lat="48.66973" lon="7.18949">
        <ele>337.3</ele>
        <time>2020-08-12T07:07:51Z</time>
      </trkpt>
      <trkpt lat="48.6697" lon="7.18943">
        <ele>339.1</ele>
        <time>2020-08-12T07:07:56Z</time>
      </trkpt>
      <trkpt lat="48.66971" lon="7.18935">
        <ele>340.3</ele>
        <time>2020-08-12T07:08:01Z</time>
      </trkpt>
      <trkpt lat="48.66973" lon="7.18927">
        <ele>341.5</ele>
        <time>2020-08-12T07:08:07Z</time>
      </trkpt>
      <trkpt lat="48.66975" lon="7.18921">
        <ele>342</ele>
        <time>2020-08-12T07:08:11Z</time>
      </trkpt>
      <trkpt lat="48.66974" lon="7.18913">
        <ele>342.4</ele>
        <time>2020-08-12T07:08:15Z</time>
      </trkpt>
      <trkpt lat="48.66971" lon="7.18907">
        <ele>344.1</ele>
        <time>2020-08-12T07:08:20Z</time>
      </trkpt>
      <trkpt lat="48.66969" lon="7.189">
        <ele>346.4</ele>
        <time>2020-08-12T07:08:25Z</time>
      </trkpt>
      <trkpt lat="48.6697" lon="7.18892">
        <ele>348.3</ele>
        <time>2020-08-12T07:08:31Z</time>
      </trkpt>
      <trkpt lat="48.66967" lon="7.18885">
        <ele>355.8</ele>
        <time>2020-08-12T07:08:36Z</time>
      </trkpt>
      <trkpt lat="48.66965" lon="7.18879">
        <ele>357.1</ele>
        <time>2020-08-12T07:08:40Z</time>
      </trkpt>
      <trkpt lat="48.66962" lon="7.18872">
        <ele>358.1</ele>
        <time>2020-08-12T07:08:45Z</time>
      </trkpt>
      <trkpt lat="48.66961" lon="7.18865">
        <ele>358.3</ele>
        <time>2020-08-12T07:08:50Z</time>
      </trkpt>
      <trkpt lat="48.66959" lon="7.18858">
        <ele>360</ele>
        <time>2020-08-12T07:08:55Z</time>
      </trkpt>
      <trkpt lat="48.66957" lon="7.1885">
        <ele>360.6</ele>
        <time>2020-08-12T07:08:59Z</time>
      </trkpt>
      <trkpt lat="48.66954" lon="7.18844">
        <ele>362.4</ele>
        <time>2020-08-12T07:09:03Z</time>
      </trkpt>
      <trkpt lat="48.6695" lon="7.18839">
        <ele>364.3</ele>
        <time>2020-08-12T07:09:07Z</time>
      </trkpt>
      <trkpt lat="48.66947" lon="7.18833">
        <ele>366</ele>
        <time>2020-08-12T07:09:11Z</time>
      </trkpt>
      <trkpt lat="48.66944" lon="7.18828">
        <ele>368.8</ele>
        <time>2020-08-12T07:09:15Z</time>
      </trkpt>
      <trkpt lat="48.66942" lon="7.18821">
        <ele>371.1</ele>
        <time>2020-08-12T07:09:19Z</time>
      </trkpt>
      <trkpt lat="48.66941" lon="7.18815">
        <ele>371.1</ele>
        <time>2020-08-12T07:09:23Z</time>
      </trkpt>
      <trkpt lat="48.6694" lon="7.18807">
        <ele>370.1</ele>
        <time>2020-08-12T07:09:27Z</time>
      </trkpt>
      <trkpt lat="48.6694" lon="7.188">
        <ele>371.2</ele>
        <time>2020-08-12T07:09:33Z</time>
      </trkpt>
      <trkpt lat="48.66939" lon="7.18793">
        <ele>372.5</ele>
        <time>2020-08-12T07:09:38Z</time>
      </trkpt>
      <trkpt lat="48.66936" lon="7.18787">
        <ele>374.8</ele>
        <time>2020-08-12T07:09:43Z</time>
      </trkpt>
      <trkpt lat="48.66934" lon="7.18779">
        <ele>376.7</ele>
        <time>2020-08-12T07:09:49Z</time>
      </trkpt>
      <trkpt lat="48.66933" lon="7.18771">
        <ele>377.2</ele>
        <time>2020-08-12T07:09:54Z</time>
      </trkpt>
      <trkpt lat="48.66932" lon="7.18764">
        <ele>377.4</ele>
        <time>2020-08-12T07:09:59Z</time>
      </trkpt>
      <trkpt lat="48.66931" lon="7.18757">
        <ele>377.3</ele>
        <time>2020-08-12T07:10:03Z</time>
      </trkpt>
      <trkpt lat="48.6693" lon="7.18749">
        <ele>378.2</ele>
        <time>2020-08-12T07:10:08Z</time>
      </trkpt>
      <trkpt lat="48.6693" lon="7.18742">
        <ele>378.6</ele>
        <time>2020-08-12T07:10:13Z</time>
      </trkpt>
      <trkpt lat="48.66928" lon="7.18734">
        <ele>379.9</ele>
        <time>2020-08-12T07:10:19Z</time>
      </trkpt>
      <trkpt lat="48.66924" lon="7.18728">
        <ele>382.8</ele>
        <time>2020-08-12T07:10:25Z</time>
      </trkpt>
      <trkpt lat="48.66921" lon="7.18723">
        <ele>383.9</ele>
        <time>2020-08-12T07:10:29Z</time>
      </trkpt>
      <trkpt lat="48.66917" lon="7.18718">
        <ele>384.7</ele>
        <time>2020-08-12T07:10:32Z</time>
      </trkpt>
      <trkpt lat="48.66914" lon="7.18712">
        <ele>384.6</ele>
        <time>2020-08-12T07:10:36Z</time>
      </trkpt>
      <trkpt lat="48.66911" lon="7.18706">
        <ele>385.2</ele>
        <time>2020-08-12T07:10:40Z</time>
      </trkpt>
      <trkpt lat="48.66908" lon="7.187">
        <ele>386.1</ele>
        <time>2020-08-12T07:10:44Z</time>
      </trkpt>
      <trkpt lat="48.66905" lon="7.18693">
        <ele>387.3</ele>
        <time>2020-08-12T07:10:49Z</time>
      </trkpt>
      <trkpt lat="48.66902" lon="7.18686">
        <ele>386.6</ele>
        <time>2020-08-12T07:10:54Z</time>
      </trkpt>
      <trkpt lat="48.66899" lon="7.18679">
        <ele>385.9</ele>
        <time>2020-08-12T07:10:59Z</time>
      </trkpt>
      <trkpt lat="48.66897" lon="7.18673">
        <ele>385.6</ele>
        <time>2020-08-12T07:11:03Z</time>
      </trkpt>
      <trkpt lat="48.66895" lon="7.18666">
        <ele>386</ele>
        <time>2020-08-12T07:11:08Z</time>
      </trkpt>
      <trkpt lat="48.66892" lon="7.18658">
        <ele>386.2</ele>
        <time>2020-08-12T07:11:13Z</time>
      </trkpt>
      <trkpt lat="48.6689" lon="7.18653">
        <ele>386.5</ele>
        <time>2020-08-12T07:11:17Z</time>
      </trkpt>
      <trkpt lat="48.66888" lon="7.18647">
        <ele>387.3</ele>
        <time>2020-08-12T07:11:22Z</time>
      </trkpt>
      <trkpt lat="48.66884" lon="7.18641">
        <ele>388.9</ele>
        <time>2020-08-12T07:11:28Z</time>
      </trkpt>
      <trkpt lat="48.66881" lon="7.18636">
        <ele>390</ele>
        <time>2020-08-12T07:11:32Z</time>
      </trkpt>
      <trkpt lat="48.66878" lon="7.1863">
        <ele>389.7</ele>
        <time>2020-08-12T07:11:36Z</time>
      </trkpt>
      <trkpt lat="48.66877" lon="7.18623">
        <ele>390</ele>
        <time>2020-08-12T07:11:40Z</time>
      </trkpt>
      <trkpt lat="48.66876" lon="7.18616">
        <ele>390.2</ele>
        <time>2020-08-12T07:11:44Z</time>
      </trkpt>
      <trkpt lat="48.66876" lon="7.18608">
        <ele>391.3</ele>
        <time>2020-08-12T07:11:50Z</time>
      </trkpt>
      <trkpt lat="48.66876" lon="7.18601">
        <ele>392.3</ele>
        <time>2020-08-12T07:11:54Z</time>
      </trkpt>
      <trkpt lat="48.66876" lon="7.18593">
        <ele>393.5</ele>
        <time>2020-08-12T07:11:59Z</time>
      </trkpt>
      <trkpt lat="48.66875" lon="7.18586">
        <ele>395</ele>
        <time>2020-08-12T07:12:04Z</time>
      </trkpt>
      <trkpt lat="48.66876" lon="7.18579">
        <ele>395.6</ele>
        <time>2020-08-12T07:12:09Z</time>
      </trkpt>
      <trkpt lat="48.66878" lon="7.18572">
        <ele>396.2</ele>
        <time>2020-08-12T07:12:14Z</time>
      </trkpt>
      <trkpt lat="48.66879" lon="7.18565">
        <ele>396.8</ele>
        <time>2020-08-12T07:12:19Z</time>
      </trkpt>
      <trkpt lat="48.66874" lon="7.18562">
        <ele>396.3</ele>
        <time>2020-08-12T07:12:38Z</time>
      </trkpt>
      <trkpt lat="48.66869" lon="7.1856">
        <ele>395.9</ele>
        <time>2020-08-12T07:12:42Z</time>
      </trkpt>
      <trkpt lat="48.66865" lon="7.18557">
        <ele>395.6</ele>
        <time>2020-08-12T07:12:46Z</time>
      </trkpt>
      <trkpt lat="48.6686" lon="7.18554">
        <ele>395.6</ele>
        <time>2020-08-12T07:12:50Z</time>
      </trkpt>
      <trkpt lat="48.66856" lon="7.18552">
        <ele>396.1</ele>
        <time>2020-08-12T07:12:55Z</time>
      </trkpt>
      <trkpt lat="48.66851" lon="7.18546">
        <ele>398.1</ele>
        <time>2020-08-12T07:13:10Z</time>
      </trkpt>
      <trkpt lat="48.66849" lon="7.18538">
        <ele>399.5</ele>
        <time>2020-08-12T07:13:13Z</time>
      </trkpt>
      <trkpt lat="48.66846" lon="7.1853">
        <ele>400.6</ele>
        <time>2020-08-12T07:13:16Z</time>
      </trkpt>
      <trkpt lat="48.66843" lon="7.18525">
        <ele>401</ele>
        <time>2020-08-12T07:13:18Z</time>
      </trkpt>
      <trkpt lat="48.66838" lon="7.18517">
        <ele>400.9</ele>
        <time>2020-08-12T07:13:21Z</time>
      </trkpt>
      <trkpt lat="48.66833" lon="7.18512">
        <ele>400.2</ele>
        <time>2020-08-12T07:13:24Z</time>
      </trkpt>
      <trkpt lat="48.66829" lon="7.18509">
        <ele>401</ele>
        <time>2020-08-12T07:13:26Z</time>
      </trkpt>
      <trkpt lat="48.66825" lon="7.18506">
        <ele>400.6</ele>
        <time>2020-08-12T07:13:28Z</time>
      </trkpt>
      <trkpt lat="48.6682" lon="7.18502">
        <ele>400.5</ele>
        <time>2020-08-12T07:13:30Z</time>
      </trkpt>
      <trkpt lat="48.66815" lon="7.18499">
        <ele>400</ele>
        <time>2020-08-12T07:13:32Z</time>
      </trkpt>
      <trkpt lat="48.6681" lon="7.18497">
        <ele>400.1</ele>
        <time>2020-08-12T07:13:34Z</time>
      </trkpt>
      <trkpt lat="48.66805" lon="7.18494">
        <ele>400.6</ele>
        <time>2020-08-12T07:13:36Z</time>
      </trkpt>
      <trkpt lat="48.668" lon="7.18491">
        <ele>401.2</ele>
        <time>2020-08-12T07:13:38Z</time>
      </trkpt>
      <trkpt lat="48.66794" lon="7.18488">
        <ele>401.8</ele>
        <time>2020-08-12T07:13:40Z</time>
      </trkpt>
      <trkpt lat="48.6679" lon="7.18485">
        <ele>402.4</ele>
        <time>2020-08-12T07:13:42Z</time>
      </trkpt>
      <trkpt lat="48.66785" lon="7.1848">
        <ele>398.5</ele>
        <time>2020-08-12T07:13:45Z</time>
      </trkpt>
      <trkpt lat="48.6678" lon="7.18477">
        <ele>403.7</ele>
        <time>2020-08-12T07:13:54Z</time>
      </trkpt>
      <trkpt lat="48.66775" lon="7.18476">
        <ele>407.3</ele>
        <time>2020-08-12T07:13:58Z</time>
      </trkpt>
      <trkpt lat="48.6677" lon="7.18474">
        <ele>409</ele>
        <time>2020-08-12T07:14:00Z</time>
      </trkpt>
      <trkpt lat="48.66765" lon="7.18471">
        <ele>409.9</ele>
        <time>2020-08-12T07:14:02Z</time>
      </trkpt>
      <trkpt lat="48.66759" lon="7.18467">
        <ele>411.2</ele>
        <time>2020-08-12T07:14:04Z</time>
      </trkpt>
      <trkpt lat="48.66754" lon="7.18464">
        <ele>411.7</ele>
        <time>2020-08-12T07:14:06Z</time>
      </trkpt>
      <trkpt lat="48.66748" lon="7.1846">
        <ele>413.2</ele>
        <time>2020-08-12T07:14:08Z</time>
      </trkpt>
      <trkpt lat="48.66742" lon="7.18455">
        <ele>414.6</ele>
        <time>2020-08-12T07:14:10Z</time>
      </trkpt>
      <trkpt lat="48.66735" lon="7.18452">
        <ele>415.6</ele>
        <time>2020-08-12T07:14:12Z</time>
      </trkpt>
      <trkpt lat="48.66729" lon="7.18449">
        <ele>417.4</ele>
        <time>2020-08-12T07:14:14Z</time>
      </trkpt>
      <trkpt lat="48.66723" lon="7.18445">
        <ele>418</ele>
        <time>2020-08-12T07:14:16Z</time>
      </trkpt>
      <trkpt lat="48.66717" lon="7.18441">
        <ele>418.4</ele>
        <time>2020-08-12T07:14:18Z</time>
      </trkpt>
      <trkpt lat="48.66712" lon="7.18437">
        <ele>419.1</ele>
        <time>2020-08-12T07:14:20Z</time>
      </trkpt>
      <trkpt lat="48.66707" lon="7.18432">
        <ele>419.5</ele>
        <time>2020-08-12T07:14:22Z</time>
      </trkpt>
      <trkpt lat="48.66704" lon="7.18427">
        <ele>419.3</ele>
        <time>2020-08-12T07:14:24Z</time>
      </trkpt>
      <trkpt lat="48.66702" lon="7.18421">
        <ele>418.8</ele>
        <time>2020-08-12T07:14:26Z</time>
      </trkpt>
      <trkpt lat="48.66699" lon="7.18416">
        <ele>418.6</ele>
        <time>2020-08-12T07:14:28Z</time>
      </trkpt>
      <trkpt lat="48.66694" lon="7.18412">
        <ele>418.9</ele>
        <time>2020-08-12T07:14:30Z</time>
      </trkpt>
      <trkpt lat="48.6669" lon="7.1841">
        <ele>419.4</ele>
        <time>2020-08-12T07:14:32Z</time>
      </trkpt>
      <trkpt lat="48.66684" lon="7.1841">
        <ele>419.7</ele>
        <time>2020-08-12T07:14:34Z</time>
      </trkpt>
      <trkpt lat="48.66679" lon="7.18409">
        <ele>420</ele>
        <time>2020-08-12T07:14:36Z</time>
      </trkpt>
      <trkpt lat="48.66673" lon="7.18408">
        <ele>420.6</ele>
        <time>2020-08-12T07:14:38Z</time>
      </trkpt>
      <trkpt lat="48.66667" lon="7.18408">
        <ele>420.6</ele>
        <time>2020-08-12T07:14:40Z</time>
      </trkpt>
      <trkpt lat="48.6666" lon="7.18407">
        <ele>421.1</ele>
        <time>2020-08-12T07:14:42Z</time>
      </trkpt>
      <trkpt lat="48.66653" lon="7.18405">
        <ele>421.2</ele>
        <time>2020-08-12T07:14:44Z</time>
      </trkpt>
      <trkpt lat="48.66647" lon="7.18402">
        <ele>421.3</ele>
        <time>2020-08-12T07:14:46Z</time>
      </trkpt>
      <trkpt lat="48.66641" lon="7.18399">
        <ele>421.6</ele>
        <time>2020-08-12T07:14:48Z</time>
      </trkpt>
      <trkpt lat="48.66634" lon="7.18397">
        <ele>422</ele>
        <time>2020-08-12T07:14:50Z</time>
      </trkpt>
      <trkpt lat="48.66627" lon="7.18397">
        <ele>422.7</ele>
        <time>2020-08-12T07:14:52Z</time>
      </trkpt>
      <trkpt lat="48.66621" lon="7.18397">
        <ele>423.4</ele>
        <time>2020-08-12T07:14:54Z</time>
      </trkpt>
      <trkpt lat="48.66616" lon="7.18398">
        <ele>424.2</ele>
        <time>2020-08-12T07:14:56Z</time>
      </trkpt>
      <trkpt lat="48.6661" lon="7.18399">
        <ele>425</ele>
        <time>2020-08-12T07:14:58Z</time>
      </trkpt>
      <trkpt lat="48.66605" lon="7.184">
        <ele>425.7</ele>
        <time>2020-08-12T07:15:00Z</time>
      </trkpt>
      <trkpt lat="48.66599" lon="7.184">
        <ele>426.4</ele>
        <time>2020-08-12T07:15:02Z</time>
      </trkpt>
      <trkpt lat="48.66592" lon="7.18401">
        <ele>427.3</ele>
        <time>2020-08-12T07:15:04Z</time>
      </trkpt>
      <trkpt lat="48.66585" lon="7.18401">
        <ele>428.5</ele>
        <time>2020-08-12T07:15:06Z</time>
      </trkpt>
      <trkpt lat="48.66579" lon="7.18402">
        <ele>429.6</ele>
        <time>2020-08-12T07:15:08Z</time>
      </trkpt>
      <trkpt lat="48.66571" lon="7.18401">
        <ele>430.3</ele>
        <time>2020-08-12T07:15:10Z</time>
      </trkpt>
      <trkpt lat="48.66563" lon="7.18402">
        <ele>431.9</ele>
        <time>2020-08-12T07:15:12Z</time>
      </trkpt>
      <trkpt lat="48.66556" lon="7.18405">
        <ele>432.1</ele>
        <time>2020-08-12T07:15:14Z</time>
      </trkpt>
      <trkpt lat="48.66548" lon="7.18407">
        <ele>433</ele>
        <time>2020-08-12T07:15:16Z</time>
      </trkpt>
      <trkpt lat="48.66541" lon="7.18408">
        <ele>434</ele>
        <time>2020-08-12T07:15:18Z</time>
      </trkpt>
      <trkpt lat="48.66534" lon="7.18409">
        <ele>435.4</ele>
        <time>2020-08-12T07:15:20Z</time>
      </trkpt>
      <trkpt lat="48.66528" lon="7.18411">
        <ele>436.6</ele>
        <time>2020-08-12T07:15:22Z</time>
      </trkpt>
      <trkpt lat="48.66521" lon="7.18412">
        <ele>437.9</ele>
        <time>2020-08-12T07:15:24Z</time>
      </trkpt>
      <trkpt lat="48.66516" lon="7.18415">
        <ele>438.9</ele>
        <time>2020-08-12T07:15:26Z</time>
      </trkpt>
      <trkpt lat="48.6651" lon="7.18418">
        <ele>440.1</ele>
        <time>2020-08-12T07:15:28Z</time>
      </trkpt>
      <trkpt lat="48.66506" lon="7.18421">
        <ele>441</ele>
        <time>2020-08-12T07:15:30Z</time>
      </trkpt>
      <trkpt lat="48.665" lon="7.18421">
        <ele>442</ele>
        <time>2020-08-12T07:15:32Z</time>
      </trkpt>
      <trkpt lat="48.66493" lon="7.1842">
        <ele>442.9</ele>
        <time>2020-08-12T07:15:34Z</time>
      </trkpt>
      <trkpt lat="48.66486" lon="7.18419">
        <ele>443.7</ele>
        <time>2020-08-12T07:15:36Z</time>
      </trkpt>
      <trkpt lat="48.6648" lon="7.18417">
        <ele>444.6</ele>
        <time>2020-08-12T07:15:38Z</time>
      </trkpt>
      <trkpt lat="48.66474" lon="7.18416">
        <ele>445.1</ele>
        <time>2020-08-12T07:15:40Z</time>
      </trkpt>
      <trkpt lat="48.66468" lon="7.18415">
        <ele>444.6</ele>
        <time>2020-08-12T07:15:42Z</time>
      </trkpt>
      <trkpt lat="48.66462" lon="7.18413">
        <ele>444.9</ele>
        <time>2020-08-12T07:15:44Z</time>
      </trkpt>
      <trkpt lat="48.66456" lon="7.18411">
        <ele>445.4</ele>
        <time>2020-08-12T07:15:46Z</time>
      </trkpt>
      <trkpt lat="48.6645" lon="7.18409">
        <ele>445</ele>
        <time>2020-08-12T07:15:48Z</time>
      </trkpt>
      <trkpt lat="48.66443" lon="7.18406">
        <ele>445.1</ele>
        <time>2020-08-12T07:15:50Z</time>
      </trkpt>
      <trkpt lat="48.66436" lon="7.18403">
        <ele>445.1</ele>
        <time>2020-08-12T07:15:52Z</time>
      </trkpt>
      <trkpt lat="48.66428" lon="7.18399">
        <ele>444.9</ele>
        <time>2020-08-12T07:15:54Z</time>
      </trkpt>
      <trkpt lat="48.6642" lon="7.18394">
        <ele>444.8</ele>
        <time>2020-08-12T07:15:56Z</time>
      </trkpt>
      <trkpt lat="48.66411" lon="7.18389">
        <ele>444.7</ele>
        <time>2020-08-12T07:15:58Z</time>
      </trkpt>
      <trkpt lat="48.66402" lon="7.18385">
        <ele>444.6</ele>
        <time>2020-08-12T07:16:00Z</time>
      </trkpt>
      <trkpt lat="48.66394" lon="7.18381">
        <ele>444.6</ele>
        <time>2020-08-12T07:16:02Z</time>
      </trkpt>
      <trkpt lat="48.66386" lon="7.18378">
        <ele>444.5</ele>
        <time>2020-08-12T07:16:04Z</time>
      </trkpt>
      <trkpt lat="48.66377" lon="7.18375">
        <ele>444.6</ele>
        <time>2020-08-12T07:16:06Z</time>
      </trkpt>
      <trkpt lat="48.66368" lon="7.18372">
        <ele>444.8</ele>
        <time>2020-08-12T07:16:08Z</time>
      </trkpt>
      <trkpt lat="48.6636" lon="7.1837">
        <ele>445</ele>
        <time>2020-08-12T07:16:10Z</time>
      </trkpt>
      <trkpt lat="48.66351" lon="7.18367">
        <ele>444.9</ele>
        <time>2020-08-12T07:16:12Z</time>
      </trkpt>
      <trkpt lat="48.66344" lon="7.18364">
        <ele>445.1</ele>
        <time>2020-08-12T07:16:14Z</time>
      </trkpt>
      <trkpt lat="48.66336" lon="7.1836">
        <ele>445.3</ele>
        <time>2020-08-12T07:16:16Z</time>
      </trkpt>
      <trkpt lat="48.66328" lon="7.18355">
        <ele>445.1</ele>
        <time>2020-08-12T07:16:18Z</time>
      </trkpt>
      <trkpt lat="48.66319" lon="7.18349">
        <ele>445.1</ele>
        <time>2020-08-12T07:16:20Z</time>
      </trkpt>
      <trkpt lat="48.6631" lon="7.18344">
        <ele>445.9</ele>
        <time>2020-08-12T07:16:22Z</time>
      </trkpt>
      <trkpt lat="48.66303" lon="7.18339">
        <ele>445.7</ele>
        <time>2020-08-12T07:16:24Z</time>
      </trkpt>
      <trkpt lat="48.66295" lon="7.18333">
        <ele>446.3</ele>
        <time>2020-08-12T07:16:26Z</time>
      </trkpt>
      <trkpt lat="48.66288" lon="7.18328">
        <ele>446.4</ele>
        <time>2020-08-12T07:16:28Z</time>
      </trkpt>
      <trkpt lat="48.6628" lon="7.18322">
        <ele>446.5</ele>
        <time>2020-08-12T07:16:30Z</time>
      </trkpt>
      <trkpt lat="48.66272" lon="7.18318">
        <ele>447.1</ele>
        <time>2020-08-12T07:16:32Z</time>
      </trkpt>
      <trkpt lat="48.66264" lon="7.18313">
        <ele>447.8</ele>
        <time>2020-08-12T07:16:34Z</time>
      </trkpt>
      <trkpt lat="48.66257" lon="7.18309">
        <ele>448</ele>
        <time>2020-08-12T07:16:36Z</time>
      </trkpt>
      <trkpt lat="48.66249" lon="7.18306">
        <ele>448.3</ele>
        <time>2020-08-12T07:16:38Z</time>
      </trkpt>
      <trkpt lat="48.66241" lon="7.18302">
        <ele>448.6</ele>
        <time>2020-08-12T07:16:40Z</time>
      </trkpt>
      <trkpt lat="48.66235" lon="7.18298">
        <ele>449</ele>
        <time>2020-08-12T07:16:42Z</time>
      </trkpt>
      <trkpt lat="48.66229" lon="7.18295">
        <ele>449.2</ele>
        <time>2020-08-12T07:16:44Z</time>
      </trkpt>
      <trkpt lat="48.66224" lon="7.18292">
        <ele>449.4</ele>
        <time>2020-08-12T07:16:46Z</time>
      </trkpt>
      <trkpt lat="48.66218" lon="7.18288">
        <ele>449.4</ele>
        <time>2020-08-12T07:16:48Z</time>
      </trkpt>
      <trkpt lat="48.66214" lon="7.18286">
        <ele>449.5</ele>
        <time>2020-08-12T07:16:54Z</time>
      </trkpt>
      <trkpt lat="48.66208" lon="7.18282">
        <ele>450.8</ele>
        <time>2020-08-12T07:17:06Z</time>
      </trkpt>
      <trkpt lat="48.66204" lon="7.18279">
        <ele>450.8</ele>
        <time>2020-08-12T07:17:08Z</time>
      </trkpt>
      <trkpt lat="48.662" lon="7.18275">
        <ele>450.9</ele>
        <time>2020-08-12T07:17:10Z</time>
      </trkpt>
      <trkpt lat="48.66196" lon="7.18271">
        <ele>450.9</ele>
        <time>2020-08-12T07:17:12Z</time>
      </trkpt>
      <trkpt lat="48.66192" lon="7.18267">
        <ele>451.3</ele>
        <time>2020-08-12T07:17:14Z</time>
      </trkpt>
      <trkpt lat="48.66188" lon="7.18263">
        <ele>451.7</ele>
        <time>2020-08-12T07:17:16Z</time>
      </trkpt>
      <trkpt lat="48.66184" lon="7.18259">
        <ele>451.7</ele>
        <time>2020-08-12T07:17:18Z</time>
      </trkpt>
      <trkpt lat="48.6618" lon="7.18253">
        <ele>452</ele>
        <time>2020-08-12T07:17:20Z</time>
      </trkpt>
      <trkpt lat="48.66177" lon="7.18246">
        <ele>452.3</ele>
        <time>2020-08-12T07:17:23Z</time>
      </trkpt>
      <trkpt lat="48.66173" lon="7.1824">
        <ele>452.5</ele>
        <time>2020-08-12T07:17:26Z</time>
      </trkpt>
      <trkpt lat="48.66169" lon="7.18235">
        <ele>452</ele>
        <time>2020-08-12T07:17:34Z</time>
      </trkpt>
      <trkpt lat="48.66166" lon="7.18228">
        <ele>452.2</ele>
        <time>2020-08-12T07:17:36Z</time>
      </trkpt>
      <trkpt lat="48.66163" lon="7.18221">
        <ele>452.3</ele>
        <time>2020-08-12T07:17:38Z</time>
      </trkpt>
      <trkpt lat="48.66159" lon="7.18212">
        <ele>452.5</ele>
        <time>2020-08-12T07:17:40Z</time>
      </trkpt>
      <trkpt lat="48.66155" lon="7.18203">
        <ele>452.7</ele>
        <time>2020-08-12T07:17:42Z</time>
      </trkpt>
      <trkpt lat="48.66151" lon="7.18193">
        <ele>452.5</ele>
        <time>2020-08-12T07:17:44Z</time>
      </trkpt>
      <trkpt lat="48.66148" lon="7.18183">
        <ele>452.3</ele>
        <time>2020-08-12T07:17:46Z</time>
      </trkpt>
      <trkpt lat="48.66145" lon="7.18173">
        <ele>452</ele>
        <time>2020-08-12T07:17:48Z</time>
      </trkpt>
      <trkpt lat="48.66142" lon="7.18163">
        <ele>452</ele>
        <time>2020-08-12T07:17:50Z</time>
      </trkpt>
      <trkpt lat="48.66139" lon="7.18153">
        <ele>451.8</ele>
        <time>2020-08-12T07:17:52Z</time>
      </trkpt>
      <trkpt lat="48.66133" lon="7.1814">
        <ele>451.8</ele>
        <time>2020-08-12T07:17:54Z</time>
      </trkpt>
      <trkpt lat="48.66127" lon="7.18128">
        <ele>451.9</ele>
        <time>2020-08-12T07:17:56Z</time>
      </trkpt>
      <trkpt lat="48.66123" lon="7.18115">
        <ele>452</ele>
        <time>2020-08-12T07:17:58Z</time>
      </trkpt>
      <trkpt lat="48.66119" lon="7.18101">
        <ele>452.6</ele>
        <time>2020-08-12T07:18:00Z</time>
      </trkpt>
      <trkpt lat="48.66116" lon="7.18087">
        <ele>453.1</ele>
        <time>2020-08-12T07:18:02Z</time>
      </trkpt>
      <trkpt lat="48.66112" lon="7.18073">
        <ele>453.4</ele>
        <time>2020-08-12T07:18:04Z</time>
      </trkpt>
      <trkpt lat="48.6611" lon="7.1806">
        <ele>453.7</ele>
        <time>2020-08-12T07:18:06Z</time>
      </trkpt>
      <trkpt lat="48.66107" lon="7.18046">
        <ele>454.1</ele>
        <time>2020-08-12T07:18:08Z</time>
      </trkpt>
      <trkpt lat="48.66104" lon="7.18032">
        <ele>454.7</ele>
        <time>2020-08-12T07:18:10Z</time>
      </trkpt>
      <trkpt lat="48.66101" lon="7.18019">
        <ele>455.5</ele>
        <time>2020-08-12T07:18:12Z</time>
      </trkpt>
      <trkpt lat="48.66098" lon="7.18006">
        <ele>455.9</ele>
        <time>2020-08-12T07:18:14Z</time>
      </trkpt>
      <trkpt lat="48.66095" lon="7.17994">
        <ele>456.6</ele>
        <time>2020-08-12T07:18:16Z</time>
      </trkpt>
      <trkpt lat="48.66092" lon="7.17981">
        <ele>457.2</ele>
        <time>2020-08-12T07:18:18Z</time>
      </trkpt>
      <trkpt lat="48.6609" lon="7.17969">
        <ele>457.2</ele>
        <time>2020-08-12T07:18:20Z</time>
      </trkpt>
      <trkpt lat="48.66087" lon="7.17956">
        <ele>457.3</ele>
        <time>2020-08-12T07:18:22Z</time>
      </trkpt>
      <trkpt lat="48.66086" lon="7.17943">
        <ele>457.1</ele>
        <time>2020-08-12T07:18:24Z</time>
      </trkpt>
      <trkpt lat="48.66083" lon="7.17929">
        <ele>457.5</ele>
        <time>2020-08-12T07:18:26Z</time>
      </trkpt>
      <trkpt lat="48.6608" lon="7.17915">
        <ele>457.9</ele>
        <time>2020-08-12T07:18:28Z</time>
      </trkpt>
      <trkpt lat="48.66077" lon="7.17901">
        <ele>457.9</ele>
        <time>2020-08-12T07:18:30Z</time>
      </trkpt>
      <trkpt lat="48.66076" lon="7.17887">
        <ele>458.4</ele>
        <time>2020-08-12T07:18:32Z</time>
      </trkpt>
      <trkpt lat="48.66075" lon="7.17873">
        <ele>458.7</ele>
        <time>2020-08-12T07:18:34Z</time>
      </trkpt>
      <trkpt lat="48.66075" lon="7.17858">
        <ele>458.8</ele>
        <time>2020-08-12T07:18:36Z</time>
      </trkpt>
      <trkpt lat="48.66076" lon="7.17842">
        <ele>459</ele>
        <time>2020-08-12T07:18:38Z</time>
      </trkpt>
      <trkpt lat="48.66078" lon="7.17827">
        <ele>459.5</ele>
        <time>2020-08-12T07:18:40Z</time>
      </trkpt>
      <trkpt lat="48.66078" lon="7.17811">
        <ele>459.7</ele>
        <time>2020-08-12T07:18:42Z</time>
      </trkpt>
      <trkpt lat="48.6608" lon="7.17796">
        <ele>459.2</ele>
        <time>2020-08-12T07:18:44Z</time>
      </trkpt>
      <trkpt lat="48.66085" lon="7.17781">
        <ele>459.7</ele>
        <time>2020-08-12T07:18:46Z</time>
      </trkpt>
    </trkseg>
  </trk>
  <trk>
    <name><![CDATA[secteur Saverne - Dabo - Petite Pierre_14]]></name>
    <trkseg>
      <trkpt lat="48.64848" lon="7.20083">
        <ele>341.64</ele>
        <time>2020-08-19T18:42:55.000Z</time>
      </trkpt>
      <trkpt lat="48.64848" lon="7.20083">
        <ele>341.64</ele>
        <time>2020-08-19T18:42:55.000Z</time>
      </trkpt>
      <trkpt lat="48.64848" lon="7.20083">
        <ele>341.64</ele>
        <time>2020-08-19T18:42:55.000Z</time>
      </trkpt>
      <trkpt lat="48.64848" lon="7.20083">
        <ele>341.64</ele>
        <time>2020-08-19T18:42:55.000Z</time>
      </trkpt>
      <trkpt lat="48.64848" lon="7.20083">
        <ele>341.64</ele>
        <time>2020-08-19T18:42:55.000Z</time>
      </trkpt>
      <trkpt lat="48.64848" lon="7.20083">
        <ele>341.64</ele>
        <time>2020-08-19T18:42:55.000Z</time>
      </trkpt>
      <trkpt lat="48.64848" lon="7.20083">
        <ele>341.64</ele>
        <time>2020-08-19T18:42:55.000Z</time>
      </trkpt>
      <trkpt lat="48.64848" lon="7.20083">
        <ele>341.64</ele>
        <time>2020-08-19T18:42:55.000Z</time>
      </trkpt>
      <trkpt lat="48.64847" lon="7.20076">
        <ele>339.53</ele>
        <time>2020-08-19T18:42:56.000Z</time>
      </trkpt>
      <trkpt lat="48.64846" lon="7.20067">
        <ele>340.47</ele>
        <time>2020-08-19T18:42:57.000Z</time>
      </trkpt>
      <trkpt lat="48.64849" lon="7.20056">
        <ele>342.61</ele>
        <time>2020-08-19T18:42:59.000Z</time>
      </trkpt>
      <trkpt lat="48.64854" lon="7.20046">
        <ele>340.95</ele>
        <time>2020-08-19T18:43:01.000Z</time>
      </trkpt>
      <trkpt lat="48.64859" lon="7.20037">
        <ele>341.03</ele>
        <time>2020-08-19T18:43:03.000Z</time>
      </trkpt>
      <trkpt lat="48.64863" lon="7.20027">
        <ele>339.97</ele>
        <time>2020-08-19T18:43:05.000Z</time>
      </trkpt>
      <trkpt lat="48.64867" lon="7.20019">
        <ele>340.81</ele>
        <time>2020-08-19T18:43:06.000Z</time>
      </trkpt>
      <trkpt lat="48.6487" lon="7.20012">
        <ele>341.32</ele>
        <time>2020-08-19T18:43:07.000Z</time>
      </trkpt>
      <trkpt lat="48.64873" lon="7.20006">
        <ele>340.17</ele>
        <time>2020-08-19T18:43:08.000Z</time>
      </trkpt>
      <trkpt lat="48.64877" lon="7.19998">
        <ele>338.97</ele>
        <time>2020-08-19T18:43:09.000Z</time>
      </trkpt>
      <trkpt lat="48.64881" lon="7.19991">
        <ele>335.59</ele>
        <time>2020-08-19T18:43:10.000Z</time>
      </trkpt>
      <trkpt lat="48.64886" lon="7.19983">
        <ele>335.76</ele>
        <time>2020-08-19T18:43:11.000Z</time>
      </trkpt>
      <trkpt lat="48.64892" lon="7.19974">
        <ele>334.99</ele>
        <time>2020-08-19T18:43:12.000Z</time>
      </trkpt>
      <trkpt lat="48.64897" lon="7.19966">
        <ele>333.82</ele>
        <time>2020-08-19T18:43:13.000Z</time>
      </trkpt>
      <trkpt lat="48.64903" lon="7.19957">
        <ele>334.63</ele>
        <time>2020-08-19T18:43:14.000Z</time>
      </trkpt>
      <trkpt lat="48.64909" lon="7.19948">
        <ele>334.8</ele>
        <time>2020-08-19T18:43:15.000Z</time>
      </trkpt>
      <trkpt lat="48.64915" lon="7.1994">
        <ele>335.45</ele>
        <time>2020-08-19T18:43:16.000Z</time>
      </trkpt>
      <trkpt lat="48.64921" lon="7.19933">
        <ele>336.22</ele>
        <time>2020-08-19T18:43:17.000Z</time>
      </trkpt>
      <trkpt lat="48.64928" lon="7.19928">
        <ele>336.02</ele>
        <time>2020-08-19T18:43:18.000Z</time>
      </trkpt>
      <trkpt lat="48.64935" lon="7.19923">
        <ele>336.09</ele>
        <time>2020-08-19T18:43:19.000Z</time>
      </trkpt>
      <trkpt lat="48.64943" lon="7.1992">
        <ele>335.69</ele>
        <time>2020-08-19T18:43:20.000Z</time>
      </trkpt>
      <trkpt lat="48.64951" lon="7.19919">
        <ele>336.61</ele>
        <time>2020-08-19T18:43:21.000Z</time>
      </trkpt>
      <trkpt lat="48.64959" lon="7.19918">
        <ele>337.32</ele>
        <time>2020-08-19T18:43:22.000Z</time>
      </trkpt>
      <trkpt lat="48.64968" lon="7.19918">
        <ele>339.14</ele>
        <time>2020-08-19T18:43:23.000Z</time>
      </trkpt>
      <trkpt lat="48.64976" lon="7.19923">
        <ele>340.81</ele>
        <time>2020-08-19T18:43:24.000Z</time>
      </trkpt>
      <trkpt lat="48.64986" lon="7.19927">
        <ele>343.47</ele>
        <time>2020-08-19T18:43:25.000Z</time>
      </trkpt>
      <trkpt lat="48.64993" lon="7.19933">
        <ele>342.89</ele>
        <time>2020-08-19T18:43:26.000Z</time>
      </trkpt>
      <trkpt lat="48.65" lon="7.19942">
        <ele>342.82</ele>
        <time>2020-08-19T18:43:27.000Z</time>
      </trkpt>
      <trkpt lat="48.65007" lon="7.1995">
        <ele>340.5</ele>
        <time>2020-08-19T18:43:28.000Z</time>
      </trkpt>
      <trkpt lat="48.65014" lon="7.19959">
        <ele>342.04</ele>
        <time>2020-08-19T18:43:29.000Z</time>
      </trkpt>
      <trkpt lat="48.6502" lon="7.19968">
        <ele>341.87</ele>
        <time>2020-08-19T18:43:30.000Z</time>
      </trkpt>
      <trkpt lat="48.65027" lon="7.19976">
        <ele>340.72</ele>
        <time>2020-08-19T18:43:31.000Z</time>
      </trkpt>
      <trkpt lat="48.65034" lon="7.19984">
        <ele>341</ele>
        <time>2020-08-19T18:43:32.000Z</time>
      </trkpt>
      <trkpt lat="48.65041" lon="7.19994">
        <ele>339.94</ele>
        <time>2020-08-19T18:43:33.000Z</time>
      </trkpt>
      <trkpt lat="48.65049" lon="7.20002">
        <ele>339.94</ele>
        <time>2020-08-19T18:43:34.000Z</time>
      </trkpt>
      <trkpt lat="48.65054" lon="7.20011">
        <ele>342.13</ele>
        <time>2020-08-19T18:43:35.000Z</time>
      </trkpt>
      <trkpt lat="48.65059" lon="7.20022">
        <ele>341.63</ele>
        <time>2020-08-19T18:43:36.000Z</time>
      </trkpt>
      <trkpt lat="48.65065" lon="7.20033">
        <ele>341.03</ele>
        <time>2020-08-19T18:43:37.000Z</time>
      </trkpt>
      <trkpt lat="48.65071" lon="7.20044">
        <ele>341.2</ele>
        <time>2020-08-19T18:43:38.000Z</time>
      </trkpt>
      <trkpt lat="48.65078" lon="7.20053">
        <ele>340.99</ele>
        <time>2020-08-19T18:43:39.000Z</time>
      </trkpt>
      <trkpt lat="48.65085" lon="7.20061">
        <ele>341.01</ele>
        <time>2020-08-19T18:43:40.000Z</time>
      </trkpt>
      <trkpt lat="48.6509" lon="7.20069">
        <ele>340.49</ele>
        <time>2020-08-19T18:43:41.000Z</time>
      </trkpt>
      <trkpt lat="48.65097" lon="7.20078">
        <ele>338.91</ele>
        <time>2020-08-19T18:43:42.000Z</time>
      </trkpt>
      <trkpt lat="48.65104" lon="7.20086">
        <ele>338.43</ele>
        <time>2020-08-19T18:43:43.000Z</time>
      </trkpt>
      <trkpt lat="48.65111" lon="7.20093">
        <ele>339.18</ele>
        <time>2020-08-19T18:43:44.000Z</time>
      </trkpt>
      <trkpt lat="48.6512" lon="7.20097">
        <ele>339.59</ele>
        <time>2020-08-19T18:43:45.000Z</time>
      </trkpt>
      <trkpt lat="48.65128" lon="7.20103">
        <ele>339.58</ele>
        <time>2020-08-19T18:43:46.000Z</time>
      </trkpt>
      <trkpt lat="48.65137" lon="7.20106">
        <ele>340.14</ele>
        <time>2020-08-19T18:43:47.000Z</time>
      </trkpt>
      <trkpt lat="48.65145" lon="7.20109">
        <ele>340.11</ele>
        <time>2020-08-19T18:43:48.000Z</time>
      </trkpt>
      <trkpt lat="48.65154" lon="7.20112">
        <ele>339.73</ele>
        <time>2020-08-19T18:43:49.000Z</time>
      </trkpt>
      <trkpt lat="48.65163" lon="7.20115">
        <ele>339.05</ele>
        <time>2020-08-19T18:43:50.000Z</time>
      </trkpt>
      <trkpt lat="48.65173" lon="7.20117">
        <ele>338.21</ele>
        <time>2020-08-19T18:43:51.000Z</time>
      </trkpt>
      <trkpt lat="48.65183" lon="7.20118">
        <ele>337.72</ele>
        <time>2020-08-19T18:43:52.000Z</time>
      </trkpt>
      <trkpt lat="48.65192" lon="7.20118">
        <ele>337.95</ele>
        <time>2020-08-19T18:43:53.000Z</time>
      </trkpt>
      <trkpt lat="48.65202" lon="7.20119">
        <ele>339.85</ele>
        <time>2020-08-19T18:43:54.000Z</time>
      </trkpt>
      <trkpt lat="48.6521" lon="7.2012">
        <ele>340.11</ele>
        <time>2020-08-19T18:43:55.000Z</time>
      </trkpt>
      <trkpt lat="48.6522" lon="7.20124">
        <ele>338.91</ele>
        <time>2020-08-19T18:43:56.000Z</time>
      </trkpt>
      <trkpt lat="48.65229" lon="7.20126">
        <ele>337.9</ele>
        <time>2020-08-19T18:43:57.000Z</time>
      </trkpt>
      <trkpt lat="48.65238" lon="7.20131">
        <ele>338.14</ele>
        <time>2020-08-19T18:43:58.000Z</time>
      </trkpt>
      <trkpt lat="48.65246" lon="7.20137">
        <ele>336.5</ele>
        <time>2020-08-19T18:43:59.000Z</time>
      </trkpt>
      <trkpt lat="48.65255" lon="7.20143">
        <ele>337.21</ele>
        <time>2020-08-19T18:44:00.000Z</time>
      </trkpt>
      <trkpt lat="48.65264" lon="7.20148">
        <ele>338.82</ele>
        <time>2020-08-19T18:44:01.000Z</time>
      </trkpt>
      <trkpt lat="48.65271" lon="7.20154">
        <ele>338.8</ele>
        <time>2020-08-19T18:44:02.000Z</time>
      </trkpt>
      <trkpt lat="48.65279" lon="7.2016">
        <ele>338.45</ele>
        <time>2020-08-19T18:44:03.000Z</time>
      </trkpt>
      <trkpt lat="48.65288" lon="7.20166">
        <ele>337.67</ele>
        <time>2020-08-19T18:44:04.000Z</time>
      </trkpt>
      <trkpt lat="48.65296" lon="7.20174">
        <ele>336.98</ele>
        <time>2020-08-19T18:44:05.000Z</time>
      </trkpt>
      <trkpt lat="48.65305" lon="7.2018">
        <ele>338.07</ele>
        <time>2020-08-19T18:44:06.000Z</time>
      </trkpt>
      <trkpt lat="48.65313" lon="7.20186">
        <ele>338.46</ele>
        <time>2020-08-19T18:44:07.000Z</time>
      </trkpt>
      <trkpt lat="48.65321" lon="7.20192">
        <ele>338.85</ele>
        <time>2020-08-19T18:44:08.000Z</time>
      </trkpt>
      <trkpt lat="48.65329" lon="7.20198">
        <ele>339.15</ele>
        <time>2020-08-19T18:44:09.000Z</time>
      </trkpt>
      <trkpt lat="48.65336" lon="7.20204">
        <ele>339.61</ele>
        <time>2020-08-19T18:44:10.000Z</time>
      </trkpt>
      <trkpt lat="48.65343" lon="7.2021">
        <ele>339.83</ele>
        <time>2020-08-19T18:44:11.000Z</time>
      </trkpt>
      <trkpt lat="48.65352" lon="7.20217">
        <ele>340.06</ele>
        <time>2020-08-19T18:44:12.000Z</time>
      </trkpt>
      <trkpt lat="48.6536" lon="7.20223">
        <ele>340.82</ele>
        <time>2020-08-19T18:44:13.000Z</time>
      </trkpt>
      <trkpt lat="48.65368" lon="7.20228">
        <ele>341.43</ele>
        <time>2020-08-19T18:44:14.000Z</time>
      </trkpt>
      <trkpt lat="48.65375" lon="7.20236">
        <ele>340.97</ele>
        <time>2020-08-19T18:44:15.000Z</time>
      </trkpt>
      <trkpt lat="48.65382" lon="7.20243">
        <ele>341.53</ele>
        <time>2020-08-19T18:44:16.000Z</time>
      </trkpt>
      <trkpt lat="48.65392" lon="7.20244">
        <ele>341.55</ele>
        <time>2020-08-19T18:44:17.000Z</time>
      </trkpt>
      <trkpt lat="48.65401" lon="7.20249">
        <ele>341.35</ele>
        <time>2020-08-19T18:44:18.000Z</time>
      </trkpt>
      <trkpt lat="48.65409" lon="7.20254">
        <ele>341.22</ele>
        <time>2020-08-19T18:44:19.000Z</time>
      </trkpt>
      <trkpt lat="48.65417" lon="7.20257">
        <ele>341.56</ele>
        <time>2020-08-19T18:44:20.000Z</time>
      </trkpt>
      <trkpt lat="48.65425" lon="7.20261">
        <ele>341.29</ele>
        <time>2020-08-19T18:44:21.000Z</time>
      </trkpt>
      <trkpt lat="48.65434" lon="7.20263">
        <ele>341.67</ele>
        <time>2020-08-19T18:44:22.000Z</time>
      </trkpt>
      <trkpt lat="48.65445" lon="7.20263">
        <ele>341.45</ele>
        <time>2020-08-19T18:44:23.000Z</time>
      </trkpt>
      <trkpt lat="48.65455" lon="7.20265">
        <ele>341.15</ele>
        <time>2020-08-19T18:44:24.000Z</time>
      </trkpt>
      <trkpt lat="48.65463" lon="7.20269">
        <ele>341.13</ele>
        <time>2020-08-19T18:44:25.000Z</time>
      </trkpt>
      <trkpt lat="48.65472" lon="7.20271">
        <ele>340.98</ele>
        <time>2020-08-19T18:44:26.000Z</time>
      </trkpt>
      <trkpt lat="48.65479" lon="7.20274">
        <ele>339.69</ele>
        <time>2020-08-19T18:44:27.000Z</time>
      </trkpt>
      <trkpt lat="48.65489" lon="7.20274">
        <ele>339.54</ele>
        <time>2020-08-19T18:44:28.000Z</time>
      </trkpt>
      <trkpt lat="48.65498" lon="7.20274">
        <ele>341.19</ele>
        <time>2020-08-19T18:44:29.000Z</time>
      </trkpt>
      <trkpt lat="48.65507" lon="7.20274">
        <ele>340.4</ele>
        <time>2020-08-19T18:44:30.000Z</time>
      </trkpt>
      <trkpt lat="48.65515" lon="7.20271">
        <ele>339.24</ele>
        <time>2020-08-19T18:44:31.000Z</time>
      </trkpt>
      <trkpt lat="48.65524" lon="7.20267">
        <ele>338.57</ele>
        <time>2020-08-19T18:44:32.000Z</time>
      </trkpt>
      <trkpt lat="48.65533" lon="7.20263">
        <ele>338.55</ele>
        <time>2020-08-19T18:44:33.000Z</time>
      </trkpt>
      <trkpt lat="48.65542" lon="7.20258">
        <ele>338.38</ele>
        <time>2020-08-19T18:44:34.000Z</time>
      </trkpt>
      <trkpt lat="48.6555" lon="7.20252">
        <ele>337.81</ele>
        <time>2020-08-19T18:44:35.000Z</time>
      </trkpt>
      <trkpt lat="48.65557" lon="7.20245">
        <ele>338.63</ele>
        <time>2020-08-19T18:44:36.000Z</time>
      </trkpt>
      <trkpt lat="48.65565" lon="7.20238">
        <ele>339.17</ele>
        <time>2020-08-19T18:44:37.000Z</time>
      </trkpt>
      <trkpt lat="48.65573" lon="7.20229">
        <ele>338.32</ele>
        <time>2020-08-19T18:44:38.000Z</time>
      </trkpt>
      <trkpt lat="48.6558" lon="7.2022">
        <ele>338.14</ele>
        <time>2020-08-19T18:44:39.000Z</time>
      </trkpt>
      <trkpt lat="48.65586" lon="7.20211">
        <ele>338.4</ele>
        <time>2020-08-19T18:44:40.000Z</time>
      </trkpt>
      <trkpt lat="48.65593" lon="7.20203">
        <ele>337.03</ele>
        <time>2020-08-19T18:44:41.000Z</time>
      </trkpt>
      <trkpt lat="48.656" lon="7.20195">
        <ele>335.94</ele>
        <time>2020-08-19T18:44:42.000Z</time>
      </trkpt>
      <trkpt lat="48.65607" lon="7.20185">
        <ele>335.95</ele>
        <time>2020-08-19T18:44:43.000Z</time>
      </trkpt>
      <trkpt lat="48.65611" lon="7.20174">
        <ele>336.37</ele>
        <time>2020-08-19T18:44:44.000Z</time>
      </trkpt>
      <trkpt lat="48.65617" lon="7.20165">
        <ele>336.42</ele>
        <time>2020-08-19T18:44:45.000Z</time>
      </trkpt>
      <trkpt lat="48.6562" lon="7.20153">
        <ele>335.81</ele>
        <time>2020-08-19T18:44:46.000Z</time>
      </trkpt>
      <trkpt lat="48.65623" lon="7.2014">
        <ele>332.64</ele>
        <time>2020-08-19T18:44:47.000Z</time>
      </trkpt>
      <trkpt lat="48.65626" lon="7.20127">
        <ele>332.95</ele>
        <time>2020-08-19T18:44:48.000Z</time>
      </trkpt>
      <trkpt lat="48.65627" lon="7.20114">
        <ele>334.09</ele>
        <time>2020-08-19T18:44:49.000Z</time>
      </trkpt>
      <trkpt lat="48.65626" lon="7.20103">
        <ele>333.17</ele>
        <time>2020-08-19T18:44:50.000Z</time>
      </trkpt>
      <trkpt lat="48.65623" lon="7.20091">
        <ele>333.84</ele>
        <time>2020-08-19T18:44:51.000Z</time>
      </trkpt>
      <trkpt lat="48.65618" lon="7.20082">
        <ele>332.76</ele>
        <time>2020-08-19T18:44:52.000Z</time>
      </trkpt>
      <trkpt lat="48.65611" lon="7.20074">
        <ele>331.94</ele>
        <time>2020-08-19T18:44:53.000Z</time>
      </trkpt>
      <trkpt lat="48.65605" lon="7.20066">
        <ele>331.83</ele>
        <time>2020-08-19T18:44:54.000Z</time>
      </trkpt>
      <trkpt lat="48.656" lon="7.20058">
        <ele>331.73</ele>
        <time>2020-08-19T18:44:55.000Z</time>
      </trkpt>
      <trkpt lat="48.65594" lon="7.2005">
        <ele>331.55</ele>
        <time>2020-08-19T18:44:56.000Z</time>
      </trkpt>
      <trkpt lat="48.65585" lon="7.20042">
        <ele>330.97</ele>
        <time>2020-08-19T18:44:57.000Z</time>
      </trkpt>
      <trkpt lat="48.65579" lon="7.20034">
        <ele>330.94</ele>
        <time>2020-08-19T18:44:58.000Z</time>
      </trkpt>
      <trkpt lat="48.65572" lon="7.20024">
        <ele>330.9</ele>
        <time>2020-08-19T18:44:59.000Z</time>
      </trkpt>
      <trkpt lat="48.65566" lon="7.20015">
        <ele>330.84</ele>
        <time>2020-08-19T18:45:00.000Z</time>
      </trkpt>
      <trkpt lat="48.65561" lon="7.20005">
        <ele>330.59</ele>
        <time>2020-08-19T18:45:01.000Z</time>
      </trkpt>
      <trkpt lat="48.65557" lon="7.19995">
        <ele>331.37</ele>
        <time>2020-08-19T18:45:02.000Z</time>
      </trkpt>
      <trkpt lat="48.65555" lon="7.19984">
        <ele>331.62</ele>
        <time>2020-08-19T18:45:03.000Z</time>
      </trkpt>
      <trkpt lat="48.65553" lon="7.19972">
        <ele>331.3</ele>
        <time>2020-08-19T18:45:04.000Z</time>
      </trkpt>
      <trkpt lat="48.65553" lon="7.19961">
        <ele>330.56</ele>
        <time>2020-08-19T18:45:05.000Z</time>
      </trkpt>
      <trkpt lat="48.65559" lon="7.19949">
        <ele>331.42</ele>
        <time>2020-08-19T18:45:06.000Z</time>
      </trkpt>
      <trkpt lat="48.65563" lon="7.19937">
        <ele>333.11</ele>
        <time>2020-08-19T18:45:07.000Z</time>
      </trkpt>
      <trkpt lat="48.65568" lon="7.19927">
        <ele>333.48</ele>
        <time>2020-08-19T18:45:08.000Z</time>
      </trkpt>
      <trkpt lat="48.65573" lon="7.19918">
        <ele>333.39</ele>
        <time>2020-08-19T18:45:09.000Z</time>
      </trkpt>
      <trkpt lat="48.65579" lon="7.19912">
        <ele>333.32</ele>
        <time>2020-08-19T18:45:10.000Z</time>
      </trkpt>
      <trkpt lat="48.65585" lon="7.19903">
        <ele>332.95</ele>
        <time>2020-08-19T18:45:11.000Z</time>
      </trkpt>
      <trkpt lat="48.65593" lon="7.19898">
        <ele>331.87</ele>
        <time>2020-08-19T18:45:12.000Z</time>
      </trkpt>
      <trkpt lat="48.65599" lon="7.19891">
        <ele>331.94</ele>
        <time>2020-08-19T18:45:13.000Z</time>
      </trkpt>
      <trkpt lat="48.65608" lon="7.19887">
        <ele>333.4</ele>
        <time>2020-08-19T18:45:14.000Z</time>
      </trkpt>
      <trkpt lat="48.65616" lon="7.19884">
        <ele>333.51</ele>
        <time>2020-08-19T18:45:15.000Z</time>
      </trkpt>
      <trkpt lat="48.65624" lon="7.19885">
        <ele>332.11</ele>
        <time>2020-08-19T18:45:16.000Z</time>
      </trkpt>
      <trkpt lat="48.65633" lon="7.19886">
        <ele>332.11</ele>
        <time>2020-08-19T18:45:17.000Z</time>
      </trkpt>
      <trkpt lat="48.65641" lon="7.19889">
        <ele>333.49</ele>
        <time>2020-08-19T18:45:18.000Z</time>
      </trkpt>
      <trkpt lat="48.6565" lon="7.19893">
        <ele>335.37</ele>
        <time>2020-08-19T18:45:19.000Z</time>
      </trkpt>
      <trkpt lat="48.65658" lon="7.19899">
        <ele>407.59</ele>
        <time>2020-08-19T18:45:20.000Z</time>
      </trkpt>
      <trkpt lat="48.65665" lon="7.19906">
        <ele>394.25</ele>
        <time>2020-08-19T18:45:21.000Z</time>
      </trkpt>
      <trkpt lat="48.65674" lon="7.19913">
        <ele>382.36</ele>
        <time>2020-08-19T18:45:22.000Z</time>
      </trkpt>
      <trkpt lat="48.65682" lon="7.1992">
        <ele>369.55</ele>
        <time>2020-08-19T18:45:23.000Z</time>
      </trkpt>
      <trkpt lat="48.65689" lon="7.19928">
        <ele>363.63</ele>
        <time>2020-08-19T18:45:24.000Z</time>
      </trkpt>
      <trkpt lat="48.65695" lon="7.19936">
        <ele>360.1</ele>
        <time>2020-08-19T18:45:25.000Z</time>
      </trkpt>
      <trkpt lat="48.65702" lon="7.19948">
        <ele>363.39</ele>
        <time>2020-08-19T18:45:26.000Z</time>
      </trkpt>
      <trkpt lat="48.65706" lon="7.19961">
        <ele>357.01</ele>
        <time>2020-08-19T18:45:27.000Z</time>
      </trkpt>
      <trkpt lat="48.65712" lon="7.19969">
        <ele>354</ele>
        <time>2020-08-19T18:45:28.000Z</time>
      </trkpt>
      <trkpt lat="48.65718" lon="7.19982">
        <ele>350.17</ele>
        <time>2020-08-19T18:45:29.000Z</time>
      </trkpt>
      <trkpt lat="48.65726" lon="7.19986">
        <ele>349.06</ele>
        <time>2020-08-19T18:45:30.000Z</time>
      </trkpt>
      <trkpt lat="48.65733" lon="7.19983">
        <ele>345.49</ele>
        <time>2020-08-19T18:45:31.000Z</time>
      </trkpt>
      <trkpt lat="48.65739" lon="7.19976">
        <ele>339.63</ele>
        <time>2020-08-19T18:45:32.000Z</time>
      </trkpt>
      <trkpt lat="48.65744" lon="7.1997">
        <ele>339.8</ele>
        <time>2020-08-19T18:45:33.000Z</time>
      </trkpt>
      <trkpt lat="48.65747" lon="7.19961">
        <ele>339.78</ele>
        <time>2020-08-19T18:45:34.000Z</time>
      </trkpt>
      <trkpt lat="48.65749" lon="7.19951">
        <ele>338.99</ele>
        <time>2020-08-19T18:45:35.000Z</time>
      </trkpt>
      <trkpt lat="48.6575" lon="7.19945">
        <ele>334.31</ele>
        <time>2020-08-19T18:45:36.000Z</time>
      </trkpt>
      <trkpt lat="48.65752" lon="7.19935">
        <ele>332.73</ele>
        <time>2020-08-19T18:45:37.000Z</time>
      </trkpt>
      <trkpt lat="48.65748" lon="7.19933">
        <ele>328.88</ele>
        <time>2020-08-19T18:45:49.000Z</time>
      </trkpt>
      <trkpt lat="48.65752" lon="7.1993">
        <ele>328.56</ele>
        <time>2020-08-19T18:46:57.000Z</time>
      </trkpt>
      <trkpt lat="48.65747" lon="7.1993">
        <ele>346.63</ele>
        <time>2020-08-19T18:47:49.000Z</time>
      </trkpt>
      <trkpt lat="48.65744" lon="7.19936">
        <ele>332.4</ele>
        <time>2020-08-19T18:48:00.000Z</time>
      </trkpt>
      <trkpt lat="48.65744" lon="7.19947">
        <ele>331.07</ele>
        <time>2020-08-19T18:48:02.000Z</time>
      </trkpt>
      <trkpt lat="48.65744" lon="7.19954">
        <ele>328.91</ele>
        <time>2020-08-19T18:48:03.000Z</time>
      </trkpt>
      <trkpt lat="48.65739" lon="7.19965">
        <ele>327.87</ele>
        <time>2020-08-19T18:48:05.000Z</time>
      </trkpt>
      <trkpt lat="48.65736" lon="7.19971">
        <ele>328</ele>
        <time>2020-08-19T18:48:06.000Z</time>
      </trkpt>
      <trkpt lat="48.65732" lon="7.19975">
        <ele>327.34</ele>
        <time>2020-08-19T18:48:07.000Z</time>
      </trkpt>
      <trkpt lat="48.65727" lon="7.19977">
        <ele>327.6</ele>
        <time>2020-08-19T18:48:08.000Z</time>
      </trkpt>
      <trkpt lat="48.6572" lon="7.19976">
        <ele>327.39</ele>
        <time>2020-08-19T18:48:09.000Z</time>
      </trkpt>
      <trkpt lat="48.65715" lon="7.19972">
        <ele>327.96</ele>
        <time>2020-08-19T18:48:10.000Z</time>
      </trkpt>
      <trkpt lat="48.6571" lon="7.19967">
        <ele>328.46</ele>
        <time>2020-08-19T18:48:11.000Z</time>
      </trkpt>
      <trkpt lat="48.65705" lon="7.19963">
        <ele>360.46</ele>
        <time>2020-08-19T18:48:12.000Z</time>
      </trkpt>
      <trkpt lat="48.65699" lon="7.19956">
        <ele>346.12</ele>
        <time>2020-08-19T18:48:13.000Z</time>
      </trkpt>
      <trkpt lat="48.65695" lon="7.1995">
        <ele>341.18</ele>
        <time>2020-08-19T18:48:14.000Z</time>
      </trkpt>
      <trkpt lat="48.6569" lon="7.19944">
        <ele>337.75</ele>
        <time>2020-08-19T18:48:15.000Z</time>
      </trkpt>
      <trkpt lat="48.65685" lon="7.19936">
        <ele>334.04</ele>
        <time>2020-08-19T18:48:16.000Z</time>
      </trkpt>
      <trkpt lat="48.6568" lon="7.1993">
        <ele>333.34</ele>
        <time>2020-08-19T18:48:17.000Z</time>
      </trkpt>
      <trkpt lat="48.65675" lon="7.19923">
        <ele>332.67</ele>
        <time>2020-08-19T18:48:18.000Z</time>
      </trkpt>
      <trkpt lat="48.6567" lon="7.19915">
        <ele>331.94</ele>
        <time>2020-08-19T18:48:19.000Z</time>
      </trkpt>
      <trkpt lat="48.65664" lon="7.19909">
        <ele>329.35</ele>
        <time>2020-08-19T18:48:20.000Z</time>
      </trkpt>
      <trkpt lat="48.65658" lon="7.19903">
        <ele>329.33</ele>
        <time>2020-08-19T18:48:21.000Z</time>
      </trkpt>
      <trkpt lat="48.65653" lon="7.19896">
        <ele>328.21</ele>
        <time>2020-08-19T18:48:22.000Z</time>
      </trkpt>
      <trkpt lat="48.65647" lon="7.19893">
        <ele>328.43</ele>
        <time>2020-08-19T18:48:23.000Z</time>
      </trkpt>
      <trkpt lat="48.6564" lon="7.19891">
        <ele>326.55</ele>
        <time>2020-08-19T18:48:24.000Z</time>
      </trkpt>
      <trkpt lat="48.65633" lon="7.19889">
        <ele>326.21</ele>
        <time>2020-08-19T18:48:25.000Z</time>
      </trkpt>
      <trkpt lat="48.65626" lon="7.19888">
        <ele>325.87</ele>
        <time>2020-08-19T18:48:26.000Z</time>
      </trkpt>
      <trkpt lat="48.6562" lon="7.19885">
        <ele>322.68</ele>
        <time>2020-08-19T18:48:27.000Z</time>
      </trkpt>
      <trkpt lat="48.65612" lon="7.19886">
        <ele>322.77</ele>
        <time>2020-08-19T18:48:28.000Z</time>
      </trkpt>
      <trkpt lat="48.65605" lon="7.19888">
        <ele>322.84</ele>
        <time>2020-08-19T18:48:29.000Z</time>
      </trkpt>
      <trkpt lat="48.65598" lon="7.19892">
        <ele>323.02</ele>
        <time>2020-08-19T18:48:30.000Z</time>
      </trkpt>
      <trkpt lat="48.65586" lon="7.19896">
        <ele>323.63</ele>
        <time>2020-08-19T18:48:32.000Z</time>
      </trkpt>
      <trkpt lat="48.65578" lon="7.19901">
        <ele>324.64</ele>
        <time>2020-08-19T18:48:33.000Z</time>
      </trkpt>
      <trkpt lat="48.65572" lon="7.19906">
        <ele>326.11</ele>
        <time>2020-08-19T18:48:34.000Z</time>
      </trkpt>
      <trkpt lat="48.65566" lon="7.19913">
        <ele>326.82</ele>
        <time>2020-08-19T18:48:35.000Z</time>
      </trkpt>
      <trkpt lat="48.65561" lon="7.1992">
        <ele>325.31</ele>
        <time>2020-08-19T18:48:36.000Z</time>
      </trkpt>
      <trkpt lat="48.65558" lon="7.19933">
        <ele>328.18</ele>
        <time>2020-08-19T18:48:37.000Z</time>
      </trkpt>
      <trkpt lat="48.65555" lon="7.19943">
        <ele>328.69</ele>
        <time>2020-08-19T18:48:38.000Z</time>
      </trkpt>
      <trkpt lat="48.65553" lon="7.19954">
        <ele>327.89</ele>
        <time>2020-08-19T18:48:39.000Z</time>
      </trkpt>
      <trkpt lat="48.65552" lon="7.19964">
        <ele>328.32</ele>
        <time>2020-08-19T18:48:40.000Z</time>
      </trkpt>
      <trkpt lat="48.65554" lon="7.19975">
        <ele>327.32</ele>
        <time>2020-08-19T18:48:41.000Z</time>
      </trkpt>
      <trkpt lat="48.65557" lon="7.19988">
        <ele>327.61</ele>
        <time>2020-08-19T18:48:42.000Z</time>
      </trkpt>
      <trkpt lat="48.6556" lon="7.19999">
        <ele>327.92</ele>
        <time>2020-08-19T18:48:43.000Z</time>
      </trkpt>
      <trkpt lat="48.65565" lon="7.20008">
        <ele>328.96</ele>
        <time>2020-08-19T18:48:44.000Z</time>
      </trkpt>
      <trkpt lat="48.65568" lon="7.20014">
        <ele>326.62</ele>
        <time>2020-08-19T18:48:45.000Z</time>
      </trkpt>
      <trkpt lat="48.65574" lon="7.20025">
        <ele>327.68</ele>
        <time>2020-08-19T18:48:46.000Z</time>
      </trkpt>
      <trkpt lat="48.65579" lon="7.20034">
        <ele>328.05</ele>
        <time>2020-08-19T18:48:47.000Z</time>
      </trkpt>
      <trkpt lat="48.65585" lon="7.20041">
        <ele>328.04</ele>
        <time>2020-08-19T18:48:48.000Z</time>
      </trkpt>
      <trkpt lat="48.65592" lon="7.20047">
        <ele>329.39</ele>
        <time>2020-08-19T18:48:49.000Z</time>
      </trkpt>
      <trkpt lat="48.65598" lon="7.20053">
        <ele>328.21</ele>
        <time>2020-08-19T18:48:50.000Z</time>
      </trkpt>
      <trkpt lat="48.65603" lon="7.20061">
        <ele>326.37</ele>
        <time>2020-08-19T18:48:51.000Z</time>
      </trkpt>
      <trkpt lat="48.65608" lon="7.20067">
        <ele>325.69</ele>
        <time>2020-08-19T18:48:52.000Z</time>
      </trkpt>
      <trkpt lat="48.65614" lon="7.20072">
        <ele>326.48</ele>
        <time>2020-08-19T18:48:53.000Z</time>
      </trkpt>
      <trkpt lat="48.6562" lon="7.2008">
        <ele>327.17</ele>
        <time>2020-08-19T18:48:54.000Z</time>
      </trkpt>
      <trkpt lat="48.65625" lon="7.2009">
        <ele>326.58</ele>
        <time>2020-08-19T18:48:55.000Z</time>
      </trkpt>
      <trkpt lat="48.65626" lon="7.20099">
        <ele>329.13</ele>
        <time>2020-08-19T18:48:56.000Z</time>
      </trkpt>
      <trkpt lat="48.65627" lon="7.20111">
        <ele>327.78</ele>
        <time>2020-08-19T18:48:57.000Z</time>
      </trkpt>
      <trkpt lat="48.65627" lon="7.20122">
        <ele>328.71</ele>
        <time>2020-08-19T18:48:58.000Z</time>
      </trkpt>
      <trkpt lat="48.65626" lon="7.20133">
        <ele>329.87</ele>
        <time>2020-08-19T18:48:59.000Z</time>
      </trkpt>
      <trkpt lat="48.65625" lon="7.20144">
        <ele>329.22</ele>
        <time>2020-08-19T18:49:00.000Z</time>
      </trkpt>
      <trkpt lat="48.65625" lon="7.20155">
        <ele>332.08</ele>
        <time>2020-08-19T18:49:01.000Z</time>
      </trkpt>
      <trkpt lat="48.65622" lon="7.20165">
        <ele>331.11</ele>
        <time>2020-08-19T18:49:02.000Z</time>
      </trkpt>
      <trkpt lat="48.65618" lon="7.20174">
        <ele>330.09</ele>
        <time>2020-08-19T18:49:03.000Z</time>
      </trkpt>
      <trkpt lat="48.65614" lon="7.20182">
        <ele>329.77</ele>
        <time>2020-08-19T18:49:04.000Z</time>
      </trkpt>
      <trkpt lat="48.65612" lon="7.20189">
        <ele>328.55</ele>
        <time>2020-08-19T18:49:05.000Z</time>
      </trkpt>
      <trkpt lat="48.65608" lon="7.20196">
        <ele>328.66</ele>
        <time>2020-08-19T18:49:06.000Z</time>
      </trkpt>
      <trkpt lat="48.65603" lon="7.20202">
        <ele>327.74</ele>
        <time>2020-08-19T18:49:07.000Z</time>
      </trkpt>
      <trkpt lat="48.65583" lon="7.20224">
        <ele>331.21</ele>
        <time>2020-08-19T18:49:12.000Z</time>
      </trkpt>
      <trkpt lat="48.65573" lon="7.20218">
        <ele>334.38</ele>
        <time>2020-08-19T18:49:23.000Z</time>
      </trkpt>
      <trkpt lat="48.6557" lon="7.20209">
        <ele>337.06</ele>
        <time>2020-08-19T18:49:28.000Z</time>
      </trkpt>
      <trkpt lat="48.65569" lon="7.20202">
        <ele>337.36</ele>
        <time>2020-08-19T18:49:36.000Z</time>
      </trkpt>
      <trkpt lat="48.65569" lon="7.20194">
        <ele>338.36</ele>
        <time>2020-08-19T18:49:41.000Z</time>
      </trkpt>
      <trkpt lat="48.65568" lon="7.20187">
        <ele>340.1</ele>
        <time>2020-08-19T18:49:47.000Z</time>
      </trkpt>
      <trkpt lat="48.65569" lon="7.20179">
        <ele>343.54</ele>
        <time>2020-08-19T18:49:51.000Z</time>
      </trkpt>
      <trkpt lat="48.65569" lon="7.2017">
        <ele>342.88</ele>
        <time>2020-08-19T18:49:55.000Z</time>
      </trkpt>
      <trkpt lat="48.6557" lon="7.20163">
        <ele>347.3</ele>
        <time>2020-08-19T18:49:59.000Z</time>
      </trkpt>
      <trkpt lat="48.6557" lon="7.20155">
        <ele>349.5</ele>
        <time>2020-08-19T18:50:03.000Z</time>
      </trkpt>
      <trkpt lat="48.65568" lon="7.20148">
        <ele>350.16</ele>
        <time>2020-08-19T18:50:07.000Z</time>
      </trkpt>
      <trkpt lat="48.65566" lon="7.20142">
        <ele>351.97</ele>
        <time>2020-08-19T18:50:10.000Z</time>
      </trkpt>
      <trkpt lat="48.65563" lon="7.20135">
        <ele>350.4</ele>
        <time>2020-08-19T18:50:13.000Z</time>
      </trkpt>
      <trkpt lat="48.65559" lon="7.20128">
        <ele>365.22</ele>
        <time>2020-08-19T18:50:28.000Z</time>
      </trkpt>
      <trkpt lat="48.65555" lon="7.20122">
        <ele>357.79</ele>
        <time>2020-08-19T18:50:33.000Z</time>
      </trkpt>
      <trkpt lat="48.65551" lon="7.20114">
        <ele>356.4</ele>
        <time>2020-08-19T18:50:38.000Z</time>
      </trkpt>
      <trkpt lat="48.65548" lon="7.20109">
        <ele>353.19</ele>
        <time>2020-08-19T18:50:43.000Z</time>
      </trkpt>
      <trkpt lat="48.65545" lon="7.20104">
        <ele>351.98</ele>
        <time>2020-08-19T18:50:47.000Z</time>
      </trkpt>
      <trkpt lat="48.65541" lon="7.20098">
        <ele>352.94</ele>
        <time>2020-08-19T18:50:50.000Z</time>
      </trkpt>
      <trkpt lat="48.65541" lon="7.20091">
        <ele>357.28</ele>
        <time>2020-08-19T18:51:01.000Z</time>
      </trkpt>
      <trkpt lat="48.65536" lon="7.20085">
        <ele>357.38</ele>
        <time>2020-08-19T18:51:09.000Z</time>
      </trkpt>
      <trkpt lat="48.65534" lon="7.20079">
        <ele>354.02</ele>
        <time>2020-08-19T18:51:15.000Z</time>
      </trkpt>
      <trkpt lat="48.65529" lon="7.20075">
        <ele>353.82</ele>
        <time>2020-08-19T18:51:19.000Z</time>
      </trkpt>
      <trkpt lat="48.65533" lon="7.20082">
        <ele>354.32</ele>
        <time>2020-08-19T18:51:48.000Z</time>
      </trkpt>
      <trkpt lat="48.65543" lon="7.20093">
        <ele>352.56</ele>
        <time>2020-08-19T18:51:51.000Z</time>
      </trkpt>
      <trkpt lat="48.65547" lon="7.20099">
        <ele>352.25</ele>
        <time>2020-08-19T18:51:52.000Z</time>
      </trkpt>
      <trkpt lat="48.65558" lon="7.20114">
        <ele>351.31</ele>
        <time>2020-08-19T18:51:55.000Z</time>
      </trkpt>
      <trkpt lat="48.65562" lon="7.20119">
        <ele>351.14</ele>
        <time>2020-08-19T18:51:56.000Z</time>
      </trkpt>
      <trkpt lat="48.6557" lon="7.20143">
        <ele>349.59</ele>
        <time>2020-08-19T18:52:00.000Z</time>
      </trkpt>
      <trkpt lat="48.65571" lon="7.20154">
        <ele>349.43</ele>
        <time>2020-08-19T18:52:02.000Z</time>
      </trkpt>
      <trkpt lat="48.65569" lon="7.20161">
        <ele>347.64</ele>
        <time>2020-08-19T18:52:03.000Z</time>
      </trkpt>
      <trkpt lat="48.65569" lon="7.20168">
        <ele>345.97</ele>
        <time>2020-08-19T18:52:05.000Z</time>
      </trkpt>
      <trkpt lat="48.6557" lon="7.20175">
        <ele>344.15</ele>
        <time>2020-08-19T18:52:07.000Z</time>
      </trkpt>
      <trkpt lat="48.65571" lon="7.20184">
        <ele>344.01</ele>
        <time>2020-08-19T18:52:10.000Z</time>
      </trkpt>
      <trkpt lat="48.6557" lon="7.20191">
        <ele>341.31</ele>
        <time>2020-08-19T18:52:17.000Z</time>
      </trkpt>
      <trkpt lat="48.65568" lon="7.20199">
        <ele>341.21</ele>
        <time>2020-08-19T18:52:21.000Z</time>
      </trkpt>
      <trkpt lat="48.65566" lon="7.20206">
        <ele>344.21</ele>
        <time>2020-08-19T18:52:41.000Z</time>
      </trkpt>
      <trkpt lat="48.65568" lon="7.20213">
        <ele>341.16</ele>
        <time>2020-08-19T18:53:13.000Z</time>
      </trkpt>
      <trkpt lat="48.65571" lon="7.2022">
        <ele>340.06</ele>
        <time>2020-08-19T18:53:15.000Z</time>
      </trkpt>
      <trkpt lat="48.65584" lon="7.20209">
        <ele>340.67</ele>
        <time>2020-08-19T18:53:19.000Z</time>
      </trkpt>
      <trkpt lat="48.656" lon="7.20192">
        <ele>337.33</ele>
        <time>2020-08-19T18:53:23.000Z</time>
      </trkpt>
      <trkpt lat="48.65605" lon="7.20186">
        <ele>338.12</ele>
        <time>2020-08-19T18:53:24.000Z</time>
      </trkpt>
      <trkpt lat="48.65609" lon="7.20179">
        <ele>338.24</ele>
        <time>2020-08-19T18:53:25.000Z</time>
      </trkpt>
      <trkpt lat="48.65613" lon="7.2017">
        <ele>337.36</ele>
        <time>2020-08-19T18:53:26.000Z</time>
      </trkpt>
      <trkpt lat="48.65618" lon="7.20161">
        <ele>337.68</ele>
        <time>2020-08-19T18:53:27.000Z</time>
      </trkpt>
      <trkpt lat="48.65621" lon="7.2015">
        <ele>337.72</ele>
        <time>2020-08-19T18:53:28.000Z</time>
      </trkpt>
      <trkpt lat="48.65622" lon="7.20139">
        <ele>335.41</ele>
        <time>2020-08-19T18:53:29.000Z</time>
      </trkpt>
      <trkpt lat="48.65623" lon="7.20128">
        <ele>335.67</ele>
        <time>2020-08-19T18:53:30.000Z</time>
      </trkpt>
      <trkpt lat="48.65623" lon="7.20116">
        <ele>335.34</ele>
        <time>2020-08-19T18:53:31.000Z</time>
      </trkpt>
      <trkpt lat="48.65623" lon="7.20106">
        <ele>333.31</ele>
        <time>2020-08-19T18:53:32.000Z</time>
      </trkpt>
      <trkpt lat="48.65621" lon="7.20093">
        <ele>332.12</ele>
        <time>2020-08-19T18:53:33.000Z</time>
      </trkpt>
      <trkpt lat="48.65617" lon="7.20082">
        <ele>331.21</ele>
        <time>2020-08-19T18:53:34.000Z</time>
      </trkpt>
      <trkpt lat="48.65613" lon="7.20073">
        <ele>331.7</ele>
        <time>2020-08-19T18:53:35.000Z</time>
      </trkpt>
      <trkpt lat="48.65604" lon="7.20068">
        <ele>330.92</ele>
        <time>2020-08-19T18:53:36.000Z</time>
      </trkpt>
      <trkpt lat="48.65594" lon="7.20064">
        <ele>330.27</ele>
        <time>2020-08-19T18:53:37.000Z</time>
      </trkpt>
      <trkpt lat="48.65594" lon="7.20056">
        <ele>330.48</ele>
        <time>2020-08-19T18:53:38.000Z</time>
      </trkpt>
      <trkpt lat="48.65587" lon="7.20049">
        <ele>330.5</ele>
        <time>2020-08-19T18:53:39.000Z</time>
      </trkpt>
      <trkpt lat="48.6558" lon="7.20044">
        <ele>329</ele>
        <time>2020-08-19T18:53:40.000Z</time>
      </trkpt>
      <trkpt lat="48.65577" lon="7.20033">
        <ele>329.92</ele>
        <time>2020-08-19T18:53:41.000Z</time>
      </trkpt>
      <trkpt lat="48.65572" lon="7.20028">
        <ele>329.81</ele>
        <time>2020-08-19T18:53:42.000Z</time>
      </trkpt>
      <trkpt lat="48.65567" lon="7.20025">
        <ele>331.07</ele>
        <time>2020-08-19T18:54:36.000Z</time>
      </trkpt>
      <trkpt lat="48.65564" lon="7.20018">
        <ele>331.46</ele>
        <time>2020-08-19T18:54:39.000Z</time>
      </trkpt>
      <trkpt lat="48.65557" lon="7.20007">
        <ele>333.08</ele>
        <time>2020-08-19T18:54:41.000Z</time>
      </trkpt>
      <trkpt lat="48.65554" lon="7.2">
        <ele>332.57</ele>
        <time>2020-08-19T18:54:42.000Z</time>
      </trkpt>
      <trkpt lat="48.65551" lon="7.19992">
        <ele>332.24</ele>
        <time>2020-08-19T18:54:43.000Z</time>
      </trkpt>
      <trkpt lat="48.65553" lon="7.19981">
        <ele>333.55</ele>
        <time>2020-08-19T18:54:44.000Z</time>
      </trkpt>
      <trkpt lat="48.65553" lon="7.19972">
        <ele>333.72</ele>
        <time>2020-08-19T18:54:45.000Z</time>
      </trkpt>
      <trkpt lat="48.65555" lon="7.1996">
        <ele>334.53</ele>
        <time>2020-08-19T18:54:46.000Z</time>
      </trkpt>
      <trkpt lat="48.65557" lon="7.19949">
        <ele>334.36</ele>
        <time>2020-08-19T18:54:47.000Z</time>
      </trkpt>
      <trkpt lat="48.65562" lon="7.19941">
        <ele>333.74</ele>
        <time>2020-08-19T18:54:48.000Z</time>
      </trkpt>
      <trkpt lat="48.65566" lon="7.19932">
        <ele>334.4</ele>
        <time>2020-08-19T18:54:49.000Z</time>
      </trkpt>
      <trkpt lat="48.65571" lon="7.19923">
        <ele>334.62</ele>
        <time>2020-08-19T18:54:50.000Z</time>
      </trkpt>
      <trkpt lat="48.65577" lon="7.19916">
        <ele>334.61</ele>
        <time>2020-08-19T18:54:51.000Z</time>
      </trkpt>
      <trkpt lat="48.65581" lon="7.19912">
        <ele>334.86</ele>
        <time>2020-08-19T18:54:52.000Z</time>
      </trkpt>
      <trkpt lat="48.6559" lon="7.19902">
        <ele>334.49</ele>
        <time>2020-08-19T18:54:53.000Z</time>
      </trkpt>
      <trkpt lat="48.65598" lon="7.19897">
        <ele>333.61</ele>
        <time>2020-08-19T18:54:54.000Z</time>
      </trkpt>
      <trkpt lat="48.65607" lon="7.19894">
        <ele>332.39</ele>
        <time>2020-08-19T18:54:55.000Z</time>
      </trkpt>
      <trkpt lat="48.65615" lon="7.19891">
        <ele>332.97</ele>
        <time>2020-08-19T18:54:56.000Z</time>
      </trkpt>
      <trkpt lat="48.65623" lon="7.19892">
        <ele>332.78</ele>
        <time>2020-08-19T18:54:57.000Z</time>
      </trkpt>
      <trkpt lat="48.65632" lon="7.19892">
        <ele>333.09</ele>
        <time>2020-08-19T18:54:58.000Z</time>
      </trkpt>
      <trkpt lat="48.65641" lon="7.19893">
        <ele>333.05</ele>
        <time>2020-08-19T18:54:59.000Z</time>
      </trkpt>
      <trkpt lat="48.65649" lon="7.19897">
        <ele>332.55</ele>
        <time>2020-08-19T18:55:00.000Z</time>
      </trkpt>
      <trkpt lat="48.65657" lon="7.19902">
        <ele>331.42</ele>
        <time>2020-08-19T18:55:01.000Z</time>
      </trkpt>
      <trkpt lat="48.65663" lon="7.1991">
        <ele>329.08</ele>
        <time>2020-08-19T18:55:02.000Z</time>
      </trkpt>
      <trkpt lat="48.6567" lon="7.19918">
        <ele>329.19</ele>
        <time>2020-08-19T18:55:03.000Z</time>
      </trkpt>
      <trkpt lat="48.65676" lon="7.19926">
        <ele>328.36</ele>
        <time>2020-08-19T18:55:04.000Z</time>
      </trkpt>
      <trkpt lat="48.65683" lon="7.19935">
        <ele>328.64</ele>
        <time>2020-08-19T18:55:05.000Z</time>
      </trkpt>
      <trkpt lat="48.65689" lon="7.19946">
        <ele>328.57</ele>
        <time>2020-08-19T18:55:06.000Z</time>
      </trkpt>
      <trkpt lat="48.65694" lon="7.19958">
        <ele>328.76</ele>
        <time>2020-08-19T18:55:07.000Z</time>
      </trkpt>
      <trkpt lat="48.65701" lon="7.19964">
        <ele>329.25</ele>
        <time>2020-08-19T18:55:08.000Z</time>
      </trkpt>
      <trkpt lat="48.65706" lon="7.19972">
        <ele>328.96</ele>
        <time>2020-08-19T18:55:09.000Z</time>
      </trkpt>
      <trkpt lat="48.65714" lon="7.19978">
        <ele>329.62</ele>
        <time>2020-08-19T18:55:10.000Z</time>
      </trkpt>
      <trkpt lat="48.65722" lon="7.1998">
        <ele>327.47</ele>
        <time>2020-08-19T18:55:11.000Z</time>
      </trkpt>
      <trkpt lat="48.65729" lon="7.19983">
        <ele>326.36</ele>
        <time>2020-08-19T18:55:12.000Z</time>
      </trkpt>
      <trkpt lat="48.65735" lon="7.19981">
        <ele>326.24</ele>
        <time>2020-08-19T18:55:13.000Z</time>
      </trkpt>
      <trkpt lat="48.6574" lon="7.19973">
        <ele>325.39</ele>
        <time>2020-08-19T18:55:14.000Z</time>
      </trkpt>
      <trkpt lat="48.65743" lon="7.19963">
        <ele>327.07</ele>
        <time>2020-08-19T18:55:15.000Z</time>
      </trkpt>
      <trkpt lat="48.65746" lon="7.19953">
        <ele>325.85</ele>
        <time>2020-08-19T18:55:16.000Z</time>
      </trkpt>
      <trkpt lat="48.65747" lon="7.19944">
        <ele>323.77</ele>
        <time>2020-08-19T18:55:17.000Z</time>
      </trkpt>
      <trkpt lat="48.65748" lon="7.19932">
        <ele>322.39</ele>
        <time>2020-08-19T18:55:18.000Z</time>
      </trkpt>
      <trkpt lat="48.65752" lon="7.19917">
        <ele>322.65</ele>
        <time>2020-08-19T18:55:19.000Z</time>
      </trkpt>
      <trkpt lat="48.65753" lon="7.19903">
        <ele>320.73</ele>
        <time>2020-08-19T18:55:20.000Z</time>
      </trkpt>
      <trkpt lat="48.65754" lon="7.19891">
        <ele>321.9</ele>
        <time>2020-08-19T18:55:21.000Z</time>
      </trkpt>
      <trkpt lat="48.65755" lon="7.19877">
        <ele>321.62</ele>
        <time>2020-08-19T18:55:22.000Z</time>
      </trkpt>
      <trkpt lat="48.65758" lon="7.19866">
        <ele>319.64</ele>
        <time>2020-08-19T18:55:23.000Z</time>
      </trkpt>
      <trkpt lat="48.65761" lon="7.19854">
        <ele>321.05</ele>
        <time>2020-08-19T18:55:24.000Z</time>
      </trkpt>
      <trkpt lat="48.65764" lon="7.19842">
        <ele>317.05</ele>
        <time>2020-08-19T18:55:25.000Z</time>
      </trkpt>
      <trkpt lat="48.65768" lon="7.1983">
        <ele>317.64</ele>
        <time>2020-08-19T18:55:26.000Z</time>
      </trkpt>
      <trkpt lat="48.6577" lon="7.19818">
        <ele>318.41</ele>
        <time>2020-08-19T18:55:27.000Z</time>
      </trkpt>
      <trkpt lat="48.65773" lon="7.19806">
        <ele>319.15</ele>
        <time>2020-08-19T18:55:28.000Z</time>
      </trkpt>
      <trkpt lat="48.65776" lon="7.19793">
        <ele>319.3</ele>
        <time>2020-08-19T18:55:29.000Z</time>
      </trkpt>
      <trkpt lat="48.65779" lon="7.19782">
        <ele>318.82</ele>
        <time>2020-08-19T18:55:30.000Z</time>
      </trkpt>
      <trkpt lat="48.65783" lon="7.19771">
        <ele>319.85</ele>
        <time>2020-08-19T18:55:31.000Z</time>
      </trkpt>
      <trkpt lat="48.65789" lon="7.19761">
        <ele>319.56</ele>
        <time>2020-08-19T18:55:32.000Z</time>
      </trkpt>
      <trkpt lat="48.65795" lon="7.19752">
        <ele>320.25</ele>
        <time>2020-08-19T18:55:33.000Z</time>
      </trkpt>
      <trkpt lat="48.65803" lon="7.19742">
        <ele>320.47</ele>
        <time>2020-08-19T18:55:34.000Z</time>
      </trkpt>
      <trkpt lat="48.65809" lon="7.19734">
        <ele>319.74</ele>
        <time>2020-08-19T18:55:35.000Z</time>
      </trkpt>
      <trkpt lat="48.65818" lon="7.19727">
        <ele>318.69</ele>
        <time>2020-08-19T18:55:36.000Z</time>
      </trkpt>
      <trkpt lat="48.65825" lon="7.19721">
        <ele>319.8</ele>
        <time>2020-08-19T18:55:37.000Z</time>
      </trkpt>
      <trkpt lat="48.65833" lon="7.19717">
        <ele>319.83</ele>
        <time>2020-08-19T18:55:38.000Z</time>
      </trkpt>
      <trkpt lat="48.65841" lon="7.1971">
        <ele>320.44</ele>
        <time>2020-08-19T18:55:39.000Z</time>
      </trkpt>
      <trkpt lat="48.65849" lon="7.19708">
        <ele>320.47</ele>
        <time>2020-08-19T18:55:40.000Z</time>
      </trkpt>
      <trkpt lat="48.65857" lon="7.19705">
        <ele>318.78</ele>
        <time>2020-08-19T18:55:41.000Z</time>
      </trkpt>
      <trkpt lat="48.65865" lon="7.19704">
        <ele>319.84</ele>
        <time>2020-08-19T18:55:42.000Z</time>
      </trkpt>
      <trkpt lat="48.65874" lon="7.19704">
        <ele>320.66</ele>
        <time>2020-08-19T18:55:43.000Z</time>
      </trkpt>
      <trkpt lat="48.65882" lon="7.19704">
        <ele>321.08</ele>
        <time>2020-08-19T18:55:44.000Z</time>
      </trkpt>
      <trkpt lat="48.65892" lon="7.19705">
        <ele>321.06</ele>
        <time>2020-08-19T18:55:45.000Z</time>
      </trkpt>
      <trkpt lat="48.659" lon="7.19705">
        <ele>320.51</ele>
        <time>2020-08-19T18:55:46.000Z</time>
      </trkpt>
      <trkpt lat="48.65911" lon="7.197">
        <ele>320.72</ele>
        <time>2020-08-19T18:55:47.000Z</time>
      </trkpt>
      <trkpt lat="48.6592" lon="7.19702">
        <ele>322.57</ele>
        <time>2020-08-19T18:55:48.000Z</time>
      </trkpt>
      <trkpt lat="48.6593" lon="7.19704">
        <ele>323.92</ele>
        <time>2020-08-19T18:55:49.000Z</time>
      </trkpt>
      <trkpt lat="48.65938" lon="7.19705">
        <ele>324.27</ele>
        <time>2020-08-19T18:55:50.000Z</time>
      </trkpt>
      <trkpt lat="48.65947" lon="7.19706">
        <ele>323.58</ele>
        <time>2020-08-19T18:55:51.000Z</time>
      </trkpt>
      <trkpt lat="48.65954" lon="7.19709">
        <ele>446.53</ele>
        <time>2020-08-19T18:55:52.000Z</time>
      </trkpt>
      <trkpt lat="48.65961" lon="7.19715">
        <ele>417.54</ele>
        <time>2020-08-19T18:55:53.000Z</time>
      </trkpt>
      <trkpt lat="48.65965" lon="7.19725">
        <ele>397.51</ele>
        <time>2020-08-19T18:55:54.000Z</time>
      </trkpt>
      <trkpt lat="48.65969" lon="7.19736">
        <ele>378.68</ele>
        <time>2020-08-19T18:55:55.000Z</time>
      </trkpt>
      <trkpt lat="48.65973" lon="7.19748">
        <ele>370.6</ele>
        <time>2020-08-19T18:55:56.000Z</time>
      </trkpt>
      <trkpt lat="48.65977" lon="7.19759">
        <ele>351.11</ele>
        <time>2020-08-19T18:55:57.000Z</time>
      </trkpt>
      <trkpt lat="48.65981" lon="7.1977">
        <ele>341.58</ele>
        <time>2020-08-19T18:55:58.000Z</time>
      </trkpt>
      <trkpt lat="48.65983" lon="7.19781">
        <ele>334.17</ele>
        <time>2020-08-19T18:55:59.000Z</time>
      </trkpt>
      <trkpt lat="48.65988" lon="7.19793">
        <ele>331.16</ele>
        <time>2020-08-19T18:56:00.000Z</time>
      </trkpt>
      <trkpt lat="48.65993" lon="7.19805">
        <ele>328.05</ele>
        <time>2020-08-19T18:56:01.000Z</time>
      </trkpt>
      <trkpt lat="48.65996" lon="7.19816">
        <ele>327.06</ele>
        <time>2020-08-19T18:56:02.000Z</time>
      </trkpt>
      <trkpt lat="48.66" lon="7.19827">
        <ele>325.78</ele>
        <time>2020-08-19T18:56:03.000Z</time>
      </trkpt>
      <trkpt lat="48.66004" lon="7.19839">
        <ele>323.78</ele>
        <time>2020-08-19T18:56:04.000Z</time>
      </trkpt>
      <trkpt lat="48.66008" lon="7.19851">
        <ele>323.37</ele>
        <time>2020-08-19T18:56:05.000Z</time>
      </trkpt>
      <trkpt lat="48.66013" lon="7.19862">
        <ele>321.08</ele>
        <time>2020-08-19T18:56:06.000Z</time>
      </trkpt>
      <trkpt lat="48.66018" lon="7.19873">
        <ele>321.32</ele>
        <time>2020-08-19T18:56:07.000Z</time>
      </trkpt>
      <trkpt lat="48.66023" lon="7.19882">
        <ele>321.21</ele>
        <time>2020-08-19T18:56:08.000Z</time>
      </trkpt>
      <trkpt lat="48.6603" lon="7.19892">
        <ele>321.15</ele>
        <time>2020-08-19T18:56:09.000Z</time>
      </trkpt>
      <trkpt lat="48.66039" lon="7.19896">
        <ele>321.43</ele>
        <time>2020-08-19T18:56:10.000Z</time>
      </trkpt>
      <trkpt lat="48.66046" lon="7.19903">
        <ele>322.34</ele>
        <time>2020-08-19T18:56:11.000Z</time>
      </trkpt>
      <trkpt lat="48.66055" lon="7.19906">
        <ele>321.66</ele>
        <time>2020-08-19T18:56:12.000Z</time>
      </trkpt>
      <trkpt lat="48.66064" lon="7.19909">
        <ele>321.94</ele>
        <time>2020-08-19T18:56:13.000Z</time>
      </trkpt>
      <trkpt lat="48.66072" lon="7.1991">
        <ele>321.97</ele>
        <time>2020-08-19T18:56:14.000Z</time>
      </trkpt>
      <trkpt lat="48.66081" lon="7.19914">
        <ele>321.56</ele>
        <time>2020-08-19T18:56:15.000Z</time>
      </trkpt>
      <trkpt lat="48.66089" lon="7.19915">
        <ele>322.2</ele>
        <time>2020-08-19T18:56:16.000Z</time>
      </trkpt>
      <trkpt lat="48.66098" lon="7.19917">
        <ele>321.56</ele>
        <time>2020-08-19T18:56:17.000Z</time>
      </trkpt>
      <trkpt lat="48.66106" lon="7.19919">
        <ele>321.82</ele>
        <time>2020-08-19T18:56:18.000Z</time>
      </trkpt>
      <trkpt lat="48.66115" lon="7.1992">
        <ele>322.57</ele>
        <time>2020-08-19T18:56:19.000Z</time>
      </trkpt>
      <trkpt lat="48.66122" lon="7.19921">
        <ele>323.11</ele>
        <time>2020-08-19T18:56:20.000Z</time>
      </trkpt>
      <trkpt lat="48.66129" lon="7.19922">
        <ele>322.65</ele>
        <time>2020-08-19T18:56:21.000Z</time>
      </trkpt>
      <trkpt lat="48.66138" lon="7.19919">
        <ele>322.98</ele>
        <time>2020-08-19T18:56:22.000Z</time>
      </trkpt>
      <trkpt lat="48.66147" lon="7.19915">
        <ele>322.86</ele>
        <time>2020-08-19T18:56:23.000Z</time>
      </trkpt>
      <trkpt lat="48.66156" lon="7.19911">
        <ele>322.63</ele>
        <time>2020-08-19T18:56:24.000Z</time>
      </trkpt>
      <trkpt lat="48.66165" lon="7.19907">
        <ele>322.15</ele>
        <time>2020-08-19T18:56:25.000Z</time>
      </trkpt>
      <trkpt lat="48.66174" lon="7.19902">
        <ele>323.16</ele>
        <time>2020-08-19T18:56:26.000Z</time>
      </trkpt>
      <trkpt lat="48.66182" lon="7.19894">
        <ele>324.22</ele>
        <time>2020-08-19T18:56:27.000Z</time>
      </trkpt>
      <trkpt lat="48.6619" lon="7.19885">
        <ele>324.2</ele>
        <time>2020-08-19T18:56:28.000Z</time>
      </trkpt>
      <trkpt lat="48.66196" lon="7.19878">
        <ele>323.36</ele>
        <time>2020-08-19T18:56:29.000Z</time>
      </trkpt>
      <trkpt lat="48.66203" lon="7.1987">
        <ele>323.48</ele>
        <time>2020-08-19T18:56:30.000Z</time>
      </trkpt>
      <trkpt lat="48.66208" lon="7.19859">
        <ele>323.54</ele>
        <time>2020-08-19T18:56:31.000Z</time>
      </trkpt>
      <trkpt lat="48.66213" lon="7.19846">
        <ele>322.4</ele>
        <time>2020-08-19T18:56:32.000Z</time>
      </trkpt>
      <trkpt lat="48.66217" lon="7.19832">
        <ele>322.84</ele>
        <time>2020-08-19T18:56:33.000Z</time>
      </trkpt>
      <trkpt lat="48.66219" lon="7.19819">
        <ele>321.79</ele>
        <time>2020-08-19T18:56:34.000Z</time>
      </trkpt>
      <trkpt lat="48.66222" lon="7.19806">
        <ele>322.23</ele>
        <time>2020-08-19T18:56:35.000Z</time>
      </trkpt>
      <trkpt lat="48.66223" lon="7.19793">
        <ele>322.07</ele>
        <time>2020-08-19T18:56:36.000Z</time>
      </trkpt>
      <trkpt lat="48.66224" lon="7.19781">
        <ele>321.94</ele>
        <time>2020-08-19T18:56:37.000Z</time>
      </trkpt>
      <trkpt lat="48.66226" lon="7.19768">
        <ele>320.86</ele>
        <time>2020-08-19T18:56:38.000Z</time>
      </trkpt>
      <trkpt lat="48.66226" lon="7.19756">
        <ele>319.63</ele>
        <time>2020-08-19T18:56:39.000Z</time>
      </trkpt>
      <trkpt lat="48.66226" lon="7.19742">
        <ele>320.06</ele>
        <time>2020-08-19T18:56:40.000Z</time>
      </trkpt>
      <trkpt lat="48.66225" lon="7.19728">
        <ele>319.03</ele>
        <time>2020-08-19T18:56:41.000Z</time>
      </trkpt>
      <trkpt lat="48.66224" lon="7.19713">
        <ele>317.52</ele>
        <time>2020-08-19T18:56:42.000Z</time>
      </trkpt>
      <trkpt lat="48.66224" lon="7.197">
        <ele>316.81</ele>
        <time>2020-08-19T18:56:43.000Z</time>
      </trkpt>
      <trkpt lat="48.66225" lon="7.19686">
        <ele>319.06</ele>
        <time>2020-08-19T18:56:44.000Z</time>
      </trkpt>
      <trkpt lat="48.66226" lon="7.19672">
        <ele>319.07</ele>
        <time>2020-08-19T18:56:45.000Z</time>
      </trkpt>
      <trkpt lat="48.66227" lon="7.19658">
        <ele>318.68</ele>
        <time>2020-08-19T18:56:46.000Z</time>
      </trkpt>
      <trkpt lat="48.66228" lon="7.19646">
        <ele>318.96</ele>
        <time>2020-08-19T18:56:47.000Z</time>
      </trkpt>
      <trkpt lat="48.66227" lon="7.19634">
        <ele>315.8</ele>
        <time>2020-08-19T18:56:48.000Z</time>
      </trkpt>
      <trkpt lat="48.66229" lon="7.19622">
        <ele>316.82</ele>
        <time>2020-08-19T18:56:49.000Z</time>
      </trkpt>
      <trkpt lat="48.66231" lon="7.19609">
        <ele>315.88</ele>
        <time>2020-08-19T18:56:50.000Z</time>
      </trkpt>
      <trkpt lat="48.66233" lon="7.19597">
        <ele>315.72</ele>
        <time>2020-08-19T18:56:51.000Z</time>
      </trkpt>
      <trkpt lat="48.66237" lon="7.19585">
        <ele>315.97</ele>
        <time>2020-08-19T18:56:52.000Z</time>
      </trkpt>
      <trkpt lat="48.66242" lon="7.19573">
        <ele>314.48</ele>
        <time>2020-08-19T18:56:53.000Z</time>
      </trkpt>
      <trkpt lat="48.66248" lon="7.19561">
        <ele>315.22</ele>
        <time>2020-08-19T18:56:54.000Z</time>
      </trkpt>
      <trkpt lat="48.66253" lon="7.19551">
        <ele>314.45</ele>
        <time>2020-08-19T18:56:55.000Z</time>
      </trkpt>
      <trkpt lat="48.66263" lon="7.19541">
        <ele>314.18</ele>
        <time>2020-08-19T18:56:56.000Z</time>
      </trkpt>
      <trkpt lat="48.6627" lon="7.19532">
        <ele>313.93</ele>
        <time>2020-08-19T18:56:57.000Z</time>
      </trkpt>
      <trkpt lat="48.66276" lon="7.19523">
        <ele>313.81</ele>
        <time>2020-08-19T18:56:58.000Z</time>
      </trkpt>
      <trkpt lat="48.66283" lon="7.19514">
        <ele>313.44</ele>
        <time>2020-08-19T18:56:59.000Z</time>
      </trkpt>
      <trkpt lat="48.6629" lon="7.19505">
        <ele>314.22</ele>
        <time>2020-08-19T18:57:00.000Z</time>
      </trkpt>
      <trkpt lat="48.66297" lon="7.19496">
        <ele>314.52</ele>
        <time>2020-08-19T18:57:01.000Z</time>
      </trkpt>
      <trkpt lat="48.66303" lon="7.19488">
        <ele>314.64</ele>
        <time>2020-08-19T18:57:02.000Z</time>
      </trkpt>
      <trkpt lat="48.66308" lon="7.19478">
        <ele>314.31</ele>
        <time>2020-08-19T18:57:03.000Z</time>
      </trkpt>
      <trkpt lat="48.66314" lon="7.1947">
        <ele>313.86</ele>
        <time>2020-08-19T18:57:04.000Z</time>
      </trkpt>
      <trkpt lat="48.66321" lon="7.19463">
        <ele>312.65</ele>
        <time>2020-08-19T18:57:05.000Z</time>
      </trkpt>
      <trkpt lat="48.6633" lon="7.19458">
        <ele>313.64</ele>
        <time>2020-08-19T18:57:06.000Z</time>
      </trkpt>
      <trkpt lat="48.66339" lon="7.19456">
        <ele>313.89</ele>
        <time>2020-08-19T18:57:07.000Z</time>
      </trkpt>
      <trkpt lat="48.66347" lon="7.19455">
        <ele>311.04</ele>
        <time>2020-08-19T18:57:08.000Z</time>
      </trkpt>
      <trkpt lat="48.66355" lon="7.19454">
        <ele>312.03</ele>
        <time>2020-08-19T18:57:09.000Z</time>
      </trkpt>
      <trkpt lat="48.66364" lon="7.19452">
        <ele>312.47</ele>
        <time>2020-08-19T18:57:10.000Z</time>
      </trkpt>
      <trkpt lat="48.66373" lon="7.19452">
        <ele>311.5</ele>
        <time>2020-08-19T18:57:11.000Z</time>
      </trkpt>
      <trkpt lat="48.66381" lon="7.19452">
        <ele>313</ele>
        <time>2020-08-19T18:57:12.000Z</time>
      </trkpt>
      <trkpt lat="48.6639" lon="7.1945">
        <ele>313.13</ele>
        <time>2020-08-19T18:57:13.000Z</time>
      </trkpt>
      <trkpt lat="48.66398" lon="7.19448">
        <ele>313.52</ele>
        <time>2020-08-19T18:57:14.000Z</time>
      </trkpt>
      <trkpt lat="48.66406" lon="7.19446">
        <ele>314.36</ele>
        <time>2020-08-19T18:57:15.000Z</time>
      </trkpt>
      <trkpt lat="48.66415" lon="7.19444">
        <ele>314.38</ele>
        <time>2020-08-19T18:57:16.000Z</time>
      </trkpt>
      <trkpt lat="48.66424" lon="7.19446">
        <ele>315.07</ele>
        <time>2020-08-19T18:57:17.000Z</time>
      </trkpt>
      <trkpt lat="48.66434" lon="7.19445">
        <ele>315.39</ele>
        <time>2020-08-19T18:57:18.000Z</time>
      </trkpt>
      <trkpt lat="48.66443" lon="7.19444">
        <ele>316.44</ele>
        <time>2020-08-19T18:57:19.000Z</time>
      </trkpt>
      <trkpt lat="48.66452" lon="7.19443">
        <ele>315.98</ele>
        <time>2020-08-19T18:57:20.000Z</time>
      </trkpt>
      <trkpt lat="48.66461" lon="7.19444">
        <ele>316.39</ele>
        <time>2020-08-19T18:57:21.000Z</time>
      </trkpt>
      <trkpt lat="48.6647" lon="7.19445">
        <ele>317.09</ele>
        <time>2020-08-19T18:57:22.000Z</time>
      </trkpt>
      <trkpt lat="48.66479" lon="7.19445">
        <ele>317.59</ele>
        <time>2020-08-19T18:57:23.000Z</time>
      </trkpt>
      <trkpt lat="48.66487" lon="7.19444">
        <ele>317.42</ele>
        <time>2020-08-19T18:57:24.000Z</time>
      </trkpt>
      <trkpt lat="48.66497" lon="7.19443">
        <ele>316.14</ele>
        <time>2020-08-19T18:57:25.000Z</time>
      </trkpt>
      <trkpt lat="48.66506" lon="7.19443">
        <ele>316.45</ele>
        <time>2020-08-19T18:57:26.000Z</time>
      </trkpt>
      <trkpt lat="48.66515" lon="7.19444">
        <ele>317.62</ele>
        <time>2020-08-19T18:57:27.000Z</time>
      </trkpt>
      <trkpt lat="48.66524" lon="7.19445">
        <ele>317.67</ele>
        <time>2020-08-19T18:57:28.000Z</time>
      </trkpt>
      <trkpt lat="48.66533" lon="7.19445">
        <ele>317.2</ele>
        <time>2020-08-19T18:57:29.000Z</time>
      </trkpt>
      <trkpt lat="48.66541" lon="7.19447">
        <ele>316.26</ele>
        <time>2020-08-19T18:57:30.000Z</time>
      </trkpt>
      <trkpt lat="48.6655" lon="7.19447">
        <ele>316.67</ele>
        <time>2020-08-19T18:57:31.000Z</time>
      </trkpt>
      <trkpt lat="48.66558" lon="7.19448">
        <ele>317.4</ele>
        <time>2020-08-19T18:57:32.000Z</time>
      </trkpt>
      <trkpt lat="48.66567" lon="7.19447">
        <ele>318.82</ele>
        <time>2020-08-19T18:57:33.000Z</time>
      </trkpt>
      <trkpt lat="48.66577" lon="7.19447">
        <ele>319.21</ele>
        <time>2020-08-19T18:57:34.000Z</time>
      </trkpt>
      <trkpt lat="48.66586" lon="7.19447">
        <ele>320.02</ele>
        <time>2020-08-19T18:57:35.000Z</time>
      </trkpt>
      <trkpt lat="48.66595" lon="7.19448">
        <ele>319.57</ele>
        <time>2020-08-19T18:57:36.000Z</time>
      </trkpt>
      <trkpt lat="48.66604" lon="7.1945">
        <ele>319.54</ele>
        <time>2020-08-19T18:57:37.000Z</time>
      </trkpt>
      <trkpt lat="48.66611" lon="7.19455">
        <ele>318.56</ele>
        <time>2020-08-19T18:57:38.000Z</time>
      </trkpt>
      <trkpt lat="48.66618" lon="7.19461">
        <ele>318.9</ele>
        <time>2020-08-19T18:57:39.000Z</time>
      </trkpt>
      <trkpt lat="48.66625" lon="7.19468">
        <ele>320.38</ele>
        <time>2020-08-19T18:57:40.000Z</time>
      </trkpt>
      <trkpt lat="48.66632" lon="7.19476">
        <ele>319.29</ele>
        <time>2020-08-19T18:57:41.000Z</time>
      </trkpt>
      <trkpt lat="48.66639" lon="7.19483">
        <ele>318.67</ele>
        <time>2020-08-19T18:57:42.000Z</time>
      </trkpt>
      <trkpt lat="48.66647" lon="7.19489">
        <ele>319.1</ele>
        <time>2020-08-19T18:57:43.000Z</time>
      </trkpt>
      <trkpt lat="48.66655" lon="7.19494">
        <ele>316.59</ele>
        <time>2020-08-19T18:57:44.000Z</time>
      </trkpt>
      <trkpt lat="48.66663" lon="7.19499">
        <ele>315.66</ele>
        <time>2020-08-19T18:57:45.000Z</time>
      </trkpt>
      <trkpt lat="48.6667" lon="7.19506">
        <ele>314.83</ele>
        <time>2020-08-19T18:57:46.000Z</time>
      </trkpt>
      <trkpt lat="48.66677" lon="7.19513">
        <ele>313.97</ele>
        <time>2020-08-19T18:57:47.000Z</time>
      </trkpt>
      <trkpt lat="48.66686" lon="7.19519">
        <ele>314.39</ele>
        <time>2020-08-19T18:57:48.000Z</time>
      </trkpt>
      <trkpt lat="48.66694" lon="7.19525">
        <ele>314.56</ele>
        <time>2020-08-19T18:57:49.000Z</time>
      </trkpt>
      <trkpt lat="48.66701" lon="7.19532">
        <ele>314.21</ele>
        <time>2020-08-19T18:57:50.000Z</time>
      </trkpt>
      <trkpt lat="48.66708" lon="7.19539">
        <ele>313.08</ele>
        <time>2020-08-19T18:57:51.000Z</time>
      </trkpt>
      <trkpt lat="48.66715" lon="7.19547">
        <ele>313.25</ele>
        <time>2020-08-19T18:57:52.000Z</time>
      </trkpt>
      <trkpt lat="48.66724" lon="7.19553">
        <ele>313.69</ele>
        <time>2020-08-19T18:57:53.000Z</time>
      </trkpt>
      <trkpt lat="48.66731" lon="7.1956">
        <ele>314.1</ele>
        <time>2020-08-19T18:57:54.000Z</time>
      </trkpt>
      <trkpt lat="48.66738" lon="7.19569">
        <ele>313.95</ele>
        <time>2020-08-19T18:57:55.000Z</time>
      </trkpt>
      <trkpt lat="48.66746" lon="7.19576">
        <ele>314.77</ele>
        <time>2020-08-19T18:57:56.000Z</time>
      </trkpt>
      <trkpt lat="48.66754" lon="7.19583">
        <ele>316.56</ele>
        <time>2020-08-19T18:57:57.000Z</time>
      </trkpt>
      <trkpt lat="48.66762" lon="7.19589">
        <ele>316.78</ele>
        <time>2020-08-19T18:57:58.000Z</time>
      </trkpt>
      <trkpt lat="48.66769" lon="7.19595">
        <ele>316.83</ele>
        <time>2020-08-19T18:57:59.000Z</time>
      </trkpt>
      <trkpt lat="48.66777" lon="7.19603">
        <ele>316.23</ele>
        <time>2020-08-19T18:58:00.000Z</time>
      </trkpt>
      <trkpt lat="48.66785" lon="7.19609">
        <ele>315.85</ele>
        <time>2020-08-19T18:58:01.000Z</time>
      </trkpt>
      <trkpt lat="48.66794" lon="7.19613">
        <ele>316.17</ele>
        <time>2020-08-19T18:58:02.000Z</time>
      </trkpt>
      <trkpt lat="48.66803" lon="7.19616">
        <ele>316.12</ele>
        <time>2020-08-19T18:58:03.000Z</time>
      </trkpt>
      <trkpt lat="48.66811" lon="7.19618">
        <ele>315.73</ele>
        <time>2020-08-19T18:58:04.000Z</time>
      </trkpt>
      <trkpt lat="48.66819" lon="7.19617">
        <ele>315.72</ele>
        <time>2020-08-19T18:58:05.000Z</time>
      </trkpt>
      <trkpt lat="48.66827" lon="7.19616">
        <ele>315.29</ele>
        <time>2020-08-19T18:58:06.000Z</time>
      </trkpt>
      <trkpt lat="48.66836" lon="7.19614">
        <ele>315.21</ele>
        <time>2020-08-19T18:58:07.000Z</time>
      </trkpt>
      <trkpt lat="48.66845" lon="7.19611">
        <ele>315.01</ele>
        <time>2020-08-19T18:58:08.000Z</time>
      </trkpt>
      <trkpt lat="48.66854" lon="7.19607">
        <ele>315.4</ele>
        <time>2020-08-19T18:58:09.000Z</time>
      </trkpt>
      <trkpt lat="48.66862" lon="7.19603">
        <ele>314.06</ele>
        <time>2020-08-19T18:58:10.000Z</time>
      </trkpt>
      <trkpt lat="48.6687" lon="7.19598">
        <ele>314.06</ele>
        <time>2020-08-19T18:58:11.000Z</time>
      </trkpt>
      <trkpt lat="48.66879" lon="7.19592">
        <ele>314.65</ele>
        <time>2020-08-19T18:58:12.000Z</time>
      </trkpt>
      <trkpt lat="48.66887" lon="7.19588">
        <ele>314.27</ele>
        <time>2020-08-19T18:58:13.000Z</time>
      </trkpt>
      <trkpt lat="48.66895" lon="7.19585">
        <ele>314.28</ele>
        <time>2020-08-19T18:58:14.000Z</time>
      </trkpt>
      <trkpt lat="48.66904" lon="7.1958">
        <ele>313.07</ele>
        <time>2020-08-19T18:58:15.000Z</time>
      </trkpt>
      <trkpt lat="48.66913" lon="7.19574">
        <ele>310.07</ele>
        <time>2020-08-19T18:58:16.000Z</time>
      </trkpt>
      <trkpt lat="48.6692" lon="7.19571">
        <ele>307.34</ele>
        <time>2020-08-19T18:58:17.000Z</time>
      </trkpt>
      <trkpt lat="48.66928" lon="7.19565">
        <ele>307.1</ele>
        <time>2020-08-19T18:58:18.000Z</time>
      </trkpt>
      <trkpt lat="48.66937" lon="7.1956">
        <ele>305.64</ele>
        <time>2020-08-19T18:58:19.000Z</time>
      </trkpt>
      <trkpt lat="48.66945" lon="7.19554">
        <ele>307.36</ele>
        <time>2020-08-19T18:58:20.000Z</time>
      </trkpt>
      <trkpt lat="48.66952" lon="7.19548">
        <ele>305.91</ele>
        <time>2020-08-19T18:58:21.000Z</time>
      </trkpt>
      <trkpt lat="48.66961" lon="7.19543">
        <ele>306.03</ele>
        <time>2020-08-19T18:58:22.000Z</time>
      </trkpt>
      <trkpt lat="48.66968" lon="7.19535">
        <ele>305.5</ele>
        <time>2020-08-19T18:58:23.000Z</time>
      </trkpt>
      <trkpt lat="48.66974" lon="7.19526">
        <ele>305.76</ele>
        <time>2020-08-19T18:58:24.000Z</time>
      </trkpt>
      <trkpt lat="48.66979" lon="7.19517">
        <ele>305.77</ele>
        <time>2020-08-19T18:58:25.000Z</time>
      </trkpt>
      <trkpt lat="48.66985" lon="7.19509">
        <ele>303.83</ele>
        <time>2020-08-19T18:58:26.000Z</time>
      </trkpt>
      <trkpt lat="48.66991" lon="7.19498">
        <ele>304.29</ele>
        <time>2020-08-19T18:58:27.000Z</time>
      </trkpt>
      <trkpt lat="48.66997" lon="7.19491">
        <ele>304.43</ele>
        <time>2020-08-19T18:58:28.000Z</time>
      </trkpt>
      <trkpt lat="48.67005" lon="7.19488">
        <ele>306.73</ele>
        <time>2020-08-19T18:58:29.000Z</time>
      </trkpt>
      <trkpt lat="48.67014" lon="7.19486">
        <ele>306.95</ele>
        <time>2020-08-19T18:58:30.000Z</time>
      </trkpt>
      <trkpt lat="48.67023" lon="7.19488">
        <ele>306.62</ele>
        <time>2020-08-19T18:58:31.000Z</time>
      </trkpt>
      <trkpt lat="48.67031" lon="7.1949">
        <ele>306.44</ele>
        <time>2020-08-19T18:58:32.000Z</time>
      </trkpt>
      <trkpt lat="48.67039" lon="7.19491">
        <ele>306.91</ele>
        <time>2020-08-19T18:58:33.000Z</time>
      </trkpt>
      <trkpt lat="48.67048" lon="7.19491">
        <ele>306.97</ele>
        <time>2020-08-19T18:58:34.000Z</time>
      </trkpt>
      <trkpt lat="48.67055" lon="7.19491">
        <ele>306.52</ele>
        <time>2020-08-19T18:58:35.000Z</time>
      </trkpt>
      <trkpt lat="48.67063" lon="7.19492">
        <ele>307.51</ele>
        <time>2020-08-19T18:58:36.000Z</time>
      </trkpt>
      <trkpt lat="48.6707" lon="7.19488">
        <ele>307.21</ele>
        <time>2020-08-19T18:58:37.000Z</time>
      </trkpt>
      <trkpt lat="48.67078" lon="7.19481">
        <ele>307.54</ele>
        <time>2020-08-19T18:58:38.000Z</time>
      </trkpt>
      <trkpt lat="48.67087" lon="7.19479">
        <ele>307.77</ele>
        <time>2020-08-19T18:58:39.000Z</time>
      </trkpt>
      <trkpt lat="48.67096" lon="7.19475">
        <ele>307.4</ele>
        <time>2020-08-19T18:58:40.000Z</time>
      </trkpt>
      <trkpt lat="48.67104" lon="7.19471">
        <ele>307.35</ele>
        <time>2020-08-19T18:58:41.000Z</time>
      </trkpt>
      <trkpt lat="48.67112" lon="7.19469">
        <ele>307.76</ele>
        <time>2020-08-19T18:58:42.000Z</time>
      </trkpt>
      <trkpt lat="48.67121" lon="7.19466">
        <ele>307.23</ele>
        <time>2020-08-19T18:58:43.000Z</time>
      </trkpt>
      <trkpt lat="48.6713" lon="7.19465">
        <ele>308</ele>
        <time>2020-08-19T18:58:44.000Z</time>
      </trkpt>
      <trkpt lat="48.67139" lon="7.19464">
        <ele>308.12</ele>
        <time>2020-08-19T18:58:45.000Z</time>
      </trkpt>
      <trkpt lat="48.67147" lon="7.19468">
        <ele>308.52</ele>
        <time>2020-08-19T18:58:46.000Z</time>
      </trkpt>
      <trkpt lat="48.67155" lon="7.1947">
        <ele>308.4</ele>
        <time>2020-08-19T18:58:47.000Z</time>
      </trkpt>
      <trkpt lat="48.67165" lon="7.19473">
        <ele>308.59</ele>
        <time>2020-08-19T18:58:48.000Z</time>
      </trkpt>
      <trkpt lat="48.67172" lon="7.19476">
        <ele>305.27</ele>
        <time>2020-08-19T18:58:49.000Z</time>
      </trkpt>
      <trkpt lat="48.67182" lon="7.19477">
        <ele>305.65</ele>
        <time>2020-08-19T18:58:50.000Z</time>
      </trkpt>
      <trkpt lat="48.6719" lon="7.19478">
        <ele>303.72</ele>
        <time>2020-08-19T18:58:51.000Z</time>
      </trkpt>
      <trkpt lat="48.67198" lon="7.19481">
        <ele>303.64</ele>
        <time>2020-08-19T18:58:52.000Z</time>
      </trkpt>
      <trkpt lat="48.67208" lon="7.19482">
        <ele>303.64</ele>
        <time>2020-08-19T18:58:53.000Z</time>
      </trkpt>
      <trkpt lat="48.67216" lon="7.19484">
        <ele>302.7</ele>
        <time>2020-08-19T18:58:54.000Z</time>
      </trkpt>
      <trkpt lat="48.67224" lon="7.19487">
        <ele>304.27</ele>
        <time>2020-08-19T18:58:55.000Z</time>
      </trkpt>
      <trkpt lat="48.67234" lon="7.19489">
        <ele>304.09</ele>
        <time>2020-08-19T18:58:56.000Z</time>
      </trkpt>
      <trkpt lat="48.67243" lon="7.19489">
        <ele>304.23</ele>
        <time>2020-08-19T18:58:57.000Z</time>
      </trkpt>
      <trkpt lat="48.67253" lon="7.19486">
        <ele>306</ele>
        <time>2020-08-19T18:58:58.000Z</time>
      </trkpt>
      <trkpt lat="48.67263" lon="7.19484">
        <ele>306.2</ele>
        <time>2020-08-19T18:58:59.000Z</time>
      </trkpt>
      <trkpt lat="48.67272" lon="7.19484">
        <ele>306.91</ele>
        <time>2020-08-19T18:59:00.000Z</time>
      </trkpt>
      <trkpt lat="48.67281" lon="7.19486">
        <ele>307</ele>
        <time>2020-08-19T18:59:01.000Z</time>
      </trkpt>
      <trkpt lat="48.6729" lon="7.19486">
        <ele>305.6</ele>
        <time>2020-08-19T18:59:02.000Z</time>
      </trkpt>
      <trkpt lat="48.67299" lon="7.19486">
        <ele>305.94</ele>
        <time>2020-08-19T18:59:03.000Z</time>
      </trkpt>
      <trkpt lat="48.67309" lon="7.19483">
        <ele>306.86</ele>
        <time>2020-08-19T18:59:04.000Z</time>
      </trkpt>
      <trkpt lat="48.67317" lon="7.19483">
        <ele>306.43</ele>
        <time>2020-08-19T18:59:05.000Z</time>
      </trkpt>
      <trkpt lat="48.67326" lon="7.19483">
        <ele>306.67</ele>
        <time>2020-08-19T18:59:06.000Z</time>
      </trkpt>
      <trkpt lat="48.67334" lon="7.19482">
        <ele>307.74</ele>
        <time>2020-08-19T18:59:07.000Z</time>
      </trkpt>
      <trkpt lat="48.67343" lon="7.1948">
        <ele>307.72</ele>
        <time>2020-08-19T18:59:08.000Z</time>
      </trkpt>
      <trkpt lat="48.67351" lon="7.19482">
        <ele>307.07</ele>
        <time>2020-08-19T18:59:09.000Z</time>
      </trkpt>
      <trkpt lat="48.6736" lon="7.1948">
        <ele>305.49</ele>
        <time>2020-08-19T18:59:10.000Z</time>
      </trkpt>
      <trkpt lat="48.67369" lon="7.1948">
        <ele>305.54</ele>
        <time>2020-08-19T18:59:11.000Z</time>
      </trkpt>
      <trkpt lat="48.67377" lon="7.1948">
        <ele>307.01</ele>
        <time>2020-08-19T18:59:12.000Z</time>
      </trkpt>
      <trkpt lat="48.67386" lon="7.1948">
        <ele>307.82</ele>
        <time>2020-08-19T18:59:13.000Z</time>
      </trkpt>
      <trkpt lat="48.67394" lon="7.19477">
        <ele>306.02</ele>
        <time>2020-08-19T18:59:14.000Z</time>
      </trkpt>
      <trkpt lat="48.67404" lon="7.19477">
        <ele>305.9</ele>
        <time>2020-08-19T18:59:15.000Z</time>
      </trkpt>
      <trkpt lat="48.67413" lon="7.19479">
        <ele>306.47</ele>
        <time>2020-08-19T18:59:16.000Z</time>
      </trkpt>
      <trkpt lat="48.67421" lon="7.19482">
        <ele>305.48</ele>
        <time>2020-08-19T18:59:17.000Z</time>
      </trkpt>
      <trkpt lat="48.67429" lon="7.19488">
        <ele>306.17</ele>
        <time>2020-08-19T18:59:18.000Z</time>
      </trkpt>
      <trkpt lat="48.67437" lon="7.19494">
        <ele>305.44</ele>
        <time>2020-08-19T18:59:19.000Z</time>
      </trkpt>
      <trkpt lat="48.67444" lon="7.19504">
        <ele>304.26</ele>
        <time>2020-08-19T18:59:20.000Z</time>
      </trkpt>
      <trkpt lat="48.67449" lon="7.19513">
        <ele>304.02</ele>
        <time>2020-08-19T18:59:21.000Z</time>
      </trkpt>
      <trkpt lat="48.67456" lon="7.19523">
        <ele>304.26</ele>
        <time>2020-08-19T18:59:22.000Z</time>
      </trkpt>
      <trkpt lat="48.67463" lon="7.1953">
        <ele>303.91</ele>
        <time>2020-08-19T18:59:23.000Z</time>
      </trkpt>
      <trkpt lat="48.6747" lon="7.19539">
        <ele>303.38</ele>
        <time>2020-08-19T18:59:24.000Z</time>
      </trkpt>
      <trkpt lat="48.67478" lon="7.19546">
        <ele>303.97</ele>
        <time>2020-08-19T18:59:25.000Z</time>
      </trkpt>
      <trkpt lat="48.67485" lon="7.19551">
        <ele>303.72</ele>
        <time>2020-08-19T18:59:26.000Z</time>
      </trkpt>
      <trkpt lat="48.67493" lon="7.19558">
        <ele>303.44</ele>
        <time>2020-08-19T18:59:27.000Z</time>
      </trkpt>
      <trkpt lat="48.67501" lon="7.19563">
        <ele>303.52</ele>
        <time>2020-08-19T18:59:28.000Z</time>
      </trkpt>
      <trkpt lat="48.67507" lon="7.19569">
        <ele>303.09</ele>
        <time>2020-08-19T18:59:29.000Z</time>
      </trkpt>
      <trkpt lat="48.67514" lon="7.19574">
        <ele>303.13</ele>
        <time>2020-08-19T18:59:30.000Z</time>
      </trkpt>
      <trkpt lat="48.67544" lon="7.19601">
        <ele>305.58</ele>
        <time>2020-08-19T18:59:34.000Z</time>
      </trkpt>
      <trkpt lat="48.6755" lon="7.19607">
        <ele>304.88</ele>
        <time>2020-08-19T18:59:35.000Z</time>
      </trkpt>
      <trkpt lat="48.67558" lon="7.19615">
        <ele>305.43</ele>
        <time>2020-08-19T18:59:36.000Z</time>
      </trkpt>
      <trkpt lat="48.67565" lon="7.19623">
        <ele>304.99</ele>
        <time>2020-08-19T18:59:37.000Z</time>
      </trkpt>
      <trkpt lat="48.67571" lon="7.19631">
        <ele>305</ele>
        <time>2020-08-19T18:59:38.000Z</time>
      </trkpt>
      <trkpt lat="48.67578" lon="7.19639">
        <ele>305.57</ele>
        <time>2020-08-19T18:59:39.000Z</time>
      </trkpt>
      <trkpt lat="48.67586" lon="7.19646">
        <ele>306.11</ele>
        <time>2020-08-19T18:59:40.000Z</time>
      </trkpt>
      <trkpt lat="48.67594" lon="7.19651">
        <ele>306</ele>
        <time>2020-08-19T18:59:41.000Z</time>
      </trkpt>
      <trkpt lat="48.67602" lon="7.19655">
        <ele>305.23</ele>
        <time>2020-08-19T18:59:42.000Z</time>
      </trkpt>
      <trkpt lat="48.67607" lon="7.19665">
        <ele>306.56</ele>
        <time>2020-08-19T18:59:43.000Z</time>
      </trkpt>
      <trkpt lat="48.67618" lon="7.19667">
        <ele>306.36</ele>
        <time>2020-08-19T18:59:44.000Z</time>
      </trkpt>
      <trkpt lat="48.67626" lon="7.19671">
        <ele>306.07</ele>
        <time>2020-08-19T18:59:45.000Z</time>
      </trkpt>
      <trkpt lat="48.67634" lon="7.19675">
        <ele>307.34</ele>
        <time>2020-08-19T18:59:46.000Z</time>
      </trkpt>
      <trkpt lat="48.67644" lon="7.19678">
        <ele>306.98</ele>
        <time>2020-08-19T18:59:47.000Z</time>
      </trkpt>
      <trkpt lat="48.67653" lon="7.19677">
        <ele>306.71</ele>
        <time>2020-08-19T18:59:48.000Z</time>
      </trkpt>
      <trkpt lat="48.67661" lon="7.19674">
        <ele>306.61</ele>
        <time>2020-08-19T18:59:49.000Z</time>
      </trkpt>
      <trkpt lat="48.67669" lon="7.19672">
        <ele>306.32</ele>
        <time>2020-08-19T18:59:50.000Z</time>
      </trkpt>
      <trkpt lat="48.67677" lon="7.19666">
        <ele>306.73</ele>
        <time>2020-08-19T18:59:51.000Z</time>
      </trkpt>
      <trkpt lat="48.67685" lon="7.19664">
        <ele>307.07</ele>
        <time>2020-08-19T18:59:52.000Z</time>
      </trkpt>
      <trkpt lat="48.67694" lon="7.19662">
        <ele>307.47</ele>
        <time>2020-08-19T18:59:53.000Z</time>
      </trkpt>
      <trkpt lat="48.67701" lon="7.19661">
        <ele>308.1</ele>
        <time>2020-08-19T18:59:54.000Z</time>
      </trkpt>
      <trkpt lat="48.6771" lon="7.1966">
        <ele>308.48</ele>
        <time>2020-08-19T18:59:55.000Z</time>
      </trkpt>
      <trkpt lat="48.67718" lon="7.19658">
        <ele>309.49</ele>
        <time>2020-08-19T18:59:56.000Z</time>
      </trkpt>
      <trkpt lat="48.67727" lon="7.19655">
        <ele>310.4</ele>
        <time>2020-08-19T18:59:57.000Z</time>
      </trkpt>
      <trkpt lat="48.67734" lon="7.19654">
        <ele>310.71</ele>
        <time>2020-08-19T18:59:58.000Z</time>
      </trkpt>
      <trkpt lat="48.67743" lon="7.19655">
        <ele>309.18</ele>
        <time>2020-08-19T18:59:59.000Z</time>
      </trkpt>
      <trkpt lat="48.6775" lon="7.19656">
        <ele>305.99</ele>
        <time>2020-08-19T19:00:00.000Z</time>
      </trkpt>
      <trkpt lat="48.67758" lon="7.19652">
        <ele>305.76</ele>
        <time>2020-08-19T19:00:01.000Z</time>
      </trkpt>
      <trkpt lat="48.67766" lon="7.19647">
        <ele>305.34</ele>
        <time>2020-08-19T19:00:02.000Z</time>
      </trkpt>
      <trkpt lat="48.67775" lon="7.19642">
        <ele>305.67</ele>
        <time>2020-08-19T19:00:03.000Z</time>
      </trkpt>
      <trkpt lat="48.67782" lon="7.19636">
        <ele>305.43</ele>
        <time>2020-08-19T19:00:04.000Z</time>
      </trkpt>
      <trkpt lat="48.67791" lon="7.1963">
        <ele>305.26</ele>
        <time>2020-08-19T19:00:05.000Z</time>
      </trkpt>
      <trkpt lat="48.67798" lon="7.19623">
        <ele>305.58</ele>
        <time>2020-08-19T19:00:06.000Z</time>
      </trkpt>
      <trkpt lat="48.67806" lon="7.19618">
        <ele>305.75</ele>
        <time>2020-08-19T19:00:07.000Z</time>
      </trkpt>
      <trkpt lat="48.67813" lon="7.19612">
        <ele>305.79</ele>
        <time>2020-08-19T19:00:08.000Z</time>
      </trkpt>
      <trkpt lat="48.6782" lon="7.19608">
        <ele>305.79</ele>
        <time>2020-08-19T19:00:09.000Z</time>
      </trkpt>
      <trkpt lat="48.67827" lon="7.19604">
        <ele>306.53</ele>
        <time>2020-08-19T19:00:10.000Z</time>
      </trkpt>
      <trkpt lat="48.67834" lon="7.19599">
        <ele>306.76</ele>
        <time>2020-08-19T19:00:11.000Z</time>
      </trkpt>
      <trkpt lat="48.67842" lon="7.19596">
        <ele>306.54</ele>
        <time>2020-08-19T19:00:12.000Z</time>
      </trkpt>
      <trkpt lat="48.67849" lon="7.19592">
        <ele>306.91</ele>
        <time>2020-08-19T19:00:13.000Z</time>
      </trkpt>
      <trkpt lat="48.67856" lon="7.19589">
        <ele>306.8</ele>
        <time>2020-08-19T19:00:14.000Z</time>
      </trkpt>
      <trkpt lat="48.67864" lon="7.19587">
        <ele>306.86</ele>
        <time>2020-08-19T19:00:15.000Z</time>
      </trkpt>
      <trkpt lat="48.67872" lon="7.19584">
        <ele>306.29</ele>
        <time>2020-08-19T19:00:16.000Z</time>
      </trkpt>
      <trkpt lat="48.6788" lon="7.19582">
        <ele>305.78</ele>
        <time>2020-08-19T19:00:17.000Z</time>
      </trkpt>
      <trkpt lat="48.67889" lon="7.1958">
        <ele>305.97</ele>
        <time>2020-08-19T19:00:18.000Z</time>
      </trkpt>
      <trkpt lat="48.67897" lon="7.19578">
        <ele>305.61</ele>
        <time>2020-08-19T19:00:19.000Z</time>
      </trkpt>
      <trkpt lat="48.67907" lon="7.19576">
        <ele>305.14</ele>
        <time>2020-08-19T19:00:20.000Z</time>
      </trkpt>
      <trkpt lat="48.67916" lon="7.19575">
        <ele>304.51</ele>
        <time>2020-08-19T19:00:21.000Z</time>
      </trkpt>
      <trkpt lat="48.67925" lon="7.19576">
        <ele>304.32</ele>
        <time>2020-08-19T19:00:22.000Z</time>
      </trkpt>
      <trkpt lat="48.67934" lon="7.19577">
        <ele>304.86</ele>
        <time>2020-08-19T19:00:23.000Z</time>
      </trkpt>
      <trkpt lat="48.67943" lon="7.19579">
        <ele>303.83</ele>
        <time>2020-08-19T19:00:24.000Z</time>
      </trkpt>
      <trkpt lat="48.67951" lon="7.19581">
        <ele>304.04</ele>
        <time>2020-08-19T19:00:25.000Z</time>
      </trkpt>
      <trkpt lat="48.67961" lon="7.19582">
        <ele>303.97</ele>
        <time>2020-08-19T19:00:26.000Z</time>
      </trkpt>
      <trkpt lat="48.6797" lon="7.19585">
        <ele>304.74</ele>
        <time>2020-08-19T19:00:27.000Z</time>
      </trkpt>
      <trkpt lat="48.67979" lon="7.19588">
        <ele>304.52</ele>
        <time>2020-08-19T19:00:28.000Z</time>
      </trkpt>
      <trkpt lat="48.67988" lon="7.1959">
        <ele>305.62</ele>
        <time>2020-08-19T19:00:29.000Z</time>
      </trkpt>
      <trkpt lat="48.67997" lon="7.19593">
        <ele>304.81</ele>
        <time>2020-08-19T19:00:30.000Z</time>
      </trkpt>
      <trkpt lat="48.68006" lon="7.19594">
        <ele>305.21</ele>
        <time>2020-08-19T19:00:31.000Z</time>
      </trkpt>
      <trkpt lat="48.68015" lon="7.19596">
        <ele>304.56</ele>
        <time>2020-08-19T19:00:32.000Z</time>
      </trkpt>
      <trkpt lat="48.68024" lon="7.19599">
        <ele>305.23</ele>
        <time>2020-08-19T19:00:33.000Z</time>
      </trkpt>
      <trkpt lat="48.68032" lon="7.19602">
        <ele>304.6</ele>
        <time>2020-08-19T19:00:34.000Z</time>
      </trkpt>
      <trkpt lat="48.68041" lon="7.19603">
        <ele>305.84</ele>
        <time>2020-08-19T19:00:35.000Z</time>
      </trkpt>
      <trkpt lat="48.68051" lon="7.19604">
        <ele>304.27</ele>
        <time>2020-08-19T19:00:36.000Z</time>
      </trkpt>
      <trkpt lat="48.6806" lon="7.19607">
        <ele>304.51</ele>
        <time>2020-08-19T19:00:37.000Z</time>
      </trkpt>
      <trkpt lat="48.6807" lon="7.19609">
        <ele>304.14</ele>
        <time>2020-08-19T19:00:38.000Z</time>
      </trkpt>
      <trkpt lat="48.6808" lon="7.19611">
        <ele>303.47</ele>
        <time>2020-08-19T19:00:39.000Z</time>
      </trkpt>
      <trkpt lat="48.68089" lon="7.19614">
        <ele>302.82</ele>
        <time>2020-08-19T19:00:40.000Z</time>
      </trkpt>
      <trkpt lat="48.68097" lon="7.19616">
        <ele>302.5</ele>
        <time>2020-08-19T19:00:41.000Z</time>
      </trkpt>
      <trkpt lat="48.68105" lon="7.19619">
        <ele>302.41</ele>
        <time>2020-08-19T19:00:42.000Z</time>
      </trkpt>
      <trkpt lat="48.68112" lon="7.19622">
        <ele>301.68</ele>
        <time>2020-08-19T19:00:43.000Z</time>
      </trkpt>
      <trkpt lat="48.6812" lon="7.19625">
        <ele>300.16</ele>
        <time>2020-08-19T19:00:44.000Z</time>
      </trkpt>
      <trkpt lat="48.68128" lon="7.19628">
        <ele>299.39</ele>
        <time>2020-08-19T19:00:45.000Z</time>
      </trkpt>
      <trkpt lat="48.68136" lon="7.19633">
        <ele>298.56</ele>
        <time>2020-08-19T19:00:46.000Z</time>
      </trkpt>
      <trkpt lat="48.68143" lon="7.19638">
        <ele>297.23</ele>
        <time>2020-08-19T19:00:47.000Z</time>
      </trkpt>
      <trkpt lat="48.68151" lon="7.19644">
        <ele>296.64</ele>
        <time>2020-08-19T19:00:48.000Z</time>
      </trkpt>
      <trkpt lat="48.68158" lon="7.19651">
        <ele>294.91</ele>
        <time>2020-08-19T19:00:49.000Z</time>
      </trkpt>
      <trkpt lat="48.68165" lon="7.19658">
        <ele>294.11</ele>
        <time>2020-08-19T19:00:50.000Z</time>
      </trkpt>
      <trkpt lat="48.68171" lon="7.19666">
        <ele>293.34</ele>
        <time>2020-08-19T19:00:51.000Z</time>
      </trkpt>
      <trkpt lat="48.68175" lon="7.19675">
        <ele>292.9</ele>
        <time>2020-08-19T19:00:52.000Z</time>
      </trkpt>
      <trkpt lat="48.68178" lon="7.19685">
        <ele>293.08</ele>
        <time>2020-08-19T19:00:53.000Z</time>
      </trkpt>
      <trkpt lat="48.68181" lon="7.19694">
        <ele>292.37</ele>
        <time>2020-08-19T19:00:54.000Z</time>
      </trkpt>
      <trkpt lat="48.68183" lon="7.19701">
        <ele>292.58</ele>
        <time>2020-08-19T19:00:55.000Z</time>
      </trkpt>
      <trkpt lat="48.68184" lon="7.19708">
        <ele>294.59</ele>
        <time>2020-08-19T19:01:02.000Z</time>
      </trkpt>
      <trkpt lat="48.68188" lon="7.19712">
        <ele>396.8</ele>
        <time>2020-08-19T19:03:40.000Z</time>
      </trkpt>
      <trkpt lat="48.68183" lon="7.19713">
        <ele>287.31</ele>
        <time>2020-08-19T19:04:20.000Z</time>
      </trkpt>
    </trkseg>
  </trk>
  <trk>
    <name><![CDATA[secteur Saverne - Dabo - Petite Pierre_15]]></name>
    <trkseg>
      <trkpt lat="48.65737" lon="7.20091">
        <ele>332.65</ele>
        <time>2020-08-19T13:16:45.000Z</time>
      </trkpt>
      <trkpt lat="48.65737" lon="7.20091">
        <ele>332.65</ele>
        <time>2020-08-19T13:16:45.000Z</time>
      </trkpt>
      <trkpt lat="48.65737" lon="7.20091">
        <ele>332.65</ele>
        <time>2020-08-19T13:16:45.000Z</time>
      </trkpt>
      <trkpt lat="48.65737" lon="7.20091">
        <ele>332.65</ele>
        <time>2020-08-19T13:16:45.000Z</time>
      </trkpt>
      <trkpt lat="48.65737" lon="7.20091">
        <ele>332.65</ele>
        <time>2020-08-19T13:16:45.000Z</time>
      </trkpt>
      <trkpt lat="48.65737" lon="7.20091">
        <ele>332.65</ele>
        <time>2020-08-19T13:16:45.000Z</time>
      </trkpt>
      <trkpt lat="48.65737" lon="7.20091">
        <ele>332.65</ele>
        <time>2020-08-19T13:16:45.000Z</time>
      </trkpt>
      <trkpt lat="48.65737" lon="7.20091">
        <ele>332.65</ele>
        <time>2020-08-19T13:16:45.000Z</time>
      </trkpt>
      <trkpt lat="48.65729" lon="7.20087">
        <ele>332.84</ele>
        <time>2020-08-19T13:16:47.000Z</time>
      </trkpt>
      <trkpt lat="48.65721" lon="7.20081">
        <ele>330.68</ele>
        <time>2020-08-19T13:16:49.000Z</time>
      </trkpt>
      <trkpt lat="48.65717" lon="7.20078">
        <ele>329.89</ele>
        <time>2020-08-19T13:16:50.000Z</time>
      </trkpt>
      <trkpt lat="48.65712" lon="7.20074">
        <ele>327.84</ele>
        <time>2020-08-19T13:16:51.000Z</time>
      </trkpt>
      <trkpt lat="48.65703" lon="7.20067">
        <ele>328.1</ele>
        <time>2020-08-19T13:16:53.000Z</time>
      </trkpt>
      <trkpt lat="48.65698" lon="7.20063">
        <ele>328.01</ele>
        <time>2020-08-19T13:16:54.000Z</time>
      </trkpt>
      <trkpt lat="48.65694" lon="7.20058">
        <ele>328.74</ele>
        <time>2020-08-19T13:16:55.000Z</time>
      </trkpt>
      <trkpt lat="48.65691" lon="7.20052">
        <ele>328.77</ele>
        <time>2020-08-19T13:16:56.000Z</time>
      </trkpt>
      <trkpt lat="48.65685" lon="7.20056">
        <ele>328.25</ele>
        <time>2020-08-19T13:16:57.000Z</time>
      </trkpt>
      <trkpt lat="48.6568" lon="7.2006">
        <ele>328.31</ele>
        <time>2020-08-19T13:16:59.000Z</time>
      </trkpt>
      <trkpt lat="48.65675" lon="7.20069">
        <ele>329.26</ele>
        <time>2020-08-19T13:17:01.000Z</time>
      </trkpt>
      <trkpt lat="48.65672" lon="7.20076">
        <ele>329.63</ele>
        <time>2020-08-19T13:17:03.000Z</time>
      </trkpt>
      <trkpt lat="48.65672" lon="7.20082">
        <ele>329.79</ele>
        <time>2020-08-19T13:17:04.000Z</time>
      </trkpt>
      <trkpt lat="48.65676" lon="7.2009">
        <ele>329.81</ele>
        <time>2020-08-19T13:17:06.000Z</time>
      </trkpt>
      <trkpt lat="48.65678" lon="7.201">
        <ele>330.5</ele>
        <time>2020-08-19T13:17:08.000Z</time>
      </trkpt>
      <trkpt lat="48.6568" lon="7.2011">
        <ele>330.88</ele>
        <time>2020-08-19T13:17:10.000Z</time>
      </trkpt>
      <trkpt lat="48.65683" lon="7.20117">
        <ele>332.6</ele>
        <time>2020-08-19T13:17:13.000Z</time>
      </trkpt>
      <trkpt lat="48.65684" lon="7.20124">
        <ele>333.54</ele>
        <time>2020-08-19T13:17:15.000Z</time>
      </trkpt>
      <trkpt lat="48.65685" lon="7.20132">
        <ele>332.87</ele>
        <time>2020-08-19T13:17:17.000Z</time>
      </trkpt>
      <trkpt lat="48.65685" lon="7.2014">
        <ele>333.51</ele>
        <time>2020-08-19T13:17:19.000Z</time>
      </trkpt>
      <trkpt lat="48.65684" lon="7.2015">
        <ele>336.42</ele>
        <time>2020-08-19T13:17:22.000Z</time>
      </trkpt>
      <trkpt lat="48.65686" lon="7.2016">
        <ele>336.39</ele>
        <time>2020-08-19T13:17:25.000Z</time>
      </trkpt>
      <trkpt lat="48.65685" lon="7.2017">
        <ele>337.11</ele>
        <time>2020-08-19T13:17:28.000Z</time>
      </trkpt>
      <trkpt lat="48.65686" lon="7.20177">
        <ele>337.58</ele>
        <time>2020-08-19T13:17:30.000Z</time>
      </trkpt>
      <trkpt lat="48.65685" lon="7.20186">
        <ele>339.5</ele>
        <time>2020-08-19T13:17:33.000Z</time>
      </trkpt>
      <trkpt lat="48.65684" lon="7.20194">
        <ele>338.36</ele>
        <time>2020-08-19T13:17:35.000Z</time>
      </trkpt>
      <trkpt lat="48.65682" lon="7.202">
        <ele>339.27</ele>
        <time>2020-08-19T13:17:37.000Z</time>
      </trkpt>
      <trkpt lat="48.65681" lon="7.2021">
        <ele>339.23</ele>
        <time>2020-08-19T13:17:39.000Z</time>
      </trkpt>
      <trkpt lat="48.65678" lon="7.20219">
        <ele>339.77</ele>
        <time>2020-08-19T13:17:41.000Z</time>
      </trkpt>
      <trkpt lat="48.65674" lon="7.20237">
        <ele>341.76</ele>
        <time>2020-08-19T13:17:44.000Z</time>
      </trkpt>
      <trkpt lat="48.65672" lon="7.20247">
        <ele>344.63</ele>
        <time>2020-08-19T13:17:47.000Z</time>
      </trkpt>
      <trkpt lat="48.65668" lon="7.20257">
        <ele>344.91</ele>
        <time>2020-08-19T13:17:49.000Z</time>
      </trkpt>
      <trkpt lat="48.65664" lon="7.20267">
        <ele>345.03</ele>
        <time>2020-08-19T13:17:51.000Z</time>
      </trkpt>
      <trkpt lat="48.65657" lon="7.20284">
        <ele>346.39</ele>
        <time>2020-08-19T13:17:54.000Z</time>
      </trkpt>
      <trkpt lat="48.65653" lon="7.20295">
        <ele>346.52</ele>
        <time>2020-08-19T13:17:56.000Z</time>
      </trkpt>
      <trkpt lat="48.6565" lon="7.20306">
        <ele>343.97</ele>
        <time>2020-08-19T13:17:58.000Z</time>
      </trkpt>
      <trkpt lat="48.6565" lon="7.20313">
        <ele>344.28</ele>
        <time>2020-08-19T13:18:01.000Z</time>
      </trkpt>
      <trkpt lat="48.65624" lon="7.20337">
        <ele>345.81</ele>
        <time>2020-08-19T13:18:29.000Z</time>
      </trkpt>
      <trkpt lat="48.65613" lon="7.20345">
        <ele>340.89</ele>
        <time>2020-08-19T13:18:33.000Z</time>
      </trkpt>
      <trkpt lat="48.656" lon="7.20352">
        <ele>339.98</ele>
        <time>2020-08-19T13:18:36.000Z</time>
      </trkpt>
      <trkpt lat="48.65601" lon="7.2036">
        <ele>341</ele>
        <time>2020-08-19T13:18:38.000Z</time>
      </trkpt>
      <trkpt lat="48.65596" lon="7.20361">
        <ele>340.91</ele>
        <time>2020-08-19T13:18:40.000Z</time>
      </trkpt>
      <trkpt lat="48.65593" lon="7.20369">
        <ele>339.08</ele>
        <time>2020-08-19T13:18:42.000Z</time>
      </trkpt>
      <trkpt lat="48.65585" lon="7.20369">
        <ele>334.23</ele>
        <time>2020-08-19T13:18:46.000Z</time>
      </trkpt>
      <trkpt lat="48.65582" lon="7.20364">
        <ele>334.81</ele>
        <time>2020-08-19T13:18:48.000Z</time>
      </trkpt>
      <trkpt lat="48.65576" lon="7.20358">
        <ele>333.19</ele>
        <time>2020-08-19T13:18:50.000Z</time>
      </trkpt>
      <trkpt lat="48.6557" lon="7.20358">
        <ele>335.48</ele>
        <time>2020-08-19T13:18:52.000Z</time>
      </trkpt>
      <trkpt lat="48.65566" lon="7.20363">
        <ele>339.51</ele>
        <time>2020-08-19T13:18:57.000Z</time>
      </trkpt>
      <trkpt lat="48.65562" lon="7.20368">
        <ele>337.99</ele>
        <time>2020-08-19T13:19:01.000Z</time>
      </trkpt>
      <trkpt lat="48.65558" lon="7.20371">
        <ele>340.04</ele>
        <time>2020-08-19T13:19:15.000Z</time>
      </trkpt>
      <trkpt lat="48.65553" lon="7.20373">
        <ele>341.61</ele>
        <time>2020-08-19T13:19:19.000Z</time>
      </trkpt>
      <trkpt lat="48.65548" lon="7.2037">
        <ele>340.49</ele>
        <time>2020-08-19T13:19:25.000Z</time>
      </trkpt>
      <trkpt lat="48.65545" lon="7.20364">
        <ele>339.77</ele>
        <time>2020-08-19T13:19:27.000Z</time>
      </trkpt>
      <trkpt lat="48.65539" lon="7.20341">
        <ele>339.01</ele>
        <time>2020-08-19T13:19:31.000Z</time>
      </trkpt>
      <trkpt lat="48.65544" lon="7.20317">
        <ele>340.02</ele>
        <time>2020-08-19T13:19:35.000Z</time>
      </trkpt>
      <trkpt lat="48.65543" lon="7.20306">
        <ele>336.71</ele>
        <time>2020-08-19T13:19:37.000Z</time>
      </trkpt>
      <trkpt lat="48.65542" lon="7.20296">
        <ele>336.84</ele>
        <time>2020-08-19T13:19:39.000Z</time>
      </trkpt>
      <trkpt lat="48.65539" lon="7.20287">
        <ele>337.05</ele>
        <time>2020-08-19T13:19:41.000Z</time>
      </trkpt>
      <trkpt lat="48.65573" lon="7.20238">
        <ele>338.23</ele>
        <time>2020-08-19T13:19:55.000Z</time>
      </trkpt>
      <trkpt lat="48.65574" lon="7.20231">
        <ele>338.41</ele>
        <time>2020-08-19T13:20:00.000Z</time>
      </trkpt>
      <trkpt lat="48.65574" lon="7.20224">
        <ele>340.36</ele>
        <time>2020-08-19T13:20:09.000Z</time>
      </trkpt>
      <trkpt lat="48.65572" lon="7.20217">
        <ele>340.22</ele>
        <time>2020-08-19T13:20:12.000Z</time>
      </trkpt>
      <trkpt lat="48.65571" lon="7.2021">
        <ele>341.92</ele>
        <time>2020-08-19T13:20:18.000Z</time>
      </trkpt>
      <trkpt lat="48.65568" lon="7.20204">
        <ele>346.03</ele>
        <time>2020-08-19T13:20:29.000Z</time>
      </trkpt>
      <trkpt lat="48.65571" lon="7.20198">
        <ele>350.5</ele>
        <time>2020-08-19T13:20:40.000Z</time>
      </trkpt>
      <trkpt lat="48.65573" lon="7.20192">
        <ele>351.4</ele>
        <time>2020-08-19T13:20:44.000Z</time>
      </trkpt>
      <trkpt lat="48.65573" lon="7.20185">
        <ele>352.32</ele>
        <time>2020-08-19T13:20:51.000Z</time>
      </trkpt>
      <trkpt lat="48.65575" lon="7.20177">
        <ele>352.72</ele>
        <time>2020-08-19T13:20:57.000Z</time>
      </trkpt>
      <trkpt lat="48.65575" lon="7.2017">
        <ele>353.2</ele>
        <time>2020-08-19T13:21:02.000Z</time>
      </trkpt>
      <trkpt lat="48.65575" lon="7.20162">
        <ele>355.55</ele>
        <time>2020-08-19T13:21:07.000Z</time>
      </trkpt>
      <trkpt lat="48.65574" lon="7.20155">
        <ele>352.5</ele>
        <time>2020-08-19T13:21:13.000Z</time>
      </trkpt>
      <trkpt lat="48.65572" lon="7.20149">
        <ele>352.45</ele>
        <time>2020-08-19T13:21:16.000Z</time>
      </trkpt>
      <trkpt lat="48.6557" lon="7.20142">
        <ele>350.02</ele>
        <time>2020-08-19T13:21:22.000Z</time>
      </trkpt>
      <trkpt lat="48.6556" lon="7.20121">
        <ele>356.34</ele>
        <time>2020-08-19T13:21:42.000Z</time>
      </trkpt>
      <trkpt lat="48.65556" lon="7.20115">
        <ele>354.57</ele>
        <time>2020-08-19T13:21:46.000Z</time>
      </trkpt>
      <trkpt lat="48.65553" lon="7.2011">
        <ele>353.97</ele>
        <time>2020-08-19T13:21:49.000Z</time>
      </trkpt>
      <trkpt lat="48.6555" lon="7.20102">
        <ele>356.23</ele>
        <time>2020-08-19T13:21:53.000Z</time>
      </trkpt>
      <trkpt lat="48.65547" lon="7.20096">
        <ele>358.81</ele>
        <time>2020-08-19T13:21:57.000Z</time>
      </trkpt>
      <trkpt lat="48.65544" lon="7.2009">
        <ele>358.16</ele>
        <time>2020-08-19T13:22:02.000Z</time>
      </trkpt>
      <trkpt lat="48.65541" lon="7.20084">
        <ele>360.36</ele>
        <time>2020-08-19T13:22:05.000Z</time>
      </trkpt>
      <trkpt lat="48.65538" lon="7.20079">
        <ele>359.85</ele>
        <time>2020-08-19T13:22:08.000Z</time>
      </trkpt>
      <trkpt lat="48.65529" lon="7.20074">
        <ele>358.69</ele>
        <time>2020-08-19T13:22:15.000Z</time>
      </trkpt>
      <trkpt lat="48.65525" lon="7.20071">
        <ele>376.56</ele>
        <time>2020-08-19T13:22:19.000Z</time>
      </trkpt>
      <trkpt lat="48.65523" lon="7.20064">
        <ele>418.44</ele>
        <time>2020-08-19T13:22:38.000Z</time>
      </trkpt>
      <trkpt lat="48.6552" lon="7.20059">
        <ele>416.64</ele>
        <time>2020-08-19T13:22:45.000Z</time>
      </trkpt>
      <trkpt lat="48.65515" lon="7.20055">
        <ele>378.49</ele>
        <time>2020-08-19T13:22:49.000Z</time>
      </trkpt>
      <trkpt lat="48.65512" lon="7.20049">
        <ele>365.76</ele>
        <time>2020-08-19T13:22:53.000Z</time>
      </trkpt>
      <trkpt lat="48.6551" lon="7.20041">
        <ele>367.07</ele>
        <time>2020-08-19T13:22:57.000Z</time>
      </trkpt>
      <trkpt lat="48.6551" lon="7.20033">
        <ele>368.46</ele>
        <time>2020-08-19T13:23:02.000Z</time>
      </trkpt>
      <trkpt lat="48.65508" lon="7.20027">
        <ele>367.32</ele>
        <time>2020-08-19T13:23:05.000Z</time>
      </trkpt>
      <trkpt lat="48.65506" lon="7.2002">
        <ele>366.4</ele>
        <time>2020-08-19T13:23:12.000Z</time>
      </trkpt>
      <trkpt lat="48.65506" lon="7.20013">
        <ele>366.46</ele>
        <time>2020-08-19T13:23:28.000Z</time>
      </trkpt>
      <trkpt lat="48.65503" lon="7.20007">
        <ele>367.48</ele>
        <time>2020-08-19T13:23:34.000Z</time>
      </trkpt>
      <trkpt lat="48.65502" lon="7.2">
        <ele>367.63</ele>
        <time>2020-08-19T13:23:38.000Z</time>
      </trkpt>
      <trkpt lat="48.655" lon="7.19993">
        <ele>369.34</ele>
        <time>2020-08-19T13:23:43.000Z</time>
      </trkpt>
      <trkpt lat="48.65499" lon="7.19986">
        <ele>368.57</ele>
        <time>2020-08-19T13:23:47.000Z</time>
      </trkpt>
      <trkpt lat="48.65498" lon="7.1998">
        <ele>368.05</ele>
        <time>2020-08-19T13:23:50.000Z</time>
      </trkpt>
      <trkpt lat="48.65496" lon="7.19973">
        <ele>368.32</ele>
        <time>2020-08-19T13:23:54.000Z</time>
      </trkpt>
      <trkpt lat="48.65496" lon="7.19966">
        <ele>369.07</ele>
        <time>2020-08-19T13:23:58.000Z</time>
      </trkpt>
      <trkpt lat="48.65495" lon="7.19958">
        <ele>369.15</ele>
        <time>2020-08-19T13:24:02.000Z</time>
      </trkpt>
      <trkpt lat="48.65493" lon="7.19951">
        <ele>368.59</ele>
        <time>2020-08-19T13:24:06.000Z</time>
      </trkpt>
      <trkpt lat="48.65493" lon="7.19943">
        <ele>368.1</ele>
        <time>2020-08-19T13:24:10.000Z</time>
      </trkpt>
      <trkpt lat="48.65491" lon="7.19935">
        <ele>366.85</ele>
        <time>2020-08-19T13:24:14.000Z</time>
      </trkpt>
      <trkpt lat="48.6549" lon="7.19926">
        <ele>366.09</ele>
        <time>2020-08-19T13:24:18.000Z</time>
      </trkpt>
      <trkpt lat="48.6549" lon="7.19919">
        <ele>364.88</ele>
        <time>2020-08-19T13:24:22.000Z</time>
      </trkpt>
      <trkpt lat="48.65489" lon="7.19911">
        <ele>366.32</ele>
        <time>2020-08-19T13:24:26.000Z</time>
      </trkpt>
      <trkpt lat="48.65491" lon="7.19904">
        <ele>367.65</ele>
        <time>2020-08-19T13:24:30.000Z</time>
      </trkpt>
      <trkpt lat="48.65497" lon="7.19892">
        <ele>372.33</ele>
        <time>2020-08-19T13:24:37.000Z</time>
      </trkpt>
      <trkpt lat="48.65497" lon="7.19885">
        <ele>374.56</ele>
        <time>2020-08-19T13:24:41.000Z</time>
      </trkpt>
      <trkpt lat="48.65497" lon="7.19878">
        <ele>374.31</ele>
        <time>2020-08-19T13:24:45.000Z</time>
      </trkpt>
      <trkpt lat="48.65496" lon="7.1987">
        <ele>375.37</ele>
        <time>2020-08-19T13:24:49.000Z</time>
      </trkpt>
      <trkpt lat="48.65496" lon="7.19862">
        <ele>374.11</ele>
        <time>2020-08-19T13:24:55.000Z</time>
      </trkpt>
      <trkpt lat="48.65498" lon="7.19856">
        <ele>375.17</ele>
        <time>2020-08-19T13:24:59.000Z</time>
      </trkpt>
      <trkpt lat="48.655" lon="7.1985">
        <ele>374.75</ele>
        <time>2020-08-19T13:25:02.000Z</time>
      </trkpt>
      <trkpt lat="48.65504" lon="7.19846">
        <ele>375.11</ele>
        <time>2020-08-19T13:25:05.000Z</time>
      </trkpt>
      <trkpt lat="48.65508" lon="7.19842">
        <ele>374.85</ele>
        <time>2020-08-19T13:25:09.000Z</time>
      </trkpt>
      <trkpt lat="48.65514" lon="7.1984">
        <ele>374.27</ele>
        <time>2020-08-19T13:25:14.000Z</time>
      </trkpt>
      <trkpt lat="48.65519" lon="7.1984">
        <ele>372.82</ele>
        <time>2020-08-19T13:25:18.000Z</time>
      </trkpt>
      <trkpt lat="48.65524" lon="7.19841">
        <ele>373.18</ele>
        <time>2020-08-19T13:25:21.000Z</time>
      </trkpt>
      <trkpt lat="48.65529" lon="7.19843">
        <ele>371.64</ele>
        <time>2020-08-19T13:25:26.000Z</time>
      </trkpt>
      <trkpt lat="48.65535" lon="7.1984">
        <ele>371.81</ele>
        <time>2020-08-19T13:25:30.000Z</time>
      </trkpt>
      <trkpt lat="48.65539" lon="7.19836">
        <ele>378.46</ele>
        <time>2020-08-19T13:26:02.000Z</time>
      </trkpt>
      <trkpt lat="48.65544" lon="7.19834">
        <ele>379.32</ele>
        <time>2020-08-19T13:26:06.000Z</time>
      </trkpt>
      <trkpt lat="48.65548" lon="7.19829">
        <ele>378.08</ele>
        <time>2020-08-19T13:26:12.000Z</time>
      </trkpt>
      <trkpt lat="48.65552" lon="7.19825">
        <ele>377.57</ele>
        <time>2020-08-19T13:26:15.000Z</time>
      </trkpt>
      <trkpt lat="48.65556" lon="7.1982">
        <ele>379.56</ele>
        <time>2020-08-19T13:26:20.000Z</time>
      </trkpt>
      <trkpt lat="48.6556" lon="7.19816">
        <ele>380.19</ele>
        <time>2020-08-19T13:26:23.000Z</time>
      </trkpt>
      <trkpt lat="48.65564" lon="7.19812">
        <ele>379.75</ele>
        <time>2020-08-19T13:26:27.000Z</time>
      </trkpt>
      <trkpt lat="48.65569" lon="7.19808">
        <ele>379.65</ele>
        <time>2020-08-19T13:26:32.000Z</time>
      </trkpt>
      <trkpt lat="48.65573" lon="7.19805">
        <ele>378.51</ele>
        <time>2020-08-19T13:26:36.000Z</time>
      </trkpt>
      <trkpt lat="48.65579" lon="7.19804">
        <ele>379.01</ele>
        <time>2020-08-19T13:26:40.000Z</time>
      </trkpt>
      <trkpt lat="48.65585" lon="7.198">
        <ele>378.25</ele>
        <time>2020-08-19T13:26:44.000Z</time>
      </trkpt>
      <trkpt lat="48.65589" lon="7.19797">
        <ele>378.2</ele>
        <time>2020-08-19T13:26:48.000Z</time>
      </trkpt>
      <trkpt lat="48.65595" lon="7.19795">
        <ele>378.31</ele>
        <time>2020-08-19T13:26:53.000Z</time>
      </trkpt>
      <trkpt lat="48.656" lon="7.19791">
        <ele>378.98</ele>
        <time>2020-08-19T13:26:56.000Z</time>
      </trkpt>
      <trkpt lat="48.65605" lon="7.19793">
        <ele>379.52</ele>
        <time>2020-08-19T13:26:59.000Z</time>
      </trkpt>
      <trkpt lat="48.6561" lon="7.19795">
        <ele>378.83</ele>
        <time>2020-08-19T13:27:03.000Z</time>
      </trkpt>
      <trkpt lat="48.65616" lon="7.19796">
        <ele>379.24</ele>
        <time>2020-08-19T13:27:06.000Z</time>
      </trkpt>
      <trkpt lat="48.6562" lon="7.19797">
        <ele>381.74</ele>
        <time>2020-08-19T13:27:09.000Z</time>
      </trkpt>
      <trkpt lat="48.65623" lon="7.19802">
        <ele>382.11</ele>
        <time>2020-08-19T13:27:12.000Z</time>
      </trkpt>
      <trkpt lat="48.65628" lon="7.19805">
        <ele>381.17</ele>
        <time>2020-08-19T13:27:16.000Z</time>
      </trkpt>
      <trkpt lat="48.65633" lon="7.19809">
        <ele>383.39</ele>
        <time>2020-08-19T13:27:20.000Z</time>
      </trkpt>
      <trkpt lat="48.65638" lon="7.1981">
        <ele>381.06</ele>
        <time>2020-08-19T13:27:31.000Z</time>
      </trkpt>
      <trkpt lat="48.65643" lon="7.19811">
        <ele>381.45</ele>
        <time>2020-08-19T13:27:34.000Z</time>
      </trkpt>
      <trkpt lat="48.65648" lon="7.19814">
        <ele>380.81</ele>
        <time>2020-08-19T13:27:38.000Z</time>
      </trkpt>
      <trkpt lat="48.65653" lon="7.19813">
        <ele>381.83</ele>
        <time>2020-08-19T13:27:42.000Z</time>
      </trkpt>
      <trkpt lat="48.65657" lon="7.19817">
        <ele>382.12</ele>
        <time>2020-08-19T13:27:46.000Z</time>
      </trkpt>
      <trkpt lat="48.65661" lon="7.19816">
        <ele>379.39</ele>
        <time>2020-08-19T13:27:50.000Z</time>
      </trkpt>
      <trkpt lat="48.65667" lon="7.19817">
        <ele>380.39</ele>
        <time>2020-08-19T13:27:54.000Z</time>
      </trkpt>
      <trkpt lat="48.65672" lon="7.19817">
        <ele>382.57</ele>
        <time>2020-08-19T13:27:57.000Z</time>
      </trkpt>
      <trkpt lat="48.65677" lon="7.19813">
        <ele>382.68</ele>
        <time>2020-08-19T13:28:01.000Z</time>
      </trkpt>
      <trkpt lat="48.65681" lon="7.19807">
        <ele>381.19</ele>
        <time>2020-08-19T13:28:05.000Z</time>
      </trkpt>
      <trkpt lat="48.65683" lon="7.19799">
        <ele>383.78</ele>
        <time>2020-08-19T13:28:09.000Z</time>
      </trkpt>
      <trkpt lat="48.65685" lon="7.19792">
        <ele>381.71</ele>
        <time>2020-08-19T13:28:14.000Z</time>
      </trkpt>
      <trkpt lat="48.65687" lon="7.19783">
        <ele>381.01</ele>
        <time>2020-08-19T13:28:19.000Z</time>
      </trkpt>
      <trkpt lat="48.65689" lon="7.19776">
        <ele>382.67</ele>
        <time>2020-08-19T13:28:23.000Z</time>
      </trkpt>
      <trkpt lat="48.65691" lon="7.19769">
        <ele>383.62</ele>
        <time>2020-08-19T13:28:27.000Z</time>
      </trkpt>
      <trkpt lat="48.65693" lon="7.19761">
        <ele>385.16</ele>
        <time>2020-08-19T13:28:32.000Z</time>
      </trkpt>
      <trkpt lat="48.65693" lon="7.19753">
        <ele>384.53</ele>
        <time>2020-08-19T13:28:35.000Z</time>
      </trkpt>
      <trkpt lat="48.65695" lon="7.19746">
        <ele>386.45</ele>
        <time>2020-08-19T13:28:39.000Z</time>
      </trkpt>
      <trkpt lat="48.65695" lon="7.19739">
        <ele>381.89</ele>
        <time>2020-08-19T13:28:43.000Z</time>
      </trkpt>
      <trkpt lat="48.65698" lon="7.19732">
        <ele>380.75</ele>
        <time>2020-08-19T13:28:49.000Z</time>
      </trkpt>
      <trkpt lat="48.65699" lon="7.19717">
        <ele>385.54</ele>
        <time>2020-08-19T13:28:56.000Z</time>
      </trkpt>
      <trkpt lat="48.65699" lon="7.19708">
        <ele>385.18</ele>
        <time>2020-08-19T13:29:01.000Z</time>
      </trkpt>
      <trkpt lat="48.65702" lon="7.19701">
        <ele>386.56</ele>
        <time>2020-08-19T13:29:06.000Z</time>
      </trkpt>
      <trkpt lat="48.65704" lon="7.19695">
        <ele>388.82</ele>
        <time>2020-08-19T13:29:09.000Z</time>
      </trkpt>
      <trkpt lat="48.65708" lon="7.19689">
        <ele>388.81</ele>
        <time>2020-08-19T13:29:14.000Z</time>
      </trkpt>
      <trkpt lat="48.65709" lon="7.19681">
        <ele>387.07</ele>
        <time>2020-08-19T13:29:19.000Z</time>
      </trkpt>
      <trkpt lat="48.65712" lon="7.19673">
        <ele>387.26</ele>
        <time>2020-08-19T13:29:23.000Z</time>
      </trkpt>
      <trkpt lat="48.65714" lon="7.19667">
        <ele>387.07</ele>
        <time>2020-08-19T13:29:26.000Z</time>
      </trkpt>
      <trkpt lat="48.65717" lon="7.1966">
        <ele>386.27</ele>
        <time>2020-08-19T13:29:30.000Z</time>
      </trkpt>
      <trkpt lat="48.65721" lon="7.19656">
        <ele>388.73</ele>
        <time>2020-08-19T13:29:35.000Z</time>
      </trkpt>
      <trkpt lat="48.65724" lon="7.1965">
        <ele>392.5</ele>
        <time>2020-08-19T13:29:56.000Z</time>
      </trkpt>
      <trkpt lat="48.65728" lon="7.19644">
        <ele>391.79</ele>
        <time>2020-08-19T13:30:03.000Z</time>
      </trkpt>
      <trkpt lat="48.65734" lon="7.19644">
        <ele>395.42</ele>
        <time>2020-08-19T13:30:06.000Z</time>
      </trkpt>
      <trkpt lat="48.65739" lon="7.19643">
        <ele>399.45</ele>
        <time>2020-08-19T13:30:10.000Z</time>
      </trkpt>
      <trkpt lat="48.65744" lon="7.19637">
        <ele>399.61</ele>
        <time>2020-08-19T13:30:13.000Z</time>
      </trkpt>
      <trkpt lat="48.65748" lon="7.19631">
        <ele>396.38</ele>
        <time>2020-08-19T13:30:16.000Z</time>
      </trkpt>
      <trkpt lat="48.65751" lon="7.19626">
        <ele>396.01</ele>
        <time>2020-08-19T13:30:18.000Z</time>
      </trkpt>
      <trkpt lat="48.65756" lon="7.19619">
        <ele>396.59</ele>
        <time>2020-08-19T13:30:23.000Z</time>
      </trkpt>
      <trkpt lat="48.6576" lon="7.19615">
        <ele>398.98</ele>
        <time>2020-08-19T13:30:26.000Z</time>
      </trkpt>
      <trkpt lat="48.65764" lon="7.1961">
        <ele>399.97</ele>
        <time>2020-08-19T13:30:30.000Z</time>
      </trkpt>
      <trkpt lat="48.65767" lon="7.19604">
        <ele>401.1</ele>
        <time>2020-08-19T13:30:33.000Z</time>
      </trkpt>
      <trkpt lat="48.65769" lon="7.19598">
        <ele>396.37</ele>
        <time>2020-08-19T13:30:39.000Z</time>
      </trkpt>
      <trkpt lat="48.65774" lon="7.19593">
        <ele>397.33</ele>
        <time>2020-08-19T13:30:45.000Z</time>
      </trkpt>
      <trkpt lat="48.65778" lon="7.19591">
        <ele>400.17</ele>
        <time>2020-08-19T13:30:48.000Z</time>
      </trkpt>
      <trkpt lat="48.65781" lon="7.19585">
        <ele>401.29</ele>
        <time>2020-08-19T13:30:53.000Z</time>
      </trkpt>
      <trkpt lat="48.65783" lon="7.19578">
        <ele>400.7</ele>
        <time>2020-08-19T13:30:58.000Z</time>
      </trkpt>
      <trkpt lat="48.65784" lon="7.1957">
        <ele>399.61</ele>
        <time>2020-08-19T13:31:02.000Z</time>
      </trkpt>
      <trkpt lat="48.65787" lon="7.19565">
        <ele>399.69</ele>
        <time>2020-08-19T13:31:14.000Z</time>
      </trkpt>
      <trkpt lat="48.65789" lon="7.19558">
        <ele>401.37</ele>
        <time>2020-08-19T13:31:18.000Z</time>
      </trkpt>
      <trkpt lat="48.65787" lon="7.1955">
        <ele>402.26</ele>
        <time>2020-08-19T13:31:21.000Z</time>
      </trkpt>
      <trkpt lat="48.65778" lon="7.1953">
        <ele>404.48</ele>
        <time>2020-08-19T13:31:28.000Z</time>
      </trkpt>
      <trkpt lat="48.65765" lon="7.19502">
        <ele>403.78</ele>
        <time>2020-08-19T13:31:38.000Z</time>
      </trkpt>
      <trkpt lat="48.65763" lon="7.19496">
        <ele>407.59</ele>
        <time>2020-08-19T13:31:44.000Z</time>
      </trkpt>
      <trkpt lat="48.65758" lon="7.19493">
        <ele>407.44</ele>
        <time>2020-08-19T13:31:48.000Z</time>
      </trkpt>
      <trkpt lat="48.65754" lon="7.19489">
        <ele>405.3</ele>
        <time>2020-08-19T13:31:53.000Z</time>
      </trkpt>
      <trkpt lat="48.65751" lon="7.19484">
        <ele>403.37</ele>
        <time>2020-08-19T13:31:58.000Z</time>
      </trkpt>
      <trkpt lat="48.65748" lon="7.19478">
        <ele>404.27</ele>
        <time>2020-08-19T13:32:02.000Z</time>
      </trkpt>
      <trkpt lat="48.65745" lon="7.19472">
        <ele>405.14</ele>
        <time>2020-08-19T13:32:06.000Z</time>
      </trkpt>
      <trkpt lat="48.65743" lon="7.19465">
        <ele>406.18</ele>
        <time>2020-08-19T13:32:11.000Z</time>
      </trkpt>
      <trkpt lat="48.65738" lon="7.19462">
        <ele>407.96</ele>
        <time>2020-08-19T13:32:15.000Z</time>
      </trkpt>
      <trkpt lat="48.65735" lon="7.19455">
        <ele>411.34</ele>
        <time>2020-08-19T13:32:27.000Z</time>
      </trkpt>
      <trkpt lat="48.65732" lon="7.1945">
        <ele>403.34</ele>
        <time>2020-08-19T13:32:31.000Z</time>
      </trkpt>
      <trkpt lat="48.65728" lon="7.19444">
        <ele>407.03</ele>
        <time>2020-08-19T13:32:35.000Z</time>
      </trkpt>
      <trkpt lat="48.65723" lon="7.19442">
        <ele>409.19</ele>
        <time>2020-08-19T13:32:39.000Z</time>
      </trkpt>
      <trkpt lat="48.65718" lon="7.19437">
        <ele>409.39</ele>
        <time>2020-08-19T13:32:47.000Z</time>
      </trkpt>
      <trkpt lat="48.65714" lon="7.19432">
        <ele>409.59</ele>
        <time>2020-08-19T13:32:52.000Z</time>
      </trkpt>
      <trkpt lat="48.65709" lon="7.1943">
        <ele>410.53</ele>
        <time>2020-08-19T13:32:56.000Z</time>
      </trkpt>
      <trkpt lat="48.65704" lon="7.19426">
        <ele>411.29</ele>
        <time>2020-08-19T13:33:03.000Z</time>
      </trkpt>
      <trkpt lat="48.65699" lon="7.19422">
        <ele>413.56</ele>
        <time>2020-08-19T13:33:08.000Z</time>
      </trkpt>
      <trkpt lat="48.65695" lon="7.1942">
        <ele>413.39</ele>
        <time>2020-08-19T13:33:12.000Z</time>
      </trkpt>
      <trkpt lat="48.65686" lon="7.19411">
        <ele>416.82</ele>
        <time>2020-08-19T13:33:18.000Z</time>
      </trkpt>
      <trkpt lat="48.65681" lon="7.19406">
        <ele>421.47</ele>
        <time>2020-08-19T13:33:23.000Z</time>
      </trkpt>
      <trkpt lat="48.65678" lon="7.194">
        <ele>421.99</ele>
        <time>2020-08-19T13:33:26.000Z</time>
      </trkpt>
      <trkpt lat="48.65674" lon="7.19396">
        <ele>422.28</ele>
        <time>2020-08-19T13:33:29.000Z</time>
      </trkpt>
      <trkpt lat="48.65671" lon="7.19392">
        <ele>423.94</ele>
        <time>2020-08-19T13:33:32.000Z</time>
      </trkpt>
      <trkpt lat="48.65667" lon="7.19387">
        <ele>426.62</ele>
        <time>2020-08-19T13:33:37.000Z</time>
      </trkpt>
      <trkpt lat="48.65663" lon="7.19387">
        <ele>425.88</ele>
        <time>2020-08-19T13:33:42.000Z</time>
      </trkpt>
      <trkpt lat="48.65657" lon="7.19386">
        <ele>423.16</ele>
        <time>2020-08-19T13:33:47.000Z</time>
      </trkpt>
      <trkpt lat="48.65652" lon="7.19381">
        <ele>423.63</ele>
        <time>2020-08-19T13:33:51.000Z</time>
      </trkpt>
      <trkpt lat="48.65647" lon="7.19378">
        <ele>421.49</ele>
        <time>2020-08-19T13:33:56.000Z</time>
      </trkpt>
      <trkpt lat="48.65643" lon="7.19375">
        <ele>426.45</ele>
        <time>2020-08-19T13:33:59.000Z</time>
      </trkpt>
      <trkpt lat="48.65638" lon="7.19371">
        <ele>426.57</ele>
        <time>2020-08-19T13:34:04.000Z</time>
      </trkpt>
      <trkpt lat="48.65634" lon="7.19366">
        <ele>426.3</ele>
        <time>2020-08-19T13:34:09.000Z</time>
      </trkpt>
      <trkpt lat="48.65631" lon="7.1936">
        <ele>428.88</ele>
        <time>2020-08-19T13:34:14.000Z</time>
      </trkpt>
      <trkpt lat="48.65627" lon="7.19355">
        <ele>429.91</ele>
        <time>2020-08-19T13:34:23.000Z</time>
      </trkpt>
      <trkpt lat="48.65623" lon="7.19351">
        <ele>430.65</ele>
        <time>2020-08-19T13:34:26.000Z</time>
      </trkpt>
      <trkpt lat="48.65614" lon="7.19342">
        <ele>433.12</ele>
        <time>2020-08-19T13:34:35.000Z</time>
      </trkpt>
      <trkpt lat="48.65605" lon="7.19332">
        <ele>434.6</ele>
        <time>2020-08-19T13:34:42.000Z</time>
      </trkpt>
      <trkpt lat="48.65601" lon="7.19329">
        <ele>434.72</ele>
        <time>2020-08-19T13:34:47.000Z</time>
      </trkpt>
      <trkpt lat="48.65598" lon="7.19323">
        <ele>438</ele>
        <time>2020-08-19T13:34:51.000Z</time>
      </trkpt>
      <trkpt lat="48.65593" lon="7.19318">
        <ele>439.41</ele>
        <time>2020-08-19T13:34:56.000Z</time>
      </trkpt>
      <trkpt lat="48.65588" lon="7.19316">
        <ele>439.36</ele>
        <time>2020-08-19T13:34:59.000Z</time>
      </trkpt>
      <trkpt lat="48.65584" lon="7.19312">
        <ele>439.5</ele>
        <time>2020-08-19T13:35:03.000Z</time>
      </trkpt>
      <trkpt lat="48.6558" lon="7.19307">
        <ele>438.21</ele>
        <time>2020-08-19T13:35:07.000Z</time>
      </trkpt>
      <trkpt lat="48.65577" lon="7.19303">
        <ele>437.78</ele>
        <time>2020-08-19T13:35:12.000Z</time>
      </trkpt>
      <trkpt lat="48.65565" lon="7.19288">
        <ele>442.66</ele>
        <time>2020-08-19T13:35:25.000Z</time>
      </trkpt>
      <trkpt lat="48.65561" lon="7.19283">
        <ele>442.74</ele>
        <time>2020-08-19T13:35:29.000Z</time>
      </trkpt>
      <trkpt lat="48.65556" lon="7.1928">
        <ele>442.99</ele>
        <time>2020-08-19T13:35:37.000Z</time>
      </trkpt>
      <trkpt lat="48.65552" lon="7.19276">
        <ele>442.51</ele>
        <time>2020-08-19T13:35:41.000Z</time>
      </trkpt>
      <trkpt lat="48.6555" lon="7.1927">
        <ele>444.11</ele>
        <time>2020-08-19T13:35:45.000Z</time>
      </trkpt>
      <trkpt lat="48.65546" lon="7.19264">
        <ele>443.68</ele>
        <time>2020-08-19T13:35:49.000Z</time>
      </trkpt>
      <trkpt lat="48.65542" lon="7.19258">
        <ele>445.04</ele>
        <time>2020-08-19T13:35:54.000Z</time>
      </trkpt>
      <trkpt lat="48.65538" lon="7.19254">
        <ele>442.15</ele>
        <time>2020-08-19T13:35:59.000Z</time>
      </trkpt>
      <trkpt lat="48.65533" lon="7.19252">
        <ele>443.86</ele>
        <time>2020-08-19T13:36:04.000Z</time>
      </trkpt>
      <trkpt lat="48.65529" lon="7.19247">
        <ele>442.8</ele>
        <time>2020-08-19T13:36:09.000Z</time>
      </trkpt>
      <trkpt lat="48.65526" lon="7.19239">
        <ele>442.98</ele>
        <time>2020-08-19T13:36:13.000Z</time>
      </trkpt>
      <trkpt lat="48.65524" lon="7.19233">
        <ele>444.78</ele>
        <time>2020-08-19T13:36:18.000Z</time>
      </trkpt>
      <trkpt lat="48.65521" lon="7.19227">
        <ele>445.42</ele>
        <time>2020-08-19T13:36:23.000Z</time>
      </trkpt>
      <trkpt lat="48.65517" lon="7.19222">
        <ele>447.4</ele>
        <time>2020-08-19T13:36:28.000Z</time>
      </trkpt>
      <trkpt lat="48.65514" lon="7.19217">
        <ele>447.29</ele>
        <time>2020-08-19T13:36:33.000Z</time>
      </trkpt>
      <trkpt lat="48.65511" lon="7.1921">
        <ele>448.33</ele>
        <time>2020-08-19T13:36:39.000Z</time>
      </trkpt>
      <trkpt lat="48.65509" lon="7.19203">
        <ele>450.98</ele>
        <time>2020-08-19T13:36:46.000Z</time>
      </trkpt>
      <trkpt lat="48.65505" lon="7.19198">
        <ele>451.08</ele>
        <time>2020-08-19T13:36:53.000Z</time>
      </trkpt>
      <trkpt lat="48.65499" lon="7.19196">
        <ele>451.77</ele>
        <time>2020-08-19T13:36:58.000Z</time>
      </trkpt>
      <trkpt lat="48.65495" lon="7.19193">
        <ele>451.69</ele>
        <time>2020-08-19T13:37:02.000Z</time>
      </trkpt>
      <trkpt lat="48.65492" lon="7.19188">
        <ele>454.38</ele>
        <time>2020-08-19T13:37:06.000Z</time>
      </trkpt>
      <trkpt lat="48.65488" lon="7.19181">
        <ele>455.38</ele>
        <time>2020-08-19T13:37:10.000Z</time>
      </trkpt>
      <trkpt lat="48.65484" lon="7.19179">
        <ele>458.03</ele>
        <time>2020-08-19T13:37:15.000Z</time>
      </trkpt>
      <trkpt lat="48.65481" lon="7.19174">
        <ele>464.96</ele>
        <time>2020-08-19T13:38:32.000Z</time>
      </trkpt>
      <trkpt lat="48.65478" lon="7.19167">
        <ele>437.28</ele>
        <time>2020-08-19T13:38:50.000Z</time>
      </trkpt>
      <trkpt lat="48.65474" lon="7.1916">
        <ele>464.67</ele>
        <time>2020-08-19T13:38:57.000Z</time>
      </trkpt>
      <trkpt lat="48.65472" lon="7.19154">
        <ele>465.89</ele>
        <time>2020-08-19T13:39:01.000Z</time>
      </trkpt>
      <trkpt lat="48.6547" lon="7.19146">
        <ele>461.09</ele>
        <time>2020-08-19T13:39:10.000Z</time>
      </trkpt>
      <trkpt lat="48.65468" lon="7.1914">
        <ele>463.59</ele>
        <time>2020-08-19T13:39:14.000Z</time>
      </trkpt>
      <trkpt lat="48.65463" lon="7.19136">
        <ele>459.79</ele>
        <time>2020-08-19T13:39:20.000Z</time>
      </trkpt>
      <trkpt lat="48.6546" lon="7.19129">
        <ele>460.46</ele>
        <time>2020-08-19T13:39:24.000Z</time>
      </trkpt>
      <trkpt lat="48.65456" lon="7.19125">
        <ele>462.5</ele>
        <time>2020-08-19T13:39:29.000Z</time>
      </trkpt>
      <trkpt lat="48.65452" lon="7.19121">
        <ele>463.98</ele>
        <time>2020-08-19T13:39:39.000Z</time>
      </trkpt>
      <trkpt lat="48.65449" lon="7.19114">
        <ele>461.37</ele>
        <time>2020-08-19T13:39:44.000Z</time>
      </trkpt>
      <trkpt lat="48.65446" lon="7.19105">
        <ele>460.89</ele>
        <time>2020-08-19T13:39:50.000Z</time>
      </trkpt>
      <trkpt lat="48.65444" lon="7.19099">
        <ele>461.13</ele>
        <time>2020-08-19T13:39:56.000Z</time>
      </trkpt>
      <trkpt lat="48.65441" lon="7.19093">
        <ele>460.17</ele>
        <time>2020-08-19T13:40:01.000Z</time>
      </trkpt>
      <trkpt lat="48.65439" lon="7.19087">
        <ele>459.95</ele>
        <time>2020-08-19T13:40:05.000Z</time>
      </trkpt>
      <trkpt lat="48.65435" lon="7.19081">
        <ele>459.43</ele>
        <time>2020-08-19T13:40:09.000Z</time>
      </trkpt>
      <trkpt lat="48.6543" lon="7.19077">
        <ele>456.25</ele>
        <time>2020-08-19T13:40:13.000Z</time>
      </trkpt>
      <trkpt lat="48.65426" lon="7.19071">
        <ele>459.83</ele>
        <time>2020-08-19T13:40:17.000Z</time>
      </trkpt>
      <trkpt lat="48.65423" lon="7.19065">
        <ele>461.96</ele>
        <time>2020-08-19T13:40:21.000Z</time>
      </trkpt>
      <trkpt lat="48.65422" lon="7.19059">
        <ele>461.45</ele>
        <time>2020-08-19T13:40:25.000Z</time>
      </trkpt>
      <trkpt lat="48.6542" lon="7.19052">
        <ele>459.57</ele>
        <time>2020-08-19T13:40:30.000Z</time>
      </trkpt>
      <trkpt lat="48.65416" lon="7.19047">
        <ele>462.89</ele>
        <time>2020-08-19T13:40:36.000Z</time>
      </trkpt>
      <trkpt lat="48.65414" lon="7.19039">
        <ele>464.11</ele>
        <time>2020-08-19T13:40:46.000Z</time>
      </trkpt>
      <trkpt lat="48.65412" lon="7.19033">
        <ele>465.28</ele>
        <time>2020-08-19T13:40:50.000Z</time>
      </trkpt>
      <trkpt lat="48.65408" lon="7.19026">
        <ele>466.89</ele>
        <time>2020-08-19T13:40:56.000Z</time>
      </trkpt>
      <trkpt lat="48.65405" lon="7.19021">
        <ele>467.66</ele>
        <time>2020-08-19T13:41:01.000Z</time>
      </trkpt>
      <trkpt lat="48.654" lon="7.19016">
        <ele>468.85</ele>
        <time>2020-08-19T13:41:05.000Z</time>
      </trkpt>
      <trkpt lat="48.65397" lon="7.1901">
        <ele>470.19</ele>
        <time>2020-08-19T13:41:10.000Z</time>
      </trkpt>
      <trkpt lat="48.65393" lon="7.19005">
        <ele>468.34</ele>
        <time>2020-08-19T13:41:16.000Z</time>
      </trkpt>
      <trkpt lat="48.65389" lon="7.19">
        <ele>470.63</ele>
        <time>2020-08-19T13:41:19.000Z</time>
      </trkpt>
      <trkpt lat="48.65387" lon="7.18994">
        <ele>472.05</ele>
        <time>2020-08-19T13:41:24.000Z</time>
      </trkpt>
      <trkpt lat="48.65385" lon="7.18987">
        <ele>472.91</ele>
        <time>2020-08-19T13:41:30.000Z</time>
      </trkpt>
      <trkpt lat="48.65382" lon="7.1898">
        <ele>475.9</ele>
        <time>2020-08-19T13:41:35.000Z</time>
      </trkpt>
      <trkpt lat="48.65378" lon="7.18976">
        <ele>474.06</ele>
        <time>2020-08-19T13:41:40.000Z</time>
      </trkpt>
      <trkpt lat="48.65374" lon="7.1897">
        <ele>474.62</ele>
        <time>2020-08-19T13:41:44.000Z</time>
      </trkpt>
      <trkpt lat="48.6537" lon="7.18966">
        <ele>475.37</ele>
        <time>2020-08-19T13:41:48.000Z</time>
      </trkpt>
      <trkpt lat="48.65367" lon="7.18962">
        <ele>476.58</ele>
        <time>2020-08-19T13:41:54.000Z</time>
      </trkpt>
      <trkpt lat="48.65363" lon="7.18956">
        <ele>478.58</ele>
        <time>2020-08-19T13:41:58.000Z</time>
      </trkpt>
      <trkpt lat="48.6536" lon="7.1895">
        <ele>479.73</ele>
        <time>2020-08-19T13:42:02.000Z</time>
      </trkpt>
      <trkpt lat="48.65358" lon="7.18944">
        <ele>478.76</ele>
        <time>2020-08-19T13:42:06.000Z</time>
      </trkpt>
      <trkpt lat="48.65354" lon="7.18937">
        <ele>476.7</ele>
        <time>2020-08-19T13:42:13.000Z</time>
      </trkpt>
      <trkpt lat="48.65352" lon="7.18931">
        <ele>479.22</ele>
        <time>2020-08-19T13:42:17.000Z</time>
      </trkpt>
      <trkpt lat="48.65349" lon="7.18926">
        <ele>480.97</ele>
        <time>2020-08-19T13:42:21.000Z</time>
      </trkpt>
      <trkpt lat="48.65347" lon="7.18919">
        <ele>479.22</ele>
        <time>2020-08-19T13:42:28.000Z</time>
      </trkpt>
      <trkpt lat="48.65344" lon="7.18913">
        <ele>483.28</ele>
        <time>2020-08-19T13:42:32.000Z</time>
      </trkpt>
      <trkpt lat="48.6534" lon="7.18907">
        <ele>482.88</ele>
        <time>2020-08-19T13:42:36.000Z</time>
      </trkpt>
      <trkpt lat="48.65337" lon="7.18902">
        <ele>484.1</ele>
        <time>2020-08-19T13:42:43.000Z</time>
      </trkpt>
      <trkpt lat="48.65333" lon="7.18898">
        <ele>483.99</ele>
        <time>2020-08-19T13:42:48.000Z</time>
      </trkpt>
      <trkpt lat="48.6533" lon="7.18892">
        <ele>484.24</ele>
        <time>2020-08-19T13:42:53.000Z</time>
      </trkpt>
      <trkpt lat="48.65325" lon="7.18886">
        <ele>485.21</ele>
        <time>2020-08-19T13:42:57.000Z</time>
      </trkpt>
      <trkpt lat="48.65322" lon="7.18882">
        <ele>484.42</ele>
        <time>2020-08-19T13:43:00.000Z</time>
      </trkpt>
      <trkpt lat="48.65319" lon="7.18875">
        <ele>483.56</ele>
        <time>2020-08-19T13:43:04.000Z</time>
      </trkpt>
      <trkpt lat="48.65315" lon="7.18872">
        <ele>483.98</ele>
        <time>2020-08-19T13:43:08.000Z</time>
      </trkpt>
      <trkpt lat="48.65311" lon="7.18865">
        <ele>486.01</ele>
        <time>2020-08-19T13:43:12.000Z</time>
      </trkpt>
      <trkpt lat="48.65308" lon="7.18861">
        <ele>484.22</ele>
        <time>2020-08-19T13:43:16.000Z</time>
      </trkpt>
      <trkpt lat="48.65305" lon="7.18854">
        <ele>485.9</ele>
        <time>2020-08-19T13:43:22.000Z</time>
      </trkpt>
      <trkpt lat="48.65301" lon="7.1885">
        <ele>485.2</ele>
        <time>2020-08-19T13:43:26.000Z</time>
      </trkpt>
      <trkpt lat="48.65297" lon="7.18846">
        <ele>485.98</ele>
        <time>2020-08-19T13:43:29.000Z</time>
      </trkpt>
      <trkpt lat="48.65293" lon="7.1884">
        <ele>486.24</ele>
        <time>2020-08-19T13:43:34.000Z</time>
      </trkpt>
      <trkpt lat="48.65288" lon="7.18835">
        <ele>485.26</ele>
        <time>2020-08-19T13:43:38.000Z</time>
      </trkpt>
      <trkpt lat="48.65285" lon="7.1883">
        <ele>484.24</ele>
        <time>2020-08-19T13:43:54.000Z</time>
      </trkpt>
      <trkpt lat="48.65283" lon="7.18824">
        <ele>485.43</ele>
        <time>2020-08-19T13:43:58.000Z</time>
      </trkpt>
      <trkpt lat="48.65279" lon="7.18819">
        <ele>486.89</ele>
        <time>2020-08-19T13:44:02.000Z</time>
      </trkpt>
      <trkpt lat="48.65275" lon="7.18815">
        <ele>488.76</ele>
        <time>2020-08-19T13:44:10.000Z</time>
      </trkpt>
      <trkpt lat="48.65271" lon="7.18812">
        <ele>490.98</ele>
        <time>2020-08-19T13:44:15.000Z</time>
      </trkpt>
      <trkpt lat="48.65267" lon="7.18806">
        <ele>492.96</ele>
        <time>2020-08-19T13:44:20.000Z</time>
      </trkpt>
      <trkpt lat="48.65264" lon="7.188">
        <ele>496.1</ele>
        <time>2020-08-19T13:44:24.000Z</time>
      </trkpt>
      <trkpt lat="48.65218" lon="7.1874">
        <ele>493.51</ele>
        <time>2020-08-19T13:45:02.000Z</time>
      </trkpt>
      <trkpt lat="48.65212" lon="7.18734">
        <ele>493.5</ele>
        <time>2020-08-19T13:45:05.000Z</time>
      </trkpt>
      <trkpt lat="48.65207" lon="7.18729">
        <ele>491.8</ele>
        <time>2020-08-19T13:45:08.000Z</time>
      </trkpt>
      <trkpt lat="48.65202" lon="7.18722">
        <ele>491.17</ele>
        <time>2020-08-19T13:45:11.000Z</time>
      </trkpt>
      <trkpt lat="48.65198" lon="7.18718">
        <ele>492.38</ele>
        <time>2020-08-19T13:45:14.000Z</time>
      </trkpt>
      <trkpt lat="48.65194" lon="7.18714">
        <ele>492.8</ele>
        <time>2020-08-19T13:45:17.000Z</time>
      </trkpt>
      <trkpt lat="48.65189" lon="7.18709">
        <ele>493.52</ele>
        <time>2020-08-19T13:45:19.000Z</time>
      </trkpt>
      <trkpt lat="48.65185" lon="7.18706">
        <ele>494.89</ele>
        <time>2020-08-19T13:45:21.000Z</time>
      </trkpt>
      <trkpt lat="48.6518" lon="7.18702">
        <ele>494.08</ele>
        <time>2020-08-19T13:45:23.000Z</time>
      </trkpt>
      <trkpt lat="48.65175" lon="7.18698">
        <ele>494.06</ele>
        <time>2020-08-19T13:45:25.000Z</time>
      </trkpt>
      <trkpt lat="48.65171" lon="7.18694">
        <ele>494.06</ele>
        <time>2020-08-19T13:45:27.000Z</time>
      </trkpt>
      <trkpt lat="48.65166" lon="7.18689">
        <ele>496.56</ele>
        <time>2020-08-19T13:45:30.000Z</time>
      </trkpt>
      <trkpt lat="48.65162" lon="7.18685">
        <ele>498.6</ele>
        <time>2020-08-19T13:45:32.000Z</time>
      </trkpt>
      <trkpt lat="48.65157" lon="7.18681">
        <ele>497.86</ele>
        <time>2020-08-19T13:45:35.000Z</time>
      </trkpt>
      <trkpt lat="48.65151" lon="7.18677">
        <ele>500.92</ele>
        <time>2020-08-19T13:45:39.000Z</time>
      </trkpt>
      <trkpt lat="48.65147" lon="7.18673">
        <ele>501.34</ele>
        <time>2020-08-19T13:45:41.000Z</time>
      </trkpt>
      <trkpt lat="48.65142" lon="7.18669">
        <ele>499.65</ele>
        <time>2020-08-19T13:45:44.000Z</time>
      </trkpt>
      <trkpt lat="48.65137" lon="7.18666">
        <ele>500.23</ele>
        <time>2020-08-19T13:45:47.000Z</time>
      </trkpt>
      <trkpt lat="48.65119" lon="7.18656">
        <ele>498.93</ele>
        <time>2020-08-19T13:45:53.000Z</time>
      </trkpt>
      <trkpt lat="48.65113" lon="7.18656">
        <ele>498.77</ele>
        <time>2020-08-19T13:45:55.000Z</time>
      </trkpt>
      <trkpt lat="48.65107" lon="7.18656">
        <ele>499.49</ele>
        <time>2020-08-19T13:46:02.000Z</time>
      </trkpt>
      <trkpt lat="48.65102" lon="7.18657">
        <ele>496.79</ele>
        <time>2020-08-19T13:46:06.000Z</time>
      </trkpt>
      <trkpt lat="48.65096" lon="7.18657">
        <ele>496.61</ele>
        <time>2020-08-19T13:46:10.000Z</time>
      </trkpt>
      <trkpt lat="48.65091" lon="7.18654">
        <ele>498.12</ele>
        <time>2020-08-19T13:46:13.000Z</time>
      </trkpt>
      <trkpt lat="48.65088" lon="7.18648">
        <ele>500.77</ele>
        <time>2020-08-19T13:46:17.000Z</time>
      </trkpt>
      <trkpt lat="48.65084" lon="7.18644">
        <ele>501.84</ele>
        <time>2020-08-19T13:46:22.000Z</time>
      </trkpt>
      <trkpt lat="48.65079" lon="7.18643">
        <ele>502.26</ele>
        <time>2020-08-19T13:46:25.000Z</time>
      </trkpt>
      <trkpt lat="48.65074" lon="7.18643">
        <ele>503.85</ele>
        <time>2020-08-19T13:46:28.000Z</time>
      </trkpt>
      <trkpt lat="48.6507" lon="7.18642">
        <ele>504.66</ele>
        <time>2020-08-19T13:46:32.000Z</time>
      </trkpt>
      <trkpt lat="48.65064" lon="7.18641">
        <ele>504.26</ele>
        <time>2020-08-19T13:46:36.000Z</time>
      </trkpt>
      <trkpt lat="48.65059" lon="7.1864">
        <ele>505.58</ele>
        <time>2020-08-19T13:46:40.000Z</time>
      </trkpt>
      <trkpt lat="48.65054" lon="7.18639">
        <ele>507.76</ele>
        <time>2020-08-19T13:46:45.000Z</time>
      </trkpt>
      <trkpt lat="48.6505" lon="7.18636">
        <ele>494.88</ele>
        <time>2020-08-19T13:46:50.000Z</time>
      </trkpt>
      <trkpt lat="48.65045" lon="7.18632">
        <ele>507.62</ele>
        <time>2020-08-19T13:46:54.000Z</time>
      </trkpt>
      <trkpt lat="48.6504" lon="7.18633">
        <ele>510.52</ele>
        <time>2020-08-19T13:46:59.000Z</time>
      </trkpt>
      <trkpt lat="48.65035" lon="7.18632">
        <ele>512.2</ele>
        <time>2020-08-19T13:47:04.000Z</time>
      </trkpt>
      <trkpt lat="48.65029" lon="7.18633">
        <ele>511.99</ele>
        <time>2020-08-19T13:47:08.000Z</time>
      </trkpt>
      <trkpt lat="48.65025" lon="7.18632">
        <ele>513.09</ele>
        <time>2020-08-19T13:47:13.000Z</time>
      </trkpt>
      <trkpt lat="48.6502" lon="7.18629">
        <ele>515</ele>
        <time>2020-08-19T13:47:17.000Z</time>
      </trkpt>
      <trkpt lat="48.65016" lon="7.18628">
        <ele>516.93</ele>
        <time>2020-08-19T13:47:22.000Z</time>
      </trkpt>
      <trkpt lat="48.6501" lon="7.1863">
        <ele>516.06</ele>
        <time>2020-08-19T13:47:29.000Z</time>
      </trkpt>
      <trkpt lat="48.65006" lon="7.18633">
        <ele>518.21</ele>
        <time>2020-08-19T13:47:34.000Z</time>
      </trkpt>
      <trkpt lat="48.65" lon="7.18634">
        <ele>519.51</ele>
        <time>2020-08-19T13:47:41.000Z</time>
      </trkpt>
      <trkpt lat="48.64995" lon="7.18634">
        <ele>517.17</ele>
        <time>2020-08-19T13:47:45.000Z</time>
      </trkpt>
      <trkpt lat="48.64989" lon="7.18633">
        <ele>520.91</ele>
        <time>2020-08-19T13:47:49.000Z</time>
      </trkpt>
      <trkpt lat="48.64983" lon="7.18632">
        <ele>521.82</ele>
        <time>2020-08-19T13:47:53.000Z</time>
      </trkpt>
      <trkpt lat="48.64979" lon="7.18629">
        <ele>523.14</ele>
        <time>2020-08-19T13:47:57.000Z</time>
      </trkpt>
      <trkpt lat="48.64974" lon="7.18625">
        <ele>523.6</ele>
        <time>2020-08-19T13:48:03.000Z</time>
      </trkpt>
      <trkpt lat="48.6497" lon="7.18622">
        <ele>524.45</ele>
        <time>2020-08-19T13:48:09.000Z</time>
      </trkpt>
      <trkpt lat="48.64964" lon="7.1862">
        <ele>523.81</ele>
        <time>2020-08-19T13:48:16.000Z</time>
      </trkpt>
      <trkpt lat="48.6496" lon="7.18616">
        <ele>525.95</ele>
        <time>2020-08-19T13:48:19.000Z</time>
      </trkpt>
      <trkpt lat="48.64955" lon="7.18613">
        <ele>526.34</ele>
        <time>2020-08-19T13:48:23.000Z</time>
      </trkpt>
      <trkpt lat="48.6495" lon="7.18611">
        <ele>525.54</ele>
        <time>2020-08-19T13:48:28.000Z</time>
      </trkpt>
      <trkpt lat="48.64945" lon="7.1861">
        <ele>527.35</ele>
        <time>2020-08-19T13:48:34.000Z</time>
      </trkpt>
      <trkpt lat="48.6494" lon="7.18611">
        <ele>529.9</ele>
        <time>2020-08-19T13:48:39.000Z</time>
      </trkpt>
      <trkpt lat="48.64934" lon="7.18606">
        <ele>522.07</ele>
        <time>2020-08-19T13:49:00.000Z</time>
      </trkpt>
      <trkpt lat="48.64929" lon="7.18603">
        <ele>524.55</ele>
        <time>2020-08-19T13:49:02.000Z</time>
      </trkpt>
      <trkpt lat="48.64924" lon="7.18599">
        <ele>524.82</ele>
        <time>2020-08-19T13:49:04.000Z</time>
      </trkpt>
      <trkpt lat="48.64918" lon="7.18596">
        <ele>523.68</ele>
        <time>2020-08-19T13:49:06.000Z</time>
      </trkpt>
      <trkpt lat="48.64913" lon="7.18596">
        <ele>524.31</ele>
        <time>2020-08-19T13:49:08.000Z</time>
      </trkpt>
      <trkpt lat="48.64908" lon="7.18596">
        <ele>525.06</ele>
        <time>2020-08-19T13:49:10.000Z</time>
      </trkpt>
      <trkpt lat="48.64904" lon="7.18595">
        <ele>526.39</ele>
        <time>2020-08-19T13:49:12.000Z</time>
      </trkpt>
      <trkpt lat="48.64899" lon="7.18594">
        <ele>525.96</ele>
        <time>2020-08-19T13:49:14.000Z</time>
      </trkpt>
      <trkpt lat="48.64892" lon="7.1859">
        <ele>529.2</ele>
        <time>2020-08-19T13:49:16.000Z</time>
      </trkpt>
      <trkpt lat="48.64887" lon="7.18584">
        <ele>528.23</ele>
        <time>2020-08-19T13:49:18.000Z</time>
      </trkpt>
      <trkpt lat="48.64839" lon="7.1854">
        <ele>530.32</ele>
        <time>2020-08-19T13:49:31.000Z</time>
      </trkpt>
      <trkpt lat="48.64832" lon="7.18532">
        <ele>529.65</ele>
        <time>2020-08-19T13:49:33.000Z</time>
      </trkpt>
      <trkpt lat="48.64824" lon="7.18525">
        <ele>529.21</ele>
        <time>2020-08-19T13:49:35.000Z</time>
      </trkpt>
      <trkpt lat="48.64818" lon="7.18517">
        <ele>528.73</ele>
        <time>2020-08-19T13:49:37.000Z</time>
      </trkpt>
      <trkpt lat="48.64811" lon="7.18508">
        <ele>529.01</ele>
        <time>2020-08-19T13:49:39.000Z</time>
      </trkpt>
      <trkpt lat="48.64808" lon="7.18504">
        <ele>528.95</ele>
        <time>2020-08-19T13:49:40.000Z</time>
      </trkpt>
      <trkpt lat="48.64802" lon="7.18496">
        <ele>528.74</ele>
        <time>2020-08-19T13:49:42.000Z</time>
      </trkpt>
      <trkpt lat="48.64796" lon="7.18487">
        <ele>530.01</ele>
        <time>2020-08-19T13:49:44.000Z</time>
      </trkpt>
      <trkpt lat="48.64788" lon="7.18478">
        <ele>530.11</ele>
        <time>2020-08-19T13:49:46.000Z</time>
      </trkpt>
      <trkpt lat="48.64783" lon="7.18473">
        <ele>530.44</ele>
        <time>2020-08-19T13:49:48.000Z</time>
      </trkpt>
      <trkpt lat="48.64779" lon="7.18466">
        <ele>531.28</ele>
        <time>2020-08-19T13:49:50.000Z</time>
      </trkpt>
      <trkpt lat="48.64774" lon="7.1846">
        <ele>530.16</ele>
        <time>2020-08-19T13:49:52.000Z</time>
      </trkpt>
      <trkpt lat="48.64768" lon="7.18452">
        <ele>532.27</ele>
        <time>2020-08-19T13:49:54.000Z</time>
      </trkpt>
      <trkpt lat="48.64763" lon="7.18445">
        <ele>531.74</ele>
        <time>2020-08-19T13:49:56.000Z</time>
      </trkpt>
      <trkpt lat="48.64758" lon="7.18437">
        <ele>531.43</ele>
        <time>2020-08-19T13:49:58.000Z</time>
      </trkpt>
      <trkpt lat="48.64752" lon="7.18429">
        <ele>530.04</ele>
        <time>2020-08-19T13:50:00.000Z</time>
      </trkpt>
      <trkpt lat="48.64746" lon="7.18422">
        <ele>531.74</ele>
        <time>2020-08-19T13:50:02.000Z</time>
      </trkpt>
      <trkpt lat="48.64739" lon="7.18417">
        <ele>533.44</ele>
        <time>2020-08-19T13:50:04.000Z</time>
      </trkpt>
      <trkpt lat="48.64733" lon="7.18411">
        <ele>532.08</ele>
        <time>2020-08-19T13:50:06.000Z</time>
      </trkpt>
      <trkpt lat="48.64728" lon="7.18404">
        <ele>529.82</ele>
        <time>2020-08-19T13:50:08.000Z</time>
      </trkpt>
      <trkpt lat="48.64723" lon="7.18397">
        <ele>531.2</ele>
        <time>2020-08-19T13:50:10.000Z</time>
      </trkpt>
      <trkpt lat="48.64719" lon="7.18393">
        <ele>532.46</ele>
        <time>2020-08-19T13:50:12.000Z</time>
      </trkpt>
      <trkpt lat="48.64714" lon="7.18386">
        <ele>533.39</ele>
        <time>2020-08-19T13:50:14.000Z</time>
      </trkpt>
      <trkpt lat="48.64708" lon="7.18382">
        <ele>532.54</ele>
        <time>2020-08-19T13:50:16.000Z</time>
      </trkpt>
      <trkpt lat="48.64704" lon="7.18377">
        <ele>531.37</ele>
        <time>2020-08-19T13:50:18.000Z</time>
      </trkpt>
      <trkpt lat="48.647" lon="7.18371">
        <ele>531.43</ele>
        <time>2020-08-19T13:50:20.000Z</time>
      </trkpt>
      <trkpt lat="48.64695" lon="7.18365">
        <ele>531.87</ele>
        <time>2020-08-19T13:50:22.000Z</time>
      </trkpt>
      <trkpt lat="48.64687" lon="7.18354">
        <ele>531.31</ele>
        <time>2020-08-19T13:50:24.000Z</time>
      </trkpt>
      <trkpt lat="48.64679" lon="7.18347">
        <ele>530.09</ele>
        <time>2020-08-19T13:50:26.000Z</time>
      </trkpt>
      <trkpt lat="48.64676" lon="7.18341">
        <ele>531.84</ele>
        <time>2020-08-19T13:50:27.000Z</time>
      </trkpt>
      <trkpt lat="48.64668" lon="7.18331">
        <ele>534.1</ele>
        <time>2020-08-19T13:50:29.000Z</time>
      </trkpt>
      <trkpt lat="48.64662" lon="7.18325">
        <ele>533.98</ele>
        <time>2020-08-19T13:50:31.000Z</time>
      </trkpt>
      <trkpt lat="48.64656" lon="7.18318">
        <ele>533.93</ele>
        <time>2020-08-19T13:50:33.000Z</time>
      </trkpt>
      <trkpt lat="48.64651" lon="7.18313">
        <ele>535.52</ele>
        <time>2020-08-19T13:50:34.000Z</time>
      </trkpt>
      <trkpt lat="48.64647" lon="7.18308">
        <ele>535.16</ele>
        <time>2020-08-19T13:50:36.000Z</time>
      </trkpt>
      <trkpt lat="48.64641" lon="7.18303">
        <ele>535.72</ele>
        <time>2020-08-19T13:50:38.000Z</time>
      </trkpt>
      <trkpt lat="48.64637" lon="7.18298">
        <ele>537.91</ele>
        <time>2020-08-19T13:50:40.000Z</time>
      </trkpt>
      <trkpt lat="48.64632" lon="7.18293">
        <ele>540.3</ele>
        <time>2020-08-19T13:50:42.000Z</time>
      </trkpt>
      <trkpt lat="48.64627" lon="7.18288">
        <ele>539.71</ele>
        <time>2020-08-19T13:50:44.000Z</time>
      </trkpt>
      <trkpt lat="48.64622" lon="7.18283">
        <ele>540.2</ele>
        <time>2020-08-19T13:50:46.000Z</time>
      </trkpt>
      <trkpt lat="48.64606" lon="7.18269">
        <ele>537.51</ele>
        <time>2020-08-19T13:50:50.000Z</time>
      </trkpt>
      <trkpt lat="48.64595" lon="7.18265">
        <ele>534.23</ele>
        <time>2020-08-19T13:50:53.000Z</time>
      </trkpt>
      <trkpt lat="48.64591" lon="7.18263">
        <ele>531.44</ele>
        <time>2020-08-19T13:50:54.000Z</time>
      </trkpt>
      <trkpt lat="48.64585" lon="7.18253">
        <ele>532.76</ele>
        <time>2020-08-19T13:50:56.000Z</time>
      </trkpt>
      <trkpt lat="48.64581" lon="7.18246">
        <ele>533.6</ele>
        <time>2020-08-19T13:50:58.000Z</time>
      </trkpt>
      <trkpt lat="48.64576" lon="7.18245">
        <ele>535</ele>
        <time>2020-08-19T13:51:07.000Z</time>
      </trkpt>
      <trkpt lat="48.64571" lon="7.1824">
        <ele>538.2</ele>
        <time>2020-08-19T13:51:12.000Z</time>
      </trkpt>
      <trkpt lat="48.64565" lon="7.18231">
        <ele>537.13</ele>
        <time>2020-08-19T13:51:14.000Z</time>
      </trkpt>
      <trkpt lat="48.64559" lon="7.18224">
        <ele>536.94</ele>
        <time>2020-08-19T13:51:16.000Z</time>
      </trkpt>
      <trkpt lat="48.64556" lon="7.18212">
        <ele>536.83</ele>
        <time>2020-08-19T13:51:18.000Z</time>
      </trkpt>
      <trkpt lat="48.64553" lon="7.18203">
        <ele>536.6</ele>
        <time>2020-08-19T13:51:20.000Z</time>
      </trkpt>
      <trkpt lat="48.6455" lon="7.18197">
        <ele>537.14</ele>
        <time>2020-08-19T13:51:21.000Z</time>
      </trkpt>
      <trkpt lat="48.64547" lon="7.18187">
        <ele>536.03</ele>
        <time>2020-08-19T13:51:23.000Z</time>
      </trkpt>
      <trkpt lat="48.64544" lon="7.18182">
        <ele>535.87</ele>
        <time>2020-08-19T13:51:24.000Z</time>
      </trkpt>
      <trkpt lat="48.64541" lon="7.18176">
        <ele>534.7</ele>
        <time>2020-08-19T13:51:26.000Z</time>
      </trkpt>
      <trkpt lat="48.64537" lon="7.18168">
        <ele>535.32</ele>
        <time>2020-08-19T13:51:28.000Z</time>
      </trkpt>
      <trkpt lat="48.64536" lon="7.18159">
        <ele>535.72</ele>
        <time>2020-08-19T13:51:30.000Z</time>
      </trkpt>
      <trkpt lat="48.64537" lon="7.18152">
        <ele>536.32</ele>
        <time>2020-08-19T13:51:32.000Z</time>
      </trkpt>
      <trkpt lat="48.64541" lon="7.18145">
        <ele>535.82</ele>
        <time>2020-08-19T13:51:34.000Z</time>
      </trkpt>
      <trkpt lat="48.64545" lon="7.18134">
        <ele>534.55</ele>
        <time>2020-08-19T13:51:36.000Z</time>
      </trkpt>
      <trkpt lat="48.64551" lon="7.18128">
        <ele>533.65</ele>
        <time>2020-08-19T13:51:38.000Z</time>
      </trkpt>
      <trkpt lat="48.64556" lon="7.1812">
        <ele>533.41</ele>
        <time>2020-08-19T13:51:40.000Z</time>
      </trkpt>
      <trkpt lat="48.64561" lon="7.18112">
        <ele>533.67</ele>
        <time>2020-08-19T13:51:42.000Z</time>
      </trkpt>
      <trkpt lat="48.64568" lon="7.18107">
        <ele>533.64</ele>
        <time>2020-08-19T13:51:44.000Z</time>
      </trkpt>
      <trkpt lat="48.64574" lon="7.18101">
        <ele>534.04</ele>
        <time>2020-08-19T13:51:46.000Z</time>
      </trkpt>
      <trkpt lat="48.64581" lon="7.18094">
        <ele>535.54</ele>
        <time>2020-08-19T13:51:48.000Z</time>
      </trkpt>
      <trkpt lat="48.64587" lon="7.18088">
        <ele>534.39</ele>
        <time>2020-08-19T13:51:50.000Z</time>
      </trkpt>
      <trkpt lat="48.64591" lon="7.18085">
        <ele>534.8</ele>
        <time>2020-08-19T13:51:51.000Z</time>
      </trkpt>
      <trkpt lat="48.64597" lon="7.18082">
        <ele>532.38</ele>
        <time>2020-08-19T13:51:53.000Z</time>
      </trkpt>
      <trkpt lat="48.64604" lon="7.18077">
        <ele>532.16</ele>
        <time>2020-08-19T13:51:55.000Z</time>
      </trkpt>
      <trkpt lat="48.64609" lon="7.18072">
        <ele>527.6</ele>
        <time>2020-08-19T13:51:58.000Z</time>
      </trkpt>
      <trkpt lat="48.64612" lon="7.18066">
        <ele>525.84</ele>
        <time>2020-08-19T13:52:00.000Z</time>
      </trkpt>
      <trkpt lat="48.64617" lon="7.18059">
        <ele>525.54</ele>
        <time>2020-08-19T13:52:02.000Z</time>
      </trkpt>
      <trkpt lat="48.64623" lon="7.18054">
        <ele>527.95</ele>
        <time>2020-08-19T13:52:04.000Z</time>
      </trkpt>
      <trkpt lat="48.64629" lon="7.1805">
        <ele>528.21</ele>
        <time>2020-08-19T13:52:06.000Z</time>
      </trkpt>
      <trkpt lat="48.64635" lon="7.18044">
        <ele>528.77</ele>
        <time>2020-08-19T13:52:08.000Z</time>
      </trkpt>
      <trkpt lat="48.64643" lon="7.18038">
        <ele>527.8</ele>
        <time>2020-08-19T13:52:10.000Z</time>
      </trkpt>
      <trkpt lat="48.64647" lon="7.18036">
        <ele>527.49</ele>
        <time>2020-08-19T13:52:11.000Z</time>
      </trkpt>
      <trkpt lat="48.64655" lon="7.1803">
        <ele>525.27</ele>
        <time>2020-08-19T13:52:13.000Z</time>
      </trkpt>
      <trkpt lat="48.64662" lon="7.18024">
        <ele>524.72</ele>
        <time>2020-08-19T13:52:15.000Z</time>
      </trkpt>
      <trkpt lat="48.64669" lon="7.18017">
        <ele>523.86</ele>
        <time>2020-08-19T13:52:17.000Z</time>
      </trkpt>
      <trkpt lat="48.6469" lon="7.17993">
        <ele>581.66</ele>
        <time>2020-08-19T13:52:22.000Z</time>
      </trkpt>
      <trkpt lat="48.64696" lon="7.17987">
        <ele>553.19</ele>
        <time>2020-08-19T13:52:24.000Z</time>
      </trkpt>
      <trkpt lat="48.647" lon="7.17978">
        <ele>540.22</ele>
        <time>2020-08-19T13:52:26.000Z</time>
      </trkpt>
      <trkpt lat="48.64704" lon="7.17975">
        <ele>526.15</ele>
        <time>2020-08-19T13:52:42.000Z</time>
      </trkpt>
      <trkpt lat="48.64708" lon="7.17969">
        <ele>525.18</ele>
        <time>2020-08-19T13:52:44.000Z</time>
      </trkpt>
      <trkpt lat="48.6471" lon="7.17963">
        <ele>525.41</ele>
        <time>2020-08-19T13:52:46.000Z</time>
      </trkpt>
      <trkpt lat="48.64709" lon="7.17955">
        <ele>525.49</ele>
        <time>2020-08-19T13:52:48.000Z</time>
      </trkpt>
      <trkpt lat="48.64708" lon="7.17946">
        <ele>526.4</ele>
        <time>2020-08-19T13:52:50.000Z</time>
      </trkpt>
      <trkpt lat="48.64704" lon="7.17937">
        <ele>527.03</ele>
        <time>2020-08-19T13:52:52.000Z</time>
      </trkpt>
      <trkpt lat="48.64703" lon="7.17931">
        <ele>527.58</ele>
        <time>2020-08-19T13:52:54.000Z</time>
      </trkpt>
      <trkpt lat="48.64704" lon="7.17924">
        <ele>527.74</ele>
        <time>2020-08-19T13:53:00.000Z</time>
      </trkpt>
      <trkpt lat="48.64709" lon="7.17917">
        <ele>524.39</ele>
        <time>2020-08-19T13:53:03.000Z</time>
      </trkpt>
      <trkpt lat="48.64714" lon="7.17914">
        <ele>523.06</ele>
        <time>2020-08-19T13:53:05.000Z</time>
      </trkpt>
      <trkpt lat="48.64719" lon="7.1791">
        <ele>518.19</ele>
        <time>2020-08-19T13:53:17.000Z</time>
      </trkpt>
      <trkpt lat="48.6472" lon="7.17901">
        <ele>519.91</ele>
        <time>2020-08-19T13:53:19.000Z</time>
      </trkpt>
      <trkpt lat="48.64721" lon="7.17891">
        <ele>520.8</ele>
        <time>2020-08-19T13:53:21.000Z</time>
      </trkpt>
      <trkpt lat="48.64723" lon="7.17879">
        <ele>520.47</ele>
        <time>2020-08-19T13:53:23.000Z</time>
      </trkpt>
      <trkpt lat="48.64723" lon="7.1787">
        <ele>520.73</ele>
        <time>2020-08-19T13:53:25.000Z</time>
      </trkpt>
      <trkpt lat="48.64729" lon="7.17857">
        <ele>519.88</ele>
        <time>2020-08-19T13:53:28.000Z</time>
      </trkpt>
      <trkpt lat="48.6473" lon="7.1785">
        <ele>519.36</ele>
        <time>2020-08-19T13:53:29.000Z</time>
      </trkpt>
      <trkpt lat="48.64743" lon="7.17808">
        <ele>520.13</ele>
        <time>2020-08-19T13:53:37.000Z</time>
      </trkpt>
      <trkpt lat="48.64746" lon="7.17801">
        <ele>518.11</ele>
        <time>2020-08-19T13:53:39.000Z</time>
      </trkpt>
      <trkpt lat="48.64751" lon="7.17792">
        <ele>516.73</ele>
        <time>2020-08-19T13:53:41.000Z</time>
      </trkpt>
      <trkpt lat="48.64754" lon="7.17784">
        <ele>515.62</ele>
        <time>2020-08-19T13:53:43.000Z</time>
      </trkpt>
      <trkpt lat="48.64754" lon="7.17776">
        <ele>521.61</ele>
        <time>2020-08-19T13:54:12.000Z</time>
      </trkpt>
      <trkpt lat="48.64755" lon="7.17769">
        <ele>524.57</ele>
        <time>2020-08-19T13:54:41.000Z</time>
      </trkpt>
      <trkpt lat="48.64758" lon="7.17763">
        <ele>524.46</ele>
        <time>2020-08-19T13:54:50.000Z</time>
      </trkpt>
      <trkpt lat="48.64762" lon="7.17758">
        <ele>524.67</ele>
        <time>2020-08-19T13:54:52.000Z</time>
      </trkpt>
      <trkpt lat="48.64768" lon="7.17752">
        <ele>525.16</ele>
        <time>2020-08-19T13:54:54.000Z</time>
      </trkpt>
      <trkpt lat="48.64772" lon="7.17745">
        <ele>522.5</ele>
        <time>2020-08-19T13:54:56.000Z</time>
      </trkpt>
      <trkpt lat="48.64774" lon="7.17737">
        <ele>521.69</ele>
        <time>2020-08-19T13:54:58.000Z</time>
      </trkpt>
      <trkpt lat="48.64779" lon="7.17732">
        <ele>517.82</ele>
        <time>2020-08-19T13:55:00.000Z</time>
      </trkpt>
      <trkpt lat="48.64783" lon="7.17725">
        <ele>518.04</ele>
        <time>2020-08-19T13:55:02.000Z</time>
      </trkpt>
      <trkpt lat="48.64786" lon="7.1772">
        <ele>517.15</ele>
        <time>2020-08-19T13:55:05.000Z</time>
      </trkpt>
      <trkpt lat="48.64791" lon="7.17712">
        <ele>516.33</ele>
        <time>2020-08-19T13:55:19.000Z</time>
      </trkpt>
      <trkpt lat="48.64795" lon="7.17702">
        <ele>514.87</ele>
        <time>2020-08-19T13:55:21.000Z</time>
      </trkpt>
      <trkpt lat="48.64798" lon="7.17694">
        <ele>514.07</ele>
        <time>2020-08-19T13:55:23.000Z</time>
      </trkpt>
      <trkpt lat="48.64801" lon="7.17685">
        <ele>509.43</ele>
        <time>2020-08-19T13:55:25.000Z</time>
      </trkpt>
      <trkpt lat="48.64804" lon="7.17679">
        <ele>509.84</ele>
        <time>2020-08-19T13:55:27.000Z</time>
      </trkpt>
      <trkpt lat="48.64807" lon="7.17673">
        <ele>507.63</ele>
        <time>2020-08-19T13:55:30.000Z</time>
      </trkpt>
      <trkpt lat="48.6481" lon="7.17668">
        <ele>507.58</ele>
        <time>2020-08-19T13:55:33.000Z</time>
      </trkpt>
      <trkpt lat="48.64812" lon="7.1766">
        <ele>505.13</ele>
        <time>2020-08-19T13:55:35.000Z</time>
      </trkpt>
      <trkpt lat="48.64813" lon="7.1765">
        <ele>503.73</ele>
        <time>2020-08-19T13:55:37.000Z</time>
      </trkpt>
      <trkpt lat="48.64815" lon="7.1764">
        <ele>501.92</ele>
        <time>2020-08-19T13:55:39.000Z</time>
      </trkpt>
      <trkpt lat="48.64817" lon="7.17631">
        <ele>500.23</ele>
        <time>2020-08-19T13:55:41.000Z</time>
      </trkpt>
      <trkpt lat="48.64819" lon="7.17624">
        <ele>498.56</ele>
        <time>2020-08-19T13:55:43.000Z</time>
      </trkpt>
      <trkpt lat="48.64821" lon="7.17617">
        <ele>496.07</ele>
        <time>2020-08-19T13:55:45.000Z</time>
      </trkpt>
      <trkpt lat="48.64823" lon="7.17608">
        <ele>495.7</ele>
        <time>2020-08-19T13:55:47.000Z</time>
      </trkpt>
      <trkpt lat="48.64826" lon="7.176">
        <ele>494.62</ele>
        <time>2020-08-19T13:55:49.000Z</time>
      </trkpt>
      <trkpt lat="48.64831" lon="7.1759">
        <ele>493.72</ele>
        <time>2020-08-19T13:55:51.000Z</time>
      </trkpt>
      <trkpt lat="48.64833" lon="7.17579">
        <ele>494.65</ele>
        <time>2020-08-19T13:55:53.000Z</time>
      </trkpt>
      <trkpt lat="48.64833" lon="7.17571">
        <ele>494.05</ele>
        <time>2020-08-19T13:55:55.000Z</time>
      </trkpt>
      <trkpt lat="48.64836" lon="7.17564">
        <ele>492.86</ele>
        <time>2020-08-19T13:55:57.000Z</time>
      </trkpt>
      <trkpt lat="48.64839" lon="7.17555">
        <ele>493.39</ele>
        <time>2020-08-19T13:55:59.000Z</time>
      </trkpt>
      <trkpt lat="48.64842" lon="7.17546">
        <ele>491.67</ele>
        <time>2020-08-19T13:56:01.000Z</time>
      </trkpt>
      <trkpt lat="48.64846" lon="7.17535">
        <ele>488.23</ele>
        <time>2020-08-19T13:56:03.000Z</time>
      </trkpt>
      <trkpt lat="48.64849" lon="7.17526">
        <ele>486.49</ele>
        <time>2020-08-19T13:56:05.000Z</time>
      </trkpt>
      <trkpt lat="48.64851" lon="7.17514">
        <ele>485.91</ele>
        <time>2020-08-19T13:56:07.000Z</time>
      </trkpt>
      <trkpt lat="48.64852" lon="7.17503">
        <ele>482.21</ele>
        <time>2020-08-19T13:56:09.000Z</time>
      </trkpt>
      <trkpt lat="48.64854" lon="7.17494">
        <ele>482.62</ele>
        <time>2020-08-19T13:56:11.000Z</time>
      </trkpt>
      <trkpt lat="48.64856" lon="7.17487">
        <ele>481.49</ele>
        <time>2020-08-19T13:56:13.000Z</time>
      </trkpt>
      <trkpt lat="48.64857" lon="7.17479">
        <ele>481.71</ele>
        <time>2020-08-19T13:56:15.000Z</time>
      </trkpt>
      <trkpt lat="48.64856" lon="7.1747">
        <ele>484.41</ele>
        <time>2020-08-19T13:56:17.000Z</time>
      </trkpt>
      <trkpt lat="48.64856" lon="7.17461">
        <ele>482.82</ele>
        <time>2020-08-19T13:56:19.000Z</time>
      </trkpt>
      <trkpt lat="48.64862" lon="7.17431">
        <ele>484.05</ele>
        <time>2020-08-19T13:56:25.000Z</time>
      </trkpt>
      <trkpt lat="48.64864" lon="7.17424">
        <ele>483.73</ele>
        <time>2020-08-19T13:56:27.000Z</time>
      </trkpt>
      <trkpt lat="48.64864" lon="7.17416">
        <ele>483.68</ele>
        <time>2020-08-19T13:56:28.000Z</time>
      </trkpt>
      <trkpt lat="48.64867" lon="7.17404">
        <ele>482.21</ele>
        <time>2020-08-19T13:56:30.000Z</time>
      </trkpt>
      <trkpt lat="48.6487" lon="7.17388">
        <ele>482.03</ele>
        <time>2020-08-19T13:56:33.000Z</time>
      </trkpt>
      <trkpt lat="48.64871" lon="7.17381">
        <ele>484.51</ele>
        <time>2020-08-19T13:56:36.000Z</time>
      </trkpt>
      <trkpt lat="48.64869" lon="7.17358">
        <ele>484.88</ele>
        <time>2020-08-19T13:56:40.000Z</time>
      </trkpt>
      <trkpt lat="48.64869" lon="7.17346">
        <ele>483.98</ele>
        <time>2020-08-19T13:56:42.000Z</time>
      </trkpt>
      <trkpt lat="48.64873" lon="7.17338">
        <ele>482.75</ele>
        <time>2020-08-19T13:56:44.000Z</time>
      </trkpt>
      <trkpt lat="48.64873" lon="7.17331">
        <ele>485.78</ele>
        <time>2020-08-19T13:56:45.000Z</time>
      </trkpt>
      <trkpt lat="48.6487" lon="7.17291">
        <ele>482.11</ele>
        <time>2020-08-19T13:56:51.000Z</time>
      </trkpt>
      <trkpt lat="48.64867" lon="7.17276">
        <ele>480.44</ele>
        <time>2020-08-19T13:56:53.000Z</time>
      </trkpt>
      <trkpt lat="48.64867" lon="7.17267">
        <ele>479.37</ele>
        <time>2020-08-19T13:56:54.000Z</time>
      </trkpt>
      <trkpt lat="48.64866" lon="7.1726">
        <ele>478.13</ele>
        <time>2020-08-19T13:56:55.000Z</time>
      </trkpt>
      <trkpt lat="48.64867" lon="7.1724">
        <ele>474.71</ele>
        <time>2020-08-19T13:56:58.000Z</time>
      </trkpt>
      <trkpt lat="48.64868" lon="7.17227">
        <ele>474.17</ele>
        <time>2020-08-19T13:57:00.000Z</time>
      </trkpt>
      <trkpt lat="48.64867" lon="7.1722">
        <ele>473.22</ele>
        <time>2020-08-19T13:57:02.000Z</time>
      </trkpt>
      <trkpt lat="48.64867" lon="7.17211">
        <ele>473.29</ele>
        <time>2020-08-19T13:57:04.000Z</time>
      </trkpt>
      <trkpt lat="48.64866" lon="7.17201">
        <ele>471.44</ele>
        <time>2020-08-19T13:57:06.000Z</time>
      </trkpt>
      <trkpt lat="48.64868" lon="7.1719">
        <ele>469.01</ele>
        <time>2020-08-19T13:57:08.000Z</time>
      </trkpt>
      <trkpt lat="48.64868" lon="7.1718">
        <ele>464.74</ele>
        <time>2020-08-19T13:57:10.000Z</time>
      </trkpt>
      <trkpt lat="48.6487" lon="7.1717">
        <ele>462.59</ele>
        <time>2020-08-19T13:57:12.000Z</time>
      </trkpt>
      <trkpt lat="48.6487" lon="7.17161">
        <ele>461.17</ele>
        <time>2020-08-19T13:57:15.000Z</time>
      </trkpt>
      <trkpt lat="48.64871" lon="7.1715">
        <ele>458.25</ele>
        <time>2020-08-19T13:57:17.000Z</time>
      </trkpt>
      <trkpt lat="48.64873" lon="7.17139">
        <ele>456.7</ele>
        <time>2020-08-19T13:57:19.000Z</time>
      </trkpt>
      <trkpt lat="48.64872" lon="7.17126">
        <ele>457.25</ele>
        <time>2020-08-19T13:57:21.000Z</time>
      </trkpt>
      <trkpt lat="48.64872" lon="7.17119">
        <ele>457.12</ele>
        <time>2020-08-19T13:57:22.000Z</time>
      </trkpt>
      <trkpt lat="48.64871" lon="7.17112">
        <ele>456.01</ele>
        <time>2020-08-19T13:57:23.000Z</time>
      </trkpt>
      <trkpt lat="48.6487" lon="7.17103">
        <ele>455.1</ele>
        <time>2020-08-19T13:57:25.000Z</time>
      </trkpt>
      <trkpt lat="48.6487" lon="7.17093">
        <ele>451.77</ele>
        <time>2020-08-19T13:57:27.000Z</time>
      </trkpt>
      <trkpt lat="48.64868" lon="7.17061">
        <ele>456.54</ele>
        <time>2020-08-19T13:57:31.000Z</time>
      </trkpt>
      <trkpt lat="48.64868" lon="7.17053">
        <ele>454.89</ele>
        <time>2020-08-19T13:57:32.000Z</time>
      </trkpt>
      <trkpt lat="48.6487" lon="7.17043">
        <ele>453.66</ele>
        <time>2020-08-19T13:57:34.000Z</time>
      </trkpt>
      <trkpt lat="48.64873" lon="7.17036">
        <ele>450.69</ele>
        <time>2020-08-19T13:57:51.000Z</time>
      </trkpt>
      <trkpt lat="48.64872" lon="7.17028">
        <ele>449.7</ele>
        <time>2020-08-19T13:57:53.000Z</time>
      </trkpt>
      <trkpt lat="48.64871" lon="7.1702">
        <ele>449.35</ele>
        <time>2020-08-19T13:57:55.000Z</time>
      </trkpt>
      <trkpt lat="48.6487" lon="7.17013">
        <ele>446.43</ele>
        <time>2020-08-19T13:57:57.000Z</time>
      </trkpt>
      <trkpt lat="48.6487" lon="7.17004">
        <ele>447.56</ele>
        <time>2020-08-19T13:58:00.000Z</time>
      </trkpt>
      <trkpt lat="48.64872" lon="7.16996">
        <ele>448.71</ele>
        <time>2020-08-19T13:58:02.000Z</time>
      </trkpt>
      <trkpt lat="48.64871" lon="7.16985">
        <ele>449.23</ele>
        <time>2020-08-19T13:58:04.000Z</time>
      </trkpt>
      <trkpt lat="48.64869" lon="7.16976">
        <ele>449.19</ele>
        <time>2020-08-19T13:58:06.000Z</time>
      </trkpt>
      <trkpt lat="48.64867" lon="7.16965">
        <ele>449.56</ele>
        <time>2020-08-19T13:58:08.000Z</time>
      </trkpt>
      <trkpt lat="48.64866" lon="7.16953">
        <ele>447.62</ele>
        <time>2020-08-19T13:58:10.000Z</time>
      </trkpt>
      <trkpt lat="48.64864" lon="7.16941">
        <ele>445.51</ele>
        <time>2020-08-19T13:58:12.000Z</time>
      </trkpt>
      <trkpt lat="48.64864" lon="7.1693">
        <ele>445.99</ele>
        <time>2020-08-19T13:58:14.000Z</time>
      </trkpt>
      <trkpt lat="48.64864" lon="7.16922">
        <ele>445.74</ele>
        <time>2020-08-19T13:58:16.000Z</time>
      </trkpt>
      <trkpt lat="48.64863" lon="7.1691">
        <ele>445.65</ele>
        <time>2020-08-19T13:58:18.000Z</time>
      </trkpt>
      <trkpt lat="48.64861" lon="7.16898">
        <ele>445.18</ele>
        <time>2020-08-19T13:58:20.000Z</time>
      </trkpt>
      <trkpt lat="48.6486" lon="7.16891">
        <ele>445.86</ele>
        <time>2020-08-19T13:58:21.000Z</time>
      </trkpt>
      <trkpt lat="48.64858" lon="7.16881">
        <ele>444.9</ele>
        <time>2020-08-19T13:58:23.000Z</time>
      </trkpt>
      <trkpt lat="48.64855" lon="7.16873">
        <ele>443.83</ele>
        <time>2020-08-19T13:58:25.000Z</time>
      </trkpt>
      <trkpt lat="48.64853" lon="7.16862">
        <ele>444.36</ele>
        <time>2020-08-19T13:58:27.000Z</time>
      </trkpt>
      <trkpt lat="48.6485" lon="7.16856">
        <ele>440.58</ele>
        <time>2020-08-19T13:58:34.000Z</time>
      </trkpt>
      <trkpt lat="48.6485" lon="7.16848">
        <ele>438.65</ele>
        <time>2020-08-19T13:58:41.000Z</time>
      </trkpt>
      <trkpt lat="48.64848" lon="7.1684">
        <ele>434.32</ele>
        <time>2020-08-19T13:58:45.000Z</time>
      </trkpt>
      <trkpt lat="48.6483" lon="7.1672">
        <ele>423.1</ele>
        <time>2020-08-19T13:58:59.000Z</time>
      </trkpt>
      <trkpt lat="48.64827" lon="7.16713">
        <ele>422.29</ele>
        <time>2020-08-19T13:59:01.000Z</time>
      </trkpt>
      <trkpt lat="48.64826" lon="7.16704">
        <ele>420.57</ele>
        <time>2020-08-19T13:59:03.000Z</time>
      </trkpt>
      <trkpt lat="48.64826" lon="7.16712">
        <ele>416.23</ele>
        <time>2020-08-19T13:59:29.000Z</time>
      </trkpt>
      <trkpt lat="48.64825" lon="7.16719">
        <ele>415.88</ele>
        <time>2020-08-19T13:59:32.000Z</time>
      </trkpt>
      <trkpt lat="48.64824" lon="7.16727">
        <ele>414.88</ele>
        <time>2020-08-19T13:59:35.000Z</time>
      </trkpt>
      <trkpt lat="48.64825" lon="7.16736">
        <ele>416.73</ele>
        <time>2020-08-19T13:59:38.000Z</time>
      </trkpt>
      <trkpt lat="48.64826" lon="7.16744">
        <ele>417.89</ele>
        <time>2020-08-19T13:59:40.000Z</time>
      </trkpt>
      <trkpt lat="48.64826" lon="7.16753">
        <ele>417.91</ele>
        <time>2020-08-19T13:59:42.000Z</time>
      </trkpt>
      <trkpt lat="48.64827" lon="7.16762">
        <ele>425.12</ele>
        <time>2020-08-19T14:00:02.000Z</time>
      </trkpt>
      <trkpt lat="48.64828" lon="7.1677">
        <ele>418.97</ele>
        <time>2020-08-19T14:00:04.000Z</time>
      </trkpt>
      <trkpt lat="48.64829" lon="7.16781">
        <ele>415.94</ele>
        <time>2020-08-19T14:00:06.000Z</time>
      </trkpt>
      <trkpt lat="48.64829" lon="7.16791">
        <ele>415.44</ele>
        <time>2020-08-19T14:00:08.000Z</time>
      </trkpt>
      <trkpt lat="48.6483" lon="7.16802">
        <ele>416.09</ele>
        <time>2020-08-19T14:00:10.000Z</time>
      </trkpt>
      <trkpt lat="48.64832" lon="7.16812">
        <ele>416.31</ele>
        <time>2020-08-19T14:00:12.000Z</time>
      </trkpt>
      <trkpt lat="48.64833" lon="7.1682">
        <ele>416.91</ele>
        <time>2020-08-19T14:00:14.000Z</time>
      </trkpt>
      <trkpt lat="48.64835" lon="7.16831">
        <ele>416.03</ele>
        <time>2020-08-19T14:00:16.000Z</time>
      </trkpt>
      <trkpt lat="48.64836" lon="7.16841">
        <ele>414.69</ele>
        <time>2020-08-19T14:00:18.000Z</time>
      </trkpt>
      <trkpt lat="48.64836" lon="7.1685">
        <ele>415.16</ele>
        <time>2020-08-19T14:00:20.000Z</time>
      </trkpt>
      <trkpt lat="48.64838" lon="7.1686">
        <ele>415.89</ele>
        <time>2020-08-19T14:00:22.000Z</time>
      </trkpt>
      <trkpt lat="48.64839" lon="7.1687">
        <ele>417.04</ele>
        <time>2020-08-19T14:00:25.000Z</time>
      </trkpt>
      <trkpt lat="48.64839" lon="7.1688">
        <ele>418.2</ele>
        <time>2020-08-19T14:00:27.000Z</time>
      </trkpt>
      <trkpt lat="48.64838" lon="7.16891">
        <ele>418.32</ele>
        <time>2020-08-19T14:00:29.000Z</time>
      </trkpt>
      <trkpt lat="48.64834" lon="7.16902">
        <ele>418.51</ele>
        <time>2020-08-19T14:00:31.000Z</time>
      </trkpt>
      <trkpt lat="48.64829" lon="7.16908">
        <ele>418.67</ele>
        <time>2020-08-19T14:00:33.000Z</time>
      </trkpt>
      <trkpt lat="48.64822" lon="7.16916">
        <ele>418.65</ele>
        <time>2020-08-19T14:00:35.000Z</time>
      </trkpt>
      <trkpt lat="48.64816" lon="7.1692">
        <ele>417.81</ele>
        <time>2020-08-19T14:00:37.000Z</time>
      </trkpt>
      <trkpt lat="48.6481" lon="7.16919">
        <ele>418.12</ele>
        <time>2020-08-19T14:00:39.000Z</time>
      </trkpt>
      <trkpt lat="48.64805" lon="7.16915">
        <ele>420</ele>
        <time>2020-08-19T14:00:41.000Z</time>
      </trkpt>
      <trkpt lat="48.64801" lon="7.16908">
        <ele>419.68</ele>
        <time>2020-08-19T14:00:43.000Z</time>
      </trkpt>
      <trkpt lat="48.64798" lon="7.16894">
        <ele>418.93</ele>
        <time>2020-08-19T14:00:45.000Z</time>
      </trkpt>
      <trkpt lat="48.64797" lon="7.16884">
        <ele>418.5</ele>
        <time>2020-08-19T14:00:47.000Z</time>
      </trkpt>
      <trkpt lat="48.64797" lon="7.16877">
        <ele>417.34</ele>
        <time>2020-08-19T14:00:49.000Z</time>
      </trkpt>
      <trkpt lat="48.64795" lon="7.16871">
        <ele>418.51</ele>
        <time>2020-08-19T14:00:50.000Z</time>
      </trkpt>
      <trkpt lat="48.64795" lon="7.1686">
        <ele>417.66</ele>
        <time>2020-08-19T14:00:52.000Z</time>
      </trkpt>
      <trkpt lat="48.64792" lon="7.16848">
        <ele>417.65</ele>
        <time>2020-08-19T14:00:54.000Z</time>
      </trkpt>
      <trkpt lat="48.64789" lon="7.16837">
        <ele>417.27</ele>
        <time>2020-08-19T14:00:56.000Z</time>
      </trkpt>
      <trkpt lat="48.64787" lon="7.16826">
        <ele>415.75</ele>
        <time>2020-08-19T14:00:58.000Z</time>
      </trkpt>
      <trkpt lat="48.64784" lon="7.16815">
        <ele>416.42</ele>
        <time>2020-08-19T14:01:00.000Z</time>
      </trkpt>
      <trkpt lat="48.64781" lon="7.1681">
        <ele>415.99</ele>
        <time>2020-08-19T14:01:01.000Z</time>
      </trkpt>
      <trkpt lat="48.64777" lon="7.16799">
        <ele>416.71</ele>
        <time>2020-08-19T14:01:03.000Z</time>
      </trkpt>
      <trkpt lat="48.64772" lon="7.16788">
        <ele>416.28</ele>
        <time>2020-08-19T14:01:05.000Z</time>
      </trkpt>
      <trkpt lat="48.64769" lon="7.16782">
        <ele>416.68</ele>
        <time>2020-08-19T14:01:06.000Z</time>
      </trkpt>
      <trkpt lat="48.64762" lon="7.16773">
        <ele>416.76</ele>
        <time>2020-08-19T14:01:08.000Z</time>
      </trkpt>
      <trkpt lat="48.64759" lon="7.16768">
        <ele>417.3</ele>
        <time>2020-08-19T14:01:09.000Z</time>
      </trkpt>
      <trkpt lat="48.64754" lon="7.16759">
        <ele>416.82</ele>
        <time>2020-08-19T14:01:11.000Z</time>
      </trkpt>
      <trkpt lat="48.64748" lon="7.16747">
        <ele>417.8</ele>
        <time>2020-08-19T14:01:13.000Z</time>
      </trkpt>
      <trkpt lat="48.6474" lon="7.16743">
        <ele>416.35</ele>
        <time>2020-08-19T14:01:15.000Z</time>
      </trkpt>
      <trkpt lat="48.64733" lon="7.16733">
        <ele>416.15</ele>
        <time>2020-08-19T14:01:17.000Z</time>
      </trkpt>
      <trkpt lat="48.64728" lon="7.16731">
        <ele>416.74</ele>
        <time>2020-08-19T14:01:18.000Z</time>
      </trkpt>
      <trkpt lat="48.64722" lon="7.16729">
        <ele>416.72</ele>
        <time>2020-08-19T14:01:19.000Z</time>
      </trkpt>
      <trkpt lat="48.64715" lon="7.16727">
        <ele>415.13</ele>
        <time>2020-08-19T14:01:21.000Z</time>
      </trkpt>
      <trkpt lat="48.6471" lon="7.16725">
        <ele>413.99</ele>
        <time>2020-08-19T14:01:22.000Z</time>
      </trkpt>
      <trkpt lat="48.64705" lon="7.16727">
        <ele>414.28</ele>
        <time>2020-08-19T14:01:23.000Z</time>
      </trkpt>
      <trkpt lat="48.647" lon="7.16729">
        <ele>415.02</ele>
        <time>2020-08-19T14:01:24.000Z</time>
      </trkpt>
      <trkpt lat="48.64695" lon="7.16734">
        <ele>415.21</ele>
        <time>2020-08-19T14:01:25.000Z</time>
      </trkpt>
      <trkpt lat="48.64688" lon="7.16736">
        <ele>410.08</ele>
        <time>2020-08-19T14:01:27.000Z</time>
      </trkpt>
      <trkpt lat="48.64681" lon="7.16738">
        <ele>412.85</ele>
        <time>2020-08-19T14:01:29.000Z</time>
      </trkpt>
      <trkpt lat="48.64674" lon="7.16743">
        <ele>411.37</ele>
        <time>2020-08-19T14:01:31.000Z</time>
      </trkpt>
      <trkpt lat="48.64666" lon="7.16746">
        <ele>410.58</ele>
        <time>2020-08-19T14:01:33.000Z</time>
      </trkpt>
      <trkpt lat="48.64659" lon="7.16754">
        <ele>408.73</ele>
        <time>2020-08-19T14:01:35.000Z</time>
      </trkpt>
      <trkpt lat="48.64655" lon="7.1676">
        <ele>409.67</ele>
        <time>2020-08-19T14:01:36.000Z</time>
      </trkpt>
      <trkpt lat="48.6465" lon="7.16761">
        <ele>410.23</ele>
        <time>2020-08-19T14:01:37.000Z</time>
      </trkpt>
      <trkpt lat="48.64647" lon="7.16765">
        <ele>411.13</ele>
        <time>2020-08-19T14:01:38.000Z</time>
      </trkpt>
      <trkpt lat="48.64644" lon="7.16771">
        <ele>411.8</ele>
        <time>2020-08-19T14:01:39.000Z</time>
      </trkpt>
      <trkpt lat="48.64637" lon="7.16778">
        <ele>411.09</ele>
        <time>2020-08-19T14:01:41.000Z</time>
      </trkpt>
      <trkpt lat="48.64632" lon="7.16782">
        <ele>411.17</ele>
        <time>2020-08-19T14:01:42.000Z</time>
      </trkpt>
      <trkpt lat="48.64623" lon="7.16788">
        <ele>412</ele>
        <time>2020-08-19T14:01:44.000Z</time>
      </trkpt>
      <trkpt lat="48.64619" lon="7.16792">
        <ele>412.23</ele>
        <time>2020-08-19T14:01:45.000Z</time>
      </trkpt>
      <trkpt lat="48.64614" lon="7.16795">
        <ele>412.83</ele>
        <time>2020-08-19T14:01:46.000Z</time>
      </trkpt>
      <trkpt lat="48.64609" lon="7.16798">
        <ele>414.13</ele>
        <time>2020-08-19T14:01:47.000Z</time>
      </trkpt>
      <trkpt lat="48.64602" lon="7.16806">
        <ele>413.73</ele>
        <time>2020-08-19T14:01:49.000Z</time>
      </trkpt>
      <trkpt lat="48.64598" lon="7.16811">
        <ele>414.64</ele>
        <time>2020-08-19T14:01:50.000Z</time>
      </trkpt>
      <trkpt lat="48.64595" lon="7.16816">
        <ele>414.87</ele>
        <time>2020-08-19T14:01:51.000Z</time>
      </trkpt>
      <trkpt lat="48.64591" lon="7.16819">
        <ele>415.86</ele>
        <time>2020-08-19T14:01:52.000Z</time>
      </trkpt>
      <trkpt lat="48.64583" lon="7.16828">
        <ele>417.66</ele>
        <time>2020-08-19T14:01:54.000Z</time>
      </trkpt>
      <trkpt lat="48.64578" lon="7.16835">
        <ele>418.14</ele>
        <time>2020-08-19T14:01:56.000Z</time>
      </trkpt>
      <trkpt lat="48.64573" lon="7.16839">
        <ele>418.02</ele>
        <time>2020-08-19T14:01:57.000Z</time>
      </trkpt>
      <trkpt lat="48.64565" lon="7.16847">
        <ele>419.73</ele>
        <time>2020-08-19T14:01:59.000Z</time>
      </trkpt>
      <trkpt lat="48.64559" lon="7.16857">
        <ele>418</ele>
        <time>2020-08-19T14:02:01.000Z</time>
      </trkpt>
      <trkpt lat="48.64555" lon="7.16859">
        <ele>418.63</ele>
        <time>2020-08-19T14:02:02.000Z</time>
      </trkpt>
      <trkpt lat="48.64548" lon="7.16867">
        <ele>416.56</ele>
        <time>2020-08-19T14:02:04.000Z</time>
      </trkpt>
      <trkpt lat="48.64542" lon="7.16873">
        <ele>417.98</ele>
        <time>2020-08-19T14:02:06.000Z</time>
      </trkpt>
      <trkpt lat="48.64538" lon="7.16878">
        <ele>417.73</ele>
        <time>2020-08-19T14:02:07.000Z</time>
      </trkpt>
      <trkpt lat="48.64532" lon="7.16885">
        <ele>417.91</ele>
        <time>2020-08-19T14:02:09.000Z</time>
      </trkpt>
      <trkpt lat="48.64525" lon="7.16891">
        <ele>419.39</ele>
        <time>2020-08-19T14:02:11.000Z</time>
      </trkpt>
      <trkpt lat="48.64519" lon="7.16898">
        <ele>420.57</ele>
        <time>2020-08-19T14:02:13.000Z</time>
      </trkpt>
      <trkpt lat="48.64515" lon="7.16902">
        <ele>420.06</ele>
        <time>2020-08-19T14:02:14.000Z</time>
      </trkpt>
      <trkpt lat="48.64509" lon="7.1691">
        <ele>419.45</ele>
        <time>2020-08-19T14:02:16.000Z</time>
      </trkpt>
      <trkpt lat="48.64503" lon="7.16916">
        <ele>419.19</ele>
        <time>2020-08-19T14:02:18.000Z</time>
      </trkpt>
      <trkpt lat="48.645" lon="7.16921">
        <ele>419.44</ele>
        <time>2020-08-19T14:02:19.000Z</time>
      </trkpt>
      <trkpt lat="48.64496" lon="7.16929">
        <ele>420.01</ele>
        <time>2020-08-19T14:02:21.000Z</time>
      </trkpt>
      <trkpt lat="48.64487" lon="7.16934">
        <ele>421.03</ele>
        <time>2020-08-19T14:02:23.000Z</time>
      </trkpt>
      <trkpt lat="48.64482" lon="7.16943">
        <ele>421.65</ele>
        <time>2020-08-19T14:02:25.000Z</time>
      </trkpt>
      <trkpt lat="48.64476" lon="7.1695">
        <ele>422.5</ele>
        <time>2020-08-19T14:02:27.000Z</time>
      </trkpt>
      <trkpt lat="48.64472" lon="7.16959">
        <ele>422.74</ele>
        <time>2020-08-19T14:02:29.000Z</time>
      </trkpt>
      <trkpt lat="48.64468" lon="7.16964">
        <ele>456.41</ele>
        <time>2020-08-19T14:02:31.000Z</time>
      </trkpt>
      <trkpt lat="48.64463" lon="7.1697">
        <ele>436.67</ele>
        <time>2020-08-19T14:02:33.000Z</time>
      </trkpt>
      <trkpt lat="48.64453" lon="7.16981">
        <ele>428.3</ele>
        <time>2020-08-19T14:02:36.000Z</time>
      </trkpt>
      <trkpt lat="48.64449" lon="7.16988">
        <ele>425.29</ele>
        <time>2020-08-19T14:02:38.000Z</time>
      </trkpt>
      <trkpt lat="48.64442" lon="7.16994">
        <ele>426.99</ele>
        <time>2020-08-19T14:02:40.000Z</time>
      </trkpt>
      <trkpt lat="48.64433" lon="7.17002">
        <ele>426.12</ele>
        <time>2020-08-19T14:02:43.000Z</time>
      </trkpt>
      <trkpt lat="48.64428" lon="7.17011">
        <ele>426.16</ele>
        <time>2020-08-19T14:02:45.000Z</time>
      </trkpt>
      <trkpt lat="48.64417" lon="7.17022">
        <ele>428.23</ele>
        <time>2020-08-19T14:02:48.000Z</time>
      </trkpt>
      <trkpt lat="48.64413" lon="7.17027">
        <ele>427.98</ele>
        <time>2020-08-19T14:02:50.000Z</time>
      </trkpt>
      <trkpt lat="48.64409" lon="7.17033">
        <ele>425.24</ele>
        <time>2020-08-19T14:02:52.000Z</time>
      </trkpt>
      <trkpt lat="48.64403" lon="7.17039">
        <ele>424.51</ele>
        <time>2020-08-19T14:02:54.000Z</time>
      </trkpt>
      <trkpt lat="48.64398" lon="7.17047">
        <ele>426.98</ele>
        <time>2020-08-19T14:02:56.000Z</time>
      </trkpt>
      <trkpt lat="48.64393" lon="7.17053">
        <ele>426.93</ele>
        <time>2020-08-19T14:02:58.000Z</time>
      </trkpt>
      <trkpt lat="48.64388" lon="7.1706">
        <ele>428.17</ele>
        <time>2020-08-19T14:03:00.000Z</time>
      </trkpt>
      <trkpt lat="48.64383" lon="7.17067">
        <ele>427.65</ele>
        <time>2020-08-19T14:03:02.000Z</time>
      </trkpt>
      <trkpt lat="48.64378" lon="7.17073">
        <ele>426.93</ele>
        <time>2020-08-19T14:03:04.000Z</time>
      </trkpt>
      <trkpt lat="48.64373" lon="7.17079">
        <ele>426.27</ele>
        <time>2020-08-19T14:03:06.000Z</time>
      </trkpt>
      <trkpt lat="48.64368" lon="7.17086">
        <ele>425.79</ele>
        <time>2020-08-19T14:03:08.000Z</time>
      </trkpt>
      <trkpt lat="48.64364" lon="7.17091">
        <ele>426.28</ele>
        <time>2020-08-19T14:03:10.000Z</time>
      </trkpt>
      <trkpt lat="48.64359" lon="7.17095">
        <ele>427.75</ele>
        <time>2020-08-19T14:03:12.000Z</time>
      </trkpt>
      <trkpt lat="48.64354" lon="7.17103">
        <ele>428.19</ele>
        <time>2020-08-19T14:03:14.000Z</time>
      </trkpt>
      <trkpt lat="48.6435" lon="7.1711">
        <ele>428.63</ele>
        <time>2020-08-19T14:03:16.000Z</time>
      </trkpt>
      <trkpt lat="48.64345" lon="7.17118">
        <ele>428.83</ele>
        <time>2020-08-19T14:03:18.000Z</time>
      </trkpt>
      <trkpt lat="48.64341" lon="7.17126">
        <ele>427.77</ele>
        <time>2020-08-19T14:03:20.000Z</time>
      </trkpt>
      <trkpt lat="48.64337" lon="7.17134">
        <ele>427.72</ele>
        <time>2020-08-19T14:03:22.000Z</time>
      </trkpt>
      <trkpt lat="48.64333" lon="7.17141">
        <ele>427.78</ele>
        <time>2020-08-19T14:03:24.000Z</time>
      </trkpt>
      <trkpt lat="48.64328" lon="7.1715">
        <ele>427.27</ele>
        <time>2020-08-19T14:03:26.000Z</time>
      </trkpt>
      <trkpt lat="48.64324" lon="7.17158">
        <ele>427.92</ele>
        <time>2020-08-19T14:03:28.000Z</time>
      </trkpt>
      <trkpt lat="48.64319" lon="7.17166">
        <ele>427.6</ele>
        <time>2020-08-19T14:03:30.000Z</time>
      </trkpt>
      <trkpt lat="48.64314" lon="7.17174">
        <ele>428.65</ele>
        <time>2020-08-19T14:03:32.000Z</time>
      </trkpt>
      <trkpt lat="48.6431" lon="7.17181">
        <ele>431.79</ele>
        <time>2020-08-19T14:03:34.000Z</time>
      </trkpt>
      <trkpt lat="48.64305" lon="7.17187">
        <ele>433.65</ele>
        <time>2020-08-19T14:03:36.000Z</time>
      </trkpt>
      <trkpt lat="48.64299" lon="7.17191">
        <ele>433.71</ele>
        <time>2020-08-19T14:03:38.000Z</time>
      </trkpt>
      <trkpt lat="48.64296" lon="7.17195">
        <ele>435.73</ele>
        <time>2020-08-19T14:03:40.000Z</time>
      </trkpt>
      <trkpt lat="48.64293" lon="7.17202">
        <ele>436.72</ele>
        <time>2020-08-19T14:03:42.000Z</time>
      </trkpt>
      <trkpt lat="48.64289" lon="7.17212">
        <ele>438.81</ele>
        <time>2020-08-19T14:03:44.000Z</time>
      </trkpt>
      <trkpt lat="48.64285" lon="7.1722">
        <ele>437.73</ele>
        <time>2020-08-19T14:03:46.000Z</time>
      </trkpt>
      <trkpt lat="48.64284" lon="7.17213">
        <ele>426.82</ele>
        <time>2020-08-19T14:04:06.000Z</time>
      </trkpt>
      <trkpt lat="48.64285" lon="7.17206">
        <ele>426.39</ele>
        <time>2020-08-19T14:04:21.000Z</time>
      </trkpt>
      <trkpt lat="48.64289" lon="7.17198">
        <ele>422.27</ele>
        <time>2020-08-19T14:04:25.000Z</time>
      </trkpt>
      <trkpt lat="48.64295" lon="7.17192">
        <ele>423.3</ele>
        <time>2020-08-19T14:04:27.000Z</time>
      </trkpt>
      <trkpt lat="48.64285" lon="7.1717">
        <ele>424.94</ele>
        <time>2020-08-19T14:04:33.000Z</time>
      </trkpt>
      <trkpt lat="48.64281" lon="7.1716">
        <ele>424.27</ele>
        <time>2020-08-19T14:04:35.000Z</time>
      </trkpt>
      <trkpt lat="48.64277" lon="7.17151">
        <ele>425.82</ele>
        <time>2020-08-19T14:04:37.000Z</time>
      </trkpt>
      <trkpt lat="48.64279" lon="7.17144">
        <ele>432.29</ele>
        <time>2020-08-19T14:04:46.000Z</time>
      </trkpt>
      <trkpt lat="48.64282" lon="7.17138">
        <ele>432.1</ele>
        <time>2020-08-19T14:04:48.000Z</time>
      </trkpt>
      <trkpt lat="48.64285" lon="7.17132">
        <ele>430.56</ele>
        <time>2020-08-19T14:04:50.000Z</time>
      </trkpt>
      <trkpt lat="48.64287" lon="7.17125">
        <ele>429.35</ele>
        <time>2020-08-19T14:04:52.000Z</time>
      </trkpt>
      <trkpt lat="48.6429" lon="7.17117">
        <ele>428.23</ele>
        <time>2020-08-19T14:04:54.000Z</time>
      </trkpt>
      <trkpt lat="48.64294" lon="7.17112">
        <ele>428.04</ele>
        <time>2020-08-19T14:04:56.000Z</time>
      </trkpt>
      <trkpt lat="48.64299" lon="7.17108">
        <ele>427.46</ele>
        <time>2020-08-19T14:04:58.000Z</time>
      </trkpt>
      <trkpt lat="48.64304" lon="7.17105">
        <ele>425.87</ele>
        <time>2020-08-19T14:05:00.000Z</time>
      </trkpt>
      <trkpt lat="48.64307" lon="7.17098">
        <ele>423.2</ele>
        <time>2020-08-19T14:05:07.000Z</time>
      </trkpt>
      <trkpt lat="48.64312" lon="7.17092">
        <ele>423.26</ele>
        <time>2020-08-19T14:05:09.000Z</time>
      </trkpt>
      <trkpt lat="48.64316" lon="7.17088">
        <ele>420.88</ele>
        <time>2020-08-19T14:05:11.000Z</time>
      </trkpt>
      <trkpt lat="48.6432" lon="7.17082">
        <ele>421.05</ele>
        <time>2020-08-19T14:05:13.000Z</time>
      </trkpt>
      <trkpt lat="48.64324" lon="7.17073">
        <ele>422.53</ele>
        <time>2020-08-19T14:05:15.000Z</time>
      </trkpt>
      <trkpt lat="48.64328" lon="7.17066">
        <ele>423.74</ele>
        <time>2020-08-19T14:05:17.000Z</time>
      </trkpt>
      <trkpt lat="48.64333" lon="7.17059">
        <ele>422.59</ele>
        <time>2020-08-19T14:05:19.000Z</time>
      </trkpt>
      <trkpt lat="48.64337" lon="7.17053">
        <ele>422.58</ele>
        <time>2020-08-19T14:05:21.000Z</time>
      </trkpt>
      <trkpt lat="48.64341" lon="7.17048">
        <ele>423.28</ele>
        <time>2020-08-19T14:05:23.000Z</time>
      </trkpt>
      <trkpt lat="48.64345" lon="7.17043">
        <ele>422.19</ele>
        <time>2020-08-19T14:05:25.000Z</time>
      </trkpt>
      <trkpt lat="48.6435" lon="7.17037">
        <ele>423.44</ele>
        <time>2020-08-19T14:05:27.000Z</time>
      </trkpt>
      <trkpt lat="48.64353" lon="7.1703">
        <ele>422.87</ele>
        <time>2020-08-19T14:05:29.000Z</time>
      </trkpt>
      <trkpt lat="48.64356" lon="7.17021">
        <ele>422.52</ele>
        <time>2020-08-19T14:05:31.000Z</time>
      </trkpt>
      <trkpt lat="48.6436" lon="7.17014">
        <ele>421.63</ele>
        <time>2020-08-19T14:05:33.000Z</time>
      </trkpt>
      <trkpt lat="48.64364" lon="7.17008">
        <ele>421.85</ele>
        <time>2020-08-19T14:05:35.000Z</time>
      </trkpt>
      <trkpt lat="48.64367" lon="7.16998">
        <ele>419.48</ele>
        <time>2020-08-19T14:05:38.000Z</time>
      </trkpt>
      <trkpt lat="48.64369" lon="7.1699">
        <ele>418.56</ele>
        <time>2020-08-19T14:05:40.000Z</time>
      </trkpt>
      <trkpt lat="48.64373" lon="7.16981">
        <ele>416.84</ele>
        <time>2020-08-19T14:05:42.000Z</time>
      </trkpt>
      <trkpt lat="48.64376" lon="7.16975">
        <ele>417.7</ele>
        <time>2020-08-19T14:05:44.000Z</time>
      </trkpt>
      <trkpt lat="48.64379" lon="7.16969">
        <ele>419.37</ele>
        <time>2020-08-19T14:05:46.000Z</time>
      </trkpt>
      <trkpt lat="48.64383" lon="7.16962">
        <ele>420.94</ele>
        <time>2020-08-19T14:05:48.000Z</time>
      </trkpt>
      <trkpt lat="48.64386" lon="7.16954">
        <ele>420.21</ele>
        <time>2020-08-19T14:05:50.000Z</time>
      </trkpt>
      <trkpt lat="48.64389" lon="7.16945">
        <ele>419.74</ele>
        <time>2020-08-19T14:05:52.000Z</time>
      </trkpt>
      <trkpt lat="48.64394" lon="7.16941">
        <ele>416.67</ele>
        <time>2020-08-19T14:06:01.000Z</time>
      </trkpt>
      <trkpt lat="48.64409" lon="7.16919">
        <ele>418.95</ele>
        <time>2020-08-19T14:06:06.000Z</time>
      </trkpt>
      <trkpt lat="48.64414" lon="7.16911">
        <ele>420.51</ele>
        <time>2020-08-19T14:06:08.000Z</time>
      </trkpt>
      <trkpt lat="48.64418" lon="7.16902">
        <ele>419.7</ele>
        <time>2020-08-19T14:06:10.000Z</time>
      </trkpt>
      <trkpt lat="48.64418" lon="7.16894">
        <ele>418.46</ele>
        <time>2020-08-19T14:06:12.000Z</time>
      </trkpt>
      <trkpt lat="48.64426" lon="7.1688">
        <ele>419.12</ele>
        <time>2020-08-19T14:06:15.000Z</time>
      </trkpt>
      <trkpt lat="48.64451" lon="7.16825">
        <ele>425.07</ele>
        <time>2020-08-19T14:06:24.000Z</time>
      </trkpt>
      <trkpt lat="48.64457" lon="7.16813">
        <ele>424.12</ele>
        <time>2020-08-19T14:06:26.000Z</time>
      </trkpt>
      <trkpt lat="48.64463" lon="7.16804">
        <ele>423.23</ele>
        <time>2020-08-19T14:06:28.000Z</time>
      </trkpt>
      <trkpt lat="48.64468" lon="7.16801">
        <ele>420.84</ele>
        <time>2020-08-19T14:06:29.000Z</time>
      </trkpt>
      <trkpt lat="48.64475" lon="7.16792">
        <ele>419.16</ele>
        <time>2020-08-19T14:06:31.000Z</time>
      </trkpt>
      <trkpt lat="48.64478" lon="7.16787">
        <ele>418.89</ele>
        <time>2020-08-19T14:06:32.000Z</time>
      </trkpt>
      <trkpt lat="48.64481" lon="7.16781">
        <ele>418.29</ele>
        <time>2020-08-19T14:06:33.000Z</time>
      </trkpt>
      <trkpt lat="48.64484" lon="7.16775">
        <ele>417.8</ele>
        <time>2020-08-19T14:06:34.000Z</time>
      </trkpt>
      <trkpt lat="48.6449" lon="7.16765">
        <ele>415.63</ele>
        <time>2020-08-19T14:06:36.000Z</time>
      </trkpt>
      <trkpt lat="48.64493" lon="7.16758">
        <ele>416.62</ele>
        <time>2020-08-19T14:06:37.000Z</time>
      </trkpt>
      <trkpt lat="48.64496" lon="7.16753">
        <ele>416.28</ele>
        <time>2020-08-19T14:06:38.000Z</time>
      </trkpt>
      <trkpt lat="48.64502" lon="7.16741">
        <ele>415.9</ele>
        <time>2020-08-19T14:06:41.000Z</time>
      </trkpt>
      <trkpt lat="48.64508" lon="7.16732">
        <ele>419.63</ele>
        <time>2020-08-19T14:06:43.000Z</time>
      </trkpt>
      <trkpt lat="48.64513" lon="7.16728">
        <ele>418.5</ele>
        <time>2020-08-19T14:06:45.000Z</time>
      </trkpt>
      <trkpt lat="48.6452" lon="7.16721">
        <ele>416.22</ele>
        <time>2020-08-19T14:06:47.000Z</time>
      </trkpt>
      <trkpt lat="48.64529" lon="7.16712">
        <ele>416.93</ele>
        <time>2020-08-19T14:06:49.000Z</time>
      </trkpt>
      <trkpt lat="48.64532" lon="7.16707">
        <ele>418.53</ele>
        <time>2020-08-19T14:06:50.000Z</time>
      </trkpt>
      <trkpt lat="48.64535" lon="7.16703">
        <ele>418.61</ele>
        <time>2020-08-19T14:06:51.000Z</time>
      </trkpt>
      <trkpt lat="48.64538" lon="7.16696">
        <ele>416.62</ele>
        <time>2020-08-19T14:06:52.000Z</time>
      </trkpt>
      <trkpt lat="48.64545" lon="7.16689">
        <ele>414.78</ele>
        <time>2020-08-19T14:06:54.000Z</time>
      </trkpt>
      <trkpt lat="48.6455" lon="7.16684">
        <ele>412.34</ele>
        <time>2020-08-19T14:06:56.000Z</time>
      </trkpt>
      <trkpt lat="48.64558" lon="7.16669">
        <ele>412.63</ele>
        <time>2020-08-19T14:06:58.000Z</time>
      </trkpt>
      <trkpt lat="48.64563" lon="7.16653">
        <ele>412.98</ele>
        <time>2020-08-19T14:07:00.000Z</time>
      </trkpt>
      <trkpt lat="48.64568" lon="7.16651">
        <ele>411.97</ele>
        <time>2020-08-19T14:07:01.000Z</time>
      </trkpt>
      <trkpt lat="48.64574" lon="7.16648">
        <ele>413.04</ele>
        <time>2020-08-19T14:07:03.000Z</time>
      </trkpt>
      <trkpt lat="48.64581" lon="7.16641">
        <ele>412.36</ele>
        <time>2020-08-19T14:07:05.000Z</time>
      </trkpt>
      <trkpt lat="48.64587" lon="7.16636">
        <ele>410.61</ele>
        <time>2020-08-19T14:07:07.000Z</time>
      </trkpt>
      <trkpt lat="48.64595" lon="7.1663">
        <ele>408.35</ele>
        <time>2020-08-19T14:07:10.000Z</time>
      </trkpt>
      <trkpt lat="48.64601" lon="7.16625">
        <ele>408.71</ele>
        <time>2020-08-19T14:07:12.000Z</time>
      </trkpt>
      <trkpt lat="48.64605" lon="7.1662">
        <ele>409.08</ele>
        <time>2020-08-19T14:07:14.000Z</time>
      </trkpt>
      <trkpt lat="48.64608" lon="7.16615">
        <ele>411.85</ele>
        <time>2020-08-19T14:07:16.000Z</time>
      </trkpt>
      <trkpt lat="48.64613" lon="7.16612">
        <ele>409.58</ele>
        <time>2020-08-19T14:07:37.000Z</time>
      </trkpt>
      <trkpt lat="48.64616" lon="7.16605">
        <ele>410.14</ele>
        <time>2020-08-19T14:07:39.000Z</time>
      </trkpt>
      <trkpt lat="48.64621" lon="7.16596">
        <ele>409.89</ele>
        <time>2020-08-19T14:07:41.000Z</time>
      </trkpt>
      <trkpt lat="48.64626" lon="7.16589">
        <ele>410.76</ele>
        <time>2020-08-19T14:07:43.000Z</time>
      </trkpt>
      <trkpt lat="48.64629" lon="7.16582">
        <ele>410.6</ele>
        <time>2020-08-19T14:07:45.000Z</time>
      </trkpt>
      <trkpt lat="48.64632" lon="7.16574">
        <ele>409.96</ele>
        <time>2020-08-19T14:07:48.000Z</time>
      </trkpt>
      <trkpt lat="48.64636" lon="7.16568">
        <ele>410.08</ele>
        <time>2020-08-19T14:07:50.000Z</time>
      </trkpt>
      <trkpt lat="48.64642" lon="7.16563">
        <ele>409.36</ele>
        <time>2020-08-19T14:07:52.000Z</time>
      </trkpt>
      <trkpt lat="48.64646" lon="7.16557">
        <ele>409.88</ele>
        <time>2020-08-19T14:07:54.000Z</time>
      </trkpt>
      <trkpt lat="48.6465" lon="7.16548">
        <ele>410.6</ele>
        <time>2020-08-19T14:07:56.000Z</time>
      </trkpt>
      <trkpt lat="48.64653" lon="7.16541">
        <ele>412.35</ele>
        <time>2020-08-19T14:07:58.000Z</time>
      </trkpt>
      <trkpt lat="48.6466" lon="7.16528">
        <ele>415.59</ele>
        <time>2020-08-19T14:08:07.000Z</time>
      </trkpt>
      <trkpt lat="48.64669" lon="7.16518">
        <ele>416.79</ele>
        <time>2020-08-19T14:08:10.000Z</time>
      </trkpt>
      <trkpt lat="48.64689" lon="7.16478">
        <ele>415.03</ele>
        <time>2020-08-19T14:08:17.000Z</time>
      </trkpt>
      <trkpt lat="48.64696" lon="7.16462">
        <ele>415.81</ele>
        <time>2020-08-19T14:08:19.000Z</time>
      </trkpt>
      <trkpt lat="48.647" lon="7.16455">
        <ele>414.98</ele>
        <time>2020-08-19T14:08:20.000Z</time>
      </trkpt>
      <trkpt lat="48.64704" lon="7.16447">
        <ele>415.25</ele>
        <time>2020-08-19T14:08:21.000Z</time>
      </trkpt>
      <trkpt lat="48.64708" lon="7.1644">
        <ele>455.18</ele>
        <time>2020-08-19T14:08:22.000Z</time>
      </trkpt>
      <trkpt lat="48.64709" lon="7.16432">
        <ele>442.11</ele>
        <time>2020-08-19T14:08:23.000Z</time>
      </trkpt>
      <trkpt lat="48.64717" lon="7.16415">
        <ele>428.01</ele>
        <time>2020-08-19T14:08:25.000Z</time>
      </trkpt>
      <trkpt lat="48.6472" lon="7.16407">
        <ele>420.18</ele>
        <time>2020-08-19T14:08:26.000Z</time>
      </trkpt>
      <trkpt lat="48.64724" lon="7.16398">
        <ele>416.32</ele>
        <time>2020-08-19T14:08:27.000Z</time>
      </trkpt>
      <trkpt lat="48.64729" lon="7.1639">
        <ele>413.75</ele>
        <time>2020-08-19T14:08:28.000Z</time>
      </trkpt>
      <trkpt lat="48.64732" lon="7.16385">
        <ele>412.2</ele>
        <time>2020-08-19T14:08:29.000Z</time>
      </trkpt>
      <trkpt lat="48.64735" lon="7.1638">
        <ele>411.29</ele>
        <time>2020-08-19T14:08:30.000Z</time>
      </trkpt>
      <trkpt lat="48.64743" lon="7.16371">
        <ele>409.04</ele>
        <time>2020-08-19T14:08:32.000Z</time>
      </trkpt>
      <trkpt lat="48.64746" lon="7.16366">
        <ele>408.67</ele>
        <time>2020-08-19T14:08:33.000Z</time>
      </trkpt>
      <trkpt lat="48.64747" lon="7.16359">
        <ele>407.1</ele>
        <time>2020-08-19T14:08:47.000Z</time>
      </trkpt>
      <trkpt lat="48.64744" lon="7.16353">
        <ele>404.63</ele>
        <time>2020-08-19T14:08:59.000Z</time>
      </trkpt>
      <trkpt lat="48.64743" lon="7.16347">
        <ele>401.12</ele>
        <time>2020-08-19T14:09:04.000Z</time>
      </trkpt>
      <trkpt lat="48.64745" lon="7.1634">
        <ele>402.59</ele>
        <time>2020-08-19T14:09:08.000Z</time>
      </trkpt>
      <trkpt lat="48.64746" lon="7.16333">
        <ele>403.78</ele>
        <time>2020-08-19T14:09:13.000Z</time>
      </trkpt>
      <trkpt lat="48.64747" lon="7.16326">
        <ele>403.75</ele>
        <time>2020-08-19T14:09:17.000Z</time>
      </trkpt>
      <trkpt lat="48.64748" lon="7.1632">
        <ele>404.61</ele>
        <time>2020-08-19T14:09:22.000Z</time>
      </trkpt>
      <trkpt lat="48.6475" lon="7.16312">
        <ele>403.95</ele>
        <time>2020-08-19T14:09:26.000Z</time>
      </trkpt>
      <trkpt lat="48.64748" lon="7.16305">
        <ele>401.71</ele>
        <time>2020-08-19T14:09:30.000Z</time>
      </trkpt>
      <trkpt lat="48.64749" lon="7.16298">
        <ele>401.08</ele>
        <time>2020-08-19T14:09:34.000Z</time>
      </trkpt>
      <trkpt lat="48.64747" lon="7.16292">
        <ele>400.7</ele>
        <time>2020-08-19T14:09:42.000Z</time>
      </trkpt>
      <trkpt lat="48.64742" lon="7.1627">
        <ele>404.31</ele>
        <time>2020-08-19T14:09:57.000Z</time>
      </trkpt>
      <trkpt lat="48.64738" lon="7.16266">
        <ele>411.22</ele>
        <time>2020-08-19T14:10:12.000Z</time>
      </trkpt>
      <trkpt lat="48.64737" lon="7.16258">
        <ele>410.95</ele>
        <time>2020-08-19T14:10:19.000Z</time>
      </trkpt>
      <trkpt lat="48.64736" lon="7.16244">
        <ele>407.23</ele>
        <time>2020-08-19T14:10:28.000Z</time>
      </trkpt>
      <trkpt lat="48.64731" lon="7.16241">
        <ele>404.93</ele>
        <time>2020-08-19T14:10:36.000Z</time>
      </trkpt>
      <trkpt lat="48.64728" lon="7.16236">
        <ele>410.47</ele>
        <time>2020-08-19T14:10:42.000Z</time>
      </trkpt>
      <trkpt lat="48.64723" lon="7.1623">
        <ele>410.7</ele>
        <time>2020-08-19T14:10:50.000Z</time>
      </trkpt>
      <trkpt lat="48.64721" lon="7.16224">
        <ele>410.28</ele>
        <time>2020-08-19T14:10:55.000Z</time>
      </trkpt>
      <trkpt lat="48.6471" lon="7.1622">
        <ele>420.35</ele>
        <time>2020-08-19T14:11:03.000Z</time>
      </trkpt>
      <trkpt lat="48.64706" lon="7.16216">
        <ele>422.31</ele>
        <time>2020-08-19T14:11:11.000Z</time>
      </trkpt>
      <trkpt lat="48.64701" lon="7.16212">
        <ele>421.95</ele>
        <time>2020-08-19T14:11:16.000Z</time>
      </trkpt>
      <trkpt lat="48.64697" lon="7.1621">
        <ele>419.57</ele>
        <time>2020-08-19T14:11:24.000Z</time>
      </trkpt>
      <trkpt lat="48.64691" lon="7.16207">
        <ele>421.19</ele>
        <time>2020-08-19T14:11:30.000Z</time>
      </trkpt>
      <trkpt lat="48.6468" lon="7.16148">
        <ele>420.39</ele>
        <time>2020-08-19T14:12:01.000Z</time>
      </trkpt>
      <trkpt lat="48.64679" lon="7.16139">
        <ele>419.46</ele>
        <time>2020-08-19T14:12:03.000Z</time>
      </trkpt>
      <trkpt lat="48.64677" lon="7.16128">
        <ele>421.12</ele>
        <time>2020-08-19T14:12:05.000Z</time>
      </trkpt>
      <trkpt lat="48.64675" lon="7.16121">
        <ele>418.89</ele>
        <time>2020-08-19T14:12:07.000Z</time>
      </trkpt>
      <trkpt lat="48.64672" lon="7.16113">
        <ele>416.43</ele>
        <time>2020-08-19T14:12:09.000Z</time>
      </trkpt>
      <trkpt lat="48.64668" lon="7.16106">
        <ele>416.11</ele>
        <time>2020-08-19T14:12:11.000Z</time>
      </trkpt>
      <trkpt lat="48.64668" lon="7.16098">
        <ele>413.25</ele>
        <time>2020-08-19T14:12:13.000Z</time>
      </trkpt>
      <trkpt lat="48.64664" lon="7.1609">
        <ele>412.52</ele>
        <time>2020-08-19T14:12:15.000Z</time>
      </trkpt>
      <trkpt lat="48.64659" lon="7.16084">
        <ele>411.91</ele>
        <time>2020-08-19T14:12:17.000Z</time>
      </trkpt>
      <trkpt lat="48.64654" lon="7.16078">
        <ele>408.7</ele>
        <time>2020-08-19T14:12:19.000Z</time>
      </trkpt>
      <trkpt lat="48.64651" lon="7.16072">
        <ele>409.16</ele>
        <time>2020-08-19T14:12:21.000Z</time>
      </trkpt>
      <trkpt lat="48.64647" lon="7.16062">
        <ele>409.29</ele>
        <time>2020-08-19T14:12:23.000Z</time>
      </trkpt>
      <trkpt lat="48.64645" lon="7.16053">
        <ele>407.65</ele>
        <time>2020-08-19T14:12:25.000Z</time>
      </trkpt>
      <trkpt lat="48.6464" lon="7.16047">
        <ele>408.84</ele>
        <time>2020-08-19T14:12:27.000Z</time>
      </trkpt>
      <trkpt lat="48.64635" lon="7.16041">
        <ele>409.38</ele>
        <time>2020-08-19T14:12:29.000Z</time>
      </trkpt>
      <trkpt lat="48.64609" lon="7.16009">
        <ele>414.83</ele>
        <time>2020-08-19T14:12:36.000Z</time>
      </trkpt>
      <trkpt lat="48.64606" lon="7.16001">
        <ele>416.71</ele>
        <time>2020-08-19T14:12:38.000Z</time>
      </trkpt>
      <trkpt lat="48.64572" lon="7.15963">
        <ele>421.53</ele>
        <time>2020-08-19T14:12:49.000Z</time>
      </trkpt>
      <trkpt lat="48.64569" lon="7.15954">
        <ele>422.51</ele>
        <time>2020-08-19T14:12:51.000Z</time>
      </trkpt>
      <trkpt lat="48.64564" lon="7.15949">
        <ele>422.65</ele>
        <time>2020-08-19T14:12:53.000Z</time>
      </trkpt>
      <trkpt lat="48.64557" lon="7.15942">
        <ele>420.46</ele>
        <time>2020-08-19T14:12:55.000Z</time>
      </trkpt>
      <trkpt lat="48.64551" lon="7.15934">
        <ele>416.14</ele>
        <time>2020-08-19T14:12:57.000Z</time>
      </trkpt>
      <trkpt lat="48.64546" lon="7.15931">
        <ele>415.01</ele>
        <time>2020-08-19T14:12:58.000Z</time>
      </trkpt>
      <trkpt lat="48.6454" lon="7.1593">
        <ele>415.79</ele>
        <time>2020-08-19T14:12:59.000Z</time>
      </trkpt>
      <trkpt lat="48.64535" lon="7.15928">
        <ele>416.21</ele>
        <time>2020-08-19T14:13:00.000Z</time>
      </trkpt>
      <trkpt lat="48.64534" lon="7.1592">
        <ele>415.08</ele>
        <time>2020-08-19T14:13:01.000Z</time>
      </trkpt>
      <trkpt lat="48.64528" lon="7.15915">
        <ele>409.31</ele>
        <time>2020-08-19T14:13:03.000Z</time>
      </trkpt>
      <trkpt lat="48.64517" lon="7.15903">
        <ele>410.13</ele>
        <time>2020-08-19T14:13:05.000Z</time>
      </trkpt>
      <trkpt lat="48.64511" lon="7.15899">
        <ele>409.83</ele>
        <time>2020-08-19T14:13:06.000Z</time>
      </trkpt>
      <trkpt lat="48.64505" lon="7.159">
        <ele>409.29</ele>
        <time>2020-08-19T14:13:07.000Z</time>
      </trkpt>
      <trkpt lat="48.645" lon="7.15895">
        <ele>411.37</ele>
        <time>2020-08-19T14:13:08.000Z</time>
      </trkpt>
      <trkpt lat="48.64496" lon="7.15892">
        <ele>411.88</ele>
        <time>2020-08-19T14:13:09.000Z</time>
      </trkpt>
      <trkpt lat="48.64491" lon="7.15889">
        <ele>411.6</ele>
        <time>2020-08-19T14:13:11.000Z</time>
      </trkpt>
      <trkpt lat="48.64484" lon="7.15887">
        <ele>411.44</ele>
        <time>2020-08-19T14:13:14.000Z</time>
      </trkpt>
      <trkpt lat="48.6448" lon="7.15889">
        <ele>410.02</ele>
        <time>2020-08-19T14:13:17.000Z</time>
      </trkpt>
      <trkpt lat="48.64475" lon="7.15889">
        <ele>408.77</ele>
        <time>2020-08-19T14:13:19.000Z</time>
      </trkpt>
      <trkpt lat="48.64472" lon="7.15883">
        <ele>412.54</ele>
        <time>2020-08-19T14:13:24.000Z</time>
      </trkpt>
      <trkpt lat="48.64466" lon="7.15879">
        <ele>410.81</ele>
        <time>2020-08-19T14:13:31.000Z</time>
      </trkpt>
      <trkpt lat="48.64459" lon="7.15878">
        <ele>409.09</ele>
        <time>2020-08-19T14:13:33.000Z</time>
      </trkpt>
      <trkpt lat="48.6445" lon="7.15877">
        <ele>409.27</ele>
        <time>2020-08-19T14:13:35.000Z</time>
      </trkpt>
      <trkpt lat="48.64441" lon="7.15878">
        <ele>407.36</ele>
        <time>2020-08-19T14:13:37.000Z</time>
      </trkpt>
      <trkpt lat="48.64436" lon="7.15878">
        <ele>407.36</ele>
        <time>2020-08-19T14:13:38.000Z</time>
      </trkpt>
      <trkpt lat="48.64432" lon="7.15878">
        <ele>406.71</ele>
        <time>2020-08-19T14:13:39.000Z</time>
      </trkpt>
      <trkpt lat="48.64423" lon="7.15876">
        <ele>405.82</ele>
        <time>2020-08-19T14:13:41.000Z</time>
      </trkpt>
      <trkpt lat="48.64414" lon="7.15877">
        <ele>405.42</ele>
        <time>2020-08-19T14:13:43.000Z</time>
      </trkpt>
      <trkpt lat="48.64406" lon="7.15875">
        <ele>410.82</ele>
        <time>2020-08-19T14:13:45.000Z</time>
      </trkpt>
      <trkpt lat="48.64399" lon="7.15878">
        <ele>411.84</ele>
        <time>2020-08-19T14:13:47.000Z</time>
      </trkpt>
      <trkpt lat="48.64391" lon="7.15881">
        <ele>413.29</ele>
        <time>2020-08-19T14:13:49.000Z</time>
      </trkpt>
      <trkpt lat="48.64382" lon="7.1588">
        <ele>410.78</ele>
        <time>2020-08-19T14:13:51.000Z</time>
      </trkpt>
      <trkpt lat="48.64377" lon="7.15878">
        <ele>411.85</ele>
        <time>2020-08-19T14:13:54.000Z</time>
      </trkpt>
      <trkpt lat="48.64373" lon="7.15879">
        <ele>409.13</ele>
        <time>2020-08-19T14:14:06.000Z</time>
      </trkpt>
      <trkpt lat="48.64367" lon="7.15878">
        <ele>408.75</ele>
        <time>2020-08-19T14:14:08.000Z</time>
      </trkpt>
      <trkpt lat="48.64362" lon="7.15876">
        <ele>408.91</ele>
        <time>2020-08-19T14:14:10.000Z</time>
      </trkpt>
      <trkpt lat="48.64357" lon="7.15876">
        <ele>409.95</ele>
        <time>2020-08-19T14:14:12.000Z</time>
      </trkpt>
      <trkpt lat="48.64352" lon="7.15878">
        <ele>409.39</ele>
        <time>2020-08-19T14:14:14.000Z</time>
      </trkpt>
      <trkpt lat="48.64346" lon="7.15881">
        <ele>408.27</ele>
        <time>2020-08-19T14:14:17.000Z</time>
      </trkpt>
      <trkpt lat="48.64339" lon="7.15881">
        <ele>409.52</ele>
        <time>2020-08-19T14:14:19.000Z</time>
      </trkpt>
      <trkpt lat="48.64331" lon="7.15881">
        <ele>409.98</ele>
        <time>2020-08-19T14:14:21.000Z</time>
      </trkpt>
      <trkpt lat="48.64323" lon="7.15881">
        <ele>411.04</ele>
        <time>2020-08-19T14:14:24.000Z</time>
      </trkpt>
      <trkpt lat="48.64315" lon="7.15881">
        <ele>409.14</ele>
        <time>2020-08-19T14:14:26.000Z</time>
      </trkpt>
      <trkpt lat="48.64311" lon="7.15881">
        <ele>410.03</ele>
        <time>2020-08-19T14:14:27.000Z</time>
      </trkpt>
      <trkpt lat="48.64288" lon="7.15886">
        <ele>409.42</ele>
        <time>2020-08-19T14:14:31.000Z</time>
      </trkpt>
      <trkpt lat="48.64282" lon="7.15894">
        <ele>409.37</ele>
        <time>2020-08-19T14:14:33.000Z</time>
      </trkpt>
      <trkpt lat="48.64276" lon="7.15899">
        <ele>407.57</ele>
        <time>2020-08-19T14:14:35.000Z</time>
      </trkpt>
      <trkpt lat="48.64272" lon="7.15901">
        <ele>408.53</ele>
        <time>2020-08-19T14:14:36.000Z</time>
      </trkpt>
      <trkpt lat="48.64267" lon="7.15904">
        <ele>407.68</ele>
        <time>2020-08-19T14:14:37.000Z</time>
      </trkpt>
      <trkpt lat="48.6426" lon="7.15907">
        <ele>407.96</ele>
        <time>2020-08-19T14:14:39.000Z</time>
      </trkpt>
      <trkpt lat="48.64254" lon="7.15908">
        <ele>408.4</ele>
        <time>2020-08-19T14:14:41.000Z</time>
      </trkpt>
      <trkpt lat="48.64247" lon="7.15909">
        <ele>406.86</ele>
        <time>2020-08-19T14:14:43.000Z</time>
      </trkpt>
      <trkpt lat="48.64236" lon="7.15919">
        <ele>407.2</ele>
        <time>2020-08-19T14:14:46.000Z</time>
      </trkpt>
      <trkpt lat="48.64224" lon="7.15932">
        <ele>403.49</ele>
        <time>2020-08-19T14:14:49.000Z</time>
      </trkpt>
      <trkpt lat="48.64213" lon="7.1594">
        <ele>403.37</ele>
        <time>2020-08-19T14:14:51.000Z</time>
      </trkpt>
      <trkpt lat="48.64208" lon="7.15945">
        <ele>402.6</ele>
        <time>2020-08-19T14:14:52.000Z</time>
      </trkpt>
      <trkpt lat="48.64204" lon="7.15952">
        <ele>401.88</ele>
        <time>2020-08-19T14:14:53.000Z</time>
      </trkpt>
      <trkpt lat="48.642" lon="7.15954">
        <ele>401.19</ele>
        <time>2020-08-19T14:14:54.000Z</time>
      </trkpt>
      <trkpt lat="48.64195" lon="7.15959">
        <ele>401.89</ele>
        <time>2020-08-19T14:14:55.000Z</time>
      </trkpt>
      <trkpt lat="48.64193" lon="7.15968">
        <ele>401.28</ele>
        <time>2020-08-19T14:14:56.000Z</time>
      </trkpt>
      <trkpt lat="48.64189" lon="7.15974">
        <ele>400.48</ele>
        <time>2020-08-19T14:14:57.000Z</time>
      </trkpt>
      <trkpt lat="48.64186" lon="7.15981">
        <ele>401.73</ele>
        <time>2020-08-19T14:14:58.000Z</time>
      </trkpt>
      <trkpt lat="48.64183" lon="7.15985">
        <ele>403.96</ele>
        <time>2020-08-19T14:14:59.000Z</time>
      </trkpt>
      <trkpt lat="48.64178" lon="7.15995">
        <ele>405.64</ele>
        <time>2020-08-19T14:15:01.000Z</time>
      </trkpt>
      <trkpt lat="48.64174" lon="7.16004">
        <ele>408.8</ele>
        <time>2020-08-19T14:15:03.000Z</time>
      </trkpt>
      <trkpt lat="48.64169" lon="7.16013">
        <ele>410.52</ele>
        <time>2020-08-19T14:15:06.000Z</time>
      </trkpt>
      <trkpt lat="48.64166" lon="7.16022">
        <ele>410.23</ele>
        <time>2020-08-19T14:15:09.000Z</time>
      </trkpt>
      <trkpt lat="48.64166" lon="7.16029">
        <ele>409.45</ele>
        <time>2020-08-19T14:15:11.000Z</time>
      </trkpt>
      <trkpt lat="48.64166" lon="7.16038">
        <ele>411.23</ele>
        <time>2020-08-19T14:15:13.000Z</time>
      </trkpt>
      <trkpt lat="48.64165" lon="7.16045">
        <ele>409.92</ele>
        <time>2020-08-19T14:15:16.000Z</time>
      </trkpt>
      <trkpt lat="48.64166" lon="7.16053">
        <ele>406.66</ele>
        <time>2020-08-19T14:15:35.000Z</time>
      </trkpt>
      <trkpt lat="48.64164" lon="7.16061">
        <ele>407.41</ele>
        <time>2020-08-19T14:15:38.000Z</time>
      </trkpt>
      <trkpt lat="48.64164" lon="7.16069">
        <ele>407.84</ele>
        <time>2020-08-19T14:15:40.000Z</time>
      </trkpt>
      <trkpt lat="48.64164" lon="7.16076">
        <ele>409.49</ele>
        <time>2020-08-19T14:15:42.000Z</time>
      </trkpt>
      <trkpt lat="48.64164" lon="7.16085">
        <ele>407.21</ele>
        <time>2020-08-19T14:15:45.000Z</time>
      </trkpt>
      <trkpt lat="48.64164" lon="7.16093">
        <ele>408.63</ele>
        <time>2020-08-19T14:16:05.000Z</time>
      </trkpt>
      <trkpt lat="48.6416" lon="7.16084">
        <ele>414.83</ele>
        <time>2020-08-19T14:16:29.000Z</time>
      </trkpt>
      <trkpt lat="48.6416" lon="7.16077">
        <ele>414.68</ele>
        <time>2020-08-19T14:16:31.000Z</time>
      </trkpt>
      <trkpt lat="48.64161" lon="7.16069">
        <ele>412.8</ele>
        <time>2020-08-19T14:16:33.000Z</time>
      </trkpt>
      <trkpt lat="48.64162" lon="7.16061">
        <ele>412.59</ele>
        <time>2020-08-19T14:16:35.000Z</time>
      </trkpt>
      <trkpt lat="48.64165" lon="7.16053">
        <ele>410.87</ele>
        <time>2020-08-19T14:16:38.000Z</time>
      </trkpt>
      <trkpt lat="48.64182" lon="7.15992">
        <ele>406.48</ele>
        <time>2020-08-19T14:16:51.000Z</time>
      </trkpt>
      <trkpt lat="48.64185" lon="7.15985">
        <ele>405.51</ele>
        <time>2020-08-19T14:16:53.000Z</time>
      </trkpt>
      <trkpt lat="48.64185" lon="7.15976">
        <ele>405.2</ele>
        <time>2020-08-19T14:16:56.000Z</time>
      </trkpt>
      <trkpt lat="48.6418" lon="7.15982">
        <ele>405.58</ele>
        <time>2020-08-19T14:16:59.000Z</time>
      </trkpt>
      <trkpt lat="48.64177" lon="7.15988">
        <ele>406.08</ele>
        <time>2020-08-19T14:17:03.000Z</time>
      </trkpt>
      <trkpt lat="48.64172" lon="7.15989">
        <ele>406.31</ele>
        <time>2020-08-19T14:17:11.000Z</time>
      </trkpt>
      <trkpt lat="48.64167" lon="7.15993">
        <ele>406.39</ele>
        <time>2020-08-19T14:17:19.000Z</time>
      </trkpt>
      <trkpt lat="48.64163" lon="7.15999">
        <ele>405.55</ele>
        <time>2020-08-19T14:17:21.000Z</time>
      </trkpt>
      <trkpt lat="48.64159" lon="7.16006">
        <ele>404.84</ele>
        <time>2020-08-19T14:17:34.000Z</time>
      </trkpt>
      <trkpt lat="48.64155" lon="7.16011">
        <ele>404.01</ele>
        <time>2020-08-19T14:17:36.000Z</time>
      </trkpt>
      <trkpt lat="48.64153" lon="7.16017">
        <ele>403.08</ele>
        <time>2020-08-19T14:17:38.000Z</time>
      </trkpt>
      <trkpt lat="48.6415" lon="7.16024">
        <ele>403.49</ele>
        <time>2020-08-19T14:17:40.000Z</time>
      </trkpt>
      <trkpt lat="48.64147" lon="7.16031">
        <ele>401.24</ele>
        <time>2020-08-19T14:17:42.000Z</time>
      </trkpt>
      <trkpt lat="48.64143" lon="7.16037">
        <ele>400.92</ele>
        <time>2020-08-19T14:17:44.000Z</time>
      </trkpt>
      <trkpt lat="48.64139" lon="7.16042">
        <ele>399.96</ele>
        <time>2020-08-19T14:17:46.000Z</time>
      </trkpt>
      <trkpt lat="48.64134" lon="7.16047">
        <ele>400.89</ele>
        <time>2020-08-19T14:17:48.000Z</time>
      </trkpt>
      <trkpt lat="48.64129" lon="7.16052">
        <ele>400.34</ele>
        <time>2020-08-19T14:17:50.000Z</time>
      </trkpt>
      <trkpt lat="48.64123" lon="7.1606">
        <ele>399.32</ele>
        <time>2020-08-19T14:17:52.000Z</time>
      </trkpt>
      <trkpt lat="48.64117" lon="7.16068">
        <ele>399.64</ele>
        <time>2020-08-19T14:17:54.000Z</time>
      </trkpt>
      <trkpt lat="48.64112" lon="7.16071">
        <ele>400.66</ele>
        <time>2020-08-19T14:17:55.000Z</time>
      </trkpt>
      <trkpt lat="48.64105" lon="7.16078">
        <ele>398.54</ele>
        <time>2020-08-19T14:17:57.000Z</time>
      </trkpt>
      <trkpt lat="48.64101" lon="7.16082">
        <ele>397.91</ele>
        <time>2020-08-19T14:17:58.000Z</time>
      </trkpt>
      <trkpt lat="48.64092" lon="7.16088">
        <ele>398.17</ele>
        <time>2020-08-19T14:18:00.000Z</time>
      </trkpt>
      <trkpt lat="48.64087" lon="7.1609">
        <ele>396.32</ele>
        <time>2020-08-19T14:18:01.000Z</time>
      </trkpt>
      <trkpt lat="48.6408" lon="7.16092">
        <ele>396.82</ele>
        <time>2020-08-19T14:18:03.000Z</time>
      </trkpt>
      <trkpt lat="48.64072" lon="7.16094">
        <ele>397.66</ele>
        <time>2020-08-19T14:18:05.000Z</time>
      </trkpt>
      <trkpt lat="48.64068" lon="7.16094">
        <ele>397.17</ele>
        <time>2020-08-19T14:18:06.000Z</time>
      </trkpt>
      <trkpt lat="48.6406" lon="7.16096">
        <ele>397.86</ele>
        <time>2020-08-19T14:18:08.000Z</time>
      </trkpt>
      <trkpt lat="48.64053" lon="7.16096">
        <ele>397.78</ele>
        <time>2020-08-19T14:18:10.000Z</time>
      </trkpt>
      <trkpt lat="48.64046" lon="7.16096">
        <ele>398.8</ele>
        <time>2020-08-19T14:18:12.000Z</time>
      </trkpt>
      <trkpt lat="48.64039" lon="7.16096">
        <ele>399.11</ele>
        <time>2020-08-19T14:18:14.000Z</time>
      </trkpt>
      <trkpt lat="48.64033" lon="7.16095">
        <ele>399.54</ele>
        <time>2020-08-19T14:18:16.000Z</time>
      </trkpt>
      <trkpt lat="48.64026" lon="7.16094">
        <ele>400.12</ele>
        <time>2020-08-19T14:18:18.000Z</time>
      </trkpt>
      <trkpt lat="48.6402" lon="7.16093">
        <ele>400.79</ele>
        <time>2020-08-19T14:18:20.000Z</time>
      </trkpt>
      <trkpt lat="48.64013" lon="7.16094">
        <ele>401.68</ele>
        <time>2020-08-19T14:18:22.000Z</time>
      </trkpt>
      <trkpt lat="48.64006" lon="7.16093">
        <ele>401.85</ele>
        <time>2020-08-19T14:18:24.000Z</time>
      </trkpt>
      <trkpt lat="48.64" lon="7.16093">
        <ele>400.97</ele>
        <time>2020-08-19T14:18:26.000Z</time>
      </trkpt>
      <trkpt lat="48.63994" lon="7.16092">
        <ele>401.54</ele>
        <time>2020-08-19T14:18:28.000Z</time>
      </trkpt>
      <trkpt lat="48.63988" lon="7.16092">
        <ele>401.95</ele>
        <time>2020-08-19T14:18:30.000Z</time>
      </trkpt>
      <trkpt lat="48.63981" lon="7.16091">
        <ele>402.45</ele>
        <time>2020-08-19T14:18:32.000Z</time>
      </trkpt>
      <trkpt lat="48.63975" lon="7.16092">
        <ele>403.5</ele>
        <time>2020-08-19T14:18:34.000Z</time>
      </trkpt>
      <trkpt lat="48.63969" lon="7.16092">
        <ele>404.47</ele>
        <time>2020-08-19T14:18:36.000Z</time>
      </trkpt>
      <trkpt lat="48.63962" lon="7.16092">
        <ele>404.86</ele>
        <time>2020-08-19T14:18:38.000Z</time>
      </trkpt>
      <trkpt lat="48.63956" lon="7.16092">
        <ele>404.24</ele>
        <time>2020-08-19T14:18:40.000Z</time>
      </trkpt>
      <trkpt lat="48.63949" lon="7.16092">
        <ele>403.68</ele>
        <time>2020-08-19T14:18:42.000Z</time>
      </trkpt>
      <trkpt lat="48.63942" lon="7.16091">
        <ele>403.97</ele>
        <time>2020-08-19T14:18:44.000Z</time>
      </trkpt>
      <trkpt lat="48.63935" lon="7.16089">
        <ele>403.8</ele>
        <time>2020-08-19T14:18:46.000Z</time>
      </trkpt>
      <trkpt lat="48.6393" lon="7.16089">
        <ele>404.07</ele>
        <time>2020-08-19T14:18:48.000Z</time>
      </trkpt>
      <trkpt lat="48.63923" lon="7.16089">
        <ele>403.91</ele>
        <time>2020-08-19T14:18:50.000Z</time>
      </trkpt>
      <trkpt lat="48.63917" lon="7.1609">
        <ele>404.47</ele>
        <time>2020-08-19T14:18:53.000Z</time>
      </trkpt>
      <trkpt lat="48.63912" lon="7.16088">
        <ele>403.5</ele>
        <time>2020-08-19T14:18:55.000Z</time>
      </trkpt>
      <trkpt lat="48.63908" lon="7.16087">
        <ele>407.79</ele>
        <time>2020-08-19T14:19:26.000Z</time>
      </trkpt>
      <trkpt lat="48.63903" lon="7.16082">
        <ele>413.08</ele>
        <time>2020-08-19T14:20:08.000Z</time>
      </trkpt>
      <trkpt lat="48.63897" lon="7.16081">
        <ele>408.44</ele>
        <time>2020-08-19T14:20:12.000Z</time>
      </trkpt>
      <trkpt lat="48.63892" lon="7.16081">
        <ele>408.86</ele>
        <time>2020-08-19T14:20:14.000Z</time>
      </trkpt>
      <trkpt lat="48.63886" lon="7.16079">
        <ele>407.54</ele>
        <time>2020-08-19T14:20:16.000Z</time>
      </trkpt>
      <trkpt lat="48.63881" lon="7.16077">
        <ele>406.09</ele>
        <time>2020-08-19T14:20:18.000Z</time>
      </trkpt>
      <trkpt lat="48.63875" lon="7.16077">
        <ele>399.15</ele>
        <time>2020-08-19T14:20:21.000Z</time>
      </trkpt>
      <trkpt lat="48.63869" lon="7.16077">
        <ele>397.56</ele>
        <time>2020-08-19T14:20:23.000Z</time>
      </trkpt>
      <trkpt lat="48.63863" lon="7.16075">
        <ele>399.57</ele>
        <time>2020-08-19T14:20:25.000Z</time>
      </trkpt>
      <trkpt lat="48.63848" lon="7.1607">
        <ele>401.1</ele>
        <time>2020-08-19T14:20:28.000Z</time>
      </trkpt>
      <trkpt lat="48.63843" lon="7.1607">
        <ele>399.85</ele>
        <time>2020-08-19T14:20:30.000Z</time>
      </trkpt>
      <trkpt lat="48.63837" lon="7.16069">
        <ele>398.31</ele>
        <time>2020-08-19T14:20:31.000Z</time>
      </trkpt>
      <trkpt lat="48.63831" lon="7.16066">
        <ele>399.75</ele>
        <time>2020-08-19T14:20:33.000Z</time>
      </trkpt>
      <trkpt lat="48.63822" lon="7.16065">
        <ele>398.14</ele>
        <time>2020-08-19T14:20:35.000Z</time>
      </trkpt>
      <trkpt lat="48.63814" lon="7.16063">
        <ele>400.92</ele>
        <time>2020-08-19T14:20:37.000Z</time>
      </trkpt>
      <trkpt lat="48.63806" lon="7.16061">
        <ele>402.1</ele>
        <time>2020-08-19T14:20:39.000Z</time>
      </trkpt>
      <trkpt lat="48.63799" lon="7.16061">
        <ele>401.79</ele>
        <time>2020-08-19T14:20:41.000Z</time>
      </trkpt>
      <trkpt lat="48.63791" lon="7.16063">
        <ele>403.04</ele>
        <time>2020-08-19T14:20:43.000Z</time>
      </trkpt>
      <trkpt lat="48.63783" lon="7.16063">
        <ele>401.76</ele>
        <time>2020-08-19T14:20:45.000Z</time>
      </trkpt>
      <trkpt lat="48.63776" lon="7.16064">
        <ele>402.26</ele>
        <time>2020-08-19T14:20:47.000Z</time>
      </trkpt>
      <trkpt lat="48.63768" lon="7.16065">
        <ele>403.21</ele>
        <time>2020-08-19T14:20:49.000Z</time>
      </trkpt>
      <trkpt lat="48.63761" lon="7.16066">
        <ele>404.72</ele>
        <time>2020-08-19T14:20:51.000Z</time>
      </trkpt>
      <trkpt lat="48.63754" lon="7.16067">
        <ele>405.83</ele>
        <time>2020-08-19T14:20:53.000Z</time>
      </trkpt>
      <trkpt lat="48.63746" lon="7.16069">
        <ele>407.21</ele>
        <time>2020-08-19T14:20:55.000Z</time>
      </trkpt>
      <trkpt lat="48.6374" lon="7.16071">
        <ele>407.78</ele>
        <time>2020-08-19T14:20:57.000Z</time>
      </trkpt>
      <trkpt lat="48.63733" lon="7.16076">
        <ele>408.03</ele>
        <time>2020-08-19T14:20:59.000Z</time>
      </trkpt>
      <trkpt lat="48.63726" lon="7.1608">
        <ele>409.04</ele>
        <time>2020-08-19T14:21:01.000Z</time>
      </trkpt>
      <trkpt lat="48.6372" lon="7.16085">
        <ele>411.57</ele>
        <time>2020-08-19T14:21:03.000Z</time>
      </trkpt>
      <trkpt lat="48.63713" lon="7.1609">
        <ele>412.6</ele>
        <time>2020-08-19T14:21:05.000Z</time>
      </trkpt>
      <trkpt lat="48.63707" lon="7.16095">
        <ele>412.99</ele>
        <time>2020-08-19T14:21:07.000Z</time>
      </trkpt>
      <trkpt lat="48.63701" lon="7.161">
        <ele>410.48</ele>
        <time>2020-08-19T14:21:09.000Z</time>
      </trkpt>
      <trkpt lat="48.63694" lon="7.16106">
        <ele>410.62</ele>
        <time>2020-08-19T14:21:11.000Z</time>
      </trkpt>
      <trkpt lat="48.63686" lon="7.16113">
        <ele>410.13</ele>
        <time>2020-08-19T14:21:13.000Z</time>
      </trkpt>
      <trkpt lat="48.63682" lon="7.16116">
        <ele>409.97</ele>
        <time>2020-08-19T14:21:14.000Z</time>
      </trkpt>
      <trkpt lat="48.63678" lon="7.16121">
        <ele>409.36</ele>
        <time>2020-08-19T14:21:15.000Z</time>
      </trkpt>
      <trkpt lat="48.63674" lon="7.16126">
        <ele>409.83</ele>
        <time>2020-08-19T14:21:16.000Z</time>
      </trkpt>
      <trkpt lat="48.63669" lon="7.16133">
        <ele>409.68</ele>
        <time>2020-08-19T14:21:17.000Z</time>
      </trkpt>
      <trkpt lat="48.63665" lon="7.16139">
        <ele>409.47</ele>
        <time>2020-08-19T14:21:18.000Z</time>
      </trkpt>
      <trkpt lat="48.63661" lon="7.16147">
        <ele>409.25</ele>
        <time>2020-08-19T14:21:19.000Z</time>
      </trkpt>
      <trkpt lat="48.63657" lon="7.16153">
        <ele>408.43</ele>
        <time>2020-08-19T14:21:20.000Z</time>
      </trkpt>
      <trkpt lat="48.63652" lon="7.16159">
        <ele>409.04</ele>
        <time>2020-08-19T14:21:21.000Z</time>
      </trkpt>
      <trkpt lat="48.63648" lon="7.16164">
        <ele>408.33</ele>
        <time>2020-08-19T14:21:22.000Z</time>
      </trkpt>
      <trkpt lat="48.63643" lon="7.16169">
        <ele>407.37</ele>
        <time>2020-08-19T14:21:23.000Z</time>
      </trkpt>
      <trkpt lat="48.63638" lon="7.16175">
        <ele>408.18</ele>
        <time>2020-08-19T14:21:24.000Z</time>
      </trkpt>
      <trkpt lat="48.63633" lon="7.16179">
        <ele>408.82</ele>
        <time>2020-08-19T14:21:25.000Z</time>
      </trkpt>
      <trkpt lat="48.63627" lon="7.16183">
        <ele>409.46</ele>
        <time>2020-08-19T14:21:26.000Z</time>
      </trkpt>
      <trkpt lat="48.63622" lon="7.16185">
        <ele>409.8</ele>
        <time>2020-08-19T14:21:27.000Z</time>
      </trkpt>
      <trkpt lat="48.63617" lon="7.16192">
        <ele>411.42</ele>
        <time>2020-08-19T14:21:29.000Z</time>
      </trkpt>
      <trkpt lat="48.63623" lon="7.16186">
        <ele>410.47</ele>
        <time>2020-08-19T14:21:45.000Z</time>
      </trkpt>
      <trkpt lat="48.63629" lon="7.16176">
        <ele>411.88</ele>
        <time>2020-08-19T14:21:47.000Z</time>
      </trkpt>
      <trkpt lat="48.63632" lon="7.1617">
        <ele>412.75</ele>
        <time>2020-08-19T14:21:48.000Z</time>
      </trkpt>
      <trkpt lat="48.63636" lon="7.16165">
        <ele>413.32</ele>
        <time>2020-08-19T14:21:49.000Z</time>
      </trkpt>
      <trkpt lat="48.6364" lon="7.16158">
        <ele>412.41</ele>
        <time>2020-08-19T14:21:50.000Z</time>
      </trkpt>
      <trkpt lat="48.63644" lon="7.16151">
        <ele>411.28</ele>
        <time>2020-08-19T14:21:51.000Z</time>
      </trkpt>
      <trkpt lat="48.63649" lon="7.16144">
        <ele>412.03</ele>
        <time>2020-08-19T14:21:52.000Z</time>
      </trkpt>
      <trkpt lat="48.63654" lon="7.16136">
        <ele>412.9</ele>
        <time>2020-08-19T14:21:53.000Z</time>
      </trkpt>
      <trkpt lat="48.63658" lon="7.16128">
        <ele>413</ele>
        <time>2020-08-19T14:21:54.000Z</time>
      </trkpt>
      <trkpt lat="48.63663" lon="7.1612">
        <ele>411.67</ele>
        <time>2020-08-19T14:21:55.000Z</time>
      </trkpt>
      <trkpt lat="48.63665" lon="7.16107">
        <ele>412.24</ele>
        <time>2020-08-19T14:21:56.000Z</time>
      </trkpt>
      <trkpt lat="48.63668" lon="7.16095">
        <ele>410.87</ele>
        <time>2020-08-19T14:21:57.000Z</time>
      </trkpt>
      <trkpt lat="48.6367" lon="7.16083">
        <ele>409.97</ele>
        <time>2020-08-19T14:21:58.000Z</time>
      </trkpt>
      <trkpt lat="48.63671" lon="7.16068">
        <ele>409.59</ele>
        <time>2020-08-19T14:21:59.000Z</time>
      </trkpt>
      <trkpt lat="48.63671" lon="7.16056">
        <ele>408.61</ele>
        <time>2020-08-19T14:22:00.000Z</time>
      </trkpt>
      <trkpt lat="48.63672" lon="7.1604">
        <ele>407.13</ele>
        <time>2020-08-19T14:22:01.000Z</time>
      </trkpt>
      <trkpt lat="48.63674" lon="7.1603">
        <ele>406.64</ele>
        <time>2020-08-19T14:22:02.000Z</time>
      </trkpt>
      <trkpt lat="48.63676" lon="7.16018">
        <ele>406.62</ele>
        <time>2020-08-19T14:22:03.000Z</time>
      </trkpt>
      <trkpt lat="48.63679" lon="7.16006">
        <ele>407.05</ele>
        <time>2020-08-19T14:22:04.000Z</time>
      </trkpt>
      <trkpt lat="48.63681" lon="7.15996">
        <ele>407.42</ele>
        <time>2020-08-19T14:22:05.000Z</time>
      </trkpt>
      <trkpt lat="48.63686" lon="7.15985">
        <ele>407.69</ele>
        <time>2020-08-19T14:22:06.000Z</time>
      </trkpt>
      <trkpt lat="48.6369" lon="7.15975">
        <ele>406.85</ele>
        <time>2020-08-19T14:22:07.000Z</time>
      </trkpt>
      <trkpt lat="48.63693" lon="7.15963">
        <ele>406.71</ele>
        <time>2020-08-19T14:22:08.000Z</time>
      </trkpt>
      <trkpt lat="48.63697" lon="7.15953">
        <ele>408.04</ele>
        <time>2020-08-19T14:22:09.000Z</time>
      </trkpt>
      <trkpt lat="48.63702" lon="7.15944">
        <ele>408.31</ele>
        <time>2020-08-19T14:22:10.000Z</time>
      </trkpt>
      <trkpt lat="48.63706" lon="7.15935">
        <ele>407.75</ele>
        <time>2020-08-19T14:22:11.000Z</time>
      </trkpt>
      <trkpt lat="48.63709" lon="7.15925">
        <ele>407.4</ele>
        <time>2020-08-19T14:22:12.000Z</time>
      </trkpt>
      <trkpt lat="48.63713" lon="7.15916">
        <ele>406.07</ele>
        <time>2020-08-19T14:22:13.000Z</time>
      </trkpt>
      <trkpt lat="48.63717" lon="7.15907">
        <ele>405.66</ele>
        <time>2020-08-19T14:22:14.000Z</time>
      </trkpt>
      <trkpt lat="48.63721" lon="7.15899">
        <ele>405.62</ele>
        <time>2020-08-19T14:22:15.000Z</time>
      </trkpt>
      <trkpt lat="48.63724" lon="7.15893">
        <ele>404.29</ele>
        <time>2020-08-19T14:22:16.000Z</time>
      </trkpt>
      <trkpt lat="48.63727" lon="7.15888">
        <ele>406.4</ele>
        <time>2020-08-19T14:22:17.000Z</time>
      </trkpt>
      <trkpt lat="48.63729" lon="7.15882">
        <ele>406.34</ele>
        <time>2020-08-19T14:22:19.000Z</time>
      </trkpt>
      <trkpt lat="48.63723" lon="7.15879">
        <ele>406.17</ele>
        <time>2020-08-19T14:22:40.000Z</time>
      </trkpt>
      <trkpt lat="48.63716" lon="7.15879">
        <ele>406.67</ele>
        <time>2020-08-19T14:22:43.000Z</time>
      </trkpt>
      <trkpt lat="48.6371" lon="7.1588">
        <ele>404.96</ele>
        <time>2020-08-19T14:22:45.000Z</time>
      </trkpt>
      <trkpt lat="48.63703" lon="7.15883">
        <ele>404.82</ele>
        <time>2020-08-19T14:22:47.000Z</time>
      </trkpt>
      <trkpt lat="48.63698" lon="7.15884">
        <ele>403.42</ele>
        <time>2020-08-19T14:22:49.000Z</time>
      </trkpt>
      <trkpt lat="48.63693" lon="7.15886">
        <ele>404.75</ele>
        <time>2020-08-19T14:22:51.000Z</time>
      </trkpt>
      <trkpt lat="48.63685" lon="7.15888">
        <ele>404.2</ele>
        <time>2020-08-19T14:22:53.000Z</time>
      </trkpt>
      <trkpt lat="48.6368" lon="7.15891">
        <ele>403.56</ele>
        <time>2020-08-19T14:22:54.000Z</time>
      </trkpt>
      <trkpt lat="48.63673" lon="7.15897">
        <ele>403.85</ele>
        <time>2020-08-19T14:22:56.000Z</time>
      </trkpt>
      <trkpt lat="48.63669" lon="7.15901">
        <ele>403.85</ele>
        <time>2020-08-19T14:22:57.000Z</time>
      </trkpt>
      <trkpt lat="48.63664" lon="7.15904">
        <ele>403.99</ele>
        <time>2020-08-19T14:22:58.000Z</time>
      </trkpt>
      <trkpt lat="48.63657" lon="7.15909">
        <ele>403.22</ele>
        <time>2020-08-19T14:23:00.000Z</time>
      </trkpt>
      <trkpt lat="48.63652" lon="7.15913">
        <ele>404.26</ele>
        <time>2020-08-19T14:23:01.000Z</time>
      </trkpt>
      <trkpt lat="48.63644" lon="7.15919">
        <ele>403.93</ele>
        <time>2020-08-19T14:23:03.000Z</time>
      </trkpt>
      <trkpt lat="48.6364" lon="7.15922">
        <ele>403.43</ele>
        <time>2020-08-19T14:23:04.000Z</time>
      </trkpt>
      <trkpt lat="48.63636" lon="7.15926">
        <ele>404.04</ele>
        <time>2020-08-19T14:23:05.000Z</time>
      </trkpt>
      <trkpt lat="48.63632" lon="7.1593">
        <ele>403.48</ele>
        <time>2020-08-19T14:23:06.000Z</time>
      </trkpt>
      <trkpt lat="48.63624" lon="7.15938">
        <ele>403.81</ele>
        <time>2020-08-19T14:23:08.000Z</time>
      </trkpt>
      <trkpt lat="48.6362" lon="7.15942">
        <ele>403.72</ele>
        <time>2020-08-19T14:23:09.000Z</time>
      </trkpt>
      <trkpt lat="48.63616" lon="7.15948">
        <ele>404.09</ele>
        <time>2020-08-19T14:23:10.000Z</time>
      </trkpt>
      <trkpt lat="48.6361" lon="7.15956">
        <ele>405.03</ele>
        <time>2020-08-19T14:23:12.000Z</time>
      </trkpt>
      <trkpt lat="48.63605" lon="7.15959">
        <ele>405.29</ele>
        <time>2020-08-19T14:23:13.000Z</time>
      </trkpt>
      <trkpt lat="48.63598" lon="7.15967">
        <ele>406.2</ele>
        <time>2020-08-19T14:23:15.000Z</time>
      </trkpt>
      <trkpt lat="48.63594" lon="7.15972">
        <ele>406.42</ele>
        <time>2020-08-19T14:23:16.000Z</time>
      </trkpt>
      <trkpt lat="48.63586" lon="7.15978">
        <ele>406.44</ele>
        <time>2020-08-19T14:23:18.000Z</time>
      </trkpt>
      <trkpt lat="48.6358" lon="7.15984">
        <ele>407.48</ele>
        <time>2020-08-19T14:23:20.000Z</time>
      </trkpt>
      <trkpt lat="48.63572" lon="7.15992">
        <ele>410.44</ele>
        <time>2020-08-19T14:23:22.000Z</time>
      </trkpt>
      <trkpt lat="48.63568" lon="7.15996">
        <ele>410.09</ele>
        <time>2020-08-19T14:23:23.000Z</time>
      </trkpt>
      <trkpt lat="48.63562" lon="7.16002">
        <ele>408.76</ele>
        <time>2020-08-19T14:23:25.000Z</time>
      </trkpt>
      <trkpt lat="48.63558" lon="7.16006">
        <ele>409.14</ele>
        <time>2020-08-19T14:23:26.000Z</time>
      </trkpt>
      <trkpt lat="48.63554" lon="7.1601">
        <ele>407.87</ele>
        <time>2020-08-19T14:23:28.000Z</time>
      </trkpt>
      <trkpt lat="48.63548" lon="7.16015">
        <ele>408.43</ele>
        <time>2020-08-19T14:23:29.000Z</time>
      </trkpt>
      <trkpt lat="48.63543" lon="7.16018">
        <ele>408.93</ele>
        <time>2020-08-19T14:23:30.000Z</time>
      </trkpt>
      <trkpt lat="48.63528" lon="7.16026">
        <ele>407.02</ele>
        <time>2020-08-19T14:23:33.000Z</time>
      </trkpt>
      <trkpt lat="48.63521" lon="7.16032">
        <ele>407.3</ele>
        <time>2020-08-19T14:23:35.000Z</time>
      </trkpt>
      <trkpt lat="48.63517" lon="7.16035">
        <ele>406.27</ele>
        <time>2020-08-19T14:23:36.000Z</time>
      </trkpt>
      <trkpt lat="48.63512" lon="7.16036">
        <ele>406.62</ele>
        <time>2020-08-19T14:23:37.000Z</time>
      </trkpt>
      <trkpt lat="48.63504" lon="7.16043">
        <ele>404.29</ele>
        <time>2020-08-19T14:23:39.000Z</time>
      </trkpt>
      <trkpt lat="48.635" lon="7.16048">
        <ele>401.65</ele>
        <time>2020-08-19T14:23:40.000Z</time>
      </trkpt>
      <trkpt lat="48.63496" lon="7.16052">
        <ele>401.26</ele>
        <time>2020-08-19T14:23:41.000Z</time>
      </trkpt>
      <trkpt lat="48.63491" lon="7.16056">
        <ele>402.09</ele>
        <time>2020-08-19T14:23:42.000Z</time>
      </trkpt>
      <trkpt lat="48.63484" lon="7.16064">
        <ele>402.26</ele>
        <time>2020-08-19T14:23:44.000Z</time>
      </trkpt>
      <trkpt lat="48.6348" lon="7.16068">
        <ele>402.49</ele>
        <time>2020-08-19T14:23:45.000Z</time>
      </trkpt>
      <trkpt lat="48.63476" lon="7.16073">
        <ele>401.84</ele>
        <time>2020-08-19T14:23:46.000Z</time>
      </trkpt>
      <trkpt lat="48.63471" lon="7.16076">
        <ele>401.38</ele>
        <time>2020-08-19T14:23:47.000Z</time>
      </trkpt>
      <trkpt lat="48.63464" lon="7.16081">
        <ele>400.12</ele>
        <time>2020-08-19T14:23:49.000Z</time>
      </trkpt>
      <trkpt lat="48.63456" lon="7.16084">
        <ele>399.58</ele>
        <time>2020-08-19T14:23:51.000Z</time>
      </trkpt>
      <trkpt lat="48.63451" lon="7.16093">
        <ele>403.64</ele>
        <time>2020-08-19T14:23:53.000Z</time>
      </trkpt>
      <trkpt lat="48.63442" lon="7.16097">
        <ele>401.25</ele>
        <time>2020-08-19T14:23:55.000Z</time>
      </trkpt>
      <trkpt lat="48.63436" lon="7.16099">
        <ele>398.09</ele>
        <time>2020-08-19T14:23:57.000Z</time>
      </trkpt>
      <trkpt lat="48.63429" lon="7.16103">
        <ele>396.43</ele>
        <time>2020-08-19T14:23:59.000Z</time>
      </trkpt>
      <trkpt lat="48.63422" lon="7.16109">
        <ele>397.69</ele>
        <time>2020-08-19T14:24:01.000Z</time>
      </trkpt>
      <trkpt lat="48.63419" lon="7.16113">
        <ele>397.45</ele>
        <time>2020-08-19T14:24:02.000Z</time>
      </trkpt>
      <trkpt lat="48.63414" lon="7.16118">
        <ele>396.68</ele>
        <time>2020-08-19T14:24:04.000Z</time>
      </trkpt>
      <trkpt lat="48.63409" lon="7.16123">
        <ele>397.54</ele>
        <time>2020-08-19T14:24:06.000Z</time>
      </trkpt>
      <trkpt lat="48.63404" lon="7.16128">
        <ele>400.22</ele>
        <time>2020-08-19T14:24:08.000Z</time>
      </trkpt>
      <trkpt lat="48.63399" lon="7.16133">
        <ele>401.87</ele>
        <time>2020-08-19T14:24:10.000Z</time>
      </trkpt>
      <trkpt lat="48.63394" lon="7.16137">
        <ele>403.2</ele>
        <time>2020-08-19T14:24:12.000Z</time>
      </trkpt>
      <trkpt lat="48.63383" lon="7.16151">
        <ele>407.17</ele>
        <time>2020-08-19T14:24:15.000Z</time>
      </trkpt>
      <trkpt lat="48.63378" lon="7.16154">
        <ele>406.83</ele>
        <time>2020-08-19T14:24:16.000Z</time>
      </trkpt>
      <trkpt lat="48.63374" lon="7.16158">
        <ele>406.83</ele>
        <time>2020-08-19T14:24:17.000Z</time>
      </trkpt>
      <trkpt lat="48.6337" lon="7.16161">
        <ele>407.15</ele>
        <time>2020-08-19T14:24:18.000Z</time>
      </trkpt>
      <trkpt lat="48.63365" lon="7.16163">
        <ele>406.82</ele>
        <time>2020-08-19T14:24:19.000Z</time>
      </trkpt>
      <trkpt lat="48.6336" lon="7.16166">
        <ele>407.05</ele>
        <time>2020-08-19T14:24:20.000Z</time>
      </trkpt>
      <trkpt lat="48.63352" lon="7.16173">
        <ele>408.16</ele>
        <time>2020-08-19T14:24:22.000Z</time>
      </trkpt>
      <trkpt lat="48.63344" lon="7.16178">
        <ele>409.35</ele>
        <time>2020-08-19T14:24:24.000Z</time>
      </trkpt>
      <trkpt lat="48.63337" lon="7.16182">
        <ele>409.63</ele>
        <time>2020-08-19T14:24:26.000Z</time>
      </trkpt>
      <trkpt lat="48.63333" lon="7.16184">
        <ele>410.48</ele>
        <time>2020-08-19T14:24:27.000Z</time>
      </trkpt>
      <trkpt lat="48.63326" lon="7.16186">
        <ele>411.46</ele>
        <time>2020-08-19T14:24:29.000Z</time>
      </trkpt>
      <trkpt lat="48.6332" lon="7.16189">
        <ele>411.31</ele>
        <time>2020-08-19T14:24:31.000Z</time>
      </trkpt>
      <trkpt lat="48.63314" lon="7.16193">
        <ele>409.07</ele>
        <time>2020-08-19T14:24:33.000Z</time>
      </trkpt>
      <trkpt lat="48.6331" lon="7.16198">
        <ele>410.66</ele>
        <time>2020-08-19T14:24:34.000Z</time>
      </trkpt>
      <trkpt lat="48.63302" lon="7.16201">
        <ele>410.63</ele>
        <time>2020-08-19T14:24:36.000Z</time>
      </trkpt>
      <trkpt lat="48.63294" lon="7.16205">
        <ele>409.91</ele>
        <time>2020-08-19T14:24:38.000Z</time>
      </trkpt>
      <trkpt lat="48.63286" lon="7.16209">
        <ele>411.43</ele>
        <time>2020-08-19T14:24:40.000Z</time>
      </trkpt>
      <trkpt lat="48.63278" lon="7.16214">
        <ele>413.3</ele>
        <time>2020-08-19T14:24:42.000Z</time>
      </trkpt>
      <trkpt lat="48.63272" lon="7.16218">
        <ele>414.99</ele>
        <time>2020-08-19T14:24:44.000Z</time>
      </trkpt>
      <trkpt lat="48.63266" lon="7.16223">
        <ele>415.52</ele>
        <time>2020-08-19T14:24:46.000Z</time>
      </trkpt>
      <trkpt lat="48.63259" lon="7.16229">
        <ele>415.14</ele>
        <time>2020-08-19T14:24:48.000Z</time>
      </trkpt>
      <trkpt lat="48.63252" lon="7.16234">
        <ele>413.21</ele>
        <time>2020-08-19T14:24:50.000Z</time>
      </trkpt>
      <trkpt lat="48.63246" lon="7.16239">
        <ele>411.71</ele>
        <time>2020-08-19T14:24:52.000Z</time>
      </trkpt>
      <trkpt lat="48.63239" lon="7.16244">
        <ele>411.17</ele>
        <time>2020-08-19T14:24:54.000Z</time>
      </trkpt>
      <trkpt lat="48.63233" lon="7.1625">
        <ele>413.94</ele>
        <time>2020-08-19T14:24:56.000Z</time>
      </trkpt>
      <trkpt lat="48.63226" lon="7.16256">
        <ele>413.87</ele>
        <time>2020-08-19T14:24:58.000Z</time>
      </trkpt>
      <trkpt lat="48.6322" lon="7.16261">
        <ele>416.21</ele>
        <time>2020-08-19T14:25:00.000Z</time>
      </trkpt>
      <trkpt lat="48.63215" lon="7.16264">
        <ele>415.7</ele>
        <time>2020-08-19T14:25:02.000Z</time>
      </trkpt>
      <trkpt lat="48.63208" lon="7.16269">
        <ele>414.87</ele>
        <time>2020-08-19T14:25:04.000Z</time>
      </trkpt>
      <trkpt lat="48.63201" lon="7.16275">
        <ele>413.78</ele>
        <time>2020-08-19T14:25:06.000Z</time>
      </trkpt>
      <trkpt lat="48.63194" lon="7.16279">
        <ele>412.77</ele>
        <time>2020-08-19T14:25:08.000Z</time>
      </trkpt>
      <trkpt lat="48.63187" lon="7.16285">
        <ele>416.03</ele>
        <time>2020-08-19T14:25:10.000Z</time>
      </trkpt>
      <trkpt lat="48.63181" lon="7.16291">
        <ele>416.34</ele>
        <time>2020-08-19T14:25:12.000Z</time>
      </trkpt>
      <trkpt lat="48.63175" lon="7.16296">
        <ele>417.37</ele>
        <time>2020-08-19T14:25:14.000Z</time>
      </trkpt>
      <trkpt lat="48.63169" lon="7.16303">
        <ele>418.47</ele>
        <time>2020-08-19T14:25:16.000Z</time>
      </trkpt>
      <trkpt lat="48.63163" lon="7.16308">
        <ele>419.06</ele>
        <time>2020-08-19T14:25:18.000Z</time>
      </trkpt>
      <trkpt lat="48.63157" lon="7.16312">
        <ele>420.36</ele>
        <time>2020-08-19T14:25:20.000Z</time>
      </trkpt>
      <trkpt lat="48.63152" lon="7.16315">
        <ele>420.66</ele>
        <time>2020-08-19T14:25:22.000Z</time>
      </trkpt>
      <trkpt lat="48.63148" lon="7.16316">
        <ele>420.55</ele>
        <time>2020-08-19T14:25:43.000Z</time>
      </trkpt>
      <trkpt lat="48.63143" lon="7.16313">
        <ele>419.15</ele>
        <time>2020-08-19T14:25:48.000Z</time>
      </trkpt>
      <trkpt lat="48.63138" lon="7.16315">
        <ele>418.98</ele>
        <time>2020-08-19T14:25:53.000Z</time>
      </trkpt>
      <trkpt lat="48.63135" lon="7.1632">
        <ele>421.78</ele>
        <time>2020-08-19T14:25:58.000Z</time>
      </trkpt>
      <trkpt lat="48.63132" lon="7.16328">
        <ele>428.44</ele>
        <time>2020-08-19T14:26:03.000Z</time>
      </trkpt>
      <trkpt lat="48.63129" lon="7.16334">
        <ele>429.74</ele>
        <time>2020-08-19T14:26:08.000Z</time>
      </trkpt>
      <trkpt lat="48.63128" lon="7.16341">
        <ele>435.09</ele>
        <time>2020-08-19T14:26:20.000Z</time>
      </trkpt>
      <trkpt lat="48.63119" lon="7.16347">
        <ele>436.62</ele>
        <time>2020-08-19T14:26:25.000Z</time>
      </trkpt>
      <trkpt lat="48.63115" lon="7.16351">
        <ele>439.67</ele>
        <time>2020-08-19T14:26:29.000Z</time>
      </trkpt>
      <trkpt lat="48.63111" lon="7.16353">
        <ele>439.2</ele>
        <time>2020-08-19T14:26:32.000Z</time>
      </trkpt>
      <trkpt lat="48.63106" lon="7.16356">
        <ele>437.91</ele>
        <time>2020-08-19T14:26:35.000Z</time>
      </trkpt>
      <trkpt lat="48.63101" lon="7.16359">
        <ele>435.85</ele>
        <time>2020-08-19T14:26:38.000Z</time>
      </trkpt>
      <trkpt lat="48.63096" lon="7.16365">
        <ele>438.86</ele>
        <time>2020-08-19T14:26:42.000Z</time>
      </trkpt>
      <trkpt lat="48.63093" lon="7.16371">
        <ele>441.58</ele>
        <time>2020-08-19T14:26:47.000Z</time>
      </trkpt>
      <trkpt lat="48.63089" lon="7.16377">
        <ele>440.89</ele>
        <time>2020-08-19T14:26:54.000Z</time>
      </trkpt>
      <trkpt lat="48.63084" lon="7.16379">
        <ele>438.28</ele>
        <time>2020-08-19T14:26:58.000Z</time>
      </trkpt>
      <trkpt lat="48.63079" lon="7.16383">
        <ele>439.52</ele>
        <time>2020-08-19T14:27:03.000Z</time>
      </trkpt>
      <trkpt lat="48.63075" lon="7.1639">
        <ele>441.43</ele>
        <time>2020-08-19T14:27:11.000Z</time>
      </trkpt>
      <trkpt lat="48.63071" lon="7.16392">
        <ele>439.77</ele>
        <time>2020-08-19T14:27:14.000Z</time>
      </trkpt>
      <trkpt lat="48.6306" lon="7.16398">
        <ele>440.34</ele>
        <time>2020-08-19T14:27:20.000Z</time>
      </trkpt>
      <trkpt lat="48.63056" lon="7.16401">
        <ele>440.99</ele>
        <time>2020-08-19T14:27:23.000Z</time>
      </trkpt>
      <trkpt lat="48.63051" lon="7.16401">
        <ele>438.94</ele>
        <time>2020-08-19T14:27:26.000Z</time>
      </trkpt>
      <trkpt lat="48.63046" lon="7.164">
        <ele>441.3</ele>
        <time>2020-08-19T14:27:29.000Z</time>
      </trkpt>
      <trkpt lat="48.63041" lon="7.164">
        <ele>441.49</ele>
        <time>2020-08-19T14:27:33.000Z</time>
      </trkpt>
      <trkpt lat="48.63036" lon="7.16399">
        <ele>443.12</ele>
        <time>2020-08-19T14:27:38.000Z</time>
      </trkpt>
      <trkpt lat="48.63032" lon="7.16395">
        <ele>447.47</ele>
        <time>2020-08-19T14:27:42.000Z</time>
      </trkpt>
      <trkpt lat="48.63027" lon="7.16395">
        <ele>451.4</ele>
        <time>2020-08-19T14:27:52.000Z</time>
      </trkpt>
      <trkpt lat="48.63025" lon="7.16388">
        <ele>451.9</ele>
        <time>2020-08-19T14:28:03.000Z</time>
      </trkpt>
      <trkpt lat="48.63028" lon="7.16382">
        <ele>449.46</ele>
        <time>2020-08-19T14:28:20.000Z</time>
      </trkpt>
      <trkpt lat="48.63032" lon="7.16377">
        <ele>443</ele>
        <time>2020-08-19T14:28:25.000Z</time>
      </trkpt>
      <trkpt lat="48.63035" lon="7.16371">
        <ele>441.88</ele>
        <time>2020-08-19T14:28:30.000Z</time>
      </trkpt>
      <trkpt lat="48.63038" lon="7.16365">
        <ele>447.28</ele>
        <time>2020-08-19T14:28:35.000Z</time>
      </trkpt>
      <trkpt lat="48.63041" lon="7.1636">
        <ele>445.15</ele>
        <time>2020-08-19T14:28:39.000Z</time>
      </trkpt>
      <trkpt lat="48.63045" lon="7.16355">
        <ele>440.64</ele>
        <time>2020-08-19T14:28:43.000Z</time>
      </trkpt>
      <trkpt lat="48.63049" lon="7.16348">
        <ele>446.95</ele>
        <time>2020-08-19T14:28:47.000Z</time>
      </trkpt>
      <trkpt lat="48.63051" lon="7.16341">
        <ele>450.5</ele>
        <time>2020-08-19T14:28:51.000Z</time>
      </trkpt>
      <trkpt lat="48.6305" lon="7.16333">
        <ele>453.67</ele>
        <time>2020-08-19T14:28:56.000Z</time>
      </trkpt>
      <trkpt lat="48.63052" lon="7.16326">
        <ele>455.73</ele>
        <time>2020-08-19T14:29:01.000Z</time>
      </trkpt>
      <trkpt lat="48.63053" lon="7.16318">
        <ele>453.35</ele>
        <time>2020-08-19T14:29:05.000Z</time>
      </trkpt>
      <trkpt lat="48.63054" lon="7.16312">
        <ele>452.29</ele>
        <time>2020-08-19T14:29:11.000Z</time>
      </trkpt>
      <trkpt lat="48.63058" lon="7.1631">
        <ele>458.91</ele>
        <time>2020-08-19T14:29:15.000Z</time>
      </trkpt>
      <trkpt lat="48.63062" lon="7.16303">
        <ele>434.87</ele>
        <time>2020-08-19T14:29:19.000Z</time>
      </trkpt>
      <trkpt lat="48.63063" lon="7.16296">
        <ele>448.99</ele>
        <time>2020-08-19T14:29:23.000Z</time>
      </trkpt>
      <trkpt lat="48.63066" lon="7.1629">
        <ele>458.73</ele>
        <time>2020-08-19T14:29:28.000Z</time>
      </trkpt>
      <trkpt lat="48.63068" lon="7.16282">
        <ele>457.18</ele>
        <time>2020-08-19T14:29:32.000Z</time>
      </trkpt>
      <trkpt lat="48.6307" lon="7.16274">
        <ele>459.37</ele>
        <time>2020-08-19T14:29:36.000Z</time>
      </trkpt>
      <trkpt lat="48.63073" lon="7.16269">
        <ele>462.56</ele>
        <time>2020-08-19T14:29:39.000Z</time>
      </trkpt>
      <trkpt lat="48.63077" lon="7.16264">
        <ele>462.05</ele>
        <time>2020-08-19T14:29:42.000Z</time>
      </trkpt>
      <trkpt lat="48.6308" lon="7.16259">
        <ele>461.95</ele>
        <time>2020-08-19T14:29:46.000Z</time>
      </trkpt>
      <trkpt lat="48.63083" lon="7.16253">
        <ele>467.14</ele>
        <time>2020-08-19T14:29:51.000Z</time>
      </trkpt>
      <trkpt lat="48.63086" lon="7.16246">
        <ele>467.22</ele>
        <time>2020-08-19T14:29:55.000Z</time>
      </trkpt>
      <trkpt lat="48.63087" lon="7.16239">
        <ele>469.38</ele>
        <time>2020-08-19T14:29:59.000Z</time>
      </trkpt>
      <trkpt lat="48.6309" lon="7.16232">
        <ele>465.69</ele>
        <time>2020-08-19T14:30:14.000Z</time>
      </trkpt>
      <trkpt lat="48.63094" lon="7.16227">
        <ele>465.71</ele>
        <time>2020-08-19T14:30:20.000Z</time>
      </trkpt>
      <trkpt lat="48.63098" lon="7.16222">
        <ele>466.99</ele>
        <time>2020-08-19T14:30:22.000Z</time>
      </trkpt>
      <trkpt lat="48.63103" lon="7.16217">
        <ele>467.35</ele>
        <time>2020-08-19T14:30:24.000Z</time>
      </trkpt>
      <trkpt lat="48.63109" lon="7.16213">
        <ele>470.48</ele>
        <time>2020-08-19T14:30:28.000Z</time>
      </trkpt>
      <trkpt lat="48.63114" lon="7.16208">
        <ele>471.49</ele>
        <time>2020-08-19T14:30:30.000Z</time>
      </trkpt>
      <trkpt lat="48.63118" lon="7.16202">
        <ele>471.5</ele>
        <time>2020-08-19T14:30:32.000Z</time>
      </trkpt>
      <trkpt lat="48.63123" lon="7.16198">
        <ele>471.25</ele>
        <time>2020-08-19T14:30:34.000Z</time>
      </trkpt>
      <trkpt lat="48.63127" lon="7.16194">
        <ele>472.93</ele>
        <time>2020-08-19T14:30:36.000Z</time>
      </trkpt>
      <trkpt lat="48.63132" lon="7.16189">
        <ele>475.21</ele>
        <time>2020-08-19T14:30:38.000Z</time>
      </trkpt>
      <trkpt lat="48.63137" lon="7.16184">
        <ele>476.43</ele>
        <time>2020-08-19T14:30:40.000Z</time>
      </trkpt>
      <trkpt lat="48.63139" lon="7.16177">
        <ele>478.67</ele>
        <time>2020-08-19T14:30:42.000Z</time>
      </trkpt>
      <trkpt lat="48.63143" lon="7.16168">
        <ele>480.05</ele>
        <time>2020-08-19T14:30:45.000Z</time>
      </trkpt>
      <trkpt lat="48.63149" lon="7.16162">
        <ele>477.48</ele>
        <time>2020-08-19T14:30:47.000Z</time>
      </trkpt>
      <trkpt lat="48.63155" lon="7.16158">
        <ele>476.24</ele>
        <time>2020-08-19T14:30:49.000Z</time>
      </trkpt>
      <trkpt lat="48.63161" lon="7.16152">
        <ele>477.65</ele>
        <time>2020-08-19T14:30:51.000Z</time>
      </trkpt>
      <trkpt lat="48.63166" lon="7.16146">
        <ele>479.09</ele>
        <time>2020-08-19T14:30:53.000Z</time>
      </trkpt>
      <trkpt lat="48.6317" lon="7.16138">
        <ele>480.52</ele>
        <time>2020-08-19T14:30:55.000Z</time>
      </trkpt>
      <trkpt lat="48.63175" lon="7.16132">
        <ele>480.74</ele>
        <time>2020-08-19T14:30:57.000Z</time>
      </trkpt>
      <trkpt lat="48.6318" lon="7.16126">
        <ele>481.02</ele>
        <time>2020-08-19T14:30:59.000Z</time>
      </trkpt>
      <trkpt lat="48.63185" lon="7.16118">
        <ele>478.61</ele>
        <time>2020-08-19T14:31:01.000Z</time>
      </trkpt>
      <trkpt lat="48.6319" lon="7.1611">
        <ele>478.56</ele>
        <time>2020-08-19T14:31:03.000Z</time>
      </trkpt>
      <trkpt lat="48.63195" lon="7.16103">
        <ele>477.62</ele>
        <time>2020-08-19T14:31:05.000Z</time>
      </trkpt>
      <trkpt lat="48.632" lon="7.16096">
        <ele>478.51</ele>
        <time>2020-08-19T14:31:07.000Z</time>
      </trkpt>
      <trkpt lat="48.63204" lon="7.16089">
        <ele>476.83</ele>
        <time>2020-08-19T14:31:09.000Z</time>
      </trkpt>
      <trkpt lat="48.63209" lon="7.16081">
        <ele>476.21</ele>
        <time>2020-08-19T14:31:11.000Z</time>
      </trkpt>
      <trkpt lat="48.63212" lon="7.16073">
        <ele>474.76</ele>
        <time>2020-08-19T14:31:13.000Z</time>
      </trkpt>
      <trkpt lat="48.63216" lon="7.16065">
        <ele>474.78</ele>
        <time>2020-08-19T14:31:15.000Z</time>
      </trkpt>
      <trkpt lat="48.6322" lon="7.16057">
        <ele>475.84</ele>
        <time>2020-08-19T14:31:17.000Z</time>
      </trkpt>
      <trkpt lat="48.63223" lon="7.16047">
        <ele>476.6</ele>
        <time>2020-08-19T14:31:19.000Z</time>
      </trkpt>
      <trkpt lat="48.63226" lon="7.16038">
        <ele>477.56</ele>
        <time>2020-08-19T14:31:21.000Z</time>
      </trkpt>
      <trkpt lat="48.63231" lon="7.1603">
        <ele>477.27</ele>
        <time>2020-08-19T14:31:23.000Z</time>
      </trkpt>
      <trkpt lat="48.63235" lon="7.16024">
        <ele>480.18</ele>
        <time>2020-08-19T14:31:25.000Z</time>
      </trkpt>
      <trkpt lat="48.6324" lon="7.16017">
        <ele>481.91</ele>
        <time>2020-08-19T14:31:27.000Z</time>
      </trkpt>
      <trkpt lat="48.63245" lon="7.1601">
        <ele>481.66</ele>
        <time>2020-08-19T14:31:29.000Z</time>
      </trkpt>
      <trkpt lat="48.63249" lon="7.16001">
        <ele>479.99</ele>
        <time>2020-08-19T14:31:31.000Z</time>
      </trkpt>
      <trkpt lat="48.63253" lon="7.15992">
        <ele>481.3</ele>
        <time>2020-08-19T14:31:33.000Z</time>
      </trkpt>
      <trkpt lat="48.63255" lon="7.15985">
        <ele>482.22</ele>
        <time>2020-08-19T14:31:35.000Z</time>
      </trkpt>
      <trkpt lat="48.63251" lon="7.15989">
        <ele>477.94</ele>
        <time>2020-08-19T14:31:46.000Z</time>
      </trkpt>
      <trkpt lat="48.63256" lon="7.15985">
        <ele>479.17</ele>
        <time>2020-08-19T14:31:57.000Z</time>
      </trkpt>
      <trkpt lat="48.6326" lon="7.15977">
        <ele>477.84</ele>
        <time>2020-08-19T14:31:59.000Z</time>
      </trkpt>
      <trkpt lat="48.63265" lon="7.15969">
        <ele>478.12</ele>
        <time>2020-08-19T14:32:01.000Z</time>
      </trkpt>
      <trkpt lat="48.63269" lon="7.15958">
        <ele>476.83</ele>
        <time>2020-08-19T14:32:03.000Z</time>
      </trkpt>
      <trkpt lat="48.63273" lon="7.15946">
        <ele>478.69</ele>
        <time>2020-08-19T14:32:05.000Z</time>
      </trkpt>
      <trkpt lat="48.63283" lon="7.15928">
        <ele>481.69</ele>
        <time>2020-08-19T14:32:08.000Z</time>
      </trkpt>
      <trkpt lat="48.63289" lon="7.15916">
        <ele>482.46</ele>
        <time>2020-08-19T14:32:10.000Z</time>
      </trkpt>
      <trkpt lat="48.63293" lon="7.1591">
        <ele>482.64</ele>
        <time>2020-08-19T14:32:11.000Z</time>
      </trkpt>
      <trkpt lat="48.63299" lon="7.15901">
        <ele>481.23</ele>
        <time>2020-08-19T14:32:13.000Z</time>
      </trkpt>
      <trkpt lat="48.63304" lon="7.159">
        <ele>479.77</ele>
        <time>2020-08-19T14:32:14.000Z</time>
      </trkpt>
      <trkpt lat="48.6331" lon="7.159">
        <ele>481.1</ele>
        <time>2020-08-19T14:32:15.000Z</time>
      </trkpt>
      <trkpt lat="48.63317" lon="7.15893">
        <ele>480.27</ele>
        <time>2020-08-19T14:32:17.000Z</time>
      </trkpt>
      <trkpt lat="48.63324" lon="7.15886">
        <ele>480.72</ele>
        <time>2020-08-19T14:32:19.000Z</time>
      </trkpt>
      <trkpt lat="48.63331" lon="7.15879">
        <ele>480.94</ele>
        <time>2020-08-19T14:32:21.000Z</time>
      </trkpt>
      <trkpt lat="48.63335" lon="7.15876">
        <ele>480.26</ele>
        <time>2020-08-19T14:32:22.000Z</time>
      </trkpt>
      <trkpt lat="48.6334" lon="7.15872">
        <ele>481.31</ele>
        <time>2020-08-19T14:32:23.000Z</time>
      </trkpt>
      <trkpt lat="48.63347" lon="7.15866">
        <ele>483.09</ele>
        <time>2020-08-19T14:32:25.000Z</time>
      </trkpt>
      <trkpt lat="48.63357" lon="7.15863">
        <ele>482.73</ele>
        <time>2020-08-19T14:32:27.000Z</time>
      </trkpt>
      <trkpt lat="48.63362" lon="7.1586">
        <ele>483.33</ele>
        <time>2020-08-19T14:32:28.000Z</time>
      </trkpt>
      <trkpt lat="48.6337" lon="7.15853">
        <ele>483.29</ele>
        <time>2020-08-19T14:32:30.000Z</time>
      </trkpt>
      <trkpt lat="48.63379" lon="7.15846">
        <ele>484.92</ele>
        <time>2020-08-19T14:32:32.000Z</time>
      </trkpt>
      <trkpt lat="48.63386" lon="7.15842">
        <ele>485.05</ele>
        <time>2020-08-19T14:32:34.000Z</time>
      </trkpt>
      <trkpt lat="48.63393" lon="7.15835">
        <ele>484.1</ele>
        <time>2020-08-19T14:32:36.000Z</time>
      </trkpt>
      <trkpt lat="48.634" lon="7.15828">
        <ele>484.76</ele>
        <time>2020-08-19T14:32:38.000Z</time>
      </trkpt>
      <trkpt lat="48.63405" lon="7.15826">
        <ele>486.94</ele>
        <time>2020-08-19T14:32:40.000Z</time>
      </trkpt>
      <trkpt lat="48.6341" lon="7.15823">
        <ele>489.06</ele>
        <time>2020-08-19T14:32:42.000Z</time>
      </trkpt>
      <trkpt lat="48.63414" lon="7.15819">
        <ele>488.41</ele>
        <time>2020-08-19T14:32:43.000Z</time>
      </trkpt>
      <trkpt lat="48.6342" lon="7.15813">
        <ele>486.16</ele>
        <time>2020-08-19T14:32:46.000Z</time>
      </trkpt>
      <trkpt lat="48.63425" lon="7.15808">
        <ele>486.01</ele>
        <time>2020-08-19T14:32:48.000Z</time>
      </trkpt>
      <trkpt lat="48.63432" lon="7.15807">
        <ele>485.25</ele>
        <time>2020-08-19T14:32:50.000Z</time>
      </trkpt>
      <trkpt lat="48.63438" lon="7.158">
        <ele>483.79</ele>
        <time>2020-08-19T14:32:52.000Z</time>
      </trkpt>
      <trkpt lat="48.63444" lon="7.15795">
        <ele>483.56</ele>
        <time>2020-08-19T14:32:54.000Z</time>
      </trkpt>
      <trkpt lat="48.6345" lon="7.15791">
        <ele>484.46</ele>
        <time>2020-08-19T14:32:56.000Z</time>
      </trkpt>
      <trkpt lat="48.63455" lon="7.15789">
        <ele>486.13</ele>
        <time>2020-08-19T14:32:58.000Z</time>
      </trkpt>
      <trkpt lat="48.6346" lon="7.15788">
        <ele>489.2</ele>
        <time>2020-08-19T14:33:00.000Z</time>
      </trkpt>
      <trkpt lat="48.63466" lon="7.15786">
        <ele>490.49</ele>
        <time>2020-08-19T14:33:02.000Z</time>
      </trkpt>
      <trkpt lat="48.63472" lon="7.15785">
        <ele>490.11</ele>
        <time>2020-08-19T14:33:04.000Z</time>
      </trkpt>
      <trkpt lat="48.6351" lon="7.15771">
        <ele>480.54</ele>
        <time>2020-08-19T14:33:11.000Z</time>
      </trkpt>
      <trkpt lat="48.63526" lon="7.15766">
        <ele>480.53</ele>
        <time>2020-08-19T14:33:14.000Z</time>
      </trkpt>
      <trkpt lat="48.63531" lon="7.15765">
        <ele>480.31</ele>
        <time>2020-08-19T14:33:15.000Z</time>
      </trkpt>
      <trkpt lat="48.63539" lon="7.15762">
        <ele>480.85</ele>
        <time>2020-08-19T14:33:17.000Z</time>
      </trkpt>
      <trkpt lat="48.63546" lon="7.15758">
        <ele>481.21</ele>
        <time>2020-08-19T14:33:19.000Z</time>
      </trkpt>
      <trkpt lat="48.63552" lon="7.15755">
        <ele>483.1</ele>
        <time>2020-08-19T14:33:21.000Z</time>
      </trkpt>
      <trkpt lat="48.63559" lon="7.15747">
        <ele>483.15</ele>
        <time>2020-08-19T14:33:23.000Z</time>
      </trkpt>
      <trkpt lat="48.63565" lon="7.1574">
        <ele>482.31</ele>
        <time>2020-08-19T14:33:25.000Z</time>
      </trkpt>
      <trkpt lat="48.6357" lon="7.15731">
        <ele>480.76</ele>
        <time>2020-08-19T14:33:27.000Z</time>
      </trkpt>
      <trkpt lat="48.63573" lon="7.15721">
        <ele>481.76</ele>
        <time>2020-08-19T14:33:29.000Z</time>
      </trkpt>
      <trkpt lat="48.63577" lon="7.15712">
        <ele>479.49</ele>
        <time>2020-08-19T14:33:31.000Z</time>
      </trkpt>
      <trkpt lat="48.6358" lon="7.15702">
        <ele>479.38</ele>
        <time>2020-08-19T14:33:33.000Z</time>
      </trkpt>
      <trkpt lat="48.63583" lon="7.15693">
        <ele>478.94</ele>
        <time>2020-08-19T14:33:35.000Z</time>
      </trkpt>
      <trkpt lat="48.63583" lon="7.15681">
        <ele>480.04</ele>
        <time>2020-08-19T14:33:37.000Z</time>
      </trkpt>
      <trkpt lat="48.63578" lon="7.15667">
        <ele>480.08</ele>
        <time>2020-08-19T14:33:39.000Z</time>
      </trkpt>
      <trkpt lat="48.63578" lon="7.15655">
        <ele>480.24</ele>
        <time>2020-08-19T14:33:41.000Z</time>
      </trkpt>
      <trkpt lat="48.63578" lon="7.15642">
        <ele>482.1</ele>
        <time>2020-08-19T14:33:43.000Z</time>
      </trkpt>
      <trkpt lat="48.63576" lon="7.15636">
        <ele>481.71</ele>
        <time>2020-08-19T14:33:44.000Z</time>
      </trkpt>
      <trkpt lat="48.63575" lon="7.15628">
        <ele>482.47</ele>
        <time>2020-08-19T14:33:45.000Z</time>
      </trkpt>
      <trkpt lat="48.63575" lon="7.15621">
        <ele>481.74</ele>
        <time>2020-08-19T14:33:46.000Z</time>
      </trkpt>
      <trkpt lat="48.63574" lon="7.15614">
        <ele>481.64</ele>
        <time>2020-08-19T14:33:47.000Z</time>
      </trkpt>
      <trkpt lat="48.63575" lon="7.15603">
        <ele>479.51</ele>
        <time>2020-08-19T14:33:49.000Z</time>
      </trkpt>
      <trkpt lat="48.63572" lon="7.15593">
        <ele>479.55</ele>
        <time>2020-08-19T14:33:51.000Z</time>
      </trkpt>
      <trkpt lat="48.6357" lon="7.15586">
        <ele>479.5</ele>
        <time>2020-08-19T14:33:52.000Z</time>
      </trkpt>
      <trkpt lat="48.63568" lon="7.15575">
        <ele>482.23</ele>
        <time>2020-08-19T14:33:54.000Z</time>
      </trkpt>
      <trkpt lat="48.63567" lon="7.15567">
        <ele>482.4</ele>
        <time>2020-08-19T14:33:55.000Z</time>
      </trkpt>
      <trkpt lat="48.63569" lon="7.15556">
        <ele>482.18</ele>
        <time>2020-08-19T14:33:57.000Z</time>
      </trkpt>
      <trkpt lat="48.63569" lon="7.15549">
        <ele>483.29</ele>
        <time>2020-08-19T14:33:58.000Z</time>
      </trkpt>
      <trkpt lat="48.63571" lon="7.15542">
        <ele>482.94</ele>
        <time>2020-08-19T14:33:59.000Z</time>
      </trkpt>
      <trkpt lat="48.63572" lon="7.15534">
        <ele>483.41</ele>
        <time>2020-08-19T14:34:00.000Z</time>
      </trkpt>
      <trkpt lat="48.63574" lon="7.15528">
        <ele>484.08</ele>
        <time>2020-08-19T14:34:01.000Z</time>
      </trkpt>
      <trkpt lat="48.63577" lon="7.15523">
        <ele>480.61</ele>
        <time>2020-08-19T14:34:10.000Z</time>
      </trkpt>
      <trkpt lat="48.63578" lon="7.15514">
        <ele>480.88</ele>
        <time>2020-08-19T14:34:27.000Z</time>
      </trkpt>
      <trkpt lat="48.63577" lon="7.15506">
        <ele>481.38</ele>
        <time>2020-08-19T14:34:31.000Z</time>
      </trkpt>
      <trkpt lat="48.63576" lon="7.155">
        <ele>483.55</ele>
        <time>2020-08-19T14:34:43.000Z</time>
      </trkpt>
      <trkpt lat="48.63576" lon="7.15492">
        <ele>486.69</ele>
        <time>2020-08-19T14:34:48.000Z</time>
      </trkpt>
      <trkpt lat="48.63577" lon="7.15485">
        <ele>485.67</ele>
        <time>2020-08-19T14:34:51.000Z</time>
      </trkpt>
      <trkpt lat="48.6358" lon="7.15477">
        <ele>486.62</ele>
        <time>2020-08-19T14:34:55.000Z</time>
      </trkpt>
      <trkpt lat="48.63581" lon="7.15469">
        <ele>489.23</ele>
        <time>2020-08-19T14:35:00.000Z</time>
      </trkpt>
      <trkpt lat="48.63579" lon="7.15461">
        <ele>489.28</ele>
        <time>2020-08-19T14:35:04.000Z</time>
      </trkpt>
      <trkpt lat="48.63579" lon="7.15453">
        <ele>490.23</ele>
        <time>2020-08-19T14:35:07.000Z</time>
      </trkpt>
      <trkpt lat="48.63577" lon="7.15447">
        <ele>491.49</ele>
        <time>2020-08-19T14:35:10.000Z</time>
      </trkpt>
      <trkpt lat="48.63576" lon="7.15439">
        <ele>494.97</ele>
        <time>2020-08-19T14:35:14.000Z</time>
      </trkpt>
      <trkpt lat="48.63574" lon="7.15431">
        <ele>494.14</ele>
        <time>2020-08-19T14:35:24.000Z</time>
      </trkpt>
      <trkpt lat="48.63574" lon="7.15424">
        <ele>493.49</ele>
        <time>2020-08-19T14:35:28.000Z</time>
      </trkpt>
      <trkpt lat="48.63575" lon="7.15415">
        <ele>491.11</ele>
        <time>2020-08-19T14:35:32.000Z</time>
      </trkpt>
      <trkpt lat="48.63575" lon="7.15408">
        <ele>492.35</ele>
        <time>2020-08-19T14:35:35.000Z</time>
      </trkpt>
      <trkpt lat="48.63578" lon="7.15401">
        <ele>493.47</ele>
        <time>2020-08-19T14:35:39.000Z</time>
      </trkpt>
      <trkpt lat="48.63581" lon="7.15394">
        <ele>493.21</ele>
        <time>2020-08-19T14:35:42.000Z</time>
      </trkpt>
      <trkpt lat="48.63582" lon="7.15387">
        <ele>493.27</ele>
        <time>2020-08-19T14:35:47.000Z</time>
      </trkpt>
      <trkpt lat="48.63583" lon="7.1538">
        <ele>495.04</ele>
        <time>2020-08-19T14:35:50.000Z</time>
      </trkpt>
      <trkpt lat="48.63586" lon="7.15374">
        <ele>498.09</ele>
        <time>2020-08-19T14:35:54.000Z</time>
      </trkpt>
      <trkpt lat="48.63586" lon="7.15366">
        <ele>498.94</ele>
        <time>2020-08-19T14:35:57.000Z</time>
      </trkpt>
      <trkpt lat="48.63587" lon="7.15349">
        <ele>497.27</ele>
        <time>2020-08-19T14:36:03.000Z</time>
      </trkpt>
      <trkpt lat="48.6359" lon="7.15343">
        <ele>498.59</ele>
        <time>2020-08-19T14:36:07.000Z</time>
      </trkpt>
      <trkpt lat="48.63591" lon="7.15336">
        <ele>498.68</ele>
        <time>2020-08-19T14:36:10.000Z</time>
      </trkpt>
      <trkpt lat="48.63593" lon="7.15329">
        <ele>499.86</ele>
        <time>2020-08-19T14:36:14.000Z</time>
      </trkpt>
      <trkpt lat="48.63595" lon="7.1532">
        <ele>499.6</ele>
        <time>2020-08-19T14:36:22.000Z</time>
      </trkpt>
      <trkpt lat="48.63597" lon="7.15313">
        <ele>499.46</ele>
        <time>2020-08-19T14:36:26.000Z</time>
      </trkpt>
      <trkpt lat="48.63599" lon="7.15306">
        <ele>502.31</ele>
        <time>2020-08-19T14:36:31.000Z</time>
      </trkpt>
      <trkpt lat="48.63603" lon="7.15299">
        <ele>506.49</ele>
        <time>2020-08-19T14:36:36.000Z</time>
      </trkpt>
      <trkpt lat="48.63607" lon="7.15294">
        <ele>506.65</ele>
        <time>2020-08-19T14:36:39.000Z</time>
      </trkpt>
      <trkpt lat="48.63608" lon="7.15287">
        <ele>507.55</ele>
        <time>2020-08-19T14:36:42.000Z</time>
      </trkpt>
      <trkpt lat="48.63609" lon="7.15279">
        <ele>510.28</ele>
        <time>2020-08-19T14:36:46.000Z</time>
      </trkpt>
      <trkpt lat="48.63613" lon="7.15274">
        <ele>511.3</ele>
        <time>2020-08-19T14:36:51.000Z</time>
      </trkpt>
      <trkpt lat="48.63616" lon="7.15267">
        <ele>508.56</ele>
        <time>2020-08-19T14:36:57.000Z</time>
      </trkpt>
      <trkpt lat="48.6362" lon="7.15264">
        <ele>509.19</ele>
        <time>2020-08-19T14:37:09.000Z</time>
      </trkpt>
      <trkpt lat="48.63624" lon="7.15261">
        <ele>505.01</ele>
        <time>2020-08-19T14:37:19.000Z</time>
      </trkpt>
      <trkpt lat="48.63631" lon="7.15259">
        <ele>500.95</ele>
        <time>2020-08-19T14:37:22.000Z</time>
      </trkpt>
      <trkpt lat="48.63636" lon="7.15259">
        <ele>501.63</ele>
        <time>2020-08-19T14:37:24.000Z</time>
      </trkpt>
      <trkpt lat="48.63642" lon="7.1526">
        <ele>501.82</ele>
        <time>2020-08-19T14:37:27.000Z</time>
      </trkpt>
      <trkpt lat="48.63648" lon="7.15257">
        <ele>501.67</ele>
        <time>2020-08-19T14:37:30.000Z</time>
      </trkpt>
      <trkpt lat="48.63661" lon="7.15248">
        <ele>502.67</ele>
        <time>2020-08-19T14:37:35.000Z</time>
      </trkpt>
      <trkpt lat="48.63683" lon="7.15234">
        <ele>505.82</ele>
        <time>2020-08-19T14:37:43.000Z</time>
      </trkpt>
      <trkpt lat="48.63689" lon="7.15234">
        <ele>506.65</ele>
        <time>2020-08-19T14:37:45.000Z</time>
      </trkpt>
      <trkpt lat="48.6369" lon="7.15227">
        <ele>505.27</ele>
        <time>2020-08-19T14:37:50.000Z</time>
      </trkpt>
      <trkpt lat="48.63687" lon="7.15222">
        <ele>503.52</ele>
        <time>2020-08-19T14:37:56.000Z</time>
      </trkpt>
      <trkpt lat="48.63682" lon="7.1522">
        <ele>503.56</ele>
        <time>2020-08-19T14:38:01.000Z</time>
      </trkpt>
      <trkpt lat="48.63677" lon="7.15224">
        <ele>502.68</ele>
        <time>2020-08-19T14:38:04.000Z</time>
      </trkpt>
      <trkpt lat="48.63673" lon="7.15227">
        <ele>503.89</ele>
        <time>2020-08-19T14:38:10.000Z</time>
      </trkpt>
      <trkpt lat="48.63667" lon="7.1523">
        <ele>504.99</ele>
        <time>2020-08-19T14:38:14.000Z</time>
      </trkpt>
      <trkpt lat="48.63662" lon="7.1523">
        <ele>508.09</ele>
        <time>2020-08-19T14:38:18.000Z</time>
      </trkpt>
      <trkpt lat="48.63657" lon="7.15232">
        <ele>508.59</ele>
        <time>2020-08-19T14:38:22.000Z</time>
      </trkpt>
      <trkpt lat="48.63639" lon="7.15225">
        <ele>501.45</ele>
        <time>2020-08-19T14:38:33.000Z</time>
      </trkpt>
      <trkpt lat="48.63634" lon="7.15222">
        <ele>502.12</ele>
        <time>2020-08-19T14:38:35.000Z</time>
      </trkpt>
      <trkpt lat="48.63629" lon="7.1522">
        <ele>503.21</ele>
        <time>2020-08-19T14:38:37.000Z</time>
      </trkpt>
      <trkpt lat="48.63624" lon="7.15218">
        <ele>502.78</ele>
        <time>2020-08-19T14:38:39.000Z</time>
      </trkpt>
      <trkpt lat="48.6362" lon="7.15216">
        <ele>502.77</ele>
        <time>2020-08-19T14:38:41.000Z</time>
      </trkpt>
      <trkpt lat="48.63615" lon="7.15215">
        <ele>502.62</ele>
        <time>2020-08-19T14:38:43.000Z</time>
      </trkpt>
      <trkpt lat="48.63611" lon="7.15217">
        <ele>503.22</ele>
        <time>2020-08-19T14:38:45.000Z</time>
      </trkpt>
      <trkpt lat="48.63605" lon="7.15221">
        <ele>504.44</ele>
        <time>2020-08-19T14:38:48.000Z</time>
      </trkpt>
      <trkpt lat="48.636" lon="7.15225">
        <ele>504.44</ele>
        <time>2020-08-19T14:38:50.000Z</time>
      </trkpt>
      <trkpt lat="48.63595" lon="7.1523">
        <ele>507.29</ele>
        <time>2020-08-19T14:38:52.000Z</time>
      </trkpt>
      <trkpt lat="48.63591" lon="7.15235">
        <ele>507.06</ele>
        <time>2020-08-19T14:38:54.000Z</time>
      </trkpt>
      <trkpt lat="48.63586" lon="7.15239">
        <ele>507.52</ele>
        <time>2020-08-19T14:38:57.000Z</time>
      </trkpt>
      <trkpt lat="48.63577" lon="7.15256">
        <ele>507.77</ele>
        <time>2020-08-19T14:39:02.000Z</time>
      </trkpt>
      <trkpt lat="48.63574" lon="7.15261">
        <ele>507.83</ele>
        <time>2020-08-19T14:39:04.000Z</time>
      </trkpt>
      <trkpt lat="48.63572" lon="7.15268">
        <ele>508.3</ele>
        <time>2020-08-19T14:39:06.000Z</time>
      </trkpt>
      <trkpt lat="48.63571" lon="7.15275">
        <ele>511.21</ele>
        <time>2020-08-19T14:39:08.000Z</time>
      </trkpt>
      <trkpt lat="48.63568" lon="7.15282">
        <ele>512.97</ele>
        <time>2020-08-19T14:39:11.000Z</time>
      </trkpt>
      <trkpt lat="48.63565" lon="7.15292">
        <ele>514.29</ele>
        <time>2020-08-19T14:39:13.000Z</time>
      </trkpt>
      <trkpt lat="48.63563" lon="7.15301">
        <ele>514.83</ele>
        <time>2020-08-19T14:39:15.000Z</time>
      </trkpt>
      <trkpt lat="48.63562" lon="7.1531">
        <ele>515.32</ele>
        <time>2020-08-19T14:39:17.000Z</time>
      </trkpt>
      <trkpt lat="48.63531" lon="7.15385">
        <ele>516.7</ele>
        <time>2020-08-19T14:39:34.000Z</time>
      </trkpt>
      <trkpt lat="48.63527" lon="7.15381">
        <ele>516.67</ele>
        <time>2020-08-19T14:39:42.000Z</time>
      </trkpt>
      <trkpt lat="48.63527" lon="7.15374">
        <ele>516.24</ele>
        <time>2020-08-19T14:39:51.000Z</time>
      </trkpt>
      <trkpt lat="48.63523" lon="7.15369">
        <ele>515.79</ele>
        <time>2020-08-19T14:39:55.000Z</time>
      </trkpt>
      <trkpt lat="48.63521" lon="7.15363">
        <ele>518.08</ele>
        <time>2020-08-19T14:40:09.000Z</time>
      </trkpt>
      <trkpt lat="48.6352" lon="7.15356">
        <ele>520.46</ele>
        <time>2020-08-19T14:40:15.000Z</time>
      </trkpt>
      <trkpt lat="48.63518" lon="7.15348">
        <ele>519.54</ele>
        <time>2020-08-19T14:40:31.000Z</time>
      </trkpt>
      <trkpt lat="48.63519" lon="7.1534">
        <ele>521.4</ele>
        <time>2020-08-19T14:40:35.000Z</time>
      </trkpt>
      <trkpt lat="48.63519" lon="7.15331">
        <ele>523.78</ele>
        <time>2020-08-19T14:40:39.000Z</time>
      </trkpt>
      <trkpt lat="48.6352" lon="7.15324">
        <ele>526.3</ele>
        <time>2020-08-19T14:40:42.000Z</time>
      </trkpt>
      <trkpt lat="48.63522" lon="7.15317">
        <ele>527.75</ele>
        <time>2020-08-19T14:40:45.000Z</time>
      </trkpt>
      <trkpt lat="48.63524" lon="7.1531">
        <ele>525.31</ele>
        <time>2020-08-19T14:40:48.000Z</time>
      </trkpt>
      <trkpt lat="48.63526" lon="7.15303">
        <ele>525.92</ele>
        <time>2020-08-19T14:40:51.000Z</time>
      </trkpt>
      <trkpt lat="48.63526" lon="7.15295">
        <ele>524.82</ele>
        <time>2020-08-19T14:40:55.000Z</time>
      </trkpt>
      <trkpt lat="48.63526" lon="7.15288">
        <ele>528.34</ele>
        <time>2020-08-19T14:40:59.000Z</time>
      </trkpt>
      <trkpt lat="48.63527" lon="7.1528">
        <ele>528.38</ele>
        <time>2020-08-19T14:41:03.000Z</time>
      </trkpt>
      <trkpt lat="48.63528" lon="7.15273">
        <ele>526.79</ele>
        <time>2020-08-19T14:41:09.000Z</time>
      </trkpt>
      <trkpt lat="48.63529" lon="7.15265">
        <ele>528.54</ele>
        <time>2020-08-19T14:41:13.000Z</time>
      </trkpt>
      <trkpt lat="48.63531" lon="7.15258">
        <ele>526.42</ele>
        <time>2020-08-19T14:41:16.000Z</time>
      </trkpt>
      <trkpt lat="48.63532" lon="7.1525">
        <ele>528.1</ele>
        <time>2020-08-19T14:41:20.000Z</time>
      </trkpt>
      <trkpt lat="48.63531" lon="7.15243">
        <ele>525.41</ele>
        <time>2020-08-19T14:41:24.000Z</time>
      </trkpt>
      <trkpt lat="48.6353" lon="7.15235">
        <ele>528.75</ele>
        <time>2020-08-19T14:41:28.000Z</time>
      </trkpt>
      <trkpt lat="48.63528" lon="7.15227">
        <ele>528.73</ele>
        <time>2020-08-19T14:41:34.000Z</time>
      </trkpt>
      <trkpt lat="48.63528" lon="7.1522">
        <ele>527.91</ele>
        <time>2020-08-19T14:41:38.000Z</time>
      </trkpt>
      <trkpt lat="48.63527" lon="7.15211">
        <ele>527.3</ele>
        <time>2020-08-19T14:41:42.000Z</time>
      </trkpt>
      <trkpt lat="48.63526" lon="7.15205">
        <ele>527.44</ele>
        <time>2020-08-19T14:41:45.000Z</time>
      </trkpt>
      <trkpt lat="48.63523" lon="7.15198">
        <ele>529.24</ele>
        <time>2020-08-19T14:41:50.000Z</time>
      </trkpt>
      <trkpt lat="48.63521" lon="7.15192">
        <ele>529.22</ele>
        <time>2020-08-19T14:41:54.000Z</time>
      </trkpt>
      <trkpt lat="48.63519" lon="7.15185">
        <ele>529.6</ele>
        <time>2020-08-19T14:41:59.000Z</time>
      </trkpt>
      <trkpt lat="48.63518" lon="7.15176">
        <ele>532.34</ele>
        <time>2020-08-19T14:42:07.000Z</time>
      </trkpt>
      <trkpt lat="48.63522" lon="7.1517">
        <ele>528.64</ele>
        <time>2020-08-19T14:42:10.000Z</time>
      </trkpt>
      <trkpt lat="48.63526" lon="7.15164">
        <ele>531.91</ele>
        <time>2020-08-19T14:42:13.000Z</time>
      </trkpt>
      <trkpt lat="48.63527" lon="7.15157">
        <ele>533.54</ele>
        <time>2020-08-19T14:42:30.000Z</time>
      </trkpt>
      <trkpt lat="48.63529" lon="7.15151">
        <ele>531.48</ele>
        <time>2020-08-19T14:42:39.000Z</time>
      </trkpt>
      <trkpt lat="48.63533" lon="7.15145">
        <ele>529.94</ele>
        <time>2020-08-19T14:42:43.000Z</time>
      </trkpt>
      <trkpt lat="48.63537" lon="7.1514">
        <ele>530.86</ele>
        <time>2020-08-19T14:42:46.000Z</time>
      </trkpt>
      <trkpt lat="48.63538" lon="7.15133">
        <ele>528.35</ele>
        <time>2020-08-19T14:42:49.000Z</time>
      </trkpt>
      <trkpt lat="48.63548" lon="7.15123">
        <ele>528.34</ele>
        <time>2020-08-19T14:42:54.000Z</time>
      </trkpt>
      <trkpt lat="48.6357" lon="7.15045">
        <ele>524.41</ele>
        <time>2020-08-19T14:43:17.000Z</time>
      </trkpt>
      <trkpt lat="48.63572" lon="7.15035">
        <ele>524.11</ele>
        <time>2020-08-19T14:43:18.000Z</time>
      </trkpt>
      <trkpt lat="48.63574" lon="7.15027">
        <ele>523.78</ele>
        <time>2020-08-19T14:43:19.000Z</time>
      </trkpt>
      <trkpt lat="48.63577" lon="7.15019">
        <ele>521.89</ele>
        <time>2020-08-19T14:43:20.000Z</time>
      </trkpt>
      <trkpt lat="48.63579" lon="7.15011">
        <ele>523.52</ele>
        <time>2020-08-19T14:43:21.000Z</time>
      </trkpt>
      <trkpt lat="48.63581" lon="7.15003">
        <ele>521.53</ele>
        <time>2020-08-19T14:43:22.000Z</time>
      </trkpt>
      <trkpt lat="48.63582" lon="7.14995">
        <ele>520.64</ele>
        <time>2020-08-19T14:43:23.000Z</time>
      </trkpt>
      <trkpt lat="48.63584" lon="7.14988">
        <ele>520.33</ele>
        <time>2020-08-19T14:43:24.000Z</time>
      </trkpt>
      <trkpt lat="48.63586" lon="7.14981">
        <ele>521.06</ele>
        <time>2020-08-19T14:43:25.000Z</time>
      </trkpt>
      <trkpt lat="48.63591" lon="7.14972">
        <ele>519.68</ele>
        <time>2020-08-19T14:43:27.000Z</time>
      </trkpt>
      <trkpt lat="48.6359" lon="7.14961">
        <ele>523.69</ele>
        <time>2020-08-19T14:43:28.000Z</time>
      </trkpt>
      <trkpt lat="48.63592" lon="7.14954">
        <ele>524.19</ele>
        <time>2020-08-19T14:43:29.000Z</time>
      </trkpt>
      <trkpt lat="48.63596" lon="7.14943">
        <ele>524.2</ele>
        <time>2020-08-19T14:43:31.000Z</time>
      </trkpt>
      <trkpt lat="48.63595" lon="7.14936">
        <ele>524</ele>
        <time>2020-08-19T14:43:33.000Z</time>
      </trkpt>
      <trkpt lat="48.63597" lon="7.14926">
        <ele>525.11</ele>
        <time>2020-08-19T14:43:34.000Z</time>
      </trkpt>
      <trkpt lat="48.636" lon="7.14917">
        <ele>523.92</ele>
        <time>2020-08-19T14:43:36.000Z</time>
      </trkpt>
      <trkpt lat="48.63602" lon="7.14907">
        <ele>525.78</ele>
        <time>2020-08-19T14:43:38.000Z</time>
      </trkpt>
      <trkpt lat="48.63603" lon="7.14896">
        <ele>525.7</ele>
        <time>2020-08-19T14:43:40.000Z</time>
      </trkpt>
      <trkpt lat="48.63605" lon="7.14889">
        <ele>524.83</ele>
        <time>2020-08-19T14:43:41.000Z</time>
      </trkpt>
      <trkpt lat="48.63607" lon="7.14882">
        <ele>524.99</ele>
        <time>2020-08-19T14:43:42.000Z</time>
      </trkpt>
      <trkpt lat="48.63608" lon="7.14874">
        <ele>524.59</ele>
        <time>2020-08-19T14:43:43.000Z</time>
      </trkpt>
      <trkpt lat="48.63607" lon="7.14867">
        <ele>524.93</ele>
        <time>2020-08-19T14:43:44.000Z</time>
      </trkpt>
      <trkpt lat="48.6361" lon="7.14856">
        <ele>525.7</ele>
        <time>2020-08-19T14:43:46.000Z</time>
      </trkpt>
      <trkpt lat="48.63614" lon="7.14837">
        <ele>527.72</ele>
        <time>2020-08-19T14:43:48.000Z</time>
      </trkpt>
      <trkpt lat="48.63617" lon="7.14825">
        <ele>527.15</ele>
        <time>2020-08-19T14:43:50.000Z</time>
      </trkpt>
      <trkpt lat="48.63619" lon="7.14813">
        <ele>525.34</ele>
        <time>2020-08-19T14:43:52.000Z</time>
      </trkpt>
      <trkpt lat="48.63623" lon="7.1481">
        <ele>520.91</ele>
        <time>2020-08-19T14:43:53.000Z</time>
      </trkpt>
      <trkpt lat="48.63628" lon="7.14792">
        <ele>520.51</ele>
        <time>2020-08-19T14:43:56.000Z</time>
      </trkpt>
      <trkpt lat="48.6363" lon="7.14782">
        <ele>520.65</ele>
        <time>2020-08-19T14:43:58.000Z</time>
      </trkpt>
      <trkpt lat="48.63643" lon="7.1475">
        <ele>520.58</ele>
        <time>2020-08-19T14:44:03.000Z</time>
      </trkpt>
      <trkpt lat="48.63649" lon="7.1474">
        <ele>521.09</ele>
        <time>2020-08-19T14:44:05.000Z</time>
      </trkpt>
      <trkpt lat="48.63653" lon="7.14736">
        <ele>522.17</ele>
        <time>2020-08-19T14:44:06.000Z</time>
      </trkpt>
      <trkpt lat="48.63657" lon="7.14731">
        <ele>523.45</ele>
        <time>2020-08-19T14:44:07.000Z</time>
      </trkpt>
      <trkpt lat="48.63662" lon="7.14727">
        <ele>524.97</ele>
        <time>2020-08-19T14:44:09.000Z</time>
      </trkpt>
      <trkpt lat="48.63656" lon="7.1472">
        <ele>526.86</ele>
        <time>2020-08-19T14:44:28.000Z</time>
      </trkpt>
      <trkpt lat="48.63654" lon="7.14728">
        <ele>524.17</ele>
        <time>2020-08-19T14:44:33.000Z</time>
      </trkpt>
      <trkpt lat="48.63645" lon="7.1474">
        <ele>526.25</ele>
        <time>2020-08-19T14:44:36.000Z</time>
      </trkpt>
      <trkpt lat="48.6364" lon="7.14748">
        <ele>526.22</ele>
        <time>2020-08-19T14:44:38.000Z</time>
      </trkpt>
      <trkpt lat="48.63636" lon="7.1475">
        <ele>526.07</ele>
        <time>2020-08-19T14:44:44.000Z</time>
      </trkpt>
      <trkpt lat="48.63629" lon="7.14752">
        <ele>524.32</ele>
        <time>2020-08-19T14:44:46.000Z</time>
      </trkpt>
      <trkpt lat="48.63624" lon="7.14753">
        <ele>524.99</ele>
        <time>2020-08-19T14:44:48.000Z</time>
      </trkpt>
      <trkpt lat="48.63621" lon="7.14747">
        <ele>524.87</ele>
        <time>2020-08-19T14:44:54.000Z</time>
      </trkpt>
      <trkpt lat="48.6362" lon="7.1474">
        <ele>524.69</ele>
        <time>2020-08-19T14:44:56.000Z</time>
      </trkpt>
      <trkpt lat="48.6362" lon="7.14733">
        <ele>524.41</ele>
        <time>2020-08-19T14:44:58.000Z</time>
      </trkpt>
      <trkpt lat="48.6362" lon="7.14724">
        <ele>522.25</ele>
        <time>2020-08-19T14:45:04.000Z</time>
      </trkpt>
      <trkpt lat="48.63622" lon="7.14688">
        <ele>521.16</ele>
        <time>2020-08-19T14:45:12.000Z</time>
      </trkpt>
      <trkpt lat="48.63624" lon="7.14672">
        <ele>522.35</ele>
        <time>2020-08-19T14:45:23.000Z</time>
      </trkpt>
      <trkpt lat="48.63621" lon="7.1468">
        <ele>516.79</ele>
        <time>2020-08-19T14:45:38.000Z</time>
      </trkpt>
      <trkpt lat="48.6362" lon="7.14688">
        <ele>518.68</ele>
        <time>2020-08-19T14:45:47.000Z</time>
      </trkpt>
      <trkpt lat="48.6362" lon="7.14695">
        <ele>517.88</ele>
        <time>2020-08-19T14:45:50.000Z</time>
      </trkpt>
      <trkpt lat="48.63616" lon="7.14703">
        <ele>517.77</ele>
        <time>2020-08-19T14:45:56.000Z</time>
      </trkpt>
      <trkpt lat="48.63617" lon="7.14712">
        <ele>517.87</ele>
        <time>2020-08-19T14:46:00.000Z</time>
      </trkpt>
      <trkpt lat="48.6362" lon="7.14718">
        <ele>517.93</ele>
        <time>2020-08-19T14:46:02.000Z</time>
      </trkpt>
      <trkpt lat="48.63624" lon="7.14724">
        <ele>519.61</ele>
        <time>2020-08-19T14:46:05.000Z</time>
      </trkpt>
      <trkpt lat="48.63627" lon="7.14731">
        <ele>520.42</ele>
        <time>2020-08-19T14:46:09.000Z</time>
      </trkpt>
      <trkpt lat="48.63624" lon="7.14738">
        <ele>522.71</ele>
        <time>2020-08-19T14:46:14.000Z</time>
      </trkpt>
      <trkpt lat="48.63624" lon="7.14744">
        <ele>528.11</ele>
        <time>2020-08-19T14:46:18.000Z</time>
      </trkpt>
      <trkpt lat="48.63622" lon="7.14751">
        <ele>523.75</ele>
        <time>2020-08-19T14:46:23.000Z</time>
      </trkpt>
      <trkpt lat="48.63608" lon="7.14762">
        <ele>524.89</ele>
        <time>2020-08-19T14:46:54.000Z</time>
      </trkpt>
      <trkpt lat="48.63605" lon="7.14768">
        <ele>525.9</ele>
        <time>2020-08-19T14:47:04.000Z</time>
      </trkpt>
      <trkpt lat="48.63581" lon="7.14657">
        <ele>524.46</ele>
        <time>2020-08-19T14:47:26.000Z</time>
      </trkpt>
      <trkpt lat="48.63579" lon="7.1465">
        <ele>514.72</ele>
        <time>2020-08-19T14:47:52.000Z</time>
      </trkpt>
      <trkpt lat="48.63581" lon="7.14643">
        <ele>520.24</ele>
        <time>2020-08-19T14:47:59.000Z</time>
      </trkpt>
      <trkpt lat="48.63582" lon="7.14635">
        <ele>520.93</ele>
        <time>2020-08-19T14:48:09.000Z</time>
      </trkpt>
      <trkpt lat="48.63586" lon="7.14614">
        <ele>518.11</ele>
        <time>2020-08-19T14:48:17.000Z</time>
      </trkpt>
      <trkpt lat="48.63587" lon="7.14607">
        <ele>516.67</ele>
        <time>2020-08-19T14:48:22.000Z</time>
      </trkpt>
      <trkpt lat="48.63589" lon="7.14601">
        <ele>514.82</ele>
        <time>2020-08-19T14:48:26.000Z</time>
      </trkpt>
      <trkpt lat="48.6359" lon="7.14594">
        <ele>517.17</ele>
        <time>2020-08-19T14:48:29.000Z</time>
      </trkpt>
      <trkpt lat="48.63591" lon="7.14586">
        <ele>521.13</ele>
        <time>2020-08-19T14:48:34.000Z</time>
      </trkpt>
      <trkpt lat="48.63588" lon="7.14579">
        <ele>521.41</ele>
        <time>2020-08-19T14:48:49.000Z</time>
      </trkpt>
      <trkpt lat="48.63584" lon="7.14574">
        <ele>524.3</ele>
        <time>2020-08-19T14:48:53.000Z</time>
      </trkpt>
      <trkpt lat="48.63581" lon="7.14566">
        <ele>524.51</ele>
        <time>2020-08-19T14:48:58.000Z</time>
      </trkpt>
      <trkpt lat="48.63582" lon="7.14558">
        <ele>519.43</ele>
        <time>2020-08-19T14:49:04.000Z</time>
      </trkpt>
      <trkpt lat="48.63584" lon="7.1455">
        <ele>516.06</ele>
        <time>2020-08-19T14:49:08.000Z</time>
      </trkpt>
      <trkpt lat="48.63584" lon="7.14543">
        <ele>514.73</ele>
        <time>2020-08-19T14:49:11.000Z</time>
      </trkpt>
      <trkpt lat="48.63581" lon="7.14536">
        <ele>516.78</ele>
        <time>2020-08-19T14:49:15.000Z</time>
      </trkpt>
      <trkpt lat="48.63578" lon="7.14529">
        <ele>515.31</ele>
        <time>2020-08-19T14:49:19.000Z</time>
      </trkpt>
      <trkpt lat="48.63578" lon="7.14521">
        <ele>517.78</ele>
        <time>2020-08-19T14:49:23.000Z</time>
      </trkpt>
      <trkpt lat="48.6358" lon="7.14514">
        <ele>519.21</ele>
        <time>2020-08-19T14:49:27.000Z</time>
      </trkpt>
      <trkpt lat="48.63583" lon="7.14507">
        <ele>521.19</ele>
        <time>2020-08-19T14:49:33.000Z</time>
      </trkpt>
      <trkpt lat="48.63587" lon="7.14499">
        <ele>523.18</ele>
        <time>2020-08-19T14:49:37.000Z</time>
      </trkpt>
      <trkpt lat="48.63588" lon="7.14491">
        <ele>523.71</ele>
        <time>2020-08-19T14:49:42.000Z</time>
      </trkpt>
      <trkpt lat="48.63592" lon="7.14486">
        <ele>523.46</ele>
        <time>2020-08-19T14:49:46.000Z</time>
      </trkpt>
      <trkpt lat="48.63594" lon="7.14479">
        <ele>524.73</ele>
        <time>2020-08-19T14:49:50.000Z</time>
      </trkpt>
      <trkpt lat="48.63597" lon="7.14473">
        <ele>522.8</ele>
        <time>2020-08-19T14:49:55.000Z</time>
      </trkpt>
      <trkpt lat="48.63601" lon="7.14468">
        <ele>525.56</ele>
        <time>2020-08-19T14:50:00.000Z</time>
      </trkpt>
      <trkpt lat="48.63606" lon="7.14464">
        <ele>530.09</ele>
        <time>2020-08-19T14:50:21.000Z</time>
      </trkpt>
      <trkpt lat="48.63611" lon="7.14463">
        <ele>527.14</ele>
        <time>2020-08-19T14:50:25.000Z</time>
      </trkpt>
      <trkpt lat="48.63606" lon="7.14464">
        <ele>527.76</ele>
        <time>2020-08-19T14:50:33.000Z</time>
      </trkpt>
      <trkpt lat="48.636" lon="7.14463">
        <ele>526.31</ele>
        <time>2020-08-19T14:50:38.000Z</time>
      </trkpt>
      <trkpt lat="48.63595" lon="7.14461">
        <ele>525.23</ele>
        <time>2020-08-19T14:50:43.000Z</time>
      </trkpt>
      <trkpt lat="48.63591" lon="7.14456">
        <ele>526.2</ele>
        <time>2020-08-19T14:50:50.000Z</time>
      </trkpt>
      <trkpt lat="48.63587" lon="7.14451">
        <ele>527.97</ele>
        <time>2020-08-19T14:50:58.000Z</time>
      </trkpt>
      <trkpt lat="48.63584" lon="7.14443">
        <ele>528.51</ele>
        <time>2020-08-19T14:51:03.000Z</time>
      </trkpt>
      <trkpt lat="48.63581" lon="7.14438">
        <ele>528.96</ele>
        <time>2020-08-19T14:51:06.000Z</time>
      </trkpt>
      <trkpt lat="48.63577" lon="7.14433">
        <ele>529.38</ele>
        <time>2020-08-19T14:51:10.000Z</time>
      </trkpt>
      <trkpt lat="48.63573" lon="7.14426">
        <ele>531.01</ele>
        <time>2020-08-19T14:51:14.000Z</time>
      </trkpt>
      <trkpt lat="48.6357" lon="7.14421">
        <ele>528.94</ele>
        <time>2020-08-19T14:51:18.000Z</time>
      </trkpt>
      <trkpt lat="48.63568" lon="7.14414">
        <ele>527.97</ele>
        <time>2020-08-19T14:51:22.000Z</time>
      </trkpt>
      <trkpt lat="48.63565" lon="7.14407">
        <ele>527.85</ele>
        <time>2020-08-19T14:51:29.000Z</time>
      </trkpt>
      <trkpt lat="48.63562" lon="7.14401">
        <ele>526.88</ele>
        <time>2020-08-19T14:51:35.000Z</time>
      </trkpt>
      <trkpt lat="48.63561" lon="7.14394">
        <ele>528.2</ele>
        <time>2020-08-19T14:51:43.000Z</time>
      </trkpt>
      <trkpt lat="48.63557" lon="7.14388">
        <ele>528.11</ele>
        <time>2020-08-19T14:51:47.000Z</time>
      </trkpt>
      <trkpt lat="48.63554" lon="7.14383">
        <ele>531.26</ele>
        <time>2020-08-19T14:51:51.000Z</time>
      </trkpt>
      <trkpt lat="48.63549" lon="7.14377">
        <ele>536.68</ele>
        <time>2020-08-19T14:51:55.000Z</time>
      </trkpt>
      <trkpt lat="48.63546" lon="7.14371">
        <ele>531.15</ele>
        <time>2020-08-19T14:51:58.000Z</time>
      </trkpt>
      <trkpt lat="48.63546" lon="7.14364">
        <ele>535.59</ele>
        <time>2020-08-19T14:52:01.000Z</time>
      </trkpt>
      <trkpt lat="48.63543" lon="7.14359">
        <ele>535.57</ele>
        <time>2020-08-19T14:52:05.000Z</time>
      </trkpt>
      <trkpt lat="48.63541" lon="7.14352">
        <ele>536.24</ele>
        <time>2020-08-19T14:52:10.000Z</time>
      </trkpt>
      <trkpt lat="48.63539" lon="7.14345">
        <ele>537.7</ele>
        <time>2020-08-19T14:52:27.000Z</time>
      </trkpt>
      <trkpt lat="48.63534" lon="7.14342">
        <ele>534.91</ele>
        <time>2020-08-19T14:52:31.000Z</time>
      </trkpt>
      <trkpt lat="48.63531" lon="7.14336">
        <ele>533.76</ele>
        <time>2020-08-19T14:52:35.000Z</time>
      </trkpt>
      <trkpt lat="48.63528" lon="7.14331">
        <ele>536.37</ele>
        <time>2020-08-19T14:52:40.000Z</time>
      </trkpt>
      <trkpt lat="48.63524" lon="7.14328">
        <ele>536.3</ele>
        <time>2020-08-19T14:52:46.000Z</time>
      </trkpt>
      <trkpt lat="48.63519" lon="7.14326">
        <ele>537.52</ele>
        <time>2020-08-19T14:52:50.000Z</time>
      </trkpt>
      <trkpt lat="48.63515" lon="7.14323">
        <ele>537.11</ele>
        <time>2020-08-19T14:52:54.000Z</time>
      </trkpt>
      <trkpt lat="48.63511" lon="7.14317">
        <ele>539.14</ele>
        <time>2020-08-19T14:52:58.000Z</time>
      </trkpt>
      <trkpt lat="48.63506" lon="7.14314">
        <ele>538.45</ele>
        <time>2020-08-19T14:53:04.000Z</time>
      </trkpt>
      <trkpt lat="48.63501" lon="7.14312">
        <ele>538.21</ele>
        <time>2020-08-19T14:53:10.000Z</time>
      </trkpt>
      <trkpt lat="48.63496" lon="7.1431">
        <ele>539.96</ele>
        <time>2020-08-19T14:53:14.000Z</time>
      </trkpt>
      <trkpt lat="48.63492" lon="7.14306">
        <ele>539.11</ele>
        <time>2020-08-19T14:53:17.000Z</time>
      </trkpt>
      <trkpt lat="48.63488" lon="7.14301">
        <ele>541.01</ele>
        <time>2020-08-19T14:53:20.000Z</time>
      </trkpt>
      <trkpt lat="48.63484" lon="7.14296">
        <ele>543.46</ele>
        <time>2020-08-19T14:53:24.000Z</time>
      </trkpt>
      <trkpt lat="48.63479" lon="7.14289">
        <ele>546.5</ele>
        <time>2020-08-19T14:53:31.000Z</time>
      </trkpt>
      <trkpt lat="48.63474" lon="7.14287">
        <ele>549.58</ele>
        <time>2020-08-19T14:53:34.000Z</time>
      </trkpt>
      <trkpt lat="48.6347" lon="7.14283">
        <ele>548.22</ele>
        <time>2020-08-19T14:53:37.000Z</time>
      </trkpt>
      <trkpt lat="48.63466" lon="7.14277">
        <ele>548.29</ele>
        <time>2020-08-19T14:53:40.000Z</time>
      </trkpt>
      <trkpt lat="48.63461" lon="7.14271">
        <ele>547.48</ele>
        <time>2020-08-19T14:53:42.000Z</time>
      </trkpt>
      <trkpt lat="48.63457" lon="7.14264">
        <ele>547.41</ele>
        <time>2020-08-19T14:53:44.000Z</time>
      </trkpt>
      <trkpt lat="48.63453" lon="7.14259">
        <ele>545.47</ele>
        <time>2020-08-19T14:53:46.000Z</time>
      </trkpt>
      <trkpt lat="48.6345" lon="7.14252">
        <ele>547.33</ele>
        <time>2020-08-19T14:53:48.000Z</time>
      </trkpt>
      <trkpt lat="48.63445" lon="7.14248">
        <ele>545.1</ele>
        <time>2020-08-19T14:53:51.000Z</time>
      </trkpt>
      <trkpt lat="48.63441" lon="7.1424">
        <ele>546.34</ele>
        <time>2020-08-19T14:53:54.000Z</time>
      </trkpt>
      <trkpt lat="48.6344" lon="7.1423">
        <ele>544.01</ele>
        <time>2020-08-19T14:53:56.000Z</time>
      </trkpt>
      <trkpt lat="48.63439" lon="7.14221">
        <ele>542.48</ele>
        <time>2020-08-19T14:53:58.000Z</time>
      </trkpt>
      <trkpt lat="48.63437" lon="7.14212">
        <ele>542.72</ele>
        <time>2020-08-19T14:54:00.000Z</time>
      </trkpt>
      <trkpt lat="48.63436" lon="7.14205">
        <ele>542.81</ele>
        <time>2020-08-19T14:54:02.000Z</time>
      </trkpt>
      <trkpt lat="48.63434" lon="7.14198">
        <ele>543.06</ele>
        <time>2020-08-19T14:54:04.000Z</time>
      </trkpt>
      <trkpt lat="48.63432" lon="7.14188">
        <ele>542.45</ele>
        <time>2020-08-19T14:54:06.000Z</time>
      </trkpt>
      <trkpt lat="48.63433" lon="7.14178">
        <ele>525.36</ele>
        <time>2020-08-19T14:54:08.000Z</time>
      </trkpt>
      <trkpt lat="48.63434" lon="7.14167">
        <ele>532.79</ele>
        <time>2020-08-19T14:54:10.000Z</time>
      </trkpt>
      <trkpt lat="48.63432" lon="7.14157">
        <ele>537.6</ele>
        <time>2020-08-19T14:54:12.000Z</time>
      </trkpt>
      <trkpt lat="48.63429" lon="7.14153">
        <ele>539.91</ele>
        <time>2020-08-19T14:54:15.000Z</time>
      </trkpt>
      <trkpt lat="48.63399" lon="7.14097">
        <ele>543.06</ele>
        <time>2020-08-19T14:54:36.000Z</time>
      </trkpt>
      <trkpt lat="48.63394" lon="7.14088">
        <ele>542.06</ele>
        <time>2020-08-19T14:54:37.000Z</time>
      </trkpt>
      <trkpt lat="48.63391" lon="7.14079">
        <ele>541.37</ele>
        <time>2020-08-19T14:54:38.000Z</time>
      </trkpt>
      <trkpt lat="48.63388" lon="7.1407">
        <ele>541.33</ele>
        <time>2020-08-19T14:54:39.000Z</time>
      </trkpt>
      <trkpt lat="48.63382" lon="7.14066">
        <ele>541.38</ele>
        <time>2020-08-19T14:54:40.000Z</time>
      </trkpt>
      <trkpt lat="48.63381" lon="7.14054">
        <ele>539.48</ele>
        <time>2020-08-19T14:54:41.000Z</time>
      </trkpt>
      <trkpt lat="48.63377" lon="7.14046">
        <ele>539.42</ele>
        <time>2020-08-19T14:54:42.000Z</time>
      </trkpt>
      <trkpt lat="48.63371" lon="7.1404">
        <ele>539.9</ele>
        <time>2020-08-19T14:54:43.000Z</time>
      </trkpt>
      <trkpt lat="48.63369" lon="7.14033">
        <ele>541.55</ele>
        <time>2020-08-19T14:54:44.000Z</time>
      </trkpt>
      <trkpt lat="48.63364" lon="7.14024">
        <ele>541.99</ele>
        <time>2020-08-19T14:54:45.000Z</time>
      </trkpt>
      <trkpt lat="48.63361" lon="7.14017">
        <ele>541.93</ele>
        <time>2020-08-19T14:54:46.000Z</time>
      </trkpt>
      <trkpt lat="48.63359" lon="7.14007">
        <ele>543.27</ele>
        <time>2020-08-19T14:54:48.000Z</time>
      </trkpt>
      <trkpt lat="48.63356" lon="7.14001">
        <ele>541.07</ele>
        <time>2020-08-19T14:54:49.000Z</time>
      </trkpt>
      <trkpt lat="48.63353" lon="7.13993">
        <ele>541.73</ele>
        <time>2020-08-19T14:54:51.000Z</time>
      </trkpt>
      <trkpt lat="48.63344" lon="7.13986">
        <ele>542.4</ele>
        <time>2020-08-19T14:54:53.000Z</time>
      </trkpt>
      <trkpt lat="48.63339" lon="7.1398">
        <ele>543.12</ele>
        <time>2020-08-19T14:54:54.000Z</time>
      </trkpt>
      <trkpt lat="48.63335" lon="7.13975">
        <ele>542.1</ele>
        <time>2020-08-19T14:54:55.000Z</time>
      </trkpt>
      <trkpt lat="48.6333" lon="7.13972">
        <ele>540.87</ele>
        <time>2020-08-19T14:54:56.000Z</time>
      </trkpt>
      <trkpt lat="48.63322" lon="7.13969">
        <ele>538.22</ele>
        <time>2020-08-19T14:54:57.000Z</time>
      </trkpt>
      <trkpt lat="48.63317" lon="7.13962">
        <ele>542.11</ele>
        <time>2020-08-19T14:54:58.000Z</time>
      </trkpt>
      <trkpt lat="48.63312" lon="7.13959">
        <ele>540.85</ele>
        <time>2020-08-19T14:54:59.000Z</time>
      </trkpt>
      <trkpt lat="48.63308" lon="7.13949">
        <ele>538.64</ele>
        <time>2020-08-19T14:55:00.000Z</time>
      </trkpt>
      <trkpt lat="48.63302" lon="7.13948">
        <ele>537.83</ele>
        <time>2020-08-19T14:55:01.000Z</time>
      </trkpt>
      <trkpt lat="48.63275" lon="7.13934">
        <ele>535.51</ele>
        <time>2020-08-19T14:55:05.000Z</time>
      </trkpt>
      <trkpt lat="48.6327" lon="7.1393">
        <ele>536.57</ele>
        <time>2020-08-19T14:55:06.000Z</time>
      </trkpt>
      <trkpt lat="48.63267" lon="7.13924">
        <ele>536.32</ele>
        <time>2020-08-19T14:55:07.000Z</time>
      </trkpt>
      <trkpt lat="48.63258" lon="7.13919">
        <ele>534.81</ele>
        <time>2020-08-19T14:55:09.000Z</time>
      </trkpt>
      <trkpt lat="48.63248" lon="7.13915">
        <ele>533.97</ele>
        <time>2020-08-19T14:55:11.000Z</time>
      </trkpt>
      <trkpt lat="48.63244" lon="7.1391">
        <ele>532.2</ele>
        <time>2020-08-19T14:55:12.000Z</time>
      </trkpt>
      <trkpt lat="48.63239" lon="7.13904">
        <ele>527.21</ele>
        <time>2020-08-19T14:55:14.000Z</time>
      </trkpt>
      <trkpt lat="48.63233" lon="7.13897">
        <ele>526.99</ele>
        <time>2020-08-19T14:55:16.000Z</time>
      </trkpt>
      <trkpt lat="48.63186" lon="7.13873">
        <ele>521.65</ele>
        <time>2020-08-19T14:55:25.000Z</time>
      </trkpt>
      <trkpt lat="48.63182" lon="7.13869">
        <ele>521.87</ele>
        <time>2020-08-19T14:55:26.000Z</time>
      </trkpt>
      <trkpt lat="48.63178" lon="7.1386">
        <ele>521.84</ele>
        <time>2020-08-19T14:55:28.000Z</time>
      </trkpt>
      <trkpt lat="48.63174" lon="7.13854">
        <ele>521.04</ele>
        <time>2020-08-19T14:55:30.000Z</time>
      </trkpt>
      <trkpt lat="48.63169" lon="7.13846">
        <ele>521.21</ele>
        <time>2020-08-19T14:55:32.000Z</time>
      </trkpt>
      <trkpt lat="48.63167" lon="7.1384">
        <ele>517.48</ele>
        <time>2020-08-19T14:55:34.000Z</time>
      </trkpt>
      <trkpt lat="48.63164" lon="7.13832">
        <ele>519.38</ele>
        <time>2020-08-19T14:55:36.000Z</time>
      </trkpt>
      <trkpt lat="48.63161" lon="7.13825">
        <ele>518</ele>
        <time>2020-08-19T14:55:38.000Z</time>
      </trkpt>
      <trkpt lat="48.63158" lon="7.13819">
        <ele>519.23</ele>
        <time>2020-08-19T14:55:40.000Z</time>
      </trkpt>
      <trkpt lat="48.63156" lon="7.13812">
        <ele>516.06</ele>
        <time>2020-08-19T14:55:51.000Z</time>
      </trkpt>
      <trkpt lat="48.63114" lon="7.13772">
        <ele>512.84</ele>
        <time>2020-08-19T14:56:05.000Z</time>
      </trkpt>
      <trkpt lat="48.63108" lon="7.13769">
        <ele>511.49</ele>
        <time>2020-08-19T14:56:07.000Z</time>
      </trkpt>
      <trkpt lat="48.63104" lon="7.1377">
        <ele>513.41</ele>
        <time>2020-08-19T14:56:15.000Z</time>
      </trkpt>
      <trkpt lat="48.63098" lon="7.13765">
        <ele>513.72</ele>
        <time>2020-08-19T14:56:18.000Z</time>
      </trkpt>
      <trkpt lat="48.63093" lon="7.13759">
        <ele>515.14</ele>
        <time>2020-08-19T14:56:20.000Z</time>
      </trkpt>
      <trkpt lat="48.63088" lon="7.13753">
        <ele>513.57</ele>
        <time>2020-08-19T14:56:22.000Z</time>
      </trkpt>
      <trkpt lat="48.63084" lon="7.13746">
        <ele>512.86</ele>
        <time>2020-08-19T14:56:24.000Z</time>
      </trkpt>
      <trkpt lat="48.63081" lon="7.13741">
        <ele>513.08</ele>
        <time>2020-08-19T14:56:30.000Z</time>
      </trkpt>
      <trkpt lat="48.63075" lon="7.13738">
        <ele>514.17</ele>
        <time>2020-08-19T14:56:45.000Z</time>
      </trkpt>
      <trkpt lat="48.6307" lon="7.1374">
        <ele>514.86</ele>
        <time>2020-08-19T14:56:48.000Z</time>
      </trkpt>
      <trkpt lat="48.63063" lon="7.13741">
        <ele>516.4</ele>
        <time>2020-08-19T14:56:51.000Z</time>
      </trkpt>
      <trkpt lat="48.63058" lon="7.13741">
        <ele>518.12</ele>
        <time>2020-08-19T14:56:53.000Z</time>
      </trkpt>
      <trkpt lat="48.63052" lon="7.13741">
        <ele>518.24</ele>
        <time>2020-08-19T14:56:56.000Z</time>
      </trkpt>
      <trkpt lat="48.63047" lon="7.1374">
        <ele>520.51</ele>
        <time>2020-08-19T14:57:09.000Z</time>
      </trkpt>
      <trkpt lat="48.63042" lon="7.13738">
        <ele>520.97</ele>
        <time>2020-08-19T14:57:24.000Z</time>
      </trkpt>
      <trkpt lat="48.63038" lon="7.13736">
        <ele>524.06</ele>
        <time>2020-08-19T14:57:29.000Z</time>
      </trkpt>
      <trkpt lat="48.63034" lon="7.13733">
        <ele>526.9</ele>
        <time>2020-08-19T14:57:36.000Z</time>
      </trkpt>
      <trkpt lat="48.6303" lon="7.13738">
        <ele>525.48</ele>
        <time>2020-08-19T14:57:42.000Z</time>
      </trkpt>
      <trkpt lat="48.63028" lon="7.13745">
        <ele>521.37</ele>
        <time>2020-08-19T14:57:53.000Z</time>
      </trkpt>
      <trkpt lat="48.63023" lon="7.13746">
        <ele>522.59</ele>
        <time>2020-08-19T14:57:58.000Z</time>
      </trkpt>
      <trkpt lat="48.63018" lon="7.13746">
        <ele>521.62</ele>
        <time>2020-08-19T14:58:04.000Z</time>
      </trkpt>
      <trkpt lat="48.63013" lon="7.13746">
        <ele>513.07</ele>
        <time>2020-08-19T14:58:13.000Z</time>
      </trkpt>
      <trkpt lat="48.63008" lon="7.13745">
        <ele>513.06</ele>
        <time>2020-08-19T14:58:15.000Z</time>
      </trkpt>
      <trkpt lat="48.63002" lon="7.13742">
        <ele>513.13</ele>
        <time>2020-08-19T14:58:18.000Z</time>
      </trkpt>
      <trkpt lat="48.62996" lon="7.1374">
        <ele>511.88</ele>
        <time>2020-08-19T14:58:20.000Z</time>
      </trkpt>
      <trkpt lat="48.6299" lon="7.13739">
        <ele>511.88</ele>
        <time>2020-08-19T14:58:22.000Z</time>
      </trkpt>
      <trkpt lat="48.62983" lon="7.13736">
        <ele>510.65</ele>
        <time>2020-08-19T14:58:24.000Z</time>
      </trkpt>
      <trkpt lat="48.62977" lon="7.13731">
        <ele>509.3</ele>
        <time>2020-08-19T14:58:26.000Z</time>
      </trkpt>
      <trkpt lat="48.62974" lon="7.13726">
        <ele>508.47</ele>
        <time>2020-08-19T14:58:32.000Z</time>
      </trkpt>
      <trkpt lat="48.62968" lon="7.13725">
        <ele>510.32</ele>
        <time>2020-08-19T14:58:57.000Z</time>
      </trkpt>
      <trkpt lat="48.62963" lon="7.13725">
        <ele>508.72</ele>
        <time>2020-08-19T14:58:59.000Z</time>
      </trkpt>
      <trkpt lat="48.62958" lon="7.13724">
        <ele>507.07</ele>
        <time>2020-08-19T14:59:01.000Z</time>
      </trkpt>
      <trkpt lat="48.62953" lon="7.13723">
        <ele>505.34</ele>
        <time>2020-08-19T14:59:03.000Z</time>
      </trkpt>
      <trkpt lat="48.62949" lon="7.13716">
        <ele>505.78</ele>
        <time>2020-08-19T14:59:15.000Z</time>
      </trkpt>
      <trkpt lat="48.62916" lon="7.13693">
        <ele>498.26</ele>
        <time>2020-08-19T14:59:23.000Z</time>
      </trkpt>
      <trkpt lat="48.62914" lon="7.13687">
        <ele>497.94</ele>
        <time>2020-08-19T14:59:24.000Z</time>
      </trkpt>
      <trkpt lat="48.62909" lon="7.13681">
        <ele>495.95</ele>
        <time>2020-08-19T14:59:26.000Z</time>
      </trkpt>
      <trkpt lat="48.62901" lon="7.13676">
        <ele>495.22</ele>
        <time>2020-08-19T14:59:28.000Z</time>
      </trkpt>
      <trkpt lat="48.62896" lon="7.13676">
        <ele>495.51</ele>
        <time>2020-08-19T14:59:30.000Z</time>
      </trkpt>
      <trkpt lat="48.62885" lon="7.1367">
        <ele>493.74</ele>
        <time>2020-08-19T14:59:33.000Z</time>
      </trkpt>
      <trkpt lat="48.62881" lon="7.13666">
        <ele>492.9</ele>
        <time>2020-08-19T14:59:36.000Z</time>
      </trkpt>
      <trkpt lat="48.62877" lon="7.13664">
        <ele>494.78</ele>
        <time>2020-08-19T14:59:45.000Z</time>
      </trkpt>
      <trkpt lat="48.62872" lon="7.1366">
        <ele>495.13</ele>
        <time>2020-08-19T14:59:50.000Z</time>
      </trkpt>
      <trkpt lat="48.62868" lon="7.13657">
        <ele>497.11</ele>
        <time>2020-08-19T14:59:54.000Z</time>
      </trkpt>
      <trkpt lat="48.62865" lon="7.13649">
        <ele>500.84</ele>
        <time>2020-08-19T15:00:00.000Z</time>
      </trkpt>
      <trkpt lat="48.62856" lon="7.13639">
        <ele>495.54</ele>
        <time>2020-08-19T15:00:07.000Z</time>
      </trkpt>
      <trkpt lat="48.62851" lon="7.13636">
        <ele>497.01</ele>
        <time>2020-08-19T15:00:11.000Z</time>
      </trkpt>
      <trkpt lat="48.62847" lon="7.1363">
        <ele>494.48</ele>
        <time>2020-08-19T15:00:15.000Z</time>
      </trkpt>
      <trkpt lat="48.62846" lon="7.13623">
        <ele>494.13</ele>
        <time>2020-08-19T15:00:21.000Z</time>
      </trkpt>
      <trkpt lat="48.62845" lon="7.13615">
        <ele>498.2</ele>
        <time>2020-08-19T15:00:24.000Z</time>
      </trkpt>
      <trkpt lat="48.62841" lon="7.1361">
        <ele>494.03</ele>
        <time>2020-08-19T15:00:27.000Z</time>
      </trkpt>
      <trkpt lat="48.62838" lon="7.13602">
        <ele>496.24</ele>
        <time>2020-08-19T15:00:32.000Z</time>
      </trkpt>
      <trkpt lat="48.62834" lon="7.13598">
        <ele>497.62</ele>
        <time>2020-08-19T15:00:37.000Z</time>
      </trkpt>
      <trkpt lat="48.6283" lon="7.13592">
        <ele>497.69</ele>
        <time>2020-08-19T15:00:41.000Z</time>
      </trkpt>
      <trkpt lat="48.62806" lon="7.13568">
        <ele>498.5</ele>
        <time>2020-08-19T15:00:58.000Z</time>
      </trkpt>
      <trkpt lat="48.62795" lon="7.1354">
        <ele>496.19</ele>
        <time>2020-08-19T15:01:10.000Z</time>
      </trkpt>
      <trkpt lat="48.62792" lon="7.13534">
        <ele>496.21</ele>
        <time>2020-08-19T15:01:12.000Z</time>
      </trkpt>
      <trkpt lat="48.62788" lon="7.13527">
        <ele>494.64</ele>
        <time>2020-08-19T15:01:14.000Z</time>
      </trkpt>
      <trkpt lat="48.62783" lon="7.1352">
        <ele>492.61</ele>
        <time>2020-08-19T15:01:16.000Z</time>
      </trkpt>
      <trkpt lat="48.62778" lon="7.13514">
        <ele>491.93</ele>
        <time>2020-08-19T15:01:18.000Z</time>
      </trkpt>
      <trkpt lat="48.62774" lon="7.13506">
        <ele>491.19</ele>
        <time>2020-08-19T15:01:20.000Z</time>
      </trkpt>
      <trkpt lat="48.62769" lon="7.13498">
        <ele>491.67</ele>
        <time>2020-08-19T15:01:22.000Z</time>
      </trkpt>
      <trkpt lat="48.62766" lon="7.13492">
        <ele>491.13</ele>
        <time>2020-08-19T15:01:24.000Z</time>
      </trkpt>
      <trkpt lat="48.6276" lon="7.13485">
        <ele>491.84</ele>
        <time>2020-08-19T15:01:26.000Z</time>
      </trkpt>
      <trkpt lat="48.62756" lon="7.1348">
        <ele>491.77</ele>
        <time>2020-08-19T15:01:28.000Z</time>
      </trkpt>
      <trkpt lat="48.62754" lon="7.13475">
        <ele>490.74</ele>
        <time>2020-08-19T15:01:32.000Z</time>
      </trkpt>
      <trkpt lat="48.62748" lon="7.13468">
        <ele>492.18</ele>
        <time>2020-08-19T15:01:35.000Z</time>
      </trkpt>
      <trkpt lat="48.62745" lon="7.13463">
        <ele>493.71</ele>
        <time>2020-08-19T15:01:41.000Z</time>
      </trkpt>
      <trkpt lat="48.62741" lon="7.13458">
        <ele>494.31</ele>
        <time>2020-08-19T15:01:46.000Z</time>
      </trkpt>
      <trkpt lat="48.62735" lon="7.13453">
        <ele>490.87</ele>
        <time>2020-08-19T15:01:49.000Z</time>
      </trkpt>
      <trkpt lat="48.62722" lon="7.13437">
        <ele>488.77</ele>
        <time>2020-08-19T15:01:53.000Z</time>
      </trkpt>
      <trkpt lat="48.62716" lon="7.13433">
        <ele>488.05</ele>
        <time>2020-08-19T15:01:55.000Z</time>
      </trkpt>
      <trkpt lat="48.62711" lon="7.13426">
        <ele>486.64</ele>
        <time>2020-08-19T15:01:58.000Z</time>
      </trkpt>
      <trkpt lat="48.62707" lon="7.13416">
        <ele>486.73</ele>
        <time>2020-08-19T15:02:00.000Z</time>
      </trkpt>
      <trkpt lat="48.62706" lon="7.13408">
        <ele>484.03</ele>
        <time>2020-08-19T15:02:02.000Z</time>
      </trkpt>
      <trkpt lat="48.62707" lon="7.134">
        <ele>483.23</ele>
        <time>2020-08-19T15:02:04.000Z</time>
      </trkpt>
      <trkpt lat="48.62709" lon="7.13391">
        <ele>481.7</ele>
        <time>2020-08-19T15:02:06.000Z</time>
      </trkpt>
      <trkpt lat="48.62712" lon="7.13383">
        <ele>481.08</ele>
        <time>2020-08-19T15:02:08.000Z</time>
      </trkpt>
      <trkpt lat="48.62715" lon="7.13377">
        <ele>480.16</ele>
        <time>2020-08-19T15:02:10.000Z</time>
      </trkpt>
      <trkpt lat="48.6272" lon="7.1337">
        <ele>482.94</ele>
        <time>2020-08-19T15:02:12.000Z</time>
      </trkpt>
      <trkpt lat="48.62725" lon="7.13366">
        <ele>481.84</ele>
        <time>2020-08-19T15:02:14.000Z</time>
      </trkpt>
      <trkpt lat="48.62729" lon="7.13362">
        <ele>480.76</ele>
        <time>2020-08-19T15:02:16.000Z</time>
      </trkpt>
      <trkpt lat="48.62734" lon="7.13356">
        <ele>481.14</ele>
        <time>2020-08-19T15:02:18.000Z</time>
      </trkpt>
      <trkpt lat="48.62734" lon="7.1335">
        <ele>479.14</ele>
        <time>2020-08-19T15:02:26.000Z</time>
      </trkpt>
      <trkpt lat="48.62738" lon="7.13346">
        <ele>478.73</ele>
        <time>2020-08-19T15:02:37.000Z</time>
      </trkpt>
      <trkpt lat="48.62745" lon="7.13342">
        <ele>476.62</ele>
        <time>2020-08-19T15:02:39.000Z</time>
      </trkpt>
      <trkpt lat="48.62754" lon="7.13336">
        <ele>475.55</ele>
        <time>2020-08-19T15:02:41.000Z</time>
      </trkpt>
      <trkpt lat="48.62759" lon="7.13334">
        <ele>476.94</ele>
        <time>2020-08-19T15:02:42.000Z</time>
      </trkpt>
      <trkpt lat="48.62763" lon="7.13331">
        <ele>477.79</ele>
        <time>2020-08-19T15:02:43.000Z</time>
      </trkpt>
      <trkpt lat="48.62768" lon="7.13329">
        <ele>474.67</ele>
        <time>2020-08-19T15:02:44.000Z</time>
      </trkpt>
      <trkpt lat="48.62777" lon="7.13321">
        <ele>473.78</ele>
        <time>2020-08-19T15:02:46.000Z</time>
      </trkpt>
      <trkpt lat="48.62786" lon="7.13316">
        <ele>474.32</ele>
        <time>2020-08-19T15:02:48.000Z</time>
      </trkpt>
      <trkpt lat="48.62793" lon="7.13305">
        <ele>475.67</ele>
        <time>2020-08-19T15:02:50.000Z</time>
      </trkpt>
      <trkpt lat="48.62798" lon="7.13298">
        <ele>477.43</ele>
        <time>2020-08-19T15:02:51.000Z</time>
      </trkpt>
      <trkpt lat="48.62803" lon="7.13294">
        <ele>477.54</ele>
        <time>2020-08-19T15:02:53.000Z</time>
      </trkpt>
      <trkpt lat="48.62807" lon="7.13286">
        <ele>477.09</ele>
        <time>2020-08-19T15:02:55.000Z</time>
      </trkpt>
      <trkpt lat="48.62811" lon="7.13277">
        <ele>475.96</ele>
        <time>2020-08-19T15:02:57.000Z</time>
      </trkpt>
      <trkpt lat="48.62817" lon="7.13269">
        <ele>475.57</ele>
        <time>2020-08-19T15:02:59.000Z</time>
      </trkpt>
      <trkpt lat="48.62821" lon="7.13264">
        <ele>474.59</ele>
        <time>2020-08-19T15:03:00.000Z</time>
      </trkpt>
      <trkpt lat="48.62828" lon="7.13256">
        <ele>472.23</ele>
        <time>2020-08-19T15:03:02.000Z</time>
      </trkpt>
      <trkpt lat="48.62831" lon="7.13248">
        <ele>472.74</ele>
        <time>2020-08-19T15:03:03.000Z</time>
      </trkpt>
      <trkpt lat="48.62837" lon="7.1324">
        <ele>472.88</ele>
        <time>2020-08-19T15:03:05.000Z</time>
      </trkpt>
      <trkpt lat="48.62843" lon="7.13232">
        <ele>472.39</ele>
        <time>2020-08-19T15:03:07.000Z</time>
      </trkpt>
      <trkpt lat="48.62846" lon="7.13228">
        <ele>472.03</ele>
        <time>2020-08-19T15:03:08.000Z</time>
      </trkpt>
      <trkpt lat="48.6285" lon="7.13224">
        <ele>471.85</ele>
        <time>2020-08-19T15:03:09.000Z</time>
      </trkpt>
      <trkpt lat="48.62854" lon="7.13221">
        <ele>471.98</ele>
        <time>2020-08-19T15:03:10.000Z</time>
      </trkpt>
      <trkpt lat="48.6286" lon="7.13218">
        <ele>472.02</ele>
        <time>2020-08-19T15:03:11.000Z</time>
      </trkpt>
      <trkpt lat="48.62863" lon="7.13212">
        <ele>471.14</ele>
        <time>2020-08-19T15:03:12.000Z</time>
      </trkpt>
      <trkpt lat="48.62866" lon="7.13206">
        <ele>471.29</ele>
        <time>2020-08-19T15:03:13.000Z</time>
      </trkpt>
      <trkpt lat="48.6287" lon="7.132">
        <ele>470.47</ele>
        <time>2020-08-19T15:03:14.000Z</time>
      </trkpt>
      <trkpt lat="48.62876" lon="7.13189">
        <ele>469.63</ele>
        <time>2020-08-19T15:03:16.000Z</time>
      </trkpt>
      <trkpt lat="48.62878" lon="7.13183">
        <ele>469.99</ele>
        <time>2020-08-19T15:03:17.000Z</time>
      </trkpt>
      <trkpt lat="48.6288" lon="7.13176">
        <ele>470.19</ele>
        <time>2020-08-19T15:03:18.000Z</time>
      </trkpt>
      <trkpt lat="48.62884" lon="7.13159">
        <ele>471.2</ele>
        <time>2020-08-19T15:03:20.000Z</time>
      </trkpt>
      <trkpt lat="48.62888" lon="7.13145">
        <ele>469.67</ele>
        <time>2020-08-19T15:03:22.000Z</time>
      </trkpt>
      <trkpt lat="48.62889" lon="7.13131">
        <ele>468.57</ele>
        <time>2020-08-19T15:03:24.000Z</time>
      </trkpt>
      <trkpt lat="48.62888" lon="7.13122">
        <ele>467.56</ele>
        <time>2020-08-19T15:03:25.000Z</time>
      </trkpt>
      <trkpt lat="48.62887" lon="7.13115">
        <ele>468.05</ele>
        <time>2020-08-19T15:03:26.000Z</time>
      </trkpt>
      <trkpt lat="48.62887" lon="7.13108">
        <ele>467.97</ele>
        <time>2020-08-19T15:03:27.000Z</time>
      </trkpt>
      <trkpt lat="48.62888" lon="7.13095">
        <ele>467.32</ele>
        <time>2020-08-19T15:03:29.000Z</time>
      </trkpt>
      <trkpt lat="48.6289" lon="7.13088">
        <ele>467.39</ele>
        <time>2020-08-19T15:03:30.000Z</time>
      </trkpt>
      <trkpt lat="48.62895" lon="7.13075">
        <ele>465.29</ele>
        <time>2020-08-19T15:03:32.000Z</time>
      </trkpt>
      <trkpt lat="48.62897" lon="7.13069">
        <ele>466.1</ele>
        <time>2020-08-19T15:03:33.000Z</time>
      </trkpt>
      <trkpt lat="48.62898" lon="7.13062">
        <ele>465.86</ele>
        <time>2020-08-19T15:03:34.000Z</time>
      </trkpt>
      <trkpt lat="48.62899" lon="7.13049">
        <ele>466.66</ele>
        <time>2020-08-19T15:03:36.000Z</time>
      </trkpt>
      <trkpt lat="48.62899" lon="7.13038">
        <ele>466.53</ele>
        <time>2020-08-19T15:03:38.000Z</time>
      </trkpt>
      <trkpt lat="48.62894" lon="7.13031">
        <ele>464.77</ele>
        <time>2020-08-19T15:03:40.000Z</time>
      </trkpt>
      <trkpt lat="48.62887" lon="7.13021">
        <ele>465.22</ele>
        <time>2020-08-19T15:03:42.000Z</time>
      </trkpt>
      <trkpt lat="48.62886" lon="7.13014">
        <ele>465.25</ele>
        <time>2020-08-19T15:03:43.000Z</time>
      </trkpt>
      <trkpt lat="48.62883" lon="7.13007">
        <ele>468.28</ele>
        <time>2020-08-19T15:03:49.000Z</time>
      </trkpt>
      <trkpt lat="48.62882" lon="7.13">
        <ele>467.25</ele>
        <time>2020-08-19T15:03:56.000Z</time>
      </trkpt>
      <trkpt lat="48.62877" lon="7.12997">
        <ele>468.87</ele>
        <time>2020-08-19T15:04:03.000Z</time>
      </trkpt>
      <trkpt lat="48.62875" lon="7.1299">
        <ele>468.97</ele>
        <time>2020-08-19T15:04:08.000Z</time>
      </trkpt>
      <trkpt lat="48.62874" lon="7.12983">
        <ele>469.16</ele>
        <time>2020-08-19T15:04:12.000Z</time>
      </trkpt>
      <trkpt lat="48.62872" lon="7.12976">
        <ele>468.36</ele>
        <time>2020-08-19T15:04:16.000Z</time>
      </trkpt>
      <trkpt lat="48.62871" lon="7.12969">
        <ele>466.06</ele>
        <time>2020-08-19T15:04:20.000Z</time>
      </trkpt>
      <trkpt lat="48.62869" lon="7.12962">
        <ele>471.26</ele>
        <time>2020-08-19T15:05:00.000Z</time>
      </trkpt>
      <trkpt lat="48.62867" lon="7.12955">
        <ele>468.84</ele>
        <time>2020-08-19T15:05:04.000Z</time>
      </trkpt>
      <trkpt lat="48.62866" lon="7.12948">
        <ele>469.03</ele>
        <time>2020-08-19T15:05:07.000Z</time>
      </trkpt>
      <trkpt lat="48.62864" lon="7.12942">
        <ele>472.84</ele>
        <time>2020-08-19T15:05:11.000Z</time>
      </trkpt>
      <trkpt lat="48.62864" lon="7.12934">
        <ele>473.84</ele>
        <time>2020-08-19T15:05:21.000Z</time>
      </trkpt>
      <trkpt lat="48.62863" lon="7.12926">
        <ele>472.92</ele>
        <time>2020-08-19T15:05:24.000Z</time>
      </trkpt>
      <trkpt lat="48.62864" lon="7.12917">
        <ele>473.43</ele>
        <time>2020-08-19T15:05:27.000Z</time>
      </trkpt>
      <trkpt lat="48.62866" lon="7.12909">
        <ele>475.31</ele>
        <time>2020-08-19T15:05:30.000Z</time>
      </trkpt>
      <trkpt lat="48.62867" lon="7.12902">
        <ele>473.54</ele>
        <time>2020-08-19T15:05:32.000Z</time>
      </trkpt>
      <trkpt lat="48.62868" lon="7.12895">
        <ele>473.29</ele>
        <time>2020-08-19T15:05:34.000Z</time>
      </trkpt>
      <trkpt lat="48.62869" lon="7.12888">
        <ele>473.81</ele>
        <time>2020-08-19T15:05:36.000Z</time>
      </trkpt>
      <trkpt lat="48.62884" lon="7.12831">
        <ele>473.26</ele>
        <time>2020-08-19T15:05:51.000Z</time>
      </trkpt>
      <trkpt lat="48.62883" lon="7.12824">
        <ele>472.93</ele>
        <time>2020-08-19T15:05:53.000Z</time>
      </trkpt>
      <trkpt lat="48.62884" lon="7.12817">
        <ele>469.28</ele>
        <time>2020-08-19T15:05:55.000Z</time>
      </trkpt>
      <trkpt lat="48.62889" lon="7.12809">
        <ele>465.19</ele>
        <time>2020-08-19T15:05:57.000Z</time>
      </trkpt>
      <trkpt lat="48.62894" lon="7.12805">
        <ele>467.24</ele>
        <time>2020-08-19T15:05:59.000Z</time>
      </trkpt>
      <trkpt lat="48.62897" lon="7.12799">
        <ele>469.19</ele>
        <time>2020-08-19T15:06:02.000Z</time>
      </trkpt>
      <trkpt lat="48.62899" lon="7.12792">
        <ele>464.54</ele>
        <time>2020-08-19T15:06:04.000Z</time>
      </trkpt>
      <trkpt lat="48.62902" lon="7.12785">
        <ele>464.67</ele>
        <time>2020-08-19T15:06:06.000Z</time>
      </trkpt>
      <trkpt lat="48.62907" lon="7.12778">
        <ele>463.02</ele>
        <time>2020-08-19T15:06:08.000Z</time>
      </trkpt>
      <trkpt lat="48.62913" lon="7.12772">
        <ele>463.06</ele>
        <time>2020-08-19T15:06:10.000Z</time>
      </trkpt>
      <trkpt lat="48.62918" lon="7.12768">
        <ele>465.47</ele>
        <time>2020-08-19T15:06:12.000Z</time>
      </trkpt>
      <trkpt lat="48.62921" lon="7.12762">
        <ele>468.59</ele>
        <time>2020-08-19T15:06:14.000Z</time>
      </trkpt>
      <trkpt lat="48.62926" lon="7.12752">
        <ele>472.17</ele>
        <time>2020-08-19T15:06:16.000Z</time>
      </trkpt>
      <trkpt lat="48.62931" lon="7.12746">
        <ele>474.29</ele>
        <time>2020-08-19T15:06:18.000Z</time>
      </trkpt>
      <trkpt lat="48.62935" lon="7.12742">
        <ele>473.03</ele>
        <time>2020-08-19T15:06:20.000Z</time>
      </trkpt>
      <trkpt lat="48.6294" lon="7.12739">
        <ele>473.43</ele>
        <time>2020-08-19T15:06:22.000Z</time>
      </trkpt>
      <trkpt lat="48.62945" lon="7.12734">
        <ele>472.51</ele>
        <time>2020-08-19T15:06:24.000Z</time>
      </trkpt>
      <trkpt lat="48.6295" lon="7.12729">
        <ele>473.4</ele>
        <time>2020-08-19T15:06:26.000Z</time>
      </trkpt>
      <trkpt lat="48.62956" lon="7.12723">
        <ele>474.08</ele>
        <time>2020-08-19T15:06:28.000Z</time>
      </trkpt>
      <trkpt lat="48.62961" lon="7.12717">
        <ele>475.45</ele>
        <time>2020-08-19T15:06:30.000Z</time>
      </trkpt>
      <trkpt lat="48.62967" lon="7.1271">
        <ele>475.16</ele>
        <time>2020-08-19T15:06:32.000Z</time>
      </trkpt>
      <trkpt lat="48.62974" lon="7.12702">
        <ele>476.34</ele>
        <time>2020-08-19T15:06:34.000Z</time>
      </trkpt>
      <trkpt lat="48.62978" lon="7.12698">
        <ele>476.32</ele>
        <time>2020-08-19T15:06:36.000Z</time>
      </trkpt>
      <trkpt lat="48.62984" lon="7.12694">
        <ele>475.76</ele>
        <time>2020-08-19T15:06:38.000Z</time>
      </trkpt>
      <trkpt lat="48.62991" lon="7.1269">
        <ele>474.77</ele>
        <time>2020-08-19T15:06:40.000Z</time>
      </trkpt>
      <trkpt lat="48.62996" lon="7.12689">
        <ele>479.48</ele>
        <time>2020-08-19T15:06:42.000Z</time>
      </trkpt>
      <trkpt lat="48.63001" lon="7.12686">
        <ele>477.75</ele>
        <time>2020-08-19T15:06:44.000Z</time>
      </trkpt>
      <trkpt lat="48.63005" lon="7.12684">
        <ele>475.19</ele>
        <time>2020-08-19T15:06:46.000Z</time>
      </trkpt>
      <trkpt lat="48.63011" lon="7.12679">
        <ele>474.05</ele>
        <time>2020-08-19T15:06:49.000Z</time>
      </trkpt>
      <trkpt lat="48.63016" lon="7.12671">
        <ele>472.87</ele>
        <time>2020-08-19T15:06:51.000Z</time>
      </trkpt>
      <trkpt lat="48.63018" lon="7.1266">
        <ele>472.64</ele>
        <time>2020-08-19T15:06:53.000Z</time>
      </trkpt>
      <trkpt lat="48.63021" lon="7.12649">
        <ele>471.6</ele>
        <time>2020-08-19T15:06:55.000Z</time>
      </trkpt>
      <trkpt lat="48.63024" lon="7.1264">
        <ele>473.8</ele>
        <time>2020-08-19T15:06:57.000Z</time>
      </trkpt>
      <trkpt lat="48.63028" lon="7.12633">
        <ele>472.66</ele>
        <time>2020-08-19T15:06:59.000Z</time>
      </trkpt>
      <trkpt lat="48.63033" lon="7.12625">
        <ele>469.65</ele>
        <time>2020-08-19T15:07:01.000Z</time>
      </trkpt>
      <trkpt lat="48.63037" lon="7.12607">
        <ele>468.78</ele>
        <time>2020-08-19T15:07:03.000Z</time>
      </trkpt>
      <trkpt lat="48.63038" lon="7.12589">
        <ele>469.09</ele>
        <time>2020-08-19T15:07:05.000Z</time>
      </trkpt>
      <trkpt lat="48.63039" lon="7.12581">
        <ele>469.28</ele>
        <time>2020-08-19T15:07:06.000Z</time>
      </trkpt>
      <trkpt lat="48.6304" lon="7.12574">
        <ele>468.24</ele>
        <time>2020-08-19T15:07:07.000Z</time>
      </trkpt>
      <trkpt lat="48.63045" lon="7.12561">
        <ele>466.28</ele>
        <time>2020-08-19T15:07:09.000Z</time>
      </trkpt>
      <trkpt lat="48.63046" lon="7.12547">
        <ele>466.51</ele>
        <time>2020-08-19T15:07:11.000Z</time>
      </trkpt>
      <trkpt lat="48.63045" lon="7.12534">
        <ele>465.03</ele>
        <time>2020-08-19T15:07:13.000Z</time>
      </trkpt>
      <trkpt lat="48.63044" lon="7.12525">
        <ele>463.35</ele>
        <time>2020-08-19T15:07:14.000Z</time>
      </trkpt>
      <trkpt lat="48.63043" lon="7.12517">
        <ele>463.96</ele>
        <time>2020-08-19T15:07:15.000Z</time>
      </trkpt>
      <trkpt lat="48.63043" lon="7.1251">
        <ele>462.59</ele>
        <time>2020-08-19T15:07:16.000Z</time>
      </trkpt>
      <trkpt lat="48.6304" lon="7.12501">
        <ele>463.54</ele>
        <time>2020-08-19T15:07:17.000Z</time>
      </trkpt>
      <trkpt lat="48.63037" lon="7.12493">
        <ele>463.67</ele>
        <time>2020-08-19T15:07:18.000Z</time>
      </trkpt>
      <trkpt lat="48.63036" lon="7.12485">
        <ele>463.08</ele>
        <time>2020-08-19T15:07:19.000Z</time>
      </trkpt>
      <trkpt lat="48.63026" lon="7.12445">
        <ele>468.83</ele>
        <time>2020-08-19T15:07:26.000Z</time>
      </trkpt>
      <trkpt lat="48.63025" lon="7.12438">
        <ele>461.77</ele>
        <time>2020-08-19T15:07:30.000Z</time>
      </trkpt>
      <trkpt lat="48.63023" lon="7.1243">
        <ele>448.49</ele>
        <time>2020-08-19T15:08:28.000Z</time>
      </trkpt>
      <trkpt lat="48.6302" lon="7.12424">
        <ele>448.11</ele>
        <time>2020-08-19T15:08:31.000Z</time>
      </trkpt>
      <trkpt lat="48.63016" lon="7.12421">
        <ele>448.62</ele>
        <time>2020-08-19T15:08:34.000Z</time>
      </trkpt>
      <trkpt lat="48.63011" lon="7.12418">
        <ele>451.52</ele>
        <time>2020-08-19T15:08:51.000Z</time>
      </trkpt>
      <trkpt lat="48.63009" lon="7.12411">
        <ele>452.44</ele>
        <time>2020-08-19T15:09:06.000Z</time>
      </trkpt>
      <trkpt lat="48.63005" lon="7.12406">
        <ele>453.02</ele>
        <time>2020-08-19T15:09:11.000Z</time>
      </trkpt>
      <trkpt lat="48.63001" lon="7.12404">
        <ele>452.12</ele>
        <time>2020-08-19T15:09:18.000Z</time>
      </trkpt>
      <trkpt lat="48.62995" lon="7.12389">
        <ele>445.26</ele>
        <time>2020-08-19T15:10:51.000Z</time>
      </trkpt>
      <trkpt lat="48.62994" lon="7.12372">
        <ele>444.56</ele>
        <time>2020-08-19T15:11:04.000Z</time>
      </trkpt>
      <trkpt lat="48.62998" lon="7.12318">
        <ele>435.02</ele>
        <time>2020-08-19T15:11:20.000Z</time>
      </trkpt>
      <trkpt lat="48.63001" lon="7.12313">
        <ele>435.03</ele>
        <time>2020-08-19T15:11:28.000Z</time>
      </trkpt>
      <trkpt lat="48.63025" lon="7.12278">
        <ele>466.68</ele>
        <time>2020-08-19T15:11:43.000Z</time>
      </trkpt>
      <trkpt lat="48.6303" lon="7.12276">
        <ele>458.24</ele>
        <time>2020-08-19T15:11:45.000Z</time>
      </trkpt>
      <trkpt lat="48.63032" lon="7.1227">
        <ele>435.04</ele>
        <time>2020-08-19T15:11:57.000Z</time>
      </trkpt>
      <trkpt lat="48.63035" lon="7.12262">
        <ele>431.11</ele>
        <time>2020-08-19T15:12:22.000Z</time>
      </trkpt>
      <trkpt lat="48.63039" lon="7.12258">
        <ele>429.99</ele>
        <time>2020-08-19T15:12:25.000Z</time>
      </trkpt>
      <trkpt lat="48.63043" lon="7.12253">
        <ele>427.26</ele>
        <time>2020-08-19T15:12:36.000Z</time>
      </trkpt>
      <trkpt lat="48.63048" lon="7.12252">
        <ele>423.28</ele>
        <time>2020-08-19T15:12:42.000Z</time>
      </trkpt>
      <trkpt lat="48.63051" lon="7.12247">
        <ele>420.78</ele>
        <time>2020-08-19T15:12:47.000Z</time>
      </trkpt>
      <trkpt lat="48.63054" lon="7.12239">
        <ele>421.01</ele>
        <time>2020-08-19T15:12:53.000Z</time>
      </trkpt>
      <trkpt lat="48.63059" lon="7.12239">
        <ele>421.23</ele>
        <time>2020-08-19T15:12:56.000Z</time>
      </trkpt>
      <trkpt lat="48.63067" lon="7.12238">
        <ele>420.89</ele>
        <time>2020-08-19T15:12:59.000Z</time>
      </trkpt>
      <trkpt lat="48.63071" lon="7.12241">
        <ele>419.76</ele>
        <time>2020-08-19T15:13:02.000Z</time>
      </trkpt>
      <trkpt lat="48.63052" lon="7.12227">
        <ele>414.06</ele>
        <time>2020-08-19T15:13:15.000Z</time>
      </trkpt>
      <trkpt lat="48.63055" lon="7.1222">
        <ele>412.92</ele>
        <time>2020-08-19T15:13:26.000Z</time>
      </trkpt>
      <trkpt lat="48.63054" lon="7.12213">
        <ele>411.4</ele>
        <time>2020-08-19T15:13:32.000Z</time>
      </trkpt>
      <trkpt lat="48.63052" lon="7.12206">
        <ele>412.14</ele>
        <time>2020-08-19T15:13:40.000Z</time>
      </trkpt>
      <trkpt lat="48.63042" lon="7.12184">
        <ele>405.42</ele>
        <time>2020-08-19T15:13:46.000Z</time>
      </trkpt>
      <trkpt lat="48.63036" lon="7.12177">
        <ele>404.08</ele>
        <time>2020-08-19T15:13:48.000Z</time>
      </trkpt>
      <trkpt lat="48.62998" lon="7.12142">
        <ele>409.28</ele>
        <time>2020-08-19T15:13:58.000Z</time>
      </trkpt>
      <trkpt lat="48.62989" lon="7.12139">
        <ele>410.03</ele>
        <time>2020-08-19T15:14:00.000Z</time>
      </trkpt>
      <trkpt lat="48.62982" lon="7.12138">
        <ele>406.3</ele>
        <time>2020-08-19T15:14:02.000Z</time>
      </trkpt>
      <trkpt lat="48.62977" lon="7.12135">
        <ele>406.48</ele>
        <time>2020-08-19T15:14:04.000Z</time>
      </trkpt>
      <trkpt lat="48.62971" lon="7.12132">
        <ele>404.84</ele>
        <time>2020-08-19T15:14:06.000Z</time>
      </trkpt>
      <trkpt lat="48.62965" lon="7.12131">
        <ele>403.15</ele>
        <time>2020-08-19T15:14:08.000Z</time>
      </trkpt>
      <trkpt lat="48.62958" lon="7.1213">
        <ele>403.56</ele>
        <time>2020-08-19T15:14:10.000Z</time>
      </trkpt>
      <trkpt lat="48.62953" lon="7.12131">
        <ele>403.68</ele>
        <time>2020-08-19T15:14:13.000Z</time>
      </trkpt>
      <trkpt lat="48.62947" lon="7.12133">
        <ele>404.89</ele>
        <time>2020-08-19T15:14:24.000Z</time>
      </trkpt>
      <trkpt lat="48.62941" lon="7.12134">
        <ele>403.33</ele>
        <time>2020-08-19T15:14:26.000Z</time>
      </trkpt>
      <trkpt lat="48.62935" lon="7.12137">
        <ele>402.7</ele>
        <time>2020-08-19T15:14:28.000Z</time>
      </trkpt>
      <trkpt lat="48.62928" lon="7.1214">
        <ele>400.73</ele>
        <time>2020-08-19T15:14:30.000Z</time>
      </trkpt>
      <trkpt lat="48.62924" lon="7.12142">
        <ele>400.54</ele>
        <time>2020-08-19T15:14:32.000Z</time>
      </trkpt>
      <trkpt lat="48.62919" lon="7.12144">
        <ele>402.44</ele>
        <time>2020-08-19T15:14:34.000Z</time>
      </trkpt>
      <trkpt lat="48.62915" lon="7.12146">
        <ele>401.73</ele>
        <time>2020-08-19T15:14:37.000Z</time>
      </trkpt>
      <trkpt lat="48.62909" lon="7.12147">
        <ele>401.24</ele>
        <time>2020-08-19T15:14:41.000Z</time>
      </trkpt>
      <trkpt lat="48.62904" lon="7.12147">
        <ele>400.07</ele>
        <time>2020-08-19T15:14:45.000Z</time>
      </trkpt>
      <trkpt lat="48.62899" lon="7.12144">
        <ele>397.51</ele>
        <time>2020-08-19T15:14:47.000Z</time>
      </trkpt>
      <trkpt lat="48.62895" lon="7.1214">
        <ele>398.5</ele>
        <time>2020-08-19T15:14:52.000Z</time>
      </trkpt>
      <trkpt lat="48.6289" lon="7.12132">
        <ele>399.68</ele>
        <time>2020-08-19T15:14:58.000Z</time>
      </trkpt>
      <trkpt lat="48.62888" lon="7.12124">
        <ele>397.53</ele>
        <time>2020-08-19T15:15:00.000Z</time>
      </trkpt>
      <trkpt lat="48.62886" lon="7.12116">
        <ele>397.27</ele>
        <time>2020-08-19T15:15:02.000Z</time>
      </trkpt>
      <trkpt lat="48.62885" lon="7.12108">
        <ele>395.36</ele>
        <time>2020-08-19T15:15:04.000Z</time>
      </trkpt>
      <trkpt lat="48.62886" lon="7.12099">
        <ele>391.98</ele>
        <time>2020-08-19T15:15:07.000Z</time>
      </trkpt>
      <trkpt lat="48.62887" lon="7.12092">
        <ele>389.88</ele>
        <time>2020-08-19T15:15:09.000Z</time>
      </trkpt>
      <trkpt lat="48.62887" lon="7.12086">
        <ele>388.97</ele>
        <time>2020-08-19T15:15:11.000Z</time>
      </trkpt>
      <trkpt lat="48.62888" lon="7.12077">
        <ele>387.94</ele>
        <time>2020-08-19T15:15:13.000Z</time>
      </trkpt>
      <trkpt lat="48.62889" lon="7.12066">
        <ele>386.85</ele>
        <time>2020-08-19T15:15:15.000Z</time>
      </trkpt>
      <trkpt lat="48.62891" lon="7.12057">
        <ele>385.5</ele>
        <time>2020-08-19T15:15:17.000Z</time>
      </trkpt>
      <trkpt lat="48.62892" lon="7.1205">
        <ele>383.89</ele>
        <time>2020-08-19T15:15:19.000Z</time>
      </trkpt>
      <trkpt lat="48.62891" lon="7.1204">
        <ele>383.31</ele>
        <time>2020-08-19T15:15:22.000Z</time>
      </trkpt>
      <trkpt lat="48.62889" lon="7.12033">
        <ele>383.14</ele>
        <time>2020-08-19T15:15:24.000Z</time>
      </trkpt>
      <trkpt lat="48.62976" lon="7.11902">
        <ele>369.63</ele>
        <time>2020-08-19T15:15:53.000Z</time>
      </trkpt>
      <trkpt lat="48.6298" lon="7.11895">
        <ele>368.23</ele>
        <time>2020-08-19T15:15:54.000Z</time>
      </trkpt>
      <trkpt lat="48.62983" lon="7.11887">
        <ele>367.27</ele>
        <time>2020-08-19T15:15:55.000Z</time>
      </trkpt>
      <trkpt lat="48.62986" lon="7.11879">
        <ele>366.58</ele>
        <time>2020-08-19T15:15:56.000Z</time>
      </trkpt>
      <trkpt lat="48.6299" lon="7.11873">
        <ele>366.37</ele>
        <time>2020-08-19T15:15:57.000Z</time>
      </trkpt>
      <trkpt lat="48.62998" lon="7.11868">
        <ele>363.19</ele>
        <time>2020-08-19T15:15:59.000Z</time>
      </trkpt>
      <trkpt lat="48.63002" lon="7.11864">
        <ele>366.87</ele>
        <time>2020-08-19T15:16:03.000Z</time>
      </trkpt>
      <trkpt lat="48.63003" lon="7.11855">
        <ele>365.33</ele>
        <time>2020-08-19T15:16:14.000Z</time>
      </trkpt>
      <trkpt lat="48.63004" lon="7.11847">
        <ele>364.74</ele>
        <time>2020-08-19T15:16:16.000Z</time>
      </trkpt>
      <trkpt lat="48.63007" lon="7.11836">
        <ele>364.66</ele>
        <time>2020-08-19T15:16:18.000Z</time>
      </trkpt>
      <trkpt lat="48.63013" lon="7.11826">
        <ele>362.31</ele>
        <time>2020-08-19T15:16:20.000Z</time>
      </trkpt>
      <trkpt lat="48.63015" lon="7.1182">
        <ele>361.6</ele>
        <time>2020-08-19T15:16:21.000Z</time>
      </trkpt>
      <trkpt lat="48.63018" lon="7.11813">
        <ele>361.41</ele>
        <time>2020-08-19T15:16:22.000Z</time>
      </trkpt>
      <trkpt lat="48.6302" lon="7.11808">
        <ele>362.65</ele>
        <time>2020-08-19T15:16:23.000Z</time>
      </trkpt>
      <trkpt lat="48.63022" lon="7.11801">
        <ele>362.51</ele>
        <time>2020-08-19T15:16:24.000Z</time>
      </trkpt>
      <trkpt lat="48.63025" lon="7.11795">
        <ele>363.31</ele>
        <time>2020-08-19T15:16:25.000Z</time>
      </trkpt>
      <trkpt lat="48.63027" lon="7.11788">
        <ele>363.01</ele>
        <time>2020-08-19T15:16:26.000Z</time>
      </trkpt>
      <trkpt lat="48.6303" lon="7.11779">
        <ele>360.42</ele>
        <time>2020-08-19T15:16:28.000Z</time>
      </trkpt>
      <trkpt lat="48.63033" lon="7.11772">
        <ele>361.97</ele>
        <time>2020-08-19T15:16:30.000Z</time>
      </trkpt>
      <trkpt lat="48.63034" lon="7.11762">
        <ele>361.86</ele>
        <time>2020-08-19T15:16:32.000Z</time>
      </trkpt>
      <trkpt lat="48.63034" lon="7.11752">
        <ele>361.03</ele>
        <time>2020-08-19T15:16:34.000Z</time>
      </trkpt>
      <trkpt lat="48.63032" lon="7.11743">
        <ele>359.32</ele>
        <time>2020-08-19T15:16:36.000Z</time>
      </trkpt>
      <trkpt lat="48.63033" lon="7.11731">
        <ele>358.84</ele>
        <time>2020-08-19T15:16:38.000Z</time>
      </trkpt>
      <trkpt lat="48.63033" lon="7.1172">
        <ele>358.43</ele>
        <time>2020-08-19T15:16:40.000Z</time>
      </trkpt>
      <trkpt lat="48.63033" lon="7.1171">
        <ele>357.98</ele>
        <time>2020-08-19T15:16:42.000Z</time>
      </trkpt>
      <trkpt lat="48.63032" lon="7.11701">
        <ele>357.47</ele>
        <time>2020-08-19T15:16:44.000Z</time>
      </trkpt>
      <trkpt lat="48.63036" lon="7.11693">
        <ele>355.53</ele>
        <time>2020-08-19T15:16:46.000Z</time>
      </trkpt>
      <trkpt lat="48.63042" lon="7.11695">
        <ele>356.42</ele>
        <time>2020-08-19T15:16:48.000Z</time>
      </trkpt>
      <trkpt lat="48.63045" lon="7.11701">
        <ele>356.3</ele>
        <time>2020-08-19T15:16:50.000Z</time>
      </trkpt>
      <trkpt lat="48.63047" lon="7.1171">
        <ele>357.12</ele>
        <time>2020-08-19T15:16:52.000Z</time>
      </trkpt>
      <trkpt lat="48.63049" lon="7.11719">
        <ele>357.09</ele>
        <time>2020-08-19T15:16:54.000Z</time>
      </trkpt>
      <trkpt lat="48.63051" lon="7.11728">
        <ele>357.65</ele>
        <time>2020-08-19T15:16:56.000Z</time>
      </trkpt>
      <trkpt lat="48.63053" lon="7.11736">
        <ele>357.03</ele>
        <time>2020-08-19T15:16:58.000Z</time>
      </trkpt>
      <trkpt lat="48.63056" lon="7.11746">
        <ele>358.95</ele>
        <time>2020-08-19T15:17:00.000Z</time>
      </trkpt>
      <trkpt lat="48.6306" lon="7.11755">
        <ele>359.25</ele>
        <time>2020-08-19T15:17:02.000Z</time>
      </trkpt>
      <trkpt lat="48.63064" lon="7.11763">
        <ele>359.21</ele>
        <time>2020-08-19T15:17:04.000Z</time>
      </trkpt>
      <trkpt lat="48.63068" lon="7.11769">
        <ele>358.5</ele>
        <time>2020-08-19T15:17:06.000Z</time>
      </trkpt>
      <trkpt lat="48.63073" lon="7.11775">
        <ele>358.67</ele>
        <time>2020-08-19T15:17:08.000Z</time>
      </trkpt>
      <trkpt lat="48.63079" lon="7.1178">
        <ele>360.62</ele>
        <time>2020-08-19T15:17:10.000Z</time>
      </trkpt>
      <trkpt lat="48.63085" lon="7.11783">
        <ele>362.11</ele>
        <time>2020-08-19T15:17:12.000Z</time>
      </trkpt>
      <trkpt lat="48.6309" lon="7.11782">
        <ele>368.22</ele>
        <time>2020-08-19T15:17:19.000Z</time>
      </trkpt>
      <trkpt lat="48.63095" lon="7.11781">
        <ele>362.36</ele>
        <time>2020-08-19T15:17:24.000Z</time>
      </trkpt>
      <trkpt lat="48.631" lon="7.11784">
        <ele>362.18</ele>
        <time>2020-08-19T15:17:29.000Z</time>
      </trkpt>
      <trkpt lat="48.63104" lon="7.11786">
        <ele>364.47</ele>
        <time>2020-08-19T15:17:34.000Z</time>
      </trkpt>
      <trkpt lat="48.63108" lon="7.1179">
        <ele>369.43</ele>
        <time>2020-08-19T15:17:37.000Z</time>
      </trkpt>
      <trkpt lat="48.63112" lon="7.11787">
        <ele>369.15</ele>
        <time>2020-08-19T15:18:13.000Z</time>
      </trkpt>
      <trkpt lat="48.63117" lon="7.11784">
        <ele>367.82</ele>
        <time>2020-08-19T15:18:21.000Z</time>
      </trkpt>
      <trkpt lat="48.63119" lon="7.11777">
        <ele>371.07</ele>
        <time>2020-08-19T15:18:27.000Z</time>
      </trkpt>
      <trkpt lat="48.6312" lon="7.1177">
        <ele>375.58</ele>
        <time>2020-08-19T15:18:34.000Z</time>
      </trkpt>
      <trkpt lat="48.63119" lon="7.11763">
        <ele>377.84</ele>
        <time>2020-08-19T15:18:38.000Z</time>
      </trkpt>
      <trkpt lat="48.63116" lon="7.11756">
        <ele>376.03</ele>
        <time>2020-08-19T15:18:43.000Z</time>
      </trkpt>
      <trkpt lat="48.63114" lon="7.1175">
        <ele>377.13</ele>
        <time>2020-08-19T15:18:48.000Z</time>
      </trkpt>
      <trkpt lat="48.63116" lon="7.11742">
        <ele>375</ele>
        <time>2020-08-19T15:18:53.000Z</time>
      </trkpt>
      <trkpt lat="48.63116" lon="7.11734">
        <ele>375.19</ele>
        <time>2020-08-19T15:18:57.000Z</time>
      </trkpt>
      <trkpt lat="48.63116" lon="7.11726">
        <ele>377.8</ele>
        <time>2020-08-19T15:19:01.000Z</time>
      </trkpt>
      <trkpt lat="48.63115" lon="7.11719">
        <ele>378</ele>
        <time>2020-08-19T15:19:05.000Z</time>
      </trkpt>
      <trkpt lat="48.63112" lon="7.11713">
        <ele>378.8</ele>
        <time>2020-08-19T15:19:08.000Z</time>
      </trkpt>
      <trkpt lat="48.63111" lon="7.11705">
        <ele>379.62</ele>
        <time>2020-08-19T15:19:12.000Z</time>
      </trkpt>
      <trkpt lat="48.63111" lon="7.11697">
        <ele>381.47</ele>
        <time>2020-08-19T15:19:16.000Z</time>
      </trkpt>
      <trkpt lat="48.6311" lon="7.11689">
        <ele>382.38</ele>
        <time>2020-08-19T15:19:20.000Z</time>
      </trkpt>
      <trkpt lat="48.63109" lon="7.11683">
        <ele>384.35</ele>
        <time>2020-08-19T15:19:24.000Z</time>
      </trkpt>
      <trkpt lat="48.63107" lon="7.11675">
        <ele>383.87</ele>
        <time>2020-08-19T15:19:29.000Z</time>
      </trkpt>
      <trkpt lat="48.63104" lon="7.11667">
        <ele>383.91</ele>
        <time>2020-08-19T15:19:34.000Z</time>
      </trkpt>
      <trkpt lat="48.63104" lon="7.11659">
        <ele>383.91</ele>
        <time>2020-08-19T15:19:39.000Z</time>
      </trkpt>
      <trkpt lat="48.63104" lon="7.11652">
        <ele>383.98</ele>
        <time>2020-08-19T15:19:43.000Z</time>
      </trkpt>
      <trkpt lat="48.63104" lon="7.11645">
        <ele>383.1</ele>
        <time>2020-08-19T15:19:46.000Z</time>
      </trkpt>
      <trkpt lat="48.63101" lon="7.11638">
        <ele>383.13</ele>
        <time>2020-08-19T15:19:50.000Z</time>
      </trkpt>
      <trkpt lat="48.63099" lon="7.11631">
        <ele>382.33</ele>
        <time>2020-08-19T15:19:55.000Z</time>
      </trkpt>
      <trkpt lat="48.63098" lon="7.11623">
        <ele>383.64</ele>
        <time>2020-08-19T15:19:59.000Z</time>
      </trkpt>
      <trkpt lat="48.63097" lon="7.11615">
        <ele>384.24</ele>
        <time>2020-08-19T15:20:03.000Z</time>
      </trkpt>
      <trkpt lat="48.63097" lon="7.11608">
        <ele>386.47</ele>
        <time>2020-08-19T15:20:06.000Z</time>
      </trkpt>
      <trkpt lat="48.63098" lon="7.11601">
        <ele>387.56</ele>
        <time>2020-08-19T15:20:10.000Z</time>
      </trkpt>
      <trkpt lat="48.63096" lon="7.11593">
        <ele>390.01</ele>
        <time>2020-08-19T15:20:14.000Z</time>
      </trkpt>
      <trkpt lat="48.63093" lon="7.11587">
        <ele>390.01</ele>
        <time>2020-08-19T15:20:17.000Z</time>
      </trkpt>
      <trkpt lat="48.63095" lon="7.1158">
        <ele>389.56</ele>
        <time>2020-08-19T15:20:21.000Z</time>
      </trkpt>
      <trkpt lat="48.63095" lon="7.11572">
        <ele>389.74</ele>
        <time>2020-08-19T15:20:25.000Z</time>
      </trkpt>
      <trkpt lat="48.63094" lon="7.11564">
        <ele>391.38</ele>
        <time>2020-08-19T15:20:29.000Z</time>
      </trkpt>
      <trkpt lat="48.63093" lon="7.11557">
        <ele>394.96</ele>
        <time>2020-08-19T15:20:33.000Z</time>
      </trkpt>
      <trkpt lat="48.63092" lon="7.11551">
        <ele>397.93</ele>
        <time>2020-08-19T15:20:38.000Z</time>
      </trkpt>
      <trkpt lat="48.63093" lon="7.11542">
        <ele>398.01</ele>
        <time>2020-08-19T15:20:43.000Z</time>
      </trkpt>
      <trkpt lat="48.63093" lon="7.11534">
        <ele>398.53</ele>
        <time>2020-08-19T15:20:48.000Z</time>
      </trkpt>
      <trkpt lat="48.63094" lon="7.11526">
        <ele>400.32</ele>
        <time>2020-08-19T15:20:56.000Z</time>
      </trkpt>
      <trkpt lat="48.63094" lon="7.11517">
        <ele>401.88</ele>
        <time>2020-08-19T15:20:58.000Z</time>
      </trkpt>
      <trkpt lat="48.63094" lon="7.11508">
        <ele>403.14</ele>
        <time>2020-08-19T15:21:00.000Z</time>
      </trkpt>
      <trkpt lat="48.63094" lon="7.11499">
        <ele>402.93</ele>
        <time>2020-08-19T15:21:02.000Z</time>
      </trkpt>
      <trkpt lat="48.63095" lon="7.11492">
        <ele>402.07</ele>
        <time>2020-08-19T15:21:04.000Z</time>
      </trkpt>
      <trkpt lat="48.63096" lon="7.11485">
        <ele>399.5</ele>
        <time>2020-08-19T15:21:06.000Z</time>
      </trkpt>
      <trkpt lat="48.63097" lon="7.11476">
        <ele>399.94</ele>
        <time>2020-08-19T15:21:08.000Z</time>
      </trkpt>
      <trkpt lat="48.63099" lon="7.11457">
        <ele>398.19</ele>
        <time>2020-08-19T15:21:12.000Z</time>
      </trkpt>
      <trkpt lat="48.631" lon="7.11448">
        <ele>396.58</ele>
        <time>2020-08-19T15:21:14.000Z</time>
      </trkpt>
      <trkpt lat="48.631" lon="7.1144">
        <ele>395.59</ele>
        <time>2020-08-19T15:21:16.000Z</time>
      </trkpt>
      <trkpt lat="48.63105" lon="7.11421">
        <ele>398.17</ele>
        <time>2020-08-19T15:21:20.000Z</time>
      </trkpt>
      <trkpt lat="48.63105" lon="7.11413">
        <ele>396.25</ele>
        <time>2020-08-19T15:21:22.000Z</time>
      </trkpt>
      <trkpt lat="48.63108" lon="7.11405">
        <ele>395.47</ele>
        <time>2020-08-19T15:21:24.000Z</time>
      </trkpt>
      <trkpt lat="48.6311" lon="7.11396">
        <ele>397.75</ele>
        <time>2020-08-19T15:21:26.000Z</time>
      </trkpt>
      <trkpt lat="48.63113" lon="7.11389">
        <ele>399.07</ele>
        <time>2020-08-19T15:21:28.000Z</time>
      </trkpt>
      <trkpt lat="48.63115" lon="7.11381">
        <ele>400.93</ele>
        <time>2020-08-19T15:21:30.000Z</time>
      </trkpt>
      <trkpt lat="48.63117" lon="7.11373">
        <ele>401.2</ele>
        <time>2020-08-19T15:21:32.000Z</time>
      </trkpt>
      <trkpt lat="48.63121" lon="7.11366">
        <ele>399.43</ele>
        <time>2020-08-19T15:21:34.000Z</time>
      </trkpt>
      <trkpt lat="48.63125" lon="7.11359">
        <ele>397.32</ele>
        <time>2020-08-19T15:21:36.000Z</time>
      </trkpt>
      <trkpt lat="48.63127" lon="7.11351">
        <ele>397.93</ele>
        <time>2020-08-19T15:21:38.000Z</time>
      </trkpt>
      <trkpt lat="48.63129" lon="7.11342">
        <ele>396.84</ele>
        <time>2020-08-19T15:21:40.000Z</time>
      </trkpt>
      <trkpt lat="48.63132" lon="7.11334">
        <ele>395.93</ele>
        <time>2020-08-19T15:21:42.000Z</time>
      </trkpt>
      <trkpt lat="48.63135" lon="7.11327">
        <ele>397</ele>
        <time>2020-08-19T15:21:44.000Z</time>
      </trkpt>
      <trkpt lat="48.63136" lon="7.11318">
        <ele>397.84</ele>
        <time>2020-08-19T15:21:46.000Z</time>
      </trkpt>
      <trkpt lat="48.63138" lon="7.11308">
        <ele>400.28</ele>
        <time>2020-08-19T15:21:48.000Z</time>
      </trkpt>
      <trkpt lat="48.63141" lon="7.11298">
        <ele>401.88</ele>
        <time>2020-08-19T15:21:50.000Z</time>
      </trkpt>
      <trkpt lat="48.63143" lon="7.1129">
        <ele>402.72</ele>
        <time>2020-08-19T15:21:52.000Z</time>
      </trkpt>
      <trkpt lat="48.63144" lon="7.11283">
        <ele>403.29</ele>
        <time>2020-08-19T15:21:57.000Z</time>
      </trkpt>
      <trkpt lat="48.63146" lon="7.11276">
        <ele>402.74</ele>
        <time>2020-08-19T15:22:06.000Z</time>
      </trkpt>
      <trkpt lat="48.6315" lon="7.11268">
        <ele>402.28</ele>
        <time>2020-08-19T15:22:09.000Z</time>
      </trkpt>
      <trkpt lat="48.63154" lon="7.11261">
        <ele>402.33</ele>
        <time>2020-08-19T15:22:11.000Z</time>
      </trkpt>
      <trkpt lat="48.6316" lon="7.11254">
        <ele>399.55</ele>
        <time>2020-08-19T15:22:13.000Z</time>
      </trkpt>
      <trkpt lat="48.63164" lon="7.11246">
        <ele>397.99</ele>
        <time>2020-08-19T15:22:15.000Z</time>
      </trkpt>
      <trkpt lat="48.63168" lon="7.11236">
        <ele>396.97</ele>
        <time>2020-08-19T15:22:17.000Z</time>
      </trkpt>
      <trkpt lat="48.63172" lon="7.11225">
        <ele>396.29</ele>
        <time>2020-08-19T15:22:19.000Z</time>
      </trkpt>
      <trkpt lat="48.63175" lon="7.11215">
        <ele>396.05</ele>
        <time>2020-08-19T15:22:21.000Z</time>
      </trkpt>
      <trkpt lat="48.63176" lon="7.11205">
        <ele>394.95</ele>
        <time>2020-08-19T15:22:23.000Z</time>
      </trkpt>
      <trkpt lat="48.63177" lon="7.11195">
        <ele>397.14</ele>
        <time>2020-08-19T15:22:25.000Z</time>
      </trkpt>
      <trkpt lat="48.63177" lon="7.11184">
        <ele>400.67</ele>
        <time>2020-08-19T15:22:27.000Z</time>
      </trkpt>
      <trkpt lat="48.63178" lon="7.11174">
        <ele>401.07</ele>
        <time>2020-08-19T15:22:29.000Z</time>
      </trkpt>
      <trkpt lat="48.63178" lon="7.11163">
        <ele>402.11</ele>
        <time>2020-08-19T15:22:31.000Z</time>
      </trkpt>
      <trkpt lat="48.6318" lon="7.11153">
        <ele>400.65</ele>
        <time>2020-08-19T15:22:33.000Z</time>
      </trkpt>
      <trkpt lat="48.63181" lon="7.11143">
        <ele>398.91</ele>
        <time>2020-08-19T15:22:35.000Z</time>
      </trkpt>
      <trkpt lat="48.63182" lon="7.11132">
        <ele>404.56</ele>
        <time>2020-08-19T15:22:37.000Z</time>
      </trkpt>
      <trkpt lat="48.63184" lon="7.11119">
        <ele>404.69</ele>
        <time>2020-08-19T15:22:39.000Z</time>
      </trkpt>
      <trkpt lat="48.63185" lon="7.11112">
        <ele>403.9</ele>
        <time>2020-08-19T15:22:40.000Z</time>
      </trkpt>
      <trkpt lat="48.63186" lon="7.11099">
        <ele>402.3</ele>
        <time>2020-08-19T15:22:42.000Z</time>
      </trkpt>
      <trkpt lat="48.63187" lon="7.11074">
        <ele>404.86</ele>
        <time>2020-08-19T15:22:45.000Z</time>
      </trkpt>
      <trkpt lat="48.63189" lon="7.11062">
        <ele>404.93</ele>
        <time>2020-08-19T15:22:47.000Z</time>
      </trkpt>
      <trkpt lat="48.6319" lon="7.11049">
        <ele>407.46</ele>
        <time>2020-08-19T15:22:49.000Z</time>
      </trkpt>
      <trkpt lat="48.6319" lon="7.1104">
        <ele>409.3</ele>
        <time>2020-08-19T15:22:51.000Z</time>
      </trkpt>
      <trkpt lat="48.63191" lon="7.11029">
        <ele>409.86</ele>
        <time>2020-08-19T15:22:53.000Z</time>
      </trkpt>
      <trkpt lat="48.6319" lon="7.11015">
        <ele>407.74</ele>
        <time>2020-08-19T15:22:55.000Z</time>
      </trkpt>
      <trkpt lat="48.63188" lon="7.11009">
        <ele>407.39</ele>
        <time>2020-08-19T15:22:56.000Z</time>
      </trkpt>
      <trkpt lat="48.63187" lon="7.11002">
        <ele>407.59</ele>
        <time>2020-08-19T15:22:57.000Z</time>
      </trkpt>
      <trkpt lat="48.63188" lon="7.10994">
        <ele>407.82</ele>
        <time>2020-08-19T15:22:58.000Z</time>
      </trkpt>
      <trkpt lat="48.63187" lon="7.10985">
        <ele>409.15</ele>
        <time>2020-08-19T15:22:59.000Z</time>
      </trkpt>
      <trkpt lat="48.63186" lon="7.10979">
        <ele>409.53</ele>
        <time>2020-08-19T15:23:00.000Z</time>
      </trkpt>
      <trkpt lat="48.63183" lon="7.10951">
        <ele>409.37</ele>
        <time>2020-08-19T15:23:03.000Z</time>
      </trkpt>
      <trkpt lat="48.63184" lon="7.10938">
        <ele>409.43</ele>
        <time>2020-08-19T15:23:04.000Z</time>
      </trkpt>
      <trkpt lat="48.63185" lon="7.10927">
        <ele>408.59</ele>
        <time>2020-08-19T15:23:05.000Z</time>
      </trkpt>
      <trkpt lat="48.63185" lon="7.10918">
        <ele>407.57</ele>
        <time>2020-08-19T15:23:06.000Z</time>
      </trkpt>
      <trkpt lat="48.63187" lon="7.10908">
        <ele>405.51</ele>
        <time>2020-08-19T15:23:07.000Z</time>
      </trkpt>
      <trkpt lat="48.63188" lon="7.10899">
        <ele>404.9</ele>
        <time>2020-08-19T15:23:08.000Z</time>
      </trkpt>
      <trkpt lat="48.6319" lon="7.10889">
        <ele>404.31</ele>
        <time>2020-08-19T15:23:09.000Z</time>
      </trkpt>
      <trkpt lat="48.63192" lon="7.10877">
        <ele>403.72</ele>
        <time>2020-08-19T15:23:10.000Z</time>
      </trkpt>
      <trkpt lat="48.63191" lon="7.10865">
        <ele>403.03</ele>
        <time>2020-08-19T15:23:11.000Z</time>
      </trkpt>
      <trkpt lat="48.63194" lon="7.10858">
        <ele>402.12</ele>
        <time>2020-08-19T15:23:12.000Z</time>
      </trkpt>
      <trkpt lat="48.63198" lon="7.10851">
        <ele>401.11</ele>
        <time>2020-08-19T15:23:13.000Z</time>
      </trkpt>
      <trkpt lat="48.63201" lon="7.10843">
        <ele>401.7</ele>
        <time>2020-08-19T15:23:14.000Z</time>
      </trkpt>
      <trkpt lat="48.632" lon="7.10833">
        <ele>401.52</ele>
        <time>2020-08-19T15:23:15.000Z</time>
      </trkpt>
      <trkpt lat="48.63201" lon="7.10823">
        <ele>401.37</ele>
        <time>2020-08-19T15:23:16.000Z</time>
      </trkpt>
      <trkpt lat="48.63201" lon="7.10812">
        <ele>399.95</ele>
        <time>2020-08-19T15:23:17.000Z</time>
      </trkpt>
      <trkpt lat="48.63202" lon="7.10801">
        <ele>399.46</ele>
        <time>2020-08-19T15:23:18.000Z</time>
      </trkpt>
      <trkpt lat="48.63204" lon="7.10788">
        <ele>397.94</ele>
        <time>2020-08-19T15:23:19.000Z</time>
      </trkpt>
      <trkpt lat="48.63205" lon="7.10774">
        <ele>395.7</ele>
        <time>2020-08-19T15:23:20.000Z</time>
      </trkpt>
      <trkpt lat="48.63208" lon="7.10764">
        <ele>394.89</ele>
        <time>2020-08-19T15:23:21.000Z</time>
      </trkpt>
      <trkpt lat="48.63211" lon="7.10752">
        <ele>394.38</ele>
        <time>2020-08-19T15:23:22.000Z</time>
      </trkpt>
      <trkpt lat="48.63214" lon="7.1074">
        <ele>393.29</ele>
        <time>2020-08-19T15:23:23.000Z</time>
      </trkpt>
      <trkpt lat="48.63216" lon="7.10729">
        <ele>392.17</ele>
        <time>2020-08-19T15:23:24.000Z</time>
      </trkpt>
      <trkpt lat="48.63217" lon="7.10721">
        <ele>391.59</ele>
        <time>2020-08-19T15:23:25.000Z</time>
      </trkpt>
      <trkpt lat="48.63219" lon="7.10713">
        <ele>391.61</ele>
        <time>2020-08-19T15:23:26.000Z</time>
      </trkpt>
      <trkpt lat="48.6322" lon="7.10704">
        <ele>391.18</ele>
        <time>2020-08-19T15:23:27.000Z</time>
      </trkpt>
      <trkpt lat="48.63222" lon="7.10695">
        <ele>391.68</ele>
        <time>2020-08-19T15:23:28.000Z</time>
      </trkpt>
      <trkpt lat="48.63224" lon="7.10688">
        <ele>391.05</ele>
        <time>2020-08-19T15:23:29.000Z</time>
      </trkpt>
      <trkpt lat="48.63226" lon="7.10679">
        <ele>389.84</ele>
        <time>2020-08-19T15:23:30.000Z</time>
      </trkpt>
      <trkpt lat="48.63227" lon="7.10669">
        <ele>388.98</ele>
        <time>2020-08-19T15:23:31.000Z</time>
      </trkpt>
      <trkpt lat="48.63229" lon="7.1066">
        <ele>388.1</ele>
        <time>2020-08-19T15:23:32.000Z</time>
      </trkpt>
      <trkpt lat="48.63232" lon="7.10652">
        <ele>389.34</ele>
        <time>2020-08-19T15:23:33.000Z</time>
      </trkpt>
      <trkpt lat="48.63235" lon="7.10643">
        <ele>388.91</ele>
        <time>2020-08-19T15:23:34.000Z</time>
      </trkpt>
      <trkpt lat="48.63235" lon="7.10636">
        <ele>388.53</ele>
        <time>2020-08-19T15:23:35.000Z</time>
      </trkpt>
      <trkpt lat="48.63237" lon="7.10628">
        <ele>387.22</ele>
        <time>2020-08-19T15:23:36.000Z</time>
      </trkpt>
      <trkpt lat="48.63239" lon="7.10621">
        <ele>385.86</ele>
        <time>2020-08-19T15:23:37.000Z</time>
      </trkpt>
      <trkpt lat="48.63241" lon="7.10614">
        <ele>385.19</ele>
        <time>2020-08-19T15:23:38.000Z</time>
      </trkpt>
      <trkpt lat="48.63244" lon="7.10608">
        <ele>384.19</ele>
        <time>2020-08-19T15:23:39.000Z</time>
      </trkpt>
      <trkpt lat="48.63246" lon="7.10602">
        <ele>382.97</ele>
        <time>2020-08-19T15:23:40.000Z</time>
      </trkpt>
      <trkpt lat="48.63249" lon="7.10596">
        <ele>381.03</ele>
        <time>2020-08-19T15:23:41.000Z</time>
      </trkpt>
      <trkpt lat="48.63254" lon="7.10592">
        <ele>379.44</ele>
        <time>2020-08-19T15:23:43.000Z</time>
      </trkpt>
      <trkpt lat="48.63249" lon="7.10593">
        <ele>380.04</ele>
        <time>2020-08-19T15:23:53.000Z</time>
      </trkpt>
      <trkpt lat="48.63253" lon="7.10588">
        <ele>381.18</ele>
        <time>2020-08-19T15:24:39.000Z</time>
      </trkpt>
      <trkpt lat="48.63258" lon="7.1058">
        <ele>378.45</ele>
        <time>2020-08-19T15:24:41.000Z</time>
      </trkpt>
      <trkpt lat="48.63262" lon="7.10574">
        <ele>376.76</ele>
        <time>2020-08-19T15:24:42.000Z</time>
      </trkpt>
      <trkpt lat="48.63265" lon="7.10568">
        <ele>376.03</ele>
        <time>2020-08-19T15:24:43.000Z</time>
      </trkpt>
      <trkpt lat="48.63268" lon="7.1056">
        <ele>374.68</ele>
        <time>2020-08-19T15:24:44.000Z</time>
      </trkpt>
      <trkpt lat="48.63271" lon="7.1055">
        <ele>375.71</ele>
        <time>2020-08-19T15:24:45.000Z</time>
      </trkpt>
      <trkpt lat="48.63275" lon="7.10542">
        <ele>373.83</ele>
        <time>2020-08-19T15:24:46.000Z</time>
      </trkpt>
      <trkpt lat="48.63279" lon="7.10532">
        <ele>372.36</ele>
        <time>2020-08-19T15:24:47.000Z</time>
      </trkpt>
      <trkpt lat="48.63284" lon="7.10522">
        <ele>372.01</ele>
        <time>2020-08-19T15:24:48.000Z</time>
      </trkpt>
      <trkpt lat="48.63287" lon="7.10514">
        <ele>371.01</ele>
        <time>2020-08-19T15:24:49.000Z</time>
      </trkpt>
      <trkpt lat="48.6329" lon="7.10505">
        <ele>369.96</ele>
        <time>2020-08-19T15:24:50.000Z</time>
      </trkpt>
      <trkpt lat="48.63293" lon="7.10497">
        <ele>368.82</ele>
        <time>2020-08-19T15:24:51.000Z</time>
      </trkpt>
      <trkpt lat="48.63296" lon="7.10489">
        <ele>367.71</ele>
        <time>2020-08-19T15:24:52.000Z</time>
      </trkpt>
      <trkpt lat="48.633" lon="7.10482">
        <ele>367.03</ele>
        <time>2020-08-19T15:24:53.000Z</time>
      </trkpt>
      <trkpt lat="48.63304" lon="7.10475">
        <ele>365.26</ele>
        <time>2020-08-19T15:24:54.000Z</time>
      </trkpt>
      <trkpt lat="48.63309" lon="7.10467">
        <ele>364.42</ele>
        <time>2020-08-19T15:24:55.000Z</time>
      </trkpt>
      <trkpt lat="48.6332" lon="7.10452">
        <ele>361.5</ele>
        <time>2020-08-19T15:24:57.000Z</time>
      </trkpt>
      <trkpt lat="48.63324" lon="7.10445">
        <ele>360.85</ele>
        <time>2020-08-19T15:24:58.000Z</time>
      </trkpt>
      <trkpt lat="48.63328" lon="7.10439">
        <ele>360.1</ele>
        <time>2020-08-19T15:24:59.000Z</time>
      </trkpt>
      <trkpt lat="48.63332" lon="7.10435">
        <ele>359.18</ele>
        <time>2020-08-19T15:25:00.000Z</time>
      </trkpt>
      <trkpt lat="48.63338" lon="7.10429">
        <ele>357.22</ele>
        <time>2020-08-19T15:25:02.000Z</time>
      </trkpt>
      <trkpt lat="48.63343" lon="7.10426">
        <ele>356.47</ele>
        <time>2020-08-19T15:25:31.000Z</time>
      </trkpt>
      <trkpt lat="48.63347" lon="7.10423">
        <ele>357.09</ele>
        <time>2020-08-19T15:25:33.000Z</time>
      </trkpt>
      <trkpt lat="48.63353" lon="7.10422">
        <ele>356.56</ele>
        <time>2020-08-19T15:25:35.000Z</time>
      </trkpt>
      <trkpt lat="48.63361" lon="7.10421">
        <ele>355.78</ele>
        <time>2020-08-19T15:25:37.000Z</time>
      </trkpt>
      <trkpt lat="48.63369" lon="7.10419">
        <ele>354.35</ele>
        <time>2020-08-19T15:25:39.000Z</time>
      </trkpt>
      <trkpt lat="48.63378" lon="7.10417">
        <ele>355.09</ele>
        <time>2020-08-19T15:25:41.000Z</time>
      </trkpt>
      <trkpt lat="48.63382" lon="7.10417">
        <ele>354.9</ele>
        <time>2020-08-19T15:25:42.000Z</time>
      </trkpt>
      <trkpt lat="48.63387" lon="7.10415">
        <ele>355.47</ele>
        <time>2020-08-19T15:25:43.000Z</time>
      </trkpt>
      <trkpt lat="48.63392" lon="7.10413">
        <ele>356.03</ele>
        <time>2020-08-19T15:25:44.000Z</time>
      </trkpt>
      <trkpt lat="48.63397" lon="7.10412">
        <ele>356</ele>
        <time>2020-08-19T15:25:45.000Z</time>
      </trkpt>
      <trkpt lat="48.63404" lon="7.10407">
        <ele>355.22</ele>
        <time>2020-08-19T15:25:47.000Z</time>
      </trkpt>
      <trkpt lat="48.63409" lon="7.10404">
        <ele>355.97</ele>
        <time>2020-08-19T15:25:48.000Z</time>
      </trkpt>
      <trkpt lat="48.63417" lon="7.10399">
        <ele>356.19</ele>
        <time>2020-08-19T15:25:50.000Z</time>
      </trkpt>
      <trkpt lat="48.63422" lon="7.10397">
        <ele>356.05</ele>
        <time>2020-08-19T15:25:51.000Z</time>
      </trkpt>
      <trkpt lat="48.63426" lon="7.10394">
        <ele>355.07</ele>
        <time>2020-08-19T15:25:52.000Z</time>
      </trkpt>
      <trkpt lat="48.63431" lon="7.10391">
        <ele>354.75</ele>
        <time>2020-08-19T15:25:53.000Z</time>
      </trkpt>
      <trkpt lat="48.63435" lon="7.10388">
        <ele>354.51</ele>
        <time>2020-08-19T15:25:54.000Z</time>
      </trkpt>
      <trkpt lat="48.6344" lon="7.10385">
        <ele>355.06</ele>
        <time>2020-08-19T15:25:55.000Z</time>
      </trkpt>
      <trkpt lat="48.63444" lon="7.10382">
        <ele>354.95</ele>
        <time>2020-08-19T15:25:56.000Z</time>
      </trkpt>
      <trkpt lat="48.63451" lon="7.10375">
        <ele>357.16</ele>
        <time>2020-08-19T15:25:58.000Z</time>
      </trkpt>
      <trkpt lat="48.63455" lon="7.1037">
        <ele>357.54</ele>
        <time>2020-08-19T15:25:59.000Z</time>
      </trkpt>
      <trkpt lat="48.63461" lon="7.1036">
        <ele>356.92</ele>
        <time>2020-08-19T15:26:01.000Z</time>
      </trkpt>
      <trkpt lat="48.63463" lon="7.10354">
        <ele>356.49</ele>
        <time>2020-08-19T15:26:02.000Z</time>
      </trkpt>
      <trkpt lat="48.63465" lon="7.10348">
        <ele>356.68</ele>
        <time>2020-08-19T15:26:03.000Z</time>
      </trkpt>
      <trkpt lat="48.63467" lon="7.10341">
        <ele>356.33</ele>
        <time>2020-08-19T15:26:04.000Z</time>
      </trkpt>
      <trkpt lat="48.63469" lon="7.10334">
        <ele>356.44</ele>
        <time>2020-08-19T15:26:05.000Z</time>
      </trkpt>
      <trkpt lat="48.63472" lon="7.10328">
        <ele>356.4</ele>
        <time>2020-08-19T15:26:06.000Z</time>
      </trkpt>
      <trkpt lat="48.63475" lon="7.10316">
        <ele>355.75</ele>
        <time>2020-08-19T15:26:08.000Z</time>
      </trkpt>
      <trkpt lat="48.63477" lon="7.10305">
        <ele>355.92</ele>
        <time>2020-08-19T15:26:10.000Z</time>
      </trkpt>
      <trkpt lat="48.63481" lon="7.10293">
        <ele>354.7</ele>
        <time>2020-08-19T15:26:12.000Z</time>
      </trkpt>
      <trkpt lat="48.63485" lon="7.10283">
        <ele>354.71</ele>
        <time>2020-08-19T15:26:14.000Z</time>
      </trkpt>
      <trkpt lat="48.6349" lon="7.10273">
        <ele>355.78</ele>
        <time>2020-08-19T15:26:16.000Z</time>
      </trkpt>
      <trkpt lat="48.63495" lon="7.10264">
        <ele>357.69</ele>
        <time>2020-08-19T15:26:18.000Z</time>
      </trkpt>
      <trkpt lat="48.63499" lon="7.10254">
        <ele>358.27</ele>
        <time>2020-08-19T15:26:20.000Z</time>
      </trkpt>
      <trkpt lat="48.63504" lon="7.10245">
        <ele>358.28</ele>
        <time>2020-08-19T15:26:22.000Z</time>
      </trkpt>
      <trkpt lat="48.63509" lon="7.10235">
        <ele>358.1</ele>
        <time>2020-08-19T15:26:24.000Z</time>
      </trkpt>
      <trkpt lat="48.63514" lon="7.10226">
        <ele>357.37</ele>
        <time>2020-08-19T15:26:26.000Z</time>
      </trkpt>
      <trkpt lat="48.63518" lon="7.10217">
        <ele>356.35</ele>
        <time>2020-08-19T15:26:28.000Z</time>
      </trkpt>
      <trkpt lat="48.63521" lon="7.1021">
        <ele>356.79</ele>
        <time>2020-08-19T15:26:30.000Z</time>
      </trkpt>
      <trkpt lat="48.63518" lon="7.10218">
        <ele>360.12</ele>
        <time>2020-08-19T15:26:56.000Z</time>
      </trkpt>
      <trkpt lat="48.63516" lon="7.10224">
        <ele>361.21</ele>
        <time>2020-08-19T15:26:59.000Z</time>
      </trkpt>
      <trkpt lat="48.63513" lon="7.1023">
        <ele>363.8</ele>
        <time>2020-08-19T15:27:01.000Z</time>
      </trkpt>
      <trkpt lat="48.63513" lon="7.10241">
        <ele>363.36</ele>
        <time>2020-08-19T15:27:03.000Z</time>
      </trkpt>
      <trkpt lat="48.63515" lon="7.10249">
        <ele>365.66</ele>
        <time>2020-08-19T15:27:05.000Z</time>
      </trkpt>
      <trkpt lat="48.6352" lon="7.10255">
        <ele>366.39</ele>
        <time>2020-08-19T15:27:07.000Z</time>
      </trkpt>
      <trkpt lat="48.63525" lon="7.10261">
        <ele>366.39</ele>
        <time>2020-08-19T15:27:09.000Z</time>
      </trkpt>
      <trkpt lat="48.63532" lon="7.10266">
        <ele>368.35</ele>
        <time>2020-08-19T15:27:11.000Z</time>
      </trkpt>
      <trkpt lat="48.63539" lon="7.10268">
        <ele>369.07</ele>
        <time>2020-08-19T15:27:13.000Z</time>
      </trkpt>
      <trkpt lat="48.63547" lon="7.10265">
        <ele>371.02</ele>
        <time>2020-08-19T15:27:15.000Z</time>
      </trkpt>
      <trkpt lat="48.63553" lon="7.10257">
        <ele>369.14</ele>
        <time>2020-08-19T15:27:17.000Z</time>
      </trkpt>
      <trkpt lat="48.63557" lon="7.10246">
        <ele>369.09</ele>
        <time>2020-08-19T15:27:19.000Z</time>
      </trkpt>
      <trkpt lat="48.63561" lon="7.10237">
        <ele>368.69</ele>
        <time>2020-08-19T15:27:21.000Z</time>
      </trkpt>
      <trkpt lat="48.63565" lon="7.10228">
        <ele>369.49</ele>
        <time>2020-08-19T15:27:23.000Z</time>
      </trkpt>
      <trkpt lat="48.63569" lon="7.10219">
        <ele>370.8</ele>
        <time>2020-08-19T15:27:25.000Z</time>
      </trkpt>
      <trkpt lat="48.63572" lon="7.1021">
        <ele>371.92</ele>
        <time>2020-08-19T15:27:27.000Z</time>
      </trkpt>
      <trkpt lat="48.63576" lon="7.10202">
        <ele>372.25</ele>
        <time>2020-08-19T15:27:29.000Z</time>
      </trkpt>
      <trkpt lat="48.6358" lon="7.10194">
        <ele>373.37</ele>
        <time>2020-08-19T15:27:31.000Z</time>
      </trkpt>
      <trkpt lat="48.63584" lon="7.10185">
        <ele>373.68</ele>
        <time>2020-08-19T15:27:33.000Z</time>
      </trkpt>
      <trkpt lat="48.63587" lon="7.10176">
        <ele>374.24</ele>
        <time>2020-08-19T15:27:35.000Z</time>
      </trkpt>
      <trkpt lat="48.63589" lon="7.10167">
        <ele>374.54</ele>
        <time>2020-08-19T15:27:37.000Z</time>
      </trkpt>
      <trkpt lat="48.63592" lon="7.10156">
        <ele>375.2</ele>
        <time>2020-08-19T15:27:39.000Z</time>
      </trkpt>
      <trkpt lat="48.63594" lon="7.10146">
        <ele>375.13</ele>
        <time>2020-08-19T15:27:41.000Z</time>
      </trkpt>
      <trkpt lat="48.63595" lon="7.10136">
        <ele>375.65</ele>
        <time>2020-08-19T15:27:43.000Z</time>
      </trkpt>
      <trkpt lat="48.63597" lon="7.10125">
        <ele>376.33</ele>
        <time>2020-08-19T15:27:45.000Z</time>
      </trkpt>
      <trkpt lat="48.63598" lon="7.10115">
        <ele>377.83</ele>
        <time>2020-08-19T15:27:47.000Z</time>
      </trkpt>
      <trkpt lat="48.636" lon="7.10105">
        <ele>377.08</ele>
        <time>2020-08-19T15:27:49.000Z</time>
      </trkpt>
      <trkpt lat="48.63603" lon="7.10095">
        <ele>376.88</ele>
        <time>2020-08-19T15:27:51.000Z</time>
      </trkpt>
      <trkpt lat="48.63605" lon="7.10085">
        <ele>377.87</ele>
        <time>2020-08-19T15:27:53.000Z</time>
      </trkpt>
      <trkpt lat="48.63608" lon="7.10076">
        <ele>378.5</ele>
        <time>2020-08-19T15:27:55.000Z</time>
      </trkpt>
      <trkpt lat="48.6361" lon="7.10067">
        <ele>379.23</ele>
        <time>2020-08-19T15:27:57.000Z</time>
      </trkpt>
      <trkpt lat="48.63611" lon="7.10058">
        <ele>377.71</ele>
        <time>2020-08-19T15:27:59.000Z</time>
      </trkpt>
      <trkpt lat="48.63613" lon="7.10049">
        <ele>377.4</ele>
        <time>2020-08-19T15:28:01.000Z</time>
      </trkpt>
      <trkpt lat="48.63615" lon="7.10041">
        <ele>377.15</ele>
        <time>2020-08-19T15:28:03.000Z</time>
      </trkpt>
      <trkpt lat="48.63618" lon="7.10032">
        <ele>377.64</ele>
        <time>2020-08-19T15:28:05.000Z</time>
      </trkpt>
      <trkpt lat="48.6362" lon="7.10023">
        <ele>375.29</ele>
        <time>2020-08-19T15:28:07.000Z</time>
      </trkpt>
      <trkpt lat="48.63623" lon="7.10018">
        <ele>375.86</ele>
        <time>2020-08-19T15:28:11.000Z</time>
      </trkpt>
      <trkpt lat="48.63625" lon="7.10011">
        <ele>374.56</ele>
        <time>2020-08-19T15:28:23.000Z</time>
      </trkpt>
      <trkpt lat="48.6363" lon="7.10003">
        <ele>375.99</ele>
        <time>2020-08-19T15:28:26.000Z</time>
      </trkpt>
      <trkpt lat="48.63633" lon="7.09999">
        <ele>375.82</ele>
        <time>2020-08-19T15:28:28.000Z</time>
      </trkpt>
      <trkpt lat="48.63638" lon="7.09993">
        <ele>374.87</ele>
        <time>2020-08-19T15:28:30.000Z</time>
      </trkpt>
      <trkpt lat="48.63642" lon="7.0999">
        <ele>374.58</ele>
        <time>2020-08-19T15:28:32.000Z</time>
      </trkpt>
      <trkpt lat="48.63643" lon="7.09981">
        <ele>376.15</ele>
        <time>2020-08-19T15:28:39.000Z</time>
      </trkpt>
      <trkpt lat="48.63645" lon="7.09973">
        <ele>375.91</ele>
        <time>2020-08-19T15:28:41.000Z</time>
      </trkpt>
      <trkpt lat="48.63646" lon="7.09961">
        <ele>375.62</ele>
        <time>2020-08-19T15:28:43.000Z</time>
      </trkpt>
      <trkpt lat="48.63649" lon="7.09951">
        <ele>373.3</ele>
        <time>2020-08-19T15:28:45.000Z</time>
      </trkpt>
      <trkpt lat="48.6365" lon="7.09938">
        <ele>371.41</ele>
        <time>2020-08-19T15:28:47.000Z</time>
      </trkpt>
      <trkpt lat="48.63652" lon="7.09927">
        <ele>369.49</ele>
        <time>2020-08-19T15:28:49.000Z</time>
      </trkpt>
      <trkpt lat="48.6365" lon="7.09917">
        <ele>368.34</ele>
        <time>2020-08-19T15:28:51.000Z</time>
      </trkpt>
      <trkpt lat="48.63651" lon="7.09904">
        <ele>364.17</ele>
        <time>2020-08-19T15:28:53.000Z</time>
      </trkpt>
      <trkpt lat="48.63651" lon="7.09896">
        <ele>362.37</ele>
        <time>2020-08-19T15:28:55.000Z</time>
      </trkpt>
      <trkpt lat="48.63651" lon="7.09886">
        <ele>362.55</ele>
        <time>2020-08-19T15:28:57.000Z</time>
      </trkpt>
      <trkpt lat="48.63651" lon="7.09878">
        <ele>362.77</ele>
        <time>2020-08-19T15:28:59.000Z</time>
      </trkpt>
      <trkpt lat="48.63652" lon="7.09869">
        <ele>362.58</ele>
        <time>2020-08-19T15:29:01.000Z</time>
      </trkpt>
      <trkpt lat="48.63653" lon="7.09862">
        <ele>360.72</ele>
        <time>2020-08-19T15:29:03.000Z</time>
      </trkpt>
      <trkpt lat="48.63654" lon="7.09855">
        <ele>359.99</ele>
        <time>2020-08-19T15:29:05.000Z</time>
      </trkpt>
      <trkpt lat="48.63658" lon="7.09848">
        <ele>359.58</ele>
        <time>2020-08-19T15:29:07.000Z</time>
      </trkpt>
      <trkpt lat="48.63662" lon="7.09843">
        <ele>358.17</ele>
        <time>2020-08-19T15:29:09.000Z</time>
      </trkpt>
      <trkpt lat="48.63666" lon="7.09839">
        <ele>356.81</ele>
        <time>2020-08-19T15:29:19.000Z</time>
      </trkpt>
      <trkpt lat="48.63664" lon="7.09828">
        <ele>354.11</ele>
        <time>2020-08-19T15:29:22.000Z</time>
      </trkpt>
      <trkpt lat="48.63661" lon="7.09821">
        <ele>354.68</ele>
        <time>2020-08-19T15:29:24.000Z</time>
      </trkpt>
      <trkpt lat="48.63656" lon="7.09814">
        <ele>352.29</ele>
        <time>2020-08-19T15:29:26.000Z</time>
      </trkpt>
      <trkpt lat="48.63651" lon="7.09806">
        <ele>352.31</ele>
        <time>2020-08-19T15:29:28.000Z</time>
      </trkpt>
      <trkpt lat="48.63646" lon="7.09797">
        <ele>351.47</ele>
        <time>2020-08-19T15:29:30.000Z</time>
      </trkpt>
      <trkpt lat="48.63642" lon="7.09788">
        <ele>351.63</ele>
        <time>2020-08-19T15:29:32.000Z</time>
      </trkpt>
      <trkpt lat="48.6364" lon="7.09781">
        <ele>352.34</ele>
        <time>2020-08-19T15:29:34.000Z</time>
      </trkpt>
      <trkpt lat="48.63639" lon="7.09774">
        <ele>352.39</ele>
        <time>2020-08-19T15:29:50.000Z</time>
      </trkpt>
      <trkpt lat="48.63635" lon="7.0977">
        <ele>349.7</ele>
        <time>2020-08-19T15:29:52.000Z</time>
      </trkpt>
      <trkpt lat="48.63629" lon="7.0977">
        <ele>349.54</ele>
        <time>2020-08-19T15:29:54.000Z</time>
      </trkpt>
      <trkpt lat="48.63623" lon="7.09771">
        <ele>349.16</ele>
        <time>2020-08-19T15:29:56.000Z</time>
      </trkpt>
      <trkpt lat="48.63617" lon="7.09774">
        <ele>349.94</ele>
        <time>2020-08-19T15:29:58.000Z</time>
      </trkpt>
      <trkpt lat="48.63612" lon="7.09778">
        <ele>350.65</ele>
        <time>2020-08-19T15:30:00.000Z</time>
      </trkpt>
      <trkpt lat="48.63605" lon="7.09782">
        <ele>350.92</ele>
        <time>2020-08-19T15:30:02.000Z</time>
      </trkpt>
      <trkpt lat="48.63598" lon="7.09789">
        <ele>351.11</ele>
        <time>2020-08-19T15:30:04.000Z</time>
      </trkpt>
      <trkpt lat="48.63592" lon="7.09797">
        <ele>352.06</ele>
        <time>2020-08-19T15:30:06.000Z</time>
      </trkpt>
      <trkpt lat="48.63588" lon="7.09806">
        <ele>351.56</ele>
        <time>2020-08-19T15:30:08.000Z</time>
      </trkpt>
      <trkpt lat="48.63585" lon="7.09815">
        <ele>351.07</ele>
        <time>2020-08-19T15:30:10.000Z</time>
      </trkpt>
      <trkpt lat="48.63581" lon="7.09826">
        <ele>351.45</ele>
        <time>2020-08-19T15:30:12.000Z</time>
      </trkpt>
      <trkpt lat="48.63578" lon="7.09832">
        <ele>352.24</ele>
        <time>2020-08-19T15:30:13.000Z</time>
      </trkpt>
      <trkpt lat="48.63575" lon="7.09838">
        <ele>352.22</ele>
        <time>2020-08-19T15:30:14.000Z</time>
      </trkpt>
      <trkpt lat="48.63573" lon="7.09845">
        <ele>353.08</ele>
        <time>2020-08-19T15:30:15.000Z</time>
      </trkpt>
      <trkpt lat="48.6357" lon="7.09851">
        <ele>353.14</ele>
        <time>2020-08-19T15:30:16.000Z</time>
      </trkpt>
      <trkpt lat="48.63567" lon="7.09858">
        <ele>353.01</ele>
        <time>2020-08-19T15:30:17.000Z</time>
      </trkpt>
      <trkpt lat="48.63565" lon="7.09866">
        <ele>353.14</ele>
        <time>2020-08-19T15:30:18.000Z</time>
      </trkpt>
      <trkpt lat="48.63562" lon="7.09873">
        <ele>353.43</ele>
        <time>2020-08-19T15:30:19.000Z</time>
      </trkpt>
      <trkpt lat="48.63561" lon="7.09882">
        <ele>353.71</ele>
        <time>2020-08-19T15:30:20.000Z</time>
      </trkpt>
      <trkpt lat="48.63559" lon="7.0989">
        <ele>353.69</ele>
        <time>2020-08-19T15:30:21.000Z</time>
      </trkpt>
      <trkpt lat="48.63557" lon="7.09897">
        <ele>353.15</ele>
        <time>2020-08-19T15:30:22.000Z</time>
      </trkpt>
      <trkpt lat="48.63554" lon="7.09906">
        <ele>353.76</ele>
        <time>2020-08-19T15:30:23.000Z</time>
      </trkpt>
      <trkpt lat="48.63552" lon="7.09914">
        <ele>353.37</ele>
        <time>2020-08-19T15:30:24.000Z</time>
      </trkpt>
      <trkpt lat="48.6355" lon="7.09922">
        <ele>353.11</ele>
        <time>2020-08-19T15:30:25.000Z</time>
      </trkpt>
      <trkpt lat="48.63549" lon="7.09931">
        <ele>353.1</ele>
        <time>2020-08-19T15:30:26.000Z</time>
      </trkpt>
      <trkpt lat="48.63547" lon="7.0994">
        <ele>352.73</ele>
        <time>2020-08-19T15:30:27.000Z</time>
      </trkpt>
      <trkpt lat="48.63545" lon="7.09947">
        <ele>352.2</ele>
        <time>2020-08-19T15:30:28.000Z</time>
      </trkpt>
      <trkpt lat="48.63544" lon="7.09955">
        <ele>351.83</ele>
        <time>2020-08-19T15:30:29.000Z</time>
      </trkpt>
      <trkpt lat="48.63543" lon="7.09963">
        <ele>351.95</ele>
        <time>2020-08-19T15:30:30.000Z</time>
      </trkpt>
      <trkpt lat="48.63541" lon="7.09974">
        <ele>352.46</ele>
        <time>2020-08-19T15:30:32.000Z</time>
      </trkpt>
      <trkpt lat="48.63539" lon="7.09981">
        <ele>351.86</ele>
        <time>2020-08-19T15:30:33.000Z</time>
      </trkpt>
      <trkpt lat="48.63538" lon="7.09987">
        <ele>351.57</ele>
        <time>2020-08-19T15:30:34.000Z</time>
      </trkpt>
      <trkpt lat="48.63535" lon="7.09994">
        <ele>353.03</ele>
        <time>2020-08-19T15:30:35.000Z</time>
      </trkpt>
      <trkpt lat="48.63533" lon="7.10006">
        <ele>353.72</ele>
        <time>2020-08-19T15:30:37.000Z</time>
      </trkpt>
      <trkpt lat="48.63531" lon="7.10019">
        <ele>354.89</ele>
        <time>2020-08-19T15:30:39.000Z</time>
      </trkpt>
      <trkpt lat="48.63529" lon="7.10031">
        <ele>355.47</ele>
        <time>2020-08-19T15:30:41.000Z</time>
      </trkpt>
      <trkpt lat="48.63528" lon="7.10038">
        <ele>355.46</ele>
        <time>2020-08-19T15:30:42.000Z</time>
      </trkpt>
      <trkpt lat="48.63525" lon="7.10051">
        <ele>355.95</ele>
        <time>2020-08-19T15:30:44.000Z</time>
      </trkpt>
      <trkpt lat="48.63521" lon="7.10062">
        <ele>354.81</ele>
        <time>2020-08-19T15:30:46.000Z</time>
      </trkpt>
      <trkpt lat="48.63519" lon="7.10068">
        <ele>354.29</ele>
        <time>2020-08-19T15:30:50.000Z</time>
      </trkpt>
      <trkpt lat="48.63516" lon="7.10075">
        <ele>355.32</ele>
        <time>2020-08-19T15:31:04.000Z</time>
      </trkpt>
      <trkpt lat="48.63512" lon="7.10083">
        <ele>355.86</ele>
        <time>2020-08-19T15:31:06.000Z</time>
      </trkpt>
      <trkpt lat="48.63508" lon="7.10094">
        <ele>355.82</ele>
        <time>2020-08-19T15:31:08.000Z</time>
      </trkpt>
      <trkpt lat="48.63504" lon="7.10105">
        <ele>355.61</ele>
        <time>2020-08-19T15:31:10.000Z</time>
      </trkpt>
      <trkpt lat="48.63501" lon="7.10111">
        <ele>356.04</ele>
        <time>2020-08-19T15:31:11.000Z</time>
      </trkpt>
      <trkpt lat="48.63497" lon="7.10121">
        <ele>355.58</ele>
        <time>2020-08-19T15:31:13.000Z</time>
      </trkpt>
      <trkpt lat="48.63492" lon="7.10127">
        <ele>356.86</ele>
        <time>2020-08-19T15:31:15.000Z</time>
      </trkpt>
      <trkpt lat="48.63486" lon="7.10121">
        <ele>355.17</ele>
        <time>2020-08-19T15:31:18.000Z</time>
      </trkpt>
      <trkpt lat="48.63479" lon="7.10112">
        <ele>352.71</ele>
        <time>2020-08-19T15:31:20.000Z</time>
      </trkpt>
      <trkpt lat="48.63475" lon="7.10107">
        <ele>352.84</ele>
        <time>2020-08-19T15:31:21.000Z</time>
      </trkpt>
      <trkpt lat="48.63466" lon="7.10097">
        <ele>352.24</ele>
        <time>2020-08-19T15:31:23.000Z</time>
      </trkpt>
      <trkpt lat="48.63462" lon="7.10091">
        <ele>351.33</ele>
        <time>2020-08-19T15:31:24.000Z</time>
      </trkpt>
      <trkpt lat="48.63458" lon="7.10086">
        <ele>350.42</ele>
        <time>2020-08-19T15:31:25.000Z</time>
      </trkpt>
      <trkpt lat="48.63452" lon="7.10078">
        <ele>349.05</ele>
        <time>2020-08-19T15:31:27.000Z</time>
      </trkpt>
      <trkpt lat="48.63451" lon="7.10069">
        <ele>348.54</ele>
        <time>2020-08-19T15:31:29.000Z</time>
      </trkpt>
      <trkpt lat="48.63449" lon="7.10063">
        <ele>347.81</ele>
        <time>2020-08-19T15:31:42.000Z</time>
      </trkpt>
      <trkpt lat="48.63445" lon="7.10055">
        <ele>345.74</ele>
        <time>2020-08-19T15:31:56.000Z</time>
      </trkpt>
      <trkpt lat="48.63441" lon="7.1005">
        <ele>344.93</ele>
        <time>2020-08-19T15:31:57.000Z</time>
      </trkpt>
      <trkpt lat="48.63436" lon="7.1004">
        <ele>342.63</ele>
        <time>2020-08-19T15:31:59.000Z</time>
      </trkpt>
      <trkpt lat="48.63432" lon="7.10035">
        <ele>343.91</ele>
        <time>2020-08-19T15:32:00.000Z</time>
      </trkpt>
      <trkpt lat="48.63428" lon="7.10029">
        <ele>344.25</ele>
        <time>2020-08-19T15:32:01.000Z</time>
      </trkpt>
      <trkpt lat="48.63424" lon="7.10022">
        <ele>344.32</ele>
        <time>2020-08-19T15:32:02.000Z</time>
      </trkpt>
      <trkpt lat="48.6342" lon="7.10015">
        <ele>344.6</ele>
        <time>2020-08-19T15:32:03.000Z</time>
      </trkpt>
      <trkpt lat="48.63417" lon="7.10009">
        <ele>343.85</ele>
        <time>2020-08-19T15:32:04.000Z</time>
      </trkpt>
      <trkpt lat="48.63414" lon="7.10003">
        <ele>344.11</ele>
        <time>2020-08-19T15:32:05.000Z</time>
      </trkpt>
      <trkpt lat="48.63409" lon="7.09996">
        <ele>343.75</ele>
        <time>2020-08-19T15:32:06.000Z</time>
      </trkpt>
      <trkpt lat="48.63406" lon="7.09991">
        <ele>343.2</ele>
        <time>2020-08-19T15:32:07.000Z</time>
      </trkpt>
      <trkpt lat="48.63401" lon="7.09984">
        <ele>343.13</ele>
        <time>2020-08-19T15:32:08.000Z</time>
      </trkpt>
      <trkpt lat="48.63397" lon="7.0998">
        <ele>343.13</ele>
        <time>2020-08-19T15:32:09.000Z</time>
      </trkpt>
      <trkpt lat="48.63393" lon="7.09974">
        <ele>342.05</ele>
        <time>2020-08-19T15:32:10.000Z</time>
      </trkpt>
      <trkpt lat="48.63388" lon="7.09969">
        <ele>341.63</ele>
        <time>2020-08-19T15:32:11.000Z</time>
      </trkpt>
      <trkpt lat="48.63384" lon="7.09963">
        <ele>341.01</ele>
        <time>2020-08-19T15:32:12.000Z</time>
      </trkpt>
      <trkpt lat="48.63378" lon="7.09959">
        <ele>341.1</ele>
        <time>2020-08-19T15:32:13.000Z</time>
      </trkpt>
      <trkpt lat="48.63372" lon="7.09956">
        <ele>341.28</ele>
        <time>2020-08-19T15:32:14.000Z</time>
      </trkpt>
      <trkpt lat="48.63368" lon="7.09953">
        <ele>341.39</ele>
        <time>2020-08-19T15:32:15.000Z</time>
      </trkpt>
      <trkpt lat="48.63363" lon="7.0995">
        <ele>339.87</ele>
        <time>2020-08-19T15:32:16.000Z</time>
      </trkpt>
      <trkpt lat="48.63359" lon="7.09946">
        <ele>339.34</ele>
        <time>2020-08-19T15:32:17.000Z</time>
      </trkpt>
      <trkpt lat="48.63353" lon="7.09942">
        <ele>339.82</ele>
        <time>2020-08-19T15:32:18.000Z</time>
      </trkpt>
      <trkpt lat="48.63349" lon="7.09938">
        <ele>339.47</ele>
        <time>2020-08-19T15:32:19.000Z</time>
      </trkpt>
      <trkpt lat="48.63342" lon="7.09929">
        <ele>339.43</ele>
        <time>2020-08-19T15:32:21.000Z</time>
      </trkpt>
      <trkpt lat="48.63338" lon="7.09923">
        <ele>338.94</ele>
        <time>2020-08-19T15:32:22.000Z</time>
      </trkpt>
      <trkpt lat="48.63334" lon="7.09918">
        <ele>338.76</ele>
        <time>2020-08-19T15:32:23.000Z</time>
      </trkpt>
      <trkpt lat="48.6333" lon="7.09912">
        <ele>339.26</ele>
        <time>2020-08-19T15:32:24.000Z</time>
      </trkpt>
      <trkpt lat="48.63328" lon="7.09905">
        <ele>341.3</ele>
        <time>2020-08-19T15:32:25.000Z</time>
      </trkpt>
      <trkpt lat="48.63323" lon="7.09893">
        <ele>341.24</ele>
        <time>2020-08-19T15:32:27.000Z</time>
      </trkpt>
      <trkpt lat="48.63319" lon="7.09879">
        <ele>341.03</ele>
        <time>2020-08-19T15:32:29.000Z</time>
      </trkpt>
      <trkpt lat="48.63316" lon="7.09874">
        <ele>341.93</ele>
        <time>2020-08-19T15:32:30.000Z</time>
      </trkpt>
      <trkpt lat="48.63313" lon="7.09866">
        <ele>341.54</ele>
        <time>2020-08-19T15:32:31.000Z</time>
      </trkpt>
      <trkpt lat="48.63309" lon="7.09859">
        <ele>340.86</ele>
        <time>2020-08-19T15:32:32.000Z</time>
      </trkpt>
      <trkpt lat="48.63304" lon="7.09854">
        <ele>341.05</ele>
        <time>2020-08-19T15:32:33.000Z</time>
      </trkpt>
      <trkpt lat="48.63299" lon="7.0985">
        <ele>341.25</ele>
        <time>2020-08-19T15:32:34.000Z</time>
      </trkpt>
      <trkpt lat="48.63289" lon="7.09842">
        <ele>339.28</ele>
        <time>2020-08-19T15:32:36.000Z</time>
      </trkpt>
      <trkpt lat="48.63283" lon="7.09831">
        <ele>337.3</ele>
        <time>2020-08-19T15:32:38.000Z</time>
      </trkpt>
      <trkpt lat="48.63279" lon="7.09823">
        <ele>339.07</ele>
        <time>2020-08-19T15:32:39.000Z</time>
      </trkpt>
      <trkpt lat="48.63275" lon="7.09817">
        <ele>338.64</ele>
        <time>2020-08-19T15:32:40.000Z</time>
      </trkpt>
      <trkpt lat="48.63271" lon="7.09809">
        <ele>336.9</ele>
        <time>2020-08-19T15:32:41.000Z</time>
      </trkpt>
      <trkpt lat="48.63268" lon="7.09804">
        <ele>338.46</ele>
        <time>2020-08-19T15:32:42.000Z</time>
      </trkpt>
      <trkpt lat="48.63263" lon="7.09797">
        <ele>338.38</ele>
        <time>2020-08-19T15:32:43.000Z</time>
      </trkpt>
      <trkpt lat="48.63258" lon="7.09792">
        <ele>345.87</ele>
        <time>2020-08-19T15:32:44.000Z</time>
      </trkpt>
      <trkpt lat="48.63254" lon="7.09788">
        <ele>345.86</ele>
        <time>2020-08-19T15:32:45.000Z</time>
      </trkpt>
      <trkpt lat="48.63251" lon="7.09782">
        <ele>344.12</ele>
        <time>2020-08-19T15:32:46.000Z</time>
      </trkpt>
      <trkpt lat="48.63247" lon="7.09775">
        <ele>343.53</ele>
        <time>2020-08-19T15:32:47.000Z</time>
      </trkpt>
      <trkpt lat="48.63243" lon="7.0977">
        <ele>343.55</ele>
        <time>2020-08-19T15:32:48.000Z</time>
      </trkpt>
      <trkpt lat="48.63237" lon="7.09766">
        <ele>344.86</ele>
        <time>2020-08-19T15:32:49.000Z</time>
      </trkpt>
      <trkpt lat="48.63234" lon="7.09759">
        <ele>344.22</ele>
        <time>2020-08-19T15:32:50.000Z</time>
      </trkpt>
      <trkpt lat="48.63221" lon="7.09743">
        <ele>345.78</ele>
        <time>2020-08-19T15:32:53.000Z</time>
      </trkpt>
      <trkpt lat="48.63215" lon="7.09734">
        <ele>349.05</ele>
        <time>2020-08-19T15:32:55.000Z</time>
      </trkpt>
      <trkpt lat="48.63211" lon="7.09729">
        <ele>348.92</ele>
        <time>2020-08-19T15:32:57.000Z</time>
      </trkpt>
      <trkpt lat="48.63207" lon="7.09737">
        <ele>346.59</ele>
        <time>2020-08-19T15:33:00.000Z</time>
      </trkpt>
      <trkpt lat="48.632" lon="7.09751">
        <ele>346.91</ele>
        <time>2020-08-19T15:33:03.000Z</time>
      </trkpt>
      <trkpt lat="48.63195" lon="7.09757">
        <ele>348.85</ele>
        <time>2020-08-19T15:33:05.000Z</time>
      </trkpt>
      <trkpt lat="48.63192" lon="7.09767">
        <ele>351.25</ele>
        <time>2020-08-19T15:33:07.000Z</time>
      </trkpt>
      <trkpt lat="48.63187" lon="7.09774">
        <ele>351.53</ele>
        <time>2020-08-19T15:33:09.000Z</time>
      </trkpt>
      <trkpt lat="48.63188" lon="7.09781">
        <ele>355.95</ele>
        <time>2020-08-19T15:33:27.000Z</time>
      </trkpt>
      <trkpt lat="48.63189" lon="7.09791">
        <ele>353.99</ele>
        <time>2020-08-19T15:33:30.000Z</time>
      </trkpt>
      <trkpt lat="48.63185" lon="7.09799">
        <ele>353.42</ele>
        <time>2020-08-19T15:33:34.000Z</time>
      </trkpt>
      <trkpt lat="48.63183" lon="7.09807">
        <ele>355.73</ele>
        <time>2020-08-19T15:33:36.000Z</time>
      </trkpt>
      <trkpt lat="48.63183" lon="7.09817">
        <ele>357.21</ele>
        <time>2020-08-19T15:33:39.000Z</time>
      </trkpt>
      <trkpt lat="48.63182" lon="7.09828">
        <ele>356.8</ele>
        <time>2020-08-19T15:33:41.000Z</time>
      </trkpt>
      <trkpt lat="48.63182" lon="7.09837">
        <ele>355.4</ele>
        <time>2020-08-19T15:33:43.000Z</time>
      </trkpt>
      <trkpt lat="48.6318" lon="7.09847">
        <ele>353.93</ele>
        <time>2020-08-19T15:33:45.000Z</time>
      </trkpt>
      <trkpt lat="48.63177" lon="7.09856">
        <ele>350.21</ele>
        <time>2020-08-19T15:33:47.000Z</time>
      </trkpt>
      <trkpt lat="48.63175" lon="7.09863">
        <ele>350.76</ele>
        <time>2020-08-19T15:33:49.000Z</time>
      </trkpt>
      <trkpt lat="48.63174" lon="7.09872">
        <ele>350.76</ele>
        <time>2020-08-19T15:33:51.000Z</time>
      </trkpt>
      <trkpt lat="48.63173" lon="7.09883">
        <ele>351.36</ele>
        <time>2020-08-19T15:33:53.000Z</time>
      </trkpt>
      <trkpt lat="48.63172" lon="7.09893">
        <ele>355.85</ele>
        <time>2020-08-19T15:33:55.000Z</time>
      </trkpt>
      <trkpt lat="48.6317" lon="7.09905">
        <ele>355.97</ele>
        <time>2020-08-19T15:33:57.000Z</time>
      </trkpt>
      <trkpt lat="48.63168" lon="7.09915">
        <ele>359.15</ele>
        <time>2020-08-19T15:33:59.000Z</time>
      </trkpt>
      <trkpt lat="48.63168" lon="7.09924">
        <ele>359.25</ele>
        <time>2020-08-19T15:34:01.000Z</time>
      </trkpt>
      <trkpt lat="48.63169" lon="7.09933">
        <ele>362.14</ele>
        <time>2020-08-19T15:34:03.000Z</time>
      </trkpt>
      <trkpt lat="48.63169" lon="7.09941">
        <ele>442.86</ele>
        <time>2020-08-19T15:34:05.000Z</time>
      </trkpt>
      <trkpt lat="48.63169" lon="7.09949">
        <ele>429.12</ele>
        <time>2020-08-19T15:34:07.000Z</time>
      </trkpt>
      <trkpt lat="48.6317" lon="7.09956">
        <ele>402.44</ele>
        <time>2020-08-19T15:34:09.000Z</time>
      </trkpt>
      <trkpt lat="48.63173" lon="7.09962">
        <ele>388.41</ele>
        <time>2020-08-19T15:34:11.000Z</time>
      </trkpt>
      <trkpt lat="48.63174" lon="7.0997">
        <ele>383.48</ele>
        <time>2020-08-19T15:34:13.000Z</time>
      </trkpt>
      <trkpt lat="48.63174" lon="7.09979">
        <ele>380.6</ele>
        <time>2020-08-19T15:34:15.000Z</time>
      </trkpt>
      <trkpt lat="48.63175" lon="7.09987">
        <ele>377.53</ele>
        <time>2020-08-19T15:34:17.000Z</time>
      </trkpt>
      <trkpt lat="48.63175" lon="7.09996">
        <ele>374.28</ele>
        <time>2020-08-19T15:34:19.000Z</time>
      </trkpt>
      <trkpt lat="48.63175" lon="7.10004">
        <ele>371.46</ele>
        <time>2020-08-19T15:34:21.000Z</time>
      </trkpt>
      <trkpt lat="48.63174" lon="7.10012">
        <ele>372.07</ele>
        <time>2020-08-19T15:34:23.000Z</time>
      </trkpt>
      <trkpt lat="48.63172" lon="7.1002">
        <ele>372.61</ele>
        <time>2020-08-19T15:34:26.000Z</time>
      </trkpt>
      <trkpt lat="48.63171" lon="7.1003">
        <ele>373.7</ele>
        <time>2020-08-19T15:34:30.000Z</time>
      </trkpt>
      <trkpt lat="48.63169" lon="7.10037">
        <ele>375.3</ele>
        <time>2020-08-19T15:34:34.000Z</time>
      </trkpt>
      <trkpt lat="48.63165" lon="7.10044">
        <ele>376.36</ele>
        <time>2020-08-19T15:34:36.000Z</time>
      </trkpt>
      <trkpt lat="48.6316" lon="7.1005">
        <ele>376.89</ele>
        <time>2020-08-19T15:34:38.000Z</time>
      </trkpt>
      <trkpt lat="48.63155" lon="7.10055">
        <ele>372.88</ele>
        <time>2020-08-19T15:34:40.000Z</time>
      </trkpt>
      <trkpt lat="48.63151" lon="7.10061">
        <ele>372.88</ele>
        <time>2020-08-19T15:34:42.000Z</time>
      </trkpt>
      <trkpt lat="48.63139" lon="7.10075">
        <ele>369.92</ele>
        <time>2020-08-19T15:34:46.000Z</time>
      </trkpt>
      <trkpt lat="48.63134" lon="7.10082">
        <ele>369.53</ele>
        <time>2020-08-19T15:34:48.000Z</time>
      </trkpt>
      <trkpt lat="48.6313" lon="7.10087">
        <ele>371.51</ele>
        <time>2020-08-19T15:34:51.000Z</time>
      </trkpt>
      <trkpt lat="48.63129" lon="7.10094">
        <ele>370.72</ele>
        <time>2020-08-19T15:35:00.000Z</time>
      </trkpt>
      <trkpt lat="48.63126" lon="7.10101">
        <ele>371.75</ele>
        <time>2020-08-19T15:35:10.000Z</time>
      </trkpt>
      <trkpt lat="48.63123" lon="7.10105">
        <ele>370.98</ele>
        <time>2020-08-19T15:35:12.000Z</time>
      </trkpt>
      <trkpt lat="48.63119" lon="7.1011">
        <ele>372.59</ele>
        <time>2020-08-19T15:35:14.000Z</time>
      </trkpt>
      <trkpt lat="48.63114" lon="7.10113">
        <ele>374.98</ele>
        <time>2020-08-19T15:35:18.000Z</time>
      </trkpt>
      <trkpt lat="48.6311" lon="7.10118">
        <ele>375.62</ele>
        <time>2020-08-19T15:35:20.000Z</time>
      </trkpt>
      <trkpt lat="48.63106" lon="7.10124">
        <ele>374.95</ele>
        <time>2020-08-19T15:35:22.000Z</time>
      </trkpt>
      <trkpt lat="48.63103" lon="7.10131">
        <ele>374.88</ele>
        <time>2020-08-19T15:35:24.000Z</time>
      </trkpt>
      <trkpt lat="48.63099" lon="7.10137">
        <ele>375.76</ele>
        <time>2020-08-19T15:35:26.000Z</time>
      </trkpt>
      <trkpt lat="48.63093" lon="7.10143">
        <ele>376.8</ele>
        <time>2020-08-19T15:35:29.000Z</time>
      </trkpt>
      <trkpt lat="48.6309" lon="7.1015">
        <ele>377.55</ele>
        <time>2020-08-19T15:35:31.000Z</time>
      </trkpt>
      <trkpt lat="48.63085" lon="7.10157">
        <ele>377.45</ele>
        <time>2020-08-19T15:35:33.000Z</time>
      </trkpt>
      <trkpt lat="48.63078" lon="7.10163">
        <ele>375.19</ele>
        <time>2020-08-19T15:35:35.000Z</time>
      </trkpt>
      <trkpt lat="48.63072" lon="7.10166">
        <ele>376.69</ele>
        <time>2020-08-19T15:35:38.000Z</time>
      </trkpt>
      <trkpt lat="48.63066" lon="7.10172">
        <ele>377.6</ele>
        <time>2020-08-19T15:35:40.000Z</time>
      </trkpt>
      <trkpt lat="48.63062" lon="7.10177">
        <ele>377.92</ele>
        <time>2020-08-19T15:35:41.000Z</time>
      </trkpt>
      <trkpt lat="48.63058" lon="7.10181">
        <ele>376.4</ele>
        <time>2020-08-19T15:35:42.000Z</time>
      </trkpt>
      <trkpt lat="48.63053" lon="7.10188">
        <ele>376.18</ele>
        <time>2020-08-19T15:35:44.000Z</time>
      </trkpt>
      <trkpt lat="48.63049" lon="7.10195">
        <ele>374.56</ele>
        <time>2020-08-19T15:35:46.000Z</time>
      </trkpt>
      <trkpt lat="48.63042" lon="7.10202">
        <ele>374.34</ele>
        <time>2020-08-19T15:35:48.000Z</time>
      </trkpt>
      <trkpt lat="48.63036" lon="7.10209">
        <ele>375.58</ele>
        <time>2020-08-19T15:35:50.000Z</time>
      </trkpt>
      <trkpt lat="48.63032" lon="7.10213">
        <ele>376.75</ele>
        <time>2020-08-19T15:35:52.000Z</time>
      </trkpt>
      <trkpt lat="48.63026" lon="7.1022">
        <ele>379.47</ele>
        <time>2020-08-19T15:35:54.000Z</time>
      </trkpt>
      <trkpt lat="48.63021" lon="7.10228">
        <ele>379.64</ele>
        <time>2020-08-19T15:35:56.000Z</time>
      </trkpt>
      <trkpt lat="48.63016" lon="7.10234">
        <ele>379.68</ele>
        <time>2020-08-19T15:35:58.000Z</time>
      </trkpt>
      <trkpt lat="48.6301" lon="7.1024">
        <ele>379.16</ele>
        <time>2020-08-19T15:36:00.000Z</time>
      </trkpt>
      <trkpt lat="48.63005" lon="7.10246">
        <ele>376.37</ele>
        <time>2020-08-19T15:36:02.000Z</time>
      </trkpt>
      <trkpt lat="48.63001" lon="7.10252">
        <ele>376.39</ele>
        <time>2020-08-19T15:36:04.000Z</time>
      </trkpt>
      <trkpt lat="48.62997" lon="7.1026">
        <ele>375.96</ele>
        <time>2020-08-19T15:36:06.000Z</time>
      </trkpt>
      <trkpt lat="48.62991" lon="7.10265">
        <ele>376.35</ele>
        <time>2020-08-19T15:36:08.000Z</time>
      </trkpt>
      <trkpt lat="48.62987" lon="7.10272">
        <ele>376.56</ele>
        <time>2020-08-19T15:36:10.000Z</time>
      </trkpt>
      <trkpt lat="48.62983" lon="7.10279">
        <ele>377.75</ele>
        <time>2020-08-19T15:36:12.000Z</time>
      </trkpt>
      <trkpt lat="48.62978" lon="7.10287">
        <ele>377.72</ele>
        <time>2020-08-19T15:36:14.000Z</time>
      </trkpt>
      <trkpt lat="48.62973" lon="7.10292">
        <ele>378.38</ele>
        <time>2020-08-19T15:36:16.000Z</time>
      </trkpt>
      <trkpt lat="48.62969" lon="7.10294">
        <ele>376.21</ele>
        <time>2020-08-19T15:36:18.000Z</time>
      </trkpt>
      <trkpt lat="48.62961" lon="7.10299">
        <ele>378.69</ele>
        <time>2020-08-19T15:36:20.000Z</time>
      </trkpt>
      <trkpt lat="48.62957" lon="7.10306">
        <ele>379</ele>
        <time>2020-08-19T15:36:22.000Z</time>
      </trkpt>
      <trkpt lat="48.62952" lon="7.1031">
        <ele>380.4</ele>
        <time>2020-08-19T15:36:24.000Z</time>
      </trkpt>
      <trkpt lat="48.62946" lon="7.10315">
        <ele>380.64</ele>
        <time>2020-08-19T15:36:26.000Z</time>
      </trkpt>
      <trkpt lat="48.6294" lon="7.1032">
        <ele>382.44</ele>
        <time>2020-08-19T15:36:28.000Z</time>
      </trkpt>
      <trkpt lat="48.62936" lon="7.10324">
        <ele>380.25</ele>
        <time>2020-08-19T15:36:30.000Z</time>
      </trkpt>
      <trkpt lat="48.62932" lon="7.10328">
        <ele>379.15</ele>
        <time>2020-08-19T15:36:32.000Z</time>
      </trkpt>
      <trkpt lat="48.62927" lon="7.10332">
        <ele>378.96</ele>
        <time>2020-08-19T15:36:35.000Z</time>
      </trkpt>
      <trkpt lat="48.62922" lon="7.10334">
        <ele>379.39</ele>
        <time>2020-08-19T15:36:37.000Z</time>
      </trkpt>
      <trkpt lat="48.62916" lon="7.10338">
        <ele>378.74</ele>
        <time>2020-08-19T15:36:39.000Z</time>
      </trkpt>
      <trkpt lat="48.62911" lon="7.1034">
        <ele>378.88</ele>
        <time>2020-08-19T15:36:41.000Z</time>
      </trkpt>
      <trkpt lat="48.62906" lon="7.1034">
        <ele>378.84</ele>
        <time>2020-08-19T15:36:43.000Z</time>
      </trkpt>
      <trkpt lat="48.629" lon="7.10341">
        <ele>380.39</ele>
        <time>2020-08-19T15:36:45.000Z</time>
      </trkpt>
      <trkpt lat="48.62893" lon="7.10338">
        <ele>379.55</ele>
        <time>2020-08-19T15:36:47.000Z</time>
      </trkpt>
      <trkpt lat="48.62888" lon="7.10333">
        <ele>378.61</ele>
        <time>2020-08-19T15:36:49.000Z</time>
      </trkpt>
      <trkpt lat="48.62884" lon="7.10328">
        <ele>380</ele>
        <time>2020-08-19T15:36:51.000Z</time>
      </trkpt>
      <trkpt lat="48.62868" lon="7.10312">
        <ele>382.84</ele>
        <time>2020-08-19T15:36:57.000Z</time>
      </trkpt>
      <trkpt lat="48.62833" lon="7.10273">
        <ele>391</ele>
        <time>2020-08-19T15:37:26.000Z</time>
      </trkpt>
      <trkpt lat="48.62835" lon="7.10266">
        <ele>390.38</ele>
        <time>2020-08-19T15:37:29.000Z</time>
      </trkpt>
      <trkpt lat="48.6284" lon="7.10265">
        <ele>390.04</ele>
        <time>2020-08-19T15:37:38.000Z</time>
      </trkpt>
      <trkpt lat="48.62844" lon="7.10267">
        <ele>389.27</ele>
        <time>2020-08-19T15:37:42.000Z</time>
      </trkpt>
      <trkpt lat="48.62848" lon="7.10273">
        <ele>390.42</ele>
        <time>2020-08-19T15:37:46.000Z</time>
      </trkpt>
      <trkpt lat="48.62852" lon="7.10278">
        <ele>390.94</ele>
        <time>2020-08-19T15:37:51.000Z</time>
      </trkpt>
      <trkpt lat="48.62857" lon="7.10283">
        <ele>391.34</ele>
        <time>2020-08-19T15:37:56.000Z</time>
      </trkpt>
      <trkpt lat="48.62861" lon="7.10288">
        <ele>392.15</ele>
        <time>2020-08-19T15:38:01.000Z</time>
      </trkpt>
      <trkpt lat="48.62864" lon="7.10293">
        <ele>391.49</ele>
        <time>2020-08-19T15:38:12.000Z</time>
      </trkpt>
      <trkpt lat="48.62868" lon="7.10298">
        <ele>420.34</ele>
        <time>2020-08-19T15:38:16.000Z</time>
      </trkpt>
      <trkpt lat="48.62872" lon="7.10302">
        <ele>402.69</ele>
        <time>2020-08-19T15:38:20.000Z</time>
      </trkpt>
      <trkpt lat="48.62877" lon="7.10305">
        <ele>415.04</ele>
        <time>2020-08-19T15:38:24.000Z</time>
      </trkpt>
      <trkpt lat="48.62879" lon="7.10299">
        <ele>399.37</ele>
        <time>2020-08-19T15:38:29.000Z</time>
      </trkpt>
      <trkpt lat="48.62877" lon="7.10292">
        <ele>395.58</ele>
        <time>2020-08-19T15:38:34.000Z</time>
      </trkpt>
      <trkpt lat="48.62874" lon="7.10286">
        <ele>393.95</ele>
        <time>2020-08-19T15:38:41.000Z</time>
      </trkpt>
      <trkpt lat="48.6287" lon="7.10281">
        <ele>396.57</ele>
        <time>2020-08-19T15:38:46.000Z</time>
      </trkpt>
      <trkpt lat="48.62866" lon="7.10278">
        <ele>399.83</ele>
        <time>2020-08-19T15:38:50.000Z</time>
      </trkpt>
      <trkpt lat="48.62862" lon="7.10274">
        <ele>401.91</ele>
        <time>2020-08-19T15:38:54.000Z</time>
      </trkpt>
      <trkpt lat="48.62856" lon="7.10271">
        <ele>410</ele>
        <time>2020-08-19T15:39:12.000Z</time>
      </trkpt>
      <trkpt lat="48.62853" lon="7.10266">
        <ele>410.29</ele>
        <time>2020-08-19T15:39:14.000Z</time>
      </trkpt>
      <trkpt lat="48.6285" lon="7.10261">
        <ele>411.13</ele>
        <time>2020-08-19T15:39:16.000Z</time>
      </trkpt>
      <trkpt lat="48.62846" lon="7.10255">
        <ele>411.54</ele>
        <time>2020-08-19T15:39:18.000Z</time>
      </trkpt>
      <trkpt lat="48.62842" lon="7.1025">
        <ele>411.22</ele>
        <time>2020-08-19T15:39:20.000Z</time>
      </trkpt>
      <trkpt lat="48.62838" lon="7.10245">
        <ele>411.14</ele>
        <time>2020-08-19T15:39:22.000Z</time>
      </trkpt>
      <trkpt lat="48.62835" lon="7.10239">
        <ele>411.6</ele>
        <time>2020-08-19T15:39:24.000Z</time>
      </trkpt>
      <trkpt lat="48.62831" lon="7.10231">
        <ele>411.95</ele>
        <time>2020-08-19T15:39:26.000Z</time>
      </trkpt>
      <trkpt lat="48.62828" lon="7.10224">
        <ele>410.08</ele>
        <time>2020-08-19T15:39:28.000Z</time>
      </trkpt>
      <trkpt lat="48.62825" lon="7.10218">
        <ele>410.09</ele>
        <time>2020-08-19T15:39:30.000Z</time>
      </trkpt>
      <trkpt lat="48.62821" lon="7.10212">
        <ele>409.98</ele>
        <time>2020-08-19T15:39:32.000Z</time>
      </trkpt>
      <trkpt lat="48.62817" lon="7.10207">
        <ele>411.94</ele>
        <time>2020-08-19T15:39:34.000Z</time>
      </trkpt>
      <trkpt lat="48.62813" lon="7.10202">
        <ele>410.26</ele>
        <time>2020-08-19T15:39:36.000Z</time>
      </trkpt>
      <trkpt lat="48.62809" lon="7.10195">
        <ele>409.82</ele>
        <time>2020-08-19T15:39:38.000Z</time>
      </trkpt>
      <trkpt lat="48.62805" lon="7.10185">
        <ele>407.35</ele>
        <time>2020-08-19T15:39:40.000Z</time>
      </trkpt>
      <trkpt lat="48.62801" lon="7.10177">
        <ele>406.06</ele>
        <time>2020-08-19T15:39:42.000Z</time>
      </trkpt>
      <trkpt lat="48.62797" lon="7.10172">
        <ele>407.96</ele>
        <time>2020-08-19T15:39:44.000Z</time>
      </trkpt>
      <trkpt lat="48.62792" lon="7.10166">
        <ele>407.07</ele>
        <time>2020-08-19T15:39:46.000Z</time>
      </trkpt>
      <trkpt lat="48.62786" lon="7.1016">
        <ele>407.78</ele>
        <time>2020-08-19T15:39:48.000Z</time>
      </trkpt>
      <trkpt lat="48.6278" lon="7.10154">
        <ele>409.87</ele>
        <time>2020-08-19T15:39:50.000Z</time>
      </trkpt>
      <trkpt lat="48.62775" lon="7.10148">
        <ele>411.51</ele>
        <time>2020-08-19T15:39:52.000Z</time>
      </trkpt>
      <trkpt lat="48.6277" lon="7.10143">
        <ele>408.56</ele>
        <time>2020-08-19T15:39:54.000Z</time>
      </trkpt>
      <trkpt lat="48.62765" lon="7.10141">
        <ele>406.66</ele>
        <time>2020-08-19T15:39:57.000Z</time>
      </trkpt>
      <trkpt lat="48.62752" lon="7.10127">
        <ele>406.01</ele>
        <time>2020-08-19T15:40:02.000Z</time>
      </trkpt>
      <trkpt lat="48.62749" lon="7.10119">
        <ele>406.6</ele>
        <time>2020-08-19T15:40:04.000Z</time>
      </trkpt>
      <trkpt lat="48.62745" lon="7.10114">
        <ele>408.63</ele>
        <time>2020-08-19T15:40:06.000Z</time>
      </trkpt>
      <trkpt lat="48.62741" lon="7.10106">
        <ele>407.27</ele>
        <time>2020-08-19T15:40:08.000Z</time>
      </trkpt>
      <trkpt lat="48.62739" lon="7.10098">
        <ele>406.34</ele>
        <time>2020-08-19T15:40:10.000Z</time>
      </trkpt>
      <trkpt lat="48.62735" lon="7.10093">
        <ele>406.89</ele>
        <time>2020-08-19T15:40:12.000Z</time>
      </trkpt>
      <trkpt lat="48.62732" lon="7.10085">
        <ele>405.7</ele>
        <time>2020-08-19T15:40:15.000Z</time>
      </trkpt>
      <trkpt lat="48.62732" lon="7.10075">
        <ele>406.38</ele>
        <time>2020-08-19T15:40:18.000Z</time>
      </trkpt>
      <trkpt lat="48.6273" lon="7.10068">
        <ele>406.67</ele>
        <time>2020-08-19T15:40:20.000Z</time>
      </trkpt>
      <trkpt lat="48.62727" lon="7.1006">
        <ele>406.63</ele>
        <time>2020-08-19T15:40:22.000Z</time>
      </trkpt>
      <trkpt lat="48.62722" lon="7.10054">
        <ele>408.48</ele>
        <time>2020-08-19T15:40:24.000Z</time>
      </trkpt>
      <trkpt lat="48.62718" lon="7.1005">
        <ele>407.69</ele>
        <time>2020-08-19T15:40:26.000Z</time>
      </trkpt>
      <trkpt lat="48.62714" lon="7.10043">
        <ele>405.95</ele>
        <time>2020-08-19T15:40:28.000Z</time>
      </trkpt>
      <trkpt lat="48.62711" lon="7.10036">
        <ele>405.59</ele>
        <time>2020-08-19T15:40:30.000Z</time>
      </trkpt>
      <trkpt lat="48.62709" lon="7.10029">
        <ele>406.35</ele>
        <time>2020-08-19T15:40:32.000Z</time>
      </trkpt>
      <trkpt lat="48.62709" lon="7.10022">
        <ele>406.4</ele>
        <time>2020-08-19T15:40:34.000Z</time>
      </trkpt>
      <trkpt lat="48.62707" lon="7.10013">
        <ele>406.48</ele>
        <time>2020-08-19T15:40:36.000Z</time>
      </trkpt>
      <trkpt lat="48.62702" lon="7.10005">
        <ele>407.19</ele>
        <time>2020-08-19T15:40:38.000Z</time>
      </trkpt>
      <trkpt lat="48.62699" lon="7.09998">
        <ele>408.71</ele>
        <time>2020-08-19T15:40:40.000Z</time>
      </trkpt>
      <trkpt lat="48.62698" lon="7.09989">
        <ele>410.95</ele>
        <time>2020-08-19T15:40:42.000Z</time>
      </trkpt>
      <trkpt lat="48.62697" lon="7.09981">
        <ele>408.97</ele>
        <time>2020-08-19T15:40:49.000Z</time>
      </trkpt>
      <trkpt lat="48.62694" lon="7.09976">
        <ele>410.92</ele>
        <time>2020-08-19T15:40:53.000Z</time>
      </trkpt>
      <trkpt lat="48.62692" lon="7.09969">
        <ele>411.48</ele>
        <time>2020-08-19T15:40:57.000Z</time>
      </trkpt>
      <trkpt lat="48.62692" lon="7.09962">
        <ele>411.52</ele>
        <time>2020-08-19T15:41:08.000Z</time>
      </trkpt>
      <trkpt lat="48.6269" lon="7.09955">
        <ele>413.45</ele>
        <time>2020-08-19T15:41:12.000Z</time>
      </trkpt>
      <trkpt lat="48.62687" lon="7.09951">
        <ele>416.28</ele>
        <time>2020-08-19T15:41:16.000Z</time>
      </trkpt>
      <trkpt lat="48.62683" lon="7.09946">
        <ele>416.29</ele>
        <time>2020-08-19T15:41:24.000Z</time>
      </trkpt>
      <trkpt lat="48.62681" lon="7.09938">
        <ele>415.3</ele>
        <time>2020-08-19T15:41:27.000Z</time>
      </trkpt>
      <trkpt lat="48.6268" lon="7.0993">
        <ele>410.43</ele>
        <time>2020-08-19T15:41:29.000Z</time>
      </trkpt>
      <trkpt lat="48.62678" lon="7.09921">
        <ele>411.74</ele>
        <time>2020-08-19T15:41:31.000Z</time>
      </trkpt>
      <trkpt lat="48.62677" lon="7.09914">
        <ele>414.48</ele>
        <time>2020-08-19T15:41:33.000Z</time>
      </trkpt>
      <trkpt lat="48.62675" lon="7.09906">
        <ele>416.03</ele>
        <time>2020-08-19T15:41:35.000Z</time>
      </trkpt>
      <trkpt lat="48.62672" lon="7.09898">
        <ele>419.93</ele>
        <time>2020-08-19T15:41:37.000Z</time>
      </trkpt>
      <trkpt lat="48.62668" lon="7.09892">
        <ele>420.59</ele>
        <time>2020-08-19T15:41:39.000Z</time>
      </trkpt>
      <trkpt lat="48.62665" lon="7.09883">
        <ele>422.3</ele>
        <time>2020-08-19T15:41:41.000Z</time>
      </trkpt>
      <trkpt lat="48.62662" lon="7.09876">
        <ele>422.59</ele>
        <time>2020-08-19T15:41:43.000Z</time>
      </trkpt>
      <trkpt lat="48.62659" lon="7.09868">
        <ele>419.35</ele>
        <time>2020-08-19T15:41:46.000Z</time>
      </trkpt>
      <trkpt lat="48.62658" lon="7.09857">
        <ele>419.67</ele>
        <time>2020-08-19T15:41:49.000Z</time>
      </trkpt>
      <trkpt lat="48.62658" lon="7.09847">
        <ele>420.14</ele>
        <time>2020-08-19T15:41:51.000Z</time>
      </trkpt>
      <trkpt lat="48.62657" lon="7.09837">
        <ele>420.88</ele>
        <time>2020-08-19T15:41:53.000Z</time>
      </trkpt>
      <trkpt lat="48.62656" lon="7.09826">
        <ele>421.05</ele>
        <time>2020-08-19T15:41:55.000Z</time>
      </trkpt>
      <trkpt lat="48.62656" lon="7.09816">
        <ele>422.02</ele>
        <time>2020-08-19T15:41:57.000Z</time>
      </trkpt>
      <trkpt lat="48.62654" lon="7.09808">
        <ele>420.81</ele>
        <time>2020-08-19T15:41:59.000Z</time>
      </trkpt>
      <trkpt lat="48.62652" lon="7.09799">
        <ele>422.79</ele>
        <time>2020-08-19T15:42:01.000Z</time>
      </trkpt>
      <trkpt lat="48.62651" lon="7.0979">
        <ele>424.59</ele>
        <time>2020-08-19T15:42:04.000Z</time>
      </trkpt>
      <trkpt lat="48.6265" lon="7.09782">
        <ele>425.74</ele>
        <time>2020-08-19T15:42:06.000Z</time>
      </trkpt>
      <trkpt lat="48.62649" lon="7.09774">
        <ele>425.76</ele>
        <time>2020-08-19T15:42:08.000Z</time>
      </trkpt>
      <trkpt lat="48.62647" lon="7.09767">
        <ele>428.34</ele>
        <time>2020-08-19T15:42:10.000Z</time>
      </trkpt>
      <trkpt lat="48.62614" lon="7.09658">
        <ele>425.45</ele>
        <time>2020-08-19T15:42:34.000Z</time>
      </trkpt>
      <trkpt lat="48.62613" lon="7.09649">
        <ele>421.78</ele>
        <time>2020-08-19T15:42:36.000Z</time>
      </trkpt>
      <trkpt lat="48.62615" lon="7.09643">
        <ele>438.34</ele>
        <time>2020-08-19T15:42:45.000Z</time>
      </trkpt>
      <trkpt lat="48.62616" lon="7.09633">
        <ele>426.71</ele>
        <time>2020-08-19T15:43:06.000Z</time>
      </trkpt>
      <trkpt lat="48.62616" lon="7.09626">
        <ele>425.11</ele>
        <time>2020-08-19T15:43:09.000Z</time>
      </trkpt>
      <trkpt lat="48.62614" lon="7.09618">
        <ele>424.87</ele>
        <time>2020-08-19T15:43:13.000Z</time>
      </trkpt>
      <trkpt lat="48.62612" lon="7.0961">
        <ele>425</ele>
        <time>2020-08-19T15:43:16.000Z</time>
      </trkpt>
      <trkpt lat="48.62611" lon="7.09603">
        <ele>423.86</ele>
        <time>2020-08-19T15:43:20.000Z</time>
      </trkpt>
      <trkpt lat="48.62611" lon="7.09595">
        <ele>426.31</ele>
        <time>2020-08-19T15:43:26.000Z</time>
      </trkpt>
      <trkpt lat="48.6261" lon="7.09588">
        <ele>428.58</ele>
        <time>2020-08-19T15:43:29.000Z</time>
      </trkpt>
      <trkpt lat="48.62608" lon="7.0958">
        <ele>455.52</ele>
        <time>2020-08-19T15:43:34.000Z</time>
      </trkpt>
      <trkpt lat="48.62609" lon="7.09572">
        <ele>435.19</ele>
        <time>2020-08-19T15:43:57.000Z</time>
      </trkpt>
      <trkpt lat="48.6261" lon="7.09565">
        <ele>436.05</ele>
        <time>2020-08-19T15:44:00.000Z</time>
      </trkpt>
      <trkpt lat="48.62611" lon="7.09557">
        <ele>436.16</ele>
        <time>2020-08-19T15:44:04.000Z</time>
      </trkpt>
      <trkpt lat="48.62614" lon="7.09551">
        <ele>437.77</ele>
        <time>2020-08-19T15:44:10.000Z</time>
      </trkpt>
      <trkpt lat="48.62619" lon="7.09546">
        <ele>438.19</ele>
        <time>2020-08-19T15:44:15.000Z</time>
      </trkpt>
      <trkpt lat="48.62621" lon="7.0954">
        <ele>442.41</ele>
        <time>2020-08-19T15:44:20.000Z</time>
      </trkpt>
      <trkpt lat="48.62617" lon="7.0954">
        <ele>444.8</ele>
        <time>2020-08-19T15:44:43.000Z</time>
      </trkpt>
      <trkpt lat="48.62616" lon="7.09546">
        <ele>442.2</ele>
        <time>2020-08-19T15:44:50.000Z</time>
      </trkpt>
      <trkpt lat="48.62612" lon="7.09553">
        <ele>441.4</ele>
        <time>2020-08-19T15:44:53.000Z</time>
      </trkpt>
      <trkpt lat="48.6261" lon="7.09559">
        <ele>440.4</ele>
        <time>2020-08-19T15:44:56.000Z</time>
      </trkpt>
      <trkpt lat="48.62609" lon="7.09566">
        <ele>439.03</ele>
        <time>2020-08-19T15:44:59.000Z</time>
      </trkpt>
      <trkpt lat="48.62604" lon="7.09562">
        <ele>440.89</ele>
        <time>2020-08-19T15:45:02.000Z</time>
      </trkpt>
      <trkpt lat="48.62599" lon="7.09559">
        <ele>440.82</ele>
        <time>2020-08-19T15:45:05.000Z</time>
      </trkpt>
      <trkpt lat="48.62595" lon="7.09554">
        <ele>440.07</ele>
        <time>2020-08-19T15:45:13.000Z</time>
      </trkpt>
      <trkpt lat="48.62592" lon="7.09545">
        <ele>438.91</ele>
        <time>2020-08-19T15:45:20.000Z</time>
      </trkpt>
      <trkpt lat="48.62591" lon="7.09538">
        <ele>439.32</ele>
        <time>2020-08-19T15:45:22.000Z</time>
      </trkpt>
      <trkpt lat="48.62591" lon="7.09529">
        <ele>436.3</ele>
        <time>2020-08-19T15:45:25.000Z</time>
      </trkpt>
      <trkpt lat="48.62589" lon="7.09522">
        <ele>436.41</ele>
        <time>2020-08-19T15:45:29.000Z</time>
      </trkpt>
      <trkpt lat="48.62587" lon="7.09513">
        <ele>438.1</ele>
        <time>2020-08-19T15:45:37.000Z</time>
      </trkpt>
      <trkpt lat="48.62585" lon="7.09505">
        <ele>438.6</ele>
        <time>2020-08-19T15:45:40.000Z</time>
      </trkpt>
      <trkpt lat="48.62577" lon="7.09488">
        <ele>437.79</ele>
        <time>2020-08-19T15:45:45.000Z</time>
      </trkpt>
      <trkpt lat="48.62576" lon="7.09481">
        <ele>439.62</ele>
        <time>2020-08-19T15:45:47.000Z</time>
      </trkpt>
      <trkpt lat="48.62574" lon="7.09474">
        <ele>440.92</ele>
        <time>2020-08-19T15:45:49.000Z</time>
      </trkpt>
      <trkpt lat="48.62573" lon="7.09466">
        <ele>440.92</ele>
        <time>2020-08-19T15:45:51.000Z</time>
      </trkpt>
      <trkpt lat="48.62564" lon="7.09446">
        <ele>440.02</ele>
        <time>2020-08-19T15:45:57.000Z</time>
      </trkpt>
      <trkpt lat="48.62561" lon="7.09439">
        <ele>441.09</ele>
        <time>2020-08-19T15:45:59.000Z</time>
      </trkpt>
      <trkpt lat="48.62558" lon="7.09429">
        <ele>439.91</ele>
        <time>2020-08-19T15:46:02.000Z</time>
      </trkpt>
      <trkpt lat="48.62555" lon="7.09422">
        <ele>438.9</ele>
        <time>2020-08-19T15:46:04.000Z</time>
      </trkpt>
      <trkpt lat="48.62554" lon="7.09413">
        <ele>441.6</ele>
        <time>2020-08-19T15:46:06.000Z</time>
      </trkpt>
      <trkpt lat="48.62549" lon="7.09407">
        <ele>444.43</ele>
        <time>2020-08-19T15:46:08.000Z</time>
      </trkpt>
      <trkpt lat="48.62546" lon="7.09401">
        <ele>445.21</ele>
        <time>2020-08-19T15:46:10.000Z</time>
      </trkpt>
      <trkpt lat="48.62544" lon="7.09392">
        <ele>444.46</ele>
        <time>2020-08-19T15:46:12.000Z</time>
      </trkpt>
      <trkpt lat="48.62543" lon="7.09384">
        <ele>441.1</ele>
        <time>2020-08-19T15:46:15.000Z</time>
      </trkpt>
      <trkpt lat="48.62541" lon="7.09375">
        <ele>439.79</ele>
        <time>2020-08-19T15:46:18.000Z</time>
      </trkpt>
      <trkpt lat="48.6254" lon="7.09368">
        <ele>439.97</ele>
        <time>2020-08-19T15:46:21.000Z</time>
      </trkpt>
      <trkpt lat="48.62522" lon="7.09335">
        <ele>440.66</ele>
        <time>2020-08-19T15:46:29.000Z</time>
      </trkpt>
      <trkpt lat="48.62519" lon="7.0932">
        <ele>439.73</ele>
        <time>2020-08-19T15:46:32.000Z</time>
      </trkpt>
      <trkpt lat="48.62515" lon="7.09312">
        <ele>443.19</ele>
        <time>2020-08-19T15:46:34.000Z</time>
      </trkpt>
      <trkpt lat="48.62511" lon="7.09304">
        <ele>445.35</ele>
        <time>2020-08-19T15:46:37.000Z</time>
      </trkpt>
      <trkpt lat="48.62506" lon="7.09302">
        <ele>446.44</ele>
        <time>2020-08-19T15:46:42.000Z</time>
      </trkpt>
      <trkpt lat="48.625" lon="7.09303">
        <ele>446.03</ele>
        <time>2020-08-19T15:46:45.000Z</time>
      </trkpt>
      <trkpt lat="48.62495" lon="7.09303">
        <ele>447.52</ele>
        <time>2020-08-19T15:46:48.000Z</time>
      </trkpt>
      <trkpt lat="48.62491" lon="7.093">
        <ele>444.84</ele>
        <time>2020-08-19T15:46:59.000Z</time>
      </trkpt>
      <trkpt lat="48.62485" lon="7.09299">
        <ele>444.1</ele>
        <time>2020-08-19T15:47:16.000Z</time>
      </trkpt>
      <trkpt lat="48.62479" lon="7.09303">
        <ele>443.68</ele>
        <time>2020-08-19T15:47:19.000Z</time>
      </trkpt>
      <trkpt lat="48.62474" lon="7.09305">
        <ele>445.87</ele>
        <time>2020-08-19T15:47:21.000Z</time>
      </trkpt>
      <trkpt lat="48.62468" lon="7.09309">
        <ele>446.84</ele>
        <time>2020-08-19T15:47:23.000Z</time>
      </trkpt>
      <trkpt lat="48.62463" lon="7.09314">
        <ele>447.83</ele>
        <time>2020-08-19T15:47:25.000Z</time>
      </trkpt>
      <trkpt lat="48.62459" lon="7.09318">
        <ele>449.52</ele>
        <time>2020-08-19T15:47:27.000Z</time>
      </trkpt>
      <trkpt lat="48.62453" lon="7.09323">
        <ele>450.55</ele>
        <time>2020-08-19T15:47:30.000Z</time>
      </trkpt>
      <trkpt lat="48.62448" lon="7.09324">
        <ele>451.02</ele>
        <time>2020-08-19T15:47:32.000Z</time>
      </trkpt>
      <trkpt lat="48.62444" lon="7.09332">
        <ele>448.29</ele>
        <time>2020-08-19T15:47:35.000Z</time>
      </trkpt>
      <trkpt lat="48.62441" lon="7.09338">
        <ele>453.03</ele>
        <time>2020-08-19T15:47:37.000Z</time>
      </trkpt>
      <trkpt lat="48.62437" lon="7.09341">
        <ele>454.79</ele>
        <time>2020-08-19T15:47:39.000Z</time>
      </trkpt>
      <trkpt lat="48.62431" lon="7.09345">
        <ele>454.54</ele>
        <time>2020-08-19T15:47:41.000Z</time>
      </trkpt>
      <trkpt lat="48.62424" lon="7.09347">
        <ele>453.82</ele>
        <time>2020-08-19T15:47:45.000Z</time>
      </trkpt>
      <trkpt lat="48.62418" lon="7.09351">
        <ele>453.65</ele>
        <time>2020-08-19T15:47:47.000Z</time>
      </trkpt>
      <trkpt lat="48.62414" lon="7.09357">
        <ele>453.41</ele>
        <time>2020-08-19T15:47:50.000Z</time>
      </trkpt>
      <trkpt lat="48.6241" lon="7.09363">
        <ele>454.35</ele>
        <time>2020-08-19T15:47:52.000Z</time>
      </trkpt>
      <trkpt lat="48.62406" lon="7.0937">
        <ele>453.5</ele>
        <time>2020-08-19T15:47:54.000Z</time>
      </trkpt>
      <trkpt lat="48.62403" lon="7.09374">
        <ele>454.13</ele>
        <time>2020-08-19T15:47:56.000Z</time>
      </trkpt>
      <trkpt lat="48.62368" lon="7.0942">
        <ele>452.51</ele>
        <time>2020-08-19T15:48:07.000Z</time>
      </trkpt>
      <trkpt lat="48.62355" lon="7.09445">
        <ele>456.31</ele>
        <time>2020-08-19T15:48:12.000Z</time>
      </trkpt>
      <trkpt lat="48.62351" lon="7.09455">
        <ele>456.04</ele>
        <time>2020-08-19T15:48:14.000Z</time>
      </trkpt>
      <trkpt lat="48.62348" lon="7.0946">
        <ele>456.99</ele>
        <time>2020-08-19T15:48:16.000Z</time>
      </trkpt>
      <trkpt lat="48.62347" lon="7.09467">
        <ele>457.6</ele>
        <time>2020-08-19T15:48:18.000Z</time>
      </trkpt>
      <trkpt lat="48.62343" lon="7.09477">
        <ele>453.77</ele>
        <time>2020-08-19T15:48:20.000Z</time>
      </trkpt>
      <trkpt lat="48.62337" lon="7.09497">
        <ele>456.87</ele>
        <time>2020-08-19T15:48:24.000Z</time>
      </trkpt>
      <trkpt lat="48.62334" lon="7.09507">
        <ele>460.81</ele>
        <time>2020-08-19T15:48:26.000Z</time>
      </trkpt>
      <trkpt lat="48.62331" lon="7.09518">
        <ele>460.65</ele>
        <time>2020-08-19T15:48:28.000Z</time>
      </trkpt>
      <trkpt lat="48.62328" lon="7.09527">
        <ele>460.83</ele>
        <time>2020-08-19T15:48:30.000Z</time>
      </trkpt>
      <trkpt lat="48.62327" lon="7.09537">
        <ele>461.73</ele>
        <time>2020-08-19T15:48:32.000Z</time>
      </trkpt>
      <trkpt lat="48.62323" lon="7.09543">
        <ele>459.8</ele>
        <time>2020-08-19T15:48:34.000Z</time>
      </trkpt>
      <trkpt lat="48.6232" lon="7.09552">
        <ele>458.04</ele>
        <time>2020-08-19T15:48:37.000Z</time>
      </trkpt>
      <trkpt lat="48.62318" lon="7.09559">
        <ele>461.22</ele>
        <time>2020-08-19T15:48:39.000Z</time>
      </trkpt>
      <trkpt lat="48.62315" lon="7.09565">
        <ele>459.86</ele>
        <time>2020-08-19T15:48:42.000Z</time>
      </trkpt>
      <trkpt lat="48.6231" lon="7.09565">
        <ele>460.97</ele>
        <time>2020-08-19T15:48:45.000Z</time>
      </trkpt>
      <trkpt lat="48.62303" lon="7.09565">
        <ele>454.73</ele>
        <time>2020-08-19T15:48:48.000Z</time>
      </trkpt>
      <trkpt lat="48.62298" lon="7.09567">
        <ele>453.15</ele>
        <time>2020-08-19T15:48:50.000Z</time>
      </trkpt>
      <trkpt lat="48.62293" lon="7.09565">
        <ele>454.58</ele>
        <time>2020-08-19T15:48:52.000Z</time>
      </trkpt>
      <trkpt lat="48.62289" lon="7.09562">
        <ele>454</ele>
        <time>2020-08-19T15:48:54.000Z</time>
      </trkpt>
      <trkpt lat="48.62283" lon="7.09559">
        <ele>453.9</ele>
        <time>2020-08-19T15:48:56.000Z</time>
      </trkpt>
      <trkpt lat="48.62279" lon="7.09554">
        <ele>452.85</ele>
        <time>2020-08-19T15:48:58.000Z</time>
      </trkpt>
      <trkpt lat="48.62274" lon="7.09547">
        <ele>451.69</ele>
        <time>2020-08-19T15:49:00.000Z</time>
      </trkpt>
      <trkpt lat="48.6227" lon="7.09542">
        <ele>451.1</ele>
        <time>2020-08-19T15:49:02.000Z</time>
      </trkpt>
      <trkpt lat="48.62267" lon="7.09536">
        <ele>450.76</ele>
        <time>2020-08-19T15:49:04.000Z</time>
      </trkpt>
      <trkpt lat="48.62264" lon="7.09528">
        <ele>452.47</ele>
        <time>2020-08-19T15:49:07.000Z</time>
      </trkpt>
      <trkpt lat="48.62262" lon="7.09521">
        <ele>452.98</ele>
        <time>2020-08-19T15:49:10.000Z</time>
      </trkpt>
      <trkpt lat="48.62259" lon="7.09514">
        <ele>454.81</ele>
        <time>2020-08-19T15:49:12.000Z</time>
      </trkpt>
      <trkpt lat="48.62257" lon="7.09507">
        <ele>456.11</ele>
        <time>2020-08-19T15:49:14.000Z</time>
      </trkpt>
      <trkpt lat="48.62255" lon="7.09498">
        <ele>453.83</ele>
        <time>2020-08-19T15:49:17.000Z</time>
      </trkpt>
      <trkpt lat="48.62252" lon="7.09492">
        <ele>454.26</ele>
        <time>2020-08-19T15:49:19.000Z</time>
      </trkpt>
      <trkpt lat="48.62249" lon="7.09484">
        <ele>454.31</ele>
        <time>2020-08-19T15:49:22.000Z</time>
      </trkpt>
      <trkpt lat="48.6225" lon="7.09477">
        <ele>451.69</ele>
        <time>2020-08-19T15:49:24.000Z</time>
      </trkpt>
      <trkpt lat="48.62251" lon="7.09469">
        <ele>452.62</ele>
        <time>2020-08-19T15:49:26.000Z</time>
      </trkpt>
      <trkpt lat="48.62251" lon="7.09462">
        <ele>453.91</ele>
        <time>2020-08-19T15:49:28.000Z</time>
      </trkpt>
      <trkpt lat="48.62249" lon="7.09456">
        <ele>453.91</ele>
        <time>2020-08-19T15:49:30.000Z</time>
      </trkpt>
      <trkpt lat="48.62245" lon="7.09448">
        <ele>455.22</ele>
        <time>2020-08-19T15:49:33.000Z</time>
      </trkpt>
      <trkpt lat="48.62243" lon="7.0944">
        <ele>456.25</ele>
        <time>2020-08-19T15:49:35.000Z</time>
      </trkpt>
      <trkpt lat="48.62241" lon="7.09432">
        <ele>457.86</ele>
        <time>2020-08-19T15:49:38.000Z</time>
      </trkpt>
      <trkpt lat="48.62242" lon="7.09425">
        <ele>457.21</ele>
        <time>2020-08-19T15:49:40.000Z</time>
      </trkpt>
      <trkpt lat="48.62246" lon="7.09418">
        <ele>455.89</ele>
        <time>2020-08-19T15:49:42.000Z</time>
      </trkpt>
      <trkpt lat="48.62248" lon="7.09409">
        <ele>456.59</ele>
        <time>2020-08-19T15:49:45.000Z</time>
      </trkpt>
      <trkpt lat="48.62248" lon="7.09399">
        <ele>455.18</ele>
        <time>2020-08-19T15:49:48.000Z</time>
      </trkpt>
      <trkpt lat="48.62249" lon="7.09392">
        <ele>456.16</ele>
        <time>2020-08-19T15:49:50.000Z</time>
      </trkpt>
      <trkpt lat="48.6225" lon="7.09384">
        <ele>504.51</ele>
        <time>2020-08-19T15:49:53.000Z</time>
      </trkpt>
      <trkpt lat="48.6225" lon="7.09372">
        <ele>482.03</ele>
        <time>2020-08-19T15:49:56.000Z</time>
      </trkpt>
      <trkpt lat="48.62249" lon="7.09363">
        <ele>474.54</ele>
        <time>2020-08-19T15:49:58.000Z</time>
      </trkpt>
      <trkpt lat="48.62249" lon="7.09352">
        <ele>469.91</ele>
        <time>2020-08-19T15:50:00.000Z</time>
      </trkpt>
      <trkpt lat="48.62249" lon="7.09342">
        <ele>467.2</ele>
        <time>2020-08-19T15:50:02.000Z</time>
      </trkpt>
      <trkpt lat="48.62247" lon="7.09333">
        <ele>467.77</ele>
        <time>2020-08-19T15:50:04.000Z</time>
      </trkpt>
      <trkpt lat="48.62244" lon="7.09327">
        <ele>467.93</ele>
        <time>2020-08-19T15:50:06.000Z</time>
      </trkpt>
      <trkpt lat="48.62242" lon="7.09319">
        <ele>467.82</ele>
        <time>2020-08-19T15:50:08.000Z</time>
      </trkpt>
      <trkpt lat="48.62243" lon="7.09311">
        <ele>466.9</ele>
        <time>2020-08-19T15:50:10.000Z</time>
      </trkpt>
      <trkpt lat="48.62244" lon="7.09302">
        <ele>465.5</ele>
        <time>2020-08-19T15:50:12.000Z</time>
      </trkpt>
      <trkpt lat="48.62244" lon="7.09295">
        <ele>465.77</ele>
        <time>2020-08-19T15:50:14.000Z</time>
      </trkpt>
      <trkpt lat="48.62245" lon="7.09285">
        <ele>464.25</ele>
        <time>2020-08-19T15:50:16.000Z</time>
      </trkpt>
      <trkpt lat="48.62245" lon="7.09275">
        <ele>467.6</ele>
        <time>2020-08-19T15:50:18.000Z</time>
      </trkpt>
      <trkpt lat="48.62244" lon="7.09265">
        <ele>468.74</ele>
        <time>2020-08-19T15:50:20.000Z</time>
      </trkpt>
      <trkpt lat="48.62243" lon="7.09257">
        <ele>468.35</ele>
        <time>2020-08-19T15:50:22.000Z</time>
      </trkpt>
      <trkpt lat="48.62242" lon="7.09249">
        <ele>467.99</ele>
        <time>2020-08-19T15:50:24.000Z</time>
      </trkpt>
      <trkpt lat="48.62239" lon="7.09243">
        <ele>470.49</ele>
        <time>2020-08-19T15:50:26.000Z</time>
      </trkpt>
      <trkpt lat="48.62235" lon="7.09233">
        <ele>471.19</ele>
        <time>2020-08-19T15:50:28.000Z</time>
      </trkpt>
      <trkpt lat="48.62232" lon="7.09223">
        <ele>470.9</ele>
        <time>2020-08-19T15:50:30.000Z</time>
      </trkpt>
      <trkpt lat="48.62231" lon="7.09212">
        <ele>470.8</ele>
        <time>2020-08-19T15:50:32.000Z</time>
      </trkpt>
      <trkpt lat="48.62229" lon="7.09204">
        <ele>471.64</ele>
        <time>2020-08-19T15:50:34.000Z</time>
      </trkpt>
      <trkpt lat="48.62227" lon="7.09194">
        <ele>471.09</ele>
        <time>2020-08-19T15:50:36.000Z</time>
      </trkpt>
      <trkpt lat="48.62225" lon="7.09184">
        <ele>470.66</ele>
        <time>2020-08-19T15:50:38.000Z</time>
      </trkpt>
      <trkpt lat="48.62222" lon="7.09178">
        <ele>470.52</ele>
        <time>2020-08-19T15:50:40.000Z</time>
      </trkpt>
      <trkpt lat="48.62219" lon="7.09171">
        <ele>471.16</ele>
        <time>2020-08-19T15:50:42.000Z</time>
      </trkpt>
      <trkpt lat="48.62214" lon="7.09163">
        <ele>471.99</ele>
        <time>2020-08-19T15:50:44.000Z</time>
      </trkpt>
      <trkpt lat="48.62209" lon="7.09157">
        <ele>472.75</ele>
        <time>2020-08-19T15:50:46.000Z</time>
      </trkpt>
      <trkpt lat="48.62205" lon="7.09152">
        <ele>470.28</ele>
        <time>2020-08-19T15:50:48.000Z</time>
      </trkpt>
      <trkpt lat="48.62191" lon="7.09129">
        <ele>470.28</ele>
        <time>2020-08-19T15:50:54.000Z</time>
      </trkpt>
      <trkpt lat="48.62187" lon="7.09123">
        <ele>471.03</ele>
        <time>2020-08-19T15:50:56.000Z</time>
      </trkpt>
      <trkpt lat="48.62184" lon="7.09115">
        <ele>470.79</ele>
        <time>2020-08-19T15:50:58.000Z</time>
      </trkpt>
      <trkpt lat="48.6218" lon="7.09105">
        <ele>472.41</ele>
        <time>2020-08-19T15:51:01.000Z</time>
      </trkpt>
      <trkpt lat="48.62178" lon="7.09097">
        <ele>471.88</ele>
        <time>2020-08-19T15:51:03.000Z</time>
      </trkpt>
      <trkpt lat="48.62176" lon="7.09091">
        <ele>469.53</ele>
        <time>2020-08-19T15:51:05.000Z</time>
      </trkpt>
      <trkpt lat="48.62171" lon="7.09084">
        <ele>470.95</ele>
        <time>2020-08-19T15:51:07.000Z</time>
      </trkpt>
      <trkpt lat="48.62167" lon="7.09079">
        <ele>502.88</ele>
        <time>2020-08-19T15:51:09.000Z</time>
      </trkpt>
      <trkpt lat="48.6216" lon="7.09074">
        <ele>489.34</ele>
        <time>2020-08-19T15:51:11.000Z</time>
      </trkpt>
      <trkpt lat="48.62154" lon="7.09068">
        <ele>481.82</ele>
        <time>2020-08-19T15:51:13.000Z</time>
      </trkpt>
      <trkpt lat="48.6215" lon="7.09064">
        <ele>481.19</ele>
        <time>2020-08-19T15:51:14.000Z</time>
      </trkpt>
      <trkpt lat="48.62144" lon="7.09057">
        <ele>476.07</ele>
        <time>2020-08-19T15:51:16.000Z</time>
      </trkpt>
      <trkpt lat="48.6214" lon="7.09052">
        <ele>474.34</ele>
        <time>2020-08-19T15:51:17.000Z</time>
      </trkpt>
      <trkpt lat="48.62137" lon="7.09047">
        <ele>472.81</ele>
        <time>2020-08-19T15:51:18.000Z</time>
      </trkpt>
      <trkpt lat="48.62133" lon="7.09042">
        <ele>472.52</ele>
        <time>2020-08-19T15:51:19.000Z</time>
      </trkpt>
      <trkpt lat="48.62129" lon="7.09038">
        <ele>472.22</ele>
        <time>2020-08-19T15:51:20.000Z</time>
      </trkpt>
      <trkpt lat="48.62123" lon="7.0903">
        <ele>473.81</ele>
        <time>2020-08-19T15:51:22.000Z</time>
      </trkpt>
      <trkpt lat="48.62119" lon="7.09023">
        <ele>474.97</ele>
        <time>2020-08-19T15:51:24.000Z</time>
      </trkpt>
      <trkpt lat="48.62113" lon="7.09015">
        <ele>474.84</ele>
        <time>2020-08-19T15:51:26.000Z</time>
      </trkpt>
      <trkpt lat="48.62107" lon="7.0901">
        <ele>475.57</ele>
        <time>2020-08-19T15:51:28.000Z</time>
      </trkpt>
      <trkpt lat="48.62102" lon="7.09004">
        <ele>475.4</ele>
        <time>2020-08-19T15:51:30.000Z</time>
      </trkpt>
      <trkpt lat="48.62099" lon="7.08996">
        <ele>475.86</ele>
        <time>2020-08-19T15:51:32.000Z</time>
      </trkpt>
      <trkpt lat="48.62096" lon="7.08987">
        <ele>477.49</ele>
        <time>2020-08-19T15:51:34.000Z</time>
      </trkpt>
      <trkpt lat="48.62095" lon="7.08978">
        <ele>478.8</ele>
        <time>2020-08-19T15:51:36.000Z</time>
      </trkpt>
      <trkpt lat="48.62094" lon="7.08969">
        <ele>477.6</ele>
        <time>2020-08-19T15:51:38.000Z</time>
      </trkpt>
      <trkpt lat="48.62094" lon="7.08962">
        <ele>479.07</ele>
        <time>2020-08-19T15:51:40.000Z</time>
      </trkpt>
      <trkpt lat="48.62092" lon="7.08954">
        <ele>476.68</ele>
        <time>2020-08-19T15:51:43.000Z</time>
      </trkpt>
      <trkpt lat="48.62085" lon="7.0895">
        <ele>484.33</ele>
        <time>2020-08-19T15:51:59.000Z</time>
      </trkpt>
      <trkpt lat="48.62081" lon="7.08945">
        <ele>480.77</ele>
        <time>2020-08-19T15:52:01.000Z</time>
      </trkpt>
      <trkpt lat="48.62075" lon="7.08941">
        <ele>480.43</ele>
        <time>2020-08-19T15:52:03.000Z</time>
      </trkpt>
      <trkpt lat="48.62068" lon="7.08935">
        <ele>478.6</ele>
        <time>2020-08-19T15:52:05.000Z</time>
      </trkpt>
      <trkpt lat="48.6206" lon="7.08926">
        <ele>477.92</ele>
        <time>2020-08-19T15:52:07.000Z</time>
      </trkpt>
      <trkpt lat="48.62054" lon="7.08923">
        <ele>504.97</ele>
        <time>2020-08-19T15:52:08.000Z</time>
      </trkpt>
      <trkpt lat="48.62037" lon="7.08907">
        <ele>486.77</ele>
        <time>2020-08-19T15:52:11.000Z</time>
      </trkpt>
      <trkpt lat="48.62031" lon="7.08903">
        <ele>485.55</ele>
        <time>2020-08-19T15:52:12.000Z</time>
      </trkpt>
      <trkpt lat="48.62006" lon="7.08874">
        <ele>479.22</ele>
        <time>2020-08-19T15:52:17.000Z</time>
      </trkpt>
      <trkpt lat="48.62" lon="7.08869">
        <ele>478.63</ele>
        <time>2020-08-19T15:52:18.000Z</time>
      </trkpt>
      <trkpt lat="48.61994" lon="7.08866">
        <ele>478.61</ele>
        <time>2020-08-19T15:52:19.000Z</time>
      </trkpt>
      <trkpt lat="48.61989" lon="7.08864">
        <ele>478.53</ele>
        <time>2020-08-19T15:52:20.000Z</time>
      </trkpt>
      <trkpt lat="48.61983" lon="7.08863">
        <ele>477.22</ele>
        <time>2020-08-19T15:52:21.000Z</time>
      </trkpt>
      <trkpt lat="48.61978" lon="7.08863">
        <ele>476.95</ele>
        <time>2020-08-19T15:52:22.000Z</time>
      </trkpt>
      <trkpt lat="48.61974" lon="7.08864">
        <ele>476.58</ele>
        <time>2020-08-19T15:52:23.000Z</time>
      </trkpt>
      <trkpt lat="48.61969" lon="7.08864">
        <ele>476.66</ele>
        <time>2020-08-19T15:52:24.000Z</time>
      </trkpt>
      <trkpt lat="48.61963" lon="7.08866">
        <ele>476.83</ele>
        <time>2020-08-19T15:52:26.000Z</time>
      </trkpt>
      <trkpt lat="48.61959" lon="7.08864">
        <ele>473.24</ele>
        <time>2020-08-19T15:52:27.000Z</time>
      </trkpt>
      <trkpt lat="48.61953" lon="7.08866">
        <ele>474.34</ele>
        <time>2020-08-19T15:52:28.000Z</time>
      </trkpt>
      <trkpt lat="48.61948" lon="7.08869">
        <ele>474.75</ele>
        <time>2020-08-19T15:52:29.000Z</time>
      </trkpt>
      <trkpt lat="48.61943" lon="7.08868">
        <ele>474.27</ele>
        <time>2020-08-19T15:52:30.000Z</time>
      </trkpt>
      <trkpt lat="48.61927" lon="7.08854">
        <ele>473.17</ele>
        <time>2020-08-19T15:52:33.000Z</time>
      </trkpt>
      <trkpt lat="48.61921" lon="7.08849">
        <ele>475.1</ele>
        <time>2020-08-19T15:52:35.000Z</time>
      </trkpt>
      <trkpt lat="48.61915" lon="7.08854">
        <ele>474.75</ele>
        <time>2020-08-19T15:52:37.000Z</time>
      </trkpt>
      <trkpt lat="48.61913" lon="7.08847">
        <ele>476.07</ele>
        <time>2020-08-19T15:53:16.000Z</time>
      </trkpt>
      <trkpt lat="48.61914" lon="7.08839">
        <ele>474.59</ele>
        <time>2020-08-19T15:53:20.000Z</time>
      </trkpt>
      <trkpt lat="48.61915" lon="7.08832">
        <ele>478.85</ele>
        <time>2020-08-19T15:53:25.000Z</time>
      </trkpt>
      <trkpt lat="48.61912" lon="7.08826">
        <ele>477.1</ele>
        <time>2020-08-19T15:53:27.000Z</time>
      </trkpt>
      <trkpt lat="48.61908" lon="7.0882">
        <ele>476.68</ele>
        <time>2020-08-19T15:53:29.000Z</time>
      </trkpt>
      <trkpt lat="48.61904" lon="7.08816">
        <ele>475.98</ele>
        <time>2020-08-19T15:53:40.000Z</time>
      </trkpt>
      <trkpt lat="48.61899" lon="7.08808">
        <ele>476.46</ele>
        <time>2020-08-19T15:53:43.000Z</time>
      </trkpt>
      <trkpt lat="48.61895" lon="7.08802">
        <ele>477.64</ele>
        <time>2020-08-19T15:53:45.000Z</time>
      </trkpt>
      <trkpt lat="48.61887" lon="7.08798">
        <ele>476.76</ele>
        <time>2020-08-19T15:53:47.000Z</time>
      </trkpt>
      <trkpt lat="48.61882" lon="7.08794">
        <ele>477.12</ele>
        <time>2020-08-19T15:53:49.000Z</time>
      </trkpt>
      <trkpt lat="48.61877" lon="7.08789">
        <ele>473.9</ele>
        <time>2020-08-19T15:53:51.000Z</time>
      </trkpt>
      <trkpt lat="48.61871" lon="7.08786">
        <ele>473.55</ele>
        <time>2020-08-19T15:53:53.000Z</time>
      </trkpt>
      <trkpt lat="48.61864" lon="7.08781">
        <ele>474.64</ele>
        <time>2020-08-19T15:53:55.000Z</time>
      </trkpt>
      <trkpt lat="48.61857" lon="7.08773">
        <ele>475.75</ele>
        <time>2020-08-19T15:53:57.000Z</time>
      </trkpt>
      <trkpt lat="48.61853" lon="7.08765">
        <ele>474.96</ele>
        <time>2020-08-19T15:53:59.000Z</time>
      </trkpt>
      <trkpt lat="48.61849" lon="7.08757">
        <ele>474.42</ele>
        <time>2020-08-19T15:54:01.000Z</time>
      </trkpt>
      <trkpt lat="48.61845" lon="7.08753">
        <ele>476.37</ele>
        <time>2020-08-19T15:54:06.000Z</time>
      </trkpt>
      <trkpt lat="48.61832" lon="7.08731">
        <ele>478.47</ele>
        <time>2020-08-19T15:54:17.000Z</time>
      </trkpt>
      <trkpt lat="48.61828" lon="7.08721">
        <ele>478.97</ele>
        <time>2020-08-19T15:54:19.000Z</time>
      </trkpt>
      <trkpt lat="48.61824" lon="7.08714">
        <ele>477.99</ele>
        <time>2020-08-19T15:54:20.000Z</time>
      </trkpt>
      <trkpt lat="48.6182" lon="7.08708">
        <ele>477.06</ele>
        <time>2020-08-19T15:54:21.000Z</time>
      </trkpt>
      <trkpt lat="48.61815" lon="7.08701">
        <ele>474.91</ele>
        <time>2020-08-19T15:54:22.000Z</time>
      </trkpt>
      <trkpt lat="48.61811" lon="7.08694">
        <ele>474.46</ele>
        <time>2020-08-19T15:54:23.000Z</time>
      </trkpt>
      <trkpt lat="48.61806" lon="7.08687">
        <ele>472.93</ele>
        <time>2020-08-19T15:54:24.000Z</time>
      </trkpt>
      <trkpt lat="48.61802" lon="7.08678">
        <ele>473.8</ele>
        <time>2020-08-19T15:54:25.000Z</time>
      </trkpt>
      <trkpt lat="48.61799" lon="7.08671">
        <ele>472.45</ele>
        <time>2020-08-19T15:54:26.000Z</time>
      </trkpt>
      <trkpt lat="48.61796" lon="7.08663">
        <ele>472.05</ele>
        <time>2020-08-19T15:54:27.000Z</time>
      </trkpt>
      <trkpt lat="48.6179" lon="7.08652">
        <ele>470.82</ele>
        <time>2020-08-19T15:54:29.000Z</time>
      </trkpt>
      <trkpt lat="48.61786" lon="7.08642">
        <ele>469.63</ele>
        <time>2020-08-19T15:54:30.000Z</time>
      </trkpt>
      <trkpt lat="48.6178" lon="7.08631">
        <ele>470.86</ele>
        <time>2020-08-19T15:54:31.000Z</time>
      </trkpt>
      <trkpt lat="48.61776" lon="7.08622">
        <ele>468.83</ele>
        <time>2020-08-19T15:54:32.000Z</time>
      </trkpt>
      <trkpt lat="48.6177" lon="7.08612">
        <ele>468.48</ele>
        <time>2020-08-19T15:54:33.000Z</time>
      </trkpt>
      <trkpt lat="48.61765" lon="7.08603">
        <ele>469.35</ele>
        <time>2020-08-19T15:54:34.000Z</time>
      </trkpt>
      <trkpt lat="48.61761" lon="7.08593">
        <ele>467.05</ele>
        <time>2020-08-19T15:54:35.000Z</time>
      </trkpt>
      <trkpt lat="48.61758" lon="7.08583">
        <ele>466.87</ele>
        <time>2020-08-19T15:54:36.000Z</time>
      </trkpt>
      <trkpt lat="48.61754" lon="7.0857">
        <ele>466.37</ele>
        <time>2020-08-19T15:54:37.000Z</time>
      </trkpt>
      <trkpt lat="48.61749" lon="7.0856">
        <ele>465.45</ele>
        <time>2020-08-19T15:54:38.000Z</time>
      </trkpt>
      <trkpt lat="48.61744" lon="7.0855">
        <ele>464.94</ele>
        <time>2020-08-19T15:54:39.000Z</time>
      </trkpt>
      <trkpt lat="48.61741" lon="7.08539">
        <ele>464.47</ele>
        <time>2020-08-19T15:54:40.000Z</time>
      </trkpt>
      <trkpt lat="48.61737" lon="7.08528">
        <ele>464.37</ele>
        <time>2020-08-19T15:54:41.000Z</time>
      </trkpt>
      <trkpt lat="48.61733" lon="7.08519">
        <ele>462.84</ele>
        <time>2020-08-19T15:54:42.000Z</time>
      </trkpt>
      <trkpt lat="48.6173" lon="7.08507">
        <ele>460.67</ele>
        <time>2020-08-19T15:54:43.000Z</time>
      </trkpt>
      <trkpt lat="48.61724" lon="7.08495">
        <ele>458.99</ele>
        <time>2020-08-19T15:54:44.000Z</time>
      </trkpt>
      <trkpt lat="48.61699" lon="7.08433">
        <ele>452.49</ele>
        <time>2020-08-19T15:54:50.000Z</time>
      </trkpt>
      <trkpt lat="48.61689" lon="7.08417">
        <ele>453.25</ele>
        <time>2020-08-19T15:54:52.000Z</time>
      </trkpt>
      <trkpt lat="48.61685" lon="7.08412">
        <ele>451.79</ele>
        <time>2020-08-19T15:54:53.000Z</time>
      </trkpt>
      <trkpt lat="48.61687" lon="7.08405">
        <ele>448.32</ele>
        <time>2020-08-19T15:54:54.000Z</time>
      </trkpt>
      <trkpt lat="48.61687" lon="7.08412">
        <ele>443.88</ele>
        <time>2020-08-19T15:55:00.000Z</time>
      </trkpt>
      <trkpt lat="48.61684" lon="7.08406">
        <ele>445.67</ele>
        <time>2020-08-19T15:55:09.000Z</time>
      </trkpt>
      <trkpt lat="48.61679" lon="7.08406">
        <ele>447.31</ele>
        <time>2020-08-19T15:55:21.000Z</time>
      </trkpt>
      <trkpt lat="48.61675" lon="7.08402">
        <ele>448.57</ele>
        <time>2020-08-19T15:55:25.000Z</time>
      </trkpt>
      <trkpt lat="48.61671" lon="7.08399">
        <ele>450.91</ele>
        <time>2020-08-19T15:55:27.000Z</time>
      </trkpt>
      <trkpt lat="48.61665" lon="7.08395">
        <ele>448.78</ele>
        <time>2020-08-19T15:55:29.000Z</time>
      </trkpt>
      <trkpt lat="48.6166" lon="7.0839">
        <ele>448.74</ele>
        <time>2020-08-19T15:55:31.000Z</time>
      </trkpt>
      <trkpt lat="48.61656" lon="7.08385">
        <ele>449.3</ele>
        <time>2020-08-19T15:55:33.000Z</time>
      </trkpt>
      <trkpt lat="48.6165" lon="7.08379">
        <ele>449.93</ele>
        <time>2020-08-19T15:55:35.000Z</time>
      </trkpt>
      <trkpt lat="48.61635" lon="7.08368">
        <ele>460.78</ele>
        <time>2020-08-19T15:55:38.000Z</time>
      </trkpt>
      <trkpt lat="48.61628" lon="7.08365">
        <ele>455.45</ele>
        <time>2020-08-19T15:55:39.000Z</time>
      </trkpt>
      <trkpt lat="48.61613" lon="7.0836">
        <ele>445.92</ele>
        <time>2020-08-19T15:55:42.000Z</time>
      </trkpt>
      <trkpt lat="48.61608" lon="7.08357">
        <ele>445.4</ele>
        <time>2020-08-19T15:55:43.000Z</time>
      </trkpt>
      <trkpt lat="48.616" lon="7.08351">
        <ele>445.27</ele>
        <time>2020-08-19T15:55:45.000Z</time>
      </trkpt>
      <trkpt lat="48.6159" lon="7.08347">
        <ele>444.7</ele>
        <time>2020-08-19T15:55:47.000Z</time>
      </trkpt>
      <trkpt lat="48.61586" lon="7.08344">
        <ele>444.07</ele>
        <time>2020-08-19T15:55:48.000Z</time>
      </trkpt>
      <trkpt lat="48.6158" lon="7.08342">
        <ele>443.98</ele>
        <time>2020-08-19T15:55:49.000Z</time>
      </trkpt>
      <trkpt lat="48.61576" lon="7.08336">
        <ele>442.51</ele>
        <time>2020-08-19T15:55:50.000Z</time>
      </trkpt>
      <trkpt lat="48.61571" lon="7.08333">
        <ele>440.66</ele>
        <time>2020-08-19T15:55:51.000Z</time>
      </trkpt>
      <trkpt lat="48.61566" lon="7.08326">
        <ele>438.38</ele>
        <time>2020-08-19T15:55:53.000Z</time>
      </trkpt>
      <trkpt lat="48.61559" lon="7.08325">
        <ele>438.55</ele>
        <time>2020-08-19T15:55:54.000Z</time>
      </trkpt>
      <trkpt lat="48.61553" lon="7.08323">
        <ele>439.05</ele>
        <time>2020-08-19T15:55:55.000Z</time>
      </trkpt>
      <trkpt lat="48.61549" lon="7.08323">
        <ele>438.92</ele>
        <time>2020-08-19T15:55:56.000Z</time>
      </trkpt>
      <trkpt lat="48.61544" lon="7.08322">
        <ele>439.83</ele>
        <time>2020-08-19T15:55:57.000Z</time>
      </trkpt>
      <trkpt lat="48.61539" lon="7.08321">
        <ele>439.46</ele>
        <time>2020-08-19T15:55:58.000Z</time>
      </trkpt>
      <trkpt lat="48.61533" lon="7.0832">
        <ele>440.35</ele>
        <time>2020-08-19T15:55:59.000Z</time>
      </trkpt>
      <trkpt lat="48.61528" lon="7.0832">
        <ele>440.87</ele>
        <time>2020-08-19T15:56:00.000Z</time>
      </trkpt>
      <trkpt lat="48.61514" lon="7.08324">
        <ele>439.29</ele>
        <time>2020-08-19T15:56:02.000Z</time>
      </trkpt>
      <trkpt lat="48.61509" lon="7.08327">
        <ele>439.66</ele>
        <time>2020-08-19T15:56:03.000Z</time>
      </trkpt>
      <trkpt lat="48.61504" lon="7.08331">
        <ele>439.19</ele>
        <time>2020-08-19T15:56:04.000Z</time>
      </trkpt>
      <trkpt lat="48.615" lon="7.08336">
        <ele>438.08</ele>
        <time>2020-08-19T15:56:05.000Z</time>
      </trkpt>
      <trkpt lat="48.61495" lon="7.08347">
        <ele>439.52</ele>
        <time>2020-08-19T15:56:07.000Z</time>
      </trkpt>
      <trkpt lat="48.61491" lon="7.08359">
        <ele>441.34</ele>
        <time>2020-08-19T15:56:09.000Z</time>
      </trkpt>
      <trkpt lat="48.61486" lon="7.08369">
        <ele>442.83</ele>
        <time>2020-08-19T15:56:11.000Z</time>
      </trkpt>
      <trkpt lat="48.61485" lon="7.08381">
        <ele>442.84</ele>
        <time>2020-08-19T15:56:13.000Z</time>
      </trkpt>
      <trkpt lat="48.61482" lon="7.08392">
        <ele>443.72</ele>
        <time>2020-08-19T15:56:15.000Z</time>
      </trkpt>
      <trkpt lat="48.61481" lon="7.08402">
        <ele>442.91</ele>
        <time>2020-08-19T15:56:17.000Z</time>
      </trkpt>
      <trkpt lat="48.61479" lon="7.0841">
        <ele>439.91</ele>
        <time>2020-08-19T15:56:19.000Z</time>
      </trkpt>
      <trkpt lat="48.61478" lon="7.0842">
        <ele>437.96</ele>
        <time>2020-08-19T15:56:21.000Z</time>
      </trkpt>
      <trkpt lat="48.61478" lon="7.08429">
        <ele>437.37</ele>
        <time>2020-08-19T15:56:23.000Z</time>
      </trkpt>
      <trkpt lat="48.61476" lon="7.08438">
        <ele>441.56</ele>
        <time>2020-08-19T15:56:26.000Z</time>
      </trkpt>
      <trkpt lat="48.61472" lon="7.08447">
        <ele>441.16</ele>
        <time>2020-08-19T15:56:28.000Z</time>
      </trkpt>
      <trkpt lat="48.61463" lon="7.08461">
        <ele>439.45</ele>
        <time>2020-08-19T15:56:30.000Z</time>
      </trkpt>
      <trkpt lat="48.61461" lon="7.08472">
        <ele>435.53</ele>
        <time>2020-08-19T15:56:32.000Z</time>
      </trkpt>
      <trkpt lat="48.61461" lon="7.08485">
        <ele>436.3</ele>
        <time>2020-08-19T15:56:34.000Z</time>
      </trkpt>
      <trkpt lat="48.61457" lon="7.08491">
        <ele>435.31</ele>
        <time>2020-08-19T15:56:35.000Z</time>
      </trkpt>
      <trkpt lat="48.61456" lon="7.08498">
        <ele>434.53</ele>
        <time>2020-08-19T15:56:36.000Z</time>
      </trkpt>
      <trkpt lat="48.61455" lon="7.08512">
        <ele>433.64</ele>
        <time>2020-08-19T15:56:38.000Z</time>
      </trkpt>
      <trkpt lat="48.61456" lon="7.0852">
        <ele>431.9</ele>
        <time>2020-08-19T15:56:39.000Z</time>
      </trkpt>
      <trkpt lat="48.61456" lon="7.08528">
        <ele>431.92</ele>
        <time>2020-08-19T15:56:40.000Z</time>
      </trkpt>
      <trkpt lat="48.61456" lon="7.08536">
        <ele>432.13</ele>
        <time>2020-08-19T15:56:41.000Z</time>
      </trkpt>
      <trkpt lat="48.61458" lon="7.08543">
        <ele>432.3</ele>
        <time>2020-08-19T15:56:42.000Z</time>
      </trkpt>
      <trkpt lat="48.61459" lon="7.08553">
        <ele>432.36</ele>
        <time>2020-08-19T15:56:43.000Z</time>
      </trkpt>
      <trkpt lat="48.61458" lon="7.0856">
        <ele>432.16</ele>
        <time>2020-08-19T15:56:44.000Z</time>
      </trkpt>
      <trkpt lat="48.61456" lon="7.08569">
        <ele>433.64</ele>
        <time>2020-08-19T15:56:45.000Z</time>
      </trkpt>
      <trkpt lat="48.61456" lon="7.08577">
        <ele>433.1</ele>
        <time>2020-08-19T15:56:46.000Z</time>
      </trkpt>
      <trkpt lat="48.61454" lon="7.08593">
        <ele>432.22</ele>
        <time>2020-08-19T15:56:48.000Z</time>
      </trkpt>
      <trkpt lat="48.61455" lon="7.086">
        <ele>432.76</ele>
        <time>2020-08-19T15:56:49.000Z</time>
      </trkpt>
      <trkpt lat="48.61457" lon="7.08608">
        <ele>433.22</ele>
        <time>2020-08-19T15:56:50.000Z</time>
      </trkpt>
      <trkpt lat="48.61458" lon="7.08616">
        <ele>432.2</ele>
        <time>2020-08-19T15:56:51.000Z</time>
      </trkpt>
      <trkpt lat="48.61459" lon="7.08624">
        <ele>431.43</ele>
        <time>2020-08-19T15:56:52.000Z</time>
      </trkpt>
      <trkpt lat="48.61456" lon="7.08632">
        <ele>432.84</ele>
        <time>2020-08-19T15:56:53.000Z</time>
      </trkpt>
      <trkpt lat="48.61457" lon="7.08641">
        <ele>432.47</ele>
        <time>2020-08-19T15:56:54.000Z</time>
      </trkpt>
      <trkpt lat="48.61457" lon="7.08653">
        <ele>433.23</ele>
        <time>2020-08-19T15:56:56.000Z</time>
      </trkpt>
      <trkpt lat="48.61457" lon="7.08665">
        <ele>433.51</ele>
        <time>2020-08-19T15:56:58.000Z</time>
      </trkpt>
      <trkpt lat="48.61459" lon="7.08676">
        <ele>433.6</ele>
        <time>2020-08-19T15:57:00.000Z</time>
      </trkpt>
      <trkpt lat="48.6146" lon="7.08683">
        <ele>433.11</ele>
        <time>2020-08-19T15:57:01.000Z</time>
      </trkpt>
      <trkpt lat="48.61465" lon="7.08691">
        <ele>431.95</ele>
        <time>2020-08-19T15:57:02.000Z</time>
      </trkpt>
      <trkpt lat="48.61463" lon="7.08699">
        <ele>432.78</ele>
        <time>2020-08-19T15:57:03.000Z</time>
      </trkpt>
      <trkpt lat="48.61465" lon="7.08707">
        <ele>430.18</ele>
        <time>2020-08-19T15:57:04.000Z</time>
      </trkpt>
      <trkpt lat="48.61466" lon="7.0872">
        <ele>430.63</ele>
        <time>2020-08-19T15:57:06.000Z</time>
      </trkpt>
      <trkpt lat="48.61466" lon="7.08727">
        <ele>431.88</ele>
        <time>2020-08-19T15:57:07.000Z</time>
      </trkpt>
      <trkpt lat="48.61466" lon="7.0874">
        <ele>431.43</ele>
        <time>2020-08-19T15:57:09.000Z</time>
      </trkpt>
      <trkpt lat="48.61463" lon="7.08747">
        <ele>430.66</ele>
        <time>2020-08-19T15:57:10.000Z</time>
      </trkpt>
      <trkpt lat="48.61463" lon="7.08754">
        <ele>429.96</ele>
        <time>2020-08-19T15:57:11.000Z</time>
      </trkpt>
      <trkpt lat="48.61463" lon="7.08761">
        <ele>429.86</ele>
        <time>2020-08-19T15:57:12.000Z</time>
      </trkpt>
      <trkpt lat="48.61463" lon="7.08768">
        <ele>431.03</ele>
        <time>2020-08-19T15:57:13.000Z</time>
      </trkpt>
      <trkpt lat="48.61466" lon="7.08775">
        <ele>432.99</ele>
        <time>2020-08-19T15:57:14.000Z</time>
      </trkpt>
      <trkpt lat="48.61468" lon="7.08782">
        <ele>432.71</ele>
        <time>2020-08-19T15:57:15.000Z</time>
      </trkpt>
      <trkpt lat="48.61469" lon="7.08789">
        <ele>432.91</ele>
        <time>2020-08-19T15:57:16.000Z</time>
      </trkpt>
      <trkpt lat="48.6147" lon="7.08797">
        <ele>432.86</ele>
        <time>2020-08-19T15:57:17.000Z</time>
      </trkpt>
      <trkpt lat="48.61469" lon="7.08804">
        <ele>433.88</ele>
        <time>2020-08-19T15:57:18.000Z</time>
      </trkpt>
      <trkpt lat="48.6147" lon="7.08812">
        <ele>432.63</ele>
        <time>2020-08-19T15:57:19.000Z</time>
      </trkpt>
      <trkpt lat="48.6147" lon="7.0882">
        <ele>432.51</ele>
        <time>2020-08-19T15:57:20.000Z</time>
      </trkpt>
      <trkpt lat="48.6147" lon="7.08828">
        <ele>433.3</ele>
        <time>2020-08-19T15:57:21.000Z</time>
      </trkpt>
      <trkpt lat="48.61469" lon="7.08835">
        <ele>432.92</ele>
        <time>2020-08-19T15:57:22.000Z</time>
      </trkpt>
      <trkpt lat="48.61469" lon="7.08848">
        <ele>433.24</ele>
        <time>2020-08-19T15:57:24.000Z</time>
      </trkpt>
      <trkpt lat="48.6147" lon="7.08855">
        <ele>433.39</ele>
        <time>2020-08-19T15:57:25.000Z</time>
      </trkpt>
      <trkpt lat="48.61468" lon="7.08868">
        <ele>448.2</ele>
        <time>2020-08-19T15:57:27.000Z</time>
      </trkpt>
      <trkpt lat="48.61466" lon="7.08875">
        <ele>444.11</ele>
        <time>2020-08-19T15:57:28.000Z</time>
      </trkpt>
      <trkpt lat="48.61466" lon="7.08886">
        <ele>442.67</ele>
        <time>2020-08-19T15:57:30.000Z</time>
      </trkpt>
      <trkpt lat="48.61462" lon="7.08897">
        <ele>438.59</ele>
        <time>2020-08-19T15:57:32.000Z</time>
      </trkpt>
      <trkpt lat="48.61457" lon="7.089">
        <ele>438.54</ele>
        <time>2020-08-19T15:57:33.000Z</time>
      </trkpt>
      <trkpt lat="48.61452" lon="7.08902">
        <ele>438.84</ele>
        <time>2020-08-19T15:57:34.000Z</time>
      </trkpt>
      <trkpt lat="48.61447" lon="7.08902">
        <ele>438.99</ele>
        <time>2020-08-19T15:57:35.000Z</time>
      </trkpt>
      <trkpt lat="48.61442" lon="7.089">
        <ele>438.48</ele>
        <time>2020-08-19T15:57:36.000Z</time>
      </trkpt>
      <trkpt lat="48.61436" lon="7.08898">
        <ele>438.49</ele>
        <time>2020-08-19T15:57:37.000Z</time>
      </trkpt>
      <trkpt lat="48.61431" lon="7.08896">
        <ele>436.49</ele>
        <time>2020-08-19T15:57:38.000Z</time>
      </trkpt>
      <trkpt lat="48.61425" lon="7.08893">
        <ele>436.36</ele>
        <time>2020-08-19T15:57:39.000Z</time>
      </trkpt>
      <trkpt lat="48.61419" lon="7.0889">
        <ele>436.69</ele>
        <time>2020-08-19T15:57:40.000Z</time>
      </trkpt>
      <trkpt lat="48.61413" lon="7.08886">
        <ele>434.71</ele>
        <time>2020-08-19T15:57:41.000Z</time>
      </trkpt>
      <trkpt lat="48.61407" lon="7.08882">
        <ele>434.43</ele>
        <time>2020-08-19T15:57:42.000Z</time>
      </trkpt>
      <trkpt lat="48.61402" lon="7.08879">
        <ele>451.46</ele>
        <time>2020-08-19T15:57:43.000Z</time>
      </trkpt>
      <trkpt lat="48.61397" lon="7.08875">
        <ele>446.3</ele>
        <time>2020-08-19T15:57:44.000Z</time>
      </trkpt>
      <trkpt lat="48.61391" lon="7.08872">
        <ele>442.48</ele>
        <time>2020-08-19T15:57:45.000Z</time>
      </trkpt>
      <trkpt lat="48.61386" lon="7.08869">
        <ele>440.06</ele>
        <time>2020-08-19T15:57:46.000Z</time>
      </trkpt>
      <trkpt lat="48.61381" lon="7.08866">
        <ele>437.94</ele>
        <time>2020-08-19T15:57:47.000Z</time>
      </trkpt>
      <trkpt lat="48.61376" lon="7.08864">
        <ele>436.97</ele>
        <time>2020-08-19T15:57:48.000Z</time>
      </trkpt>
      <trkpt lat="48.61372" lon="7.08861">
        <ele>436.4</ele>
        <time>2020-08-19T15:57:49.000Z</time>
      </trkpt>
      <trkpt lat="48.61368" lon="7.08858">
        <ele>434.08</ele>
        <time>2020-08-19T15:57:50.000Z</time>
      </trkpt>
      <trkpt lat="48.61362" lon="7.08855">
        <ele>435.23</ele>
        <time>2020-08-19T15:57:52.000Z</time>
      </trkpt>
      <trkpt lat="48.61357" lon="7.08852">
        <ele>436.54</ele>
        <time>2020-08-19T15:57:53.000Z</time>
      </trkpt>
      <trkpt lat="48.61352" lon="7.0885">
        <ele>436.85</ele>
        <time>2020-08-19T15:57:54.000Z</time>
      </trkpt>
      <trkpt lat="48.61347" lon="7.08843">
        <ele>457.04</ele>
        <time>2020-08-19T15:57:56.000Z</time>
      </trkpt>
      <trkpt lat="48.61342" lon="7.08837">
        <ele>450.03</ele>
        <time>2020-08-19T15:57:58.000Z</time>
      </trkpt>
      <trkpt lat="48.61335" lon="7.08832">
        <ele>444.12</ele>
        <time>2020-08-19T15:58:00.000Z</time>
      </trkpt>
      <trkpt lat="48.61328" lon="7.08828">
        <ele>438.19</ele>
        <time>2020-08-19T15:58:02.000Z</time>
      </trkpt>
      <trkpt lat="48.61319" lon="7.08826">
        <ele>433.87</ele>
        <time>2020-08-19T15:58:04.000Z</time>
      </trkpt>
      <trkpt lat="48.61311" lon="7.08824">
        <ele>433.79</ele>
        <time>2020-08-19T15:58:06.000Z</time>
      </trkpt>
      <trkpt lat="48.61307" lon="7.08821">
        <ele>431.87</ele>
        <time>2020-08-19T15:58:07.000Z</time>
      </trkpt>
      <trkpt lat="48.61303" lon="7.08817">
        <ele>431.78</ele>
        <time>2020-08-19T15:58:08.000Z</time>
      </trkpt>
      <trkpt lat="48.61299" lon="7.08814">
        <ele>432.39</ele>
        <time>2020-08-19T15:58:09.000Z</time>
      </trkpt>
      <trkpt lat="48.61291" lon="7.08808">
        <ele>432.11</ele>
        <time>2020-08-19T15:58:11.000Z</time>
      </trkpt>
      <trkpt lat="48.61286" lon="7.08806">
        <ele>432.68</ele>
        <time>2020-08-19T15:58:12.000Z</time>
      </trkpt>
      <trkpt lat="48.61278" lon="7.08804">
        <ele>431.18</ele>
        <time>2020-08-19T15:58:14.000Z</time>
      </trkpt>
      <trkpt lat="48.61273" lon="7.08803">
        <ele>431.46</ele>
        <time>2020-08-19T15:58:15.000Z</time>
      </trkpt>
      <trkpt lat="48.61268" lon="7.08803">
        <ele>430.42</ele>
        <time>2020-08-19T15:58:16.000Z</time>
      </trkpt>
      <trkpt lat="48.61263" lon="7.08803">
        <ele>430.31</ele>
        <time>2020-08-19T15:58:17.000Z</time>
      </trkpt>
      <trkpt lat="48.61255" lon="7.08802">
        <ele>430.76</ele>
        <time>2020-08-19T15:58:19.000Z</time>
      </trkpt>
      <trkpt lat="48.61247" lon="7.08802">
        <ele>433.17</ele>
        <time>2020-08-19T15:58:21.000Z</time>
      </trkpt>
      <trkpt lat="48.61239" lon="7.08805">
        <ele>435.66</ele>
        <time>2020-08-19T15:58:23.000Z</time>
      </trkpt>
      <trkpt lat="48.61231" lon="7.08808">
        <ele>437.91</ele>
        <time>2020-08-19T15:58:25.000Z</time>
      </trkpt>
      <trkpt lat="48.61225" lon="7.08812">
        <ele>437.14</ele>
        <time>2020-08-19T15:58:26.000Z</time>
      </trkpt>
      <trkpt lat="48.61217" lon="7.08817">
        <ele>437.65</ele>
        <time>2020-08-19T15:58:28.000Z</time>
      </trkpt>
      <trkpt lat="48.61213" lon="7.0882">
        <ele>437.35</ele>
        <time>2020-08-19T15:58:29.000Z</time>
      </trkpt>
      <trkpt lat="48.61208" lon="7.08823">
        <ele>435.46</ele>
        <time>2020-08-19T15:58:30.000Z</time>
      </trkpt>
      <trkpt lat="48.61204" lon="7.08827">
        <ele>435.67</ele>
        <time>2020-08-19T15:58:31.000Z</time>
      </trkpt>
      <trkpt lat="48.612" lon="7.0883">
        <ele>436.25</ele>
        <time>2020-08-19T15:58:32.000Z</time>
      </trkpt>
      <trkpt lat="48.61197" lon="7.08836">
        <ele>437.11</ele>
        <time>2020-08-19T15:58:33.000Z</time>
      </trkpt>
      <trkpt lat="48.61193" lon="7.08841">
        <ele>438.02</ele>
        <time>2020-08-19T15:58:34.000Z</time>
      </trkpt>
      <trkpt lat="48.61188" lon="7.08851">
        <ele>438.4</ele>
        <time>2020-08-19T15:58:36.000Z</time>
      </trkpt>
      <trkpt lat="48.61183" lon="7.08855">
        <ele>438.58</ele>
        <time>2020-08-19T15:58:37.000Z</time>
      </trkpt>
      <trkpt lat="48.61179" lon="7.08859">
        <ele>438.55</ele>
        <time>2020-08-19T15:58:38.000Z</time>
      </trkpt>
      <trkpt lat="48.61176" lon="7.08865">
        <ele>438.49</ele>
        <time>2020-08-19T15:58:39.000Z</time>
      </trkpt>
      <trkpt lat="48.6117" lon="7.08875">
        <ele>436.55</ele>
        <time>2020-08-19T15:58:41.000Z</time>
      </trkpt>
      <trkpt lat="48.61168" lon="7.08882">
        <ele>436.54</ele>
        <time>2020-08-19T15:58:42.000Z</time>
      </trkpt>
      <trkpt lat="48.61164" lon="7.08888">
        <ele>436.81</ele>
        <time>2020-08-19T15:58:43.000Z</time>
      </trkpt>
      <trkpt lat="48.61163" lon="7.08895">
        <ele>434.92</ele>
        <time>2020-08-19T15:58:44.000Z</time>
      </trkpt>
      <trkpt lat="48.61161" lon="7.08902">
        <ele>436.14</ele>
        <time>2020-08-19T15:58:45.000Z</time>
      </trkpt>
      <trkpt lat="48.61159" lon="7.08909">
        <ele>434.91</ele>
        <time>2020-08-19T15:58:46.000Z</time>
      </trkpt>
      <trkpt lat="48.61157" lon="7.0892">
        <ele>434.12</ele>
        <time>2020-08-19T15:58:48.000Z</time>
      </trkpt>
      <trkpt lat="48.61155" lon="7.08933">
        <ele>435.97</ele>
        <time>2020-08-19T15:58:50.000Z</time>
      </trkpt>
      <trkpt lat="48.61153" lon="7.08945">
        <ele>435.95</ele>
        <time>2020-08-19T15:58:52.000Z</time>
      </trkpt>
      <trkpt lat="48.61151" lon="7.08958">
        <ele>437.16</ele>
        <time>2020-08-19T15:58:54.000Z</time>
      </trkpt>
      <trkpt lat="48.61152" lon="7.0897">
        <ele>439.99</ele>
        <time>2020-08-19T15:58:56.000Z</time>
      </trkpt>
      <trkpt lat="48.61153" lon="7.08978">
        <ele>441.21</ele>
        <time>2020-08-19T15:58:57.000Z</time>
      </trkpt>
      <trkpt lat="48.61153" lon="7.08989">
        <ele>440.73</ele>
        <time>2020-08-19T15:58:59.000Z</time>
      </trkpt>
      <trkpt lat="48.61153" lon="7.08996">
        <ele>441.55</ele>
        <time>2020-08-19T15:59:00.000Z</time>
      </trkpt>
      <trkpt lat="48.61154" lon="7.09009">
        <ele>442.39</ele>
        <time>2020-08-19T15:59:02.000Z</time>
      </trkpt>
      <trkpt lat="48.61154" lon="7.09016">
        <ele>441.92</ele>
        <time>2020-08-19T15:59:03.000Z</time>
      </trkpt>
      <trkpt lat="48.61155" lon="7.09026">
        <ele>443.04</ele>
        <time>2020-08-19T15:59:05.000Z</time>
      </trkpt>
      <trkpt lat="48.61158" lon="7.0904">
        <ele>446.55</ele>
        <time>2020-08-19T15:59:07.000Z</time>
      </trkpt>
      <trkpt lat="48.6116" lon="7.09054">
        <ele>446.04</ele>
        <time>2020-08-19T15:59:09.000Z</time>
      </trkpt>
      <trkpt lat="48.61162" lon="7.09067">
        <ele>447.67</ele>
        <time>2020-08-19T15:59:11.000Z</time>
      </trkpt>
      <trkpt lat="48.61163" lon="7.09079">
        <ele>447.92</ele>
        <time>2020-08-19T15:59:13.000Z</time>
      </trkpt>
      <trkpt lat="48.61162" lon="7.0909">
        <ele>448.07</ele>
        <time>2020-08-19T15:59:15.000Z</time>
      </trkpt>
      <trkpt lat="48.61163" lon="7.09101">
        <ele>448.67</ele>
        <time>2020-08-19T15:59:17.000Z</time>
      </trkpt>
      <trkpt lat="48.61167" lon="7.09113">
        <ele>447.91</ele>
        <time>2020-08-19T15:59:19.000Z</time>
      </trkpt>
      <trkpt lat="48.61164" lon="7.09126">
        <ele>447.2</ele>
        <time>2020-08-19T15:59:21.000Z</time>
      </trkpt>
      <trkpt lat="48.61163" lon="7.09137">
        <ele>448.53</ele>
        <time>2020-08-19T15:59:23.000Z</time>
      </trkpt>
      <trkpt lat="48.61165" lon="7.09144">
        <ele>452.44</ele>
        <time>2020-08-19T15:59:42.000Z</time>
      </trkpt>
      <trkpt lat="48.61165" lon="7.09152">
        <ele>452.66</ele>
        <time>2020-08-19T15:59:45.000Z</time>
      </trkpt>
      <trkpt lat="48.61166" lon="7.09164">
        <ele>450.25</ele>
        <time>2020-08-19T15:59:47.000Z</time>
      </trkpt>
      <trkpt lat="48.61166" lon="7.09171">
        <ele>450.06</ele>
        <time>2020-08-19T15:59:48.000Z</time>
      </trkpt>
      <trkpt lat="48.61166" lon="7.09178">
        <ele>448.48</ele>
        <time>2020-08-19T15:59:49.000Z</time>
      </trkpt>
      <trkpt lat="48.61167" lon="7.09187">
        <ele>448.78</ele>
        <time>2020-08-19T15:59:50.000Z</time>
      </trkpt>
      <trkpt lat="48.61167" lon="7.09195">
        <ele>447.55</ele>
        <time>2020-08-19T15:59:51.000Z</time>
      </trkpt>
      <trkpt lat="48.61168" lon="7.09204">
        <ele>446.24</ele>
        <time>2020-08-19T15:59:52.000Z</time>
      </trkpt>
      <trkpt lat="48.61164" lon="7.09254">
        <ele>444.17</ele>
        <time>2020-08-19T15:59:57.000Z</time>
      </trkpt>
      <trkpt lat="48.61163" lon="7.09262">
        <ele>444.26</ele>
        <time>2020-08-19T15:59:58.000Z</time>
      </trkpt>
      <trkpt lat="48.61161" lon="7.09268">
        <ele>440.36</ele>
        <time>2020-08-19T16:00:02.000Z</time>
      </trkpt>
      <trkpt lat="48.61157" lon="7.09265">
        <ele>449.1</ele>
        <time>2020-08-19T16:00:14.000Z</time>
      </trkpt>
      <trkpt lat="48.6116" lon="7.0926">
        <ele>450.77</ele>
        <time>2020-08-19T16:00:18.000Z</time>
      </trkpt>
      <trkpt lat="48.61161" lon="7.09252">
        <ele>450.09</ele>
        <time>2020-08-19T16:00:23.000Z</time>
      </trkpt>
      <trkpt lat="48.61161" lon="7.09244">
        <ele>449.63</ele>
        <time>2020-08-19T16:00:28.000Z</time>
      </trkpt>
      <trkpt lat="48.61161" lon="7.09236">
        <ele>453.75</ele>
        <time>2020-08-19T16:00:32.000Z</time>
      </trkpt>
      <trkpt lat="48.61164" lon="7.0923">
        <ele>452.68</ele>
        <time>2020-08-19T16:00:37.000Z</time>
      </trkpt>
      <trkpt lat="48.61167" lon="7.09236">
        <ele>453.69</ele>
        <time>2020-08-19T16:00:42.000Z</time>
      </trkpt>
      <trkpt lat="48.61166" lon="7.09244">
        <ele>456.23</ele>
        <time>2020-08-19T16:00:46.000Z</time>
      </trkpt>
      <trkpt lat="48.61169" lon="7.09248">
        <ele>457.2</ele>
        <time>2020-08-19T16:00:51.000Z</time>
      </trkpt>
      <trkpt lat="48.6117" lon="7.09256">
        <ele>458.46</ele>
        <time>2020-08-19T16:00:58.000Z</time>
      </trkpt>
      <trkpt lat="48.61172" lon="7.09264">
        <ele>456.94</ele>
        <time>2020-08-19T16:01:01.000Z</time>
      </trkpt>
      <trkpt lat="48.61174" lon="7.09271">
        <ele>455.65</ele>
        <time>2020-08-19T16:01:05.000Z</time>
      </trkpt>
      <trkpt lat="48.61176" lon="7.09278">
        <ele>455.07</ele>
        <time>2020-08-19T16:01:08.000Z</time>
      </trkpt>
      <trkpt lat="48.61173" lon="7.09285">
        <ele>456.55</ele>
        <time>2020-08-19T16:01:12.000Z</time>
      </trkpt>
      <trkpt lat="48.61175" lon="7.09294">
        <ele>458.03</ele>
        <time>2020-08-19T16:01:17.000Z</time>
      </trkpt>
      <trkpt lat="48.61174" lon="7.09302">
        <ele>457.48</ele>
        <time>2020-08-19T16:01:21.000Z</time>
      </trkpt>
      <trkpt lat="48.61174" lon="7.09309">
        <ele>457.02</ele>
        <time>2020-08-19T16:01:24.000Z</time>
      </trkpt>
      <trkpt lat="48.61176" lon="7.09316">
        <ele>455.92</ele>
        <time>2020-08-19T16:01:27.000Z</time>
      </trkpt>
      <trkpt lat="48.61177" lon="7.09323">
        <ele>456.24</ele>
        <time>2020-08-19T16:01:31.000Z</time>
      </trkpt>
      <trkpt lat="48.61176" lon="7.09331">
        <ele>455.22</ele>
        <time>2020-08-19T16:01:34.000Z</time>
      </trkpt>
      <trkpt lat="48.61176" lon="7.09338">
        <ele>455.11</ele>
        <time>2020-08-19T16:01:38.000Z</time>
      </trkpt>
      <trkpt lat="48.61175" lon="7.09346">
        <ele>456.58</ele>
        <time>2020-08-19T16:01:42.000Z</time>
      </trkpt>
      <trkpt lat="48.61175" lon="7.09355">
        <ele>453.32</ele>
        <time>2020-08-19T16:01:46.000Z</time>
      </trkpt>
      <trkpt lat="48.61174" lon="7.09363">
        <ele>453.06</ele>
        <time>2020-08-19T16:01:50.000Z</time>
      </trkpt>
      <trkpt lat="48.61176" lon="7.0937">
        <ele>454.01</ele>
        <time>2020-08-19T16:01:57.000Z</time>
      </trkpt>
      <trkpt lat="48.61175" lon="7.09377">
        <ele>454.05</ele>
        <time>2020-08-19T16:02:00.000Z</time>
      </trkpt>
      <trkpt lat="48.61175" lon="7.09385">
        <ele>453.6</ele>
        <time>2020-08-19T16:02:03.000Z</time>
      </trkpt>
      <trkpt lat="48.61172" lon="7.09391">
        <ele>455.98</ele>
        <time>2020-08-19T16:02:24.000Z</time>
      </trkpt>
      <trkpt lat="48.61169" lon="7.09398">
        <ele>454.71</ele>
        <time>2020-08-19T16:03:26.000Z</time>
      </trkpt>
      <trkpt lat="48.61169" lon="7.09405">
        <ele>457.52</ele>
        <time>2020-08-19T16:03:28.000Z</time>
      </trkpt>
      <trkpt lat="48.6117" lon="7.09413">
        <ele>453.66</ele>
        <time>2020-08-19T16:03:30.000Z</time>
      </trkpt>
      <trkpt lat="48.6117" lon="7.09424">
        <ele>457.36</ele>
        <time>2020-08-19T16:03:32.000Z</time>
      </trkpt>
      <trkpt lat="48.61169" lon="7.09433">
        <ele>456.03</ele>
        <time>2020-08-19T16:03:34.000Z</time>
      </trkpt>
      <trkpt lat="48.61169" lon="7.09439">
        <ele>454.18</ele>
        <time>2020-08-19T16:03:36.000Z</time>
      </trkpt>
      <trkpt lat="48.6117" lon="7.09448">
        <ele>454.25</ele>
        <time>2020-08-19T16:03:38.000Z</time>
      </trkpt>
      <trkpt lat="48.61171" lon="7.09457">
        <ele>451.06</ele>
        <time>2020-08-19T16:03:40.000Z</time>
      </trkpt>
      <trkpt lat="48.61172" lon="7.09468">
        <ele>451.22</ele>
        <time>2020-08-19T16:03:42.000Z</time>
      </trkpt>
      <trkpt lat="48.61174" lon="7.09476">
        <ele>452.54</ele>
        <time>2020-08-19T16:03:44.000Z</time>
      </trkpt>
      <trkpt lat="48.61175" lon="7.09485">
        <ele>452.26</ele>
        <time>2020-08-19T16:03:46.000Z</time>
      </trkpt>
      <trkpt lat="48.61172" lon="7.09494">
        <ele>453.04</ele>
        <time>2020-08-19T16:03:48.000Z</time>
      </trkpt>
      <trkpt lat="48.6117" lon="7.09505">
        <ele>454.13</ele>
        <time>2020-08-19T16:03:51.000Z</time>
      </trkpt>
      <trkpt lat="48.61172" lon="7.09512">
        <ele>456.99</ele>
        <time>2020-08-19T16:03:53.000Z</time>
      </trkpt>
      <trkpt lat="48.6117" lon="7.09521">
        <ele>455.13</ele>
        <time>2020-08-19T16:03:55.000Z</time>
      </trkpt>
      <trkpt lat="48.61166" lon="7.09531">
        <ele>454.67</ele>
        <time>2020-08-19T16:03:57.000Z</time>
      </trkpt>
      <trkpt lat="48.61162" lon="7.09539">
        <ele>452.43</ele>
        <time>2020-08-19T16:03:59.000Z</time>
      </trkpt>
      <trkpt lat="48.61157" lon="7.09557">
        <ele>455.3</ele>
        <time>2020-08-19T16:04:02.000Z</time>
      </trkpt>
      <trkpt lat="48.61155" lon="7.09564">
        <ele>457.32</ele>
        <time>2020-08-19T16:04:03.000Z</time>
      </trkpt>
      <trkpt lat="48.61153" lon="7.09574">
        <ele>455.57</ele>
        <time>2020-08-19T16:04:05.000Z</time>
      </trkpt>
      <trkpt lat="48.6115" lon="7.09586">
        <ele>455.71</ele>
        <time>2020-08-19T16:04:07.000Z</time>
      </trkpt>
      <trkpt lat="48.61147" lon="7.09597">
        <ele>455.8</ele>
        <time>2020-08-19T16:04:09.000Z</time>
      </trkpt>
      <trkpt lat="48.61146" lon="7.09606">
        <ele>453.14</ele>
        <time>2020-08-19T16:04:11.000Z</time>
      </trkpt>
      <trkpt lat="48.61144" lon="7.09616">
        <ele>452.5</ele>
        <time>2020-08-19T16:04:13.000Z</time>
      </trkpt>
      <trkpt lat="48.61142" lon="7.09627">
        <ele>454.6</ele>
        <time>2020-08-19T16:04:15.000Z</time>
      </trkpt>
      <trkpt lat="48.61142" lon="7.09637">
        <ele>450.93</ele>
        <time>2020-08-19T16:04:17.000Z</time>
      </trkpt>
      <trkpt lat="48.61142" lon="7.09645">
        <ele>452.47</ele>
        <time>2020-08-19T16:04:19.000Z</time>
      </trkpt>
      <trkpt lat="48.61141" lon="7.09654">
        <ele>452.01</ele>
        <time>2020-08-19T16:04:21.000Z</time>
      </trkpt>
      <trkpt lat="48.61141" lon="7.09661">
        <ele>450.86</ele>
        <time>2020-08-19T16:04:23.000Z</time>
      </trkpt>
      <trkpt lat="48.61139" lon="7.0967">
        <ele>449.64</ele>
        <time>2020-08-19T16:04:25.000Z</time>
      </trkpt>
      <trkpt lat="48.61136" lon="7.09679">
        <ele>450.74</ele>
        <time>2020-08-19T16:04:27.000Z</time>
      </trkpt>
      <trkpt lat="48.61134" lon="7.09687">
        <ele>452.33</ele>
        <time>2020-08-19T16:04:29.000Z</time>
      </trkpt>
      <trkpt lat="48.61132" lon="7.09697">
        <ele>451.72</ele>
        <time>2020-08-19T16:04:31.000Z</time>
      </trkpt>
      <trkpt lat="48.6113" lon="7.09707">
        <ele>453.27</ele>
        <time>2020-08-19T16:04:33.000Z</time>
      </trkpt>
      <trkpt lat="48.61128" lon="7.09716">
        <ele>454.59</ele>
        <time>2020-08-19T16:04:35.000Z</time>
      </trkpt>
      <trkpt lat="48.61126" lon="7.09725">
        <ele>455.92</ele>
        <time>2020-08-19T16:04:37.000Z</time>
      </trkpt>
      <trkpt lat="48.61125" lon="7.09733">
        <ele>457.52</ele>
        <time>2020-08-19T16:04:39.000Z</time>
      </trkpt>
      <trkpt lat="48.61123" lon="7.09741">
        <ele>458.44</ele>
        <time>2020-08-19T16:04:42.000Z</time>
      </trkpt>
      <trkpt lat="48.61121" lon="7.09752">
        <ele>457.45</ele>
        <time>2020-08-19T16:04:45.000Z</time>
      </trkpt>
      <trkpt lat="48.6112" lon="7.0976">
        <ele>459.25</ele>
        <time>2020-08-19T16:04:47.000Z</time>
      </trkpt>
      <trkpt lat="48.61121" lon="7.09769">
        <ele>458.29</ele>
        <time>2020-08-19T16:04:49.000Z</time>
      </trkpt>
      <trkpt lat="48.61123" lon="7.09777">
        <ele>459.88</ele>
        <time>2020-08-19T16:04:51.000Z</time>
      </trkpt>
      <trkpt lat="48.61123" lon="7.09789">
        <ele>461.43</ele>
        <time>2020-08-19T16:04:53.000Z</time>
      </trkpt>
      <trkpt lat="48.61123" lon="7.09798">
        <ele>462.8</ele>
        <time>2020-08-19T16:04:55.000Z</time>
      </trkpt>
      <trkpt lat="48.61123" lon="7.09805">
        <ele>463.72</ele>
        <time>2020-08-19T16:04:58.000Z</time>
      </trkpt>
      <trkpt lat="48.61123" lon="7.09813">
        <ele>463.35</ele>
        <time>2020-08-19T16:05:00.000Z</time>
      </trkpt>
      <trkpt lat="48.61123" lon="7.09822">
        <ele>465.23</ele>
        <time>2020-08-19T16:05:02.000Z</time>
      </trkpt>
      <trkpt lat="48.61125" lon="7.09833">
        <ele>464.84</ele>
        <time>2020-08-19T16:05:04.000Z</time>
      </trkpt>
      <trkpt lat="48.61127" lon="7.09843">
        <ele>466.26</ele>
        <time>2020-08-19T16:05:06.000Z</time>
      </trkpt>
      <trkpt lat="48.61128" lon="7.09853">
        <ele>467.94</ele>
        <time>2020-08-19T16:05:08.000Z</time>
      </trkpt>
      <trkpt lat="48.61128" lon="7.09862">
        <ele>468.26</ele>
        <time>2020-08-19T16:05:10.000Z</time>
      </trkpt>
      <trkpt lat="48.61129" lon="7.0987">
        <ele>469.77</ele>
        <time>2020-08-19T16:05:12.000Z</time>
      </trkpt>
      <trkpt lat="48.61129" lon="7.09877">
        <ele>472.92</ele>
        <time>2020-08-19T16:05:14.000Z</time>
      </trkpt>
      <trkpt lat="48.6113" lon="7.09884">
        <ele>476.3</ele>
        <time>2020-08-19T16:05:16.000Z</time>
      </trkpt>
      <trkpt lat="48.61129" lon="7.09895">
        <ele>478.58</ele>
        <time>2020-08-19T16:05:19.000Z</time>
      </trkpt>
      <trkpt lat="48.6113" lon="7.09902">
        <ele>479.63</ele>
        <time>2020-08-19T16:05:21.000Z</time>
      </trkpt>
      <trkpt lat="48.61133" lon="7.09911">
        <ele>479.58</ele>
        <time>2020-08-19T16:05:23.000Z</time>
      </trkpt>
      <trkpt lat="48.61135" lon="7.09919">
        <ele>481.61</ele>
        <time>2020-08-19T16:05:25.000Z</time>
      </trkpt>
      <trkpt lat="48.61138" lon="7.09924">
        <ele>484.22</ele>
        <time>2020-08-19T16:05:27.000Z</time>
      </trkpt>
      <trkpt lat="48.61139" lon="7.09931">
        <ele>487.53</ele>
        <time>2020-08-19T16:05:29.000Z</time>
      </trkpt>
      <trkpt lat="48.61138" lon="7.09941">
        <ele>487.89</ele>
        <time>2020-08-19T16:05:31.000Z</time>
      </trkpt>
      <trkpt lat="48.61136" lon="7.09948">
        <ele>491.16</ele>
        <time>2020-08-19T16:05:33.000Z</time>
      </trkpt>
      <trkpt lat="48.61134" lon="7.09958">
        <ele>491.48</ele>
        <time>2020-08-19T16:05:35.000Z</time>
      </trkpt>
      <trkpt lat="48.61134" lon="7.09967">
        <ele>490.48</ele>
        <time>2020-08-19T16:05:37.000Z</time>
      </trkpt>
      <trkpt lat="48.61134" lon="7.09978">
        <ele>492.29</ele>
        <time>2020-08-19T16:05:40.000Z</time>
      </trkpt>
      <trkpt lat="48.61135" lon="7.09986">
        <ele>491.31</ele>
        <time>2020-08-19T16:05:42.000Z</time>
      </trkpt>
      <trkpt lat="48.61137" lon="7.09996">
        <ele>492.9</ele>
        <time>2020-08-19T16:05:45.000Z</time>
      </trkpt>
      <trkpt lat="48.61137" lon="7.10004">
        <ele>492.63</ele>
        <time>2020-08-19T16:05:47.000Z</time>
      </trkpt>
      <trkpt lat="48.61139" lon="7.10011">
        <ele>491.41</ele>
        <time>2020-08-19T16:05:49.000Z</time>
      </trkpt>
      <trkpt lat="48.61143" lon="7.10016">
        <ele>489.63</ele>
        <time>2020-08-19T16:05:51.000Z</time>
      </trkpt>
      <trkpt lat="48.61145" lon="7.10025">
        <ele>488.83</ele>
        <time>2020-08-19T16:05:54.000Z</time>
      </trkpt>
      <trkpt lat="48.61147" lon="7.10031">
        <ele>489.95</ele>
        <time>2020-08-19T16:05:56.000Z</time>
      </trkpt>
      <trkpt lat="48.61147" lon="7.10041">
        <ele>489.41</ele>
        <time>2020-08-19T16:05:59.000Z</time>
      </trkpt>
      <trkpt lat="48.61145" lon="7.1005">
        <ele>489.8</ele>
        <time>2020-08-19T16:06:01.000Z</time>
      </trkpt>
      <trkpt lat="48.61144" lon="7.10057">
        <ele>488.56</ele>
        <time>2020-08-19T16:06:03.000Z</time>
      </trkpt>
      <trkpt lat="48.61145" lon="7.10065">
        <ele>487.95</ele>
        <time>2020-08-19T16:06:05.000Z</time>
      </trkpt>
      <trkpt lat="48.61146" lon="7.10074">
        <ele>484.5</ele>
        <time>2020-08-19T16:06:07.000Z</time>
      </trkpt>
      <trkpt lat="48.61147" lon="7.10082">
        <ele>484.36</ele>
        <time>2020-08-19T16:06:09.000Z</time>
      </trkpt>
      <trkpt lat="48.61148" lon="7.10091">
        <ele>485.41</ele>
        <time>2020-08-19T16:06:11.000Z</time>
      </trkpt>
      <trkpt lat="48.6115" lon="7.10099">
        <ele>487.75</ele>
        <time>2020-08-19T16:06:13.000Z</time>
      </trkpt>
      <trkpt lat="48.61152" lon="7.10107">
        <ele>489.04</ele>
        <time>2020-08-19T16:06:15.000Z</time>
      </trkpt>
      <trkpt lat="48.6115" lon="7.10116">
        <ele>490.63</ele>
        <time>2020-08-19T16:06:17.000Z</time>
      </trkpt>
      <trkpt lat="48.61149" lon="7.10124">
        <ele>489.07</ele>
        <time>2020-08-19T16:06:19.000Z</time>
      </trkpt>
      <trkpt lat="48.61151" lon="7.10134">
        <ele>487.61</ele>
        <time>2020-08-19T16:06:22.000Z</time>
      </trkpt>
      <trkpt lat="48.61152" lon="7.10143">
        <ele>487.85</ele>
        <time>2020-08-19T16:06:24.000Z</time>
      </trkpt>
      <trkpt lat="48.61152" lon="7.10152">
        <ele>488.95</ele>
        <time>2020-08-19T16:06:26.000Z</time>
      </trkpt>
      <trkpt lat="48.61153" lon="7.10163">
        <ele>490.25</ele>
        <time>2020-08-19T16:06:29.000Z</time>
      </trkpt>
      <trkpt lat="48.61153" lon="7.10171">
        <ele>491.23</ele>
        <time>2020-08-19T16:06:31.000Z</time>
      </trkpt>
      <trkpt lat="48.61151" lon="7.10179">
        <ele>494.32</ele>
        <time>2020-08-19T16:06:33.000Z</time>
      </trkpt>
      <trkpt lat="48.6115" lon="7.10188">
        <ele>501.24</ele>
        <time>2020-08-19T16:06:36.000Z</time>
      </trkpt>
      <trkpt lat="48.61151" lon="7.10196">
        <ele>500.17</ele>
        <time>2020-08-19T16:06:38.000Z</time>
      </trkpt>
      <trkpt lat="48.61154" lon="7.10202">
        <ele>498.69</ele>
        <time>2020-08-19T16:06:40.000Z</time>
      </trkpt>
      <trkpt lat="48.61159" lon="7.10209">
        <ele>499.26</ele>
        <time>2020-08-19T16:06:43.000Z</time>
      </trkpt>
      <trkpt lat="48.61162" lon="7.10215">
        <ele>503.58</ele>
        <time>2020-08-19T16:06:45.000Z</time>
      </trkpt>
      <trkpt lat="48.61166" lon="7.10218">
        <ele>507.16</ele>
        <time>2020-08-19T16:06:47.000Z</time>
      </trkpt>
      <trkpt lat="48.61171" lon="7.10221">
        <ele>507.88</ele>
        <time>2020-08-19T16:06:49.000Z</time>
      </trkpt>
      <trkpt lat="48.61176" lon="7.10225">
        <ele>510.46</ele>
        <time>2020-08-19T16:06:51.000Z</time>
      </trkpt>
      <trkpt lat="48.61182" lon="7.10232">
        <ele>510.93</ele>
        <time>2020-08-19T16:06:54.000Z</time>
      </trkpt>
      <trkpt lat="48.61187" lon="7.10238">
        <ele>510.32</ele>
        <time>2020-08-19T16:06:56.000Z</time>
      </trkpt>
      <trkpt lat="48.6119" lon="7.10244">
        <ele>510.37</ele>
        <time>2020-08-19T16:06:58.000Z</time>
      </trkpt>
      <trkpt lat="48.61191" lon="7.10252">
        <ele>510.74</ele>
        <time>2020-08-19T16:07:00.000Z</time>
      </trkpt>
      <trkpt lat="48.6119" lon="7.10259">
        <ele>509.03</ele>
        <time>2020-08-19T16:07:06.000Z</time>
      </trkpt>
      <trkpt lat="48.6119" lon="7.10266">
        <ele>508.05</ele>
        <time>2020-08-19T16:07:13.000Z</time>
      </trkpt>
      <trkpt lat="48.6119" lon="7.10273">
        <ele>508.29</ele>
        <time>2020-08-19T16:07:16.000Z</time>
      </trkpt>
      <trkpt lat="48.61189" lon="7.10282">
        <ele>509.34</ele>
        <time>2020-08-19T16:07:19.000Z</time>
      </trkpt>
      <trkpt lat="48.61187" lon="7.10291">
        <ele>511.65</ele>
        <time>2020-08-19T16:07:22.000Z</time>
      </trkpt>
      <trkpt lat="48.61186" lon="7.10298">
        <ele>511.25</ele>
        <time>2020-08-19T16:07:25.000Z</time>
      </trkpt>
      <trkpt lat="48.61186" lon="7.10307">
        <ele>510.51</ele>
        <time>2020-08-19T16:07:28.000Z</time>
      </trkpt>
      <trkpt lat="48.61185" lon="7.10314">
        <ele>508.07</ele>
        <time>2020-08-19T16:07:31.000Z</time>
      </trkpt>
      <trkpt lat="48.61183" lon="7.10321">
        <ele>508.54</ele>
        <time>2020-08-19T16:07:34.000Z</time>
      </trkpt>
      <trkpt lat="48.61179" lon="7.10331">
        <ele>506.78</ele>
        <time>2020-08-19T16:07:37.000Z</time>
      </trkpt>
      <trkpt lat="48.61176" lon="7.10338">
        <ele>508.19</ele>
        <time>2020-08-19T16:07:39.000Z</time>
      </trkpt>
      <trkpt lat="48.61174" lon="7.10345">
        <ele>510.09</ele>
        <time>2020-08-19T16:07:41.000Z</time>
      </trkpt>
      <trkpt lat="48.6117" lon="7.10352">
        <ele>509.56</ele>
        <time>2020-08-19T16:07:43.000Z</time>
      </trkpt>
      <trkpt lat="48.61168" lon="7.1036">
        <ele>510.86</ele>
        <time>2020-08-19T16:07:45.000Z</time>
      </trkpt>
      <trkpt lat="48.61168" lon="7.10368">
        <ele>510.7</ele>
        <time>2020-08-19T16:07:47.000Z</time>
      </trkpt>
      <trkpt lat="48.61168" lon="7.10377">
        <ele>512.17</ele>
        <time>2020-08-19T16:07:49.000Z</time>
      </trkpt>
      <trkpt lat="48.61171" lon="7.10385">
        <ele>512.23</ele>
        <time>2020-08-19T16:07:51.000Z</time>
      </trkpt>
      <trkpt lat="48.61172" lon="7.10392">
        <ele>513.37</ele>
        <time>2020-08-19T16:07:53.000Z</time>
      </trkpt>
      <trkpt lat="48.61171" lon="7.10401">
        <ele>514.52</ele>
        <time>2020-08-19T16:07:55.000Z</time>
      </trkpt>
      <trkpt lat="48.6117" lon="7.10409">
        <ele>515</ele>
        <time>2020-08-19T16:07:57.000Z</time>
      </trkpt>
      <trkpt lat="48.6117" lon="7.10419">
        <ele>514.22</ele>
        <time>2020-08-19T16:08:00.000Z</time>
      </trkpt>
      <trkpt lat="48.6117" lon="7.10428">
        <ele>518.79</ele>
        <time>2020-08-19T16:08:03.000Z</time>
      </trkpt>
      <trkpt lat="48.6117" lon="7.10436">
        <ele>520.9</ele>
        <time>2020-08-19T16:08:05.000Z</time>
      </trkpt>
      <trkpt lat="48.6117" lon="7.10445">
        <ele>522.94</ele>
        <time>2020-08-19T16:08:07.000Z</time>
      </trkpt>
      <trkpt lat="48.61171" lon="7.10452">
        <ele>523.5</ele>
        <time>2020-08-19T16:08:09.000Z</time>
      </trkpt>
      <trkpt lat="48.61173" lon="7.10461">
        <ele>523.89</ele>
        <time>2020-08-19T16:08:11.000Z</time>
      </trkpt>
      <trkpt lat="48.61172" lon="7.10469">
        <ele>523.92</ele>
        <time>2020-08-19T16:08:13.000Z</time>
      </trkpt>
      <trkpt lat="48.61173" lon="7.10478">
        <ele>524.3</ele>
        <time>2020-08-19T16:08:15.000Z</time>
      </trkpt>
      <trkpt lat="48.61174" lon="7.10487">
        <ele>521.98</ele>
        <time>2020-08-19T16:08:17.000Z</time>
      </trkpt>
      <trkpt lat="48.61176" lon="7.10495">
        <ele>523.39</ele>
        <time>2020-08-19T16:08:19.000Z</time>
      </trkpt>
      <trkpt lat="48.61177" lon="7.10503">
        <ele>525.7</ele>
        <time>2020-08-19T16:08:21.000Z</time>
      </trkpt>
      <trkpt lat="48.61178" lon="7.10512">
        <ele>528.4</ele>
        <time>2020-08-19T16:08:24.000Z</time>
      </trkpt>
      <trkpt lat="48.61178" lon="7.1052">
        <ele>528.49</ele>
        <time>2020-08-19T16:08:26.000Z</time>
      </trkpt>
      <trkpt lat="48.61179" lon="7.10528">
        <ele>528.58</ele>
        <time>2020-08-19T16:08:28.000Z</time>
      </trkpt>
      <trkpt lat="48.6118" lon="7.10538">
        <ele>526</ele>
        <time>2020-08-19T16:08:30.000Z</time>
      </trkpt>
      <trkpt lat="48.6118" lon="7.10549">
        <ele>526.13</ele>
        <time>2020-08-19T16:08:32.000Z</time>
      </trkpt>
      <trkpt lat="48.61179" lon="7.10561">
        <ele>526</ele>
        <time>2020-08-19T16:08:34.000Z</time>
      </trkpt>
      <trkpt lat="48.6118" lon="7.1057">
        <ele>525.98</ele>
        <time>2020-08-19T16:08:36.000Z</time>
      </trkpt>
      <trkpt lat="48.61182" lon="7.1058">
        <ele>526.23</ele>
        <time>2020-08-19T16:08:38.000Z</time>
      </trkpt>
      <trkpt lat="48.61184" lon="7.10591">
        <ele>527.91</ele>
        <time>2020-08-19T16:08:40.000Z</time>
      </trkpt>
      <trkpt lat="48.61186" lon="7.10602">
        <ele>529.39</ele>
        <time>2020-08-19T16:08:42.000Z</time>
      </trkpt>
      <trkpt lat="48.61186" lon="7.10614">
        <ele>531.14</ele>
        <time>2020-08-19T16:08:44.000Z</time>
      </trkpt>
      <trkpt lat="48.61186" lon="7.10625">
        <ele>531.99</ele>
        <time>2020-08-19T16:08:46.000Z</time>
      </trkpt>
      <trkpt lat="48.61186" lon="7.10637">
        <ele>529.93</ele>
        <time>2020-08-19T16:08:48.000Z</time>
      </trkpt>
      <trkpt lat="48.61186" lon="7.10647">
        <ele>529.01</ele>
        <time>2020-08-19T16:08:50.000Z</time>
      </trkpt>
      <trkpt lat="48.61186" lon="7.10659">
        <ele>529.95</ele>
        <time>2020-08-19T16:08:52.000Z</time>
      </trkpt>
      <trkpt lat="48.61186" lon="7.1067">
        <ele>530.62</ele>
        <time>2020-08-19T16:08:54.000Z</time>
      </trkpt>
      <trkpt lat="48.61187" lon="7.1068">
        <ele>535.18</ele>
        <time>2020-08-19T16:08:56.000Z</time>
      </trkpt>
      <trkpt lat="48.6119" lon="7.10692">
        <ele>535.83</ele>
        <time>2020-08-19T16:08:58.000Z</time>
      </trkpt>
      <trkpt lat="48.61193" lon="7.10702">
        <ele>536.07</ele>
        <time>2020-08-19T16:09:00.000Z</time>
      </trkpt>
      <trkpt lat="48.61203" lon="7.10716">
        <ele>537.28</ele>
        <time>2020-08-19T16:09:02.000Z</time>
      </trkpt>
      <trkpt lat="48.61205" lon="7.10723">
        <ele>535.66</ele>
        <time>2020-08-19T16:09:03.000Z</time>
      </trkpt>
      <trkpt lat="48.61206" lon="7.10729">
        <ele>537</ele>
        <time>2020-08-19T16:09:04.000Z</time>
      </trkpt>
      <trkpt lat="48.61208" lon="7.10742">
        <ele>537.24</ele>
        <time>2020-08-19T16:09:06.000Z</time>
      </trkpt>
      <trkpt lat="48.61212" lon="7.10747">
        <ele>538.78</ele>
        <time>2020-08-19T16:09:08.000Z</time>
      </trkpt>
      <trkpt lat="48.61214" lon="7.10756">
        <ele>535.5</ele>
        <time>2020-08-19T16:09:10.000Z</time>
      </trkpt>
      <trkpt lat="48.61215" lon="7.10764">
        <ele>534.27</ele>
        <time>2020-08-19T16:09:11.000Z</time>
      </trkpt>
      <trkpt lat="48.61219" lon="7.10768">
        <ele>535.08</ele>
        <time>2020-08-19T16:09:13.000Z</time>
      </trkpt>
      <trkpt lat="48.6122" lon="7.10775">
        <ele>534.18</ele>
        <time>2020-08-19T16:09:26.000Z</time>
      </trkpt>
      <trkpt lat="48.61224" lon="7.10782">
        <ele>535.19</ele>
        <time>2020-08-19T16:09:28.000Z</time>
      </trkpt>
      <trkpt lat="48.61226" lon="7.10794">
        <ele>535.74</ele>
        <time>2020-08-19T16:09:30.000Z</time>
      </trkpt>
      <trkpt lat="48.61229" lon="7.10807">
        <ele>536.5</ele>
        <time>2020-08-19T16:09:32.000Z</time>
      </trkpt>
      <trkpt lat="48.61234" lon="7.10825">
        <ele>533.52</ele>
        <time>2020-08-19T16:09:34.000Z</time>
      </trkpt>
      <trkpt lat="48.61236" lon="7.10833">
        <ele>532.22</ele>
        <time>2020-08-19T16:09:35.000Z</time>
      </trkpt>
      <trkpt lat="48.61237" lon="7.10842">
        <ele>531.31</ele>
        <time>2020-08-19T16:09:36.000Z</time>
      </trkpt>
      <trkpt lat="48.61237" lon="7.10851">
        <ele>531.31</ele>
        <time>2020-08-19T16:09:37.000Z</time>
      </trkpt>
      <trkpt lat="48.6124" lon="7.10858">
        <ele>531.1</ele>
        <time>2020-08-19T16:09:38.000Z</time>
      </trkpt>
      <trkpt lat="48.61242" lon="7.10868">
        <ele>531.02</ele>
        <time>2020-08-19T16:09:39.000Z</time>
      </trkpt>
      <trkpt lat="48.61243" lon="7.10876">
        <ele>529.86</ele>
        <time>2020-08-19T16:09:40.000Z</time>
      </trkpt>
      <trkpt lat="48.61244" lon="7.10883">
        <ele>528.44</ele>
        <time>2020-08-19T16:09:41.000Z</time>
      </trkpt>
      <trkpt lat="48.61246" lon="7.1089">
        <ele>528.43</ele>
        <time>2020-08-19T16:09:42.000Z</time>
      </trkpt>
      <trkpt lat="48.61249" lon="7.10899">
        <ele>528.35</ele>
        <time>2020-08-19T16:09:44.000Z</time>
      </trkpt>
      <trkpt lat="48.61247" lon="7.10906">
        <ele>525.23</ele>
        <time>2020-08-19T16:10:09.000Z</time>
      </trkpt>
      <trkpt lat="48.61242" lon="7.10912">
        <ele>525.43</ele>
        <time>2020-08-19T16:10:11.000Z</time>
      </trkpt>
      <trkpt lat="48.61235" lon="7.10912">
        <ele>525.75</ele>
        <time>2020-08-19T16:10:13.000Z</time>
      </trkpt>
      <trkpt lat="48.6123" lon="7.10911">
        <ele>526.11</ele>
        <time>2020-08-19T16:10:15.000Z</time>
      </trkpt>
      <trkpt lat="48.61225" lon="7.10912">
        <ele>526.88</ele>
        <time>2020-08-19T16:10:17.000Z</time>
      </trkpt>
      <trkpt lat="48.61218" lon="7.10916">
        <ele>526.81</ele>
        <time>2020-08-19T16:10:20.000Z</time>
      </trkpt>
      <trkpt lat="48.61212" lon="7.10913">
        <ele>521.85</ele>
        <time>2020-08-19T16:10:48.000Z</time>
      </trkpt>
      <trkpt lat="48.61207" lon="7.1091">
        <ele>523.28</ele>
        <time>2020-08-19T16:10:50.000Z</time>
      </trkpt>
      <trkpt lat="48.61201" lon="7.1091">
        <ele>522.21</ele>
        <time>2020-08-19T16:10:52.000Z</time>
      </trkpt>
      <trkpt lat="48.61196" lon="7.10908">
        <ele>521.16</ele>
        <time>2020-08-19T16:10:54.000Z</time>
      </trkpt>
      <trkpt lat="48.61189" lon="7.10904">
        <ele>523.33</ele>
        <time>2020-08-19T16:10:56.000Z</time>
      </trkpt>
      <trkpt lat="48.61184" lon="7.10902">
        <ele>522.71</ele>
        <time>2020-08-19T16:10:58.000Z</time>
      </trkpt>
      <trkpt lat="48.61179" lon="7.109">
        <ele>518.45</ele>
        <time>2020-08-19T16:11:00.000Z</time>
      </trkpt>
      <trkpt lat="48.61152" lon="7.10883">
        <ele>520.63</ele>
        <time>2020-08-19T16:11:07.000Z</time>
      </trkpt>
      <trkpt lat="48.61144" lon="7.10886">
        <ele>521.58</ele>
        <time>2020-08-19T16:11:09.000Z</time>
      </trkpt>
      <trkpt lat="48.6114" lon="7.1088">
        <ele>521.54</ele>
        <time>2020-08-19T16:11:12.000Z</time>
      </trkpt>
      <trkpt lat="48.6113" lon="7.10875">
        <ele>521</ele>
        <time>2020-08-19T16:11:15.000Z</time>
      </trkpt>
      <trkpt lat="48.61123" lon="7.10873">
        <ele>522.44</ele>
        <time>2020-08-19T16:11:17.000Z</time>
      </trkpt>
      <trkpt lat="48.61117" lon="7.1087">
        <ele>517.94</ele>
        <time>2020-08-19T16:11:19.000Z</time>
      </trkpt>
      <trkpt lat="48.61111" lon="7.10864">
        <ele>516.97</ele>
        <time>2020-08-19T16:11:21.000Z</time>
      </trkpt>
      <trkpt lat="48.61106" lon="7.10859">
        <ele>515.62</ele>
        <time>2020-08-19T16:11:23.000Z</time>
      </trkpt>
      <trkpt lat="48.61103" lon="7.10854">
        <ele>550.53</ele>
        <time>2020-08-19T16:11:25.000Z</time>
      </trkpt>
      <trkpt lat="48.61101" lon="7.10847">
        <ele>542.93</ele>
        <time>2020-08-19T16:11:27.000Z</time>
      </trkpt>
      <trkpt lat="48.61095" lon="7.10843">
        <ele>538.95</ele>
        <time>2020-08-19T16:11:29.000Z</time>
      </trkpt>
      <trkpt lat="48.61088" lon="7.10842">
        <ele>538.16</ele>
        <time>2020-08-19T16:11:31.000Z</time>
      </trkpt>
      <trkpt lat="48.61082" lon="7.10841">
        <ele>538.59</ele>
        <time>2020-08-19T16:11:33.000Z</time>
      </trkpt>
      <trkpt lat="48.61076" lon="7.10843">
        <ele>539.04</ele>
        <time>2020-08-19T16:11:35.000Z</time>
      </trkpt>
      <trkpt lat="48.61069" lon="7.10843">
        <ele>537.93</ele>
        <time>2020-08-19T16:11:37.000Z</time>
      </trkpt>
      <trkpt lat="48.61062" lon="7.10839">
        <ele>530.96</ele>
        <time>2020-08-19T16:11:39.000Z</time>
      </trkpt>
      <trkpt lat="48.61056" lon="7.10837">
        <ele>527.61</ele>
        <time>2020-08-19T16:11:41.000Z</time>
      </trkpt>
      <trkpt lat="48.61048" lon="7.10835">
        <ele>525.05</ele>
        <time>2020-08-19T16:11:43.000Z</time>
      </trkpt>
      <trkpt lat="48.6104" lon="7.10833">
        <ele>525.16</ele>
        <time>2020-08-19T16:11:45.000Z</time>
      </trkpt>
      <trkpt lat="48.61032" lon="7.10832">
        <ele>525.8</ele>
        <time>2020-08-19T16:11:47.000Z</time>
      </trkpt>
      <trkpt lat="48.61026" lon="7.10832">
        <ele>525.61</ele>
        <time>2020-08-19T16:11:49.000Z</time>
      </trkpt>
      <trkpt lat="48.61022" lon="7.10832">
        <ele>524</ele>
        <time>2020-08-19T16:11:55.000Z</time>
      </trkpt>
      <trkpt lat="48.61017" lon="7.10837">
        <ele>521.21</ele>
        <time>2020-08-19T16:12:09.000Z</time>
      </trkpt>
      <trkpt lat="48.61011" lon="7.10837">
        <ele>522.75</ele>
        <time>2020-08-19T16:12:13.000Z</time>
      </trkpt>
      <trkpt lat="48.61005" lon="7.10836">
        <ele>522.18</ele>
        <time>2020-08-19T16:12:15.000Z</time>
      </trkpt>
      <trkpt lat="48.60999" lon="7.10834">
        <ele>519.42</ele>
        <time>2020-08-19T16:12:17.000Z</time>
      </trkpt>
      <trkpt lat="48.60963" lon="7.10816">
        <ele>514.14</ele>
        <time>2020-08-19T16:12:24.000Z</time>
      </trkpt>
      <trkpt lat="48.60957" lon="7.10813">
        <ele>514.53</ele>
        <time>2020-08-19T16:12:25.000Z</time>
      </trkpt>
      <trkpt lat="48.60949" lon="7.10808">
        <ele>516.87</ele>
        <time>2020-08-19T16:12:26.000Z</time>
      </trkpt>
      <trkpt lat="48.60945" lon="7.10801">
        <ele>515.05</ele>
        <time>2020-08-19T16:12:27.000Z</time>
      </trkpt>
      <trkpt lat="48.60939" lon="7.10799">
        <ele>515.65</ele>
        <time>2020-08-19T16:12:28.000Z</time>
      </trkpt>
      <trkpt lat="48.6093" lon="7.10796">
        <ele>515.83</ele>
        <time>2020-08-19T16:12:29.000Z</time>
      </trkpt>
      <trkpt lat="48.60924" lon="7.10796">
        <ele>516.24</ele>
        <time>2020-08-19T16:12:30.000Z</time>
      </trkpt>
      <trkpt lat="48.60919" lon="7.10794">
        <ele>516.04</ele>
        <time>2020-08-19T16:12:31.000Z</time>
      </trkpt>
      <trkpt lat="48.60914" lon="7.10792">
        <ele>514.61</ele>
        <time>2020-08-19T16:12:32.000Z</time>
      </trkpt>
      <trkpt lat="48.60909" lon="7.1079">
        <ele>515.84</ele>
        <time>2020-08-19T16:12:34.000Z</time>
      </trkpt>
      <trkpt lat="48.60902" lon="7.10786">
        <ele>518.75</ele>
        <time>2020-08-19T16:12:42.000Z</time>
      </trkpt>
      <trkpt lat="48.60896" lon="7.10781">
        <ele>519.11</ele>
        <time>2020-08-19T16:12:44.000Z</time>
      </trkpt>
      <trkpt lat="48.60889" lon="7.10775">
        <ele>516.05</ele>
        <time>2020-08-19T16:12:46.000Z</time>
      </trkpt>
      <trkpt lat="48.60883" lon="7.10773">
        <ele>515.56</ele>
        <time>2020-08-19T16:12:47.000Z</time>
      </trkpt>
      <trkpt lat="48.60875" lon="7.10769">
        <ele>515.18</ele>
        <time>2020-08-19T16:12:49.000Z</time>
      </trkpt>
      <trkpt lat="48.60868" lon="7.10769">
        <ele>515.05</ele>
        <time>2020-08-19T16:12:50.000Z</time>
      </trkpt>
      <trkpt lat="48.60863" lon="7.10768">
        <ele>514.16</ele>
        <time>2020-08-19T16:12:51.000Z</time>
      </trkpt>
      <trkpt lat="48.60853" lon="7.10768">
        <ele>512.74</ele>
        <time>2020-08-19T16:12:53.000Z</time>
      </trkpt>
      <trkpt lat="48.60848" lon="7.10768">
        <ele>511.58</ele>
        <time>2020-08-19T16:12:54.000Z</time>
      </trkpt>
      <trkpt lat="48.60842" lon="7.10768">
        <ele>510.64</ele>
        <time>2020-08-19T16:12:55.000Z</time>
      </trkpt>
      <trkpt lat="48.60833" lon="7.10764">
        <ele>507.97</ele>
        <time>2020-08-19T16:12:57.000Z</time>
      </trkpt>
      <trkpt lat="48.60828" lon="7.10765">
        <ele>507.59</ele>
        <time>2020-08-19T16:12:58.000Z</time>
      </trkpt>
      <trkpt lat="48.60823" lon="7.10765">
        <ele>506.77</ele>
        <time>2020-08-19T16:12:59.000Z</time>
      </trkpt>
      <trkpt lat="48.60808" lon="7.10768">
        <ele>502.34</ele>
        <time>2020-08-19T16:13:01.000Z</time>
      </trkpt>
      <trkpt lat="48.60801" lon="7.10769">
        <ele>502.37</ele>
        <time>2020-08-19T16:13:02.000Z</time>
      </trkpt>
      <trkpt lat="48.60795" lon="7.10769">
        <ele>501.82</ele>
        <time>2020-08-19T16:13:03.000Z</time>
      </trkpt>
      <trkpt lat="48.60763" lon="7.10773">
        <ele>503.52</ele>
        <time>2020-08-19T16:13:07.000Z</time>
      </trkpt>
      <trkpt lat="48.60757" lon="7.10776">
        <ele>504.71</ele>
        <time>2020-08-19T16:13:08.000Z</time>
      </trkpt>
      <trkpt lat="48.60755" lon="7.10784">
        <ele>503.75</ele>
        <time>2020-08-19T16:13:09.000Z</time>
      </trkpt>
      <trkpt lat="48.60749" lon="7.10787">
        <ele>504.94</ele>
        <time>2020-08-19T16:13:10.000Z</time>
      </trkpt>
      <trkpt lat="48.60744" lon="7.1079">
        <ele>506.17</ele>
        <time>2020-08-19T16:13:11.000Z</time>
      </trkpt>
      <trkpt lat="48.6074" lon="7.10792">
        <ele>506.83</ele>
        <time>2020-08-19T16:13:12.000Z</time>
      </trkpt>
      <trkpt lat="48.60735" lon="7.10797">
        <ele>506.5</ele>
        <time>2020-08-19T16:13:14.000Z</time>
      </trkpt>
      <trkpt lat="48.6073" lon="7.10799">
        <ele>505.07</ele>
        <time>2020-08-19T16:13:16.000Z</time>
      </trkpt>
      <trkpt lat="48.60726" lon="7.10804">
        <ele>504.57</ele>
        <time>2020-08-19T16:13:17.000Z</time>
      </trkpt>
      <trkpt lat="48.60711" lon="7.10811">
        <ele>504.49</ele>
        <time>2020-08-19T16:13:19.000Z</time>
      </trkpt>
      <trkpt lat="48.60706" lon="7.10811">
        <ele>505.21</ele>
        <time>2020-08-19T16:13:20.000Z</time>
      </trkpt>
      <trkpt lat="48.60701" lon="7.10812">
        <ele>503.11</ele>
        <time>2020-08-19T16:13:21.000Z</time>
      </trkpt>
      <trkpt lat="48.60695" lon="7.10813">
        <ele>504.58</ele>
        <time>2020-08-19T16:13:22.000Z</time>
      </trkpt>
      <trkpt lat="48.6069" lon="7.10813">
        <ele>504.33</ele>
        <time>2020-08-19T16:13:23.000Z</time>
      </trkpt>
      <trkpt lat="48.60682" lon="7.10817">
        <ele>504.45</ele>
        <time>2020-08-19T16:13:24.000Z</time>
      </trkpt>
      <trkpt lat="48.60672" lon="7.10823">
        <ele>503.18</ele>
        <time>2020-08-19T16:13:26.000Z</time>
      </trkpt>
      <trkpt lat="48.60668" lon="7.10829">
        <ele>505.28</ele>
        <time>2020-08-19T16:13:28.000Z</time>
      </trkpt>
      <trkpt lat="48.60663" lon="7.10831">
        <ele>502.63</ele>
        <time>2020-08-19T16:13:36.000Z</time>
      </trkpt>
      <trkpt lat="48.60656" lon="7.10835">
        <ele>503.12</ele>
        <time>2020-08-19T16:13:54.000Z</time>
      </trkpt>
      <trkpt lat="48.60653" lon="7.10844">
        <ele>503.99</ele>
        <time>2020-08-19T16:13:56.000Z</time>
      </trkpt>
      <trkpt lat="48.60653" lon="7.10852">
        <ele>504.57</ele>
        <time>2020-08-19T16:13:58.000Z</time>
      </trkpt>
      <trkpt lat="48.60657" lon="7.10861">
        <ele>504.12</ele>
        <time>2020-08-19T16:14:00.000Z</time>
      </trkpt>
      <trkpt lat="48.60657" lon="7.10868">
        <ele>500.27</ele>
        <time>2020-08-19T16:14:14.000Z</time>
      </trkpt>
      <trkpt lat="48.6066" lon="7.10875">
        <ele>501.58</ele>
        <time>2020-08-19T16:14:16.000Z</time>
      </trkpt>
      <trkpt lat="48.60661" lon="7.10883">
        <ele>498.82</ele>
        <time>2020-08-19T16:14:18.000Z</time>
      </trkpt>
      <trkpt lat="48.60662" lon="7.10894">
        <ele>498.69</ele>
        <time>2020-08-19T16:14:20.000Z</time>
      </trkpt>
      <trkpt lat="48.60664" lon="7.10905">
        <ele>497.83</ele>
        <time>2020-08-19T16:14:22.000Z</time>
      </trkpt>
      <trkpt lat="48.60665" lon="7.10912">
        <ele>496.61</ele>
        <time>2020-08-19T16:14:24.000Z</time>
      </trkpt>
      <trkpt lat="48.60662" lon="7.10918">
        <ele>495.44</ele>
        <time>2020-08-19T16:14:26.000Z</time>
      </trkpt>
      <trkpt lat="48.60666" lon="7.10921">
        <ele>496.84</ele>
        <time>2020-08-19T16:14:32.000Z</time>
      </trkpt>
      <trkpt lat="48.60666" lon="7.10928">
        <ele>498.94</ele>
        <time>2020-08-19T16:14:42.000Z</time>
      </trkpt>
      <trkpt lat="48.6067" lon="7.1094">
        <ele>565.66</ele>
        <time>2020-08-19T16:14:44.000Z</time>
      </trkpt>
      <trkpt lat="48.60678" lon="7.10953">
        <ele>535.98</ele>
        <time>2020-08-19T16:14:46.000Z</time>
      </trkpt>
      <trkpt lat="48.60678" lon="7.1097">
        <ele>525.41</ele>
        <time>2020-08-19T16:14:48.000Z</time>
      </trkpt>
      <trkpt lat="48.60679" lon="7.10981">
        <ele>512.79</ele>
        <time>2020-08-19T16:14:49.000Z</time>
      </trkpt>
      <trkpt lat="48.60682" lon="7.10995">
        <ele>507.05</ele>
        <time>2020-08-19T16:14:51.000Z</time>
      </trkpt>
      <trkpt lat="48.60686" lon="7.11004">
        <ele>506.08</ele>
        <time>2020-08-19T16:14:52.000Z</time>
      </trkpt>
      <trkpt lat="48.60698" lon="7.11046">
        <ele>498.7</ele>
        <time>2020-08-19T16:14:56.000Z</time>
      </trkpt>
      <trkpt lat="48.60701" lon="7.11056">
        <ele>498.79</ele>
        <time>2020-08-19T16:14:57.000Z</time>
      </trkpt>
      <trkpt lat="48.60707" lon="7.11077">
        <ele>497.14</ele>
        <time>2020-08-19T16:14:59.000Z</time>
      </trkpt>
      <trkpt lat="48.60709" lon="7.11085">
        <ele>496.19</ele>
        <time>2020-08-19T16:15:00.000Z</time>
      </trkpt>
      <trkpt lat="48.60713" lon="7.11092">
        <ele>496.17</ele>
        <time>2020-08-19T16:15:01.000Z</time>
      </trkpt>
      <trkpt lat="48.60716" lon="7.11096">
        <ele>577.68</ele>
        <time>2020-08-19T16:15:02.000Z</time>
      </trkpt>
      <trkpt lat="48.60721" lon="7.11103">
        <ele>501.38</ele>
        <time>2020-08-19T16:15:13.000Z</time>
      </trkpt>
      <trkpt lat="48.60721" lon="7.1111">
        <ele>496.55</ele>
        <time>2020-08-19T16:15:14.000Z</time>
      </trkpt>
      <trkpt lat="48.60726" lon="7.11118">
        <ele>496.3</ele>
        <time>2020-08-19T16:15:15.000Z</time>
      </trkpt>
      <trkpt lat="48.6073" lon="7.11126">
        <ele>493.63</ele>
        <time>2020-08-19T16:15:16.000Z</time>
      </trkpt>
      <trkpt lat="48.60735" lon="7.11133">
        <ele>491.94</ele>
        <time>2020-08-19T16:15:17.000Z</time>
      </trkpt>
      <trkpt lat="48.60738" lon="7.11139">
        <ele>490.93</ele>
        <time>2020-08-19T16:15:18.000Z</time>
      </trkpt>
      <trkpt lat="48.60742" lon="7.11145">
        <ele>490.21</ele>
        <time>2020-08-19T16:15:19.000Z</time>
      </trkpt>
      <trkpt lat="48.60745" lon="7.11152">
        <ele>490.57</ele>
        <time>2020-08-19T16:15:20.000Z</time>
      </trkpt>
      <trkpt lat="48.60748" lon="7.11158">
        <ele>471.71</ele>
        <time>2020-08-19T16:15:21.000Z</time>
      </trkpt>
      <trkpt lat="48.60744" lon="7.11166">
        <ele>475.3</ele>
        <time>2020-08-19T16:15:22.000Z</time>
      </trkpt>
      <trkpt lat="48.60745" lon="7.11174">
        <ele>477.89</ele>
        <time>2020-08-19T16:15:23.000Z</time>
      </trkpt>
      <trkpt lat="48.60745" lon="7.11184">
        <ele>480.9</ele>
        <time>2020-08-19T16:15:25.000Z</time>
      </trkpt>
      <trkpt lat="48.60749" lon="7.1119">
        <ele>486.65</ele>
        <time>2020-08-19T16:15:39.000Z</time>
      </trkpt>
      <trkpt lat="48.60748" lon="7.11198">
        <ele>485.48</ele>
        <time>2020-08-19T16:15:41.000Z</time>
      </trkpt>
      <trkpt lat="48.6075" lon="7.11205">
        <ele>483.09</ele>
        <time>2020-08-19T16:15:42.000Z</time>
      </trkpt>
      <trkpt lat="48.6075" lon="7.11216">
        <ele>481.87</ele>
        <time>2020-08-19T16:15:44.000Z</time>
      </trkpt>
      <trkpt lat="48.60747" lon="7.11224">
        <ele>480.97</ele>
        <time>2020-08-19T16:15:45.000Z</time>
      </trkpt>
      <trkpt lat="48.60745" lon="7.11233">
        <ele>481.8</ele>
        <time>2020-08-19T16:15:46.000Z</time>
      </trkpt>
      <trkpt lat="48.60748" lon="7.11241">
        <ele>481.98</ele>
        <time>2020-08-19T16:15:47.000Z</time>
      </trkpt>
      <trkpt lat="48.60748" lon="7.11254">
        <ele>481.77</ele>
        <time>2020-08-19T16:15:49.000Z</time>
      </trkpt>
      <trkpt lat="48.60748" lon="7.11261">
        <ele>481.89</ele>
        <time>2020-08-19T16:15:50.000Z</time>
      </trkpt>
      <trkpt lat="48.60751" lon="7.11268">
        <ele>481.57</ele>
        <time>2020-08-19T16:15:51.000Z</time>
      </trkpt>
      <trkpt lat="48.60753" lon="7.11288">
        <ele>476.79</ele>
        <time>2020-08-19T16:15:53.000Z</time>
      </trkpt>
      <trkpt lat="48.60753" lon="7.11301">
        <ele>475.81</ele>
        <time>2020-08-19T16:15:55.000Z</time>
      </trkpt>
      <trkpt lat="48.60758" lon="7.11308">
        <ele>472.68</ele>
        <time>2020-08-19T16:15:56.000Z</time>
      </trkpt>
      <trkpt lat="48.60758" lon="7.11315">
        <ele>472.57</ele>
        <time>2020-08-19T16:15:57.000Z</time>
      </trkpt>
      <trkpt lat="48.60758" lon="7.11324">
        <ele>474.51</ele>
        <time>2020-08-19T16:15:58.000Z</time>
      </trkpt>
      <trkpt lat="48.60758" lon="7.11331">
        <ele>472.8</ele>
        <time>2020-08-19T16:15:59.000Z</time>
      </trkpt>
      <trkpt lat="48.60754" lon="7.11349">
        <ele>470.34</ele>
        <time>2020-08-19T16:16:01.000Z</time>
      </trkpt>
      <trkpt lat="48.60758" lon="7.11355">
        <ele>470.99</ele>
        <time>2020-08-19T16:16:02.000Z</time>
      </trkpt>
      <trkpt lat="48.60756" lon="7.11365">
        <ele>471.16</ele>
        <time>2020-08-19T16:16:03.000Z</time>
      </trkpt>
      <trkpt lat="48.60755" lon="7.11373">
        <ele>472.83</ele>
        <time>2020-08-19T16:16:04.000Z</time>
      </trkpt>
      <trkpt lat="48.60757" lon="7.11381">
        <ele>471.23</ele>
        <time>2020-08-19T16:16:05.000Z</time>
      </trkpt>
      <trkpt lat="48.60759" lon="7.11389">
        <ele>472.11</ele>
        <time>2020-08-19T16:16:06.000Z</time>
      </trkpt>
      <trkpt lat="48.60756" lon="7.11395">
        <ele>470.94</ele>
        <time>2020-08-19T16:16:07.000Z</time>
      </trkpt>
      <trkpt lat="48.60762" lon="7.11399">
        <ele>468.89</ele>
        <time>2020-08-19T16:16:08.000Z</time>
      </trkpt>
      <trkpt lat="48.60763" lon="7.11406">
        <ele>472.84</ele>
        <time>2020-08-19T16:16:14.000Z</time>
      </trkpt>
      <trkpt lat="48.60767" lon="7.11409">
        <ele>475.97</ele>
        <time>2020-08-19T16:16:20.000Z</time>
      </trkpt>
      <trkpt lat="48.60767" lon="7.11417">
        <ele>476.71</ele>
        <time>2020-08-19T16:16:30.000Z</time>
      </trkpt>
      <trkpt lat="48.60765" lon="7.11426">
        <ele>475.28</ele>
        <time>2020-08-19T16:16:34.000Z</time>
      </trkpt>
      <trkpt lat="48.60763" lon="7.11436">
        <ele>477.29</ele>
        <time>2020-08-19T16:16:36.000Z</time>
      </trkpt>
      <trkpt lat="48.60764" lon="7.11448">
        <ele>477.48</ele>
        <time>2020-08-19T16:16:38.000Z</time>
      </trkpt>
      <trkpt lat="48.60769" lon="7.1147">
        <ele>473.54</ele>
        <time>2020-08-19T16:16:40.000Z</time>
      </trkpt>
      <trkpt lat="48.60767" lon="7.11487">
        <ele>475.64</ele>
        <time>2020-08-19T16:16:42.000Z</time>
      </trkpt>
      <trkpt lat="48.60766" lon="7.11498">
        <ele>473.26</ele>
        <time>2020-08-19T16:16:44.000Z</time>
      </trkpt>
      <trkpt lat="48.60767" lon="7.11505">
        <ele>471.19</ele>
        <time>2020-08-19T16:16:45.000Z</time>
      </trkpt>
      <trkpt lat="48.60766" lon="7.11526">
        <ele>467.74</ele>
        <time>2020-08-19T16:16:47.000Z</time>
      </trkpt>
      <trkpt lat="48.60761" lon="7.11536">
        <ele>468.17</ele>
        <time>2020-08-19T16:16:48.000Z</time>
      </trkpt>
      <trkpt lat="48.60761" lon="7.11546">
        <ele>466.83</ele>
        <time>2020-08-19T16:16:49.000Z</time>
      </trkpt>
      <trkpt lat="48.60761" lon="7.11559">
        <ele>466.77</ele>
        <time>2020-08-19T16:16:50.000Z</time>
      </trkpt>
      <trkpt lat="48.60764" lon="7.11568">
        <ele>467.83</ele>
        <time>2020-08-19T16:16:51.000Z</time>
      </trkpt>
      <trkpt lat="48.60767" lon="7.11576">
        <ele>467.99</ele>
        <time>2020-08-19T16:16:52.000Z</time>
      </trkpt>
      <trkpt lat="48.60772" lon="7.11599">
        <ele>463.66</ele>
        <time>2020-08-19T16:16:54.000Z</time>
      </trkpt>
      <trkpt lat="48.6077" lon="7.11613">
        <ele>463.57</ele>
        <time>2020-08-19T16:16:55.000Z</time>
      </trkpt>
      <trkpt lat="48.60773" lon="7.11621">
        <ele>461.65</ele>
        <time>2020-08-19T16:16:56.000Z</time>
      </trkpt>
      <trkpt lat="48.60775" lon="7.11634">
        <ele>461.99</ele>
        <time>2020-08-19T16:16:57.000Z</time>
      </trkpt>
      <trkpt lat="48.60778" lon="7.11641">
        <ele>461.18</ele>
        <time>2020-08-19T16:16:58.000Z</time>
      </trkpt>
      <trkpt lat="48.60777" lon="7.11654">
        <ele>460.83</ele>
        <time>2020-08-19T16:16:59.000Z</time>
      </trkpt>
      <trkpt lat="48.60786" lon="7.11668">
        <ele>459.42</ele>
        <time>2020-08-19T16:17:01.000Z</time>
      </trkpt>
      <trkpt lat="48.60794" lon="7.11679">
        <ele>454.99</ele>
        <time>2020-08-19T16:17:03.000Z</time>
      </trkpt>
      <trkpt lat="48.608" lon="7.11685">
        <ele>455.24</ele>
        <time>2020-08-19T16:17:04.000Z</time>
      </trkpt>
      <trkpt lat="48.60804" lon="7.1169">
        <ele>455.76</ele>
        <time>2020-08-19T16:17:05.000Z</time>
      </trkpt>
      <trkpt lat="48.6081" lon="7.11695">
        <ele>455</ele>
        <time>2020-08-19T16:17:06.000Z</time>
      </trkpt>
      <trkpt lat="48.60815" lon="7.117">
        <ele>454.27</ele>
        <time>2020-08-19T16:17:07.000Z</time>
      </trkpt>
      <trkpt lat="48.60818" lon="7.11706">
        <ele>455.33</ele>
        <time>2020-08-19T16:17:08.000Z</time>
      </trkpt>
      <trkpt lat="48.60819" lon="7.11718">
        <ele>452.03</ele>
        <time>2020-08-19T16:17:09.000Z</time>
      </trkpt>
      <trkpt lat="48.60819" lon="7.11729">
        <ele>452.23</ele>
        <time>2020-08-19T16:17:10.000Z</time>
      </trkpt>
      <trkpt lat="48.60817" lon="7.11735">
        <ele>450.92</ele>
        <time>2020-08-19T16:17:11.000Z</time>
      </trkpt>
      <trkpt lat="48.6081" lon="7.11766">
        <ele>450.45</ele>
        <time>2020-08-19T16:17:14.000Z</time>
      </trkpt>
      <trkpt lat="48.6081" lon="7.11774">
        <ele>449.14</ele>
        <time>2020-08-19T16:17:15.000Z</time>
      </trkpt>
      <trkpt lat="48.60799" lon="7.11804">
        <ele>447.96</ele>
        <time>2020-08-19T16:17:18.000Z</time>
      </trkpt>
      <trkpt lat="48.60795" lon="7.1181">
        <ele>447.78</ele>
        <time>2020-08-19T16:17:19.000Z</time>
      </trkpt>
      <trkpt lat="48.60791" lon="7.11821">
        <ele>444.38</ele>
        <time>2020-08-19T16:17:21.000Z</time>
      </trkpt>
      <trkpt lat="48.60772" lon="7.11831">
        <ele>443.79</ele>
        <time>2020-08-19T16:17:23.000Z</time>
      </trkpt>
      <trkpt lat="48.60757" lon="7.11844">
        <ele>443.4</ele>
        <time>2020-08-19T16:17:25.000Z</time>
      </trkpt>
      <trkpt lat="48.6075" lon="7.11852">
        <ele>444.79</ele>
        <time>2020-08-19T16:17:27.000Z</time>
      </trkpt>
      <trkpt lat="48.6075" lon="7.11861">
        <ele>443.52</ele>
        <time>2020-08-19T16:17:28.000Z</time>
      </trkpt>
      <trkpt lat="48.60747" lon="7.1187">
        <ele>443.06</ele>
        <time>2020-08-19T16:17:29.000Z</time>
      </trkpt>
      <trkpt lat="48.60744" lon="7.1188">
        <ele>442.02</ele>
        <time>2020-08-19T16:17:30.000Z</time>
      </trkpt>
      <trkpt lat="48.60744" lon="7.1189">
        <ele>442.48</ele>
        <time>2020-08-19T16:17:31.000Z</time>
      </trkpt>
      <trkpt lat="48.60742" lon="7.11899">
        <ele>447.53</ele>
        <time>2020-08-19T16:17:32.000Z</time>
      </trkpt>
      <trkpt lat="48.60743" lon="7.11922">
        <ele>444.84</ele>
        <time>2020-08-19T16:17:34.000Z</time>
      </trkpt>
      <trkpt lat="48.60747" lon="7.11933">
        <ele>445.09</ele>
        <time>2020-08-19T16:17:35.000Z</time>
      </trkpt>
      <trkpt lat="48.60745" lon="7.11944">
        <ele>444.09</ele>
        <time>2020-08-19T16:17:36.000Z</time>
      </trkpt>
      <trkpt lat="48.60746" lon="7.11954">
        <ele>443.28</ele>
        <time>2020-08-19T16:17:37.000Z</time>
      </trkpt>
      <trkpt lat="48.60745" lon="7.11962">
        <ele>443.45</ele>
        <time>2020-08-19T16:17:38.000Z</time>
      </trkpt>
      <trkpt lat="48.60746" lon="7.1197">
        <ele>443.07</ele>
        <time>2020-08-19T16:17:39.000Z</time>
      </trkpt>
      <trkpt lat="48.60746" lon="7.11982">
        <ele>441.07</ele>
        <time>2020-08-19T16:17:40.000Z</time>
      </trkpt>
      <trkpt lat="48.60745" lon="7.11992">
        <ele>440.43</ele>
        <time>2020-08-19T16:17:41.000Z</time>
      </trkpt>
      <trkpt lat="48.60746" lon="7.12">
        <ele>440.68</ele>
        <time>2020-08-19T16:17:42.000Z</time>
      </trkpt>
      <trkpt lat="48.60745" lon="7.1202">
        <ele>438.13</ele>
        <time>2020-08-19T16:17:44.000Z</time>
      </trkpt>
      <trkpt lat="48.60744" lon="7.12027">
        <ele>438.53</ele>
        <time>2020-08-19T16:17:45.000Z</time>
      </trkpt>
      <trkpt lat="48.6074" lon="7.12032">
        <ele>438.74</ele>
        <time>2020-08-19T16:17:47.000Z</time>
      </trkpt>
      <trkpt lat="48.60737" lon="7.12037">
        <ele>437.83</ele>
        <time>2020-08-19T16:17:59.000Z</time>
      </trkpt>
      <trkpt lat="48.60738" lon="7.12045">
        <ele>437.45</ele>
        <time>2020-08-19T16:18:07.000Z</time>
      </trkpt>
      <trkpt lat="48.60737" lon="7.12056">
        <ele>438.92</ele>
        <time>2020-08-19T16:18:09.000Z</time>
      </trkpt>
      <trkpt lat="48.60739" lon="7.12066">
        <ele>437.32</ele>
        <time>2020-08-19T16:18:12.000Z</time>
      </trkpt>
      <trkpt lat="48.60739" lon="7.12078">
        <ele>433.81</ele>
        <time>2020-08-19T16:18:13.000Z</time>
      </trkpt>
      <trkpt lat="48.60738" lon="7.12091">
        <ele>432.66</ele>
        <time>2020-08-19T16:18:15.000Z</time>
      </trkpt>
      <trkpt lat="48.60736" lon="7.12099">
        <ele>432.82</ele>
        <time>2020-08-19T16:18:16.000Z</time>
      </trkpt>
      <trkpt lat="48.60737" lon="7.12116">
        <ele>432.28</ele>
        <time>2020-08-19T16:18:18.000Z</time>
      </trkpt>
      <trkpt lat="48.60736" lon="7.12126">
        <ele>432.56</ele>
        <time>2020-08-19T16:18:19.000Z</time>
      </trkpt>
      <trkpt lat="48.60735" lon="7.12134">
        <ele>431.02</ele>
        <time>2020-08-19T16:18:20.000Z</time>
      </trkpt>
      <trkpt lat="48.60736" lon="7.12142">
        <ele>430.76</ele>
        <time>2020-08-19T16:18:21.000Z</time>
      </trkpt>
      <trkpt lat="48.60734" lon="7.12162">
        <ele>429.88</ele>
        <time>2020-08-19T16:18:23.000Z</time>
      </trkpt>
      <trkpt lat="48.60734" lon="7.1217">
        <ele>430.52</ele>
        <time>2020-08-19T16:18:24.000Z</time>
      </trkpt>
      <trkpt lat="48.60732" lon="7.12181">
        <ele>429.39</ele>
        <time>2020-08-19T16:18:25.000Z</time>
      </trkpt>
      <trkpt lat="48.60735" lon="7.1219">
        <ele>431.16</ele>
        <time>2020-08-19T16:18:26.000Z</time>
      </trkpt>
      <trkpt lat="48.60733" lon="7.122">
        <ele>429.86</ele>
        <time>2020-08-19T16:18:27.000Z</time>
      </trkpt>
      <trkpt lat="48.60738" lon="7.12203">
        <ele>428.96</ele>
        <time>2020-08-19T16:18:29.000Z</time>
      </trkpt>
      <trkpt lat="48.60733" lon="7.12205">
        <ele>432.71</ele>
        <time>2020-08-19T16:18:30.000Z</time>
      </trkpt>
      <trkpt lat="48.60739" lon="7.12205">
        <ele>429.72</ele>
        <time>2020-08-19T16:18:32.000Z</time>
      </trkpt>
      <trkpt lat="48.60739" lon="7.12217">
        <ele>431.46</ele>
        <time>2020-08-19T16:18:45.000Z</time>
      </trkpt>
      <trkpt lat="48.60736" lon="7.12223">
        <ele>430.67</ele>
        <time>2020-08-19T16:18:47.000Z</time>
      </trkpt>
      <trkpt lat="48.60732" lon="7.1223">
        <ele>432.68</ele>
        <time>2020-08-19T16:18:52.000Z</time>
      </trkpt>
      <trkpt lat="48.60728" lon="7.12238">
        <ele>430.46</ele>
        <time>2020-08-19T16:18:54.000Z</time>
      </trkpt>
      <trkpt lat="48.60729" lon="7.12246">
        <ele>423.41</ele>
        <time>2020-08-19T16:19:04.000Z</time>
      </trkpt>
      <trkpt lat="48.60726" lon="7.12255">
        <ele>422.76</ele>
        <time>2020-08-19T16:19:06.000Z</time>
      </trkpt>
      <trkpt lat="48.60724" lon="7.12264">
        <ele>421.65</ele>
        <time>2020-08-19T16:19:08.000Z</time>
      </trkpt>
      <trkpt lat="48.60722" lon="7.12274">
        <ele>420.58</ele>
        <time>2020-08-19T16:19:11.000Z</time>
      </trkpt>
      <trkpt lat="48.60721" lon="7.12282">
        <ele>419.73</ele>
        <time>2020-08-19T16:19:13.000Z</time>
      </trkpt>
      <trkpt lat="48.60721" lon="7.1229">
        <ele>417.18</ele>
        <time>2020-08-19T16:19:15.000Z</time>
      </trkpt>
      <trkpt lat="48.60718" lon="7.123">
        <ele>414.67</ele>
        <time>2020-08-19T16:19:18.000Z</time>
      </trkpt>
      <trkpt lat="48.60717" lon="7.12308">
        <ele>413.96</ele>
        <time>2020-08-19T16:19:20.000Z</time>
      </trkpt>
      <trkpt lat="48.60717" lon="7.12316">
        <ele>412.58</ele>
        <time>2020-08-19T16:19:22.000Z</time>
      </trkpt>
      <trkpt lat="48.60714" lon="7.12324">
        <ele>411.42</ele>
        <time>2020-08-19T16:19:24.000Z</time>
      </trkpt>
      <trkpt lat="48.6071" lon="7.12332">
        <ele>410.63</ele>
        <time>2020-08-19T16:19:26.000Z</time>
      </trkpt>
      <trkpt lat="48.60708" lon="7.12339">
        <ele>409.4</ele>
        <time>2020-08-19T16:19:28.000Z</time>
      </trkpt>
      <trkpt lat="48.60706" lon="7.12347">
        <ele>409.15</ele>
        <time>2020-08-19T16:19:30.000Z</time>
      </trkpt>
      <trkpt lat="48.60706" lon="7.12355">
        <ele>407.29</ele>
        <time>2020-08-19T16:19:32.000Z</time>
      </trkpt>
      <trkpt lat="48.60705" lon="7.12362">
        <ele>406.8</ele>
        <time>2020-08-19T16:19:34.000Z</time>
      </trkpt>
      <trkpt lat="48.60703" lon="7.12371">
        <ele>407.2</ele>
        <time>2020-08-19T16:19:37.000Z</time>
      </trkpt>
      <trkpt lat="48.607" lon="7.12378">
        <ele>407.28</ele>
        <time>2020-08-19T16:19:39.000Z</time>
      </trkpt>
      <trkpt lat="48.60699" lon="7.12386">
        <ele>404.16</ele>
        <time>2020-08-19T16:19:41.000Z</time>
      </trkpt>
      <trkpt lat="48.60692" lon="7.12417">
        <ele>402.2</ele>
        <time>2020-08-19T16:19:47.000Z</time>
      </trkpt>
      <trkpt lat="48.60689" lon="7.12426">
        <ele>401.75</ele>
        <time>2020-08-19T16:19:49.000Z</time>
      </trkpt>
      <trkpt lat="48.60689" lon="7.12438">
        <ele>402.34</ele>
        <time>2020-08-19T16:19:52.000Z</time>
      </trkpt>
      <trkpt lat="48.60688" lon="7.12445">
        <ele>401.01</ele>
        <time>2020-08-19T16:19:54.000Z</time>
      </trkpt>
      <trkpt lat="48.60686" lon="7.12454">
        <ele>396.22</ele>
        <time>2020-08-19T16:19:58.000Z</time>
      </trkpt>
      <trkpt lat="48.60685" lon="7.12462">
        <ele>395.8</ele>
        <time>2020-08-19T16:20:00.000Z</time>
      </trkpt>
      <trkpt lat="48.60686" lon="7.12469">
        <ele>396.06</ele>
        <time>2020-08-19T16:20:03.000Z</time>
      </trkpt>
      <trkpt lat="48.60688" lon="7.12476">
        <ele>392.07</ele>
        <time>2020-08-19T16:20:08.000Z</time>
      </trkpt>
      <trkpt lat="48.6069" lon="7.12483">
        <ele>390.88</ele>
        <time>2020-08-19T16:20:12.000Z</time>
      </trkpt>
      <trkpt lat="48.60692" lon="7.1249">
        <ele>404.61</ele>
        <time>2020-08-19T16:20:21.000Z</time>
      </trkpt>
      <trkpt lat="48.60696" lon="7.12496">
        <ele>392.92</ele>
        <time>2020-08-19T16:20:24.000Z</time>
      </trkpt>
      <trkpt lat="48.60696" lon="7.12503">
        <ele>382.27</ele>
        <time>2020-08-19T16:20:40.000Z</time>
      </trkpt>
      <trkpt lat="48.60694" lon="7.1251">
        <ele>389.76</ele>
        <time>2020-08-19T16:20:46.000Z</time>
      </trkpt>
      <trkpt lat="48.60697" lon="7.12517">
        <ele>386.87</ele>
        <time>2020-08-19T16:20:50.000Z</time>
      </trkpt>
      <trkpt lat="48.60701" lon="7.12523">
        <ele>388.31</ele>
        <time>2020-08-19T16:20:56.000Z</time>
      </trkpt>
      <trkpt lat="48.60704" lon="7.12529">
        <ele>390.05</ele>
        <time>2020-08-19T16:21:01.000Z</time>
      </trkpt>
      <trkpt lat="48.60706" lon="7.12535">
        <ele>389.71</ele>
        <time>2020-08-19T16:21:10.000Z</time>
      </trkpt>
      <trkpt lat="48.60711" lon="7.12539">
        <ele>388.33</ele>
        <time>2020-08-19T16:21:12.000Z</time>
      </trkpt>
      <trkpt lat="48.60716" lon="7.12545">
        <ele>388.99</ele>
        <time>2020-08-19T16:21:14.000Z</time>
      </trkpt>
      <trkpt lat="48.6072" lon="7.12548">
        <ele>389.58</ele>
        <time>2020-08-19T16:21:16.000Z</time>
      </trkpt>
      <trkpt lat="48.60726" lon="7.12549">
        <ele>393.07</ele>
        <time>2020-08-19T16:21:18.000Z</time>
      </trkpt>
      <trkpt lat="48.6073" lon="7.12549">
        <ele>391.38</ele>
        <time>2020-08-19T16:21:20.000Z</time>
      </trkpt>
      <trkpt lat="48.60735" lon="7.12551">
        <ele>394.03</ele>
        <time>2020-08-19T16:21:22.000Z</time>
      </trkpt>
      <trkpt lat="48.60742" lon="7.1255">
        <ele>391.5</ele>
        <time>2020-08-19T16:21:24.000Z</time>
      </trkpt>
      <trkpt lat="48.60749" lon="7.1255">
        <ele>393.26</ele>
        <time>2020-08-19T16:21:26.000Z</time>
      </trkpt>
      <trkpt lat="48.60754" lon="7.12546">
        <ele>392.93</ele>
        <time>2020-08-19T16:21:28.000Z</time>
      </trkpt>
      <trkpt lat="48.60757" lon="7.12541">
        <ele>392.87</ele>
        <time>2020-08-19T16:21:30.000Z</time>
      </trkpt>
      <trkpt lat="48.60761" lon="7.12535">
        <ele>394.53</ele>
        <time>2020-08-19T16:21:32.000Z</time>
      </trkpt>
      <trkpt lat="48.60764" lon="7.12528">
        <ele>394.68</ele>
        <time>2020-08-19T16:21:34.000Z</time>
      </trkpt>
      <trkpt lat="48.60766" lon="7.1252">
        <ele>394.72</ele>
        <time>2020-08-19T16:21:36.000Z</time>
      </trkpt>
      <trkpt lat="48.60766" lon="7.12511">
        <ele>394.05</ele>
        <time>2020-08-19T16:21:38.000Z</time>
      </trkpt>
      <trkpt lat="48.60767" lon="7.125">
        <ele>395.67</ele>
        <time>2020-08-19T16:21:41.000Z</time>
      </trkpt>
      <trkpt lat="48.60768" lon="7.1249">
        <ele>397.38</ele>
        <time>2020-08-19T16:21:44.000Z</time>
      </trkpt>
      <trkpt lat="48.6077" lon="7.12483">
        <ele>396.12</ele>
        <time>2020-08-19T16:21:46.000Z</time>
      </trkpt>
      <trkpt lat="48.60773" lon="7.12476">
        <ele>398.31</ele>
        <time>2020-08-19T16:21:48.000Z</time>
      </trkpt>
      <trkpt lat="48.60776" lon="7.12469">
        <ele>397.84</ele>
        <time>2020-08-19T16:21:51.000Z</time>
      </trkpt>
      <trkpt lat="48.60781" lon="7.12465">
        <ele>397.08</ele>
        <time>2020-08-19T16:21:53.000Z</time>
      </trkpt>
      <trkpt lat="48.60786" lon="7.12462">
        <ele>396.19</ele>
        <time>2020-08-19T16:21:55.000Z</time>
      </trkpt>
      <trkpt lat="48.60793" lon="7.12459">
        <ele>395.49</ele>
        <time>2020-08-19T16:21:57.000Z</time>
      </trkpt>
      <trkpt lat="48.60799" lon="7.12455">
        <ele>395.2</ele>
        <time>2020-08-19T16:21:59.000Z</time>
      </trkpt>
      <trkpt lat="48.60803" lon="7.1245">
        <ele>395.42</ele>
        <time>2020-08-19T16:22:01.000Z</time>
      </trkpt>
      <trkpt lat="48.60806" lon="7.12444">
        <ele>395.11</ele>
        <time>2020-08-19T16:22:07.000Z</time>
      </trkpt>
      <trkpt lat="48.60811" lon="7.1244">
        <ele>394.15</ele>
        <time>2020-08-19T16:22:11.000Z</time>
      </trkpt>
      <trkpt lat="48.60816" lon="7.12436">
        <ele>394.65</ele>
        <time>2020-08-19T16:22:14.000Z</time>
      </trkpt>
      <trkpt lat="48.60821" lon="7.12431">
        <ele>396.68</ele>
        <time>2020-08-19T16:22:16.000Z</time>
      </trkpt>
      <trkpt lat="48.60825" lon="7.12425">
        <ele>398.14</ele>
        <time>2020-08-19T16:22:18.000Z</time>
      </trkpt>
      <trkpt lat="48.60831" lon="7.12423">
        <ele>399.99</ele>
        <time>2020-08-19T16:22:20.000Z</time>
      </trkpt>
      <trkpt lat="48.60838" lon="7.1242">
        <ele>400.98</ele>
        <time>2020-08-19T16:22:22.000Z</time>
      </trkpt>
      <trkpt lat="48.60843" lon="7.12416">
        <ele>401.56</ele>
        <time>2020-08-19T16:22:24.000Z</time>
      </trkpt>
      <trkpt lat="48.6085" lon="7.12413">
        <ele>403.68</ele>
        <time>2020-08-19T16:22:26.000Z</time>
      </trkpt>
      <trkpt lat="48.60857" lon="7.1241">
        <ele>405.21</ele>
        <time>2020-08-19T16:22:28.000Z</time>
      </trkpt>
      <trkpt lat="48.60863" lon="7.12407">
        <ele>408.33</ele>
        <time>2020-08-19T16:22:30.000Z</time>
      </trkpt>
      <trkpt lat="48.60869" lon="7.12405">
        <ele>407.27</ele>
        <time>2020-08-19T16:22:32.000Z</time>
      </trkpt>
      <trkpt lat="48.60874" lon="7.12404">
        <ele>408.61</ele>
        <time>2020-08-19T16:22:33.000Z</time>
      </trkpt>
      <trkpt lat="48.60878" lon="7.12405">
        <ele>410.15</ele>
        <time>2020-08-19T16:22:34.000Z</time>
      </trkpt>
      <trkpt lat="48.60883" lon="7.12406">
        <ele>409.7</ele>
        <time>2020-08-19T16:22:35.000Z</time>
      </trkpt>
      <trkpt lat="48.60891" lon="7.12405">
        <ele>410.41</ele>
        <time>2020-08-19T16:22:37.000Z</time>
      </trkpt>
      <trkpt lat="48.60899" lon="7.12405">
        <ele>409.21</ele>
        <time>2020-08-19T16:22:39.000Z</time>
      </trkpt>
      <trkpt lat="48.60906" lon="7.12405">
        <ele>408.22</ele>
        <time>2020-08-19T16:22:41.000Z</time>
      </trkpt>
      <trkpt lat="48.60914" lon="7.12407">
        <ele>409.42</ele>
        <time>2020-08-19T16:22:43.000Z</time>
      </trkpt>
      <trkpt lat="48.60921" lon="7.12411">
        <ele>410.02</ele>
        <time>2020-08-19T16:22:45.000Z</time>
      </trkpt>
      <trkpt lat="48.60926" lon="7.12415">
        <ele>409.24</ele>
        <time>2020-08-19T16:22:47.000Z</time>
      </trkpt>
      <trkpt lat="48.60934" lon="7.12419">
        <ele>408.41</ele>
        <time>2020-08-19T16:22:49.000Z</time>
      </trkpt>
      <trkpt lat="48.60941" lon="7.12421">
        <ele>407.19</ele>
        <time>2020-08-19T16:22:51.000Z</time>
      </trkpt>
      <trkpt lat="48.60947" lon="7.12422">
        <ele>409.91</ele>
        <time>2020-08-19T16:22:53.000Z</time>
      </trkpt>
      <trkpt lat="48.60955" lon="7.12424">
        <ele>407.27</ele>
        <time>2020-08-19T16:22:55.000Z</time>
      </trkpt>
      <trkpt lat="48.60959" lon="7.12428">
        <ele>406.33</ele>
        <time>2020-08-19T16:22:57.000Z</time>
      </trkpt>
      <trkpt lat="48.60965" lon="7.12432">
        <ele>405</ele>
        <time>2020-08-19T16:22:59.000Z</time>
      </trkpt>
      <trkpt lat="48.6097" lon="7.12434">
        <ele>402.6</ele>
        <time>2020-08-19T16:23:01.000Z</time>
      </trkpt>
      <trkpt lat="48.60975" lon="7.12436">
        <ele>401.75</ele>
        <time>2020-08-19T16:23:04.000Z</time>
      </trkpt>
      <trkpt lat="48.60981" lon="7.12441">
        <ele>402.65</ele>
        <time>2020-08-19T16:23:06.000Z</time>
      </trkpt>
      <trkpt lat="48.60988" lon="7.12445">
        <ele>402.12</ele>
        <time>2020-08-19T16:23:08.000Z</time>
      </trkpt>
      <trkpt lat="48.60995" lon="7.12447">
        <ele>401.98</ele>
        <time>2020-08-19T16:23:10.000Z</time>
      </trkpt>
      <trkpt lat="48.61001" lon="7.12449">
        <ele>400.44</ele>
        <time>2020-08-19T16:23:12.000Z</time>
      </trkpt>
      <trkpt lat="48.61003" lon="7.12455">
        <ele>400.87</ele>
        <time>2020-08-19T16:23:21.000Z</time>
      </trkpt>
      <trkpt lat="48.61007" lon="7.12466">
        <ele>400.98</ele>
        <time>2020-08-19T16:23:25.000Z</time>
      </trkpt>
      <trkpt lat="48.61011" lon="7.12477">
        <ele>399.9</ele>
        <time>2020-08-19T16:23:27.000Z</time>
      </trkpt>
      <trkpt lat="48.61016" lon="7.12481">
        <ele>399.58</ele>
        <time>2020-08-19T16:23:28.000Z</time>
      </trkpt>
      <trkpt lat="48.61024" lon="7.12489">
        <ele>400.35</ele>
        <time>2020-08-19T16:23:30.000Z</time>
      </trkpt>
      <trkpt lat="48.61028" lon="7.12493">
        <ele>400.85</ele>
        <time>2020-08-19T16:23:31.000Z</time>
      </trkpt>
      <trkpt lat="48.61034" lon="7.12499">
        <ele>401.58</ele>
        <time>2020-08-19T16:23:32.000Z</time>
      </trkpt>
      <trkpt lat="48.61037" lon="7.12505">
        <ele>401.13</ele>
        <time>2020-08-19T16:23:33.000Z</time>
      </trkpt>
      <trkpt lat="48.61039" lon="7.12511">
        <ele>402.78</ele>
        <time>2020-08-19T16:23:34.000Z</time>
      </trkpt>
      <trkpt lat="48.61043" lon="7.12517">
        <ele>403.64</ele>
        <time>2020-08-19T16:23:35.000Z</time>
      </trkpt>
      <trkpt lat="48.61046" lon="7.12521">
        <ele>403.76</ele>
        <time>2020-08-19T16:23:36.000Z</time>
      </trkpt>
      <trkpt lat="48.61049" lon="7.12527">
        <ele>404.05</ele>
        <time>2020-08-19T16:23:37.000Z</time>
      </trkpt>
      <trkpt lat="48.61055" lon="7.1253">
        <ele>405.58</ele>
        <time>2020-08-19T16:23:38.000Z</time>
      </trkpt>
      <trkpt lat="48.61056" lon="7.12538">
        <ele>406.07</ele>
        <time>2020-08-19T16:23:39.000Z</time>
      </trkpt>
      <trkpt lat="48.61062" lon="7.12541">
        <ele>406.22</ele>
        <time>2020-08-19T16:23:40.000Z</time>
      </trkpt>
      <trkpt lat="48.61065" lon="7.12547">
        <ele>406.71</ele>
        <time>2020-08-19T16:23:41.000Z</time>
      </trkpt>
      <trkpt lat="48.61068" lon="7.12553">
        <ele>406.51</ele>
        <time>2020-08-19T16:23:42.000Z</time>
      </trkpt>
      <trkpt lat="48.61072" lon="7.12558">
        <ele>407.23</ele>
        <time>2020-08-19T16:23:43.000Z</time>
      </trkpt>
      <trkpt lat="48.61076" lon="7.12565">
        <ele>407.24</ele>
        <time>2020-08-19T16:23:44.000Z</time>
      </trkpt>
      <trkpt lat="48.61079" lon="7.12571">
        <ele>407.55</ele>
        <time>2020-08-19T16:23:45.000Z</time>
      </trkpt>
      <trkpt lat="48.61082" lon="7.12577">
        <ele>407.34</ele>
        <time>2020-08-19T16:23:46.000Z</time>
      </trkpt>
      <trkpt lat="48.61086" lon="7.12582">
        <ele>407.87</ele>
        <time>2020-08-19T16:23:47.000Z</time>
      </trkpt>
      <trkpt lat="48.61095" lon="7.12588">
        <ele>408.75</ele>
        <time>2020-08-19T16:23:49.000Z</time>
      </trkpt>
      <trkpt lat="48.611" lon="7.12594">
        <ele>409.1</ele>
        <time>2020-08-19T16:23:50.000Z</time>
      </trkpt>
      <trkpt lat="48.61102" lon="7.126">
        <ele>409.21</ele>
        <time>2020-08-19T16:23:51.000Z</time>
      </trkpt>
      <trkpt lat="48.61102" lon="7.1261">
        <ele>404.1</ele>
        <time>2020-08-19T16:23:52.000Z</time>
      </trkpt>
      <trkpt lat="48.61106" lon="7.12621">
        <ele>401.27</ele>
        <time>2020-08-19T16:23:54.000Z</time>
      </trkpt>
      <trkpt lat="48.6111" lon="7.12627">
        <ele>401.79</ele>
        <time>2020-08-19T16:23:55.000Z</time>
      </trkpt>
      <trkpt lat="48.61114" lon="7.12634">
        <ele>401.96</ele>
        <time>2020-08-19T16:23:56.000Z</time>
      </trkpt>
      <trkpt lat="48.61119" lon="7.12639">
        <ele>402.23</ele>
        <time>2020-08-19T16:23:57.000Z</time>
      </trkpt>
      <trkpt lat="48.61124" lon="7.12651">
        <ele>403.05</ele>
        <time>2020-08-19T16:23:59.000Z</time>
      </trkpt>
      <trkpt lat="48.61126" lon="7.12658">
        <ele>403.86</ele>
        <time>2020-08-19T16:24:00.000Z</time>
      </trkpt>
      <trkpt lat="48.61131" lon="7.12663">
        <ele>403.98</ele>
        <time>2020-08-19T16:24:01.000Z</time>
      </trkpt>
      <trkpt lat="48.61135" lon="7.12667">
        <ele>403.64</ele>
        <time>2020-08-19T16:24:02.000Z</time>
      </trkpt>
      <trkpt lat="48.61139" lon="7.12672">
        <ele>403.08</ele>
        <time>2020-08-19T16:24:03.000Z</time>
      </trkpt>
      <trkpt lat="48.61144" lon="7.12678">
        <ele>403.03</ele>
        <time>2020-08-19T16:24:05.000Z</time>
      </trkpt>
      <trkpt lat="48.6115" lon="7.12682">
        <ele>402.67</ele>
        <time>2020-08-19T16:24:06.000Z</time>
      </trkpt>
      <trkpt lat="48.61159" lon="7.12687">
        <ele>400.39</ele>
        <time>2020-08-19T16:24:08.000Z</time>
      </trkpt>
      <trkpt lat="48.61164" lon="7.12691">
        <ele>399.61</ele>
        <time>2020-08-19T16:24:09.000Z</time>
      </trkpt>
      <trkpt lat="48.61169" lon="7.12694">
        <ele>399.77</ele>
        <time>2020-08-19T16:24:10.000Z</time>
      </trkpt>
      <trkpt lat="48.61173" lon="7.12697">
        <ele>400.8</ele>
        <time>2020-08-19T16:24:12.000Z</time>
      </trkpt>
      <trkpt lat="48.61179" lon="7.12701">
        <ele>399.13</ele>
        <time>2020-08-19T16:24:13.000Z</time>
      </trkpt>
      <trkpt lat="48.61187" lon="7.12703">
        <ele>398.42</ele>
        <time>2020-08-19T16:24:15.000Z</time>
      </trkpt>
      <trkpt lat="48.61194" lon="7.12702">
        <ele>397.83</ele>
        <time>2020-08-19T16:24:17.000Z</time>
      </trkpt>
      <trkpt lat="48.61199" lon="7.12704">
        <ele>398.03</ele>
        <time>2020-08-19T16:24:18.000Z</time>
      </trkpt>
      <trkpt lat="48.61204" lon="7.12702">
        <ele>398.31</ele>
        <time>2020-08-19T16:24:19.000Z</time>
      </trkpt>
      <trkpt lat="48.61208" lon="7.12701">
        <ele>399.02</ele>
        <time>2020-08-19T16:24:20.000Z</time>
      </trkpt>
      <trkpt lat="48.61218" lon="7.12698">
        <ele>399.18</ele>
        <time>2020-08-19T16:24:22.000Z</time>
      </trkpt>
      <trkpt lat="48.61223" lon="7.127">
        <ele>399.47</ele>
        <time>2020-08-19T16:24:23.000Z</time>
      </trkpt>
      <trkpt lat="48.61228" lon="7.12698">
        <ele>397.53</ele>
        <time>2020-08-19T16:24:24.000Z</time>
      </trkpt>
      <trkpt lat="48.61234" lon="7.12696">
        <ele>393.17</ele>
        <time>2020-08-19T16:24:28.000Z</time>
      </trkpt>
      <trkpt lat="48.6124" lon="7.12695">
        <ele>400.93</ele>
        <time>2020-08-19T16:24:41.000Z</time>
      </trkpt>
      <trkpt lat="48.61249" lon="7.12695">
        <ele>401.02</ele>
        <time>2020-08-19T16:24:43.000Z</time>
      </trkpt>
      <trkpt lat="48.61289" lon="7.12698">
        <ele>403.25</ele>
        <time>2020-08-19T16:24:50.000Z</time>
      </trkpt>
      <trkpt lat="48.61294" lon="7.12698">
        <ele>402.95</ele>
        <time>2020-08-19T16:24:51.000Z</time>
      </trkpt>
      <trkpt lat="48.61299" lon="7.12697">
        <ele>402.55</ele>
        <time>2020-08-19T16:24:52.000Z</time>
      </trkpt>
      <trkpt lat="48.61305" lon="7.12698">
        <ele>401.29</ele>
        <time>2020-08-19T16:24:53.000Z</time>
      </trkpt>
      <trkpt lat="48.61311" lon="7.12697">
        <ele>401.47</ele>
        <time>2020-08-19T16:24:54.000Z</time>
      </trkpt>
      <trkpt lat="48.61316" lon="7.12698">
        <ele>397.89</ele>
        <time>2020-08-19T16:24:55.000Z</time>
      </trkpt>
      <trkpt lat="48.61336" lon="7.12698">
        <ele>396.83</ele>
        <time>2020-08-19T16:24:58.000Z</time>
      </trkpt>
      <trkpt lat="48.61344" lon="7.12701">
        <ele>396.44</ele>
        <time>2020-08-19T16:25:00.000Z</time>
      </trkpt>
      <trkpt lat="48.61349" lon="7.12702">
        <ele>397.92</ele>
        <time>2020-08-19T16:25:01.000Z</time>
      </trkpt>
      <trkpt lat="48.61354" lon="7.12703">
        <ele>398.28</ele>
        <time>2020-08-19T16:25:03.000Z</time>
      </trkpt>
      <trkpt lat="48.61358" lon="7.127">
        <ele>400.54</ele>
        <time>2020-08-19T16:25:05.000Z</time>
      </trkpt>
      <trkpt lat="48.61364" lon="7.12703">
        <ele>400</ele>
        <time>2020-08-19T16:25:07.000Z</time>
      </trkpt>
      <trkpt lat="48.6137" lon="7.12704">
        <ele>398.32</ele>
        <time>2020-08-19T16:25:10.000Z</time>
      </trkpt>
      <trkpt lat="48.61376" lon="7.12706">
        <ele>397.04</ele>
        <time>2020-08-19T16:25:14.000Z</time>
      </trkpt>
      <trkpt lat="48.61381" lon="7.12706">
        <ele>397.22</ele>
        <time>2020-08-19T16:25:17.000Z</time>
      </trkpt>
      <trkpt lat="48.61385" lon="7.12702">
        <ele>398.39</ele>
        <time>2020-08-19T16:25:21.000Z</time>
      </trkpt>
      <trkpt lat="48.6139" lon="7.127">
        <ele>392.24</ele>
        <time>2020-08-19T16:25:36.000Z</time>
      </trkpt>
      <trkpt lat="48.61395" lon="7.12697">
        <ele>391.29</ele>
        <time>2020-08-19T16:25:38.000Z</time>
      </trkpt>
      <trkpt lat="48.61402" lon="7.12693">
        <ele>390.91</ele>
        <time>2020-08-19T16:25:41.000Z</time>
      </trkpt>
      <trkpt lat="48.61408" lon="7.12687">
        <ele>390.92</ele>
        <time>2020-08-19T16:25:43.000Z</time>
      </trkpt>
      <trkpt lat="48.61415" lon="7.12677">
        <ele>391.05</ele>
        <time>2020-08-19T16:25:46.000Z</time>
      </trkpt>
      <trkpt lat="48.61418" lon="7.12667">
        <ele>391.17</ele>
        <time>2020-08-19T16:25:48.000Z</time>
      </trkpt>
      <trkpt lat="48.61425" lon="7.12652">
        <ele>392.4</ele>
        <time>2020-08-19T16:25:50.000Z</time>
      </trkpt>
      <trkpt lat="48.61426" lon="7.12644">
        <ele>391.34</ele>
        <time>2020-08-19T16:25:51.000Z</time>
      </trkpt>
      <trkpt lat="48.6143" lon="7.12636">
        <ele>393.27</ele>
        <time>2020-08-19T16:25:53.000Z</time>
      </trkpt>
      <trkpt lat="48.61434" lon="7.12631">
        <ele>390.52</ele>
        <time>2020-08-19T16:25:54.000Z</time>
      </trkpt>
      <trkpt lat="48.61436" lon="7.12625">
        <ele>391.16</ele>
        <time>2020-08-19T16:26:07.000Z</time>
      </trkpt>
      <trkpt lat="48.61443" lon="7.12626">
        <ele>392.49</ele>
        <time>2020-08-19T16:26:11.000Z</time>
      </trkpt>
      <trkpt lat="48.6145" lon="7.12629">
        <ele>394.24</ele>
        <time>2020-08-19T16:26:13.000Z</time>
      </trkpt>
      <trkpt lat="48.61454" lon="7.12631">
        <ele>392.88</ele>
        <time>2020-08-19T16:26:17.000Z</time>
      </trkpt>
      <trkpt lat="48.61453" lon="7.12642">
        <ele>391.39</ele>
        <time>2020-08-19T16:26:30.000Z</time>
      </trkpt>
      <trkpt lat="48.61453" lon="7.12652">
        <ele>390.41</ele>
        <time>2020-08-19T16:26:32.000Z</time>
      </trkpt>
      <trkpt lat="48.61451" lon="7.12664">
        <ele>388.06</ele>
        <time>2020-08-19T16:26:34.000Z</time>
      </trkpt>
      <trkpt lat="48.61448" lon="7.12676">
        <ele>385.85</ele>
        <time>2020-08-19T16:26:36.000Z</time>
      </trkpt>
      <trkpt lat="48.61448" lon="7.12685">
        <ele>385.32</ele>
        <time>2020-08-19T16:26:37.000Z</time>
      </trkpt>
      <trkpt lat="48.61448" lon="7.12702">
        <ele>384.25</ele>
        <time>2020-08-19T16:26:39.000Z</time>
      </trkpt>
      <trkpt lat="48.61449" lon="7.1271">
        <ele>385.8</ele>
        <time>2020-08-19T16:26:40.000Z</time>
      </trkpt>
      <trkpt lat="48.6145" lon="7.12719">
        <ele>386.08</ele>
        <time>2020-08-19T16:26:41.000Z</time>
      </trkpt>
      <trkpt lat="48.61456" lon="7.12741">
        <ele>387.17</ele>
        <time>2020-08-19T16:26:44.000Z</time>
      </trkpt>
      <trkpt lat="48.61459" lon="7.12747">
        <ele>387.6</ele>
        <time>2020-08-19T16:26:45.000Z</time>
      </trkpt>
      <trkpt lat="48.61462" lon="7.12753">
        <ele>388.01</ele>
        <time>2020-08-19T16:26:46.000Z</time>
      </trkpt>
      <trkpt lat="48.61465" lon="7.12759">
        <ele>388.94</ele>
        <time>2020-08-19T16:26:47.000Z</time>
      </trkpt>
      <trkpt lat="48.61469" lon="7.12765">
        <ele>388.36</ele>
        <time>2020-08-19T16:26:48.000Z</time>
      </trkpt>
      <trkpt lat="48.61472" lon="7.1277">
        <ele>389.98</ele>
        <time>2020-08-19T16:26:49.000Z</time>
      </trkpt>
      <trkpt lat="48.61476" lon="7.12775">
        <ele>390.56</ele>
        <time>2020-08-19T16:26:50.000Z</time>
      </trkpt>
      <trkpt lat="48.61479" lon="7.12781">
        <ele>388.71</ele>
        <time>2020-08-19T16:26:51.000Z</time>
      </trkpt>
      <trkpt lat="48.61485" lon="7.12791">
        <ele>387.27</ele>
        <time>2020-08-19T16:26:53.000Z</time>
      </trkpt>
      <trkpt lat="48.61495" lon="7.128">
        <ele>388.84</ele>
        <time>2020-08-19T16:26:55.000Z</time>
      </trkpt>
      <trkpt lat="48.61498" lon="7.12806">
        <ele>388.41</ele>
        <time>2020-08-19T16:26:56.000Z</time>
      </trkpt>
      <trkpt lat="48.61501" lon="7.12812">
        <ele>386.18</ele>
        <time>2020-08-19T16:26:57.000Z</time>
      </trkpt>
      <trkpt lat="48.61505" lon="7.12816">
        <ele>386.45</ele>
        <time>2020-08-19T16:26:58.000Z</time>
      </trkpt>
      <trkpt lat="48.61509" lon="7.12822">
        <ele>385</ele>
        <time>2020-08-19T16:26:59.000Z</time>
      </trkpt>
      <trkpt lat="48.61513" lon="7.12829">
        <ele>383.66</ele>
        <time>2020-08-19T16:27:00.000Z</time>
      </trkpt>
      <trkpt lat="48.6152" lon="7.12835">
        <ele>381.78</ele>
        <time>2020-08-19T16:27:01.000Z</time>
      </trkpt>
      <trkpt lat="48.61525" lon="7.1284">
        <ele>381.35</ele>
        <time>2020-08-19T16:27:02.000Z</time>
      </trkpt>
      <trkpt lat="48.61531" lon="7.12846">
        <ele>379.86</ele>
        <time>2020-08-19T16:27:03.000Z</time>
      </trkpt>
      <trkpt lat="48.61533" lon="7.12854">
        <ele>378.93</ele>
        <time>2020-08-19T16:27:04.000Z</time>
      </trkpt>
      <trkpt lat="48.61538" lon="7.1286">
        <ele>378.22</ele>
        <time>2020-08-19T16:27:05.000Z</time>
      </trkpt>
      <trkpt lat="48.61541" lon="7.12866">
        <ele>378.9</ele>
        <time>2020-08-19T16:27:06.000Z</time>
      </trkpt>
      <trkpt lat="48.61547" lon="7.12869">
        <ele>380.01</ele>
        <time>2020-08-19T16:27:07.000Z</time>
      </trkpt>
      <trkpt lat="48.61551" lon="7.12878">
        <ele>377.44</ele>
        <time>2020-08-19T16:27:09.000Z</time>
      </trkpt>
      <trkpt lat="48.61555" lon="7.12885">
        <ele>377.17</ele>
        <time>2020-08-19T16:27:10.000Z</time>
      </trkpt>
      <trkpt lat="48.61558" lon="7.1289">
        <ele>377.14</ele>
        <time>2020-08-19T16:27:11.000Z</time>
      </trkpt>
      <trkpt lat="48.61563" lon="7.12896">
        <ele>376.54</ele>
        <time>2020-08-19T16:27:12.000Z</time>
      </trkpt>
      <trkpt lat="48.61569" lon="7.129">
        <ele>376.47</ele>
        <time>2020-08-19T16:27:13.000Z</time>
      </trkpt>
      <trkpt lat="48.61573" lon="7.12904">
        <ele>375.99</ele>
        <time>2020-08-19T16:27:14.000Z</time>
      </trkpt>
      <trkpt lat="48.6158" lon="7.12909">
        <ele>374.67</ele>
        <time>2020-08-19T16:27:15.000Z</time>
      </trkpt>
      <trkpt lat="48.61585" lon="7.12913">
        <ele>374.34</ele>
        <time>2020-08-19T16:27:16.000Z</time>
      </trkpt>
      <trkpt lat="48.6159" lon="7.12916">
        <ele>374.32</ele>
        <time>2020-08-19T16:27:17.000Z</time>
      </trkpt>
      <trkpt lat="48.61594" lon="7.12921">
        <ele>374.72</ele>
        <time>2020-08-19T16:27:18.000Z</time>
      </trkpt>
      <trkpt lat="48.61602" lon="7.12923">
        <ele>373.24</ele>
        <time>2020-08-19T16:27:19.000Z</time>
      </trkpt>
      <trkpt lat="48.61608" lon="7.12927">
        <ele>372.47</ele>
        <time>2020-08-19T16:27:20.000Z</time>
      </trkpt>
      <trkpt lat="48.61615" lon="7.12927">
        <ele>370.13</ele>
        <time>2020-08-19T16:27:21.000Z</time>
      </trkpt>
      <trkpt lat="48.61625" lon="7.12929">
        <ele>370.05</ele>
        <time>2020-08-19T16:27:22.000Z</time>
      </trkpt>
      <trkpt lat="48.61632" lon="7.12931">
        <ele>368.99</ele>
        <time>2020-08-19T16:27:23.000Z</time>
      </trkpt>
      <trkpt lat="48.6164" lon="7.12934">
        <ele>368.79</ele>
        <time>2020-08-19T16:27:24.000Z</time>
      </trkpt>
      <trkpt lat="48.61647" lon="7.12939">
        <ele>367.78</ele>
        <time>2020-08-19T16:27:25.000Z</time>
      </trkpt>
      <trkpt lat="48.61654" lon="7.1294">
        <ele>366.39</ele>
        <time>2020-08-19T16:27:26.000Z</time>
      </trkpt>
      <trkpt lat="48.61662" lon="7.12937">
        <ele>365.59</ele>
        <time>2020-08-19T16:27:27.000Z</time>
      </trkpt>
      <trkpt lat="48.61668" lon="7.12934">
        <ele>365.07</ele>
        <time>2020-08-19T16:27:28.000Z</time>
      </trkpt>
      <trkpt lat="48.61674" lon="7.12929">
        <ele>364.18</ele>
        <time>2020-08-19T16:27:29.000Z</time>
      </trkpt>
      <trkpt lat="48.61679" lon="7.12923">
        <ele>364.91</ele>
        <time>2020-08-19T16:27:30.000Z</time>
      </trkpt>
      <trkpt lat="48.61684" lon="7.12923">
        <ele>364.64</ele>
        <time>2020-08-19T16:27:31.000Z</time>
      </trkpt>
      <trkpt lat="48.6169" lon="7.12925">
        <ele>364.8</ele>
        <time>2020-08-19T16:27:34.000Z</time>
      </trkpt>
      <trkpt lat="48.61695" lon="7.12924">
        <ele>364.42</ele>
        <time>2020-08-19T16:27:46.000Z</time>
      </trkpt>
      <trkpt lat="48.61701" lon="7.12929">
        <ele>366.36</ele>
        <time>2020-08-19T16:27:48.000Z</time>
      </trkpt>
      <trkpt lat="48.61707" lon="7.12934">
        <ele>367.15</ele>
        <time>2020-08-19T16:27:50.000Z</time>
      </trkpt>
      <trkpt lat="48.61711" lon="7.12937">
        <ele>366.7</ele>
        <time>2020-08-19T16:27:58.000Z</time>
      </trkpt>
      <trkpt lat="48.61717" lon="7.12943">
        <ele>366.24</ele>
        <time>2020-08-19T16:28:00.000Z</time>
      </trkpt>
      <trkpt lat="48.61723" lon="7.12947">
        <ele>365.65</ele>
        <time>2020-08-19T16:28:02.000Z</time>
      </trkpt>
      <trkpt lat="48.6173" lon="7.12947">
        <ele>364.88</ele>
        <time>2020-08-19T16:28:04.000Z</time>
      </trkpt>
      <trkpt lat="48.61735" lon="7.1294">
        <ele>365.82</ele>
        <time>2020-08-19T16:28:06.000Z</time>
      </trkpt>
      <trkpt lat="48.6174" lon="7.12931">
        <ele>365.79</ele>
        <time>2020-08-19T16:28:08.000Z</time>
      </trkpt>
      <trkpt lat="48.61745" lon="7.12921">
        <ele>365.17</ele>
        <time>2020-08-19T16:28:10.000Z</time>
      </trkpt>
      <trkpt lat="48.61749" lon="7.12914">
        <ele>365.8</ele>
        <time>2020-08-19T16:28:12.000Z</time>
      </trkpt>
      <trkpt lat="48.61751" lon="7.12902">
        <ele>366.04</ele>
        <time>2020-08-19T16:28:14.000Z</time>
      </trkpt>
      <trkpt lat="48.61753" lon="7.12892">
        <ele>368.29</ele>
        <time>2020-08-19T16:28:16.000Z</time>
      </trkpt>
      <trkpt lat="48.61753" lon="7.12885">
        <ele>369.6</ele>
        <time>2020-08-19T16:28:17.000Z</time>
      </trkpt>
      <trkpt lat="48.61757" lon="7.12871">
        <ele>368.32</ele>
        <time>2020-08-19T16:28:19.000Z</time>
      </trkpt>
      <trkpt lat="48.61764" lon="7.1286">
        <ele>364.53</ele>
        <time>2020-08-19T16:28:21.000Z</time>
      </trkpt>
      <trkpt lat="48.61767" lon="7.12854">
        <ele>363.27</ele>
        <time>2020-08-19T16:28:22.000Z</time>
      </trkpt>
      <trkpt lat="48.6177" lon="7.12848">
        <ele>363.05</ele>
        <time>2020-08-19T16:28:23.000Z</time>
      </trkpt>
      <trkpt lat="48.61774" lon="7.12842">
        <ele>365.12</ele>
        <time>2020-08-19T16:28:24.000Z</time>
      </trkpt>
      <trkpt lat="48.61778" lon="7.12837">
        <ele>364.51</ele>
        <time>2020-08-19T16:28:25.000Z</time>
      </trkpt>
      <trkpt lat="48.61781" lon="7.1283">
        <ele>362.17</ele>
        <time>2020-08-19T16:28:26.000Z</time>
      </trkpt>
      <trkpt lat="48.61786" lon="7.12827">
        <ele>362.46</ele>
        <time>2020-08-19T16:28:27.000Z</time>
      </trkpt>
      <trkpt lat="48.61792" lon="7.12825">
        <ele>362.61</ele>
        <time>2020-08-19T16:28:28.000Z</time>
      </trkpt>
      <trkpt lat="48.61797" lon="7.12824">
        <ele>363.11</ele>
        <time>2020-08-19T16:28:29.000Z</time>
      </trkpt>
      <trkpt lat="48.61802" lon="7.12825">
        <ele>363.54</ele>
        <time>2020-08-19T16:28:30.000Z</time>
      </trkpt>
      <trkpt lat="48.61807" lon="7.12825">
        <ele>364.13</ele>
        <time>2020-08-19T16:28:31.000Z</time>
      </trkpt>
      <trkpt lat="48.61812" lon="7.12827">
        <ele>364.4</ele>
        <time>2020-08-19T16:28:32.000Z</time>
      </trkpt>
      <trkpt lat="48.61818" lon="7.1283">
        <ele>364.52</ele>
        <time>2020-08-19T16:28:33.000Z</time>
      </trkpt>
      <trkpt lat="48.61822" lon="7.12832">
        <ele>364.74</ele>
        <time>2020-08-19T16:28:34.000Z</time>
      </trkpt>
      <trkpt lat="48.61826" lon="7.12836">
        <ele>363.42</ele>
        <time>2020-08-19T16:28:35.000Z</time>
      </trkpt>
      <trkpt lat="48.61831" lon="7.12842">
        <ele>363.82</ele>
        <time>2020-08-19T16:28:36.000Z</time>
      </trkpt>
      <trkpt lat="48.61835" lon="7.12845">
        <ele>364.28</ele>
        <time>2020-08-19T16:28:37.000Z</time>
      </trkpt>
      <trkpt lat="48.61839" lon="7.12848">
        <ele>365.32</ele>
        <time>2020-08-19T16:28:38.000Z</time>
      </trkpt>
      <trkpt lat="48.61846" lon="7.12856">
        <ele>365.63</ele>
        <time>2020-08-19T16:28:40.000Z</time>
      </trkpt>
      <trkpt lat="48.6185" lon="7.12863">
        <ele>364.36</ele>
        <time>2020-08-19T16:28:41.000Z</time>
      </trkpt>
      <trkpt lat="48.61854" lon="7.1287">
        <ele>362.57</ele>
        <time>2020-08-19T16:28:42.000Z</time>
      </trkpt>
      <trkpt lat="48.6186" lon="7.12879">
        <ele>364.38</ele>
        <time>2020-08-19T16:28:44.000Z</time>
      </trkpt>
      <trkpt lat="48.61868" lon="7.12888">
        <ele>364.93</ele>
        <time>2020-08-19T16:28:46.000Z</time>
      </trkpt>
      <trkpt lat="48.61871" lon="7.12893">
        <ele>364.61</ele>
        <time>2020-08-19T16:28:47.000Z</time>
      </trkpt>
      <trkpt lat="48.61874" lon="7.12898">
        <ele>364.8</ele>
        <time>2020-08-19T16:28:48.000Z</time>
      </trkpt>
      <trkpt lat="48.61878" lon="7.12903">
        <ele>365</ele>
        <time>2020-08-19T16:28:49.000Z</time>
      </trkpt>
      <trkpt lat="48.61882" lon="7.12908">
        <ele>364.2</ele>
        <time>2020-08-19T16:28:50.000Z</time>
      </trkpt>
      <trkpt lat="48.61884" lon="7.12913">
        <ele>363.86</ele>
        <time>2020-08-19T16:28:51.000Z</time>
      </trkpt>
      <trkpt lat="48.61889" lon="7.12918">
        <ele>363.79</ele>
        <time>2020-08-19T16:28:52.000Z</time>
      </trkpt>
      <trkpt lat="48.61893" lon="7.12922">
        <ele>364.03</ele>
        <time>2020-08-19T16:28:53.000Z</time>
      </trkpt>
      <trkpt lat="48.61898" lon="7.12926">
        <ele>364.15</ele>
        <time>2020-08-19T16:28:54.000Z</time>
      </trkpt>
      <trkpt lat="48.61903" lon="7.12931">
        <ele>364.39</ele>
        <time>2020-08-19T16:28:55.000Z</time>
      </trkpt>
      <trkpt lat="48.61906" lon="7.12935">
        <ele>364.47</ele>
        <time>2020-08-19T16:28:56.000Z</time>
      </trkpt>
      <trkpt lat="48.61911" lon="7.12938">
        <ele>364.22</ele>
        <time>2020-08-19T16:28:57.000Z</time>
      </trkpt>
      <trkpt lat="48.61915" lon="7.12942">
        <ele>364.14</ele>
        <time>2020-08-19T16:28:58.000Z</time>
      </trkpt>
      <trkpt lat="48.61921" lon="7.12944">
        <ele>364.58</ele>
        <time>2020-08-19T16:28:59.000Z</time>
      </trkpt>
      <trkpt lat="48.61926" lon="7.12947">
        <ele>364.46</ele>
        <time>2020-08-19T16:29:00.000Z</time>
      </trkpt>
      <trkpt lat="48.61931" lon="7.1295">
        <ele>365.7</ele>
        <time>2020-08-19T16:29:01.000Z</time>
      </trkpt>
      <trkpt lat="48.61937" lon="7.12952">
        <ele>366.01</ele>
        <time>2020-08-19T16:29:02.000Z</time>
      </trkpt>
      <trkpt lat="48.61942" lon="7.12953">
        <ele>365.99</ele>
        <time>2020-08-19T16:29:03.000Z</time>
      </trkpt>
      <trkpt lat="48.61951" lon="7.12958">
        <ele>366.56</ele>
        <time>2020-08-19T16:29:04.000Z</time>
      </trkpt>
      <trkpt lat="48.61958" lon="7.1296">
        <ele>366.57</ele>
        <time>2020-08-19T16:29:05.000Z</time>
      </trkpt>
      <trkpt lat="48.61964" lon="7.12964">
        <ele>363.93</ele>
        <time>2020-08-19T16:29:06.000Z</time>
      </trkpt>
      <trkpt lat="48.61971" lon="7.12966">
        <ele>364.66</ele>
        <time>2020-08-19T16:29:07.000Z</time>
      </trkpt>
      <trkpt lat="48.61978" lon="7.12967">
        <ele>364.8</ele>
        <time>2020-08-19T16:29:08.000Z</time>
      </trkpt>
      <trkpt lat="48.61986" lon="7.12968">
        <ele>364.93</ele>
        <time>2020-08-19T16:29:09.000Z</time>
      </trkpt>
      <trkpt lat="48.61997" lon="7.12971">
        <ele>362.37</ele>
        <time>2020-08-19T16:29:10.000Z</time>
      </trkpt>
      <trkpt lat="48.62003" lon="7.12967">
        <ele>363.81</ele>
        <time>2020-08-19T16:29:11.000Z</time>
      </trkpt>
      <trkpt lat="48.62018" lon="7.12966">
        <ele>363.99</ele>
        <time>2020-08-19T16:29:13.000Z</time>
      </trkpt>
      <trkpt lat="48.62025" lon="7.12971">
        <ele>364.71</ele>
        <time>2020-08-19T16:29:14.000Z</time>
      </trkpt>
      <trkpt lat="48.62032" lon="7.12972">
        <ele>365.11</ele>
        <time>2020-08-19T16:29:15.000Z</time>
      </trkpt>
      <trkpt lat="48.62039" lon="7.12972">
        <ele>366.24</ele>
        <time>2020-08-19T16:29:16.000Z</time>
      </trkpt>
      <trkpt lat="48.62045" lon="7.12973">
        <ele>367.44</ele>
        <time>2020-08-19T16:29:17.000Z</time>
      </trkpt>
      <trkpt lat="48.62053" lon="7.12971">
        <ele>364.63</ele>
        <time>2020-08-19T16:29:18.000Z</time>
      </trkpt>
      <trkpt lat="48.6206" lon="7.12972">
        <ele>362.7</ele>
        <time>2020-08-19T16:29:19.000Z</time>
      </trkpt>
      <trkpt lat="48.62068" lon="7.12968">
        <ele>363.76</ele>
        <time>2020-08-19T16:29:20.000Z</time>
      </trkpt>
      <trkpt lat="48.62076" lon="7.12965">
        <ele>364.02</ele>
        <time>2020-08-19T16:29:21.000Z</time>
      </trkpt>
      <trkpt lat="48.62084" lon="7.12961">
        <ele>363.75</ele>
        <time>2020-08-19T16:29:22.000Z</time>
      </trkpt>
      <trkpt lat="48.62092" lon="7.12957">
        <ele>364.81</ele>
        <time>2020-08-19T16:29:23.000Z</time>
      </trkpt>
      <trkpt lat="48.62098" lon="7.12952">
        <ele>365.09</ele>
        <time>2020-08-19T16:29:24.000Z</time>
      </trkpt>
      <trkpt lat="48.62106" lon="7.1295">
        <ele>365.06</ele>
        <time>2020-08-19T16:29:25.000Z</time>
      </trkpt>
      <trkpt lat="48.62112" lon="7.12944">
        <ele>363.43</ele>
        <time>2020-08-19T16:29:26.000Z</time>
      </trkpt>
      <trkpt lat="48.62118" lon="7.1294">
        <ele>363.22</ele>
        <time>2020-08-19T16:29:27.000Z</time>
      </trkpt>
      <trkpt lat="48.62125" lon="7.12938">
        <ele>363.93</ele>
        <time>2020-08-19T16:29:28.000Z</time>
      </trkpt>
      <trkpt lat="48.62132" lon="7.12934">
        <ele>363.81</ele>
        <time>2020-08-19T16:29:29.000Z</time>
      </trkpt>
      <trkpt lat="48.62138" lon="7.1293">
        <ele>364.12</ele>
        <time>2020-08-19T16:29:30.000Z</time>
      </trkpt>
      <trkpt lat="48.62144" lon="7.12925">
        <ele>363.79</ele>
        <time>2020-08-19T16:29:31.000Z</time>
      </trkpt>
      <trkpt lat="48.6215" lon="7.12921">
        <ele>363.72</ele>
        <time>2020-08-19T16:29:32.000Z</time>
      </trkpt>
      <trkpt lat="48.62157" lon="7.12919">
        <ele>362.97</ele>
        <time>2020-08-19T16:29:33.000Z</time>
      </trkpt>
      <trkpt lat="48.62163" lon="7.12911">
        <ele>363.28</ele>
        <time>2020-08-19T16:29:34.000Z</time>
      </trkpt>
      <trkpt lat="48.6217" lon="7.12909">
        <ele>363.9</ele>
        <time>2020-08-19T16:29:35.000Z</time>
      </trkpt>
      <trkpt lat="48.62176" lon="7.12905">
        <ele>363.55</ele>
        <time>2020-08-19T16:29:36.000Z</time>
      </trkpt>
      <trkpt lat="48.62184" lon="7.12903">
        <ele>361.98</ele>
        <time>2020-08-19T16:29:37.000Z</time>
      </trkpt>
      <trkpt lat="48.6219" lon="7.12903">
        <ele>360.99</ele>
        <time>2020-08-19T16:29:38.000Z</time>
      </trkpt>
      <trkpt lat="48.62196" lon="7.12904">
        <ele>359.93</ele>
        <time>2020-08-19T16:29:39.000Z</time>
      </trkpt>
      <trkpt lat="48.62203" lon="7.12905">
        <ele>360.34</ele>
        <time>2020-08-19T16:29:40.000Z</time>
      </trkpt>
      <trkpt lat="48.62209" lon="7.12904">
        <ele>360.55</ele>
        <time>2020-08-19T16:29:41.000Z</time>
      </trkpt>
      <trkpt lat="48.62215" lon="7.12911">
        <ele>359.56</ele>
        <time>2020-08-19T16:29:42.000Z</time>
      </trkpt>
      <trkpt lat="48.6222" lon="7.12914">
        <ele>360.04</ele>
        <time>2020-08-19T16:29:43.000Z</time>
      </trkpt>
      <trkpt lat="48.62225" lon="7.12919">
        <ele>360.42</ele>
        <time>2020-08-19T16:29:44.000Z</time>
      </trkpt>
      <trkpt lat="48.6223" lon="7.12924">
        <ele>360.14</ele>
        <time>2020-08-19T16:29:45.000Z</time>
      </trkpt>
      <trkpt lat="48.62234" lon="7.12927">
        <ele>361.5</ele>
        <time>2020-08-19T16:29:46.000Z</time>
      </trkpt>
      <trkpt lat="48.62239" lon="7.12932">
        <ele>361.78</ele>
        <time>2020-08-19T16:29:47.000Z</time>
      </trkpt>
      <trkpt lat="48.62244" lon="7.12936">
        <ele>362.36</ele>
        <time>2020-08-19T16:29:48.000Z</time>
      </trkpt>
      <trkpt lat="48.62249" lon="7.12941">
        <ele>362.69</ele>
        <time>2020-08-19T16:29:49.000Z</time>
      </trkpt>
      <trkpt lat="48.62254" lon="7.12946">
        <ele>362.85</ele>
        <time>2020-08-19T16:29:50.000Z</time>
      </trkpt>
      <trkpt lat="48.62259" lon="7.12952">
        <ele>362.81</ele>
        <time>2020-08-19T16:29:51.000Z</time>
      </trkpt>
      <trkpt lat="48.62265" lon="7.12957">
        <ele>362.22</ele>
        <time>2020-08-19T16:29:52.000Z</time>
      </trkpt>
      <trkpt lat="48.62287" lon="7.12975">
        <ele>364.06</ele>
        <time>2020-08-19T16:29:56.000Z</time>
      </trkpt>
      <trkpt lat="48.62291" lon="7.12979">
        <ele>363.01</ele>
        <time>2020-08-19T16:29:57.000Z</time>
      </trkpt>
      <trkpt lat="48.62296" lon="7.12983">
        <ele>363.59</ele>
        <time>2020-08-19T16:29:58.000Z</time>
      </trkpt>
      <trkpt lat="48.62298" lon="7.12989">
        <ele>361.61</ele>
        <time>2020-08-19T16:29:59.000Z</time>
      </trkpt>
      <trkpt lat="48.62304" lon="7.12996">
        <ele>360.71</ele>
        <time>2020-08-19T16:30:01.000Z</time>
      </trkpt>
      <trkpt lat="48.62306" lon="7.12989">
        <ele>360.44</ele>
        <time>2020-08-19T16:30:06.000Z</time>
      </trkpt>
      <trkpt lat="48.62302" lon="7.12986">
        <ele>360.94</ele>
        <time>2020-08-19T16:30:08.000Z</time>
      </trkpt>
      <trkpt lat="48.62296" lon="7.12983">
        <ele>360.99</ele>
        <time>2020-08-19T16:30:10.000Z</time>
      </trkpt>
      <trkpt lat="48.6229" lon="7.12977">
        <ele>361.19</ele>
        <time>2020-08-19T16:30:12.000Z</time>
      </trkpt>
      <trkpt lat="48.62283" lon="7.1297">
        <ele>360.84</ele>
        <time>2020-08-19T16:30:14.000Z</time>
      </trkpt>
      <trkpt lat="48.62276" lon="7.12964">
        <ele>361.04</ele>
        <time>2020-08-19T16:30:16.000Z</time>
      </trkpt>
      <trkpt lat="48.62269" lon="7.12957">
        <ele>360.86</ele>
        <time>2020-08-19T16:30:18.000Z</time>
      </trkpt>
      <trkpt lat="48.62262" lon="7.1295">
        <ele>361.08</ele>
        <time>2020-08-19T16:30:20.000Z</time>
      </trkpt>
      <trkpt lat="48.62255" lon="7.12948">
        <ele>361.02</ele>
        <time>2020-08-19T16:30:22.000Z</time>
      </trkpt>
      <trkpt lat="48.62246" lon="7.12952">
        <ele>361.57</ele>
        <time>2020-08-19T16:30:24.000Z</time>
      </trkpt>
      <trkpt lat="48.6224" lon="7.12951">
        <ele>362.08</ele>
        <time>2020-08-19T16:30:26.000Z</time>
      </trkpt>
      <trkpt lat="48.62234" lon="7.12947">
        <ele>362.3</ele>
        <time>2020-08-19T16:30:28.000Z</time>
      </trkpt>
      <trkpt lat="48.6223" lon="7.1294">
        <ele>362.12</ele>
        <time>2020-08-19T16:30:30.000Z</time>
      </trkpt>
      <trkpt lat="48.62225" lon="7.12932">
        <ele>362.32</ele>
        <time>2020-08-19T16:30:32.000Z</time>
      </trkpt>
      <trkpt lat="48.62218" lon="7.12924">
        <ele>363</ele>
        <time>2020-08-19T16:30:34.000Z</time>
      </trkpt>
      <trkpt lat="48.62213" lon="7.1292">
        <ele>364.02</ele>
        <time>2020-08-19T16:30:35.000Z</time>
      </trkpt>
      <trkpt lat="48.62209" lon="7.12916">
        <ele>365.71</ele>
        <time>2020-08-19T16:30:38.000Z</time>
      </trkpt>
      <trkpt lat="48.62205" lon="7.12921">
        <ele>365.9</ele>
        <time>2020-08-19T16:31:00.000Z</time>
      </trkpt>
      <trkpt lat="48.622" lon="7.1292">
        <ele>367.21</ele>
        <time>2020-08-19T16:31:04.000Z</time>
      </trkpt>
      <trkpt lat="48.62196" lon="7.12922">
        <ele>366.35</ele>
        <time>2020-08-19T16:31:08.000Z</time>
      </trkpt>
      <trkpt lat="48.62191" lon="7.12925">
        <ele>363.85</ele>
        <time>2020-08-19T16:31:15.000Z</time>
      </trkpt>
      <trkpt lat="48.62186" lon="7.12927">
        <ele>366.98</ele>
        <time>2020-08-19T16:31:18.000Z</time>
      </trkpt>
      <trkpt lat="48.6218" lon="7.12927">
        <ele>371.51</ele>
        <time>2020-08-19T16:31:23.000Z</time>
      </trkpt>
      <trkpt lat="48.62175" lon="7.12928">
        <ele>372.99</ele>
        <time>2020-08-19T16:31:27.000Z</time>
      </trkpt>
      <trkpt lat="48.62171" lon="7.12931">
        <ele>373.51</ele>
        <time>2020-08-19T16:31:32.000Z</time>
      </trkpt>
      <trkpt lat="48.62167" lon="7.12935">
        <ele>375.4</ele>
        <time>2020-08-19T16:31:36.000Z</time>
      </trkpt>
      <trkpt lat="48.62162" lon="7.12938">
        <ele>376.45</ele>
        <time>2020-08-19T16:31:41.000Z</time>
      </trkpt>
      <trkpt lat="48.62158" lon="7.12943">
        <ele>377.51</ele>
        <time>2020-08-19T16:31:45.000Z</time>
      </trkpt>
      <trkpt lat="48.62153" lon="7.12948">
        <ele>376.03</ele>
        <time>2020-08-19T16:31:50.000Z</time>
      </trkpt>
      <trkpt lat="48.6215" lon="7.12955">
        <ele>377.98</ele>
        <time>2020-08-19T16:31:54.000Z</time>
      </trkpt>
      <trkpt lat="48.62145" lon="7.12958">
        <ele>381.35</ele>
        <time>2020-08-19T16:31:58.000Z</time>
      </trkpt>
      <trkpt lat="48.62142" lon="7.12964">
        <ele>382.62</ele>
        <time>2020-08-19T16:32:03.000Z</time>
      </trkpt>
      <trkpt lat="48.62137" lon="7.12968">
        <ele>384.57</ele>
        <time>2020-08-19T16:32:06.000Z</time>
      </trkpt>
      <trkpt lat="48.62134" lon="7.12973">
        <ele>384.47</ele>
        <time>2020-08-19T16:32:10.000Z</time>
      </trkpt>
      <trkpt lat="48.62131" lon="7.1298">
        <ele>385.52</ele>
        <time>2020-08-19T16:32:17.000Z</time>
      </trkpt>
      <trkpt lat="48.62127" lon="7.12985">
        <ele>385.02</ele>
        <time>2020-08-19T16:32:20.000Z</time>
      </trkpt>
      <trkpt lat="48.62122" lon="7.12988">
        <ele>388.77</ele>
        <time>2020-08-19T16:32:24.000Z</time>
      </trkpt>
      <trkpt lat="48.6212" lon="7.12995">
        <ele>387.45</ele>
        <time>2020-08-19T16:32:28.000Z</time>
      </trkpt>
      <trkpt lat="48.62118" lon="7.13002">
        <ele>389.55</ele>
        <time>2020-08-19T16:32:32.000Z</time>
      </trkpt>
      <trkpt lat="48.62116" lon="7.13009">
        <ele>390.45</ele>
        <time>2020-08-19T16:32:36.000Z</time>
      </trkpt>
      <trkpt lat="48.62113" lon="7.13014">
        <ele>388.58</ele>
        <time>2020-08-19T16:32:40.000Z</time>
      </trkpt>
      <trkpt lat="48.62109" lon="7.13019">
        <ele>393.28</ele>
        <time>2020-08-19T16:32:46.000Z</time>
      </trkpt>
      <trkpt lat="48.62104" lon="7.1302">
        <ele>393.11</ele>
        <time>2020-08-19T16:32:49.000Z</time>
      </trkpt>
      <trkpt lat="48.621" lon="7.13026">
        <ele>393.22</ele>
        <time>2020-08-19T16:32:52.000Z</time>
      </trkpt>
      <trkpt lat="48.62096" lon="7.13031">
        <ele>391.44</ele>
        <time>2020-08-19T16:32:55.000Z</time>
      </trkpt>
      <trkpt lat="48.62093" lon="7.13037">
        <ele>387.1</ele>
        <time>2020-08-19T16:33:00.000Z</time>
      </trkpt>
      <trkpt lat="48.62091" lon="7.13044">
        <ele>388.99</ele>
        <time>2020-08-19T16:33:09.000Z</time>
      </trkpt>
      <trkpt lat="48.62088" lon="7.13049">
        <ele>385.69</ele>
        <time>2020-08-19T16:33:12.000Z</time>
      </trkpt>
      <trkpt lat="48.62084" lon="7.13053">
        <ele>385.79</ele>
        <time>2020-08-19T16:33:16.000Z</time>
      </trkpt>
      <trkpt lat="48.62079" lon="7.13058">
        <ele>385.71</ele>
        <time>2020-08-19T16:33:19.000Z</time>
      </trkpt>
      <trkpt lat="48.62073" lon="7.13063">
        <ele>385.03</ele>
        <time>2020-08-19T16:33:22.000Z</time>
      </trkpt>
      <trkpt lat="48.62057" lon="7.13068">
        <ele>390.6</ele>
        <time>2020-08-19T16:33:31.000Z</time>
      </trkpt>
      <trkpt lat="48.62051" lon="7.13067">
        <ele>392.35</ele>
        <time>2020-08-19T16:33:34.000Z</time>
      </trkpt>
      <trkpt lat="48.62046" lon="7.13067">
        <ele>393.49</ele>
        <time>2020-08-19T16:33:39.000Z</time>
      </trkpt>
      <trkpt lat="48.62041" lon="7.13067">
        <ele>393.09</ele>
        <time>2020-08-19T16:33:43.000Z</time>
      </trkpt>
      <trkpt lat="48.62035" lon="7.13068">
        <ele>392.62</ele>
        <time>2020-08-19T16:33:48.000Z</time>
      </trkpt>
      <trkpt lat="48.6203" lon="7.1307">
        <ele>393.47</ele>
        <time>2020-08-19T16:33:51.000Z</time>
      </trkpt>
      <trkpt lat="48.62026" lon="7.13069">
        <ele>397.02</ele>
        <time>2020-08-19T16:33:55.000Z</time>
      </trkpt>
      <trkpt lat="48.62021" lon="7.13073">
        <ele>394.47</ele>
        <time>2020-08-19T16:33:59.000Z</time>
      </trkpt>
      <trkpt lat="48.62015" lon="7.13074">
        <ele>394.13</ele>
        <time>2020-08-19T16:34:03.000Z</time>
      </trkpt>
      <trkpt lat="48.6201" lon="7.13073">
        <ele>394.05</ele>
        <time>2020-08-19T16:34:06.000Z</time>
      </trkpt>
      <trkpt lat="48.62005" lon="7.13073">
        <ele>397.18</ele>
        <time>2020-08-19T16:34:10.000Z</time>
      </trkpt>
      <trkpt lat="48.62" lon="7.13074">
        <ele>400.1</ele>
        <time>2020-08-19T16:34:14.000Z</time>
      </trkpt>
      <trkpt lat="48.61995" lon="7.13077">
        <ele>424.73</ele>
        <time>2020-08-19T16:34:20.000Z</time>
      </trkpt>
      <trkpt lat="48.6199" lon="7.13078">
        <ele>414.55</ele>
        <time>2020-08-19T16:34:24.000Z</time>
      </trkpt>
      <trkpt lat="48.61985" lon="7.13081">
        <ele>411.26</ele>
        <time>2020-08-19T16:34:30.000Z</time>
      </trkpt>
      <trkpt lat="48.61981" lon="7.13085">
        <ele>406.44</ele>
        <time>2020-08-19T16:34:33.000Z</time>
      </trkpt>
      <trkpt lat="48.61976" lon="7.13089">
        <ele>403.97</ele>
        <time>2020-08-19T16:34:36.000Z</time>
      </trkpt>
      <trkpt lat="48.61972" lon="7.13088">
        <ele>403.22</ele>
        <time>2020-08-19T16:34:42.000Z</time>
      </trkpt>
      <trkpt lat="48.61966" lon="7.13086">
        <ele>407.95</ele>
        <time>2020-08-19T16:34:46.000Z</time>
      </trkpt>
      <trkpt lat="48.61961" lon="7.13087">
        <ele>407.03</ele>
        <time>2020-08-19T16:34:50.000Z</time>
      </trkpt>
      <trkpt lat="48.61955" lon="7.13088">
        <ele>406.54</ele>
        <time>2020-08-19T16:34:58.000Z</time>
      </trkpt>
      <trkpt lat="48.6195" lon="7.13091">
        <ele>406.85</ele>
        <time>2020-08-19T16:35:02.000Z</time>
      </trkpt>
      <trkpt lat="48.61945" lon="7.13094">
        <ele>409.63</ele>
        <time>2020-08-19T16:35:06.000Z</time>
      </trkpt>
      <trkpt lat="48.6194" lon="7.13092">
        <ele>407.64</ele>
        <time>2020-08-19T16:35:10.000Z</time>
      </trkpt>
      <trkpt lat="48.61935" lon="7.13091">
        <ele>409.66</ele>
        <time>2020-08-19T16:35:14.000Z</time>
      </trkpt>
      <trkpt lat="48.6193" lon="7.13091">
        <ele>411.42</ele>
        <time>2020-08-19T16:35:19.000Z</time>
      </trkpt>
      <trkpt lat="48.61926" lon="7.13091">
        <ele>410.59</ele>
        <time>2020-08-19T16:35:23.000Z</time>
      </trkpt>
      <trkpt lat="48.6192" lon="7.1309">
        <ele>409.6</ele>
        <time>2020-08-19T16:35:29.000Z</time>
      </trkpt>
      <trkpt lat="48.61915" lon="7.13088">
        <ele>409.1</ele>
        <time>2020-08-19T16:35:33.000Z</time>
      </trkpt>
      <trkpt lat="48.61909" lon="7.13088">
        <ele>411.4</ele>
        <time>2020-08-19T16:35:36.000Z</time>
      </trkpt>
      <trkpt lat="48.61904" lon="7.13086">
        <ele>413.02</ele>
        <time>2020-08-19T16:35:40.000Z</time>
      </trkpt>
      <trkpt lat="48.61893" lon="7.13082">
        <ele>418.89</ele>
        <time>2020-08-19T16:35:47.000Z</time>
      </trkpt>
      <trkpt lat="48.61887" lon="7.13085">
        <ele>420.37</ele>
        <time>2020-08-19T16:35:50.000Z</time>
      </trkpt>
      <trkpt lat="48.61883" lon="7.13085">
        <ele>419.71</ele>
        <time>2020-08-19T16:35:54.000Z</time>
      </trkpt>
      <trkpt lat="48.61878" lon="7.13082">
        <ele>419.68</ele>
        <time>2020-08-19T16:35:57.000Z</time>
      </trkpt>
      <trkpt lat="48.61874" lon="7.13078">
        <ele>414.56</ele>
        <time>2020-08-19T16:36:02.000Z</time>
      </trkpt>
      <trkpt lat="48.61869" lon="7.13076">
        <ele>415.85</ele>
        <time>2020-08-19T16:36:05.000Z</time>
      </trkpt>
      <trkpt lat="48.61864" lon="7.13077">
        <ele>416.77</ele>
        <time>2020-08-19T16:36:08.000Z</time>
      </trkpt>
      <trkpt lat="48.61859" lon="7.13074">
        <ele>417.29</ele>
        <time>2020-08-19T16:36:11.000Z</time>
      </trkpt>
      <trkpt lat="48.61854" lon="7.13073">
        <ele>416.48</ele>
        <time>2020-08-19T16:36:16.000Z</time>
      </trkpt>
      <trkpt lat="48.61849" lon="7.13076">
        <ele>415.89</ele>
        <time>2020-08-19T16:36:19.000Z</time>
      </trkpt>
      <trkpt lat="48.61845" lon="7.13079">
        <ele>419.12</ele>
        <time>2020-08-19T16:36:22.000Z</time>
      </trkpt>
      <trkpt lat="48.6184" lon="7.13079">
        <ele>420.76</ele>
        <time>2020-08-19T16:36:26.000Z</time>
      </trkpt>
      <trkpt lat="48.61837" lon="7.13084">
        <ele>419.6</ele>
        <time>2020-08-19T16:36:35.000Z</time>
      </trkpt>
      <trkpt lat="48.61832" lon="7.13088">
        <ele>421.56</ele>
        <time>2020-08-19T16:36:39.000Z</time>
      </trkpt>
      <trkpt lat="48.61828" lon="7.13091">
        <ele>425.9</ele>
        <time>2020-08-19T16:36:43.000Z</time>
      </trkpt>
      <trkpt lat="48.61818" lon="7.13101">
        <ele>422.56</ele>
        <time>2020-08-19T16:36:53.000Z</time>
      </trkpt>
      <trkpt lat="48.61813" lon="7.13104">
        <ele>421.61</ele>
        <time>2020-08-19T16:36:56.000Z</time>
      </trkpt>
      <trkpt lat="48.6181" lon="7.13111">
        <ele>420.39</ele>
        <time>2020-08-19T16:36:59.000Z</time>
      </trkpt>
      <trkpt lat="48.61806" lon="7.13115">
        <ele>423.15</ele>
        <time>2020-08-19T16:37:03.000Z</time>
      </trkpt>
      <trkpt lat="48.61802" lon="7.13121">
        <ele>423.02</ele>
        <time>2020-08-19T16:37:07.000Z</time>
      </trkpt>
      <trkpt lat="48.61797" lon="7.13125">
        <ele>424.77</ele>
        <time>2020-08-19T16:37:11.000Z</time>
      </trkpt>
      <trkpt lat="48.61793" lon="7.13129">
        <ele>423.33</ele>
        <time>2020-08-19T16:37:16.000Z</time>
      </trkpt>
      <trkpt lat="48.6179" lon="7.13133">
        <ele>426.87</ele>
        <time>2020-08-19T16:37:21.000Z</time>
      </trkpt>
      <trkpt lat="48.61786" lon="7.13139">
        <ele>428.62</ele>
        <time>2020-08-19T16:37:25.000Z</time>
      </trkpt>
      <trkpt lat="48.61781" lon="7.13143">
        <ele>430.17</ele>
        <time>2020-08-19T16:37:29.000Z</time>
      </trkpt>
      <trkpt lat="48.61777" lon="7.13147">
        <ele>432.58</ele>
        <time>2020-08-19T16:37:37.000Z</time>
      </trkpt>
      <trkpt lat="48.61773" lon="7.1315">
        <ele>433.33</ele>
        <time>2020-08-19T16:37:46.000Z</time>
      </trkpt>
      <trkpt lat="48.61769" lon="7.13155">
        <ele>434.16</ele>
        <time>2020-08-19T16:37:50.000Z</time>
      </trkpt>
      <trkpt lat="48.61764" lon="7.13156">
        <ele>434.46</ele>
        <time>2020-08-19T16:37:55.000Z</time>
      </trkpt>
      <trkpt lat="48.61759" lon="7.13159">
        <ele>432.76</ele>
        <time>2020-08-19T16:37:58.000Z</time>
      </trkpt>
      <trkpt lat="48.61755" lon="7.13163">
        <ele>434.18</ele>
        <time>2020-08-19T16:38:05.000Z</time>
      </trkpt>
      <trkpt lat="48.6175" lon="7.13166">
        <ele>434.92</ele>
        <time>2020-08-19T16:38:11.000Z</time>
      </trkpt>
      <trkpt lat="48.61747" lon="7.13172">
        <ele>432.32</ele>
        <time>2020-08-19T16:38:16.000Z</time>
      </trkpt>
      <trkpt lat="48.61742" lon="7.13176">
        <ele>434</ele>
        <time>2020-08-19T16:38:19.000Z</time>
      </trkpt>
      <trkpt lat="48.6174" lon="7.13181">
        <ele>432.9</ele>
        <time>2020-08-19T16:38:22.000Z</time>
      </trkpt>
      <trkpt lat="48.61735" lon="7.13184">
        <ele>433.87</ele>
        <time>2020-08-19T16:38:26.000Z</time>
      </trkpt>
      <trkpt lat="48.61731" lon="7.13185">
        <ele>435.56</ele>
        <time>2020-08-19T16:38:30.000Z</time>
      </trkpt>
      <trkpt lat="48.61725" lon="7.13188">
        <ele>436.59</ele>
        <time>2020-08-19T16:38:34.000Z</time>
      </trkpt>
      <trkpt lat="48.61721" lon="7.1319">
        <ele>435.73</ele>
        <time>2020-08-19T16:38:37.000Z</time>
      </trkpt>
      <trkpt lat="48.61717" lon="7.13195">
        <ele>438.69</ele>
        <time>2020-08-19T16:38:42.000Z</time>
      </trkpt>
      <trkpt lat="48.61712" lon="7.132">
        <ele>437.07</ele>
        <time>2020-08-19T16:38:45.000Z</time>
      </trkpt>
      <trkpt lat="48.61709" lon="7.13204">
        <ele>441.8</ele>
        <time>2020-08-19T16:38:49.000Z</time>
      </trkpt>
      <trkpt lat="48.61704" lon="7.1321">
        <ele>438.49</ele>
        <time>2020-08-19T16:38:53.000Z</time>
      </trkpt>
      <trkpt lat="48.61699" lon="7.13214">
        <ele>437.63</ele>
        <time>2020-08-19T16:38:57.000Z</time>
      </trkpt>
      <trkpt lat="48.61696" lon="7.13218">
        <ele>435.54</ele>
        <time>2020-08-19T16:39:02.000Z</time>
      </trkpt>
      <trkpt lat="48.61691" lon="7.13221">
        <ele>437.98</ele>
        <time>2020-08-19T16:39:06.000Z</time>
      </trkpt>
      <trkpt lat="48.61686" lon="7.13223">
        <ele>440.77</ele>
        <time>2020-08-19T16:39:12.000Z</time>
      </trkpt>
      <trkpt lat="48.61681" lon="7.13227">
        <ele>439.27</ele>
        <time>2020-08-19T16:39:16.000Z</time>
      </trkpt>
      <trkpt lat="48.61675" lon="7.13231">
        <ele>440.64</ele>
        <time>2020-08-19T16:39:20.000Z</time>
      </trkpt>
      <trkpt lat="48.6167" lon="7.13232">
        <ele>441.55</ele>
        <time>2020-08-19T16:39:23.000Z</time>
      </trkpt>
      <trkpt lat="48.61652" lon="7.13234">
        <ele>441.24</ele>
        <time>2020-08-19T16:39:40.000Z</time>
      </trkpt>
      <trkpt lat="48.6163" lon="7.13233">
        <ele>445.53</ele>
        <time>2020-08-19T16:39:51.000Z</time>
      </trkpt>
      <trkpt lat="48.61624" lon="7.13234">
        <ele>445</ele>
        <time>2020-08-19T16:39:53.000Z</time>
      </trkpt>
      <trkpt lat="48.61618" lon="7.13236">
        <ele>445.09</ele>
        <time>2020-08-19T16:39:55.000Z</time>
      </trkpt>
      <trkpt lat="48.61612" lon="7.13236">
        <ele>445.43</ele>
        <time>2020-08-19T16:39:57.000Z</time>
      </trkpt>
      <trkpt lat="48.61604" lon="7.13235">
        <ele>448.62</ele>
        <time>2020-08-19T16:39:59.000Z</time>
      </trkpt>
      <trkpt lat="48.61599" lon="7.13235">
        <ele>446.51</ele>
        <time>2020-08-19T16:40:01.000Z</time>
      </trkpt>
      <trkpt lat="48.61594" lon="7.13235">
        <ele>444.99</ele>
        <time>2020-08-19T16:40:03.000Z</time>
      </trkpt>
      <trkpt lat="48.61588" lon="7.13236">
        <ele>445.73</ele>
        <time>2020-08-19T16:40:05.000Z</time>
      </trkpt>
      <trkpt lat="48.61581" lon="7.13238">
        <ele>442.78</ele>
        <time>2020-08-19T16:40:07.000Z</time>
      </trkpt>
      <trkpt lat="48.61576" lon="7.13239">
        <ele>444.04</ele>
        <time>2020-08-19T16:40:09.000Z</time>
      </trkpt>
      <trkpt lat="48.61571" lon="7.13241">
        <ele>445.54</ele>
        <time>2020-08-19T16:40:11.000Z</time>
      </trkpt>
      <trkpt lat="48.61567" lon="7.13242">
        <ele>444.49</ele>
        <time>2020-08-19T16:40:14.000Z</time>
      </trkpt>
      <trkpt lat="48.61561" lon="7.13245">
        <ele>445.74</ele>
        <time>2020-08-19T16:40:18.000Z</time>
      </trkpt>
      <trkpt lat="48.61558" lon="7.13249">
        <ele>446.81</ele>
        <time>2020-08-19T16:40:20.000Z</time>
      </trkpt>
      <trkpt lat="48.61553" lon="7.13253">
        <ele>447.74</ele>
        <time>2020-08-19T16:40:22.000Z</time>
      </trkpt>
      <trkpt lat="48.61549" lon="7.13258">
        <ele>448.51</ele>
        <time>2020-08-19T16:40:24.000Z</time>
      </trkpt>
      <trkpt lat="48.61545" lon="7.13262">
        <ele>449.79</ele>
        <time>2020-08-19T16:40:26.000Z</time>
      </trkpt>
      <trkpt lat="48.6154" lon="7.13265">
        <ele>448.35</ele>
        <time>2020-08-19T16:40:28.000Z</time>
      </trkpt>
      <trkpt lat="48.61522" lon="7.13283">
        <ele>449.59</ele>
        <time>2020-08-19T16:40:34.000Z</time>
      </trkpt>
      <trkpt lat="48.61517" lon="7.13287">
        <ele>449.13</ele>
        <time>2020-08-19T16:40:36.000Z</time>
      </trkpt>
      <trkpt lat="48.61511" lon="7.13292">
        <ele>450.69</ele>
        <time>2020-08-19T16:40:38.000Z</time>
      </trkpt>
      <trkpt lat="48.61507" lon="7.13297">
        <ele>448.61</ele>
        <time>2020-08-19T16:40:40.000Z</time>
      </trkpt>
      <trkpt lat="48.61504" lon="7.13303">
        <ele>449.12</ele>
        <time>2020-08-19T16:40:43.000Z</time>
      </trkpt>
      <trkpt lat="48.61504" lon="7.13311">
        <ele>448.25</ele>
        <time>2020-08-19T16:40:46.000Z</time>
      </trkpt>
      <trkpt lat="48.61501" lon="7.13318">
        <ele>447.41</ele>
        <time>2020-08-19T16:40:48.000Z</time>
      </trkpt>
      <trkpt lat="48.615" lon="7.13329">
        <ele>445.48</ele>
        <time>2020-08-19T16:40:51.000Z</time>
      </trkpt>
      <trkpt lat="48.61498" lon="7.13343">
        <ele>446.37</ele>
        <time>2020-08-19T16:40:53.000Z</time>
      </trkpt>
      <trkpt lat="48.61498" lon="7.1335">
        <ele>447.13</ele>
        <time>2020-08-19T16:40:54.000Z</time>
      </trkpt>
      <trkpt lat="48.61497" lon="7.13361">
        <ele>448.74</ele>
        <time>2020-08-19T16:40:56.000Z</time>
      </trkpt>
      <trkpt lat="48.61495" lon="7.13373">
        <ele>449.62</ele>
        <time>2020-08-19T16:40:58.000Z</time>
      </trkpt>
      <trkpt lat="48.61495" lon="7.13386">
        <ele>463.99</ele>
        <time>2020-08-19T16:41:00.000Z</time>
      </trkpt>
      <trkpt lat="48.61494" lon="7.13398">
        <ele>461.81</ele>
        <time>2020-08-19T16:41:02.000Z</time>
      </trkpt>
      <trkpt lat="48.61493" lon="7.13406">
        <ele>460.22</ele>
        <time>2020-08-19T16:41:04.000Z</time>
      </trkpt>
      <trkpt lat="48.61492" lon="7.13413">
        <ele>451.43</ele>
        <time>2020-08-19T16:41:06.000Z</time>
      </trkpt>
      <trkpt lat="48.61488" lon="7.1342">
        <ele>452.32</ele>
        <time>2020-08-19T16:41:08.000Z</time>
      </trkpt>
      <trkpt lat="48.61483" lon="7.13425">
        <ele>453.41</ele>
        <time>2020-08-19T16:41:10.000Z</time>
      </trkpt>
      <trkpt lat="48.61479" lon="7.13428">
        <ele>453.53</ele>
        <time>2020-08-19T16:41:12.000Z</time>
      </trkpt>
      <trkpt lat="48.61474" lon="7.13427">
        <ele>453.97</ele>
        <time>2020-08-19T16:41:14.000Z</time>
      </trkpt>
      <trkpt lat="48.6147" lon="7.13425">
        <ele>454.4</ele>
        <time>2020-08-19T16:41:16.000Z</time>
      </trkpt>
      <trkpt lat="48.61463" lon="7.13425">
        <ele>562.89</ele>
        <time>2020-08-19T16:41:18.000Z</time>
      </trkpt>
      <trkpt lat="48.61457" lon="7.13425">
        <ele>535.94</ele>
        <time>2020-08-19T16:41:20.000Z</time>
      </trkpt>
      <trkpt lat="48.6145" lon="7.13425">
        <ele>515.11</ele>
        <time>2020-08-19T16:41:22.000Z</time>
      </trkpt>
      <trkpt lat="48.61443" lon="7.13427">
        <ele>489.05</ele>
        <time>2020-08-19T16:41:24.000Z</time>
      </trkpt>
      <trkpt lat="48.61437" lon="7.13428">
        <ele>529.22</ele>
        <time>2020-08-19T16:41:26.000Z</time>
      </trkpt>
      <trkpt lat="48.61412" lon="7.13438">
        <ele>489.77</ele>
        <time>2020-08-19T16:41:32.000Z</time>
      </trkpt>
      <trkpt lat="48.6139" lon="7.13433">
        <ele>461.38</ele>
        <time>2020-08-19T16:41:38.000Z</time>
      </trkpt>
      <trkpt lat="48.61383" lon="7.13435">
        <ele>463.49</ele>
        <time>2020-08-19T16:41:40.000Z</time>
      </trkpt>
      <trkpt lat="48.61379" lon="7.13439">
        <ele>464.85</ele>
        <time>2020-08-19T16:41:42.000Z</time>
      </trkpt>
      <trkpt lat="48.61372" lon="7.13442">
        <ele>465.57</ele>
        <time>2020-08-19T16:41:45.000Z</time>
      </trkpt>
      <trkpt lat="48.61368" lon="7.13445">
        <ele>466.45</ele>
        <time>2020-08-19T16:41:47.000Z</time>
      </trkpt>
      <trkpt lat="48.61364" lon="7.13449">
        <ele>464.43</ele>
        <time>2020-08-19T16:41:49.000Z</time>
      </trkpt>
      <trkpt lat="48.61353" lon="7.13452">
        <ele>460.66</ele>
        <time>2020-08-19T16:41:53.000Z</time>
      </trkpt>
      <trkpt lat="48.61349" lon="7.13459">
        <ele>460.97</ele>
        <time>2020-08-19T16:41:55.000Z</time>
      </trkpt>
      <trkpt lat="48.61344" lon="7.13464">
        <ele>462.95</ele>
        <time>2020-08-19T16:41:57.000Z</time>
      </trkpt>
      <trkpt lat="48.6134" lon="7.1347">
        <ele>463.95</ele>
        <time>2020-08-19T16:41:59.000Z</time>
      </trkpt>
      <trkpt lat="48.61337" lon="7.13477">
        <ele>464.85</ele>
        <time>2020-08-19T16:42:13.000Z</time>
      </trkpt>
      <trkpt lat="48.61334" lon="7.13483">
        <ele>464.01</ele>
        <time>2020-08-19T16:42:18.000Z</time>
      </trkpt>
      <trkpt lat="48.61335" lon="7.1349">
        <ele>466.69</ele>
        <time>2020-08-19T16:42:24.000Z</time>
      </trkpt>
      <trkpt lat="48.61334" lon="7.13498">
        <ele>464.54</ele>
        <time>2020-08-19T16:42:32.000Z</time>
      </trkpt>
      <trkpt lat="48.61332" lon="7.13507">
        <ele>465</ele>
        <time>2020-08-19T16:42:35.000Z</time>
      </trkpt>
      <trkpt lat="48.61329" lon="7.13515">
        <ele>465.27</ele>
        <time>2020-08-19T16:42:38.000Z</time>
      </trkpt>
      <trkpt lat="48.61325" lon="7.13523">
        <ele>466.12</ele>
        <time>2020-08-19T16:42:40.000Z</time>
      </trkpt>
      <trkpt lat="48.61321" lon="7.13528">
        <ele>466.6</ele>
        <time>2020-08-19T16:42:42.000Z</time>
      </trkpt>
      <trkpt lat="48.61318" lon="7.13534">
        <ele>467.06</ele>
        <time>2020-08-19T16:42:44.000Z</time>
      </trkpt>
      <trkpt lat="48.61315" lon="7.13542">
        <ele>465.7</ele>
        <time>2020-08-19T16:42:47.000Z</time>
      </trkpt>
      <trkpt lat="48.61315" lon="7.13549">
        <ele>467.22</ele>
        <time>2020-08-19T16:42:50.000Z</time>
      </trkpt>
      <trkpt lat="48.61312" lon="7.13557">
        <ele>469.21</ele>
        <time>2020-08-19T16:42:53.000Z</time>
      </trkpt>
      <trkpt lat="48.6131" lon="7.13565">
        <ele>469.5</ele>
        <time>2020-08-19T16:42:56.000Z</time>
      </trkpt>
      <trkpt lat="48.61308" lon="7.13572">
        <ele>469.86</ele>
        <time>2020-08-19T16:42:59.000Z</time>
      </trkpt>
      <trkpt lat="48.61308" lon="7.1358">
        <ele>470.02</ele>
        <time>2020-08-19T16:43:02.000Z</time>
      </trkpt>
      <trkpt lat="48.61306" lon="7.13587">
        <ele>473.21</ele>
        <time>2020-08-19T16:43:06.000Z</time>
      </trkpt>
      <trkpt lat="48.61302" lon="7.13596">
        <ele>474.69</ele>
        <time>2020-08-19T16:43:09.000Z</time>
      </trkpt>
      <trkpt lat="48.613" lon="7.13605">
        <ele>475.6</ele>
        <time>2020-08-19T16:43:12.000Z</time>
      </trkpt>
      <trkpt lat="48.61299" lon="7.13613">
        <ele>476.14</ele>
        <time>2020-08-19T16:43:15.000Z</time>
      </trkpt>
      <trkpt lat="48.61296" lon="7.13619">
        <ele>537.68</ele>
        <time>2020-08-19T16:43:19.000Z</time>
      </trkpt>
      <trkpt lat="48.61291" lon="7.13624">
        <ele>518.08</ele>
        <time>2020-08-19T16:43:22.000Z</time>
      </trkpt>
      <trkpt lat="48.61277" lon="7.13621">
        <ele>498.57</ele>
        <time>2020-08-19T16:43:27.000Z</time>
      </trkpt>
      <trkpt lat="48.61272" lon="7.13621">
        <ele>494.24</ele>
        <time>2020-08-19T16:43:29.000Z</time>
      </trkpt>
      <trkpt lat="48.61266" lon="7.13617">
        <ele>542.16</ele>
        <time>2020-08-19T16:43:50.000Z</time>
      </trkpt>
      <trkpt lat="48.6126" lon="7.13615">
        <ele>522.36</ele>
        <time>2020-08-19T16:43:52.000Z</time>
      </trkpt>
      <trkpt lat="48.61257" lon="7.1361">
        <ele>513.53</ele>
        <time>2020-08-19T16:43:54.000Z</time>
      </trkpt>
      <trkpt lat="48.61236" lon="7.13597">
        <ele>484.37</ele>
        <time>2020-08-19T16:44:01.000Z</time>
      </trkpt>
      <trkpt lat="48.6123" lon="7.13592">
        <ele>487.39</ele>
        <time>2020-08-19T16:44:03.000Z</time>
      </trkpt>
      <trkpt lat="48.61224" lon="7.13589">
        <ele>485.17</ele>
        <time>2020-08-19T16:44:05.000Z</time>
      </trkpt>
      <trkpt lat="48.61219" lon="7.13588">
        <ele>486.27</ele>
        <time>2020-08-19T16:44:07.000Z</time>
      </trkpt>
      <trkpt lat="48.61214" lon="7.13585">
        <ele>486.47</ele>
        <time>2020-08-19T16:44:10.000Z</time>
      </trkpt>
      <trkpt lat="48.6121" lon="7.13579">
        <ele>487.21</ele>
        <time>2020-08-19T16:44:12.000Z</time>
      </trkpt>
      <trkpt lat="48.61205" lon="7.13574">
        <ele>488.31</ele>
        <time>2020-08-19T16:44:15.000Z</time>
      </trkpt>
      <trkpt lat="48.61199" lon="7.13574">
        <ele>489.2</ele>
        <time>2020-08-19T16:44:17.000Z</time>
      </trkpt>
      <trkpt lat="48.61172" lon="7.13568">
        <ele>484.9</ele>
        <time>2020-08-19T16:44:24.000Z</time>
      </trkpt>
      <trkpt lat="48.61166" lon="7.1357">
        <ele>483.17</ele>
        <time>2020-08-19T16:44:26.000Z</time>
      </trkpt>
      <trkpt lat="48.61153" lon="7.13578">
        <ele>476.92</ele>
        <time>2020-08-19T16:44:33.000Z</time>
      </trkpt>
      <trkpt lat="48.61147" lon="7.1358">
        <ele>507.9</ele>
        <time>2020-08-19T16:44:36.000Z</time>
      </trkpt>
      <trkpt lat="48.61142" lon="7.13585">
        <ele>489.49</ele>
        <time>2020-08-19T16:44:39.000Z</time>
      </trkpt>
      <trkpt lat="48.61139" lon="7.13589">
        <ele>485.5</ele>
        <time>2020-08-19T16:44:41.000Z</time>
      </trkpt>
      <trkpt lat="48.61135" lon="7.13596">
        <ele>483.31</ele>
        <time>2020-08-19T16:44:43.000Z</time>
      </trkpt>
      <trkpt lat="48.61132" lon="7.13602">
        <ele>480.99</ele>
        <time>2020-08-19T16:44:45.000Z</time>
      </trkpt>
      <trkpt lat="48.61128" lon="7.13608">
        <ele>479.44</ele>
        <time>2020-08-19T16:44:48.000Z</time>
      </trkpt>
      <trkpt lat="48.61127" lon="7.13616">
        <ele>478.29</ele>
        <time>2020-08-19T16:44:50.000Z</time>
      </trkpt>
      <trkpt lat="48.61125" lon="7.13626">
        <ele>479.44</ele>
        <time>2020-08-19T16:44:52.000Z</time>
      </trkpt>
      <trkpt lat="48.61123" lon="7.13636">
        <ele>478.83</ele>
        <time>2020-08-19T16:44:54.000Z</time>
      </trkpt>
      <trkpt lat="48.6112" lon="7.13644">
        <ele>479.31</ele>
        <time>2020-08-19T16:44:56.000Z</time>
      </trkpt>
      <trkpt lat="48.61117" lon="7.13652">
        <ele>479.44</ele>
        <time>2020-08-19T16:44:58.000Z</time>
      </trkpt>
      <trkpt lat="48.61116" lon="7.13659">
        <ele>481.63</ele>
        <time>2020-08-19T16:45:00.000Z</time>
      </trkpt>
      <trkpt lat="48.61114" lon="7.13665">
        <ele>482.56</ele>
        <time>2020-08-19T16:45:02.000Z</time>
      </trkpt>
      <trkpt lat="48.61112" lon="7.13675">
        <ele>483.37</ele>
        <time>2020-08-19T16:45:05.000Z</time>
      </trkpt>
      <trkpt lat="48.61111" lon="7.13681">
        <ele>484.95</ele>
        <time>2020-08-19T16:45:08.000Z</time>
      </trkpt>
      <trkpt lat="48.6111" lon="7.13688">
        <ele>485.7</ele>
        <time>2020-08-19T16:45:10.000Z</time>
      </trkpt>
      <trkpt lat="48.61108" lon="7.13698">
        <ele>483.71</ele>
        <time>2020-08-19T16:45:12.000Z</time>
      </trkpt>
      <trkpt lat="48.61107" lon="7.13706">
        <ele>481.72</ele>
        <time>2020-08-19T16:45:14.000Z</time>
      </trkpt>
      <trkpt lat="48.61107" lon="7.13715">
        <ele>482.02</ele>
        <time>2020-08-19T16:45:16.000Z</time>
      </trkpt>
      <trkpt lat="48.61108" lon="7.13724">
        <ele>519.79</ele>
        <time>2020-08-19T16:45:18.000Z</time>
      </trkpt>
      <trkpt lat="48.61107" lon="7.13734">
        <ele>507.35</ele>
        <time>2020-08-19T16:45:20.000Z</time>
      </trkpt>
      <trkpt lat="48.61106" lon="7.13742">
        <ele>499.3</ele>
        <time>2020-08-19T16:45:22.000Z</time>
      </trkpt>
      <trkpt lat="48.61103" lon="7.13752">
        <ele>496.32</ele>
        <time>2020-08-19T16:45:24.000Z</time>
      </trkpt>
      <trkpt lat="48.61101" lon="7.13761">
        <ele>494.64</ele>
        <time>2020-08-19T16:45:26.000Z</time>
      </trkpt>
      <trkpt lat="48.61099" lon="7.13767">
        <ele>491.66</ele>
        <time>2020-08-19T16:45:28.000Z</time>
      </trkpt>
      <trkpt lat="48.61094" lon="7.13775">
        <ele>491.85</ele>
        <time>2020-08-19T16:45:30.000Z</time>
      </trkpt>
      <trkpt lat="48.61089" lon="7.13779">
        <ele>493</ele>
        <time>2020-08-19T16:45:32.000Z</time>
      </trkpt>
      <trkpt lat="48.61086" lon="7.13787">
        <ele>493.44</ele>
        <time>2020-08-19T16:45:34.000Z</time>
      </trkpt>
      <trkpt lat="48.61083" lon="7.13794">
        <ele>494.1</ele>
        <time>2020-08-19T16:45:36.000Z</time>
      </trkpt>
      <trkpt lat="48.61081" lon="7.13803">
        <ele>494.49</ele>
        <time>2020-08-19T16:45:38.000Z</time>
      </trkpt>
      <trkpt lat="48.61081" lon="7.13812">
        <ele>495.18</ele>
        <time>2020-08-19T16:45:40.000Z</time>
      </trkpt>
      <trkpt lat="48.6108" lon="7.13822">
        <ele>523.3</ele>
        <time>2020-08-19T16:45:42.000Z</time>
      </trkpt>
      <trkpt lat="48.61078" lon="7.1383">
        <ele>533.84</ele>
        <time>2020-08-19T16:45:44.000Z</time>
      </trkpt>
      <trkpt lat="48.61075" lon="7.13838">
        <ele>517.37</ele>
        <time>2020-08-19T16:45:46.000Z</time>
      </trkpt>
      <trkpt lat="48.61073" lon="7.13844">
        <ele>511.82</ele>
        <time>2020-08-19T16:45:48.000Z</time>
      </trkpt>
      <trkpt lat="48.61074" lon="7.13854">
        <ele>508.79</ele>
        <time>2020-08-19T16:45:50.000Z</time>
      </trkpt>
      <trkpt lat="48.61075" lon="7.13862">
        <ele>506.86</ele>
        <time>2020-08-19T16:45:52.000Z</time>
      </trkpt>
      <trkpt lat="48.61076" lon="7.13872">
        <ele>507.89</ele>
        <time>2020-08-19T16:45:54.000Z</time>
      </trkpt>
      <trkpt lat="48.61076" lon="7.13879">
        <ele>506.28</ele>
        <time>2020-08-19T16:45:56.000Z</time>
      </trkpt>
      <trkpt lat="48.61075" lon="7.13886">
        <ele>502.3</ele>
        <time>2020-08-19T16:45:58.000Z</time>
      </trkpt>
      <trkpt lat="48.6107" lon="7.13892">
        <ele>501.04</ele>
        <time>2020-08-19T16:46:00.000Z</time>
      </trkpt>
      <trkpt lat="48.61065" lon="7.13899">
        <ele>497.77</ele>
        <time>2020-08-19T16:46:02.000Z</time>
      </trkpt>
      <trkpt lat="48.61058" lon="7.13903">
        <ele>495.1</ele>
        <time>2020-08-19T16:46:04.000Z</time>
      </trkpt>
      <trkpt lat="48.61052" lon="7.13905">
        <ele>496.81</ele>
        <time>2020-08-19T16:46:06.000Z</time>
      </trkpt>
      <trkpt lat="48.61044" lon="7.13904">
        <ele>496.25</ele>
        <time>2020-08-19T16:46:08.000Z</time>
      </trkpt>
      <trkpt lat="48.61037" lon="7.13904">
        <ele>495.62</ele>
        <time>2020-08-19T16:46:10.000Z</time>
      </trkpt>
      <trkpt lat="48.61029" lon="7.139">
        <ele>497.25</ele>
        <time>2020-08-19T16:46:12.000Z</time>
      </trkpt>
      <trkpt lat="48.61024" lon="7.13897">
        <ele>496.71</ele>
        <time>2020-08-19T16:46:14.000Z</time>
      </trkpt>
      <trkpt lat="48.61019" lon="7.13894">
        <ele>497.16</ele>
        <time>2020-08-19T16:46:16.000Z</time>
      </trkpt>
      <trkpt lat="48.61014" lon="7.13891">
        <ele>498.71</ele>
        <time>2020-08-19T16:46:18.000Z</time>
      </trkpt>
      <trkpt lat="48.6101" lon="7.13887">
        <ele>500.03</ele>
        <time>2020-08-19T16:46:20.000Z</time>
      </trkpt>
      <trkpt lat="48.61004" lon="7.13883">
        <ele>500.27</ele>
        <time>2020-08-19T16:46:22.000Z</time>
      </trkpt>
      <trkpt lat="48.61" lon="7.13878">
        <ele>501.08</ele>
        <time>2020-08-19T16:46:25.000Z</time>
      </trkpt>
      <trkpt lat="48.60994" lon="7.13872">
        <ele>500.55</ele>
        <time>2020-08-19T16:46:27.000Z</time>
      </trkpt>
      <trkpt lat="48.60988" lon="7.13865">
        <ele>500.99</ele>
        <time>2020-08-19T16:46:29.000Z</time>
      </trkpt>
      <trkpt lat="48.60982" lon="7.13859">
        <ele>499.65</ele>
        <time>2020-08-19T16:46:31.000Z</time>
      </trkpt>
      <trkpt lat="48.60976" lon="7.13854">
        <ele>501.39</ele>
        <time>2020-08-19T16:46:33.000Z</time>
      </trkpt>
      <trkpt lat="48.60969" lon="7.13847">
        <ele>498.37</ele>
        <time>2020-08-19T16:46:35.000Z</time>
      </trkpt>
      <trkpt lat="48.60962" lon="7.13841">
        <ele>497.98</ele>
        <time>2020-08-19T16:46:37.000Z</time>
      </trkpt>
      <trkpt lat="48.60955" lon="7.13834">
        <ele>500.96</ele>
        <time>2020-08-19T16:46:39.000Z</time>
      </trkpt>
      <trkpt lat="48.6095" lon="7.13828">
        <ele>500.54</ele>
        <time>2020-08-19T16:46:41.000Z</time>
      </trkpt>
      <trkpt lat="48.60946" lon="7.13821">
        <ele>499.55</ele>
        <time>2020-08-19T16:46:43.000Z</time>
      </trkpt>
      <trkpt lat="48.60941" lon="7.13813">
        <ele>501.49</ele>
        <time>2020-08-19T16:46:45.000Z</time>
      </trkpt>
      <trkpt lat="48.60938" lon="7.13806">
        <ele>502.91</ele>
        <time>2020-08-19T16:46:47.000Z</time>
      </trkpt>
      <trkpt lat="48.60934" lon="7.13799">
        <ele>503.82</ele>
        <time>2020-08-19T16:46:49.000Z</time>
      </trkpt>
      <trkpt lat="48.60931" lon="7.13793">
        <ele>505.22</ele>
        <time>2020-08-19T16:46:52.000Z</time>
      </trkpt>
      <trkpt lat="48.60927" lon="7.13786">
        <ele>508.52</ele>
        <time>2020-08-19T16:47:13.000Z</time>
      </trkpt>
      <trkpt lat="48.60925" lon="7.13778">
        <ele>507.15</ele>
        <time>2020-08-19T16:47:15.000Z</time>
      </trkpt>
      <trkpt lat="48.60889" lon="7.13732">
        <ele>516.08</ele>
        <time>2020-08-19T16:47:34.000Z</time>
      </trkpt>
      <trkpt lat="48.6089" lon="7.13724">
        <ele>508.55</ele>
        <time>2020-08-19T16:47:43.000Z</time>
      </trkpt>
      <trkpt lat="48.60885" lon="7.13721">
        <ele>536.04</ele>
        <time>2020-08-19T16:47:48.000Z</time>
      </trkpt>
      <trkpt lat="48.6088" lon="7.13721">
        <ele>513.18</ele>
        <time>2020-08-19T16:47:54.000Z</time>
      </trkpt>
      <trkpt lat="48.60875" lon="7.13718">
        <ele>524.58</ele>
        <time>2020-08-19T16:47:59.000Z</time>
      </trkpt>
      <trkpt lat="48.60871" lon="7.13715">
        <ele>520.86</ele>
        <time>2020-08-19T16:48:04.000Z</time>
      </trkpt>
      <trkpt lat="48.60866" lon="7.13711">
        <ele>531.79</ele>
        <time>2020-08-19T16:48:10.000Z</time>
      </trkpt>
      <trkpt lat="48.60862" lon="7.13707">
        <ele>523.3</ele>
        <time>2020-08-19T16:48:17.000Z</time>
      </trkpt>
      <trkpt lat="48.6086" lon="7.137">
        <ele>518.27</ele>
        <time>2020-08-19T16:48:21.000Z</time>
      </trkpt>
      <trkpt lat="48.60855" lon="7.13697">
        <ele>522.53</ele>
        <time>2020-08-19T16:48:28.000Z</time>
      </trkpt>
      <trkpt lat="48.6085" lon="7.13694">
        <ele>524.82</ele>
        <time>2020-08-19T16:48:33.000Z</time>
      </trkpt>
      <trkpt lat="48.60845" lon="7.13691">
        <ele>533.08</ele>
        <time>2020-08-19T16:48:38.000Z</time>
      </trkpt>
      <trkpt lat="48.60841" lon="7.13686">
        <ele>523.78</ele>
        <time>2020-08-19T16:48:51.000Z</time>
      </trkpt>
      <trkpt lat="48.60837" lon="7.13684">
        <ele>523.69</ele>
        <time>2020-08-19T16:48:55.000Z</time>
      </trkpt>
      <trkpt lat="48.60831" lon="7.13683">
        <ele>523.26</ele>
        <time>2020-08-19T16:49:00.000Z</time>
      </trkpt>
      <trkpt lat="48.60827" lon="7.13681">
        <ele>527.13</ele>
        <time>2020-08-19T16:49:04.000Z</time>
      </trkpt>
      <trkpt lat="48.60822" lon="7.13678">
        <ele>527.97</ele>
        <time>2020-08-19T16:49:09.000Z</time>
      </trkpt>
      <trkpt lat="48.60818" lon="7.13679">
        <ele>526.97</ele>
        <time>2020-08-19T16:49:16.000Z</time>
      </trkpt>
      <trkpt lat="48.60814" lon="7.13675">
        <ele>529.06</ele>
        <time>2020-08-19T16:49:24.000Z</time>
      </trkpt>
      <trkpt lat="48.6081" lon="7.13671">
        <ele>528.66</ele>
        <time>2020-08-19T16:49:31.000Z</time>
      </trkpt>
      <trkpt lat="48.60805" lon="7.1367">
        <ele>529.81</ele>
        <time>2020-08-19T16:49:35.000Z</time>
      </trkpt>
      <trkpt lat="48.60804" lon="7.13677">
        <ele>530.92</ele>
        <time>2020-08-19T16:49:59.000Z</time>
      </trkpt>
      <trkpt lat="48.60806" lon="7.13683">
        <ele>531.48</ele>
        <time>2020-08-19T16:50:27.000Z</time>
      </trkpt>
      <trkpt lat="48.60807" lon="7.13691">
        <ele>532.28</ele>
        <time>2020-08-19T16:50:33.000Z</time>
      </trkpt>
      <trkpt lat="48.60809" lon="7.13698">
        <ele>533.67</ele>
        <time>2020-08-19T16:50:38.000Z</time>
      </trkpt>
      <trkpt lat="48.60809" lon="7.13706">
        <ele>534.39</ele>
        <time>2020-08-19T16:50:43.000Z</time>
      </trkpt>
      <trkpt lat="48.60813" lon="7.1371">
        <ele>533.25</ele>
        <time>2020-08-19T16:50:51.000Z</time>
      </trkpt>
      <trkpt lat="48.60816" lon="7.13715">
        <ele>531.17</ele>
        <time>2020-08-19T16:50:55.000Z</time>
      </trkpt>
      <trkpt lat="48.60815" lon="7.13723">
        <ele>531.68</ele>
        <time>2020-08-19T16:51:00.000Z</time>
      </trkpt>
      <trkpt lat="48.60814" lon="7.1373">
        <ele>533.33</ele>
        <time>2020-08-19T16:51:05.000Z</time>
      </trkpt>
      <trkpt lat="48.60818" lon="7.13736">
        <ele>532.85</ele>
        <time>2020-08-19T16:51:09.000Z</time>
      </trkpt>
      <trkpt lat="48.6082" lon="7.13743">
        <ele>534.92</ele>
        <time>2020-08-19T16:51:14.000Z</time>
      </trkpt>
      <trkpt lat="48.60821" lon="7.13751">
        <ele>535.1</ele>
        <time>2020-08-19T16:51:22.000Z</time>
      </trkpt>
      <trkpt lat="48.60828" lon="7.13775">
        <ele>535.33</ele>
        <time>2020-08-19T16:51:33.000Z</time>
      </trkpt>
      <trkpt lat="48.60827" lon="7.13782">
        <ele>534.96</ele>
        <time>2020-08-19T16:51:40.000Z</time>
      </trkpt>
      <trkpt lat="48.60826" lon="7.1379">
        <ele>536.25</ele>
        <time>2020-08-19T16:51:48.000Z</time>
      </trkpt>
      <trkpt lat="48.60824" lon="7.13798">
        <ele>537.5</ele>
        <time>2020-08-19T16:51:53.000Z</time>
      </trkpt>
      <trkpt lat="48.60825" lon="7.13822">
        <ele>539.4</ele>
        <time>2020-08-19T16:52:03.000Z</time>
      </trkpt>
      <trkpt lat="48.60825" lon="7.13829">
        <ele>539.05</ele>
        <time>2020-08-19T16:52:07.000Z</time>
      </trkpt>
      <trkpt lat="48.60826" lon="7.13836">
        <ele>543.71</ele>
        <time>2020-08-19T16:52:12.000Z</time>
      </trkpt>
      <trkpt lat="48.60828" lon="7.13843">
        <ele>542.34</ele>
        <time>2020-08-19T16:52:15.000Z</time>
      </trkpt>
      <trkpt lat="48.60829" lon="7.1385">
        <ele>544.68</ele>
        <time>2020-08-19T16:52:21.000Z</time>
      </trkpt>
      <trkpt lat="48.60831" lon="7.13857">
        <ele>544.67</ele>
        <time>2020-08-19T16:52:27.000Z</time>
      </trkpt>
      <trkpt lat="48.60832" lon="7.13865">
        <ele>543.15</ele>
        <time>2020-08-19T16:52:31.000Z</time>
      </trkpt>
      <trkpt lat="48.60832" lon="7.13872">
        <ele>544.61</ele>
        <time>2020-08-19T16:52:34.000Z</time>
      </trkpt>
      <trkpt lat="48.60831" lon="7.1388">
        <ele>545.41</ele>
        <time>2020-08-19T16:52:38.000Z</time>
      </trkpt>
      <trkpt lat="48.60834" lon="7.13885">
        <ele>544.14</ele>
        <time>2020-08-19T16:52:42.000Z</time>
      </trkpt>
      <trkpt lat="48.60832" lon="7.13921">
        <ele>542.97</ele>
        <time>2020-08-19T16:53:00.000Z</time>
      </trkpt>
      <trkpt lat="48.60834" lon="7.13928">
        <ele>529.54</ele>
        <time>2020-08-19T16:53:09.000Z</time>
      </trkpt>
      <trkpt lat="48.60837" lon="7.13934">
        <ele>543.15</ele>
        <time>2020-08-19T16:53:15.000Z</time>
      </trkpt>
      <trkpt lat="48.60839" lon="7.13941">
        <ele>547.27</ele>
        <time>2020-08-19T16:53:22.000Z</time>
      </trkpt>
      <trkpt lat="48.60839" lon="7.13949">
        <ele>547.37</ele>
        <time>2020-08-19T16:53:27.000Z</time>
      </trkpt>
      <trkpt lat="48.60838" lon="7.13956">
        <ele>549.29</ele>
        <time>2020-08-19T16:53:30.000Z</time>
      </trkpt>
      <trkpt lat="48.60839" lon="7.13963">
        <ele>549.04</ele>
        <time>2020-08-19T16:53:34.000Z</time>
      </trkpt>
      <trkpt lat="48.6084" lon="7.1397">
        <ele>547.55</ele>
        <time>2020-08-19T16:53:38.000Z</time>
      </trkpt>
      <trkpt lat="48.6084" lon="7.13979">
        <ele>548.35</ele>
        <time>2020-08-19T16:53:42.000Z</time>
      </trkpt>
      <trkpt lat="48.60839" lon="7.13986">
        <ele>550.1</ele>
        <time>2020-08-19T16:53:48.000Z</time>
      </trkpt>
      <trkpt lat="48.60842" lon="7.13993">
        <ele>552.03</ele>
        <time>2020-08-19T16:53:52.000Z</time>
      </trkpt>
      <trkpt lat="48.60844" lon="7.14">
        <ele>553.23</ele>
        <time>2020-08-19T16:53:58.000Z</time>
      </trkpt>
      <trkpt lat="48.60845" lon="7.14009">
        <ele>554.57</ele>
        <time>2020-08-19T16:54:02.000Z</time>
      </trkpt>
      <trkpt lat="48.60843" lon="7.14015">
        <ele>558.17</ele>
        <time>2020-08-19T16:54:06.000Z</time>
      </trkpt>
      <trkpt lat="48.60842" lon="7.14023">
        <ele>558.64</ele>
        <time>2020-08-19T16:54:13.000Z</time>
      </trkpt>
      <trkpt lat="48.60842" lon="7.14031">
        <ele>560.6</ele>
        <time>2020-08-19T16:54:18.000Z</time>
      </trkpt>
      <trkpt lat="48.60839" lon="7.14039">
        <ele>560.96</ele>
        <time>2020-08-19T16:54:23.000Z</time>
      </trkpt>
      <trkpt lat="48.60838" lon="7.14045">
        <ele>556.76</ele>
        <time>2020-08-19T16:54:27.000Z</time>
      </trkpt>
      <trkpt lat="48.60838" lon="7.14054">
        <ele>558.67</ele>
        <time>2020-08-19T16:54:31.000Z</time>
      </trkpt>
      <trkpt lat="48.60838" lon="7.14061">
        <ele>559.17</ele>
        <time>2020-08-19T16:54:35.000Z</time>
      </trkpt>
      <trkpt lat="48.60837" lon="7.14069">
        <ele>558.16</ele>
        <time>2020-08-19T16:54:39.000Z</time>
      </trkpt>
      <trkpt lat="48.60838" lon="7.14077">
        <ele>559.16</ele>
        <time>2020-08-19T16:54:44.000Z</time>
      </trkpt>
      <trkpt lat="48.60838" lon="7.14084">
        <ele>559.37</ele>
        <time>2020-08-19T16:54:49.000Z</time>
      </trkpt>
      <trkpt lat="48.60836" lon="7.14092">
        <ele>552.03</ele>
        <time>2020-08-19T16:54:54.000Z</time>
      </trkpt>
      <trkpt lat="48.60838" lon="7.14099">
        <ele>560.11</ele>
        <time>2020-08-19T16:54:58.000Z</time>
      </trkpt>
      <trkpt lat="48.6084" lon="7.14107">
        <ele>562.68</ele>
        <time>2020-08-19T16:55:02.000Z</time>
      </trkpt>
      <trkpt lat="48.60842" lon="7.14114">
        <ele>566.39</ele>
        <time>2020-08-19T16:55:06.000Z</time>
      </trkpt>
      <trkpt lat="48.60846" lon="7.14121">
        <ele>566.7</ele>
        <time>2020-08-19T16:55:11.000Z</time>
      </trkpt>
      <trkpt lat="48.60848" lon="7.14127">
        <ele>565.55</ele>
        <time>2020-08-19T16:55:15.000Z</time>
      </trkpt>
      <trkpt lat="48.60849" lon="7.14134">
        <ele>565.19</ele>
        <time>2020-08-19T16:55:19.000Z</time>
      </trkpt>
      <trkpt lat="48.60849" lon="7.14143">
        <ele>565.6</ele>
        <time>2020-08-19T16:55:23.000Z</time>
      </trkpt>
      <trkpt lat="48.60852" lon="7.14149">
        <ele>564.66</ele>
        <time>2020-08-19T16:55:27.000Z</time>
      </trkpt>
      <trkpt lat="48.60855" lon="7.14156">
        <ele>566.38</ele>
        <time>2020-08-19T16:55:32.000Z</time>
      </trkpt>
      <trkpt lat="48.60839" lon="7.14178">
        <ele>570.63</ele>
        <time>2020-08-19T16:56:02.000Z</time>
      </trkpt>
      <trkpt lat="48.60834" lon="7.14183">
        <ele>573.42</ele>
        <time>2020-08-19T16:56:05.000Z</time>
      </trkpt>
      <trkpt lat="48.6083" lon="7.14187">
        <ele>573.91</ele>
        <time>2020-08-19T16:56:10.000Z</time>
      </trkpt>
      <trkpt lat="48.60826" lon="7.14191">
        <ele>573.91</ele>
        <time>2020-08-19T16:56:14.000Z</time>
      </trkpt>
      <trkpt lat="48.60821" lon="7.14194">
        <ele>574.89</ele>
        <time>2020-08-19T16:56:23.000Z</time>
      </trkpt>
      <trkpt lat="48.60817" lon="7.14198">
        <ele>572.85</ele>
        <time>2020-08-19T16:56:27.000Z</time>
      </trkpt>
      <trkpt lat="48.60814" lon="7.14204">
        <ele>571.01</ele>
        <time>2020-08-19T16:56:30.000Z</time>
      </trkpt>
      <trkpt lat="48.6081" lon="7.14209">
        <ele>573.96</ele>
        <time>2020-08-19T16:56:34.000Z</time>
      </trkpt>
      <trkpt lat="48.60806" lon="7.14212">
        <ele>576.14</ele>
        <time>2020-08-19T16:56:37.000Z</time>
      </trkpt>
      <trkpt lat="48.60801" lon="7.14213">
        <ele>577.66</ele>
        <time>2020-08-19T16:56:41.000Z</time>
      </trkpt>
      <trkpt lat="48.60797" lon="7.14216">
        <ele>580.2</ele>
        <time>2020-08-19T16:56:44.000Z</time>
      </trkpt>
      <trkpt lat="48.60792" lon="7.1422">
        <ele>582.89</ele>
        <time>2020-08-19T16:56:49.000Z</time>
      </trkpt>
      <trkpt lat="48.60788" lon="7.14224">
        <ele>585.07</ele>
        <time>2020-08-19T16:56:52.000Z</time>
      </trkpt>
      <trkpt lat="48.60784" lon="7.1423">
        <ele>587.6</ele>
        <time>2020-08-19T16:57:00.000Z</time>
      </trkpt>
      <trkpt lat="48.6078" lon="7.14236">
        <ele>587.44</ele>
        <time>2020-08-19T16:57:03.000Z</time>
      </trkpt>
      <trkpt lat="48.60776" lon="7.14241">
        <ele>591.47</ele>
        <time>2020-08-19T16:57:07.000Z</time>
      </trkpt>
      <trkpt lat="48.6074" lon="7.14275">
        <ele>591.52</ele>
        <time>2020-08-19T16:57:24.000Z</time>
      </trkpt>
      <trkpt lat="48.60735" lon="7.1428">
        <ele>589.58</ele>
        <time>2020-08-19T16:57:27.000Z</time>
      </trkpt>
      <trkpt lat="48.6073" lon="7.14285">
        <ele>585.67</ele>
        <time>2020-08-19T16:57:30.000Z</time>
      </trkpt>
      <trkpt lat="48.60726" lon="7.14289">
        <ele>586.06</ele>
        <time>2020-08-19T16:57:33.000Z</time>
      </trkpt>
      <trkpt lat="48.60716" lon="7.14296">
        <ele>586.33</ele>
        <time>2020-08-19T16:57:38.000Z</time>
      </trkpt>
      <trkpt lat="48.60711" lon="7.14297">
        <ele>585.13</ele>
        <time>2020-08-19T16:57:40.000Z</time>
      </trkpt>
      <trkpt lat="48.60706" lon="7.14298">
        <ele>581.41</ele>
        <time>2020-08-19T16:57:42.000Z</time>
      </trkpt>
      <trkpt lat="48.60701" lon="7.14298">
        <ele>581.12</ele>
        <time>2020-08-19T16:57:45.000Z</time>
      </trkpt>
      <trkpt lat="48.60696" lon="7.143">
        <ele>579.83</ele>
        <time>2020-08-19T16:57:48.000Z</time>
      </trkpt>
      <trkpt lat="48.60693" lon="7.14305">
        <ele>581.57</ele>
        <time>2020-08-19T16:57:50.000Z</time>
      </trkpt>
      <trkpt lat="48.60688" lon="7.1431">
        <ele>580.57</ele>
        <time>2020-08-19T16:57:53.000Z</time>
      </trkpt>
      <trkpt lat="48.60683" lon="7.14312">
        <ele>465.19</ele>
        <time>2020-08-19T16:57:55.000Z</time>
      </trkpt>
      <trkpt lat="48.60677" lon="7.14316">
        <ele>520.17</ele>
        <time>2020-08-19T16:57:58.000Z</time>
      </trkpt>
      <trkpt lat="48.60671" lon="7.1432">
        <ele>550.85</ele>
        <time>2020-08-19T16:58:01.000Z</time>
      </trkpt>
      <trkpt lat="48.60666" lon="7.14322">
        <ele>564.12</ele>
        <time>2020-08-19T16:58:03.000Z</time>
      </trkpt>
      <trkpt lat="48.60661" lon="7.14323">
        <ele>572.11</ele>
        <time>2020-08-19T16:58:05.000Z</time>
      </trkpt>
      <trkpt lat="48.60655" lon="7.14326">
        <ele>576.12</ele>
        <time>2020-08-19T16:58:08.000Z</time>
      </trkpt>
      <trkpt lat="48.6065" lon="7.14328">
        <ele>579.51</ele>
        <time>2020-08-19T16:58:10.000Z</time>
      </trkpt>
      <trkpt lat="48.60645" lon="7.14332">
        <ele>581.15</ele>
        <time>2020-08-19T16:58:12.000Z</time>
      </trkpt>
      <trkpt lat="48.60642" lon="7.14339">
        <ele>583.84</ele>
        <time>2020-08-19T16:58:14.000Z</time>
      </trkpt>
      <trkpt lat="48.60638" lon="7.14345">
        <ele>585.48</ele>
        <time>2020-08-19T16:58:17.000Z</time>
      </trkpt>
      <trkpt lat="48.60633" lon="7.14352">
        <ele>584.63</ele>
        <time>2020-08-19T16:58:20.000Z</time>
      </trkpt>
      <trkpt lat="48.60629" lon="7.14358">
        <ele>582.51</ele>
        <time>2020-08-19T16:58:23.000Z</time>
      </trkpt>
      <trkpt lat="48.60625" lon="7.14362">
        <ele>583.91</ele>
        <time>2020-08-19T16:58:25.000Z</time>
      </trkpt>
      <trkpt lat="48.60621" lon="7.14364">
        <ele>584.14</ele>
        <time>2020-08-19T16:58:27.000Z</time>
      </trkpt>
      <trkpt lat="48.60616" lon="7.14363">
        <ele>583.7</ele>
        <time>2020-08-19T16:58:35.000Z</time>
      </trkpt>
      <trkpt lat="48.60612" lon="7.14367">
        <ele>584.54</ele>
        <time>2020-08-19T16:58:49.000Z</time>
      </trkpt>
      <trkpt lat="48.60608" lon="7.14371">
        <ele>583.52</ele>
        <time>2020-08-19T16:58:56.000Z</time>
      </trkpt>
      <trkpt lat="48.60605" lon="7.14379">
        <ele>585.36</ele>
        <time>2020-08-19T16:59:00.000Z</time>
      </trkpt>
      <trkpt lat="48.60602" lon="7.14388">
        <ele>585.84</ele>
        <time>2020-08-19T16:59:03.000Z</time>
      </trkpt>
      <trkpt lat="48.60599" lon="7.14405">
        <ele>586.48</ele>
        <time>2020-08-19T16:59:09.000Z</time>
      </trkpt>
      <trkpt lat="48.60604" lon="7.14405">
        <ele>580.03</ele>
        <time>2020-08-19T16:59:29.000Z</time>
      </trkpt>
      <trkpt lat="48.60627" lon="7.14432">
        <ele>586.6</ele>
        <time>2020-08-19T17:00:16.000Z</time>
      </trkpt>
      <trkpt lat="48.60623" lon="7.14436">
        <ele>582.77</ele>
        <time>2020-08-19T17:00:27.000Z</time>
      </trkpt>
      <trkpt lat="48.60618" lon="7.14439">
        <ele>583.33</ele>
        <time>2020-08-19T17:00:36.000Z</time>
      </trkpt>
      <trkpt lat="48.60615" lon="7.14447">
        <ele>584.79</ele>
        <time>2020-08-19T17:00:48.000Z</time>
      </trkpt>
      <trkpt lat="48.60613" lon="7.14454">
        <ele>579.14</ele>
        <time>2020-08-19T17:00:55.000Z</time>
      </trkpt>
      <trkpt lat="48.60609" lon="7.14456">
        <ele>576.88</ele>
        <time>2020-08-19T17:01:10.000Z</time>
      </trkpt>
      <trkpt lat="48.60599" lon="7.14456">
        <ele>577.38</ele>
        <time>2020-08-19T17:01:23.000Z</time>
      </trkpt>
      <trkpt lat="48.60593" lon="7.14446">
        <ele>568.75</ele>
        <time>2020-08-19T17:01:37.000Z</time>
      </trkpt>
      <trkpt lat="48.6059" lon="7.14451">
        <ele>564.68</ele>
        <time>2020-08-19T17:01:52.000Z</time>
      </trkpt>
      <trkpt lat="48.60586" lon="7.14447">
        <ele>560.83</ele>
        <time>2020-08-19T17:02:07.000Z</time>
      </trkpt>
      <trkpt lat="48.60582" lon="7.1445">
        <ele>564.38</ele>
        <time>2020-08-19T17:02:31.000Z</time>
      </trkpt>
      <trkpt lat="48.60548" lon="7.14599">
        <ele>556.54</ele>
        <time>2020-08-19T17:03:18.000Z</time>
      </trkpt>
      <trkpt lat="48.60545" lon="7.14605">
        <ele>544.31</ele>
        <time>2020-08-19T17:03:20.000Z</time>
      </trkpt>
      <trkpt lat="48.60546" lon="7.14612">
        <ele>533.08</ele>
        <time>2020-08-19T17:03:38.000Z</time>
      </trkpt>
      <trkpt lat="48.60543" lon="7.14619">
        <ele>529.12</ele>
        <time>2020-08-19T17:04:43.000Z</time>
      </trkpt>
      <trkpt lat="48.6054" lon="7.14624">
        <ele>529.57</ele>
        <time>2020-08-19T17:05:22.000Z</time>
      </trkpt>
      <trkpt lat="48.60536" lon="7.14621">
        <ele>528.67</ele>
        <time>2020-08-19T17:06:59.000Z</time>
      </trkpt>
      <trkpt lat="48.60536" lon="7.14629">
        <ele>536.13</ele>
        <time>2020-08-19T17:07:26.000Z</time>
      </trkpt>
      <trkpt lat="48.60532" lon="7.14635">
        <ele>534.99</ele>
        <time>2020-08-19T17:07:34.000Z</time>
      </trkpt>
      <trkpt lat="48.60525" lon="7.14631">
        <ele>531.33</ele>
        <time>2020-08-19T17:07:49.000Z</time>
      </trkpt>
      <trkpt lat="48.6052" lon="7.14634">
        <ele>533</ele>
        <time>2020-08-19T17:07:51.000Z</time>
      </trkpt>
      <trkpt lat="48.60515" lon="7.1464">
        <ele>531.37</ele>
        <time>2020-08-19T17:07:53.000Z</time>
      </trkpt>
      <trkpt lat="48.60512" lon="7.14647">
        <ele>529.85</ele>
        <time>2020-08-19T17:07:56.000Z</time>
      </trkpt>
      <trkpt lat="48.6051" lon="7.14654">
        <ele>532.3</ele>
        <time>2020-08-19T17:08:05.000Z</time>
      </trkpt>
      <trkpt lat="48.60509" lon="7.14662">
        <ele>531.68</ele>
        <time>2020-08-19T17:08:07.000Z</time>
      </trkpt>
      <trkpt lat="48.60508" lon="7.14672">
        <ele>530.16</ele>
        <time>2020-08-19T17:08:09.000Z</time>
      </trkpt>
      <trkpt lat="48.60508" lon="7.14682">
        <ele>528.56</ele>
        <time>2020-08-19T17:08:11.000Z</time>
      </trkpt>
      <trkpt lat="48.60507" lon="7.14693">
        <ele>526.09</ele>
        <time>2020-08-19T17:08:13.000Z</time>
      </trkpt>
      <trkpt lat="48.60505" lon="7.14704">
        <ele>525.82</ele>
        <time>2020-08-19T17:08:15.000Z</time>
      </trkpt>
      <trkpt lat="48.60504" lon="7.14715">
        <ele>525.61</ele>
        <time>2020-08-19T17:08:17.000Z</time>
      </trkpt>
      <trkpt lat="48.60501" lon="7.14727">
        <ele>524.45</ele>
        <time>2020-08-19T17:08:19.000Z</time>
      </trkpt>
      <trkpt lat="48.60497" lon="7.14737">
        <ele>524.19</ele>
        <time>2020-08-19T17:08:21.000Z</time>
      </trkpt>
      <trkpt lat="48.60493" lon="7.14745">
        <ele>523.38</ele>
        <time>2020-08-19T17:08:23.000Z</time>
      </trkpt>
      <trkpt lat="48.60489" lon="7.14751">
        <ele>524.41</ele>
        <time>2020-08-19T17:08:42.000Z</time>
      </trkpt>
      <trkpt lat="48.60485" lon="7.14759">
        <ele>523.82</ele>
        <time>2020-08-19T17:08:45.000Z</time>
      </trkpt>
      <trkpt lat="48.60483" lon="7.14767">
        <ele>523.81</ele>
        <time>2020-08-19T17:08:47.000Z</time>
      </trkpt>
      <trkpt lat="48.60479" lon="7.14776">
        <ele>523.28</ele>
        <time>2020-08-19T17:08:49.000Z</time>
      </trkpt>
      <trkpt lat="48.60476" lon="7.14783">
        <ele>524.65</ele>
        <time>2020-08-19T17:08:51.000Z</time>
      </trkpt>
      <trkpt lat="48.60475" lon="7.14793">
        <ele>524.43</ele>
        <time>2020-08-19T17:08:54.000Z</time>
      </trkpt>
      <trkpt lat="48.60471" lon="7.14801">
        <ele>522.99</ele>
        <time>2020-08-19T17:08:56.000Z</time>
      </trkpt>
      <trkpt lat="48.60466" lon="7.14806">
        <ele>523.59</ele>
        <time>2020-08-19T17:08:58.000Z</time>
      </trkpt>
      <trkpt lat="48.60462" lon="7.14813">
        <ele>521.04</ele>
        <time>2020-08-19T17:09:01.000Z</time>
      </trkpt>
      <trkpt lat="48.60458" lon="7.1482">
        <ele>520.44</ele>
        <time>2020-08-19T17:09:03.000Z</time>
      </trkpt>
      <trkpt lat="48.60455" lon="7.14826">
        <ele>521.05</ele>
        <time>2020-08-19T17:09:05.000Z</time>
      </trkpt>
      <trkpt lat="48.60451" lon="7.14831">
        <ele>521.74</ele>
        <time>2020-08-19T17:09:07.000Z</time>
      </trkpt>
      <trkpt lat="48.60446" lon="7.14836">
        <ele>521.54</ele>
        <time>2020-08-19T17:09:10.000Z</time>
      </trkpt>
      <trkpt lat="48.60442" lon="7.14841">
        <ele>522.94</ele>
        <time>2020-08-19T17:09:13.000Z</time>
      </trkpt>
      <trkpt lat="48.60435" lon="7.14843">
        <ele>521.36</ele>
        <time>2020-08-19T17:09:16.000Z</time>
      </trkpt>
      <trkpt lat="48.6043" lon="7.14848">
        <ele>528.34</ele>
        <time>2020-08-19T17:09:19.000Z</time>
      </trkpt>
      <trkpt lat="48.60427" lon="7.14854">
        <ele>528.11</ele>
        <time>2020-08-19T17:09:21.000Z</time>
      </trkpt>
      <trkpt lat="48.60422" lon="7.14859">
        <ele>530.85</ele>
        <time>2020-08-19T17:09:24.000Z</time>
      </trkpt>
      <trkpt lat="48.60417" lon="7.14861">
        <ele>534.44</ele>
        <time>2020-08-19T17:09:26.000Z</time>
      </trkpt>
      <trkpt lat="48.60413" lon="7.14865">
        <ele>536.94</ele>
        <time>2020-08-19T17:09:29.000Z</time>
      </trkpt>
      <trkpt lat="48.60407" lon="7.1487">
        <ele>539.93</ele>
        <time>2020-08-19T17:09:32.000Z</time>
      </trkpt>
      <trkpt lat="48.60402" lon="7.14877">
        <ele>539.19</ele>
        <time>2020-08-19T17:09:35.000Z</time>
      </trkpt>
      <trkpt lat="48.60398" lon="7.1488">
        <ele>541.47</ele>
        <time>2020-08-19T17:09:37.000Z</time>
      </trkpt>
      <trkpt lat="48.60393" lon="7.14884">
        <ele>542.53</ele>
        <time>2020-08-19T17:09:40.000Z</time>
      </trkpt>
      <trkpt lat="48.60387" lon="7.14887">
        <ele>544.03</ele>
        <time>2020-08-19T17:09:43.000Z</time>
      </trkpt>
      <trkpt lat="48.60382" lon="7.1489">
        <ele>547.85</ele>
        <time>2020-08-19T17:09:46.000Z</time>
      </trkpt>
      <trkpt lat="48.60377" lon="7.14894">
        <ele>546.34</ele>
        <time>2020-08-19T17:09:50.000Z</time>
      </trkpt>
      <trkpt lat="48.60373" lon="7.14898">
        <ele>546.09</ele>
        <time>2020-08-19T17:09:53.000Z</time>
      </trkpt>
      <trkpt lat="48.6037" lon="7.14905">
        <ele>548.17</ele>
        <time>2020-08-19T17:09:56.000Z</time>
      </trkpt>
      <trkpt lat="48.60367" lon="7.14911">
        <ele>545.9</ele>
        <time>2020-08-19T17:10:00.000Z</time>
      </trkpt>
      <trkpt lat="48.60363" lon="7.14917">
        <ele>545.21</ele>
        <time>2020-08-19T17:10:06.000Z</time>
      </trkpt>
      <trkpt lat="48.6036" lon="7.14922">
        <ele>543.77</ele>
        <time>2020-08-19T17:10:09.000Z</time>
      </trkpt>
      <trkpt lat="48.60355" lon="7.14926">
        <ele>544.87</ele>
        <time>2020-08-19T17:10:12.000Z</time>
      </trkpt>
      <trkpt lat="48.6035" lon="7.14931">
        <ele>542.25</ele>
        <time>2020-08-19T17:10:15.000Z</time>
      </trkpt>
      <trkpt lat="48.60347" lon="7.14937">
        <ele>542.58</ele>
        <time>2020-08-19T17:10:19.000Z</time>
      </trkpt>
      <trkpt lat="48.60344" lon="7.14942">
        <ele>543.51</ele>
        <time>2020-08-19T17:10:23.000Z</time>
      </trkpt>
      <trkpt lat="48.60338" lon="7.14944">
        <ele>541.89</ele>
        <time>2020-08-19T17:10:27.000Z</time>
      </trkpt>
      <trkpt lat="48.60333" lon="7.14945">
        <ele>539.25</ele>
        <time>2020-08-19T17:10:30.000Z</time>
      </trkpt>
      <trkpt lat="48.60328" lon="7.14947">
        <ele>539.99</ele>
        <time>2020-08-19T17:10:33.000Z</time>
      </trkpt>
      <trkpt lat="48.60323" lon="7.14949">
        <ele>541.52</ele>
        <time>2020-08-19T17:10:35.000Z</time>
      </trkpt>
      <trkpt lat="48.60318" lon="7.14951">
        <ele>547.25</ele>
        <time>2020-08-19T17:10:38.000Z</time>
      </trkpt>
      <trkpt lat="48.60314" lon="7.14952">
        <ele>549.55</ele>
        <time>2020-08-19T17:10:40.000Z</time>
      </trkpt>
      <trkpt lat="48.60309" lon="7.14954">
        <ele>552.73</ele>
        <time>2020-08-19T17:10:43.000Z</time>
      </trkpt>
      <trkpt lat="48.60304" lon="7.14958">
        <ele>552.14</ele>
        <time>2020-08-19T17:10:46.000Z</time>
      </trkpt>
      <trkpt lat="48.603" lon="7.1496">
        <ele>552.27</ele>
        <time>2020-08-19T17:10:48.000Z</time>
      </trkpt>
      <trkpt lat="48.60294" lon="7.14964">
        <ele>551.81</ele>
        <time>2020-08-19T17:10:51.000Z</time>
      </trkpt>
      <trkpt lat="48.60289" lon="7.14968">
        <ele>551.25</ele>
        <time>2020-08-19T17:10:54.000Z</time>
      </trkpt>
      <trkpt lat="48.60284" lon="7.14971">
        <ele>550.23</ele>
        <time>2020-08-19T17:10:57.000Z</time>
      </trkpt>
      <trkpt lat="48.60278" lon="7.14973">
        <ele>550.9</ele>
        <time>2020-08-19T17:11:00.000Z</time>
      </trkpt>
      <trkpt lat="48.60271" lon="7.14975">
        <ele>553.06</ele>
        <time>2020-08-19T17:11:03.000Z</time>
      </trkpt>
      <trkpt lat="48.60265" lon="7.14975">
        <ele>555.35</ele>
        <time>2020-08-19T17:11:06.000Z</time>
      </trkpt>
      <trkpt lat="48.6026" lon="7.14976">
        <ele>555.55</ele>
        <time>2020-08-19T17:11:09.000Z</time>
      </trkpt>
      <trkpt lat="48.60255" lon="7.14979">
        <ele>554.55</ele>
        <time>2020-08-19T17:11:12.000Z</time>
      </trkpt>
      <trkpt lat="48.60249" lon="7.14979">
        <ele>555.57</ele>
        <time>2020-08-19T17:11:15.000Z</time>
      </trkpt>
      <trkpt lat="48.60244" lon="7.14982">
        <ele>555.21</ele>
        <time>2020-08-19T17:11:18.000Z</time>
      </trkpt>
      <trkpt lat="48.60239" lon="7.14981">
        <ele>555.3</ele>
        <time>2020-08-19T17:11:22.000Z</time>
      </trkpt>
      <trkpt lat="48.60234" lon="7.14982">
        <ele>554.9</ele>
        <time>2020-08-19T17:11:26.000Z</time>
      </trkpt>
      <trkpt lat="48.60229" lon="7.14983">
        <ele>560.36</ele>
        <time>2020-08-19T17:11:30.000Z</time>
      </trkpt>
      <trkpt lat="48.60224" lon="7.14983">
        <ele>561.55</ele>
        <time>2020-08-19T17:11:33.000Z</time>
      </trkpt>
      <trkpt lat="48.60218" lon="7.14981">
        <ele>563.72</ele>
        <time>2020-08-19T17:11:36.000Z</time>
      </trkpt>
      <trkpt lat="48.60213" lon="7.1498">
        <ele>564.17</ele>
        <time>2020-08-19T17:11:39.000Z</time>
      </trkpt>
      <trkpt lat="48.60208" lon="7.14978">
        <ele>568.94</ele>
        <time>2020-08-19T17:11:43.000Z</time>
      </trkpt>
      <trkpt lat="48.60204" lon="7.14972">
        <ele>652.61</ele>
        <time>2020-08-19T17:11:47.000Z</time>
      </trkpt>
      <trkpt lat="48.602" lon="7.14966">
        <ele>605.17</ele>
        <time>2020-08-19T17:11:50.000Z</time>
      </trkpt>
      <trkpt lat="48.60197" lon="7.14959">
        <ele>586.62</ele>
        <time>2020-08-19T17:11:53.000Z</time>
      </trkpt>
      <trkpt lat="48.60194" lon="7.14952">
        <ele>573.25</ele>
        <time>2020-08-19T17:11:56.000Z</time>
      </trkpt>
      <trkpt lat="48.60191" lon="7.14944">
        <ele>625.75</ele>
        <time>2020-08-19T17:11:59.000Z</time>
      </trkpt>
      <trkpt lat="48.60187" lon="7.14936">
        <ele>611.02</ele>
        <time>2020-08-19T17:12:02.000Z</time>
      </trkpt>
      <trkpt lat="48.60183" lon="7.1493">
        <ele>586.27</ele>
        <time>2020-08-19T17:12:05.000Z</time>
      </trkpt>
      <trkpt lat="48.60178" lon="7.14924">
        <ele>576.54</ele>
        <time>2020-08-19T17:12:08.000Z</time>
      </trkpt>
      <trkpt lat="48.60175" lon="7.14918">
        <ele>571.28</ele>
        <time>2020-08-19T17:12:11.000Z</time>
      </trkpt>
      <trkpt lat="48.60172" lon="7.14912">
        <ele>567.1</ele>
        <time>2020-08-19T17:12:14.000Z</time>
      </trkpt>
      <trkpt lat="48.6017" lon="7.14906">
        <ele>567.08</ele>
        <time>2020-08-19T17:12:17.000Z</time>
      </trkpt>
      <trkpt lat="48.60167" lon="7.149">
        <ele>568.14</ele>
        <time>2020-08-19T17:12:21.000Z</time>
      </trkpt>
      <trkpt lat="48.60163" lon="7.14895">
        <ele>564.52</ele>
        <time>2020-08-19T17:12:24.000Z</time>
      </trkpt>
      <trkpt lat="48.60159" lon="7.14892">
        <ele>568.85</ele>
        <time>2020-08-19T17:12:27.000Z</time>
      </trkpt>
      <trkpt lat="48.60154" lon="7.14887">
        <ele>570.93</ele>
        <time>2020-08-19T17:12:31.000Z</time>
      </trkpt>
      <trkpt lat="48.60149" lon="7.14882">
        <ele>642.13</ele>
        <time>2020-08-19T17:12:35.000Z</time>
      </trkpt>
      <trkpt lat="48.60144" lon="7.14877">
        <ele>608.3</ele>
        <time>2020-08-19T17:12:38.000Z</time>
      </trkpt>
      <trkpt lat="48.6014" lon="7.14872">
        <ele>586.64</ele>
        <time>2020-08-19T17:12:42.000Z</time>
      </trkpt>
      <trkpt lat="48.60136" lon="7.14867">
        <ele>546.81</ele>
        <time>2020-08-19T17:12:45.000Z</time>
      </trkpt>
      <trkpt lat="48.60132" lon="7.14863">
        <ele>555.37</ele>
        <time>2020-08-19T17:12:48.000Z</time>
      </trkpt>
      <trkpt lat="48.60127" lon="7.14859">
        <ele>563.53</ele>
        <time>2020-08-19T17:12:51.000Z</time>
      </trkpt>
      <trkpt lat="48.60123" lon="7.14857">
        <ele>566.43</ele>
        <time>2020-08-19T17:12:54.000Z</time>
      </trkpt>
      <trkpt lat="48.60118" lon="7.14857">
        <ele>566.47</ele>
        <time>2020-08-19T17:12:57.000Z</time>
      </trkpt>
      <trkpt lat="48.60112" lon="7.1486">
        <ele>569.93</ele>
        <time>2020-08-19T17:13:00.000Z</time>
      </trkpt>
      <trkpt lat="48.60107" lon="7.14864">
        <ele>569.29</ele>
        <time>2020-08-19T17:13:03.000Z</time>
      </trkpt>
      <trkpt lat="48.60104" lon="7.14869">
        <ele>572.33</ele>
        <time>2020-08-19T17:13:06.000Z</time>
      </trkpt>
      <trkpt lat="48.601" lon="7.14876">
        <ele>576.67</ele>
        <time>2020-08-19T17:13:10.000Z</time>
      </trkpt>
      <trkpt lat="48.60097" lon="7.14882">
        <ele>575.72</ele>
        <time>2020-08-19T17:13:14.000Z</time>
      </trkpt>
      <trkpt lat="48.60096" lon="7.1489">
        <ele>578.06</ele>
        <time>2020-08-19T17:13:17.000Z</time>
      </trkpt>
      <trkpt lat="48.60094" lon="7.14898">
        <ele>620.94</ele>
        <time>2020-08-19T17:13:21.000Z</time>
      </trkpt>
      <trkpt lat="48.60092" lon="7.14905">
        <ele>599.73</ele>
        <time>2020-08-19T17:13:25.000Z</time>
      </trkpt>
      <trkpt lat="48.60092" lon="7.14913">
        <ele>593.34</ele>
        <time>2020-08-19T17:13:29.000Z</time>
      </trkpt>
      <trkpt lat="48.60091" lon="7.14921">
        <ele>587.56</ele>
        <time>2020-08-19T17:13:34.000Z</time>
      </trkpt>
      <trkpt lat="48.60092" lon="7.14929">
        <ele>587.03</ele>
        <time>2020-08-19T17:13:38.000Z</time>
      </trkpt>
      <trkpt lat="48.60093" lon="7.14937">
        <ele>584.34</ele>
        <time>2020-08-19T17:13:41.000Z</time>
      </trkpt>
      <trkpt lat="48.60094" lon="7.14945">
        <ele>584.37</ele>
        <time>2020-08-19T17:13:44.000Z</time>
      </trkpt>
      <trkpt lat="48.60094" lon="7.14953">
        <ele>582.75</ele>
        <time>2020-08-19T17:13:47.000Z</time>
      </trkpt>
      <trkpt lat="48.60093" lon="7.1496">
        <ele>583.58</ele>
        <time>2020-08-19T17:13:50.000Z</time>
      </trkpt>
      <trkpt lat="48.60093" lon="7.14968">
        <ele>583.05</ele>
        <time>2020-08-19T17:13:53.000Z</time>
      </trkpt>
      <trkpt lat="48.60093" lon="7.14978">
        <ele>584.51</ele>
        <time>2020-08-19T17:13:56.000Z</time>
      </trkpt>
      <trkpt lat="48.60094" lon="7.14985">
        <ele>588.3</ele>
        <time>2020-08-19T17:14:00.000Z</time>
      </trkpt>
      <trkpt lat="48.60094" lon="7.14995">
        <ele>585.96</ele>
        <time>2020-08-19T17:14:04.000Z</time>
      </trkpt>
      <trkpt lat="48.60093" lon="7.15002">
        <ele>589.2</ele>
        <time>2020-08-19T17:14:07.000Z</time>
      </trkpt>
      <trkpt lat="48.60092" lon="7.15009">
        <ele>588.63</ele>
        <time>2020-08-19T17:14:10.000Z</time>
      </trkpt>
      <trkpt lat="48.60092" lon="7.15016">
        <ele>588.25</ele>
        <time>2020-08-19T17:14:13.000Z</time>
      </trkpt>
      <trkpt lat="48.60091" lon="7.15025">
        <ele>589.54</ele>
        <time>2020-08-19T17:14:16.000Z</time>
      </trkpt>
      <trkpt lat="48.6009" lon="7.15032">
        <ele>591.75</ele>
        <time>2020-08-19T17:14:19.000Z</time>
      </trkpt>
      <trkpt lat="48.60089" lon="7.15039">
        <ele>580.09</ele>
        <time>2020-08-19T17:14:22.000Z</time>
      </trkpt>
      <trkpt lat="48.60088" lon="7.15046">
        <ele>588.15</ele>
        <time>2020-08-19T17:14:25.000Z</time>
      </trkpt>
      <trkpt lat="48.60088" lon="7.15054">
        <ele>591.59</ele>
        <time>2020-08-19T17:14:28.000Z</time>
      </trkpt>
      <trkpt lat="48.60087" lon="7.15063">
        <ele>593.95</ele>
        <time>2020-08-19T17:14:31.000Z</time>
      </trkpt>
      <trkpt lat="48.60088" lon="7.15072">
        <ele>595.39</ele>
        <time>2020-08-19T17:14:34.000Z</time>
      </trkpt>
      <trkpt lat="48.60087" lon="7.15082">
        <ele>598.24</ele>
        <time>2020-08-19T17:14:37.000Z</time>
      </trkpt>
      <trkpt lat="48.60087" lon="7.15088">
        <ele>520.2</ele>
        <time>2020-08-19T17:14:40.000Z</time>
      </trkpt>
      <trkpt lat="48.60085" lon="7.15098">
        <ele>561.75</ele>
        <time>2020-08-19T17:14:43.000Z</time>
      </trkpt>
      <trkpt lat="48.60085" lon="7.15106">
        <ele>572.97</ele>
        <time>2020-08-19T17:14:45.000Z</time>
      </trkpt>
      <trkpt lat="48.60085" lon="7.15116">
        <ele>573.89</ele>
        <time>2020-08-19T17:14:48.000Z</time>
      </trkpt>
      <trkpt lat="48.60086" lon="7.15126">
        <ele>576.1</ele>
        <time>2020-08-19T17:14:51.000Z</time>
      </trkpt>
      <trkpt lat="48.60084" lon="7.15134">
        <ele>576.5</ele>
        <time>2020-08-19T17:14:54.000Z</time>
      </trkpt>
      <trkpt lat="48.60085" lon="7.15144">
        <ele>578.87</ele>
        <time>2020-08-19T17:14:57.000Z</time>
      </trkpt>
      <trkpt lat="48.60085" lon="7.1515">
        <ele>580.83</ele>
        <time>2020-08-19T17:14:59.000Z</time>
      </trkpt>
      <trkpt lat="48.60084" lon="7.15157">
        <ele>582.48</ele>
        <time>2020-08-19T17:15:01.000Z</time>
      </trkpt>
      <trkpt lat="48.60085" lon="7.15166">
        <ele>581.55</ele>
        <time>2020-08-19T17:15:04.000Z</time>
      </trkpt>
      <trkpt lat="48.60085" lon="7.15176">
        <ele>584.03</ele>
        <time>2020-08-19T17:15:07.000Z</time>
      </trkpt>
      <trkpt lat="48.60083" lon="7.15185">
        <ele>585.57</ele>
        <time>2020-08-19T17:15:09.000Z</time>
      </trkpt>
      <trkpt lat="48.60083" lon="7.15193">
        <ele>585.71</ele>
        <time>2020-08-19T17:15:11.000Z</time>
      </trkpt>
      <trkpt lat="48.60082" lon="7.15202">
        <ele>587.18</ele>
        <time>2020-08-19T17:15:13.000Z</time>
      </trkpt>
      <trkpt lat="48.60081" lon="7.15212">
        <ele>587.2</ele>
        <time>2020-08-19T17:15:16.000Z</time>
      </trkpt>
      <trkpt lat="48.6008" lon="7.15219">
        <ele>587.04</ele>
        <time>2020-08-19T17:15:18.000Z</time>
      </trkpt>
      <trkpt lat="48.60078" lon="7.15227">
        <ele>502.72</ele>
        <time>2020-08-19T17:15:20.000Z</time>
      </trkpt>
      <trkpt lat="48.60076" lon="7.15233">
        <ele>529.81</ele>
        <time>2020-08-19T17:15:22.000Z</time>
      </trkpt>
      <trkpt lat="48.60073" lon="7.15241">
        <ele>550.33</ele>
        <time>2020-08-19T17:15:24.000Z</time>
      </trkpt>
      <trkpt lat="48.60071" lon="7.15247">
        <ele>565.6</ele>
        <time>2020-08-19T17:15:26.000Z</time>
      </trkpt>
      <trkpt lat="48.60069" lon="7.15257">
        <ele>579.44</ele>
        <time>2020-08-19T17:15:29.000Z</time>
      </trkpt>
      <trkpt lat="48.60068" lon="7.15264">
        <ele>584.46</ele>
        <time>2020-08-19T17:15:31.000Z</time>
      </trkpt>
      <trkpt lat="48.60066" lon="7.15272">
        <ele>587.14</ele>
        <time>2020-08-19T17:15:33.000Z</time>
      </trkpt>
      <trkpt lat="48.60065" lon="7.15278">
        <ele>587.66</ele>
        <time>2020-08-19T17:15:35.000Z</time>
      </trkpt>
      <trkpt lat="48.60064" lon="7.15286">
        <ele>589.64</ele>
        <time>2020-08-19T17:15:37.000Z</time>
      </trkpt>
      <trkpt lat="48.60064" lon="7.15296">
        <ele>590.04</ele>
        <time>2020-08-19T17:15:40.000Z</time>
      </trkpt>
      <trkpt lat="48.60063" lon="7.15304">
        <ele>590.63</ele>
        <time>2020-08-19T17:15:42.000Z</time>
      </trkpt>
      <trkpt lat="48.60062" lon="7.15311">
        <ele>591.34</ele>
        <time>2020-08-19T17:15:44.000Z</time>
      </trkpt>
      <trkpt lat="48.60063" lon="7.15321">
        <ele>594.26</ele>
        <time>2020-08-19T17:15:47.000Z</time>
      </trkpt>
      <trkpt lat="48.60064" lon="7.15329">
        <ele>595.35</ele>
        <time>2020-08-19T17:15:50.000Z</time>
      </trkpt>
      <trkpt lat="48.60065" lon="7.15338">
        <ele>598.1</ele>
        <time>2020-08-19T17:15:53.000Z</time>
      </trkpt>
      <trkpt lat="48.60064" lon="7.15346">
        <ele>597.08</ele>
        <time>2020-08-19T17:15:56.000Z</time>
      </trkpt>
      <trkpt lat="48.60063" lon="7.15353">
        <ele>595.79</ele>
        <time>2020-08-19T17:15:59.000Z</time>
      </trkpt>
      <trkpt lat="48.60063" lon="7.15361">
        <ele>598</ele>
        <time>2020-08-19T17:16:02.000Z</time>
      </trkpt>
      <trkpt lat="48.60062" lon="7.15369">
        <ele>599.09</ele>
        <time>2020-08-19T17:16:05.000Z</time>
      </trkpt>
      <trkpt lat="48.60062" lon="7.15377">
        <ele>600.75</ele>
        <time>2020-08-19T17:16:08.000Z</time>
      </trkpt>
      <trkpt lat="48.60063" lon="7.15387">
        <ele>602.2</ele>
        <time>2020-08-19T17:16:11.000Z</time>
      </trkpt>
      <trkpt lat="48.60063" lon="7.15396">
        <ele>601.99</ele>
        <time>2020-08-19T17:16:14.000Z</time>
      </trkpt>
      <trkpt lat="48.60065" lon="7.15405">
        <ele>602.44</ele>
        <time>2020-08-19T17:16:17.000Z</time>
      </trkpt>
      <trkpt lat="48.60066" lon="7.15412">
        <ele>603.1</ele>
        <time>2020-08-19T17:16:20.000Z</time>
      </trkpt>
      <trkpt lat="48.60068" lon="7.15419">
        <ele>601.34</ele>
        <time>2020-08-19T17:16:23.000Z</time>
      </trkpt>
      <trkpt lat="48.60069" lon="7.15427">
        <ele>602.62</ele>
        <time>2020-08-19T17:16:26.000Z</time>
      </trkpt>
      <trkpt lat="48.60069" lon="7.15434">
        <ele>599.87</ele>
        <time>2020-08-19T17:16:29.000Z</time>
      </trkpt>
      <trkpt lat="48.60071" lon="7.1544">
        <ele>600.13</ele>
        <time>2020-08-19T17:16:32.000Z</time>
      </trkpt>
      <trkpt lat="48.60073" lon="7.15449">
        <ele>599.11</ele>
        <time>2020-08-19T17:16:35.000Z</time>
      </trkpt>
      <trkpt lat="48.60075" lon="7.15459">
        <ele>598.61</ele>
        <time>2020-08-19T17:16:38.000Z</time>
      </trkpt>
      <trkpt lat="48.60078" lon="7.15465">
        <ele>599.08</ele>
        <time>2020-08-19T17:16:40.000Z</time>
      </trkpt>
      <trkpt lat="48.60075" lon="7.1547">
        <ele>589.45</ele>
        <time>2020-08-19T17:16:50.000Z</time>
      </trkpt>
      <trkpt lat="48.60077" lon="7.15478">
        <ele>597.85</ele>
        <time>2020-08-19T17:17:04.000Z</time>
      </trkpt>
      <trkpt lat="48.60078" lon="7.15486">
        <ele>594.05</ele>
        <time>2020-08-19T17:17:07.000Z</time>
      </trkpt>
      <trkpt lat="48.6008" lon="7.15496">
        <ele>594.54</ele>
        <time>2020-08-19T17:17:10.000Z</time>
      </trkpt>
      <trkpt lat="48.60082" lon="7.15502">
        <ele>595.23</ele>
        <time>2020-08-19T17:17:12.000Z</time>
      </trkpt>
      <trkpt lat="48.60081" lon="7.1551">
        <ele>598</ele>
        <time>2020-08-19T17:17:16.000Z</time>
      </trkpt>
      <trkpt lat="48.60083" lon="7.15519">
        <ele>598.58</ele>
        <time>2020-08-19T17:17:20.000Z</time>
      </trkpt>
      <trkpt lat="48.60085" lon="7.15526">
        <ele>604.14</ele>
        <time>2020-08-19T17:17:24.000Z</time>
      </trkpt>
      <trkpt lat="48.60087" lon="7.15534">
        <ele>606.99</ele>
        <time>2020-08-19T17:17:28.000Z</time>
      </trkpt>
      <trkpt lat="48.60088" lon="7.15543">
        <ele>609.21</ele>
        <time>2020-08-19T17:17:31.000Z</time>
      </trkpt>
      <trkpt lat="48.60089" lon="7.1555">
        <ele>609.99</ele>
        <time>2020-08-19T17:17:33.000Z</time>
      </trkpt>
      <trkpt lat="48.60089" lon="7.15558">
        <ele>614.6</ele>
        <time>2020-08-19T17:17:36.000Z</time>
      </trkpt>
      <trkpt lat="48.60088" lon="7.15567">
        <ele>614.31</ele>
        <time>2020-08-19T17:17:39.000Z</time>
      </trkpt>
      <trkpt lat="48.60088" lon="7.15576">
        <ele>614.47</ele>
        <time>2020-08-19T17:17:42.000Z</time>
      </trkpt>
      <trkpt lat="48.60089" lon="7.15583">
        <ele>613.28</ele>
        <time>2020-08-19T17:17:45.000Z</time>
      </trkpt>
      <trkpt lat="48.60089" lon="7.15591">
        <ele>614.82</ele>
        <time>2020-08-19T17:17:49.000Z</time>
      </trkpt>
      <trkpt lat="48.60088" lon="7.15599">
        <ele>614.13</ele>
        <time>2020-08-19T17:17:52.000Z</time>
      </trkpt>
      <trkpt lat="48.60088" lon="7.15608">
        <ele>615.99</ele>
        <time>2020-08-19T17:17:55.000Z</time>
      </trkpt>
      <trkpt lat="48.60087" lon="7.15617">
        <ele>615.15</ele>
        <time>2020-08-19T17:17:59.000Z</time>
      </trkpt>
      <trkpt lat="48.60087" lon="7.15626">
        <ele>617</ele>
        <time>2020-08-19T17:18:02.000Z</time>
      </trkpt>
      <trkpt lat="48.60086" lon="7.15632">
        <ele>617.67</ele>
        <time>2020-08-19T17:18:04.000Z</time>
      </trkpt>
      <trkpt lat="48.60084" lon="7.1564">
        <ele>616</ele>
        <time>2020-08-19T17:18:07.000Z</time>
      </trkpt>
      <trkpt lat="48.60083" lon="7.1565">
        <ele>616.79</ele>
        <time>2020-08-19T17:18:10.000Z</time>
      </trkpt>
      <trkpt lat="48.60082" lon="7.15659">
        <ele>623.04</ele>
        <time>2020-08-19T17:18:13.000Z</time>
      </trkpt>
      <trkpt lat="48.6008" lon="7.15666">
        <ele>621.68</ele>
        <time>2020-08-19T17:18:15.000Z</time>
      </trkpt>
      <trkpt lat="48.60079" lon="7.15675">
        <ele>622.48</ele>
        <time>2020-08-19T17:18:18.000Z</time>
      </trkpt>
      <trkpt lat="48.60077" lon="7.15681">
        <ele>623.27</ele>
        <time>2020-08-19T17:18:21.000Z</time>
      </trkpt>
      <trkpt lat="48.60075" lon="7.1569">
        <ele>623.55</ele>
        <time>2020-08-19T17:18:24.000Z</time>
      </trkpt>
      <trkpt lat="48.60074" lon="7.15696">
        <ele>623.11</ele>
        <time>2020-08-19T17:18:26.000Z</time>
      </trkpt>
      <trkpt lat="48.60073" lon="7.15704">
        <ele>624.64</ele>
        <time>2020-08-19T17:18:29.000Z</time>
      </trkpt>
      <trkpt lat="48.60073" lon="7.15712">
        <ele>625.26</ele>
        <time>2020-08-19T17:18:32.000Z</time>
      </trkpt>
      <trkpt lat="48.60073" lon="7.15721">
        <ele>623.87</ele>
        <time>2020-08-19T17:18:36.000Z</time>
      </trkpt>
      <trkpt lat="48.60073" lon="7.1573">
        <ele>622.89</ele>
        <time>2020-08-19T17:18:39.000Z</time>
      </trkpt>
      <trkpt lat="48.60073" lon="7.1574">
        <ele>624.22</ele>
        <time>2020-08-19T17:18:42.000Z</time>
      </trkpt>
      <trkpt lat="48.60074" lon="7.15747">
        <ele>624.76</ele>
        <time>2020-08-19T17:18:45.000Z</time>
      </trkpt>
      <trkpt lat="48.60075" lon="7.15755">
        <ele>625.64</ele>
        <time>2020-08-19T17:18:48.000Z</time>
      </trkpt>
      <trkpt lat="48.60076" lon="7.15763">
        <ele>626.49</ele>
        <time>2020-08-19T17:18:51.000Z</time>
      </trkpt>
      <trkpt lat="48.60075" lon="7.15772">
        <ele>625.18</ele>
        <time>2020-08-19T17:18:54.000Z</time>
      </trkpt>
      <trkpt lat="48.60072" lon="7.1578">
        <ele>626.25</ele>
        <time>2020-08-19T17:18:58.000Z</time>
      </trkpt>
      <trkpt lat="48.60073" lon="7.15789">
        <ele>623.48</ele>
        <time>2020-08-19T17:19:01.000Z</time>
      </trkpt>
      <trkpt lat="48.60074" lon="7.15796">
        <ele>617.93</ele>
        <time>2020-08-19T17:19:03.000Z</time>
      </trkpt>
      <trkpt lat="48.60074" lon="7.15806">
        <ele>617.22</ele>
        <time>2020-08-19T17:19:06.000Z</time>
      </trkpt>
      <trkpt lat="48.60075" lon="7.15816">
        <ele>616.87</ele>
        <time>2020-08-19T17:19:09.000Z</time>
      </trkpt>
      <trkpt lat="48.60075" lon="7.15826">
        <ele>618.16</ele>
        <time>2020-08-19T17:19:12.000Z</time>
      </trkpt>
      <trkpt lat="48.60074" lon="7.15835">
        <ele>619.08</ele>
        <time>2020-08-19T17:19:15.000Z</time>
      </trkpt>
      <trkpt lat="48.60074" lon="7.15843">
        <ele>617.75</ele>
        <time>2020-08-19T17:19:18.000Z</time>
      </trkpt>
      <trkpt lat="48.60074" lon="7.15852">
        <ele>619.89</ele>
        <time>2020-08-19T17:19:22.000Z</time>
      </trkpt>
      <trkpt lat="48.60073" lon="7.1586">
        <ele>620.06</ele>
        <time>2020-08-19T17:19:25.000Z</time>
      </trkpt>
      <trkpt lat="48.60072" lon="7.15869">
        <ele>621.72</ele>
        <time>2020-08-19T17:19:28.000Z</time>
      </trkpt>
      <trkpt lat="48.60072" lon="7.15877">
        <ele>621.61</ele>
        <time>2020-08-19T17:19:32.000Z</time>
      </trkpt>
      <trkpt lat="48.60072" lon="7.15885">
        <ele>621.64</ele>
        <time>2020-08-19T17:19:35.000Z</time>
      </trkpt>
      <trkpt lat="48.60071" lon="7.15893">
        <ele>622.24</ele>
        <time>2020-08-19T17:19:38.000Z</time>
      </trkpt>
      <trkpt lat="48.60072" lon="7.15902">
        <ele>622.56</ele>
        <time>2020-08-19T17:19:41.000Z</time>
      </trkpt>
      <trkpt lat="48.60072" lon="7.1591">
        <ele>622.57</ele>
        <time>2020-08-19T17:19:44.000Z</time>
      </trkpt>
      <trkpt lat="48.60072" lon="7.15918">
        <ele>623.9</ele>
        <time>2020-08-19T17:19:47.000Z</time>
      </trkpt>
      <trkpt lat="48.60073" lon="7.15925">
        <ele>625.81</ele>
        <time>2020-08-19T17:19:51.000Z</time>
      </trkpt>
      <trkpt lat="48.60075" lon="7.15933">
        <ele>623.8</ele>
        <time>2020-08-19T17:19:54.000Z</time>
      </trkpt>
      <trkpt lat="48.60075" lon="7.1594">
        <ele>624.56</ele>
        <time>2020-08-19T17:19:57.000Z</time>
      </trkpt>
      <trkpt lat="48.60075" lon="7.15948">
        <ele>625.9</ele>
        <time>2020-08-19T17:20:00.000Z</time>
      </trkpt>
      <trkpt lat="48.60076" lon="7.15955">
        <ele>628.53</ele>
        <time>2020-08-19T17:20:02.000Z</time>
      </trkpt>
      <trkpt lat="48.60077" lon="7.15962">
        <ele>631.04</ele>
        <time>2020-08-19T17:20:05.000Z</time>
      </trkpt>
      <trkpt lat="48.6008" lon="7.1597">
        <ele>632.91</ele>
        <time>2020-08-19T17:20:08.000Z</time>
      </trkpt>
      <trkpt lat="48.60081" lon="7.15979">
        <ele>633.53</ele>
        <time>2020-08-19T17:20:11.000Z</time>
      </trkpt>
      <trkpt lat="48.60083" lon="7.15988">
        <ele>633</ele>
        <time>2020-08-19T17:20:14.000Z</time>
      </trkpt>
      <trkpt lat="48.60086" lon="7.15995">
        <ele>628.11</ele>
        <time>2020-08-19T17:20:17.000Z</time>
      </trkpt>
      <trkpt lat="48.60088" lon="7.16002">
        <ele>622.22</ele>
        <time>2020-08-19T17:20:20.000Z</time>
      </trkpt>
      <trkpt lat="48.6009" lon="7.16008">
        <ele>622.42</ele>
        <time>2020-08-19T17:20:23.000Z</time>
      </trkpt>
      <trkpt lat="48.60093" lon="7.16015">
        <ele>623.58</ele>
        <time>2020-08-19T17:20:27.000Z</time>
      </trkpt>
      <trkpt lat="48.60093" lon="7.16022">
        <ele>626.22</ele>
        <time>2020-08-19T17:20:30.000Z</time>
      </trkpt>
      <trkpt lat="48.60097" lon="7.16031">
        <ele>626.29</ele>
        <time>2020-08-19T17:20:33.000Z</time>
      </trkpt>
      <trkpt lat="48.60099" lon="7.16039">
        <ele>625.05</ele>
        <time>2020-08-19T17:20:36.000Z</time>
      </trkpt>
      <trkpt lat="48.60099" lon="7.16048">
        <ele>626.86</ele>
        <time>2020-08-19T17:20:40.000Z</time>
      </trkpt>
      <trkpt lat="48.601" lon="7.16056">
        <ele>628</ele>
        <time>2020-08-19T17:20:43.000Z</time>
      </trkpt>
      <trkpt lat="48.60101" lon="7.16064">
        <ele>629.42</ele>
        <time>2020-08-19T17:20:46.000Z</time>
      </trkpt>
      <trkpt lat="48.60104" lon="7.1607">
        <ele>624.57</ele>
        <time>2020-08-19T17:20:48.000Z</time>
      </trkpt>
      <trkpt lat="48.60106" lon="7.16077">
        <ele>624.3</ele>
        <time>2020-08-19T17:20:51.000Z</time>
      </trkpt>
      <trkpt lat="48.60108" lon="7.16085">
        <ele>624.95</ele>
        <time>2020-08-19T17:20:54.000Z</time>
      </trkpt>
      <trkpt lat="48.6011" lon="7.16093">
        <ele>627.03</ele>
        <time>2020-08-19T17:20:57.000Z</time>
      </trkpt>
      <trkpt lat="48.6011" lon="7.16102">
        <ele>627.53</ele>
        <time>2020-08-19T17:21:01.000Z</time>
      </trkpt>
      <trkpt lat="48.60111" lon="7.16111">
        <ele>626.86</ele>
        <time>2020-08-19T17:21:05.000Z</time>
      </trkpt>
      <trkpt lat="48.60114" lon="7.16118">
        <ele>625.42</ele>
        <time>2020-08-19T17:21:08.000Z</time>
      </trkpt>
      <trkpt lat="48.60115" lon="7.16125">
        <ele>628.72</ele>
        <time>2020-08-19T17:21:12.000Z</time>
      </trkpt>
      <trkpt lat="48.60115" lon="7.16134">
        <ele>634.18</ele>
        <time>2020-08-19T17:21:16.000Z</time>
      </trkpt>
      <trkpt lat="48.60115" lon="7.16141">
        <ele>631.8</ele>
        <time>2020-08-19T17:21:19.000Z</time>
      </trkpt>
      <trkpt lat="48.60115" lon="7.16148">
        <ele>632.93</ele>
        <time>2020-08-19T17:21:22.000Z</time>
      </trkpt>
      <trkpt lat="48.60116" lon="7.16156">
        <ele>634.28</ele>
        <time>2020-08-19T17:21:26.000Z</time>
      </trkpt>
      <trkpt lat="48.60116" lon="7.16163">
        <ele>634.18</ele>
        <time>2020-08-19T17:21:29.000Z</time>
      </trkpt>
      <trkpt lat="48.60119" lon="7.16169">
        <ele>632.93</ele>
        <time>2020-08-19T17:21:31.000Z</time>
      </trkpt>
      <trkpt lat="48.6012" lon="7.16177">
        <ele>632.54</ele>
        <time>2020-08-19T17:21:34.000Z</time>
      </trkpt>
      <trkpt lat="48.60122" lon="7.16186">
        <ele>628.36</ele>
        <time>2020-08-19T17:21:38.000Z</time>
      </trkpt>
      <trkpt lat="48.60123" lon="7.16194">
        <ele>628.05</ele>
        <time>2020-08-19T17:21:41.000Z</time>
      </trkpt>
      <trkpt lat="48.60125" lon="7.16202">
        <ele>630.04</ele>
        <time>2020-08-19T17:21:44.000Z</time>
      </trkpt>
      <trkpt lat="48.60129" lon="7.16208">
        <ele>630.33</ele>
        <time>2020-08-19T17:21:47.000Z</time>
      </trkpt>
      <trkpt lat="48.60131" lon="7.16214">
        <ele>632.46</ele>
        <time>2020-08-19T17:21:49.000Z</time>
      </trkpt>
      <trkpt lat="48.60134" lon="7.16223">
        <ele>632.45</ele>
        <time>2020-08-19T17:21:52.000Z</time>
      </trkpt>
      <trkpt lat="48.60134" lon="7.16232">
        <ele>633.82</ele>
        <time>2020-08-19T17:21:55.000Z</time>
      </trkpt>
      <trkpt lat="48.60137" lon="7.16238">
        <ele>639.61</ele>
        <time>2020-08-19T17:22:56.000Z</time>
      </trkpt>
      <trkpt lat="48.60135" lon="7.16244">
        <ele>644.93</ele>
        <time>2020-08-19T17:23:07.000Z</time>
      </trkpt>
      <trkpt lat="48.60135" lon="7.16251">
        <ele>646.43</ele>
        <time>2020-08-19T17:23:10.000Z</time>
      </trkpt>
      <trkpt lat="48.60134" lon="7.16259">
        <ele>649.82</ele>
        <time>2020-08-19T17:23:14.000Z</time>
      </trkpt>
      <trkpt lat="48.60136" lon="7.16266">
        <ele>647.1</ele>
        <time>2020-08-19T17:23:17.000Z</time>
      </trkpt>
      <trkpt lat="48.60138" lon="7.16273">
        <ele>645.8</ele>
        <time>2020-08-19T17:23:20.000Z</time>
      </trkpt>
      <trkpt lat="48.60139" lon="7.1628">
        <ele>645.51</ele>
        <time>2020-08-19T17:23:23.000Z</time>
      </trkpt>
      <trkpt lat="48.60142" lon="7.16286">
        <ele>647.58</ele>
        <time>2020-08-19T17:23:26.000Z</time>
      </trkpt>
      <trkpt lat="48.60145" lon="7.16292">
        <ele>649.77</ele>
        <time>2020-08-19T17:23:29.000Z</time>
      </trkpt>
      <trkpt lat="48.60147" lon="7.16299">
        <ele>649.79</ele>
        <time>2020-08-19T17:23:39.000Z</time>
      </trkpt>
      <trkpt lat="48.60149" lon="7.16306">
        <ele>651.16</ele>
        <time>2020-08-19T17:26:56.000Z</time>
      </trkpt>
      <trkpt lat="48.60152" lon="7.16312">
        <ele>523.34</ele>
        <time>2020-08-19T17:26:58.000Z</time>
      </trkpt>
      <trkpt lat="48.60154" lon="7.16319">
        <ele>547.67</ele>
        <time>2020-08-19T17:27:00.000Z</time>
      </trkpt>
      <trkpt lat="48.60155" lon="7.16326">
        <ele>590.91</ele>
        <time>2020-08-19T17:27:02.000Z</time>
      </trkpt>
      <trkpt lat="48.60157" lon="7.16334">
        <ele>610.1</ele>
        <time>2020-08-19T17:27:04.000Z</time>
      </trkpt>
      <trkpt lat="48.60159" lon="7.16344">
        <ele>626.53</ele>
        <time>2020-08-19T17:27:06.000Z</time>
      </trkpt>
      <trkpt lat="48.60162" lon="7.16353">
        <ele>627.83</ele>
        <time>2020-08-19T17:27:08.000Z</time>
      </trkpt>
      <trkpt lat="48.60166" lon="7.16363">
        <ele>631.71</ele>
        <time>2020-08-19T17:27:10.000Z</time>
      </trkpt>
      <trkpt lat="48.6017" lon="7.16371">
        <ele>636.98</ele>
        <time>2020-08-19T17:27:12.000Z</time>
      </trkpt>
      <trkpt lat="48.60172" lon="7.16379">
        <ele>636.16</ele>
        <time>2020-08-19T17:27:14.000Z</time>
      </trkpt>
      <trkpt lat="48.60175" lon="7.16386">
        <ele>638.5</ele>
        <time>2020-08-19T17:27:16.000Z</time>
      </trkpt>
      <trkpt lat="48.60179" lon="7.16394">
        <ele>642.18</ele>
        <time>2020-08-19T17:27:18.000Z</time>
      </trkpt>
      <trkpt lat="48.60182" lon="7.16403">
        <ele>643.65</ele>
        <time>2020-08-19T17:27:20.000Z</time>
      </trkpt>
      <trkpt lat="48.60186" lon="7.16412">
        <ele>644</ele>
        <time>2020-08-19T17:27:22.000Z</time>
      </trkpt>
      <trkpt lat="48.60191" lon="7.16421">
        <ele>644.27</ele>
        <time>2020-08-19T17:27:24.000Z</time>
      </trkpt>
      <trkpt lat="48.60194" lon="7.1643">
        <ele>643.21</ele>
        <time>2020-08-19T17:27:26.000Z</time>
      </trkpt>
      <trkpt lat="48.60198" lon="7.16438">
        <ele>645.2</ele>
        <time>2020-08-19T17:27:28.000Z</time>
      </trkpt>
      <trkpt lat="48.60201" lon="7.16446">
        <ele>645.44</ele>
        <time>2020-08-19T17:27:30.000Z</time>
      </trkpt>
      <trkpt lat="48.60204" lon="7.16452">
        <ele>646.35</ele>
        <time>2020-08-19T17:27:32.000Z</time>
      </trkpt>
      <trkpt lat="48.60208" lon="7.1646">
        <ele>643.57</ele>
        <time>2020-08-19T17:27:34.000Z</time>
      </trkpt>
      <trkpt lat="48.60212" lon="7.16465">
        <ele>643.48</ele>
        <time>2020-08-19T17:27:36.000Z</time>
      </trkpt>
      <trkpt lat="48.60215" lon="7.16471">
        <ele>644.77</ele>
        <time>2020-08-19T17:27:38.000Z</time>
      </trkpt>
      <trkpt lat="48.60218" lon="7.16479">
        <ele>644.61</ele>
        <time>2020-08-19T17:27:40.000Z</time>
      </trkpt>
      <trkpt lat="48.60221" lon="7.16488">
        <ele>645.78</ele>
        <time>2020-08-19T17:27:42.000Z</time>
      </trkpt>
      <trkpt lat="48.60224" lon="7.16496">
        <ele>645.48</ele>
        <time>2020-08-19T17:27:44.000Z</time>
      </trkpt>
      <trkpt lat="48.6023" lon="7.16509">
        <ele>646.04</ele>
        <time>2020-08-19T17:27:46.000Z</time>
      </trkpt>
      <trkpt lat="48.60233" lon="7.16514">
        <ele>647.33</ele>
        <time>2020-08-19T17:27:47.000Z</time>
      </trkpt>
      <trkpt lat="48.60238" lon="7.16525">
        <ele>646.51</ele>
        <time>2020-08-19T17:27:49.000Z</time>
      </trkpt>
      <trkpt lat="48.6024" lon="7.16531">
        <ele>645.38</ele>
        <time>2020-08-19T17:27:50.000Z</time>
      </trkpt>
      <trkpt lat="48.60246" lon="7.1654">
        <ele>643.45</ele>
        <time>2020-08-19T17:27:52.000Z</time>
      </trkpt>
      <trkpt lat="48.60249" lon="7.16545">
        <ele>641.28</ele>
        <time>2020-08-19T17:27:53.000Z</time>
      </trkpt>
      <trkpt lat="48.60253" lon="7.16553">
        <ele>641.97</ele>
        <time>2020-08-19T17:27:55.000Z</time>
      </trkpt>
      <trkpt lat="48.60258" lon="7.16564">
        <ele>642.98</ele>
        <time>2020-08-19T17:27:57.000Z</time>
      </trkpt>
      <trkpt lat="48.6026" lon="7.16576">
        <ele>640.83</ele>
        <time>2020-08-19T17:27:59.000Z</time>
      </trkpt>
      <trkpt lat="48.60264" lon="7.16588">
        <ele>636.81</ele>
        <time>2020-08-19T17:28:01.000Z</time>
      </trkpt>
      <trkpt lat="48.60267" lon="7.16599">
        <ele>636.39</ele>
        <time>2020-08-19T17:28:03.000Z</time>
      </trkpt>
      <trkpt lat="48.60268" lon="7.16607">
        <ele>635.6</ele>
        <time>2020-08-19T17:28:04.000Z</time>
      </trkpt>
      <trkpt lat="48.60269" lon="7.16618">
        <ele>636.23</ele>
        <time>2020-08-19T17:28:06.000Z</time>
      </trkpt>
      <trkpt lat="48.60269" lon="7.16626">
        <ele>636.89</ele>
        <time>2020-08-19T17:28:08.000Z</time>
      </trkpt>
      <trkpt lat="48.60271" lon="7.16637">
        <ele>636.32</ele>
        <time>2020-08-19T17:28:10.000Z</time>
      </trkpt>
      <trkpt lat="48.60272" lon="7.16647">
        <ele>637.51</ele>
        <time>2020-08-19T17:28:12.000Z</time>
      </trkpt>
      <trkpt lat="48.60271" lon="7.16656">
        <ele>637.76</ele>
        <time>2020-08-19T17:28:14.000Z</time>
      </trkpt>
      <trkpt lat="48.60273" lon="7.16666">
        <ele>638.5</ele>
        <time>2020-08-19T17:28:16.000Z</time>
      </trkpt>
      <trkpt lat="48.60276" lon="7.16677">
        <ele>640.2</ele>
        <time>2020-08-19T17:28:18.000Z</time>
      </trkpt>
      <trkpt lat="48.60277" lon="7.16686">
        <ele>640.07</ele>
        <time>2020-08-19T17:28:20.000Z</time>
      </trkpt>
      <trkpt lat="48.60278" lon="7.16696">
        <ele>639.34</ele>
        <time>2020-08-19T17:28:22.000Z</time>
      </trkpt>
      <trkpt lat="48.60278" lon="7.16704">
        <ele>637.93</ele>
        <time>2020-08-19T17:28:24.000Z</time>
      </trkpt>
      <trkpt lat="48.60279" lon="7.16712">
        <ele>637.54</ele>
        <time>2020-08-19T17:28:26.000Z</time>
      </trkpt>
      <trkpt lat="48.60282" lon="7.16721">
        <ele>637.17</ele>
        <time>2020-08-19T17:28:28.000Z</time>
      </trkpt>
      <trkpt lat="48.60285" lon="7.16729">
        <ele>639.17</ele>
        <time>2020-08-19T17:28:30.000Z</time>
      </trkpt>
      <trkpt lat="48.60287" lon="7.16735">
        <ele>640.75</ele>
        <time>2020-08-19T17:28:32.000Z</time>
      </trkpt>
      <trkpt lat="48.6029" lon="7.16741">
        <ele>642.82</ele>
        <time>2020-08-19T17:28:34.000Z</time>
      </trkpt>
      <trkpt lat="48.60291" lon="7.1675">
        <ele>643.84</ele>
        <time>2020-08-19T17:28:37.000Z</time>
      </trkpt>
      <trkpt lat="48.6029" lon="7.16758">
        <ele>645.2</ele>
        <time>2020-08-19T17:28:39.000Z</time>
      </trkpt>
      <trkpt lat="48.60286" lon="7.16768">
        <ele>646.18</ele>
        <time>2020-08-19T17:28:41.000Z</time>
      </trkpt>
      <trkpt lat="48.60272" lon="7.16881">
        <ele>647.57</ele>
        <time>2020-08-19T17:28:59.000Z</time>
      </trkpt>
      <trkpt lat="48.60271" lon="7.16891">
        <ele>643.24</ele>
        <time>2020-08-19T17:29:01.000Z</time>
      </trkpt>
      <trkpt lat="48.60267" lon="7.16897">
        <ele>641.21</ele>
        <time>2020-08-19T17:29:07.000Z</time>
      </trkpt>
      <trkpt lat="48.60267" lon="7.16905">
        <ele>644.86</ele>
        <time>2020-08-19T17:29:12.000Z</time>
      </trkpt>
      <trkpt lat="48.60266" lon="7.16912">
        <ele>643.79</ele>
        <time>2020-08-19T17:29:15.000Z</time>
      </trkpt>
      <trkpt lat="48.60265" lon="7.16919">
        <ele>641.95</ele>
        <time>2020-08-19T17:29:19.000Z</time>
      </trkpt>
      <trkpt lat="48.60264" lon="7.16927">
        <ele>641.77</ele>
        <time>2020-08-19T17:29:23.000Z</time>
      </trkpt>
      <trkpt lat="48.60262" lon="7.16934">
        <ele>643.02</ele>
        <time>2020-08-19T17:29:26.000Z</time>
      </trkpt>
      <trkpt lat="48.6026" lon="7.1694">
        <ele>644.85</ele>
        <time>2020-08-19T17:29:31.000Z</time>
      </trkpt>
      <trkpt lat="48.60261" lon="7.16948">
        <ele>646.28</ele>
        <time>2020-08-19T17:29:35.000Z</time>
      </trkpt>
      <trkpt lat="48.60261" lon="7.16957">
        <ele>646.76</ele>
        <time>2020-08-19T17:29:39.000Z</time>
      </trkpt>
      <trkpt lat="48.6026" lon="7.16965">
        <ele>647.77</ele>
        <time>2020-08-19T17:29:43.000Z</time>
      </trkpt>
      <trkpt lat="48.60261" lon="7.16973">
        <ele>649.52</ele>
        <time>2020-08-19T17:29:47.000Z</time>
      </trkpt>
      <trkpt lat="48.6026" lon="7.16981">
        <ele>649.79</ele>
        <time>2020-08-19T17:29:51.000Z</time>
      </trkpt>
      <trkpt lat="48.60258" lon="7.16987">
        <ele>650.74</ele>
        <time>2020-08-19T17:29:55.000Z</time>
      </trkpt>
      <trkpt lat="48.60256" lon="7.16995">
        <ele>650.1</ele>
        <time>2020-08-19T17:29:59.000Z</time>
      </trkpt>
      <trkpt lat="48.60254" lon="7.17001">
        <ele>650.58</ele>
        <time>2020-08-19T17:30:07.000Z</time>
      </trkpt>
      <trkpt lat="48.60253" lon="7.17008">
        <ele>652.16</ele>
        <time>2020-08-19T17:30:11.000Z</time>
      </trkpt>
      <trkpt lat="48.60252" lon="7.17016">
        <ele>652.21</ele>
        <time>2020-08-19T17:30:16.000Z</time>
      </trkpt>
      <trkpt lat="48.60251" lon="7.17024">
        <ele>651.72</ele>
        <time>2020-08-19T17:30:20.000Z</time>
      </trkpt>
      <trkpt lat="48.60248" lon="7.17031">
        <ele>652.72</ele>
        <time>2020-08-19T17:30:24.000Z</time>
      </trkpt>
      <trkpt lat="48.60245" lon="7.17037">
        <ele>651.74</ele>
        <time>2020-08-19T17:30:27.000Z</time>
      </trkpt>
      <trkpt lat="48.60242" lon="7.17044">
        <ele>651.72</ele>
        <time>2020-08-19T17:30:31.000Z</time>
      </trkpt>
      <trkpt lat="48.6024" lon="7.1705">
        <ele>652.03</ele>
        <time>2020-08-19T17:30:35.000Z</time>
      </trkpt>
      <trkpt lat="48.60239" lon="7.17058">
        <ele>655.13</ele>
        <time>2020-08-19T17:30:40.000Z</time>
      </trkpt>
      <trkpt lat="48.60237" lon="7.17066">
        <ele>654.76</ele>
        <time>2020-08-19T17:30:45.000Z</time>
      </trkpt>
      <trkpt lat="48.60236" lon="7.17073">
        <ele>655.08</ele>
        <time>2020-08-19T17:30:51.000Z</time>
      </trkpt>
      <trkpt lat="48.60232" lon="7.17078">
        <ele>655.87</ele>
        <time>2020-08-19T17:30:54.000Z</time>
      </trkpt>
      <trkpt lat="48.60231" lon="7.17085">
        <ele>656.4</ele>
        <time>2020-08-19T17:30:58.000Z</time>
      </trkpt>
      <trkpt lat="48.60231" lon="7.17092">
        <ele>657.47</ele>
        <time>2020-08-19T17:31:03.000Z</time>
      </trkpt>
      <trkpt lat="48.60232" lon="7.17101">
        <ele>658.54</ele>
        <time>2020-08-19T17:31:08.000Z</time>
      </trkpt>
      <trkpt lat="48.60232" lon="7.17108">
        <ele>657.05</ele>
        <time>2020-08-19T17:31:12.000Z</time>
      </trkpt>
      <trkpt lat="48.60231" lon="7.17116">
        <ele>660.07</ele>
        <time>2020-08-19T17:31:16.000Z</time>
      </trkpt>
      <trkpt lat="48.60228" lon="7.17123">
        <ele>659.98</ele>
        <time>2020-08-19T17:31:20.000Z</time>
      </trkpt>
      <trkpt lat="48.60225" lon="7.17128">
        <ele>658.25</ele>
        <time>2020-08-19T17:31:23.000Z</time>
      </trkpt>
      <trkpt lat="48.60222" lon="7.17136">
        <ele>660.08</ele>
        <time>2020-08-19T17:31:27.000Z</time>
      </trkpt>
      <trkpt lat="48.60219" lon="7.17141">
        <ele>659.97</ele>
        <time>2020-08-19T17:31:31.000Z</time>
      </trkpt>
      <trkpt lat="48.60216" lon="7.17146">
        <ele>660.31</ele>
        <time>2020-08-19T17:31:35.000Z</time>
      </trkpt>
      <trkpt lat="48.60211" lon="7.1715">
        <ele>660.59</ele>
        <time>2020-08-19T17:31:39.000Z</time>
      </trkpt>
      <trkpt lat="48.60207" lon="7.17155">
        <ele>660.35</ele>
        <time>2020-08-19T17:31:44.000Z</time>
      </trkpt>
      <trkpt lat="48.60203" lon="7.1716">
        <ele>660.35</ele>
        <time>2020-08-19T17:31:48.000Z</time>
      </trkpt>
      <trkpt lat="48.602" lon="7.17165">
        <ele>662.34</ele>
        <time>2020-08-19T17:31:54.000Z</time>
      </trkpt>
      <trkpt lat="48.60198" lon="7.17172">
        <ele>663.9</ele>
        <time>2020-08-19T17:31:58.000Z</time>
      </trkpt>
      <trkpt lat="48.60173" lon="7.17247">
        <ele>662.72</ele>
        <time>2020-08-19T17:32:36.000Z</time>
      </trkpt>
      <trkpt lat="48.60172" lon="7.17254">
        <ele>665.71</ele>
        <time>2020-08-19T17:32:41.000Z</time>
      </trkpt>
      <trkpt lat="48.60169" lon="7.17258">
        <ele>664.28</ele>
        <time>2020-08-19T17:32:49.000Z</time>
      </trkpt>
      <trkpt lat="48.60172" lon="7.17264">
        <ele>662.03</ele>
        <time>2020-08-19T17:33:00.000Z</time>
      </trkpt>
      <trkpt lat="48.60171" lon="7.17271">
        <ele>660.41</ele>
        <time>2020-08-19T17:33:10.000Z</time>
      </trkpt>
      <trkpt lat="48.60173" lon="7.17278">
        <ele>659.06</ele>
        <time>2020-08-19T17:33:15.000Z</time>
      </trkpt>
      <trkpt lat="48.6017" lon="7.17284">
        <ele>659.85</ele>
        <time>2020-08-19T17:33:21.000Z</time>
      </trkpt>
      <trkpt lat="48.60167" lon="7.1729">
        <ele>659.79</ele>
        <time>2020-08-19T17:33:25.000Z</time>
      </trkpt>
      <trkpt lat="48.60164" lon="7.17296">
        <ele>660.22</ele>
        <time>2020-08-19T17:33:28.000Z</time>
      </trkpt>
      <trkpt lat="48.60163" lon="7.17303">
        <ele>659.87</ele>
        <time>2020-08-19T17:33:32.000Z</time>
      </trkpt>
      <trkpt lat="48.60162" lon="7.1731">
        <ele>659.39</ele>
        <time>2020-08-19T17:33:36.000Z</time>
      </trkpt>
      <trkpt lat="48.60159" lon="7.17317">
        <ele>659.6</ele>
        <time>2020-08-19T17:33:45.000Z</time>
      </trkpt>
      <trkpt lat="48.60158" lon="7.17325">
        <ele>662.07</ele>
        <time>2020-08-19T17:33:51.000Z</time>
      </trkpt>
      <trkpt lat="48.60156" lon="7.17332">
        <ele>662.08</ele>
        <time>2020-08-19T17:33:55.000Z</time>
      </trkpt>
      <trkpt lat="48.60155" lon="7.17338">
        <ele>663.33</ele>
        <time>2020-08-19T17:33:59.000Z</time>
      </trkpt>
      <trkpt lat="48.60153" lon="7.17346">
        <ele>663.68</ele>
        <time>2020-08-19T17:34:03.000Z</time>
      </trkpt>
      <trkpt lat="48.60153" lon="7.17354">
        <ele>662.77</ele>
        <time>2020-08-19T17:34:07.000Z</time>
      </trkpt>
      <trkpt lat="48.60152" lon="7.17362">
        <ele>662.86</ele>
        <time>2020-08-19T17:34:11.000Z</time>
      </trkpt>
      <trkpt lat="48.60152" lon="7.17369">
        <ele>659.9</ele>
        <time>2020-08-19T17:34:43.000Z</time>
      </trkpt>
      <trkpt lat="48.60153" lon="7.17377">
        <ele>663.23</ele>
        <time>2020-08-19T17:34:47.000Z</time>
      </trkpt>
      <trkpt lat="48.60153" lon="7.17384">
        <ele>661.27</ele>
        <time>2020-08-19T17:34:51.000Z</time>
      </trkpt>
      <trkpt lat="48.60154" lon="7.17392">
        <ele>659.08</ele>
        <time>2020-08-19T17:34:54.000Z</time>
      </trkpt>
      <trkpt lat="48.60153" lon="7.174">
        <ele>657.46</ele>
        <time>2020-08-19T17:34:58.000Z</time>
      </trkpt>
      <trkpt lat="48.60152" lon="7.17408">
        <ele>654.51</ele>
        <time>2020-08-19T17:35:02.000Z</time>
      </trkpt>
      <trkpt lat="48.6015" lon="7.17415">
        <ele>652.18</ele>
        <time>2020-08-19T17:35:05.000Z</time>
      </trkpt>
      <trkpt lat="48.60147" lon="7.17422">
        <ele>652.65</ele>
        <time>2020-08-19T17:35:09.000Z</time>
      </trkpt>
      <trkpt lat="48.60147" lon="7.17429">
        <ele>652.76</ele>
        <time>2020-08-19T17:35:13.000Z</time>
      </trkpt>
      <trkpt lat="48.60145" lon="7.17437">
        <ele>650.14</ele>
        <time>2020-08-19T17:35:17.000Z</time>
      </trkpt>
      <trkpt lat="48.60145" lon="7.17446">
        <ele>650.65</ele>
        <time>2020-08-19T17:35:21.000Z</time>
      </trkpt>
      <trkpt lat="48.60145" lon="7.17453">
        <ele>652.8</ele>
        <time>2020-08-19T17:35:25.000Z</time>
      </trkpt>
      <trkpt lat="48.60147" lon="7.17461">
        <ele>654.4</ele>
        <time>2020-08-19T17:35:29.000Z</time>
      </trkpt>
      <trkpt lat="48.60148" lon="7.17468">
        <ele>653.69</ele>
        <time>2020-08-19T17:35:32.000Z</time>
      </trkpt>
      <trkpt lat="48.60148" lon="7.17476">
        <ele>654.17</ele>
        <time>2020-08-19T17:35:36.000Z</time>
      </trkpt>
      <trkpt lat="48.60148" lon="7.17484">
        <ele>656.77</ele>
        <time>2020-08-19T17:35:40.000Z</time>
      </trkpt>
      <trkpt lat="48.60147" lon="7.17491">
        <ele>656.38</ele>
        <time>2020-08-19T17:35:44.000Z</time>
      </trkpt>
      <trkpt lat="48.60147" lon="7.17499">
        <ele>658.29</ele>
        <time>2020-08-19T17:35:49.000Z</time>
      </trkpt>
      <trkpt lat="48.60146" lon="7.17507">
        <ele>594.96</ele>
        <time>2020-08-19T17:35:53.000Z</time>
      </trkpt>
      <trkpt lat="48.60146" lon="7.17515">
        <ele>632.32</ele>
        <time>2020-08-19T17:35:57.000Z</time>
      </trkpt>
      <trkpt lat="48.60147" lon="7.17523">
        <ele>651.87</ele>
        <time>2020-08-19T17:36:02.000Z</time>
      </trkpt>
      <trkpt lat="48.6015" lon="7.17528">
        <ele>655.54</ele>
        <time>2020-08-19T17:36:06.000Z</time>
      </trkpt>
      <trkpt lat="48.60152" lon="7.17535">
        <ele>660.49</ele>
        <time>2020-08-19T17:36:10.000Z</time>
      </trkpt>
      <trkpt lat="48.60154" lon="7.17541">
        <ele>598.72</ele>
        <time>2020-08-19T17:36:14.000Z</time>
      </trkpt>
      <trkpt lat="48.60155" lon="7.1755">
        <ele>638.73</ele>
        <time>2020-08-19T17:36:18.000Z</time>
      </trkpt>
      <trkpt lat="48.60155" lon="7.17558">
        <ele>650.05</ele>
        <time>2020-08-19T17:36:21.000Z</time>
      </trkpt>
      <trkpt lat="48.60155" lon="7.17565">
        <ele>655.7</ele>
        <time>2020-08-19T17:36:24.000Z</time>
      </trkpt>
      <trkpt lat="48.60156" lon="7.17572">
        <ele>654.82</ele>
        <time>2020-08-19T17:36:27.000Z</time>
      </trkpt>
      <trkpt lat="48.60156" lon="7.17581">
        <ele>656.81</ele>
        <time>2020-08-19T17:36:31.000Z</time>
      </trkpt>
      <trkpt lat="48.60158" lon="7.17587">
        <ele>657.56</ele>
        <time>2020-08-19T17:36:34.000Z</time>
      </trkpt>
      <trkpt lat="48.60164" lon="7.17723">
        <ele>661.53</ele>
        <time>2020-08-19T17:37:10.000Z</time>
      </trkpt>
      <trkpt lat="48.60167" lon="7.17728">
        <ele>657.82</ele>
        <time>2020-08-19T17:37:21.000Z</time>
      </trkpt>
      <trkpt lat="48.60169" lon="7.17734">
        <ele>658.94</ele>
        <time>2020-08-19T17:37:26.000Z</time>
      </trkpt>
      <trkpt lat="48.60166" lon="7.1774">
        <ele>657.9</ele>
        <time>2020-08-19T17:37:31.000Z</time>
      </trkpt>
      <trkpt lat="48.60162" lon="7.17745">
        <ele>657.15</ele>
        <time>2020-08-19T17:37:35.000Z</time>
      </trkpt>
      <trkpt lat="48.60158" lon="7.17751">
        <ele>657.15</ele>
        <time>2020-08-19T17:37:40.000Z</time>
      </trkpt>
      <trkpt lat="48.60157" lon="7.17758">
        <ele>655.43</ele>
        <time>2020-08-19T17:37:55.000Z</time>
      </trkpt>
      <trkpt lat="48.60153" lon="7.17764">
        <ele>657.76</ele>
        <time>2020-08-19T17:37:59.000Z</time>
      </trkpt>
      <trkpt lat="48.60155" lon="7.17771">
        <ele>656.75</ele>
        <time>2020-08-19T17:38:05.000Z</time>
      </trkpt>
      <trkpt lat="48.60151" lon="7.17776">
        <ele>657.21</ele>
        <time>2020-08-19T17:38:10.000Z</time>
      </trkpt>
      <trkpt lat="48.60146" lon="7.17788">
        <ele>653.96</ele>
        <time>2020-08-19T17:38:23.000Z</time>
      </trkpt>
      <trkpt lat="48.60146" lon="7.17795">
        <ele>653.18</ele>
        <time>2020-08-19T17:38:30.000Z</time>
      </trkpt>
      <trkpt lat="48.60138" lon="7.17818">
        <ele>646.09</ele>
        <time>2020-08-19T17:38:45.000Z</time>
      </trkpt>
      <trkpt lat="48.60136" lon="7.17825">
        <ele>644.78</ele>
        <time>2020-08-19T17:38:49.000Z</time>
      </trkpt>
      <trkpt lat="48.60133" lon="7.1783">
        <ele>642.78</ele>
        <time>2020-08-19T17:38:54.000Z</time>
      </trkpt>
      <trkpt lat="48.60129" lon="7.17838">
        <ele>641.62</ele>
        <time>2020-08-19T17:39:04.000Z</time>
      </trkpt>
      <trkpt lat="48.60125" lon="7.17844">
        <ele>640.28</ele>
        <time>2020-08-19T17:39:06.000Z</time>
      </trkpt>
      <trkpt lat="48.60105" lon="7.17887">
        <ele>635.62</ele>
        <time>2020-08-19T17:39:14.000Z</time>
      </trkpt>
      <trkpt lat="48.60103" lon="7.17896">
        <ele>631.99</ele>
        <time>2020-08-19T17:39:16.000Z</time>
      </trkpt>
      <trkpt lat="48.60101" lon="7.17906">
        <ele>615.2</ele>
        <time>2020-08-19T17:39:50.000Z</time>
      </trkpt>
      <trkpt lat="48.60098" lon="7.17913">
        <ele>627.94</ele>
        <time>2020-08-19T17:39:52.000Z</time>
      </trkpt>
      <trkpt lat="48.60093" lon="7.17922">
        <ele>630.06</ele>
        <time>2020-08-19T17:39:54.000Z</time>
      </trkpt>
      <trkpt lat="48.60089" lon="7.17929">
        <ele>630.51</ele>
        <time>2020-08-19T17:39:56.000Z</time>
      </trkpt>
      <trkpt lat="48.60084" lon="7.17933">
        <ele>632.46</ele>
        <time>2020-08-19T17:39:58.000Z</time>
      </trkpt>
      <trkpt lat="48.60079" lon="7.17937">
        <ele>633.55</ele>
        <time>2020-08-19T17:40:00.000Z</time>
      </trkpt>
      <trkpt lat="48.60074" lon="7.17941">
        <ele>634.1</ele>
        <time>2020-08-19T17:40:02.000Z</time>
      </trkpt>
      <trkpt lat="48.60078" lon="7.17935">
        <ele>634.17</ele>
        <time>2020-08-19T17:40:19.000Z</time>
      </trkpt>
      <trkpt lat="48.60083" lon="7.17932">
        <ele>633.97</ele>
        <time>2020-08-19T17:40:21.000Z</time>
      </trkpt>
      <trkpt lat="48.60087" lon="7.17929">
        <ele>633.31</ele>
        <time>2020-08-19T17:40:23.000Z</time>
      </trkpt>
      <trkpt lat="48.60093" lon="7.17929">
        <ele>633.03</ele>
        <time>2020-08-19T17:40:25.000Z</time>
      </trkpt>
      <trkpt lat="48.60096" lon="7.17935">
        <ele>633.94</ele>
        <time>2020-08-19T17:40:27.000Z</time>
      </trkpt>
      <trkpt lat="48.60096" lon="7.17946">
        <ele>632.86</ele>
        <time>2020-08-19T17:40:29.000Z</time>
      </trkpt>
      <trkpt lat="48.60093" lon="7.17953">
        <ele>632.93</ele>
        <time>2020-08-19T17:40:32.000Z</time>
      </trkpt>
      <trkpt lat="48.60094" lon="7.17962">
        <ele>629.31</ele>
        <time>2020-08-19T17:40:39.000Z</time>
      </trkpt>
      <trkpt lat="48.60089" lon="7.17996">
        <ele>631.76</ele>
        <time>2020-08-19T17:40:45.000Z</time>
      </trkpt>
      <trkpt lat="48.60088" lon="7.18004">
        <ele>631.5</ele>
        <time>2020-08-19T17:40:46.000Z</time>
      </trkpt>
      <trkpt lat="48.60086" lon="7.18012">
        <ele>631.72</ele>
        <time>2020-08-19T17:40:47.000Z</time>
      </trkpt>
      <trkpt lat="48.60085" lon="7.18018">
        <ele>631.45</ele>
        <time>2020-08-19T17:40:48.000Z</time>
      </trkpt>
      <trkpt lat="48.60083" lon="7.18027">
        <ele>631.19</ele>
        <time>2020-08-19T17:40:49.000Z</time>
      </trkpt>
      <trkpt lat="48.60082" lon="7.18036">
        <ele>630.76</ele>
        <time>2020-08-19T17:40:50.000Z</time>
      </trkpt>
      <trkpt lat="48.6008" lon="7.18043">
        <ele>630.25</ele>
        <time>2020-08-19T17:40:51.000Z</time>
      </trkpt>
      <trkpt lat="48.60075" lon="7.18051">
        <ele>629.31</ele>
        <time>2020-08-19T17:40:52.000Z</time>
      </trkpt>
      <trkpt lat="48.60073" lon="7.1806">
        <ele>627.9</ele>
        <time>2020-08-19T17:40:53.000Z</time>
      </trkpt>
      <trkpt lat="48.60072" lon="7.18069">
        <ele>629.08</ele>
        <time>2020-08-19T17:40:54.000Z</time>
      </trkpt>
      <trkpt lat="48.6007" lon="7.18077">
        <ele>626.78</ele>
        <time>2020-08-19T17:40:55.000Z</time>
      </trkpt>
      <trkpt lat="48.60067" lon="7.18087">
        <ele>625.08</ele>
        <time>2020-08-19T17:40:56.000Z</time>
      </trkpt>
      <trkpt lat="48.60067" lon="7.18099">
        <ele>623.75</ele>
        <time>2020-08-19T17:40:57.000Z</time>
      </trkpt>
      <trkpt lat="48.60066" lon="7.18109">
        <ele>623.57</ele>
        <time>2020-08-19T17:40:58.000Z</time>
      </trkpt>
      <trkpt lat="48.60065" lon="7.18118">
        <ele>623.37</ele>
        <time>2020-08-19T17:40:59.000Z</time>
      </trkpt>
      <trkpt lat="48.60064" lon="7.18131">
        <ele>624.65</ele>
        <time>2020-08-19T17:41:00.000Z</time>
      </trkpt>
      <trkpt lat="48.60064" lon="7.18142">
        <ele>625.1</ele>
        <time>2020-08-19T17:41:01.000Z</time>
      </trkpt>
      <trkpt lat="48.60064" lon="7.18155">
        <ele>625.11</ele>
        <time>2020-08-19T17:41:02.000Z</time>
      </trkpt>
      <trkpt lat="48.60062" lon="7.18167">
        <ele>623.61</ele>
        <time>2020-08-19T17:41:03.000Z</time>
      </trkpt>
      <trkpt lat="48.60061" lon="7.18178">
        <ele>621.99</ele>
        <time>2020-08-19T17:41:04.000Z</time>
      </trkpt>
      <trkpt lat="48.6006" lon="7.18192">
        <ele>622.06</ele>
        <time>2020-08-19T17:41:05.000Z</time>
      </trkpt>
      <trkpt lat="48.6006" lon="7.18205">
        <ele>621.9</ele>
        <time>2020-08-19T17:41:06.000Z</time>
      </trkpt>
      <trkpt lat="48.60059" lon="7.18216">
        <ele>620.29</ele>
        <time>2020-08-19T17:41:07.000Z</time>
      </trkpt>
      <trkpt lat="48.60057" lon="7.18227">
        <ele>619.75</ele>
        <time>2020-08-19T17:41:08.000Z</time>
      </trkpt>
      <trkpt lat="48.60058" lon="7.18238">
        <ele>619.92</ele>
        <time>2020-08-19T17:41:09.000Z</time>
      </trkpt>
      <trkpt lat="48.60059" lon="7.18249">
        <ele>620.2</ele>
        <time>2020-08-19T17:41:10.000Z</time>
      </trkpt>
      <trkpt lat="48.60061" lon="7.18261">
        <ele>619.76</ele>
        <time>2020-08-19T17:41:11.000Z</time>
      </trkpt>
      <trkpt lat="48.60063" lon="7.18271">
        <ele>618.56</ele>
        <time>2020-08-19T17:41:12.000Z</time>
      </trkpt>
      <trkpt lat="48.60067" lon="7.18281">
        <ele>616.75</ele>
        <time>2020-08-19T17:41:13.000Z</time>
      </trkpt>
      <trkpt lat="48.60074" lon="7.18291">
        <ele>617.55</ele>
        <time>2020-08-19T17:41:14.000Z</time>
      </trkpt>
      <trkpt lat="48.6008" lon="7.18302">
        <ele>616.56</ele>
        <time>2020-08-19T17:41:15.000Z</time>
      </trkpt>
      <trkpt lat="48.60086" lon="7.1831">
        <ele>616.16</ele>
        <time>2020-08-19T17:41:16.000Z</time>
      </trkpt>
      <trkpt lat="48.60094" lon="7.1832">
        <ele>615.05</ele>
        <time>2020-08-19T17:41:17.000Z</time>
      </trkpt>
      <trkpt lat="48.60102" lon="7.18329">
        <ele>612.83</ele>
        <time>2020-08-19T17:41:18.000Z</time>
      </trkpt>
      <trkpt lat="48.60109" lon="7.18337">
        <ele>612.99</ele>
        <time>2020-08-19T17:41:19.000Z</time>
      </trkpt>
      <trkpt lat="48.60116" lon="7.18343">
        <ele>613.05</ele>
        <time>2020-08-19T17:41:20.000Z</time>
      </trkpt>
      <trkpt lat="48.60124" lon="7.1835">
        <ele>612.28</ele>
        <time>2020-08-19T17:41:21.000Z</time>
      </trkpt>
      <trkpt lat="48.60131" lon="7.18357">
        <ele>612</ele>
        <time>2020-08-19T17:41:22.000Z</time>
      </trkpt>
      <trkpt lat="48.60138" lon="7.18363">
        <ele>610.78</ele>
        <time>2020-08-19T17:41:23.000Z</time>
      </trkpt>
      <trkpt lat="48.60146" lon="7.1837">
        <ele>610.34</ele>
        <time>2020-08-19T17:41:24.000Z</time>
      </trkpt>
      <trkpt lat="48.60152" lon="7.18379">
        <ele>610.76</ele>
        <time>2020-08-19T17:41:25.000Z</time>
      </trkpt>
      <trkpt lat="48.60161" lon="7.18385">
        <ele>610.19</ele>
        <time>2020-08-19T17:41:26.000Z</time>
      </trkpt>
      <trkpt lat="48.60167" lon="7.18394">
        <ele>610.3</ele>
        <time>2020-08-19T17:41:27.000Z</time>
      </trkpt>
      <trkpt lat="48.60172" lon="7.18406">
        <ele>607.32</ele>
        <time>2020-08-19T17:41:28.000Z</time>
      </trkpt>
      <trkpt lat="48.60178" lon="7.18417">
        <ele>607.38</ele>
        <time>2020-08-19T17:41:29.000Z</time>
      </trkpt>
      <trkpt lat="48.60183" lon="7.18428">
        <ele>606.98</ele>
        <time>2020-08-19T17:41:30.000Z</time>
      </trkpt>
      <trkpt lat="48.60187" lon="7.18439">
        <ele>606.6</ele>
        <time>2020-08-19T17:41:31.000Z</time>
      </trkpt>
      <trkpt lat="48.60192" lon="7.18448">
        <ele>606.78</ele>
        <time>2020-08-19T17:41:32.000Z</time>
      </trkpt>
      <trkpt lat="48.60196" lon="7.18457">
        <ele>606.93</ele>
        <time>2020-08-19T17:41:33.000Z</time>
      </trkpt>
      <trkpt lat="48.60201" lon="7.18466">
        <ele>606.84</ele>
        <time>2020-08-19T17:41:34.000Z</time>
      </trkpt>
      <trkpt lat="48.60205" lon="7.18475">
        <ele>606.44</ele>
        <time>2020-08-19T17:41:35.000Z</time>
      </trkpt>
      <trkpt lat="48.60208" lon="7.18485">
        <ele>604.96</ele>
        <time>2020-08-19T17:41:36.000Z</time>
      </trkpt>
      <trkpt lat="48.60212" lon="7.18497">
        <ele>604.6</ele>
        <time>2020-08-19T17:41:37.000Z</time>
      </trkpt>
      <trkpt lat="48.60217" lon="7.18506">
        <ele>603.71</ele>
        <time>2020-08-19T17:41:38.000Z</time>
      </trkpt>
      <trkpt lat="48.60221" lon="7.18516">
        <ele>602.78</ele>
        <time>2020-08-19T17:41:39.000Z</time>
      </trkpt>
      <trkpt lat="48.60225" lon="7.18527">
        <ele>603.5</ele>
        <time>2020-08-19T17:41:40.000Z</time>
      </trkpt>
      <trkpt lat="48.60229" lon="7.1854">
        <ele>603.21</ele>
        <time>2020-08-19T17:41:41.000Z</time>
      </trkpt>
      <trkpt lat="48.60233" lon="7.18551">
        <ele>603.06</ele>
        <time>2020-08-19T17:41:42.000Z</time>
      </trkpt>
      <trkpt lat="48.60239" lon="7.18562">
        <ele>602.24</ele>
        <time>2020-08-19T17:41:43.000Z</time>
      </trkpt>
      <trkpt lat="48.60243" lon="7.18575">
        <ele>602.43</ele>
        <time>2020-08-19T17:41:44.000Z</time>
      </trkpt>
      <trkpt lat="48.60248" lon="7.18586">
        <ele>602.36</ele>
        <time>2020-08-19T17:41:45.000Z</time>
      </trkpt>
      <trkpt lat="48.60253" lon="7.18597">
        <ele>600.87</ele>
        <time>2020-08-19T17:41:46.000Z</time>
      </trkpt>
      <trkpt lat="48.60259" lon="7.1861">
        <ele>599.73</ele>
        <time>2020-08-19T17:41:47.000Z</time>
      </trkpt>
      <trkpt lat="48.60266" lon="7.18619">
        <ele>597.9</ele>
        <time>2020-08-19T17:41:48.000Z</time>
      </trkpt>
      <trkpt lat="48.60274" lon="7.18628">
        <ele>597.7</ele>
        <time>2020-08-19T17:41:49.000Z</time>
      </trkpt>
      <trkpt lat="48.60281" lon="7.18636">
        <ele>596.58</ele>
        <time>2020-08-19T17:41:50.000Z</time>
      </trkpt>
      <trkpt lat="48.60289" lon="7.18643">
        <ele>595.97</ele>
        <time>2020-08-19T17:41:51.000Z</time>
      </trkpt>
      <trkpt lat="48.60297" lon="7.18649">
        <ele>594.9</ele>
        <time>2020-08-19T17:41:52.000Z</time>
      </trkpt>
      <trkpt lat="48.60305" lon="7.18653">
        <ele>595.87</ele>
        <time>2020-08-19T17:41:53.000Z</time>
      </trkpt>
      <trkpt lat="48.60311" lon="7.18657">
        <ele>595.17</ele>
        <time>2020-08-19T17:41:54.000Z</time>
      </trkpt>
      <trkpt lat="48.60316" lon="7.18659">
        <ele>593.25</ele>
        <time>2020-08-19T17:41:55.000Z</time>
      </trkpt>
      <trkpt lat="48.60321" lon="7.18659">
        <ele>592.98</ele>
        <time>2020-08-19T17:41:56.000Z</time>
      </trkpt>
      <trkpt lat="48.60326" lon="7.18659">
        <ele>591.24</ele>
        <time>2020-08-19T17:42:10.000Z</time>
      </trkpt>
      <trkpt lat="48.60331" lon="7.18665">
        <ele>590.52</ele>
        <time>2020-08-19T17:42:12.000Z</time>
      </trkpt>
      <trkpt lat="48.60334" lon="7.18672">
        <ele>588.37</ele>
        <time>2020-08-19T17:42:13.000Z</time>
      </trkpt>
      <trkpt lat="48.60338" lon="7.18682">
        <ele>588.61</ele>
        <time>2020-08-19T17:42:15.000Z</time>
      </trkpt>
      <trkpt lat="48.60343" lon="7.18692">
        <ele>587.47</ele>
        <time>2020-08-19T17:42:17.000Z</time>
      </trkpt>
      <trkpt lat="48.60348" lon="7.18702">
        <ele>586.87</ele>
        <time>2020-08-19T17:42:19.000Z</time>
      </trkpt>
      <trkpt lat="48.60353" lon="7.18711">
        <ele>585.58</ele>
        <time>2020-08-19T17:42:21.000Z</time>
      </trkpt>
      <trkpt lat="48.60362" lon="7.18719">
        <ele>582.74</ele>
        <time>2020-08-19T17:42:23.000Z</time>
      </trkpt>
      <trkpt lat="48.60369" lon="7.18727">
        <ele>583.85</ele>
        <time>2020-08-19T17:42:25.000Z</time>
      </trkpt>
      <trkpt lat="48.60375" lon="7.1873">
        <ele>584.43</ele>
        <time>2020-08-19T17:42:27.000Z</time>
      </trkpt>
      <trkpt lat="48.6038" lon="7.18725">
        <ele>584.7</ele>
        <time>2020-08-19T17:42:45.000Z</time>
      </trkpt>
      <trkpt lat="48.60385" lon="7.1872">
        <ele>586</ele>
        <time>2020-08-19T17:42:48.000Z</time>
      </trkpt>
      <trkpt lat="48.6039" lon="7.18714">
        <ele>584.64</ele>
        <time>2020-08-19T17:42:50.000Z</time>
      </trkpt>
      <trkpt lat="48.60397" lon="7.18709">
        <ele>581.73</ele>
        <time>2020-08-19T17:42:52.000Z</time>
      </trkpt>
      <trkpt lat="48.60405" lon="7.18705">
        <ele>581.69</ele>
        <time>2020-08-19T17:42:54.000Z</time>
      </trkpt>
      <trkpt lat="48.60412" lon="7.18703">
        <ele>580.76</ele>
        <time>2020-08-19T17:42:55.000Z</time>
      </trkpt>
      <trkpt lat="48.60417" lon="7.18699">
        <ele>540.1</ele>
        <time>2020-08-19T17:42:56.000Z</time>
      </trkpt>
      <trkpt lat="48.60422" lon="7.18698">
        <ele>549.3</ele>
        <time>2020-08-19T17:42:57.000Z</time>
      </trkpt>
      <trkpt lat="48.60428" lon="7.18696">
        <ele>555.61</ele>
        <time>2020-08-19T17:42:58.000Z</time>
      </trkpt>
      <trkpt lat="48.60436" lon="7.18696">
        <ele>566.29</ele>
        <time>2020-08-19T17:43:00.000Z</time>
      </trkpt>
      <trkpt lat="48.60445" lon="7.18696">
        <ele>576.14</ele>
        <time>2020-08-19T17:43:02.000Z</time>
      </trkpt>
      <trkpt lat="48.60451" lon="7.18695">
        <ele>577.34</ele>
        <time>2020-08-19T17:43:03.000Z</time>
      </trkpt>
      <trkpt lat="48.60456" lon="7.18696">
        <ele>578.02</ele>
        <time>2020-08-19T17:43:04.000Z</time>
      </trkpt>
      <trkpt lat="48.60464" lon="7.18696">
        <ele>579.61</ele>
        <time>2020-08-19T17:43:05.000Z</time>
      </trkpt>
      <trkpt lat="48.60501" lon="7.18708">
        <ele>580.81</ele>
        <time>2020-08-19T17:43:10.000Z</time>
      </trkpt>
      <trkpt lat="48.60508" lon="7.18711">
        <ele>582.41</ele>
        <time>2020-08-19T17:43:11.000Z</time>
      </trkpt>
      <trkpt lat="48.60516" lon="7.18716">
        <ele>580.63</ele>
        <time>2020-08-19T17:43:12.000Z</time>
      </trkpt>
      <trkpt lat="48.60524" lon="7.18719">
        <ele>579.16</ele>
        <time>2020-08-19T17:43:13.000Z</time>
      </trkpt>
      <trkpt lat="48.60531" lon="7.18725">
        <ele>578.9</ele>
        <time>2020-08-19T17:43:14.000Z</time>
      </trkpt>
      <trkpt lat="48.60539" lon="7.18728">
        <ele>578.54</ele>
        <time>2020-08-19T17:43:15.000Z</time>
      </trkpt>
      <trkpt lat="48.60547" lon="7.18733">
        <ele>578.37</ele>
        <time>2020-08-19T17:43:16.000Z</time>
      </trkpt>
      <trkpt lat="48.60555" lon="7.18738">
        <ele>579.35</ele>
        <time>2020-08-19T17:43:17.000Z</time>
      </trkpt>
      <trkpt lat="48.60563" lon="7.18742">
        <ele>580.64</ele>
        <time>2020-08-19T17:43:18.000Z</time>
      </trkpt>
      <trkpt lat="48.6057" lon="7.18746">
        <ele>581.24</ele>
        <time>2020-08-19T17:43:19.000Z</time>
      </trkpt>
      <trkpt lat="48.60579" lon="7.18751">
        <ele>581.85</ele>
        <time>2020-08-19T17:43:20.000Z</time>
      </trkpt>
      <trkpt lat="48.60586" lon="7.18755">
        <ele>581.52</ele>
        <time>2020-08-19T17:43:21.000Z</time>
      </trkpt>
      <trkpt lat="48.60593" lon="7.1876">
        <ele>583.34</ele>
        <time>2020-08-19T17:43:22.000Z</time>
      </trkpt>
      <trkpt lat="48.60602" lon="7.18763">
        <ele>585.34</ele>
        <time>2020-08-19T17:43:23.000Z</time>
      </trkpt>
      <trkpt lat="48.60612" lon="7.18765">
        <ele>587.11</ele>
        <time>2020-08-19T17:43:24.000Z</time>
      </trkpt>
      <trkpt lat="48.60619" lon="7.18768">
        <ele>586.57</ele>
        <time>2020-08-19T17:43:25.000Z</time>
      </trkpt>
      <trkpt lat="48.60628" lon="7.1877">
        <ele>585.8</ele>
        <time>2020-08-19T17:43:26.000Z</time>
      </trkpt>
      <trkpt lat="48.60636" lon="7.18774">
        <ele>585.73</ele>
        <time>2020-08-19T17:43:27.000Z</time>
      </trkpt>
      <trkpt lat="48.60645" lon="7.18776">
        <ele>584.85</ele>
        <time>2020-08-19T17:43:28.000Z</time>
      </trkpt>
      <trkpt lat="48.60656" lon="7.18776">
        <ele>584.83</ele>
        <time>2020-08-19T17:43:29.000Z</time>
      </trkpt>
      <trkpt lat="48.60664" lon="7.18777">
        <ele>585.1</ele>
        <time>2020-08-19T17:43:30.000Z</time>
      </trkpt>
      <trkpt lat="48.60671" lon="7.18777">
        <ele>584.58</ele>
        <time>2020-08-19T17:43:31.000Z</time>
      </trkpt>
      <trkpt lat="48.60679" lon="7.18776">
        <ele>585.7</ele>
        <time>2020-08-19T17:43:32.000Z</time>
      </trkpt>
      <trkpt lat="48.60687" lon="7.18773">
        <ele>586.04</ele>
        <time>2020-08-19T17:43:33.000Z</time>
      </trkpt>
      <trkpt lat="48.60694" lon="7.18767">
        <ele>585.64</ele>
        <time>2020-08-19T17:43:34.000Z</time>
      </trkpt>
      <trkpt lat="48.60699" lon="7.1876">
        <ele>584.92</ele>
        <time>2020-08-19T17:43:35.000Z</time>
      </trkpt>
      <trkpt lat="48.60702" lon="7.18751">
        <ele>585.26</ele>
        <time>2020-08-19T17:43:36.000Z</time>
      </trkpt>
      <trkpt lat="48.60705" lon="7.18739">
        <ele>584.83</ele>
        <time>2020-08-19T17:43:37.000Z</time>
      </trkpt>
      <trkpt lat="48.60707" lon="7.18727">
        <ele>585.29</ele>
        <time>2020-08-19T17:43:38.000Z</time>
      </trkpt>
      <trkpt lat="48.60709" lon="7.18714">
        <ele>586.01</ele>
        <time>2020-08-19T17:43:39.000Z</time>
      </trkpt>
      <trkpt lat="48.60712" lon="7.18703">
        <ele>584.83</ele>
        <time>2020-08-19T17:43:40.000Z</time>
      </trkpt>
      <trkpt lat="48.60713" lon="7.18689">
        <ele>585.34</ele>
        <time>2020-08-19T17:43:41.000Z</time>
      </trkpt>
      <trkpt lat="48.60713" lon="7.18676">
        <ele>585.12</ele>
        <time>2020-08-19T17:43:42.000Z</time>
      </trkpt>
      <trkpt lat="48.60715" lon="7.18661">
        <ele>587.21</ele>
        <time>2020-08-19T17:43:43.000Z</time>
      </trkpt>
      <trkpt lat="48.60716" lon="7.18648">
        <ele>587.44</ele>
        <time>2020-08-19T17:43:44.000Z</time>
      </trkpt>
      <trkpt lat="48.60717" lon="7.18636">
        <ele>586.79</ele>
        <time>2020-08-19T17:43:45.000Z</time>
      </trkpt>
      <trkpt lat="48.60717" lon="7.18621">
        <ele>585.08</ele>
        <time>2020-08-19T17:43:46.000Z</time>
      </trkpt>
      <trkpt lat="48.60718" lon="7.18608">
        <ele>585.66</ele>
        <time>2020-08-19T17:43:47.000Z</time>
      </trkpt>
      <trkpt lat="48.60719" lon="7.18594">
        <ele>584.36</ele>
        <time>2020-08-19T17:43:48.000Z</time>
      </trkpt>
      <trkpt lat="48.60721" lon="7.18581">
        <ele>583.77</ele>
        <time>2020-08-19T17:43:49.000Z</time>
      </trkpt>
      <trkpt lat="48.60721" lon="7.18568">
        <ele>583.86</ele>
        <time>2020-08-19T17:43:50.000Z</time>
      </trkpt>
      <trkpt lat="48.60722" lon="7.18555">
        <ele>583.78</ele>
        <time>2020-08-19T17:43:51.000Z</time>
      </trkpt>
      <trkpt lat="48.60724" lon="7.18543">
        <ele>583.72</ele>
        <time>2020-08-19T17:43:52.000Z</time>
      </trkpt>
      <trkpt lat="48.60726" lon="7.1853">
        <ele>583.59</ele>
        <time>2020-08-19T17:43:53.000Z</time>
      </trkpt>
      <trkpt lat="48.60729" lon="7.18518">
        <ele>583.68</ele>
        <time>2020-08-19T17:43:54.000Z</time>
      </trkpt>
      <trkpt lat="48.60732" lon="7.18506">
        <ele>584.1</ele>
        <time>2020-08-19T17:43:55.000Z</time>
      </trkpt>
      <trkpt lat="48.60735" lon="7.18494">
        <ele>583.14</ele>
        <time>2020-08-19T17:43:56.000Z</time>
      </trkpt>
      <trkpt lat="48.60738" lon="7.18482">
        <ele>583.25</ele>
        <time>2020-08-19T17:43:57.000Z</time>
      </trkpt>
      <trkpt lat="48.60741" lon="7.1847">
        <ele>582.52</ele>
        <time>2020-08-19T17:43:58.000Z</time>
      </trkpt>
      <trkpt lat="48.60745" lon="7.18458">
        <ele>581.82</ele>
        <time>2020-08-19T17:43:59.000Z</time>
      </trkpt>
      <trkpt lat="48.60749" lon="7.18447">
        <ele>581.63</ele>
        <time>2020-08-19T17:44:00.000Z</time>
      </trkpt>
      <trkpt lat="48.60754" lon="7.18436">
        <ele>580.9</ele>
        <time>2020-08-19T17:44:01.000Z</time>
      </trkpt>
      <trkpt lat="48.60759" lon="7.18427">
        <ele>580.66</ele>
        <time>2020-08-19T17:44:02.000Z</time>
      </trkpt>
      <trkpt lat="48.60764" lon="7.18418">
        <ele>580.38</ele>
        <time>2020-08-19T17:44:03.000Z</time>
      </trkpt>
      <trkpt lat="48.60769" lon="7.18408">
        <ele>579.94</ele>
        <time>2020-08-19T17:44:04.000Z</time>
      </trkpt>
      <trkpt lat="48.60775" lon="7.18398">
        <ele>578.78</ele>
        <time>2020-08-19T17:44:05.000Z</time>
      </trkpt>
      <trkpt lat="48.6078" lon="7.18387">
        <ele>577.72</ele>
        <time>2020-08-19T17:44:06.000Z</time>
      </trkpt>
      <trkpt lat="48.60784" lon="7.18379">
        <ele>576.88</ele>
        <time>2020-08-19T17:44:07.000Z</time>
      </trkpt>
      <trkpt lat="48.6079" lon="7.18373">
        <ele>575.94</ele>
        <time>2020-08-19T17:44:08.000Z</time>
      </trkpt>
      <trkpt lat="48.60795" lon="7.18362">
        <ele>575.69</ele>
        <time>2020-08-19T17:44:09.000Z</time>
      </trkpt>
      <trkpt lat="48.608" lon="7.18353">
        <ele>574.75</ele>
        <time>2020-08-19T17:44:10.000Z</time>
      </trkpt>
      <trkpt lat="48.60805" lon="7.18344">
        <ele>573.72</ele>
        <time>2020-08-19T17:44:11.000Z</time>
      </trkpt>
      <trkpt lat="48.60812" lon="7.18339">
        <ele>572.82</ele>
        <time>2020-08-19T17:44:12.000Z</time>
      </trkpt>
      <trkpt lat="48.60819" lon="7.18333">
        <ele>571</ele>
        <time>2020-08-19T17:44:13.000Z</time>
      </trkpt>
      <trkpt lat="48.60826" lon="7.1833">
        <ele>570.31</ele>
        <time>2020-08-19T17:44:14.000Z</time>
      </trkpt>
      <trkpt lat="48.60834" lon="7.18329">
        <ele>570.8</ele>
        <time>2020-08-19T17:44:15.000Z</time>
      </trkpt>
      <trkpt lat="48.6084" lon="7.18328">
        <ele>569.89</ele>
        <time>2020-08-19T17:44:16.000Z</time>
      </trkpt>
      <trkpt lat="48.60845" lon="7.18328">
        <ele>570.1</ele>
        <time>2020-08-19T17:44:17.000Z</time>
      </trkpt>
      <trkpt lat="48.6085" lon="7.18328">
        <ele>569.54</ele>
        <time>2020-08-19T17:44:38.000Z</time>
      </trkpt>
      <trkpt lat="48.60856" lon="7.18328">
        <ele>566.44</ele>
        <time>2020-08-19T17:44:40.000Z</time>
      </trkpt>
      <trkpt lat="48.60864" lon="7.18332">
        <ele>566.09</ele>
        <time>2020-08-19T17:44:42.000Z</time>
      </trkpt>
      <trkpt lat="48.60868" lon="7.18334">
        <ele>566.35</ele>
        <time>2020-08-19T17:44:43.000Z</time>
      </trkpt>
      <trkpt lat="48.60873" lon="7.18337">
        <ele>566.18</ele>
        <time>2020-08-19T17:44:44.000Z</time>
      </trkpt>
      <trkpt lat="48.60877" lon="7.1834">
        <ele>565.69</ele>
        <time>2020-08-19T17:44:45.000Z</time>
      </trkpt>
      <trkpt lat="48.60881" lon="7.18342">
        <ele>565.75</ele>
        <time>2020-08-19T17:44:46.000Z</time>
      </trkpt>
      <trkpt lat="48.60887" lon="7.1835">
        <ele>565.22</ele>
        <time>2020-08-19T17:44:48.000Z</time>
      </trkpt>
      <trkpt lat="48.60894" lon="7.18356">
        <ele>566.03</ele>
        <time>2020-08-19T17:44:50.000Z</time>
      </trkpt>
      <trkpt lat="48.60899" lon="7.1836">
        <ele>566.45</ele>
        <time>2020-08-19T17:44:52.000Z</time>
      </trkpt>
      <trkpt lat="48.60901" lon="7.18366">
        <ele>567.67</ele>
        <time>2020-08-19T17:45:11.000Z</time>
      </trkpt>
      <trkpt lat="48.60906" lon="7.18374">
        <ele>569.77</ele>
        <time>2020-08-19T17:45:14.000Z</time>
      </trkpt>
      <trkpt lat="48.6091" lon="7.18381">
        <ele>566.84</ele>
        <time>2020-08-19T17:45:17.000Z</time>
      </trkpt>
      <trkpt lat="48.60921" lon="7.18395">
        <ele>564.08</ele>
        <time>2020-08-19T17:45:20.000Z</time>
      </trkpt>
      <trkpt lat="48.60926" lon="7.18399">
        <ele>557.94</ele>
        <time>2020-08-19T17:45:37.000Z</time>
      </trkpt>
      <trkpt lat="48.60931" lon="7.18402">
        <ele>557.93</ele>
        <time>2020-08-19T17:45:38.000Z</time>
      </trkpt>
      <trkpt lat="48.60935" lon="7.18414">
        <ele>558.69</ele>
        <time>2020-08-19T17:45:40.000Z</time>
      </trkpt>
      <trkpt lat="48.60935" lon="7.18421">
        <ele>558.18</ele>
        <time>2020-08-19T17:45:41.000Z</time>
      </trkpt>
      <trkpt lat="48.60938" lon="7.18427">
        <ele>558.67</ele>
        <time>2020-08-19T17:45:42.000Z</time>
      </trkpt>
      <trkpt lat="48.60941" lon="7.18437">
        <ele>557.93</ele>
        <time>2020-08-19T17:45:44.000Z</time>
      </trkpt>
      <trkpt lat="48.60946" lon="7.18442">
        <ele>556.59</ele>
        <time>2020-08-19T17:45:45.000Z</time>
      </trkpt>
      <trkpt lat="48.60951" lon="7.18446">
        <ele>556.23</ele>
        <time>2020-08-19T17:45:46.000Z</time>
      </trkpt>
      <trkpt lat="48.60957" lon="7.18452">
        <ele>557.14</ele>
        <time>2020-08-19T17:45:48.000Z</time>
      </trkpt>
      <trkpt lat="48.60964" lon="7.18458">
        <ele>560.61</ele>
        <time>2020-08-19T17:45:50.000Z</time>
      </trkpt>
      <trkpt lat="48.60968" lon="7.18462">
        <ele>561.26</ele>
        <time>2020-08-19T17:45:51.000Z</time>
      </trkpt>
      <trkpt lat="48.60973" lon="7.18465">
        <ele>560.66</ele>
        <time>2020-08-19T17:45:52.000Z</time>
      </trkpt>
      <trkpt lat="48.60978" lon="7.1847">
        <ele>560.91</ele>
        <time>2020-08-19T17:45:53.000Z</time>
      </trkpt>
      <trkpt lat="48.60984" lon="7.18475">
        <ele>560.37</ele>
        <time>2020-08-19T17:45:54.000Z</time>
      </trkpt>
      <trkpt lat="48.60989" lon="7.18481">
        <ele>557.82</ele>
        <time>2020-08-19T17:45:55.000Z</time>
      </trkpt>
      <trkpt lat="48.60993" lon="7.18483">
        <ele>557.59</ele>
        <time>2020-08-19T17:45:56.000Z</time>
      </trkpt>
      <trkpt lat="48.60999" lon="7.18488">
        <ele>555.87</ele>
        <time>2020-08-19T17:45:58.000Z</time>
      </trkpt>
      <trkpt lat="48.61005" lon="7.18492">
        <ele>555.71</ele>
        <time>2020-08-19T17:46:00.000Z</time>
      </trkpt>
      <trkpt lat="48.6101" lon="7.185">
        <ele>556.36</ele>
        <time>2020-08-19T17:46:02.000Z</time>
      </trkpt>
      <trkpt lat="48.61015" lon="7.18503">
        <ele>555.19</ele>
        <time>2020-08-19T17:46:03.000Z</time>
      </trkpt>
      <trkpt lat="48.61021" lon="7.18507">
        <ele>554.56</ele>
        <time>2020-08-19T17:46:04.000Z</time>
      </trkpt>
      <trkpt lat="48.61027" lon="7.18511">
        <ele>555.03</ele>
        <time>2020-08-19T17:46:05.000Z</time>
      </trkpt>
      <trkpt lat="48.61034" lon="7.18515">
        <ele>554.77</ele>
        <time>2020-08-19T17:46:06.000Z</time>
      </trkpt>
      <trkpt lat="48.6104" lon="7.18519">
        <ele>556.97</ele>
        <time>2020-08-19T17:46:07.000Z</time>
      </trkpt>
      <trkpt lat="48.61046" lon="7.18521">
        <ele>554.26</ele>
        <time>2020-08-19T17:46:08.000Z</time>
      </trkpt>
      <trkpt lat="48.61051" lon="7.18523">
        <ele>553.9</ele>
        <time>2020-08-19T17:46:09.000Z</time>
      </trkpt>
      <trkpt lat="48.61062" lon="7.18528">
        <ele>554.18</ele>
        <time>2020-08-19T17:46:11.000Z</time>
      </trkpt>
      <trkpt lat="48.61068" lon="7.18535">
        <ele>553.41</ele>
        <time>2020-08-19T17:46:13.000Z</time>
      </trkpt>
      <trkpt lat="48.61076" lon="7.18539">
        <ele>553.69</ele>
        <time>2020-08-19T17:46:15.000Z</time>
      </trkpt>
      <trkpt lat="48.61082" lon="7.18543">
        <ele>555.51</ele>
        <time>2020-08-19T17:46:16.000Z</time>
      </trkpt>
      <trkpt lat="48.61098" lon="7.18543">
        <ele>557.16</ele>
        <time>2020-08-19T17:46:19.000Z</time>
      </trkpt>
      <trkpt lat="48.61104" lon="7.18543">
        <ele>557.03</ele>
        <time>2020-08-19T17:46:20.000Z</time>
      </trkpt>
      <trkpt lat="48.61108" lon="7.18542">
        <ele>555.46</ele>
        <time>2020-08-19T17:46:21.000Z</time>
      </trkpt>
      <trkpt lat="48.61113" lon="7.1854">
        <ele>556.11</ele>
        <time>2020-08-19T17:46:22.000Z</time>
      </trkpt>
      <trkpt lat="48.6112" lon="7.18539">
        <ele>557.52</ele>
        <time>2020-08-19T17:46:23.000Z</time>
      </trkpt>
      <trkpt lat="48.61125" lon="7.18537">
        <ele>557.8</ele>
        <time>2020-08-19T17:46:24.000Z</time>
      </trkpt>
      <trkpt lat="48.61132" lon="7.18536">
        <ele>558</ele>
        <time>2020-08-19T17:46:25.000Z</time>
      </trkpt>
      <trkpt lat="48.61148" lon="7.1854">
        <ele>551.07</ele>
        <time>2020-08-19T17:46:27.000Z</time>
      </trkpt>
      <trkpt lat="48.61158" lon="7.18547">
        <ele>546.23</ele>
        <time>2020-08-19T17:46:29.000Z</time>
      </trkpt>
      <trkpt lat="48.61165" lon="7.1855">
        <ele>544.37</ele>
        <time>2020-08-19T17:46:30.000Z</time>
      </trkpt>
      <trkpt lat="48.61173" lon="7.18556">
        <ele>542.59</ele>
        <time>2020-08-19T17:46:32.000Z</time>
      </trkpt>
      <trkpt lat="48.61179" lon="7.18561">
        <ele>543.32</ele>
        <time>2020-08-19T17:46:33.000Z</time>
      </trkpt>
      <trkpt lat="48.61185" lon="7.18566">
        <ele>544.36</ele>
        <time>2020-08-19T17:46:34.000Z</time>
      </trkpt>
      <trkpt lat="48.61191" lon="7.18576">
        <ele>543.71</ele>
        <time>2020-08-19T17:46:36.000Z</time>
      </trkpt>
      <trkpt lat="48.61195" lon="7.18582">
        <ele>543.01</ele>
        <time>2020-08-19T17:46:37.000Z</time>
      </trkpt>
      <trkpt lat="48.61199" lon="7.18589">
        <ele>542.11</ele>
        <time>2020-08-19T17:46:38.000Z</time>
      </trkpt>
      <trkpt lat="48.61204" lon="7.18593">
        <ele>540.6</ele>
        <time>2020-08-19T17:46:39.000Z</time>
      </trkpt>
      <trkpt lat="48.61208" lon="7.18597">
        <ele>539.07</ele>
        <time>2020-08-19T17:46:40.000Z</time>
      </trkpt>
      <trkpt lat="48.61212" lon="7.18603">
        <ele>538.34</ele>
        <time>2020-08-19T17:46:41.000Z</time>
      </trkpt>
      <trkpt lat="48.61217" lon="7.18607">
        <ele>538.35</ele>
        <time>2020-08-19T17:46:42.000Z</time>
      </trkpt>
      <trkpt lat="48.61225" lon="7.18615">
        <ele>538.73</ele>
        <time>2020-08-19T17:46:44.000Z</time>
      </trkpt>
      <trkpt lat="48.6123" lon="7.18621">
        <ele>538.37</ele>
        <time>2020-08-19T17:46:45.000Z</time>
      </trkpt>
      <trkpt lat="48.61233" lon="7.18626">
        <ele>537.68</ele>
        <time>2020-08-19T17:46:46.000Z</time>
      </trkpt>
      <trkpt lat="48.61237" lon="7.18631">
        <ele>537.02</ele>
        <time>2020-08-19T17:46:47.000Z</time>
      </trkpt>
      <trkpt lat="48.61241" lon="7.18637">
        <ele>536.83</ele>
        <time>2020-08-19T17:46:48.000Z</time>
      </trkpt>
      <trkpt lat="48.61245" lon="7.18642">
        <ele>534.88</ele>
        <time>2020-08-19T17:46:49.000Z</time>
      </trkpt>
      <trkpt lat="48.6125" lon="7.1865">
        <ele>533.76</ele>
        <time>2020-08-19T17:46:50.000Z</time>
      </trkpt>
      <trkpt lat="48.61255" lon="7.18657">
        <ele>532.86</ele>
        <time>2020-08-19T17:46:51.000Z</time>
      </trkpt>
      <trkpt lat="48.61258" lon="7.18662">
        <ele>533.55</ele>
        <time>2020-08-19T17:46:52.000Z</time>
      </trkpt>
      <trkpt lat="48.61264" lon="7.1867">
        <ele>534.22</ele>
        <time>2020-08-19T17:46:54.000Z</time>
      </trkpt>
      <trkpt lat="48.61269" lon="7.1868">
        <ele>534.22</ele>
        <time>2020-08-19T17:46:56.000Z</time>
      </trkpt>
      <trkpt lat="48.61276" lon="7.18682">
        <ele>530.9</ele>
        <time>2020-08-19T17:46:57.000Z</time>
      </trkpt>
      <trkpt lat="48.61281" lon="7.18685">
        <ele>531.56</ele>
        <time>2020-08-19T17:46:58.000Z</time>
      </trkpt>
      <trkpt lat="48.61285" lon="7.1869">
        <ele>529.83</ele>
        <time>2020-08-19T17:46:59.000Z</time>
      </trkpt>
      <trkpt lat="48.61291" lon="7.18695">
        <ele>528.47</ele>
        <time>2020-08-19T17:47:01.000Z</time>
      </trkpt>
      <trkpt lat="48.61295" lon="7.18701">
        <ele>527.2</ele>
        <time>2020-08-19T17:47:02.000Z</time>
      </trkpt>
      <trkpt lat="48.61301" lon="7.18705">
        <ele>525.36</ele>
        <time>2020-08-19T17:47:03.000Z</time>
      </trkpt>
      <trkpt lat="48.61311" lon="7.1871">
        <ele>524.96</ele>
        <time>2020-08-19T17:47:05.000Z</time>
      </trkpt>
      <trkpt lat="48.61318" lon="7.18713">
        <ele>524.57</ele>
        <time>2020-08-19T17:47:06.000Z</time>
      </trkpt>
      <trkpt lat="48.61323" lon="7.18718">
        <ele>523.86</ele>
        <time>2020-08-19T17:47:07.000Z</time>
      </trkpt>
      <trkpt lat="48.6133" lon="7.18721">
        <ele>523.06</ele>
        <time>2020-08-19T17:47:08.000Z</time>
      </trkpt>
      <trkpt lat="48.61337" lon="7.18724">
        <ele>522.24</ele>
        <time>2020-08-19T17:47:09.000Z</time>
      </trkpt>
      <trkpt lat="48.61342" lon="7.18727">
        <ele>521.42</ele>
        <time>2020-08-19T17:47:10.000Z</time>
      </trkpt>
      <trkpt lat="48.61348" lon="7.1873">
        <ele>521.09</ele>
        <time>2020-08-19T17:47:11.000Z</time>
      </trkpt>
      <trkpt lat="48.61354" lon="7.18732">
        <ele>521.05</ele>
        <time>2020-08-19T17:47:12.000Z</time>
      </trkpt>
      <trkpt lat="48.6136" lon="7.18732">
        <ele>533.22</ele>
        <time>2020-08-19T17:47:13.000Z</time>
      </trkpt>
      <trkpt lat="48.61367" lon="7.18733">
        <ele>530.23</ele>
        <time>2020-08-19T17:47:14.000Z</time>
      </trkpt>
      <trkpt lat="48.61374" lon="7.18736">
        <ele>433.91</ele>
        <time>2020-08-19T17:47:15.000Z</time>
      </trkpt>
      <trkpt lat="48.61378" lon="7.18739">
        <ele>453.83</ele>
        <time>2020-08-19T17:47:16.000Z</time>
      </trkpt>
      <trkpt lat="48.61384" lon="7.18745">
        <ele>463.7</ele>
        <time>2020-08-19T17:47:17.000Z</time>
      </trkpt>
      <trkpt lat="48.61411" lon="7.18746">
        <ele>479.03</ele>
        <time>2020-08-19T17:47:20.000Z</time>
      </trkpt>
      <trkpt lat="48.61415" lon="7.1875">
        <ele>482.16</ele>
        <time>2020-08-19T17:47:21.000Z</time>
      </trkpt>
      <trkpt lat="48.61429" lon="7.18757">
        <ele>489.28</ele>
        <time>2020-08-19T17:47:23.000Z</time>
      </trkpt>
      <trkpt lat="48.61434" lon="7.18758">
        <ele>490.6</ele>
        <time>2020-08-19T17:47:24.000Z</time>
      </trkpt>
      <trkpt lat="48.61436" lon="7.18766">
        <ele>493.29</ele>
        <time>2020-08-19T17:47:25.000Z</time>
      </trkpt>
      <trkpt lat="48.61444" lon="7.18766">
        <ele>496.94</ele>
        <time>2020-08-19T17:47:26.000Z</time>
      </trkpt>
      <trkpt lat="48.61449" lon="7.18768">
        <ele>498.98</ele>
        <time>2020-08-19T17:47:27.000Z</time>
      </trkpt>
      <trkpt lat="48.61455" lon="7.18767">
        <ele>501.11</ele>
        <time>2020-08-19T17:47:28.000Z</time>
      </trkpt>
      <trkpt lat="48.61462" lon="7.18768">
        <ele>503.94</ele>
        <time>2020-08-19T17:47:29.000Z</time>
      </trkpt>
      <trkpt lat="48.61469" lon="7.18767">
        <ele>507.24</ele>
        <time>2020-08-19T17:47:30.000Z</time>
      </trkpt>
      <trkpt lat="48.61476" lon="7.18767">
        <ele>506.8</ele>
        <time>2020-08-19T17:47:31.000Z</time>
      </trkpt>
      <trkpt lat="48.61481" lon="7.18771">
        <ele>508.82</ele>
        <time>2020-08-19T17:47:32.000Z</time>
      </trkpt>
      <trkpt lat="48.61487" lon="7.1877">
        <ele>513.72</ele>
        <time>2020-08-19T17:47:33.000Z</time>
      </trkpt>
      <trkpt lat="48.61495" lon="7.1877">
        <ele>513.54</ele>
        <time>2020-08-19T17:47:34.000Z</time>
      </trkpt>
      <trkpt lat="48.615" lon="7.1877">
        <ele>515.3</ele>
        <time>2020-08-19T17:47:35.000Z</time>
      </trkpt>
      <trkpt lat="48.61506" lon="7.1877">
        <ele>512.53</ele>
        <time>2020-08-19T17:47:36.000Z</time>
      </trkpt>
      <trkpt lat="48.61511" lon="7.18768">
        <ele>512.93</ele>
        <time>2020-08-19T17:47:37.000Z</time>
      </trkpt>
      <trkpt lat="48.61517" lon="7.18763">
        <ele>516.14</ele>
        <time>2020-08-19T17:47:38.000Z</time>
      </trkpt>
      <trkpt lat="48.61523" lon="7.18762">
        <ele>516.7</ele>
        <time>2020-08-19T17:47:40.000Z</time>
      </trkpt>
      <trkpt lat="48.6153" lon="7.1876">
        <ele>515.83</ele>
        <time>2020-08-19T17:47:52.000Z</time>
      </trkpt>
      <trkpt lat="48.61534" lon="7.18756">
        <ele>517.24</ele>
        <time>2020-08-19T17:47:53.000Z</time>
      </trkpt>
      <trkpt lat="48.61542" lon="7.18749">
        <ele>517.69</ele>
        <time>2020-08-19T17:47:55.000Z</time>
      </trkpt>
      <trkpt lat="48.61548" lon="7.18741">
        <ele>517.89</ele>
        <time>2020-08-19T17:47:57.000Z</time>
      </trkpt>
      <trkpt lat="48.61551" lon="7.18732">
        <ele>517.31</ele>
        <time>2020-08-19T17:47:59.000Z</time>
      </trkpt>
      <trkpt lat="48.61556" lon="7.18718">
        <ele>518.61</ele>
        <time>2020-08-19T17:48:01.000Z</time>
      </trkpt>
      <trkpt lat="48.61559" lon="7.18708">
        <ele>517.97</ele>
        <time>2020-08-19T17:48:03.000Z</time>
      </trkpt>
      <trkpt lat="48.61561" lon="7.18697">
        <ele>517.38</ele>
        <time>2020-08-19T17:48:05.000Z</time>
      </trkpt>
      <trkpt lat="48.61561" lon="7.1869">
        <ele>518.76</ele>
        <time>2020-08-19T17:48:06.000Z</time>
      </trkpt>
      <trkpt lat="48.61564" lon="7.18682">
        <ele>518.71</ele>
        <time>2020-08-19T17:48:07.000Z</time>
      </trkpt>
      <trkpt lat="48.61564" lon="7.18664">
        <ele>518.27</ele>
        <time>2020-08-19T17:48:09.000Z</time>
      </trkpt>
      <trkpt lat="48.61562" lon="7.18654">
        <ele>517.44</ele>
        <time>2020-08-19T17:48:10.000Z</time>
      </trkpt>
      <trkpt lat="48.61564" lon="7.18645">
        <ele>518.55</ele>
        <time>2020-08-19T17:48:11.000Z</time>
      </trkpt>
      <trkpt lat="48.61564" lon="7.18637">
        <ele>517.88</ele>
        <time>2020-08-19T17:48:12.000Z</time>
      </trkpt>
      <trkpt lat="48.61564" lon="7.1863">
        <ele>515.6</ele>
        <time>2020-08-19T17:48:13.000Z</time>
      </trkpt>
      <trkpt lat="48.61564" lon="7.18619">
        <ele>516.56</ele>
        <time>2020-08-19T17:48:14.000Z</time>
      </trkpt>
      <trkpt lat="48.61561" lon="7.18607">
        <ele>517.9</ele>
        <time>2020-08-19T17:48:15.000Z</time>
      </trkpt>
      <trkpt lat="48.6156" lon="7.18599">
        <ele>518.28</ele>
        <time>2020-08-19T17:48:16.000Z</time>
      </trkpt>
      <trkpt lat="48.61559" lon="7.18591">
        <ele>518.42</ele>
        <time>2020-08-19T17:48:17.000Z</time>
      </trkpt>
      <trkpt lat="48.61551" lon="7.18566">
        <ele>521.85</ele>
        <time>2020-08-19T17:48:20.000Z</time>
      </trkpt>
      <trkpt lat="48.61547" lon="7.18557">
        <ele>521.92</ele>
        <time>2020-08-19T17:48:21.000Z</time>
      </trkpt>
      <trkpt lat="48.61546" lon="7.18548">
        <ele>523.54</ele>
        <time>2020-08-19T17:48:22.000Z</time>
      </trkpt>
      <trkpt lat="48.61543" lon="7.18537">
        <ele>521.26</ele>
        <time>2020-08-19T17:48:23.000Z</time>
      </trkpt>
      <trkpt lat="48.61542" lon="7.18527">
        <ele>520.6</ele>
        <time>2020-08-19T17:48:24.000Z</time>
      </trkpt>
      <trkpt lat="48.61535" lon="7.18512">
        <ele>519.9</ele>
        <time>2020-08-19T17:48:26.000Z</time>
      </trkpt>
      <trkpt lat="48.61533" lon="7.18504">
        <ele>520.5</ele>
        <time>2020-08-19T17:48:27.000Z</time>
      </trkpt>
      <trkpt lat="48.61529" lon="7.18496">
        <ele>521.45</ele>
        <time>2020-08-19T17:48:28.000Z</time>
      </trkpt>
      <trkpt lat="48.61526" lon="7.18486">
        <ele>520.39</ele>
        <time>2020-08-19T17:48:29.000Z</time>
      </trkpt>
      <trkpt lat="48.61521" lon="7.18477">
        <ele>522.11</ele>
        <time>2020-08-19T17:48:30.000Z</time>
      </trkpt>
      <trkpt lat="48.61517" lon="7.18472">
        <ele>522.54</ele>
        <time>2020-08-19T17:48:31.000Z</time>
      </trkpt>
      <trkpt lat="48.61514" lon="7.18463">
        <ele>522.21</ele>
        <time>2020-08-19T17:48:32.000Z</time>
      </trkpt>
      <trkpt lat="48.6151" lon="7.18456">
        <ele>521.8</ele>
        <time>2020-08-19T17:48:33.000Z</time>
      </trkpt>
      <trkpt lat="48.61507" lon="7.18449">
        <ele>522</ele>
        <time>2020-08-19T17:48:34.000Z</time>
      </trkpt>
      <trkpt lat="48.61506" lon="7.18441">
        <ele>520.6</ele>
        <time>2020-08-19T17:48:35.000Z</time>
      </trkpt>
      <trkpt lat="48.61505" lon="7.18433">
        <ele>521.58</ele>
        <time>2020-08-19T17:48:36.000Z</time>
      </trkpt>
      <trkpt lat="48.61504" lon="7.18426">
        <ele>520.93</ele>
        <time>2020-08-19T17:48:37.000Z</time>
      </trkpt>
      <trkpt lat="48.61504" lon="7.18418">
        <ele>519.61</ele>
        <time>2020-08-19T17:48:38.000Z</time>
      </trkpt>
      <trkpt lat="48.61504" lon="7.1841">
        <ele>519</ele>
        <time>2020-08-19T17:48:39.000Z</time>
      </trkpt>
      <trkpt lat="48.61502" lon="7.18401">
        <ele>523.63</ele>
        <time>2020-08-19T17:48:40.000Z</time>
      </trkpt>
      <trkpt lat="48.61504" lon="7.18393">
        <ele>525.47</ele>
        <time>2020-08-19T17:48:41.000Z</time>
      </trkpt>
      <trkpt lat="48.61506" lon="7.18387">
        <ele>526.43</ele>
        <time>2020-08-19T17:48:42.000Z</time>
      </trkpt>
      <trkpt lat="48.6151" lon="7.18383">
        <ele>526.53</ele>
        <time>2020-08-19T17:48:43.000Z</time>
      </trkpt>
      <trkpt lat="48.61515" lon="7.18384">
        <ele>526.26</ele>
        <time>2020-08-19T17:48:44.000Z</time>
      </trkpt>
      <trkpt lat="48.6152" lon="7.18382">
        <ele>527.32</ele>
        <time>2020-08-19T17:48:45.000Z</time>
      </trkpt>
      <trkpt lat="48.61528" lon="7.18382">
        <ele>527.44</ele>
        <time>2020-08-19T17:48:46.000Z</time>
      </trkpt>
      <trkpt lat="48.61532" lon="7.1838">
        <ele>525.35</ele>
        <time>2020-08-19T17:48:47.000Z</time>
      </trkpt>
      <trkpt lat="48.61539" lon="7.18379">
        <ele>527.11</ele>
        <time>2020-08-19T17:48:48.000Z</time>
      </trkpt>
      <trkpt lat="48.61545" lon="7.1838">
        <ele>527.14</ele>
        <time>2020-08-19T17:48:49.000Z</time>
      </trkpt>
      <trkpt lat="48.61552" lon="7.18379">
        <ele>526.93</ele>
        <time>2020-08-19T17:48:50.000Z</time>
      </trkpt>
      <trkpt lat="48.6156" lon="7.18378">
        <ele>526.07</ele>
        <time>2020-08-19T17:48:51.000Z</time>
      </trkpt>
      <trkpt lat="48.61567" lon="7.18379">
        <ele>525.71</ele>
        <time>2020-08-19T17:48:52.000Z</time>
      </trkpt>
      <trkpt lat="48.61574" lon="7.1838">
        <ele>526.09</ele>
        <time>2020-08-19T17:48:53.000Z</time>
      </trkpt>
      <trkpt lat="48.61582" lon="7.1838">
        <ele>528.14</ele>
        <time>2020-08-19T17:48:54.000Z</time>
      </trkpt>
      <trkpt lat="48.61587" lon="7.18383">
        <ele>527.26</ele>
        <time>2020-08-19T17:48:55.000Z</time>
      </trkpt>
      <trkpt lat="48.61593" lon="7.18384">
        <ele>526.52</ele>
        <time>2020-08-19T17:48:56.000Z</time>
      </trkpt>
      <trkpt lat="48.616" lon="7.18385">
        <ele>526.45</ele>
        <time>2020-08-19T17:48:57.000Z</time>
      </trkpt>
      <trkpt lat="48.61606" lon="7.18387">
        <ele>526.34</ele>
        <time>2020-08-19T17:48:58.000Z</time>
      </trkpt>
      <trkpt lat="48.61613" lon="7.18388">
        <ele>529.95</ele>
        <time>2020-08-19T17:48:59.000Z</time>
      </trkpt>
      <trkpt lat="48.61621" lon="7.1839">
        <ele>527.38</ele>
        <time>2020-08-19T17:49:00.000Z</time>
      </trkpt>
      <trkpt lat="48.61629" lon="7.18393">
        <ele>526.64</ele>
        <time>2020-08-19T17:49:01.000Z</time>
      </trkpt>
      <trkpt lat="48.61637" lon="7.18393">
        <ele>527.85</ele>
        <time>2020-08-19T17:49:02.000Z</time>
      </trkpt>
      <trkpt lat="48.61646" lon="7.18395">
        <ele>527.81</ele>
        <time>2020-08-19T17:49:03.000Z</time>
      </trkpt>
      <trkpt lat="48.61653" lon="7.18398">
        <ele>528.16</ele>
        <time>2020-08-19T17:49:04.000Z</time>
      </trkpt>
      <trkpt lat="48.61661" lon="7.18396">
        <ele>524.54</ele>
        <time>2020-08-19T17:49:05.000Z</time>
      </trkpt>
      <trkpt lat="48.61669" lon="7.18397">
        <ele>523.67</ele>
        <time>2020-08-19T17:49:06.000Z</time>
      </trkpt>
      <trkpt lat="48.61677" lon="7.184">
        <ele>523.31</ele>
        <time>2020-08-19T17:49:07.000Z</time>
      </trkpt>
      <trkpt lat="48.61685" lon="7.18402">
        <ele>522.73</ele>
        <time>2020-08-19T17:49:08.000Z</time>
      </trkpt>
      <trkpt lat="48.61692" lon="7.18404">
        <ele>522.68</ele>
        <time>2020-08-19T17:49:09.000Z</time>
      </trkpt>
      <trkpt lat="48.617" lon="7.18407">
        <ele>522.24</ele>
        <time>2020-08-19T17:49:10.000Z</time>
      </trkpt>
      <trkpt lat="48.61707" lon="7.18407">
        <ele>519.73</ele>
        <time>2020-08-19T17:49:11.000Z</time>
      </trkpt>
      <trkpt lat="48.61718" lon="7.18407">
        <ele>518.29</ele>
        <time>2020-08-19T17:49:12.000Z</time>
      </trkpt>
      <trkpt lat="48.61726" lon="7.18407">
        <ele>517.99</ele>
        <time>2020-08-19T17:49:13.000Z</time>
      </trkpt>
      <trkpt lat="48.61734" lon="7.1841">
        <ele>520.33</ele>
        <time>2020-08-19T17:49:14.000Z</time>
      </trkpt>
      <trkpt lat="48.61739" lon="7.18412">
        <ele>520.57</ele>
        <time>2020-08-19T17:49:15.000Z</time>
      </trkpt>
      <trkpt lat="48.61747" lon="7.18409">
        <ele>519.16</ele>
        <time>2020-08-19T17:49:16.000Z</time>
      </trkpt>
      <trkpt lat="48.61756" lon="7.18408">
        <ele>517.03</ele>
        <time>2020-08-19T17:49:17.000Z</time>
      </trkpt>
      <trkpt lat="48.61761" lon="7.18407">
        <ele>515.86</ele>
        <time>2020-08-19T17:49:18.000Z</time>
      </trkpt>
      <trkpt lat="48.61767" lon="7.18405">
        <ele>514.85</ele>
        <time>2020-08-19T17:49:20.000Z</time>
      </trkpt>
      <trkpt lat="48.61772" lon="7.18401">
        <ele>513.16</ele>
        <time>2020-08-19T17:49:21.000Z</time>
      </trkpt>
      <trkpt lat="48.61776" lon="7.18396">
        <ele>513.75</ele>
        <time>2020-08-19T17:49:22.000Z</time>
      </trkpt>
      <trkpt lat="48.61781" lon="7.18392">
        <ele>514.04</ele>
        <time>2020-08-19T17:49:23.000Z</time>
      </trkpt>
      <trkpt lat="48.61783" lon="7.18382">
        <ele>514.1</ele>
        <time>2020-08-19T17:49:24.000Z</time>
      </trkpt>
      <trkpt lat="48.61786" lon="7.18374">
        <ele>511.23</ele>
        <time>2020-08-19T17:49:25.000Z</time>
      </trkpt>
      <trkpt lat="48.6179" lon="7.1837">
        <ele>511.49</ele>
        <time>2020-08-19T17:49:26.000Z</time>
      </trkpt>
      <trkpt lat="48.61792" lon="7.18362">
        <ele>508.39</ele>
        <time>2020-08-19T17:49:27.000Z</time>
      </trkpt>
      <trkpt lat="48.61793" lon="7.18352">
        <ele>507.95</ele>
        <time>2020-08-19T17:49:28.000Z</time>
      </trkpt>
      <trkpt lat="48.61793" lon="7.18341">
        <ele>506.88</ele>
        <time>2020-08-19T17:49:29.000Z</time>
      </trkpt>
      <trkpt lat="48.61793" lon="7.18333">
        <ele>507.08</ele>
        <time>2020-08-19T17:49:30.000Z</time>
      </trkpt>
      <trkpt lat="48.61793" lon="7.18324">
        <ele>506.53</ele>
        <time>2020-08-19T17:49:31.000Z</time>
      </trkpt>
      <trkpt lat="48.61794" lon="7.18313">
        <ele>506.06</ele>
        <time>2020-08-19T17:49:32.000Z</time>
      </trkpt>
      <trkpt lat="48.61794" lon="7.18303">
        <ele>505.38</ele>
        <time>2020-08-19T17:49:33.000Z</time>
      </trkpt>
      <trkpt lat="48.61793" lon="7.18291">
        <ele>505.2</ele>
        <time>2020-08-19T17:49:34.000Z</time>
      </trkpt>
      <trkpt lat="48.61792" lon="7.18279">
        <ele>506.95</ele>
        <time>2020-08-19T17:49:35.000Z</time>
      </trkpt>
      <trkpt lat="48.61791" lon="7.18266">
        <ele>507.52</ele>
        <time>2020-08-19T17:49:36.000Z</time>
      </trkpt>
      <trkpt lat="48.6179" lon="7.18256">
        <ele>508.08</ele>
        <time>2020-08-19T17:49:37.000Z</time>
      </trkpt>
      <trkpt lat="48.61792" lon="7.18243">
        <ele>507.27</ele>
        <time>2020-08-19T17:49:38.000Z</time>
      </trkpt>
      <trkpt lat="48.61795" lon="7.18233">
        <ele>509.04</ele>
        <time>2020-08-19T17:49:39.000Z</time>
      </trkpt>
      <trkpt lat="48.618" lon="7.18222">
        <ele>508.77</ele>
        <time>2020-08-19T17:49:40.000Z</time>
      </trkpt>
      <trkpt lat="48.61806" lon="7.18217">
        <ele>510.18</ele>
        <time>2020-08-19T17:49:41.000Z</time>
      </trkpt>
      <trkpt lat="48.6181" lon="7.18209">
        <ele>510</ele>
        <time>2020-08-19T17:49:42.000Z</time>
      </trkpt>
      <trkpt lat="48.61814" lon="7.18201">
        <ele>511.05</ele>
        <time>2020-08-19T17:49:43.000Z</time>
      </trkpt>
      <trkpt lat="48.61817" lon="7.18194">
        <ele>417.67</ele>
        <time>2020-08-19T17:49:44.000Z</time>
      </trkpt>
      <trkpt lat="48.61822" lon="7.18189">
        <ele>431.54</ele>
        <time>2020-08-19T17:49:45.000Z</time>
      </trkpt>
      <trkpt lat="48.61828" lon="7.18184">
        <ele>443.89</ele>
        <time>2020-08-19T17:49:46.000Z</time>
      </trkpt>
      <trkpt lat="48.61832" lon="7.18177">
        <ele>455.01</ele>
        <time>2020-08-19T17:49:47.000Z</time>
      </trkpt>
      <trkpt lat="48.61836" lon="7.18171">
        <ele>469.06</ele>
        <time>2020-08-19T17:49:48.000Z</time>
      </trkpt>
      <trkpt lat="48.61843" lon="7.18165">
        <ele>480.06</ele>
        <time>2020-08-19T17:49:49.000Z</time>
      </trkpt>
      <trkpt lat="48.61852" lon="7.18165">
        <ele>486.09</ele>
        <time>2020-08-19T17:49:50.000Z</time>
      </trkpt>
      <trkpt lat="48.61858" lon="7.18161">
        <ele>490.36</ele>
        <time>2020-08-19T17:49:51.000Z</time>
      </trkpt>
      <trkpt lat="48.61864" lon="7.18159">
        <ele>491.97</ele>
        <time>2020-08-19T17:49:52.000Z</time>
      </trkpt>
      <trkpt lat="48.61869" lon="7.18161">
        <ele>487.54</ele>
        <time>2020-08-19T17:49:53.000Z</time>
      </trkpt>
      <trkpt lat="48.61874" lon="7.18159">
        <ele>494.72</ele>
        <time>2020-08-19T17:49:54.000Z</time>
      </trkpt>
      <trkpt lat="48.6188" lon="7.1816">
        <ele>499.88</ele>
        <time>2020-08-19T17:49:55.000Z</time>
      </trkpt>
      <trkpt lat="48.61885" lon="7.18161">
        <ele>506.27</ele>
        <time>2020-08-19T17:49:56.000Z</time>
      </trkpt>
      <trkpt lat="48.61891" lon="7.18159">
        <ele>507.61</ele>
        <time>2020-08-19T17:49:57.000Z</time>
      </trkpt>
      <trkpt lat="48.61897" lon="7.1816">
        <ele>510.54</ele>
        <time>2020-08-19T17:49:58.000Z</time>
      </trkpt>
      <trkpt lat="48.61904" lon="7.18159">
        <ele>510.8</ele>
        <time>2020-08-19T17:49:59.000Z</time>
      </trkpt>
      <trkpt lat="48.6191" lon="7.18158">
        <ele>510.62</ele>
        <time>2020-08-19T17:50:00.000Z</time>
      </trkpt>
      <trkpt lat="48.61916" lon="7.18157">
        <ele>510.01</ele>
        <time>2020-08-19T17:50:01.000Z</time>
      </trkpt>
      <trkpt lat="48.6193" lon="7.18159">
        <ele>510.35</ele>
        <time>2020-08-19T17:50:03.000Z</time>
      </trkpt>
      <trkpt lat="48.61936" lon="7.18158">
        <ele>509.93</ele>
        <time>2020-08-19T17:50:04.000Z</time>
      </trkpt>
      <trkpt lat="48.6194" lon="7.18158">
        <ele>509.88</ele>
        <time>2020-08-19T17:50:05.000Z</time>
      </trkpt>
      <trkpt lat="48.61949" lon="7.18156">
        <ele>507.13</ele>
        <time>2020-08-19T17:50:06.000Z</time>
      </trkpt>
      <trkpt lat="48.61955" lon="7.18155">
        <ele>507.13</ele>
        <time>2020-08-19T17:50:07.000Z</time>
      </trkpt>
      <trkpt lat="48.61966" lon="7.18154">
        <ele>509.54</ele>
        <time>2020-08-19T17:50:09.000Z</time>
      </trkpt>
      <trkpt lat="48.61974" lon="7.18156">
        <ele>510.72</ele>
        <time>2020-08-19T17:50:11.000Z</time>
      </trkpt>
      <trkpt lat="48.61979" lon="7.18154">
        <ele>510.75</ele>
        <time>2020-08-19T17:50:12.000Z</time>
      </trkpt>
      <trkpt lat="48.61984" lon="7.18152">
        <ele>510.17</ele>
        <time>2020-08-19T17:50:13.000Z</time>
      </trkpt>
      <trkpt lat="48.6199" lon="7.18155">
        <ele>511.39</ele>
        <time>2020-08-19T17:50:14.000Z</time>
      </trkpt>
      <trkpt lat="48.61997" lon="7.18158">
        <ele>508.99</ele>
        <time>2020-08-19T17:50:15.000Z</time>
      </trkpt>
      <trkpt lat="48.62011" lon="7.18158">
        <ele>508.89</ele>
        <time>2020-08-19T17:50:17.000Z</time>
      </trkpt>
      <trkpt lat="48.62017" lon="7.18158">
        <ele>507.65</ele>
        <time>2020-08-19T17:50:18.000Z</time>
      </trkpt>
      <trkpt lat="48.62022" lon="7.18153">
        <ele>507.52</ele>
        <time>2020-08-19T17:50:19.000Z</time>
      </trkpt>
      <trkpt lat="48.62027" lon="7.18148">
        <ele>509.38</ele>
        <time>2020-08-19T17:50:20.000Z</time>
      </trkpt>
      <trkpt lat="48.62041" lon="7.18141">
        <ele>511.74</ele>
        <time>2020-08-19T17:50:22.000Z</time>
      </trkpt>
      <trkpt lat="48.62046" lon="7.18136">
        <ele>512.73</ele>
        <time>2020-08-19T17:50:23.000Z</time>
      </trkpt>
      <trkpt lat="48.62052" lon="7.18131">
        <ele>514.21</ele>
        <time>2020-08-19T17:50:24.000Z</time>
      </trkpt>
      <trkpt lat="48.62057" lon="7.18126">
        <ele>516.41</ele>
        <time>2020-08-19T17:50:25.000Z</time>
      </trkpt>
      <trkpt lat="48.62062" lon="7.1812">
        <ele>516.84</ele>
        <time>2020-08-19T17:50:26.000Z</time>
      </trkpt>
      <trkpt lat="48.62067" lon="7.18114">
        <ele>517.15</ele>
        <time>2020-08-19T17:50:27.000Z</time>
      </trkpt>
      <trkpt lat="48.62071" lon="7.18109">
        <ele>516.79</ele>
        <time>2020-08-19T17:50:28.000Z</time>
      </trkpt>
      <trkpt lat="48.62076" lon="7.18105">
        <ele>516.5</ele>
        <time>2020-08-19T17:50:29.000Z</time>
      </trkpt>
      <trkpt lat="48.62084" lon="7.181">
        <ele>522.34</ele>
        <time>2020-08-19T17:50:43.000Z</time>
      </trkpt>
      <trkpt lat="48.6209" lon="7.18098">
        <ele>524.42</ele>
        <time>2020-08-19T17:50:45.000Z</time>
      </trkpt>
      <trkpt lat="48.62107" lon="7.18087">
        <ele>523.41</ele>
        <time>2020-08-19T17:50:48.000Z</time>
      </trkpt>
      <trkpt lat="48.62113" lon="7.18083">
        <ele>522.7</ele>
        <time>2020-08-19T17:50:49.000Z</time>
      </trkpt>
      <trkpt lat="48.62115" lon="7.18076">
        <ele>525.17</ele>
        <time>2020-08-19T17:50:50.000Z</time>
      </trkpt>
      <trkpt lat="48.62119" lon="7.18068">
        <ele>523.21</ele>
        <time>2020-08-19T17:50:52.000Z</time>
      </trkpt>
      <trkpt lat="48.62123" lon="7.18063">
        <ele>521.04</ele>
        <time>2020-08-19T17:50:53.000Z</time>
      </trkpt>
      <trkpt lat="48.62126" lon="7.18057">
        <ele>521.28</ele>
        <time>2020-08-19T17:50:54.000Z</time>
      </trkpt>
      <trkpt lat="48.62129" lon="7.18048">
        <ele>520.92</ele>
        <time>2020-08-19T17:50:55.000Z</time>
      </trkpt>
      <trkpt lat="48.62134" lon="7.1804">
        <ele>520.17</ele>
        <time>2020-08-19T17:50:56.000Z</time>
      </trkpt>
      <trkpt lat="48.62138" lon="7.18034">
        <ele>521.1</ele>
        <time>2020-08-19T17:50:57.000Z</time>
      </trkpt>
      <trkpt lat="48.62139" lon="7.18023">
        <ele>519.63</ele>
        <time>2020-08-19T17:50:58.000Z</time>
      </trkpt>
      <trkpt lat="48.62142" lon="7.18015">
        <ele>521.44</ele>
        <time>2020-08-19T17:50:59.000Z</time>
      </trkpt>
      <trkpt lat="48.62146" lon="7.18007">
        <ele>520.04</ele>
        <time>2020-08-19T17:51:00.000Z</time>
      </trkpt>
      <trkpt lat="48.62148" lon="7.17999">
        <ele>519.05</ele>
        <time>2020-08-19T17:51:01.000Z</time>
      </trkpt>
      <trkpt lat="48.6215" lon="7.17989">
        <ele>520.04</ele>
        <time>2020-08-19T17:51:02.000Z</time>
      </trkpt>
      <trkpt lat="48.62151" lon="7.1798">
        <ele>520.58</ele>
        <time>2020-08-19T17:51:03.000Z</time>
      </trkpt>
      <trkpt lat="48.62154" lon="7.17972">
        <ele>520.77</ele>
        <time>2020-08-19T17:51:04.000Z</time>
      </trkpt>
      <trkpt lat="48.62156" lon="7.17964">
        <ele>520.03</ele>
        <time>2020-08-19T17:51:05.000Z</time>
      </trkpt>
      <trkpt lat="48.62158" lon="7.17956">
        <ele>520.99</ele>
        <time>2020-08-19T17:51:06.000Z</time>
      </trkpt>
      <trkpt lat="48.6216" lon="7.17948">
        <ele>521.81</ele>
        <time>2020-08-19T17:51:07.000Z</time>
      </trkpt>
      <trkpt lat="48.62161" lon="7.1794">
        <ele>522.45</ele>
        <time>2020-08-19T17:51:08.000Z</time>
      </trkpt>
      <trkpt lat="48.6216" lon="7.1793">
        <ele>519.27</ele>
        <time>2020-08-19T17:51:09.000Z</time>
      </trkpt>
      <trkpt lat="48.62165" lon="7.17917">
        <ele>518.34</ele>
        <time>2020-08-19T17:51:10.000Z</time>
      </trkpt>
      <trkpt lat="48.62169" lon="7.17908">
        <ele>519.42</ele>
        <time>2020-08-19T17:51:11.000Z</time>
      </trkpt>
      <trkpt lat="48.62174" lon="7.17899">
        <ele>520.39</ele>
        <time>2020-08-19T17:51:12.000Z</time>
      </trkpt>
      <trkpt lat="48.6218" lon="7.17892">
        <ele>522.22</ele>
        <time>2020-08-19T17:51:13.000Z</time>
      </trkpt>
      <trkpt lat="48.62186" lon="7.17888">
        <ele>523.65</ele>
        <time>2020-08-19T17:51:14.000Z</time>
      </trkpt>
      <trkpt lat="48.62193" lon="7.17884">
        <ele>523.99</ele>
        <time>2020-08-19T17:51:15.000Z</time>
      </trkpt>
      <trkpt lat="48.62198" lon="7.17879">
        <ele>524.19</ele>
        <time>2020-08-19T17:51:16.000Z</time>
      </trkpt>
      <trkpt lat="48.62204" lon="7.17877">
        <ele>522.68</ele>
        <time>2020-08-19T17:51:17.000Z</time>
      </trkpt>
      <trkpt lat="48.62209" lon="7.17874">
        <ele>522.16</ele>
        <time>2020-08-19T17:51:18.000Z</time>
      </trkpt>
      <trkpt lat="48.62216" lon="7.17871">
        <ele>522.16</ele>
        <time>2020-08-19T17:51:19.000Z</time>
      </trkpt>
      <trkpt lat="48.62222" lon="7.17867">
        <ele>521.72</ele>
        <time>2020-08-19T17:51:20.000Z</time>
      </trkpt>
      <trkpt lat="48.62229" lon="7.17863">
        <ele>521.76</ele>
        <time>2020-08-19T17:51:21.000Z</time>
      </trkpt>
      <trkpt lat="48.62236" lon="7.1786">
        <ele>522.26</ele>
        <time>2020-08-19T17:51:22.000Z</time>
      </trkpt>
      <trkpt lat="48.62242" lon="7.17857">
        <ele>522.47</ele>
        <time>2020-08-19T17:51:23.000Z</time>
      </trkpt>
      <trkpt lat="48.62248" lon="7.17853">
        <ele>522.44</ele>
        <time>2020-08-19T17:51:24.000Z</time>
      </trkpt>
      <trkpt lat="48.62255" lon="7.17848">
        <ele>521.26</ele>
        <time>2020-08-19T17:51:25.000Z</time>
      </trkpt>
      <trkpt lat="48.6226" lon="7.17847">
        <ele>519.7</ele>
        <time>2020-08-19T17:51:26.000Z</time>
      </trkpt>
      <trkpt lat="48.62267" lon="7.17843">
        <ele>520.7</ele>
        <time>2020-08-19T17:51:27.000Z</time>
      </trkpt>
      <trkpt lat="48.62272" lon="7.17842">
        <ele>520.39</ele>
        <time>2020-08-19T17:51:28.000Z</time>
      </trkpt>
      <trkpt lat="48.62278" lon="7.17839">
        <ele>521.07</ele>
        <time>2020-08-19T17:51:29.000Z</time>
      </trkpt>
      <trkpt lat="48.62283" lon="7.17835">
        <ele>521.16</ele>
        <time>2020-08-19T17:51:30.000Z</time>
      </trkpt>
      <trkpt lat="48.6229" lon="7.17834">
        <ele>521.12</ele>
        <time>2020-08-19T17:51:31.000Z</time>
      </trkpt>
      <trkpt lat="48.62296" lon="7.17831">
        <ele>520.35</ele>
        <time>2020-08-19T17:51:32.000Z</time>
      </trkpt>
      <trkpt lat="48.62303" lon="7.17829">
        <ele>521.14</ele>
        <time>2020-08-19T17:51:33.000Z</time>
      </trkpt>
      <trkpt lat="48.62309" lon="7.17828">
        <ele>521.72</ele>
        <time>2020-08-19T17:51:34.000Z</time>
      </trkpt>
      <trkpt lat="48.62315" lon="7.17826">
        <ele>522.14</ele>
        <time>2020-08-19T17:51:35.000Z</time>
      </trkpt>
      <trkpt lat="48.62321" lon="7.1783">
        <ele>520.22</ele>
        <time>2020-08-19T17:51:36.000Z</time>
      </trkpt>
      <trkpt lat="48.62326" lon="7.17825">
        <ele>522.48</ele>
        <time>2020-08-19T17:51:37.000Z</time>
      </trkpt>
      <trkpt lat="48.62331" lon="7.17822">
        <ele>521.94</ele>
        <time>2020-08-19T17:51:38.000Z</time>
      </trkpt>
      <trkpt lat="48.62337" lon="7.17824">
        <ele>522.41</ele>
        <time>2020-08-19T17:51:39.000Z</time>
      </trkpt>
      <trkpt lat="48.62349" lon="7.17823">
        <ele>521.16</ele>
        <time>2020-08-19T17:51:41.000Z</time>
      </trkpt>
      <trkpt lat="48.62356" lon="7.17822">
        <ele>520.55</ele>
        <time>2020-08-19T17:51:42.000Z</time>
      </trkpt>
      <trkpt lat="48.62363" lon="7.1782">
        <ele>520.78</ele>
        <time>2020-08-19T17:51:43.000Z</time>
      </trkpt>
      <trkpt lat="48.6237" lon="7.1782">
        <ele>521.32</ele>
        <time>2020-08-19T17:51:44.000Z</time>
      </trkpt>
      <trkpt lat="48.62377" lon="7.17818">
        <ele>521.85</ele>
        <time>2020-08-19T17:51:45.000Z</time>
      </trkpt>
      <trkpt lat="48.62383" lon="7.17819">
        <ele>522.32</ele>
        <time>2020-08-19T17:51:46.000Z</time>
      </trkpt>
      <trkpt lat="48.62388" lon="7.17821">
        <ele>522.02</ele>
        <time>2020-08-19T17:51:47.000Z</time>
      </trkpt>
      <trkpt lat="48.62394" lon="7.17822">
        <ele>522.15</ele>
        <time>2020-08-19T17:51:48.000Z</time>
      </trkpt>
      <trkpt lat="48.624" lon="7.17817">
        <ele>520.58</ele>
        <time>2020-08-19T17:51:49.000Z</time>
      </trkpt>
      <trkpt lat="48.62406" lon="7.17816">
        <ele>521.11</ele>
        <time>2020-08-19T17:51:50.000Z</time>
      </trkpt>
      <trkpt lat="48.62413" lon="7.17814">
        <ele>518.6</ele>
        <time>2020-08-19T17:51:51.000Z</time>
      </trkpt>
      <trkpt lat="48.62419" lon="7.17811">
        <ele>516.75</ele>
        <time>2020-08-19T17:51:52.000Z</time>
      </trkpt>
      <trkpt lat="48.62425" lon="7.17808">
        <ele>518.68</ele>
        <time>2020-08-19T17:51:53.000Z</time>
      </trkpt>
      <trkpt lat="48.62431" lon="7.17807">
        <ele>519.17</ele>
        <time>2020-08-19T17:51:54.000Z</time>
      </trkpt>
      <trkpt lat="48.62435" lon="7.17803">
        <ele>532.98</ele>
        <time>2020-08-19T17:52:06.000Z</time>
      </trkpt>
      <trkpt lat="48.62441" lon="7.17802">
        <ele>537.18</ele>
        <time>2020-08-19T17:52:08.000Z</time>
      </trkpt>
      <trkpt lat="48.62524" lon="7.17824">
        <ele>531.55</ele>
        <time>2020-08-19T17:52:23.000Z</time>
      </trkpt>
      <trkpt lat="48.62529" lon="7.17831">
        <ele>529.84</ele>
        <time>2020-08-19T17:52:25.000Z</time>
      </trkpt>
      <trkpt lat="48.62533" lon="7.17838">
        <ele>527.71</ele>
        <time>2020-08-19T17:52:27.000Z</time>
      </trkpt>
      <trkpt lat="48.62537" lon="7.17843">
        <ele>531.33</ele>
        <time>2020-08-19T17:52:28.000Z</time>
      </trkpt>
      <trkpt lat="48.62536" lon="7.17851">
        <ele>528.84</ele>
        <time>2020-08-19T17:53:57.000Z</time>
      </trkpt>
      <trkpt lat="48.6254" lon="7.17848">
        <ele>526.2</ele>
        <time>2020-08-19T17:57:32.000Z</time>
      </trkpt>
      <trkpt lat="48.62545" lon="7.17854">
        <ele>524.12</ele>
        <time>2020-08-19T17:58:04.000Z</time>
      </trkpt>
      <trkpt lat="48.62549" lon="7.1785">
        <ele>523.71</ele>
        <time>2020-08-19T17:58:06.000Z</time>
      </trkpt>
      <trkpt lat="48.62552" lon="7.17845">
        <ele>528.06</ele>
        <time>2020-08-19T17:58:09.000Z</time>
      </trkpt>
      <trkpt lat="48.62555" lon="7.17839">
        <ele>529.09</ele>
        <time>2020-08-19T17:58:13.000Z</time>
      </trkpt>
      <trkpt lat="48.62557" lon="7.17832">
        <ele>527.43</ele>
        <time>2020-08-19T17:58:15.000Z</time>
      </trkpt>
      <trkpt lat="48.62556" lon="7.17825">
        <ele>524.79</ele>
        <time>2020-08-19T17:58:18.000Z</time>
      </trkpt>
      <trkpt lat="48.62555" lon="7.17792">
        <ele>522.11</ele>
        <time>2020-08-19T17:58:30.000Z</time>
      </trkpt>
      <trkpt lat="48.62564" lon="7.17769">
        <ele>535.01</ele>
        <time>2020-08-19T17:58:51.000Z</time>
      </trkpt>
      <trkpt lat="48.62563" lon="7.17777">
        <ele>533.07</ele>
        <time>2020-08-19T17:59:33.000Z</time>
      </trkpt>
      <trkpt lat="48.62562" lon="7.17786">
        <ele>533.79</ele>
        <time>2020-08-19T17:59:37.000Z</time>
      </trkpt>
      <trkpt lat="48.62562" lon="7.17793">
        <ele>532.06</ele>
        <time>2020-08-19T17:59:41.000Z</time>
      </trkpt>
      <trkpt lat="48.62564" lon="7.17801">
        <ele>532.04</ele>
        <time>2020-08-19T17:59:44.000Z</time>
      </trkpt>
      <trkpt lat="48.62567" lon="7.17808">
        <ele>533.06</ele>
        <time>2020-08-19T17:59:47.000Z</time>
      </trkpt>
      <trkpt lat="48.62571" lon="7.17811">
        <ele>532.37</ele>
        <time>2020-08-19T17:59:50.000Z</time>
      </trkpt>
      <trkpt lat="48.62574" lon="7.17816">
        <ele>531.4</ele>
        <time>2020-08-19T17:59:53.000Z</time>
      </trkpt>
      <trkpt lat="48.62576" lon="7.17823">
        <ele>530.65</ele>
        <time>2020-08-19T17:59:56.000Z</time>
      </trkpt>
      <trkpt lat="48.62577" lon="7.1783">
        <ele>530.65</ele>
        <time>2020-08-19T17:59:59.000Z</time>
      </trkpt>
      <trkpt lat="48.62582" lon="7.17834">
        <ele>529.91</ele>
        <time>2020-08-19T18:00:02.000Z</time>
      </trkpt>
      <trkpt lat="48.62586" lon="7.17837">
        <ele>529.85</ele>
        <time>2020-08-19T18:00:07.000Z</time>
      </trkpt>
      <trkpt lat="48.62588" lon="7.17843">
        <ele>523.09</ele>
        <time>2020-08-19T18:00:25.000Z</time>
      </trkpt>
      <trkpt lat="48.6259" lon="7.17851">
        <ele>527.3</ele>
        <time>2020-08-19T18:00:29.000Z</time>
      </trkpt>
      <trkpt lat="48.62592" lon="7.17859">
        <ele>528.17</ele>
        <time>2020-08-19T18:00:34.000Z</time>
      </trkpt>
      <trkpt lat="48.62593" lon="7.17866">
        <ele>529.28</ele>
        <time>2020-08-19T18:00:38.000Z</time>
      </trkpt>
      <trkpt lat="48.62594" lon="7.17874">
        <ele>534.35</ele>
        <time>2020-08-19T18:00:48.000Z</time>
      </trkpt>
      <trkpt lat="48.62593" lon="7.17881">
        <ele>534.9</ele>
        <time>2020-08-19T18:00:52.000Z</time>
      </trkpt>
      <trkpt lat="48.62595" lon="7.17888">
        <ele>535.96</ele>
        <time>2020-08-19T18:00:55.000Z</time>
      </trkpt>
      <trkpt lat="48.62596" lon="7.17895">
        <ele>536.73</ele>
        <time>2020-08-19T18:00:59.000Z</time>
      </trkpt>
      <trkpt lat="48.626" lon="7.17901">
        <ele>542.43</ele>
        <time>2020-08-19T18:01:04.000Z</time>
      </trkpt>
      <trkpt lat="48.62602" lon="7.17908">
        <ele>542.99</ele>
        <time>2020-08-19T18:01:08.000Z</time>
      </trkpt>
      <trkpt lat="48.62605" lon="7.17915">
        <ele>544.36</ele>
        <time>2020-08-19T18:01:13.000Z</time>
      </trkpt>
      <trkpt lat="48.62606" lon="7.17924">
        <ele>542.69</ele>
        <time>2020-08-19T18:01:17.000Z</time>
      </trkpt>
      <trkpt lat="48.62606" lon="7.17931">
        <ele>545.99</ele>
        <time>2020-08-19T18:01:22.000Z</time>
      </trkpt>
      <trkpt lat="48.62611" lon="7.17933">
        <ele>546.74</ele>
        <time>2020-08-19T18:01:26.000Z</time>
      </trkpt>
      <trkpt lat="48.6261" lon="7.17926">
        <ele>545.76</ele>
        <time>2020-08-19T18:01:32.000Z</time>
      </trkpt>
      <trkpt lat="48.6261" lon="7.17919">
        <ele>547.72</ele>
        <time>2020-08-19T18:01:37.000Z</time>
      </trkpt>
      <trkpt lat="48.62611" lon="7.17912">
        <ele>550.35</ele>
        <time>2020-08-19T18:01:42.000Z</time>
      </trkpt>
      <trkpt lat="48.6261" lon="7.17905">
        <ele>550.4</ele>
        <time>2020-08-19T18:01:46.000Z</time>
      </trkpt>
      <trkpt lat="48.62612" lon="7.17897">
        <ele>550.71</ele>
        <time>2020-08-19T18:01:51.000Z</time>
      </trkpt>
      <trkpt lat="48.62616" lon="7.17889">
        <ele>551.37</ele>
        <time>2020-08-19T18:01:56.000Z</time>
      </trkpt>
      <trkpt lat="48.62618" lon="7.17881">
        <ele>557.39</ele>
        <time>2020-08-19T18:02:00.000Z</time>
      </trkpt>
      <trkpt lat="48.6262" lon="7.17866">
        <ele>560.56</ele>
        <time>2020-08-19T18:02:06.000Z</time>
      </trkpt>
      <trkpt lat="48.62625" lon="7.17863">
        <ele>560.84</ele>
        <time>2020-08-19T18:02:10.000Z</time>
      </trkpt>
      <trkpt lat="48.62627" lon="7.1787">
        <ele>558.84</ele>
        <time>2020-08-19T18:02:18.000Z</time>
      </trkpt>
      <trkpt lat="48.62628" lon="7.17878">
        <ele>559.32</ele>
        <time>2020-08-19T18:02:21.000Z</time>
      </trkpt>
      <trkpt lat="48.62629" lon="7.17885">
        <ele>562.26</ele>
        <time>2020-08-19T18:02:26.000Z</time>
      </trkpt>
      <trkpt lat="48.62632" lon="7.17893">
        <ele>562.6</ele>
        <time>2020-08-19T18:02:30.000Z</time>
      </trkpt>
      <trkpt lat="48.62632" lon="7.179">
        <ele>564.62</ele>
        <time>2020-08-19T18:02:34.000Z</time>
      </trkpt>
      <trkpt lat="48.62635" lon="7.17906">
        <ele>564.77</ele>
        <time>2020-08-19T18:02:38.000Z</time>
      </trkpt>
      <trkpt lat="48.6264" lon="7.17929">
        <ele>563.1</ele>
        <time>2020-08-19T18:02:51.000Z</time>
      </trkpt>
      <trkpt lat="48.62643" lon="7.17936">
        <ele>565.34</ele>
        <time>2020-08-19T18:02:56.000Z</time>
      </trkpt>
      <trkpt lat="48.62647" lon="7.17942">
        <ele>565.66</ele>
        <time>2020-08-19T18:03:00.000Z</time>
      </trkpt>
      <trkpt lat="48.62649" lon="7.17948">
        <ele>570.15</ele>
        <time>2020-08-19T18:03:06.000Z</time>
      </trkpt>
      <trkpt lat="48.62651" lon="7.17955">
        <ele>570.9</ele>
        <time>2020-08-19T18:03:12.000Z</time>
      </trkpt>
      <trkpt lat="48.62656" lon="7.1796">
        <ele>572.24</ele>
        <time>2020-08-19T18:03:16.000Z</time>
      </trkpt>
      <trkpt lat="48.62659" lon="7.17965">
        <ele>573.38</ele>
        <time>2020-08-19T18:03:19.000Z</time>
      </trkpt>
      <trkpt lat="48.62661" lon="7.17973">
        <ele>578</ele>
        <time>2020-08-19T18:03:25.000Z</time>
      </trkpt>
      <trkpt lat="48.62672" lon="7.17982">
        <ele>577.16</ele>
        <time>2020-08-19T18:03:33.000Z</time>
      </trkpt>
      <trkpt lat="48.62676" lon="7.17986">
        <ele>576.11</ele>
        <time>2020-08-19T18:03:37.000Z</time>
      </trkpt>
      <trkpt lat="48.62677" lon="7.17993">
        <ele>576.55</ele>
        <time>2020-08-19T18:03:41.000Z</time>
      </trkpt>
      <trkpt lat="48.62682" lon="7.17996">
        <ele>572.03</ele>
        <time>2020-08-19T18:03:45.000Z</time>
      </trkpt>
      <trkpt lat="48.62683" lon="7.18003">
        <ele>575.57</ele>
        <time>2020-08-19T18:03:54.000Z</time>
      </trkpt>
      <trkpt lat="48.62682" lon="7.18011">
        <ele>578.44</ele>
        <time>2020-08-19T18:03:59.000Z</time>
      </trkpt>
      <trkpt lat="48.62688" lon="7.18009">
        <ele>574.76</ele>
        <time>2020-08-19T18:04:05.000Z</time>
      </trkpt>
      <trkpt lat="48.6269" lon="7.18002">
        <ele>576.93</ele>
        <time>2020-08-19T18:04:11.000Z</time>
      </trkpt>
      <trkpt lat="48.62685" lon="7.17996">
        <ele>581.35</ele>
        <time>2020-08-19T18:04:15.000Z</time>
      </trkpt>
      <trkpt lat="48.62682" lon="7.1799">
        <ele>580.74</ele>
        <time>2020-08-19T18:04:19.000Z</time>
      </trkpt>
      <trkpt lat="48.62679" lon="7.17984">
        <ele>580.29</ele>
        <time>2020-08-19T18:04:23.000Z</time>
      </trkpt>
      <trkpt lat="48.62678" lon="7.17975">
        <ele>583.5</ele>
        <time>2020-08-19T18:04:27.000Z</time>
      </trkpt>
      <trkpt lat="48.62678" lon="7.17967">
        <ele>583.96</ele>
        <time>2020-08-19T18:04:31.000Z</time>
      </trkpt>
      <trkpt lat="48.62677" lon="7.1796">
        <ele>582.14</ele>
        <time>2020-08-19T18:04:35.000Z</time>
      </trkpt>
      <trkpt lat="48.62675" lon="7.17954">
        <ele>583.96</ele>
        <time>2020-08-19T18:04:38.000Z</time>
      </trkpt>
      <trkpt lat="48.62673" lon="7.17946">
        <ele>581.31</ele>
        <time>2020-08-19T18:04:44.000Z</time>
      </trkpt>
      <trkpt lat="48.6267" lon="7.1794">
        <ele>577.99</ele>
        <time>2020-08-19T18:04:48.000Z</time>
      </trkpt>
      <trkpt lat="48.62667" lon="7.17934">
        <ele>580.14</ele>
        <time>2020-08-19T18:04:52.000Z</time>
      </trkpt>
      <trkpt lat="48.62666" lon="7.17928">
        <ele>581.66</ele>
        <time>2020-08-19T18:04:56.000Z</time>
      </trkpt>
      <trkpt lat="48.62664" lon="7.17921">
        <ele>583.8</ele>
        <time>2020-08-19T18:04:59.000Z</time>
      </trkpt>
      <trkpt lat="48.62667" lon="7.17915">
        <ele>586.22</ele>
        <time>2020-08-19T18:05:05.000Z</time>
      </trkpt>
      <trkpt lat="48.62671" lon="7.17918">
        <ele>587.6</ele>
        <time>2020-08-19T18:05:28.000Z</time>
      </trkpt>
      <trkpt lat="48.62676" lon="7.17921">
        <ele>588.31</ele>
        <time>2020-08-19T18:05:32.000Z</time>
      </trkpt>
      <trkpt lat="48.6268" lon="7.17924">
        <ele>588.61</ele>
        <time>2020-08-19T18:05:35.000Z</time>
      </trkpt>
      <trkpt lat="48.62685" lon="7.17929">
        <ele>585.73</ele>
        <time>2020-08-19T18:05:38.000Z</time>
      </trkpt>
      <trkpt lat="48.62689" lon="7.17935">
        <ele>584.71</ele>
        <time>2020-08-19T18:05:42.000Z</time>
      </trkpt>
      <trkpt lat="48.62692" lon="7.1794">
        <ele>585.5</ele>
        <time>2020-08-19T18:05:46.000Z</time>
      </trkpt>
      <trkpt lat="48.62697" lon="7.17943">
        <ele>584.86</ele>
        <time>2020-08-19T18:05:51.000Z</time>
      </trkpt>
      <trkpt lat="48.62701" lon="7.17948">
        <ele>585.03</ele>
        <time>2020-08-19T18:05:54.000Z</time>
      </trkpt>
      <trkpt lat="48.62706" lon="7.17952">
        <ele>587.45</ele>
        <time>2020-08-19T18:05:58.000Z</time>
      </trkpt>
      <trkpt lat="48.62709" lon="7.17958">
        <ele>593.89</ele>
        <time>2020-08-19T18:07:11.000Z</time>
      </trkpt>
      <trkpt lat="48.62712" lon="7.17965">
        <ele>592.45</ele>
        <time>2020-08-19T18:07:14.000Z</time>
      </trkpt>
      <trkpt lat="48.62711" lon="7.17974">
        <ele>587.29</ele>
        <time>2020-08-19T18:07:17.000Z</time>
      </trkpt>
      <trkpt lat="48.62733" lon="7.18073">
        <ele>585.22</ele>
        <time>2020-08-19T18:07:37.000Z</time>
      </trkpt>
      <trkpt lat="48.62736" lon="7.1809">
        <ele>584.26</ele>
        <time>2020-08-19T18:07:39.000Z</time>
      </trkpt>
      <trkpt lat="48.62737" lon="7.18098">
        <ele>584.53</ele>
        <time>2020-08-19T18:07:40.000Z</time>
      </trkpt>
      <trkpt lat="48.62738" lon="7.18105">
        <ele>584.51</ele>
        <time>2020-08-19T18:07:41.000Z</time>
      </trkpt>
      <trkpt lat="48.62739" lon="7.18112">
        <ele>584.52</ele>
        <time>2020-08-19T18:07:42.000Z</time>
      </trkpt>
      <trkpt lat="48.62745" lon="7.18116">
        <ele>590.09</ele>
        <time>2020-08-19T18:07:43.000Z</time>
      </trkpt>
      <trkpt lat="48.62747" lon="7.18124">
        <ele>590.99</ele>
        <time>2020-08-19T18:07:44.000Z</time>
      </trkpt>
      <trkpt lat="48.6275" lon="7.18132">
        <ele>594.75</ele>
        <time>2020-08-19T18:07:45.000Z</time>
      </trkpt>
      <trkpt lat="48.62753" lon="7.18139">
        <ele>594.46</ele>
        <time>2020-08-19T18:07:46.000Z</time>
      </trkpt>
      <trkpt lat="48.62757" lon="7.18151">
        <ele>594.96</ele>
        <time>2020-08-19T18:07:48.000Z</time>
      </trkpt>
      <trkpt lat="48.62758" lon="7.18161">
        <ele>594.62</ele>
        <time>2020-08-19T18:07:50.000Z</time>
      </trkpt>
      <trkpt lat="48.62761" lon="7.18171">
        <ele>594.39</ele>
        <time>2020-08-19T18:07:52.000Z</time>
      </trkpt>
      <trkpt lat="48.62765" lon="7.18184">
        <ele>596.48</ele>
        <time>2020-08-19T18:07:54.000Z</time>
      </trkpt>
      <trkpt lat="48.62768" lon="7.18193">
        <ele>596.05</ele>
        <time>2020-08-19T18:07:55.000Z</time>
      </trkpt>
      <trkpt lat="48.6277" lon="7.182">
        <ele>595.53</ele>
        <time>2020-08-19T18:07:56.000Z</time>
      </trkpt>
      <trkpt lat="48.62774" lon="7.18214">
        <ele>593.56</ele>
        <time>2020-08-19T18:07:58.000Z</time>
      </trkpt>
      <trkpt lat="48.62777" lon="7.18221">
        <ele>591.75</ele>
        <time>2020-08-19T18:07:59.000Z</time>
      </trkpt>
      <trkpt lat="48.62779" lon="7.18227">
        <ele>590.74</ele>
        <time>2020-08-19T18:08:00.000Z</time>
      </trkpt>
      <trkpt lat="48.62783" lon="7.18235">
        <ele>589.92</ele>
        <time>2020-08-19T18:08:01.000Z</time>
      </trkpt>
      <trkpt lat="48.62787" lon="7.18244">
        <ele>589.08</ele>
        <time>2020-08-19T18:08:02.000Z</time>
      </trkpt>
      <trkpt lat="48.62796" lon="7.18264">
        <ele>588.75</ele>
        <time>2020-08-19T18:08:04.000Z</time>
      </trkpt>
      <trkpt lat="48.628" lon="7.18273">
        <ele>588.3</ele>
        <time>2020-08-19T18:08:05.000Z</time>
      </trkpt>
      <trkpt lat="48.62805" lon="7.18282">
        <ele>587.16</ele>
        <time>2020-08-19T18:08:06.000Z</time>
      </trkpt>
      <trkpt lat="48.6281" lon="7.1829">
        <ele>588.55</ele>
        <time>2020-08-19T18:08:07.000Z</time>
      </trkpt>
      <trkpt lat="48.62831" lon="7.18311">
        <ele>588.76</ele>
        <time>2020-08-19T18:08:11.000Z</time>
      </trkpt>
      <trkpt lat="48.62834" lon="7.18316">
        <ele>587.98</ele>
        <time>2020-08-19T18:08:13.000Z</time>
      </trkpt>
      <trkpt lat="48.62839" lon="7.18322">
        <ele>590.54</ele>
        <time>2020-08-19T18:08:21.000Z</time>
      </trkpt>
      <trkpt lat="48.62843" lon="7.18328">
        <ele>592.4</ele>
        <time>2020-08-19T18:08:24.000Z</time>
      </trkpt>
      <trkpt lat="48.62857" lon="7.18343">
        <ele>596.33</ele>
        <time>2020-08-19T18:08:27.000Z</time>
      </trkpt>
      <trkpt lat="48.62862" lon="7.18348">
        <ele>595.52</ele>
        <time>2020-08-19T18:08:28.000Z</time>
      </trkpt>
      <trkpt lat="48.62869" lon="7.18352">
        <ele>593.05</ele>
        <time>2020-08-19T18:08:30.000Z</time>
      </trkpt>
      <trkpt lat="48.62873" lon="7.18356">
        <ele>592.9</ele>
        <time>2020-08-19T18:08:38.000Z</time>
      </trkpt>
      <trkpt lat="48.62877" lon="7.18349">
        <ele>591.92</ele>
        <time>2020-08-19T18:08:43.000Z</time>
      </trkpt>
      <trkpt lat="48.6288" lon="7.18339">
        <ele>591.63</ele>
        <time>2020-08-19T18:08:46.000Z</time>
      </trkpt>
      <trkpt lat="48.62879" lon="7.18328">
        <ele>591.29</ele>
        <time>2020-08-19T18:08:48.000Z</time>
      </trkpt>
      <trkpt lat="48.62878" lon="7.18317">
        <ele>590.93</ele>
        <time>2020-08-19T18:08:50.000Z</time>
      </trkpt>
      <trkpt lat="48.62876" lon="7.18305">
        <ele>590.26</ele>
        <time>2020-08-19T18:08:52.000Z</time>
      </trkpt>
      <trkpt lat="48.62876" lon="7.18295">
        <ele>590.46</ele>
        <time>2020-08-19T18:08:54.000Z</time>
      </trkpt>
      <trkpt lat="48.62877" lon="7.18289">
        <ele>588.79</ele>
        <time>2020-08-19T18:09:01.000Z</time>
      </trkpt>
      <trkpt lat="48.62876" lon="7.18281">
        <ele>588.75</ele>
        <time>2020-08-19T18:09:06.000Z</time>
      </trkpt>
      <trkpt lat="48.62874" lon="7.18262">
        <ele>589.79</ele>
        <time>2020-08-19T18:09:09.000Z</time>
      </trkpt>
      <trkpt lat="48.62874" lon="7.18254">
        <ele>589.41</ele>
        <time>2020-08-19T18:09:10.000Z</time>
      </trkpt>
      <trkpt lat="48.6287" lon="7.1823">
        <ele>589</ele>
        <time>2020-08-19T18:09:13.000Z</time>
      </trkpt>
      <trkpt lat="48.62869" lon="7.18221">
        <ele>589.19</ele>
        <time>2020-08-19T18:09:14.000Z</time>
      </trkpt>
      <trkpt lat="48.62874" lon="7.1821">
        <ele>589.06</ele>
        <time>2020-08-19T18:09:15.000Z</time>
      </trkpt>
      <trkpt lat="48.62876" lon="7.18204">
        <ele>587.71</ele>
        <time>2020-08-19T18:09:16.000Z</time>
      </trkpt>
      <trkpt lat="48.62879" lon="7.18196">
        <ele>588.21</ele>
        <time>2020-08-19T18:09:17.000Z</time>
      </trkpt>
      <trkpt lat="48.62879" lon="7.18185">
        <ele>586.07</ele>
        <time>2020-08-19T18:09:19.000Z</time>
      </trkpt>
      <trkpt lat="48.62879" lon="7.18175">
        <ele>585.1</ele>
        <time>2020-08-19T18:09:21.000Z</time>
      </trkpt>
      <trkpt lat="48.6288" lon="7.18163">
        <ele>584.29</ele>
        <time>2020-08-19T18:09:23.000Z</time>
      </trkpt>
      <trkpt lat="48.6288" lon="7.18154">
        <ele>584.2</ele>
        <time>2020-08-19T18:09:24.000Z</time>
      </trkpt>
      <trkpt lat="48.62881" lon="7.18145">
        <ele>583.91</ele>
        <time>2020-08-19T18:09:25.000Z</time>
      </trkpt>
      <trkpt lat="48.62882" lon="7.18136">
        <ele>582.62</ele>
        <time>2020-08-19T18:09:26.000Z</time>
      </trkpt>
      <trkpt lat="48.62881" lon="7.18128">
        <ele>582.85</ele>
        <time>2020-08-19T18:09:27.000Z</time>
      </trkpt>
      <trkpt lat="48.62885" lon="7.18119">
        <ele>579.87</ele>
        <time>2020-08-19T18:09:28.000Z</time>
      </trkpt>
      <trkpt lat="48.6289" lon="7.18108">
        <ele>577.14</ele>
        <time>2020-08-19T18:09:30.000Z</time>
      </trkpt>
      <trkpt lat="48.62892" lon="7.18101">
        <ele>577.21</ele>
        <time>2020-08-19T18:09:31.000Z</time>
      </trkpt>
      <trkpt lat="48.62895" lon="7.18094">
        <ele>577.52</ele>
        <time>2020-08-19T18:09:32.000Z</time>
      </trkpt>
      <trkpt lat="48.62898" lon="7.18085">
        <ele>576.83</ele>
        <time>2020-08-19T18:09:33.000Z</time>
      </trkpt>
      <trkpt lat="48.62901" lon="7.18077">
        <ele>576.67</ele>
        <time>2020-08-19T18:09:34.000Z</time>
      </trkpt>
      <trkpt lat="48.62905" lon="7.1807">
        <ele>576.42</ele>
        <time>2020-08-19T18:09:35.000Z</time>
      </trkpt>
      <trkpt lat="48.62911" lon="7.18045">
        <ele>578.65</ele>
        <time>2020-08-19T18:09:37.000Z</time>
      </trkpt>
      <trkpt lat="48.62916" lon="7.18037">
        <ele>577.75</ele>
        <time>2020-08-19T18:09:38.000Z</time>
      </trkpt>
      <trkpt lat="48.62919" lon="7.18027">
        <ele>576.51</ele>
        <time>2020-08-19T18:09:39.000Z</time>
      </trkpt>
      <trkpt lat="48.62923" lon="7.1802">
        <ele>574.27</ele>
        <time>2020-08-19T18:09:40.000Z</time>
      </trkpt>
      <trkpt lat="48.62926" lon="7.18012">
        <ele>573.41</ele>
        <time>2020-08-19T18:09:41.000Z</time>
      </trkpt>
      <trkpt lat="48.62929" lon="7.18005">
        <ele>573.43</ele>
        <time>2020-08-19T18:09:42.000Z</time>
      </trkpt>
      <trkpt lat="48.62931" lon="7.17995">
        <ele>572.95</ele>
        <time>2020-08-19T18:09:43.000Z</time>
      </trkpt>
      <trkpt lat="48.62934" lon="7.17985">
        <ele>573.42</ele>
        <time>2020-08-19T18:09:44.000Z</time>
      </trkpt>
      <trkpt lat="48.62938" lon="7.17978">
        <ele>573.02</ele>
        <time>2020-08-19T18:09:45.000Z</time>
      </trkpt>
      <trkpt lat="48.62941" lon="7.17971">
        <ele>573.06</ele>
        <time>2020-08-19T18:09:46.000Z</time>
      </trkpt>
      <trkpt lat="48.62941" lon="7.17962">
        <ele>571.98</ele>
        <time>2020-08-19T18:09:47.000Z</time>
      </trkpt>
      <trkpt lat="48.62944" lon="7.17955">
        <ele>623.45</ele>
        <time>2020-08-19T18:09:48.000Z</time>
      </trkpt>
      <trkpt lat="48.62944" lon="7.17947">
        <ele>613.72</ele>
        <time>2020-08-19T18:09:49.000Z</time>
      </trkpt>
      <trkpt lat="48.62948" lon="7.1794">
        <ele>605.04</ele>
        <time>2020-08-19T18:09:50.000Z</time>
      </trkpt>
      <trkpt lat="48.62952" lon="7.17934">
        <ele>596.39</ele>
        <time>2020-08-19T18:09:51.000Z</time>
      </trkpt>
      <trkpt lat="48.62954" lon="7.17928">
        <ele>590.07</ele>
        <time>2020-08-19T18:09:52.000Z</time>
      </trkpt>
      <trkpt lat="48.62956" lon="7.17921">
        <ele>585.42</ele>
        <time>2020-08-19T18:09:53.000Z</time>
      </trkpt>
      <trkpt lat="48.62959" lon="7.17914">
        <ele>583.66</ele>
        <time>2020-08-19T18:09:54.000Z</time>
      </trkpt>
      <trkpt lat="48.62962" lon="7.17907">
        <ele>581.49</ele>
        <time>2020-08-19T18:09:55.000Z</time>
      </trkpt>
      <trkpt lat="48.62967" lon="7.17899">
        <ele>582.14</ele>
        <time>2020-08-19T18:09:57.000Z</time>
      </trkpt>
      <trkpt lat="48.62971" lon="7.17893">
        <ele>577.83</ele>
        <time>2020-08-19T18:09:58.000Z</time>
      </trkpt>
      <trkpt lat="48.62974" lon="7.17887">
        <ele>576.37</ele>
        <time>2020-08-19T18:09:59.000Z</time>
      </trkpt>
      <trkpt lat="48.62978" lon="7.17883">
        <ele>573.89</ele>
        <time>2020-08-19T18:10:00.000Z</time>
      </trkpt>
      <trkpt lat="48.62983" lon="7.17877">
        <ele>573.02</ele>
        <time>2020-08-19T18:10:01.000Z</time>
      </trkpt>
      <trkpt lat="48.62989" lon="7.17871">
        <ele>572.2</ele>
        <time>2020-08-19T18:10:02.000Z</time>
      </trkpt>
      <trkpt lat="48.63001" lon="7.17854">
        <ele>571.73</ele>
        <time>2020-08-19T18:10:04.000Z</time>
      </trkpt>
      <trkpt lat="48.6302" lon="7.17827">
        <ele>569.21</ele>
        <time>2020-08-19T18:10:07.000Z</time>
      </trkpt>
      <trkpt lat="48.63025" lon="7.17818">
        <ele>568.49</ele>
        <time>2020-08-19T18:10:08.000Z</time>
      </trkpt>
      <trkpt lat="48.63029" lon="7.1781">
        <ele>568.31</ele>
        <time>2020-08-19T18:10:09.000Z</time>
      </trkpt>
      <trkpt lat="48.63034" lon="7.17801">
        <ele>571.49</ele>
        <time>2020-08-19T18:10:10.000Z</time>
      </trkpt>
      <trkpt lat="48.63037" lon="7.17793">
        <ele>571.57</ele>
        <time>2020-08-19T18:10:11.000Z</time>
      </trkpt>
      <trkpt lat="48.6304" lon="7.17785">
        <ele>572.65</ele>
        <time>2020-08-19T18:10:12.000Z</time>
      </trkpt>
      <trkpt lat="48.63044" lon="7.17776">
        <ele>573.48</ele>
        <time>2020-08-19T18:10:13.000Z</time>
      </trkpt>
      <trkpt lat="48.63047" lon="7.17768">
        <ele>573.66</ele>
        <time>2020-08-19T18:10:14.000Z</time>
      </trkpt>
      <trkpt lat="48.6305" lon="7.17759">
        <ele>574.17</ele>
        <time>2020-08-19T18:10:15.000Z</time>
      </trkpt>
      <trkpt lat="48.63052" lon="7.17753">
        <ele>575.09</ele>
        <time>2020-08-19T18:10:16.000Z</time>
      </trkpt>
      <trkpt lat="48.63056" lon="7.17744">
        <ele>574.44</ele>
        <time>2020-08-19T18:10:17.000Z</time>
      </trkpt>
      <trkpt lat="48.6306" lon="7.17735">
        <ele>574.61</ele>
        <time>2020-08-19T18:10:18.000Z</time>
      </trkpt>
      <trkpt lat="48.63064" lon="7.17725">
        <ele>574.34</ele>
        <time>2020-08-19T18:10:19.000Z</time>
      </trkpt>
      <trkpt lat="48.63066" lon="7.17719">
        <ele>574.27</ele>
        <time>2020-08-19T18:10:20.000Z</time>
      </trkpt>
      <trkpt lat="48.6307" lon="7.1771">
        <ele>571.94</ele>
        <time>2020-08-19T18:10:21.000Z</time>
      </trkpt>
      <trkpt lat="48.63075" lon="7.17703">
        <ele>571.22</ele>
        <time>2020-08-19T18:10:22.000Z</time>
      </trkpt>
      <trkpt lat="48.63081" lon="7.17697">
        <ele>570.5</ele>
        <time>2020-08-19T18:10:23.000Z</time>
      </trkpt>
      <trkpt lat="48.63085" lon="7.1769">
        <ele>569.39</ele>
        <time>2020-08-19T18:10:24.000Z</time>
      </trkpt>
      <trkpt lat="48.63089" lon="7.17684">
        <ele>569.55</ele>
        <time>2020-08-19T18:10:25.000Z</time>
      </trkpt>
      <trkpt lat="48.63091" lon="7.17676">
        <ele>572.59</ele>
        <time>2020-08-19T18:10:48.000Z</time>
      </trkpt>
      <trkpt lat="48.63096" lon="7.17672">
        <ele>572.78</ele>
        <time>2020-08-19T18:10:50.000Z</time>
      </trkpt>
      <trkpt lat="48.631" lon="7.17663">
        <ele>574.79</ele>
        <time>2020-08-19T18:10:53.000Z</time>
      </trkpt>
      <trkpt lat="48.63106" lon="7.17658">
        <ele>575.65</ele>
        <time>2020-08-19T18:10:55.000Z</time>
      </trkpt>
      <trkpt lat="48.63111" lon="7.17654">
        <ele>577.92</ele>
        <time>2020-08-19T18:10:57.000Z</time>
      </trkpt>
      <trkpt lat="48.63115" lon="7.17648">
        <ele>577.87</ele>
        <time>2020-08-19T18:10:59.000Z</time>
      </trkpt>
      <trkpt lat="48.63119" lon="7.17642">
        <ele>576.66</ele>
        <time>2020-08-19T18:11:01.000Z</time>
      </trkpt>
      <trkpt lat="48.63124" lon="7.17635">
        <ele>577.39</ele>
        <time>2020-08-19T18:11:03.000Z</time>
      </trkpt>
      <trkpt lat="48.6313" lon="7.17631">
        <ele>577.42</ele>
        <time>2020-08-19T18:11:05.000Z</time>
      </trkpt>
      <trkpt lat="48.63134" lon="7.17628">
        <ele>575.86</ele>
        <time>2020-08-19T18:11:07.000Z</time>
      </trkpt>
      <trkpt lat="48.6314" lon="7.17623">
        <ele>574.19</ele>
        <time>2020-08-19T18:11:09.000Z</time>
      </trkpt>
      <trkpt lat="48.63147" lon="7.17619">
        <ele>573.79</ele>
        <time>2020-08-19T18:11:11.000Z</time>
      </trkpt>
      <trkpt lat="48.63152" lon="7.17616">
        <ele>570.18</ele>
        <time>2020-08-19T18:11:13.000Z</time>
      </trkpt>
      <trkpt lat="48.63156" lon="7.17611">
        <ele>571.91</ele>
        <time>2020-08-19T18:11:15.000Z</time>
      </trkpt>
      <trkpt lat="48.63162" lon="7.17605">
        <ele>570.25</ele>
        <time>2020-08-19T18:11:17.000Z</time>
      </trkpt>
      <trkpt lat="48.63169" lon="7.17602">
        <ele>568.19</ele>
        <time>2020-08-19T18:11:19.000Z</time>
      </trkpt>
      <trkpt lat="48.63188" lon="7.17591">
        <ele>570.26</ele>
        <time>2020-08-19T18:11:23.000Z</time>
      </trkpt>
      <trkpt lat="48.63193" lon="7.17589">
        <ele>570.98</ele>
        <time>2020-08-19T18:11:24.000Z</time>
      </trkpt>
      <trkpt lat="48.63198" lon="7.17587">
        <ele>571.49</ele>
        <time>2020-08-19T18:11:25.000Z</time>
      </trkpt>
      <trkpt lat="48.63202" lon="7.17584">
        <ele>572.61</ele>
        <time>2020-08-19T18:11:26.000Z</time>
      </trkpt>
      <trkpt lat="48.63207" lon="7.17581">
        <ele>570.47</ele>
        <time>2020-08-19T18:11:27.000Z</time>
      </trkpt>
      <trkpt lat="48.6322" lon="7.17577">
        <ele>567.67</ele>
        <time>2020-08-19T18:11:30.000Z</time>
      </trkpt>
      <trkpt lat="48.63225" lon="7.17577">
        <ele>569.81</ele>
        <time>2020-08-19T18:11:31.000Z</time>
      </trkpt>
      <trkpt lat="48.63235" lon="7.17575">
        <ele>569.84</ele>
        <time>2020-08-19T18:11:33.000Z</time>
      </trkpt>
      <trkpt lat="48.63244" lon="7.17579">
        <ele>568.21</ele>
        <time>2020-08-19T18:11:35.000Z</time>
      </trkpt>
      <trkpt lat="48.63249" lon="7.17579">
        <ele>568.36</ele>
        <time>2020-08-19T18:11:36.000Z</time>
      </trkpt>
      <trkpt lat="48.63255" lon="7.17577">
        <ele>568.92</ele>
        <time>2020-08-19T18:11:37.000Z</time>
      </trkpt>
      <trkpt lat="48.63259" lon="7.17575">
        <ele>574.52</ele>
        <time>2020-08-19T18:11:43.000Z</time>
      </trkpt>
      <trkpt lat="48.63263" lon="7.17578">
        <ele>575.56</ele>
        <time>2020-08-19T18:11:50.000Z</time>
      </trkpt>
      <trkpt lat="48.63268" lon="7.17584">
        <ele>576.87</ele>
        <time>2020-08-19T18:11:57.000Z</time>
      </trkpt>
      <trkpt lat="48.63273" lon="7.17586">
        <ele>576.49</ele>
        <time>2020-08-19T18:11:59.000Z</time>
      </trkpt>
      <trkpt lat="48.63278" lon="7.17589">
        <ele>576.33</ele>
        <time>2020-08-19T18:12:02.000Z</time>
      </trkpt>
      <trkpt lat="48.63284" lon="7.17593">
        <ele>575.89</ele>
        <time>2020-08-19T18:12:04.000Z</time>
      </trkpt>
      <trkpt lat="48.6329" lon="7.17597">
        <ele>576.53</ele>
        <time>2020-08-19T18:12:06.000Z</time>
      </trkpt>
      <trkpt lat="48.63296" lon="7.176">
        <ele>577.2</ele>
        <time>2020-08-19T18:12:08.000Z</time>
      </trkpt>
      <trkpt lat="48.63304" lon="7.17607">
        <ele>576.91</ele>
        <time>2020-08-19T18:12:10.000Z</time>
      </trkpt>
      <trkpt lat="48.63311" lon="7.17613">
        <ele>577.79</ele>
        <time>2020-08-19T18:12:12.000Z</time>
      </trkpt>
      <trkpt lat="48.63317" lon="7.17619">
        <ele>578.4</ele>
        <time>2020-08-19T18:12:14.000Z</time>
      </trkpt>
      <trkpt lat="48.63333" lon="7.17632">
        <ele>576.19</ele>
        <time>2020-08-19T18:12:17.000Z</time>
      </trkpt>
      <trkpt lat="48.63338" lon="7.17637">
        <ele>574.69</ele>
        <time>2020-08-19T18:12:18.000Z</time>
      </trkpt>
      <trkpt lat="48.63343" lon="7.17639">
        <ele>574.53</ele>
        <time>2020-08-19T18:12:19.000Z</time>
      </trkpt>
      <trkpt lat="48.63347" lon="7.17643">
        <ele>572.29</ele>
        <time>2020-08-19T18:12:20.000Z</time>
      </trkpt>
      <trkpt lat="48.63352" lon="7.17647">
        <ele>571.82</ele>
        <time>2020-08-19T18:12:21.000Z</time>
      </trkpt>
      <trkpt lat="48.63355" lon="7.17652">
        <ele>571.29</ele>
        <time>2020-08-19T18:12:22.000Z</time>
      </trkpt>
      <trkpt lat="48.6336" lon="7.17657">
        <ele>571.53</ele>
        <time>2020-08-19T18:12:23.000Z</time>
      </trkpt>
      <trkpt lat="48.63364" lon="7.17661">
        <ele>572.12</ele>
        <time>2020-08-19T18:12:24.000Z</time>
      </trkpt>
      <trkpt lat="48.63366" lon="7.17668">
        <ele>572.53</ele>
        <time>2020-08-19T18:12:25.000Z</time>
      </trkpt>
      <trkpt lat="48.63373" lon="7.17674">
        <ele>570.64</ele>
        <time>2020-08-19T18:12:27.000Z</time>
      </trkpt>
      <trkpt lat="48.63377" lon="7.17679">
        <ele>571.25</ele>
        <time>2020-08-19T18:12:28.000Z</time>
      </trkpt>
      <trkpt lat="48.63381" lon="7.17683">
        <ele>570.9</ele>
        <time>2020-08-19T18:12:29.000Z</time>
      </trkpt>
      <trkpt lat="48.63389" lon="7.17701">
        <ele>547.82</ele>
        <time>2020-08-19T18:12:32.000Z</time>
      </trkpt>
      <trkpt lat="48.63394" lon="7.17704">
        <ele>551.08</ele>
        <time>2020-08-19T18:12:33.000Z</time>
      </trkpt>
      <trkpt lat="48.634" lon="7.17707">
        <ele>553.31</ele>
        <time>2020-08-19T18:12:34.000Z</time>
      </trkpt>
      <trkpt lat="48.63404" lon="7.17712">
        <ele>556.91</ele>
        <time>2020-08-19T18:12:35.000Z</time>
      </trkpt>
      <trkpt lat="48.63408" lon="7.17716">
        <ele>559.7</ele>
        <time>2020-08-19T18:12:36.000Z</time>
      </trkpt>
      <trkpt lat="48.63415" lon="7.17726">
        <ele>560.23</ele>
        <time>2020-08-19T18:12:38.000Z</time>
      </trkpt>
      <trkpt lat="48.63421" lon="7.17734">
        <ele>563.65</ele>
        <time>2020-08-19T18:12:40.000Z</time>
      </trkpt>
      <trkpt lat="48.63428" lon="7.17743">
        <ele>563.77</ele>
        <time>2020-08-19T18:12:42.000Z</time>
      </trkpt>
      <trkpt lat="48.63431" lon="7.17749">
        <ele>564.99</ele>
        <time>2020-08-19T18:12:43.000Z</time>
      </trkpt>
      <trkpt lat="48.63437" lon="7.17754">
        <ele>568.56</ele>
        <time>2020-08-19T18:12:45.000Z</time>
      </trkpt>
      <trkpt lat="48.63443" lon="7.1776">
        <ele>567.2</ele>
        <time>2020-08-19T18:12:47.000Z</time>
      </trkpt>
      <trkpt lat="48.63449" lon="7.17767">
        <ele>565.53</ele>
        <time>2020-08-19T18:12:49.000Z</time>
      </trkpt>
      <trkpt lat="48.63454" lon="7.17769">
        <ele>563.42</ele>
        <time>2020-08-19T18:12:55.000Z</time>
      </trkpt>
      <trkpt lat="48.63458" lon="7.17775">
        <ele>549.05</ele>
        <time>2020-08-19T18:13:08.000Z</time>
      </trkpt>
      <trkpt lat="48.63463" lon="7.17785">
        <ele>552.71</ele>
        <time>2020-08-19T18:13:10.000Z</time>
      </trkpt>
      <trkpt lat="48.63468" lon="7.17788">
        <ele>555.72</ele>
        <time>2020-08-19T18:13:11.000Z</time>
      </trkpt>
      <trkpt lat="48.63472" lon="7.17793">
        <ele>558.33</ele>
        <time>2020-08-19T18:13:12.000Z</time>
      </trkpt>
      <trkpt lat="48.63479" lon="7.17804">
        <ele>562.02</ele>
        <time>2020-08-19T18:13:14.000Z</time>
      </trkpt>
      <trkpt lat="48.63483" lon="7.1781">
        <ele>563.17</ele>
        <time>2020-08-19T18:13:15.000Z</time>
      </trkpt>
      <trkpt lat="48.63487" lon="7.17816">
        <ele>565.16</ele>
        <time>2020-08-19T18:13:16.000Z</time>
      </trkpt>
      <trkpt lat="48.63492" lon="7.17822">
        <ele>565.32</ele>
        <time>2020-08-19T18:13:17.000Z</time>
      </trkpt>
      <trkpt lat="48.63496" lon="7.17828">
        <ele>566.11</ele>
        <time>2020-08-19T18:13:18.000Z</time>
      </trkpt>
      <trkpt lat="48.63501" lon="7.17834">
        <ele>566.33</ele>
        <time>2020-08-19T18:13:19.000Z</time>
      </trkpt>
      <trkpt lat="48.63506" lon="7.17842">
        <ele>567.65</ele>
        <time>2020-08-19T18:13:20.000Z</time>
      </trkpt>
      <trkpt lat="48.6351" lon="7.17849">
        <ele>568.42</ele>
        <time>2020-08-19T18:13:21.000Z</time>
      </trkpt>
      <trkpt lat="48.63513" lon="7.17857">
        <ele>567.27</ele>
        <time>2020-08-19T18:13:22.000Z</time>
      </trkpt>
      <trkpt lat="48.63516" lon="7.17865">
        <ele>566.65</ele>
        <time>2020-08-19T18:13:23.000Z</time>
      </trkpt>
      <trkpt lat="48.63543" lon="7.1791">
        <ele>566.33</ele>
        <time>2020-08-19T18:13:29.000Z</time>
      </trkpt>
      <trkpt lat="48.63547" lon="7.17914">
        <ele>566.12</ele>
        <time>2020-08-19T18:13:30.000Z</time>
      </trkpt>
      <trkpt lat="48.63549" lon="7.17921">
        <ele>567.77</ele>
        <time>2020-08-19T18:13:48.000Z</time>
      </trkpt>
      <trkpt lat="48.63553" lon="7.17927">
        <ele>567.29</ele>
        <time>2020-08-19T18:13:50.000Z</time>
      </trkpt>
      <trkpt lat="48.63556" lon="7.17933">
        <ele>568.13</ele>
        <time>2020-08-19T18:13:51.000Z</time>
      </trkpt>
      <trkpt lat="48.63562" lon="7.1794">
        <ele>567.62</ele>
        <time>2020-08-19T18:13:53.000Z</time>
      </trkpt>
      <trkpt lat="48.63567" lon="7.17948">
        <ele>568.09</ele>
        <time>2020-08-19T18:13:55.000Z</time>
      </trkpt>
      <trkpt lat="48.63571" lon="7.17953">
        <ele>568.94</ele>
        <time>2020-08-19T18:13:56.000Z</time>
      </trkpt>
      <trkpt lat="48.63575" lon="7.17961">
        <ele>567.99</ele>
        <time>2020-08-19T18:13:58.000Z</time>
      </trkpt>
      <trkpt lat="48.63578" lon="7.17966">
        <ele>569.84</ele>
        <time>2020-08-19T18:14:05.000Z</time>
      </trkpt>
      <trkpt lat="48.63579" lon="7.17973">
        <ele>569.42</ele>
        <time>2020-08-19T18:14:07.000Z</time>
      </trkpt>
      <trkpt lat="48.63583" lon="7.17982">
        <ele>569.93</ele>
        <time>2020-08-19T18:14:09.000Z</time>
      </trkpt>
      <trkpt lat="48.63587" lon="7.17991">
        <ele>571.49</ele>
        <time>2020-08-19T18:14:11.000Z</time>
      </trkpt>
      <trkpt lat="48.63591" lon="7.17999">
        <ele>570.63</ele>
        <time>2020-08-19T18:14:13.000Z</time>
      </trkpt>
      <trkpt lat="48.63593" lon="7.18006">
        <ele>567.34</ele>
        <time>2020-08-19T18:14:15.000Z</time>
      </trkpt>
      <trkpt lat="48.63596" lon="7.18016">
        <ele>566.67</ele>
        <time>2020-08-19T18:14:17.000Z</time>
      </trkpt>
      <trkpt lat="48.63601" lon="7.18021">
        <ele>567.14</ele>
        <time>2020-08-19T18:14:18.000Z</time>
      </trkpt>
      <trkpt lat="48.63604" lon="7.18033">
        <ele>566.9</ele>
        <time>2020-08-19T18:14:20.000Z</time>
      </trkpt>
      <trkpt lat="48.63607" lon="7.18046">
        <ele>566.89</ele>
        <time>2020-08-19T18:14:22.000Z</time>
      </trkpt>
      <trkpt lat="48.6361" lon="7.18055">
        <ele>567.14</ele>
        <time>2020-08-19T18:14:23.000Z</time>
      </trkpt>
      <trkpt lat="48.63631" lon="7.18097">
        <ele>570.98</ele>
        <time>2020-08-19T18:14:29.000Z</time>
      </trkpt>
      <trkpt lat="48.63632" lon="7.18107">
        <ele>571.43</ele>
        <time>2020-08-19T18:14:31.000Z</time>
      </trkpt>
      <trkpt lat="48.63637" lon="7.18112">
        <ele>575.58</ele>
        <time>2020-08-19T18:14:41.000Z</time>
      </trkpt>
      <trkpt lat="48.63639" lon="7.18119">
        <ele>572.93</ele>
        <time>2020-08-19T18:14:43.000Z</time>
      </trkpt>
      <trkpt lat="48.6364" lon="7.18126">
        <ele>573.24</ele>
        <time>2020-08-19T18:14:45.000Z</time>
      </trkpt>
      <trkpt lat="48.63651" lon="7.18138">
        <ele>571.54</ele>
        <time>2020-08-19T18:14:48.000Z</time>
      </trkpt>
      <trkpt lat="48.63664" lon="7.18159">
        <ele>573.09</ele>
        <time>2020-08-19T18:14:52.000Z</time>
      </trkpt>
      <trkpt lat="48.63673" lon="7.18176">
        <ele>574.09</ele>
        <time>2020-08-19T18:14:55.000Z</time>
      </trkpt>
      <trkpt lat="48.63676" lon="7.18182">
        <ele>574.94</ele>
        <time>2020-08-19T18:14:56.000Z</time>
      </trkpt>
      <trkpt lat="48.6368" lon="7.18184">
        <ele>578.22</ele>
        <time>2020-08-19T18:15:07.000Z</time>
      </trkpt>
      <trkpt lat="48.63683" lon="7.1819">
        <ele>578.57</ele>
        <time>2020-08-19T18:15:09.000Z</time>
      </trkpt>
      <trkpt lat="48.6368" lon="7.18196">
        <ele>578.44</ele>
        <time>2020-08-19T18:15:13.000Z</time>
      </trkpt>
      <trkpt lat="48.63676" lon="7.18201">
        <ele>580.02</ele>
        <time>2020-08-19T18:15:17.000Z</time>
      </trkpt>
      <trkpt lat="48.63671" lon="7.18196">
        <ele>575.52</ele>
        <time>2020-08-19T18:15:24.000Z</time>
      </trkpt>
      <trkpt lat="48.63667" lon="7.18192">
        <ele>573.75</ele>
        <time>2020-08-19T18:15:27.000Z</time>
      </trkpt>
      <trkpt lat="48.63663" lon="7.18188">
        <ele>574.68</ele>
        <time>2020-08-19T18:15:30.000Z</time>
      </trkpt>
      <trkpt lat="48.63658" lon="7.18192">
        <ele>573.69</ele>
        <time>2020-08-19T18:15:35.000Z</time>
      </trkpt>
      <trkpt lat="48.63653" lon="7.18194">
        <ele>572.52</ele>
        <time>2020-08-19T18:15:37.000Z</time>
      </trkpt>
      <trkpt lat="48.63648" lon="7.18195">
        <ele>572.16</ele>
        <time>2020-08-19T18:15:39.000Z</time>
      </trkpt>
      <trkpt lat="48.63643" lon="7.18196">
        <ele>569.46</ele>
        <time>2020-08-19T18:15:41.000Z</time>
      </trkpt>
      <trkpt lat="48.63638" lon="7.182">
        <ele>569.66</ele>
        <time>2020-08-19T18:15:44.000Z</time>
      </trkpt>
      <trkpt lat="48.63632" lon="7.18204">
        <ele>568.79</ele>
        <time>2020-08-19T18:15:48.000Z</time>
      </trkpt>
      <trkpt lat="48.63627" lon="7.18204">
        <ele>565.53</ele>
        <time>2020-08-19T18:15:50.000Z</time>
      </trkpt>
      <trkpt lat="48.63623" lon="7.18205">
        <ele>567.2</ele>
        <time>2020-08-19T18:15:52.000Z</time>
      </trkpt>
      <trkpt lat="48.63617" lon="7.18202">
        <ele>568.34</ele>
        <time>2020-08-19T18:15:54.000Z</time>
      </trkpt>
      <trkpt lat="48.63611" lon="7.18199">
        <ele>570.38</ele>
        <time>2020-08-19T18:15:56.000Z</time>
      </trkpt>
      <trkpt lat="48.63605" lon="7.182">
        <ele>571.58</ele>
        <time>2020-08-19T18:15:58.000Z</time>
      </trkpt>
      <trkpt lat="48.63601" lon="7.18203">
        <ele>569.84</ele>
        <time>2020-08-19T18:16:00.000Z</time>
      </trkpt>
      <trkpt lat="48.63598" lon="7.18209">
        <ele>571.15</ele>
        <time>2020-08-19T18:16:03.000Z</time>
      </trkpt>
      <trkpt lat="48.63594" lon="7.18213">
        <ele>569.84</ele>
        <time>2020-08-19T18:16:06.000Z</time>
      </trkpt>
      <trkpt lat="48.6359" lon="7.18209">
        <ele>566.08</ele>
        <time>2020-08-19T18:16:09.000Z</time>
      </trkpt>
      <trkpt lat="48.63584" lon="7.18205">
        <ele>564.83</ele>
        <time>2020-08-19T18:16:11.000Z</time>
      </trkpt>
      <trkpt lat="48.63572" lon="7.18205">
        <ele>563.55</ele>
        <time>2020-08-19T18:16:15.000Z</time>
      </trkpt>
      <trkpt lat="48.63559" lon="7.18197">
        <ele>562.56</ele>
        <time>2020-08-19T18:16:19.000Z</time>
      </trkpt>
      <trkpt lat="48.63555" lon="7.18194">
        <ele>562.29</ele>
        <time>2020-08-19T18:16:21.000Z</time>
      </trkpt>
      <trkpt lat="48.63556" lon="7.18201">
        <ele>556.3</ele>
        <time>2020-08-19T18:16:40.000Z</time>
      </trkpt>
      <trkpt lat="48.6356" lon="7.18206">
        <ele>553.2</ele>
        <time>2020-08-19T18:16:46.000Z</time>
      </trkpt>
      <trkpt lat="48.63558" lon="7.18214">
        <ele>552.55</ele>
        <time>2020-08-19T18:16:55.000Z</time>
      </trkpt>
      <trkpt lat="48.63559" lon="7.18222">
        <ele>552.33</ele>
        <time>2020-08-19T18:17:02.000Z</time>
      </trkpt>
      <trkpt lat="48.63558" lon="7.18232">
        <ele>552.17</ele>
        <time>2020-08-19T18:17:05.000Z</time>
      </trkpt>
      <trkpt lat="48.63555" lon="7.18241">
        <ele>552.35</ele>
        <time>2020-08-19T18:17:07.000Z</time>
      </trkpt>
      <trkpt lat="48.6356" lon="7.18244">
        <ele>554.96</ele>
        <time>2020-08-19T18:17:12.000Z</time>
      </trkpt>
      <trkpt lat="48.6356" lon="7.18237">
        <ele>550.61</ele>
        <time>2020-08-19T18:17:17.000Z</time>
      </trkpt>
      <trkpt lat="48.63528" lon="7.18185">
        <ele>537.57</ele>
        <time>2020-08-19T18:17:56.000Z</time>
      </trkpt>
      <trkpt lat="48.63523" lon="7.18179">
        <ele>541.88</ele>
        <time>2020-08-19T18:18:08.000Z</time>
      </trkpt>
      <trkpt lat="48.63518" lon="7.18173">
        <ele>532.05</ele>
        <time>2020-08-19T18:18:16.000Z</time>
      </trkpt>
      <trkpt lat="48.63515" lon="7.18168">
        <ele>529.33</ele>
        <time>2020-08-19T18:18:21.000Z</time>
      </trkpt>
      <trkpt lat="48.63491" lon="7.18122">
        <ele>520.69</ele>
        <time>2020-08-19T18:18:48.000Z</time>
      </trkpt>
      <trkpt lat="48.63493" lon="7.18116">
        <ele>520.96</ele>
        <time>2020-08-19T18:18:56.000Z</time>
      </trkpt>
      <trkpt lat="48.63488" lon="7.18114">
        <ele>523.01</ele>
        <time>2020-08-19T18:19:03.000Z</time>
      </trkpt>
      <trkpt lat="48.63487" lon="7.18107">
        <ele>521.33</ele>
        <time>2020-08-19T18:19:09.000Z</time>
      </trkpt>
      <trkpt lat="48.63482" lon="7.18105">
        <ele>517.27</ele>
        <time>2020-08-19T18:19:13.000Z</time>
      </trkpt>
      <trkpt lat="48.63477" lon="7.18102">
        <ele>522.79</ele>
        <time>2020-08-19T18:19:18.000Z</time>
      </trkpt>
      <trkpt lat="48.63477" lon="7.18109">
        <ele>517.03</ele>
        <time>2020-08-19T18:19:41.000Z</time>
      </trkpt>
      <trkpt lat="48.63476" lon="7.18118">
        <ele>515</ele>
        <time>2020-08-19T18:19:43.000Z</time>
      </trkpt>
      <trkpt lat="48.63476" lon="7.18125">
        <ele>515.15</ele>
        <time>2020-08-19T18:19:45.000Z</time>
      </trkpt>
      <trkpt lat="48.63475" lon="7.18132">
        <ele>513.37</ele>
        <time>2020-08-19T18:19:51.000Z</time>
      </trkpt>
      <trkpt lat="48.63471" lon="7.18138">
        <ele>509.33</ele>
        <time>2020-08-19T18:19:54.000Z</time>
      </trkpt>
      <trkpt lat="48.63467" lon="7.18145">
        <ele>508.06</ele>
        <time>2020-08-19T18:19:57.000Z</time>
      </trkpt>
      <trkpt lat="48.63467" lon="7.18153">
        <ele>509</ele>
        <time>2020-08-19T18:19:59.000Z</time>
      </trkpt>
      <trkpt lat="48.63467" lon="7.18162">
        <ele>507.56</ele>
        <time>2020-08-19T18:20:02.000Z</time>
      </trkpt>
      <trkpt lat="48.63468" lon="7.18171">
        <ele>506.87</ele>
        <time>2020-08-19T18:20:04.000Z</time>
      </trkpt>
      <trkpt lat="48.63469" lon="7.18178">
        <ele>505.27</ele>
        <time>2020-08-19T18:20:06.000Z</time>
      </trkpt>
      <trkpt lat="48.63471" lon="7.18188">
        <ele>505.31</ele>
        <time>2020-08-19T18:20:08.000Z</time>
      </trkpt>
      <trkpt lat="48.63472" lon="7.18198">
        <ele>500.52</ele>
        <time>2020-08-19T18:20:10.000Z</time>
      </trkpt>
      <trkpt lat="48.63472" lon="7.1822">
        <ele>499.04</ele>
        <time>2020-08-19T18:20:15.000Z</time>
      </trkpt>
      <trkpt lat="48.63473" lon="7.18228">
        <ele>497.35</ele>
        <time>2020-08-19T18:20:17.000Z</time>
      </trkpt>
      <trkpt lat="48.63474" lon="7.18235">
        <ele>494.55</ele>
        <time>2020-08-19T18:20:19.000Z</time>
      </trkpt>
      <trkpt lat="48.63475" lon="7.18244">
        <ele>492.92</ele>
        <time>2020-08-19T18:20:22.000Z</time>
      </trkpt>
      <trkpt lat="48.63476" lon="7.18251">
        <ele>492.83</ele>
        <time>2020-08-19T18:20:25.000Z</time>
      </trkpt>
      <trkpt lat="48.63475" lon="7.1826">
        <ele>493.43</ele>
        <time>2020-08-19T18:20:27.000Z</time>
      </trkpt>
      <trkpt lat="48.63473" lon="7.18268">
        <ele>490.66</ele>
        <time>2020-08-19T18:20:31.000Z</time>
      </trkpt>
      <trkpt lat="48.6347" lon="7.18293">
        <ele>488.41</ele>
        <time>2020-08-19T18:20:48.000Z</time>
      </trkpt>
      <trkpt lat="48.63469" lon="7.18316">
        <ele>483.96</ele>
        <time>2020-08-19T18:20:53.000Z</time>
      </trkpt>
      <trkpt lat="48.63471" lon="7.18324">
        <ele>483.54</ele>
        <time>2020-08-19T18:20:56.000Z</time>
      </trkpt>
      <trkpt lat="48.63473" lon="7.18333">
        <ele>482.68</ele>
        <time>2020-08-19T18:20:59.000Z</time>
      </trkpt>
      <trkpt lat="48.63475" lon="7.18341">
        <ele>479.93</ele>
        <time>2020-08-19T18:21:01.000Z</time>
      </trkpt>
      <trkpt lat="48.63476" lon="7.18352">
        <ele>480.29</ele>
        <time>2020-08-19T18:21:03.000Z</time>
      </trkpt>
      <trkpt lat="48.63475" lon="7.18362">
        <ele>479.44</ele>
        <time>2020-08-19T18:21:05.000Z</time>
      </trkpt>
      <trkpt lat="48.63476" lon="7.1837">
        <ele>480.84</ele>
        <time>2020-08-19T18:21:07.000Z</time>
      </trkpt>
      <trkpt lat="48.63476" lon="7.18379">
        <ele>477.53</ele>
        <time>2020-08-19T18:21:09.000Z</time>
      </trkpt>
      <trkpt lat="48.63475" lon="7.18389">
        <ele>473.64</ele>
        <time>2020-08-19T18:21:11.000Z</time>
      </trkpt>
      <trkpt lat="48.63475" lon="7.18399">
        <ele>472.4</ele>
        <time>2020-08-19T18:21:13.000Z</time>
      </trkpt>
      <trkpt lat="48.63475" lon="7.18407">
        <ele>470.78</ele>
        <time>2020-08-19T18:21:15.000Z</time>
      </trkpt>
      <trkpt lat="48.63474" lon="7.18414">
        <ele>468.24</ele>
        <time>2020-08-19T18:21:18.000Z</time>
      </trkpt>
      <trkpt lat="48.63473" lon="7.18422">
        <ele>470</ele>
        <time>2020-08-19T18:21:21.000Z</time>
      </trkpt>
      <trkpt lat="48.63472" lon="7.18429">
        <ele>469.84</ele>
        <time>2020-08-19T18:21:25.000Z</time>
      </trkpt>
      <trkpt lat="48.63471" lon="7.18436">
        <ele>463.7</ele>
        <time>2020-08-19T18:21:32.000Z</time>
      </trkpt>
      <trkpt lat="48.63494" lon="7.18504">
        <ele>470.63</ele>
        <time>2020-08-19T18:21:48.000Z</time>
      </trkpt>
      <trkpt lat="48.63498" lon="7.18508">
        <ele>471.75</ele>
        <time>2020-08-19T18:21:50.000Z</time>
      </trkpt>
      <trkpt lat="48.63504" lon="7.18509">
        <ele>474.84</ele>
        <time>2020-08-19T18:21:58.000Z</time>
      </trkpt>
      <trkpt lat="48.63506" lon="7.18515">
        <ele>477.52</ele>
        <time>2020-08-19T18:22:09.000Z</time>
      </trkpt>
      <trkpt lat="48.6351" lon="7.18523">
        <ele>477.53</ele>
        <time>2020-08-19T18:22:11.000Z</time>
      </trkpt>
      <trkpt lat="48.63513" lon="7.18533">
        <ele>479.23</ele>
        <time>2020-08-19T18:22:13.000Z</time>
      </trkpt>
      <trkpt lat="48.63518" lon="7.18541">
        <ele>476.9</ele>
        <time>2020-08-19T18:22:15.000Z</time>
      </trkpt>
      <trkpt lat="48.63523" lon="7.18553">
        <ele>474.42</ele>
        <time>2020-08-19T18:22:17.000Z</time>
      </trkpt>
      <trkpt lat="48.63525" lon="7.18569">
        <ele>471.61</ele>
        <time>2020-08-19T18:22:19.000Z</time>
      </trkpt>
      <trkpt lat="48.63528" lon="7.18577">
        <ele>470.82</ele>
        <time>2020-08-19T18:22:20.000Z</time>
      </trkpt>
      <trkpt lat="48.6353" lon="7.18584">
        <ele>469.41</ele>
        <time>2020-08-19T18:22:21.000Z</time>
      </trkpt>
      <trkpt lat="48.63532" lon="7.1859">
        <ele>469.53</ele>
        <time>2020-08-19T18:22:22.000Z</time>
      </trkpt>
      <trkpt lat="48.63534" lon="7.18598">
        <ele>467.57</ele>
        <time>2020-08-19T18:22:23.000Z</time>
      </trkpt>
      <trkpt lat="48.63537" lon="7.18608">
        <ele>467.07</ele>
        <time>2020-08-19T18:22:24.000Z</time>
      </trkpt>
      <trkpt lat="48.63539" lon="7.18616">
        <ele>466.6</ele>
        <time>2020-08-19T18:22:25.000Z</time>
      </trkpt>
      <trkpt lat="48.63543" lon="7.18623">
        <ele>466.78</ele>
        <time>2020-08-19T18:22:26.000Z</time>
      </trkpt>
      <trkpt lat="48.63545" lon="7.1863">
        <ele>466.45</ele>
        <time>2020-08-19T18:22:27.000Z</time>
      </trkpt>
      <trkpt lat="48.63549" lon="7.18641">
        <ele>464.74</ele>
        <time>2020-08-19T18:22:28.000Z</time>
      </trkpt>
      <trkpt lat="48.63554" lon="7.18649">
        <ele>464.25</ele>
        <time>2020-08-19T18:22:29.000Z</time>
      </trkpt>
      <trkpt lat="48.6356" lon="7.18655">
        <ele>464.58</ele>
        <time>2020-08-19T18:22:30.000Z</time>
      </trkpt>
      <trkpt lat="48.63563" lon="7.1866">
        <ele>463.66</ele>
        <time>2020-08-19T18:22:31.000Z</time>
      </trkpt>
      <trkpt lat="48.63565" lon="7.18669">
        <ele>464.67</ele>
        <time>2020-08-19T18:22:32.000Z</time>
      </trkpt>
      <trkpt lat="48.63567" lon="7.18676">
        <ele>463.5</ele>
        <time>2020-08-19T18:22:33.000Z</time>
      </trkpt>
      <trkpt lat="48.6357" lon="7.18684">
        <ele>463.83</ele>
        <time>2020-08-19T18:22:34.000Z</time>
      </trkpt>
      <trkpt lat="48.63574" lon="7.18693">
        <ele>464.23</ele>
        <time>2020-08-19T18:22:35.000Z</time>
      </trkpt>
      <trkpt lat="48.63578" lon="7.187">
        <ele>463.47</ele>
        <time>2020-08-19T18:22:36.000Z</time>
      </trkpt>
      <trkpt lat="48.63583" lon="7.18708">
        <ele>462.78</ele>
        <time>2020-08-19T18:22:37.000Z</time>
      </trkpt>
      <trkpt lat="48.63588" lon="7.18715">
        <ele>463.33</ele>
        <time>2020-08-19T18:22:38.000Z</time>
      </trkpt>
      <trkpt lat="48.63599" lon="7.18728">
        <ele>465.81</ele>
        <time>2020-08-19T18:22:40.000Z</time>
      </trkpt>
      <trkpt lat="48.63603" lon="7.18733">
        <ele>464.47</ele>
        <time>2020-08-19T18:22:41.000Z</time>
      </trkpt>
      <trkpt lat="48.63605" lon="7.18739">
        <ele>465.98</ele>
        <time>2020-08-19T18:22:45.000Z</time>
      </trkpt>
      <trkpt lat="48.6361" lon="7.18744">
        <ele>470.18</ele>
        <time>2020-08-19T18:22:56.000Z</time>
      </trkpt>
      <trkpt lat="48.63613" lon="7.18747">
        <ele>472.16</ele>
        <time>2020-08-19T18:22:58.000Z</time>
      </trkpt>
      <trkpt lat="48.63618" lon="7.18751">
        <ele>473.06</ele>
        <time>2020-08-19T18:23:00.000Z</time>
      </trkpt>
      <trkpt lat="48.63626" lon="7.18755">
        <ele>472.08</ele>
        <time>2020-08-19T18:23:02.000Z</time>
      </trkpt>
      <trkpt lat="48.63634" lon="7.18761">
        <ele>471.96</ele>
        <time>2020-08-19T18:23:04.000Z</time>
      </trkpt>
      <trkpt lat="48.63645" lon="7.18773">
        <ele>468.29</ele>
        <time>2020-08-19T18:23:07.000Z</time>
      </trkpt>
      <trkpt lat="48.63653" lon="7.18778">
        <ele>468.91</ele>
        <time>2020-08-19T18:23:09.000Z</time>
      </trkpt>
      <trkpt lat="48.63658" lon="7.18779">
        <ele>468.86</ele>
        <time>2020-08-19T18:23:10.000Z</time>
      </trkpt>
      <trkpt lat="48.63665" lon="7.18784">
        <ele>470.81</ele>
        <time>2020-08-19T18:23:12.000Z</time>
      </trkpt>
      <trkpt lat="48.63659" lon="7.18784">
        <ele>470.26</ele>
        <time>2020-08-19T18:23:16.000Z</time>
      </trkpt>
      <trkpt lat="48.63654" lon="7.18782">
        <ele>471.86</ele>
        <time>2020-08-19T18:23:18.000Z</time>
      </trkpt>
      <trkpt lat="48.63646" lon="7.18777">
        <ele>474.25</ele>
        <time>2020-08-19T18:23:20.000Z</time>
      </trkpt>
      <trkpt lat="48.63641" lon="7.18774">
        <ele>474.4</ele>
        <time>2020-08-19T18:23:21.000Z</time>
      </trkpt>
      <trkpt lat="48.63639" lon="7.18768">
        <ele>472.38</ele>
        <time>2020-08-19T18:23:22.000Z</time>
      </trkpt>
      <trkpt lat="48.63634" lon="7.18763">
        <ele>472.1</ele>
        <time>2020-08-19T18:23:23.000Z</time>
      </trkpt>
      <trkpt lat="48.63629" lon="7.18759">
        <ele>471.95</ele>
        <time>2020-08-19T18:23:24.000Z</time>
      </trkpt>
      <trkpt lat="48.63625" lon="7.18752">
        <ele>472.08</ele>
        <time>2020-08-19T18:23:25.000Z</time>
      </trkpt>
      <trkpt lat="48.63618" lon="7.18746">
        <ele>470.51</ele>
        <time>2020-08-19T18:23:27.000Z</time>
      </trkpt>
      <trkpt lat="48.63613" lon="7.18751">
        <ele>470.91</ele>
        <time>2020-08-19T18:23:29.000Z</time>
      </trkpt>
      <trkpt lat="48.63613" lon="7.18758">
        <ele>471.49</ele>
        <time>2020-08-19T18:23:31.000Z</time>
      </trkpt>
      <trkpt lat="48.63616" lon="7.18767">
        <ele>470.13</ele>
        <time>2020-08-19T18:23:33.000Z</time>
      </trkpt>
      <trkpt lat="48.63619" lon="7.18773">
        <ele>471.23</ele>
        <time>2020-08-19T18:23:34.000Z</time>
      </trkpt>
      <trkpt lat="48.63622" lon="7.18781">
        <ele>468.91</ele>
        <time>2020-08-19T18:23:36.000Z</time>
      </trkpt>
      <trkpt lat="48.63625" lon="7.18787">
        <ele>468.96</ele>
        <time>2020-08-19T18:23:37.000Z</time>
      </trkpt>
      <trkpt lat="48.63629" lon="7.18793">
        <ele>468.37</ele>
        <time>2020-08-19T18:23:39.000Z</time>
      </trkpt>
      <trkpt lat="48.63632" lon="7.18799">
        <ele>465.88</ele>
        <time>2020-08-19T18:23:40.000Z</time>
      </trkpt>
      <trkpt lat="48.63636" lon="7.18808">
        <ele>459.95</ele>
        <time>2020-08-19T18:23:42.000Z</time>
      </trkpt>
      <trkpt lat="48.63643" lon="7.18809">
        <ele>466.73</ele>
        <time>2020-08-19T18:23:48.000Z</time>
      </trkpt>
      <trkpt lat="48.6365" lon="7.18819">
        <ele>465.61</ele>
        <time>2020-08-19T18:23:50.000Z</time>
      </trkpt>
      <trkpt lat="48.63655" lon="7.18826">
        <ele>462.9</ele>
        <time>2020-08-19T18:23:51.000Z</time>
      </trkpt>
      <trkpt lat="48.63658" lon="7.18833">
        <ele>461.69</ele>
        <time>2020-08-19T18:23:52.000Z</time>
      </trkpt>
      <trkpt lat="48.63662" lon="7.1884">
        <ele>461.44</ele>
        <time>2020-08-19T18:23:54.000Z</time>
      </trkpt>
      <trkpt lat="48.63662" lon="7.18862">
        <ele>459.18</ele>
        <time>2020-08-19T18:23:57.000Z</time>
      </trkpt>
      <trkpt lat="48.63667" lon="7.18866">
        <ele>457.97</ele>
        <time>2020-08-19T18:23:58.000Z</time>
      </trkpt>
      <trkpt lat="48.63674" lon="7.18879">
        <ele>458.27</ele>
        <time>2020-08-19T18:24:00.000Z</time>
      </trkpt>
      <trkpt lat="48.63675" lon="7.18886">
        <ele>457.16</ele>
        <time>2020-08-19T18:24:01.000Z</time>
      </trkpt>
      <trkpt lat="48.63678" lon="7.18896">
        <ele>456.21</ele>
        <time>2020-08-19T18:24:03.000Z</time>
      </trkpt>
      <trkpt lat="48.63684" lon="7.18902">
        <ele>454.1</ele>
        <time>2020-08-19T18:24:04.000Z</time>
      </trkpt>
      <trkpt lat="48.63685" lon="7.18909">
        <ele>453.68</ele>
        <time>2020-08-19T18:24:05.000Z</time>
      </trkpt>
      <trkpt lat="48.63686" lon="7.18923">
        <ele>453.84</ele>
        <time>2020-08-19T18:24:07.000Z</time>
      </trkpt>
      <trkpt lat="48.63691" lon="7.18938">
        <ele>452.25</ele>
        <time>2020-08-19T18:24:09.000Z</time>
      </trkpt>
      <trkpt lat="48.63692" lon="7.18946">
        <ele>452.17</ele>
        <time>2020-08-19T18:24:10.000Z</time>
      </trkpt>
      <trkpt lat="48.63693" lon="7.18954">
        <ele>451.84</ele>
        <time>2020-08-19T18:24:11.000Z</time>
      </trkpt>
      <trkpt lat="48.63693" lon="7.18964">
        <ele>449.45</ele>
        <time>2020-08-19T18:24:12.000Z</time>
      </trkpt>
      <trkpt lat="48.63696" lon="7.18981">
        <ele>449.83</ele>
        <time>2020-08-19T18:24:14.000Z</time>
      </trkpt>
      <trkpt lat="48.63697" lon="7.18995">
        <ele>446.87</ele>
        <time>2020-08-19T18:24:16.000Z</time>
      </trkpt>
      <trkpt lat="48.63696" lon="7.19002">
        <ele>444.96</ele>
        <time>2020-08-19T18:24:18.000Z</time>
      </trkpt>
      <trkpt lat="48.63695" lon="7.19009">
        <ele>445.44</ele>
        <time>2020-08-19T18:24:32.000Z</time>
      </trkpt>
      <trkpt lat="48.637" lon="7.19026">
        <ele>443.04</ele>
        <time>2020-08-19T18:24:35.000Z</time>
      </trkpt>
      <trkpt lat="48.63703" lon="7.19052">
        <ele>441.01</ele>
        <time>2020-08-19T18:24:39.000Z</time>
      </trkpt>
      <trkpt lat="48.63703" lon="7.19062">
        <ele>436.12</ele>
        <time>2020-08-19T18:24:41.000Z</time>
      </trkpt>
      <trkpt lat="48.63703" lon="7.19074">
        <ele>437.19</ele>
        <time>2020-08-19T18:24:43.000Z</time>
      </trkpt>
      <trkpt lat="48.63703" lon="7.19082">
        <ele>435.78</ele>
        <time>2020-08-19T18:24:45.000Z</time>
      </trkpt>
      <trkpt lat="48.637" lon="7.19088">
        <ele>432.26</ele>
        <time>2020-08-19T18:24:59.000Z</time>
      </trkpt>
      <trkpt lat="48.63691" lon="7.19098">
        <ele>431.43</ele>
        <time>2020-08-19T18:25:02.000Z</time>
      </trkpt>
      <trkpt lat="48.63685" lon="7.19106">
        <ele>431.71</ele>
        <time>2020-08-19T18:25:04.000Z</time>
      </trkpt>
      <trkpt lat="48.63681" lon="7.1911">
        <ele>431.55</ele>
        <time>2020-08-19T18:25:06.000Z</time>
      </trkpt>
      <trkpt lat="48.63677" lon="7.19115">
        <ele>433.58</ele>
        <time>2020-08-19T18:25:08.000Z</time>
      </trkpt>
      <trkpt lat="48.63671" lon="7.19121">
        <ele>433.23</ele>
        <time>2020-08-19T18:25:10.000Z</time>
      </trkpt>
      <trkpt lat="48.63665" lon="7.19121">
        <ele>428.08</ele>
        <time>2020-08-19T18:25:24.000Z</time>
      </trkpt>
      <trkpt lat="48.63657" lon="7.19125">
        <ele>427.26</ele>
        <time>2020-08-19T18:25:26.000Z</time>
      </trkpt>
      <trkpt lat="48.63654" lon="7.1913">
        <ele>429.07</ele>
        <time>2020-08-19T18:25:34.000Z</time>
      </trkpt>
      <trkpt lat="48.63649" lon="7.19132">
        <ele>424.72</ele>
        <time>2020-08-19T18:25:43.000Z</time>
      </trkpt>
      <trkpt lat="48.63645" lon="7.19131">
        <ele>424.21</ele>
        <time>2020-08-19T18:25:48.000Z</time>
      </trkpt>
      <trkpt lat="48.63639" lon="7.19133">
        <ele>421.14</ele>
        <time>2020-08-19T18:25:54.000Z</time>
      </trkpt>
      <trkpt lat="48.63635" lon="7.19136">
        <ele>419.37</ele>
        <time>2020-08-19T18:25:56.000Z</time>
      </trkpt>
      <trkpt lat="48.6363" lon="7.19139">
        <ele>418.69</ele>
        <time>2020-08-19T18:25:58.000Z</time>
      </trkpt>
      <trkpt lat="48.63626" lon="7.19144">
        <ele>417.47</ele>
        <time>2020-08-19T18:26:00.000Z</time>
      </trkpt>
      <trkpt lat="48.6362" lon="7.19152">
        <ele>415.68</ele>
        <time>2020-08-19T18:26:02.000Z</time>
      </trkpt>
      <trkpt lat="48.63616" lon="7.19159">
        <ele>414.98</ele>
        <time>2020-08-19T18:26:04.000Z</time>
      </trkpt>
      <trkpt lat="48.63613" lon="7.19165">
        <ele>416.7</ele>
        <time>2020-08-19T18:26:06.000Z</time>
      </trkpt>
      <trkpt lat="48.63611" lon="7.19173">
        <ele>416.3</ele>
        <time>2020-08-19T18:26:10.000Z</time>
      </trkpt>
      <trkpt lat="48.63607" lon="7.19178">
        <ele>416.98</ele>
        <time>2020-08-19T18:26:14.000Z</time>
      </trkpt>
      <trkpt lat="48.63603" lon="7.19186">
        <ele>413.11</ele>
        <time>2020-08-19T18:26:19.000Z</time>
      </trkpt>
      <trkpt lat="48.63601" lon="7.19194">
        <ele>411.91</ele>
        <time>2020-08-19T18:26:24.000Z</time>
      </trkpt>
      <trkpt lat="48.63597" lon="7.19199">
        <ele>406.7</ele>
        <time>2020-08-19T18:26:28.000Z</time>
      </trkpt>
      <trkpt lat="48.63593" lon="7.19204">
        <ele>405.69</ele>
        <time>2020-08-19T18:26:30.000Z</time>
      </trkpt>
      <trkpt lat="48.63591" lon="7.19211">
        <ele>404.62</ele>
        <time>2020-08-19T18:26:32.000Z</time>
      </trkpt>
      <trkpt lat="48.63588" lon="7.1922">
        <ele>396.35</ele>
        <time>2020-08-19T18:26:34.000Z</time>
      </trkpt>
      <trkpt lat="48.63587" lon="7.19228">
        <ele>400.23</ele>
        <time>2020-08-19T18:26:36.000Z</time>
      </trkpt>
      <trkpt lat="48.63587" lon="7.19236">
        <ele>401.35</ele>
        <time>2020-08-19T18:26:38.000Z</time>
      </trkpt>
      <trkpt lat="48.63585" lon="7.19245">
        <ele>402.37</ele>
        <time>2020-08-19T18:26:40.000Z</time>
      </trkpt>
      <trkpt lat="48.6358" lon="7.19261">
        <ele>400.36</ele>
        <time>2020-08-19T18:26:43.000Z</time>
      </trkpt>
      <trkpt lat="48.63571" lon="7.19296">
        <ele>390.12</ele>
        <time>2020-08-19T18:26:49.000Z</time>
      </trkpt>
      <trkpt lat="48.6357" lon="7.19306">
        <ele>392.73</ele>
        <time>2020-08-19T18:26:51.000Z</time>
      </trkpt>
      <trkpt lat="48.63569" lon="7.19313">
        <ele>395.55</ele>
        <time>2020-08-19T18:26:56.000Z</time>
      </trkpt>
      <trkpt lat="48.63566" lon="7.19321">
        <ele>400.32</ele>
        <time>2020-08-19T18:27:11.000Z</time>
      </trkpt>
      <trkpt lat="48.63546" lon="7.19329">
        <ele>393.45</ele>
        <time>2020-08-19T18:27:15.000Z</time>
      </trkpt>
      <trkpt lat="48.63541" lon="7.1933">
        <ele>393.1</ele>
        <time>2020-08-19T18:27:20.000Z</time>
      </trkpt>
      <trkpt lat="48.63531" lon="7.19335">
        <ele>384.45</ele>
        <time>2020-08-19T18:27:37.000Z</time>
      </trkpt>
      <trkpt lat="48.63526" lon="7.19338">
        <ele>382.98</ele>
        <time>2020-08-19T18:27:41.000Z</time>
      </trkpt>
      <trkpt lat="48.63526" lon="7.19345">
        <ele>379.88</ele>
        <time>2020-08-19T18:28:02.000Z</time>
      </trkpt>
      <trkpt lat="48.63532" lon="7.19384">
        <ele>378.63</ele>
        <time>2020-08-19T18:28:22.000Z</time>
      </trkpt>
      <trkpt lat="48.63526" lon="7.19387">
        <ele>377.55</ele>
        <time>2020-08-19T18:28:25.000Z</time>
      </trkpt>
      <trkpt lat="48.63521" lon="7.19389">
        <ele>373.1</ele>
        <time>2020-08-19T18:28:28.000Z</time>
      </trkpt>
      <trkpt lat="48.6351" lon="7.19392">
        <ele>372.01</ele>
        <time>2020-08-19T18:28:34.000Z</time>
      </trkpt>
      <trkpt lat="48.63505" lon="7.19394">
        <ele>369.39</ele>
        <time>2020-08-19T18:28:37.000Z</time>
      </trkpt>
      <trkpt lat="48.635" lon="7.19395">
        <ele>368.64</ele>
        <time>2020-08-19T18:28:43.000Z</time>
      </trkpt>
      <trkpt lat="48.63496" lon="7.19394">
        <ele>371.23</ele>
        <time>2020-08-19T18:28:49.000Z</time>
      </trkpt>
      <trkpt lat="48.63491" lon="7.1939">
        <ele>371.18</ele>
        <time>2020-08-19T18:28:59.000Z</time>
      </trkpt>
      <trkpt lat="48.63487" lon="7.19393">
        <ele>369.91</ele>
        <time>2020-08-19T18:29:12.000Z</time>
      </trkpt>
      <trkpt lat="48.63482" lon="7.19394">
        <ele>372.81</ele>
        <time>2020-08-19T18:29:15.000Z</time>
      </trkpt>
      <trkpt lat="48.63478" lon="7.1939">
        <ele>374.27</ele>
        <time>2020-08-19T18:29:23.000Z</time>
      </trkpt>
      <trkpt lat="48.63473" lon="7.19391">
        <ele>371.8</ele>
        <time>2020-08-19T18:29:27.000Z</time>
      </trkpt>
      <trkpt lat="48.63468" lon="7.19392">
        <ele>373.8</ele>
        <time>2020-08-19T18:29:31.000Z</time>
      </trkpt>
      <trkpt lat="48.63463" lon="7.19395">
        <ele>381.76</ele>
        <time>2020-08-19T18:29:36.000Z</time>
      </trkpt>
      <trkpt lat="48.63458" lon="7.19395">
        <ele>382.51</ele>
        <time>2020-08-19T18:29:40.000Z</time>
      </trkpt>
      <trkpt lat="48.63453" lon="7.1939">
        <ele>384.52</ele>
        <time>2020-08-19T18:29:44.000Z</time>
      </trkpt>
      <trkpt lat="48.63448" lon="7.19386">
        <ele>385.64</ele>
        <time>2020-08-19T18:29:48.000Z</time>
      </trkpt>
      <trkpt lat="48.63443" lon="7.19385">
        <ele>386.71</ele>
        <time>2020-08-19T18:29:52.000Z</time>
      </trkpt>
      <trkpt lat="48.6344" lon="7.19378">
        <ele>378.2</ele>
        <time>2020-08-19T18:29:56.000Z</time>
      </trkpt>
      <trkpt lat="48.63437" lon="7.19372">
        <ele>378.57</ele>
        <time>2020-08-19T18:30:01.000Z</time>
      </trkpt>
      <trkpt lat="48.63436" lon="7.19364">
        <ele>378.29</ele>
        <time>2020-08-19T18:30:06.000Z</time>
      </trkpt>
      <trkpt lat="48.6343" lon="7.19359">
        <ele>380.93</ele>
        <time>2020-08-19T18:30:11.000Z</time>
      </trkpt>
      <trkpt lat="48.63426" lon="7.19358">
        <ele>385.41</ele>
        <time>2020-08-19T18:30:15.000Z</time>
      </trkpt>
      <trkpt lat="48.63401" lon="7.1937">
        <ele>386.67</ele>
        <time>2020-08-19T18:30:29.000Z</time>
      </trkpt>
      <trkpt lat="48.63396" lon="7.1937">
        <ele>382.53</ele>
        <time>2020-08-19T18:30:32.000Z</time>
      </trkpt>
      <trkpt lat="48.63384" lon="7.1937">
        <ele>383.71</ele>
        <time>2020-08-19T18:30:41.000Z</time>
      </trkpt>
      <trkpt lat="48.6338" lon="7.19375">
        <ele>386.51</ele>
        <time>2020-08-19T18:30:46.000Z</time>
      </trkpt>
      <trkpt lat="48.63377" lon="7.19381">
        <ele>388.13</ele>
        <time>2020-08-19T18:30:50.000Z</time>
      </trkpt>
      <trkpt lat="48.63375" lon="7.19387">
        <ele>387.13</ele>
        <time>2020-08-19T18:31:02.000Z</time>
      </trkpt>
      <trkpt lat="48.6338" lon="7.1939">
        <ele>384.07</ele>
        <time>2020-08-19T18:31:10.000Z</time>
      </trkpt>
      <trkpt lat="48.63376" lon="7.19387">
        <ele>378.87</ele>
        <time>2020-08-19T18:31:19.000Z</time>
      </trkpt>
      <trkpt lat="48.63384" lon="7.19384">
        <ele>381.18</ele>
        <time>2020-08-19T18:31:27.000Z</time>
      </trkpt>
      <trkpt lat="48.63393" lon="7.19382">
        <ele>380.55</ele>
        <time>2020-08-19T18:31:29.000Z</time>
      </trkpt>
      <trkpt lat="48.63401" lon="7.19382">
        <ele>380.8</ele>
        <time>2020-08-19T18:31:31.000Z</time>
      </trkpt>
      <trkpt lat="48.63405" lon="7.19384">
        <ele>380.57</ele>
        <time>2020-08-19T18:31:32.000Z</time>
      </trkpt>
      <trkpt lat="48.6341" lon="7.19385">
        <ele>380.71</ele>
        <time>2020-08-19T18:31:33.000Z</time>
      </trkpt>
      <trkpt lat="48.63418" lon="7.19386">
        <ele>382.14</ele>
        <time>2020-08-19T18:31:35.000Z</time>
      </trkpt>
      <trkpt lat="48.63424" lon="7.19387">
        <ele>382.04</ele>
        <time>2020-08-19T18:31:36.000Z</time>
      </trkpt>
      <trkpt lat="48.6343" lon="7.19389">
        <ele>382.2</ele>
        <time>2020-08-19T18:31:37.000Z</time>
      </trkpt>
      <trkpt lat="48.63436" lon="7.19392">
        <ele>382.4</ele>
        <time>2020-08-19T18:31:38.000Z</time>
      </trkpt>
      <trkpt lat="48.63441" lon="7.19395">
        <ele>381.9</ele>
        <time>2020-08-19T18:31:39.000Z</time>
      </trkpt>
      <trkpt lat="48.63447" lon="7.19396">
        <ele>382.44</ele>
        <time>2020-08-19T18:31:40.000Z</time>
      </trkpt>
      <trkpt lat="48.63453" lon="7.19398">
        <ele>382.66</ele>
        <time>2020-08-19T18:31:41.000Z</time>
      </trkpt>
      <trkpt lat="48.63459" lon="7.19403">
        <ele>381.34</ele>
        <time>2020-08-19T18:31:42.000Z</time>
      </trkpt>
      <trkpt lat="48.63463" lon="7.19405">
        <ele>381.08</ele>
        <time>2020-08-19T18:31:43.000Z</time>
      </trkpt>
      <trkpt lat="48.63469" lon="7.19407">
        <ele>380.84</ele>
        <time>2020-08-19T18:31:44.000Z</time>
      </trkpt>
      <trkpt lat="48.63475" lon="7.19411">
        <ele>382.58</ele>
        <time>2020-08-19T18:31:45.000Z</time>
      </trkpt>
      <trkpt lat="48.63481" lon="7.19414">
        <ele>382.23</ele>
        <time>2020-08-19T18:31:46.000Z</time>
      </trkpt>
      <trkpt lat="48.63486" lon="7.19418">
        <ele>383.12</ele>
        <time>2020-08-19T18:31:47.000Z</time>
      </trkpt>
      <trkpt lat="48.63492" lon="7.19422">
        <ele>382.27</ele>
        <time>2020-08-19T18:31:48.000Z</time>
      </trkpt>
      <trkpt lat="48.63497" lon="7.19426">
        <ele>382.35</ele>
        <time>2020-08-19T18:31:49.000Z</time>
      </trkpt>
      <trkpt lat="48.63502" lon="7.1943">
        <ele>382.26</ele>
        <time>2020-08-19T18:31:50.000Z</time>
      </trkpt>
      <trkpt lat="48.63508" lon="7.19434">
        <ele>382.03</ele>
        <time>2020-08-19T18:31:51.000Z</time>
      </trkpt>
      <trkpt lat="48.63513" lon="7.19436">
        <ele>383.28</ele>
        <time>2020-08-19T18:31:52.000Z</time>
      </trkpt>
      <trkpt lat="48.63518" lon="7.19439">
        <ele>383.09</ele>
        <time>2020-08-19T18:31:53.000Z</time>
      </trkpt>
      <trkpt lat="48.63524" lon="7.19441">
        <ele>383.79</ele>
        <time>2020-08-19T18:31:54.000Z</time>
      </trkpt>
      <trkpt lat="48.63529" lon="7.19443">
        <ele>383.84</ele>
        <time>2020-08-19T18:31:55.000Z</time>
      </trkpt>
      <trkpt lat="48.63535" lon="7.19444">
        <ele>383.91</ele>
        <time>2020-08-19T18:31:56.000Z</time>
      </trkpt>
      <trkpt lat="48.63541" lon="7.19446">
        <ele>383.62</ele>
        <time>2020-08-19T18:31:57.000Z</time>
      </trkpt>
      <trkpt lat="48.63547" lon="7.19446">
        <ele>382.9</ele>
        <time>2020-08-19T18:31:58.000Z</time>
      </trkpt>
      <trkpt lat="48.63553" lon="7.19446">
        <ele>383.35</ele>
        <time>2020-08-19T18:31:59.000Z</time>
      </trkpt>
      <trkpt lat="48.63559" lon="7.19446">
        <ele>383.29</ele>
        <time>2020-08-19T18:32:00.000Z</time>
      </trkpt>
      <trkpt lat="48.63566" lon="7.19446">
        <ele>382.11</ele>
        <time>2020-08-19T18:32:01.000Z</time>
      </trkpt>
      <trkpt lat="48.63572" lon="7.19446">
        <ele>382.16</ele>
        <time>2020-08-19T18:32:02.000Z</time>
      </trkpt>
      <trkpt lat="48.63578" lon="7.19446">
        <ele>381.76</ele>
        <time>2020-08-19T18:32:03.000Z</time>
      </trkpt>
      <trkpt lat="48.63585" lon="7.19444">
        <ele>380.53</ele>
        <time>2020-08-19T18:32:04.000Z</time>
      </trkpt>
      <trkpt lat="48.63591" lon="7.19442">
        <ele>380.33</ele>
        <time>2020-08-19T18:32:05.000Z</time>
      </trkpt>
      <trkpt lat="48.63597" lon="7.19441">
        <ele>379.73</ele>
        <time>2020-08-19T18:32:06.000Z</time>
      </trkpt>
      <trkpt lat="48.63603" lon="7.19439">
        <ele>379.89</ele>
        <time>2020-08-19T18:32:07.000Z</time>
      </trkpt>
      <trkpt lat="48.6361" lon="7.19437">
        <ele>379.37</ele>
        <time>2020-08-19T18:32:08.000Z</time>
      </trkpt>
      <trkpt lat="48.63616" lon="7.19438">
        <ele>377.43</ele>
        <time>2020-08-19T18:32:09.000Z</time>
      </trkpt>
      <trkpt lat="48.63621" lon="7.1944">
        <ele>376.77</ele>
        <time>2020-08-19T18:32:10.000Z</time>
      </trkpt>
      <trkpt lat="48.63626" lon="7.19442">
        <ele>377.52</ele>
        <time>2020-08-19T18:32:11.000Z</time>
      </trkpt>
      <trkpt lat="48.63634" lon="7.19447">
        <ele>377.85</ele>
        <time>2020-08-19T18:32:13.000Z</time>
      </trkpt>
      <trkpt lat="48.63639" lon="7.19446">
        <ele>381.81</ele>
        <time>2020-08-19T18:32:29.000Z</time>
      </trkpt>
      <trkpt lat="48.63645" lon="7.19446">
        <ele>381.45</ele>
        <time>2020-08-19T18:32:31.000Z</time>
      </trkpt>
      <trkpt lat="48.63654" lon="7.19446">
        <ele>382.16</ele>
        <time>2020-08-19T18:32:33.000Z</time>
      </trkpt>
      <trkpt lat="48.63659" lon="7.19446">
        <ele>381.81</ele>
        <time>2020-08-19T18:32:34.000Z</time>
      </trkpt>
      <trkpt lat="48.63665" lon="7.19446">
        <ele>380.32</ele>
        <time>2020-08-19T18:32:35.000Z</time>
      </trkpt>
      <trkpt lat="48.6367" lon="7.19444">
        <ele>379.04</ele>
        <time>2020-08-19T18:32:36.000Z</time>
      </trkpt>
      <trkpt lat="48.63681" lon="7.19443">
        <ele>378.29</ele>
        <time>2020-08-19T18:32:38.000Z</time>
      </trkpt>
      <trkpt lat="48.63688" lon="7.19444">
        <ele>377.88</ele>
        <time>2020-08-19T18:32:39.000Z</time>
      </trkpt>
      <trkpt lat="48.63694" lon="7.19444">
        <ele>378.17</ele>
        <time>2020-08-19T18:32:40.000Z</time>
      </trkpt>
      <trkpt lat="48.637" lon="7.19449">
        <ele>376.69</ele>
        <time>2020-08-19T18:32:41.000Z</time>
      </trkpt>
      <trkpt lat="48.63707" lon="7.19454">
        <ele>375.5</ele>
        <time>2020-08-19T18:32:42.000Z</time>
      </trkpt>
      <trkpt lat="48.63712" lon="7.19461">
        <ele>375.11</ele>
        <time>2020-08-19T18:32:43.000Z</time>
      </trkpt>
      <trkpt lat="48.63718" lon="7.19467">
        <ele>374.42</ele>
        <time>2020-08-19T18:32:44.000Z</time>
      </trkpt>
      <trkpt lat="48.63723" lon="7.19474">
        <ele>374.26</ele>
        <time>2020-08-19T18:32:45.000Z</time>
      </trkpt>
      <trkpt lat="48.63729" lon="7.19481">
        <ele>374.08</ele>
        <time>2020-08-19T18:32:46.000Z</time>
      </trkpt>
      <trkpt lat="48.63734" lon="7.19487">
        <ele>373.92</ele>
        <time>2020-08-19T18:32:47.000Z</time>
      </trkpt>
      <trkpt lat="48.6374" lon="7.19493">
        <ele>374.13</ele>
        <time>2020-08-19T18:32:48.000Z</time>
      </trkpt>
      <trkpt lat="48.63745" lon="7.195">
        <ele>374.6</ele>
        <time>2020-08-19T18:32:49.000Z</time>
      </trkpt>
      <trkpt lat="48.63751" lon="7.19506">
        <ele>374.37</ele>
        <time>2020-08-19T18:32:50.000Z</time>
      </trkpt>
      <trkpt lat="48.63757" lon="7.19513">
        <ele>375.04</ele>
        <time>2020-08-19T18:32:51.000Z</time>
      </trkpt>
      <trkpt lat="48.63763" lon="7.1952">
        <ele>375.13</ele>
        <time>2020-08-19T18:32:52.000Z</time>
      </trkpt>
      <trkpt lat="48.63769" lon="7.19529">
        <ele>373.94</ele>
        <time>2020-08-19T18:32:53.000Z</time>
      </trkpt>
      <trkpt lat="48.63775" lon="7.19538">
        <ele>374.01</ele>
        <time>2020-08-19T18:32:54.000Z</time>
      </trkpt>
      <trkpt lat="48.63781" lon="7.19548">
        <ele>373.23</ele>
        <time>2020-08-19T18:32:55.000Z</time>
      </trkpt>
      <trkpt lat="48.63786" lon="7.19556">
        <ele>373.14</ele>
        <time>2020-08-19T18:32:56.000Z</time>
      </trkpt>
      <trkpt lat="48.63792" lon="7.19566">
        <ele>372.74</ele>
        <time>2020-08-19T18:32:57.000Z</time>
      </trkpt>
      <trkpt lat="48.63798" lon="7.19574">
        <ele>373.69</ele>
        <time>2020-08-19T18:32:58.000Z</time>
      </trkpt>
      <trkpt lat="48.63805" lon="7.19582">
        <ele>373.7</ele>
        <time>2020-08-19T18:32:59.000Z</time>
      </trkpt>
      <trkpt lat="48.63813" lon="7.19589">
        <ele>373.98</ele>
        <time>2020-08-19T18:33:00.000Z</time>
      </trkpt>
      <trkpt lat="48.63821" lon="7.19594">
        <ele>374.1</ele>
        <time>2020-08-19T18:33:01.000Z</time>
      </trkpt>
      <trkpt lat="48.63828" lon="7.19601">
        <ele>371.98</ele>
        <time>2020-08-19T18:33:02.000Z</time>
      </trkpt>
      <trkpt lat="48.63837" lon="7.19605">
        <ele>371.62</ele>
        <time>2020-08-19T18:33:03.000Z</time>
      </trkpt>
      <trkpt lat="48.63845" lon="7.19609">
        <ele>370.81</ele>
        <time>2020-08-19T18:33:04.000Z</time>
      </trkpt>
      <trkpt lat="48.63853" lon="7.1961">
        <ele>369.87</ele>
        <time>2020-08-19T18:33:05.000Z</time>
      </trkpt>
      <trkpt lat="48.63862" lon="7.19612">
        <ele>370.01</ele>
        <time>2020-08-19T18:33:06.000Z</time>
      </trkpt>
      <trkpt lat="48.63871" lon="7.19611">
        <ele>370.94</ele>
        <time>2020-08-19T18:33:07.000Z</time>
      </trkpt>
      <trkpt lat="48.6388" lon="7.1961">
        <ele>370.68</ele>
        <time>2020-08-19T18:33:08.000Z</time>
      </trkpt>
      <trkpt lat="48.63888" lon="7.19608">
        <ele>371.35</ele>
        <time>2020-08-19T18:33:09.000Z</time>
      </trkpt>
      <trkpt lat="48.63897" lon="7.19604">
        <ele>370.86</ele>
        <time>2020-08-19T18:33:10.000Z</time>
      </trkpt>
      <trkpt lat="48.63904" lon="7.19599">
        <ele>370.7</ele>
        <time>2020-08-19T18:33:11.000Z</time>
      </trkpt>
      <trkpt lat="48.63912" lon="7.19592">
        <ele>371.59</ele>
        <time>2020-08-19T18:33:12.000Z</time>
      </trkpt>
      <trkpt lat="48.63919" lon="7.19584">
        <ele>372.33</ele>
        <time>2020-08-19T18:33:13.000Z</time>
      </trkpt>
      <trkpt lat="48.63925" lon="7.19577">
        <ele>371.96</ele>
        <time>2020-08-19T18:33:14.000Z</time>
      </trkpt>
      <trkpt lat="48.63932" lon="7.19568">
        <ele>371.78</ele>
        <time>2020-08-19T18:33:15.000Z</time>
      </trkpt>
      <trkpt lat="48.63938" lon="7.1956">
        <ele>371.6</ele>
        <time>2020-08-19T18:33:16.000Z</time>
      </trkpt>
      <trkpt lat="48.63944" lon="7.19549">
        <ele>372.98</ele>
        <time>2020-08-19T18:33:17.000Z</time>
      </trkpt>
      <trkpt lat="48.6395" lon="7.19542">
        <ele>371.73</ele>
        <time>2020-08-19T18:33:18.000Z</time>
      </trkpt>
      <trkpt lat="48.63956" lon="7.19533">
        <ele>370</ele>
        <time>2020-08-19T18:33:19.000Z</time>
      </trkpt>
      <trkpt lat="48.63962" lon="7.19524">
        <ele>370.2</ele>
        <time>2020-08-19T18:33:20.000Z</time>
      </trkpt>
      <trkpt lat="48.6397" lon="7.19519">
        <ele>367.04</ele>
        <time>2020-08-19T18:33:21.000Z</time>
      </trkpt>
      <trkpt lat="48.63977" lon="7.19513">
        <ele>367.45</ele>
        <time>2020-08-19T18:33:22.000Z</time>
      </trkpt>
      <trkpt lat="48.63984" lon="7.1951">
        <ele>365.47</ele>
        <time>2020-08-19T18:33:23.000Z</time>
      </trkpt>
      <trkpt lat="48.63993" lon="7.19509">
        <ele>367.25</ele>
        <time>2020-08-19T18:33:24.000Z</time>
      </trkpt>
      <trkpt lat="48.64001" lon="7.19513">
        <ele>366.13</ele>
        <time>2020-08-19T18:33:25.000Z</time>
      </trkpt>
      <trkpt lat="48.64009" lon="7.19518">
        <ele>365.28</ele>
        <time>2020-08-19T18:33:26.000Z</time>
      </trkpt>
      <trkpt lat="48.64017" lon="7.19523">
        <ele>363.85</ele>
        <time>2020-08-19T18:33:27.000Z</time>
      </trkpt>
      <trkpt lat="48.64026" lon="7.19531">
        <ele>362.99</ele>
        <time>2020-08-19T18:33:28.000Z</time>
      </trkpt>
      <trkpt lat="48.64033" lon="7.19537">
        <ele>362.97</ele>
        <time>2020-08-19T18:33:29.000Z</time>
      </trkpt>
      <trkpt lat="48.64041" lon="7.19543">
        <ele>363.09</ele>
        <time>2020-08-19T18:33:30.000Z</time>
      </trkpt>
      <trkpt lat="48.6405" lon="7.19549">
        <ele>363.65</ele>
        <time>2020-08-19T18:33:31.000Z</time>
      </trkpt>
      <trkpt lat="48.64057" lon="7.19556">
        <ele>360.99</ele>
        <time>2020-08-19T18:33:32.000Z</time>
      </trkpt>
      <trkpt lat="48.64064" lon="7.19561">
        <ele>361.12</ele>
        <time>2020-08-19T18:33:33.000Z</time>
      </trkpt>
      <trkpt lat="48.64072" lon="7.19568">
        <ele>361.13</ele>
        <time>2020-08-19T18:33:34.000Z</time>
      </trkpt>
      <trkpt lat="48.64079" lon="7.19573">
        <ele>361.21</ele>
        <time>2020-08-19T18:33:35.000Z</time>
      </trkpt>
      <trkpt lat="48.64088" lon="7.19577">
        <ele>361.44</ele>
        <time>2020-08-19T18:33:36.000Z</time>
      </trkpt>
      <trkpt lat="48.64099" lon="7.19577">
        <ele>359.55</ele>
        <time>2020-08-19T18:33:37.000Z</time>
      </trkpt>
      <trkpt lat="48.64108" lon="7.19578">
        <ele>359.21</ele>
        <time>2020-08-19T18:33:38.000Z</time>
      </trkpt>
      <trkpt lat="48.64117" lon="7.19579">
        <ele>358.74</ele>
        <time>2020-08-19T18:33:39.000Z</time>
      </trkpt>
      <trkpt lat="48.64126" lon="7.19579">
        <ele>358.23</ele>
        <time>2020-08-19T18:33:40.000Z</time>
      </trkpt>
      <trkpt lat="48.64134" lon="7.19577">
        <ele>357.05</ele>
        <time>2020-08-19T18:33:41.000Z</time>
      </trkpt>
      <trkpt lat="48.64143" lon="7.19576">
        <ele>357</ele>
        <time>2020-08-19T18:33:42.000Z</time>
      </trkpt>
      <trkpt lat="48.64152" lon="7.19576">
        <ele>356.74</ele>
        <time>2020-08-19T18:33:43.000Z</time>
      </trkpt>
      <trkpt lat="48.64161" lon="7.19576">
        <ele>356.52</ele>
        <time>2020-08-19T18:33:44.000Z</time>
      </trkpt>
      <trkpt lat="48.6417" lon="7.19573">
        <ele>357.99</ele>
        <time>2020-08-19T18:33:45.000Z</time>
      </trkpt>
      <trkpt lat="48.64178" lon="7.19573">
        <ele>358.05</ele>
        <time>2020-08-19T18:33:46.000Z</time>
      </trkpt>
      <trkpt lat="48.64186" lon="7.19572">
        <ele>359.37</ele>
        <time>2020-08-19T18:33:47.000Z</time>
      </trkpt>
      <trkpt lat="48.64194" lon="7.19573">
        <ele>360.5</ele>
        <time>2020-08-19T18:33:48.000Z</time>
      </trkpt>
      <trkpt lat="48.64203" lon="7.19574">
        <ele>359.45</ele>
        <time>2020-08-19T18:33:49.000Z</time>
      </trkpt>
      <trkpt lat="48.64212" lon="7.19575">
        <ele>360.48</ele>
        <time>2020-08-19T18:33:50.000Z</time>
      </trkpt>
      <trkpt lat="48.64221" lon="7.19579">
        <ele>360.36</ele>
        <time>2020-08-19T18:33:51.000Z</time>
      </trkpt>
      <trkpt lat="48.64228" lon="7.19585">
        <ele>360.62</ele>
        <time>2020-08-19T18:33:52.000Z</time>
      </trkpt>
      <trkpt lat="48.64236" lon="7.19592">
        <ele>360.06</ele>
        <time>2020-08-19T18:33:53.000Z</time>
      </trkpt>
      <trkpt lat="48.64243" lon="7.19599">
        <ele>359.99</ele>
        <time>2020-08-19T18:33:54.000Z</time>
      </trkpt>
      <trkpt lat="48.6425" lon="7.19607">
        <ele>359.26</ele>
        <time>2020-08-19T18:33:55.000Z</time>
      </trkpt>
      <trkpt lat="48.64257" lon="7.19614">
        <ele>358.36</ele>
        <time>2020-08-19T18:33:56.000Z</time>
      </trkpt>
      <trkpt lat="48.64264" lon="7.19622">
        <ele>358.77</ele>
        <time>2020-08-19T18:33:57.000Z</time>
      </trkpt>
      <trkpt lat="48.64271" lon="7.1963">
        <ele>360.73</ele>
        <time>2020-08-19T18:33:58.000Z</time>
      </trkpt>
      <trkpt lat="48.64277" lon="7.19641">
        <ele>359.83</ele>
        <time>2020-08-19T18:33:59.000Z</time>
      </trkpt>
      <trkpt lat="48.64284" lon="7.19651">
        <ele>360.55</ele>
        <time>2020-08-19T18:34:00.000Z</time>
      </trkpt>
      <trkpt lat="48.6429" lon="7.1966">
        <ele>361.13</ele>
        <time>2020-08-19T18:34:01.000Z</time>
      </trkpt>
      <trkpt lat="48.64296" lon="7.19669">
        <ele>359.53</ele>
        <time>2020-08-19T18:34:02.000Z</time>
      </trkpt>
      <trkpt lat="48.64302" lon="7.19676">
        <ele>358.08</ele>
        <time>2020-08-19T18:34:03.000Z</time>
      </trkpt>
      <trkpt lat="48.6431" lon="7.19682">
        <ele>357.66</ele>
        <time>2020-08-19T18:34:04.000Z</time>
      </trkpt>
      <trkpt lat="48.64318" lon="7.19688">
        <ele>358.37</ele>
        <time>2020-08-19T18:34:05.000Z</time>
      </trkpt>
      <trkpt lat="48.64326" lon="7.19688">
        <ele>356.51</ele>
        <time>2020-08-19T18:34:06.000Z</time>
      </trkpt>
      <trkpt lat="48.64335" lon="7.19689">
        <ele>355.24</ele>
        <time>2020-08-19T18:34:07.000Z</time>
      </trkpt>
      <trkpt lat="48.64343" lon="7.19687">
        <ele>354.94</ele>
        <time>2020-08-19T18:34:08.000Z</time>
      </trkpt>
      <trkpt lat="48.64352" lon="7.19686">
        <ele>354.37</ele>
        <time>2020-08-19T18:34:09.000Z</time>
      </trkpt>
      <trkpt lat="48.64361" lon="7.19684">
        <ele>352.84</ele>
        <time>2020-08-19T18:34:10.000Z</time>
      </trkpt>
      <trkpt lat="48.6437" lon="7.19682">
        <ele>353.43</ele>
        <time>2020-08-19T18:34:11.000Z</time>
      </trkpt>
      <trkpt lat="48.64378" lon="7.19679">
        <ele>352.95</ele>
        <time>2020-08-19T18:34:12.000Z</time>
      </trkpt>
      <trkpt lat="48.64387" lon="7.19679">
        <ele>351.25</ele>
        <time>2020-08-19T18:34:13.000Z</time>
      </trkpt>
      <trkpt lat="48.64396" lon="7.19678">
        <ele>350.91</ele>
        <time>2020-08-19T18:34:14.000Z</time>
      </trkpt>
      <trkpt lat="48.64404" lon="7.19677">
        <ele>350.18</ele>
        <time>2020-08-19T18:34:15.000Z</time>
      </trkpt>
      <trkpt lat="48.64413" lon="7.19679">
        <ele>350.44</ele>
        <time>2020-08-19T18:34:16.000Z</time>
      </trkpt>
      <trkpt lat="48.64421" lon="7.19681">
        <ele>351.34</ele>
        <time>2020-08-19T18:34:17.000Z</time>
      </trkpt>
      <trkpt lat="48.64429" lon="7.19687">
        <ele>349.93</ele>
        <time>2020-08-19T18:34:18.000Z</time>
      </trkpt>
      <trkpt lat="48.64436" lon="7.19692">
        <ele>351.21</ele>
        <time>2020-08-19T18:34:19.000Z</time>
      </trkpt>
      <trkpt lat="48.64444" lon="7.19699">
        <ele>351.41</ele>
        <time>2020-08-19T18:34:20.000Z</time>
      </trkpt>
      <trkpt lat="48.64449" lon="7.19706">
        <ele>350.93</ele>
        <time>2020-08-19T18:34:21.000Z</time>
      </trkpt>
      <trkpt lat="48.64455" lon="7.19711">
        <ele>351.44</ele>
        <time>2020-08-19T18:34:22.000Z</time>
      </trkpt>
      <trkpt lat="48.64458" lon="7.19718">
        <ele>350.14</ele>
        <time>2020-08-19T18:34:23.000Z</time>
      </trkpt>
      <trkpt lat="48.64461" lon="7.19723">
        <ele>349.96</ele>
        <time>2020-08-19T18:34:24.000Z</time>
      </trkpt>
      <trkpt lat="48.64466" lon="7.19724">
        <ele>349.45</ele>
        <time>2020-08-19T18:34:37.000Z</time>
      </trkpt>
      <trkpt lat="48.64471" lon="7.19731">
        <ele>349</ele>
        <time>2020-08-19T18:34:39.000Z</time>
      </trkpt>
      <trkpt lat="48.64477" lon="7.19738">
        <ele>348.3</ele>
        <time>2020-08-19T18:34:41.000Z</time>
      </trkpt>
      <trkpt lat="48.64481" lon="7.19741">
        <ele>348.82</ele>
        <time>2020-08-19T18:34:42.000Z</time>
      </trkpt>
      <trkpt lat="48.64485" lon="7.19746">
        <ele>348.99</ele>
        <time>2020-08-19T18:34:43.000Z</time>
      </trkpt>
      <trkpt lat="48.64489" lon="7.1975">
        <ele>348.56</ele>
        <time>2020-08-19T18:34:44.000Z</time>
      </trkpt>
      <trkpt lat="48.64493" lon="7.19757">
        <ele>347.3</ele>
        <time>2020-08-19T18:34:45.000Z</time>
      </trkpt>
      <trkpt lat="48.64499" lon="7.19764">
        <ele>347.26</ele>
        <time>2020-08-19T18:34:46.000Z</time>
      </trkpt>
      <trkpt lat="48.64504" lon="7.19771">
        <ele>347.81</ele>
        <time>2020-08-19T18:34:47.000Z</time>
      </trkpt>
      <trkpt lat="48.6451" lon="7.19779">
        <ele>347.56</ele>
        <time>2020-08-19T18:34:48.000Z</time>
      </trkpt>
      <trkpt lat="48.64516" lon="7.19786">
        <ele>348.87</ele>
        <time>2020-08-19T18:34:49.000Z</time>
      </trkpt>
      <trkpt lat="48.64523" lon="7.19794">
        <ele>349.84</ele>
        <time>2020-08-19T18:34:50.000Z</time>
      </trkpt>
      <trkpt lat="48.64529" lon="7.19801">
        <ele>349.77</ele>
        <time>2020-08-19T18:34:51.000Z</time>
      </trkpt>
      <trkpt lat="48.64535" lon="7.19808">
        <ele>350.5</ele>
        <time>2020-08-19T18:34:52.000Z</time>
      </trkpt>
      <trkpt lat="48.64541" lon="7.19815">
        <ele>351.03</ele>
        <time>2020-08-19T18:34:53.000Z</time>
      </trkpt>
      <trkpt lat="48.64548" lon="7.19823">
        <ele>350.69</ele>
        <time>2020-08-19T18:34:54.000Z</time>
      </trkpt>
      <trkpt lat="48.64554" lon="7.19829">
        <ele>350.77</ele>
        <time>2020-08-19T18:34:55.000Z</time>
      </trkpt>
      <trkpt lat="48.64561" lon="7.19835">
        <ele>351.53</ele>
        <time>2020-08-19T18:34:56.000Z</time>
      </trkpt>
      <trkpt lat="48.64566" lon="7.19843">
        <ele>350.68</ele>
        <time>2020-08-19T18:34:57.000Z</time>
      </trkpt>
      <trkpt lat="48.64572" lon="7.19852">
        <ele>350.66</ele>
        <time>2020-08-19T18:34:58.000Z</time>
      </trkpt>
      <trkpt lat="48.64578" lon="7.19863">
        <ele>351.19</ele>
        <time>2020-08-19T18:34:59.000Z</time>
      </trkpt>
      <trkpt lat="48.64583" lon="7.19872">
        <ele>351.15</ele>
        <time>2020-08-19T18:35:00.000Z</time>
      </trkpt>
      <trkpt lat="48.6459" lon="7.19879">
        <ele>350.97</ele>
        <time>2020-08-19T18:35:01.000Z</time>
      </trkpt>
      <trkpt lat="48.64594" lon="7.19888">
        <ele>350.7</ele>
        <time>2020-08-19T18:35:02.000Z</time>
      </trkpt>
      <trkpt lat="48.64599" lon="7.19898">
        <ele>351.02</ele>
        <time>2020-08-19T18:35:03.000Z</time>
      </trkpt>
      <trkpt lat="48.64604" lon="7.19908">
        <ele>350.94</ele>
        <time>2020-08-19T18:35:04.000Z</time>
      </trkpt>
      <trkpt lat="48.64608" lon="7.19918">
        <ele>350.45</ele>
        <time>2020-08-19T18:35:05.000Z</time>
      </trkpt>
      <trkpt lat="48.64613" lon="7.19927">
        <ele>349.84</ele>
        <time>2020-08-19T18:35:06.000Z</time>
      </trkpt>
      <trkpt lat="48.64618" lon="7.19936">
        <ele>349.67</ele>
        <time>2020-08-19T18:35:07.000Z</time>
      </trkpt>
      <trkpt lat="48.64624" lon="7.19944">
        <ele>349.43</ele>
        <time>2020-08-19T18:35:08.000Z</time>
      </trkpt>
      <trkpt lat="48.6463" lon="7.19953">
        <ele>349.03</ele>
        <time>2020-08-19T18:35:09.000Z</time>
      </trkpt>
      <trkpt lat="48.64636" lon="7.1996">
        <ele>349.31</ele>
        <time>2020-08-19T18:35:10.000Z</time>
      </trkpt>
      <trkpt lat="48.64643" lon="7.19968">
        <ele>349.02</ele>
        <time>2020-08-19T18:35:11.000Z</time>
      </trkpt>
      <trkpt lat="48.64649" lon="7.19976">
        <ele>348.84</ele>
        <time>2020-08-19T18:35:12.000Z</time>
      </trkpt>
      <trkpt lat="48.64656" lon="7.19984">
        <ele>348.36</ele>
        <time>2020-08-19T18:35:13.000Z</time>
      </trkpt>
      <trkpt lat="48.64662" lon="7.19992">
        <ele>347.85</ele>
        <time>2020-08-19T18:35:14.000Z</time>
      </trkpt>
      <trkpt lat="48.64668" lon="7.2">
        <ele>347.62</ele>
        <time>2020-08-19T18:35:15.000Z</time>
      </trkpt>
      <trkpt lat="48.64674" lon="7.20008">
        <ele>346.47</ele>
        <time>2020-08-19T18:35:16.000Z</time>
      </trkpt>
      <trkpt lat="48.64681" lon="7.20016">
        <ele>346.48</ele>
        <time>2020-08-19T18:35:17.000Z</time>
      </trkpt>
      <trkpt lat="48.64686" lon="7.20023">
        <ele>346.57</ele>
        <time>2020-08-19T18:35:18.000Z</time>
      </trkpt>
      <trkpt lat="48.64693" lon="7.20031">
        <ele>345.76</ele>
        <time>2020-08-19T18:35:19.000Z</time>
      </trkpt>
      <trkpt lat="48.64699" lon="7.20038">
        <ele>346</ele>
        <time>2020-08-19T18:35:20.000Z</time>
      </trkpt>
      <trkpt lat="48.64705" lon="7.20046">
        <ele>345.21</ele>
        <time>2020-08-19T18:35:21.000Z</time>
      </trkpt>
      <trkpt lat="48.64712" lon="7.20054">
        <ele>345.34</ele>
        <time>2020-08-19T18:35:22.000Z</time>
      </trkpt>
      <trkpt lat="48.64773" lon="7.2012">
        <ele>344.92</ele>
        <time>2020-08-19T18:35:31.000Z</time>
      </trkpt>
      <trkpt lat="48.64779" lon="7.20124">
        <ele>346.51</ele>
        <time>2020-08-19T18:35:32.000Z</time>
      </trkpt>
      <trkpt lat="48.64783" lon="7.20128">
        <ele>347.78</ele>
        <time>2020-08-19T18:35:33.000Z</time>
      </trkpt>
      <trkpt lat="48.64788" lon="7.20129">
        <ele>351.34</ele>
        <time>2020-08-19T18:35:43.000Z</time>
      </trkpt>
      <trkpt lat="48.64793" lon="7.20123">
        <ele>348.41</ele>
        <time>2020-08-19T18:35:52.000Z</time>
      </trkpt>
      <trkpt lat="48.64799" lon="7.20115">
        <ele>347.17</ele>
        <time>2020-08-19T18:35:54.000Z</time>
      </trkpt>
      <trkpt lat="48.64802" lon="7.20109">
        <ele>347.3</ele>
        <time>2020-08-19T18:35:55.000Z</time>
      </trkpt>
      <trkpt lat="48.64806" lon="7.20105">
        <ele>347.43</ele>
        <time>2020-08-19T18:35:56.000Z</time>
      </trkpt>
      <trkpt lat="48.64811" lon="7.20096">
        <ele>347.57</ele>
        <time>2020-08-19T18:35:58.000Z</time>
      </trkpt>
      <trkpt lat="48.64815" lon="7.20091">
        <ele>347.02</ele>
        <time>2020-08-19T18:35:59.000Z</time>
      </trkpt>
      <trkpt lat="48.64819" lon="7.20085">
        <ele>346.19</ele>
        <time>2020-08-19T18:36:00.000Z</time>
      </trkpt>
      <trkpt lat="48.64822" lon="7.2008">
        <ele>345.89</ele>
        <time>2020-08-19T18:36:01.000Z</time>
      </trkpt>
      <trkpt lat="48.64827" lon="7.20074">
        <ele>345.72</ele>
        <time>2020-08-19T18:36:03.000Z</time>
      </trkpt>
      <trkpt lat="48.64832" lon="7.20074">
        <ele>346.44</ele>
        <time>2020-08-19T18:36:09.000Z</time>
      </trkpt>
      <trkpt lat="48.64839" lon="7.20074">
        <ele>348.45</ele>
        <time>2020-08-19T18:36:21.000Z</time>
      </trkpt>
    </trkseg>
  </trk>
  <trk>
    <name><![CDATA[secteur Saverne - Dabo - Petite Pierre_16]]></name>
    <trkseg>
      <trkpt lat="48.67566" lon="7.26045">
        <ele>474</ele>
        <time>2020-08-18T12:44:22Z</time>
      </trkpt>
      <trkpt lat="48.67566" lon="7.26045">
        <ele>474</ele>
        <time>2020-08-18T12:44:22Z</time>
      </trkpt>
      <trkpt lat="48.67566" lon="7.26045">
        <ele>474</ele>
        <time>2020-08-18T12:44:22Z</time>
      </trkpt>
      <trkpt lat="48.67566" lon="7.26045">
        <ele>474</ele>
        <time>2020-08-18T12:44:22Z</time>
      </trkpt>
      <trkpt lat="48.67566" lon="7.26045">
        <ele>474</ele>
        <time>2020-08-18T12:44:22Z</time>
      </trkpt>
      <trkpt lat="48.67566" lon="7.26045">
        <ele>474</ele>
        <time>2020-08-18T12:44:22Z</time>
      </trkpt>
      <trkpt lat="48.67566" lon="7.26045">
        <ele>474</ele>
        <time>2020-08-18T12:44:22Z</time>
      </trkpt>
      <trkpt lat="48.67566" lon="7.26045">
        <ele>474</ele>
        <time>2020-08-18T12:44:22Z</time>
      </trkpt>
      <trkpt lat="48.67566" lon="7.26045">
        <ele>474</ele>
        <time>2020-08-18T12:44:22Z</time>
      </trkpt>
      <trkpt lat="48.67568" lon="7.26052">
        <ele>473.1</ele>
        <time>2020-08-18T12:44:37Z</time>
      </trkpt>
      <trkpt lat="48.67568" lon="7.26063">
        <ele>472.3</ele>
        <time>2020-08-18T12:44:40Z</time>
      </trkpt>
      <trkpt lat="48.67568" lon="7.2607">
        <ele>471.4</ele>
        <time>2020-08-18T12:44:42Z</time>
      </trkpt>
      <trkpt lat="48.67567" lon="7.26078">
        <ele>470.3</ele>
        <time>2020-08-18T12:44:44Z</time>
      </trkpt>
      <trkpt lat="48.67567" lon="7.26085">
        <ele>469.3</ele>
        <time>2020-08-18T12:44:46Z</time>
      </trkpt>
      <trkpt lat="48.67566" lon="7.26093">
        <ele>468.3</ele>
        <time>2020-08-18T12:44:48Z</time>
      </trkpt>
      <trkpt lat="48.67565" lon="7.26102">
        <ele>467.4</ele>
        <time>2020-08-18T12:44:50Z</time>
      </trkpt>
      <trkpt lat="48.67565" lon="7.26112">
        <ele>467.1</ele>
        <time>2020-08-18T12:44:52Z</time>
      </trkpt>
      <trkpt lat="48.67566" lon="7.26122">
        <ele>466.5</ele>
        <time>2020-08-18T12:44:54Z</time>
      </trkpt>
      <trkpt lat="48.67566" lon="7.26129">
        <ele>465.8</ele>
        <time>2020-08-18T12:44:56Z</time>
      </trkpt>
      <trkpt lat="48.67568" lon="7.26135">
        <ele>466.8</ele>
        <time>2020-08-18T12:45:18Z</time>
      </trkpt>
      <trkpt lat="48.67573" lon="7.26139">
        <ele>466.8</ele>
        <time>2020-08-18T12:45:26Z</time>
      </trkpt>
      <trkpt lat="48.67577" lon="7.26143">
        <ele>465.8</ele>
        <time>2020-08-18T12:45:28Z</time>
      </trkpt>
      <trkpt lat="48.67581" lon="7.26147">
        <ele>464.7</ele>
        <time>2020-08-18T12:45:30Z</time>
      </trkpt>
      <trkpt lat="48.67586" lon="7.26152">
        <ele>463.9</ele>
        <time>2020-08-18T12:45:33Z</time>
      </trkpt>
      <trkpt lat="48.67588" lon="7.26159">
        <ele>462.2</ele>
        <time>2020-08-18T12:45:35Z</time>
      </trkpt>
      <trkpt lat="48.67591" lon="7.26166">
        <ele>460.9</ele>
        <time>2020-08-18T12:45:38Z</time>
      </trkpt>
      <trkpt lat="48.67593" lon="7.26172">
        <ele>460</ele>
        <time>2020-08-18T12:45:53Z</time>
      </trkpt>
    </trkseg>
  </trk>
  <trk>
    <name><![CDATA[secteur Saverne - Dabo - Petite Pierre_17]]></name>
    <trkseg>
      <trkpt lat="48.7803" lon="7.27405">
        <ele>313.6</ele>
        <time>2020-06-28T06:15:47Z</time>
      </trkpt>
      <trkpt lat="48.7803" lon="7.27405">
        <ele>313.6</ele>
        <time>2020-06-28T06:15:47Z</time>
      </trkpt>
      <trkpt lat="48.7803" lon="7.27405">
        <ele>313.6</ele>
        <time>2020-06-28T06:15:47Z</time>
      </trkpt>
      <trkpt lat="48.7803" lon="7.27405">
        <ele>313.6</ele>
        <time>2020-06-28T06:15:47Z</time>
      </trkpt>
      <trkpt lat="48.7803" lon="7.27405">
        <ele>313.6</ele>
        <time>2020-06-28T06:15:47Z</time>
      </trkpt>
      <trkpt lat="48.7803" lon="7.27405">
        <ele>313.6</ele>
        <time>2020-06-28T06:15:47Z</time>
      </trkpt>
      <trkpt lat="48.7803" lon="7.27405">
        <ele>313.6</ele>
        <time>2020-06-28T06:15:47Z</time>
      </trkpt>
      <trkpt lat="48.7803" lon="7.27405">
        <ele>313.6</ele>
        <time>2020-06-28T06:15:47Z</time>
      </trkpt>
      <trkpt lat="48.7803" lon="7.27405">
        <ele>313.6</ele>
        <time>2020-06-28T06:15:47Z</time>
      </trkpt>
      <trkpt lat="48.78039" lon="7.27408">
        <ele>313.5</ele>
        <time>2020-06-28T06:15:49Z</time>
      </trkpt>
      <trkpt lat="48.78043" lon="7.27409">
        <ele>313.5</ele>
        <time>2020-06-28T06:15:50Z</time>
      </trkpt>
      <trkpt lat="48.78048" lon="7.27411">
        <ele>313.3</ele>
        <time>2020-06-28T06:15:51Z</time>
      </trkpt>
      <trkpt lat="48.78053" lon="7.27412">
        <ele>313.2</ele>
        <time>2020-06-28T06:15:52Z</time>
      </trkpt>
      <trkpt lat="48.78062" lon="7.27416">
        <ele>312.5</ele>
        <time>2020-06-28T06:15:54Z</time>
      </trkpt>
      <trkpt lat="48.78072" lon="7.27419">
        <ele>311.8</ele>
        <time>2020-06-28T06:15:56Z</time>
      </trkpt>
      <trkpt lat="48.78082" lon="7.27421">
        <ele>311.5</ele>
        <time>2020-06-28T06:15:58Z</time>
      </trkpt>
      <trkpt lat="48.78092" lon="7.27423">
        <ele>311.2</ele>
        <time>2020-06-28T06:16:00Z</time>
      </trkpt>
      <trkpt lat="48.78102" lon="7.27424">
        <ele>310.4</ele>
        <time>2020-06-28T06:16:02Z</time>
      </trkpt>
      <trkpt lat="48.78113" lon="7.27427">
        <ele>310</ele>
        <time>2020-06-28T06:16:04Z</time>
      </trkpt>
      <trkpt lat="48.78125" lon="7.2743">
        <ele>309.6</ele>
        <time>2020-06-28T06:16:06Z</time>
      </trkpt>
      <trkpt lat="48.78136" lon="7.27435">
        <ele>308.9</ele>
        <time>2020-06-28T06:16:08Z</time>
      </trkpt>
      <trkpt lat="48.78149" lon="7.27444">
        <ele>307.4</ele>
        <time>2020-06-28T06:16:10Z</time>
      </trkpt>
      <trkpt lat="48.78158" lon="7.27452">
        <ele>307</ele>
        <time>2020-06-28T06:16:12Z</time>
      </trkpt>
      <trkpt lat="48.78169" lon="7.27461">
        <ele>307.4</ele>
        <time>2020-06-28T06:16:14Z</time>
      </trkpt>
      <trkpt lat="48.78178" lon="7.2747">
        <ele>307.5</ele>
        <time>2020-06-28T06:16:16Z</time>
      </trkpt>
      <trkpt lat="48.78189" lon="7.27479">
        <ele>307.7</ele>
        <time>2020-06-28T06:16:18Z</time>
      </trkpt>
      <trkpt lat="48.782" lon="7.27486">
        <ele>307.8</ele>
        <time>2020-06-28T06:16:20Z</time>
      </trkpt>
      <trkpt lat="48.7821" lon="7.27492">
        <ele>308.1</ele>
        <time>2020-06-28T06:16:22Z</time>
      </trkpt>
      <trkpt lat="48.7822" lon="7.27498">
        <ele>308.3</ele>
        <time>2020-06-28T06:16:24Z</time>
      </trkpt>
      <trkpt lat="48.7823" lon="7.27504">
        <ele>308.3</ele>
        <time>2020-06-28T06:16:26Z</time>
      </trkpt>
      <trkpt lat="48.7824" lon="7.2751">
        <ele>308.4</ele>
        <time>2020-06-28T06:16:28Z</time>
      </trkpt>
      <trkpt lat="48.78249" lon="7.27517">
        <ele>308.9</ele>
        <time>2020-06-28T06:16:30Z</time>
      </trkpt>
      <trkpt lat="48.78259" lon="7.27523">
        <ele>309.2</ele>
        <time>2020-06-28T06:16:32Z</time>
      </trkpt>
      <trkpt lat="48.78268" lon="7.27529">
        <ele>309.7</ele>
        <time>2020-06-28T06:16:34Z</time>
      </trkpt>
      <trkpt lat="48.78278" lon="7.27536">
        <ele>309.8</ele>
        <time>2020-06-28T06:16:36Z</time>
      </trkpt>
      <trkpt lat="48.78288" lon="7.27542">
        <ele>309.7</ele>
        <time>2020-06-28T06:16:38Z</time>
      </trkpt>
      <trkpt lat="48.78298" lon="7.27549">
        <ele>309.5</ele>
        <time>2020-06-28T06:16:40Z</time>
      </trkpt>
      <trkpt lat="48.78308" lon="7.27555">
        <ele>309.4</ele>
        <time>2020-06-28T06:16:42Z</time>
      </trkpt>
      <trkpt lat="48.78318" lon="7.27562">
        <ele>309.2</ele>
        <time>2020-06-28T06:16:44Z</time>
      </trkpt>
      <trkpt lat="48.78327" lon="7.27571">
        <ele>309</ele>
        <time>2020-06-28T06:16:46Z</time>
      </trkpt>
      <trkpt lat="48.78337" lon="7.2758">
        <ele>309</ele>
        <time>2020-06-28T06:16:48Z</time>
      </trkpt>
      <trkpt lat="48.78345" lon="7.27588">
        <ele>308.9</ele>
        <time>2020-06-28T06:16:50Z</time>
      </trkpt>
      <trkpt lat="48.78353" lon="7.27598">
        <ele>308.8</ele>
        <time>2020-06-28T06:16:52Z</time>
      </trkpt>
      <trkpt lat="48.78361" lon="7.27607">
        <ele>308.8</ele>
        <time>2020-06-28T06:16:54Z</time>
      </trkpt>
      <trkpt lat="48.78369" lon="7.27616">
        <ele>309.1</ele>
        <time>2020-06-28T06:16:56Z</time>
      </trkpt>
      <trkpt lat="48.78376" lon="7.27625">
        <ele>308.9</ele>
        <time>2020-06-28T06:16:58Z</time>
      </trkpt>
      <trkpt lat="48.78383" lon="7.27635">
        <ele>308.9</ele>
        <time>2020-06-28T06:17:00Z</time>
      </trkpt>
      <trkpt lat="48.7839" lon="7.27644">
        <ele>308.7</ele>
        <time>2020-06-28T06:17:02Z</time>
      </trkpt>
      <trkpt lat="48.78397" lon="7.27655">
        <ele>308.6</ele>
        <time>2020-06-28T06:17:04Z</time>
      </trkpt>
      <trkpt lat="48.78405" lon="7.27665">
        <ele>308.7</ele>
        <time>2020-06-28T06:17:06Z</time>
      </trkpt>
      <trkpt lat="48.78414" lon="7.27675">
        <ele>308.7</ele>
        <time>2020-06-28T06:17:08Z</time>
      </trkpt>
      <trkpt lat="48.78422" lon="7.27685">
        <ele>308.3</ele>
        <time>2020-06-28T06:17:10Z</time>
      </trkpt>
      <trkpt lat="48.7843" lon="7.27694">
        <ele>308.3</ele>
        <time>2020-06-28T06:17:12Z</time>
      </trkpt>
      <trkpt lat="48.78437" lon="7.27704">
        <ele>308.3</ele>
        <time>2020-06-28T06:17:14Z</time>
      </trkpt>
      <trkpt lat="48.78446" lon="7.27713">
        <ele>308.4</ele>
        <time>2020-06-28T06:17:16Z</time>
      </trkpt>
      <trkpt lat="48.78453" lon="7.27721">
        <ele>308.5</ele>
        <time>2020-06-28T06:17:18Z</time>
      </trkpt>
      <trkpt lat="48.78462" lon="7.2773">
        <ele>308.8</ele>
        <time>2020-06-28T06:17:20Z</time>
      </trkpt>
      <trkpt lat="48.78469" lon="7.2774">
        <ele>308.7</ele>
        <time>2020-06-28T06:17:22Z</time>
      </trkpt>
      <trkpt lat="48.78477" lon="7.27748">
        <ele>308.8</ele>
        <time>2020-06-28T06:17:24Z</time>
      </trkpt>
      <trkpt lat="48.78484" lon="7.27758">
        <ele>308.6</ele>
        <time>2020-06-28T06:17:26Z</time>
      </trkpt>
      <trkpt lat="48.78493" lon="7.27768">
        <ele>309.6</ele>
        <time>2020-06-28T06:17:28Z</time>
      </trkpt>
      <trkpt lat="48.785" lon="7.27776">
        <ele>309.7</ele>
        <time>2020-06-28T06:17:30Z</time>
      </trkpt>
      <trkpt lat="48.78509" lon="7.27784">
        <ele>310</ele>
        <time>2020-06-28T06:17:32Z</time>
      </trkpt>
      <trkpt lat="48.78516" lon="7.2779">
        <ele>310.4</ele>
        <time>2020-06-28T06:17:34Z</time>
      </trkpt>
      <trkpt lat="48.78523" lon="7.27793">
        <ele>310.5</ele>
        <time>2020-06-28T06:17:36Z</time>
      </trkpt>
      <trkpt lat="48.7853" lon="7.27797">
        <ele>310.6</ele>
        <time>2020-06-28T06:17:38Z</time>
      </trkpt>
      <trkpt lat="48.78534" lon="7.27799">
        <ele>310.7</ele>
        <time>2020-06-28T06:17:40Z</time>
      </trkpt>
      <trkpt lat="48.7854" lon="7.27798">
        <ele>310.8</ele>
        <time>2020-06-28T06:17:42Z</time>
      </trkpt>
      <trkpt lat="48.78546" lon="7.27793">
        <ele>309.8</ele>
        <time>2020-06-28T06:17:45Z</time>
      </trkpt>
      <trkpt lat="48.78549" lon="7.27788">
        <ele>308.9</ele>
        <time>2020-06-28T06:17:47Z</time>
      </trkpt>
      <trkpt lat="48.78555" lon="7.27779">
        <ele>307.4</ele>
        <time>2020-06-28T06:17:49Z</time>
      </trkpt>
      <trkpt lat="48.78561" lon="7.27769">
        <ele>306.8</ele>
        <time>2020-06-28T06:17:51Z</time>
      </trkpt>
      <trkpt lat="48.78566" lon="7.27757">
        <ele>305.9</ele>
        <time>2020-06-28T06:17:53Z</time>
      </trkpt>
      <trkpt lat="48.7857" lon="7.27746">
        <ele>305.2</ele>
        <time>2020-06-28T06:17:55Z</time>
      </trkpt>
      <trkpt lat="48.78573" lon="7.27733">
        <ele>303.8</ele>
        <time>2020-06-28T06:17:57Z</time>
      </trkpt>
      <trkpt lat="48.78576" lon="7.27719">
        <ele>304.1</ele>
        <time>2020-06-28T06:17:59Z</time>
      </trkpt>
      <trkpt lat="48.78581" lon="7.27705">
        <ele>304.2</ele>
        <time>2020-06-28T06:18:01Z</time>
      </trkpt>
      <trkpt lat="48.78584" lon="7.27692">
        <ele>302.6</ele>
        <time>2020-06-28T06:18:03Z</time>
      </trkpt>
      <trkpt lat="48.78589" lon="7.27679">
        <ele>300.8</ele>
        <time>2020-06-28T06:18:05Z</time>
      </trkpt>
      <trkpt lat="48.78598" lon="7.27664">
        <ele>300.8</ele>
        <time>2020-06-28T06:18:07Z</time>
      </trkpt>
      <trkpt lat="48.78607" lon="7.27646">
        <ele>300.8</ele>
        <time>2020-06-28T06:18:09Z</time>
      </trkpt>
      <trkpt lat="48.78617" lon="7.27633">
        <ele>300.7</ele>
        <time>2020-06-28T06:18:11Z</time>
      </trkpt>
      <trkpt lat="48.78629" lon="7.27622">
        <ele>300.3</ele>
        <time>2020-06-28T06:18:13Z</time>
      </trkpt>
      <trkpt lat="48.7864" lon="7.27615">
        <ele>299.4</ele>
        <time>2020-06-28T06:18:15Z</time>
      </trkpt>
      <trkpt lat="48.78652" lon="7.2761">
        <ele>297.6</ele>
        <time>2020-06-28T06:18:17Z</time>
      </trkpt>
      <trkpt lat="48.78663" lon="7.27603">
        <ele>295.6</ele>
        <time>2020-06-28T06:18:19Z</time>
      </trkpt>
      <trkpt lat="48.78674" lon="7.27596">
        <ele>293.1</ele>
        <time>2020-06-28T06:18:21Z</time>
      </trkpt>
      <trkpt lat="48.78684" lon="7.27586">
        <ele>292.4</ele>
        <time>2020-06-28T06:18:23Z</time>
      </trkpt>
      <trkpt lat="48.78693" lon="7.27576">
        <ele>295.4</ele>
        <time>2020-06-28T06:18:25Z</time>
      </trkpt>
      <trkpt lat="48.78705" lon="7.27566">
        <ele>295.1</ele>
        <time>2020-06-28T06:18:27Z</time>
      </trkpt>
      <trkpt lat="48.78715" lon="7.27556">
        <ele>295.7</ele>
        <time>2020-06-28T06:18:29Z</time>
      </trkpt>
      <trkpt lat="48.78725" lon="7.2755">
        <ele>296.1</ele>
        <time>2020-06-28T06:18:31Z</time>
      </trkpt>
      <trkpt lat="48.78735" lon="7.27548">
        <ele>294.6</ele>
        <time>2020-06-28T06:18:33Z</time>
      </trkpt>
      <trkpt lat="48.78744" lon="7.27544">
        <ele>293.1</ele>
        <time>2020-06-28T06:18:35Z</time>
      </trkpt>
      <trkpt lat="48.78752" lon="7.27537">
        <ele>292.9</ele>
        <time>2020-06-28T06:18:37Z</time>
      </trkpt>
      <trkpt lat="48.7876" lon="7.27531">
        <ele>292.6</ele>
        <time>2020-06-28T06:18:39Z</time>
      </trkpt>
      <trkpt lat="48.78769" lon="7.27525">
        <ele>291.3</ele>
        <time>2020-06-28T06:18:41Z</time>
      </trkpt>
      <trkpt lat="48.78778" lon="7.27516">
        <ele>291.6</ele>
        <time>2020-06-28T06:18:43Z</time>
      </trkpt>
      <trkpt lat="48.78788" lon="7.27507">
        <ele>290.7</ele>
        <time>2020-06-28T06:18:45Z</time>
      </trkpt>
      <trkpt lat="48.78796" lon="7.27497">
        <ele>288.9</ele>
        <time>2020-06-28T06:18:47Z</time>
      </trkpt>
      <trkpt lat="48.78804" lon="7.27483">
        <ele>287.4</ele>
        <time>2020-06-28T06:18:49Z</time>
      </trkpt>
      <trkpt lat="48.78812" lon="7.27473">
        <ele>285.3</ele>
        <time>2020-06-28T06:18:51Z</time>
      </trkpt>
      <trkpt lat="48.78821" lon="7.27464">
        <ele>283.6</ele>
        <time>2020-06-28T06:18:53Z</time>
      </trkpt>
      <trkpt lat="48.78829" lon="7.27453">
        <ele>281.9</ele>
        <time>2020-06-28T06:18:55Z</time>
      </trkpt>
      <trkpt lat="48.78837" lon="7.27444">
        <ele>280.5</ele>
        <time>2020-06-28T06:18:57Z</time>
      </trkpt>
      <trkpt lat="48.78844" lon="7.27436">
        <ele>278.5</ele>
        <time>2020-06-28T06:18:59Z</time>
      </trkpt>
      <trkpt lat="48.78849" lon="7.27428">
        <ele>276.5</ele>
        <time>2020-06-28T06:19:01Z</time>
      </trkpt>
      <trkpt lat="48.78852" lon="7.27418">
        <ele>275.1</ele>
        <time>2020-06-28T06:19:03Z</time>
      </trkpt>
      <trkpt lat="48.78854" lon="7.27409">
        <ele>274.1</ele>
        <time>2020-06-28T06:19:05Z</time>
      </trkpt>
      <trkpt lat="48.78854" lon="7.27397">
        <ele>273.9</ele>
        <time>2020-06-28T06:19:07Z</time>
      </trkpt>
      <trkpt lat="48.78854" lon="7.2739">
        <ele>272.5</ele>
        <time>2020-06-28T06:19:09Z</time>
      </trkpt>
      <trkpt lat="48.78854" lon="7.27381">
        <ele>271.3</ele>
        <time>2020-06-28T06:19:11Z</time>
      </trkpt>
      <trkpt lat="48.78854" lon="7.2737">
        <ele>269.7</ele>
        <time>2020-06-28T06:19:13Z</time>
      </trkpt>
      <trkpt lat="48.78853" lon="7.27359">
        <ele>268.5</ele>
        <time>2020-06-28T06:19:15Z</time>
      </trkpt>
      <trkpt lat="48.7885" lon="7.27346">
        <ele>267.6</ele>
        <time>2020-06-28T06:19:17Z</time>
      </trkpt>
      <trkpt lat="48.78847" lon="7.27334">
        <ele>267.1</ele>
        <time>2020-06-28T06:19:19Z</time>
      </trkpt>
      <trkpt lat="48.78844" lon="7.2732">
        <ele>266.2</ele>
        <time>2020-06-28T06:19:21Z</time>
      </trkpt>
      <trkpt lat="48.78842" lon="7.27308">
        <ele>265.4</ele>
        <time>2020-06-28T06:19:23Z</time>
      </trkpt>
      <trkpt lat="48.78839" lon="7.27298">
        <ele>264.6</ele>
        <time>2020-06-28T06:19:25Z</time>
      </trkpt>
      <trkpt lat="48.78836" lon="7.27287">
        <ele>263.9</ele>
        <time>2020-06-28T06:19:27Z</time>
      </trkpt>
      <trkpt lat="48.78834" lon="7.27277">
        <ele>263.9</ele>
        <time>2020-06-28T06:19:29Z</time>
      </trkpt>
      <trkpt lat="48.78831" lon="7.27268">
        <ele>263.8</ele>
        <time>2020-06-28T06:19:31Z</time>
      </trkpt>
      <trkpt lat="48.78827" lon="7.27259">
        <ele>263.6</ele>
        <time>2020-06-28T06:19:33Z</time>
      </trkpt>
      <trkpt lat="48.78824" lon="7.27251">
        <ele>264.1</ele>
        <time>2020-06-28T06:19:35Z</time>
      </trkpt>
      <trkpt lat="48.7882" lon="7.27243">
        <ele>263.7</ele>
        <time>2020-06-28T06:19:37Z</time>
      </trkpt>
      <trkpt lat="48.78817" lon="7.27235">
        <ele>263</ele>
        <time>2020-06-28T06:19:39Z</time>
      </trkpt>
      <trkpt lat="48.78814" lon="7.27226">
        <ele>262.5</ele>
        <time>2020-06-28T06:19:41Z</time>
      </trkpt>
      <trkpt lat="48.78811" lon="7.27218">
        <ele>262</ele>
        <time>2020-06-28T06:19:43Z</time>
      </trkpt>
      <trkpt lat="48.78806" lon="7.2721">
        <ele>261.8</ele>
        <time>2020-06-28T06:19:45Z</time>
      </trkpt>
      <trkpt lat="48.78802" lon="7.27202">
        <ele>262.1</ele>
        <time>2020-06-28T06:19:47Z</time>
      </trkpt>
      <trkpt lat="48.78797" lon="7.27194">
        <ele>262.4</ele>
        <time>2020-06-28T06:19:49Z</time>
      </trkpt>
      <trkpt lat="48.78793" lon="7.27187">
        <ele>262.5</ele>
        <time>2020-06-28T06:19:51Z</time>
      </trkpt>
      <trkpt lat="48.78788" lon="7.27179">
        <ele>262.9</ele>
        <time>2020-06-28T06:19:53Z</time>
      </trkpt>
      <trkpt lat="48.78784" lon="7.27172">
        <ele>263.4</ele>
        <time>2020-06-28T06:19:55Z</time>
      </trkpt>
      <trkpt lat="48.7878" lon="7.27164">
        <ele>263.5</ele>
        <time>2020-06-28T06:19:57Z</time>
      </trkpt>
      <trkpt lat="48.78776" lon="7.27156">
        <ele>264.2</ele>
        <time>2020-06-28T06:19:59Z</time>
      </trkpt>
      <trkpt lat="48.78772" lon="7.27148">
        <ele>264.6</ele>
        <time>2020-06-28T06:20:01Z</time>
      </trkpt>
      <trkpt lat="48.78767" lon="7.27141">
        <ele>265.6</ele>
        <time>2020-06-28T06:20:03Z</time>
      </trkpt>
      <trkpt lat="48.78763" lon="7.27133">
        <ele>266.2</ele>
        <time>2020-06-28T06:20:05Z</time>
      </trkpt>
      <trkpt lat="48.78758" lon="7.27126">
        <ele>267.2</ele>
        <time>2020-06-28T06:20:07Z</time>
      </trkpt>
      <trkpt lat="48.78753" lon="7.2712">
        <ele>267.8</ele>
        <time>2020-06-28T06:20:09Z</time>
      </trkpt>
      <trkpt lat="48.78749" lon="7.27113">
        <ele>268.2</ele>
        <time>2020-06-28T06:20:11Z</time>
      </trkpt>
      <trkpt lat="48.78744" lon="7.27106">
        <ele>268.5</ele>
        <time>2020-06-28T06:20:13Z</time>
      </trkpt>
      <trkpt lat="48.78739" lon="7.27099">
        <ele>268.1</ele>
        <time>2020-06-28T06:20:15Z</time>
      </trkpt>
      <trkpt lat="48.78733" lon="7.27091">
        <ele>267.4</ele>
        <time>2020-06-28T06:20:17Z</time>
      </trkpt>
      <trkpt lat="48.78727" lon="7.27082">
        <ele>267</ele>
        <time>2020-06-28T06:20:19Z</time>
      </trkpt>
      <trkpt lat="48.78722" lon="7.27072">
        <ele>267.4</ele>
        <time>2020-06-28T06:20:21Z</time>
      </trkpt>
      <trkpt lat="48.78717" lon="7.27064">
        <ele>267.2</ele>
        <time>2020-06-28T06:20:23Z</time>
      </trkpt>
      <trkpt lat="48.78711" lon="7.27055">
        <ele>266.9</ele>
        <time>2020-06-28T06:20:25Z</time>
      </trkpt>
      <trkpt lat="48.78706" lon="7.27046">
        <ele>266.7</ele>
        <time>2020-06-28T06:20:27Z</time>
      </trkpt>
      <trkpt lat="48.78701" lon="7.27036">
        <ele>266.5</ele>
        <time>2020-06-28T06:20:29Z</time>
      </trkpt>
      <trkpt lat="48.78696" lon="7.27026">
        <ele>266.8</ele>
        <time>2020-06-28T06:20:31Z</time>
      </trkpt>
      <trkpt lat="48.78689" lon="7.27015">
        <ele>267.4</ele>
        <time>2020-06-28T06:20:33Z</time>
      </trkpt>
      <trkpt lat="48.78683" lon="7.27004">
        <ele>267.6</ele>
        <time>2020-06-28T06:20:35Z</time>
      </trkpt>
      <trkpt lat="48.78677" lon="7.26992">
        <ele>268.1</ele>
        <time>2020-06-28T06:20:37Z</time>
      </trkpt>
      <trkpt lat="48.7867" lon="7.2698">
        <ele>268.5</ele>
        <time>2020-06-28T06:20:39Z</time>
      </trkpt>
      <trkpt lat="48.78663" lon="7.26968">
        <ele>269</ele>
        <time>2020-06-28T06:20:41Z</time>
      </trkpt>
      <trkpt lat="48.78656" lon="7.26956">
        <ele>269.4</ele>
        <time>2020-06-28T06:20:43Z</time>
      </trkpt>
      <trkpt lat="48.78649" lon="7.26945">
        <ele>269.1</ele>
        <time>2020-06-28T06:20:45Z</time>
      </trkpt>
      <trkpt lat="48.78641" lon="7.26934">
        <ele>269.3</ele>
        <time>2020-06-28T06:20:47Z</time>
      </trkpt>
      <trkpt lat="48.78633" lon="7.26924">
        <ele>269.3</ele>
        <time>2020-06-28T06:20:49Z</time>
      </trkpt>
      <trkpt lat="48.78625" lon="7.26915">
        <ele>269.7</ele>
        <time>2020-06-28T06:20:51Z</time>
      </trkpt>
      <trkpt lat="48.78616" lon="7.26908">
        <ele>270</ele>
        <time>2020-06-28T06:20:53Z</time>
      </trkpt>
      <trkpt lat="48.78607" lon="7.26901">
        <ele>270.2</ele>
        <time>2020-06-28T06:20:55Z</time>
      </trkpt>
      <trkpt lat="48.78598" lon="7.26894">
        <ele>270.7</ele>
        <time>2020-06-28T06:20:57Z</time>
      </trkpt>
      <trkpt lat="48.7859" lon="7.26888">
        <ele>270.8</ele>
        <time>2020-06-28T06:20:59Z</time>
      </trkpt>
      <trkpt lat="48.78582" lon="7.26883">
        <ele>270.6</ele>
        <time>2020-06-28T06:21:01Z</time>
      </trkpt>
      <trkpt lat="48.78575" lon="7.26878">
        <ele>270</ele>
        <time>2020-06-28T06:21:03Z</time>
      </trkpt>
      <trkpt lat="48.78567" lon="7.26873">
        <ele>269.6</ele>
        <time>2020-06-28T06:21:05Z</time>
      </trkpt>
      <trkpt lat="48.7856" lon="7.26868">
        <ele>269.2</ele>
        <time>2020-06-28T06:21:07Z</time>
      </trkpt>
      <trkpt lat="48.78552" lon="7.26863">
        <ele>269</ele>
        <time>2020-06-28T06:21:09Z</time>
      </trkpt>
      <trkpt lat="48.78544" lon="7.26859">
        <ele>268.8</ele>
        <time>2020-06-28T06:21:11Z</time>
      </trkpt>
      <trkpt lat="48.78536" lon="7.26855">
        <ele>268.7</ele>
        <time>2020-06-28T06:21:13Z</time>
      </trkpt>
      <trkpt lat="48.78528" lon="7.2685">
        <ele>268.6</ele>
        <time>2020-06-28T06:21:15Z</time>
      </trkpt>
      <trkpt lat="48.7852" lon="7.26845">
        <ele>268.5</ele>
        <time>2020-06-28T06:21:17Z</time>
      </trkpt>
      <trkpt lat="48.78513" lon="7.26839">
        <ele>269.1</ele>
        <time>2020-06-28T06:21:19Z</time>
      </trkpt>
      <trkpt lat="48.78505" lon="7.26834">
        <ele>269.3</ele>
        <time>2020-06-28T06:21:21Z</time>
      </trkpt>
      <trkpt lat="48.78497" lon="7.2683">
        <ele>269.5</ele>
        <time>2020-06-28T06:21:23Z</time>
      </trkpt>
      <trkpt lat="48.78489" lon="7.26824">
        <ele>269.8</ele>
        <time>2020-06-28T06:21:25Z</time>
      </trkpt>
      <trkpt lat="48.78481" lon="7.26818">
        <ele>269.3</ele>
        <time>2020-06-28T06:21:27Z</time>
      </trkpt>
      <trkpt lat="48.78474" lon="7.26811">
        <ele>269</ele>
        <time>2020-06-28T06:21:29Z</time>
      </trkpt>
      <trkpt lat="48.78466" lon="7.26805">
        <ele>268.7</ele>
        <time>2020-06-28T06:21:31Z</time>
      </trkpt>
      <trkpt lat="48.78459" lon="7.268">
        <ele>268.5</ele>
        <time>2020-06-28T06:21:33Z</time>
      </trkpt>
      <trkpt lat="48.78452" lon="7.26794">
        <ele>268.6</ele>
        <time>2020-06-28T06:21:35Z</time>
      </trkpt>
      <trkpt lat="48.78446" lon="7.26787">
        <ele>269</ele>
        <time>2020-06-28T06:21:37Z</time>
      </trkpt>
      <trkpt lat="48.7844" lon="7.26779">
        <ele>268.6</ele>
        <time>2020-06-28T06:21:39Z</time>
      </trkpt>
      <trkpt lat="48.78434" lon="7.26768">
        <ele>268.5</ele>
        <time>2020-06-28T06:21:41Z</time>
      </trkpt>
      <trkpt lat="48.78429" lon="7.26757">
        <ele>268.4</ele>
        <time>2020-06-28T06:21:43Z</time>
      </trkpt>
      <trkpt lat="48.78422" lon="7.26746">
        <ele>268.4</ele>
        <time>2020-06-28T06:21:45Z</time>
      </trkpt>
      <trkpt lat="48.78417" lon="7.26734">
        <ele>268.7</ele>
        <time>2020-06-28T06:21:47Z</time>
      </trkpt>
      <trkpt lat="48.78411" lon="7.26721">
        <ele>268.4</ele>
        <time>2020-06-28T06:21:49Z</time>
      </trkpt>
      <trkpt lat="48.78406" lon="7.26708">
        <ele>268.2</ele>
        <time>2020-06-28T06:21:51Z</time>
      </trkpt>
      <trkpt lat="48.784" lon="7.26694">
        <ele>267.8</ele>
        <time>2020-06-28T06:21:53Z</time>
      </trkpt>
      <trkpt lat="48.78396" lon="7.26681">
        <ele>267.6</ele>
        <time>2020-06-28T06:21:55Z</time>
      </trkpt>
      <trkpt lat="48.7839" lon="7.26668">
        <ele>267.3</ele>
        <time>2020-06-28T06:21:57Z</time>
      </trkpt>
      <trkpt lat="48.78386" lon="7.26656">
        <ele>267</ele>
        <time>2020-06-28T06:21:59Z</time>
      </trkpt>
      <trkpt lat="48.78388" lon="7.26645">
        <ele>266.6</ele>
        <time>2020-06-28T06:22:01Z</time>
      </trkpt>
      <trkpt lat="48.78397" lon="7.26638">
        <ele>266.3</ele>
        <time>2020-06-28T06:22:03Z</time>
      </trkpt>
      <trkpt lat="48.78408" lon="7.26636">
        <ele>265.9</ele>
        <time>2020-06-28T06:22:05Z</time>
      </trkpt>
      <trkpt lat="48.78422" lon="7.26635">
        <ele>265.2</ele>
        <time>2020-06-28T06:22:07Z</time>
      </trkpt>
      <trkpt lat="48.78436" lon="7.26631">
        <ele>264.9</ele>
        <time>2020-06-28T06:22:09Z</time>
      </trkpt>
      <trkpt lat="48.78449" lon="7.26622">
        <ele>264.6</ele>
        <time>2020-06-28T06:22:11Z</time>
      </trkpt>
      <trkpt lat="48.78461" lon="7.26615">
        <ele>263.9</ele>
        <time>2020-06-28T06:22:13Z</time>
      </trkpt>
      <trkpt lat="48.78472" lon="7.26615">
        <ele>263.3</ele>
        <time>2020-06-28T06:22:15Z</time>
      </trkpt>
      <trkpt lat="48.78484" lon="7.26618">
        <ele>262.2</ele>
        <time>2020-06-28T06:22:17Z</time>
      </trkpt>
      <trkpt lat="48.78496" lon="7.26625">
        <ele>261.1</ele>
        <time>2020-06-28T06:22:19Z</time>
      </trkpt>
      <trkpt lat="48.7851" lon="7.26634">
        <ele>259.4</ele>
        <time>2020-06-28T06:22:21Z</time>
      </trkpt>
      <trkpt lat="48.78525" lon="7.26645">
        <ele>258</ele>
        <time>2020-06-28T06:22:23Z</time>
      </trkpt>
      <trkpt lat="48.78541" lon="7.26655">
        <ele>256.2</ele>
        <time>2020-06-28T06:22:25Z</time>
      </trkpt>
      <trkpt lat="48.78558" lon="7.26666">
        <ele>254.5</ele>
        <time>2020-06-28T06:22:27Z</time>
      </trkpt>
      <trkpt lat="48.78574" lon="7.26676">
        <ele>253.7</ele>
        <time>2020-06-28T06:22:29Z</time>
      </trkpt>
      <trkpt lat="48.7859" lon="7.26687">
        <ele>252.7</ele>
        <time>2020-06-28T06:22:31Z</time>
      </trkpt>
      <trkpt lat="48.78605" lon="7.26694">
        <ele>254</ele>
        <time>2020-06-28T06:22:33Z</time>
      </trkpt>
      <trkpt lat="48.78619" lon="7.26701">
        <ele>252.7</ele>
        <time>2020-06-28T06:22:35Z</time>
      </trkpt>
      <trkpt lat="48.78631" lon="7.26715">
        <ele>251</ele>
        <time>2020-06-28T06:22:37Z</time>
      </trkpt>
      <trkpt lat="48.78641" lon="7.26725">
        <ele>249.9</ele>
        <time>2020-06-28T06:22:39Z</time>
      </trkpt>
      <trkpt lat="48.78656" lon="7.26733">
        <ele>249</ele>
        <time>2020-06-28T06:22:41Z</time>
      </trkpt>
      <trkpt lat="48.78665" lon="7.26739">
        <ele>248.1</ele>
        <time>2020-06-28T06:22:43Z</time>
      </trkpt>
      <trkpt lat="48.7867" lon="7.26744">
        <ele>248.2</ele>
        <time>2020-06-28T06:22:45Z</time>
      </trkpt>
      <trkpt lat="48.78676" lon="7.26749">
        <ele>247.3</ele>
        <time>2020-06-28T06:22:47Z</time>
      </trkpt>
      <trkpt lat="48.78682" lon="7.26754">
        <ele>247.1</ele>
        <time>2020-06-28T06:22:49Z</time>
      </trkpt>
      <trkpt lat="48.78692" lon="7.2676">
        <ele>246.9</ele>
        <time>2020-06-28T06:22:51Z</time>
      </trkpt>
      <trkpt lat="48.78703" lon="7.26767">
        <ele>245.4</ele>
        <time>2020-06-28T06:22:53Z</time>
      </trkpt>
      <trkpt lat="48.78713" lon="7.26775">
        <ele>244.2</ele>
        <time>2020-06-28T06:22:55Z</time>
      </trkpt>
      <trkpt lat="48.78722" lon="7.26782">
        <ele>243.6</ele>
        <time>2020-06-28T06:22:57Z</time>
      </trkpt>
      <trkpt lat="48.78731" lon="7.26787">
        <ele>242.9</ele>
        <time>2020-06-28T06:22:59Z</time>
      </trkpt>
      <trkpt lat="48.78741" lon="7.26793">
        <ele>243</ele>
        <time>2020-06-28T06:23:01Z</time>
      </trkpt>
      <trkpt lat="48.78752" lon="7.26798">
        <ele>242.5</ele>
        <time>2020-06-28T06:23:03Z</time>
      </trkpt>
      <trkpt lat="48.78763" lon="7.26807">
        <ele>240.8</ele>
        <time>2020-06-28T06:23:05Z</time>
      </trkpt>
      <trkpt lat="48.78775" lon="7.26818">
        <ele>237.8</ele>
        <time>2020-06-28T06:23:07Z</time>
      </trkpt>
      <trkpt lat="48.78785" lon="7.26826">
        <ele>235.7</ele>
        <time>2020-06-28T06:23:09Z</time>
      </trkpt>
      <trkpt lat="48.78797" lon="7.26832">
        <ele>233.5</ele>
        <time>2020-06-28T06:23:11Z</time>
      </trkpt>
      <trkpt lat="48.78811" lon="7.26837">
        <ele>238.7</ele>
        <time>2020-06-28T06:23:13Z</time>
      </trkpt>
      <trkpt lat="48.78822" lon="7.26841">
        <ele>237</ele>
        <time>2020-06-28T06:23:15Z</time>
      </trkpt>
      <trkpt lat="48.78833" lon="7.26844">
        <ele>235.5</ele>
        <time>2020-06-28T06:23:17Z</time>
      </trkpt>
      <trkpt lat="48.78843" lon="7.26848">
        <ele>234.1</ele>
        <time>2020-06-28T06:23:19Z</time>
      </trkpt>
      <trkpt lat="48.78852" lon="7.26852">
        <ele>232.6</ele>
        <time>2020-06-28T06:23:21Z</time>
      </trkpt>
      <trkpt lat="48.78862" lon="7.26857">
        <ele>231.1</ele>
        <time>2020-06-28T06:23:23Z</time>
      </trkpt>
      <trkpt lat="48.78872" lon="7.2686">
        <ele>229.4</ele>
        <time>2020-06-28T06:23:25Z</time>
      </trkpt>
      <trkpt lat="48.78882" lon="7.26859">
        <ele>229.2</ele>
        <time>2020-06-28T06:23:27Z</time>
      </trkpt>
      <trkpt lat="48.7889" lon="7.26855">
        <ele>227.6</ele>
        <time>2020-06-28T06:23:29Z</time>
      </trkpt>
      <trkpt lat="48.78896" lon="7.2685">
        <ele>226.3</ele>
        <time>2020-06-28T06:23:31Z</time>
      </trkpt>
      <trkpt lat="48.78901" lon="7.26845">
        <ele>225.1</ele>
        <time>2020-06-28T06:23:33Z</time>
      </trkpt>
      <trkpt lat="48.78905" lon="7.26842">
        <ele>223.2</ele>
        <time>2020-06-28T06:23:36Z</time>
      </trkpt>
      <trkpt lat="48.78909" lon="7.26836">
        <ele>221</ele>
        <time>2020-06-28T06:23:41Z</time>
      </trkpt>
      <trkpt lat="48.78913" lon="7.26831">
        <ele>219.4</ele>
        <time>2020-06-28T06:23:50Z</time>
      </trkpt>
      <trkpt lat="48.78917" lon="7.26828">
        <ele>218</ele>
        <time>2020-06-28T06:23:58Z</time>
      </trkpt>
      <trkpt lat="48.78921" lon="7.26827">
        <ele>218.5</ele>
        <time>2020-06-28T06:24:06Z</time>
      </trkpt>
      <trkpt lat="48.78926" lon="7.2683">
        <ele>218.9</ele>
        <time>2020-06-28T06:24:09Z</time>
      </trkpt>
      <trkpt lat="48.7893" lon="7.26833">
        <ele>219.2</ele>
        <time>2020-06-28T06:24:13Z</time>
      </trkpt>
      <trkpt lat="48.78935" lon="7.26836">
        <ele>220.7</ele>
        <time>2020-06-28T06:24:18Z</time>
      </trkpt>
      <trkpt lat="48.7894" lon="7.26838">
        <ele>223</ele>
        <time>2020-06-28T06:24:23Z</time>
      </trkpt>
      <trkpt lat="48.78945" lon="7.2684">
        <ele>225.4</ele>
        <time>2020-06-28T06:24:28Z</time>
      </trkpt>
      <trkpt lat="48.78949" lon="7.26844">
        <ele>227</ele>
        <time>2020-06-28T06:24:38Z</time>
      </trkpt>
      <trkpt lat="48.78952" lon="7.2685">
        <ele>225.4</ele>
        <time>2020-06-28T06:24:43Z</time>
      </trkpt>
      <trkpt lat="48.78957" lon="7.26854">
        <ele>224.2</ele>
        <time>2020-06-28T06:24:49Z</time>
      </trkpt>
      <trkpt lat="48.78962" lon="7.26853">
        <ele>224.9</ele>
        <time>2020-06-28T06:24:55Z</time>
      </trkpt>
      <trkpt lat="48.78967" lon="7.26854">
        <ele>226.1</ele>
        <time>2020-06-28T06:25:02Z</time>
      </trkpt>
      <trkpt lat="48.78972" lon="7.26856">
        <ele>226.7</ele>
        <time>2020-06-28T06:25:11Z</time>
      </trkpt>
      <trkpt lat="48.78977" lon="7.26856">
        <ele>228.7</ele>
        <time>2020-06-28T06:25:22Z</time>
      </trkpt>
      <trkpt lat="48.78981" lon="7.26853">
        <ele>232.4</ele>
        <time>2020-06-28T06:25:32Z</time>
      </trkpt>
      <trkpt lat="48.78985" lon="7.26851">
        <ele>234.8</ele>
        <time>2020-06-28T06:25:39Z</time>
      </trkpt>
      <trkpt lat="48.7899" lon="7.26851">
        <ele>239</ele>
        <time>2020-06-28T06:25:47Z</time>
      </trkpt>
      <trkpt lat="48.78995" lon="7.26853">
        <ele>241.5</ele>
        <time>2020-06-28T06:25:54Z</time>
      </trkpt>
      <trkpt lat="48.78996" lon="7.26846">
        <ele>244.8</ele>
        <time>2020-06-28T06:26:03Z</time>
      </trkpt>
      <trkpt lat="48.79001" lon="7.26845">
        <ele>245.6</ele>
        <time>2020-06-28T06:26:10Z</time>
      </trkpt>
      <trkpt lat="48.79006" lon="7.26845">
        <ele>244.8</ele>
        <time>2020-06-28T06:26:16Z</time>
      </trkpt>
      <trkpt lat="48.7901" lon="7.26846">
        <ele>245.9</ele>
        <time>2020-06-28T06:26:25Z</time>
      </trkpt>
      <trkpt lat="48.79014" lon="7.26848">
        <ele>245.6</ele>
        <time>2020-06-28T06:26:31Z</time>
      </trkpt>
      <trkpt lat="48.79018" lon="7.26843">
        <ele>246.6</ele>
        <time>2020-06-28T06:26:42Z</time>
      </trkpt>
      <trkpt lat="48.79021" lon="7.26836">
        <ele>245.2</ele>
        <time>2020-06-28T06:26:48Z</time>
      </trkpt>
      <trkpt lat="48.79024" lon="7.26831">
        <ele>245.2</ele>
        <time>2020-06-28T06:26:51Z</time>
      </trkpt>
      <trkpt lat="48.79029" lon="7.26829">
        <ele>243.9</ele>
        <time>2020-06-28T06:26:56Z</time>
      </trkpt>
      <trkpt lat="48.79034" lon="7.2683">
        <ele>249.1</ele>
        <time>2020-06-28T06:27:10Z</time>
      </trkpt>
      <trkpt lat="48.79038" lon="7.26827">
        <ele>249.3</ele>
        <time>2020-06-28T06:27:17Z</time>
      </trkpt>
      <trkpt lat="48.79043" lon="7.26825">
        <ele>251.1</ele>
        <time>2020-06-28T06:27:23Z</time>
      </trkpt>
      <trkpt lat="48.79048" lon="7.26826">
        <ele>251.2</ele>
        <time>2020-06-28T06:27:31Z</time>
      </trkpt>
      <trkpt lat="48.79052" lon="7.26827">
        <ele>253.1</ele>
        <time>2020-06-28T06:27:40Z</time>
      </trkpt>
      <trkpt lat="48.79058" lon="7.2683">
        <ele>254.3</ele>
        <time>2020-06-28T06:27:45Z</time>
      </trkpt>
      <trkpt lat="48.79063" lon="7.26831">
        <ele>254.8</ele>
        <time>2020-06-28T06:27:48Z</time>
      </trkpt>
      <trkpt lat="48.79068" lon="7.26833">
        <ele>255.2</ele>
        <time>2020-06-28T06:27:51Z</time>
      </trkpt>
      <trkpt lat="48.79073" lon="7.26834">
        <ele>254.5</ele>
        <time>2020-06-28T06:27:53Z</time>
      </trkpt>
      <trkpt lat="48.79079" lon="7.26835">
        <ele>253.8</ele>
        <time>2020-06-28T06:27:56Z</time>
      </trkpt>
      <trkpt lat="48.79083" lon="7.26835">
        <ele>253.3</ele>
        <time>2020-06-28T06:27:59Z</time>
      </trkpt>
      <trkpt lat="48.79089" lon="7.26837">
        <ele>252.1</ele>
        <time>2020-06-28T06:28:03Z</time>
      </trkpt>
      <trkpt lat="48.79093" lon="7.26837">
        <ele>252</ele>
        <time>2020-06-28T06:28:06Z</time>
      </trkpt>
      <trkpt lat="48.79099" lon="7.26838">
        <ele>252.1</ele>
        <time>2020-06-28T06:28:09Z</time>
      </trkpt>
      <trkpt lat="48.79105" lon="7.26839">
        <ele>252.5</ele>
        <time>2020-06-28T06:28:11Z</time>
      </trkpt>
      <trkpt lat="48.79111" lon="7.2684">
        <ele>253.2</ele>
        <time>2020-06-28T06:28:14Z</time>
      </trkpt>
      <trkpt lat="48.79116" lon="7.26842">
        <ele>255.6</ele>
        <time>2020-06-28T06:28:18Z</time>
      </trkpt>
      <trkpt lat="48.79122" lon="7.26843">
        <ele>256.5</ele>
        <time>2020-06-28T06:28:21Z</time>
      </trkpt>
      <trkpt lat="48.79128" lon="7.26844">
        <ele>260.9</ele>
        <time>2020-06-28T06:28:24Z</time>
      </trkpt>
      <trkpt lat="48.79133" lon="7.26846">
        <ele>262</ele>
        <time>2020-06-28T06:28:27Z</time>
      </trkpt>
      <trkpt lat="48.79138" lon="7.2685">
        <ele>263.8</ele>
        <time>2020-06-28T06:28:30Z</time>
      </trkpt>
      <trkpt lat="48.79143" lon="7.26855">
        <ele>263.6</ele>
        <time>2020-06-28T06:28:33Z</time>
      </trkpt>
      <trkpt lat="48.79148" lon="7.26859">
        <ele>263.3</ele>
        <time>2020-06-28T06:28:36Z</time>
      </trkpt>
      <trkpt lat="48.79152" lon="7.26863">
        <ele>265</ele>
        <time>2020-06-28T06:28:39Z</time>
      </trkpt>
      <trkpt lat="48.79156" lon="7.26866">
        <ele>265.2</ele>
        <time>2020-06-28T06:28:42Z</time>
      </trkpt>
      <trkpt lat="48.79161" lon="7.26867">
        <ele>265.8</ele>
        <time>2020-06-28T06:28:45Z</time>
      </trkpt>
      <trkpt lat="48.79166" lon="7.26868">
        <ele>265.6</ele>
        <time>2020-06-28T06:28:48Z</time>
      </trkpt>
      <trkpt lat="48.7917" lon="7.26872">
        <ele>267.3</ele>
        <time>2020-06-28T06:28:51Z</time>
      </trkpt>
      <trkpt lat="48.79173" lon="7.26878">
        <ele>269.8</ele>
        <time>2020-06-28T06:28:54Z</time>
      </trkpt>
      <trkpt lat="48.79178" lon="7.26882">
        <ele>271.9</ele>
        <time>2020-06-28T06:28:58Z</time>
      </trkpt>
      <trkpt lat="48.79184" lon="7.26885">
        <ele>272.9</ele>
        <time>2020-06-28T06:29:01Z</time>
      </trkpt>
      <trkpt lat="48.79188" lon="7.26887">
        <ele>273.5</ele>
        <time>2020-06-28T06:29:03Z</time>
      </trkpt>
      <trkpt lat="48.79194" lon="7.26891">
        <ele>274</ele>
        <time>2020-06-28T06:29:05Z</time>
      </trkpt>
      <trkpt lat="48.79199" lon="7.26893">
        <ele>274</ele>
        <time>2020-06-28T06:29:07Z</time>
      </trkpt>
      <trkpt lat="48.79204" lon="7.26892">
        <ele>273.8</ele>
        <time>2020-06-28T06:29:09Z</time>
      </trkpt>
      <trkpt lat="48.79209" lon="7.26893">
        <ele>273.5</ele>
        <time>2020-06-28T06:29:11Z</time>
      </trkpt>
      <trkpt lat="48.79215" lon="7.26895">
        <ele>273.9</ele>
        <time>2020-06-28T06:29:14Z</time>
      </trkpt>
      <trkpt lat="48.79221" lon="7.26896">
        <ele>275.1</ele>
        <time>2020-06-28T06:29:17Z</time>
      </trkpt>
      <trkpt lat="48.79226" lon="7.26894">
        <ele>276.2</ele>
        <time>2020-06-28T06:29:20Z</time>
      </trkpt>
      <trkpt lat="48.79231" lon="7.26893">
        <ele>278.1</ele>
        <time>2020-06-28T06:29:23Z</time>
      </trkpt>
      <trkpt lat="48.79236" lon="7.26893">
        <ele>279</ele>
        <time>2020-06-28T06:29:25Z</time>
      </trkpt>
      <trkpt lat="48.79241" lon="7.26894">
        <ele>280.4</ele>
        <time>2020-06-28T06:29:27Z</time>
      </trkpt>
      <trkpt lat="48.79247" lon="7.26896">
        <ele>281.8</ele>
        <time>2020-06-28T06:29:30Z</time>
      </trkpt>
      <trkpt lat="48.79253" lon="7.26898">
        <ele>281.4</ele>
        <time>2020-06-28T06:29:33Z</time>
      </trkpt>
      <trkpt lat="48.79257" lon="7.26899">
        <ele>281.6</ele>
        <time>2020-06-28T06:29:35Z</time>
      </trkpt>
      <trkpt lat="48.79264" lon="7.26901">
        <ele>282</ele>
        <time>2020-06-28T06:29:38Z</time>
      </trkpt>
      <trkpt lat="48.79269" lon="7.26903">
        <ele>282.5</ele>
        <time>2020-06-28T06:29:41Z</time>
      </trkpt>
      <trkpt lat="48.79275" lon="7.26906">
        <ele>282</ele>
        <time>2020-06-28T06:29:44Z</time>
      </trkpt>
      <trkpt lat="48.79281" lon="7.26908">
        <ele>280.4</ele>
        <time>2020-06-28T06:29:47Z</time>
      </trkpt>
      <trkpt lat="48.79286" lon="7.26909">
        <ele>279.9</ele>
        <time>2020-06-28T06:29:50Z</time>
      </trkpt>
      <trkpt lat="48.79291" lon="7.26911">
        <ele>279.6</ele>
        <time>2020-06-28T06:29:53Z</time>
      </trkpt>
      <trkpt lat="48.79296" lon="7.26914">
        <ele>278.5</ele>
        <time>2020-06-28T06:29:56Z</time>
      </trkpt>
      <trkpt lat="48.79301" lon="7.26917">
        <ele>278.9</ele>
        <time>2020-06-28T06:29:59Z</time>
      </trkpt>
      <trkpt lat="48.79306" lon="7.26917">
        <ele>279.7</ele>
        <time>2020-06-28T06:30:01Z</time>
      </trkpt>
      <trkpt lat="48.79311" lon="7.26918">
        <ele>280.5</ele>
        <time>2020-06-28T06:30:03Z</time>
      </trkpt>
      <trkpt lat="48.79316" lon="7.26918">
        <ele>280.9</ele>
        <time>2020-06-28T06:30:05Z</time>
      </trkpt>
      <trkpt lat="48.7932" lon="7.26919">
        <ele>281.9</ele>
        <time>2020-06-28T06:30:07Z</time>
      </trkpt>
      <trkpt lat="48.79325" lon="7.26919">
        <ele>283.1</ele>
        <time>2020-06-28T06:30:09Z</time>
      </trkpt>
      <trkpt lat="48.79331" lon="7.2692">
        <ele>283.7</ele>
        <time>2020-06-28T06:30:11Z</time>
      </trkpt>
      <trkpt lat="48.79337" lon="7.26921">
        <ele>283.7</ele>
        <time>2020-06-28T06:30:13Z</time>
      </trkpt>
      <trkpt lat="48.79343" lon="7.26923">
        <ele>284.9</ele>
        <time>2020-06-28T06:30:15Z</time>
      </trkpt>
      <trkpt lat="48.79349" lon="7.26925">
        <ele>285.4</ele>
        <time>2020-06-28T06:30:17Z</time>
      </trkpt>
      <trkpt lat="48.79355" lon="7.26927">
        <ele>285.9</ele>
        <time>2020-06-28T06:30:19Z</time>
      </trkpt>
      <trkpt lat="48.79361" lon="7.26928">
        <ele>285.8</ele>
        <time>2020-06-28T06:30:21Z</time>
      </trkpt>
      <trkpt lat="48.79367" lon="7.26927">
        <ele>285</ele>
        <time>2020-06-28T06:30:23Z</time>
      </trkpt>
      <trkpt lat="48.79372" lon="7.26927">
        <ele>284.8</ele>
        <time>2020-06-28T06:30:25Z</time>
      </trkpt>
      <trkpt lat="48.79379" lon="7.26926">
        <ele>284.1</ele>
        <time>2020-06-28T06:30:28Z</time>
      </trkpt>
      <trkpt lat="48.79385" lon="7.26925">
        <ele>283.8</ele>
        <time>2020-06-28T06:30:30Z</time>
      </trkpt>
      <trkpt lat="48.7939" lon="7.26925">
        <ele>283.9</ele>
        <time>2020-06-28T06:30:32Z</time>
      </trkpt>
      <trkpt lat="48.79395" lon="7.26924">
        <ele>283.8</ele>
        <time>2020-06-28T06:30:34Z</time>
      </trkpt>
      <trkpt lat="48.79401" lon="7.26922">
        <ele>283.2</ele>
        <time>2020-06-28T06:30:36Z</time>
      </trkpt>
      <trkpt lat="48.79405" lon="7.2692">
        <ele>282.4</ele>
        <time>2020-06-28T06:30:38Z</time>
      </trkpt>
      <trkpt lat="48.79411" lon="7.26916">
        <ele>281.4</ele>
        <time>2020-06-28T06:30:41Z</time>
      </trkpt>
      <trkpt lat="48.79416" lon="7.2691">
        <ele>280.9</ele>
        <time>2020-06-28T06:30:44Z</time>
      </trkpt>
      <trkpt lat="48.7942" lon="7.26905">
        <ele>280.8</ele>
        <time>2020-06-28T06:30:46Z</time>
      </trkpt>
      <trkpt lat="48.79424" lon="7.26899">
        <ele>280.9</ele>
        <time>2020-06-28T06:30:48Z</time>
      </trkpt>
      <trkpt lat="48.79426" lon="7.26891">
        <ele>281.3</ele>
        <time>2020-06-28T06:30:50Z</time>
      </trkpt>
      <trkpt lat="48.79427" lon="7.26882">
        <ele>281.5</ele>
        <time>2020-06-28T06:30:52Z</time>
      </trkpt>
      <trkpt lat="48.79428" lon="7.26873">
        <ele>282.1</ele>
        <time>2020-06-28T06:30:54Z</time>
      </trkpt>
      <trkpt lat="48.79427" lon="7.26863">
        <ele>282.3</ele>
        <time>2020-06-28T06:30:56Z</time>
      </trkpt>
      <trkpt lat="48.79426" lon="7.26854">
        <ele>282.7</ele>
        <time>2020-06-28T06:30:58Z</time>
      </trkpt>
      <trkpt lat="48.79423" lon="7.26844">
        <ele>282.5</ele>
        <time>2020-06-28T06:31:00Z</time>
      </trkpt>
      <trkpt lat="48.79419" lon="7.26834">
        <ele>282.3</ele>
        <time>2020-06-28T06:31:02Z</time>
      </trkpt>
      <trkpt lat="48.79417" lon="7.26823">
        <ele>282.4</ele>
        <time>2020-06-28T06:31:04Z</time>
      </trkpt>
      <trkpt lat="48.7942" lon="7.26816">
        <ele>282.8</ele>
        <time>2020-06-28T06:31:06Z</time>
      </trkpt>
      <trkpt lat="48.79424" lon="7.26814">
        <ele>284</ele>
        <time>2020-06-28T06:31:08Z</time>
      </trkpt>
      <trkpt lat="48.7943" lon="7.26815">
        <ele>284.4</ele>
        <time>2020-06-28T06:31:10Z</time>
      </trkpt>
      <trkpt lat="48.79435" lon="7.26815">
        <ele>284.7</ele>
        <time>2020-06-28T06:31:12Z</time>
      </trkpt>
      <trkpt lat="48.7944" lon="7.26815">
        <ele>285</ele>
        <time>2020-06-28T06:31:14Z</time>
      </trkpt>
      <trkpt lat="48.79445" lon="7.26814">
        <ele>285.1</ele>
        <time>2020-06-28T06:31:16Z</time>
      </trkpt>
      <trkpt lat="48.7945" lon="7.26814">
        <ele>285</ele>
        <time>2020-06-28T06:31:18Z</time>
      </trkpt>
      <trkpt lat="48.79456" lon="7.26814">
        <ele>285.5</ele>
        <time>2020-06-28T06:31:21Z</time>
      </trkpt>
      <trkpt lat="48.79461" lon="7.26815">
        <ele>285.2</ele>
        <time>2020-06-28T06:31:23Z</time>
      </trkpt>
      <trkpt lat="48.79468" lon="7.26814">
        <ele>285.2</ele>
        <time>2020-06-28T06:31:26Z</time>
      </trkpt>
      <trkpt lat="48.79472" lon="7.26814">
        <ele>285.3</ele>
        <time>2020-06-28T06:31:28Z</time>
      </trkpt>
      <trkpt lat="48.79479" lon="7.26814">
        <ele>285.5</ele>
        <time>2020-06-28T06:31:31Z</time>
      </trkpt>
      <trkpt lat="48.79484" lon="7.26814">
        <ele>286</ele>
        <time>2020-06-28T06:31:33Z</time>
      </trkpt>
      <trkpt lat="48.7949" lon="7.26816">
        <ele>286.9</ele>
        <time>2020-06-28T06:31:36Z</time>
      </trkpt>
      <trkpt lat="48.79496" lon="7.26818">
        <ele>287.9</ele>
        <time>2020-06-28T06:31:39Z</time>
      </trkpt>
      <trkpt lat="48.79501" lon="7.2682">
        <ele>289.8</ele>
        <time>2020-06-28T06:31:42Z</time>
      </trkpt>
      <trkpt lat="48.79506" lon="7.26822">
        <ele>290.4</ele>
        <time>2020-06-28T06:31:45Z</time>
      </trkpt>
      <trkpt lat="48.79513" lon="7.26823">
        <ele>290.3</ele>
        <time>2020-06-28T06:31:48Z</time>
      </trkpt>
      <trkpt lat="48.79518" lon="7.26823">
        <ele>290.3</ele>
        <time>2020-06-28T06:31:50Z</time>
      </trkpt>
      <trkpt lat="48.79522" lon="7.26824">
        <ele>290.6</ele>
        <time>2020-06-28T06:31:52Z</time>
      </trkpt>
      <trkpt lat="48.79529" lon="7.26828">
        <ele>291.4</ele>
        <time>2020-06-28T06:31:55Z</time>
      </trkpt>
      <trkpt lat="48.79533" lon="7.2683">
        <ele>291.1</ele>
        <time>2020-06-28T06:31:57Z</time>
      </trkpt>
      <trkpt lat="48.79539" lon="7.26831">
        <ele>291.4</ele>
        <time>2020-06-28T06:31:59Z</time>
      </trkpt>
      <trkpt lat="48.79543" lon="7.26833">
        <ele>291.5</ele>
        <time>2020-06-28T06:32:01Z</time>
      </trkpt>
      <trkpt lat="48.79548" lon="7.26835">
        <ele>291.1</ele>
        <time>2020-06-28T06:32:03Z</time>
      </trkpt>
      <trkpt lat="48.79553" lon="7.26837">
        <ele>291.1</ele>
        <time>2020-06-28T06:32:05Z</time>
      </trkpt>
      <trkpt lat="48.79557" lon="7.26837">
        <ele>291.3</ele>
        <time>2020-06-28T06:32:07Z</time>
      </trkpt>
      <trkpt lat="48.79564" lon="7.26835">
        <ele>292.3</ele>
        <time>2020-06-28T06:32:10Z</time>
      </trkpt>
      <trkpt lat="48.79568" lon="7.26834">
        <ele>293.1</ele>
        <time>2020-06-28T06:32:12Z</time>
      </trkpt>
      <trkpt lat="48.79573" lon="7.26834">
        <ele>294</ele>
        <time>2020-06-28T06:32:14Z</time>
      </trkpt>
      <trkpt lat="48.79578" lon="7.26834">
        <ele>294</ele>
        <time>2020-06-28T06:32:16Z</time>
      </trkpt>
      <trkpt lat="48.79584" lon="7.26835">
        <ele>294.6</ele>
        <time>2020-06-28T06:32:18Z</time>
      </trkpt>
      <trkpt lat="48.79591" lon="7.26835">
        <ele>294.3</ele>
        <time>2020-06-28T06:32:20Z</time>
      </trkpt>
      <trkpt lat="48.79598" lon="7.26836">
        <ele>294.3</ele>
        <time>2020-06-28T06:32:22Z</time>
      </trkpt>
      <trkpt lat="48.79603" lon="7.26835">
        <ele>294.8</ele>
        <time>2020-06-28T06:32:24Z</time>
      </trkpt>
      <trkpt lat="48.79608" lon="7.26835">
        <ele>294.5</ele>
        <time>2020-06-28T06:32:26Z</time>
      </trkpt>
      <trkpt lat="48.79613" lon="7.26835">
        <ele>293.6</ele>
        <time>2020-06-28T06:32:28Z</time>
      </trkpt>
      <trkpt lat="48.79618" lon="7.26835">
        <ele>294.3</ele>
        <time>2020-06-28T06:32:30Z</time>
      </trkpt>
      <trkpt lat="48.79622" lon="7.26836">
        <ele>294.4</ele>
        <time>2020-06-28T06:32:32Z</time>
      </trkpt>
      <trkpt lat="48.79629" lon="7.26839">
        <ele>295.5</ele>
        <time>2020-06-28T06:32:35Z</time>
      </trkpt>
      <trkpt lat="48.79635" lon="7.26842">
        <ele>295.8</ele>
        <time>2020-06-28T06:32:37Z</time>
      </trkpt>
      <trkpt lat="48.7964" lon="7.26845">
        <ele>296.5</ele>
        <time>2020-06-28T06:32:39Z</time>
      </trkpt>
      <trkpt lat="48.79645" lon="7.26848">
        <ele>297.3</ele>
        <time>2020-06-28T06:32:41Z</time>
      </trkpt>
      <trkpt lat="48.79651" lon="7.26849">
        <ele>297.9</ele>
        <time>2020-06-28T06:32:43Z</time>
      </trkpt>
      <trkpt lat="48.79656" lon="7.26851">
        <ele>297.2</ele>
        <time>2020-06-28T06:32:45Z</time>
      </trkpt>
      <trkpt lat="48.7966" lon="7.26854">
        <ele>296.9</ele>
        <time>2020-06-28T06:32:47Z</time>
      </trkpt>
      <trkpt lat="48.79665" lon="7.26857">
        <ele>295.8</ele>
        <time>2020-06-28T06:32:49Z</time>
      </trkpt>
      <trkpt lat="48.7967" lon="7.2686">
        <ele>295.5</ele>
        <time>2020-06-28T06:32:51Z</time>
      </trkpt>
      <trkpt lat="48.79675" lon="7.26862">
        <ele>296</ele>
        <time>2020-06-28T06:32:53Z</time>
      </trkpt>
      <trkpt lat="48.7968" lon="7.26864">
        <ele>295.9</ele>
        <time>2020-06-28T06:32:55Z</time>
      </trkpt>
      <trkpt lat="48.79686" lon="7.26865">
        <ele>296.2</ele>
        <time>2020-06-28T06:32:57Z</time>
      </trkpt>
      <trkpt lat="48.79692" lon="7.26867">
        <ele>296.6</ele>
        <time>2020-06-28T06:32:59Z</time>
      </trkpt>
      <trkpt lat="48.79697" lon="7.26869">
        <ele>297</ele>
        <time>2020-06-28T06:33:01Z</time>
      </trkpt>
      <trkpt lat="48.79702" lon="7.26869">
        <ele>296.6</ele>
        <time>2020-06-28T06:33:03Z</time>
      </trkpt>
      <trkpt lat="48.79707" lon="7.26869">
        <ele>297.3</ele>
        <time>2020-06-28T06:33:05Z</time>
      </trkpt>
      <trkpt lat="48.79713" lon="7.26868">
        <ele>297.4</ele>
        <time>2020-06-28T06:33:07Z</time>
      </trkpt>
      <trkpt lat="48.79719" lon="7.26868">
        <ele>298.3</ele>
        <time>2020-06-28T06:33:09Z</time>
      </trkpt>
      <trkpt lat="48.79726" lon="7.26868">
        <ele>298.7</ele>
        <time>2020-06-28T06:33:11Z</time>
      </trkpt>
      <trkpt lat="48.79731" lon="7.26868">
        <ele>299.2</ele>
        <time>2020-06-28T06:33:13Z</time>
      </trkpt>
      <trkpt lat="48.79737" lon="7.26869">
        <ele>299.6</ele>
        <time>2020-06-28T06:33:17Z</time>
      </trkpt>
      <trkpt lat="48.79743" lon="7.26871">
        <ele>300.2</ele>
        <time>2020-06-28T06:33:20Z</time>
      </trkpt>
      <trkpt lat="48.79749" lon="7.26876">
        <ele>301.2</ele>
        <time>2020-06-28T06:33:23Z</time>
      </trkpt>
      <trkpt lat="48.79754" lon="7.26881">
        <ele>302.4</ele>
        <time>2020-06-28T06:33:25Z</time>
      </trkpt>
      <trkpt lat="48.79758" lon="7.26884">
        <ele>302.9</ele>
        <time>2020-06-28T06:33:27Z</time>
      </trkpt>
      <trkpt lat="48.79763" lon="7.26887">
        <ele>303.7</ele>
        <time>2020-06-28T06:33:29Z</time>
      </trkpt>
      <trkpt lat="48.79768" lon="7.26888">
        <ele>304.2</ele>
        <time>2020-06-28T06:33:31Z</time>
      </trkpt>
      <trkpt lat="48.79773" lon="7.26888">
        <ele>303.8</ele>
        <time>2020-06-28T06:33:33Z</time>
      </trkpt>
      <trkpt lat="48.7978" lon="7.26888">
        <ele>303.9</ele>
        <time>2020-06-28T06:33:35Z</time>
      </trkpt>
      <trkpt lat="48.79786" lon="7.26888">
        <ele>304.1</ele>
        <time>2020-06-28T06:33:37Z</time>
      </trkpt>
      <trkpt lat="48.79793" lon="7.26888">
        <ele>304.3</ele>
        <time>2020-06-28T06:33:39Z</time>
      </trkpt>
      <trkpt lat="48.79799" lon="7.26888">
        <ele>303.4</ele>
        <time>2020-06-28T06:33:41Z</time>
      </trkpt>
      <trkpt lat="48.79806" lon="7.26889">
        <ele>303.3</ele>
        <time>2020-06-28T06:33:43Z</time>
      </trkpt>
      <trkpt lat="48.79811" lon="7.26889">
        <ele>303.4</ele>
        <time>2020-06-28T06:33:45Z</time>
      </trkpt>
      <trkpt lat="48.79816" lon="7.2689">
        <ele>302.7</ele>
        <time>2020-06-28T06:33:47Z</time>
      </trkpt>
      <trkpt lat="48.79821" lon="7.26891">
        <ele>303.4</ele>
        <time>2020-06-28T06:33:49Z</time>
      </trkpt>
      <trkpt lat="48.79825" lon="7.26892">
        <ele>303.5</ele>
        <time>2020-06-28T06:33:51Z</time>
      </trkpt>
      <trkpt lat="48.79831" lon="7.26894">
        <ele>304.7</ele>
        <time>2020-06-28T06:33:54Z</time>
      </trkpt>
      <trkpt lat="48.79836" lon="7.26897">
        <ele>305.3</ele>
        <time>2020-06-28T06:33:56Z</time>
      </trkpt>
      <trkpt lat="48.7984" lon="7.269">
        <ele>306.2</ele>
        <time>2020-06-28T06:33:58Z</time>
      </trkpt>
      <trkpt lat="48.79846" lon="7.26902">
        <ele>307.1</ele>
        <time>2020-06-28T06:34:00Z</time>
      </trkpt>
      <trkpt lat="48.79852" lon="7.26905">
        <ele>307.4</ele>
        <time>2020-06-28T06:34:02Z</time>
      </trkpt>
      <trkpt lat="48.79858" lon="7.26907">
        <ele>306.8</ele>
        <time>2020-06-28T06:34:04Z</time>
      </trkpt>
      <trkpt lat="48.79863" lon="7.2691">
        <ele>306.6</ele>
        <time>2020-06-28T06:34:06Z</time>
      </trkpt>
      <trkpt lat="48.7987" lon="7.26911">
        <ele>306.5</ele>
        <time>2020-06-28T06:34:08Z</time>
      </trkpt>
      <trkpt lat="48.79877" lon="7.26913">
        <ele>306.6</ele>
        <time>2020-06-28T06:34:10Z</time>
      </trkpt>
      <trkpt lat="48.79883" lon="7.26916">
        <ele>306.6</ele>
        <time>2020-06-28T06:34:12Z</time>
      </trkpt>
      <trkpt lat="48.79889" lon="7.26917">
        <ele>306.4</ele>
        <time>2020-06-28T06:34:14Z</time>
      </trkpt>
      <trkpt lat="48.79894" lon="7.26918">
        <ele>306.8</ele>
        <time>2020-06-28T06:34:16Z</time>
      </trkpt>
      <trkpt lat="48.79899" lon="7.26918">
        <ele>307.8</ele>
        <time>2020-06-28T06:34:18Z</time>
      </trkpt>
      <trkpt lat="48.79904" lon="7.2692">
        <ele>308.5</ele>
        <time>2020-06-28T06:34:20Z</time>
      </trkpt>
      <trkpt lat="48.79909" lon="7.26923">
        <ele>309</ele>
        <time>2020-06-28T06:34:22Z</time>
      </trkpt>
      <trkpt lat="48.79913" lon="7.26929">
        <ele>309.4</ele>
        <time>2020-06-28T06:34:25Z</time>
      </trkpt>
      <trkpt lat="48.79916" lon="7.26935">
        <ele>308.3</ele>
        <time>2020-06-28T06:34:28Z</time>
      </trkpt>
      <trkpt lat="48.79917" lon="7.26942">
        <ele>306.4</ele>
        <time>2020-06-28T06:34:31Z</time>
      </trkpt>
      <trkpt lat="48.79922" lon="7.26949">
        <ele>305.4</ele>
        <time>2020-06-28T06:34:34Z</time>
      </trkpt>
      <trkpt lat="48.79928" lon="7.26952">
        <ele>304.9</ele>
        <time>2020-06-28T06:34:37Z</time>
      </trkpt>
      <trkpt lat="48.79932" lon="7.26952">
        <ele>305.1</ele>
        <time>2020-06-28T06:34:39Z</time>
      </trkpt>
      <trkpt lat="48.79938" lon="7.26952">
        <ele>305</ele>
        <time>2020-06-28T06:34:41Z</time>
      </trkpt>
      <trkpt lat="48.79945" lon="7.26955">
        <ele>304.7</ele>
        <time>2020-06-28T06:34:43Z</time>
      </trkpt>
      <trkpt lat="48.79951" lon="7.26958">
        <ele>304.4</ele>
        <time>2020-06-28T06:34:45Z</time>
      </trkpt>
      <trkpt lat="48.79958" lon="7.26959">
        <ele>303.7</ele>
        <time>2020-06-28T06:34:47Z</time>
      </trkpt>
      <trkpt lat="48.79966" lon="7.26958">
        <ele>302.7</ele>
        <time>2020-06-28T06:34:49Z</time>
      </trkpt>
      <trkpt lat="48.79973" lon="7.26957">
        <ele>301.6</ele>
        <time>2020-06-28T06:34:51Z</time>
      </trkpt>
      <trkpt lat="48.79977" lon="7.26956">
        <ele>301.2</ele>
        <time>2020-06-28T06:34:53Z</time>
      </trkpt>
      <trkpt lat="48.79983" lon="7.26958">
        <ele>300.9</ele>
        <time>2020-06-28T06:34:55Z</time>
      </trkpt>
      <trkpt lat="48.79989" lon="7.26959">
        <ele>300.7</ele>
        <time>2020-06-28T06:34:57Z</time>
      </trkpt>
      <trkpt lat="48.79995" lon="7.2696">
        <ele>300.5</ele>
        <time>2020-06-28T06:34:59Z</time>
      </trkpt>
      <trkpt lat="48.80001" lon="7.26961">
        <ele>300</ele>
        <time>2020-06-28T06:35:01Z</time>
      </trkpt>
      <trkpt lat="48.80006" lon="7.26962">
        <ele>299.7</ele>
        <time>2020-06-28T06:35:03Z</time>
      </trkpt>
      <trkpt lat="48.80011" lon="7.26965">
        <ele>299.2</ele>
        <time>2020-06-28T06:35:05Z</time>
      </trkpt>
      <trkpt lat="48.80016" lon="7.26967">
        <ele>298.9</ele>
        <time>2020-06-28T06:35:07Z</time>
      </trkpt>
      <trkpt lat="48.8002" lon="7.26969">
        <ele>298.4</ele>
        <time>2020-06-28T06:35:09Z</time>
      </trkpt>
      <trkpt lat="48.80025" lon="7.26973">
        <ele>299.5</ele>
        <time>2020-06-28T06:35:11Z</time>
      </trkpt>
      <trkpt lat="48.8003" lon="7.26976">
        <ele>300.3</ele>
        <time>2020-06-28T06:35:13Z</time>
      </trkpt>
      <trkpt lat="48.80035" lon="7.26981">
        <ele>301.3</ele>
        <time>2020-06-28T06:35:15Z</time>
      </trkpt>
      <trkpt lat="48.80039" lon="7.26986">
        <ele>302.6</ele>
        <time>2020-06-28T06:35:17Z</time>
      </trkpt>
      <trkpt lat="48.80042" lon="7.26993">
        <ele>303.2</ele>
        <time>2020-06-28T06:35:19Z</time>
      </trkpt>
      <trkpt lat="48.80047" lon="7.26997">
        <ele>303.5</ele>
        <time>2020-06-28T06:35:21Z</time>
      </trkpt>
      <trkpt lat="48.80053" lon="7.26998">
        <ele>303.7</ele>
        <time>2020-06-28T06:35:23Z</time>
      </trkpt>
      <trkpt lat="48.80059" lon="7.26998">
        <ele>304.3</ele>
        <time>2020-06-28T06:35:25Z</time>
      </trkpt>
      <trkpt lat="48.80065" lon="7.26999">
        <ele>304.4</ele>
        <time>2020-06-28T06:35:27Z</time>
      </trkpt>
      <trkpt lat="48.80071" lon="7.26999">
        <ele>304.6</ele>
        <time>2020-06-28T06:35:29Z</time>
      </trkpt>
      <trkpt lat="48.80076" lon="7.27">
        <ele>304.8</ele>
        <time>2020-06-28T06:35:31Z</time>
      </trkpt>
      <trkpt lat="48.80081" lon="7.27">
        <ele>304.4</ele>
        <time>2020-06-28T06:35:33Z</time>
      </trkpt>
      <trkpt lat="48.80086" lon="7.27002">
        <ele>304.2</ele>
        <time>2020-06-28T06:35:35Z</time>
      </trkpt>
      <trkpt lat="48.8009" lon="7.27002">
        <ele>304.5</ele>
        <time>2020-06-28T06:35:37Z</time>
      </trkpt>
      <trkpt lat="48.80097" lon="7.27004">
        <ele>305.4</ele>
        <time>2020-06-28T06:35:40Z</time>
      </trkpt>
      <trkpt lat="48.80103" lon="7.27007">
        <ele>305.7</ele>
        <time>2020-06-28T06:35:43Z</time>
      </trkpt>
      <trkpt lat="48.80109" lon="7.27009">
        <ele>306.6</ele>
        <time>2020-06-28T06:35:46Z</time>
      </trkpt>
      <trkpt lat="48.80115" lon="7.2701">
        <ele>308</ele>
        <time>2020-06-28T06:35:49Z</time>
      </trkpt>
      <trkpt lat="48.8012" lon="7.2701">
        <ele>308.1</ele>
        <time>2020-06-28T06:35:51Z</time>
      </trkpt>
      <trkpt lat="48.80125" lon="7.27011">
        <ele>308.3</ele>
        <time>2020-06-28T06:35:53Z</time>
      </trkpt>
      <trkpt lat="48.80131" lon="7.27012">
        <ele>308.5</ele>
        <time>2020-06-28T06:35:55Z</time>
      </trkpt>
      <trkpt lat="48.80137" lon="7.27015">
        <ele>308.8</ele>
        <time>2020-06-28T06:35:57Z</time>
      </trkpt>
      <trkpt lat="48.80145" lon="7.27018">
        <ele>308.2</ele>
        <time>2020-06-28T06:36:00Z</time>
      </trkpt>
      <trkpt lat="48.80152" lon="7.2702">
        <ele>308.3</ele>
        <time>2020-06-28T06:36:03Z</time>
      </trkpt>
      <trkpt lat="48.80157" lon="7.27021">
        <ele>308.3</ele>
        <time>2020-06-28T06:36:05Z</time>
      </trkpt>
      <trkpt lat="48.80163" lon="7.27022">
        <ele>307.9</ele>
        <time>2020-06-28T06:36:07Z</time>
      </trkpt>
      <trkpt lat="48.80168" lon="7.27022">
        <ele>307.4</ele>
        <time>2020-06-28T06:36:09Z</time>
      </trkpt>
      <trkpt lat="48.80175" lon="7.27022">
        <ele>307.3</ele>
        <time>2020-06-28T06:36:11Z</time>
      </trkpt>
      <trkpt lat="48.80181" lon="7.27022">
        <ele>307.3</ele>
        <time>2020-06-28T06:36:13Z</time>
      </trkpt>
      <trkpt lat="48.80188" lon="7.27023">
        <ele>308.3</ele>
        <time>2020-06-28T06:36:15Z</time>
      </trkpt>
      <trkpt lat="48.80195" lon="7.27022">
        <ele>308.9</ele>
        <time>2020-06-28T06:36:17Z</time>
      </trkpt>
      <trkpt lat="48.80201" lon="7.27022">
        <ele>309.1</ele>
        <time>2020-06-28T06:36:19Z</time>
      </trkpt>
      <trkpt lat="48.80208" lon="7.27022">
        <ele>308.6</ele>
        <time>2020-06-28T06:36:21Z</time>
      </trkpt>
      <trkpt lat="48.80215" lon="7.27022">
        <ele>308.5</ele>
        <time>2020-06-28T06:36:23Z</time>
      </trkpt>
      <trkpt lat="48.80222" lon="7.27022">
        <ele>308.3</ele>
        <time>2020-06-28T06:36:25Z</time>
      </trkpt>
      <trkpt lat="48.80229" lon="7.27023">
        <ele>308.8</ele>
        <time>2020-06-28T06:36:27Z</time>
      </trkpt>
      <trkpt lat="48.80235" lon="7.27025">
        <ele>309.5</ele>
        <time>2020-06-28T06:36:29Z</time>
      </trkpt>
      <trkpt lat="48.80242" lon="7.27026">
        <ele>309.5</ele>
        <time>2020-06-28T06:36:31Z</time>
      </trkpt>
      <trkpt lat="48.80248" lon="7.27027">
        <ele>309.4</ele>
        <time>2020-06-28T06:36:33Z</time>
      </trkpt>
      <trkpt lat="48.80255" lon="7.27026">
        <ele>308.7</ele>
        <time>2020-06-28T06:36:35Z</time>
      </trkpt>
      <trkpt lat="48.80263" lon="7.27025">
        <ele>308.3</ele>
        <time>2020-06-28T06:36:37Z</time>
      </trkpt>
      <trkpt lat="48.80269" lon="7.27023">
        <ele>307.6</ele>
        <time>2020-06-28T06:36:39Z</time>
      </trkpt>
      <trkpt lat="48.80275" lon="7.27021">
        <ele>307.7</ele>
        <time>2020-06-28T06:36:41Z</time>
      </trkpt>
      <trkpt lat="48.80281" lon="7.27019">
        <ele>308.6</ele>
        <time>2020-06-28T06:36:43Z</time>
      </trkpt>
      <trkpt lat="48.80287" lon="7.2702">
        <ele>309</ele>
        <time>2020-06-28T06:36:45Z</time>
      </trkpt>
      <trkpt lat="48.80292" lon="7.27021">
        <ele>309.6</ele>
        <time>2020-06-28T06:36:47Z</time>
      </trkpt>
      <trkpt lat="48.80298" lon="7.27021">
        <ele>310.6</ele>
        <time>2020-06-28T06:36:49Z</time>
      </trkpt>
      <trkpt lat="48.80303" lon="7.27022">
        <ele>311.4</ele>
        <time>2020-06-28T06:36:51Z</time>
      </trkpt>
      <trkpt lat="48.80308" lon="7.27022">
        <ele>312.3</ele>
        <time>2020-06-28T06:36:53Z</time>
      </trkpt>
      <trkpt lat="48.80314" lon="7.27022">
        <ele>313.1</ele>
        <time>2020-06-28T06:36:55Z</time>
      </trkpt>
      <trkpt lat="48.80318" lon="7.27022">
        <ele>314.6</ele>
        <time>2020-06-28T06:36:57Z</time>
      </trkpt>
      <trkpt lat="48.80323" lon="7.27021">
        <ele>315.5</ele>
        <time>2020-06-28T06:36:59Z</time>
      </trkpt>
      <trkpt lat="48.8033" lon="7.2702">
        <ele>316.3</ele>
        <time>2020-06-28T06:37:02Z</time>
      </trkpt>
      <trkpt lat="48.80335" lon="7.27019">
        <ele>316.1</ele>
        <time>2020-06-28T06:37:04Z</time>
      </trkpt>
      <trkpt lat="48.80341" lon="7.27018">
        <ele>315.6</ele>
        <time>2020-06-28T06:37:06Z</time>
      </trkpt>
      <trkpt lat="48.80348" lon="7.27017">
        <ele>314.8</ele>
        <time>2020-06-28T06:37:08Z</time>
      </trkpt>
      <trkpt lat="48.80354" lon="7.27016">
        <ele>314.9</ele>
        <time>2020-06-28T06:37:10Z</time>
      </trkpt>
      <trkpt lat="48.8036" lon="7.27015">
        <ele>313.6</ele>
        <time>2020-06-28T06:37:12Z</time>
      </trkpt>
      <trkpt lat="48.80366" lon="7.27014">
        <ele>313</ele>
        <time>2020-06-28T06:37:14Z</time>
      </trkpt>
      <trkpt lat="48.80371" lon="7.27012">
        <ele>312.2</ele>
        <time>2020-06-28T06:37:16Z</time>
      </trkpt>
      <trkpt lat="48.80376" lon="7.2701">
        <ele>311.4</ele>
        <time>2020-06-28T06:37:18Z</time>
      </trkpt>
      <trkpt lat="48.80383" lon="7.27007">
        <ele>311.9</ele>
        <time>2020-06-28T06:37:21Z</time>
      </trkpt>
      <trkpt lat="48.80387" lon="7.27006">
        <ele>311.9</ele>
        <time>2020-06-28T06:37:23Z</time>
      </trkpt>
      <trkpt lat="48.80392" lon="7.27005">
        <ele>312.6</ele>
        <time>2020-06-28T06:37:25Z</time>
      </trkpt>
      <trkpt lat="48.80398" lon="7.27006">
        <ele>313.3</ele>
        <time>2020-06-28T06:37:27Z</time>
      </trkpt>
      <trkpt lat="48.80404" lon="7.27009">
        <ele>313.4</ele>
        <time>2020-06-28T06:37:29Z</time>
      </trkpt>
      <trkpt lat="48.8041" lon="7.2701">
        <ele>313.1</ele>
        <time>2020-06-28T06:37:31Z</time>
      </trkpt>
      <trkpt lat="48.80415" lon="7.27008">
        <ele>312.3</ele>
        <time>2020-06-28T06:37:33Z</time>
      </trkpt>
      <trkpt lat="48.8042" lon="7.27006">
        <ele>312.3</ele>
        <time>2020-06-28T06:37:35Z</time>
      </trkpt>
      <trkpt lat="48.80425" lon="7.27005">
        <ele>312.6</ele>
        <time>2020-06-28T06:37:37Z</time>
      </trkpt>
      <trkpt lat="48.8043" lon="7.27004">
        <ele>311.7</ele>
        <time>2020-06-28T06:37:39Z</time>
      </trkpt>
      <trkpt lat="48.80436" lon="7.27003">
        <ele>311.6</ele>
        <time>2020-06-28T06:37:41Z</time>
      </trkpt>
      <trkpt lat="48.80443" lon="7.27003">
        <ele>311.1</ele>
        <time>2020-06-28T06:37:43Z</time>
      </trkpt>
      <trkpt lat="48.8045" lon="7.27004">
        <ele>311.6</ele>
        <time>2020-06-28T06:37:45Z</time>
      </trkpt>
      <trkpt lat="48.80456" lon="7.27003">
        <ele>312.1</ele>
        <time>2020-06-28T06:37:47Z</time>
      </trkpt>
      <trkpt lat="48.80461" lon="7.27001">
        <ele>312.2</ele>
        <time>2020-06-28T06:37:49Z</time>
      </trkpt>
      <trkpt lat="48.80467" lon="7.26999">
        <ele>312</ele>
        <time>2020-06-28T06:37:51Z</time>
      </trkpt>
      <trkpt lat="48.80473" lon="7.26996">
        <ele>312.4</ele>
        <time>2020-06-28T06:37:53Z</time>
      </trkpt>
      <trkpt lat="48.80479" lon="7.26994">
        <ele>312.4</ele>
        <time>2020-06-28T06:37:55Z</time>
      </trkpt>
      <trkpt lat="48.80485" lon="7.26993">
        <ele>313.4</ele>
        <time>2020-06-28T06:37:57Z</time>
      </trkpt>
      <trkpt lat="48.80491" lon="7.26993">
        <ele>314.7</ele>
        <time>2020-06-28T06:37:59Z</time>
      </trkpt>
      <trkpt lat="48.80497" lon="7.26993">
        <ele>315.3</ele>
        <time>2020-06-28T06:38:01Z</time>
      </trkpt>
      <trkpt lat="48.80502" lon="7.26994">
        <ele>315.7</ele>
        <time>2020-06-28T06:38:03Z</time>
      </trkpt>
      <trkpt lat="48.80509" lon="7.26995">
        <ele>316.8</ele>
        <time>2020-06-28T06:38:06Z</time>
      </trkpt>
      <trkpt lat="48.80515" lon="7.26996">
        <ele>317.3</ele>
        <time>2020-06-28T06:38:08Z</time>
      </trkpt>
      <trkpt lat="48.80522" lon="7.26998">
        <ele>317.6</ele>
        <time>2020-06-28T06:38:10Z</time>
      </trkpt>
      <trkpt lat="48.80528" lon="7.27">
        <ele>317.4</ele>
        <time>2020-06-28T06:38:12Z</time>
      </trkpt>
      <trkpt lat="48.80535" lon="7.27001">
        <ele>317.5</ele>
        <time>2020-06-28T06:38:14Z</time>
      </trkpt>
      <trkpt lat="48.8054" lon="7.27002">
        <ele>318.2</ele>
        <time>2020-06-28T06:38:16Z</time>
      </trkpt>
      <trkpt lat="48.80546" lon="7.27004">
        <ele>319.1</ele>
        <time>2020-06-28T06:38:18Z</time>
      </trkpt>
      <trkpt lat="48.80552" lon="7.27007">
        <ele>321</ele>
        <time>2020-06-28T06:38:21Z</time>
      </trkpt>
      <trkpt lat="48.80559" lon="7.27011">
        <ele>321.9</ele>
        <time>2020-06-28T06:38:24Z</time>
      </trkpt>
      <trkpt lat="48.80564" lon="7.27012">
        <ele>321.6</ele>
        <time>2020-06-28T06:38:26Z</time>
      </trkpt>
      <trkpt lat="48.8057" lon="7.27014">
        <ele>321.6</ele>
        <time>2020-06-28T06:38:28Z</time>
      </trkpt>
      <trkpt lat="48.80575" lon="7.27017">
        <ele>321.4</ele>
        <time>2020-06-28T06:38:30Z</time>
      </trkpt>
      <trkpt lat="48.8058" lon="7.27021">
        <ele>321.4</ele>
        <time>2020-06-28T06:38:32Z</time>
      </trkpt>
      <trkpt lat="48.80585" lon="7.27024">
        <ele>321.2</ele>
        <time>2020-06-28T06:38:34Z</time>
      </trkpt>
      <trkpt lat="48.80591" lon="7.27028">
        <ele>321.1</ele>
        <time>2020-06-28T06:38:36Z</time>
      </trkpt>
      <trkpt lat="48.80596" lon="7.27031">
        <ele>320.7</ele>
        <time>2020-06-28T06:38:38Z</time>
      </trkpt>
      <trkpt lat="48.80603" lon="7.27033">
        <ele>321.2</ele>
        <time>2020-06-28T06:38:40Z</time>
      </trkpt>
      <trkpt lat="48.8061" lon="7.27035">
        <ele>321.9</ele>
        <time>2020-06-28T06:38:42Z</time>
      </trkpt>
      <trkpt lat="48.80618" lon="7.27036">
        <ele>322.4</ele>
        <time>2020-06-28T06:38:44Z</time>
      </trkpt>
      <trkpt lat="48.80626" lon="7.27036">
        <ele>323</ele>
        <time>2020-06-28T06:38:46Z</time>
      </trkpt>
      <trkpt lat="48.80634" lon="7.27037">
        <ele>323.6</ele>
        <time>2020-06-28T06:38:48Z</time>
      </trkpt>
      <trkpt lat="48.80641" lon="7.27039">
        <ele>323.6</ele>
        <time>2020-06-28T06:38:50Z</time>
      </trkpt>
      <trkpt lat="48.80647" lon="7.27042">
        <ele>324.1</ele>
        <time>2020-06-28T06:38:52Z</time>
      </trkpt>
      <trkpt lat="48.80653" lon="7.27044">
        <ele>324.7</ele>
        <time>2020-06-28T06:38:54Z</time>
      </trkpt>
      <trkpt lat="48.80659" lon="7.27048">
        <ele>325.3</ele>
        <time>2020-06-28T06:38:56Z</time>
      </trkpt>
      <trkpt lat="48.80665" lon="7.27052">
        <ele>325.7</ele>
        <time>2020-06-28T06:38:58Z</time>
      </trkpt>
      <trkpt lat="48.80671" lon="7.27055">
        <ele>326.1</ele>
        <time>2020-06-28T06:39:00Z</time>
      </trkpt>
      <trkpt lat="48.80676" lon="7.27058">
        <ele>326.3</ele>
        <time>2020-06-28T06:39:02Z</time>
      </trkpt>
      <trkpt lat="48.80682" lon="7.27061">
        <ele>326.1</ele>
        <time>2020-06-28T06:39:04Z</time>
      </trkpt>
      <trkpt lat="48.80687" lon="7.27064">
        <ele>326.3</ele>
        <time>2020-06-28T06:39:06Z</time>
      </trkpt>
      <trkpt lat="48.80692" lon="7.27069">
        <ele>326.1</ele>
        <time>2020-06-28T06:39:08Z</time>
      </trkpt>
      <trkpt lat="48.80699" lon="7.27075">
        <ele>326</ele>
        <time>2020-06-28T06:39:10Z</time>
      </trkpt>
      <trkpt lat="48.80704" lon="7.27081">
        <ele>326</ele>
        <time>2020-06-28T06:39:12Z</time>
      </trkpt>
      <trkpt lat="48.80708" lon="7.27087">
        <ele>325.6</ele>
        <time>2020-06-28T06:39:14Z</time>
      </trkpt>
      <trkpt lat="48.80711" lon="7.27093">
        <ele>325.7</ele>
        <time>2020-06-28T06:39:16Z</time>
      </trkpt>
      <trkpt lat="48.80714" lon="7.27099">
        <ele>324.9</ele>
        <time>2020-06-28T06:39:18Z</time>
      </trkpt>
      <trkpt lat="48.80717" lon="7.27109">
        <ele>325</ele>
        <time>2020-06-28T06:39:21Z</time>
      </trkpt>
      <trkpt lat="48.80718" lon="7.27115">
        <ele>324.8</ele>
        <time>2020-06-28T06:39:23Z</time>
      </trkpt>
      <trkpt lat="48.80721" lon="7.27123">
        <ele>324.9</ele>
        <time>2020-06-28T06:39:25Z</time>
      </trkpt>
      <trkpt lat="48.80724" lon="7.27131">
        <ele>324.3</ele>
        <time>2020-06-28T06:39:27Z</time>
      </trkpt>
      <trkpt lat="48.80727" lon="7.27138">
        <ele>324.7</ele>
        <time>2020-06-28T06:39:29Z</time>
      </trkpt>
      <trkpt lat="48.80731" lon="7.27143">
        <ele>324.5</ele>
        <time>2020-06-28T06:39:31Z</time>
      </trkpt>
      <trkpt lat="48.80734" lon="7.27149">
        <ele>324.5</ele>
        <time>2020-06-28T06:39:33Z</time>
      </trkpt>
      <trkpt lat="48.80736" lon="7.27156">
        <ele>324.5</ele>
        <time>2020-06-28T06:39:35Z</time>
      </trkpt>
      <trkpt lat="48.80739" lon="7.27163">
        <ele>323.9</ele>
        <time>2020-06-28T06:39:37Z</time>
      </trkpt>
      <trkpt lat="48.80743" lon="7.27171">
        <ele>323.5</ele>
        <time>2020-06-28T06:39:40Z</time>
      </trkpt>
      <trkpt lat="48.80747" lon="7.27173">
        <ele>322.8</ele>
        <time>2020-06-28T06:39:42Z</time>
      </trkpt>
      <trkpt lat="48.80753" lon="7.27171">
        <ele>322.2</ele>
        <time>2020-06-28T06:39:44Z</time>
      </trkpt>
      <trkpt lat="48.80758" lon="7.27167">
        <ele>321.8</ele>
        <time>2020-06-28T06:39:46Z</time>
      </trkpt>
      <trkpt lat="48.80764" lon="7.27163">
        <ele>320.9</ele>
        <time>2020-06-28T06:39:48Z</time>
      </trkpt>
      <trkpt lat="48.80769" lon="7.27157">
        <ele>320.4</ele>
        <time>2020-06-28T06:39:50Z</time>
      </trkpt>
      <trkpt lat="48.80776" lon="7.27152">
        <ele>320.5</ele>
        <time>2020-06-28T06:39:52Z</time>
      </trkpt>
      <trkpt lat="48.80782" lon="7.27147">
        <ele>319.8</ele>
        <time>2020-06-28T06:39:54Z</time>
      </trkpt>
      <trkpt lat="48.80789" lon="7.27144">
        <ele>319.1</ele>
        <time>2020-06-28T06:39:56Z</time>
      </trkpt>
      <trkpt lat="48.80794" lon="7.2714">
        <ele>318.9</ele>
        <time>2020-06-28T06:39:58Z</time>
      </trkpt>
      <trkpt lat="48.80798" lon="7.27136">
        <ele>318.5</ele>
        <time>2020-06-28T06:40:00Z</time>
      </trkpt>
      <trkpt lat="48.80802" lon="7.27132">
        <ele>317.8</ele>
        <time>2020-06-28T06:40:03Z</time>
      </trkpt>
      <trkpt lat="48.80806" lon="7.27126">
        <ele>318.1</ele>
        <time>2020-06-28T06:40:07Z</time>
      </trkpt>
      <trkpt lat="48.8081" lon="7.27121">
        <ele>318.6</ele>
        <time>2020-06-28T06:40:11Z</time>
      </trkpt>
      <trkpt lat="48.80804" lon="7.27125">
        <ele>319.4</ele>
        <time>2020-06-28T06:40:23Z</time>
      </trkpt>
      <trkpt lat="48.80801" lon="7.27131">
        <ele>320.6</ele>
        <time>2020-06-28T06:40:26Z</time>
      </trkpt>
      <trkpt lat="48.80801" lon="7.27138">
        <ele>321.8</ele>
        <time>2020-06-28T06:40:30Z</time>
      </trkpt>
      <trkpt lat="48.80804" lon="7.27143">
        <ele>322.4</ele>
        <time>2020-06-28T06:40:33Z</time>
      </trkpt>
      <trkpt lat="48.80808" lon="7.27149">
        <ele>323.6</ele>
        <time>2020-06-28T06:40:37Z</time>
      </trkpt>
      <trkpt lat="48.80812" lon="7.27155">
        <ele>323.5</ele>
        <time>2020-06-28T06:40:40Z</time>
      </trkpt>
      <trkpt lat="48.80815" lon="7.2716">
        <ele>323.5</ele>
        <time>2020-06-28T06:40:42Z</time>
      </trkpt>
      <trkpt lat="48.8082" lon="7.27164">
        <ele>325.3</ele>
        <time>2020-06-28T06:40:44Z</time>
      </trkpt>
      <trkpt lat="48.80824" lon="7.27168">
        <ele>325.5</ele>
        <time>2020-06-28T06:40:46Z</time>
      </trkpt>
      <trkpt lat="48.80829" lon="7.27172">
        <ele>325.8</ele>
        <time>2020-06-28T06:40:48Z</time>
      </trkpt>
      <trkpt lat="48.80835" lon="7.27176">
        <ele>324.9</ele>
        <time>2020-06-28T06:40:50Z</time>
      </trkpt>
      <trkpt lat="48.80841" lon="7.27178">
        <ele>324.3</ele>
        <time>2020-06-28T06:40:52Z</time>
      </trkpt>
      <trkpt lat="48.80845" lon="7.27181">
        <ele>324.7</ele>
        <time>2020-06-28T06:40:54Z</time>
      </trkpt>
      <trkpt lat="48.8085" lon="7.27184">
        <ele>323.5</ele>
        <time>2020-06-28T06:40:56Z</time>
      </trkpt>
      <trkpt lat="48.80854" lon="7.27188">
        <ele>323.1</ele>
        <time>2020-06-28T06:40:58Z</time>
      </trkpt>
      <trkpt lat="48.8086" lon="7.27193">
        <ele>322.6</ele>
        <time>2020-06-28T06:41:01Z</time>
      </trkpt>
      <trkpt lat="48.80864" lon="7.27199">
        <ele>321.3</ele>
        <time>2020-06-28T06:41:04Z</time>
      </trkpt>
      <trkpt lat="48.80868" lon="7.27203">
        <ele>320.5</ele>
        <time>2020-06-28T06:41:06Z</time>
      </trkpt>
      <trkpt lat="48.80875" lon="7.27207">
        <ele>321.1</ele>
        <time>2020-06-28T06:41:09Z</time>
      </trkpt>
      <trkpt lat="48.8088" lon="7.2721">
        <ele>321.6</ele>
        <time>2020-06-28T06:41:11Z</time>
      </trkpt>
      <trkpt lat="48.80886" lon="7.27213">
        <ele>322.3</ele>
        <time>2020-06-28T06:41:13Z</time>
      </trkpt>
      <trkpt lat="48.80892" lon="7.27216">
        <ele>323</ele>
        <time>2020-06-28T06:41:15Z</time>
      </trkpt>
      <trkpt lat="48.80898" lon="7.27219">
        <ele>322.9</ele>
        <time>2020-06-28T06:41:17Z</time>
      </trkpt>
      <trkpt lat="48.80903" lon="7.2722">
        <ele>322.8</ele>
        <time>2020-06-28T06:41:19Z</time>
      </trkpt>
      <trkpt lat="48.80908" lon="7.27219">
        <ele>323.1</ele>
        <time>2020-06-28T06:41:21Z</time>
      </trkpt>
      <trkpt lat="48.80915" lon="7.27218">
        <ele>322.6</ele>
        <time>2020-06-28T06:41:24Z</time>
      </trkpt>
      <trkpt lat="48.80921" lon="7.27219">
        <ele>322.4</ele>
        <time>2020-06-28T06:41:26Z</time>
      </trkpt>
      <trkpt lat="48.80925" lon="7.2722">
        <ele>321.8</ele>
        <time>2020-06-28T06:41:28Z</time>
      </trkpt>
      <trkpt lat="48.80931" lon="7.27221">
        <ele>321.2</ele>
        <time>2020-06-28T06:41:30Z</time>
      </trkpt>
      <trkpt lat="48.80937" lon="7.27223">
        <ele>321.9</ele>
        <time>2020-06-28T06:41:32Z</time>
      </trkpt>
      <trkpt lat="48.80942" lon="7.27226">
        <ele>322.5</ele>
        <time>2020-06-28T06:41:34Z</time>
      </trkpt>
      <trkpt lat="48.80946" lon="7.27232">
        <ele>322.6</ele>
        <time>2020-06-28T06:41:37Z</time>
      </trkpt>
      <trkpt lat="48.8095" lon="7.27238">
        <ele>323.6</ele>
        <time>2020-06-28T06:41:40Z</time>
      </trkpt>
      <trkpt lat="48.80955" lon="7.27238">
        <ele>324.3</ele>
        <time>2020-06-28T06:41:42Z</time>
      </trkpt>
      <trkpt lat="48.8096" lon="7.27236">
        <ele>324.5</ele>
        <time>2020-06-28T06:41:44Z</time>
      </trkpt>
      <trkpt lat="48.80965" lon="7.27236">
        <ele>324.7</ele>
        <time>2020-06-28T06:41:46Z</time>
      </trkpt>
      <trkpt lat="48.80971" lon="7.27239">
        <ele>324.4</ele>
        <time>2020-06-28T06:41:48Z</time>
      </trkpt>
      <trkpt lat="48.80977" lon="7.27244">
        <ele>324.9</ele>
        <time>2020-06-28T06:41:50Z</time>
      </trkpt>
      <trkpt lat="48.80985" lon="7.27248">
        <ele>325.5</ele>
        <time>2020-06-28T06:41:52Z</time>
      </trkpt>
      <trkpt lat="48.80993" lon="7.27252">
        <ele>325.9</ele>
        <time>2020-06-28T06:41:54Z</time>
      </trkpt>
      <trkpt lat="48.81003" lon="7.27257">
        <ele>325.7</ele>
        <time>2020-06-28T06:41:56Z</time>
      </trkpt>
      <trkpt lat="48.81012" lon="7.27262">
        <ele>325.2</ele>
        <time>2020-06-28T06:41:58Z</time>
      </trkpt>
      <trkpt lat="48.81023" lon="7.27267">
        <ele>324.4</ele>
        <time>2020-06-28T06:42:00Z</time>
      </trkpt>
      <trkpt lat="48.81035" lon="7.27271">
        <ele>323.7</ele>
        <time>2020-06-28T06:42:02Z</time>
      </trkpt>
      <trkpt lat="48.81048" lon="7.27275">
        <ele>323.6</ele>
        <time>2020-06-28T06:42:04Z</time>
      </trkpt>
      <trkpt lat="48.8106" lon="7.2728">
        <ele>322.7</ele>
        <time>2020-06-28T06:42:06Z</time>
      </trkpt>
      <trkpt lat="48.81072" lon="7.27284">
        <ele>321.6</ele>
        <time>2020-06-28T06:42:08Z</time>
      </trkpt>
      <trkpt lat="48.81082" lon="7.27288">
        <ele>321.2</ele>
        <time>2020-06-28T06:42:10Z</time>
      </trkpt>
      <trkpt lat="48.81093" lon="7.27292">
        <ele>320.8</ele>
        <time>2020-06-28T06:42:12Z</time>
      </trkpt>
      <trkpt lat="48.81103" lon="7.27295">
        <ele>319.1</ele>
        <time>2020-06-28T06:42:14Z</time>
      </trkpt>
      <trkpt lat="48.81117" lon="7.27299">
        <ele>317.3</ele>
        <time>2020-06-28T06:42:16Z</time>
      </trkpt>
      <trkpt lat="48.81127" lon="7.27305">
        <ele>316.5</ele>
        <time>2020-06-28T06:42:18Z</time>
      </trkpt>
      <trkpt lat="48.81137" lon="7.27312">
        <ele>314.3</ele>
        <time>2020-06-28T06:42:20Z</time>
      </trkpt>
      <trkpt lat="48.81149" lon="7.2732">
        <ele>313.1</ele>
        <time>2020-06-28T06:42:22Z</time>
      </trkpt>
      <trkpt lat="48.8116" lon="7.27327">
        <ele>311.5</ele>
        <time>2020-06-28T06:42:24Z</time>
      </trkpt>
      <trkpt lat="48.81171" lon="7.27334">
        <ele>309.7</ele>
        <time>2020-06-28T06:42:26Z</time>
      </trkpt>
      <trkpt lat="48.81181" lon="7.27342">
        <ele>308.2</ele>
        <time>2020-06-28T06:42:28Z</time>
      </trkpt>
      <trkpt lat="48.81192" lon="7.27348">
        <ele>306.4</ele>
        <time>2020-06-28T06:42:30Z</time>
      </trkpt>
      <trkpt lat="48.81202" lon="7.27348">
        <ele>304.9</ele>
        <time>2020-06-28T06:42:32Z</time>
      </trkpt>
      <trkpt lat="48.8121" lon="7.27341">
        <ele>303.4</ele>
        <time>2020-06-28T06:42:34Z</time>
      </trkpt>
      <trkpt lat="48.81214" lon="7.27334">
        <ele>302.3</ele>
        <time>2020-06-28T06:42:36Z</time>
      </trkpt>
      <trkpt lat="48.81218" lon="7.27329">
        <ele>301.3</ele>
        <time>2020-06-28T06:42:38Z</time>
      </trkpt>
      <trkpt lat="48.81223" lon="7.27325">
        <ele>300.5</ele>
        <time>2020-06-28T06:42:41Z</time>
      </trkpt>
      <trkpt lat="48.81228" lon="7.2733">
        <ele>300.1</ele>
        <time>2020-06-28T06:42:43Z</time>
      </trkpt>
      <trkpt lat="48.81234" lon="7.27338">
        <ele>299.6</ele>
        <time>2020-06-28T06:42:45Z</time>
      </trkpt>
      <trkpt lat="48.81243" lon="7.27345">
        <ele>299.4</ele>
        <time>2020-06-28T06:42:47Z</time>
      </trkpt>
      <trkpt lat="48.81253" lon="7.27355">
        <ele>298.5</ele>
        <time>2020-06-28T06:42:49Z</time>
      </trkpt>
      <trkpt lat="48.81264" lon="7.27371">
        <ele>297.8</ele>
        <time>2020-06-28T06:42:51Z</time>
      </trkpt>
      <trkpt lat="48.81276" lon="7.27397">
        <ele>296.6</ele>
        <time>2020-06-28T06:42:54Z</time>
      </trkpt>
      <trkpt lat="48.81278" lon="7.27415">
        <ele>295.3</ele>
        <time>2020-06-28T06:42:56Z</time>
      </trkpt>
      <trkpt lat="48.8128" lon="7.27431">
        <ele>293.6</ele>
        <time>2020-06-28T06:42:58Z</time>
      </trkpt>
      <trkpt lat="48.81281" lon="7.27449">
        <ele>292.3</ele>
        <time>2020-06-28T06:43:00Z</time>
      </trkpt>
      <trkpt lat="48.81282" lon="7.27469">
        <ele>291.8</ele>
        <time>2020-06-28T06:43:02Z</time>
      </trkpt>
      <trkpt lat="48.81283" lon="7.27495">
        <ele>290.4</ele>
        <time>2020-06-28T06:43:05Z</time>
      </trkpt>
      <trkpt lat="48.81285" lon="7.2751">
        <ele>288.6</ele>
        <time>2020-06-28T06:43:07Z</time>
      </trkpt>
      <trkpt lat="48.81285" lon="7.27527">
        <ele>288.7</ele>
        <time>2020-06-28T06:43:09Z</time>
      </trkpt>
      <trkpt lat="48.81284" lon="7.27547">
        <ele>287.5</ele>
        <time>2020-06-28T06:43:11Z</time>
      </trkpt>
      <trkpt lat="48.81288" lon="7.27575">
        <ele>286.2</ele>
        <time>2020-06-28T06:43:14Z</time>
      </trkpt>
      <trkpt lat="48.81296" lon="7.27592">
        <ele>284.6</ele>
        <time>2020-06-28T06:43:16Z</time>
      </trkpt>
      <trkpt lat="48.81309" lon="7.27603">
        <ele>284.2</ele>
        <time>2020-06-28T06:43:18Z</time>
      </trkpt>
      <trkpt lat="48.81321" lon="7.27614">
        <ele>283.7</ele>
        <time>2020-06-28T06:43:20Z</time>
      </trkpt>
      <trkpt lat="48.81334" lon="7.27626">
        <ele>283.5</ele>
        <time>2020-06-28T06:43:22Z</time>
      </trkpt>
      <trkpt lat="48.81346" lon="7.27637">
        <ele>283.5</ele>
        <time>2020-06-28T06:43:24Z</time>
      </trkpt>
      <trkpt lat="48.81358" lon="7.27647">
        <ele>283.5</ele>
        <time>2020-06-28T06:43:26Z</time>
      </trkpt>
      <trkpt lat="48.81369" lon="7.27657">
        <ele>283.5</ele>
        <time>2020-06-28T06:43:28Z</time>
      </trkpt>
      <trkpt lat="48.81379" lon="7.2767">
        <ele>283.3</ele>
        <time>2020-06-28T06:43:30Z</time>
      </trkpt>
      <trkpt lat="48.81387" lon="7.27683">
        <ele>282.6</ele>
        <time>2020-06-28T06:43:32Z</time>
      </trkpt>
      <trkpt lat="48.81395" lon="7.277">
        <ele>281.7</ele>
        <time>2020-06-28T06:43:34Z</time>
      </trkpt>
      <trkpt lat="48.81406" lon="7.27714">
        <ele>280.7</ele>
        <time>2020-06-28T06:43:36Z</time>
      </trkpt>
      <trkpt lat="48.81413" lon="7.27727">
        <ele>280.8</ele>
        <time>2020-06-28T06:43:38Z</time>
      </trkpt>
      <trkpt lat="48.81422" lon="7.27742">
        <ele>279.4</ele>
        <time>2020-06-28T06:43:40Z</time>
      </trkpt>
      <trkpt lat="48.81438" lon="7.27763">
        <ele>278.6</ele>
        <time>2020-06-28T06:43:43Z</time>
      </trkpt>
      <trkpt lat="48.81452" lon="7.27788">
        <ele>276.6</ele>
        <time>2020-06-28T06:43:46Z</time>
      </trkpt>
      <trkpt lat="48.8146" lon="7.27804">
        <ele>275.5</ele>
        <time>2020-06-28T06:43:48Z</time>
      </trkpt>
      <trkpt lat="48.81469" lon="7.27822">
        <ele>274</ele>
        <time>2020-06-28T06:43:50Z</time>
      </trkpt>
      <trkpt lat="48.81472" lon="7.27836">
        <ele>272.4</ele>
        <time>2020-06-28T06:43:52Z</time>
      </trkpt>
      <trkpt lat="48.81478" lon="7.27848">
        <ele>271</ele>
        <time>2020-06-28T06:43:54Z</time>
      </trkpt>
      <trkpt lat="48.8148" lon="7.27854">
        <ele>266.5</ele>
        <time>2020-06-28T06:43:58Z</time>
      </trkpt>
      <trkpt lat="48.81477" lon="7.27849">
        <ele>263.5</ele>
        <time>2020-06-28T06:44:02Z</time>
      </trkpt>
      <trkpt lat="48.81474" lon="7.27842">
        <ele>263</ele>
        <time>2020-06-28T06:44:04Z</time>
      </trkpt>
      <trkpt lat="48.81473" lon="7.27834">
        <ele>262.5</ele>
        <time>2020-06-28T06:44:06Z</time>
      </trkpt>
      <trkpt lat="48.8147" lon="7.27816">
        <ele>262.9</ele>
        <time>2020-06-28T06:44:09Z</time>
      </trkpt>
      <trkpt lat="48.81469" lon="7.27795">
        <ele>261.9</ele>
        <time>2020-06-28T06:44:12Z</time>
      </trkpt>
      <trkpt lat="48.81468" lon="7.27782">
        <ele>261.5</ele>
        <time>2020-06-28T06:44:14Z</time>
      </trkpt>
      <trkpt lat="48.81465" lon="7.2777">
        <ele>260.8</ele>
        <time>2020-06-28T06:44:16Z</time>
      </trkpt>
      <trkpt lat="48.81462" lon="7.2776">
        <ele>259.6</ele>
        <time>2020-06-28T06:44:18Z</time>
      </trkpt>
      <trkpt lat="48.81459" lon="7.27743">
        <ele>258.4</ele>
        <time>2020-06-28T06:44:21Z</time>
      </trkpt>
      <trkpt lat="48.81457" lon="7.27733">
        <ele>257.9</ele>
        <time>2020-06-28T06:44:23Z</time>
      </trkpt>
      <trkpt lat="48.81453" lon="7.27725">
        <ele>257.6</ele>
        <time>2020-06-28T06:44:25Z</time>
      </trkpt>
      <trkpt lat="48.81452" lon="7.2771">
        <ele>257.2</ele>
        <time>2020-06-28T06:44:27Z</time>
      </trkpt>
      <trkpt lat="48.81455" lon="7.27698">
        <ele>258</ele>
        <time>2020-06-28T06:44:29Z</time>
      </trkpt>
      <trkpt lat="48.8146" lon="7.2769">
        <ele>259</ele>
        <time>2020-06-28T06:44:31Z</time>
      </trkpt>
      <trkpt lat="48.81466" lon="7.27685">
        <ele>260</ele>
        <time>2020-06-28T06:44:33Z</time>
      </trkpt>
      <trkpt lat="48.81471" lon="7.27685">
        <ele>261.6</ele>
        <time>2020-06-28T06:44:35Z</time>
      </trkpt>
      <trkpt lat="48.8148" lon="7.27684">
        <ele>262.8</ele>
        <time>2020-06-28T06:44:38Z</time>
      </trkpt>
      <trkpt lat="48.81485" lon="7.27684">
        <ele>263.2</ele>
        <time>2020-06-28T06:44:40Z</time>
      </trkpt>
      <trkpt lat="48.81491" lon="7.27684">
        <ele>263.6</ele>
        <time>2020-06-28T06:44:43Z</time>
      </trkpt>
      <trkpt lat="48.81496" lon="7.27684">
        <ele>261.7</ele>
        <time>2020-06-28T06:44:46Z</time>
      </trkpt>
      <trkpt lat="48.81501" lon="7.27684">
        <ele>261.9</ele>
        <time>2020-06-28T06:44:48Z</time>
      </trkpt>
      <trkpt lat="48.81508" lon="7.27687">
        <ele>261.7</ele>
        <time>2020-06-28T06:44:51Z</time>
      </trkpt>
      <trkpt lat="48.81512" lon="7.27693">
        <ele>261.7</ele>
        <time>2020-06-28T06:44:53Z</time>
      </trkpt>
      <trkpt lat="48.81516" lon="7.27698">
        <ele>261</ele>
        <time>2020-06-28T06:44:55Z</time>
      </trkpt>
      <trkpt lat="48.8152" lon="7.27702">
        <ele>260.7</ele>
        <time>2020-06-28T06:44:57Z</time>
      </trkpt>
      <trkpt lat="48.81524" lon="7.27707">
        <ele>260.6</ele>
        <time>2020-06-28T06:44:59Z</time>
      </trkpt>
      <trkpt lat="48.81527" lon="7.27712">
        <ele>260.3</ele>
        <time>2020-06-28T06:45:01Z</time>
      </trkpt>
      <trkpt lat="48.81532" lon="7.2772">
        <ele>259.9</ele>
        <time>2020-06-28T06:45:04Z</time>
      </trkpt>
      <trkpt lat="48.81535" lon="7.27726">
        <ele>260.1</ele>
        <time>2020-06-28T06:45:06Z</time>
      </trkpt>
      <trkpt lat="48.8154" lon="7.27733">
        <ele>260</ele>
        <time>2020-06-28T06:45:08Z</time>
      </trkpt>
      <trkpt lat="48.81544" lon="7.2774">
        <ele>259.2</ele>
        <time>2020-06-28T06:45:10Z</time>
      </trkpt>
      <trkpt lat="48.81548" lon="7.27747">
        <ele>258.4</ele>
        <time>2020-06-28T06:45:12Z</time>
      </trkpt>
      <trkpt lat="48.81551" lon="7.27753">
        <ele>257</ele>
        <time>2020-06-28T06:45:14Z</time>
      </trkpt>
      <trkpt lat="48.81556" lon="7.2776">
        <ele>256.3</ele>
        <time>2020-06-28T06:45:16Z</time>
      </trkpt>
      <trkpt lat="48.81562" lon="7.27769">
        <ele>254.6</ele>
        <time>2020-06-28T06:45:18Z</time>
      </trkpt>
      <trkpt lat="48.81567" lon="7.27777">
        <ele>253.5</ele>
        <time>2020-06-28T06:45:20Z</time>
      </trkpt>
      <trkpt lat="48.81572" lon="7.27785">
        <ele>252.4</ele>
        <time>2020-06-28T06:45:22Z</time>
      </trkpt>
      <trkpt lat="48.81578" lon="7.27791">
        <ele>251.6</ele>
        <time>2020-06-28T06:45:24Z</time>
      </trkpt>
      <trkpt lat="48.81587" lon="7.27804">
        <ele>250.7</ele>
        <time>2020-06-28T06:45:27Z</time>
      </trkpt>
      <trkpt lat="48.81593" lon="7.27814">
        <ele>249.5</ele>
        <time>2020-06-28T06:45:29Z</time>
      </trkpt>
      <trkpt lat="48.81597" lon="7.27825">
        <ele>249</ele>
        <time>2020-06-28T06:45:31Z</time>
      </trkpt>
      <trkpt lat="48.81601" lon="7.27838">
        <ele>248.2</ele>
        <time>2020-06-28T06:45:33Z</time>
      </trkpt>
      <trkpt lat="48.81605" lon="7.27848">
        <ele>247.4</ele>
        <time>2020-06-28T06:45:35Z</time>
      </trkpt>
      <trkpt lat="48.81614" lon="7.27862">
        <ele>246.1</ele>
        <time>2020-06-28T06:45:37Z</time>
      </trkpt>
      <trkpt lat="48.81621" lon="7.27874">
        <ele>244.8</ele>
        <time>2020-06-28T06:45:39Z</time>
      </trkpt>
      <trkpt lat="48.81628" lon="7.27886">
        <ele>244.2</ele>
        <time>2020-06-28T06:45:41Z</time>
      </trkpt>
      <trkpt lat="48.81634" lon="7.27896">
        <ele>243.8</ele>
        <time>2020-06-28T06:45:43Z</time>
      </trkpt>
      <trkpt lat="48.81638" lon="7.27906">
        <ele>243.6</ele>
        <time>2020-06-28T06:45:45Z</time>
      </trkpt>
      <trkpt lat="48.81641" lon="7.27915">
        <ele>243.1</ele>
        <time>2020-06-28T06:45:47Z</time>
      </trkpt>
      <trkpt lat="48.81644" lon="7.27924">
        <ele>243.1</ele>
        <time>2020-06-28T06:45:49Z</time>
      </trkpt>
      <trkpt lat="48.81648" lon="7.27934">
        <ele>242.7</ele>
        <time>2020-06-28T06:45:51Z</time>
      </trkpt>
      <trkpt lat="48.81652" lon="7.27943">
        <ele>242.6</ele>
        <time>2020-06-28T06:45:53Z</time>
      </trkpt>
      <trkpt lat="48.81657" lon="7.2795">
        <ele>242.4</ele>
        <time>2020-06-28T06:45:55Z</time>
      </trkpt>
      <trkpt lat="48.81661" lon="7.27958">
        <ele>241.9</ele>
        <time>2020-06-28T06:45:57Z</time>
      </trkpt>
      <trkpt lat="48.81664" lon="7.27967">
        <ele>241.3</ele>
        <time>2020-06-28T06:45:59Z</time>
      </trkpt>
      <trkpt lat="48.81666" lon="7.27975">
        <ele>240.9</ele>
        <time>2020-06-28T06:46:01Z</time>
      </trkpt>
      <trkpt lat="48.81668" lon="7.27982">
        <ele>240.3</ele>
        <time>2020-06-28T06:46:03Z</time>
      </trkpt>
      <trkpt lat="48.81672" lon="7.27989">
        <ele>239.6</ele>
        <time>2020-06-28T06:46:05Z</time>
      </trkpt>
      <trkpt lat="48.81675" lon="7.27995">
        <ele>239.3</ele>
        <time>2020-06-28T06:46:07Z</time>
      </trkpt>
      <trkpt lat="48.81677" lon="7.28002">
        <ele>238.5</ele>
        <time>2020-06-28T06:46:09Z</time>
      </trkpt>
      <trkpt lat="48.81681" lon="7.28011">
        <ele>238.4</ele>
        <time>2020-06-28T06:46:11Z</time>
      </trkpt>
      <trkpt lat="48.81685" lon="7.28018">
        <ele>237.8</ele>
        <time>2020-06-28T06:46:13Z</time>
      </trkpt>
      <trkpt lat="48.81689" lon="7.28024">
        <ele>237.6</ele>
        <time>2020-06-28T06:46:15Z</time>
      </trkpt>
      <trkpt lat="48.81696" lon="7.28027">
        <ele>237.1</ele>
        <time>2020-06-28T06:46:17Z</time>
      </trkpt>
      <trkpt lat="48.81701" lon="7.28024">
        <ele>236</ele>
        <time>2020-06-28T06:46:21Z</time>
      </trkpt>
      <trkpt lat="48.81706" lon="7.28018">
        <ele>236.4</ele>
        <time>2020-06-28T06:46:24Z</time>
      </trkpt>
      <trkpt lat="48.81711" lon="7.28012">
        <ele>237</ele>
        <time>2020-06-28T06:46:26Z</time>
      </trkpt>
      <trkpt lat="48.81716" lon="7.28007">
        <ele>237.2</ele>
        <time>2020-06-28T06:46:29Z</time>
      </trkpt>
      <trkpt lat="48.81721" lon="7.28006">
        <ele>236.8</ele>
        <time>2020-06-28T06:46:31Z</time>
      </trkpt>
      <trkpt lat="48.81728" lon="7.28004">
        <ele>236</ele>
        <time>2020-06-28T06:46:33Z</time>
      </trkpt>
      <trkpt lat="48.81737" lon="7.28002">
        <ele>235.8</ele>
        <time>2020-06-28T06:46:35Z</time>
      </trkpt>
      <trkpt lat="48.81748" lon="7.28">
        <ele>235.4</ele>
        <time>2020-06-28T06:46:37Z</time>
      </trkpt>
      <trkpt lat="48.81756" lon="7.27998">
        <ele>235.8</ele>
        <time>2020-06-28T06:46:39Z</time>
      </trkpt>
      <trkpt lat="48.81761" lon="7.27999">
        <ele>235.8</ele>
        <time>2020-06-28T06:46:42Z</time>
      </trkpt>
      <trkpt lat="48.81766" lon="7.27998">
        <ele>234.8</ele>
        <time>2020-06-28T06:46:47Z</time>
      </trkpt>
      <trkpt lat="48.81772" lon="7.27996">
        <ele>232.3</ele>
        <time>2020-06-28T06:46:54Z</time>
      </trkpt>
      <trkpt lat="48.81776" lon="7.27998">
        <ele>230.9</ele>
        <time>2020-06-28T06:46:57Z</time>
      </trkpt>
      <trkpt lat="48.81781" lon="7.28">
        <ele>230.6</ele>
        <time>2020-06-28T06:47:02Z</time>
      </trkpt>
      <trkpt lat="48.81785" lon="7.28">
        <ele>230.8</ele>
        <time>2020-06-28T06:47:10Z</time>
      </trkpt>
      <trkpt lat="48.81788" lon="7.27995">
        <ele>228.2</ele>
        <time>2020-06-28T06:47:30Z</time>
      </trkpt>
      <trkpt lat="48.8179" lon="7.27986">
        <ele>227.3</ele>
        <time>2020-06-28T06:47:34Z</time>
      </trkpt>
      <trkpt lat="48.81793" lon="7.2798">
        <ele>226.7</ele>
        <time>2020-06-28T06:47:37Z</time>
      </trkpt>
      <trkpt lat="48.81798" lon="7.2798">
        <ele>225.7</ele>
        <time>2020-06-28T06:47:40Z</time>
      </trkpt>
      <trkpt lat="48.81803" lon="7.27986">
        <ele>227.5</ele>
        <time>2020-06-28T06:47:43Z</time>
      </trkpt>
      <trkpt lat="48.81806" lon="7.27991">
        <ele>225</ele>
        <time>2020-06-28T06:47:45Z</time>
      </trkpt>
      <trkpt lat="48.8181" lon="7.27995">
        <ele>222.6</ele>
        <time>2020-06-28T06:47:49Z</time>
      </trkpt>
      <trkpt lat="48.81815" lon="7.27994">
        <ele>219.5</ele>
        <time>2020-06-28T06:47:51Z</time>
      </trkpt>
      <trkpt lat="48.8182" lon="7.27989">
        <ele>216.2</ele>
        <time>2020-06-28T06:47:53Z</time>
      </trkpt>
      <trkpt lat="48.81825" lon="7.27986">
        <ele>213.5</ele>
        <time>2020-06-28T06:47:55Z</time>
      </trkpt>
      <trkpt lat="48.81832" lon="7.27982">
        <ele>208.9</ele>
        <time>2020-06-28T06:47:58Z</time>
      </trkpt>
      <trkpt lat="48.81836" lon="7.27979">
        <ele>206.7</ele>
        <time>2020-06-28T06:48:00Z</time>
      </trkpt>
      <trkpt lat="48.81841" lon="7.27977">
        <ele>204.4</ele>
        <time>2020-06-28T06:48:03Z</time>
      </trkpt>
      <trkpt lat="48.81846" lon="7.27974">
        <ele>208.4</ele>
        <time>2020-06-28T06:48:06Z</time>
      </trkpt>
      <trkpt lat="48.81851" lon="7.27973">
        <ele>206.4</ele>
        <time>2020-06-28T06:48:10Z</time>
      </trkpt>
      <trkpt lat="48.81855" lon="7.27971">
        <ele>204.6</ele>
        <time>2020-06-28T06:48:17Z</time>
      </trkpt>
      <trkpt lat="48.8186" lon="7.27974">
        <ele>203.2</ele>
        <time>2020-06-28T06:48:36Z</time>
      </trkpt>
      <trkpt lat="48.81861" lon="7.27982">
        <ele>206.6</ele>
        <time>2020-06-28T06:48:50Z</time>
      </trkpt>
      <trkpt lat="48.81864" lon="7.27989">
        <ele>204.8</ele>
        <time>2020-06-28T06:48:54Z</time>
      </trkpt>
      <trkpt lat="48.81867" lon="7.27995">
        <ele>203.4</ele>
        <time>2020-06-28T06:48:56Z</time>
      </trkpt>
      <trkpt lat="48.81871" lon="7.28002">
        <ele>202.4</ele>
        <time>2020-06-28T06:48:58Z</time>
      </trkpt>
      <trkpt lat="48.81874" lon="7.28009">
        <ele>201.7</ele>
        <time>2020-06-28T06:49:00Z</time>
      </trkpt>
      <trkpt lat="48.81876" lon="7.28016">
        <ele>200.9</ele>
        <time>2020-06-28T06:49:02Z</time>
      </trkpt>
      <trkpt lat="48.81878" lon="7.28023">
        <ele>200.7</ele>
        <time>2020-06-28T06:49:04Z</time>
      </trkpt>
      <trkpt lat="48.81879" lon="7.2803">
        <ele>200.3</ele>
        <time>2020-06-28T06:49:06Z</time>
      </trkpt>
      <trkpt lat="48.81882" lon="7.28039">
        <ele>200.7</ele>
        <time>2020-06-28T06:49:09Z</time>
      </trkpt>
      <trkpt lat="48.81886" lon="7.28046">
        <ele>200.4</ele>
        <time>2020-06-28T06:49:12Z</time>
      </trkpt>
      <trkpt lat="48.8189" lon="7.28052">
        <ele>199.4</ele>
        <time>2020-06-28T06:49:16Z</time>
      </trkpt>
      <trkpt lat="48.81894" lon="7.28057">
        <ele>199</ele>
        <time>2020-06-28T06:49:20Z</time>
      </trkpt>
      <trkpt lat="48.81899" lon="7.28062">
        <ele>199.2</ele>
        <time>2020-06-28T06:49:23Z</time>
      </trkpt>
      <trkpt lat="48.81905" lon="7.28064">
        <ele>198.9</ele>
        <time>2020-06-28T06:49:26Z</time>
      </trkpt>
      <trkpt lat="48.81911" lon="7.28063">
        <ele>198.4</ele>
        <time>2020-06-28T06:49:29Z</time>
      </trkpt>
      <trkpt lat="48.81916" lon="7.28063">
        <ele>198.1</ele>
        <time>2020-06-28T06:49:31Z</time>
      </trkpt>
      <trkpt lat="48.81921" lon="7.28066">
        <ele>197.8</ele>
        <time>2020-06-28T06:49:33Z</time>
      </trkpt>
      <trkpt lat="48.81926" lon="7.28069">
        <ele>197.7</ele>
        <time>2020-06-28T06:49:35Z</time>
      </trkpt>
      <trkpt lat="48.8193" lon="7.28072">
        <ele>197.7</ele>
        <time>2020-06-28T06:49:37Z</time>
      </trkpt>
      <trkpt lat="48.81935" lon="7.28071">
        <ele>197.7</ele>
        <time>2020-06-28T06:49:40Z</time>
      </trkpt>
      <trkpt lat="48.81938" lon="7.28064">
        <ele>197</ele>
        <time>2020-06-28T06:49:43Z</time>
      </trkpt>
      <trkpt lat="48.8194" lon="7.28055">
        <ele>197</ele>
        <time>2020-06-28T06:49:46Z</time>
      </trkpt>
      <trkpt lat="48.81942" lon="7.28048">
        <ele>196.8</ele>
        <time>2020-06-28T06:49:49Z</time>
      </trkpt>
      <trkpt lat="48.81947" lon="7.28044">
        <ele>196</ele>
        <time>2020-06-28T06:49:53Z</time>
      </trkpt>
      <trkpt lat="48.81951" lon="7.2804">
        <ele>195.3</ele>
        <time>2020-06-28T06:49:56Z</time>
      </trkpt>
      <trkpt lat="48.81955" lon="7.28034">
        <ele>197.3</ele>
        <time>2020-06-28T06:51:58Z</time>
      </trkpt>
      <trkpt lat="48.8196" lon="7.28035">
        <ele>197.7</ele>
        <time>2020-06-28T06:52:02Z</time>
      </trkpt>
      <trkpt lat="48.81966" lon="7.28039">
        <ele>198.9</ele>
        <time>2020-06-28T06:52:05Z</time>
      </trkpt>
      <trkpt lat="48.8197" lon="7.28044">
        <ele>199.6</ele>
        <time>2020-06-28T06:52:07Z</time>
      </trkpt>
      <trkpt lat="48.81974" lon="7.28049">
        <ele>200.1</ele>
        <time>2020-06-28T06:52:09Z</time>
      </trkpt>
      <trkpt lat="48.81981" lon="7.28056">
        <ele>200.7</ele>
        <time>2020-06-28T06:52:12Z</time>
      </trkpt>
      <trkpt lat="48.81986" lon="7.28061">
        <ele>201.3</ele>
        <time>2020-06-28T06:52:14Z</time>
      </trkpt>
      <trkpt lat="48.81993" lon="7.28066">
        <ele>202.2</ele>
        <time>2020-06-28T06:52:17Z</time>
      </trkpt>
      <trkpt lat="48.81997" lon="7.2807">
        <ele>202.6</ele>
        <time>2020-06-28T06:52:19Z</time>
      </trkpt>
      <trkpt lat="48.82002" lon="7.28073">
        <ele>203</ele>
        <time>2020-06-28T06:52:21Z</time>
      </trkpt>
      <trkpt lat="48.82006" lon="7.28078">
        <ele>204</ele>
        <time>2020-06-28T06:52:23Z</time>
      </trkpt>
      <trkpt lat="48.8201" lon="7.28081">
        <ele>205.2</ele>
        <time>2020-06-28T06:52:25Z</time>
      </trkpt>
      <trkpt lat="48.82015" lon="7.28084">
        <ele>205.6</ele>
        <time>2020-06-28T06:52:27Z</time>
      </trkpt>
      <trkpt lat="48.8202" lon="7.28086">
        <ele>205.8</ele>
        <time>2020-06-28T06:52:29Z</time>
      </trkpt>
      <trkpt lat="48.82025" lon="7.28087">
        <ele>205.7</ele>
        <time>2020-06-28T06:52:31Z</time>
      </trkpt>
      <trkpt lat="48.8203" lon="7.28086">
        <ele>206</ele>
        <time>2020-06-28T06:52:33Z</time>
      </trkpt>
      <trkpt lat="48.82035" lon="7.28084">
        <ele>205.8</ele>
        <time>2020-06-28T06:52:35Z</time>
      </trkpt>
      <trkpt lat="48.8204" lon="7.28082">
        <ele>206</ele>
        <time>2020-06-28T06:52:37Z</time>
      </trkpt>
      <trkpt lat="48.82047" lon="7.28082">
        <ele>206</ele>
        <time>2020-06-28T06:52:39Z</time>
      </trkpt>
      <trkpt lat="48.82053" lon="7.28083">
        <ele>206</ele>
        <time>2020-06-28T06:52:41Z</time>
      </trkpt>
      <trkpt lat="48.8206" lon="7.28084">
        <ele>206.1</ele>
        <time>2020-06-28T06:52:43Z</time>
      </trkpt>
      <trkpt lat="48.82067" lon="7.28083">
        <ele>205.9</ele>
        <time>2020-06-28T06:52:45Z</time>
      </trkpt>
      <trkpt lat="48.82073" lon="7.28081">
        <ele>206.6</ele>
        <time>2020-06-28T06:52:47Z</time>
      </trkpt>
      <trkpt lat="48.82078" lon="7.2808">
        <ele>206.6</ele>
        <time>2020-06-28T06:52:49Z</time>
      </trkpt>
      <trkpt lat="48.82082" lon="7.28079">
        <ele>207.7</ele>
        <time>2020-06-28T06:52:51Z</time>
      </trkpt>
      <trkpt lat="48.82088" lon="7.28077">
        <ele>208.1</ele>
        <time>2020-06-28T06:52:53Z</time>
      </trkpt>
      <trkpt lat="48.82094" lon="7.28072">
        <ele>207.7</ele>
        <time>2020-06-28T06:52:55Z</time>
      </trkpt>
      <trkpt lat="48.821" lon="7.28068">
        <ele>207.1</ele>
        <time>2020-06-28T06:52:57Z</time>
      </trkpt>
      <trkpt lat="48.82106" lon="7.28064">
        <ele>207.1</ele>
        <time>2020-06-28T06:52:59Z</time>
      </trkpt>
      <trkpt lat="48.82111" lon="7.28061">
        <ele>207</ele>
        <time>2020-06-28T06:53:01Z</time>
      </trkpt>
      <trkpt lat="48.82118" lon="7.28058">
        <ele>206.7</ele>
        <time>2020-06-28T06:53:03Z</time>
      </trkpt>
      <trkpt lat="48.82124" lon="7.28054">
        <ele>205.7</ele>
        <time>2020-06-28T06:53:05Z</time>
      </trkpt>
      <trkpt lat="48.82129" lon="7.28055">
        <ele>205.1</ele>
        <time>2020-06-28T06:53:07Z</time>
      </trkpt>
      <trkpt lat="48.82133" lon="7.2806">
        <ele>204.8</ele>
        <time>2020-06-28T06:53:09Z</time>
      </trkpt>
      <trkpt lat="48.82135" lon="7.28069">
        <ele>204.6</ele>
        <time>2020-06-28T06:53:11Z</time>
      </trkpt>
      <trkpt lat="48.82136" lon="7.2808">
        <ele>204.3</ele>
        <time>2020-06-28T06:53:13Z</time>
      </trkpt>
      <trkpt lat="48.82137" lon="7.28091">
        <ele>204.4</ele>
        <time>2020-06-28T06:53:15Z</time>
      </trkpt>
      <trkpt lat="48.82138" lon="7.28101">
        <ele>204.5</ele>
        <time>2020-06-28T06:53:17Z</time>
      </trkpt>
      <trkpt lat="48.82139" lon="7.28113">
        <ele>204.8</ele>
        <time>2020-06-28T06:53:19Z</time>
      </trkpt>
      <trkpt lat="48.8214" lon="7.28124">
        <ele>204</ele>
        <time>2020-06-28T06:53:21Z</time>
      </trkpt>
      <trkpt lat="48.82141" lon="7.28134">
        <ele>203.7</ele>
        <time>2020-06-28T06:53:23Z</time>
      </trkpt>
      <trkpt lat="48.82142" lon="7.28143">
        <ele>202.8</ele>
        <time>2020-06-28T06:53:25Z</time>
      </trkpt>
      <trkpt lat="48.82142" lon="7.28151">
        <ele>202.2</ele>
        <time>2020-06-28T06:53:27Z</time>
      </trkpt>
      <trkpt lat="48.82141" lon="7.28159">
        <ele>202.4</ele>
        <time>2020-06-28T06:53:29Z</time>
      </trkpt>
      <trkpt lat="48.82139" lon="7.28168">
        <ele>202.7</ele>
        <time>2020-06-28T06:53:31Z</time>
      </trkpt>
      <trkpt lat="48.82135" lon="7.28176">
        <ele>202.6</ele>
        <time>2020-06-28T06:53:33Z</time>
      </trkpt>
      <trkpt lat="48.82133" lon="7.28183">
        <ele>202.1</ele>
        <time>2020-06-28T06:53:35Z</time>
      </trkpt>
      <trkpt lat="48.82136" lon="7.28192">
        <ele>201.9</ele>
        <time>2020-06-28T06:53:38Z</time>
      </trkpt>
      <trkpt lat="48.82142" lon="7.28194">
        <ele>202</ele>
        <time>2020-06-28T06:53:40Z</time>
      </trkpt>
      <trkpt lat="48.82148" lon="7.28193">
        <ele>202.2</ele>
        <time>2020-06-28T06:53:42Z</time>
      </trkpt>
      <trkpt lat="48.82154" lon="7.28191">
        <ele>202</ele>
        <time>2020-06-28T06:53:44Z</time>
      </trkpt>
      <trkpt lat="48.82161" lon="7.28189">
        <ele>201.9</ele>
        <time>2020-06-28T06:53:46Z</time>
      </trkpt>
      <trkpt lat="48.82166" lon="7.28187">
        <ele>202</ele>
        <time>2020-06-28T06:53:48Z</time>
      </trkpt>
      <trkpt lat="48.82171" lon="7.28185">
        <ele>201.9</ele>
        <time>2020-06-28T06:53:50Z</time>
      </trkpt>
      <trkpt lat="48.82177" lon="7.28184">
        <ele>201.7</ele>
        <time>2020-06-28T06:53:52Z</time>
      </trkpt>
      <trkpt lat="48.82182" lon="7.28183">
        <ele>201</ele>
        <time>2020-06-28T06:53:54Z</time>
      </trkpt>
      <trkpt lat="48.8219" lon="7.28182">
        <ele>199.5</ele>
        <time>2020-06-28T06:53:57Z</time>
      </trkpt>
      <trkpt lat="48.82196" lon="7.28183">
        <ele>198.7</ele>
        <time>2020-06-28T06:53:59Z</time>
      </trkpt>
      <trkpt lat="48.82205" lon="7.28184">
        <ele>198</ele>
        <time>2020-06-28T06:54:02Z</time>
      </trkpt>
      <trkpt lat="48.82214" lon="7.28186">
        <ele>196.4</ele>
        <time>2020-06-28T06:54:05Z</time>
      </trkpt>
      <trkpt lat="48.8222" lon="7.28186">
        <ele>196.2</ele>
        <time>2020-06-28T06:54:07Z</time>
      </trkpt>
      <trkpt lat="48.82226" lon="7.28186">
        <ele>195.6</ele>
        <time>2020-06-28T06:54:09Z</time>
      </trkpt>
      <trkpt lat="48.82232" lon="7.28187">
        <ele>195.5</ele>
        <time>2020-06-28T06:54:11Z</time>
      </trkpt>
      <trkpt lat="48.82239" lon="7.28188">
        <ele>195.1</ele>
        <time>2020-06-28T06:54:13Z</time>
      </trkpt>
      <trkpt lat="48.82245" lon="7.28187">
        <ele>195.4</ele>
        <time>2020-06-28T06:54:15Z</time>
      </trkpt>
      <trkpt lat="48.82251" lon="7.28187">
        <ele>195.4</ele>
        <time>2020-06-28T06:54:17Z</time>
      </trkpt>
      <trkpt lat="48.82257" lon="7.28186">
        <ele>195.4</ele>
        <time>2020-06-28T06:54:19Z</time>
      </trkpt>
      <trkpt lat="48.82262" lon="7.28185">
        <ele>196.2</ele>
        <time>2020-06-28T06:54:21Z</time>
      </trkpt>
      <trkpt lat="48.82267" lon="7.28184">
        <ele>196.3</ele>
        <time>2020-06-28T06:54:23Z</time>
      </trkpt>
      <trkpt lat="48.82273" lon="7.28183">
        <ele>196.9</ele>
        <time>2020-06-28T06:54:25Z</time>
      </trkpt>
      <trkpt lat="48.82279" lon="7.28183">
        <ele>197.2</ele>
        <time>2020-06-28T06:54:27Z</time>
      </trkpt>
      <trkpt lat="48.82285" lon="7.28183">
        <ele>197.9</ele>
        <time>2020-06-28T06:54:29Z</time>
      </trkpt>
      <trkpt lat="48.82292" lon="7.28183">
        <ele>198.4</ele>
        <time>2020-06-28T06:54:31Z</time>
      </trkpt>
      <trkpt lat="48.82298" lon="7.28185">
        <ele>199</ele>
        <time>2020-06-28T06:54:33Z</time>
      </trkpt>
      <trkpt lat="48.82305" lon="7.28185">
        <ele>199</ele>
        <time>2020-06-28T06:54:35Z</time>
      </trkpt>
      <trkpt lat="48.82311" lon="7.28186">
        <ele>199.2</ele>
        <time>2020-06-28T06:54:37Z</time>
      </trkpt>
      <trkpt lat="48.82318" lon="7.28187">
        <ele>199.6</ele>
        <time>2020-06-28T06:54:39Z</time>
      </trkpt>
      <trkpt lat="48.82326" lon="7.28188">
        <ele>200.1</ele>
        <time>2020-06-28T06:54:41Z</time>
      </trkpt>
      <trkpt lat="48.82332" lon="7.28189">
        <ele>200.6</ele>
        <time>2020-06-28T06:54:43Z</time>
      </trkpt>
      <trkpt lat="48.82339" lon="7.28192">
        <ele>201.2</ele>
        <time>2020-06-28T06:54:45Z</time>
      </trkpt>
      <trkpt lat="48.82346" lon="7.28195">
        <ele>201.4</ele>
        <time>2020-06-28T06:54:47Z</time>
      </trkpt>
      <trkpt lat="48.82352" lon="7.28199">
        <ele>201.5</ele>
        <time>2020-06-28T06:54:49Z</time>
      </trkpt>
      <trkpt lat="48.82357" lon="7.28203">
        <ele>201.7</ele>
        <time>2020-06-28T06:54:51Z</time>
      </trkpt>
      <trkpt lat="48.82363" lon="7.28205">
        <ele>201.8</ele>
        <time>2020-06-28T06:54:53Z</time>
      </trkpt>
      <trkpt lat="48.8237" lon="7.28205">
        <ele>201.6</ele>
        <time>2020-06-28T06:54:55Z</time>
      </trkpt>
      <trkpt lat="48.82376" lon="7.28205">
        <ele>201.4</ele>
        <time>2020-06-28T06:54:57Z</time>
      </trkpt>
      <trkpt lat="48.82383" lon="7.28207">
        <ele>201.5</ele>
        <time>2020-06-28T06:54:59Z</time>
      </trkpt>
      <trkpt lat="48.8239" lon="7.28208">
        <ele>201</ele>
        <time>2020-06-28T06:55:01Z</time>
      </trkpt>
      <trkpt lat="48.82396" lon="7.28208">
        <ele>201.5</ele>
        <time>2020-06-28T06:55:03Z</time>
      </trkpt>
      <trkpt lat="48.82403" lon="7.28207">
        <ele>202.3</ele>
        <time>2020-06-28T06:55:05Z</time>
      </trkpt>
      <trkpt lat="48.8241" lon="7.28205">
        <ele>203.3</ele>
        <time>2020-06-28T06:55:07Z</time>
      </trkpt>
      <trkpt lat="48.82417" lon="7.28204">
        <ele>204</ele>
        <time>2020-06-28T06:55:09Z</time>
      </trkpt>
      <trkpt lat="48.82423" lon="7.28202">
        <ele>204.2</ele>
        <time>2020-06-28T06:55:11Z</time>
      </trkpt>
      <trkpt lat="48.82429" lon="7.28202">
        <ele>205</ele>
        <time>2020-06-28T06:55:13Z</time>
      </trkpt>
      <trkpt lat="48.82435" lon="7.28201">
        <ele>205.3</ele>
        <time>2020-06-28T06:55:15Z</time>
      </trkpt>
      <trkpt lat="48.82441" lon="7.28199">
        <ele>206.7</ele>
        <time>2020-06-28T06:55:17Z</time>
      </trkpt>
      <trkpt lat="48.82448" lon="7.28196">
        <ele>207.2</ele>
        <time>2020-06-28T06:55:19Z</time>
      </trkpt>
      <trkpt lat="48.82453" lon="7.28194">
        <ele>207.2</ele>
        <time>2020-06-28T06:55:21Z</time>
      </trkpt>
      <trkpt lat="48.82458" lon="7.28191">
        <ele>207</ele>
        <time>2020-06-28T06:55:23Z</time>
      </trkpt>
      <trkpt lat="48.82464" lon="7.28187">
        <ele>206.7</ele>
        <time>2020-06-28T06:55:25Z</time>
      </trkpt>
      <trkpt lat="48.82471" lon="7.28184">
        <ele>206.6</ele>
        <time>2020-06-28T06:55:27Z</time>
      </trkpt>
      <trkpt lat="48.82477" lon="7.28181">
        <ele>206.1</ele>
        <time>2020-06-28T06:55:29Z</time>
      </trkpt>
      <trkpt lat="48.82483" lon="7.28178">
        <ele>205.5</ele>
        <time>2020-06-28T06:55:31Z</time>
      </trkpt>
      <trkpt lat="48.82489" lon="7.28175">
        <ele>205.2</ele>
        <time>2020-06-28T06:55:33Z</time>
      </trkpt>
      <trkpt lat="48.82494" lon="7.28173">
        <ele>204.9</ele>
        <time>2020-06-28T06:55:35Z</time>
      </trkpt>
      <trkpt lat="48.82499" lon="7.2817">
        <ele>205.1</ele>
        <time>2020-06-28T06:55:37Z</time>
      </trkpt>
      <trkpt lat="48.82504" lon="7.28169">
        <ele>205.3</ele>
        <time>2020-06-28T06:55:39Z</time>
      </trkpt>
      <trkpt lat="48.82509" lon="7.28169">
        <ele>205.9</ele>
        <time>2020-06-28T06:55:41Z</time>
      </trkpt>
      <trkpt lat="48.82513" lon="7.28169">
        <ele>207.1</ele>
        <time>2020-06-28T06:55:43Z</time>
      </trkpt>
      <trkpt lat="48.82518" lon="7.28166">
        <ele>206.8</ele>
        <time>2020-06-28T06:55:45Z</time>
      </trkpt>
      <trkpt lat="48.82523" lon="7.28165">
        <ele>207.4</ele>
        <time>2020-06-28T06:55:47Z</time>
      </trkpt>
      <trkpt lat="48.82527" lon="7.28163">
        <ele>206.8</ele>
        <time>2020-06-28T06:55:49Z</time>
      </trkpt>
      <trkpt lat="48.82534" lon="7.2816">
        <ele>206.2</ele>
        <time>2020-06-28T06:55:52Z</time>
      </trkpt>
      <trkpt lat="48.8254" lon="7.28159">
        <ele>205.5</ele>
        <time>2020-06-28T06:55:55Z</time>
      </trkpt>
      <trkpt lat="48.82545" lon="7.28157">
        <ele>205.2</ele>
        <time>2020-06-28T06:55:57Z</time>
      </trkpt>
      <trkpt lat="48.82549" lon="7.28153">
        <ele>204.8</ele>
        <time>2020-06-28T06:55:59Z</time>
      </trkpt>
      <trkpt lat="48.82555" lon="7.28149">
        <ele>204.4</ele>
        <time>2020-06-28T06:56:02Z</time>
      </trkpt>
      <trkpt lat="48.8256" lon="7.28148">
        <ele>204.9</ele>
        <time>2020-06-28T06:56:04Z</time>
      </trkpt>
      <trkpt lat="48.82566" lon="7.28146">
        <ele>204.7</ele>
        <time>2020-06-28T06:56:07Z</time>
      </trkpt>
      <trkpt lat="48.82571" lon="7.28145">
        <ele>204.5</ele>
        <time>2020-06-28T06:56:09Z</time>
      </trkpt>
      <trkpt lat="48.82576" lon="7.28145">
        <ele>205.1</ele>
        <time>2020-06-28T06:56:12Z</time>
      </trkpt>
      <trkpt lat="48.82582" lon="7.28144">
        <ele>206.2</ele>
        <time>2020-06-28T06:56:15Z</time>
      </trkpt>
      <trkpt lat="48.82588" lon="7.28143">
        <ele>206.9</ele>
        <time>2020-06-28T06:56:18Z</time>
      </trkpt>
      <trkpt lat="48.82593" lon="7.28143">
        <ele>206.9</ele>
        <time>2020-06-28T06:56:21Z</time>
      </trkpt>
      <trkpt lat="48.82598" lon="7.28142">
        <ele>206.7</ele>
        <time>2020-06-28T06:56:23Z</time>
      </trkpt>
      <trkpt lat="48.82604" lon="7.28143">
        <ele>207.5</ele>
        <time>2020-06-28T06:56:26Z</time>
      </trkpt>
      <trkpt lat="48.8261" lon="7.28142">
        <ele>208</ele>
        <time>2020-06-28T06:56:29Z</time>
      </trkpt>
      <trkpt lat="48.82616" lon="7.2814">
        <ele>208.9</ele>
        <time>2020-06-28T06:56:31Z</time>
      </trkpt>
      <trkpt lat="48.82621" lon="7.28138">
        <ele>209.6</ele>
        <time>2020-06-28T06:56:33Z</time>
      </trkpt>
      <trkpt lat="48.82629" lon="7.28137">
        <ele>210.3</ele>
        <time>2020-06-28T06:56:36Z</time>
      </trkpt>
      <trkpt lat="48.82633" lon="7.28137">
        <ele>210.5</ele>
        <time>2020-06-28T06:56:38Z</time>
      </trkpt>
      <trkpt lat="48.8264" lon="7.28134">
        <ele>212.2</ele>
        <time>2020-06-28T06:56:41Z</time>
      </trkpt>
      <trkpt lat="48.82646" lon="7.28134">
        <ele>213.5</ele>
        <time>2020-06-28T06:56:44Z</time>
      </trkpt>
      <trkpt lat="48.82652" lon="7.28135">
        <ele>214.2</ele>
        <time>2020-06-28T06:56:47Z</time>
      </trkpt>
      <trkpt lat="48.82658" lon="7.28136">
        <ele>214.5</ele>
        <time>2020-06-28T06:56:50Z</time>
      </trkpt>
      <trkpt lat="48.82662" lon="7.28136">
        <ele>214.9</ele>
        <time>2020-06-28T06:56:53Z</time>
      </trkpt>
      <trkpt lat="48.82668" lon="7.28136">
        <ele>216.7</ele>
        <time>2020-06-28T06:56:56Z</time>
      </trkpt>
      <trkpt lat="48.82672" lon="7.28136">
        <ele>217.7</ele>
        <time>2020-06-28T06:56:58Z</time>
      </trkpt>
      <trkpt lat="48.82677" lon="7.28137">
        <ele>218</ele>
        <time>2020-06-28T06:57:00Z</time>
      </trkpt>
      <trkpt lat="48.82682" lon="7.28137">
        <ele>219.1</ele>
        <time>2020-06-28T06:57:02Z</time>
      </trkpt>
      <trkpt lat="48.82687" lon="7.28137">
        <ele>221</ele>
        <time>2020-06-28T06:57:05Z</time>
      </trkpt>
      <trkpt lat="48.82693" lon="7.28138">
        <ele>222.5</ele>
        <time>2020-06-28T06:57:09Z</time>
      </trkpt>
      <trkpt lat="48.82698" lon="7.28138">
        <ele>223.8</ele>
        <time>2020-06-28T06:57:12Z</time>
      </trkpt>
      <trkpt lat="48.82704" lon="7.28139">
        <ele>224.7</ele>
        <time>2020-06-28T06:57:15Z</time>
      </trkpt>
      <trkpt lat="48.82709" lon="7.28139">
        <ele>225.2</ele>
        <time>2020-06-28T06:57:18Z</time>
      </trkpt>
      <trkpt lat="48.82714" lon="7.28139">
        <ele>227.7</ele>
        <time>2020-06-28T06:57:21Z</time>
      </trkpt>
      <trkpt lat="48.8272" lon="7.28141">
        <ele>229.9</ele>
        <time>2020-06-28T06:57:24Z</time>
      </trkpt>
      <trkpt lat="48.82726" lon="7.28142">
        <ele>230.8</ele>
        <time>2020-06-28T06:57:27Z</time>
      </trkpt>
      <trkpt lat="48.8273" lon="7.28142">
        <ele>231.8</ele>
        <time>2020-06-28T06:57:29Z</time>
      </trkpt>
      <trkpt lat="48.82737" lon="7.28141">
        <ele>233.6</ele>
        <time>2020-06-28T06:57:32Z</time>
      </trkpt>
      <trkpt lat="48.82743" lon="7.28139">
        <ele>235.2</ele>
        <time>2020-06-28T06:57:35Z</time>
      </trkpt>
      <trkpt lat="48.82748" lon="7.28138">
        <ele>235.4</ele>
        <time>2020-06-28T06:57:38Z</time>
      </trkpt>
      <trkpt lat="48.82753" lon="7.28138">
        <ele>236.2</ele>
        <time>2020-06-28T06:57:41Z</time>
      </trkpt>
      <trkpt lat="48.82759" lon="7.28139">
        <ele>236.9</ele>
        <time>2020-06-28T06:57:44Z</time>
      </trkpt>
      <trkpt lat="48.82763" lon="7.28137">
        <ele>239.1</ele>
        <time>2020-06-28T06:57:47Z</time>
      </trkpt>
      <trkpt lat="48.82768" lon="7.28136">
        <ele>241.3</ele>
        <time>2020-06-28T06:57:50Z</time>
      </trkpt>
      <trkpt lat="48.82773" lon="7.28136">
        <ele>243.6</ele>
        <time>2020-06-28T06:57:53Z</time>
      </trkpt>
      <trkpt lat="48.82779" lon="7.28134">
        <ele>244.4</ele>
        <time>2020-06-28T06:57:56Z</time>
      </trkpt>
      <trkpt lat="48.82785" lon="7.28133">
        <ele>244.7</ele>
        <time>2020-06-28T06:57:59Z</time>
      </trkpt>
      <trkpt lat="48.82789" lon="7.28132">
        <ele>244.6</ele>
        <time>2020-06-28T06:58:02Z</time>
      </trkpt>
      <trkpt lat="48.82794" lon="7.2813">
        <ele>245.4</ele>
        <time>2020-06-28T06:58:06Z</time>
      </trkpt>
      <trkpt lat="48.82799" lon="7.28129">
        <ele>246.1</ele>
        <time>2020-06-28T06:58:09Z</time>
      </trkpt>
      <trkpt lat="48.82803" lon="7.2813">
        <ele>246</ele>
        <time>2020-06-28T06:58:12Z</time>
      </trkpt>
      <trkpt lat="48.82807" lon="7.28132">
        <ele>246.2</ele>
        <time>2020-06-28T06:58:15Z</time>
      </trkpt>
      <trkpt lat="48.82813" lon="7.28133">
        <ele>246.3</ele>
        <time>2020-06-28T06:58:18Z</time>
      </trkpt>
      <trkpt lat="48.82818" lon="7.2813">
        <ele>248.4</ele>
        <time>2020-06-28T06:58:22Z</time>
      </trkpt>
      <trkpt lat="48.82823" lon="7.28131">
        <ele>249.8</ele>
        <time>2020-06-28T06:58:26Z</time>
      </trkpt>
      <trkpt lat="48.82828" lon="7.28137">
        <ele>250.1</ele>
        <time>2020-06-28T06:58:30Z</time>
      </trkpt>
      <trkpt lat="48.82833" lon="7.28143">
        <ele>249.3</ele>
        <time>2020-06-28T06:58:33Z</time>
      </trkpt>
      <trkpt lat="48.82838" lon="7.2815">
        <ele>250.4</ele>
        <time>2020-06-28T06:58:36Z</time>
      </trkpt>
      <trkpt lat="48.82842" lon="7.28157">
        <ele>252.7</ele>
        <time>2020-06-28T06:58:39Z</time>
      </trkpt>
      <trkpt lat="48.82845" lon="7.28165">
        <ele>253.9</ele>
        <time>2020-06-28T06:58:42Z</time>
      </trkpt>
      <trkpt lat="48.82847" lon="7.28174">
        <ele>254.8</ele>
        <time>2020-06-28T06:58:45Z</time>
      </trkpt>
      <trkpt lat="48.82849" lon="7.28183">
        <ele>255.5</ele>
        <time>2020-06-28T06:58:48Z</time>
      </trkpt>
      <trkpt lat="48.8285" lon="7.2819">
        <ele>255.9</ele>
        <time>2020-06-28T06:58:51Z</time>
      </trkpt>
      <trkpt lat="48.82852" lon="7.28196">
        <ele>256.5</ele>
        <time>2020-06-28T06:58:54Z</time>
      </trkpt>
      <trkpt lat="48.82856" lon="7.28202">
        <ele>257.4</ele>
        <time>2020-06-28T06:58:57Z</time>
      </trkpt>
      <trkpt lat="48.82858" lon="7.2821">
        <ele>257.6</ele>
        <time>2020-06-28T06:59:00Z</time>
      </trkpt>
      <trkpt lat="48.82861" lon="7.28218">
        <ele>257.5</ele>
        <time>2020-06-28T06:59:03Z</time>
      </trkpt>
      <trkpt lat="48.82863" lon="7.28225">
        <ele>258</ele>
        <time>2020-06-28T06:59:06Z</time>
      </trkpt>
      <trkpt lat="48.82866" lon="7.28232">
        <ele>256.8</ele>
        <time>2020-06-28T06:59:10Z</time>
      </trkpt>
      <trkpt lat="48.82871" lon="7.28238">
        <ele>255.5</ele>
        <time>2020-06-28T06:59:13Z</time>
      </trkpt>
      <trkpt lat="48.82875" lon="7.28244">
        <ele>255</ele>
        <time>2020-06-28T06:59:16Z</time>
      </trkpt>
      <trkpt lat="48.8288" lon="7.28249">
        <ele>253.3</ele>
        <time>2020-06-28T06:59:19Z</time>
      </trkpt>
      <trkpt lat="48.82884" lon="7.28256">
        <ele>252.5</ele>
        <time>2020-06-28T06:59:22Z</time>
      </trkpt>
      <trkpt lat="48.82888" lon="7.28262">
        <ele>252.1</ele>
        <time>2020-06-28T06:59:24Z</time>
      </trkpt>
      <trkpt lat="48.82892" lon="7.28266">
        <ele>252.9</ele>
        <time>2020-06-28T06:59:26Z</time>
      </trkpt>
      <trkpt lat="48.82896" lon="7.2827">
        <ele>253.7</ele>
        <time>2020-06-28T06:59:28Z</time>
      </trkpt>
      <trkpt lat="48.82902" lon="7.28274">
        <ele>254.4</ele>
        <time>2020-06-28T06:59:31Z</time>
      </trkpt>
      <trkpt lat="48.82906" lon="7.2828">
        <ele>256</ele>
        <time>2020-06-28T06:59:34Z</time>
      </trkpt>
      <trkpt lat="48.8291" lon="7.28287">
        <ele>257.4</ele>
        <time>2020-06-28T06:59:37Z</time>
      </trkpt>
      <trkpt lat="48.82913" lon="7.28294">
        <ele>258.9</ele>
        <time>2020-06-28T06:59:39Z</time>
      </trkpt>
      <trkpt lat="48.82917" lon="7.283">
        <ele>259.5</ele>
        <time>2020-06-28T06:59:41Z</time>
      </trkpt>
      <trkpt lat="48.8292" lon="7.28308">
        <ele>261.1</ele>
        <time>2020-06-28T06:59:44Z</time>
      </trkpt>
      <trkpt lat="48.82924" lon="7.28315">
        <ele>262.8</ele>
        <time>2020-06-28T06:59:47Z</time>
      </trkpt>
      <trkpt lat="48.82928" lon="7.28323">
        <ele>263.3</ele>
        <time>2020-06-28T06:59:50Z</time>
      </trkpt>
      <trkpt lat="48.82929" lon="7.28331">
        <ele>264</ele>
        <time>2020-06-28T06:59:53Z</time>
      </trkpt>
      <trkpt lat="48.82929" lon="7.2834">
        <ele>265.1</ele>
        <time>2020-06-28T06:59:56Z</time>
      </trkpt>
      <trkpt lat="48.82932" lon="7.28346">
        <ele>266.6</ele>
        <time>2020-06-28T06:59:59Z</time>
      </trkpt>
      <trkpt lat="48.82937" lon="7.2835">
        <ele>267.1</ele>
        <time>2020-06-28T07:00:02Z</time>
      </trkpt>
      <trkpt lat="48.82941" lon="7.28354">
        <ele>268.5</ele>
        <time>2020-06-28T07:00:05Z</time>
      </trkpt>
      <trkpt lat="48.82944" lon="7.28361">
        <ele>269</ele>
        <time>2020-06-28T07:00:08Z</time>
      </trkpt>
      <trkpt lat="48.82948" lon="7.28368">
        <ele>269.2</ele>
        <time>2020-06-28T07:00:11Z</time>
      </trkpt>
      <trkpt lat="48.82951" lon="7.28372">
        <ele>269.7</ele>
        <time>2020-06-28T07:00:13Z</time>
      </trkpt>
      <trkpt lat="48.82956" lon="7.2838">
        <ele>269.6</ele>
        <time>2020-06-28T07:00:16Z</time>
      </trkpt>
      <trkpt lat="48.82957" lon="7.28387">
        <ele>269.6</ele>
        <time>2020-06-28T07:00:18Z</time>
      </trkpt>
      <trkpt lat="48.82959" lon="7.28392">
        <ele>269.9</ele>
        <time>2020-06-28T07:00:20Z</time>
      </trkpt>
      <trkpt lat="48.82962" lon="7.284">
        <ele>271.3</ele>
        <time>2020-06-28T07:00:23Z</time>
      </trkpt>
      <trkpt lat="48.82966" lon="7.28408">
        <ele>271.6</ele>
        <time>2020-06-28T07:00:26Z</time>
      </trkpt>
      <trkpt lat="48.82968" lon="7.28416">
        <ele>271.8</ele>
        <time>2020-06-28T07:00:29Z</time>
      </trkpt>
      <trkpt lat="48.82971" lon="7.28423">
        <ele>274</ele>
        <time>2020-06-28T07:00:32Z</time>
      </trkpt>
      <trkpt lat="48.82977" lon="7.28429">
        <ele>275</ele>
        <time>2020-06-28T07:00:35Z</time>
      </trkpt>
      <trkpt lat="48.82982" lon="7.28435">
        <ele>275.1</ele>
        <time>2020-06-28T07:00:38Z</time>
      </trkpt>
      <trkpt lat="48.82987" lon="7.28441">
        <ele>275.8</ele>
        <time>2020-06-28T07:00:41Z</time>
      </trkpt>
      <trkpt lat="48.8299" lon="7.28446">
        <ele>277.1</ele>
        <time>2020-06-28T07:00:43Z</time>
      </trkpt>
      <trkpt lat="48.82994" lon="7.28452">
        <ele>277.1</ele>
        <time>2020-06-28T07:00:46Z</time>
      </trkpt>
      <trkpt lat="48.82998" lon="7.28459">
        <ele>279</ele>
        <time>2020-06-28T07:00:49Z</time>
      </trkpt>
      <trkpt lat="48.83001" lon="7.28464">
        <ele>280.5</ele>
        <time>2020-06-28T07:00:52Z</time>
      </trkpt>
      <trkpt lat="48.83004" lon="7.28472">
        <ele>281.2</ele>
        <time>2020-06-28T07:00:55Z</time>
      </trkpt>
      <trkpt lat="48.83007" lon="7.28477">
        <ele>281.9</ele>
        <time>2020-06-28T07:00:57Z</time>
      </trkpt>
      <trkpt lat="48.8301" lon="7.28483">
        <ele>282.2</ele>
        <time>2020-06-28T07:00:59Z</time>
      </trkpt>
      <trkpt lat="48.83012" lon="7.2849">
        <ele>282.4</ele>
        <time>2020-06-28T07:01:02Z</time>
      </trkpt>
      <trkpt lat="48.83013" lon="7.28498">
        <ele>282</ele>
        <time>2020-06-28T07:01:05Z</time>
      </trkpt>
      <trkpt lat="48.83014" lon="7.28505">
        <ele>282</ele>
        <time>2020-06-28T07:01:08Z</time>
      </trkpt>
      <trkpt lat="48.83014" lon="7.28513">
        <ele>282.3</ele>
        <time>2020-06-28T07:01:11Z</time>
      </trkpt>
      <trkpt lat="48.83015" lon="7.2852">
        <ele>282.9</ele>
        <time>2020-06-28T07:01:14Z</time>
      </trkpt>
      <trkpt lat="48.83018" lon="7.28527">
        <ele>285.4</ele>
        <time>2020-06-28T07:01:18Z</time>
      </trkpt>
      <trkpt lat="48.8302" lon="7.28533">
        <ele>286.5</ele>
        <time>2020-06-28T07:01:21Z</time>
      </trkpt>
      <trkpt lat="48.83024" lon="7.2854">
        <ele>287</ele>
        <time>2020-06-28T07:01:24Z</time>
      </trkpt>
      <trkpt lat="48.83028" lon="7.28548">
        <ele>287.6</ele>
        <time>2020-06-28T07:01:27Z</time>
      </trkpt>
      <trkpt lat="48.83031" lon="7.28557">
        <ele>287.4</ele>
        <time>2020-06-28T07:01:30Z</time>
      </trkpt>
      <trkpt lat="48.83034" lon="7.28565">
        <ele>288.1</ele>
        <time>2020-06-28T07:01:33Z</time>
      </trkpt>
      <trkpt lat="48.83036" lon="7.28572">
        <ele>288.2</ele>
        <time>2020-06-28T07:01:36Z</time>
      </trkpt>
      <trkpt lat="48.83037" lon="7.28579">
        <ele>288.7</ele>
        <time>2020-06-28T07:01:39Z</time>
      </trkpt>
      <trkpt lat="48.8304" lon="7.28587">
        <ele>289.3</ele>
        <time>2020-06-28T07:01:42Z</time>
      </trkpt>
      <trkpt lat="48.83044" lon="7.28592">
        <ele>290.7</ele>
        <time>2020-06-28T07:01:45Z</time>
      </trkpt>
      <trkpt lat="48.83048" lon="7.28597">
        <ele>292.1</ele>
        <time>2020-06-28T07:01:48Z</time>
      </trkpt>
      <trkpt lat="48.83051" lon="7.28604">
        <ele>292.7</ele>
        <time>2020-06-28T07:01:51Z</time>
      </trkpt>
      <trkpt lat="48.83053" lon="7.28611">
        <ele>293.4</ele>
        <time>2020-06-28T07:01:54Z</time>
      </trkpt>
      <trkpt lat="48.83057" lon="7.28617">
        <ele>293.9</ele>
        <time>2020-06-28T07:01:57Z</time>
      </trkpt>
      <trkpt lat="48.83061" lon="7.28623">
        <ele>294.8</ele>
        <time>2020-06-28T07:02:00Z</time>
      </trkpt>
      <trkpt lat="48.83064" lon="7.2863">
        <ele>295.2</ele>
        <time>2020-06-28T07:02:04Z</time>
      </trkpt>
      <trkpt lat="48.83068" lon="7.28636">
        <ele>295.2</ele>
        <time>2020-06-28T07:02:07Z</time>
      </trkpt>
      <trkpt lat="48.83071" lon="7.28642">
        <ele>295.7</ele>
        <time>2020-06-28T07:02:10Z</time>
      </trkpt>
      <trkpt lat="48.83072" lon="7.28649">
        <ele>295.6</ele>
        <time>2020-06-28T07:02:13Z</time>
      </trkpt>
      <trkpt lat="48.83073" lon="7.28657">
        <ele>297.3</ele>
        <time>2020-06-28T07:02:16Z</time>
      </trkpt>
      <trkpt lat="48.83074" lon="7.28665">
        <ele>298.2</ele>
        <time>2020-06-28T07:02:20Z</time>
      </trkpt>
      <trkpt lat="48.83076" lon="7.28672">
        <ele>298.2</ele>
        <time>2020-06-28T07:02:24Z</time>
      </trkpt>
      <trkpt lat="48.83081" lon="7.28677">
        <ele>299</ele>
        <time>2020-06-28T07:02:27Z</time>
      </trkpt>
      <trkpt lat="48.83085" lon="7.28682">
        <ele>298.9</ele>
        <time>2020-06-28T07:02:30Z</time>
      </trkpt>
      <trkpt lat="48.83089" lon="7.28689">
        <ele>298.5</ele>
        <time>2020-06-28T07:02:33Z</time>
      </trkpt>
      <trkpt lat="48.83091" lon="7.28697">
        <ele>297.9</ele>
        <time>2020-06-28T07:02:36Z</time>
      </trkpt>
      <trkpt lat="48.83093" lon="7.28704">
        <ele>297.8</ele>
        <time>2020-06-28T07:02:38Z</time>
      </trkpt>
      <trkpt lat="48.83096" lon="7.28709">
        <ele>298.2</ele>
        <time>2020-06-28T07:02:40Z</time>
      </trkpt>
      <trkpt lat="48.831" lon="7.28718">
        <ele>297.4</ele>
        <time>2020-06-28T07:02:43Z</time>
      </trkpt>
      <trkpt lat="48.83101" lon="7.28726">
        <ele>296.7</ele>
        <time>2020-06-28T07:02:46Z</time>
      </trkpt>
      <trkpt lat="48.83103" lon="7.28735">
        <ele>296.3</ele>
        <time>2020-06-28T07:02:49Z</time>
      </trkpt>
      <trkpt lat="48.83104" lon="7.28742">
        <ele>297.4</ele>
        <time>2020-06-28T07:02:52Z</time>
      </trkpt>
      <trkpt lat="48.83106" lon="7.28751">
        <ele>297.8</ele>
        <time>2020-06-28T07:02:56Z</time>
      </trkpt>
      <trkpt lat="48.83109" lon="7.28759">
        <ele>296.9</ele>
        <time>2020-06-28T07:02:59Z</time>
      </trkpt>
      <trkpt lat="48.83111" lon="7.28766">
        <ele>296</ele>
        <time>2020-06-28T07:03:02Z</time>
      </trkpt>
      <trkpt lat="48.83112" lon="7.28774">
        <ele>294.8</ele>
        <time>2020-06-28T07:03:05Z</time>
      </trkpt>
      <trkpt lat="48.83113" lon="7.28781">
        <ele>294</ele>
        <time>2020-06-28T07:03:08Z</time>
      </trkpt>
      <trkpt lat="48.83114" lon="7.28789">
        <ele>294.3</ele>
        <time>2020-06-28T07:03:11Z</time>
      </trkpt>
      <trkpt lat="48.83113" lon="7.28797">
        <ele>294.4</ele>
        <time>2020-06-28T07:03:14Z</time>
      </trkpt>
      <trkpt lat="48.83113" lon="7.28804">
        <ele>298.5</ele>
        <time>2020-06-28T07:03:21Z</time>
      </trkpt>
      <trkpt lat="48.83116" lon="7.28808">
        <ele>302.3</ele>
        <time>2020-06-28T07:03:26Z</time>
      </trkpt>
      <trkpt lat="48.83119" lon="7.28814">
        <ele>306.6</ele>
        <time>2020-06-28T07:03:39Z</time>
      </trkpt>
      <trkpt lat="48.8312" lon="7.28821">
        <ele>308.2</ele>
        <time>2020-06-28T07:03:44Z</time>
      </trkpt>
      <trkpt lat="48.83121" lon="7.2883">
        <ele>308.6</ele>
        <time>2020-06-28T07:03:48Z</time>
      </trkpt>
      <trkpt lat="48.8312" lon="7.28838">
        <ele>308.1</ele>
        <time>2020-06-28T07:03:51Z</time>
      </trkpt>
      <trkpt lat="48.83119" lon="7.28847">
        <ele>305.4</ele>
        <time>2020-06-28T07:03:54Z</time>
      </trkpt>
      <trkpt lat="48.83118" lon="7.28857">
        <ele>301.2</ele>
        <time>2020-06-28T07:03:57Z</time>
      </trkpt>
      <trkpt lat="48.83117" lon="7.28864">
        <ele>300</ele>
        <time>2020-06-28T07:03:59Z</time>
      </trkpt>
      <trkpt lat="48.83116" lon="7.28871">
        <ele>299.2</ele>
        <time>2020-06-28T07:04:02Z</time>
      </trkpt>
      <trkpt lat="48.83118" lon="7.28879">
        <ele>298.7</ele>
        <time>2020-06-28T07:04:06Z</time>
      </trkpt>
      <trkpt lat="48.83121" lon="7.28884">
        <ele>299.3</ele>
        <time>2020-06-28T07:04:11Z</time>
      </trkpt>
      <trkpt lat="48.83123" lon="7.28891">
        <ele>302.5</ele>
        <time>2020-06-28T07:04:20Z</time>
      </trkpt>
      <trkpt lat="48.83125" lon="7.28899">
        <ele>305.1</ele>
        <time>2020-06-28T07:04:24Z</time>
      </trkpt>
      <trkpt lat="48.83125" lon="7.28906">
        <ele>305.3</ele>
        <time>2020-06-28T07:04:28Z</time>
      </trkpt>
      <trkpt lat="48.83124" lon="7.28915">
        <ele>303.9</ele>
        <time>2020-06-28T07:04:32Z</time>
      </trkpt>
      <trkpt lat="48.83124" lon="7.28922">
        <ele>304</ele>
        <time>2020-06-28T07:04:35Z</time>
      </trkpt>
      <trkpt lat="48.83122" lon="7.28929">
        <ele>304.9</ele>
        <time>2020-06-28T07:04:38Z</time>
      </trkpt>
      <trkpt lat="48.83121" lon="7.28938">
        <ele>304.1</ele>
        <time>2020-06-28T07:04:42Z</time>
      </trkpt>
      <trkpt lat="48.83122" lon="7.28945">
        <ele>303.8</ele>
        <time>2020-06-28T07:04:45Z</time>
      </trkpt>
      <trkpt lat="48.83123" lon="7.28953">
        <ele>304.3</ele>
        <time>2020-06-28T07:04:48Z</time>
      </trkpt>
      <trkpt lat="48.83124" lon="7.2896">
        <ele>304.2</ele>
        <time>2020-06-28T07:04:51Z</time>
      </trkpt>
      <trkpt lat="48.83124" lon="7.28969">
        <ele>303.7</ele>
        <time>2020-06-28T07:04:54Z</time>
      </trkpt>
      <trkpt lat="48.83124" lon="7.28979">
        <ele>303.6</ele>
        <time>2020-06-28T07:04:57Z</time>
      </trkpt>
      <trkpt lat="48.83123" lon="7.28986">
        <ele>302.5</ele>
        <time>2020-06-28T07:04:59Z</time>
      </trkpt>
      <trkpt lat="48.83124" lon="7.28993">
        <ele>303.2</ele>
        <time>2020-06-28T07:05:02Z</time>
      </trkpt>
      <trkpt lat="48.83126" lon="7.29001">
        <ele>303.8</ele>
        <time>2020-06-28T07:05:05Z</time>
      </trkpt>
      <trkpt lat="48.83127" lon="7.29009">
        <ele>304.4</ele>
        <time>2020-06-28T07:05:08Z</time>
      </trkpt>
      <trkpt lat="48.83128" lon="7.29017">
        <ele>305.8</ele>
        <time>2020-06-28T07:05:11Z</time>
      </trkpt>
      <trkpt lat="48.8313" lon="7.29024">
        <ele>307.9</ele>
        <time>2020-06-28T07:05:14Z</time>
      </trkpt>
      <trkpt lat="48.83134" lon="7.29029">
        <ele>309.4</ele>
        <time>2020-06-28T07:05:16Z</time>
      </trkpt>
      <trkpt lat="48.83137" lon="7.29033">
        <ele>311.1</ele>
        <time>2020-06-28T07:05:18Z</time>
      </trkpt>
      <trkpt lat="48.83143" lon="7.29038">
        <ele>313.5</ele>
        <time>2020-06-28T07:05:21Z</time>
      </trkpt>
      <trkpt lat="48.83146" lon="7.29044">
        <ele>315.9</ele>
        <time>2020-06-28T07:05:24Z</time>
      </trkpt>
      <trkpt lat="48.83149" lon="7.29051">
        <ele>317.4</ele>
        <time>2020-06-28T07:05:27Z</time>
      </trkpt>
      <trkpt lat="48.83153" lon="7.29056">
        <ele>318.8</ele>
        <time>2020-06-28T07:05:30Z</time>
      </trkpt>
      <trkpt lat="48.83158" lon="7.29058">
        <ele>320.3</ele>
        <time>2020-06-28T07:05:33Z</time>
      </trkpt>
      <trkpt lat="48.83163" lon="7.29058">
        <ele>321.3</ele>
        <time>2020-06-28T07:05:36Z</time>
      </trkpt>
      <trkpt lat="48.83169" lon="7.29055">
        <ele>322.8</ele>
        <time>2020-06-28T07:05:39Z</time>
      </trkpt>
      <trkpt lat="48.83174" lon="7.29052">
        <ele>322.4</ele>
        <time>2020-06-28T07:05:42Z</time>
      </trkpt>
      <trkpt lat="48.83179" lon="7.2905">
        <ele>321.3</ele>
        <time>2020-06-28T07:05:46Z</time>
      </trkpt>
      <trkpt lat="48.83184" lon="7.29046">
        <ele>322.3</ele>
        <time>2020-06-28T07:05:50Z</time>
      </trkpt>
      <trkpt lat="48.8319" lon="7.29043">
        <ele>323.8</ele>
        <time>2020-06-28T07:05:53Z</time>
      </trkpt>
      <trkpt lat="48.83195" lon="7.2904">
        <ele>325.3</ele>
        <time>2020-06-28T07:05:56Z</time>
      </trkpt>
      <trkpt lat="48.832" lon="7.29041">
        <ele>326</ele>
        <time>2020-06-28T07:06:00Z</time>
      </trkpt>
      <trkpt lat="48.83201" lon="7.29049">
        <ele>325.7</ele>
        <time>2020-06-28T07:06:04Z</time>
      </trkpt>
      <trkpt lat="48.832" lon="7.29056">
        <ele>325.7</ele>
        <time>2020-06-28T07:06:07Z</time>
      </trkpt>
      <trkpt lat="48.83199" lon="7.29065">
        <ele>325.1</ele>
        <time>2020-06-28T07:06:11Z</time>
      </trkpt>
      <trkpt lat="48.832" lon="7.29072">
        <ele>325</ele>
        <time>2020-06-28T07:06:14Z</time>
      </trkpt>
      <trkpt lat="48.83205" lon="7.29076">
        <ele>325.7</ele>
        <time>2020-06-28T07:06:17Z</time>
      </trkpt>
      <trkpt lat="48.83211" lon="7.29079">
        <ele>326.5</ele>
        <time>2020-06-28T07:06:20Z</time>
      </trkpt>
      <trkpt lat="48.83218" lon="7.29081">
        <ele>327.4</ele>
        <time>2020-06-28T07:06:23Z</time>
      </trkpt>
      <trkpt lat="48.83223" lon="7.29082">
        <ele>327.6</ele>
        <time>2020-06-28T07:06:26Z</time>
      </trkpt>
      <trkpt lat="48.8323" lon="7.29085">
        <ele>327.7</ele>
        <time>2020-06-28T07:06:29Z</time>
      </trkpt>
      <trkpt lat="48.83235" lon="7.29089">
        <ele>327.8</ele>
        <time>2020-06-28T07:06:32Z</time>
      </trkpt>
      <trkpt lat="48.83238" lon="7.29096">
        <ele>329.1</ele>
        <time>2020-06-28T07:06:35Z</time>
      </trkpt>
      <trkpt lat="48.83242" lon="7.29104">
        <ele>330</ele>
        <time>2020-06-28T07:06:38Z</time>
      </trkpt>
      <trkpt lat="48.83247" lon="7.29111">
        <ele>330.3</ele>
        <time>2020-06-28T07:06:41Z</time>
      </trkpt>
      <trkpt lat="48.8325" lon="7.29118">
        <ele>330.9</ele>
        <time>2020-06-28T07:06:44Z</time>
      </trkpt>
      <trkpt lat="48.83253" lon="7.29126">
        <ele>330.7</ele>
        <time>2020-06-28T07:06:47Z</time>
      </trkpt>
      <trkpt lat="48.83256" lon="7.29134">
        <ele>330.9</ele>
        <time>2020-06-28T07:06:50Z</time>
      </trkpt>
      <trkpt lat="48.83259" lon="7.29142">
        <ele>330.7</ele>
        <time>2020-06-28T07:06:53Z</time>
      </trkpt>
      <trkpt lat="48.83263" lon="7.29149">
        <ele>330.6</ele>
        <time>2020-06-28T07:06:56Z</time>
      </trkpt>
      <trkpt lat="48.83267" lon="7.29155">
        <ele>330.9</ele>
        <time>2020-06-28T07:06:59Z</time>
      </trkpt>
      <trkpt lat="48.83269" lon="7.29162">
        <ele>331.6</ele>
        <time>2020-06-28T07:07:02Z</time>
      </trkpt>
      <trkpt lat="48.83269" lon="7.2917">
        <ele>332.5</ele>
        <time>2020-06-28T07:07:05Z</time>
      </trkpt>
      <trkpt lat="48.83268" lon="7.29179">
        <ele>333.6</ele>
        <time>2020-06-28T07:07:08Z</time>
      </trkpt>
      <trkpt lat="48.83267" lon="7.29186">
        <ele>334.4</ele>
        <time>2020-06-28T07:07:10Z</time>
      </trkpt>
      <trkpt lat="48.83266" lon="7.29195">
        <ele>335.2</ele>
        <time>2020-06-28T07:07:13Z</time>
      </trkpt>
      <trkpt lat="48.83268" lon="7.29201">
        <ele>335.5</ele>
        <time>2020-06-28T07:07:16Z</time>
      </trkpt>
      <trkpt lat="48.83271" lon="7.29206">
        <ele>336.2</ele>
        <time>2020-06-28T07:07:19Z</time>
      </trkpt>
      <trkpt lat="48.83274" lon="7.29212">
        <ele>336.2</ele>
        <time>2020-06-28T07:07:22Z</time>
      </trkpt>
      <trkpt lat="48.83279" lon="7.29217">
        <ele>336.8</ele>
        <time>2020-06-28T07:07:26Z</time>
      </trkpt>
      <trkpt lat="48.83282" lon="7.29223">
        <ele>336.5</ele>
        <time>2020-06-28T07:07:30Z</time>
      </trkpt>
      <trkpt lat="48.83284" lon="7.29231">
        <ele>335.8</ele>
        <time>2020-06-28T07:07:34Z</time>
      </trkpt>
      <trkpt lat="48.83287" lon="7.29238">
        <ele>335.9</ele>
        <time>2020-06-28T07:07:38Z</time>
      </trkpt>
      <trkpt lat="48.83289" lon="7.29244">
        <ele>334.3</ele>
        <time>2020-06-28T07:07:42Z</time>
      </trkpt>
      <trkpt lat="48.83293" lon="7.2925">
        <ele>335.1</ele>
        <time>2020-06-28T07:07:46Z</time>
      </trkpt>
      <trkpt lat="48.83298" lon="7.29256">
        <ele>336.2</ele>
        <time>2020-06-28T07:07:49Z</time>
      </trkpt>
      <trkpt lat="48.83299" lon="7.29264">
        <ele>337.1</ele>
        <time>2020-06-28T07:07:52Z</time>
      </trkpt>
      <trkpt lat="48.83299" lon="7.29271">
        <ele>342</ele>
        <time>2020-06-28T07:08:02Z</time>
      </trkpt>
      <trkpt lat="48.83302" lon="7.29276">
        <ele>344.3</ele>
        <time>2020-06-28T07:08:07Z</time>
      </trkpt>
      <trkpt lat="48.83304" lon="7.29283">
        <ele>345.4</ele>
        <time>2020-06-28T07:08:14Z</time>
      </trkpt>
      <trkpt lat="48.83304" lon="7.29291">
        <ele>346.2</ele>
        <time>2020-06-28T07:08:18Z</time>
      </trkpt>
      <trkpt lat="48.83305" lon="7.29298">
        <ele>346.2</ele>
        <time>2020-06-28T07:08:21Z</time>
      </trkpt>
      <trkpt lat="48.83305" lon="7.29306">
        <ele>345.6</ele>
        <time>2020-06-28T07:08:24Z</time>
      </trkpt>
      <trkpt lat="48.83305" lon="7.29314">
        <ele>344.5</ele>
        <time>2020-06-28T07:08:27Z</time>
      </trkpt>
      <trkpt lat="48.83306" lon="7.29324">
        <ele>344.1</ele>
        <time>2020-06-28T07:08:30Z</time>
      </trkpt>
      <trkpt lat="48.83308" lon="7.29331">
        <ele>344.2</ele>
        <time>2020-06-28T07:08:32Z</time>
      </trkpt>
      <trkpt lat="48.83311" lon="7.29339">
        <ele>344.3</ele>
        <time>2020-06-28T07:08:35Z</time>
      </trkpt>
      <trkpt lat="48.83315" lon="7.29346">
        <ele>345</ele>
        <time>2020-06-28T07:08:38Z</time>
      </trkpt>
      <trkpt lat="48.83318" lon="7.29352">
        <ele>345.3</ele>
        <time>2020-06-28T07:08:40Z</time>
      </trkpt>
      <trkpt lat="48.83321" lon="7.2936">
        <ele>346.4</ele>
        <time>2020-06-28T07:08:43Z</time>
      </trkpt>
      <trkpt lat="48.83322" lon="7.29367">
        <ele>346.7</ele>
        <time>2020-06-28T07:08:46Z</time>
      </trkpt>
      <trkpt lat="48.83324" lon="7.29374">
        <ele>347.4</ele>
        <time>2020-06-28T07:08:49Z</time>
      </trkpt>
      <trkpt lat="48.83329" lon="7.29381">
        <ele>348</ele>
        <time>2020-06-28T07:08:52Z</time>
      </trkpt>
      <trkpt lat="48.83334" lon="7.29387">
        <ele>348.2</ele>
        <time>2020-06-28T07:08:55Z</time>
      </trkpt>
      <trkpt lat="48.83339" lon="7.29394">
        <ele>348.4</ele>
        <time>2020-06-28T07:08:58Z</time>
      </trkpt>
      <trkpt lat="48.83342" lon="7.29401">
        <ele>348.8</ele>
        <time>2020-06-28T07:09:01Z</time>
      </trkpt>
      <trkpt lat="48.83343" lon="7.2941">
        <ele>349.1</ele>
        <time>2020-06-28T07:09:04Z</time>
      </trkpt>
      <trkpt lat="48.83347" lon="7.29419">
        <ele>349.1</ele>
        <time>2020-06-28T07:09:07Z</time>
      </trkpt>
      <trkpt lat="48.83351" lon="7.29426">
        <ele>349</ele>
        <time>2020-06-28T07:09:10Z</time>
      </trkpt>
      <trkpt lat="48.83355" lon="7.29433">
        <ele>349.8</ele>
        <time>2020-06-28T07:09:13Z</time>
      </trkpt>
      <trkpt lat="48.83359" lon="7.29438">
        <ele>351.5</ele>
        <time>2020-06-28T07:09:16Z</time>
      </trkpt>
      <trkpt lat="48.83365" lon="7.29443">
        <ele>353.1</ele>
        <time>2020-06-28T07:09:19Z</time>
      </trkpt>
      <trkpt lat="48.8337" lon="7.29447">
        <ele>354.5</ele>
        <time>2020-06-28T07:09:22Z</time>
      </trkpt>
      <trkpt lat="48.83376" lon="7.29452">
        <ele>356.3</ele>
        <time>2020-06-28T07:09:25Z</time>
      </trkpt>
      <trkpt lat="48.83381" lon="7.29456">
        <ele>358.2</ele>
        <time>2020-06-28T07:09:28Z</time>
      </trkpt>
      <trkpt lat="48.83386" lon="7.29463">
        <ele>358.6</ele>
        <time>2020-06-28T07:09:31Z</time>
      </trkpt>
      <trkpt lat="48.83391" lon="7.29469">
        <ele>358.6</ele>
        <time>2020-06-28T07:09:34Z</time>
      </trkpt>
      <trkpt lat="48.83396" lon="7.29475">
        <ele>358.7</ele>
        <time>2020-06-28T07:09:37Z</time>
      </trkpt>
      <trkpt lat="48.834" lon="7.2948">
        <ele>357.8</ele>
        <time>2020-06-28T07:09:40Z</time>
      </trkpt>
      <trkpt lat="48.83405" lon="7.29485">
        <ele>358.1</ele>
        <time>2020-06-28T07:09:43Z</time>
      </trkpt>
      <trkpt lat="48.8341" lon="7.2949">
        <ele>358.7</ele>
        <time>2020-06-28T07:09:46Z</time>
      </trkpt>
      <trkpt lat="48.83415" lon="7.29494">
        <ele>359.5</ele>
        <time>2020-06-28T07:09:49Z</time>
      </trkpt>
      <trkpt lat="48.83419" lon="7.29498">
        <ele>360</ele>
        <time>2020-06-28T07:09:52Z</time>
      </trkpt>
      <trkpt lat="48.83424" lon="7.29501">
        <ele>360.3</ele>
        <time>2020-06-28T07:09:55Z</time>
      </trkpt>
      <trkpt lat="48.83428" lon="7.29503">
        <ele>361.2</ele>
        <time>2020-06-28T07:09:58Z</time>
      </trkpt>
      <trkpt lat="48.83434" lon="7.29507">
        <ele>362.5</ele>
        <time>2020-06-28T07:10:01Z</time>
      </trkpt>
      <trkpt lat="48.83438" lon="7.29511">
        <ele>363.1</ele>
        <time>2020-06-28T07:10:03Z</time>
      </trkpt>
      <trkpt lat="48.83442" lon="7.29517">
        <ele>363.4</ele>
        <time>2020-06-28T07:10:06Z</time>
      </trkpt>
      <trkpt lat="48.83445" lon="7.29524">
        <ele>363.7</ele>
        <time>2020-06-28T07:10:09Z</time>
      </trkpt>
      <trkpt lat="48.83449" lon="7.29531">
        <ele>364</ele>
        <time>2020-06-28T07:10:12Z</time>
      </trkpt>
      <trkpt lat="48.83452" lon="7.29537">
        <ele>364.4</ele>
        <time>2020-06-28T07:10:14Z</time>
      </trkpt>
      <trkpt lat="48.83456" lon="7.29542">
        <ele>364.8</ele>
        <time>2020-06-28T07:10:16Z</time>
      </trkpt>
      <trkpt lat="48.8346" lon="7.29547">
        <ele>364.6</ele>
        <time>2020-06-28T07:10:18Z</time>
      </trkpt>
      <trkpt lat="48.83464" lon="7.29552">
        <ele>364.9</ele>
        <time>2020-06-28T07:10:20Z</time>
      </trkpt>
      <trkpt lat="48.83467" lon="7.29557">
        <ele>365.5</ele>
        <time>2020-06-28T07:10:22Z</time>
      </trkpt>
      <trkpt lat="48.83471" lon="7.29562">
        <ele>366</ele>
        <time>2020-06-28T07:10:24Z</time>
      </trkpt>
      <trkpt lat="48.83477" lon="7.29567">
        <ele>367.5</ele>
        <time>2020-06-28T07:10:27Z</time>
      </trkpt>
      <trkpt lat="48.83482" lon="7.29572">
        <ele>367.8</ele>
        <time>2020-06-28T07:10:30Z</time>
      </trkpt>
      <trkpt lat="48.83486" lon="7.29579">
        <ele>367.4</ele>
        <time>2020-06-28T07:10:33Z</time>
      </trkpt>
      <trkpt lat="48.83492" lon="7.29585">
        <ele>367.5</ele>
        <time>2020-06-28T07:10:36Z</time>
      </trkpt>
      <trkpt lat="48.83497" lon="7.29591">
        <ele>367.3</ele>
        <time>2020-06-28T07:10:39Z</time>
      </trkpt>
      <trkpt lat="48.83502" lon="7.29597">
        <ele>368.2</ele>
        <time>2020-06-28T07:10:42Z</time>
      </trkpt>
      <trkpt lat="48.83506" lon="7.29602">
        <ele>368.8</ele>
        <time>2020-06-28T07:10:44Z</time>
      </trkpt>
      <trkpt lat="48.8351" lon="7.29609">
        <ele>369</ele>
        <time>2020-06-28T07:10:47Z</time>
      </trkpt>
      <trkpt lat="48.83513" lon="7.29617">
        <ele>370</ele>
        <time>2020-06-28T07:10:50Z</time>
      </trkpt>
      <trkpt lat="48.83517" lon="7.29623">
        <ele>370.6</ele>
        <time>2020-06-28T07:10:52Z</time>
      </trkpt>
      <trkpt lat="48.8352" lon="7.29627">
        <ele>370.9</ele>
        <time>2020-06-28T07:10:54Z</time>
      </trkpt>
      <trkpt lat="48.83525" lon="7.29635">
        <ele>371.5</ele>
        <time>2020-06-28T07:10:57Z</time>
      </trkpt>
      <trkpt lat="48.83528" lon="7.2964">
        <ele>371.9</ele>
        <time>2020-06-28T07:10:59Z</time>
      </trkpt>
      <trkpt lat="48.83532" lon="7.29646">
        <ele>372.2</ele>
        <time>2020-06-28T07:11:01Z</time>
      </trkpt>
      <trkpt lat="48.83535" lon="7.29651">
        <ele>372.7</ele>
        <time>2020-06-28T07:11:03Z</time>
      </trkpt>
      <trkpt lat="48.83538" lon="7.29655">
        <ele>373.1</ele>
        <time>2020-06-28T07:11:05Z</time>
      </trkpt>
      <trkpt lat="48.83544" lon="7.29661">
        <ele>373.6</ele>
        <time>2020-06-28T07:11:08Z</time>
      </trkpt>
      <trkpt lat="48.83549" lon="7.29667">
        <ele>373.3</ele>
        <time>2020-06-28T07:11:11Z</time>
      </trkpt>
      <trkpt lat="48.83553" lon="7.29671">
        <ele>373.5</ele>
        <time>2020-06-28T07:11:14Z</time>
      </trkpt>
      <trkpt lat="48.83558" lon="7.29677">
        <ele>373.6</ele>
        <time>2020-06-28T07:11:17Z</time>
      </trkpt>
      <trkpt lat="48.83563" lon="7.29682">
        <ele>373.8</ele>
        <time>2020-06-28T07:11:20Z</time>
      </trkpt>
      <trkpt lat="48.83568" lon="7.29686">
        <ele>373.3</ele>
        <time>2020-06-28T07:11:23Z</time>
      </trkpt>
      <trkpt lat="48.83572" lon="7.2969">
        <ele>372.9</ele>
        <time>2020-06-28T07:11:25Z</time>
      </trkpt>
      <trkpt lat="48.83576" lon="7.29695">
        <ele>372.2</ele>
        <time>2020-06-28T07:11:27Z</time>
      </trkpt>
      <trkpt lat="48.83581" lon="7.29703">
        <ele>371.9</ele>
        <time>2020-06-28T07:11:29Z</time>
      </trkpt>
      <trkpt lat="48.83585" lon="7.29711">
        <ele>371.5</ele>
        <time>2020-06-28T07:11:31Z</time>
      </trkpt>
      <trkpt lat="48.83589" lon="7.29718">
        <ele>371.5</ele>
        <time>2020-06-28T07:11:33Z</time>
      </trkpt>
      <trkpt lat="48.83593" lon="7.29725">
        <ele>371.5</ele>
        <time>2020-06-28T07:11:35Z</time>
      </trkpt>
      <trkpt lat="48.83597" lon="7.29734">
        <ele>371.2</ele>
        <time>2020-06-28T07:11:37Z</time>
      </trkpt>
      <trkpt lat="48.83598" lon="7.29744">
        <ele>370.7</ele>
        <time>2020-06-28T07:11:39Z</time>
      </trkpt>
      <trkpt lat="48.83599" lon="7.29751">
        <ele>370.3</ele>
        <time>2020-06-28T07:11:45Z</time>
      </trkpt>
      <trkpt lat="48.836" lon="7.29761">
        <ele>370.7</ele>
        <time>2020-06-28T07:11:53Z</time>
      </trkpt>
      <trkpt lat="48.83598" lon="7.2977">
        <ele>371.4</ele>
        <time>2020-06-28T07:11:56Z</time>
      </trkpt>
      <trkpt lat="48.83599" lon="7.2978">
        <ele>372.4</ele>
        <time>2020-06-28T07:12:15Z</time>
      </trkpt>
      <trkpt lat="48.83598" lon="7.29792">
        <ele>371.9</ele>
        <time>2020-06-28T07:12:17Z</time>
      </trkpt>
      <trkpt lat="48.83597" lon="7.29805">
        <ele>371.2</ele>
        <time>2020-06-28T07:12:19Z</time>
      </trkpt>
      <trkpt lat="48.83598" lon="7.29816">
        <ele>361</ele>
        <time>2020-06-28T07:12:21Z</time>
      </trkpt>
      <trkpt lat="48.83602" lon="7.29825">
        <ele>359.5</ele>
        <time>2020-06-28T07:12:23Z</time>
      </trkpt>
      <trkpt lat="48.8361" lon="7.2983">
        <ele>359.6</ele>
        <time>2020-06-28T07:12:25Z</time>
      </trkpt>
      <trkpt lat="48.83618" lon="7.2983">
        <ele>359.3</ele>
        <time>2020-06-28T07:12:27Z</time>
      </trkpt>
      <trkpt lat="48.83625" lon="7.29828">
        <ele>359.7</ele>
        <time>2020-06-28T07:12:29Z</time>
      </trkpt>
      <trkpt lat="48.83634" lon="7.29825">
        <ele>360.4</ele>
        <time>2020-06-28T07:12:31Z</time>
      </trkpt>
      <trkpt lat="48.83646" lon="7.2982">
        <ele>361.5</ele>
        <time>2020-06-28T07:12:33Z</time>
      </trkpt>
      <trkpt lat="48.83658" lon="7.29814">
        <ele>362.4</ele>
        <time>2020-06-28T07:12:35Z</time>
      </trkpt>
      <trkpt lat="48.83671" lon="7.29813">
        <ele>363.2</ele>
        <time>2020-06-28T07:12:37Z</time>
      </trkpt>
      <trkpt lat="48.83686" lon="7.29812">
        <ele>363.1</ele>
        <time>2020-06-28T07:12:39Z</time>
      </trkpt>
      <trkpt lat="48.83699" lon="7.29812">
        <ele>363</ele>
        <time>2020-06-28T07:12:41Z</time>
      </trkpt>
      <trkpt lat="48.83711" lon="7.29814">
        <ele>362.6</ele>
        <time>2020-06-28T07:12:43Z</time>
      </trkpt>
      <trkpt lat="48.83722" lon="7.29813">
        <ele>354.1</ele>
        <time>2020-06-28T07:12:45Z</time>
      </trkpt>
      <trkpt lat="48.83742" lon="7.29816">
        <ele>354</ele>
        <time>2020-06-28T07:12:48Z</time>
      </trkpt>
      <trkpt lat="48.83754" lon="7.29818">
        <ele>352.6</ele>
        <time>2020-06-28T07:12:50Z</time>
      </trkpt>
      <trkpt lat="48.83767" lon="7.2982">
        <ele>353.1</ele>
        <time>2020-06-28T07:12:52Z</time>
      </trkpt>
      <trkpt lat="48.83783" lon="7.29819">
        <ele>352.1</ele>
        <time>2020-06-28T07:12:54Z</time>
      </trkpt>
      <trkpt lat="48.83794" lon="7.29822">
        <ele>350.5</ele>
        <time>2020-06-28T07:12:56Z</time>
      </trkpt>
      <trkpt lat="48.83801" lon="7.29824">
        <ele>349.2</ele>
        <time>2020-06-28T07:12:58Z</time>
      </trkpt>
      <trkpt lat="48.83808" lon="7.29825">
        <ele>348.3</ele>
        <time>2020-06-28T07:13:00Z</time>
      </trkpt>
      <trkpt lat="48.83816" lon="7.29826">
        <ele>347.5</ele>
        <time>2020-06-28T07:13:02Z</time>
      </trkpt>
      <trkpt lat="48.83827" lon="7.29825">
        <ele>346.9</ele>
        <time>2020-06-28T07:13:04Z</time>
      </trkpt>
      <trkpt lat="48.8384" lon="7.29823">
        <ele>346.4</ele>
        <time>2020-06-28T07:13:06Z</time>
      </trkpt>
      <trkpt lat="48.83855" lon="7.29832">
        <ele>345.5</ele>
        <time>2020-06-28T07:13:08Z</time>
      </trkpt>
      <trkpt lat="48.83872" lon="7.29853">
        <ele>344.6</ele>
        <time>2020-06-28T07:13:11Z</time>
      </trkpt>
      <trkpt lat="48.83881" lon="7.29874">
        <ele>343.5</ele>
        <time>2020-06-28T07:13:13Z</time>
      </trkpt>
      <trkpt lat="48.83889" lon="7.29897">
        <ele>342.7</ele>
        <time>2020-06-28T07:13:16Z</time>
      </trkpt>
      <trkpt lat="48.83897" lon="7.29919">
        <ele>340.1</ele>
        <time>2020-06-28T07:13:18Z</time>
      </trkpt>
      <trkpt lat="48.83904" lon="7.29943">
        <ele>337.6</ele>
        <time>2020-06-28T07:13:20Z</time>
      </trkpt>
      <trkpt lat="48.83907" lon="7.29966">
        <ele>335.4</ele>
        <time>2020-06-28T07:13:22Z</time>
      </trkpt>
      <trkpt lat="48.83912" lon="7.29999">
        <ele>332.8</ele>
        <time>2020-06-28T07:13:25Z</time>
      </trkpt>
      <trkpt lat="48.83914" lon="7.30016">
        <ele>332.4</ele>
        <time>2020-06-28T07:13:27Z</time>
      </trkpt>
      <trkpt lat="48.83912" lon="7.30032">
        <ele>331.1</ele>
        <time>2020-06-28T07:13:29Z</time>
      </trkpt>
      <trkpt lat="48.8391" lon="7.30047">
        <ele>330.6</ele>
        <time>2020-06-28T07:13:31Z</time>
      </trkpt>
      <trkpt lat="48.83908" lon="7.30063">
        <ele>329.5</ele>
        <time>2020-06-28T07:13:33Z</time>
      </trkpt>
      <trkpt lat="48.83904" lon="7.30081">
        <ele>327.9</ele>
        <time>2020-06-28T07:13:35Z</time>
      </trkpt>
      <trkpt lat="48.83899" lon="7.30098">
        <ele>326</ele>
        <time>2020-06-28T07:13:37Z</time>
      </trkpt>
      <trkpt lat="48.83892" lon="7.30111">
        <ele>324.3</ele>
        <time>2020-06-28T07:13:39Z</time>
      </trkpt>
      <trkpt lat="48.83883" lon="7.30126">
        <ele>323.1</ele>
        <time>2020-06-28T07:13:41Z</time>
      </trkpt>
      <trkpt lat="48.83876" lon="7.3014">
        <ele>322.5</ele>
        <time>2020-06-28T07:13:43Z</time>
      </trkpt>
      <trkpt lat="48.83871" lon="7.30154">
        <ele>323</ele>
        <time>2020-06-28T07:13:45Z</time>
      </trkpt>
      <trkpt lat="48.83864" lon="7.30173">
        <ele>321.1</ele>
        <time>2020-06-28T07:13:48Z</time>
      </trkpt>
      <trkpt lat="48.83861" lon="7.30187">
        <ele>318.9</ele>
        <time>2020-06-28T07:13:50Z</time>
      </trkpt>
      <trkpt lat="48.83857" lon="7.30203">
        <ele>315.8</ele>
        <time>2020-06-28T07:13:52Z</time>
      </trkpt>
      <trkpt lat="48.83854" lon="7.30218">
        <ele>312.5</ele>
        <time>2020-06-28T07:13:54Z</time>
      </trkpt>
      <trkpt lat="48.83849" lon="7.30242">
        <ele>308.3</ele>
        <time>2020-06-28T07:13:57Z</time>
      </trkpt>
      <trkpt lat="48.83845" lon="7.30263">
        <ele>305.3</ele>
        <time>2020-06-28T07:13:59Z</time>
      </trkpt>
      <trkpt lat="48.8384" lon="7.30283">
        <ele>303.1</ele>
        <time>2020-06-28T07:14:01Z</time>
      </trkpt>
      <trkpt lat="48.83836" lon="7.30303">
        <ele>300.5</ele>
        <time>2020-06-28T07:14:03Z</time>
      </trkpt>
      <trkpt lat="48.83834" lon="7.30319">
        <ele>298.3</ele>
        <time>2020-06-28T07:14:05Z</time>
      </trkpt>
      <trkpt lat="48.8383" lon="7.30333">
        <ele>296.6</ele>
        <time>2020-06-28T07:14:07Z</time>
      </trkpt>
      <trkpt lat="48.83829" lon="7.3035">
        <ele>295.2</ele>
        <time>2020-06-28T07:14:09Z</time>
      </trkpt>
      <trkpt lat="48.83827" lon="7.30369">
        <ele>293.7</ele>
        <time>2020-06-28T07:14:11Z</time>
      </trkpt>
      <trkpt lat="48.83825" lon="7.30386">
        <ele>291.8</ele>
        <time>2020-06-28T07:14:13Z</time>
      </trkpt>
      <trkpt lat="48.83823" lon="7.30402">
        <ele>290.8</ele>
        <time>2020-06-28T07:14:15Z</time>
      </trkpt>
      <trkpt lat="48.83822" lon="7.30418">
        <ele>289.2</ele>
        <time>2020-06-28T07:14:17Z</time>
      </trkpt>
      <trkpt lat="48.83821" lon="7.30435">
        <ele>288.1</ele>
        <time>2020-06-28T07:14:19Z</time>
      </trkpt>
      <trkpt lat="48.83819" lon="7.3045">
        <ele>287.1</ele>
        <time>2020-06-28T07:14:21Z</time>
      </trkpt>
      <trkpt lat="48.83815" lon="7.30469">
        <ele>287</ele>
        <time>2020-06-28T07:14:23Z</time>
      </trkpt>
      <trkpt lat="48.83811" lon="7.3049">
        <ele>285.5</ele>
        <time>2020-06-28T07:14:25Z</time>
      </trkpt>
      <trkpt lat="48.83808" lon="7.30512">
        <ele>285.3</ele>
        <time>2020-06-28T07:14:27Z</time>
      </trkpt>
      <trkpt lat="48.83807" lon="7.30534">
        <ele>284.4</ele>
        <time>2020-06-28T07:14:29Z</time>
      </trkpt>
      <trkpt lat="48.83805" lon="7.30556">
        <ele>283.3</ele>
        <time>2020-06-28T07:14:31Z</time>
      </trkpt>
      <trkpt lat="48.83806" lon="7.3058">
        <ele>282</ele>
        <time>2020-06-28T07:14:33Z</time>
      </trkpt>
      <trkpt lat="48.83808" lon="7.30603">
        <ele>281.4</ele>
        <time>2020-06-28T07:14:35Z</time>
      </trkpt>
      <trkpt lat="48.83806" lon="7.30636">
        <ele>279.7</ele>
        <time>2020-06-28T07:14:38Z</time>
      </trkpt>
      <trkpt lat="48.83806" lon="7.30656">
        <ele>278.8</ele>
        <time>2020-06-28T07:14:40Z</time>
      </trkpt>
      <trkpt lat="48.83805" lon="7.30675">
        <ele>277.1</ele>
        <time>2020-06-28T07:14:42Z</time>
      </trkpt>
      <trkpt lat="48.83799" lon="7.30695">
        <ele>275.6</ele>
        <time>2020-06-28T07:14:44Z</time>
      </trkpt>
      <trkpt lat="48.83792" lon="7.30716">
        <ele>274.4</ele>
        <time>2020-06-28T07:14:46Z</time>
      </trkpt>
      <trkpt lat="48.83786" lon="7.30733">
        <ele>272.7</ele>
        <time>2020-06-28T07:14:48Z</time>
      </trkpt>
      <trkpt lat="48.83784" lon="7.30748">
        <ele>271.7</ele>
        <time>2020-06-28T07:14:50Z</time>
      </trkpt>
      <trkpt lat="48.83784" lon="7.30763">
        <ele>269.3</ele>
        <time>2020-06-28T07:14:52Z</time>
      </trkpt>
      <trkpt lat="48.83787" lon="7.30778">
        <ele>267.1</ele>
        <time>2020-06-28T07:14:54Z</time>
      </trkpt>
      <trkpt lat="48.8379" lon="7.30794">
        <ele>265.4</ele>
        <time>2020-06-28T07:14:56Z</time>
      </trkpt>
      <trkpt lat="48.83794" lon="7.30812">
        <ele>264</ele>
        <time>2020-06-28T07:14:58Z</time>
      </trkpt>
      <trkpt lat="48.83798" lon="7.30827">
        <ele>262.7</ele>
        <time>2020-06-28T07:15:00Z</time>
      </trkpt>
      <trkpt lat="48.83802" lon="7.30841">
        <ele>261.5</ele>
        <time>2020-06-28T07:15:02Z</time>
      </trkpt>
      <trkpt lat="48.83809" lon="7.30853">
        <ele>260.4</ele>
        <time>2020-06-28T07:15:04Z</time>
      </trkpt>
      <trkpt lat="48.83816" lon="7.30864">
        <ele>259.4</ele>
        <time>2020-06-28T07:15:06Z</time>
      </trkpt>
      <trkpt lat="48.83823" lon="7.30874">
        <ele>258.9</ele>
        <time>2020-06-28T07:15:08Z</time>
      </trkpt>
      <trkpt lat="48.83827" lon="7.30883">
        <ele>257.7</ele>
        <time>2020-06-28T07:15:10Z</time>
      </trkpt>
      <trkpt lat="48.83831" lon="7.30892">
        <ele>256.8</ele>
        <time>2020-06-28T07:15:12Z</time>
      </trkpt>
      <trkpt lat="48.83837" lon="7.30903">
        <ele>255.9</ele>
        <time>2020-06-28T07:15:14Z</time>
      </trkpt>
      <trkpt lat="48.83845" lon="7.30913">
        <ele>255.1</ele>
        <time>2020-06-28T07:15:16Z</time>
      </trkpt>
      <trkpt lat="48.83857" lon="7.3093">
        <ele>254.4</ele>
        <time>2020-06-28T07:15:19Z</time>
      </trkpt>
      <trkpt lat="48.83872" lon="7.30942">
        <ele>253.1</ele>
        <time>2020-06-28T07:15:22Z</time>
      </trkpt>
      <trkpt lat="48.83883" lon="7.30948">
        <ele>252.3</ele>
        <time>2020-06-28T07:15:24Z</time>
      </trkpt>
      <trkpt lat="48.839" lon="7.30959">
        <ele>251.8</ele>
        <time>2020-06-28T07:15:27Z</time>
      </trkpt>
      <trkpt lat="48.83919" lon="7.3097">
        <ele>250.6</ele>
        <time>2020-06-28T07:15:30Z</time>
      </trkpt>
      <trkpt lat="48.83936" lon="7.30969">
        <ele>248.6</ele>
        <time>2020-06-28T07:15:33Z</time>
      </trkpt>
      <trkpt lat="48.83947" lon="7.30966">
        <ele>253</ele>
        <time>2020-06-28T07:15:35Z</time>
      </trkpt>
      <trkpt lat="48.83957" lon="7.30958">
        <ele>254.1</ele>
        <time>2020-06-28T07:15:37Z</time>
      </trkpt>
      <trkpt lat="48.83968" lon="7.30948">
        <ele>254.6</ele>
        <time>2020-06-28T07:15:39Z</time>
      </trkpt>
      <trkpt lat="48.83979" lon="7.30943">
        <ele>254</ele>
        <time>2020-06-28T07:15:41Z</time>
      </trkpt>
      <trkpt lat="48.83991" lon="7.30943">
        <ele>253.1</ele>
        <time>2020-06-28T07:15:43Z</time>
      </trkpt>
      <trkpt lat="48.84002" lon="7.30952">
        <ele>251.1</ele>
        <time>2020-06-28T07:15:45Z</time>
      </trkpt>
      <trkpt lat="48.8402" lon="7.30957">
        <ele>248.6</ele>
        <time>2020-06-28T07:15:48Z</time>
      </trkpt>
      <trkpt lat="48.84027" lon="7.3096">
        <ele>247.8</ele>
        <time>2020-06-28T07:15:50Z</time>
      </trkpt>
      <trkpt lat="48.84026" lon="7.30969">
        <ele>245.2</ele>
        <time>2020-06-28T07:15:59Z</time>
      </trkpt>
      <trkpt lat="48.84025" lon="7.30978">
        <ele>245.4</ele>
        <time>2020-06-28T07:16:01Z</time>
      </trkpt>
      <trkpt lat="48.84024" lon="7.3099">
        <ele>245.3</ele>
        <time>2020-06-28T07:16:03Z</time>
      </trkpt>
      <trkpt lat="48.84023" lon="7.31004">
        <ele>245.4</ele>
        <time>2020-06-28T07:16:05Z</time>
      </trkpt>
      <trkpt lat="48.84025" lon="7.31018">
        <ele>245.4</ele>
        <time>2020-06-28T07:16:07Z</time>
      </trkpt>
      <trkpt lat="48.84032" lon="7.31032">
        <ele>245.6</ele>
        <time>2020-06-28T07:16:09Z</time>
      </trkpt>
      <trkpt lat="48.84038" lon="7.31046">
        <ele>246</ele>
        <time>2020-06-28T07:16:11Z</time>
      </trkpt>
      <trkpt lat="48.84043" lon="7.31061">
        <ele>246.1</ele>
        <time>2020-06-28T07:16:13Z</time>
      </trkpt>
      <trkpt lat="48.84048" lon="7.31075">
        <ele>246.1</ele>
        <time>2020-06-28T07:16:15Z</time>
      </trkpt>
      <trkpt lat="48.84054" lon="7.31089">
        <ele>244.9</ele>
        <time>2020-06-28T07:16:17Z</time>
      </trkpt>
      <trkpt lat="48.84059" lon="7.31104">
        <ele>244</ele>
        <time>2020-06-28T07:16:19Z</time>
      </trkpt>
      <trkpt lat="48.84064" lon="7.31116">
        <ele>242.9</ele>
        <time>2020-06-28T07:16:21Z</time>
      </trkpt>
      <trkpt lat="48.8407" lon="7.31126">
        <ele>242.2</ele>
        <time>2020-06-28T07:16:23Z</time>
      </trkpt>
      <trkpt lat="48.84076" lon="7.31135">
        <ele>240.6</ele>
        <time>2020-06-28T07:16:25Z</time>
      </trkpt>
      <trkpt lat="48.84082" lon="7.31145">
        <ele>239.1</ele>
        <time>2020-06-28T07:16:27Z</time>
      </trkpt>
      <trkpt lat="48.84089" lon="7.31153">
        <ele>238.3</ele>
        <time>2020-06-28T07:16:29Z</time>
      </trkpt>
      <trkpt lat="48.84095" lon="7.31162">
        <ele>237.9</ele>
        <time>2020-06-28T07:16:31Z</time>
      </trkpt>
      <trkpt lat="48.84103" lon="7.31171">
        <ele>237.7</ele>
        <time>2020-06-28T07:16:33Z</time>
      </trkpt>
      <trkpt lat="48.84112" lon="7.31181">
        <ele>237.2</ele>
        <time>2020-06-28T07:16:35Z</time>
      </trkpt>
      <trkpt lat="48.84121" lon="7.31193">
        <ele>236.3</ele>
        <time>2020-06-28T07:16:37Z</time>
      </trkpt>
      <trkpt lat="48.84131" lon="7.31204">
        <ele>235.1</ele>
        <time>2020-06-28T07:16:39Z</time>
      </trkpt>
      <trkpt lat="48.84142" lon="7.31214">
        <ele>234.6</ele>
        <time>2020-06-28T07:16:41Z</time>
      </trkpt>
      <trkpt lat="48.84152" lon="7.31224">
        <ele>234</ele>
        <time>2020-06-28T07:16:43Z</time>
      </trkpt>
      <trkpt lat="48.84163" lon="7.31236">
        <ele>233.5</ele>
        <time>2020-06-28T07:16:45Z</time>
      </trkpt>
      <trkpt lat="48.84174" lon="7.31247">
        <ele>233.5</ele>
        <time>2020-06-28T07:16:47Z</time>
      </trkpt>
      <trkpt lat="48.84182" lon="7.31259">
        <ele>233.5</ele>
        <time>2020-06-28T07:16:49Z</time>
      </trkpt>
      <trkpt lat="48.84191" lon="7.31271">
        <ele>233.8</ele>
        <time>2020-06-28T07:16:51Z</time>
      </trkpt>
      <trkpt lat="48.84198" lon="7.3128">
        <ele>233.7</ele>
        <time>2020-06-28T07:16:53Z</time>
      </trkpt>
      <trkpt lat="48.84205" lon="7.31286">
        <ele>234.1</ele>
        <time>2020-06-28T07:16:55Z</time>
      </trkpt>
      <trkpt lat="48.84211" lon="7.31291">
        <ele>235</ele>
        <time>2020-06-28T07:16:57Z</time>
      </trkpt>
      <trkpt lat="48.84218" lon="7.31297">
        <ele>235.6</ele>
        <time>2020-06-28T07:16:59Z</time>
      </trkpt>
      <trkpt lat="48.84223" lon="7.31304">
        <ele>236.4</ele>
        <time>2020-06-28T07:17:01Z</time>
      </trkpt>
      <trkpt lat="48.84227" lon="7.31309">
        <ele>236.8</ele>
        <time>2020-06-28T07:17:03Z</time>
      </trkpt>
      <trkpt lat="48.84232" lon="7.31314">
        <ele>237.1</ele>
        <time>2020-06-28T07:17:05Z</time>
      </trkpt>
      <trkpt lat="48.84236" lon="7.31319">
        <ele>237.4</ele>
        <time>2020-06-28T07:17:07Z</time>
      </trkpt>
      <trkpt lat="48.8424" lon="7.31325">
        <ele>238.5</ele>
        <time>2020-06-28T07:17:10Z</time>
      </trkpt>
      <trkpt lat="48.84246" lon="7.3133">
        <ele>239.8</ele>
        <time>2020-06-28T07:17:13Z</time>
      </trkpt>
      <trkpt lat="48.84252" lon="7.31337">
        <ele>240</ele>
        <time>2020-06-28T07:17:15Z</time>
      </trkpt>
      <trkpt lat="48.84256" lon="7.31341">
        <ele>239.6</ele>
        <time>2020-06-28T07:17:17Z</time>
      </trkpt>
      <trkpt lat="48.84263" lon="7.31347">
        <ele>240.1</ele>
        <time>2020-06-28T07:17:20Z</time>
      </trkpt>
      <trkpt lat="48.84269" lon="7.31352">
        <ele>239.7</ele>
        <time>2020-06-28T07:17:22Z</time>
      </trkpt>
      <trkpt lat="48.84275" lon="7.31357">
        <ele>239.8</ele>
        <time>2020-06-28T07:17:24Z</time>
      </trkpt>
      <trkpt lat="48.84279" lon="7.31362">
        <ele>238.9</ele>
        <time>2020-06-28T07:17:26Z</time>
      </trkpt>
      <trkpt lat="48.84283" lon="7.31367">
        <ele>238.3</ele>
        <time>2020-06-28T07:17:28Z</time>
      </trkpt>
      <trkpt lat="48.84287" lon="7.31374">
        <ele>245.1</ele>
        <time>2020-06-28T07:17:31Z</time>
      </trkpt>
      <trkpt lat="48.84291" lon="7.3138">
        <ele>244.8</ele>
        <time>2020-06-28T07:17:33Z</time>
      </trkpt>
      <trkpt lat="48.84295" lon="7.31385">
        <ele>244.4</ele>
        <time>2020-06-28T07:17:35Z</time>
      </trkpt>
      <trkpt lat="48.84299" lon="7.31392">
        <ele>242.4</ele>
        <time>2020-06-28T07:17:38Z</time>
      </trkpt>
      <trkpt lat="48.84302" lon="7.31398">
        <ele>241</ele>
        <time>2020-06-28T07:17:40Z</time>
      </trkpt>
      <trkpt lat="48.84305" lon="7.31405">
        <ele>239.3</ele>
        <time>2020-06-28T07:17:42Z</time>
      </trkpt>
      <trkpt lat="48.84309" lon="7.31412">
        <ele>237.7</ele>
        <time>2020-06-28T07:17:44Z</time>
      </trkpt>
      <trkpt lat="48.84312" lon="7.31421">
        <ele>236.1</ele>
        <time>2020-06-28T07:17:46Z</time>
      </trkpt>
      <trkpt lat="48.84314" lon="7.31431">
        <ele>233.9</ele>
        <time>2020-06-28T07:17:48Z</time>
      </trkpt>
      <trkpt lat="48.84315" lon="7.31443">
        <ele>232.5</ele>
        <time>2020-06-28T07:17:50Z</time>
      </trkpt>
      <trkpt lat="48.84316" lon="7.31453">
        <ele>231.1</ele>
        <time>2020-06-28T07:17:52Z</time>
      </trkpt>
      <trkpt lat="48.84314" lon="7.31467">
        <ele>229.3</ele>
        <time>2020-06-28T07:17:54Z</time>
      </trkpt>
      <trkpt lat="48.84314" lon="7.3148">
        <ele>227.9</ele>
        <time>2020-06-28T07:17:56Z</time>
      </trkpt>
      <trkpt lat="48.84314" lon="7.31488">
        <ele>226.5</ele>
        <time>2020-06-28T07:17:59Z</time>
      </trkpt>
      <trkpt lat="48.84312" lon="7.31494">
        <ele>223.1</ele>
        <time>2020-06-28T07:19:32Z</time>
      </trkpt>
      <trkpt lat="48.84314" lon="7.31503">
        <ele>222.6</ele>
        <time>2020-06-28T07:19:35Z</time>
      </trkpt>
      <trkpt lat="48.84317" lon="7.31511">
        <ele>222.1</ele>
        <time>2020-06-28T07:19:37Z</time>
      </trkpt>
      <trkpt lat="48.84321" lon="7.31524">
        <ele>220.8</ele>
        <time>2020-06-28T07:19:40Z</time>
      </trkpt>
      <trkpt lat="48.84324" lon="7.31532">
        <ele>220.3</ele>
        <time>2020-06-28T07:19:42Z</time>
      </trkpt>
      <trkpt lat="48.84328" lon="7.31541">
        <ele>220.5</ele>
        <time>2020-06-28T07:19:44Z</time>
      </trkpt>
      <trkpt lat="48.84331" lon="7.31549">
        <ele>220.3</ele>
        <time>2020-06-28T07:19:46Z</time>
      </trkpt>
      <trkpt lat="48.84334" lon="7.31558">
        <ele>220.5</ele>
        <time>2020-06-28T07:19:48Z</time>
      </trkpt>
      <trkpt lat="48.84337" lon="7.31567">
        <ele>220.8</ele>
        <time>2020-06-28T07:19:50Z</time>
      </trkpt>
      <trkpt lat="48.84339" lon="7.31575">
        <ele>220.9</ele>
        <time>2020-06-28T07:19:52Z</time>
      </trkpt>
      <trkpt lat="48.84341" lon="7.31583">
        <ele>220.3</ele>
        <time>2020-06-28T07:19:54Z</time>
      </trkpt>
      <trkpt lat="48.84343" lon="7.3159">
        <ele>219.6</ele>
        <time>2020-06-28T07:19:56Z</time>
      </trkpt>
      <trkpt lat="48.84346" lon="7.31597">
        <ele>218.9</ele>
        <time>2020-06-28T07:19:58Z</time>
      </trkpt>
      <trkpt lat="48.84348" lon="7.31604">
        <ele>218.8</ele>
        <time>2020-06-28T07:20:00Z</time>
      </trkpt>
      <trkpt lat="48.8435" lon="7.3161">
        <ele>218.1</ele>
        <time>2020-06-28T07:20:02Z</time>
      </trkpt>
      <trkpt lat="48.84352" lon="7.31618">
        <ele>218.8</ele>
        <time>2020-06-28T07:20:05Z</time>
      </trkpt>
      <trkpt lat="48.84354" lon="7.31625">
        <ele>219.3</ele>
        <time>2020-06-28T07:20:08Z</time>
      </trkpt>
      <trkpt lat="48.84359" lon="7.31632">
        <ele>220.2</ele>
        <time>2020-06-28T07:20:11Z</time>
      </trkpt>
      <trkpt lat="48.84364" lon="7.31637">
        <ele>220.9</ele>
        <time>2020-06-28T07:20:13Z</time>
      </trkpt>
      <trkpt lat="48.84369" lon="7.31642">
        <ele>221.2</ele>
        <time>2020-06-28T07:20:15Z</time>
      </trkpt>
      <trkpt lat="48.84374" lon="7.31647">
        <ele>221.8</ele>
        <time>2020-06-28T07:20:17Z</time>
      </trkpt>
      <trkpt lat="48.84379" lon="7.31652">
        <ele>222.1</ele>
        <time>2020-06-28T07:20:19Z</time>
      </trkpt>
      <trkpt lat="48.84385" lon="7.31659">
        <ele>221.7</ele>
        <time>2020-06-28T07:20:21Z</time>
      </trkpt>
      <trkpt lat="48.8439" lon="7.31666">
        <ele>221.7</ele>
        <time>2020-06-28T07:20:23Z</time>
      </trkpt>
      <trkpt lat="48.84396" lon="7.31673">
        <ele>221.3</ele>
        <time>2020-06-28T07:20:25Z</time>
      </trkpt>
      <trkpt lat="48.84401" lon="7.3168">
        <ele>215.5</ele>
        <time>2020-06-28T07:20:27Z</time>
      </trkpt>
      <trkpt lat="48.84407" lon="7.31688">
        <ele>217.2</ele>
        <time>2020-06-28T07:20:29Z</time>
      </trkpt>
      <trkpt lat="48.84412" lon="7.31695">
        <ele>217.3</ele>
        <time>2020-06-28T07:20:31Z</time>
      </trkpt>
      <trkpt lat="48.84417" lon="7.31702">
        <ele>218.5</ele>
        <time>2020-06-28T07:20:33Z</time>
      </trkpt>
      <trkpt lat="48.84422" lon="7.31709">
        <ele>219.5</ele>
        <time>2020-06-28T07:20:35Z</time>
      </trkpt>
      <trkpt lat="48.84428" lon="7.31715">
        <ele>220.4</ele>
        <time>2020-06-28T07:20:37Z</time>
      </trkpt>
      <trkpt lat="48.84433" lon="7.31721">
        <ele>221</ele>
        <time>2020-06-28T07:20:39Z</time>
      </trkpt>
      <trkpt lat="48.84439" lon="7.31727">
        <ele>221.8</ele>
        <time>2020-06-28T07:20:41Z</time>
      </trkpt>
      <trkpt lat="48.84445" lon="7.31732">
        <ele>222.3</ele>
        <time>2020-06-28T07:20:43Z</time>
      </trkpt>
      <trkpt lat="48.84451" lon="7.31738">
        <ele>222.6</ele>
        <time>2020-06-28T07:20:45Z</time>
      </trkpt>
      <trkpt lat="48.84458" lon="7.31743">
        <ele>223.2</ele>
        <time>2020-06-28T07:20:47Z</time>
      </trkpt>
      <trkpt lat="48.84466" lon="7.31748">
        <ele>223.6</ele>
        <time>2020-06-28T07:20:49Z</time>
      </trkpt>
      <trkpt lat="48.84473" lon="7.31752">
        <ele>223.9</ele>
        <time>2020-06-28T07:20:51Z</time>
      </trkpt>
      <trkpt lat="48.84481" lon="7.31757">
        <ele>224.2</ele>
        <time>2020-06-28T07:20:53Z</time>
      </trkpt>
      <trkpt lat="48.84488" lon="7.31762">
        <ele>224.5</ele>
        <time>2020-06-28T07:20:55Z</time>
      </trkpt>
      <trkpt lat="48.84495" lon="7.31767">
        <ele>224.7</ele>
        <time>2020-06-28T07:20:57Z</time>
      </trkpt>
      <trkpt lat="48.84503" lon="7.3177">
        <ele>225.2</ele>
        <time>2020-06-28T07:20:59Z</time>
      </trkpt>
      <trkpt lat="48.8451" lon="7.31775">
        <ele>224.2</ele>
        <time>2020-06-28T07:21:01Z</time>
      </trkpt>
      <trkpt lat="48.84518" lon="7.31779">
        <ele>223.4</ele>
        <time>2020-06-28T07:21:03Z</time>
      </trkpt>
      <trkpt lat="48.84526" lon="7.31781">
        <ele>222.6</ele>
        <time>2020-06-28T07:21:05Z</time>
      </trkpt>
      <trkpt lat="48.84535" lon="7.31782">
        <ele>213.3</ele>
        <time>2020-06-28T07:21:07Z</time>
      </trkpt>
      <trkpt lat="48.84544" lon="7.31782">
        <ele>212.3</ele>
        <time>2020-06-28T07:21:09Z</time>
      </trkpt>
      <trkpt lat="48.84554" lon="7.3178">
        <ele>210.2</ele>
        <time>2020-06-28T07:21:11Z</time>
      </trkpt>
      <trkpt lat="48.84563" lon="7.31777">
        <ele>210.5</ele>
        <time>2020-06-28T07:21:13Z</time>
      </trkpt>
      <trkpt lat="48.84571" lon="7.31773">
        <ele>213.5</ele>
        <time>2020-06-28T07:21:15Z</time>
      </trkpt>
      <trkpt lat="48.84579" lon="7.3177">
        <ele>216.1</ele>
        <time>2020-06-28T07:21:17Z</time>
      </trkpt>
      <trkpt lat="48.8459" lon="7.31766">
        <ele>219.9</ele>
        <time>2020-06-28T07:21:20Z</time>
      </trkpt>
      <trkpt lat="48.84597" lon="7.31764">
        <ele>221.8</ele>
        <time>2020-06-28T07:21:22Z</time>
      </trkpt>
      <trkpt lat="48.84604" lon="7.31763">
        <ele>223.2</ele>
        <time>2020-06-28T07:21:24Z</time>
      </trkpt>
      <trkpt lat="48.84611" lon="7.31762">
        <ele>225</ele>
        <time>2020-06-28T07:21:26Z</time>
      </trkpt>
      <trkpt lat="48.84617" lon="7.31762">
        <ele>220.2</ele>
        <time>2020-06-28T07:21:28Z</time>
      </trkpt>
      <trkpt lat="48.84623" lon="7.31762">
        <ele>222</ele>
        <time>2020-06-28T07:21:30Z</time>
      </trkpt>
      <trkpt lat="48.84628" lon="7.31759">
        <ele>221.4</ele>
        <time>2020-06-28T07:21:33Z</time>
      </trkpt>
      <trkpt lat="48.8463" lon="7.31751">
        <ele>222.4</ele>
        <time>2020-06-28T07:21:36Z</time>
      </trkpt>
      <trkpt lat="48.84628" lon="7.31744">
        <ele>223.3</ele>
        <time>2020-06-28T07:21:38Z</time>
      </trkpt>
      <trkpt lat="48.84625" lon="7.31739">
        <ele>224.9</ele>
        <time>2020-06-28T07:21:40Z</time>
      </trkpt>
      <trkpt lat="48.84619" lon="7.31732">
        <ele>226.3</ele>
        <time>2020-06-28T07:21:42Z</time>
      </trkpt>
      <trkpt lat="48.84614" lon="7.31726">
        <ele>227.4</ele>
        <time>2020-06-28T07:21:44Z</time>
      </trkpt>
      <trkpt lat="48.84609" lon="7.31718">
        <ele>228</ele>
        <time>2020-06-28T07:21:46Z</time>
      </trkpt>
      <trkpt lat="48.84604" lon="7.31711">
        <ele>228.4</ele>
        <time>2020-06-28T07:21:48Z</time>
      </trkpt>
      <trkpt lat="48.84599" lon="7.31704">
        <ele>228.5</ele>
        <time>2020-06-28T07:21:50Z</time>
      </trkpt>
      <trkpt lat="48.84595" lon="7.31696">
        <ele>228.1</ele>
        <time>2020-06-28T07:21:52Z</time>
      </trkpt>
      <trkpt lat="48.8459" lon="7.31689">
        <ele>228</ele>
        <time>2020-06-28T07:21:54Z</time>
      </trkpt>
      <trkpt lat="48.84585" lon="7.31682">
        <ele>227.8</ele>
        <time>2020-06-28T07:21:56Z</time>
      </trkpt>
      <trkpt lat="48.8458" lon="7.31676">
        <ele>227.6</ele>
        <time>2020-06-28T07:21:58Z</time>
      </trkpt>
      <trkpt lat="48.84576" lon="7.3167">
        <ele>228.2</ele>
        <time>2020-06-28T07:22:00Z</time>
      </trkpt>
      <trkpt lat="48.84569" lon="7.3166">
        <ele>228.5</ele>
        <time>2020-06-28T07:22:03Z</time>
      </trkpt>
      <trkpt lat="48.84564" lon="7.31654">
        <ele>228.4</ele>
        <time>2020-06-28T07:22:05Z</time>
      </trkpt>
      <trkpt lat="48.84559" lon="7.31646">
        <ele>228.3</ele>
        <time>2020-06-28T07:22:07Z</time>
      </trkpt>
      <trkpt lat="48.84554" lon="7.31638">
        <ele>223.7</ele>
        <time>2020-06-28T07:22:09Z</time>
      </trkpt>
      <trkpt lat="48.84549" lon="7.31631">
        <ele>224.5</ele>
        <time>2020-06-28T07:22:11Z</time>
      </trkpt>
      <trkpt lat="48.84546" lon="7.31625">
        <ele>224.9</ele>
        <time>2020-06-28T07:22:13Z</time>
      </trkpt>
      <trkpt lat="48.84542" lon="7.31619">
        <ele>225.3</ele>
        <time>2020-06-28T07:22:15Z</time>
      </trkpt>
      <trkpt lat="48.84537" lon="7.31612">
        <ele>225.3</ele>
        <time>2020-06-28T07:22:17Z</time>
      </trkpt>
      <trkpt lat="48.84533" lon="7.31607">
        <ele>225.8</ele>
        <time>2020-06-28T07:22:19Z</time>
      </trkpt>
      <trkpt lat="48.84528" lon="7.316">
        <ele>226.3</ele>
        <time>2020-06-28T07:22:21Z</time>
      </trkpt>
      <trkpt lat="48.84523" lon="7.31594">
        <ele>226.2</ele>
        <time>2020-06-28T07:22:23Z</time>
      </trkpt>
      <trkpt lat="48.84518" lon="7.31586">
        <ele>226.4</ele>
        <time>2020-06-28T07:22:25Z</time>
      </trkpt>
      <trkpt lat="48.84514" lon="7.31578">
        <ele>226.3</ele>
        <time>2020-06-28T07:22:27Z</time>
      </trkpt>
      <trkpt lat="48.8451" lon="7.3157">
        <ele>226.8</ele>
        <time>2020-06-28T07:22:29Z</time>
      </trkpt>
      <trkpt lat="48.84503" lon="7.31559">
        <ele>226.9</ele>
        <time>2020-06-28T07:22:32Z</time>
      </trkpt>
      <trkpt lat="48.84499" lon="7.31551">
        <ele>227.2</ele>
        <time>2020-06-28T07:22:34Z</time>
      </trkpt>
      <trkpt lat="48.84494" lon="7.31544">
        <ele>227</ele>
        <time>2020-06-28T07:22:36Z</time>
      </trkpt>
      <trkpt lat="48.8449" lon="7.31537">
        <ele>227.6</ele>
        <time>2020-06-28T07:22:38Z</time>
      </trkpt>
      <trkpt lat="48.84486" lon="7.31531">
        <ele>228.2</ele>
        <time>2020-06-28T07:22:40Z</time>
      </trkpt>
      <trkpt lat="48.84482" lon="7.31525">
        <ele>228.8</ele>
        <time>2020-06-28T07:22:42Z</time>
      </trkpt>
      <trkpt lat="48.84478" lon="7.31519">
        <ele>229.2</ele>
        <time>2020-06-28T07:22:44Z</time>
      </trkpt>
      <trkpt lat="48.84474" lon="7.31512">
        <ele>229.7</ele>
        <time>2020-06-28T07:22:46Z</time>
      </trkpt>
      <trkpt lat="48.84471" lon="7.31505">
        <ele>229.4</ele>
        <time>2020-06-28T07:22:48Z</time>
      </trkpt>
      <trkpt lat="48.84467" lon="7.31497">
        <ele>229.9</ele>
        <time>2020-06-28T07:22:50Z</time>
      </trkpt>
      <trkpt lat="48.84463" lon="7.31489">
        <ele>229.5</ele>
        <time>2020-06-28T07:22:52Z</time>
      </trkpt>
      <trkpt lat="48.84458" lon="7.31482">
        <ele>229.8</ele>
        <time>2020-06-28T07:22:54Z</time>
      </trkpt>
      <trkpt lat="48.84455" lon="7.31474">
        <ele>229.9</ele>
        <time>2020-06-28T07:22:56Z</time>
      </trkpt>
      <trkpt lat="48.84452" lon="7.31465">
        <ele>229.7</ele>
        <time>2020-06-28T07:22:58Z</time>
      </trkpt>
      <trkpt lat="48.84449" lon="7.31457">
        <ele>229.2</ele>
        <time>2020-06-28T07:23:00Z</time>
      </trkpt>
      <trkpt lat="48.84446" lon="7.31448">
        <ele>228.8</ele>
        <time>2020-06-28T07:23:02Z</time>
      </trkpt>
      <trkpt lat="48.84442" lon="7.3144">
        <ele>228.1</ele>
        <time>2020-06-28T07:23:04Z</time>
      </trkpt>
      <trkpt lat="48.8444" lon="7.3143">
        <ele>227.5</ele>
        <time>2020-06-28T07:23:06Z</time>
      </trkpt>
      <trkpt lat="48.84437" lon="7.3142">
        <ele>227.3</ele>
        <time>2020-06-28T07:23:08Z</time>
      </trkpt>
      <trkpt lat="48.84434" lon="7.3141">
        <ele>227.1</ele>
        <time>2020-06-28T07:23:10Z</time>
      </trkpt>
      <trkpt lat="48.84431" lon="7.31401">
        <ele>227.2</ele>
        <time>2020-06-28T07:23:12Z</time>
      </trkpt>
      <trkpt lat="48.84428" lon="7.31394">
        <ele>227.6</ele>
        <time>2020-06-28T07:23:14Z</time>
      </trkpt>
      <trkpt lat="48.84424" lon="7.31386">
        <ele>228.2</ele>
        <time>2020-06-28T07:23:16Z</time>
      </trkpt>
      <trkpt lat="48.84422" lon="7.31378">
        <ele>228.8</ele>
        <time>2020-06-28T07:23:18Z</time>
      </trkpt>
      <trkpt lat="48.84419" lon="7.3137">
        <ele>229.4</ele>
        <time>2020-06-28T07:23:20Z</time>
      </trkpt>
      <trkpt lat="48.84417" lon="7.31362">
        <ele>229.7</ele>
        <time>2020-06-28T07:23:22Z</time>
      </trkpt>
      <trkpt lat="48.84416" lon="7.31354">
        <ele>230.1</ele>
        <time>2020-06-28T07:23:24Z</time>
      </trkpt>
      <trkpt lat="48.84416" lon="7.31347">
        <ele>230.1</ele>
        <time>2020-06-28T07:23:26Z</time>
      </trkpt>
      <trkpt lat="48.84416" lon="7.31337">
        <ele>229.8</ele>
        <time>2020-06-28T07:23:29Z</time>
      </trkpt>
      <trkpt lat="48.84417" lon="7.3133">
        <ele>230.2</ele>
        <time>2020-06-28T07:23:31Z</time>
      </trkpt>
      <trkpt lat="48.84416" lon="7.3132">
        <ele>231.3</ele>
        <time>2020-06-28T07:23:34Z</time>
      </trkpt>
      <trkpt lat="48.84415" lon="7.31311">
        <ele>232.4</ele>
        <time>2020-06-28T07:23:37Z</time>
      </trkpt>
      <trkpt lat="48.84414" lon="7.31304">
        <ele>232.8</ele>
        <time>2020-06-28T07:23:39Z</time>
      </trkpt>
      <trkpt lat="48.84412" lon="7.31297">
        <ele>233</ele>
        <time>2020-06-28T07:23:41Z</time>
      </trkpt>
      <trkpt lat="48.8441" lon="7.3129">
        <ele>233.2</ele>
        <time>2020-06-28T07:23:43Z</time>
      </trkpt>
      <trkpt lat="48.84407" lon="7.31282">
        <ele>233.7</ele>
        <time>2020-06-28T07:23:45Z</time>
      </trkpt>
      <trkpt lat="48.84405" lon="7.31274">
        <ele>234.6</ele>
        <time>2020-06-28T07:23:47Z</time>
      </trkpt>
      <trkpt lat="48.84403" lon="7.31266">
        <ele>235</ele>
        <time>2020-06-28T07:23:49Z</time>
      </trkpt>
      <trkpt lat="48.84402" lon="7.31258">
        <ele>235.6</ele>
        <time>2020-06-28T07:23:51Z</time>
      </trkpt>
      <trkpt lat="48.844" lon="7.3125">
        <ele>235.6</ele>
        <time>2020-06-28T07:23:53Z</time>
      </trkpt>
      <trkpt lat="48.84399" lon="7.31243">
        <ele>235.8</ele>
        <time>2020-06-28T07:23:55Z</time>
      </trkpt>
      <trkpt lat="48.84397" lon="7.31234">
        <ele>235.6</ele>
        <time>2020-06-28T07:23:57Z</time>
      </trkpt>
      <trkpt lat="48.84398" lon="7.31215">
        <ele>236.1</ele>
        <time>2020-06-28T07:24:00Z</time>
      </trkpt>
      <trkpt lat="48.84399" lon="7.31204">
        <ele>235.7</ele>
        <time>2020-06-28T07:24:02Z</time>
      </trkpt>
      <trkpt lat="48.84399" lon="7.31197">
        <ele>234.5</ele>
        <time>2020-06-28T07:24:04Z</time>
      </trkpt>
      <trkpt lat="48.84398" lon="7.31189">
        <ele>233.8</ele>
        <time>2020-06-28T07:24:06Z</time>
      </trkpt>
      <trkpt lat="48.84398" lon="7.3118">
        <ele>233.1</ele>
        <time>2020-06-28T07:24:08Z</time>
      </trkpt>
      <trkpt lat="48.844" lon="7.31171">
        <ele>232.7</ele>
        <time>2020-06-28T07:24:10Z</time>
      </trkpt>
      <trkpt lat="48.84402" lon="7.31163">
        <ele>231.8</ele>
        <time>2020-06-28T07:24:12Z</time>
      </trkpt>
      <trkpt lat="48.84404" lon="7.31155">
        <ele>231.1</ele>
        <time>2020-06-28T07:24:14Z</time>
      </trkpt>
      <trkpt lat="48.84407" lon="7.31148">
        <ele>230.2</ele>
        <time>2020-06-28T07:24:16Z</time>
      </trkpt>
      <trkpt lat="48.84411" lon="7.3114">
        <ele>229.3</ele>
        <time>2020-06-28T07:24:19Z</time>
      </trkpt>
      <trkpt lat="48.84414" lon="7.31133">
        <ele>228.8</ele>
        <time>2020-06-28T07:24:21Z</time>
      </trkpt>
      <trkpt lat="48.84417" lon="7.31126">
        <ele>229.1</ele>
        <time>2020-06-28T07:24:23Z</time>
      </trkpt>
      <trkpt lat="48.8442" lon="7.3112">
        <ele>229.4</ele>
        <time>2020-06-28T07:24:25Z</time>
      </trkpt>
      <trkpt lat="48.84424" lon="7.31113">
        <ele>229.9</ele>
        <time>2020-06-28T07:24:27Z</time>
      </trkpt>
      <trkpt lat="48.84428" lon="7.31106">
        <ele>230.2</ele>
        <time>2020-06-28T07:24:29Z</time>
      </trkpt>
      <trkpt lat="48.84431" lon="7.311">
        <ele>230.9</ele>
        <time>2020-06-28T07:24:31Z</time>
      </trkpt>
      <trkpt lat="48.84435" lon="7.31093">
        <ele>231.7</ele>
        <time>2020-06-28T07:24:33Z</time>
      </trkpt>
      <trkpt lat="48.84438" lon="7.31087">
        <ele>232.6</ele>
        <time>2020-06-28T07:24:35Z</time>
      </trkpt>
      <trkpt lat="48.84443" lon="7.3108">
        <ele>233.8</ele>
        <time>2020-06-28T07:24:37Z</time>
      </trkpt>
      <trkpt lat="48.84447" lon="7.31075">
        <ele>234.5</ele>
        <time>2020-06-28T07:24:39Z</time>
      </trkpt>
      <trkpt lat="48.84451" lon="7.31069">
        <ele>235.8</ele>
        <time>2020-06-28T07:24:41Z</time>
      </trkpt>
      <trkpt lat="48.84454" lon="7.31064">
        <ele>237.2</ele>
        <time>2020-06-28T07:24:43Z</time>
      </trkpt>
      <trkpt lat="48.84458" lon="7.31059">
        <ele>239</ele>
        <time>2020-06-28T07:24:45Z</time>
      </trkpt>
      <trkpt lat="48.84462" lon="7.3105">
        <ele>241.4</ele>
        <time>2020-06-28T07:24:48Z</time>
      </trkpt>
      <trkpt lat="48.84465" lon="7.31042">
        <ele>243.4</ele>
        <time>2020-06-28T07:24:51Z</time>
      </trkpt>
      <trkpt lat="48.84468" lon="7.31036">
        <ele>244.9</ele>
        <time>2020-06-28T07:24:54Z</time>
      </trkpt>
      <trkpt lat="48.84471" lon="7.31029">
        <ele>246.2</ele>
        <time>2020-06-28T07:24:57Z</time>
      </trkpt>
      <trkpt lat="48.84475" lon="7.31024">
        <ele>246.7</ele>
        <time>2020-06-28T07:24:59Z</time>
      </trkpt>
      <trkpt lat="48.84478" lon="7.31017">
        <ele>248.2</ele>
        <time>2020-06-28T07:25:02Z</time>
      </trkpt>
      <trkpt lat="48.84481" lon="7.3101">
        <ele>248.6</ele>
        <time>2020-06-28T07:25:05Z</time>
      </trkpt>
      <trkpt lat="48.84486" lon="7.31005">
        <ele>248.9</ele>
        <time>2020-06-28T07:25:08Z</time>
      </trkpt>
      <trkpt lat="48.8449" lon="7.31002">
        <ele>249.1</ele>
        <time>2020-06-28T07:25:10Z</time>
      </trkpt>
      <trkpt lat="48.84494" lon="7.30997">
        <ele>248.9</ele>
        <time>2020-06-28T07:25:12Z</time>
      </trkpt>
      <trkpt lat="48.84498" lon="7.30991">
        <ele>250</ele>
        <time>2020-06-28T07:25:14Z</time>
      </trkpt>
      <trkpt lat="48.84502" lon="7.30984">
        <ele>250.7</ele>
        <time>2020-06-28T07:25:16Z</time>
      </trkpt>
      <trkpt lat="48.84507" lon="7.30978">
        <ele>250.9</ele>
        <time>2020-06-28T07:25:18Z</time>
      </trkpt>
      <trkpt lat="48.84511" lon="7.30973">
        <ele>251.6</ele>
        <time>2020-06-28T07:25:20Z</time>
      </trkpt>
      <trkpt lat="48.84515" lon="7.30966">
        <ele>252</ele>
        <time>2020-06-28T07:25:23Z</time>
      </trkpt>
      <trkpt lat="48.8452" lon="7.30959">
        <ele>252</ele>
        <time>2020-06-28T07:25:26Z</time>
      </trkpt>
      <trkpt lat="48.84524" lon="7.30954">
        <ele>252.4</ele>
        <time>2020-06-28T07:25:28Z</time>
      </trkpt>
      <trkpt lat="48.84528" lon="7.30949">
        <ele>252.7</ele>
        <time>2020-06-28T07:25:30Z</time>
      </trkpt>
      <trkpt lat="48.84532" lon="7.30944">
        <ele>253.1</ele>
        <time>2020-06-28T07:25:32Z</time>
      </trkpt>
      <trkpt lat="48.84535" lon="7.30939">
        <ele>252.8</ele>
        <time>2020-06-28T07:25:34Z</time>
      </trkpt>
      <trkpt lat="48.8454" lon="7.30933">
        <ele>253.4</ele>
        <time>2020-06-28T07:25:37Z</time>
      </trkpt>
      <trkpt lat="48.84544" lon="7.30928">
        <ele>253.7</ele>
        <time>2020-06-28T07:25:39Z</time>
      </trkpt>
      <trkpt lat="48.84548" lon="7.30924">
        <ele>254.4</ele>
        <time>2020-06-28T07:25:41Z</time>
      </trkpt>
      <trkpt lat="48.84551" lon="7.30919">
        <ele>255</ele>
        <time>2020-06-28T07:25:43Z</time>
      </trkpt>
      <trkpt lat="48.84555" lon="7.30913">
        <ele>254.8</ele>
        <time>2020-06-28T07:25:45Z</time>
      </trkpt>
      <trkpt lat="48.84559" lon="7.30908">
        <ele>254.9</ele>
        <time>2020-06-28T07:25:47Z</time>
      </trkpt>
      <trkpt lat="48.84563" lon="7.30903">
        <ele>255.4</ele>
        <time>2020-06-28T07:25:50Z</time>
      </trkpt>
      <trkpt lat="48.84559" lon="7.30903">
        <ele>255.1</ele>
        <time>2020-06-28T07:26:05Z</time>
      </trkpt>
      <trkpt lat="48.84566" lon="7.30901">
        <ele>254.2</ele>
        <time>2020-06-28T07:26:11Z</time>
      </trkpt>
      <trkpt lat="48.84571" lon="7.30901">
        <ele>253.3</ele>
        <time>2020-06-28T07:26:13Z</time>
      </trkpt>
      <trkpt lat="48.84577" lon="7.30899">
        <ele>251.5</ele>
        <time>2020-06-28T07:26:16Z</time>
      </trkpt>
      <trkpt lat="48.84581" lon="7.30897">
        <ele>250.7</ele>
        <time>2020-06-28T07:26:20Z</time>
      </trkpt>
      <trkpt lat="48.84586" lon="7.30895">
        <ele>251.4</ele>
        <time>2020-06-28T07:26:25Z</time>
      </trkpt>
      <trkpt lat="48.84591" lon="7.30892">
        <ele>252.8</ele>
        <time>2020-06-28T07:26:29Z</time>
      </trkpt>
      <trkpt lat="48.84595" lon="7.30887">
        <ele>254.8</ele>
        <time>2020-06-28T07:26:35Z</time>
      </trkpt>
      <trkpt lat="48.84599" lon="7.30885">
        <ele>255.7</ele>
        <time>2020-06-28T07:26:39Z</time>
      </trkpt>
      <trkpt lat="48.84604" lon="7.30883">
        <ele>256.4</ele>
        <time>2020-06-28T07:26:42Z</time>
      </trkpt>
      <trkpt lat="48.84611" lon="7.30882">
        <ele>256.4</ele>
        <time>2020-06-28T07:26:45Z</time>
      </trkpt>
      <trkpt lat="48.84616" lon="7.30883">
        <ele>256.7</ele>
        <time>2020-06-28T07:26:47Z</time>
      </trkpt>
      <trkpt lat="48.84621" lon="7.30884">
        <ele>256.1</ele>
        <time>2020-06-28T07:26:49Z</time>
      </trkpt>
      <trkpt lat="48.84626" lon="7.30885">
        <ele>256.4</ele>
        <time>2020-06-28T07:26:51Z</time>
      </trkpt>
      <trkpt lat="48.84633" lon="7.30883">
        <ele>256.7</ele>
        <time>2020-06-28T07:26:53Z</time>
      </trkpt>
      <trkpt lat="48.84638" lon="7.3088">
        <ele>257.2</ele>
        <time>2020-06-28T07:26:55Z</time>
      </trkpt>
      <trkpt lat="48.84643" lon="7.30879">
        <ele>257.2</ele>
        <time>2020-06-28T07:26:57Z</time>
      </trkpt>
      <trkpt lat="48.84649" lon="7.30877">
        <ele>256.6</ele>
        <time>2020-06-28T07:26:59Z</time>
      </trkpt>
      <trkpt lat="48.84655" lon="7.30875">
        <ele>256.9</ele>
        <time>2020-06-28T07:27:01Z</time>
      </trkpt>
      <trkpt lat="48.8466" lon="7.30871">
        <ele>257.1</ele>
        <time>2020-06-28T07:27:03Z</time>
      </trkpt>
      <trkpt lat="48.84666" lon="7.30868">
        <ele>257.8</ele>
        <time>2020-06-28T07:27:05Z</time>
      </trkpt>
      <trkpt lat="48.84671" lon="7.30865">
        <ele>258.7</ele>
        <time>2020-06-28T07:27:07Z</time>
      </trkpt>
      <trkpt lat="48.84676" lon="7.30862">
        <ele>259.4</ele>
        <time>2020-06-28T07:27:09Z</time>
      </trkpt>
      <trkpt lat="48.8468" lon="7.30859">
        <ele>259.2</ele>
        <time>2020-06-28T07:27:11Z</time>
      </trkpt>
      <trkpt lat="48.84685" lon="7.30859">
        <ele>258.3</ele>
        <time>2020-06-28T07:27:13Z</time>
      </trkpt>
      <trkpt lat="48.8469" lon="7.30861">
        <ele>257.9</ele>
        <time>2020-06-28T07:27:15Z</time>
      </trkpt>
      <trkpt lat="48.84694" lon="7.30863">
        <ele>258</ele>
        <time>2020-06-28T07:27:17Z</time>
      </trkpt>
      <trkpt lat="48.847" lon="7.30867">
        <ele>256.9</ele>
        <time>2020-06-28T07:27:19Z</time>
      </trkpt>
      <trkpt lat="48.84705" lon="7.30871">
        <ele>256.5</ele>
        <time>2020-06-28T07:27:21Z</time>
      </trkpt>
      <trkpt lat="48.84712" lon="7.30874">
        <ele>256.4</ele>
        <time>2020-06-28T07:27:23Z</time>
      </trkpt>
      <trkpt lat="48.84718" lon="7.30875">
        <ele>256.2</ele>
        <time>2020-06-28T07:27:25Z</time>
      </trkpt>
      <trkpt lat="48.84723" lon="7.30876">
        <ele>256.5</ele>
        <time>2020-06-28T07:27:27Z</time>
      </trkpt>
      <trkpt lat="48.84728" lon="7.30878">
        <ele>256.8</ele>
        <time>2020-06-28T07:27:29Z</time>
      </trkpt>
      <trkpt lat="48.84734" lon="7.30879">
        <ele>256.9</ele>
        <time>2020-06-28T07:27:31Z</time>
      </trkpt>
      <trkpt lat="48.8474" lon="7.3088">
        <ele>257.4</ele>
        <time>2020-06-28T07:27:33Z</time>
      </trkpt>
      <trkpt lat="48.84745" lon="7.30883">
        <ele>257.5</ele>
        <time>2020-06-28T07:27:35Z</time>
      </trkpt>
      <trkpt lat="48.84751" lon="7.30887">
        <ele>257</ele>
        <time>2020-06-28T07:27:38Z</time>
      </trkpt>
      <trkpt lat="48.84757" lon="7.30888">
        <ele>257.5</ele>
        <time>2020-06-28T07:27:41Z</time>
      </trkpt>
      <trkpt lat="48.84762" lon="7.30889">
        <ele>258.1</ele>
        <time>2020-06-28T07:27:43Z</time>
      </trkpt>
      <trkpt lat="48.84766" lon="7.30891">
        <ele>258.4</ele>
        <time>2020-06-28T07:27:45Z</time>
      </trkpt>
      <trkpt lat="48.84772" lon="7.30893">
        <ele>259.7</ele>
        <time>2020-06-28T07:27:48Z</time>
      </trkpt>
      <trkpt lat="48.84778" lon="7.30898">
        <ele>261.6</ele>
        <time>2020-06-28T07:27:51Z</time>
      </trkpt>
      <trkpt lat="48.84782" lon="7.30902">
        <ele>262.4</ele>
        <time>2020-06-28T07:27:53Z</time>
      </trkpt>
      <trkpt lat="48.84786" lon="7.30906">
        <ele>262.8</ele>
        <time>2020-06-28T07:27:55Z</time>
      </trkpt>
      <trkpt lat="48.84794" lon="7.30909">
        <ele>264.5</ele>
        <time>2020-06-28T07:27:58Z</time>
      </trkpt>
      <trkpt lat="48.848" lon="7.30907">
        <ele>265.4</ele>
        <time>2020-06-28T07:28:00Z</time>
      </trkpt>
      <trkpt lat="48.84807" lon="7.30905">
        <ele>265.8</ele>
        <time>2020-06-28T07:28:02Z</time>
      </trkpt>
      <trkpt lat="48.84813" lon="7.30905">
        <ele>266.4</ele>
        <time>2020-06-28T07:28:04Z</time>
      </trkpt>
      <trkpt lat="48.84819" lon="7.30905">
        <ele>266.3</ele>
        <time>2020-06-28T07:28:06Z</time>
      </trkpt>
      <trkpt lat="48.84824" lon="7.30905">
        <ele>266.9</ele>
        <time>2020-06-28T07:28:08Z</time>
      </trkpt>
      <trkpt lat="48.84829" lon="7.30905">
        <ele>267.6</ele>
        <time>2020-06-28T07:28:10Z</time>
      </trkpt>
      <trkpt lat="48.84834" lon="7.30906">
        <ele>267.8</ele>
        <time>2020-06-28T07:28:12Z</time>
      </trkpt>
      <trkpt lat="48.8484" lon="7.30908">
        <ele>268.1</ele>
        <time>2020-06-28T07:28:14Z</time>
      </trkpt>
      <trkpt lat="48.84847" lon="7.30911">
        <ele>267.7</ele>
        <time>2020-06-28T07:28:16Z</time>
      </trkpt>
      <trkpt lat="48.84853" lon="7.30913">
        <ele>267.5</ele>
        <time>2020-06-28T07:28:18Z</time>
      </trkpt>
      <trkpt lat="48.84858" lon="7.30915">
        <ele>267.7</ele>
        <time>2020-06-28T07:28:20Z</time>
      </trkpt>
      <trkpt lat="48.84864" lon="7.30917">
        <ele>267.9</ele>
        <time>2020-06-28T07:28:22Z</time>
      </trkpt>
      <trkpt lat="48.84869" lon="7.30918">
        <ele>267.9</ele>
        <time>2020-06-28T07:28:24Z</time>
      </trkpt>
      <trkpt lat="48.84874" lon="7.30919">
        <ele>268</ele>
        <time>2020-06-28T07:28:26Z</time>
      </trkpt>
      <trkpt lat="48.8488" lon="7.30921">
        <ele>268.5</ele>
        <time>2020-06-28T07:28:28Z</time>
      </trkpt>
      <trkpt lat="48.84885" lon="7.30922">
        <ele>269.2</ele>
        <time>2020-06-28T07:28:30Z</time>
      </trkpt>
      <trkpt lat="48.8489" lon="7.30925">
        <ele>269.4</ele>
        <time>2020-06-28T07:28:32Z</time>
      </trkpt>
      <trkpt lat="48.84895" lon="7.30927">
        <ele>269.8</ele>
        <time>2020-06-28T07:28:34Z</time>
      </trkpt>
      <trkpt lat="48.84899" lon="7.3093">
        <ele>270.1</ele>
        <time>2020-06-28T07:28:36Z</time>
      </trkpt>
      <trkpt lat="48.84903" lon="7.30933">
        <ele>270.6</ele>
        <time>2020-06-28T07:28:40Z</time>
      </trkpt>
      <trkpt lat="48.84907" lon="7.30939">
        <ele>271.8</ele>
        <time>2020-06-28T07:28:44Z</time>
      </trkpt>
      <trkpt lat="48.84911" lon="7.30943">
        <ele>273.2</ele>
        <time>2020-06-28T07:28:46Z</time>
      </trkpt>
      <trkpt lat="48.84916" lon="7.3095">
        <ele>274.5</ele>
        <time>2020-06-28T07:28:49Z</time>
      </trkpt>
      <trkpt lat="48.8492" lon="7.30955">
        <ele>275</ele>
        <time>2020-06-28T07:28:51Z</time>
      </trkpt>
      <trkpt lat="48.84924" lon="7.30963">
        <ele>275.8</ele>
        <time>2020-06-28T07:28:54Z</time>
      </trkpt>
      <trkpt lat="48.84927" lon="7.3097">
        <ele>276.3</ele>
        <time>2020-06-28T07:28:56Z</time>
      </trkpt>
      <trkpt lat="48.84931" lon="7.30977">
        <ele>275</ele>
        <time>2020-06-28T07:28:58Z</time>
      </trkpt>
      <trkpt lat="48.84935" lon="7.30985">
        <ele>272.3</ele>
        <time>2020-06-28T07:29:00Z</time>
      </trkpt>
      <trkpt lat="48.8494" lon="7.30993">
        <ele>269.9</ele>
        <time>2020-06-28T07:29:02Z</time>
      </trkpt>
      <trkpt lat="48.84944" lon="7.31">
        <ele>268</ele>
        <time>2020-06-28T07:29:04Z</time>
      </trkpt>
      <trkpt lat="48.84947" lon="7.31007">
        <ele>266.9</ele>
        <time>2020-06-28T07:29:06Z</time>
      </trkpt>
      <trkpt lat="48.8495" lon="7.31013">
        <ele>266.4</ele>
        <time>2020-06-28T07:29:08Z</time>
      </trkpt>
      <trkpt lat="48.84954" lon="7.3102">
        <ele>267.1</ele>
        <time>2020-06-28T07:29:11Z</time>
      </trkpt>
      <trkpt lat="48.84958" lon="7.31024">
        <ele>268.8</ele>
        <time>2020-06-28T07:29:13Z</time>
      </trkpt>
      <trkpt lat="48.84963" lon="7.31027">
        <ele>270.4</ele>
        <time>2020-06-28T07:29:15Z</time>
      </trkpt>
      <trkpt lat="48.84967" lon="7.3103">
        <ele>272.6</ele>
        <time>2020-06-28T07:29:17Z</time>
      </trkpt>
      <trkpt lat="48.84972" lon="7.31034">
        <ele>274.2</ele>
        <time>2020-06-28T07:29:19Z</time>
      </trkpt>
      <trkpt lat="48.84975" lon="7.31039">
        <ele>274.3</ele>
        <time>2020-06-28T07:29:21Z</time>
      </trkpt>
      <trkpt lat="48.84979" lon="7.31046">
        <ele>273.5</ele>
        <time>2020-06-28T07:29:23Z</time>
      </trkpt>
      <trkpt lat="48.84981" lon="7.31053">
        <ele>273.3</ele>
        <time>2020-06-28T07:29:25Z</time>
      </trkpt>
      <trkpt lat="48.84983" lon="7.3106">
        <ele>272.7</ele>
        <time>2020-06-28T07:29:27Z</time>
      </trkpt>
      <trkpt lat="48.84985" lon="7.31068">
        <ele>271.9</ele>
        <time>2020-06-28T07:29:29Z</time>
      </trkpt>
      <trkpt lat="48.8499" lon="7.31073">
        <ele>272.4</ele>
        <time>2020-06-28T07:29:31Z</time>
      </trkpt>
      <trkpt lat="48.84995" lon="7.31073">
        <ele>272.9</ele>
        <time>2020-06-28T07:29:33Z</time>
      </trkpt>
      <trkpt lat="48.85001" lon="7.31069">
        <ele>274.1</ele>
        <time>2020-06-28T07:29:36Z</time>
      </trkpt>
      <trkpt lat="48.85004" lon="7.31064">
        <ele>274.7</ele>
        <time>2020-06-28T07:29:38Z</time>
      </trkpt>
      <trkpt lat="48.85007" lon="7.31057">
        <ele>276</ele>
        <time>2020-06-28T07:29:41Z</time>
      </trkpt>
      <trkpt lat="48.8501" lon="7.31048">
        <ele>277</ele>
        <time>2020-06-28T07:29:45Z</time>
      </trkpt>
      <trkpt lat="48.85014" lon="7.3104">
        <ele>277.4</ele>
        <time>2020-06-28T07:29:48Z</time>
      </trkpt>
      <trkpt lat="48.85015" lon="7.31032">
        <ele>278</ele>
        <time>2020-06-28T07:29:50Z</time>
      </trkpt>
      <trkpt lat="48.85016" lon="7.31025">
        <ele>278.6</ele>
        <time>2020-06-28T07:29:52Z</time>
      </trkpt>
      <trkpt lat="48.85018" lon="7.31018">
        <ele>279.6</ele>
        <time>2020-06-28T07:29:54Z</time>
      </trkpt>
      <trkpt lat="48.85021" lon="7.31011">
        <ele>280.1</ele>
        <time>2020-06-28T07:29:56Z</time>
      </trkpt>
      <trkpt lat="48.85024" lon="7.31004">
        <ele>281.1</ele>
        <time>2020-06-28T07:29:58Z</time>
      </trkpt>
      <trkpt lat="48.85027" lon="7.30997">
        <ele>283.1</ele>
        <time>2020-06-28T07:30:01Z</time>
      </trkpt>
      <trkpt lat="48.85031" lon="7.30992">
        <ele>284</ele>
        <time>2020-06-28T07:30:06Z</time>
      </trkpt>
      <trkpt lat="48.85034" lon="7.30987">
        <ele>287.1</ele>
        <time>2020-06-28T07:30:16Z</time>
      </trkpt>
      <trkpt lat="48.85037" lon="7.30982">
        <ele>287.3</ele>
        <time>2020-06-28T07:30:19Z</time>
      </trkpt>
      <trkpt lat="48.85043" lon="7.30978">
        <ele>287.7</ele>
        <time>2020-06-28T07:30:22Z</time>
      </trkpt>
      <trkpt lat="48.85047" lon="7.30977">
        <ele>288.2</ele>
        <time>2020-06-28T07:30:24Z</time>
      </trkpt>
      <trkpt lat="48.85052" lon="7.30975">
        <ele>289</ele>
        <time>2020-06-28T07:30:26Z</time>
      </trkpt>
      <trkpt lat="48.85058" lon="7.30974">
        <ele>289.3</ele>
        <time>2020-06-28T07:30:28Z</time>
      </trkpt>
      <trkpt lat="48.85062" lon="7.30972">
        <ele>289.7</ele>
        <time>2020-06-28T07:30:30Z</time>
      </trkpt>
      <trkpt lat="48.85068" lon="7.3097">
        <ele>290.2</ele>
        <time>2020-06-28T07:30:32Z</time>
      </trkpt>
      <trkpt lat="48.85073" lon="7.30965">
        <ele>290.6</ele>
        <time>2020-06-28T07:30:34Z</time>
      </trkpt>
      <trkpt lat="48.85079" lon="7.30961">
        <ele>291.1</ele>
        <time>2020-06-28T07:30:36Z</time>
      </trkpt>
      <trkpt lat="48.85084" lon="7.30957">
        <ele>291.7</ele>
        <time>2020-06-28T07:30:38Z</time>
      </trkpt>
      <trkpt lat="48.85089" lon="7.30954">
        <ele>292.6</ele>
        <time>2020-06-28T07:30:40Z</time>
      </trkpt>
      <trkpt lat="48.85087" lon="7.30961">
        <ele>285.4</ele>
        <time>2020-06-28T07:31:00Z</time>
      </trkpt>
      <trkpt lat="48.85095" lon="7.3096">
        <ele>283.4</ele>
        <time>2020-06-28T07:31:12Z</time>
      </trkpt>
      <trkpt lat="48.85103" lon="7.30958">
        <ele>282.9</ele>
        <time>2020-06-28T07:31:14Z</time>
      </trkpt>
      <trkpt lat="48.8511" lon="7.30957">
        <ele>282.8</ele>
        <time>2020-06-28T07:31:16Z</time>
      </trkpt>
      <trkpt lat="48.85119" lon="7.30957">
        <ele>285.5</ele>
        <time>2020-06-28T07:31:18Z</time>
      </trkpt>
      <trkpt lat="48.85129" lon="7.3096">
        <ele>286.1</ele>
        <time>2020-06-28T07:31:21Z</time>
      </trkpt>
      <trkpt lat="48.85135" lon="7.30962">
        <ele>286.2</ele>
        <time>2020-06-28T07:31:23Z</time>
      </trkpt>
      <trkpt lat="48.8514" lon="7.30963">
        <ele>286.2</ele>
        <time>2020-06-28T07:31:25Z</time>
      </trkpt>
      <trkpt lat="48.85145" lon="7.30964">
        <ele>286.5</ele>
        <time>2020-06-28T07:31:27Z</time>
      </trkpt>
      <trkpt lat="48.85153" lon="7.30968">
        <ele>286.1</ele>
        <time>2020-06-28T07:31:30Z</time>
      </trkpt>
      <trkpt lat="48.85159" lon="7.30973">
        <ele>286.1</ele>
        <time>2020-06-28T07:31:32Z</time>
      </trkpt>
      <trkpt lat="48.85165" lon="7.30976">
        <ele>286.7</ele>
        <time>2020-06-28T07:31:34Z</time>
      </trkpt>
      <trkpt lat="48.85171" lon="7.3098">
        <ele>286.9</ele>
        <time>2020-06-28T07:31:36Z</time>
      </trkpt>
      <trkpt lat="48.85176" lon="7.30984">
        <ele>287.7</ele>
        <time>2020-06-28T07:31:38Z</time>
      </trkpt>
      <trkpt lat="48.85182" lon="7.30991">
        <ele>286.7</ele>
        <time>2020-06-28T07:31:40Z</time>
      </trkpt>
      <trkpt lat="48.85186" lon="7.30999">
        <ele>286.6</ele>
        <time>2020-06-28T07:31:42Z</time>
      </trkpt>
      <trkpt lat="48.8519" lon="7.31007">
        <ele>286</ele>
        <time>2020-06-28T07:31:44Z</time>
      </trkpt>
      <trkpt lat="48.85192" lon="7.31014">
        <ele>285.9</ele>
        <time>2020-06-28T07:31:46Z</time>
      </trkpt>
      <trkpt lat="48.85194" lon="7.3102">
        <ele>286.3</ele>
        <time>2020-06-28T07:31:48Z</time>
      </trkpt>
      <trkpt lat="48.85197" lon="7.31027">
        <ele>286.3</ele>
        <time>2020-06-28T07:31:50Z</time>
      </trkpt>
      <trkpt lat="48.85199" lon="7.31033">
        <ele>286.3</ele>
        <time>2020-06-28T07:31:52Z</time>
      </trkpt>
      <trkpt lat="48.85204" lon="7.31038">
        <ele>286.7</ele>
        <time>2020-06-28T07:31:54Z</time>
      </trkpt>
      <trkpt lat="48.85208" lon="7.31041">
        <ele>287.4</ele>
        <time>2020-06-28T07:31:56Z</time>
      </trkpt>
      <trkpt lat="48.85211" lon="7.31047">
        <ele>287.9</ele>
        <time>2020-06-28T07:31:58Z</time>
      </trkpt>
      <trkpt lat="48.85212" lon="7.31054">
        <ele>288</ele>
        <time>2020-06-28T07:32:00Z</time>
      </trkpt>
      <trkpt lat="48.85213" lon="7.31061">
        <ele>287.2</ele>
        <time>2020-06-28T07:32:02Z</time>
      </trkpt>
      <trkpt lat="48.85216" lon="7.31068">
        <ele>286.8</ele>
        <time>2020-06-28T07:32:04Z</time>
      </trkpt>
      <trkpt lat="48.85219" lon="7.31078">
        <ele>286.7</ele>
        <time>2020-06-28T07:32:07Z</time>
      </trkpt>
      <trkpt lat="48.85222" lon="7.31084">
        <ele>287.5</ele>
        <time>2020-06-28T07:32:09Z</time>
      </trkpt>
      <trkpt lat="48.85225" lon="7.3109">
        <ele>288</ele>
        <time>2020-06-28T07:32:11Z</time>
      </trkpt>
      <trkpt lat="48.85228" lon="7.31098">
        <ele>289</ele>
        <time>2020-06-28T07:32:13Z</time>
      </trkpt>
      <trkpt lat="48.8523" lon="7.31107">
        <ele>289.5</ele>
        <time>2020-06-28T07:32:15Z</time>
      </trkpt>
      <trkpt lat="48.85231" lon="7.31116">
        <ele>290.2</ele>
        <time>2020-06-28T07:32:17Z</time>
      </trkpt>
      <trkpt lat="48.85232" lon="7.31125">
        <ele>290.8</ele>
        <time>2020-06-28T07:32:19Z</time>
      </trkpt>
      <trkpt lat="48.85233" lon="7.31133">
        <ele>292.3</ele>
        <time>2020-06-28T07:32:21Z</time>
      </trkpt>
      <trkpt lat="48.85235" lon="7.3114">
        <ele>293.1</ele>
        <time>2020-06-28T07:32:23Z</time>
      </trkpt>
      <trkpt lat="48.85237" lon="7.31147">
        <ele>294.7</ele>
        <time>2020-06-28T07:32:25Z</time>
      </trkpt>
      <trkpt lat="48.85237" lon="7.31156">
        <ele>296</ele>
        <time>2020-06-28T07:32:27Z</time>
      </trkpt>
      <trkpt lat="48.85238" lon="7.31166">
        <ele>296.8</ele>
        <time>2020-06-28T07:32:29Z</time>
      </trkpt>
      <trkpt lat="48.85237" lon="7.31175">
        <ele>298.1</ele>
        <time>2020-06-28T07:32:31Z</time>
      </trkpt>
      <trkpt lat="48.85237" lon="7.31183">
        <ele>299.9</ele>
        <time>2020-06-28T07:32:34Z</time>
      </trkpt>
      <trkpt lat="48.85241" lon="7.31187">
        <ele>301</ele>
        <time>2020-06-28T07:32:37Z</time>
      </trkpt>
      <trkpt lat="48.85245" lon="7.31189">
        <ele>302.4</ele>
        <time>2020-06-28T07:32:39Z</time>
      </trkpt>
      <trkpt lat="48.85252" lon="7.31192">
        <ele>303.2</ele>
        <time>2020-06-28T07:32:41Z</time>
      </trkpt>
      <trkpt lat="48.85256" lon="7.31195">
        <ele>304.3</ele>
        <time>2020-06-28T07:32:43Z</time>
      </trkpt>
      <trkpt lat="48.85261" lon="7.31197">
        <ele>305.5</ele>
        <time>2020-06-28T07:32:46Z</time>
      </trkpt>
      <trkpt lat="48.85266" lon="7.31196">
        <ele>305.4</ele>
        <time>2020-06-28T07:32:49Z</time>
      </trkpt>
      <trkpt lat="48.85272" lon="7.31194">
        <ele>305.2</ele>
        <time>2020-06-28T07:32:52Z</time>
      </trkpt>
      <trkpt lat="48.85276" lon="7.31191">
        <ele>304.8</ele>
        <time>2020-06-28T07:32:54Z</time>
      </trkpt>
      <trkpt lat="48.85281" lon="7.31186">
        <ele>305.3</ele>
        <time>2020-06-28T07:32:57Z</time>
      </trkpt>
      <trkpt lat="48.85286" lon="7.31183">
        <ele>305.5</ele>
        <time>2020-06-28T07:33:00Z</time>
      </trkpt>
      <trkpt lat="48.85291" lon="7.31178">
        <ele>305.1</ele>
        <time>2020-06-28T07:33:03Z</time>
      </trkpt>
      <trkpt lat="48.85297" lon="7.31175">
        <ele>304.7</ele>
        <time>2020-06-28T07:33:06Z</time>
      </trkpt>
      <trkpt lat="48.85303" lon="7.31173">
        <ele>303.9</ele>
        <time>2020-06-28T07:33:09Z</time>
      </trkpt>
      <trkpt lat="48.85307" lon="7.31172">
        <ele>303.4</ele>
        <time>2020-06-28T07:33:11Z</time>
      </trkpt>
      <trkpt lat="48.85313" lon="7.31169">
        <ele>303.8</ele>
        <time>2020-06-28T07:33:14Z</time>
      </trkpt>
      <trkpt lat="48.85318" lon="7.31164">
        <ele>304.3</ele>
        <time>2020-06-28T07:33:16Z</time>
      </trkpt>
      <trkpt lat="48.85322" lon="7.31158">
        <ele>303.9</ele>
        <time>2020-06-28T07:33:18Z</time>
      </trkpt>
      <trkpt lat="48.85326" lon="7.31153">
        <ele>304.9</ele>
        <time>2020-06-28T07:33:20Z</time>
      </trkpt>
      <trkpt lat="48.85331" lon="7.31148">
        <ele>305.3</ele>
        <time>2020-06-28T07:33:22Z</time>
      </trkpt>
      <trkpt lat="48.85336" lon="7.31146">
        <ele>305.5</ele>
        <time>2020-06-28T07:33:24Z</time>
      </trkpt>
      <trkpt lat="48.85341" lon="7.31143">
        <ele>306.2</ele>
        <time>2020-06-28T07:33:27Z</time>
      </trkpt>
      <trkpt lat="48.85345" lon="7.3114">
        <ele>307.6</ele>
        <time>2020-06-28T07:33:30Z</time>
      </trkpt>
      <trkpt lat="48.85351" lon="7.31138">
        <ele>308.8</ele>
        <time>2020-06-28T07:33:33Z</time>
      </trkpt>
      <trkpt lat="48.85356" lon="7.31137">
        <ele>310.4</ele>
        <time>2020-06-28T07:33:37Z</time>
      </trkpt>
      <trkpt lat="48.85362" lon="7.31142">
        <ele>311.3</ele>
        <time>2020-06-28T07:33:40Z</time>
      </trkpt>
      <trkpt lat="48.85368" lon="7.31143">
        <ele>311.2</ele>
        <time>2020-06-28T07:33:43Z</time>
      </trkpt>
      <trkpt lat="48.85374" lon="7.31146">
        <ele>310</ele>
        <time>2020-06-28T07:33:46Z</time>
      </trkpt>
      <trkpt lat="48.85378" lon="7.3115">
        <ele>309.2</ele>
        <time>2020-06-28T07:33:48Z</time>
      </trkpt>
      <trkpt lat="48.85382" lon="7.31156">
        <ele>308.3</ele>
        <time>2020-06-28T07:33:50Z</time>
      </trkpt>
      <trkpt lat="48.85385" lon="7.31162">
        <ele>307</ele>
        <time>2020-06-28T07:33:52Z</time>
      </trkpt>
      <trkpt lat="48.8539" lon="7.31168">
        <ele>305.9</ele>
        <time>2020-06-28T07:33:54Z</time>
      </trkpt>
      <trkpt lat="48.85394" lon="7.31173">
        <ele>306.2</ele>
        <time>2020-06-28T07:33:56Z</time>
      </trkpt>
      <trkpt lat="48.85398" lon="7.31179">
        <ele>306.7</ele>
        <time>2020-06-28T07:33:58Z</time>
      </trkpt>
      <trkpt lat="48.85401" lon="7.31186">
        <ele>307.6</ele>
        <time>2020-06-28T07:34:01Z</time>
      </trkpt>
      <trkpt lat="48.85404" lon="7.31193">
        <ele>308.2</ele>
        <time>2020-06-28T07:34:03Z</time>
      </trkpt>
      <trkpt lat="48.85406" lon="7.312">
        <ele>308.3</ele>
        <time>2020-06-28T07:34:05Z</time>
      </trkpt>
      <trkpt lat="48.85406" lon="7.31207">
        <ele>308.6</ele>
        <time>2020-06-28T07:34:07Z</time>
      </trkpt>
      <trkpt lat="48.85407" lon="7.31213">
        <ele>308.6</ele>
        <time>2020-06-28T07:34:09Z</time>
      </trkpt>
      <trkpt lat="48.85409" lon="7.31223">
        <ele>309.3</ele>
        <time>2020-06-28T07:34:12Z</time>
      </trkpt>
      <trkpt lat="48.85411" lon="7.31232">
        <ele>309.3</ele>
        <time>2020-06-28T07:34:14Z</time>
      </trkpt>
      <trkpt lat="48.85413" lon="7.31239">
        <ele>308.9</ele>
        <time>2020-06-28T07:34:16Z</time>
      </trkpt>
      <trkpt lat="48.85414" lon="7.31246">
        <ele>308.2</ele>
        <time>2020-06-28T07:34:18Z</time>
      </trkpt>
      <trkpt lat="48.85417" lon="7.31255">
        <ele>308.5</ele>
        <time>2020-06-28T07:34:21Z</time>
      </trkpt>
      <trkpt lat="48.8542" lon="7.31261">
        <ele>308.1</ele>
        <time>2020-06-28T07:34:23Z</time>
      </trkpt>
      <trkpt lat="48.85421" lon="7.3127">
        <ele>308.3</ele>
        <time>2020-06-28T07:34:26Z</time>
      </trkpt>
      <trkpt lat="48.85421" lon="7.3128">
        <ele>308.8</ele>
        <time>2020-06-28T07:34:29Z</time>
      </trkpt>
      <trkpt lat="48.85422" lon="7.31287">
        <ele>309.3</ele>
        <time>2020-06-28T07:34:31Z</time>
      </trkpt>
      <trkpt lat="48.85424" lon="7.31296">
        <ele>309.1</ele>
        <time>2020-06-28T07:34:34Z</time>
      </trkpt>
      <trkpt lat="48.85426" lon="7.31305">
        <ele>309</ele>
        <time>2020-06-28T07:34:37Z</time>
      </trkpt>
      <trkpt lat="48.85427" lon="7.31312">
        <ele>308.4</ele>
        <time>2020-06-28T07:34:39Z</time>
      </trkpt>
      <trkpt lat="48.85428" lon="7.31321">
        <ele>308.4</ele>
        <time>2020-06-28T07:34:41Z</time>
      </trkpt>
      <trkpt lat="48.85429" lon="7.31328">
        <ele>309</ele>
        <time>2020-06-28T07:34:43Z</time>
      </trkpt>
      <trkpt lat="48.8543" lon="7.31335">
        <ele>309.3</ele>
        <time>2020-06-28T07:34:45Z</time>
      </trkpt>
      <trkpt lat="48.85431" lon="7.31344">
        <ele>310.6</ele>
        <time>2020-06-28T07:34:48Z</time>
      </trkpt>
      <trkpt lat="48.85432" lon="7.31353">
        <ele>311.8</ele>
        <time>2020-06-28T07:34:51Z</time>
      </trkpt>
      <trkpt lat="48.85432" lon="7.3136">
        <ele>312.2</ele>
        <time>2020-06-28T07:34:53Z</time>
      </trkpt>
      <trkpt lat="48.85432" lon="7.31367">
        <ele>312.8</ele>
        <time>2020-06-28T07:34:55Z</time>
      </trkpt>
      <trkpt lat="48.85432" lon="7.31375">
        <ele>313.7</ele>
        <time>2020-06-28T07:34:57Z</time>
      </trkpt>
      <trkpt lat="48.85431" lon="7.31385">
        <ele>315.2</ele>
        <time>2020-06-28T07:35:00Z</time>
      </trkpt>
      <trkpt lat="48.8543" lon="7.31394">
        <ele>316.8</ele>
        <time>2020-06-28T07:35:03Z</time>
      </trkpt>
      <trkpt lat="48.85428" lon="7.31401">
        <ele>317.8</ele>
        <time>2020-06-28T07:35:05Z</time>
      </trkpt>
      <trkpt lat="48.85426" lon="7.31409">
        <ele>319.3</ele>
        <time>2020-06-28T07:35:07Z</time>
      </trkpt>
      <trkpt lat="48.85424" lon="7.31415">
        <ele>319.2</ele>
        <time>2020-06-28T07:35:09Z</time>
      </trkpt>
      <trkpt lat="48.85422" lon="7.31424">
        <ele>320</ele>
        <time>2020-06-28T07:35:12Z</time>
      </trkpt>
      <trkpt lat="48.85421" lon="7.31431">
        <ele>320.7</ele>
        <time>2020-06-28T07:35:14Z</time>
      </trkpt>
      <trkpt lat="48.85421" lon="7.31438">
        <ele>321.2</ele>
        <time>2020-06-28T07:35:16Z</time>
      </trkpt>
      <trkpt lat="48.85419" lon="7.31447">
        <ele>320.5</ele>
        <time>2020-06-28T07:35:19Z</time>
      </trkpt>
      <trkpt lat="48.85417" lon="7.31456">
        <ele>320.5</ele>
        <time>2020-06-28T07:35:22Z</time>
      </trkpt>
      <trkpt lat="48.85416" lon="7.31465">
        <ele>320.4</ele>
        <time>2020-06-28T07:35:25Z</time>
      </trkpt>
      <trkpt lat="48.85419" lon="7.31474">
        <ele>319.4</ele>
        <time>2020-06-28T07:35:29Z</time>
      </trkpt>
      <trkpt lat="48.8542" lon="7.31481">
        <ele>319.5</ele>
        <time>2020-06-28T07:35:32Z</time>
      </trkpt>
      <trkpt lat="48.8542" lon="7.31489">
        <ele>320.1</ele>
        <time>2020-06-28T07:35:35Z</time>
      </trkpt>
      <trkpt lat="48.85418" lon="7.31497">
        <ele>320.3</ele>
        <time>2020-06-28T07:35:38Z</time>
      </trkpt>
      <trkpt lat="48.85417" lon="7.31507">
        <ele>321.7</ele>
        <time>2020-06-28T07:35:41Z</time>
      </trkpt>
      <trkpt lat="48.85416" lon="7.31516">
        <ele>322.3</ele>
        <time>2020-06-28T07:35:43Z</time>
      </trkpt>
      <trkpt lat="48.85415" lon="7.31525">
        <ele>322.6</ele>
        <time>2020-06-28T07:35:45Z</time>
      </trkpt>
      <trkpt lat="48.85414" lon="7.31533">
        <ele>323.1</ele>
        <time>2020-06-28T07:35:47Z</time>
      </trkpt>
      <trkpt lat="48.85412" lon="7.31544">
        <ele>324.3</ele>
        <time>2020-06-28T07:35:49Z</time>
      </trkpt>
      <trkpt lat="48.85411" lon="7.31554">
        <ele>324.7</ele>
        <time>2020-06-28T07:35:51Z</time>
      </trkpt>
      <trkpt lat="48.85411" lon="7.31564">
        <ele>325.5</ele>
        <time>2020-06-28T07:35:53Z</time>
      </trkpt>
      <trkpt lat="48.85413" lon="7.31572">
        <ele>326.2</ele>
        <time>2020-06-28T07:35:55Z</time>
      </trkpt>
      <trkpt lat="48.85416" lon="7.3158">
        <ele>326.5</ele>
        <time>2020-06-28T07:35:57Z</time>
      </trkpt>
      <trkpt lat="48.85419" lon="7.31586">
        <ele>327.5</ele>
        <time>2020-06-28T07:35:59Z</time>
      </trkpt>
      <trkpt lat="48.85421" lon="7.31593">
        <ele>328.9</ele>
        <time>2020-06-28T07:36:01Z</time>
      </trkpt>
      <trkpt lat="48.85424" lon="7.31599">
        <ele>328.5</ele>
        <time>2020-06-28T07:36:03Z</time>
      </trkpt>
      <trkpt lat="48.85425" lon="7.31609">
        <ele>327.9</ele>
        <time>2020-06-28T07:36:06Z</time>
      </trkpt>
      <trkpt lat="48.85424" lon="7.31616">
        <ele>328</ele>
        <time>2020-06-28T07:36:08Z</time>
      </trkpt>
      <trkpt lat="48.85425" lon="7.31625">
        <ele>329.1</ele>
        <time>2020-06-28T07:36:11Z</time>
      </trkpt>
      <trkpt lat="48.8543" lon="7.31632">
        <ele>330.1</ele>
        <time>2020-06-28T07:36:14Z</time>
      </trkpt>
      <trkpt lat="48.85432" lon="7.3164">
        <ele>331.1</ele>
        <time>2020-06-28T07:36:18Z</time>
      </trkpt>
      <trkpt lat="48.85432" lon="7.31647">
        <ele>332</ele>
        <time>2020-06-28T07:36:22Z</time>
      </trkpt>
      <trkpt lat="48.85429" lon="7.31654">
        <ele>333.2</ele>
        <time>2020-06-28T07:36:26Z</time>
      </trkpt>
      <trkpt lat="48.8543" lon="7.31664">
        <ele>334</ele>
        <time>2020-06-28T07:36:29Z</time>
      </trkpt>
      <trkpt lat="48.85431" lon="7.31672">
        <ele>334.6</ele>
        <time>2020-06-28T07:36:32Z</time>
      </trkpt>
      <trkpt lat="48.85433" lon="7.31681">
        <ele>335.8</ele>
        <time>2020-06-28T07:36:35Z</time>
      </trkpt>
      <trkpt lat="48.85435" lon="7.31691">
        <ele>336.4</ele>
        <time>2020-06-28T07:36:38Z</time>
      </trkpt>
      <trkpt lat="48.85437" lon="7.317">
        <ele>336.5</ele>
        <time>2020-06-28T07:36:41Z</time>
      </trkpt>
      <trkpt lat="48.85438" lon="7.31707">
        <ele>337.5</ele>
        <time>2020-06-28T07:36:44Z</time>
      </trkpt>
      <trkpt lat="48.8544" lon="7.31716">
        <ele>338</ele>
        <time>2020-06-28T07:36:47Z</time>
      </trkpt>
      <trkpt lat="48.85441" lon="7.31725">
        <ele>337.8</ele>
        <time>2020-06-28T07:36:50Z</time>
      </trkpt>
      <trkpt lat="48.85442" lon="7.31733">
        <ele>338.2</ele>
        <time>2020-06-28T07:36:53Z</time>
      </trkpt>
      <trkpt lat="48.85444" lon="7.31742">
        <ele>339.2</ele>
        <time>2020-06-28T07:36:57Z</time>
      </trkpt>
      <trkpt lat="48.85447" lon="7.31747">
        <ele>340.1</ele>
        <time>2020-06-28T07:37:00Z</time>
      </trkpt>
      <trkpt lat="48.8545" lon="7.31752">
        <ele>339.9</ele>
        <time>2020-06-28T07:37:03Z</time>
      </trkpt>
      <trkpt lat="48.85451" lon="7.31759">
        <ele>339.9</ele>
        <time>2020-06-28T07:37:06Z</time>
      </trkpt>
      <trkpt lat="48.85454" lon="7.31767">
        <ele>340.8</ele>
        <time>2020-06-28T07:37:09Z</time>
      </trkpt>
      <trkpt lat="48.85462" lon="7.31777">
        <ele>341</ele>
        <time>2020-06-28T07:37:11Z</time>
      </trkpt>
      <trkpt lat="48.8547" lon="7.31787">
        <ele>340.9</ele>
        <time>2020-06-28T07:37:13Z</time>
      </trkpt>
      <trkpt lat="48.85475" lon="7.31795">
        <ele>340.8</ele>
        <time>2020-06-28T07:37:15Z</time>
      </trkpt>
      <trkpt lat="48.85478" lon="7.31802">
        <ele>340.4</ele>
        <time>2020-06-28T07:37:17Z</time>
      </trkpt>
      <trkpt lat="48.85481" lon="7.31806">
        <ele>340.6</ele>
        <time>2020-06-28T07:37:19Z</time>
      </trkpt>
      <trkpt lat="48.85486" lon="7.31809">
        <ele>340.9</ele>
        <time>2020-06-28T07:37:21Z</time>
      </trkpt>
      <trkpt lat="48.85491" lon="7.31813">
        <ele>340.9</ele>
        <time>2020-06-28T07:37:23Z</time>
      </trkpt>
      <trkpt lat="48.85497" lon="7.31817">
        <ele>341</ele>
        <time>2020-06-28T07:37:26Z</time>
      </trkpt>
      <trkpt lat="48.855" lon="7.31824">
        <ele>341.5</ele>
        <time>2020-06-28T07:37:30Z</time>
      </trkpt>
      <trkpt lat="48.85505" lon="7.31829">
        <ele>341.8</ele>
        <time>2020-06-28T07:37:33Z</time>
      </trkpt>
      <trkpt lat="48.8551" lon="7.31832">
        <ele>342.7</ele>
        <time>2020-06-28T07:37:36Z</time>
      </trkpt>
      <trkpt lat="48.85515" lon="7.31834">
        <ele>342.6</ele>
        <time>2020-06-28T07:37:39Z</time>
      </trkpt>
      <trkpt lat="48.8552" lon="7.31836">
        <ele>347.9</ele>
        <time>2020-06-28T07:37:56Z</time>
      </trkpt>
      <trkpt lat="48.85526" lon="7.31841">
        <ele>347.3</ele>
        <time>2020-06-28T07:37:59Z</time>
      </trkpt>
      <trkpt lat="48.8553" lon="7.31846">
        <ele>346.6</ele>
        <time>2020-06-28T07:38:01Z</time>
      </trkpt>
      <trkpt lat="48.85535" lon="7.3185">
        <ele>346.4</ele>
        <time>2020-06-28T07:38:03Z</time>
      </trkpt>
      <trkpt lat="48.8554" lon="7.31854">
        <ele>346.2</ele>
        <time>2020-06-28T07:38:05Z</time>
      </trkpt>
      <trkpt lat="48.85546" lon="7.31857">
        <ele>346.1</ele>
        <time>2020-06-28T07:38:07Z</time>
      </trkpt>
      <trkpt lat="48.85551" lon="7.31859">
        <ele>345.8</ele>
        <time>2020-06-28T07:38:09Z</time>
      </trkpt>
      <trkpt lat="48.85557" lon="7.31861">
        <ele>345.7</ele>
        <time>2020-06-28T07:38:11Z</time>
      </trkpt>
      <trkpt lat="48.85561" lon="7.31863">
        <ele>345.7</ele>
        <time>2020-06-28T07:38:13Z</time>
      </trkpt>
      <trkpt lat="48.85567" lon="7.31863">
        <ele>345.2</ele>
        <time>2020-06-28T07:38:15Z</time>
      </trkpt>
      <trkpt lat="48.85572" lon="7.31863">
        <ele>344.9</ele>
        <time>2020-06-28T07:38:17Z</time>
      </trkpt>
      <trkpt lat="48.85577" lon="7.31863">
        <ele>344.7</ele>
        <time>2020-06-28T07:38:19Z</time>
      </trkpt>
      <trkpt lat="48.85583" lon="7.31863">
        <ele>345.1</ele>
        <time>2020-06-28T07:38:21Z</time>
      </trkpt>
      <trkpt lat="48.85588" lon="7.31861">
        <ele>345.5</ele>
        <time>2020-06-28T07:38:23Z</time>
      </trkpt>
      <trkpt lat="48.85593" lon="7.31859">
        <ele>346.3</ele>
        <time>2020-06-28T07:38:25Z</time>
      </trkpt>
      <trkpt lat="48.85599" lon="7.31857">
        <ele>346.7</ele>
        <time>2020-06-28T07:38:28Z</time>
      </trkpt>
      <trkpt lat="48.85605" lon="7.31854">
        <ele>346.6</ele>
        <time>2020-06-28T07:38:31Z</time>
      </trkpt>
      <trkpt lat="48.85611" lon="7.31853">
        <ele>346.9</ele>
        <time>2020-06-28T07:38:34Z</time>
      </trkpt>
      <trkpt lat="48.85617" lon="7.31851">
        <ele>347.6</ele>
        <time>2020-06-28T07:38:37Z</time>
      </trkpt>
      <trkpt lat="48.85621" lon="7.31848">
        <ele>348.1</ele>
        <time>2020-06-28T07:38:39Z</time>
      </trkpt>
      <trkpt lat="48.85627" lon="7.31847">
        <ele>348.7</ele>
        <time>2020-06-28T07:38:41Z</time>
      </trkpt>
      <trkpt lat="48.85632" lon="7.31843">
        <ele>350.1</ele>
        <time>2020-06-28T07:38:44Z</time>
      </trkpt>
      <trkpt lat="48.85638" lon="7.31839">
        <ele>351.3</ele>
        <time>2020-06-28T07:38:47Z</time>
      </trkpt>
      <trkpt lat="48.85643" lon="7.31833">
        <ele>352.9</ele>
        <time>2020-06-28T07:38:50Z</time>
      </trkpt>
      <trkpt lat="48.85647" lon="7.31825">
        <ele>354.5</ele>
        <time>2020-06-28T07:38:53Z</time>
      </trkpt>
      <trkpt lat="48.85652" lon="7.31819">
        <ele>355</ele>
        <time>2020-06-28T07:38:56Z</time>
      </trkpt>
      <trkpt lat="48.85657" lon="7.31818">
        <ele>356.3</ele>
        <time>2020-06-28T07:38:59Z</time>
      </trkpt>
      <trkpt lat="48.85663" lon="7.31821">
        <ele>356.5</ele>
        <time>2020-06-28T07:39:03Z</time>
      </trkpt>
      <trkpt lat="48.85668" lon="7.31823">
        <ele>356.1</ele>
        <time>2020-06-28T07:39:07Z</time>
      </trkpt>
      <trkpt lat="48.85673" lon="7.3182">
        <ele>355.3</ele>
        <time>2020-06-28T07:39:11Z</time>
      </trkpt>
      <trkpt lat="48.85674" lon="7.31811">
        <ele>354.8</ele>
        <time>2020-06-28T07:39:14Z</time>
      </trkpt>
      <trkpt lat="48.85672" lon="7.31805">
        <ele>354.6</ele>
        <time>2020-06-28T07:39:16Z</time>
      </trkpt>
      <trkpt lat="48.8567" lon="7.31798">
        <ele>354.5</ele>
        <time>2020-06-28T07:39:18Z</time>
      </trkpt>
      <trkpt lat="48.85667" lon="7.31791">
        <ele>354.4</ele>
        <time>2020-06-28T07:39:20Z</time>
      </trkpt>
      <trkpt lat="48.85663" lon="7.31783">
        <ele>354.1</ele>
        <time>2020-06-28T07:39:22Z</time>
      </trkpt>
      <trkpt lat="48.85661" lon="7.31775">
        <ele>353.9</ele>
        <time>2020-06-28T07:39:24Z</time>
      </trkpt>
      <trkpt lat="48.85661" lon="7.31767">
        <ele>353.7</ele>
        <time>2020-06-28T07:39:26Z</time>
      </trkpt>
      <trkpt lat="48.85661" lon="7.31759">
        <ele>353.5</ele>
        <time>2020-06-28T07:39:28Z</time>
      </trkpt>
      <trkpt lat="48.85662" lon="7.31751">
        <ele>353.5</ele>
        <time>2020-06-28T07:39:30Z</time>
      </trkpt>
      <trkpt lat="48.85663" lon="7.31743">
        <ele>353.1</ele>
        <time>2020-06-28T07:39:32Z</time>
      </trkpt>
      <trkpt lat="48.85665" lon="7.31735">
        <ele>352.9</ele>
        <time>2020-06-28T07:39:34Z</time>
      </trkpt>
      <trkpt lat="48.85666" lon="7.31726">
        <ele>352.6</ele>
        <time>2020-06-28T07:39:36Z</time>
      </trkpt>
      <trkpt lat="48.85668" lon="7.31717">
        <ele>352.7</ele>
        <time>2020-06-28T07:39:38Z</time>
      </trkpt>
      <trkpt lat="48.85672" lon="7.31708">
        <ele>352.3</ele>
        <time>2020-06-28T07:39:40Z</time>
      </trkpt>
      <trkpt lat="48.85674" lon="7.31699">
        <ele>352</ele>
        <time>2020-06-28T07:39:42Z</time>
      </trkpt>
      <trkpt lat="48.85676" lon="7.31689">
        <ele>351.7</ele>
        <time>2020-06-28T07:39:44Z</time>
      </trkpt>
      <trkpt lat="48.85678" lon="7.31681">
        <ele>351.5</ele>
        <time>2020-06-28T07:39:46Z</time>
      </trkpt>
      <trkpt lat="48.85679" lon="7.31674">
        <ele>351.4</ele>
        <time>2020-06-28T07:39:48Z</time>
      </trkpt>
      <trkpt lat="48.85681" lon="7.31666">
        <ele>351.2</ele>
        <time>2020-06-28T07:39:50Z</time>
      </trkpt>
      <trkpt lat="48.85683" lon="7.31655">
        <ele>350.9</ele>
        <time>2020-06-28T07:39:52Z</time>
      </trkpt>
      <trkpt lat="48.85683" lon="7.31643">
        <ele>350.6</ele>
        <time>2020-06-28T07:39:54Z</time>
      </trkpt>
      <trkpt lat="48.85684" lon="7.31631">
        <ele>350.2</ele>
        <time>2020-06-28T07:39:56Z</time>
      </trkpt>
      <trkpt lat="48.85686" lon="7.3162">
        <ele>349.9</ele>
        <time>2020-06-28T07:39:58Z</time>
      </trkpt>
      <trkpt lat="48.85688" lon="7.31609">
        <ele>349.4</ele>
        <time>2020-06-28T07:40:00Z</time>
      </trkpt>
      <trkpt lat="48.85689" lon="7.31599">
        <ele>348.8</ele>
        <time>2020-06-28T07:40:02Z</time>
      </trkpt>
      <trkpt lat="48.85691" lon="7.31588">
        <ele>348.4</ele>
        <time>2020-06-28T07:40:04Z</time>
      </trkpt>
      <trkpt lat="48.85692" lon="7.31575">
        <ele>348.2</ele>
        <time>2020-06-28T07:40:06Z</time>
      </trkpt>
      <trkpt lat="48.85691" lon="7.31563">
        <ele>347.6</ele>
        <time>2020-06-28T07:40:08Z</time>
      </trkpt>
      <trkpt lat="48.85689" lon="7.31555">
        <ele>347</ele>
        <time>2020-06-28T07:40:10Z</time>
      </trkpt>
      <trkpt lat="48.85686" lon="7.31543">
        <ele>346.6</ele>
        <time>2020-06-28T07:40:13Z</time>
      </trkpt>
      <trkpt lat="48.85685" lon="7.31535">
        <ele>345.9</ele>
        <time>2020-06-28T07:40:15Z</time>
      </trkpt>
      <trkpt lat="48.85683" lon="7.31527">
        <ele>345.8</ele>
        <time>2020-06-28T07:40:18Z</time>
      </trkpt>
      <trkpt lat="48.85679" lon="7.31534">
        <ele>341.8</ele>
        <time>2020-06-28T07:45:13Z</time>
      </trkpt>
      <trkpt lat="48.85674" lon="7.31535">
        <ele>342.8</ele>
        <time>2020-06-28T07:45:17Z</time>
      </trkpt>
      <trkpt lat="48.8567" lon="7.31542">
        <ele>343.6</ele>
        <time>2020-06-28T07:45:22Z</time>
      </trkpt>
      <trkpt lat="48.85669" lon="7.31549">
        <ele>344.5</ele>
        <time>2020-06-28T07:45:25Z</time>
      </trkpt>
      <trkpt lat="48.85667" lon="7.31558">
        <ele>345.1</ele>
        <time>2020-06-28T07:45:28Z</time>
      </trkpt>
      <trkpt lat="48.85666" lon="7.31565">
        <ele>345.3</ele>
        <time>2020-06-28T07:45:30Z</time>
      </trkpt>
      <trkpt lat="48.85665" lon="7.31572">
        <ele>345.2</ele>
        <time>2020-06-28T07:45:32Z</time>
      </trkpt>
      <trkpt lat="48.85664" lon="7.31579">
        <ele>345.4</ele>
        <time>2020-06-28T07:45:34Z</time>
      </trkpt>
      <trkpt lat="48.85663" lon="7.31586">
        <ele>345.7</ele>
        <time>2020-06-28T07:45:36Z</time>
      </trkpt>
      <trkpt lat="48.85662" lon="7.31593">
        <ele>346.2</ele>
        <time>2020-06-28T07:45:38Z</time>
      </trkpt>
      <trkpt lat="48.8566" lon="7.31601">
        <ele>347.3</ele>
        <time>2020-06-28T07:45:41Z</time>
      </trkpt>
      <trkpt lat="48.85657" lon="7.31607">
        <ele>348</ele>
        <time>2020-06-28T07:45:44Z</time>
      </trkpt>
      <trkpt lat="48.85656" lon="7.31616">
        <ele>348.3</ele>
        <time>2020-06-28T07:45:47Z</time>
      </trkpt>
      <trkpt lat="48.85656" lon="7.31624">
        <ele>348.2</ele>
        <time>2020-06-28T07:45:49Z</time>
      </trkpt>
      <trkpt lat="48.85654" lon="7.31632">
        <ele>348.2</ele>
        <time>2020-06-28T07:45:51Z</time>
      </trkpt>
      <trkpt lat="48.85652" lon="7.31639">
        <ele>348</ele>
        <time>2020-06-28T07:45:53Z</time>
      </trkpt>
      <trkpt lat="48.85646" lon="7.31646">
        <ele>347.2</ele>
        <time>2020-06-28T07:45:56Z</time>
      </trkpt>
      <trkpt lat="48.85644" lon="7.31652">
        <ele>346.9</ele>
        <time>2020-06-28T07:45:58Z</time>
      </trkpt>
      <trkpt lat="48.85642" lon="7.31659">
        <ele>346.6</ele>
        <time>2020-06-28T07:46:00Z</time>
      </trkpt>
      <trkpt lat="48.85641" lon="7.31666">
        <ele>347</ele>
        <time>2020-06-28T07:46:02Z</time>
      </trkpt>
      <trkpt lat="48.85639" lon="7.31673">
        <ele>347.4</ele>
        <time>2020-06-28T07:46:04Z</time>
      </trkpt>
      <trkpt lat="48.85639" lon="7.3168">
        <ele>347.6</ele>
        <time>2020-06-28T07:46:06Z</time>
      </trkpt>
      <trkpt lat="48.85639" lon="7.31687">
        <ele>348.5</ele>
        <time>2020-06-28T07:46:08Z</time>
      </trkpt>
      <trkpt lat="48.85637" lon="7.31694">
        <ele>349.4</ele>
        <time>2020-06-28T07:46:10Z</time>
      </trkpt>
      <trkpt lat="48.85636" lon="7.31701">
        <ele>349.7</ele>
        <time>2020-06-28T07:46:12Z</time>
      </trkpt>
      <trkpt lat="48.85635" lon="7.31708">
        <ele>349.8</ele>
        <time>2020-06-28T07:46:14Z</time>
      </trkpt>
      <trkpt lat="48.85637" lon="7.31715">
        <ele>350.4</ele>
        <time>2020-06-28T07:46:16Z</time>
      </trkpt>
      <trkpt lat="48.85641" lon="7.31722">
        <ele>351.1</ele>
        <time>2020-06-28T07:46:19Z</time>
      </trkpt>
      <trkpt lat="48.85645" lon="7.31728">
        <ele>351.8</ele>
        <time>2020-06-28T07:46:21Z</time>
      </trkpt>
      <trkpt lat="48.85648" lon="7.31733">
        <ele>352</ele>
        <time>2020-06-28T07:46:23Z</time>
      </trkpt>
      <trkpt lat="48.85652" lon="7.3174">
        <ele>353</ele>
        <time>2020-06-28T07:46:26Z</time>
      </trkpt>
      <trkpt lat="48.85657" lon="7.31747">
        <ele>353.6</ele>
        <time>2020-06-28T07:46:29Z</time>
      </trkpt>
      <trkpt lat="48.8566" lon="7.31755">
        <ele>353.6</ele>
        <time>2020-06-28T07:46:32Z</time>
      </trkpt>
      <trkpt lat="48.85659" lon="7.31764">
        <ele>353.1</ele>
        <time>2020-06-28T07:46:35Z</time>
      </trkpt>
      <trkpt lat="48.85658" lon="7.31773">
        <ele>352.5</ele>
        <time>2020-06-28T07:46:38Z</time>
      </trkpt>
      <trkpt lat="48.85659" lon="7.31781">
        <ele>352.5</ele>
        <time>2020-06-28T07:46:41Z</time>
      </trkpt>
      <trkpt lat="48.85662" lon="7.31788">
        <ele>352.7</ele>
        <time>2020-06-28T07:46:44Z</time>
      </trkpt>
      <trkpt lat="48.85665" lon="7.31796">
        <ele>353</ele>
        <time>2020-06-28T07:46:47Z</time>
      </trkpt>
      <trkpt lat="48.85669" lon="7.31803">
        <ele>352.6</ele>
        <time>2020-06-28T07:46:50Z</time>
      </trkpt>
      <trkpt lat="48.85674" lon="7.31809">
        <ele>352.1</ele>
        <time>2020-06-28T07:46:53Z</time>
      </trkpt>
      <trkpt lat="48.85676" lon="7.31817">
        <ele>351.9</ele>
        <time>2020-06-28T07:46:56Z</time>
      </trkpt>
      <trkpt lat="48.85678" lon="7.31824">
        <ele>352</ele>
        <time>2020-06-28T07:46:59Z</time>
      </trkpt>
      <trkpt lat="48.85678" lon="7.31832">
        <ele>351.5</ele>
        <time>2020-06-28T07:47:02Z</time>
      </trkpt>
      <trkpt lat="48.85676" lon="7.31841">
        <ele>351.5</ele>
        <time>2020-06-28T07:47:05Z</time>
      </trkpt>
      <trkpt lat="48.85673" lon="7.3185">
        <ele>352</ele>
        <time>2020-06-28T07:47:08Z</time>
      </trkpt>
      <trkpt lat="48.85672" lon="7.31857">
        <ele>352.4</ele>
        <time>2020-06-28T07:47:11Z</time>
      </trkpt>
      <trkpt lat="48.85671" lon="7.31865">
        <ele>352.8</ele>
        <time>2020-06-28T07:47:14Z</time>
      </trkpt>
      <trkpt lat="48.85668" lon="7.31873">
        <ele>352.9</ele>
        <time>2020-06-28T07:47:17Z</time>
      </trkpt>
      <trkpt lat="48.85666" lon="7.31883">
        <ele>352.2</ele>
        <time>2020-06-28T07:47:20Z</time>
      </trkpt>
      <trkpt lat="48.85661" lon="7.3189">
        <ele>352.1</ele>
        <time>2020-06-28T07:47:23Z</time>
      </trkpt>
      <trkpt lat="48.85657" lon="7.31896">
        <ele>352.4</ele>
        <time>2020-06-28T07:47:26Z</time>
      </trkpt>
      <trkpt lat="48.85653" lon="7.319">
        <ele>352.7</ele>
        <time>2020-06-28T07:47:29Z</time>
      </trkpt>
      <trkpt lat="48.85649" lon="7.31904">
        <ele>347.3</ele>
        <time>2020-06-28T07:47:32Z</time>
      </trkpt>
      <trkpt lat="48.85645" lon="7.3191">
        <ele>343.8</ele>
        <time>2020-06-28T07:47:35Z</time>
      </trkpt>
      <trkpt lat="48.85642" lon="7.31918">
        <ele>345</ele>
        <time>2020-06-28T07:47:38Z</time>
      </trkpt>
      <trkpt lat="48.8564" lon="7.31924">
        <ele>346.2</ele>
        <time>2020-06-28T07:47:40Z</time>
      </trkpt>
      <trkpt lat="48.85638" lon="7.31931">
        <ele>347.1</ele>
        <time>2020-06-28T07:47:42Z</time>
      </trkpt>
      <trkpt lat="48.85637" lon="7.3194">
        <ele>348.3</ele>
        <time>2020-06-28T07:47:44Z</time>
      </trkpt>
      <trkpt lat="48.85637" lon="7.31948">
        <ele>348.8</ele>
        <time>2020-06-28T07:47:46Z</time>
      </trkpt>
      <trkpt lat="48.85637" lon="7.31955">
        <ele>349.2</ele>
        <time>2020-06-28T07:47:48Z</time>
      </trkpt>
      <trkpt lat="48.85641" lon="7.31964">
        <ele>349.2</ele>
        <time>2020-06-28T07:47:51Z</time>
      </trkpt>
      <trkpt lat="48.85646" lon="7.3197">
        <ele>349.4</ele>
        <time>2020-06-28T07:47:54Z</time>
      </trkpt>
      <trkpt lat="48.85652" lon="7.31973">
        <ele>349.5</ele>
        <time>2020-06-28T07:47:56Z</time>
      </trkpt>
      <trkpt lat="48.85662" lon="7.31974">
        <ele>349</ele>
        <time>2020-06-28T07:47:59Z</time>
      </trkpt>
      <trkpt lat="48.8567" lon="7.31974">
        <ele>348.7</ele>
        <time>2020-06-28T07:48:01Z</time>
      </trkpt>
      <trkpt lat="48.85677" lon="7.31974">
        <ele>348.1</ele>
        <time>2020-06-28T07:48:03Z</time>
      </trkpt>
      <trkpt lat="48.85682" lon="7.31974">
        <ele>347.7</ele>
        <time>2020-06-28T07:48:05Z</time>
      </trkpt>
      <trkpt lat="48.85687" lon="7.31974">
        <ele>346.9</ele>
        <time>2020-06-28T07:48:07Z</time>
      </trkpt>
      <trkpt lat="48.85694" lon="7.31974">
        <ele>346.5</ele>
        <time>2020-06-28T07:48:09Z</time>
      </trkpt>
      <trkpt lat="48.85704" lon="7.31975">
        <ele>345.4</ele>
        <time>2020-06-28T07:48:12Z</time>
      </trkpt>
      <trkpt lat="48.85713" lon="7.31976">
        <ele>344.5</ele>
        <time>2020-06-28T07:48:14Z</time>
      </trkpt>
      <trkpt lat="48.85731" lon="7.31985">
        <ele>344</ele>
        <time>2020-06-28T07:48:17Z</time>
      </trkpt>
      <trkpt lat="48.85747" lon="7.32003">
        <ele>342.9</ele>
        <time>2020-06-28T07:48:20Z</time>
      </trkpt>
      <trkpt lat="48.85757" lon="7.32017">
        <ele>342.6</ele>
        <time>2020-06-28T07:48:22Z</time>
      </trkpt>
      <trkpt lat="48.85767" lon="7.32031">
        <ele>342.2</ele>
        <time>2020-06-28T07:48:24Z</time>
      </trkpt>
      <trkpt lat="48.85783" lon="7.32048">
        <ele>342.2</ele>
        <time>2020-06-28T07:48:27Z</time>
      </trkpt>
      <trkpt lat="48.85789" lon="7.32062">
        <ele>342.7</ele>
        <time>2020-06-28T07:48:29Z</time>
      </trkpt>
      <trkpt lat="48.85793" lon="7.32078">
        <ele>342.8</ele>
        <time>2020-06-28T07:48:31Z</time>
      </trkpt>
      <trkpt lat="48.85795" lon="7.32092">
        <ele>343.2</ele>
        <time>2020-06-28T07:48:33Z</time>
      </trkpt>
      <trkpt lat="48.85797" lon="7.32112">
        <ele>343.6</ele>
        <time>2020-06-28T07:48:36Z</time>
      </trkpt>
      <trkpt lat="48.85797" lon="7.32125">
        <ele>343.9</ele>
        <time>2020-06-28T07:48:38Z</time>
      </trkpt>
      <trkpt lat="48.85798" lon="7.32138">
        <ele>343.7</ele>
        <time>2020-06-28T07:48:40Z</time>
      </trkpt>
      <trkpt lat="48.85799" lon="7.3215">
        <ele>344.1</ele>
        <time>2020-06-28T07:48:42Z</time>
      </trkpt>
      <trkpt lat="48.85801" lon="7.32161">
        <ele>344.1</ele>
        <time>2020-06-28T07:48:44Z</time>
      </trkpt>
      <trkpt lat="48.85801" lon="7.32174">
        <ele>343.9</ele>
        <time>2020-06-28T07:48:46Z</time>
      </trkpt>
      <trkpt lat="48.85801" lon="7.32186">
        <ele>343.9</ele>
        <time>2020-06-28T07:48:48Z</time>
      </trkpt>
      <trkpt lat="48.85801" lon="7.32199">
        <ele>343.8</ele>
        <time>2020-06-28T07:48:50Z</time>
      </trkpt>
      <trkpt lat="48.858" lon="7.32213">
        <ele>343.7</ele>
        <time>2020-06-28T07:48:52Z</time>
      </trkpt>
      <trkpt lat="48.85799" lon="7.32227">
        <ele>343.4</ele>
        <time>2020-06-28T07:48:54Z</time>
      </trkpt>
      <trkpt lat="48.85798" lon="7.32241">
        <ele>343.5</ele>
        <time>2020-06-28T07:48:56Z</time>
      </trkpt>
      <trkpt lat="48.85796" lon="7.32262">
        <ele>343.7</ele>
        <time>2020-06-28T07:48:59Z</time>
      </trkpt>
      <trkpt lat="48.85793" lon="7.32276">
        <ele>343.8</ele>
        <time>2020-06-28T07:49:01Z</time>
      </trkpt>
      <trkpt lat="48.8579" lon="7.3229">
        <ele>344.1</ele>
        <time>2020-06-28T07:49:03Z</time>
      </trkpt>
      <trkpt lat="48.85788" lon="7.32304">
        <ele>344.5</ele>
        <time>2020-06-28T07:49:05Z</time>
      </trkpt>
      <trkpt lat="48.85785" lon="7.32317">
        <ele>344.4</ele>
        <time>2020-06-28T07:49:07Z</time>
      </trkpt>
      <trkpt lat="48.85781" lon="7.3233">
        <ele>344.3</ele>
        <time>2020-06-28T07:49:09Z</time>
      </trkpt>
      <trkpt lat="48.85778" lon="7.32343">
        <ele>343.7</ele>
        <time>2020-06-28T07:49:11Z</time>
      </trkpt>
      <trkpt lat="48.85773" lon="7.32356">
        <ele>343.7</ele>
        <time>2020-06-28T07:49:13Z</time>
      </trkpt>
      <trkpt lat="48.85769" lon="7.3237">
        <ele>343.6</ele>
        <time>2020-06-28T07:49:15Z</time>
      </trkpt>
      <trkpt lat="48.85765" lon="7.32386">
        <ele>343.5</ele>
        <time>2020-06-28T07:49:17Z</time>
      </trkpt>
      <trkpt lat="48.8576" lon="7.32403">
        <ele>343.4</ele>
        <time>2020-06-28T07:49:19Z</time>
      </trkpt>
      <trkpt lat="48.85755" lon="7.32419">
        <ele>343.2</ele>
        <time>2020-06-28T07:49:21Z</time>
      </trkpt>
      <trkpt lat="48.8575" lon="7.32435">
        <ele>343</ele>
        <time>2020-06-28T07:49:23Z</time>
      </trkpt>
      <trkpt lat="48.85745" lon="7.32449">
        <ele>342.8</ele>
        <time>2020-06-28T07:49:25Z</time>
      </trkpt>
      <trkpt lat="48.8574" lon="7.32464">
        <ele>342.9</ele>
        <time>2020-06-28T07:49:27Z</time>
      </trkpt>
      <trkpt lat="48.85734" lon="7.32478">
        <ele>343</ele>
        <time>2020-06-28T07:49:29Z</time>
      </trkpt>
      <trkpt lat="48.85729" lon="7.32493">
        <ele>343.3</ele>
        <time>2020-06-28T07:49:31Z</time>
      </trkpt>
      <trkpt lat="48.85724" lon="7.32507">
        <ele>343.3</ele>
        <time>2020-06-28T07:49:33Z</time>
      </trkpt>
      <trkpt lat="48.85718" lon="7.32519">
        <ele>343.4</ele>
        <time>2020-06-28T07:49:35Z</time>
      </trkpt>
      <trkpt lat="48.85714" lon="7.32532">
        <ele>343.4</ele>
        <time>2020-06-28T07:49:37Z</time>
      </trkpt>
      <trkpt lat="48.85709" lon="7.32546">
        <ele>342.9</ele>
        <time>2020-06-28T07:49:39Z</time>
      </trkpt>
      <trkpt lat="48.85705" lon="7.3256">
        <ele>342.6</ele>
        <time>2020-06-28T07:49:41Z</time>
      </trkpt>
      <trkpt lat="48.85703" lon="7.32577">
        <ele>342.2</ele>
        <time>2020-06-28T07:49:43Z</time>
      </trkpt>
      <trkpt lat="48.85701" lon="7.32594">
        <ele>342</ele>
        <time>2020-06-28T07:49:45Z</time>
      </trkpt>
      <trkpt lat="48.85701" lon="7.32612">
        <ele>341.6</ele>
        <time>2020-06-28T07:49:47Z</time>
      </trkpt>
      <trkpt lat="48.85702" lon="7.32633">
        <ele>341.1</ele>
        <time>2020-06-28T07:49:49Z</time>
      </trkpt>
      <trkpt lat="48.85704" lon="7.32654">
        <ele>340.5</ele>
        <time>2020-06-28T07:49:51Z</time>
      </trkpt>
      <trkpt lat="48.85707" lon="7.32676">
        <ele>339.8</ele>
        <time>2020-06-28T07:49:53Z</time>
      </trkpt>
      <trkpt lat="48.8571" lon="7.32698">
        <ele>339.3</ele>
        <time>2020-06-28T07:49:55Z</time>
      </trkpt>
      <trkpt lat="48.85714" lon="7.3272">
        <ele>339.1</ele>
        <time>2020-06-28T07:49:57Z</time>
      </trkpt>
      <trkpt lat="48.85719" lon="7.3274">
        <ele>339.3</ele>
        <time>2020-06-28T07:49:59Z</time>
      </trkpt>
      <trkpt lat="48.85724" lon="7.32758">
        <ele>339.4</ele>
        <time>2020-06-28T07:50:01Z</time>
      </trkpt>
      <trkpt lat="48.85729" lon="7.32778">
        <ele>339.6</ele>
        <time>2020-06-28T07:50:03Z</time>
      </trkpt>
      <trkpt lat="48.85736" lon="7.32799">
        <ele>339.9</ele>
        <time>2020-06-28T07:50:05Z</time>
      </trkpt>
      <trkpt lat="48.85744" lon="7.3282">
        <ele>340.4</ele>
        <time>2020-06-28T07:50:07Z</time>
      </trkpt>
      <trkpt lat="48.85749" lon="7.3284">
        <ele>340.1</ele>
        <time>2020-06-28T07:50:09Z</time>
      </trkpt>
      <trkpt lat="48.85755" lon="7.3286">
        <ele>339.8</ele>
        <time>2020-06-28T07:50:11Z</time>
      </trkpt>
      <trkpt lat="48.85761" lon="7.32878">
        <ele>339.4</ele>
        <time>2020-06-28T07:50:13Z</time>
      </trkpt>
      <trkpt lat="48.85768" lon="7.32896">
        <ele>338.8</ele>
        <time>2020-06-28T07:50:15Z</time>
      </trkpt>
      <trkpt lat="48.85774" lon="7.32915">
        <ele>338.1</ele>
        <time>2020-06-28T07:50:17Z</time>
      </trkpt>
      <trkpt lat="48.85782" lon="7.32931">
        <ele>337.7</ele>
        <time>2020-06-28T07:50:19Z</time>
      </trkpt>
      <trkpt lat="48.85788" lon="7.32951">
        <ele>337.3</ele>
        <time>2020-06-28T07:50:21Z</time>
      </trkpt>
      <trkpt lat="48.85793" lon="7.32969">
        <ele>337.4</ele>
        <time>2020-06-28T07:50:23Z</time>
      </trkpt>
      <trkpt lat="48.85797" lon="7.32989">
        <ele>337.6</ele>
        <time>2020-06-28T07:50:25Z</time>
      </trkpt>
      <trkpt lat="48.85801" lon="7.3301">
        <ele>338</ele>
        <time>2020-06-28T07:50:27Z</time>
      </trkpt>
      <trkpt lat="48.85805" lon="7.33028">
        <ele>337.7</ele>
        <time>2020-06-28T07:50:29Z</time>
      </trkpt>
      <trkpt lat="48.85808" lon="7.33047">
        <ele>337.7</ele>
        <time>2020-06-28T07:50:31Z</time>
      </trkpt>
      <trkpt lat="48.85812" lon="7.33066">
        <ele>338.2</ele>
        <time>2020-06-28T07:50:33Z</time>
      </trkpt>
      <trkpt lat="48.85816" lon="7.33086">
        <ele>337.9</ele>
        <time>2020-06-28T07:50:35Z</time>
      </trkpt>
      <trkpt lat="48.85818" lon="7.33105">
        <ele>338.5</ele>
        <time>2020-06-28T07:50:37Z</time>
      </trkpt>
      <trkpt lat="48.8582" lon="7.33124">
        <ele>338.8</ele>
        <time>2020-06-28T07:50:39Z</time>
      </trkpt>
      <trkpt lat="48.8582" lon="7.33142">
        <ele>339.5</ele>
        <time>2020-06-28T07:50:41Z</time>
      </trkpt>
      <trkpt lat="48.85822" lon="7.3316">
        <ele>340.1</ele>
        <time>2020-06-28T07:50:43Z</time>
      </trkpt>
      <trkpt lat="48.85821" lon="7.33178">
        <ele>340.5</ele>
        <time>2020-06-28T07:50:45Z</time>
      </trkpt>
      <trkpt lat="48.85822" lon="7.33197">
        <ele>341</ele>
        <time>2020-06-28T07:50:47Z</time>
      </trkpt>
      <trkpt lat="48.85823" lon="7.33216">
        <ele>341.3</ele>
        <time>2020-06-28T07:50:49Z</time>
      </trkpt>
      <trkpt lat="48.85823" lon="7.33234">
        <ele>341.5</ele>
        <time>2020-06-28T07:50:51Z</time>
      </trkpt>
      <trkpt lat="48.85823" lon="7.33253">
        <ele>341.3</ele>
        <time>2020-06-28T07:50:53Z</time>
      </trkpt>
      <trkpt lat="48.85821" lon="7.33271">
        <ele>341</ele>
        <time>2020-06-28T07:50:55Z</time>
      </trkpt>
      <trkpt lat="48.85817" lon="7.3329">
        <ele>340.9</ele>
        <time>2020-06-28T07:50:57Z</time>
      </trkpt>
      <trkpt lat="48.85815" lon="7.33308">
        <ele>340.5</ele>
        <time>2020-06-28T07:50:59Z</time>
      </trkpt>
      <trkpt lat="48.85811" lon="7.33326">
        <ele>340.1</ele>
        <time>2020-06-28T07:51:01Z</time>
      </trkpt>
      <trkpt lat="48.85808" lon="7.33344">
        <ele>339.9</ele>
        <time>2020-06-28T07:51:03Z</time>
      </trkpt>
      <trkpt lat="48.85805" lon="7.33361">
        <ele>339.7</ele>
        <time>2020-06-28T07:51:05Z</time>
      </trkpt>
      <trkpt lat="48.85803" lon="7.33379">
        <ele>340.1</ele>
        <time>2020-06-28T07:51:07Z</time>
      </trkpt>
      <trkpt lat="48.85801" lon="7.33396">
        <ele>340.1</ele>
        <time>2020-06-28T07:51:09Z</time>
      </trkpt>
      <trkpt lat="48.85797" lon="7.33412">
        <ele>340.3</ele>
        <time>2020-06-28T07:51:11Z</time>
      </trkpt>
      <trkpt lat="48.85791" lon="7.33426">
        <ele>340.5</ele>
        <time>2020-06-28T07:51:13Z</time>
      </trkpt>
      <trkpt lat="48.85784" lon="7.33439">
        <ele>340.9</ele>
        <time>2020-06-28T07:51:15Z</time>
      </trkpt>
      <trkpt lat="48.85776" lon="7.3345">
        <ele>341.3</ele>
        <time>2020-06-28T07:51:17Z</time>
      </trkpt>
      <trkpt lat="48.85769" lon="7.33461">
        <ele>341.9</ele>
        <time>2020-06-28T07:51:19Z</time>
      </trkpt>
      <trkpt lat="48.85764" lon="7.33471">
        <ele>342.3</ele>
        <time>2020-06-28T07:51:21Z</time>
      </trkpt>
      <trkpt lat="48.8576" lon="7.33482">
        <ele>342.6</ele>
        <time>2020-06-28T07:51:23Z</time>
      </trkpt>
      <trkpt lat="48.85755" lon="7.33494">
        <ele>342.9</ele>
        <time>2020-06-28T07:51:25Z</time>
      </trkpt>
      <trkpt lat="48.85752" lon="7.33506">
        <ele>343.1</ele>
        <time>2020-06-28T07:51:27Z</time>
      </trkpt>
      <trkpt lat="48.85749" lon="7.33518">
        <ele>343.2</ele>
        <time>2020-06-28T07:51:29Z</time>
      </trkpt>
      <trkpt lat="48.85748" lon="7.3353">
        <ele>343.7</ele>
        <time>2020-06-28T07:51:31Z</time>
      </trkpt>
      <trkpt lat="48.85747" lon="7.33542">
        <ele>343.8</ele>
        <time>2020-06-28T07:51:33Z</time>
      </trkpt>
      <trkpt lat="48.85747" lon="7.33554">
        <ele>344.2</ele>
        <time>2020-06-28T07:51:35Z</time>
      </trkpt>
      <trkpt lat="48.85748" lon="7.33565">
        <ele>344.6</ele>
        <time>2020-06-28T07:51:37Z</time>
      </trkpt>
      <trkpt lat="48.85749" lon="7.33577">
        <ele>345.1</ele>
        <time>2020-06-28T07:51:39Z</time>
      </trkpt>
      <trkpt lat="48.8575" lon="7.33588">
        <ele>345.5</ele>
        <time>2020-06-28T07:51:41Z</time>
      </trkpt>
      <trkpt lat="48.85752" lon="7.336">
        <ele>345.8</ele>
        <time>2020-06-28T07:51:43Z</time>
      </trkpt>
      <trkpt lat="48.85754" lon="7.33611">
        <ele>345.9</ele>
        <time>2020-06-28T07:51:45Z</time>
      </trkpt>
      <trkpt lat="48.85756" lon="7.33621">
        <ele>346.4</ele>
        <time>2020-06-28T07:51:47Z</time>
      </trkpt>
      <trkpt lat="48.8576" lon="7.33631">
        <ele>346.6</ele>
        <time>2020-06-28T07:51:49Z</time>
      </trkpt>
      <trkpt lat="48.85766" lon="7.33646">
        <ele>347.6</ele>
        <time>2020-06-28T07:51:52Z</time>
      </trkpt>
      <trkpt lat="48.8577" lon="7.33656">
        <ele>348.4</ele>
        <time>2020-06-28T07:51:54Z</time>
      </trkpt>
      <trkpt lat="48.85773" lon="7.33666">
        <ele>349.2</ele>
        <time>2020-06-28T07:51:56Z</time>
      </trkpt>
      <trkpt lat="48.85777" lon="7.33675">
        <ele>350.1</ele>
        <time>2020-06-28T07:51:58Z</time>
      </trkpt>
      <trkpt lat="48.8578" lon="7.33683">
        <ele>350.5</ele>
        <time>2020-06-28T07:52:00Z</time>
      </trkpt>
      <trkpt lat="48.85784" lon="7.33692">
        <ele>351.1</ele>
        <time>2020-06-28T07:52:02Z</time>
      </trkpt>
      <trkpt lat="48.85788" lon="7.33701">
        <ele>351.8</ele>
        <time>2020-06-28T07:52:04Z</time>
      </trkpt>
      <trkpt lat="48.85791" lon="7.33709">
        <ele>352.5</ele>
        <time>2020-06-28T07:52:06Z</time>
      </trkpt>
      <trkpt lat="48.85795" lon="7.33719">
        <ele>353</ele>
        <time>2020-06-28T07:52:08Z</time>
      </trkpt>
      <trkpt lat="48.85798" lon="7.33729">
        <ele>353.3</ele>
        <time>2020-06-28T07:52:10Z</time>
      </trkpt>
      <trkpt lat="48.85801" lon="7.33742">
        <ele>353.3</ele>
        <time>2020-06-28T07:52:12Z</time>
      </trkpt>
      <trkpt lat="48.85803" lon="7.33756">
        <ele>353.5</ele>
        <time>2020-06-28T07:52:14Z</time>
      </trkpt>
      <trkpt lat="48.85805" lon="7.3377">
        <ele>353.2</ele>
        <time>2020-06-28T07:52:16Z</time>
      </trkpt>
      <trkpt lat="48.85806" lon="7.33785">
        <ele>352.9</ele>
        <time>2020-06-28T07:52:18Z</time>
      </trkpt>
      <trkpt lat="48.85807" lon="7.33801">
        <ele>352.8</ele>
        <time>2020-06-28T07:52:20Z</time>
      </trkpt>
      <trkpt lat="48.85805" lon="7.33819">
        <ele>352.1</ele>
        <time>2020-06-28T07:52:22Z</time>
      </trkpt>
      <trkpt lat="48.85803" lon="7.33838">
        <ele>351.6</ele>
        <time>2020-06-28T07:52:24Z</time>
      </trkpt>
      <trkpt lat="48.858" lon="7.33866">
        <ele>351.7</ele>
        <time>2020-06-28T07:52:26Z</time>
      </trkpt>
      <trkpt lat="48.85798" lon="7.33883">
        <ele>351.3</ele>
        <time>2020-06-28T07:52:28Z</time>
      </trkpt>
      <trkpt lat="48.85795" lon="7.339">
        <ele>351.2</ele>
        <time>2020-06-28T07:52:30Z</time>
      </trkpt>
      <trkpt lat="48.85792" lon="7.33925">
        <ele>350.6</ele>
        <time>2020-06-28T07:52:33Z</time>
      </trkpt>
      <trkpt lat="48.8579" lon="7.33942">
        <ele>350.4</ele>
        <time>2020-06-28T07:52:35Z</time>
      </trkpt>
      <trkpt lat="48.85787" lon="7.33958">
        <ele>350.1</ele>
        <time>2020-06-28T07:52:37Z</time>
      </trkpt>
      <trkpt lat="48.85782" lon="7.33971">
        <ele>350</ele>
        <time>2020-06-28T07:52:39Z</time>
      </trkpt>
      <trkpt lat="48.85773" lon="7.33979">
        <ele>349.8</ele>
        <time>2020-06-28T07:52:41Z</time>
      </trkpt>
      <trkpt lat="48.85761" lon="7.33987">
        <ele>349.3</ele>
        <time>2020-06-28T07:52:44Z</time>
      </trkpt>
      <trkpt lat="48.85749" lon="7.33996">
        <ele>348.9</ele>
        <time>2020-06-28T07:52:46Z</time>
      </trkpt>
      <trkpt lat="48.85734" lon="7.34004">
        <ele>349.1</ele>
        <time>2020-06-28T07:52:48Z</time>
      </trkpt>
      <trkpt lat="48.85718" lon="7.34014">
        <ele>348.3</ele>
        <time>2020-06-28T07:52:50Z</time>
      </trkpt>
      <trkpt lat="48.85702" lon="7.34022">
        <ele>347.3</ele>
        <time>2020-06-28T07:52:52Z</time>
      </trkpt>
      <trkpt lat="48.85687" lon="7.34032">
        <ele>347.1</ele>
        <time>2020-06-28T07:52:54Z</time>
      </trkpt>
      <trkpt lat="48.85673" lon="7.34041">
        <ele>346.6</ele>
        <time>2020-06-28T07:52:56Z</time>
      </trkpt>
      <trkpt lat="48.85659" lon="7.3405">
        <ele>346.3</ele>
        <time>2020-06-28T07:52:58Z</time>
      </trkpt>
      <trkpt lat="48.85647" lon="7.34058">
        <ele>346.5</ele>
        <time>2020-06-28T07:53:00Z</time>
      </trkpt>
      <trkpt lat="48.85635" lon="7.34064">
        <ele>346.7</ele>
        <time>2020-06-28T07:53:02Z</time>
      </trkpt>
      <trkpt lat="48.85623" lon="7.34068">
        <ele>347</ele>
        <time>2020-06-28T07:53:04Z</time>
      </trkpt>
      <trkpt lat="48.85611" lon="7.34071">
        <ele>346.8</ele>
        <time>2020-06-28T07:53:06Z</time>
      </trkpt>
      <trkpt lat="48.85599" lon="7.34074">
        <ele>346.9</ele>
        <time>2020-06-28T07:53:08Z</time>
      </trkpt>
      <trkpt lat="48.85589" lon="7.34076">
        <ele>346.8</ele>
        <time>2020-06-28T07:53:10Z</time>
      </trkpt>
      <trkpt lat="48.85578" lon="7.34078">
        <ele>346.4</ele>
        <time>2020-06-28T07:53:12Z</time>
      </trkpt>
      <trkpt lat="48.85569" lon="7.3408">
        <ele>346</ele>
        <time>2020-06-28T07:53:14Z</time>
      </trkpt>
      <trkpt lat="48.85559" lon="7.34083">
        <ele>346</ele>
        <time>2020-06-28T07:53:16Z</time>
      </trkpt>
      <trkpt lat="48.8555" lon="7.34085">
        <ele>346</ele>
        <time>2020-06-28T07:53:18Z</time>
      </trkpt>
      <trkpt lat="48.85541" lon="7.34088">
        <ele>346.3</ele>
        <time>2020-06-28T07:53:20Z</time>
      </trkpt>
      <trkpt lat="48.85532" lon="7.34091">
        <ele>346.7</ele>
        <time>2020-06-28T07:53:22Z</time>
      </trkpt>
      <trkpt lat="48.85524" lon="7.34093">
        <ele>346.6</ele>
        <time>2020-06-28T07:53:24Z</time>
      </trkpt>
      <trkpt lat="48.85516" lon="7.34095">
        <ele>347.1</ele>
        <time>2020-06-28T07:53:26Z</time>
      </trkpt>
      <trkpt lat="48.85509" lon="7.34096">
        <ele>348</ele>
        <time>2020-06-28T07:53:28Z</time>
      </trkpt>
      <trkpt lat="48.85504" lon="7.34098">
        <ele>349.3</ele>
        <time>2020-06-28T07:53:30Z</time>
      </trkpt>
      <trkpt lat="48.85498" lon="7.34098">
        <ele>350.3</ele>
        <time>2020-06-28T07:53:32Z</time>
      </trkpt>
      <trkpt lat="48.85491" lon="7.34099">
        <ele>350.2</ele>
        <time>2020-06-28T07:53:34Z</time>
      </trkpt>
      <trkpt lat="48.85485" lon="7.34101">
        <ele>350.3</ele>
        <time>2020-06-28T07:53:36Z</time>
      </trkpt>
      <trkpt lat="48.85479" lon="7.34102">
        <ele>351.6</ele>
        <time>2020-06-28T07:53:38Z</time>
      </trkpt>
      <trkpt lat="48.85473" lon="7.34104">
        <ele>352.1</ele>
        <time>2020-06-28T07:53:40Z</time>
      </trkpt>
      <trkpt lat="48.85467" lon="7.34107">
        <ele>352.1</ele>
        <time>2020-06-28T07:53:42Z</time>
      </trkpt>
      <trkpt lat="48.8546" lon="7.34113">
        <ele>351.9</ele>
        <time>2020-06-28T07:53:44Z</time>
      </trkpt>
      <trkpt lat="48.85452" lon="7.34122">
        <ele>352</ele>
        <time>2020-06-28T07:53:46Z</time>
      </trkpt>
      <trkpt lat="48.85444" lon="7.34133">
        <ele>351.5</ele>
        <time>2020-06-28T07:53:48Z</time>
      </trkpt>
      <trkpt lat="48.85436" lon="7.34143">
        <ele>350.8</ele>
        <time>2020-06-28T07:53:50Z</time>
      </trkpt>
      <trkpt lat="48.85427" lon="7.34157">
        <ele>350.1</ele>
        <time>2020-06-28T07:53:52Z</time>
      </trkpt>
      <trkpt lat="48.85417" lon="7.34169">
        <ele>348.4</ele>
        <time>2020-06-28T07:53:54Z</time>
      </trkpt>
      <trkpt lat="48.85406" lon="7.34183">
        <ele>346.9</ele>
        <time>2020-06-28T07:53:56Z</time>
      </trkpt>
      <trkpt lat="48.85396" lon="7.34197">
        <ele>345.9</ele>
        <time>2020-06-28T07:53:58Z</time>
      </trkpt>
      <trkpt lat="48.85386" lon="7.3421">
        <ele>345.2</ele>
        <time>2020-06-28T07:54:00Z</time>
      </trkpt>
      <trkpt lat="48.85378" lon="7.34221">
        <ele>344.8</ele>
        <time>2020-06-28T07:54:02Z</time>
      </trkpt>
      <trkpt lat="48.8537" lon="7.34231">
        <ele>344.8</ele>
        <time>2020-06-28T07:54:04Z</time>
      </trkpt>
      <trkpt lat="48.85363" lon="7.34242">
        <ele>345</ele>
        <time>2020-06-28T07:54:06Z</time>
      </trkpt>
      <trkpt lat="48.85357" lon="7.34253">
        <ele>345.5</ele>
        <time>2020-06-28T07:54:08Z</time>
      </trkpt>
      <trkpt lat="48.85352" lon="7.3426">
        <ele>345.9</ele>
        <time>2020-06-28T07:54:10Z</time>
      </trkpt>
      <trkpt lat="48.85348" lon="7.34264">
        <ele>346.4</ele>
        <time>2020-06-28T07:54:12Z</time>
      </trkpt>
      <trkpt lat="48.85343" lon="7.34266">
        <ele>346.6</ele>
        <time>2020-06-28T07:54:14Z</time>
      </trkpt>
      <trkpt lat="48.85337" lon="7.34265">
        <ele>347.1</ele>
        <time>2020-06-28T07:54:16Z</time>
      </trkpt>
      <trkpt lat="48.85332" lon="7.34263">
        <ele>347.8</ele>
        <time>2020-06-28T07:54:18Z</time>
      </trkpt>
      <trkpt lat="48.85326" lon="7.34261">
        <ele>348.6</ele>
        <time>2020-06-28T07:54:20Z</time>
      </trkpt>
      <trkpt lat="48.85319" lon="7.34258">
        <ele>349.1</ele>
        <time>2020-06-28T07:54:22Z</time>
      </trkpt>
      <trkpt lat="48.85312" lon="7.34257">
        <ele>349.8</ele>
        <time>2020-06-28T07:54:24Z</time>
      </trkpt>
      <trkpt lat="48.85304" lon="7.34256">
        <ele>350.9</ele>
        <time>2020-06-28T07:54:26Z</time>
      </trkpt>
      <trkpt lat="48.85298" lon="7.34254">
        <ele>351.9</ele>
        <time>2020-06-28T07:54:28Z</time>
      </trkpt>
      <trkpt lat="48.85294" lon="7.34252">
        <ele>353.3</ele>
        <time>2020-06-28T07:54:30Z</time>
      </trkpt>
      <trkpt lat="48.85288" lon="7.3425">
        <ele>355.3</ele>
        <time>2020-06-28T07:54:33Z</time>
      </trkpt>
      <trkpt lat="48.85286" lon="7.34242">
        <ele>357</ele>
        <time>2020-06-28T07:54:37Z</time>
      </trkpt>
      <trkpt lat="48.85281" lon="7.34236">
        <ele>356.3</ele>
        <time>2020-06-28T07:54:40Z</time>
      </trkpt>
      <trkpt lat="48.85276" lon="7.34233">
        <ele>355.6</ele>
        <time>2020-06-28T07:54:42Z</time>
      </trkpt>
      <trkpt lat="48.85271" lon="7.34232">
        <ele>355.8</ele>
        <time>2020-06-28T07:54:44Z</time>
      </trkpt>
      <trkpt lat="48.85266" lon="7.34229">
        <ele>355.7</ele>
        <time>2020-06-28T07:54:46Z</time>
      </trkpt>
      <trkpt lat="48.85261" lon="7.34227">
        <ele>355.3</ele>
        <time>2020-06-28T07:54:48Z</time>
      </trkpt>
      <trkpt lat="48.85256" lon="7.34225">
        <ele>354.8</ele>
        <time>2020-06-28T07:54:50Z</time>
      </trkpt>
      <trkpt lat="48.85251" lon="7.34222">
        <ele>354.4</ele>
        <time>2020-06-28T07:54:52Z</time>
      </trkpt>
      <trkpt lat="48.85246" lon="7.34219">
        <ele>349.7</ele>
        <time>2020-06-28T07:54:54Z</time>
      </trkpt>
      <trkpt lat="48.85239" lon="7.34217">
        <ele>347.7</ele>
        <time>2020-06-28T07:54:56Z</time>
      </trkpt>
      <trkpt lat="48.85234" lon="7.34216">
        <ele>347.5</ele>
        <time>2020-06-28T07:54:58Z</time>
      </trkpt>
      <trkpt lat="48.85229" lon="7.34215">
        <ele>348.2</ele>
        <time>2020-06-28T07:55:00Z</time>
      </trkpt>
      <trkpt lat="48.85223" lon="7.34212">
        <ele>349.5</ele>
        <time>2020-06-28T07:55:03Z</time>
      </trkpt>
      <trkpt lat="48.85216" lon="7.34209">
        <ele>349.3</ele>
        <time>2020-06-28T07:55:06Z</time>
      </trkpt>
      <trkpt lat="48.85211" lon="7.34205">
        <ele>349.5</ele>
        <time>2020-06-28T07:55:08Z</time>
      </trkpt>
      <trkpt lat="48.85206" lon="7.34203">
        <ele>350.7</ele>
        <time>2020-06-28T07:55:10Z</time>
      </trkpt>
      <trkpt lat="48.85201" lon="7.342">
        <ele>351.3</ele>
        <time>2020-06-28T07:55:12Z</time>
      </trkpt>
      <trkpt lat="48.85197" lon="7.34197">
        <ele>352.3</ele>
        <time>2020-06-28T07:55:14Z</time>
      </trkpt>
      <trkpt lat="48.85193" lon="7.34194">
        <ele>353.3</ele>
        <time>2020-06-28T07:55:16Z</time>
      </trkpt>
      <trkpt lat="48.85188" lon="7.34193">
        <ele>354</ele>
        <time>2020-06-28T07:55:18Z</time>
      </trkpt>
      <trkpt lat="48.85184" lon="7.34194">
        <ele>354.8</ele>
        <time>2020-06-28T07:55:20Z</time>
      </trkpt>
      <trkpt lat="48.8518" lon="7.34196">
        <ele>355.5</ele>
        <time>2020-06-28T07:55:22Z</time>
      </trkpt>
      <trkpt lat="48.85175" lon="7.34198">
        <ele>355.4</ele>
        <time>2020-06-28T07:55:24Z</time>
      </trkpt>
      <trkpt lat="48.85169" lon="7.34201">
        <ele>355.1</ele>
        <time>2020-06-28T07:55:26Z</time>
      </trkpt>
      <trkpt lat="48.85162" lon="7.34202">
        <ele>354.7</ele>
        <time>2020-06-28T07:55:28Z</time>
      </trkpt>
      <trkpt lat="48.85155" lon="7.34203">
        <ele>349.6</ele>
        <time>2020-06-28T07:55:30Z</time>
      </trkpt>
      <trkpt lat="48.85148" lon="7.34204">
        <ele>349.1</ele>
        <time>2020-06-28T07:55:32Z</time>
      </trkpt>
      <trkpt lat="48.85142" lon="7.34205">
        <ele>348</ele>
        <time>2020-06-28T07:55:34Z</time>
      </trkpt>
      <trkpt lat="48.85136" lon="7.34203">
        <ele>347.9</ele>
        <time>2020-06-28T07:55:36Z</time>
      </trkpt>
      <trkpt lat="48.85129" lon="7.34201">
        <ele>347.7</ele>
        <time>2020-06-28T07:55:38Z</time>
      </trkpt>
      <trkpt lat="48.85122" lon="7.342">
        <ele>349.3</ele>
        <time>2020-06-28T07:55:40Z</time>
      </trkpt>
      <trkpt lat="48.85117" lon="7.34201">
        <ele>350.6</ele>
        <time>2020-06-28T07:55:42Z</time>
      </trkpt>
      <trkpt lat="48.85113" lon="7.34202">
        <ele>355.9</ele>
        <time>2020-06-28T07:55:44Z</time>
      </trkpt>
      <trkpt lat="48.85108" lon="7.34205">
        <ele>358</ele>
        <time>2020-06-28T07:55:46Z</time>
      </trkpt>
      <trkpt lat="48.85104" lon="7.34208">
        <ele>359.9</ele>
        <time>2020-06-28T07:55:48Z</time>
      </trkpt>
      <trkpt lat="48.85099" lon="7.34209">
        <ele>361.4</ele>
        <time>2020-06-28T07:55:50Z</time>
      </trkpt>
      <trkpt lat="48.85093" lon="7.3421">
        <ele>362</ele>
        <time>2020-06-28T07:55:54Z</time>
      </trkpt>
      <trkpt lat="48.85089" lon="7.34215">
        <ele>361.9</ele>
        <time>2020-06-28T07:55:57Z</time>
      </trkpt>
      <trkpt lat="48.85084" lon="7.34218">
        <ele>361.3</ele>
        <time>2020-06-28T07:56:05Z</time>
      </trkpt>
      <trkpt lat="48.85088" lon="7.34213">
        <ele>363.1</ele>
        <time>2020-06-28T07:56:40Z</time>
      </trkpt>
      <trkpt lat="48.85084" lon="7.34207">
        <ele>363.1</ele>
        <time>2020-06-28T07:56:44Z</time>
      </trkpt>
      <trkpt lat="48.85079" lon="7.34206">
        <ele>362.2</ele>
        <time>2020-06-28T07:56:46Z</time>
      </trkpt>
      <trkpt lat="48.85074" lon="7.34205">
        <ele>361.5</ele>
        <time>2020-06-28T07:56:48Z</time>
      </trkpt>
      <trkpt lat="48.85068" lon="7.34204">
        <ele>360.6</ele>
        <time>2020-06-28T07:56:50Z</time>
      </trkpt>
      <trkpt lat="48.85063" lon="7.34201">
        <ele>359.9</ele>
        <time>2020-06-28T07:56:52Z</time>
      </trkpt>
      <trkpt lat="48.85058" lon="7.34198">
        <ele>359.3</ele>
        <time>2020-06-28T07:56:54Z</time>
      </trkpt>
      <trkpt lat="48.85053" lon="7.34196">
        <ele>358.6</ele>
        <time>2020-06-28T07:56:56Z</time>
      </trkpt>
      <trkpt lat="48.85048" lon="7.34193">
        <ele>358.1</ele>
        <time>2020-06-28T07:56:58Z</time>
      </trkpt>
      <trkpt lat="48.85043" lon="7.34191">
        <ele>357.9</ele>
        <time>2020-06-28T07:57:00Z</time>
      </trkpt>
      <trkpt lat="48.85037" lon="7.34189">
        <ele>357.8</ele>
        <time>2020-06-28T07:57:02Z</time>
      </trkpt>
      <trkpt lat="48.85031" lon="7.34188">
        <ele>357.9</ele>
        <time>2020-06-28T07:57:04Z</time>
      </trkpt>
      <trkpt lat="48.85024" lon="7.34189">
        <ele>358.4</ele>
        <time>2020-06-28T07:57:06Z</time>
      </trkpt>
      <trkpt lat="48.85018" lon="7.3419">
        <ele>358.9</ele>
        <time>2020-06-28T07:57:08Z</time>
      </trkpt>
      <trkpt lat="48.85011" lon="7.34193">
        <ele>359.4</ele>
        <time>2020-06-28T07:57:10Z</time>
      </trkpt>
      <trkpt lat="48.85003" lon="7.34198">
        <ele>360.2</ele>
        <time>2020-06-28T07:57:12Z</time>
      </trkpt>
      <trkpt lat="48.84998" lon="7.34202">
        <ele>360.9</ele>
        <time>2020-06-28T07:57:14Z</time>
      </trkpt>
      <trkpt lat="48.84993" lon="7.34205">
        <ele>361.5</ele>
        <time>2020-06-28T07:57:16Z</time>
      </trkpt>
      <trkpt lat="48.84998" lon="7.3421">
        <ele>363.4</ele>
        <time>2020-06-28T07:57:23Z</time>
      </trkpt>
      <trkpt lat="48.85006" lon="7.34211">
        <ele>364</ele>
        <time>2020-06-28T07:57:25Z</time>
      </trkpt>
      <trkpt lat="48.85014" lon="7.34219">
        <ele>364.2</ele>
        <time>2020-06-28T07:57:27Z</time>
      </trkpt>
      <trkpt lat="48.85019" lon="7.34224">
        <ele>363.3</ele>
        <time>2020-06-28T07:57:29Z</time>
      </trkpt>
      <trkpt lat="48.85011" lon="7.34225">
        <ele>359.4</ele>
        <time>2020-06-28T07:57:35Z</time>
      </trkpt>
      <trkpt lat="48.85005" lon="7.34224">
        <ele>358</ele>
        <time>2020-06-28T07:57:37Z</time>
      </trkpt>
      <trkpt lat="48.84998" lon="7.34227">
        <ele>357.3</ele>
        <time>2020-06-28T07:57:39Z</time>
      </trkpt>
      <trkpt lat="48.84989" lon="7.3423">
        <ele>356.1</ele>
        <time>2020-06-28T07:57:41Z</time>
      </trkpt>
      <trkpt lat="48.84973" lon="7.34236">
        <ele>353.8</ele>
        <time>2020-06-28T07:57:44Z</time>
      </trkpt>
      <trkpt lat="48.84963" lon="7.34241">
        <ele>352.1</ele>
        <time>2020-06-28T07:57:46Z</time>
      </trkpt>
      <trkpt lat="48.84953" lon="7.34247">
        <ele>349.9</ele>
        <time>2020-06-28T07:57:48Z</time>
      </trkpt>
      <trkpt lat="48.84944" lon="7.34254">
        <ele>348.5</ele>
        <time>2020-06-28T07:57:50Z</time>
      </trkpt>
      <trkpt lat="48.84936" lon="7.34261">
        <ele>347.6</ele>
        <time>2020-06-28T07:57:52Z</time>
      </trkpt>
      <trkpt lat="48.84929" lon="7.34274">
        <ele>346.1</ele>
        <time>2020-06-28T07:57:54Z</time>
      </trkpt>
      <trkpt lat="48.84921" lon="7.34296">
        <ele>344</ele>
        <time>2020-06-28T07:57:57Z</time>
      </trkpt>
      <trkpt lat="48.84914" lon="7.34305">
        <ele>343.2</ele>
        <time>2020-06-28T07:57:59Z</time>
      </trkpt>
      <trkpt lat="48.84908" lon="7.3431">
        <ele>340.3</ele>
        <time>2020-06-28T07:58:02Z</time>
      </trkpt>
      <trkpt lat="48.84901" lon="7.34312">
        <ele>333.3</ele>
        <time>2020-06-28T07:58:42Z</time>
      </trkpt>
      <trkpt lat="48.84893" lon="7.34312">
        <ele>332.4</ele>
        <time>2020-06-28T07:58:44Z</time>
      </trkpt>
      <trkpt lat="48.84876" lon="7.3431">
        <ele>330.6</ele>
        <time>2020-06-28T07:58:47Z</time>
      </trkpt>
      <trkpt lat="48.84867" lon="7.34308">
        <ele>329.9</ele>
        <time>2020-06-28T07:58:49Z</time>
      </trkpt>
      <trkpt lat="48.84858" lon="7.34308">
        <ele>328.6</ele>
        <time>2020-06-28T07:58:51Z</time>
      </trkpt>
      <trkpt lat="48.84848" lon="7.34307">
        <ele>327.4</ele>
        <time>2020-06-28T07:58:53Z</time>
      </trkpt>
      <trkpt lat="48.84841" lon="7.34307">
        <ele>325.8</ele>
        <time>2020-06-28T07:58:55Z</time>
      </trkpt>
      <trkpt lat="48.84825" lon="7.34305">
        <ele>324.1</ele>
        <time>2020-06-28T07:58:58Z</time>
      </trkpt>
      <trkpt lat="48.84814" lon="7.34295">
        <ele>322.3</ele>
        <time>2020-06-28T07:59:01Z</time>
      </trkpt>
      <trkpt lat="48.84804" lon="7.34287">
        <ele>321.4</ele>
        <time>2020-06-28T07:59:04Z</time>
      </trkpt>
      <trkpt lat="48.84798" lon="7.34282">
        <ele>321</ele>
        <time>2020-06-28T07:59:06Z</time>
      </trkpt>
      <trkpt lat="48.84793" lon="7.34278">
        <ele>320.6</ele>
        <time>2020-06-28T07:59:08Z</time>
      </trkpt>
      <trkpt lat="48.84788" lon="7.34274">
        <ele>319.5</ele>
        <time>2020-06-28T07:59:11Z</time>
      </trkpt>
      <trkpt lat="48.84785" lon="7.34267">
        <ele>317.9</ele>
        <time>2020-06-28T07:59:14Z</time>
      </trkpt>
      <trkpt lat="48.84781" lon="7.34261">
        <ele>317.3</ele>
        <time>2020-06-28T07:59:16Z</time>
      </trkpt>
      <trkpt lat="48.84777" lon="7.34254">
        <ele>316.6</ele>
        <time>2020-06-28T07:59:18Z</time>
      </trkpt>
      <trkpt lat="48.84772" lon="7.34247">
        <ele>316</ele>
        <time>2020-06-28T07:59:20Z</time>
      </trkpt>
      <trkpt lat="48.84763" lon="7.34238">
        <ele>315.8</ele>
        <time>2020-06-28T07:59:22Z</time>
      </trkpt>
      <trkpt lat="48.8475" lon="7.34228">
        <ele>315.3</ele>
        <time>2020-06-28T07:59:24Z</time>
      </trkpt>
      <trkpt lat="48.84738" lon="7.34218">
        <ele>315.2</ele>
        <time>2020-06-28T07:59:26Z</time>
      </trkpt>
      <trkpt lat="48.84728" lon="7.34209">
        <ele>314.4</ele>
        <time>2020-06-28T07:59:28Z</time>
      </trkpt>
      <trkpt lat="48.8472" lon="7.34203">
        <ele>314</ele>
        <time>2020-06-28T07:59:30Z</time>
      </trkpt>
      <trkpt lat="48.84711" lon="7.34196">
        <ele>313.1</ele>
        <time>2020-06-28T07:59:32Z</time>
      </trkpt>
      <trkpt lat="48.84707" lon="7.34192">
        <ele>312.4</ele>
        <time>2020-06-28T07:59:34Z</time>
      </trkpt>
      <trkpt lat="48.84702" lon="7.34188">
        <ele>311.3</ele>
        <time>2020-06-28T07:59:36Z</time>
      </trkpt>
      <trkpt lat="48.847" lon="7.34182">
        <ele>308</ele>
        <time>2020-06-28T07:59:47Z</time>
      </trkpt>
      <trkpt lat="48.84703" lon="7.34186">
        <ele>308.7</ele>
        <time>2020-06-28T08:00:03Z</time>
      </trkpt>
      <trkpt lat="48.84707" lon="7.34194">
        <ele>308.5</ele>
        <time>2020-06-28T08:00:06Z</time>
      </trkpt>
      <trkpt lat="48.84711" lon="7.34209">
        <ele>307.4</ele>
        <time>2020-06-28T08:00:08Z</time>
      </trkpt>
      <trkpt lat="48.84717" lon="7.34228">
        <ele>306.1</ele>
        <time>2020-06-28T08:00:10Z</time>
      </trkpt>
      <trkpt lat="48.84724" lon="7.34251">
        <ele>304.9</ele>
        <time>2020-06-28T08:00:12Z</time>
      </trkpt>
      <trkpt lat="48.84734" lon="7.34276">
        <ele>303.7</ele>
        <time>2020-06-28T08:00:14Z</time>
      </trkpt>
      <trkpt lat="48.8474" lon="7.34299">
        <ele>301.9</ele>
        <time>2020-06-28T08:00:16Z</time>
      </trkpt>
      <trkpt lat="48.84745" lon="7.34321">
        <ele>299.7</ele>
        <time>2020-06-28T08:00:18Z</time>
      </trkpt>
      <trkpt lat="48.84746" lon="7.34343">
        <ele>297.8</ele>
        <time>2020-06-28T08:00:20Z</time>
      </trkpt>
      <trkpt lat="48.84743" lon="7.34364">
        <ele>294.8</ele>
        <time>2020-06-28T08:00:22Z</time>
      </trkpt>
      <trkpt lat="48.84744" lon="7.34384">
        <ele>293.1</ele>
        <time>2020-06-28T08:00:24Z</time>
      </trkpt>
      <trkpt lat="48.84746" lon="7.34395">
        <ele>291.8</ele>
        <time>2020-06-28T08:00:26Z</time>
      </trkpt>
      <trkpt lat="48.8474" lon="7.34396">
        <ele>287.7</ele>
        <time>2020-06-28T08:00:36Z</time>
      </trkpt>
      <trkpt lat="48.84733" lon="7.34399">
        <ele>286.5</ele>
        <time>2020-06-28T08:00:38Z</time>
      </trkpt>
      <trkpt lat="48.84726" lon="7.34403">
        <ele>285.5</ele>
        <time>2020-06-28T08:00:40Z</time>
      </trkpt>
      <trkpt lat="48.84721" lon="7.3441">
        <ele>284.2</ele>
        <time>2020-06-28T08:00:42Z</time>
      </trkpt>
      <trkpt lat="48.84721" lon="7.34421">
        <ele>283.6</ele>
        <time>2020-06-28T08:00:44Z</time>
      </trkpt>
      <trkpt lat="48.84723" lon="7.34432">
        <ele>283.1</ele>
        <time>2020-06-28T08:00:46Z</time>
      </trkpt>
      <trkpt lat="48.84726" lon="7.34443">
        <ele>282.8</ele>
        <time>2020-06-28T08:00:48Z</time>
      </trkpt>
      <trkpt lat="48.84729" lon="7.34456">
        <ele>282.8</ele>
        <time>2020-06-28T08:00:50Z</time>
      </trkpt>
      <trkpt lat="48.84732" lon="7.3447">
        <ele>282.7</ele>
        <time>2020-06-28T08:00:52Z</time>
      </trkpt>
      <trkpt lat="48.84734" lon="7.34483">
        <ele>282.8</ele>
        <time>2020-06-28T08:00:54Z</time>
      </trkpt>
      <trkpt lat="48.84736" lon="7.34502">
        <ele>282.4</ele>
        <time>2020-06-28T08:00:57Z</time>
      </trkpt>
      <trkpt lat="48.84738" lon="7.34515">
        <ele>282.2</ele>
        <time>2020-06-28T08:00:59Z</time>
      </trkpt>
      <trkpt lat="48.84738" lon="7.34529">
        <ele>281.4</ele>
        <time>2020-06-28T08:01:01Z</time>
      </trkpt>
      <trkpt lat="48.84738" lon="7.34542">
        <ele>281.2</ele>
        <time>2020-06-28T08:01:03Z</time>
      </trkpt>
      <trkpt lat="48.84734" lon="7.34563">
        <ele>280.1</ele>
        <time>2020-06-28T08:01:06Z</time>
      </trkpt>
      <trkpt lat="48.84726" lon="7.34582">
        <ele>279.4</ele>
        <time>2020-06-28T08:01:09Z</time>
      </trkpt>
      <trkpt lat="48.8472" lon="7.34594">
        <ele>279.1</ele>
        <time>2020-06-28T08:01:11Z</time>
      </trkpt>
      <trkpt lat="48.84714" lon="7.34605">
        <ele>278.3</ele>
        <time>2020-06-28T08:01:13Z</time>
      </trkpt>
      <trkpt lat="48.84706" lon="7.34617">
        <ele>277.2</ele>
        <time>2020-06-28T08:01:15Z</time>
      </trkpt>
      <trkpt lat="48.84699" lon="7.34629">
        <ele>275.9</ele>
        <time>2020-06-28T08:01:17Z</time>
      </trkpt>
      <trkpt lat="48.84692" lon="7.3464">
        <ele>282.1</ele>
        <time>2020-06-28T08:01:19Z</time>
      </trkpt>
      <trkpt lat="48.84681" lon="7.34657">
        <ele>285.7</ele>
        <time>2020-06-28T08:01:22Z</time>
      </trkpt>
      <trkpt lat="48.84674" lon="7.34666">
        <ele>286.2</ele>
        <time>2020-06-28T08:01:24Z</time>
      </trkpt>
      <trkpt lat="48.84662" lon="7.34679">
        <ele>291.3</ele>
        <time>2020-06-28T08:01:27Z</time>
      </trkpt>
      <trkpt lat="48.84648" lon="7.34683">
        <ele>288.7</ele>
        <time>2020-06-28T08:01:30Z</time>
      </trkpt>
      <trkpt lat="48.84638" lon="7.34687">
        <ele>287.3</ele>
        <time>2020-06-28T08:01:32Z</time>
      </trkpt>
      <trkpt lat="48.84628" lon="7.34693">
        <ele>284.6</ele>
        <time>2020-06-28T08:01:34Z</time>
      </trkpt>
      <trkpt lat="48.84619" lon="7.347">
        <ele>281</ele>
        <time>2020-06-28T08:01:36Z</time>
      </trkpt>
      <trkpt lat="48.84612" lon="7.3471">
        <ele>278.3</ele>
        <time>2020-06-28T08:01:38Z</time>
      </trkpt>
      <trkpt lat="48.84609" lon="7.3473">
        <ele>276.5</ele>
        <time>2020-06-28T08:01:41Z</time>
      </trkpt>
      <trkpt lat="48.84609" lon="7.34744">
        <ele>275.5</ele>
        <time>2020-06-28T08:01:43Z</time>
      </trkpt>
      <trkpt lat="48.84608" lon="7.34757">
        <ele>274.7</ele>
        <time>2020-06-28T08:01:45Z</time>
      </trkpt>
      <trkpt lat="48.84609" lon="7.34772">
        <ele>274.8</ele>
        <time>2020-06-28T08:01:47Z</time>
      </trkpt>
      <trkpt lat="48.84609" lon="7.34785">
        <ele>275.2</ele>
        <time>2020-06-28T08:01:49Z</time>
      </trkpt>
      <trkpt lat="48.84606" lon="7.34798">
        <ele>275.2</ele>
        <time>2020-06-28T08:01:51Z</time>
      </trkpt>
      <trkpt lat="48.84601" lon="7.3481">
        <ele>275.1</ele>
        <time>2020-06-28T08:01:53Z</time>
      </trkpt>
      <trkpt lat="48.84595" lon="7.34822">
        <ele>274.5</ele>
        <time>2020-06-28T08:01:55Z</time>
      </trkpt>
      <trkpt lat="48.84588" lon="7.34831">
        <ele>285.5</ele>
        <time>2020-06-28T08:01:57Z</time>
      </trkpt>
      <trkpt lat="48.84581" lon="7.34837">
        <ele>290.3</ele>
        <time>2020-06-28T08:01:59Z</time>
      </trkpt>
      <trkpt lat="48.84574" lon="7.34841">
        <ele>292.2</ele>
        <time>2020-06-28T08:02:01Z</time>
      </trkpt>
      <trkpt lat="48.84565" lon="7.34845">
        <ele>292</ele>
        <time>2020-06-28T08:02:03Z</time>
      </trkpt>
      <trkpt lat="48.84556" lon="7.34859">
        <ele>305</ele>
        <time>2020-06-28T08:02:06Z</time>
      </trkpt>
      <trkpt lat="48.84557" lon="7.34873">
        <ele>306</ele>
        <time>2020-06-28T08:02:09Z</time>
      </trkpt>
      <trkpt lat="48.8456" lon="7.34883">
        <ele>303.3</ele>
        <time>2020-06-28T08:02:11Z</time>
      </trkpt>
      <trkpt lat="48.84561" lon="7.34896">
        <ele>307.5</ele>
        <time>2020-06-28T08:02:13Z</time>
      </trkpt>
      <trkpt lat="48.84561" lon="7.3491">
        <ele>310.8</ele>
        <time>2020-06-28T08:02:15Z</time>
      </trkpt>
      <trkpt lat="48.84562" lon="7.34927">
        <ele>306.3</ele>
        <time>2020-06-28T08:02:17Z</time>
      </trkpt>
      <trkpt lat="48.84562" lon="7.34942">
        <ele>301.2</ele>
        <time>2020-06-28T08:02:19Z</time>
      </trkpt>
      <trkpt lat="48.84563" lon="7.34958">
        <ele>296.5</ele>
        <time>2020-06-28T08:02:21Z</time>
      </trkpt>
      <trkpt lat="48.84562" lon="7.34973">
        <ele>292</ele>
        <time>2020-06-28T08:02:23Z</time>
      </trkpt>
      <trkpt lat="48.84559" lon="7.34987">
        <ele>294.2</ele>
        <time>2020-06-28T08:02:25Z</time>
      </trkpt>
      <trkpt lat="48.84555" lon="7.35001">
        <ele>289.1</ele>
        <time>2020-06-28T08:02:27Z</time>
      </trkpt>
      <trkpt lat="48.84552" lon="7.35016">
        <ele>286.2</ele>
        <time>2020-06-28T08:02:29Z</time>
      </trkpt>
      <trkpt lat="48.8455" lon="7.35034">
        <ele>282.4</ele>
        <time>2020-06-28T08:02:31Z</time>
      </trkpt>
      <trkpt lat="48.84547" lon="7.35054">
        <ele>278.9</ele>
        <time>2020-06-28T08:02:33Z</time>
      </trkpt>
      <trkpt lat="48.8454" lon="7.35072">
        <ele>275.8</ele>
        <time>2020-06-28T08:02:35Z</time>
      </trkpt>
      <trkpt lat="48.84531" lon="7.3509">
        <ele>274</ele>
        <time>2020-06-28T08:02:37Z</time>
      </trkpt>
      <trkpt lat="48.8452" lon="7.35108">
        <ele>272</ele>
        <time>2020-06-28T08:02:39Z</time>
      </trkpt>
      <trkpt lat="48.8451" lon="7.35127">
        <ele>269.9</ele>
        <time>2020-06-28T08:02:41Z</time>
      </trkpt>
      <trkpt lat="48.84501" lon="7.35145">
        <ele>268.8</ele>
        <time>2020-06-28T08:02:43Z</time>
      </trkpt>
      <trkpt lat="48.84484" lon="7.35161">
        <ele>266.9</ele>
        <time>2020-06-28T08:02:46Z</time>
      </trkpt>
      <trkpt lat="48.84469" lon="7.35169">
        <ele>266</ele>
        <time>2020-06-28T08:02:48Z</time>
      </trkpt>
      <trkpt lat="48.84453" lon="7.35181">
        <ele>264.7</ele>
        <time>2020-06-28T08:02:50Z</time>
      </trkpt>
      <trkpt lat="48.84435" lon="7.35195">
        <ele>263.4</ele>
        <time>2020-06-28T08:02:52Z</time>
      </trkpt>
      <trkpt lat="48.84418" lon="7.35213">
        <ele>262.6</ele>
        <time>2020-06-28T08:02:54Z</time>
      </trkpt>
      <trkpt lat="48.84403" lon="7.35234">
        <ele>261.8</ele>
        <time>2020-06-28T08:02:56Z</time>
      </trkpt>
      <trkpt lat="48.84389" lon="7.35253">
        <ele>259.6</ele>
        <time>2020-06-28T08:02:58Z</time>
      </trkpt>
      <trkpt lat="48.84371" lon="7.35264">
        <ele>257</ele>
        <time>2020-06-28T08:03:00Z</time>
      </trkpt>
      <trkpt lat="48.84352" lon="7.35273">
        <ele>256.3</ele>
        <time>2020-06-28T08:03:02Z</time>
      </trkpt>
      <trkpt lat="48.84333" lon="7.35286">
        <ele>255.9</ele>
        <time>2020-06-28T08:03:04Z</time>
      </trkpt>
      <trkpt lat="48.84321" lon="7.35293">
        <ele>256.2</ele>
        <time>2020-06-28T08:03:06Z</time>
      </trkpt>
      <trkpt lat="48.8431" lon="7.35298">
        <ele>256.6</ele>
        <time>2020-06-28T08:03:08Z</time>
      </trkpt>
      <trkpt lat="48.84303" lon="7.35299">
        <ele>257.3</ele>
        <time>2020-06-28T08:03:10Z</time>
      </trkpt>
      <trkpt lat="48.84298" lon="7.353">
        <ele>257.5</ele>
        <time>2020-06-28T08:03:12Z</time>
      </trkpt>
      <trkpt lat="48.84293" lon="7.35301">
        <ele>257.6</ele>
        <time>2020-06-28T08:03:14Z</time>
      </trkpt>
      <trkpt lat="48.84286" lon="7.353">
        <ele>257.7</ele>
        <time>2020-06-28T08:03:16Z</time>
      </trkpt>
      <trkpt lat="48.8428" lon="7.353">
        <ele>257.2</ele>
        <time>2020-06-28T08:03:19Z</time>
      </trkpt>
      <trkpt lat="48.84275" lon="7.35301">
        <ele>257.4</ele>
        <time>2020-06-28T08:03:22Z</time>
      </trkpt>
      <trkpt lat="48.84268" lon="7.35301">
        <ele>257</ele>
        <time>2020-06-28T08:03:26Z</time>
      </trkpt>
      <trkpt lat="48.84262" lon="7.353">
        <ele>257.5</ele>
        <time>2020-06-28T08:03:30Z</time>
      </trkpt>
      <trkpt lat="48.84257" lon="7.35298">
        <ele>257.9</ele>
        <time>2020-06-28T08:03:32Z</time>
      </trkpt>
      <trkpt lat="48.84253" lon="7.35294">
        <ele>257.4</ele>
        <time>2020-06-28T08:03:34Z</time>
      </trkpt>
      <trkpt lat="48.84247" lon="7.3529">
        <ele>258.4</ele>
        <time>2020-06-28T08:03:37Z</time>
      </trkpt>
      <trkpt lat="48.84242" lon="7.35287">
        <ele>260</ele>
        <time>2020-06-28T08:03:40Z</time>
      </trkpt>
      <trkpt lat="48.84238" lon="7.35285">
        <ele>260.3</ele>
        <time>2020-06-28T08:03:42Z</time>
      </trkpt>
      <trkpt lat="48.84233" lon="7.35283">
        <ele>261.1</ele>
        <time>2020-06-28T08:03:44Z</time>
      </trkpt>
      <trkpt lat="48.84227" lon="7.35281">
        <ele>261.8</ele>
        <time>2020-06-28T08:03:47Z</time>
      </trkpt>
      <trkpt lat="48.84221" lon="7.3528">
        <ele>262.8</ele>
        <time>2020-06-28T08:03:50Z</time>
      </trkpt>
      <trkpt lat="48.84216" lon="7.35277">
        <ele>263</ele>
        <time>2020-06-28T08:03:52Z</time>
      </trkpt>
      <trkpt lat="48.84211" lon="7.35275">
        <ele>263.6</ele>
        <time>2020-06-28T08:03:54Z</time>
      </trkpt>
      <trkpt lat="48.84206" lon="7.35272">
        <ele>264.5</ele>
        <time>2020-06-28T08:03:57Z</time>
      </trkpt>
      <trkpt lat="48.84202" lon="7.3527">
        <ele>264.7</ele>
        <time>2020-06-28T08:03:59Z</time>
      </trkpt>
      <trkpt lat="48.84197" lon="7.35268">
        <ele>265.3</ele>
        <time>2020-06-28T08:04:01Z</time>
      </trkpt>
      <trkpt lat="48.84192" lon="7.35266">
        <ele>265.2</ele>
        <time>2020-06-28T08:04:03Z</time>
      </trkpt>
      <trkpt lat="48.84187" lon="7.35264">
        <ele>265.3</ele>
        <time>2020-06-28T08:04:05Z</time>
      </trkpt>
      <trkpt lat="48.84181" lon="7.35261">
        <ele>264.5</ele>
        <time>2020-06-28T08:04:08Z</time>
      </trkpt>
      <trkpt lat="48.84175" lon="7.35259">
        <ele>264.3</ele>
        <time>2020-06-28T08:04:11Z</time>
      </trkpt>
      <trkpt lat="48.8417" lon="7.35258">
        <ele>264.1</ele>
        <time>2020-06-28T08:04:13Z</time>
      </trkpt>
      <trkpt lat="48.84165" lon="7.35259">
        <ele>263.5</ele>
        <time>2020-06-28T08:04:15Z</time>
      </trkpt>
      <trkpt lat="48.8416" lon="7.35259">
        <ele>263.6</ele>
        <time>2020-06-28T08:04:17Z</time>
      </trkpt>
      <trkpt lat="48.84155" lon="7.35258">
        <ele>263.5</ele>
        <time>2020-06-28T08:04:20Z</time>
      </trkpt>
      <trkpt lat="48.84149" lon="7.35257">
        <ele>263.7</ele>
        <time>2020-06-28T08:04:23Z</time>
      </trkpt>
      <trkpt lat="48.84144" lon="7.35256">
        <ele>264.9</ele>
        <time>2020-06-28T08:04:26Z</time>
      </trkpt>
      <trkpt lat="48.8414" lon="7.35254">
        <ele>265.6</ele>
        <time>2020-06-28T08:04:29Z</time>
      </trkpt>
      <trkpt lat="48.84134" lon="7.35252">
        <ele>266</ele>
        <time>2020-06-28T08:04:32Z</time>
      </trkpt>
      <trkpt lat="48.84128" lon="7.35248">
        <ele>265.7</ele>
        <time>2020-06-28T08:04:35Z</time>
      </trkpt>
      <trkpt lat="48.84122" lon="7.35246">
        <ele>264.1</ele>
        <time>2020-06-28T08:04:37Z</time>
      </trkpt>
      <trkpt lat="48.84116" lon="7.35246">
        <ele>264.1</ele>
        <time>2020-06-28T08:04:39Z</time>
      </trkpt>
      <trkpt lat="48.8411" lon="7.35246">
        <ele>264.6</ele>
        <time>2020-06-28T08:04:41Z</time>
      </trkpt>
      <trkpt lat="48.84104" lon="7.35246">
        <ele>264.8</ele>
        <time>2020-06-28T08:04:43Z</time>
      </trkpt>
      <trkpt lat="48.84099" lon="7.35244">
        <ele>266.1</ele>
        <time>2020-06-28T08:04:45Z</time>
      </trkpt>
      <trkpt lat="48.84094" lon="7.35244">
        <ele>269</ele>
        <time>2020-06-28T08:04:51Z</time>
      </trkpt>
      <trkpt lat="48.84089" lon="7.35245">
        <ele>270</ele>
        <time>2020-06-28T08:04:53Z</time>
      </trkpt>
      <trkpt lat="48.84082" lon="7.35248">
        <ele>270.7</ele>
        <time>2020-06-28T08:04:55Z</time>
      </trkpt>
      <trkpt lat="48.84076" lon="7.3525">
        <ele>271.1</ele>
        <time>2020-06-28T08:04:57Z</time>
      </trkpt>
      <trkpt lat="48.84067" lon="7.3525">
        <ele>272.1</ele>
        <time>2020-06-28T08:05:00Z</time>
      </trkpt>
      <trkpt lat="48.84061" lon="7.35251">
        <ele>272.4</ele>
        <time>2020-06-28T08:05:02Z</time>
      </trkpt>
      <trkpt lat="48.84055" lon="7.35252">
        <ele>272.7</ele>
        <time>2020-06-28T08:05:04Z</time>
      </trkpt>
      <trkpt lat="48.84052" lon="7.35258">
        <ele>270.9</ele>
        <time>2020-06-28T08:05:07Z</time>
      </trkpt>
      <trkpt lat="48.8405" lon="7.35266">
        <ele>270.1</ele>
        <time>2020-06-28T08:05:11Z</time>
      </trkpt>
      <trkpt lat="48.84049" lon="7.35273">
        <ele>269.5</ele>
        <time>2020-06-28T08:05:14Z</time>
      </trkpt>
      <trkpt lat="48.84046" lon="7.3528">
        <ele>269.2</ele>
        <time>2020-06-28T08:05:17Z</time>
      </trkpt>
      <trkpt lat="48.84043" lon="7.35287">
        <ele>272.3</ele>
        <time>2020-06-28T08:05:20Z</time>
      </trkpt>
      <trkpt lat="48.84039" lon="7.35293">
        <ele>274</ele>
        <time>2020-06-28T08:05:23Z</time>
      </trkpt>
      <trkpt lat="48.84034" lon="7.35299">
        <ele>274.8</ele>
        <time>2020-06-28T08:05:26Z</time>
      </trkpt>
      <trkpt lat="48.84029" lon="7.35305">
        <ele>274.9</ele>
        <time>2020-06-28T08:05:29Z</time>
      </trkpt>
      <trkpt lat="48.84023" lon="7.35307">
        <ele>275.7</ele>
        <time>2020-06-28T08:05:32Z</time>
      </trkpt>
      <trkpt lat="48.84018" lon="7.35309">
        <ele>275.8</ele>
        <time>2020-06-28T08:05:34Z</time>
      </trkpt>
      <trkpt lat="48.84015" lon="7.35314">
        <ele>275.9</ele>
        <time>2020-06-28T08:05:37Z</time>
      </trkpt>
      <trkpt lat="48.8401" lon="7.35319">
        <ele>276.6</ele>
        <time>2020-06-28T08:05:41Z</time>
      </trkpt>
      <trkpt lat="48.84005" lon="7.35322">
        <ele>276.8</ele>
        <time>2020-06-28T08:05:45Z</time>
      </trkpt>
      <trkpt lat="48.84002" lon="7.35326">
        <ele>276.4</ele>
        <time>2020-06-28T08:05:53Z</time>
      </trkpt>
      <trkpt lat="48.84" lon="7.35332">
        <ele>275.5</ele>
        <time>2020-06-28T08:05:57Z</time>
      </trkpt>
      <trkpt lat="48.83999" lon="7.3534">
        <ele>277.1</ele>
        <time>2020-06-28T08:06:01Z</time>
      </trkpt>
      <trkpt lat="48.84003" lon="7.35335">
        <ele>280.5</ele>
        <time>2020-06-28T08:06:24Z</time>
      </trkpt>
      <trkpt lat="48.84005" lon="7.35342">
        <ele>280.6</ele>
        <time>2020-06-28T08:06:43Z</time>
      </trkpt>
      <trkpt lat="48.84001" lon="7.35347">
        <ele>279.4</ele>
        <time>2020-06-28T08:06:49Z</time>
      </trkpt>
      <trkpt lat="48.83995" lon="7.3535">
        <ele>279</ele>
        <time>2020-06-28T08:06:52Z</time>
      </trkpt>
      <trkpt lat="48.83991" lon="7.35352">
        <ele>279.2</ele>
        <time>2020-06-28T08:06:55Z</time>
      </trkpt>
      <trkpt lat="48.83984" lon="7.35356">
        <ele>280.3</ele>
        <time>2020-06-28T08:06:58Z</time>
      </trkpt>
      <trkpt lat="48.83979" lon="7.35358">
        <ele>281.1</ele>
        <time>2020-06-28T08:07:00Z</time>
      </trkpt>
      <trkpt lat="48.83973" lon="7.35358">
        <ele>282.8</ele>
        <time>2020-06-28T08:07:03Z</time>
      </trkpt>
      <trkpt lat="48.83969" lon="7.35361">
        <ele>283.6</ele>
        <time>2020-06-28T08:07:08Z</time>
      </trkpt>
      <trkpt lat="48.83967" lon="7.35368">
        <ele>283.6</ele>
        <time>2020-06-28T08:07:14Z</time>
      </trkpt>
      <trkpt lat="48.83963" lon="7.35373">
        <ele>281.8</ele>
        <time>2020-06-28T08:07:18Z</time>
      </trkpt>
      <trkpt lat="48.83961" lon="7.35379">
        <ele>281</ele>
        <time>2020-06-28T08:07:24Z</time>
      </trkpt>
      <trkpt lat="48.83958" lon="7.35386">
        <ele>279.9</ele>
        <time>2020-06-28T08:07:27Z</time>
      </trkpt>
      <trkpt lat="48.83956" lon="7.35392">
        <ele>280.4</ele>
        <time>2020-06-28T08:07:30Z</time>
      </trkpt>
      <trkpt lat="48.83951" lon="7.35397">
        <ele>280</ele>
        <time>2020-06-28T08:07:33Z</time>
      </trkpt>
      <trkpt lat="48.83947" lon="7.35399">
        <ele>279.6</ele>
        <time>2020-06-28T08:07:35Z</time>
      </trkpt>
      <trkpt lat="48.83942" lon="7.35401">
        <ele>279</ele>
        <time>2020-06-28T08:07:37Z</time>
      </trkpt>
      <trkpt lat="48.83937" lon="7.35403">
        <ele>278.3</ele>
        <time>2020-06-28T08:07:39Z</time>
      </trkpt>
      <trkpt lat="48.83933" lon="7.35406">
        <ele>279.2</ele>
        <time>2020-06-28T08:07:41Z</time>
      </trkpt>
      <trkpt lat="48.83928" lon="7.3541">
        <ele>279.4</ele>
        <time>2020-06-28T08:07:43Z</time>
      </trkpt>
      <trkpt lat="48.83922" lon="7.35414">
        <ele>279.9</ele>
        <time>2020-06-28T08:07:45Z</time>
      </trkpt>
      <trkpt lat="48.83916" lon="7.35418">
        <ele>280.5</ele>
        <time>2020-06-28T08:07:47Z</time>
      </trkpt>
      <trkpt lat="48.83912" lon="7.35423">
        <ele>281.2</ele>
        <time>2020-06-28T08:07:49Z</time>
      </trkpt>
      <trkpt lat="48.83909" lon="7.35429">
        <ele>282.1</ele>
        <time>2020-06-28T08:07:52Z</time>
      </trkpt>
      <trkpt lat="48.83907" lon="7.35436">
        <ele>283.6</ele>
        <time>2020-06-28T08:07:57Z</time>
      </trkpt>
      <trkpt lat="48.83903" lon="7.35441">
        <ele>283.3</ele>
        <time>2020-06-28T08:08:00Z</time>
      </trkpt>
      <trkpt lat="48.83901" lon="7.35448">
        <ele>283.1</ele>
        <time>2020-06-28T08:08:04Z</time>
      </trkpt>
      <trkpt lat="48.83895" lon="7.35453">
        <ele>283.2</ele>
        <time>2020-06-28T08:08:07Z</time>
      </trkpt>
      <trkpt lat="48.83892" lon="7.35458">
        <ele>282.8</ele>
        <time>2020-06-28T08:08:09Z</time>
      </trkpt>
      <trkpt lat="48.83888" lon="7.35464">
        <ele>282.7</ele>
        <time>2020-06-28T08:08:11Z</time>
      </trkpt>
      <trkpt lat="48.83886" lon="7.3547">
        <ele>282.9</ele>
        <time>2020-06-28T08:08:13Z</time>
      </trkpt>
      <trkpt lat="48.83881" lon="7.35477">
        <ele>283.1</ele>
        <time>2020-06-28T08:08:16Z</time>
      </trkpt>
      <trkpt lat="48.8388" lon="7.35485">
        <ele>283.4</ele>
        <time>2020-06-28T08:08:20Z</time>
      </trkpt>
      <trkpt lat="48.83878" lon="7.35492">
        <ele>283</ele>
        <time>2020-06-28T08:08:23Z</time>
      </trkpt>
      <trkpt lat="48.83876" lon="7.35498">
        <ele>282.8</ele>
        <time>2020-06-28T08:08:25Z</time>
      </trkpt>
      <trkpt lat="48.83871" lon="7.35503">
        <ele>282.9</ele>
        <time>2020-06-28T08:08:27Z</time>
      </trkpt>
      <trkpt lat="48.83868" lon="7.35508">
        <ele>283.9</ele>
        <time>2020-06-28T08:08:29Z</time>
      </trkpt>
      <trkpt lat="48.83864" lon="7.35513">
        <ele>284.4</ele>
        <time>2020-06-28T08:08:31Z</time>
      </trkpt>
      <trkpt lat="48.83861" lon="7.3552">
        <ele>285.4</ele>
        <time>2020-06-28T08:08:33Z</time>
      </trkpt>
      <trkpt lat="48.83859" lon="7.35526">
        <ele>286.5</ele>
        <time>2020-06-28T08:08:35Z</time>
      </trkpt>
      <trkpt lat="48.83857" lon="7.35534">
        <ele>286.3</ele>
        <time>2020-06-28T08:08:37Z</time>
      </trkpt>
      <trkpt lat="48.83855" lon="7.35541">
        <ele>286.7</ele>
        <time>2020-06-28T08:08:39Z</time>
      </trkpt>
      <trkpt lat="48.83854" lon="7.3555">
        <ele>286.6</ele>
        <time>2020-06-28T08:08:42Z</time>
      </trkpt>
      <trkpt lat="48.83851" lon="7.35557">
        <ele>286.9</ele>
        <time>2020-06-28T08:08:45Z</time>
      </trkpt>
      <trkpt lat="48.83847" lon="7.35562">
        <ele>288.2</ele>
        <time>2020-06-28T08:08:48Z</time>
      </trkpt>
      <trkpt lat="48.83845" lon="7.35568">
        <ele>288.9</ele>
        <time>2020-06-28T08:08:53Z</time>
      </trkpt>
      <trkpt lat="48.83843" lon="7.35576">
        <ele>289.3</ele>
        <time>2020-06-28T08:08:58Z</time>
      </trkpt>
      <trkpt lat="48.83847" lon="7.35582">
        <ele>289.9</ele>
        <time>2020-06-28T08:09:03Z</time>
      </trkpt>
      <trkpt lat="48.83848" lon="7.35589">
        <ele>290.5</ele>
        <time>2020-06-28T08:09:07Z</time>
      </trkpt>
      <trkpt lat="48.83847" lon="7.35596">
        <ele>291.6</ele>
        <time>2020-06-28T08:09:11Z</time>
      </trkpt>
      <trkpt lat="48.83842" lon="7.35601">
        <ele>292.2</ele>
        <time>2020-06-28T08:09:15Z</time>
      </trkpt>
      <trkpt lat="48.83838" lon="7.35604">
        <ele>292.3</ele>
        <time>2020-06-28T08:09:20Z</time>
      </trkpt>
      <trkpt lat="48.83836" lon="7.3561">
        <ele>295.4</ele>
        <time>2020-06-28T08:09:29Z</time>
      </trkpt>
      <trkpt lat="48.83834" lon="7.35618">
        <ele>296.5</ele>
        <time>2020-06-28T08:09:33Z</time>
      </trkpt>
      <trkpt lat="48.83833" lon="7.35625">
        <ele>297.6</ele>
        <time>2020-06-28T08:09:36Z</time>
      </trkpt>
      <trkpt lat="48.83833" lon="7.35634">
        <ele>297.7</ele>
        <time>2020-06-28T08:09:39Z</time>
      </trkpt>
      <trkpt lat="48.83832" lon="7.35641">
        <ele>298</ele>
        <time>2020-06-28T08:09:41Z</time>
      </trkpt>
      <trkpt lat="48.83832" lon="7.35651">
        <ele>298.6</ele>
        <time>2020-06-28T08:09:44Z</time>
      </trkpt>
      <trkpt lat="48.83831" lon="7.35658">
        <ele>299</ele>
        <time>2020-06-28T08:09:46Z</time>
      </trkpt>
      <trkpt lat="48.83831" lon="7.35665">
        <ele>299</ele>
        <time>2020-06-28T08:09:48Z</time>
      </trkpt>
      <trkpt lat="48.83832" lon="7.35672">
        <ele>298.5</ele>
        <time>2020-06-28T08:09:50Z</time>
      </trkpt>
      <trkpt lat="48.83831" lon="7.35682">
        <ele>297.9</ele>
        <time>2020-06-28T08:09:53Z</time>
      </trkpt>
      <trkpt lat="48.83831" lon="7.35691">
        <ele>298.1</ele>
        <time>2020-06-28T08:09:56Z</time>
      </trkpt>
      <trkpt lat="48.83832" lon="7.35699">
        <ele>297.5</ele>
        <time>2020-06-28T08:10:00Z</time>
      </trkpt>
      <trkpt lat="48.83832" lon="7.35706">
        <ele>297.3</ele>
        <time>2020-06-28T08:10:03Z</time>
      </trkpt>
      <trkpt lat="48.83828" lon="7.35713">
        <ele>298.5</ele>
        <time>2020-06-28T08:10:06Z</time>
      </trkpt>
      <trkpt lat="48.83825" lon="7.35718">
        <ele>300.2</ele>
        <time>2020-06-28T08:10:09Z</time>
      </trkpt>
      <trkpt lat="48.83824" lon="7.35725">
        <ele>310.9</ele>
        <time>2020-06-28T08:10:19Z</time>
      </trkpt>
      <trkpt lat="48.83825" lon="7.35731">
        <ele>307</ele>
        <time>2020-06-28T08:10:26Z</time>
      </trkpt>
      <trkpt lat="48.83827" lon="7.3574">
        <ele>306.1</ele>
        <time>2020-06-28T08:10:30Z</time>
      </trkpt>
      <trkpt lat="48.83827" lon="7.35749">
        <ele>305.5</ele>
        <time>2020-06-28T08:10:33Z</time>
      </trkpt>
      <trkpt lat="48.83828" lon="7.35756">
        <ele>303.6</ele>
        <time>2020-06-28T08:10:36Z</time>
      </trkpt>
      <trkpt lat="48.83831" lon="7.35764">
        <ele>302.7</ele>
        <time>2020-06-28T08:10:39Z</time>
      </trkpt>
      <trkpt lat="48.83832" lon="7.35772">
        <ele>301.7</ele>
        <time>2020-06-28T08:10:42Z</time>
      </trkpt>
      <trkpt lat="48.83833" lon="7.35779">
        <ele>301.2</ele>
        <time>2020-06-28T08:10:45Z</time>
      </trkpt>
      <trkpt lat="48.8383" lon="7.35785">
        <ele>301.2</ele>
        <time>2020-06-28T08:10:49Z</time>
      </trkpt>
      <trkpt lat="48.83829" lon="7.35794">
        <ele>300.8</ele>
        <time>2020-06-28T08:10:52Z</time>
      </trkpt>
      <trkpt lat="48.83831" lon="7.35803">
        <ele>301</ele>
        <time>2020-06-28T08:10:55Z</time>
      </trkpt>
      <trkpt lat="48.83831" lon="7.35811">
        <ele>300</ele>
        <time>2020-06-28T08:10:58Z</time>
      </trkpt>
      <trkpt lat="48.83831" lon="7.35819">
        <ele>300.4</ele>
        <time>2020-06-28T08:11:01Z</time>
      </trkpt>
      <trkpt lat="48.83829" lon="7.35829">
        <ele>301.2</ele>
        <time>2020-06-28T08:11:04Z</time>
      </trkpt>
      <trkpt lat="48.83827" lon="7.35839">
        <ele>301.9</ele>
        <time>2020-06-28T08:11:07Z</time>
      </trkpt>
      <trkpt lat="48.83827" lon="7.35846">
        <ele>302.4</ele>
        <time>2020-06-28T08:11:10Z</time>
      </trkpt>
      <trkpt lat="48.83828" lon="7.35854">
        <ele>302.6</ele>
        <time>2020-06-28T08:11:13Z</time>
      </trkpt>
      <trkpt lat="48.83826" lon="7.35863">
        <ele>310.7</ele>
        <time>2020-06-28T08:11:16Z</time>
      </trkpt>
      <trkpt lat="48.83825" lon="7.3587">
        <ele>311.7</ele>
        <time>2020-06-28T08:11:19Z</time>
      </trkpt>
      <trkpt lat="48.83825" lon="7.35878">
        <ele>313.4</ele>
        <time>2020-06-28T08:11:23Z</time>
      </trkpt>
      <trkpt lat="48.83825" lon="7.35886">
        <ele>314</ele>
        <time>2020-06-28T08:11:26Z</time>
      </trkpt>
      <trkpt lat="48.83825" lon="7.35894">
        <ele>313.7</ele>
        <time>2020-06-28T08:11:29Z</time>
      </trkpt>
      <trkpt lat="48.83824" lon="7.35903">
        <ele>312.9</ele>
        <time>2020-06-28T08:11:33Z</time>
      </trkpt>
      <trkpt lat="48.83825" lon="7.35911">
        <ele>312.6</ele>
        <time>2020-06-28T08:11:37Z</time>
      </trkpt>
      <trkpt lat="48.83826" lon="7.35918">
        <ele>312.6</ele>
        <time>2020-06-28T08:11:40Z</time>
      </trkpt>
      <trkpt lat="48.83826" lon="7.35925">
        <ele>312.5</ele>
        <time>2020-06-28T08:11:43Z</time>
      </trkpt>
      <trkpt lat="48.83826" lon="7.35934">
        <ele>313.3</ele>
        <time>2020-06-28T08:11:46Z</time>
      </trkpt>
      <trkpt lat="48.83826" lon="7.35943">
        <ele>318.2</ele>
        <time>2020-06-28T08:11:49Z</time>
      </trkpt>
      <trkpt lat="48.83826" lon="7.35951">
        <ele>319.7</ele>
        <time>2020-06-28T08:11:52Z</time>
      </trkpt>
      <trkpt lat="48.83822" lon="7.35956">
        <ele>320.6</ele>
        <time>2020-06-28T08:11:56Z</time>
      </trkpt>
      <trkpt lat="48.83818" lon="7.35959">
        <ele>321.2</ele>
        <time>2020-06-28T08:11:59Z</time>
      </trkpt>
      <trkpt lat="48.83813" lon="7.35964">
        <ele>321.4</ele>
        <time>2020-06-28T08:12:02Z</time>
      </trkpt>
      <trkpt lat="48.83806" lon="7.35967">
        <ele>322.3</ele>
        <time>2020-06-28T08:12:05Z</time>
      </trkpt>
      <trkpt lat="48.83801" lon="7.35969">
        <ele>323.5</ele>
        <time>2020-06-28T08:12:07Z</time>
      </trkpt>
      <trkpt lat="48.83798" lon="7.35973">
        <ele>324.1</ele>
        <time>2020-06-28T08:12:10Z</time>
      </trkpt>
      <trkpt lat="48.83793" lon="7.35977">
        <ele>324.2</ele>
        <time>2020-06-28T08:12:14Z</time>
      </trkpt>
      <trkpt lat="48.83788" lon="7.35979">
        <ele>325.9</ele>
        <time>2020-06-28T08:12:17Z</time>
      </trkpt>
      <trkpt lat="48.83786" lon="7.35986">
        <ele>324.2</ele>
        <time>2020-06-28T08:12:20Z</time>
      </trkpt>
      <trkpt lat="48.8378" lon="7.35987">
        <ele>323.3</ele>
        <time>2020-06-28T08:12:22Z</time>
      </trkpt>
      <trkpt lat="48.83773" lon="7.35987">
        <ele>321.9</ele>
        <time>2020-06-28T08:12:24Z</time>
      </trkpt>
      <trkpt lat="48.83764" lon="7.35987">
        <ele>319.4</ele>
        <time>2020-06-28T08:12:27Z</time>
      </trkpt>
      <trkpt lat="48.83757" lon="7.35987">
        <ele>318.9</ele>
        <time>2020-06-28T08:12:30Z</time>
      </trkpt>
      <trkpt lat="48.83748" lon="7.35987">
        <ele>318.9</ele>
        <time>2020-06-28T08:12:33Z</time>
      </trkpt>
      <trkpt lat="48.83743" lon="7.3599">
        <ele>317.8</ele>
        <time>2020-06-28T08:12:36Z</time>
      </trkpt>
      <trkpt lat="48.83738" lon="7.3599">
        <ele>316.4</ele>
        <time>2020-06-28T08:12:40Z</time>
      </trkpt>
      <trkpt lat="48.83734" lon="7.35986">
        <ele>317.5</ele>
        <time>2020-06-28T08:12:43Z</time>
      </trkpt>
      <trkpt lat="48.83729" lon="7.35982">
        <ele>318.4</ele>
        <time>2020-06-28T08:12:47Z</time>
      </trkpt>
      <trkpt lat="48.83725" lon="7.35978">
        <ele>318.4</ele>
        <time>2020-06-28T08:12:53Z</time>
      </trkpt>
      <trkpt lat="48.8372" lon="7.35974">
        <ele>318.3</ele>
        <time>2020-06-28T08:12:56Z</time>
      </trkpt>
      <trkpt lat="48.83716" lon="7.3597">
        <ele>318.2</ele>
        <time>2020-06-28T08:12:58Z</time>
      </trkpt>
      <trkpt lat="48.8371" lon="7.35966">
        <ele>316.9</ele>
        <time>2020-06-28T08:13:02Z</time>
      </trkpt>
      <trkpt lat="48.83706" lon="7.35964">
        <ele>316.5</ele>
        <time>2020-06-28T08:13:04Z</time>
      </trkpt>
      <trkpt lat="48.83701" lon="7.35961">
        <ele>316.4</ele>
        <time>2020-06-28T08:13:06Z</time>
      </trkpt>
      <trkpt lat="48.83695" lon="7.35958">
        <ele>318.4</ele>
        <time>2020-06-28T08:13:09Z</time>
      </trkpt>
      <trkpt lat="48.8369" lon="7.35955">
        <ele>319.1</ele>
        <time>2020-06-28T08:13:11Z</time>
      </trkpt>
      <trkpt lat="48.83685" lon="7.35953">
        <ele>318.3</ele>
        <time>2020-06-28T08:13:13Z</time>
      </trkpt>
      <trkpt lat="48.83676" lon="7.35951">
        <ele>317.3</ele>
        <time>2020-06-28T08:13:16Z</time>
      </trkpt>
      <trkpt lat="48.83671" lon="7.35947">
        <ele>316.1</ele>
        <time>2020-06-28T08:13:19Z</time>
      </trkpt>
      <trkpt lat="48.83666" lon="7.35942">
        <ele>315.6</ele>
        <time>2020-06-28T08:13:22Z</time>
      </trkpt>
      <trkpt lat="48.83663" lon="7.35937">
        <ele>314.8</ele>
        <time>2020-06-28T08:13:25Z</time>
      </trkpt>
      <trkpt lat="48.83661" lon="7.35929">
        <ele>315.9</ele>
        <time>2020-06-28T08:13:29Z</time>
      </trkpt>
      <trkpt lat="48.83657" lon="7.35923">
        <ele>318.3</ele>
        <time>2020-06-28T08:13:33Z</time>
      </trkpt>
      <trkpt lat="48.83652" lon="7.3592">
        <ele>318.6</ele>
        <time>2020-06-28T08:13:36Z</time>
      </trkpt>
      <trkpt lat="48.83648" lon="7.35917">
        <ele>319.3</ele>
        <time>2020-06-28T08:13:38Z</time>
      </trkpt>
      <trkpt lat="48.83643" lon="7.35914">
        <ele>320</ele>
        <time>2020-06-28T08:13:41Z</time>
      </trkpt>
      <trkpt lat="48.83638" lon="7.3591">
        <ele>321.1</ele>
        <time>2020-06-28T08:13:44Z</time>
      </trkpt>
      <trkpt lat="48.83634" lon="7.35906">
        <ele>322</ele>
        <time>2020-06-28T08:13:47Z</time>
      </trkpt>
      <trkpt lat="48.83631" lon="7.359">
        <ele>322.4</ele>
        <time>2020-06-28T08:13:51Z</time>
      </trkpt>
      <trkpt lat="48.83626" lon="7.35895">
        <ele>322.9</ele>
        <time>2020-06-28T08:13:55Z</time>
      </trkpt>
      <trkpt lat="48.8362" lon="7.35892">
        <ele>322.5</ele>
        <time>2020-06-28T08:13:59Z</time>
      </trkpt>
      <trkpt lat="48.83613" lon="7.35888">
        <ele>321.6</ele>
        <time>2020-06-28T08:14:02Z</time>
      </trkpt>
      <trkpt lat="48.83606" lon="7.35886">
        <ele>321.1</ele>
        <time>2020-06-28T08:14:04Z</time>
      </trkpt>
      <trkpt lat="48.83599" lon="7.35884">
        <ele>321.3</ele>
        <time>2020-06-28T08:14:06Z</time>
      </trkpt>
      <trkpt lat="48.83595" lon="7.35881">
        <ele>321.8</ele>
        <time>2020-06-28T08:14:08Z</time>
      </trkpt>
      <trkpt lat="48.8359" lon="7.35878">
        <ele>321.7</ele>
        <time>2020-06-28T08:14:10Z</time>
      </trkpt>
      <trkpt lat="48.83586" lon="7.35877">
        <ele>321.4</ele>
        <time>2020-06-28T08:14:12Z</time>
      </trkpt>
      <trkpt lat="48.8358" lon="7.35876">
        <ele>321.6</ele>
        <time>2020-06-28T08:14:15Z</time>
      </trkpt>
      <trkpt lat="48.83575" lon="7.35874">
        <ele>321</ele>
        <time>2020-06-28T08:14:18Z</time>
      </trkpt>
      <trkpt lat="48.8357" lon="7.35871">
        <ele>321.2</ele>
        <time>2020-06-28T08:14:21Z</time>
      </trkpt>
      <trkpt lat="48.83565" lon="7.3587">
        <ele>322</ele>
        <time>2020-06-28T08:14:25Z</time>
      </trkpt>
      <trkpt lat="48.8356" lon="7.35867">
        <ele>322.6</ele>
        <time>2020-06-28T08:14:28Z</time>
      </trkpt>
      <trkpt lat="48.83556" lon="7.35865">
        <ele>323.1</ele>
        <time>2020-06-28T08:14:31Z</time>
      </trkpt>
      <trkpt lat="48.83551" lon="7.35864">
        <ele>323.7</ele>
        <time>2020-06-28T08:14:34Z</time>
      </trkpt>
      <trkpt lat="48.83546" lon="7.35863">
        <ele>325</ele>
        <time>2020-06-28T08:14:37Z</time>
      </trkpt>
      <trkpt lat="48.83541" lon="7.3586">
        <ele>325.8</ele>
        <time>2020-06-28T08:14:41Z</time>
      </trkpt>
      <trkpt lat="48.83537" lon="7.35856">
        <ele>326.7</ele>
        <time>2020-06-28T08:14:44Z</time>
      </trkpt>
      <trkpt lat="48.83533" lon="7.35852">
        <ele>327.4</ele>
        <time>2020-06-28T08:14:46Z</time>
      </trkpt>
      <trkpt lat="48.83527" lon="7.35849">
        <ele>328.9</ele>
        <time>2020-06-28T08:14:49Z</time>
      </trkpt>
      <trkpt lat="48.83521" lon="7.35847">
        <ele>330.6</ele>
        <time>2020-06-28T08:14:52Z</time>
      </trkpt>
      <trkpt lat="48.83515" lon="7.35844">
        <ele>331.4</ele>
        <time>2020-06-28T08:14:56Z</time>
      </trkpt>
      <trkpt lat="48.83509" lon="7.35842">
        <ele>333.1</ele>
        <time>2020-06-28T08:15:00Z</time>
      </trkpt>
      <trkpt lat="48.83504" lon="7.3584">
        <ele>334.1</ele>
        <time>2020-06-28T08:15:03Z</time>
      </trkpt>
      <trkpt lat="48.83499" lon="7.3584">
        <ele>335.2</ele>
        <time>2020-06-28T08:15:06Z</time>
      </trkpt>
      <trkpt lat="48.83494" lon="7.35843">
        <ele>336.5</ele>
        <time>2020-06-28T08:15:10Z</time>
      </trkpt>
      <trkpt lat="48.8349" lon="7.35848">
        <ele>337.1</ele>
        <time>2020-06-28T08:15:13Z</time>
      </trkpt>
      <trkpt lat="48.83488" lon="7.35854">
        <ele>337.4</ele>
        <time>2020-06-28T08:15:16Z</time>
      </trkpt>
      <trkpt lat="48.83487" lon="7.35862">
        <ele>338.4</ele>
        <time>2020-06-28T08:15:22Z</time>
      </trkpt>
      <trkpt lat="48.83491" lon="7.35865">
        <ele>337.3</ele>
        <time>2020-06-28T08:15:32Z</time>
      </trkpt>
      <trkpt lat="48.83494" lon="7.35871">
        <ele>336.5</ele>
        <time>2020-06-28T08:16:11Z</time>
      </trkpt>
      <trkpt lat="48.83499" lon="7.35874">
        <ele>336.8</ele>
        <time>2020-06-28T08:16:17Z</time>
      </trkpt>
      <trkpt lat="48.83501" lon="7.3588">
        <ele>335.9</ele>
        <time>2020-06-28T08:16:23Z</time>
      </trkpt>
      <trkpt lat="48.83498" lon="7.35886">
        <ele>335.3</ele>
        <time>2020-06-28T08:16:29Z</time>
      </trkpt>
      <trkpt lat="48.83496" lon="7.35893">
        <ele>336.3</ele>
        <time>2020-06-28T08:16:35Z</time>
      </trkpt>
      <trkpt lat="48.83493" lon="7.35898">
        <ele>338.6</ele>
        <time>2020-06-28T08:16:44Z</time>
      </trkpt>
      <trkpt lat="48.83488" lon="7.35902">
        <ele>340.1</ele>
        <time>2020-06-28T08:16:48Z</time>
      </trkpt>
      <trkpt lat="48.83484" lon="7.35906">
        <ele>341.3</ele>
        <time>2020-06-28T08:16:51Z</time>
      </trkpt>
      <trkpt lat="48.83478" lon="7.3591">
        <ele>341.9</ele>
        <time>2020-06-28T08:16:54Z</time>
      </trkpt>
      <trkpt lat="48.83473" lon="7.35914">
        <ele>340.4</ele>
        <time>2020-06-28T08:16:57Z</time>
      </trkpt>
      <trkpt lat="48.83469" lon="7.35921">
        <ele>340.2</ele>
        <time>2020-06-28T08:17:01Z</time>
      </trkpt>
      <trkpt lat="48.83465" lon="7.35925">
        <ele>339.6</ele>
        <time>2020-06-28T08:17:05Z</time>
      </trkpt>
      <trkpt lat="48.83461" lon="7.35928">
        <ele>339.8</ele>
        <time>2020-06-28T08:17:13Z</time>
      </trkpt>
      <trkpt lat="48.83456" lon="7.3593">
        <ele>338.8</ele>
        <time>2020-06-28T08:17:30Z</time>
      </trkpt>
      <trkpt lat="48.83453" lon="7.35934">
        <ele>338.2</ele>
        <time>2020-06-28T08:17:43Z</time>
      </trkpt>
      <trkpt lat="48.8345" lon="7.3594">
        <ele>338</ele>
        <time>2020-06-28T08:17:47Z</time>
      </trkpt>
      <trkpt lat="48.83447" lon="7.35946">
        <ele>339.2</ele>
        <time>2020-06-28T08:17:50Z</time>
      </trkpt>
      <trkpt lat="48.83443" lon="7.35953">
        <ele>339.6</ele>
        <time>2020-06-28T08:17:53Z</time>
      </trkpt>
      <trkpt lat="48.83441" lon="7.3596">
        <ele>339.5</ele>
        <time>2020-06-28T08:17:55Z</time>
      </trkpt>
      <trkpt lat="48.8344" lon="7.35967">
        <ele>339.7</ele>
        <time>2020-06-28T08:17:57Z</time>
      </trkpt>
      <trkpt lat="48.83439" lon="7.35976">
        <ele>339.2</ele>
        <time>2020-06-28T08:18:00Z</time>
      </trkpt>
      <trkpt lat="48.83437" lon="7.35985">
        <ele>338.3</ele>
        <time>2020-06-28T08:18:03Z</time>
      </trkpt>
      <trkpt lat="48.83435" lon="7.35992">
        <ele>337.5</ele>
        <time>2020-06-28T08:18:07Z</time>
      </trkpt>
      <trkpt lat="48.83434" lon="7.35999">
        <ele>336.9</ele>
        <time>2020-06-28T08:18:17Z</time>
      </trkpt>
      <trkpt lat="48.83433" lon="7.36006">
        <ele>338.8</ele>
        <time>2020-06-28T08:18:22Z</time>
      </trkpt>
      <trkpt lat="48.83435" lon="7.36013">
        <ele>340.8</ele>
        <time>2020-06-28T08:18:25Z</time>
      </trkpt>
      <trkpt lat="48.83432" lon="7.3602">
        <ele>342.2</ele>
        <time>2020-06-28T08:18:29Z</time>
      </trkpt>
      <trkpt lat="48.8343" lon="7.36027">
        <ele>343.2</ele>
        <time>2020-06-28T08:18:32Z</time>
      </trkpt>
      <trkpt lat="48.83429" lon="7.36035">
        <ele>345.8</ele>
        <time>2020-06-28T08:18:35Z</time>
      </trkpt>
      <trkpt lat="48.83427" lon="7.36043">
        <ele>348.1</ele>
        <time>2020-06-28T08:18:38Z</time>
      </trkpt>
      <trkpt lat="48.83425" lon="7.36052">
        <ele>350.3</ele>
        <time>2020-06-28T08:18:41Z</time>
      </trkpt>
      <trkpt lat="48.83424" lon="7.36059">
        <ele>352.2</ele>
        <time>2020-06-28T08:18:44Z</time>
      </trkpt>
      <trkpt lat="48.83421" lon="7.36066">
        <ele>354.1</ele>
        <time>2020-06-28T08:18:47Z</time>
      </trkpt>
      <trkpt lat="48.83421" lon="7.36075">
        <ele>355.6</ele>
        <time>2020-06-28T08:18:50Z</time>
      </trkpt>
      <trkpt lat="48.83422" lon="7.36083">
        <ele>356.6</ele>
        <time>2020-06-28T08:18:53Z</time>
      </trkpt>
      <trkpt lat="48.83423" lon="7.36092">
        <ele>356.6</ele>
        <time>2020-06-28T08:18:57Z</time>
      </trkpt>
      <trkpt lat="48.8342" lon="7.36097">
        <ele>356.2</ele>
        <time>2020-06-28T08:19:02Z</time>
      </trkpt>
      <trkpt lat="48.83419" lon="7.36104">
        <ele>351.3</ele>
        <time>2020-06-28T08:19:10Z</time>
      </trkpt>
      <trkpt lat="48.83418" lon="7.36111">
        <ele>353</ele>
        <time>2020-06-28T08:19:15Z</time>
      </trkpt>
      <trkpt lat="48.83416" lon="7.36119">
        <ele>351.6</ele>
        <time>2020-06-28T08:19:19Z</time>
      </trkpt>
      <trkpt lat="48.83414" lon="7.36125">
        <ele>355.6</ele>
        <time>2020-06-28T08:19:27Z</time>
      </trkpt>
      <trkpt lat="48.83412" lon="7.36132">
        <ele>359</ele>
        <time>2020-06-28T08:19:32Z</time>
      </trkpt>
      <trkpt lat="48.83409" lon="7.36139">
        <ele>355.2</ele>
        <time>2020-06-28T08:19:36Z</time>
      </trkpt>
      <trkpt lat="48.83407" lon="7.36145">
        <ele>345.4</ele>
        <time>2020-06-28T08:19:39Z</time>
      </trkpt>
      <trkpt lat="48.83407" lon="7.36155">
        <ele>346</ele>
        <time>2020-06-28T08:19:42Z</time>
      </trkpt>
      <trkpt lat="48.83409" lon="7.36163">
        <ele>349</ele>
        <time>2020-06-28T08:19:45Z</time>
      </trkpt>
      <trkpt lat="48.83408" lon="7.36172">
        <ele>352.4</ele>
        <time>2020-06-28T08:19:48Z</time>
      </trkpt>
      <trkpt lat="48.83407" lon="7.36179">
        <ele>354.9</ele>
        <time>2020-06-28T08:19:51Z</time>
      </trkpt>
      <trkpt lat="48.83405" lon="7.36187">
        <ele>345.5</ele>
        <time>2020-06-28T08:19:55Z</time>
      </trkpt>
      <trkpt lat="48.83404" lon="7.36194">
        <ele>347.1</ele>
        <time>2020-06-28T08:19:58Z</time>
      </trkpt>
      <trkpt lat="48.83401" lon="7.362">
        <ele>352.5</ele>
        <time>2020-06-28T08:20:01Z</time>
      </trkpt>
      <trkpt lat="48.834" lon="7.36207">
        <ele>359</ele>
        <time>2020-06-28T08:20:05Z</time>
      </trkpt>
      <trkpt lat="48.83399" lon="7.36214">
        <ele>349.8</ele>
        <time>2020-06-28T08:20:11Z</time>
      </trkpt>
      <trkpt lat="48.83401" lon="7.36223">
        <ele>351.8</ele>
        <time>2020-06-28T08:20:15Z</time>
      </trkpt>
      <trkpt lat="48.83403" lon="7.36231">
        <ele>354.4</ele>
        <time>2020-06-28T08:20:19Z</time>
      </trkpt>
      <trkpt lat="48.83401" lon="7.36239">
        <ele>357.7</ele>
        <time>2020-06-28T08:20:26Z</time>
      </trkpt>
      <trkpt lat="48.83398" lon="7.36244">
        <ele>358.6</ele>
        <time>2020-06-28T08:20:29Z</time>
      </trkpt>
      <trkpt lat="48.83396" lon="7.3625">
        <ele>359.6</ele>
        <time>2020-06-28T08:20:33Z</time>
      </trkpt>
      <trkpt lat="48.83396" lon="7.36257">
        <ele>360.4</ele>
        <time>2020-06-28T08:20:37Z</time>
      </trkpt>
      <trkpt lat="48.83392" lon="7.36264">
        <ele>361.6</ele>
        <time>2020-06-28T08:20:41Z</time>
      </trkpt>
      <trkpt lat="48.83388" lon="7.36269">
        <ele>343.8</ele>
        <time>2020-06-28T08:20:44Z</time>
      </trkpt>
      <trkpt lat="48.83385" lon="7.36275">
        <ele>338.9</ele>
        <time>2020-06-28T08:20:48Z</time>
      </trkpt>
      <trkpt lat="48.83382" lon="7.36282">
        <ele>346.9</ele>
        <time>2020-06-28T08:20:54Z</time>
      </trkpt>
      <trkpt lat="48.83377" lon="7.36284">
        <ele>356.2</ele>
        <time>2020-06-28T08:20:58Z</time>
      </trkpt>
      <trkpt lat="48.83371" lon="7.36283">
        <ele>363.2</ele>
        <time>2020-06-28T08:21:01Z</time>
      </trkpt>
      <trkpt lat="48.83366" lon="7.36283">
        <ele>368.1</ele>
        <time>2020-06-28T08:21:04Z</time>
      </trkpt>
      <trkpt lat="48.8336" lon="7.36283">
        <ele>351.3</ele>
        <time>2020-06-28T08:21:07Z</time>
      </trkpt>
      <trkpt lat="48.83353" lon="7.36283">
        <ele>352.5</ele>
        <time>2020-06-28T08:21:10Z</time>
      </trkpt>
      <trkpt lat="48.83348" lon="7.36283">
        <ele>340.9</ele>
        <time>2020-06-28T08:21:12Z</time>
      </trkpt>
      <trkpt lat="48.83343" lon="7.36282">
        <ele>343.9</ele>
        <time>2020-06-28T08:21:15Z</time>
      </trkpt>
      <trkpt lat="48.83336" lon="7.36282">
        <ele>352</ele>
        <time>2020-06-28T08:21:18Z</time>
      </trkpt>
      <trkpt lat="48.8333" lon="7.36282">
        <ele>359.5</ele>
        <time>2020-06-28T08:21:21Z</time>
      </trkpt>
      <trkpt lat="48.83324" lon="7.36281">
        <ele>366.5</ele>
        <time>2020-06-28T08:21:24Z</time>
      </trkpt>
      <trkpt lat="48.83317" lon="7.36278">
        <ele>372</ele>
        <time>2020-06-28T08:21:27Z</time>
      </trkpt>
      <trkpt lat="48.83311" lon="7.36275">
        <ele>373.7</ele>
        <time>2020-06-28T08:21:29Z</time>
      </trkpt>
      <trkpt lat="48.83306" lon="7.36272">
        <ele>375.6</ele>
        <time>2020-06-28T08:21:31Z</time>
      </trkpt>
      <trkpt lat="48.83301" lon="7.36269">
        <ele>377.1</ele>
        <time>2020-06-28T08:21:33Z</time>
      </trkpt>
      <trkpt lat="48.83296" lon="7.36268">
        <ele>378.2</ele>
        <time>2020-06-28T08:21:36Z</time>
      </trkpt>
      <trkpt lat="48.83291" lon="7.36269">
        <ele>381.7</ele>
        <time>2020-06-28T08:21:44Z</time>
      </trkpt>
      <trkpt lat="48.83286" lon="7.36267">
        <ele>368.3</ele>
        <time>2020-06-28T08:21:48Z</time>
      </trkpt>
      <trkpt lat="48.83281" lon="7.36263">
        <ele>373.3</ele>
        <time>2020-06-28T08:21:54Z</time>
      </trkpt>
      <trkpt lat="48.83276" lon="7.36259">
        <ele>376.4</ele>
        <time>2020-06-28T08:21:57Z</time>
      </trkpt>
      <trkpt lat="48.83271" lon="7.36258">
        <ele>369</ele>
        <time>2020-06-28T08:21:59Z</time>
      </trkpt>
      <trkpt lat="48.83265" lon="7.36257">
        <ele>370.3</ele>
        <time>2020-06-28T08:22:02Z</time>
      </trkpt>
      <trkpt lat="48.83259" lon="7.36257">
        <ele>372.8</ele>
        <time>2020-06-28T08:22:05Z</time>
      </trkpt>
      <trkpt lat="48.83254" lon="7.36255">
        <ele>375.6</ele>
        <time>2020-06-28T08:22:08Z</time>
      </trkpt>
      <trkpt lat="48.83249" lon="7.36255">
        <ele>379</ele>
        <time>2020-06-28T08:22:11Z</time>
      </trkpt>
      <trkpt lat="48.83245" lon="7.36254">
        <ele>381.1</ele>
        <time>2020-06-28T08:22:14Z</time>
      </trkpt>
      <trkpt lat="48.83238" lon="7.3625">
        <ele>382.6</ele>
        <time>2020-06-28T08:22:17Z</time>
      </trkpt>
      <trkpt lat="48.83233" lon="7.36246">
        <ele>384</ele>
        <time>2020-06-28T08:22:20Z</time>
      </trkpt>
      <trkpt lat="48.83229" lon="7.36242">
        <ele>385.2</ele>
        <time>2020-06-28T08:22:24Z</time>
      </trkpt>
      <trkpt lat="48.83225" lon="7.36239">
        <ele>385.1</ele>
        <time>2020-06-28T08:22:27Z</time>
      </trkpt>
      <trkpt lat="48.83219" lon="7.36239">
        <ele>384.7</ele>
        <time>2020-06-28T08:22:31Z</time>
      </trkpt>
      <trkpt lat="48.83214" lon="7.3624">
        <ele>384.3</ele>
        <time>2020-06-28T08:22:34Z</time>
      </trkpt>
      <trkpt lat="48.83208" lon="7.36241">
        <ele>383.7</ele>
        <time>2020-06-28T08:22:38Z</time>
      </trkpt>
      <trkpt lat="48.83203" lon="7.36241">
        <ele>382.6</ele>
        <time>2020-06-28T08:22:42Z</time>
      </trkpt>
      <trkpt lat="48.83197" lon="7.36241">
        <ele>382.3</ele>
        <time>2020-06-28T08:22:46Z</time>
      </trkpt>
      <trkpt lat="48.83192" lon="7.3624">
        <ele>382.9</ele>
        <time>2020-06-28T08:22:48Z</time>
      </trkpt>
      <trkpt lat="48.83187" lon="7.36238">
        <ele>383.3</ele>
        <time>2020-06-28T08:22:50Z</time>
      </trkpt>
      <trkpt lat="48.83181" lon="7.36238">
        <ele>383.6</ele>
        <time>2020-06-28T08:22:53Z</time>
      </trkpt>
      <trkpt lat="48.83177" lon="7.36237">
        <ele>383.6</ele>
        <time>2020-06-28T08:22:55Z</time>
      </trkpt>
      <trkpt lat="48.83166" lon="7.36231">
        <ele>383.5</ele>
        <time>2020-06-28T08:22:58Z</time>
      </trkpt>
      <trkpt lat="48.83158" lon="7.36226">
        <ele>383.2</ele>
        <time>2020-06-28T08:22:59Z</time>
      </trkpt>
      <trkpt lat="48.83147" lon="7.36217">
        <ele>382.9</ele>
        <time>2020-06-28T08:23:01Z</time>
      </trkpt>
      <trkpt lat="48.83137" lon="7.36206">
        <ele>382.2</ele>
        <time>2020-06-28T08:23:03Z</time>
      </trkpt>
      <trkpt lat="48.83127" lon="7.36194">
        <ele>381.6</ele>
        <time>2020-06-28T08:23:05Z</time>
      </trkpt>
      <trkpt lat="48.83116" lon="7.36184">
        <ele>380.7</ele>
        <time>2020-06-28T08:23:07Z</time>
      </trkpt>
      <trkpt lat="48.83104" lon="7.36176">
        <ele>380.2</ele>
        <time>2020-06-28T08:23:09Z</time>
      </trkpt>
      <trkpt lat="48.83094" lon="7.36172">
        <ele>380.2</ele>
        <time>2020-06-28T08:23:12Z</time>
      </trkpt>
      <trkpt lat="48.83086" lon="7.36168">
        <ele>379.9</ele>
        <time>2020-06-28T08:23:14Z</time>
      </trkpt>
      <trkpt lat="48.8308" lon="7.36164">
        <ele>379.6</ele>
        <time>2020-06-28T08:23:15Z</time>
      </trkpt>
      <trkpt lat="48.83074" lon="7.36162">
        <ele>379.2</ele>
        <time>2020-06-28T08:23:17Z</time>
      </trkpt>
      <trkpt lat="48.8307" lon="7.36158">
        <ele>378.7</ele>
        <time>2020-06-28T08:23:27Z</time>
      </trkpt>
      <trkpt lat="48.83066" lon="7.36156">
        <ele>381.5</ele>
        <time>2020-06-28T08:24:22Z</time>
      </trkpt>
      <trkpt lat="48.83063" lon="7.36151">
        <ele>383.5</ele>
        <time>2020-06-28T08:24:49Z</time>
      </trkpt>
      <trkpt lat="48.83063" lon="7.36158">
        <ele>385.1</ele>
        <time>2020-06-28T08:27:33Z</time>
      </trkpt>
      <trkpt lat="48.83057" lon="7.36157">
        <ele>384.8</ele>
        <time>2020-06-28T08:27:45Z</time>
      </trkpt>
      <trkpt lat="48.83052" lon="7.36153">
        <ele>382.7</ele>
        <time>2020-06-28T08:27:51Z</time>
      </trkpt>
      <trkpt lat="48.83047" lon="7.36153">
        <ele>380.2</ele>
        <time>2020-06-28T08:27:56Z</time>
      </trkpt>
      <trkpt lat="48.83042" lon="7.36151">
        <ele>378.5</ele>
        <time>2020-06-28T08:28:00Z</time>
      </trkpt>
      <trkpt lat="48.83036" lon="7.3615">
        <ele>376.3</ele>
        <time>2020-06-28T08:28:03Z</time>
      </trkpt>
      <trkpt lat="48.8303" lon="7.36149">
        <ele>374.7</ele>
        <time>2020-06-28T08:28:06Z</time>
      </trkpt>
      <trkpt lat="48.83026" lon="7.36149">
        <ele>373.5</ele>
        <time>2020-06-28T08:28:07Z</time>
      </trkpt>
      <trkpt lat="48.83018" lon="7.36153">
        <ele>373.4</ele>
        <time>2020-06-28T08:28:09Z</time>
      </trkpt>
      <trkpt lat="48.8301" lon="7.36159">
        <ele>373.3</ele>
        <time>2020-06-28T08:28:11Z</time>
      </trkpt>
      <trkpt lat="48.83002" lon="7.36167">
        <ele>373.6</ele>
        <time>2020-06-28T08:28:13Z</time>
      </trkpt>
      <trkpt lat="48.82993" lon="7.36175">
        <ele>374.1</ele>
        <time>2020-06-28T08:28:15Z</time>
      </trkpt>
      <trkpt lat="48.82976" lon="7.36182">
        <ele>374.1</ele>
        <time>2020-06-28T08:28:17Z</time>
      </trkpt>
      <trkpt lat="48.8296" lon="7.36189">
        <ele>374</ele>
        <time>2020-06-28T08:28:19Z</time>
      </trkpt>
      <trkpt lat="48.82943" lon="7.36196">
        <ele>373.5</ele>
        <time>2020-06-28T08:28:22Z</time>
      </trkpt>
      <trkpt lat="48.82928" lon="7.36196">
        <ele>372.3</ele>
        <time>2020-06-28T08:28:23Z</time>
      </trkpt>
      <trkpt lat="48.82917" lon="7.36193">
        <ele>370.7</ele>
        <time>2020-06-28T08:28:25Z</time>
      </trkpt>
      <trkpt lat="48.82909" lon="7.36187">
        <ele>369.4</ele>
        <time>2020-06-28T08:28:27Z</time>
      </trkpt>
      <trkpt lat="48.829" lon="7.3618">
        <ele>368.4</ele>
        <time>2020-06-28T08:28:29Z</time>
      </trkpt>
      <trkpt lat="48.82892" lon="7.36181">
        <ele>367.6</ele>
        <time>2020-06-28T08:28:31Z</time>
      </trkpt>
      <trkpt lat="48.8289" lon="7.36189">
        <ele>365.6</ele>
        <time>2020-06-28T08:28:34Z</time>
      </trkpt>
      <trkpt lat="48.82893" lon="7.36197">
        <ele>364.9</ele>
        <time>2020-06-28T08:28:36Z</time>
      </trkpt>
      <trkpt lat="48.82898" lon="7.36207">
        <ele>364.6</ele>
        <time>2020-06-28T08:28:39Z</time>
      </trkpt>
      <trkpt lat="48.82903" lon="7.36216">
        <ele>364.2</ele>
        <time>2020-06-28T08:28:41Z</time>
      </trkpt>
      <trkpt lat="48.82905" lon="7.36225">
        <ele>364.1</ele>
        <time>2020-06-28T08:28:42Z</time>
      </trkpt>
      <trkpt lat="48.82903" lon="7.36231">
        <ele>363.7</ele>
        <time>2020-06-28T08:28:44Z</time>
      </trkpt>
      <trkpt lat="48.82895" lon="7.36232">
        <ele>363.1</ele>
        <time>2020-06-28T08:28:46Z</time>
      </trkpt>
      <trkpt lat="48.82885" lon="7.36231">
        <ele>362</ele>
        <time>2020-06-28T08:28:48Z</time>
      </trkpt>
      <trkpt lat="48.82874" lon="7.3623">
        <ele>360.6</ele>
        <time>2020-06-28T08:28:50Z</time>
      </trkpt>
      <trkpt lat="48.82862" lon="7.36231">
        <ele>359.8</ele>
        <time>2020-06-28T08:28:52Z</time>
      </trkpt>
      <trkpt lat="48.82852" lon="7.36232">
        <ele>358.7</ele>
        <time>2020-06-28T08:28:54Z</time>
      </trkpt>
      <trkpt lat="48.82842" lon="7.36233">
        <ele>357.8</ele>
        <time>2020-06-28T08:28:56Z</time>
      </trkpt>
      <trkpt lat="48.82835" lon="7.36233">
        <ele>356.9</ele>
        <time>2020-06-28T08:28:59Z</time>
      </trkpt>
      <trkpt lat="48.82829" lon="7.36231">
        <ele>356.3</ele>
        <time>2020-06-28T08:29:00Z</time>
      </trkpt>
      <trkpt lat="48.82821" lon="7.36231">
        <ele>355.6</ele>
        <time>2020-06-28T08:29:02Z</time>
      </trkpt>
      <trkpt lat="48.82812" lon="7.36232">
        <ele>355.1</ele>
        <time>2020-06-28T08:29:04Z</time>
      </trkpt>
      <trkpt lat="48.82806" lon="7.36233">
        <ele>354.6</ele>
        <time>2020-06-28T08:29:06Z</time>
      </trkpt>
      <trkpt lat="48.82801" lon="7.36235">
        <ele>354.1</ele>
        <time>2020-06-28T08:29:08Z</time>
      </trkpt>
      <trkpt lat="48.82795" lon="7.36237">
        <ele>353.8</ele>
        <time>2020-06-28T08:29:11Z</time>
      </trkpt>
      <trkpt lat="48.82787" lon="7.3624">
        <ele>353.4</ele>
        <time>2020-06-28T08:29:12Z</time>
      </trkpt>
      <trkpt lat="48.8278" lon="7.36245">
        <ele>353.1</ele>
        <time>2020-06-28T08:29:14Z</time>
      </trkpt>
      <trkpt lat="48.82768" lon="7.3625">
        <ele>352.6</ele>
        <time>2020-06-28T08:29:16Z</time>
      </trkpt>
      <trkpt lat="48.82756" lon="7.36254">
        <ele>352.2</ele>
        <time>2020-06-28T08:29:18Z</time>
      </trkpt>
      <trkpt lat="48.8274" lon="7.36257">
        <ele>351.5</ele>
        <time>2020-06-28T08:29:21Z</time>
      </trkpt>
      <trkpt lat="48.82724" lon="7.36259">
        <ele>351</ele>
        <time>2020-06-28T08:29:22Z</time>
      </trkpt>
      <trkpt lat="48.82708" lon="7.36258">
        <ele>350.6</ele>
        <time>2020-06-28T08:29:24Z</time>
      </trkpt>
      <trkpt lat="48.82694" lon="7.36257">
        <ele>349.7</ele>
        <time>2020-06-28T08:29:26Z</time>
      </trkpt>
      <trkpt lat="48.82681" lon="7.36255">
        <ele>349.2</ele>
        <time>2020-06-28T08:29:28Z</time>
      </trkpt>
      <trkpt lat="48.82672" lon="7.36255">
        <ele>348.8</ele>
        <time>2020-06-28T08:29:30Z</time>
      </trkpt>
      <trkpt lat="48.82663" lon="7.36253">
        <ele>349.1</ele>
        <time>2020-06-28T08:29:33Z</time>
      </trkpt>
      <trkpt lat="48.82657" lon="7.36252">
        <ele>356.8</ele>
        <time>2020-06-28T08:29:35Z</time>
      </trkpt>
      <trkpt lat="48.82649" lon="7.36255">
        <ele>361.1</ele>
        <time>2020-06-28T08:29:36Z</time>
      </trkpt>
      <trkpt lat="48.82642" lon="7.36257">
        <ele>361.1</ele>
        <time>2020-06-28T08:29:38Z</time>
      </trkpt>
      <trkpt lat="48.82631" lon="7.36255">
        <ele>360.2</ele>
        <time>2020-06-28T08:29:40Z</time>
      </trkpt>
      <trkpt lat="48.82623" lon="7.36254">
        <ele>358.5</ele>
        <time>2020-06-28T08:29:43Z</time>
      </trkpt>
      <trkpt lat="48.82616" lon="7.36253">
        <ele>356.1</ele>
        <time>2020-06-28T08:29:44Z</time>
      </trkpt>
      <trkpt lat="48.82608" lon="7.36251">
        <ele>353.7</ele>
        <time>2020-06-28T08:29:46Z</time>
      </trkpt>
      <trkpt lat="48.82601" lon="7.36249">
        <ele>352.4</ele>
        <time>2020-06-28T08:29:49Z</time>
      </trkpt>
      <trkpt lat="48.82593" lon="7.36245">
        <ele>351.3</ele>
        <time>2020-06-28T08:29:50Z</time>
      </trkpt>
      <trkpt lat="48.82585" lon="7.36245">
        <ele>349.8</ele>
        <time>2020-06-28T08:29:52Z</time>
      </trkpt>
      <trkpt lat="48.82578" lon="7.36248">
        <ele>348.6</ele>
        <time>2020-06-28T08:29:54Z</time>
      </trkpt>
      <trkpt lat="48.82572" lon="7.36253">
        <ele>345.7</ele>
        <time>2020-06-28T08:29:56Z</time>
      </trkpt>
      <trkpt lat="48.82562" lon="7.36257">
        <ele>342.3</ele>
        <time>2020-06-28T08:29:58Z</time>
      </trkpt>
      <trkpt lat="48.8255" lon="7.36261">
        <ele>339</ele>
        <time>2020-06-28T08:30:00Z</time>
      </trkpt>
      <trkpt lat="48.82538" lon="7.36265">
        <ele>335.4</ele>
        <time>2020-06-28T08:30:02Z</time>
      </trkpt>
      <trkpt lat="48.82526" lon="7.36267">
        <ele>332.7</ele>
        <time>2020-06-28T08:30:04Z</time>
      </trkpt>
      <trkpt lat="48.82514" lon="7.36267">
        <ele>330.8</ele>
        <time>2020-06-28T08:30:06Z</time>
      </trkpt>
      <trkpt lat="48.82504" lon="7.36264">
        <ele>328.9</ele>
        <time>2020-06-28T08:30:08Z</time>
      </trkpt>
      <trkpt lat="48.82495" lon="7.36259">
        <ele>336.9</ele>
        <time>2020-06-28T08:30:10Z</time>
      </trkpt>
      <trkpt lat="48.82484" lon="7.36255">
        <ele>336.4</ele>
        <time>2020-06-28T08:30:13Z</time>
      </trkpt>
      <trkpt lat="48.82478" lon="7.36252">
        <ele>334.2</ele>
        <time>2020-06-28T08:30:14Z</time>
      </trkpt>
      <trkpt lat="48.82471" lon="7.36255">
        <ele>331.2</ele>
        <time>2020-06-28T08:30:16Z</time>
      </trkpt>
      <trkpt lat="48.82465" lon="7.36261">
        <ele>328.3</ele>
        <time>2020-06-28T08:30:18Z</time>
      </trkpt>
      <trkpt lat="48.82461" lon="7.36269">
        <ele>326</ele>
        <time>2020-06-28T08:30:21Z</time>
      </trkpt>
      <trkpt lat="48.82456" lon="7.36278">
        <ele>324.2</ele>
        <time>2020-06-28T08:30:22Z</time>
      </trkpt>
      <trkpt lat="48.82451" lon="7.36285">
        <ele>322.6</ele>
        <time>2020-06-28T08:30:24Z</time>
      </trkpt>
      <trkpt lat="48.8245" lon="7.36297">
        <ele>321.1</ele>
        <time>2020-06-28T08:30:26Z</time>
      </trkpt>
      <trkpt lat="48.82448" lon="7.36309">
        <ele>319.3</ele>
        <time>2020-06-28T08:30:28Z</time>
      </trkpt>
      <trkpt lat="48.82444" lon="7.36321">
        <ele>317.2</ele>
        <time>2020-06-28T08:30:30Z</time>
      </trkpt>
      <trkpt lat="48.82439" lon="7.36335">
        <ele>315.4</ele>
        <time>2020-06-28T08:30:32Z</time>
      </trkpt>
      <trkpt lat="48.82436" lon="7.36347">
        <ele>314</ele>
        <time>2020-06-28T08:30:35Z</time>
      </trkpt>
      <trkpt lat="48.82436" lon="7.36359">
        <ele>311.9</ele>
        <time>2020-06-28T08:30:36Z</time>
      </trkpt>
      <trkpt lat="48.82435" lon="7.36372">
        <ele>310.8</ele>
        <time>2020-06-28T08:30:38Z</time>
      </trkpt>
      <trkpt lat="48.82432" lon="7.36386">
        <ele>309.8</ele>
        <time>2020-06-28T08:30:40Z</time>
      </trkpt>
      <trkpt lat="48.82429" lon="7.364">
        <ele>308.6</ele>
        <time>2020-06-28T08:30:43Z</time>
      </trkpt>
      <trkpt lat="48.82425" lon="7.36414">
        <ele>308</ele>
        <time>2020-06-28T08:30:44Z</time>
      </trkpt>
      <trkpt lat="48.82421" lon="7.3643">
        <ele>307.4</ele>
        <time>2020-06-28T08:30:46Z</time>
      </trkpt>
      <trkpt lat="48.82419" lon="7.36447">
        <ele>307.3</ele>
        <time>2020-06-28T08:30:48Z</time>
      </trkpt>
      <trkpt lat="48.82415" lon="7.36461">
        <ele>307.3</ele>
        <time>2020-06-28T08:30:50Z</time>
      </trkpt>
      <trkpt lat="48.82412" lon="7.36474">
        <ele>305.9</ele>
        <time>2020-06-28T08:30:52Z</time>
      </trkpt>
      <trkpt lat="48.8241" lon="7.36488">
        <ele>305.2</ele>
        <time>2020-06-28T08:30:54Z</time>
      </trkpt>
      <trkpt lat="48.82409" lon="7.365">
        <ele>303.1</ele>
        <time>2020-06-28T08:30:56Z</time>
      </trkpt>
      <trkpt lat="48.82408" lon="7.36511">
        <ele>300.5</ele>
        <time>2020-06-28T08:30:58Z</time>
      </trkpt>
      <trkpt lat="48.82407" lon="7.36524">
        <ele>299</ele>
        <time>2020-06-28T08:31:00Z</time>
      </trkpt>
      <trkpt lat="48.82407" lon="7.36537">
        <ele>296.2</ele>
        <time>2020-06-28T08:31:02Z</time>
      </trkpt>
      <trkpt lat="48.82407" lon="7.36548">
        <ele>294.8</ele>
        <time>2020-06-28T08:31:04Z</time>
      </trkpt>
      <trkpt lat="48.82406" lon="7.36557">
        <ele>293.9</ele>
        <time>2020-06-28T08:31:06Z</time>
      </trkpt>
      <trkpt lat="48.82404" lon="7.36566">
        <ele>291.3</ele>
        <time>2020-06-28T08:31:08Z</time>
      </trkpt>
      <trkpt lat="48.82404" lon="7.36577">
        <ele>289.5</ele>
        <time>2020-06-28T08:31:10Z</time>
      </trkpt>
      <trkpt lat="48.82404" lon="7.36588">
        <ele>287.5</ele>
        <time>2020-06-28T08:31:13Z</time>
      </trkpt>
      <trkpt lat="48.82403" lon="7.36599">
        <ele>286.8</ele>
        <time>2020-06-28T08:31:14Z</time>
      </trkpt>
      <trkpt lat="48.82402" lon="7.36611">
        <ele>285.7</ele>
        <time>2020-06-28T08:31:17Z</time>
      </trkpt>
      <trkpt lat="48.82401" lon="7.36621">
        <ele>284.3</ele>
        <time>2020-06-28T08:31:18Z</time>
      </trkpt>
      <trkpt lat="48.824" lon="7.36632">
        <ele>283.6</ele>
        <time>2020-06-28T08:31:20Z</time>
      </trkpt>
      <trkpt lat="48.82399" lon="7.36643">
        <ele>282.8</ele>
        <time>2020-06-28T08:31:22Z</time>
      </trkpt>
      <trkpt lat="48.82397" lon="7.36652">
        <ele>282.3</ele>
        <time>2020-06-28T08:31:24Z</time>
      </trkpt>
      <trkpt lat="48.82396" lon="7.36662">
        <ele>281.9</ele>
        <time>2020-06-28T08:31:26Z</time>
      </trkpt>
      <trkpt lat="48.82396" lon="7.36671">
        <ele>281.6</ele>
        <time>2020-06-28T08:31:28Z</time>
      </trkpt>
      <trkpt lat="48.82395" lon="7.36682">
        <ele>281.6</ele>
        <time>2020-06-28T08:31:30Z</time>
      </trkpt>
      <trkpt lat="48.82393" lon="7.36692">
        <ele>282.5</ele>
        <time>2020-06-28T08:31:32Z</time>
      </trkpt>
      <trkpt lat="48.82392" lon="7.36702">
        <ele>283.5</ele>
        <time>2020-06-28T08:31:34Z</time>
      </trkpt>
      <trkpt lat="48.8239" lon="7.36709">
        <ele>284.7</ele>
        <time>2020-06-28T08:31:36Z</time>
      </trkpt>
      <trkpt lat="48.82387" lon="7.36717">
        <ele>285.5</ele>
        <time>2020-06-28T08:31:40Z</time>
      </trkpt>
      <trkpt lat="48.82386" lon="7.36724">
        <ele>286.4</ele>
        <time>2020-06-28T08:31:42Z</time>
      </trkpt>
      <trkpt lat="48.82384" lon="7.36731">
        <ele>284.9</ele>
        <time>2020-06-28T08:31:44Z</time>
      </trkpt>
      <trkpt lat="48.82385" lon="7.36741">
        <ele>283.7</ele>
        <time>2020-06-28T08:31:46Z</time>
      </trkpt>
      <trkpt lat="48.82387" lon="7.3675">
        <ele>280.8</ele>
        <time>2020-06-28T08:31:48Z</time>
      </trkpt>
      <trkpt lat="48.82388" lon="7.36759">
        <ele>279.5</ele>
        <time>2020-06-28T08:31:50Z</time>
      </trkpt>
      <trkpt lat="48.8239" lon="7.36768">
        <ele>278.6</ele>
        <time>2020-06-28T08:31:52Z</time>
      </trkpt>
      <trkpt lat="48.82391" lon="7.36775">
        <ele>276.4</ele>
        <time>2020-06-28T08:31:54Z</time>
      </trkpt>
      <trkpt lat="48.82391" lon="7.36784">
        <ele>274.9</ele>
        <time>2020-06-28T08:31:56Z</time>
      </trkpt>
      <trkpt lat="48.82391" lon="7.36793">
        <ele>273.3</ele>
        <time>2020-06-28T08:31:59Z</time>
      </trkpt>
      <trkpt lat="48.82391" lon="7.368">
        <ele>272.3</ele>
        <time>2020-06-28T08:32:01Z</time>
      </trkpt>
      <trkpt lat="48.82386" lon="7.36812">
        <ele>270.9</ele>
        <time>2020-06-28T08:32:04Z</time>
      </trkpt>
      <trkpt lat="48.82382" lon="7.36821">
        <ele>270.5</ele>
        <time>2020-06-28T08:32:05Z</time>
      </trkpt>
      <trkpt lat="48.82379" lon="7.3683">
        <ele>269.9</ele>
        <time>2020-06-28T08:32:07Z</time>
      </trkpt>
      <trkpt lat="48.82376" lon="7.36838">
        <ele>269.5</ele>
        <time>2020-06-28T08:32:10Z</time>
      </trkpt>
      <trkpt lat="48.82372" lon="7.36844">
        <ele>269.9</ele>
        <time>2020-06-28T08:32:12Z</time>
      </trkpt>
      <trkpt lat="48.82367" lon="7.36838">
        <ele>270.9</ele>
        <time>2020-06-28T08:32:16Z</time>
      </trkpt>
      <trkpt lat="48.82363" lon="7.36832">
        <ele>271</ele>
        <time>2020-06-28T08:32:19Z</time>
      </trkpt>
      <trkpt lat="48.82359" lon="7.36835">
        <ele>270.8</ele>
        <time>2020-06-28T08:32:23Z</time>
      </trkpt>
      <trkpt lat="48.82355" lon="7.36839">
        <ele>268</ele>
        <time>2020-06-28T08:32:30Z</time>
      </trkpt>
      <trkpt lat="48.8235" lon="7.36841">
        <ele>267</ele>
        <time>2020-06-28T08:32:33Z</time>
      </trkpt>
      <trkpt lat="48.82345" lon="7.36843">
        <ele>266.6</ele>
        <time>2020-06-28T08:32:35Z</time>
      </trkpt>
      <trkpt lat="48.82341" lon="7.36847">
        <ele>265.4</ele>
        <time>2020-06-28T08:32:37Z</time>
      </trkpt>
      <trkpt lat="48.82339" lon="7.36855">
        <ele>264.5</ele>
        <time>2020-06-28T08:32:40Z</time>
      </trkpt>
      <trkpt lat="48.82336" lon="7.36864">
        <ele>263.9</ele>
        <time>2020-06-28T08:32:42Z</time>
      </trkpt>
      <trkpt lat="48.82336" lon="7.36872">
        <ele>263.7</ele>
        <time>2020-06-28T08:32:47Z</time>
      </trkpt>
      <trkpt lat="48.82338" lon="7.36884">
        <ele>262.9</ele>
        <time>2020-06-28T08:32:50Z</time>
      </trkpt>
      <trkpt lat="48.8234" lon="7.36891">
        <ele>262.7</ele>
        <time>2020-06-28T08:32:52Z</time>
      </trkpt>
      <trkpt lat="48.82343" lon="7.369">
        <ele>262.8</ele>
        <time>2020-06-28T08:32:53Z</time>
      </trkpt>
      <trkpt lat="48.82345" lon="7.36906">
        <ele>262.4</ele>
        <time>2020-06-28T08:32:56Z</time>
      </trkpt>
      <trkpt lat="48.82347" lon="7.36913">
        <ele>261.5</ele>
        <time>2020-06-28T08:32:59Z</time>
      </trkpt>
      <trkpt lat="48.82348" lon="7.36923">
        <ele>261.6</ele>
        <time>2020-06-28T08:33:01Z</time>
      </trkpt>
      <trkpt lat="48.82348" lon="7.36932">
        <ele>261.1</ele>
        <time>2020-06-28T08:33:03Z</time>
      </trkpt>
      <trkpt lat="48.82345" lon="7.36942">
        <ele>261</ele>
        <time>2020-06-28T08:33:06Z</time>
      </trkpt>
      <trkpt lat="48.82343" lon="7.3695">
        <ele>260.9</ele>
        <time>2020-06-28T08:33:08Z</time>
      </trkpt>
      <trkpt lat="48.82343" lon="7.36959">
        <ele>261.4</ele>
        <time>2020-06-28T08:33:10Z</time>
      </trkpt>
      <trkpt lat="48.82344" lon="7.36968">
        <ele>261.2</ele>
        <time>2020-06-28T08:33:12Z</time>
      </trkpt>
      <trkpt lat="48.82345" lon="7.36977">
        <ele>260.8</ele>
        <time>2020-06-28T08:33:14Z</time>
      </trkpt>
      <trkpt lat="48.82345" lon="7.36986">
        <ele>259.9</ele>
        <time>2020-06-28T08:33:16Z</time>
      </trkpt>
      <trkpt lat="48.82344" lon="7.36996">
        <ele>259</ele>
        <time>2020-06-28T08:33:18Z</time>
      </trkpt>
      <trkpt lat="48.82344" lon="7.37003">
        <ele>257.9</ele>
        <time>2020-06-28T08:33:20Z</time>
      </trkpt>
      <trkpt lat="48.82345" lon="7.37012">
        <ele>255.6</ele>
        <time>2020-06-28T08:33:23Z</time>
      </trkpt>
      <trkpt lat="48.82348" lon="7.37019">
        <ele>254.9</ele>
        <time>2020-06-28T08:33:27Z</time>
      </trkpt>
      <trkpt lat="48.82349" lon="7.37028">
        <ele>255</ele>
        <time>2020-06-28T08:33:30Z</time>
      </trkpt>
      <trkpt lat="48.8235" lon="7.37037">
        <ele>254.4</ele>
        <time>2020-06-28T08:33:32Z</time>
      </trkpt>
      <trkpt lat="48.82352" lon="7.37045">
        <ele>253.2</ele>
        <time>2020-06-28T08:33:34Z</time>
      </trkpt>
      <trkpt lat="48.82356" lon="7.37053">
        <ele>252.7</ele>
        <time>2020-06-28T08:33:36Z</time>
      </trkpt>
      <trkpt lat="48.82359" lon="7.37062">
        <ele>252.2</ele>
        <time>2020-06-28T08:33:38Z</time>
      </trkpt>
      <trkpt lat="48.8236" lon="7.37069">
        <ele>251.1</ele>
        <time>2020-06-28T08:33:40Z</time>
      </trkpt>
      <trkpt lat="48.82364" lon="7.3708">
        <ele>250.6</ele>
        <time>2020-06-28T08:33:42Z</time>
      </trkpt>
      <trkpt lat="48.82367" lon="7.37091">
        <ele>249.8</ele>
        <time>2020-06-28T08:33:44Z</time>
      </trkpt>
      <trkpt lat="48.82368" lon="7.37102">
        <ele>248.8</ele>
        <time>2020-06-28T08:33:46Z</time>
      </trkpt>
      <trkpt lat="48.82368" lon="7.37114">
        <ele>248</ele>
        <time>2020-06-28T08:33:48Z</time>
      </trkpt>
      <trkpt lat="48.82368" lon="7.37125">
        <ele>247.3</ele>
        <time>2020-06-28T08:33:50Z</time>
      </trkpt>
      <trkpt lat="48.82365" lon="7.37133">
        <ele>247.2</ele>
        <time>2020-06-28T08:33:52Z</time>
      </trkpt>
      <trkpt lat="48.82361" lon="7.3714">
        <ele>247</ele>
        <time>2020-06-28T08:33:54Z</time>
      </trkpt>
      <trkpt lat="48.82357" lon="7.37146">
        <ele>247.2</ele>
        <time>2020-06-28T08:33:56Z</time>
      </trkpt>
      <trkpt lat="48.82351" lon="7.37154">
        <ele>247.2</ele>
        <time>2020-06-28T08:33:58Z</time>
      </trkpt>
      <trkpt lat="48.82345" lon="7.37161">
        <ele>246.8</ele>
        <time>2020-06-28T08:34:00Z</time>
      </trkpt>
      <trkpt lat="48.8234" lon="7.37165">
        <ele>245.6</ele>
        <time>2020-06-28T08:34:02Z</time>
      </trkpt>
      <trkpt lat="48.82335" lon="7.37169">
        <ele>245.3</ele>
        <time>2020-06-28T08:34:04Z</time>
      </trkpt>
      <trkpt lat="48.8233" lon="7.37173">
        <ele>244.9</ele>
        <time>2020-06-28T08:34:06Z</time>
      </trkpt>
      <trkpt lat="48.82325" lon="7.37176">
        <ele>244.7</ele>
        <time>2020-06-28T08:34:08Z</time>
      </trkpt>
      <trkpt lat="48.8232" lon="7.37179">
        <ele>244.8</ele>
        <time>2020-06-28T08:34:11Z</time>
      </trkpt>
      <trkpt lat="48.82316" lon="7.37182">
        <ele>245.2</ele>
        <time>2020-06-28T08:34:13Z</time>
      </trkpt>
      <trkpt lat="48.82311" lon="7.37188">
        <ele>244.6</ele>
        <time>2020-06-28T08:34:16Z</time>
      </trkpt>
      <trkpt lat="48.82308" lon="7.37196">
        <ele>243.7</ele>
        <time>2020-06-28T08:34:19Z</time>
      </trkpt>
      <trkpt lat="48.82305" lon="7.37201">
        <ele>244</ele>
        <time>2020-06-28T08:34:22Z</time>
      </trkpt>
      <trkpt lat="48.82299" lon="7.37204">
        <ele>243.3</ele>
        <time>2020-06-28T08:34:26Z</time>
      </trkpt>
      <trkpt lat="48.82294" lon="7.37208">
        <ele>242.3</ele>
        <time>2020-06-28T08:34:29Z</time>
      </trkpt>
      <trkpt lat="48.82289" lon="7.37211">
        <ele>241.5</ele>
        <time>2020-06-28T08:34:31Z</time>
      </trkpt>
      <trkpt lat="48.82284" lon="7.37215">
        <ele>241</ele>
        <time>2020-06-28T08:34:33Z</time>
      </trkpt>
      <trkpt lat="48.82278" lon="7.3722">
        <ele>240.2</ele>
        <time>2020-06-28T08:34:36Z</time>
      </trkpt>
      <trkpt lat="48.82273" lon="7.37223">
        <ele>239.7</ele>
        <time>2020-06-28T08:34:38Z</time>
      </trkpt>
      <trkpt lat="48.82267" lon="7.37227">
        <ele>239.6</ele>
        <time>2020-06-28T08:34:40Z</time>
      </trkpt>
      <trkpt lat="48.82261" lon="7.3723">
        <ele>239.9</ele>
        <time>2020-06-28T08:34:42Z</time>
      </trkpt>
      <trkpt lat="48.82256" lon="7.37234">
        <ele>240.7</ele>
        <time>2020-06-28T08:34:44Z</time>
      </trkpt>
      <trkpt lat="48.8225" lon="7.37238">
        <ele>240.9</ele>
        <time>2020-06-28T08:34:46Z</time>
      </trkpt>
      <trkpt lat="48.82245" lon="7.37243">
        <ele>241.1</ele>
        <time>2020-06-28T08:34:48Z</time>
      </trkpt>
      <trkpt lat="48.8224" lon="7.37249">
        <ele>242</ele>
        <time>2020-06-28T08:34:50Z</time>
      </trkpt>
      <trkpt lat="48.82234" lon="7.37253">
        <ele>242.5</ele>
        <time>2020-06-28T08:34:52Z</time>
      </trkpt>
      <trkpt lat="48.8223" lon="7.37256">
        <ele>242.8</ele>
        <time>2020-06-28T08:34:54Z</time>
      </trkpt>
      <trkpt lat="48.82225" lon="7.3726">
        <ele>243</ele>
        <time>2020-06-28T08:34:56Z</time>
      </trkpt>
      <trkpt lat="48.82221" lon="7.37264">
        <ele>242.8</ele>
        <time>2020-06-28T08:34:58Z</time>
      </trkpt>
      <trkpt lat="48.82216" lon="7.37267">
        <ele>242.4</ele>
        <time>2020-06-28T08:35:00Z</time>
      </trkpt>
      <trkpt lat="48.82212" lon="7.37269">
        <ele>242.5</ele>
        <time>2020-06-28T08:35:02Z</time>
      </trkpt>
      <trkpt lat="48.82207" lon="7.37271">
        <ele>242.6</ele>
        <time>2020-06-28T08:35:04Z</time>
      </trkpt>
      <trkpt lat="48.82202" lon="7.37274">
        <ele>242.8</ele>
        <time>2020-06-28T08:35:06Z</time>
      </trkpt>
      <trkpt lat="48.82197" lon="7.37277">
        <ele>242.9</ele>
        <time>2020-06-28T08:35:08Z</time>
      </trkpt>
      <trkpt lat="48.82193" lon="7.37281">
        <ele>243.2</ele>
        <time>2020-06-28T08:35:10Z</time>
      </trkpt>
      <trkpt lat="48.82189" lon="7.37286">
        <ele>242.5</ele>
        <time>2020-06-28T08:35:12Z</time>
      </trkpt>
      <trkpt lat="48.82184" lon="7.37292">
        <ele>242.8</ele>
        <time>2020-06-28T08:35:15Z</time>
      </trkpt>
      <trkpt lat="48.82179" lon="7.37298">
        <ele>243.3</ele>
        <time>2020-06-28T08:35:18Z</time>
      </trkpt>
      <trkpt lat="48.82174" lon="7.37303">
        <ele>244.4</ele>
        <time>2020-06-28T08:35:21Z</time>
      </trkpt>
      <trkpt lat="48.82169" lon="7.37309">
        <ele>244.5</ele>
        <time>2020-06-28T08:35:24Z</time>
      </trkpt>
      <trkpt lat="48.82165" lon="7.37313">
        <ele>245.2</ele>
        <time>2020-06-28T08:35:26Z</time>
      </trkpt>
      <trkpt lat="48.82161" lon="7.37315">
        <ele>245.1</ele>
        <time>2020-06-28T08:35:28Z</time>
      </trkpt>
      <trkpt lat="48.82156" lon="7.3732">
        <ele>245.2</ele>
        <time>2020-06-28T08:35:30Z</time>
      </trkpt>
      <trkpt lat="48.82151" lon="7.37324">
        <ele>245.9</ele>
        <time>2020-06-28T08:35:32Z</time>
      </trkpt>
      <trkpt lat="48.82147" lon="7.3733">
        <ele>245.8</ele>
        <time>2020-06-28T08:35:34Z</time>
      </trkpt>
      <trkpt lat="48.82142" lon="7.37335">
        <ele>244.9</ele>
        <time>2020-06-28T08:35:37Z</time>
      </trkpt>
      <trkpt lat="48.82137" lon="7.3734">
        <ele>244.3</ele>
        <time>2020-06-28T08:35:39Z</time>
      </trkpt>
      <trkpt lat="48.82132" lon="7.37344">
        <ele>243.5</ele>
        <time>2020-06-28T08:35:41Z</time>
      </trkpt>
      <trkpt lat="48.82126" lon="7.37347">
        <ele>243.7</ele>
        <time>2020-06-28T08:35:43Z</time>
      </trkpt>
      <trkpt lat="48.8212" lon="7.37349">
        <ele>244</ele>
        <time>2020-06-28T08:35:45Z</time>
      </trkpt>
      <trkpt lat="48.82114" lon="7.37352">
        <ele>244</ele>
        <time>2020-06-28T08:35:47Z</time>
      </trkpt>
      <trkpt lat="48.82109" lon="7.37355">
        <ele>244.2</ele>
        <time>2020-06-28T08:35:49Z</time>
      </trkpt>
      <trkpt lat="48.82103" lon="7.3736">
        <ele>244.3</ele>
        <time>2020-06-28T08:35:51Z</time>
      </trkpt>
      <trkpt lat="48.82097" lon="7.37367">
        <ele>244.6</ele>
        <time>2020-06-28T08:35:53Z</time>
      </trkpt>
      <trkpt lat="48.82091" lon="7.37375">
        <ele>245</ele>
        <time>2020-06-28T08:35:55Z</time>
      </trkpt>
      <trkpt lat="48.82087" lon="7.37381">
        <ele>244.4</ele>
        <time>2020-06-28T08:35:57Z</time>
      </trkpt>
      <trkpt lat="48.82083" lon="7.37386">
        <ele>244.2</ele>
        <time>2020-06-28T08:35:59Z</time>
      </trkpt>
      <trkpt lat="48.82078" lon="7.37391">
        <ele>243.9</ele>
        <time>2020-06-28T08:36:01Z</time>
      </trkpt>
      <trkpt lat="48.82073" lon="7.37396">
        <ele>243.6</ele>
        <time>2020-06-28T08:36:03Z</time>
      </trkpt>
      <trkpt lat="48.82068" lon="7.37402">
        <ele>244</ele>
        <time>2020-06-28T08:36:05Z</time>
      </trkpt>
      <trkpt lat="48.82064" lon="7.37407">
        <ele>244.3</ele>
        <time>2020-06-28T08:36:07Z</time>
      </trkpt>
      <trkpt lat="48.82061" lon="7.37414">
        <ele>244.7</ele>
        <time>2020-06-28T08:36:09Z</time>
      </trkpt>
      <trkpt lat="48.82056" lon="7.37421">
        <ele>244.9</ele>
        <time>2020-06-28T08:36:11Z</time>
      </trkpt>
      <trkpt lat="48.8205" lon="7.37425">
        <ele>245.3</ele>
        <time>2020-06-28T08:36:13Z</time>
      </trkpt>
      <trkpt lat="48.82046" lon="7.37426">
        <ele>245</ele>
        <time>2020-06-28T08:36:15Z</time>
      </trkpt>
      <trkpt lat="48.82037" lon="7.37429">
        <ele>243.7</ele>
        <time>2020-06-28T08:36:18Z</time>
      </trkpt>
      <trkpt lat="48.82028" lon="7.37432">
        <ele>241.9</ele>
        <time>2020-06-28T08:36:21Z</time>
      </trkpt>
      <trkpt lat="48.82023" lon="7.37435">
        <ele>241.6</ele>
        <time>2020-06-28T08:36:23Z</time>
      </trkpt>
      <trkpt lat="48.82017" lon="7.37438">
        <ele>241.3</ele>
        <time>2020-06-28T08:36:25Z</time>
      </trkpt>
      <trkpt lat="48.82011" lon="7.37442">
        <ele>241.1</ele>
        <time>2020-06-28T08:36:27Z</time>
      </trkpt>
      <trkpt lat="48.82007" lon="7.37445">
        <ele>240.4</ele>
        <time>2020-06-28T08:36:29Z</time>
      </trkpt>
      <trkpt lat="48.82002" lon="7.37446">
        <ele>239.4</ele>
        <time>2020-06-28T08:36:31Z</time>
      </trkpt>
      <trkpt lat="48.81997" lon="7.37448">
        <ele>238.9</ele>
        <time>2020-06-28T08:36:33Z</time>
      </trkpt>
      <trkpt lat="48.81991" lon="7.37449">
        <ele>237.9</ele>
        <time>2020-06-28T08:36:36Z</time>
      </trkpt>
      <trkpt lat="48.81987" lon="7.37448">
        <ele>233.2</ele>
        <time>2020-06-28T08:37:04Z</time>
      </trkpt>
      <trkpt lat="48.81987" lon="7.37441">
        <ele>224.4</ele>
        <time>2020-06-28T08:37:32Z</time>
      </trkpt>
      <trkpt lat="48.81982" lon="7.37438">
        <ele>227.6</ele>
        <time>2020-06-28T08:38:47Z</time>
      </trkpt>
      <trkpt lat="48.81957" lon="7.37435">
        <ele>226.3</ele>
        <time>2020-06-28T08:38:49Z</time>
      </trkpt>
      <trkpt lat="48.81946" lon="7.37436">
        <ele>225.8</ele>
        <time>2020-06-28T08:38:51Z</time>
      </trkpt>
      <trkpt lat="48.81938" lon="7.37438">
        <ele>225.9</ele>
        <time>2020-06-28T08:38:53Z</time>
      </trkpt>
      <trkpt lat="48.81931" lon="7.37439">
        <ele>226</ele>
        <time>2020-06-28T08:38:58Z</time>
      </trkpt>
      <trkpt lat="48.81917" lon="7.37436">
        <ele>224.5</ele>
        <time>2020-06-28T08:39:00Z</time>
      </trkpt>
      <trkpt lat="48.81906" lon="7.37436">
        <ele>223.3</ele>
        <time>2020-06-28T08:39:05Z</time>
      </trkpt>
      <trkpt lat="48.81882" lon="7.37433">
        <ele>221.3</ele>
        <time>2020-06-28T08:39:07Z</time>
      </trkpt>
      <trkpt lat="48.81877" lon="7.3743">
        <ele>219.7</ele>
        <time>2020-06-28T08:39:09Z</time>
      </trkpt>
      <trkpt lat="48.81873" lon="7.37426">
        <ele>217</ele>
        <time>2020-06-28T08:39:14Z</time>
      </trkpt>
      <trkpt lat="48.81868" lon="7.37426">
        <ele>214.2</ele>
        <time>2020-06-28T08:39:21Z</time>
      </trkpt>
      <trkpt lat="48.81871" lon="7.37434">
        <ele>215.7</ele>
        <time>2020-06-28T08:39:37Z</time>
      </trkpt>
      <trkpt lat="48.81875" lon="7.37439">
        <ele>215</ele>
        <time>2020-06-28T08:39:39Z</time>
      </trkpt>
      <trkpt lat="48.8188" lon="7.37444">
        <ele>213.3</ele>
        <time>2020-06-28T08:39:41Z</time>
      </trkpt>
      <trkpt lat="48.81885" lon="7.37449">
        <ele>212.6</ele>
        <time>2020-06-28T08:39:43Z</time>
      </trkpt>
      <trkpt lat="48.81881" lon="7.37453">
        <ele>211.9</ele>
        <time>2020-06-28T08:39:48Z</time>
      </trkpt>
      <trkpt lat="48.81873" lon="7.37452">
        <ele>211.5</ele>
        <time>2020-06-28T08:39:50Z</time>
      </trkpt>
      <trkpt lat="48.81866" lon="7.37453">
        <ele>211.2</ele>
        <time>2020-06-28T08:39:52Z</time>
      </trkpt>
      <trkpt lat="48.81859" lon="7.37454">
        <ele>211</ele>
        <time>2020-06-28T08:39:54Z</time>
      </trkpt>
      <trkpt lat="48.81851" lon="7.37452">
        <ele>211</ele>
        <time>2020-06-28T08:39:56Z</time>
      </trkpt>
      <trkpt lat="48.81844" lon="7.37448">
        <ele>211.1</ele>
        <time>2020-06-28T08:39:58Z</time>
      </trkpt>
      <trkpt lat="48.81835" lon="7.37444">
        <ele>210.8</ele>
        <time>2020-06-28T08:40:00Z</time>
      </trkpt>
      <trkpt lat="48.81827" lon="7.3744">
        <ele>210.4</ele>
        <time>2020-06-28T08:40:02Z</time>
      </trkpt>
      <trkpt lat="48.81818" lon="7.37435">
        <ele>209.8</ele>
        <time>2020-06-28T08:40:04Z</time>
      </trkpt>
      <trkpt lat="48.81811" lon="7.37428">
        <ele>209.2</ele>
        <time>2020-06-28T08:40:06Z</time>
      </trkpt>
      <trkpt lat="48.81803" lon="7.37422">
        <ele>209.2</ele>
        <time>2020-06-28T08:40:08Z</time>
      </trkpt>
      <trkpt lat="48.81791" lon="7.37418">
        <ele>208.9</ele>
        <time>2020-06-28T08:40:13Z</time>
      </trkpt>
      <trkpt lat="48.81763" lon="7.37417">
        <ele>208.2</ele>
        <time>2020-06-28T08:40:15Z</time>
      </trkpt>
      <trkpt lat="48.8175" lon="7.37417">
        <ele>208.6</ele>
        <time>2020-06-28T08:40:17Z</time>
      </trkpt>
      <trkpt lat="48.81738" lon="7.37416">
        <ele>208.5</ele>
        <time>2020-06-28T08:40:19Z</time>
      </trkpt>
      <trkpt lat="48.81725" lon="7.37415">
        <ele>208</ele>
        <time>2020-06-28T08:40:21Z</time>
      </trkpt>
      <trkpt lat="48.81713" lon="7.37416">
        <ele>207.1</ele>
        <time>2020-06-28T08:40:23Z</time>
      </trkpt>
      <trkpt lat="48.81699" lon="7.37419">
        <ele>206.7</ele>
        <time>2020-06-28T08:40:25Z</time>
      </trkpt>
      <trkpt lat="48.81686" lon="7.37422">
        <ele>206.8</ele>
        <time>2020-06-28T08:40:27Z</time>
      </trkpt>
      <trkpt lat="48.81673" lon="7.37423">
        <ele>206.6</ele>
        <time>2020-06-28T08:40:29Z</time>
      </trkpt>
      <trkpt lat="48.81662" lon="7.37427">
        <ele>205.7</ele>
        <time>2020-06-28T08:40:31Z</time>
      </trkpt>
      <trkpt lat="48.81652" lon="7.37431">
        <ele>203.8</ele>
        <time>2020-06-28T08:40:33Z</time>
      </trkpt>
      <trkpt lat="48.81642" lon="7.37436">
        <ele>202.5</ele>
        <time>2020-06-28T08:40:35Z</time>
      </trkpt>
      <trkpt lat="48.81633" lon="7.37441">
        <ele>201</ele>
        <time>2020-06-28T08:40:37Z</time>
      </trkpt>
      <trkpt lat="48.81622" lon="7.37447">
        <ele>200.4</ele>
        <time>2020-06-28T08:40:39Z</time>
      </trkpt>
      <trkpt lat="48.81612" lon="7.37452">
        <ele>200.2</ele>
        <time>2020-06-28T08:40:41Z</time>
      </trkpt>
      <trkpt lat="48.81602" lon="7.3746">
        <ele>201.3</ele>
        <time>2020-06-28T08:40:43Z</time>
      </trkpt>
      <trkpt lat="48.81593" lon="7.37469">
        <ele>202</ele>
        <time>2020-06-28T08:40:45Z</time>
      </trkpt>
      <trkpt lat="48.81584" lon="7.37477">
        <ele>202.3</ele>
        <time>2020-06-28T08:40:47Z</time>
      </trkpt>
      <trkpt lat="48.81574" lon="7.37484">
        <ele>202.3</ele>
        <time>2020-06-28T08:40:49Z</time>
      </trkpt>
      <trkpt lat="48.81566" lon="7.37492">
        <ele>202</ele>
        <time>2020-06-28T08:40:51Z</time>
      </trkpt>
      <trkpt lat="48.81558" lon="7.37501">
        <ele>201.7</ele>
        <time>2020-06-28T08:40:53Z</time>
      </trkpt>
      <trkpt lat="48.81552" lon="7.37512">
        <ele>200.8</ele>
        <time>2020-06-28T08:40:55Z</time>
      </trkpt>
      <trkpt lat="48.81544" lon="7.37522">
        <ele>200.4</ele>
        <time>2020-06-28T08:40:57Z</time>
      </trkpt>
      <trkpt lat="48.81536" lon="7.37531">
        <ele>199</ele>
        <time>2020-06-28T08:40:59Z</time>
      </trkpt>
      <trkpt lat="48.81527" lon="7.3754">
        <ele>199.1</ele>
        <time>2020-06-28T08:41:01Z</time>
      </trkpt>
      <trkpt lat="48.81518" lon="7.37547">
        <ele>199.6</ele>
        <time>2020-06-28T08:41:03Z</time>
      </trkpt>
      <trkpt lat="48.8151" lon="7.37554">
        <ele>200.5</ele>
        <time>2020-06-28T08:41:05Z</time>
      </trkpt>
      <trkpt lat="48.81501" lon="7.37563">
        <ele>201.1</ele>
        <time>2020-06-28T08:41:07Z</time>
      </trkpt>
      <trkpt lat="48.81494" lon="7.37571">
        <ele>200.6</ele>
        <time>2020-06-28T08:41:09Z</time>
      </trkpt>
      <trkpt lat="48.81486" lon="7.37577">
        <ele>200.9</ele>
        <time>2020-06-28T08:41:11Z</time>
      </trkpt>
      <trkpt lat="48.81477" lon="7.37584">
        <ele>201.8</ele>
        <time>2020-06-28T08:41:13Z</time>
      </trkpt>
      <trkpt lat="48.81469" lon="7.37591">
        <ele>202.2</ele>
        <time>2020-06-28T08:41:15Z</time>
      </trkpt>
      <trkpt lat="48.81459" lon="7.37595">
        <ele>201.9</ele>
        <time>2020-06-28T08:41:17Z</time>
      </trkpt>
      <trkpt lat="48.81449" lon="7.37597">
        <ele>200.6</ele>
        <time>2020-06-28T08:41:19Z</time>
      </trkpt>
      <trkpt lat="48.81439" lon="7.37598">
        <ele>199.5</ele>
        <time>2020-06-28T08:41:21Z</time>
      </trkpt>
      <trkpt lat="48.81429" lon="7.37599">
        <ele>199.2</ele>
        <time>2020-06-28T08:41:23Z</time>
      </trkpt>
      <trkpt lat="48.81418" lon="7.37597">
        <ele>199.2</ele>
        <time>2020-06-28T08:41:25Z</time>
      </trkpt>
      <trkpt lat="48.81408" lon="7.37595">
        <ele>199.2</ele>
        <time>2020-06-28T08:41:27Z</time>
      </trkpt>
      <trkpt lat="48.81396" lon="7.37594">
        <ele>198.6</ele>
        <time>2020-06-28T08:41:29Z</time>
      </trkpt>
      <trkpt lat="48.81386" lon="7.37593">
        <ele>198.6</ele>
        <time>2020-06-28T08:41:31Z</time>
      </trkpt>
      <trkpt lat="48.81378" lon="7.37596">
        <ele>197.5</ele>
        <time>2020-06-28T08:41:33Z</time>
      </trkpt>
      <trkpt lat="48.81371" lon="7.37603">
        <ele>196.7</ele>
        <time>2020-06-28T08:41:35Z</time>
      </trkpt>
      <trkpt lat="48.81363" lon="7.37613">
        <ele>196.6</ele>
        <time>2020-06-28T08:41:37Z</time>
      </trkpt>
      <trkpt lat="48.81353" lon="7.37623">
        <ele>196.8</ele>
        <time>2020-06-28T08:41:39Z</time>
      </trkpt>
      <trkpt lat="48.81341" lon="7.37634">
        <ele>197.7</ele>
        <time>2020-06-28T08:41:41Z</time>
      </trkpt>
      <trkpt lat="48.81331" lon="7.37645">
        <ele>199.1</ele>
        <time>2020-06-28T08:41:43Z</time>
      </trkpt>
      <trkpt lat="48.81322" lon="7.37652">
        <ele>200.2</ele>
        <time>2020-06-28T08:41:45Z</time>
      </trkpt>
      <trkpt lat="48.81309" lon="7.37659">
        <ele>201.1</ele>
        <time>2020-06-28T08:41:47Z</time>
      </trkpt>
      <trkpt lat="48.81298" lon="7.37664">
        <ele>201.9</ele>
        <time>2020-06-28T08:41:51Z</time>
      </trkpt>
      <trkpt lat="48.81286" lon="7.37672">
        <ele>201.6</ele>
        <time>2020-06-28T08:41:54Z</time>
      </trkpt>
      <trkpt lat="48.8128" lon="7.37678">
        <ele>202.2</ele>
        <time>2020-06-28T08:41:56Z</time>
      </trkpt>
      <trkpt lat="48.8127" lon="7.37682">
        <ele>201.9</ele>
        <time>2020-06-28T08:41:58Z</time>
      </trkpt>
      <trkpt lat="48.81261" lon="7.37687">
        <ele>201.7</ele>
        <time>2020-06-28T08:42:00Z</time>
      </trkpt>
      <trkpt lat="48.81251" lon="7.37691">
        <ele>201.4</ele>
        <time>2020-06-28T08:42:02Z</time>
      </trkpt>
      <trkpt lat="48.8124" lon="7.37696">
        <ele>201</ele>
        <time>2020-06-28T08:42:04Z</time>
      </trkpt>
      <trkpt lat="48.8123" lon="7.377">
        <ele>200.7</ele>
        <time>2020-06-28T08:42:06Z</time>
      </trkpt>
      <trkpt lat="48.81219" lon="7.37706">
        <ele>200.4</ele>
        <time>2020-06-28T08:42:08Z</time>
      </trkpt>
      <trkpt lat="48.81212" lon="7.37709">
        <ele>221.3</ele>
        <time>2020-06-28T08:42:10Z</time>
      </trkpt>
      <trkpt lat="48.81206" lon="7.37714">
        <ele>221</ele>
        <time>2020-06-28T08:42:12Z</time>
      </trkpt>
      <trkpt lat="48.81192" lon="7.37716">
        <ele>220.2</ele>
        <time>2020-06-28T08:42:15Z</time>
      </trkpt>
      <trkpt lat="48.81182" lon="7.37715">
        <ele>216.5</ele>
        <time>2020-06-28T08:42:17Z</time>
      </trkpt>
      <trkpt lat="48.81171" lon="7.37712">
        <ele>214</ele>
        <time>2020-06-28T08:42:19Z</time>
      </trkpt>
      <trkpt lat="48.8116" lon="7.37707">
        <ele>212</ele>
        <time>2020-06-28T08:42:21Z</time>
      </trkpt>
      <trkpt lat="48.81145" lon="7.377">
        <ele>208.1</ele>
        <time>2020-06-28T08:42:24Z</time>
      </trkpt>
      <trkpt lat="48.81134" lon="7.37696">
        <ele>206.3</ele>
        <time>2020-06-28T08:42:26Z</time>
      </trkpt>
      <trkpt lat="48.81116" lon="7.37689">
        <ele>203.2</ele>
        <time>2020-06-28T08:42:29Z</time>
      </trkpt>
      <trkpt lat="48.81104" lon="7.37684">
        <ele>219.1</ele>
        <time>2020-06-28T08:42:31Z</time>
      </trkpt>
      <trkpt lat="48.81093" lon="7.37681">
        <ele>216.8</ele>
        <time>2020-06-28T08:42:33Z</time>
      </trkpt>
      <trkpt lat="48.81082" lon="7.37679">
        <ele>216.5</ele>
        <time>2020-06-28T08:42:35Z</time>
      </trkpt>
      <trkpt lat="48.81072" lon="7.37679">
        <ele>213</ele>
        <time>2020-06-28T08:42:37Z</time>
      </trkpt>
      <trkpt lat="48.81056" lon="7.37678">
        <ele>208.1</ele>
        <time>2020-06-28T08:42:40Z</time>
      </trkpt>
      <trkpt lat="48.81046" lon="7.37679">
        <ele>205.3</ele>
        <time>2020-06-28T08:42:41Z</time>
      </trkpt>
      <trkpt lat="48.81035" lon="7.37682">
        <ele>203.5</ele>
        <time>2020-06-28T08:42:43Z</time>
      </trkpt>
      <trkpt lat="48.81023" lon="7.37687">
        <ele>201.9</ele>
        <time>2020-06-28T08:42:45Z</time>
      </trkpt>
      <trkpt lat="48.81014" lon="7.37691">
        <ele>200.7</ele>
        <time>2020-06-28T08:42:47Z</time>
      </trkpt>
      <trkpt lat="48.81003" lon="7.37696">
        <ele>200.1</ele>
        <time>2020-06-28T08:42:49Z</time>
      </trkpt>
      <trkpt lat="48.80995" lon="7.37701">
        <ele>199.7</ele>
        <time>2020-06-28T08:42:51Z</time>
      </trkpt>
      <trkpt lat="48.80985" lon="7.37702">
        <ele>200.1</ele>
        <time>2020-06-28T08:42:53Z</time>
      </trkpt>
      <trkpt lat="48.80977" lon="7.3771">
        <ele>200.2</ele>
        <time>2020-06-28T08:42:55Z</time>
      </trkpt>
      <trkpt lat="48.80969" lon="7.37719">
        <ele>200.1</ele>
        <time>2020-06-28T08:42:57Z</time>
      </trkpt>
      <trkpt lat="48.80961" lon="7.37729">
        <ele>199.4</ele>
        <time>2020-06-28T08:42:59Z</time>
      </trkpt>
      <trkpt lat="48.80951" lon="7.37737">
        <ele>199.3</ele>
        <time>2020-06-28T08:43:01Z</time>
      </trkpt>
      <trkpt lat="48.80942" lon="7.37742">
        <ele>201.6</ele>
        <time>2020-06-28T08:43:04Z</time>
      </trkpt>
      <trkpt lat="48.80929" lon="7.37754">
        <ele>201.7</ele>
        <time>2020-06-28T08:43:06Z</time>
      </trkpt>
      <trkpt lat="48.80918" lon="7.37759">
        <ele>201.5</ele>
        <time>2020-06-28T08:43:08Z</time>
      </trkpt>
      <trkpt lat="48.80907" lon="7.37765">
        <ele>201.8</ele>
        <time>2020-06-28T08:43:10Z</time>
      </trkpt>
      <trkpt lat="48.80897" lon="7.37773">
        <ele>202.3</ele>
        <time>2020-06-28T08:43:12Z</time>
      </trkpt>
      <trkpt lat="48.80887" lon="7.37781">
        <ele>202.2</ele>
        <time>2020-06-28T08:43:14Z</time>
      </trkpt>
      <trkpt lat="48.80879" lon="7.3779">
        <ele>202.3</ele>
        <time>2020-06-28T08:43:16Z</time>
      </trkpt>
      <trkpt lat="48.80869" lon="7.37798">
        <ele>202.8</ele>
        <time>2020-06-28T08:43:18Z</time>
      </trkpt>
      <trkpt lat="48.8086" lon="7.37808">
        <ele>202</ele>
        <time>2020-06-28T08:43:20Z</time>
      </trkpt>
      <trkpt lat="48.80853" lon="7.37818">
        <ele>200.7</ele>
        <time>2020-06-28T08:43:22Z</time>
      </trkpt>
      <trkpt lat="48.80846" lon="7.37828">
        <ele>199.2</ele>
        <time>2020-06-28T08:43:24Z</time>
      </trkpt>
      <trkpt lat="48.80838" lon="7.37838">
        <ele>198.1</ele>
        <time>2020-06-28T08:43:26Z</time>
      </trkpt>
      <trkpt lat="48.80831" lon="7.37849">
        <ele>196.9</ele>
        <time>2020-06-28T08:43:28Z</time>
      </trkpt>
      <trkpt lat="48.80822" lon="7.37859">
        <ele>196.4</ele>
        <time>2020-06-28T08:43:31Z</time>
      </trkpt>
      <trkpt lat="48.80816" lon="7.37871">
        <ele>196.2</ele>
        <time>2020-06-28T08:43:33Z</time>
      </trkpt>
      <trkpt lat="48.80805" lon="7.37888">
        <ele>195.7</ele>
        <time>2020-06-28T08:43:36Z</time>
      </trkpt>
      <trkpt lat="48.80796" lon="7.37897">
        <ele>195.7</ele>
        <time>2020-06-28T08:43:37Z</time>
      </trkpt>
      <trkpt lat="48.80785" lon="7.37904">
        <ele>195.4</ele>
        <time>2020-06-28T08:43:40Z</time>
      </trkpt>
      <trkpt lat="48.80774" lon="7.37909">
        <ele>195.2</ele>
        <time>2020-06-28T08:43:42Z</time>
      </trkpt>
      <trkpt lat="48.80754" lon="7.37909">
        <ele>195.8</ele>
        <time>2020-06-28T08:43:44Z</time>
      </trkpt>
      <trkpt lat="48.80741" lon="7.37906">
        <ele>195.6</ele>
        <time>2020-06-28T08:43:46Z</time>
      </trkpt>
      <trkpt lat="48.80728" lon="7.37901">
        <ele>195.6</ele>
        <time>2020-06-28T08:43:48Z</time>
      </trkpt>
      <trkpt lat="48.80716" lon="7.37896">
        <ele>195.9</ele>
        <time>2020-06-28T08:43:50Z</time>
      </trkpt>
      <trkpt lat="48.80704" lon="7.37895">
        <ele>195.7</ele>
        <time>2020-06-28T08:43:52Z</time>
      </trkpt>
      <trkpt lat="48.80691" lon="7.37892">
        <ele>195.9</ele>
        <time>2020-06-28T08:43:55Z</time>
      </trkpt>
      <trkpt lat="48.80678" lon="7.3789">
        <ele>196.2</ele>
        <time>2020-06-28T08:43:57Z</time>
      </trkpt>
      <trkpt lat="48.80657" lon="7.37891">
        <ele>196</ele>
        <time>2020-06-28T08:43:59Z</time>
      </trkpt>
      <trkpt lat="48.80646" lon="7.37895">
        <ele>195.8</ele>
        <time>2020-06-28T08:44:01Z</time>
      </trkpt>
      <trkpt lat="48.80635" lon="7.37902">
        <ele>195.6</ele>
        <time>2020-06-28T08:44:03Z</time>
      </trkpt>
      <trkpt lat="48.80623" lon="7.37912">
        <ele>196.6</ele>
        <time>2020-06-28T08:44:06Z</time>
      </trkpt>
      <trkpt lat="48.80607" lon="7.37927">
        <ele>196.4</ele>
        <time>2020-06-28T08:44:08Z</time>
      </trkpt>
      <trkpt lat="48.80597" lon="7.37937">
        <ele>196.1</ele>
        <time>2020-06-28T08:44:10Z</time>
      </trkpt>
      <trkpt lat="48.80587" lon="7.37948">
        <ele>195.6</ele>
        <time>2020-06-28T08:44:12Z</time>
      </trkpt>
      <trkpt lat="48.80578" lon="7.37956">
        <ele>193.5</ele>
        <time>2020-06-28T08:44:14Z</time>
      </trkpt>
      <trkpt lat="48.80565" lon="7.37974">
        <ele>193</ele>
        <time>2020-06-28T08:44:17Z</time>
      </trkpt>
      <trkpt lat="48.80556" lon="7.37986">
        <ele>193</ele>
        <time>2020-06-28T08:44:19Z</time>
      </trkpt>
      <trkpt lat="48.80547" lon="7.37998">
        <ele>192.4</ele>
        <time>2020-06-28T08:44:21Z</time>
      </trkpt>
      <trkpt lat="48.80538" lon="7.38011">
        <ele>192.1</ele>
        <time>2020-06-28T08:44:23Z</time>
      </trkpt>
      <trkpt lat="48.80524" lon="7.38028">
        <ele>191.8</ele>
        <time>2020-06-28T08:44:26Z</time>
      </trkpt>
      <trkpt lat="48.80515" lon="7.38039">
        <ele>191.7</ele>
        <time>2020-06-28T08:44:28Z</time>
      </trkpt>
      <trkpt lat="48.80506" lon="7.38046">
        <ele>191.6</ele>
        <time>2020-06-28T08:44:30Z</time>
      </trkpt>
      <trkpt lat="48.80496" lon="7.38053">
        <ele>191.3</ele>
        <time>2020-06-28T08:44:32Z</time>
      </trkpt>
      <trkpt lat="48.80485" lon="7.38059">
        <ele>190.8</ele>
        <time>2020-06-28T08:44:34Z</time>
      </trkpt>
      <trkpt lat="48.80474" lon="7.38062">
        <ele>189.8</ele>
        <time>2020-06-28T08:44:36Z</time>
      </trkpt>
      <trkpt lat="48.80456" lon="7.38062">
        <ele>189.3</ele>
        <time>2020-06-28T08:44:39Z</time>
      </trkpt>
      <trkpt lat="48.80445" lon="7.3806">
        <ele>189.1</ele>
        <time>2020-06-28T08:44:41Z</time>
      </trkpt>
      <trkpt lat="48.80432" lon="7.38061">
        <ele>189.5</ele>
        <time>2020-06-28T08:44:43Z</time>
      </trkpt>
      <trkpt lat="48.80415" lon="7.38064">
        <ele>190</ele>
        <time>2020-06-28T08:44:46Z</time>
      </trkpt>
      <trkpt lat="48.80403" lon="7.38066">
        <ele>190.2</ele>
        <time>2020-06-28T08:44:48Z</time>
      </trkpt>
      <trkpt lat="48.80387" lon="7.3807">
        <ele>190.5</ele>
        <time>2020-06-28T08:44:51Z</time>
      </trkpt>
      <trkpt lat="48.80377" lon="7.38073">
        <ele>190.6</ele>
        <time>2020-06-28T08:44:53Z</time>
      </trkpt>
      <trkpt lat="48.80368" lon="7.38075">
        <ele>190.5</ele>
        <time>2020-06-28T08:44:55Z</time>
      </trkpt>
      <trkpt lat="48.8036" lon="7.38078">
        <ele>190.2</ele>
        <time>2020-06-28T08:44:57Z</time>
      </trkpt>
      <trkpt lat="48.8035" lon="7.38081">
        <ele>189.8</ele>
        <time>2020-06-28T08:45:00Z</time>
      </trkpt>
      <trkpt lat="48.80344" lon="7.38078">
        <ele>189.4</ele>
        <time>2020-06-28T08:45:03Z</time>
      </trkpt>
      <trkpt lat="48.8034" lon="7.38074">
        <ele>189</ele>
        <time>2020-06-28T08:45:05Z</time>
      </trkpt>
      <trkpt lat="48.80336" lon="7.38067">
        <ele>188.6</ele>
        <time>2020-06-28T08:45:07Z</time>
      </trkpt>
      <trkpt lat="48.80333" lon="7.38059">
        <ele>188.9</ele>
        <time>2020-06-28T08:45:09Z</time>
      </trkpt>
      <trkpt lat="48.8033" lon="7.3805">
        <ele>189.6</ele>
        <time>2020-06-28T08:45:11Z</time>
      </trkpt>
      <trkpt lat="48.80326" lon="7.3804">
        <ele>190</ele>
        <time>2020-06-28T08:45:13Z</time>
      </trkpt>
      <trkpt lat="48.8032" lon="7.38031">
        <ele>190.3</ele>
        <time>2020-06-28T08:45:15Z</time>
      </trkpt>
      <trkpt lat="48.80314" lon="7.38025">
        <ele>190.6</ele>
        <time>2020-06-28T08:45:17Z</time>
      </trkpt>
      <trkpt lat="48.80306" lon="7.38023">
        <ele>190.7</ele>
        <time>2020-06-28T08:45:19Z</time>
      </trkpt>
      <trkpt lat="48.80299" lon="7.38025">
        <ele>191</ele>
        <time>2020-06-28T08:45:21Z</time>
      </trkpt>
      <trkpt lat="48.80293" lon="7.38029">
        <ele>191.1</ele>
        <time>2020-06-28T08:45:23Z</time>
      </trkpt>
      <trkpt lat="48.80286" lon="7.38032">
        <ele>191.6</ele>
        <time>2020-06-28T08:45:25Z</time>
      </trkpt>
      <trkpt lat="48.80278" lon="7.38036">
        <ele>191.7</ele>
        <time>2020-06-28T08:45:27Z</time>
      </trkpt>
      <trkpt lat="48.8027" lon="7.38039">
        <ele>191.9</ele>
        <time>2020-06-28T08:45:29Z</time>
      </trkpt>
      <trkpt lat="48.80262" lon="7.38041">
        <ele>192</ele>
        <time>2020-06-28T08:45:31Z</time>
      </trkpt>
      <trkpt lat="48.80254" lon="7.38041">
        <ele>192.3</ele>
        <time>2020-06-28T08:45:33Z</time>
      </trkpt>
      <trkpt lat="48.80248" lon="7.38036">
        <ele>191.6</ele>
        <time>2020-06-28T08:45:35Z</time>
      </trkpt>
      <trkpt lat="48.80243" lon="7.38028">
        <ele>191.3</ele>
        <time>2020-06-28T08:45:37Z</time>
      </trkpt>
      <trkpt lat="48.80237" lon="7.38015">
        <ele>190.3</ele>
        <time>2020-06-28T08:45:40Z</time>
      </trkpt>
      <trkpt lat="48.80234" lon="7.38006">
        <ele>190.2</ele>
        <time>2020-06-28T08:45:42Z</time>
      </trkpt>
      <trkpt lat="48.80232" lon="7.37991">
        <ele>189.4</ele>
        <time>2020-06-28T08:45:45Z</time>
      </trkpt>
      <trkpt lat="48.80232" lon="7.37979">
        <ele>189</ele>
        <time>2020-06-28T08:45:47Z</time>
      </trkpt>
      <trkpt lat="48.80231" lon="7.37967">
        <ele>188.3</ele>
        <time>2020-06-28T08:45:49Z</time>
      </trkpt>
      <trkpt lat="48.8023" lon="7.37954">
        <ele>188.4</ele>
        <time>2020-06-28T08:45:51Z</time>
      </trkpt>
      <trkpt lat="48.80229" lon="7.37942">
        <ele>187.8</ele>
        <time>2020-06-28T08:45:53Z</time>
      </trkpt>
      <trkpt lat="48.80227" lon="7.37928">
        <ele>187.7</ele>
        <time>2020-06-28T08:45:55Z</time>
      </trkpt>
      <trkpt lat="48.80224" lon="7.37915">
        <ele>188.4</ele>
        <time>2020-06-28T08:45:57Z</time>
      </trkpt>
      <trkpt lat="48.80221" lon="7.37901">
        <ele>189</ele>
        <time>2020-06-28T08:45:59Z</time>
      </trkpt>
      <trkpt lat="48.80218" lon="7.37888">
        <ele>189.7</ele>
        <time>2020-06-28T08:46:01Z</time>
      </trkpt>
      <trkpt lat="48.80215" lon="7.37874">
        <ele>191.6</ele>
        <time>2020-06-28T08:46:03Z</time>
      </trkpt>
      <trkpt lat="48.80213" lon="7.37859">
        <ele>193.1</ele>
        <time>2020-06-28T08:46:05Z</time>
      </trkpt>
      <trkpt lat="48.80211" lon="7.37841">
        <ele>194.2</ele>
        <time>2020-06-28T08:46:07Z</time>
      </trkpt>
      <trkpt lat="48.8021" lon="7.37824">
        <ele>194.7</ele>
        <time>2020-06-28T08:46:09Z</time>
      </trkpt>
      <trkpt lat="48.80209" lon="7.37807">
        <ele>195.6</ele>
        <time>2020-06-28T08:46:11Z</time>
      </trkpt>
      <trkpt lat="48.80206" lon="7.37791">
        <ele>195.8</ele>
        <time>2020-06-28T08:46:13Z</time>
      </trkpt>
      <trkpt lat="48.80205" lon="7.37774">
        <ele>196.4</ele>
        <time>2020-06-28T08:46:15Z</time>
      </trkpt>
      <trkpt lat="48.80202" lon="7.37759">
        <ele>197</ele>
        <time>2020-06-28T08:46:17Z</time>
      </trkpt>
      <trkpt lat="48.80198" lon="7.37746">
        <ele>196.9</ele>
        <time>2020-06-28T08:46:19Z</time>
      </trkpt>
      <trkpt lat="48.80194" lon="7.37732">
        <ele>197.2</ele>
        <time>2020-06-28T08:46:21Z</time>
      </trkpt>
      <trkpt lat="48.80191" lon="7.37718">
        <ele>197</ele>
        <time>2020-06-28T08:46:23Z</time>
      </trkpt>
      <trkpt lat="48.80189" lon="7.37704">
        <ele>196.9</ele>
        <time>2020-06-28T08:46:25Z</time>
      </trkpt>
      <trkpt lat="48.80185" lon="7.37691">
        <ele>195.8</ele>
        <time>2020-06-28T08:46:27Z</time>
      </trkpt>
      <trkpt lat="48.8018" lon="7.3768">
        <ele>195.6</ele>
        <time>2020-06-28T08:46:29Z</time>
      </trkpt>
      <trkpt lat="48.80174" lon="7.37668">
        <ele>195.3</ele>
        <time>2020-06-28T08:46:31Z</time>
      </trkpt>
      <trkpt lat="48.8017" lon="7.37654">
        <ele>194.1</ele>
        <time>2020-06-28T08:46:33Z</time>
      </trkpt>
      <trkpt lat="48.80165" lon="7.37644">
        <ele>193.4</ele>
        <time>2020-06-28T08:46:35Z</time>
      </trkpt>
      <trkpt lat="48.80161" lon="7.37633">
        <ele>193</ele>
        <time>2020-06-28T08:46:37Z</time>
      </trkpt>
      <trkpt lat="48.80158" lon="7.37623">
        <ele>193.1</ele>
        <time>2020-06-28T08:46:39Z</time>
      </trkpt>
      <trkpt lat="48.80154" lon="7.37612">
        <ele>193.3</ele>
        <time>2020-06-28T08:46:41Z</time>
      </trkpt>
      <trkpt lat="48.80151" lon="7.37602">
        <ele>193.1</ele>
        <time>2020-06-28T08:46:43Z</time>
      </trkpt>
      <trkpt lat="48.80149" lon="7.37592">
        <ele>193.1</ele>
        <time>2020-06-28T08:46:45Z</time>
      </trkpt>
      <trkpt lat="48.80146" lon="7.37581">
        <ele>193.3</ele>
        <time>2020-06-28T08:46:47Z</time>
      </trkpt>
      <trkpt lat="48.80141" lon="7.37569">
        <ele>193.3</ele>
        <time>2020-06-28T08:46:49Z</time>
      </trkpt>
      <trkpt lat="48.80136" lon="7.37559">
        <ele>193.3</ele>
        <time>2020-06-28T08:46:51Z</time>
      </trkpt>
      <trkpt lat="48.80132" lon="7.37546">
        <ele>193.7</ele>
        <time>2020-06-28T08:46:53Z</time>
      </trkpt>
      <trkpt lat="48.80129" lon="7.37536">
        <ele>192.9</ele>
        <time>2020-06-28T08:46:55Z</time>
      </trkpt>
      <trkpt lat="48.80127" lon="7.37527">
        <ele>192.7</ele>
        <time>2020-06-28T08:46:57Z</time>
      </trkpt>
      <trkpt lat="48.80123" lon="7.37515">
        <ele>193.1</ele>
        <time>2020-06-28T08:46:59Z</time>
      </trkpt>
      <trkpt lat="48.80119" lon="7.37503">
        <ele>194.1</ele>
        <time>2020-06-28T08:47:01Z</time>
      </trkpt>
      <trkpt lat="48.80111" lon="7.37485">
        <ele>195.7</ele>
        <time>2020-06-28T08:47:03Z</time>
      </trkpt>
      <trkpt lat="48.80106" lon="7.37467">
        <ele>197.3</ele>
        <time>2020-06-28T08:47:05Z</time>
      </trkpt>
      <trkpt lat="48.80102" lon="7.37451">
        <ele>198.3</ele>
        <time>2020-06-28T08:47:07Z</time>
      </trkpt>
      <trkpt lat="48.80097" lon="7.37437">
        <ele>196.9</ele>
        <time>2020-06-28T08:47:09Z</time>
      </trkpt>
      <trkpt lat="48.80093" lon="7.37424">
        <ele>197.7</ele>
        <time>2020-06-28T08:47:11Z</time>
      </trkpt>
      <trkpt lat="48.8009" lon="7.37414">
        <ele>198.9</ele>
        <time>2020-06-28T08:47:13Z</time>
      </trkpt>
      <trkpt lat="48.80086" lon="7.37401">
        <ele>198.9</ele>
        <time>2020-06-28T08:47:15Z</time>
      </trkpt>
      <trkpt lat="48.80084" lon="7.3739">
        <ele>201.8</ele>
        <time>2020-06-28T08:47:17Z</time>
      </trkpt>
      <trkpt lat="48.80081" lon="7.3738">
        <ele>204.5</ele>
        <time>2020-06-28T08:47:19Z</time>
      </trkpt>
      <trkpt lat="48.80078" lon="7.37367">
        <ele>206.4</ele>
        <time>2020-06-28T08:47:21Z</time>
      </trkpt>
      <trkpt lat="48.80075" lon="7.37354">
        <ele>208.3</ele>
        <time>2020-06-28T08:47:23Z</time>
      </trkpt>
      <trkpt lat="48.80071" lon="7.37336">
        <ele>209.2</ele>
        <time>2020-06-28T08:47:25Z</time>
      </trkpt>
      <trkpt lat="48.80067" lon="7.37319">
        <ele>209.3</ele>
        <time>2020-06-28T08:47:27Z</time>
      </trkpt>
      <trkpt lat="48.80065" lon="7.37303">
        <ele>209.2</ele>
        <time>2020-06-28T08:47:29Z</time>
      </trkpt>
      <trkpt lat="48.80063" lon="7.37288">
        <ele>209.2</ele>
        <time>2020-06-28T08:47:31Z</time>
      </trkpt>
      <trkpt lat="48.8006" lon="7.37275">
        <ele>209.2</ele>
        <time>2020-06-28T08:47:33Z</time>
      </trkpt>
      <trkpt lat="48.80056" lon="7.37263">
        <ele>209.5</ele>
        <time>2020-06-28T08:47:35Z</time>
      </trkpt>
      <trkpt lat="48.80052" lon="7.3725">
        <ele>208.6</ele>
        <time>2020-06-28T08:47:37Z</time>
      </trkpt>
      <trkpt lat="48.80049" lon="7.37235">
        <ele>206.7</ele>
        <time>2020-06-28T08:47:39Z</time>
      </trkpt>
      <trkpt lat="48.80047" lon="7.3722">
        <ele>205.5</ele>
        <time>2020-06-28T08:47:41Z</time>
      </trkpt>
      <trkpt lat="48.80046" lon="7.37205">
        <ele>204.6</ele>
        <time>2020-06-28T08:47:43Z</time>
      </trkpt>
      <trkpt lat="48.80045" lon="7.3719">
        <ele>203.4</ele>
        <time>2020-06-28T08:47:45Z</time>
      </trkpt>
      <trkpt lat="48.80044" lon="7.37175">
        <ele>202.2</ele>
        <time>2020-06-28T08:47:47Z</time>
      </trkpt>
      <trkpt lat="48.80044" lon="7.3716">
        <ele>201.2</ele>
        <time>2020-06-28T08:47:49Z</time>
      </trkpt>
      <trkpt lat="48.80044" lon="7.37145">
        <ele>200.1</ele>
        <time>2020-06-28T08:47:51Z</time>
      </trkpt>
      <trkpt lat="48.80044" lon="7.37132">
        <ele>198.7</ele>
        <time>2020-06-28T08:47:53Z</time>
      </trkpt>
      <trkpt lat="48.80043" lon="7.37118">
        <ele>197.9</ele>
        <time>2020-06-28T08:47:55Z</time>
      </trkpt>
      <trkpt lat="48.80041" lon="7.37103">
        <ele>197.2</ele>
        <time>2020-06-28T08:47:57Z</time>
      </trkpt>
      <trkpt lat="48.8004" lon="7.37088">
        <ele>195.9</ele>
        <time>2020-06-28T08:47:59Z</time>
      </trkpt>
      <trkpt lat="48.80039" lon="7.37075">
        <ele>194.7</ele>
        <time>2020-06-28T08:48:01Z</time>
      </trkpt>
      <trkpt lat="48.80037" lon="7.37064">
        <ele>194</ele>
        <time>2020-06-28T08:48:03Z</time>
      </trkpt>
      <trkpt lat="48.80038" lon="7.37052">
        <ele>193.5</ele>
        <time>2020-06-28T08:48:05Z</time>
      </trkpt>
      <trkpt lat="48.8004" lon="7.37038">
        <ele>193.9</ele>
        <time>2020-06-28T08:48:07Z</time>
      </trkpt>
      <trkpt lat="48.80041" lon="7.37021">
        <ele>194.4</ele>
        <time>2020-06-28T08:48:10Z</time>
      </trkpt>
      <trkpt lat="48.80041" lon="7.37011">
        <ele>194.4</ele>
        <time>2020-06-28T08:48:12Z</time>
      </trkpt>
      <trkpt lat="48.80041" lon="7.37001">
        <ele>194.5</ele>
        <time>2020-06-28T08:48:14Z</time>
      </trkpt>
      <trkpt lat="48.8004" lon="7.3699">
        <ele>193.7</ele>
        <time>2020-06-28T08:48:16Z</time>
      </trkpt>
      <trkpt lat="48.8004" lon="7.36979">
        <ele>194.4</ele>
        <time>2020-06-28T08:48:18Z</time>
      </trkpt>
      <trkpt lat="48.80042" lon="7.36967">
        <ele>193.8</ele>
        <time>2020-06-28T08:48:20Z</time>
      </trkpt>
      <trkpt lat="48.80043" lon="7.36954">
        <ele>193.5</ele>
        <time>2020-06-28T08:48:22Z</time>
      </trkpt>
      <trkpt lat="48.80044" lon="7.36943">
        <ele>193.2</ele>
        <time>2020-06-28T08:48:24Z</time>
      </trkpt>
      <trkpt lat="48.80045" lon="7.3693">
        <ele>192.3</ele>
        <time>2020-06-28T08:48:26Z</time>
      </trkpt>
      <trkpt lat="48.80045" lon="7.36909">
        <ele>191.6</ele>
        <time>2020-06-28T08:48:28Z</time>
      </trkpt>
      <trkpt lat="48.80044" lon="7.3689">
        <ele>190.8</ele>
        <time>2020-06-28T08:48:30Z</time>
      </trkpt>
      <trkpt lat="48.80043" lon="7.36871">
        <ele>190.5</ele>
        <time>2020-06-28T08:48:32Z</time>
      </trkpt>
      <trkpt lat="48.80046" lon="7.36844">
        <ele>190.1</ele>
        <time>2020-06-28T08:48:35Z</time>
      </trkpt>
      <trkpt lat="48.80045" lon="7.36826">
        <ele>191.3</ele>
        <time>2020-06-28T08:48:37Z</time>
      </trkpt>
      <trkpt lat="48.80045" lon="7.3681">
        <ele>191.9</ele>
        <time>2020-06-28T08:48:39Z</time>
      </trkpt>
      <trkpt lat="48.80046" lon="7.36795">
        <ele>192.9</ele>
        <time>2020-06-28T08:48:41Z</time>
      </trkpt>
      <trkpt lat="48.80045" lon="7.36784">
        <ele>193.7</ele>
        <time>2020-06-28T08:48:43Z</time>
      </trkpt>
      <trkpt lat="48.80045" lon="7.36772">
        <ele>194.7</ele>
        <time>2020-06-28T08:48:45Z</time>
      </trkpt>
      <trkpt lat="48.80045" lon="7.3676">
        <ele>194.8</ele>
        <time>2020-06-28T08:48:47Z</time>
      </trkpt>
      <trkpt lat="48.80046" lon="7.36746">
        <ele>194.9</ele>
        <time>2020-06-28T08:48:49Z</time>
      </trkpt>
      <trkpt lat="48.80047" lon="7.36734">
        <ele>195.2</ele>
        <time>2020-06-28T08:48:51Z</time>
      </trkpt>
      <trkpt lat="48.80046" lon="7.36721">
        <ele>195.6</ele>
        <time>2020-06-28T08:48:53Z</time>
      </trkpt>
      <trkpt lat="48.80047" lon="7.36709">
        <ele>196.7</ele>
        <time>2020-06-28T08:48:55Z</time>
      </trkpt>
      <trkpt lat="48.80048" lon="7.3669">
        <ele>197.6</ele>
        <time>2020-06-28T08:48:58Z</time>
      </trkpt>
      <trkpt lat="48.80047" lon="7.36676">
        <ele>198.2</ele>
        <time>2020-06-28T08:49:00Z</time>
      </trkpt>
      <trkpt lat="48.80047" lon="7.36664">
        <ele>198.8</ele>
        <time>2020-06-28T08:49:02Z</time>
      </trkpt>
      <trkpt lat="48.80047" lon="7.36651">
        <ele>199</ele>
        <time>2020-06-28T08:49:04Z</time>
      </trkpt>
      <trkpt lat="48.80044" lon="7.36631">
        <ele>198.4</ele>
        <time>2020-06-28T08:49:06Z</time>
      </trkpt>
      <trkpt lat="48.80043" lon="7.36615">
        <ele>198.4</ele>
        <time>2020-06-28T08:49:08Z</time>
      </trkpt>
      <trkpt lat="48.8004" lon="7.366">
        <ele>198.8</ele>
        <time>2020-06-28T08:49:10Z</time>
      </trkpt>
      <trkpt lat="48.80037" lon="7.36586">
        <ele>199.2</ele>
        <time>2020-06-28T08:49:12Z</time>
      </trkpt>
      <trkpt lat="48.80035" lon="7.36572">
        <ele>199.4</ele>
        <time>2020-06-28T08:49:14Z</time>
      </trkpt>
      <trkpt lat="48.80034" lon="7.36558">
        <ele>199.6</ele>
        <time>2020-06-28T08:49:16Z</time>
      </trkpt>
      <trkpt lat="48.80031" lon="7.36546">
        <ele>199.9</ele>
        <time>2020-06-28T08:49:18Z</time>
      </trkpt>
      <trkpt lat="48.80028" lon="7.36532">
        <ele>200.2</ele>
        <time>2020-06-28T08:49:20Z</time>
      </trkpt>
      <trkpt lat="48.80024" lon="7.36517">
        <ele>200.2</ele>
        <time>2020-06-28T08:49:22Z</time>
      </trkpt>
      <trkpt lat="48.80022" lon="7.36504">
        <ele>199</ele>
        <time>2020-06-28T08:49:24Z</time>
      </trkpt>
      <trkpt lat="48.80021" lon="7.36489">
        <ele>198.1</ele>
        <time>2020-06-28T08:49:26Z</time>
      </trkpt>
      <trkpt lat="48.8002" lon="7.3647">
        <ele>196.9</ele>
        <time>2020-06-28T08:49:29Z</time>
      </trkpt>
      <trkpt lat="48.80018" lon="7.36457">
        <ele>196.3</ele>
        <time>2020-06-28T08:49:31Z</time>
      </trkpt>
      <trkpt lat="48.80016" lon="7.36444">
        <ele>196.5</ele>
        <time>2020-06-28T08:49:33Z</time>
      </trkpt>
      <trkpt lat="48.80014" lon="7.36431">
        <ele>196.3</ele>
        <time>2020-06-28T08:49:35Z</time>
      </trkpt>
      <trkpt lat="48.80012" lon="7.3642">
        <ele>196.3</ele>
        <time>2020-06-28T08:49:37Z</time>
      </trkpt>
      <trkpt lat="48.80009" lon="7.36407">
        <ele>196.3</ele>
        <time>2020-06-28T08:49:39Z</time>
      </trkpt>
      <trkpt lat="48.80006" lon="7.36394">
        <ele>196.2</ele>
        <time>2020-06-28T08:49:41Z</time>
      </trkpt>
      <trkpt lat="48.80003" lon="7.36382">
        <ele>196.8</ele>
        <time>2020-06-28T08:49:43Z</time>
      </trkpt>
      <trkpt lat="48.8" lon="7.36369">
        <ele>197.7</ele>
        <time>2020-06-28T08:49:45Z</time>
      </trkpt>
      <trkpt lat="48.79997" lon="7.36357">
        <ele>198.5</ele>
        <time>2020-06-28T08:49:47Z</time>
      </trkpt>
      <trkpt lat="48.79993" lon="7.36346">
        <ele>199.6</ele>
        <time>2020-06-28T08:49:49Z</time>
      </trkpt>
      <trkpt lat="48.79989" lon="7.36335">
        <ele>200.2</ele>
        <time>2020-06-28T08:49:51Z</time>
      </trkpt>
      <trkpt lat="48.79984" lon="7.36322">
        <ele>200.1</ele>
        <time>2020-06-28T08:49:53Z</time>
      </trkpt>
      <trkpt lat="48.79978" lon="7.3631">
        <ele>200.4</ele>
        <time>2020-06-28T08:49:55Z</time>
      </trkpt>
      <trkpt lat="48.79973" lon="7.36299">
        <ele>200.3</ele>
        <time>2020-06-28T08:49:57Z</time>
      </trkpt>
      <trkpt lat="48.79969" lon="7.3629">
        <ele>200.6</ele>
        <time>2020-06-28T08:49:59Z</time>
      </trkpt>
      <trkpt lat="48.79964" lon="7.36274">
        <ele>200.6</ele>
        <time>2020-06-28T08:50:02Z</time>
      </trkpt>
      <trkpt lat="48.79962" lon="7.36264">
        <ele>200.7</ele>
        <time>2020-06-28T08:50:04Z</time>
      </trkpt>
      <trkpt lat="48.79959" lon="7.36255">
        <ele>200.7</ele>
        <time>2020-06-28T08:50:06Z</time>
      </trkpt>
      <trkpt lat="48.79958" lon="7.36245">
        <ele>200.5</ele>
        <time>2020-06-28T08:50:08Z</time>
      </trkpt>
      <trkpt lat="48.79957" lon="7.36236">
        <ele>201.2</ele>
        <time>2020-06-28T08:50:10Z</time>
      </trkpt>
      <trkpt lat="48.79956" lon="7.36227">
        <ele>202.3</ele>
        <time>2020-06-28T08:50:12Z</time>
      </trkpt>
      <trkpt lat="48.79954" lon="7.36217">
        <ele>203.2</ele>
        <time>2020-06-28T08:50:14Z</time>
      </trkpt>
      <trkpt lat="48.79952" lon="7.36207">
        <ele>200</ele>
        <time>2020-06-28T08:50:16Z</time>
      </trkpt>
      <trkpt lat="48.79948" lon="7.36197">
        <ele>199.8</ele>
        <time>2020-06-28T08:50:18Z</time>
      </trkpt>
      <trkpt lat="48.79943" lon="7.36186">
        <ele>199.4</ele>
        <time>2020-06-28T08:50:20Z</time>
      </trkpt>
      <trkpt lat="48.79938" lon="7.36176">
        <ele>198.7</ele>
        <time>2020-06-28T08:50:22Z</time>
      </trkpt>
      <trkpt lat="48.79934" lon="7.36169">
        <ele>198.3</ele>
        <time>2020-06-28T08:50:24Z</time>
      </trkpt>
      <trkpt lat="48.79929" lon="7.36159">
        <ele>198.2</ele>
        <time>2020-06-28T08:50:26Z</time>
      </trkpt>
      <trkpt lat="48.79924" lon="7.36149">
        <ele>198.4</ele>
        <time>2020-06-28T08:50:28Z</time>
      </trkpt>
      <trkpt lat="48.79917" lon="7.36132">
        <ele>197.3</ele>
        <time>2020-06-28T08:50:30Z</time>
      </trkpt>
      <trkpt lat="48.79911" lon="7.36117">
        <ele>197.6</ele>
        <time>2020-06-28T08:50:32Z</time>
      </trkpt>
      <trkpt lat="48.79907" lon="7.36104">
        <ele>197.9</ele>
        <time>2020-06-28T08:50:34Z</time>
      </trkpt>
      <trkpt lat="48.79903" lon="7.3609">
        <ele>198.3</ele>
        <time>2020-06-28T08:50:36Z</time>
      </trkpt>
      <trkpt lat="48.799" lon="7.36077">
        <ele>199.3</ele>
        <time>2020-06-28T08:50:38Z</time>
      </trkpt>
      <trkpt lat="48.79896" lon="7.36063">
        <ele>199.5</ele>
        <time>2020-06-28T08:50:40Z</time>
      </trkpt>
      <trkpt lat="48.79892" lon="7.36052">
        <ele>200</ele>
        <time>2020-06-28T08:50:42Z</time>
      </trkpt>
      <trkpt lat="48.7989" lon="7.36041">
        <ele>199.9</ele>
        <time>2020-06-28T08:50:44Z</time>
      </trkpt>
      <trkpt lat="48.79887" lon="7.3603">
        <ele>199.7</ele>
        <time>2020-06-28T08:50:46Z</time>
      </trkpt>
      <trkpt lat="48.79884" lon="7.36017">
        <ele>199.2</ele>
        <time>2020-06-28T08:50:48Z</time>
      </trkpt>
      <trkpt lat="48.79881" lon="7.36007">
        <ele>198.3</ele>
        <time>2020-06-28T08:50:50Z</time>
      </trkpt>
      <trkpt lat="48.79881" lon="7.35997">
        <ele>197.8</ele>
        <time>2020-06-28T08:50:52Z</time>
      </trkpt>
      <trkpt lat="48.7988" lon="7.35988">
        <ele>197.2</ele>
        <time>2020-06-28T08:50:55Z</time>
      </trkpt>
      <trkpt lat="48.79881" lon="7.3598">
        <ele>196.2</ele>
        <time>2020-06-28T08:50:57Z</time>
      </trkpt>
      <trkpt lat="48.79879" lon="7.35972">
        <ele>195.6</ele>
        <time>2020-06-28T08:50:59Z</time>
      </trkpt>
      <trkpt lat="48.79878" lon="7.35965">
        <ele>194.5</ele>
        <time>2020-06-28T08:51:03Z</time>
      </trkpt>
      <trkpt lat="48.79877" lon="7.35958">
        <ele>194.5</ele>
        <time>2020-06-28T08:51:08Z</time>
      </trkpt>
      <trkpt lat="48.79876" lon="7.3595">
        <ele>194.2</ele>
        <time>2020-06-28T08:51:12Z</time>
      </trkpt>
      <trkpt lat="48.79875" lon="7.35943">
        <ele>194.4</ele>
        <time>2020-06-28T08:51:15Z</time>
      </trkpt>
      <trkpt lat="48.79873" lon="7.35934">
        <ele>193.9</ele>
        <time>2020-06-28T08:51:18Z</time>
      </trkpt>
      <trkpt lat="48.79869" lon="7.35927">
        <ele>193.1</ele>
        <time>2020-06-28T08:51:20Z</time>
      </trkpt>
      <trkpt lat="48.79864" lon="7.35919">
        <ele>192.5</ele>
        <time>2020-06-28T08:51:22Z</time>
      </trkpt>
      <trkpt lat="48.79861" lon="7.35912">
        <ele>191</ele>
        <time>2020-06-28T08:51:24Z</time>
      </trkpt>
      <trkpt lat="48.79857" lon="7.35903">
        <ele>190.3</ele>
        <time>2020-06-28T08:51:26Z</time>
      </trkpt>
      <trkpt lat="48.79856" lon="7.35892">
        <ele>190.3</ele>
        <time>2020-06-28T08:51:28Z</time>
      </trkpt>
      <trkpt lat="48.79855" lon="7.3588">
        <ele>190.1</ele>
        <time>2020-06-28T08:51:30Z</time>
      </trkpt>
      <trkpt lat="48.79854" lon="7.3587">
        <ele>190.2</ele>
        <time>2020-06-28T08:51:32Z</time>
      </trkpt>
      <trkpt lat="48.79853" lon="7.35858">
        <ele>190.7</ele>
        <time>2020-06-28T08:51:34Z</time>
      </trkpt>
      <trkpt lat="48.79851" lon="7.35847">
        <ele>192.7</ele>
        <time>2020-06-28T08:51:36Z</time>
      </trkpt>
      <trkpt lat="48.79848" lon="7.35836">
        <ele>194.3</ele>
        <time>2020-06-28T08:51:38Z</time>
      </trkpt>
      <trkpt lat="48.79845" lon="7.35824">
        <ele>195.7</ele>
        <time>2020-06-28T08:51:40Z</time>
      </trkpt>
      <trkpt lat="48.79841" lon="7.35811">
        <ele>197</ele>
        <time>2020-06-28T08:51:42Z</time>
      </trkpt>
      <trkpt lat="48.79837" lon="7.35791">
        <ele>198.1</ele>
        <time>2020-06-28T08:51:44Z</time>
      </trkpt>
      <trkpt lat="48.79834" lon="7.35774">
        <ele>199</ele>
        <time>2020-06-28T08:51:46Z</time>
      </trkpt>
      <trkpt lat="48.7983" lon="7.35762">
        <ele>200.6</ele>
        <time>2020-06-28T08:51:48Z</time>
      </trkpt>
      <trkpt lat="48.79826" lon="7.35751">
        <ele>202.1</ele>
        <time>2020-06-28T08:51:50Z</time>
      </trkpt>
      <trkpt lat="48.79824" lon="7.35739">
        <ele>202.7</ele>
        <time>2020-06-28T08:51:52Z</time>
      </trkpt>
      <trkpt lat="48.79823" lon="7.3573">
        <ele>203.7</ele>
        <time>2020-06-28T08:51:54Z</time>
      </trkpt>
      <trkpt lat="48.79821" lon="7.35722">
        <ele>204.5</ele>
        <time>2020-06-28T08:51:56Z</time>
      </trkpt>
      <trkpt lat="48.79818" lon="7.35713">
        <ele>205.6</ele>
        <time>2020-06-28T08:51:58Z</time>
      </trkpt>
      <trkpt lat="48.79816" lon="7.35702">
        <ele>205.7</ele>
        <time>2020-06-28T08:52:00Z</time>
      </trkpt>
      <trkpt lat="48.79815" lon="7.35688">
        <ele>206.3</ele>
        <time>2020-06-28T08:52:02Z</time>
      </trkpt>
      <trkpt lat="48.79816" lon="7.35676">
        <ele>206.6</ele>
        <time>2020-06-28T08:52:04Z</time>
      </trkpt>
      <trkpt lat="48.79815" lon="7.35665">
        <ele>206.6</ele>
        <time>2020-06-28T08:52:06Z</time>
      </trkpt>
      <trkpt lat="48.79815" lon="7.35654">
        <ele>206.1</ele>
        <time>2020-06-28T08:52:08Z</time>
      </trkpt>
      <trkpt lat="48.79813" lon="7.35645">
        <ele>205.9</ele>
        <time>2020-06-28T08:52:10Z</time>
      </trkpt>
      <trkpt lat="48.79812" lon="7.35636">
        <ele>205.8</ele>
        <time>2020-06-28T08:52:12Z</time>
      </trkpt>
      <trkpt lat="48.7981" lon="7.35628">
        <ele>204.4</ele>
        <time>2020-06-28T08:52:14Z</time>
      </trkpt>
      <trkpt lat="48.79808" lon="7.35621">
        <ele>203.7</ele>
        <time>2020-06-28T08:52:16Z</time>
      </trkpt>
      <trkpt lat="48.79806" lon="7.35614">
        <ele>202.3</ele>
        <time>2020-06-28T08:52:18Z</time>
      </trkpt>
      <trkpt lat="48.79804" lon="7.35607">
        <ele>201.4</ele>
        <time>2020-06-28T08:52:20Z</time>
      </trkpt>
      <trkpt lat="48.79802" lon="7.35601">
        <ele>201.2</ele>
        <time>2020-06-28T08:52:22Z</time>
      </trkpt>
      <trkpt lat="48.79801" lon="7.35594">
        <ele>200.3</ele>
        <time>2020-06-28T08:52:24Z</time>
      </trkpt>
      <trkpt lat="48.798" lon="7.35587">
        <ele>199.7</ele>
        <time>2020-06-28T08:52:26Z</time>
      </trkpt>
      <trkpt lat="48.79798" lon="7.35581">
        <ele>199.6</ele>
        <time>2020-06-28T08:52:28Z</time>
      </trkpt>
      <trkpt lat="48.79795" lon="7.35575">
        <ele>199.7</ele>
        <time>2020-06-28T08:52:30Z</time>
      </trkpt>
      <trkpt lat="48.79792" lon="7.35568">
        <ele>198.8</ele>
        <time>2020-06-28T08:52:32Z</time>
      </trkpt>
      <trkpt lat="48.7979" lon="7.35561">
        <ele>199.6</ele>
        <time>2020-06-28T08:52:34Z</time>
      </trkpt>
      <trkpt lat="48.79788" lon="7.35554">
        <ele>200.2</ele>
        <time>2020-06-28T08:52:36Z</time>
      </trkpt>
      <trkpt lat="48.79785" lon="7.35545">
        <ele>202.1</ele>
        <time>2020-06-28T08:52:39Z</time>
      </trkpt>
      <trkpt lat="48.79782" lon="7.35537">
        <ele>202.9</ele>
        <time>2020-06-28T08:52:42Z</time>
      </trkpt>
      <trkpt lat="48.7978" lon="7.35528">
        <ele>203.1</ele>
        <time>2020-06-28T08:52:45Z</time>
      </trkpt>
      <trkpt lat="48.79778" lon="7.35522">
        <ele>204</ele>
        <time>2020-06-28T08:52:47Z</time>
      </trkpt>
      <trkpt lat="48.79775" lon="7.35514">
        <ele>204.9</ele>
        <time>2020-06-28T08:52:49Z</time>
      </trkpt>
      <trkpt lat="48.79773" lon="7.35506">
        <ele>206.4</ele>
        <time>2020-06-28T08:52:51Z</time>
      </trkpt>
      <trkpt lat="48.7977" lon="7.35498">
        <ele>206.1</ele>
        <time>2020-06-28T08:52:53Z</time>
      </trkpt>
      <trkpt lat="48.79768" lon="7.35489">
        <ele>206.5</ele>
        <time>2020-06-28T08:52:55Z</time>
      </trkpt>
      <trkpt lat="48.79766" lon="7.35481">
        <ele>206.1</ele>
        <time>2020-06-28T08:52:57Z</time>
      </trkpt>
      <trkpt lat="48.79764" lon="7.35473">
        <ele>206.9</ele>
        <time>2020-06-28T08:52:59Z</time>
      </trkpt>
      <trkpt lat="48.79762" lon="7.35465">
        <ele>207.2</ele>
        <time>2020-06-28T08:53:01Z</time>
      </trkpt>
      <trkpt lat="48.7976" lon="7.35456">
        <ele>206.9</ele>
        <time>2020-06-28T08:53:03Z</time>
      </trkpt>
      <trkpt lat="48.79758" lon="7.35448">
        <ele>205.7</ele>
        <time>2020-06-28T08:53:05Z</time>
      </trkpt>
      <trkpt lat="48.79757" lon="7.35439">
        <ele>204.3</ele>
        <time>2020-06-28T08:53:08Z</time>
      </trkpt>
      <trkpt lat="48.79758" lon="7.35428">
        <ele>201.3</ele>
        <time>2020-06-28T08:53:11Z</time>
      </trkpt>
      <trkpt lat="48.79759" lon="7.35421">
        <ele>199.7</ele>
        <time>2020-06-28T08:53:13Z</time>
      </trkpt>
      <trkpt lat="48.7976" lon="7.35413">
        <ele>198.5</ele>
        <time>2020-06-28T08:53:15Z</time>
      </trkpt>
      <trkpt lat="48.79761" lon="7.35405">
        <ele>197.5</ele>
        <time>2020-06-28T08:53:17Z</time>
      </trkpt>
      <trkpt lat="48.79761" lon="7.35396">
        <ele>196.7</ele>
        <time>2020-06-28T08:53:19Z</time>
      </trkpt>
      <trkpt lat="48.79761" lon="7.35389">
        <ele>196</ele>
        <time>2020-06-28T08:53:21Z</time>
      </trkpt>
      <trkpt lat="48.79761" lon="7.35379">
        <ele>194.7</ele>
        <time>2020-06-28T08:53:24Z</time>
      </trkpt>
      <trkpt lat="48.79761" lon="7.35372">
        <ele>193.6</ele>
        <time>2020-06-28T08:53:26Z</time>
      </trkpt>
      <trkpt lat="48.79762" lon="7.35365">
        <ele>193.6</ele>
        <time>2020-06-28T08:53:28Z</time>
      </trkpt>
      <trkpt lat="48.79762" lon="7.35357">
        <ele>193.2</ele>
        <time>2020-06-28T08:53:30Z</time>
      </trkpt>
      <trkpt lat="48.79763" lon="7.3535">
        <ele>193.1</ele>
        <time>2020-06-28T08:53:32Z</time>
      </trkpt>
      <trkpt lat="48.79764" lon="7.35341">
        <ele>193.1</ele>
        <time>2020-06-28T08:53:34Z</time>
      </trkpt>
      <trkpt lat="48.79764" lon="7.35332">
        <ele>192.5</ele>
        <time>2020-06-28T08:53:36Z</time>
      </trkpt>
      <trkpt lat="48.79764" lon="7.35322">
        <ele>192.4</ele>
        <time>2020-06-28T08:53:38Z</time>
      </trkpt>
      <trkpt lat="48.79764" lon="7.35309">
        <ele>192.9</ele>
        <time>2020-06-28T08:53:41Z</time>
      </trkpt>
      <trkpt lat="48.79763" lon="7.353">
        <ele>193.5</ele>
        <time>2020-06-28T08:53:43Z</time>
      </trkpt>
      <trkpt lat="48.79762" lon="7.35292">
        <ele>194</ele>
        <time>2020-06-28T08:53:45Z</time>
      </trkpt>
      <trkpt lat="48.79762" lon="7.35284">
        <ele>193.7</ele>
        <time>2020-06-28T08:53:47Z</time>
      </trkpt>
      <trkpt lat="48.79762" lon="7.35277">
        <ele>194</ele>
        <time>2020-06-28T08:53:49Z</time>
      </trkpt>
      <trkpt lat="48.79764" lon="7.35266">
        <ele>194.2</ele>
        <time>2020-06-28T08:53:52Z</time>
      </trkpt>
      <trkpt lat="48.79764" lon="7.35259">
        <ele>194.1</ele>
        <time>2020-06-28T08:53:54Z</time>
      </trkpt>
      <trkpt lat="48.79765" lon="7.35249">
        <ele>193.2</ele>
        <time>2020-06-28T08:53:57Z</time>
      </trkpt>
      <trkpt lat="48.79767" lon="7.35238">
        <ele>192.4</ele>
        <time>2020-06-28T08:54:00Z</time>
      </trkpt>
      <trkpt lat="48.79767" lon="7.35228">
        <ele>192.8</ele>
        <time>2020-06-28T08:54:02Z</time>
      </trkpt>
      <trkpt lat="48.79766" lon="7.3522">
        <ele>192.9</ele>
        <time>2020-06-28T08:54:04Z</time>
      </trkpt>
      <trkpt lat="48.79766" lon="7.35213">
        <ele>193.8</ele>
        <time>2020-06-28T08:54:06Z</time>
      </trkpt>
      <trkpt lat="48.79765" lon="7.35204">
        <ele>194.3</ele>
        <time>2020-06-28T08:54:08Z</time>
      </trkpt>
      <trkpt lat="48.79762" lon="7.35194">
        <ele>195.5</ele>
        <time>2020-06-28T08:54:10Z</time>
      </trkpt>
      <trkpt lat="48.79761" lon="7.35186">
        <ele>196.4</ele>
        <time>2020-06-28T08:54:12Z</time>
      </trkpt>
      <trkpt lat="48.79761" lon="7.35179">
        <ele>197.2</ele>
        <time>2020-06-28T08:54:14Z</time>
      </trkpt>
      <trkpt lat="48.79762" lon="7.35172">
        <ele>199</ele>
        <time>2020-06-28T08:54:16Z</time>
      </trkpt>
      <trkpt lat="48.79765" lon="7.35162">
        <ele>200.2</ele>
        <time>2020-06-28T08:54:18Z</time>
      </trkpt>
      <trkpt lat="48.79768" lon="7.35149">
        <ele>201.4</ele>
        <time>2020-06-28T08:54:20Z</time>
      </trkpt>
      <trkpt lat="48.79767" lon="7.35139">
        <ele>202.3</ele>
        <time>2020-06-28T08:54:22Z</time>
      </trkpt>
      <trkpt lat="48.79768" lon="7.35127">
        <ele>202.5</ele>
        <time>2020-06-28T08:54:25Z</time>
      </trkpt>
      <trkpt lat="48.79767" lon="7.35119">
        <ele>202.3</ele>
        <time>2020-06-28T08:54:27Z</time>
      </trkpt>
      <trkpt lat="48.79764" lon="7.35104">
        <ele>202.1</ele>
        <time>2020-06-28T08:54:30Z</time>
      </trkpt>
      <trkpt lat="48.79762" lon="7.35088">
        <ele>201.4</ele>
        <time>2020-06-28T08:54:33Z</time>
      </trkpt>
      <trkpt lat="48.7976" lon="7.35072">
        <ele>200.6</ele>
        <time>2020-06-28T08:54:36Z</time>
      </trkpt>
      <trkpt lat="48.79759" lon="7.3506">
        <ele>200</ele>
        <time>2020-06-28T08:54:38Z</time>
      </trkpt>
      <trkpt lat="48.79758" lon="7.35048">
        <ele>199.5</ele>
        <time>2020-06-28T08:54:40Z</time>
      </trkpt>
      <trkpt lat="48.79756" lon="7.35035">
        <ele>199.1</ele>
        <time>2020-06-28T08:54:42Z</time>
      </trkpt>
      <trkpt lat="48.79753" lon="7.35022">
        <ele>198.4</ele>
        <time>2020-06-28T08:54:44Z</time>
      </trkpt>
      <trkpt lat="48.7975" lon="7.35007">
        <ele>198.2</ele>
        <time>2020-06-28T08:54:46Z</time>
      </trkpt>
      <trkpt lat="48.79747" lon="7.34994">
        <ele>198</ele>
        <time>2020-06-28T08:54:48Z</time>
      </trkpt>
      <trkpt lat="48.79745" lon="7.34983">
        <ele>197.6</ele>
        <time>2020-06-28T08:54:50Z</time>
      </trkpt>
      <trkpt lat="48.79743" lon="7.34973">
        <ele>197.5</ele>
        <time>2020-06-28T08:54:52Z</time>
      </trkpt>
      <trkpt lat="48.7974" lon="7.34954">
        <ele>197.3</ele>
        <time>2020-06-28T08:54:55Z</time>
      </trkpt>
      <trkpt lat="48.79739" lon="7.34937">
        <ele>196.9</ele>
        <time>2020-06-28T08:54:58Z</time>
      </trkpt>
      <trkpt lat="48.7974" lon="7.34927">
        <ele>197.1</ele>
        <time>2020-06-28T08:55:00Z</time>
      </trkpt>
      <trkpt lat="48.79741" lon="7.34916">
        <ele>197.7</ele>
        <time>2020-06-28T08:55:02Z</time>
      </trkpt>
      <trkpt lat="48.79742" lon="7.34905">
        <ele>197.8</ele>
        <time>2020-06-28T08:55:04Z</time>
      </trkpt>
      <trkpt lat="48.79743" lon="7.34895">
        <ele>198</ele>
        <time>2020-06-28T08:55:06Z</time>
      </trkpt>
      <trkpt lat="48.79743" lon="7.34885">
        <ele>198</ele>
        <time>2020-06-28T08:55:08Z</time>
      </trkpt>
      <trkpt lat="48.79743" lon="7.34875">
        <ele>197.4</ele>
        <time>2020-06-28T08:55:10Z</time>
      </trkpt>
      <trkpt lat="48.79742" lon="7.34865">
        <ele>197.2</ele>
        <time>2020-06-28T08:55:12Z</time>
      </trkpt>
      <trkpt lat="48.7974" lon="7.34852">
        <ele>196.7</ele>
        <time>2020-06-28T08:55:15Z</time>
      </trkpt>
      <trkpt lat="48.79738" lon="7.34843">
        <ele>196.8</ele>
        <time>2020-06-28T08:55:18Z</time>
      </trkpt>
      <trkpt lat="48.79737" lon="7.34836">
        <ele>196.7</ele>
        <time>2020-06-28T08:55:20Z</time>
      </trkpt>
      <trkpt lat="48.79734" lon="7.3483">
        <ele>196.9</ele>
        <time>2020-06-28T08:55:22Z</time>
      </trkpt>
      <trkpt lat="48.79731" lon="7.34823">
        <ele>196.8</ele>
        <time>2020-06-28T08:55:24Z</time>
      </trkpt>
      <trkpt lat="48.79729" lon="7.34816">
        <ele>197</ele>
        <time>2020-06-28T08:55:26Z</time>
      </trkpt>
      <trkpt lat="48.79727" lon="7.34808">
        <ele>197.5</ele>
        <time>2020-06-28T08:55:28Z</time>
      </trkpt>
      <trkpt lat="48.79727" lon="7.348">
        <ele>197.4</ele>
        <time>2020-06-28T08:55:30Z</time>
      </trkpt>
      <trkpt lat="48.79727" lon="7.34793">
        <ele>198.8</ele>
        <time>2020-06-28T08:55:32Z</time>
      </trkpt>
      <trkpt lat="48.79727" lon="7.34785">
        <ele>199.6</ele>
        <time>2020-06-28T08:55:34Z</time>
      </trkpt>
      <trkpt lat="48.79727" lon="7.34777">
        <ele>199.4</ele>
        <time>2020-06-28T08:55:36Z</time>
      </trkpt>
      <trkpt lat="48.79727" lon="7.34768">
        <ele>199.1</ele>
        <time>2020-06-28T08:55:38Z</time>
      </trkpt>
      <trkpt lat="48.79727" lon="7.34759">
        <ele>198.7</ele>
        <time>2020-06-28T08:55:40Z</time>
      </trkpt>
      <trkpt lat="48.79727" lon="7.3475">
        <ele>198</ele>
        <time>2020-06-28T08:55:42Z</time>
      </trkpt>
      <trkpt lat="48.79727" lon="7.34742">
        <ele>197.2</ele>
        <time>2020-06-28T08:55:44Z</time>
      </trkpt>
      <trkpt lat="48.79727" lon="7.34733">
        <ele>198</ele>
        <time>2020-06-28T08:55:46Z</time>
      </trkpt>
      <trkpt lat="48.79726" lon="7.34723">
        <ele>198.2</ele>
        <time>2020-06-28T08:55:48Z</time>
      </trkpt>
      <trkpt lat="48.79726" lon="7.34713">
        <ele>197.6</ele>
        <time>2020-06-28T08:55:50Z</time>
      </trkpt>
      <trkpt lat="48.79726" lon="7.34702">
        <ele>197.8</ele>
        <time>2020-06-28T08:55:52Z</time>
      </trkpt>
      <trkpt lat="48.79726" lon="7.34693">
        <ele>198.3</ele>
        <time>2020-06-28T08:55:54Z</time>
      </trkpt>
      <trkpt lat="48.79725" lon="7.34683">
        <ele>199.4</ele>
        <time>2020-06-28T08:55:56Z</time>
      </trkpt>
      <trkpt lat="48.79724" lon="7.34674">
        <ele>199.5</ele>
        <time>2020-06-28T08:55:58Z</time>
      </trkpt>
      <trkpt lat="48.79724" lon="7.34667">
        <ele>200.4</ele>
        <time>2020-06-28T08:56:00Z</time>
      </trkpt>
      <trkpt lat="48.79722" lon="7.34659">
        <ele>201.1</ele>
        <time>2020-06-28T08:56:02Z</time>
      </trkpt>
      <trkpt lat="48.79721" lon="7.3465">
        <ele>202.3</ele>
        <time>2020-06-28T08:56:04Z</time>
      </trkpt>
      <trkpt lat="48.79719" lon="7.3464">
        <ele>204</ele>
        <time>2020-06-28T08:56:07Z</time>
      </trkpt>
      <trkpt lat="48.79717" lon="7.34634">
        <ele>205.6</ele>
        <time>2020-06-28T08:56:09Z</time>
      </trkpt>
      <trkpt lat="48.79716" lon="7.34627">
        <ele>206.8</ele>
        <time>2020-06-28T08:56:11Z</time>
      </trkpt>
      <trkpt lat="48.79716" lon="7.34618">
        <ele>207.5</ele>
        <time>2020-06-28T08:56:13Z</time>
      </trkpt>
      <trkpt lat="48.79718" lon="7.34607">
        <ele>208.3</ele>
        <time>2020-06-28T08:56:15Z</time>
      </trkpt>
      <trkpt lat="48.79718" lon="7.34598">
        <ele>209.4</ele>
        <time>2020-06-28T08:56:17Z</time>
      </trkpt>
      <trkpt lat="48.79717" lon="7.34584">
        <ele>211</ele>
        <time>2020-06-28T08:56:20Z</time>
      </trkpt>
      <trkpt lat="48.79715" lon="7.34576">
        <ele>212.3</ele>
        <time>2020-06-28T08:56:22Z</time>
      </trkpt>
      <trkpt lat="48.79712" lon="7.34568">
        <ele>212.5</ele>
        <time>2020-06-28T08:56:24Z</time>
      </trkpt>
      <trkpt lat="48.79709" lon="7.34561">
        <ele>213.3</ele>
        <time>2020-06-28T08:56:26Z</time>
      </trkpt>
      <trkpt lat="48.79708" lon="7.34553">
        <ele>213.5</ele>
        <time>2020-06-28T08:56:30Z</time>
      </trkpt>
      <trkpt lat="48.79707" lon="7.34544">
        <ele>214</ele>
        <time>2020-06-28T08:56:33Z</time>
      </trkpt>
      <trkpt lat="48.79706" lon="7.34537">
        <ele>214.5</ele>
        <time>2020-06-28T08:56:35Z</time>
      </trkpt>
      <trkpt lat="48.79705" lon="7.34529">
        <ele>214.5</ele>
        <time>2020-06-28T08:56:38Z</time>
      </trkpt>
      <trkpt lat="48.79703" lon="7.34522">
        <ele>214.4</ele>
        <time>2020-06-28T08:56:41Z</time>
      </trkpt>
      <trkpt lat="48.79701" lon="7.34515">
        <ele>214.1</ele>
        <time>2020-06-28T08:56:43Z</time>
      </trkpt>
      <trkpt lat="48.79701" lon="7.34506">
        <ele>213.8</ele>
        <time>2020-06-28T08:56:45Z</time>
      </trkpt>
      <trkpt lat="48.797" lon="7.34497">
        <ele>213.3</ele>
        <time>2020-06-28T08:56:47Z</time>
      </trkpt>
      <trkpt lat="48.79701" lon="7.34488">
        <ele>213.4</ele>
        <time>2020-06-28T08:56:49Z</time>
      </trkpt>
      <trkpt lat="48.797" lon="7.34479">
        <ele>213.1</ele>
        <time>2020-06-28T08:56:51Z</time>
      </trkpt>
      <trkpt lat="48.797" lon="7.3447">
        <ele>212.9</ele>
        <time>2020-06-28T08:56:53Z</time>
      </trkpt>
      <trkpt lat="48.79699" lon="7.34461">
        <ele>212.6</ele>
        <time>2020-06-28T08:56:55Z</time>
      </trkpt>
      <trkpt lat="48.79699" lon="7.34451">
        <ele>212.8</ele>
        <time>2020-06-28T08:56:57Z</time>
      </trkpt>
      <trkpt lat="48.79697" lon="7.34441">
        <ele>212.7</ele>
        <time>2020-06-28T08:56:59Z</time>
      </trkpt>
      <trkpt lat="48.79694" lon="7.34432">
        <ele>212.6</ele>
        <time>2020-06-28T08:57:01Z</time>
      </trkpt>
      <trkpt lat="48.79692" lon="7.34421">
        <ele>212</ele>
        <time>2020-06-28T08:57:03Z</time>
      </trkpt>
      <trkpt lat="48.79689" lon="7.34412">
        <ele>212.3</ele>
        <time>2020-06-28T08:57:05Z</time>
      </trkpt>
      <trkpt lat="48.79686" lon="7.34404">
        <ele>214.1</ele>
        <time>2020-06-28T08:57:07Z</time>
      </trkpt>
      <trkpt lat="48.79684" lon="7.34396">
        <ele>215</ele>
        <time>2020-06-28T08:57:09Z</time>
      </trkpt>
      <trkpt lat="48.79682" lon="7.34387">
        <ele>216.1</ele>
        <time>2020-06-28T08:57:11Z</time>
      </trkpt>
      <trkpt lat="48.79679" lon="7.34379">
        <ele>216.5</ele>
        <time>2020-06-28T08:57:13Z</time>
      </trkpt>
      <trkpt lat="48.79676" lon="7.3437">
        <ele>217</ele>
        <time>2020-06-28T08:57:15Z</time>
      </trkpt>
      <trkpt lat="48.79673" lon="7.34359">
        <ele>216.5</ele>
        <time>2020-06-28T08:57:17Z</time>
      </trkpt>
      <trkpt lat="48.79669" lon="7.3435">
        <ele>216.4</ele>
        <time>2020-06-28T08:57:19Z</time>
      </trkpt>
      <trkpt lat="48.79665" lon="7.3434">
        <ele>215.8</ele>
        <time>2020-06-28T08:57:21Z</time>
      </trkpt>
      <trkpt lat="48.79661" lon="7.3433">
        <ele>214.7</ele>
        <time>2020-06-28T08:57:23Z</time>
      </trkpt>
      <trkpt lat="48.79657" lon="7.3432">
        <ele>214.2</ele>
        <time>2020-06-28T08:57:25Z</time>
      </trkpt>
      <trkpt lat="48.79655" lon="7.34311">
        <ele>213.9</ele>
        <time>2020-06-28T08:57:27Z</time>
      </trkpt>
      <trkpt lat="48.79653" lon="7.34303">
        <ele>214.4</ele>
        <time>2020-06-28T08:57:29Z</time>
      </trkpt>
      <trkpt lat="48.79653" lon="7.34294">
        <ele>214.2</ele>
        <time>2020-06-28T08:57:31Z</time>
      </trkpt>
      <trkpt lat="48.79656" lon="7.34285">
        <ele>213.8</ele>
        <time>2020-06-28T08:57:33Z</time>
      </trkpt>
      <trkpt lat="48.79658" lon="7.34274">
        <ele>213.1</ele>
        <time>2020-06-28T08:57:35Z</time>
      </trkpt>
      <trkpt lat="48.7966" lon="7.34263">
        <ele>211.9</ele>
        <time>2020-06-28T08:57:37Z</time>
      </trkpt>
      <trkpt lat="48.79662" lon="7.34252">
        <ele>211</ele>
        <time>2020-06-28T08:57:39Z</time>
      </trkpt>
      <trkpt lat="48.79665" lon="7.3424">
        <ele>210.2</ele>
        <time>2020-06-28T08:57:41Z</time>
      </trkpt>
      <trkpt lat="48.79666" lon="7.34228">
        <ele>208.2</ele>
        <time>2020-06-28T08:57:43Z</time>
      </trkpt>
      <trkpt lat="48.79667" lon="7.34218">
        <ele>205.8</ele>
        <time>2020-06-28T08:57:45Z</time>
      </trkpt>
      <trkpt lat="48.79666" lon="7.34206">
        <ele>204.6</ele>
        <time>2020-06-28T08:57:47Z</time>
      </trkpt>
      <trkpt lat="48.79664" lon="7.34195">
        <ele>203.4</ele>
        <time>2020-06-28T08:57:49Z</time>
      </trkpt>
      <trkpt lat="48.7966" lon="7.34184">
        <ele>203.1</ele>
        <time>2020-06-28T08:57:51Z</time>
      </trkpt>
      <trkpt lat="48.79656" lon="7.34175">
        <ele>202.6</ele>
        <time>2020-06-28T08:57:53Z</time>
      </trkpt>
      <trkpt lat="48.79651" lon="7.34167">
        <ele>201.6</ele>
        <time>2020-06-28T08:57:55Z</time>
      </trkpt>
      <trkpt lat="48.79647" lon="7.34157">
        <ele>200.5</ele>
        <time>2020-06-28T08:57:57Z</time>
      </trkpt>
      <trkpt lat="48.79644" lon="7.34147">
        <ele>199.9</ele>
        <time>2020-06-28T08:57:59Z</time>
      </trkpt>
      <trkpt lat="48.79641" lon="7.34136">
        <ele>198.6</ele>
        <time>2020-06-28T08:58:01Z</time>
      </trkpt>
      <trkpt lat="48.79638" lon="7.34125">
        <ele>198.7</ele>
        <time>2020-06-28T08:58:03Z</time>
      </trkpt>
      <trkpt lat="48.79635" lon="7.34113">
        <ele>199.2</ele>
        <time>2020-06-28T08:58:05Z</time>
      </trkpt>
      <trkpt lat="48.79632" lon="7.34101">
        <ele>199.3</ele>
        <time>2020-06-28T08:58:07Z</time>
      </trkpt>
      <trkpt lat="48.7963" lon="7.34092">
        <ele>199.4</ele>
        <time>2020-06-28T08:58:09Z</time>
      </trkpt>
      <trkpt lat="48.79629" lon="7.34082">
        <ele>198.5</ele>
        <time>2020-06-28T08:58:11Z</time>
      </trkpt>
      <trkpt lat="48.79631" lon="7.3407">
        <ele>197.6</ele>
        <time>2020-06-28T08:58:13Z</time>
      </trkpt>
      <trkpt lat="48.79635" lon="7.34051">
        <ele>196.1</ele>
        <time>2020-06-28T08:58:16Z</time>
      </trkpt>
      <trkpt lat="48.79636" lon="7.34037">
        <ele>195.9</ele>
        <time>2020-06-28T08:58:18Z</time>
      </trkpt>
      <trkpt lat="48.79638" lon="7.34024">
        <ele>195.5</ele>
        <time>2020-06-28T08:58:20Z</time>
      </trkpt>
      <trkpt lat="48.79638" lon="7.34012">
        <ele>195.8</ele>
        <time>2020-06-28T08:58:22Z</time>
      </trkpt>
      <trkpt lat="48.79638" lon="7.34001">
        <ele>196.9</ele>
        <time>2020-06-28T08:58:24Z</time>
      </trkpt>
      <trkpt lat="48.79639" lon="7.33988">
        <ele>197.6</ele>
        <time>2020-06-28T08:58:26Z</time>
      </trkpt>
      <trkpt lat="48.79642" lon="7.33978">
        <ele>197.9</ele>
        <time>2020-06-28T08:58:28Z</time>
      </trkpt>
      <trkpt lat="48.79646" lon="7.33969">
        <ele>198.3</ele>
        <time>2020-06-28T08:58:30Z</time>
      </trkpt>
      <trkpt lat="48.79648" lon="7.33961">
        <ele>199.2</ele>
        <time>2020-06-28T08:58:32Z</time>
      </trkpt>
      <trkpt lat="48.79649" lon="7.33954">
        <ele>199</ele>
        <time>2020-06-28T08:58:34Z</time>
      </trkpt>
      <trkpt lat="48.79646" lon="7.33948">
        <ele>199.2</ele>
        <time>2020-06-28T08:58:36Z</time>
      </trkpt>
      <trkpt lat="48.79642" lon="7.33941">
        <ele>199.6</ele>
        <time>2020-06-28T08:58:38Z</time>
      </trkpt>
      <trkpt lat="48.79639" lon="7.33934">
        <ele>199.6</ele>
        <time>2020-06-28T08:58:40Z</time>
      </trkpt>
      <trkpt lat="48.79634" lon="7.33927">
        <ele>200.3</ele>
        <time>2020-06-28T08:58:42Z</time>
      </trkpt>
      <trkpt lat="48.7963" lon="7.33921">
        <ele>200.9</ele>
        <time>2020-06-28T08:58:44Z</time>
      </trkpt>
      <trkpt lat="48.79625" lon="7.33917">
        <ele>201.3</ele>
        <time>2020-06-28T08:58:46Z</time>
      </trkpt>
      <trkpt lat="48.79621" lon="7.33912">
        <ele>200.9</ele>
        <time>2020-06-28T08:58:48Z</time>
      </trkpt>
      <trkpt lat="48.79618" lon="7.33906">
        <ele>201</ele>
        <time>2020-06-28T08:58:50Z</time>
      </trkpt>
      <trkpt lat="48.79616" lon="7.33899">
        <ele>201</ele>
        <time>2020-06-28T08:58:52Z</time>
      </trkpt>
      <trkpt lat="48.79615" lon="7.33892">
        <ele>201.1</ele>
        <time>2020-06-28T08:58:54Z</time>
      </trkpt>
      <trkpt lat="48.79613" lon="7.33885">
        <ele>201</ele>
        <time>2020-06-28T08:58:56Z</time>
      </trkpt>
      <trkpt lat="48.7961" lon="7.33876">
        <ele>201.4</ele>
        <time>2020-06-28T08:58:59Z</time>
      </trkpt>
      <trkpt lat="48.79606" lon="7.33871">
        <ele>201.4</ele>
        <time>2020-06-28T08:59:01Z</time>
      </trkpt>
      <trkpt lat="48.79602" lon="7.33863">
        <ele>201</ele>
        <time>2020-06-28T08:59:03Z</time>
      </trkpt>
      <trkpt lat="48.79598" lon="7.33854">
        <ele>201.1</ele>
        <time>2020-06-28T08:59:05Z</time>
      </trkpt>
      <trkpt lat="48.79596" lon="7.33844">
        <ele>200.6</ele>
        <time>2020-06-28T08:59:07Z</time>
      </trkpt>
      <trkpt lat="48.79594" lon="7.33831">
        <ele>200.2</ele>
        <time>2020-06-28T08:59:09Z</time>
      </trkpt>
      <trkpt lat="48.79593" lon="7.33818">
        <ele>200.1</ele>
        <time>2020-06-28T08:59:11Z</time>
      </trkpt>
      <trkpt lat="48.79594" lon="7.33806">
        <ele>199.9</ele>
        <time>2020-06-28T08:59:13Z</time>
      </trkpt>
      <trkpt lat="48.79594" lon="7.33796">
        <ele>199.7</ele>
        <time>2020-06-28T08:59:15Z</time>
      </trkpt>
      <trkpt lat="48.79593" lon="7.33787">
        <ele>199.6</ele>
        <time>2020-06-28T08:59:17Z</time>
      </trkpt>
      <trkpt lat="48.79595" lon="7.3378">
        <ele>199.6</ele>
        <time>2020-06-28T08:59:19Z</time>
      </trkpt>
      <trkpt lat="48.79597" lon="7.33774">
        <ele>199.2</ele>
        <time>2020-06-28T08:59:21Z</time>
      </trkpt>
      <trkpt lat="48.79599" lon="7.33768">
        <ele>198.7</ele>
        <time>2020-06-28T08:59:23Z</time>
      </trkpt>
      <trkpt lat="48.79602" lon="7.33759">
        <ele>198</ele>
        <time>2020-06-28T08:59:26Z</time>
      </trkpt>
      <trkpt lat="48.79605" lon="7.3375">
        <ele>198.1</ele>
        <time>2020-06-28T08:59:29Z</time>
      </trkpt>
      <trkpt lat="48.79607" lon="7.33744">
        <ele>198.4</ele>
        <time>2020-06-28T08:59:31Z</time>
      </trkpt>
      <trkpt lat="48.79609" lon="7.33735">
        <ele>198.5</ele>
        <time>2020-06-28T08:59:34Z</time>
      </trkpt>
      <trkpt lat="48.79609" lon="7.33727">
        <ele>198</ele>
        <time>2020-06-28T08:59:36Z</time>
      </trkpt>
      <trkpt lat="48.79609" lon="7.33719">
        <ele>197.7</ele>
        <time>2020-06-28T08:59:38Z</time>
      </trkpt>
      <trkpt lat="48.79608" lon="7.33712">
        <ele>197.7</ele>
        <time>2020-06-28T08:59:40Z</time>
      </trkpt>
      <trkpt lat="48.79607" lon="7.33701">
        <ele>197.6</ele>
        <time>2020-06-28T08:59:43Z</time>
      </trkpt>
      <trkpt lat="48.79606" lon="7.33693">
        <ele>197.8</ele>
        <time>2020-06-28T08:59:46Z</time>
      </trkpt>
      <trkpt lat="48.79607" lon="7.33682">
        <ele>198.5</ele>
        <time>2020-06-28T08:59:49Z</time>
      </trkpt>
      <trkpt lat="48.79608" lon="7.33672">
        <ele>199.5</ele>
        <time>2020-06-28T08:59:52Z</time>
      </trkpt>
      <trkpt lat="48.79608" lon="7.33665">
        <ele>199.8</ele>
        <time>2020-06-28T08:59:55Z</time>
      </trkpt>
      <trkpt lat="48.79608" lon="7.33658">
        <ele>200.1</ele>
        <time>2020-06-28T08:59:58Z</time>
      </trkpt>
      <trkpt lat="48.79607" lon="7.33648">
        <ele>199.7</ele>
        <time>2020-06-28T09:00:01Z</time>
      </trkpt>
      <trkpt lat="48.79607" lon="7.3364">
        <ele>199.5</ele>
        <time>2020-06-28T09:00:04Z</time>
      </trkpt>
      <trkpt lat="48.79607" lon="7.3363">
        <ele>200.3</ele>
        <time>2020-06-28T09:00:07Z</time>
      </trkpt>
      <trkpt lat="48.79607" lon="7.33621">
        <ele>201.9</ele>
        <time>2020-06-28T09:00:10Z</time>
      </trkpt>
      <trkpt lat="48.79607" lon="7.33614">
        <ele>203.5</ele>
        <time>2020-06-28T09:00:13Z</time>
      </trkpt>
      <trkpt lat="48.79607" lon="7.33607">
        <ele>204.7</ele>
        <time>2020-06-28T09:00:16Z</time>
      </trkpt>
      <trkpt lat="48.79607" lon="7.33597">
        <ele>205.9</ele>
        <time>2020-06-28T09:00:19Z</time>
      </trkpt>
      <trkpt lat="48.79607" lon="7.33589">
        <ele>207.5</ele>
        <time>2020-06-28T09:00:22Z</time>
      </trkpt>
      <trkpt lat="48.79604" lon="7.33582">
        <ele>208.8</ele>
        <time>2020-06-28T09:00:26Z</time>
      </trkpt>
      <trkpt lat="48.79602" lon="7.33573">
        <ele>209.6</ele>
        <time>2020-06-28T09:00:29Z</time>
      </trkpt>
      <trkpt lat="48.79604" lon="7.33563">
        <ele>210.8</ele>
        <time>2020-06-28T09:00:32Z</time>
      </trkpt>
      <trkpt lat="48.79606" lon="7.33553">
        <ele>210</ele>
        <time>2020-06-28T09:00:35Z</time>
      </trkpt>
      <trkpt lat="48.79608" lon="7.33545">
        <ele>209.2</ele>
        <time>2020-06-28T09:00:38Z</time>
      </trkpt>
      <trkpt lat="48.7961" lon="7.33538">
        <ele>208.8</ele>
        <time>2020-06-28T09:00:41Z</time>
      </trkpt>
      <trkpt lat="48.79611" lon="7.33531">
        <ele>208.7</ele>
        <time>2020-06-28T09:00:44Z</time>
      </trkpt>
      <trkpt lat="48.79611" lon="7.33524">
        <ele>208.9</ele>
        <time>2020-06-28T09:00:47Z</time>
      </trkpt>
      <trkpt lat="48.79612" lon="7.33515">
        <ele>208.4</ele>
        <time>2020-06-28T09:00:51Z</time>
      </trkpt>
      <trkpt lat="48.79614" lon="7.33507">
        <ele>207.6</ele>
        <time>2020-06-28T09:00:54Z</time>
      </trkpt>
      <trkpt lat="48.79617" lon="7.33498">
        <ele>206.8</ele>
        <time>2020-06-28T09:00:57Z</time>
      </trkpt>
      <trkpt lat="48.79619" lon="7.3349">
        <ele>205.9</ele>
        <time>2020-06-28T09:01:00Z</time>
      </trkpt>
      <trkpt lat="48.79623" lon="7.33483">
        <ele>205.5</ele>
        <time>2020-06-28T09:01:03Z</time>
      </trkpt>
      <trkpt lat="48.79624" lon="7.33476">
        <ele>205.9</ele>
        <time>2020-06-28T09:01:05Z</time>
      </trkpt>
      <trkpt lat="48.79625" lon="7.33467">
        <ele>207.2</ele>
        <time>2020-06-28T09:01:07Z</time>
      </trkpt>
      <trkpt lat="48.79626" lon="7.3346">
        <ele>208.5</ele>
        <time>2020-06-28T09:01:09Z</time>
      </trkpt>
      <trkpt lat="48.79628" lon="7.33454">
        <ele>210</ele>
        <time>2020-06-28T09:01:11Z</time>
      </trkpt>
      <trkpt lat="48.7963" lon="7.33446">
        <ele>211.4</ele>
        <time>2020-06-28T09:01:13Z</time>
      </trkpt>
      <trkpt lat="48.79633" lon="7.33438">
        <ele>212.3</ele>
        <time>2020-06-28T09:01:15Z</time>
      </trkpt>
      <trkpt lat="48.79635" lon="7.33431">
        <ele>213.8</ele>
        <time>2020-06-28T09:01:17Z</time>
      </trkpt>
      <trkpt lat="48.79637" lon="7.33422">
        <ele>214.9</ele>
        <time>2020-06-28T09:01:20Z</time>
      </trkpt>
      <trkpt lat="48.79639" lon="7.33413">
        <ele>215.3</ele>
        <time>2020-06-28T09:01:23Z</time>
      </trkpt>
      <trkpt lat="48.79642" lon="7.33404">
        <ele>215.9</ele>
        <time>2020-06-28T09:01:26Z</time>
      </trkpt>
      <trkpt lat="48.79645" lon="7.33397">
        <ele>217</ele>
        <time>2020-06-28T09:01:28Z</time>
      </trkpt>
      <trkpt lat="48.79647" lon="7.33392">
        <ele>217.1</ele>
        <time>2020-06-28T09:01:30Z</time>
      </trkpt>
      <trkpt lat="48.79651" lon="7.33387">
        <ele>217</ele>
        <time>2020-06-28T09:01:32Z</time>
      </trkpt>
      <trkpt lat="48.79654" lon="7.33381">
        <ele>216.9</ele>
        <time>2020-06-28T09:01:34Z</time>
      </trkpt>
      <trkpt lat="48.79657" lon="7.33375">
        <ele>217.4</ele>
        <time>2020-06-28T09:01:36Z</time>
      </trkpt>
      <trkpt lat="48.7966" lon="7.33366">
        <ele>217.7</ele>
        <time>2020-06-28T09:01:39Z</time>
      </trkpt>
      <trkpt lat="48.79661" lon="7.3336">
        <ele>217.8</ele>
        <time>2020-06-28T09:01:41Z</time>
      </trkpt>
      <trkpt lat="48.7967" lon="7.33345">
        <ele>219.1</ele>
        <time>2020-06-28T09:01:44Z</time>
      </trkpt>
      <trkpt lat="48.79675" lon="7.33337">
        <ele>220.1</ele>
        <time>2020-06-28T09:01:46Z</time>
      </trkpt>
      <trkpt lat="48.79683" lon="7.33326">
        <ele>221.1</ele>
        <time>2020-06-28T09:01:49Z</time>
      </trkpt>
      <trkpt lat="48.79689" lon="7.33317">
        <ele>221.9</ele>
        <time>2020-06-28T09:01:51Z</time>
      </trkpt>
      <trkpt lat="48.79695" lon="7.33307">
        <ele>222.5</ele>
        <time>2020-06-28T09:01:53Z</time>
      </trkpt>
      <trkpt lat="48.79704" lon="7.33293">
        <ele>223</ele>
        <time>2020-06-28T09:01:55Z</time>
      </trkpt>
      <trkpt lat="48.79712" lon="7.33279">
        <ele>224.4</ele>
        <time>2020-06-28T09:01:57Z</time>
      </trkpt>
      <trkpt lat="48.7972" lon="7.33265">
        <ele>217.6</ele>
        <time>2020-06-28T09:01:59Z</time>
      </trkpt>
      <trkpt lat="48.79728" lon="7.33252">
        <ele>216.8</ele>
        <time>2020-06-28T09:02:01Z</time>
      </trkpt>
      <trkpt lat="48.79736" lon="7.33239">
        <ele>217</ele>
        <time>2020-06-28T09:02:03Z</time>
      </trkpt>
      <trkpt lat="48.79746" lon="7.33227">
        <ele>217</ele>
        <time>2020-06-28T09:02:05Z</time>
      </trkpt>
      <trkpt lat="48.79753" lon="7.33212">
        <ele>217.4</ele>
        <time>2020-06-28T09:02:07Z</time>
      </trkpt>
      <trkpt lat="48.7976" lon="7.33198">
        <ele>217</ele>
        <time>2020-06-28T09:02:09Z</time>
      </trkpt>
      <trkpt lat="48.79766" lon="7.33183">
        <ele>217.2</ele>
        <time>2020-06-28T09:02:11Z</time>
      </trkpt>
      <trkpt lat="48.79773" lon="7.33169">
        <ele>216.8</ele>
        <time>2020-06-28T09:02:13Z</time>
      </trkpt>
      <trkpt lat="48.79779" lon="7.33154">
        <ele>216.4</ele>
        <time>2020-06-28T09:02:15Z</time>
      </trkpt>
      <trkpt lat="48.79785" lon="7.33139">
        <ele>216</ele>
        <time>2020-06-28T09:02:17Z</time>
      </trkpt>
      <trkpt lat="48.7979" lon="7.33124">
        <ele>215.6</ele>
        <time>2020-06-28T09:02:19Z</time>
      </trkpt>
      <trkpt lat="48.79795" lon="7.33111">
        <ele>214.8</ele>
        <time>2020-06-28T09:02:21Z</time>
      </trkpt>
      <trkpt lat="48.79801" lon="7.33098">
        <ele>214.1</ele>
        <time>2020-06-28T09:02:23Z</time>
      </trkpt>
      <trkpt lat="48.79805" lon="7.33082">
        <ele>213.6</ele>
        <time>2020-06-28T09:02:25Z</time>
      </trkpt>
      <trkpt lat="48.79809" lon="7.33065">
        <ele>212.9</ele>
        <time>2020-06-28T09:02:27Z</time>
      </trkpt>
      <trkpt lat="48.79812" lon="7.33048">
        <ele>212.3</ele>
        <time>2020-06-28T09:02:29Z</time>
      </trkpt>
      <trkpt lat="48.79814" lon="7.33032">
        <ele>211.5</ele>
        <time>2020-06-28T09:02:31Z</time>
      </trkpt>
      <trkpt lat="48.79818" lon="7.33018">
        <ele>210.8</ele>
        <time>2020-06-28T09:02:33Z</time>
      </trkpt>
      <trkpt lat="48.7982" lon="7.33">
        <ele>210.1</ele>
        <time>2020-06-28T09:02:35Z</time>
      </trkpt>
      <trkpt lat="48.79824" lon="7.32982">
        <ele>208.3</ele>
        <time>2020-06-28T09:02:37Z</time>
      </trkpt>
      <trkpt lat="48.79827" lon="7.32962">
        <ele>207.1</ele>
        <time>2020-06-28T09:02:39Z</time>
      </trkpt>
      <trkpt lat="48.79829" lon="7.32944">
        <ele>206.2</ele>
        <time>2020-06-28T09:02:41Z</time>
      </trkpt>
      <trkpt lat="48.7983" lon="7.32928">
        <ele>205.7</ele>
        <time>2020-06-28T09:02:43Z</time>
      </trkpt>
      <trkpt lat="48.79831" lon="7.3291">
        <ele>205.1</ele>
        <time>2020-06-28T09:02:45Z</time>
      </trkpt>
      <trkpt lat="48.79831" lon="7.32892">
        <ele>203.3</ele>
        <time>2020-06-28T09:02:47Z</time>
      </trkpt>
      <trkpt lat="48.79832" lon="7.32874">
        <ele>202.5</ele>
        <time>2020-06-28T09:02:49Z</time>
      </trkpt>
      <trkpt lat="48.79834" lon="7.32856">
        <ele>202</ele>
        <time>2020-06-28T09:02:51Z</time>
      </trkpt>
      <trkpt lat="48.79834" lon="7.32839">
        <ele>201.5</ele>
        <time>2020-06-28T09:02:53Z</time>
      </trkpt>
      <trkpt lat="48.79835" lon="7.32822">
        <ele>200.9</ele>
        <time>2020-06-28T09:02:55Z</time>
      </trkpt>
      <trkpt lat="48.79835" lon="7.32808">
        <ele>200.7</ele>
        <time>2020-06-28T09:02:57Z</time>
      </trkpt>
      <trkpt lat="48.79836" lon="7.32791">
        <ele>200.6</ele>
        <time>2020-06-28T09:02:59Z</time>
      </trkpt>
      <trkpt lat="48.79836" lon="7.32775">
        <ele>200.2</ele>
        <time>2020-06-28T09:03:01Z</time>
      </trkpt>
      <trkpt lat="48.79836" lon="7.32759">
        <ele>200.1</ele>
        <time>2020-06-28T09:03:03Z</time>
      </trkpt>
      <trkpt lat="48.79836" lon="7.32744">
        <ele>200.5</ele>
        <time>2020-06-28T09:03:05Z</time>
      </trkpt>
      <trkpt lat="48.79834" lon="7.32728">
        <ele>200.9</ele>
        <time>2020-06-28T09:03:07Z</time>
      </trkpt>
      <trkpt lat="48.79835" lon="7.3271">
        <ele>202.3</ele>
        <time>2020-06-28T09:03:09Z</time>
      </trkpt>
      <trkpt lat="48.79836" lon="7.32694">
        <ele>202.7</ele>
        <time>2020-06-28T09:03:11Z</time>
      </trkpt>
      <trkpt lat="48.79837" lon="7.32679">
        <ele>202.5</ele>
        <time>2020-06-28T09:03:13Z</time>
      </trkpt>
      <trkpt lat="48.79837" lon="7.32663">
        <ele>202.8</ele>
        <time>2020-06-28T09:03:15Z</time>
      </trkpt>
      <trkpt lat="48.79838" lon="7.32647">
        <ele>201.1</ele>
        <time>2020-06-28T09:03:17Z</time>
      </trkpt>
      <trkpt lat="48.79838" lon="7.3263">
        <ele>200.6</ele>
        <time>2020-06-28T09:03:19Z</time>
      </trkpt>
      <trkpt lat="48.7984" lon="7.32614">
        <ele>200.3</ele>
        <time>2020-06-28T09:03:21Z</time>
      </trkpt>
      <trkpt lat="48.79843" lon="7.32596">
        <ele>200.3</ele>
        <time>2020-06-28T09:03:23Z</time>
      </trkpt>
      <trkpt lat="48.79846" lon="7.32579">
        <ele>200.5</ele>
        <time>2020-06-28T09:03:25Z</time>
      </trkpt>
      <trkpt lat="48.79848" lon="7.32562">
        <ele>200.6</ele>
        <time>2020-06-28T09:03:27Z</time>
      </trkpt>
      <trkpt lat="48.7985" lon="7.32547">
        <ele>200.9</ele>
        <time>2020-06-28T09:03:29Z</time>
      </trkpt>
      <trkpt lat="48.79853" lon="7.32529">
        <ele>200.9</ele>
        <time>2020-06-28T09:03:31Z</time>
      </trkpt>
      <trkpt lat="48.79856" lon="7.32512">
        <ele>200.9</ele>
        <time>2020-06-28T09:03:33Z</time>
      </trkpt>
      <trkpt lat="48.79858" lon="7.32496">
        <ele>200.1</ele>
        <time>2020-06-28T09:03:35Z</time>
      </trkpt>
      <trkpt lat="48.7986" lon="7.3248">
        <ele>199.8</ele>
        <time>2020-06-28T09:03:37Z</time>
      </trkpt>
      <trkpt lat="48.79863" lon="7.32455">
        <ele>199.2</ele>
        <time>2020-06-28T09:03:40Z</time>
      </trkpt>
      <trkpt lat="48.79865" lon="7.32438">
        <ele>199.2</ele>
        <time>2020-06-28T09:03:42Z</time>
      </trkpt>
      <trkpt lat="48.79865" lon="7.32421">
        <ele>199.7</ele>
        <time>2020-06-28T09:03:44Z</time>
      </trkpt>
      <trkpt lat="48.79866" lon="7.32408">
        <ele>199.9</ele>
        <time>2020-06-28T09:03:46Z</time>
      </trkpt>
      <trkpt lat="48.79867" lon="7.32394">
        <ele>199.7</ele>
        <time>2020-06-28T09:03:48Z</time>
      </trkpt>
      <trkpt lat="48.79869" lon="7.32379">
        <ele>198.9</ele>
        <time>2020-06-28T09:03:50Z</time>
      </trkpt>
      <trkpt lat="48.79871" lon="7.32364">
        <ele>198.4</ele>
        <time>2020-06-28T09:03:52Z</time>
      </trkpt>
      <trkpt lat="48.79874" lon="7.32348">
        <ele>197.6</ele>
        <time>2020-06-28T09:03:54Z</time>
      </trkpt>
      <trkpt lat="48.79878" lon="7.32332">
        <ele>196.8</ele>
        <time>2020-06-28T09:03:56Z</time>
      </trkpt>
      <trkpt lat="48.79881" lon="7.32317">
        <ele>196.4</ele>
        <time>2020-06-28T09:03:58Z</time>
      </trkpt>
      <trkpt lat="48.79883" lon="7.32301">
        <ele>196.1</ele>
        <time>2020-06-28T09:04:00Z</time>
      </trkpt>
      <trkpt lat="48.79885" lon="7.32287">
        <ele>195.7</ele>
        <time>2020-06-28T09:04:02Z</time>
      </trkpt>
      <trkpt lat="48.79887" lon="7.32274">
        <ele>196</ele>
        <time>2020-06-28T09:04:04Z</time>
      </trkpt>
      <trkpt lat="48.79889" lon="7.32261">
        <ele>196.1</ele>
        <time>2020-06-28T09:04:06Z</time>
      </trkpt>
      <trkpt lat="48.79891" lon="7.32247">
        <ele>195.9</ele>
        <time>2020-06-28T09:04:08Z</time>
      </trkpt>
      <trkpt lat="48.79892" lon="7.32234">
        <ele>195.9</ele>
        <time>2020-06-28T09:04:10Z</time>
      </trkpt>
      <trkpt lat="48.79892" lon="7.3222">
        <ele>196</ele>
        <time>2020-06-28T09:04:12Z</time>
      </trkpt>
      <trkpt lat="48.79893" lon="7.32208">
        <ele>196.1</ele>
        <time>2020-06-28T09:04:14Z</time>
      </trkpt>
      <trkpt lat="48.79893" lon="7.32197">
        <ele>196.4</ele>
        <time>2020-06-28T09:04:16Z</time>
      </trkpt>
      <trkpt lat="48.79893" lon="7.32185">
        <ele>196.3</ele>
        <time>2020-06-28T09:04:18Z</time>
      </trkpt>
      <trkpt lat="48.79893" lon="7.32173">
        <ele>196.4</ele>
        <time>2020-06-28T09:04:20Z</time>
      </trkpt>
      <trkpt lat="48.79892" lon="7.3216">
        <ele>196.4</ele>
        <time>2020-06-28T09:04:22Z</time>
      </trkpt>
      <trkpt lat="48.79889" lon="7.32148">
        <ele>196.5</ele>
        <time>2020-06-28T09:04:24Z</time>
      </trkpt>
      <trkpt lat="48.79886" lon="7.32136">
        <ele>196.6</ele>
        <time>2020-06-28T09:04:26Z</time>
      </trkpt>
      <trkpt lat="48.79885" lon="7.32123">
        <ele>196.3</ele>
        <time>2020-06-28T09:04:28Z</time>
      </trkpt>
      <trkpt lat="48.79884" lon="7.3211">
        <ele>196.1</ele>
        <time>2020-06-28T09:04:30Z</time>
      </trkpt>
      <trkpt lat="48.79884" lon="7.32097">
        <ele>195.9</ele>
        <time>2020-06-28T09:04:32Z</time>
      </trkpt>
      <trkpt lat="48.79884" lon="7.32084">
        <ele>195.7</ele>
        <time>2020-06-28T09:04:34Z</time>
      </trkpt>
      <trkpt lat="48.79885" lon="7.32071">
        <ele>195.7</ele>
        <time>2020-06-28T09:04:36Z</time>
      </trkpt>
      <trkpt lat="48.79886" lon="7.32059">
        <ele>195.9</ele>
        <time>2020-06-28T09:04:38Z</time>
      </trkpt>
      <trkpt lat="48.79886" lon="7.32048">
        <ele>196.6</ele>
        <time>2020-06-28T09:04:40Z</time>
      </trkpt>
      <trkpt lat="48.79885" lon="7.32038">
        <ele>197</ele>
        <time>2020-06-28T09:04:42Z</time>
      </trkpt>
      <trkpt lat="48.79883" lon="7.32027">
        <ele>197.5</ele>
        <time>2020-06-28T09:04:44Z</time>
      </trkpt>
      <trkpt lat="48.79881" lon="7.32015">
        <ele>198.3</ele>
        <time>2020-06-28T09:04:46Z</time>
      </trkpt>
      <trkpt lat="48.79879" lon="7.32006">
        <ele>199.8</ele>
        <time>2020-06-28T09:04:48Z</time>
      </trkpt>
      <trkpt lat="48.79876" lon="7.31997">
        <ele>200.9</ele>
        <time>2020-06-28T09:04:50Z</time>
      </trkpt>
      <trkpt lat="48.79875" lon="7.31987">
        <ele>201.8</ele>
        <time>2020-06-28T09:04:52Z</time>
      </trkpt>
      <trkpt lat="48.79875" lon="7.31976">
        <ele>202.3</ele>
        <time>2020-06-28T09:04:54Z</time>
      </trkpt>
      <trkpt lat="48.79875" lon="7.31966">
        <ele>203.3</ele>
        <time>2020-06-28T09:04:56Z</time>
      </trkpt>
      <trkpt lat="48.79874" lon="7.31955">
        <ele>203.6</ele>
        <time>2020-06-28T09:04:58Z</time>
      </trkpt>
      <trkpt lat="48.79874" lon="7.31944">
        <ele>203.6</ele>
        <time>2020-06-28T09:05:00Z</time>
      </trkpt>
      <trkpt lat="48.79873" lon="7.31931">
        <ele>203.5</ele>
        <time>2020-06-28T09:05:02Z</time>
      </trkpt>
      <trkpt lat="48.79872" lon="7.31921">
        <ele>203.8</ele>
        <time>2020-06-28T09:05:04Z</time>
      </trkpt>
      <trkpt lat="48.79872" lon="7.3191">
        <ele>203.3</ele>
        <time>2020-06-28T09:05:06Z</time>
      </trkpt>
      <trkpt lat="48.79872" lon="7.31901">
        <ele>203.9</ele>
        <time>2020-06-28T09:05:08Z</time>
      </trkpt>
      <trkpt lat="48.79872" lon="7.3189">
        <ele>203.9</ele>
        <time>2020-06-28T09:05:10Z</time>
      </trkpt>
      <trkpt lat="48.79872" lon="7.31871">
        <ele>203.8</ele>
        <time>2020-06-28T09:05:12Z</time>
      </trkpt>
      <trkpt lat="48.79871" lon="7.31856">
        <ele>203.3</ele>
        <time>2020-06-28T09:05:14Z</time>
      </trkpt>
      <trkpt lat="48.79869" lon="7.31843">
        <ele>203.1</ele>
        <time>2020-06-28T09:05:16Z</time>
      </trkpt>
      <trkpt lat="48.79868" lon="7.3183">
        <ele>203.2</ele>
        <time>2020-06-28T09:05:18Z</time>
      </trkpt>
      <trkpt lat="48.79864" lon="7.31817">
        <ele>204</ele>
        <time>2020-06-28T09:05:20Z</time>
      </trkpt>
      <trkpt lat="48.79861" lon="7.31804">
        <ele>203.9</ele>
        <time>2020-06-28T09:05:22Z</time>
      </trkpt>
      <trkpt lat="48.79858" lon="7.31791">
        <ele>203.9</ele>
        <time>2020-06-28T09:05:24Z</time>
      </trkpt>
      <trkpt lat="48.79856" lon="7.3178">
        <ele>204.3</ele>
        <time>2020-06-28T09:05:26Z</time>
      </trkpt>
      <trkpt lat="48.79853" lon="7.31767">
        <ele>204.4</ele>
        <time>2020-06-28T09:05:28Z</time>
      </trkpt>
      <trkpt lat="48.79851" lon="7.31756">
        <ele>204.1</ele>
        <time>2020-06-28T09:05:30Z</time>
      </trkpt>
      <trkpt lat="48.79849" lon="7.31743">
        <ele>204</ele>
        <time>2020-06-28T09:05:32Z</time>
      </trkpt>
      <trkpt lat="48.79847" lon="7.3173">
        <ele>203.8</ele>
        <time>2020-06-28T09:05:34Z</time>
      </trkpt>
      <trkpt lat="48.79848" lon="7.31711">
        <ele>204</ele>
        <time>2020-06-28T09:05:37Z</time>
      </trkpt>
      <trkpt lat="48.79847" lon="7.31696">
        <ele>204.6</ele>
        <time>2020-06-28T09:05:39Z</time>
      </trkpt>
      <trkpt lat="48.79845" lon="7.31683">
        <ele>205.1</ele>
        <time>2020-06-28T09:05:41Z</time>
      </trkpt>
      <trkpt lat="48.79842" lon="7.3167">
        <ele>205.7</ele>
        <time>2020-06-28T09:05:43Z</time>
      </trkpt>
      <trkpt lat="48.79841" lon="7.31655">
        <ele>203.7</ele>
        <time>2020-06-28T09:05:45Z</time>
      </trkpt>
      <trkpt lat="48.7984" lon="7.31641">
        <ele>201.6</ele>
        <time>2020-06-28T09:05:47Z</time>
      </trkpt>
      <trkpt lat="48.7984" lon="7.31629">
        <ele>200</ele>
        <time>2020-06-28T09:05:49Z</time>
      </trkpt>
      <trkpt lat="48.79838" lon="7.31616">
        <ele>199.5</ele>
        <time>2020-06-28T09:05:51Z</time>
      </trkpt>
      <trkpt lat="48.79838" lon="7.31604">
        <ele>199.5</ele>
        <time>2020-06-28T09:05:53Z</time>
      </trkpt>
      <trkpt lat="48.79837" lon="7.31592">
        <ele>199.6</ele>
        <time>2020-06-28T09:05:55Z</time>
      </trkpt>
      <trkpt lat="48.79837" lon="7.31579">
        <ele>200.4</ele>
        <time>2020-06-28T09:05:57Z</time>
      </trkpt>
      <trkpt lat="48.79837" lon="7.31567">
        <ele>201.2</ele>
        <time>2020-06-28T09:05:59Z</time>
      </trkpt>
      <trkpt lat="48.79836" lon="7.3155">
        <ele>201.1</ele>
        <time>2020-06-28T09:06:01Z</time>
      </trkpt>
      <trkpt lat="48.79836" lon="7.31533">
        <ele>200.4</ele>
        <time>2020-06-28T09:06:03Z</time>
      </trkpt>
      <trkpt lat="48.79835" lon="7.31512">
        <ele>199.9</ele>
        <time>2020-06-28T09:06:06Z</time>
      </trkpt>
      <trkpt lat="48.79833" lon="7.31499">
        <ele>200.2</ele>
        <time>2020-06-28T09:06:08Z</time>
      </trkpt>
      <trkpt lat="48.79832" lon="7.31484">
        <ele>200.7</ele>
        <time>2020-06-28T09:06:10Z</time>
      </trkpt>
      <trkpt lat="48.79829" lon="7.31469">
        <ele>200.9</ele>
        <time>2020-06-28T09:06:12Z</time>
      </trkpt>
      <trkpt lat="48.79828" lon="7.31457">
        <ele>201.1</ele>
        <time>2020-06-28T09:06:14Z</time>
      </trkpt>
      <trkpt lat="48.79826" lon="7.31443">
        <ele>201</ele>
        <time>2020-06-28T09:06:16Z</time>
      </trkpt>
      <trkpt lat="48.79824" lon="7.31428">
        <ele>200.2</ele>
        <time>2020-06-28T09:06:18Z</time>
      </trkpt>
      <trkpt lat="48.79821" lon="7.31409">
        <ele>199.1</ele>
        <time>2020-06-28T09:06:21Z</time>
      </trkpt>
      <trkpt lat="48.79821" lon="7.31395">
        <ele>197.6</ele>
        <time>2020-06-28T09:06:23Z</time>
      </trkpt>
      <trkpt lat="48.7982" lon="7.31381">
        <ele>196.3</ele>
        <time>2020-06-28T09:06:25Z</time>
      </trkpt>
      <trkpt lat="48.79818" lon="7.3136">
        <ele>195.1</ele>
        <time>2020-06-28T09:06:28Z</time>
      </trkpt>
      <trkpt lat="48.79815" lon="7.31342">
        <ele>194.4</ele>
        <time>2020-06-28T09:06:31Z</time>
      </trkpt>
      <trkpt lat="48.79813" lon="7.31324">
        <ele>193.5</ele>
        <time>2020-06-28T09:06:34Z</time>
      </trkpt>
      <trkpt lat="48.79813" lon="7.31314">
        <ele>192.9</ele>
        <time>2020-06-28T09:06:36Z</time>
      </trkpt>
      <trkpt lat="48.79811" lon="7.313">
        <ele>193.6</ele>
        <time>2020-06-28T09:06:38Z</time>
      </trkpt>
      <trkpt lat="48.79809" lon="7.31287">
        <ele>194.2</ele>
        <time>2020-06-28T09:06:40Z</time>
      </trkpt>
      <trkpt lat="48.79807" lon="7.31271">
        <ele>194.6</ele>
        <time>2020-06-28T09:06:42Z</time>
      </trkpt>
      <trkpt lat="48.79806" lon="7.31256">
        <ele>195.1</ele>
        <time>2020-06-28T09:06:44Z</time>
      </trkpt>
      <trkpt lat="48.79806" lon="7.31239">
        <ele>195.2</ele>
        <time>2020-06-28T09:06:46Z</time>
      </trkpt>
      <trkpt lat="48.79807" lon="7.31221">
        <ele>195.2</ele>
        <time>2020-06-28T09:06:48Z</time>
      </trkpt>
      <trkpt lat="48.7981" lon="7.31205">
        <ele>195.1</ele>
        <time>2020-06-28T09:06:50Z</time>
      </trkpt>
      <trkpt lat="48.79814" lon="7.3119">
        <ele>195</ele>
        <time>2020-06-28T09:06:52Z</time>
      </trkpt>
      <trkpt lat="48.79819" lon="7.31176">
        <ele>195.1</ele>
        <time>2020-06-28T09:06:54Z</time>
      </trkpt>
      <trkpt lat="48.79825" lon="7.31164">
        <ele>194.8</ele>
        <time>2020-06-28T09:06:56Z</time>
      </trkpt>
      <trkpt lat="48.79832" lon="7.31153">
        <ele>194.3</ele>
        <time>2020-06-28T09:06:58Z</time>
      </trkpt>
      <trkpt lat="48.79839" lon="7.31144">
        <ele>194</ele>
        <time>2020-06-28T09:07:00Z</time>
      </trkpt>
      <trkpt lat="48.79847" lon="7.31136">
        <ele>193.7</ele>
        <time>2020-06-28T09:07:02Z</time>
      </trkpt>
      <trkpt lat="48.79855" lon="7.31128">
        <ele>193.1</ele>
        <time>2020-06-28T09:07:04Z</time>
      </trkpt>
      <trkpt lat="48.79862" lon="7.3112">
        <ele>192</ele>
        <time>2020-06-28T09:07:06Z</time>
      </trkpt>
      <trkpt lat="48.79865" lon="7.31111">
        <ele>191.5</ele>
        <time>2020-06-28T09:07:08Z</time>
      </trkpt>
      <trkpt lat="48.79863" lon="7.31105">
        <ele>190.8</ele>
        <time>2020-06-28T09:07:10Z</time>
      </trkpt>
      <trkpt lat="48.79858" lon="7.311">
        <ele>190.2</ele>
        <time>2020-06-28T09:07:12Z</time>
      </trkpt>
      <trkpt lat="48.79852" lon="7.31095">
        <ele>190.3</ele>
        <time>2020-06-28T09:07:14Z</time>
      </trkpt>
      <trkpt lat="48.79846" lon="7.31089">
        <ele>190.4</ele>
        <time>2020-06-28T09:07:16Z</time>
      </trkpt>
      <trkpt lat="48.7984" lon="7.31082">
        <ele>190.4</ele>
        <time>2020-06-28T09:07:18Z</time>
      </trkpt>
      <trkpt lat="48.79835" lon="7.31075">
        <ele>190.8</ele>
        <time>2020-06-28T09:07:20Z</time>
      </trkpt>
      <trkpt lat="48.7983" lon="7.31067">
        <ele>190.7</ele>
        <time>2020-06-28T09:07:22Z</time>
      </trkpt>
      <trkpt lat="48.79825" lon="7.31057">
        <ele>190.9</ele>
        <time>2020-06-28T09:07:24Z</time>
      </trkpt>
      <trkpt lat="48.79821" lon="7.31048">
        <ele>191.2</ele>
        <time>2020-06-28T09:07:26Z</time>
      </trkpt>
      <trkpt lat="48.79817" lon="7.31037">
        <ele>191.4</ele>
        <time>2020-06-28T09:07:28Z</time>
      </trkpt>
      <trkpt lat="48.79814" lon="7.31026">
        <ele>191.5</ele>
        <time>2020-06-28T09:07:30Z</time>
      </trkpt>
      <trkpt lat="48.79811" lon="7.31014">
        <ele>191.6</ele>
        <time>2020-06-28T09:07:32Z</time>
      </trkpt>
      <trkpt lat="48.79809" lon="7.31001">
        <ele>191.7</ele>
        <time>2020-06-28T09:07:34Z</time>
      </trkpt>
      <trkpt lat="48.79808" lon="7.30988">
        <ele>191.8</ele>
        <time>2020-06-28T09:07:36Z</time>
      </trkpt>
      <trkpt lat="48.79806" lon="7.30975">
        <ele>191.9</ele>
        <time>2020-06-28T09:07:38Z</time>
      </trkpt>
      <trkpt lat="48.79804" lon="7.30962">
        <ele>191.9</ele>
        <time>2020-06-28T09:07:40Z</time>
      </trkpt>
      <trkpt lat="48.79804" lon="7.30949">
        <ele>192</ele>
        <time>2020-06-28T09:07:42Z</time>
      </trkpt>
      <trkpt lat="48.79803" lon="7.30935">
        <ele>191.8</ele>
        <time>2020-06-28T09:07:44Z</time>
      </trkpt>
      <trkpt lat="48.79802" lon="7.30922">
        <ele>192</ele>
        <time>2020-06-28T09:07:46Z</time>
      </trkpt>
      <trkpt lat="48.79802" lon="7.30909">
        <ele>192</ele>
        <time>2020-06-28T09:07:48Z</time>
      </trkpt>
      <trkpt lat="48.79803" lon="7.30896">
        <ele>192.1</ele>
        <time>2020-06-28T09:07:50Z</time>
      </trkpt>
      <trkpt lat="48.79804" lon="7.30881">
        <ele>192.1</ele>
        <time>2020-06-28T09:07:52Z</time>
      </trkpt>
      <trkpt lat="48.79804" lon="7.30866">
        <ele>192.1</ele>
        <time>2020-06-28T09:07:54Z</time>
      </trkpt>
      <trkpt lat="48.79804" lon="7.30851">
        <ele>192.1</ele>
        <time>2020-06-28T09:07:56Z</time>
      </trkpt>
      <trkpt lat="48.79804" lon="7.30837">
        <ele>192.1</ele>
        <time>2020-06-28T09:07:58Z</time>
      </trkpt>
      <trkpt lat="48.79804" lon="7.30824">
        <ele>191.9</ele>
        <time>2020-06-28T09:08:00Z</time>
      </trkpt>
      <trkpt lat="48.79804" lon="7.30815">
        <ele>192.4</ele>
        <time>2020-06-28T09:08:02Z</time>
      </trkpt>
      <trkpt lat="48.79804" lon="7.30807">
        <ele>192.9</ele>
        <time>2020-06-28T09:08:04Z</time>
      </trkpt>
      <trkpt lat="48.79803" lon="7.30799">
        <ele>193.3</ele>
        <time>2020-06-28T09:08:06Z</time>
      </trkpt>
      <trkpt lat="48.79802" lon="7.30791">
        <ele>193.3</ele>
        <time>2020-06-28T09:08:08Z</time>
      </trkpt>
      <trkpt lat="48.79801" lon="7.30782">
        <ele>193.3</ele>
        <time>2020-06-28T09:08:10Z</time>
      </trkpt>
      <trkpt lat="48.798" lon="7.30774">
        <ele>193.3</ele>
        <time>2020-06-28T09:08:12Z</time>
      </trkpt>
      <trkpt lat="48.798" lon="7.30765">
        <ele>193.7</ele>
        <time>2020-06-28T09:08:14Z</time>
      </trkpt>
      <trkpt lat="48.79799" lon="7.30757">
        <ele>193.9</ele>
        <time>2020-06-28T09:08:16Z</time>
      </trkpt>
      <trkpt lat="48.79799" lon="7.30747">
        <ele>194.2</ele>
        <time>2020-06-28T09:08:18Z</time>
      </trkpt>
      <trkpt lat="48.79797" lon="7.30735">
        <ele>195</ele>
        <time>2020-06-28T09:08:21Z</time>
      </trkpt>
      <trkpt lat="48.79797" lon="7.30724">
        <ele>195.8</ele>
        <time>2020-06-28T09:08:24Z</time>
      </trkpt>
      <trkpt lat="48.79796" lon="7.30714">
        <ele>197.3</ele>
        <time>2020-06-28T09:08:27Z</time>
      </trkpt>
      <trkpt lat="48.79793" lon="7.30704">
        <ele>199</ele>
        <time>2020-06-28T09:08:30Z</time>
      </trkpt>
      <trkpt lat="48.79792" lon="7.30694">
        <ele>200</ele>
        <time>2020-06-28T09:08:32Z</time>
      </trkpt>
      <trkpt lat="48.79792" lon="7.30685">
        <ele>198.3</ele>
        <time>2020-06-28T09:08:34Z</time>
      </trkpt>
      <trkpt lat="48.79791" lon="7.30676">
        <ele>199.2</ele>
        <time>2020-06-28T09:08:36Z</time>
      </trkpt>
      <trkpt lat="48.79791" lon="7.30666">
        <ele>200</ele>
        <time>2020-06-28T09:08:38Z</time>
      </trkpt>
      <trkpt lat="48.7979" lon="7.30655">
        <ele>201.7</ele>
        <time>2020-06-28T09:08:40Z</time>
      </trkpt>
      <trkpt lat="48.79788" lon="7.30646">
        <ele>204</ele>
        <time>2020-06-28T09:08:42Z</time>
      </trkpt>
      <trkpt lat="48.79786" lon="7.30635">
        <ele>205.6</ele>
        <time>2020-06-28T09:08:44Z</time>
      </trkpt>
      <trkpt lat="48.79784" lon="7.30624">
        <ele>207.1</ele>
        <time>2020-06-28T09:08:46Z</time>
      </trkpt>
      <trkpt lat="48.79783" lon="7.30613">
        <ele>208.4</ele>
        <time>2020-06-28T09:08:48Z</time>
      </trkpt>
      <trkpt lat="48.79784" lon="7.30603">
        <ele>209.6</ele>
        <time>2020-06-28T09:08:50Z</time>
      </trkpt>
      <trkpt lat="48.79783" lon="7.30594">
        <ele>210.6</ele>
        <time>2020-06-28T09:08:52Z</time>
      </trkpt>
      <trkpt lat="48.79782" lon="7.30583">
        <ele>211.4</ele>
        <time>2020-06-28T09:08:54Z</time>
      </trkpt>
      <trkpt lat="48.7978" lon="7.30574">
        <ele>211.8</ele>
        <time>2020-06-28T09:08:56Z</time>
      </trkpt>
      <trkpt lat="48.79778" lon="7.30563">
        <ele>212.3</ele>
        <time>2020-06-28T09:08:58Z</time>
      </trkpt>
      <trkpt lat="48.79777" lon="7.30553">
        <ele>212</ele>
        <time>2020-06-28T09:09:00Z</time>
      </trkpt>
      <trkpt lat="48.79778" lon="7.30543">
        <ele>212.7</ele>
        <time>2020-06-28T09:09:02Z</time>
      </trkpt>
      <trkpt lat="48.79779" lon="7.30532">
        <ele>213</ele>
        <time>2020-06-28T09:09:04Z</time>
      </trkpt>
      <trkpt lat="48.79779" lon="7.30519">
        <ele>212.7</ele>
        <time>2020-06-28T09:09:06Z</time>
      </trkpt>
      <trkpt lat="48.79778" lon="7.30507">
        <ele>212</ele>
        <time>2020-06-28T09:09:08Z</time>
      </trkpt>
      <trkpt lat="48.79777" lon="7.30495">
        <ele>212</ele>
        <time>2020-06-28T09:09:10Z</time>
      </trkpt>
      <trkpt lat="48.79776" lon="7.30482">
        <ele>211.2</ele>
        <time>2020-06-28T09:09:12Z</time>
      </trkpt>
      <trkpt lat="48.79777" lon="7.30462">
        <ele>211.5</ele>
        <time>2020-06-28T09:09:14Z</time>
      </trkpt>
      <trkpt lat="48.79777" lon="7.30447">
        <ele>211.4</ele>
        <time>2020-06-28T09:09:16Z</time>
      </trkpt>
      <trkpt lat="48.79777" lon="7.30436">
        <ele>211.7</ele>
        <time>2020-06-28T09:09:18Z</time>
      </trkpt>
      <trkpt lat="48.79776" lon="7.30427">
        <ele>212.4</ele>
        <time>2020-06-28T09:09:20Z</time>
      </trkpt>
      <trkpt lat="48.79775" lon="7.30418">
        <ele>212.8</ele>
        <time>2020-06-28T09:09:22Z</time>
      </trkpt>
      <trkpt lat="48.79774" lon="7.3041">
        <ele>212.8</ele>
        <time>2020-06-28T09:09:24Z</time>
      </trkpt>
      <trkpt lat="48.79775" lon="7.30402">
        <ele>213.5</ele>
        <time>2020-06-28T09:09:26Z</time>
      </trkpt>
      <trkpt lat="48.79776" lon="7.30392">
        <ele>213.7</ele>
        <time>2020-06-28T09:09:28Z</time>
      </trkpt>
      <trkpt lat="48.79777" lon="7.30381">
        <ele>214.4</ele>
        <time>2020-06-28T09:09:30Z</time>
      </trkpt>
      <trkpt lat="48.7978" lon="7.30371">
        <ele>214.1</ele>
        <time>2020-06-28T09:09:32Z</time>
      </trkpt>
      <trkpt lat="48.79781" lon="7.30361">
        <ele>213</ele>
        <time>2020-06-28T09:09:34Z</time>
      </trkpt>
      <trkpt lat="48.79783" lon="7.30349">
        <ele>212.5</ele>
        <time>2020-06-28T09:09:36Z</time>
      </trkpt>
      <trkpt lat="48.79785" lon="7.30338">
        <ele>211.7</ele>
        <time>2020-06-28T09:09:38Z</time>
      </trkpt>
      <trkpt lat="48.79788" lon="7.30326">
        <ele>211.5</ele>
        <time>2020-06-28T09:09:40Z</time>
      </trkpt>
      <trkpt lat="48.79792" lon="7.30315">
        <ele>210.9</ele>
        <time>2020-06-28T09:09:42Z</time>
      </trkpt>
      <trkpt lat="48.79795" lon="7.30304">
        <ele>210.4</ele>
        <time>2020-06-28T09:09:44Z</time>
      </trkpt>
      <trkpt lat="48.79798" lon="7.30291">
        <ele>209.6</ele>
        <time>2020-06-28T09:09:46Z</time>
      </trkpt>
      <trkpt lat="48.79801" lon="7.30277">
        <ele>209.3</ele>
        <time>2020-06-28T09:09:48Z</time>
      </trkpt>
      <trkpt lat="48.79802" lon="7.30265">
        <ele>210</ele>
        <time>2020-06-28T09:09:50Z</time>
      </trkpt>
      <trkpt lat="48.79802" lon="7.30255">
        <ele>209.9</ele>
        <time>2020-06-28T09:09:52Z</time>
      </trkpt>
      <trkpt lat="48.79801" lon="7.30244">
        <ele>209.7</ele>
        <time>2020-06-28T09:09:54Z</time>
      </trkpt>
      <trkpt lat="48.79794" lon="7.30227">
        <ele>209.7</ele>
        <time>2020-06-28T09:09:57Z</time>
      </trkpt>
      <trkpt lat="48.79788" lon="7.30214">
        <ele>210</ele>
        <time>2020-06-28T09:10:00Z</time>
      </trkpt>
      <trkpt lat="48.79785" lon="7.30203">
        <ele>209.9</ele>
        <time>2020-06-28T09:10:02Z</time>
      </trkpt>
      <trkpt lat="48.7978" lon="7.3019">
        <ele>210.5</ele>
        <time>2020-06-28T09:10:05Z</time>
      </trkpt>
      <trkpt lat="48.79777" lon="7.30179">
        <ele>210.9</ele>
        <time>2020-06-28T09:10:07Z</time>
      </trkpt>
      <trkpt lat="48.79774" lon="7.30167">
        <ele>210.5</ele>
        <time>2020-06-28T09:10:09Z</time>
      </trkpt>
      <trkpt lat="48.79772" lon="7.30154">
        <ele>210.6</ele>
        <time>2020-06-28T09:10:11Z</time>
      </trkpt>
      <trkpt lat="48.79769" lon="7.30136">
        <ele>210.3</ele>
        <time>2020-06-28T09:10:14Z</time>
      </trkpt>
      <trkpt lat="48.79767" lon="7.30121">
        <ele>210</ele>
        <time>2020-06-28T09:10:16Z</time>
      </trkpt>
      <trkpt lat="48.79764" lon="7.30108">
        <ele>209.6</ele>
        <time>2020-06-28T09:10:18Z</time>
      </trkpt>
      <trkpt lat="48.79761" lon="7.30095">
        <ele>209.3</ele>
        <time>2020-06-28T09:10:20Z</time>
      </trkpt>
      <trkpt lat="48.79756" lon="7.30083">
        <ele>209</ele>
        <time>2020-06-28T09:10:22Z</time>
      </trkpt>
      <trkpt lat="48.79752" lon="7.30072">
        <ele>208.9</ele>
        <time>2020-06-28T09:10:24Z</time>
      </trkpt>
      <trkpt lat="48.79748" lon="7.30062">
        <ele>208.8</ele>
        <time>2020-06-28T09:10:26Z</time>
      </trkpt>
      <trkpt lat="48.79744" lon="7.30054">
        <ele>210.1</ele>
        <time>2020-06-28T09:10:28Z</time>
      </trkpt>
      <trkpt lat="48.79738" lon="7.30046">
        <ele>211</ele>
        <time>2020-06-28T09:10:30Z</time>
      </trkpt>
      <trkpt lat="48.79732" lon="7.3004">
        <ele>212.7</ele>
        <time>2020-06-28T09:10:32Z</time>
      </trkpt>
      <trkpt lat="48.79727" lon="7.30035">
        <ele>214.4</ele>
        <time>2020-06-28T09:10:34Z</time>
      </trkpt>
      <trkpt lat="48.79723" lon="7.30027">
        <ele>215.1</ele>
        <time>2020-06-28T09:10:36Z</time>
      </trkpt>
      <trkpt lat="48.79718" lon="7.30019">
        <ele>216.3</ele>
        <time>2020-06-28T09:10:38Z</time>
      </trkpt>
      <trkpt lat="48.79714" lon="7.30011">
        <ele>217.6</ele>
        <time>2020-06-28T09:10:40Z</time>
      </trkpt>
      <trkpt lat="48.79711" lon="7.30003">
        <ele>218.7</ele>
        <time>2020-06-28T09:10:42Z</time>
      </trkpt>
      <trkpt lat="48.79708" lon="7.29994">
        <ele>219.3</ele>
        <time>2020-06-28T09:10:44Z</time>
      </trkpt>
      <trkpt lat="48.79705" lon="7.29983">
        <ele>219.4</ele>
        <time>2020-06-28T09:10:46Z</time>
      </trkpt>
      <trkpt lat="48.79702" lon="7.29973">
        <ele>219.6</ele>
        <time>2020-06-28T09:10:48Z</time>
      </trkpt>
      <trkpt lat="48.79697" lon="7.29963">
        <ele>219.5</ele>
        <time>2020-06-28T09:10:50Z</time>
      </trkpt>
      <trkpt lat="48.79694" lon="7.29953">
        <ele>218.9</ele>
        <time>2020-06-28T09:10:52Z</time>
      </trkpt>
      <trkpt lat="48.79691" lon="7.29942">
        <ele>217.7</ele>
        <time>2020-06-28T09:10:54Z</time>
      </trkpt>
      <trkpt lat="48.79687" lon="7.29929">
        <ele>217.1</ele>
        <time>2020-06-28T09:10:56Z</time>
      </trkpt>
      <trkpt lat="48.7968" lon="7.29912">
        <ele>216.2</ele>
        <time>2020-06-28T09:10:59Z</time>
      </trkpt>
      <trkpt lat="48.79677" lon="7.29904">
        <ele>215.6</ele>
        <time>2020-06-28T09:11:01Z</time>
      </trkpt>
      <trkpt lat="48.79672" lon="7.29893">
        <ele>215.1</ele>
        <time>2020-06-28T09:11:04Z</time>
      </trkpt>
      <trkpt lat="48.79667" lon="7.29886">
        <ele>215.1</ele>
        <time>2020-06-28T09:11:06Z</time>
      </trkpt>
      <trkpt lat="48.79661" lon="7.29876">
        <ele>215.6</ele>
        <time>2020-06-28T09:11:09Z</time>
      </trkpt>
      <trkpt lat="48.79657" lon="7.29868">
        <ele>216.2</ele>
        <time>2020-06-28T09:11:11Z</time>
      </trkpt>
      <trkpt lat="48.79652" lon="7.2986">
        <ele>216.8</ele>
        <time>2020-06-28T09:11:13Z</time>
      </trkpt>
      <trkpt lat="48.79647" lon="7.29853">
        <ele>217.8</ele>
        <time>2020-06-28T09:11:15Z</time>
      </trkpt>
      <trkpt lat="48.79643" lon="7.29846">
        <ele>218.7</ele>
        <time>2020-06-28T09:11:17Z</time>
      </trkpt>
      <trkpt lat="48.7964" lon="7.29838">
        <ele>219.7</ele>
        <time>2020-06-28T09:11:19Z</time>
      </trkpt>
      <trkpt lat="48.79636" lon="7.2983">
        <ele>220.2</ele>
        <time>2020-06-28T09:11:21Z</time>
      </trkpt>
      <trkpt lat="48.79633" lon="7.29823">
        <ele>220.6</ele>
        <time>2020-06-28T09:11:23Z</time>
      </trkpt>
      <trkpt lat="48.7963" lon="7.29816">
        <ele>220.5</ele>
        <time>2020-06-28T09:11:25Z</time>
      </trkpt>
      <trkpt lat="48.79626" lon="7.29809">
        <ele>220.8</ele>
        <time>2020-06-28T09:11:27Z</time>
      </trkpt>
      <trkpt lat="48.79622" lon="7.29802">
        <ele>220.5</ele>
        <time>2020-06-28T09:11:29Z</time>
      </trkpt>
      <trkpt lat="48.79618" lon="7.29794">
        <ele>220.5</ele>
        <time>2020-06-28T09:11:31Z</time>
      </trkpt>
      <trkpt lat="48.79614" lon="7.29788">
        <ele>220.4</ele>
        <time>2020-06-28T09:11:33Z</time>
      </trkpt>
      <trkpt lat="48.7961" lon="7.29781">
        <ele>220.4</ele>
        <time>2020-06-28T09:11:35Z</time>
      </trkpt>
      <trkpt lat="48.79606" lon="7.29774">
        <ele>220.5</ele>
        <time>2020-06-28T09:11:37Z</time>
      </trkpt>
      <trkpt lat="48.79603" lon="7.29766">
        <ele>220.9</ele>
        <time>2020-06-28T09:11:39Z</time>
      </trkpt>
      <trkpt lat="48.79598" lon="7.29759">
        <ele>221.6</ele>
        <time>2020-06-28T09:11:41Z</time>
      </trkpt>
      <trkpt lat="48.79593" lon="7.29752">
        <ele>222.1</ele>
        <time>2020-06-28T09:11:43Z</time>
      </trkpt>
      <trkpt lat="48.79589" lon="7.29745">
        <ele>222.8</ele>
        <time>2020-06-28T09:11:45Z</time>
      </trkpt>
      <trkpt lat="48.79586" lon="7.29736">
        <ele>222.9</ele>
        <time>2020-06-28T09:11:47Z</time>
      </trkpt>
      <trkpt lat="48.79583" lon="7.29728">
        <ele>223.3</ele>
        <time>2020-06-28T09:11:49Z</time>
      </trkpt>
      <trkpt lat="48.79579" lon="7.29718">
        <ele>224.1</ele>
        <time>2020-06-28T09:11:51Z</time>
      </trkpt>
      <trkpt lat="48.79575" lon="7.2971">
        <ele>224.6</ele>
        <time>2020-06-28T09:11:53Z</time>
      </trkpt>
      <trkpt lat="48.7957" lon="7.29701">
        <ele>225</ele>
        <time>2020-06-28T09:11:55Z</time>
      </trkpt>
      <trkpt lat="48.79566" lon="7.29692">
        <ele>225.7</ele>
        <time>2020-06-28T09:11:57Z</time>
      </trkpt>
      <trkpt lat="48.7956" lon="7.29683">
        <ele>226.1</ele>
        <time>2020-06-28T09:11:59Z</time>
      </trkpt>
      <trkpt lat="48.79554" lon="7.29676">
        <ele>226.4</ele>
        <time>2020-06-28T09:12:01Z</time>
      </trkpt>
      <trkpt lat="48.79548" lon="7.29669">
        <ele>226.5</ele>
        <time>2020-06-28T09:12:03Z</time>
      </trkpt>
      <trkpt lat="48.79543" lon="7.29662">
        <ele>226.6</ele>
        <time>2020-06-28T09:12:05Z</time>
      </trkpt>
      <trkpt lat="48.79537" lon="7.29654">
        <ele>226.2</ele>
        <time>2020-06-28T09:12:07Z</time>
      </trkpt>
      <trkpt lat="48.79532" lon="7.29646">
        <ele>226.2</ele>
        <time>2020-06-28T09:12:09Z</time>
      </trkpt>
      <trkpt lat="48.79526" lon="7.29636">
        <ele>226.2</ele>
        <time>2020-06-28T09:12:11Z</time>
      </trkpt>
      <trkpt lat="48.7952" lon="7.29626">
        <ele>226.3</ele>
        <time>2020-06-28T09:12:13Z</time>
      </trkpt>
      <trkpt lat="48.79514" lon="7.29615">
        <ele>226.7</ele>
        <time>2020-06-28T09:12:15Z</time>
      </trkpt>
      <trkpt lat="48.79508" lon="7.29604">
        <ele>226.7</ele>
        <time>2020-06-28T09:12:17Z</time>
      </trkpt>
      <trkpt lat="48.79503" lon="7.29593">
        <ele>226.9</ele>
        <time>2020-06-28T09:12:19Z</time>
      </trkpt>
      <trkpt lat="48.79498" lon="7.29583">
        <ele>227.1</ele>
        <time>2020-06-28T09:12:21Z</time>
      </trkpt>
      <trkpt lat="48.79492" lon="7.29574">
        <ele>227.6</ele>
        <time>2020-06-28T09:12:23Z</time>
      </trkpt>
      <trkpt lat="48.79487" lon="7.29563">
        <ele>228.5</ele>
        <time>2020-06-28T09:12:25Z</time>
      </trkpt>
      <trkpt lat="48.79481" lon="7.29552">
        <ele>229.4</ele>
        <time>2020-06-28T09:12:27Z</time>
      </trkpt>
      <trkpt lat="48.79474" lon="7.29542">
        <ele>229.9</ele>
        <time>2020-06-28T09:12:29Z</time>
      </trkpt>
      <trkpt lat="48.79466" lon="7.29533">
        <ele>230.6</ele>
        <time>2020-06-28T09:12:31Z</time>
      </trkpt>
      <trkpt lat="48.79459" lon="7.29522">
        <ele>231.1</ele>
        <time>2020-06-28T09:12:33Z</time>
      </trkpt>
      <trkpt lat="48.79453" lon="7.2951">
        <ele>231.2</ele>
        <time>2020-06-28T09:12:35Z</time>
      </trkpt>
      <trkpt lat="48.79448" lon="7.29499">
        <ele>230.7</ele>
        <time>2020-06-28T09:12:37Z</time>
      </trkpt>
      <trkpt lat="48.79443" lon="7.29487">
        <ele>230.6</ele>
        <time>2020-06-28T09:12:39Z</time>
      </trkpt>
      <trkpt lat="48.79439" lon="7.29474">
        <ele>230.3</ele>
        <time>2020-06-28T09:12:41Z</time>
      </trkpt>
      <trkpt lat="48.79433" lon="7.29456">
        <ele>230.4</ele>
        <time>2020-06-28T09:12:44Z</time>
      </trkpt>
      <trkpt lat="48.79428" lon="7.29444">
        <ele>230.2</ele>
        <time>2020-06-28T09:12:46Z</time>
      </trkpt>
      <trkpt lat="48.7942" lon="7.29427">
        <ele>230.4</ele>
        <time>2020-06-28T09:12:49Z</time>
      </trkpt>
      <trkpt lat="48.79415" lon="7.29415">
        <ele>230.6</ele>
        <time>2020-06-28T09:12:51Z</time>
      </trkpt>
      <trkpt lat="48.79411" lon="7.29404">
        <ele>229.5</ele>
        <time>2020-06-28T09:12:53Z</time>
      </trkpt>
      <trkpt lat="48.79408" lon="7.29393">
        <ele>228.8</ele>
        <time>2020-06-28T09:12:55Z</time>
      </trkpt>
      <trkpt lat="48.79405" lon="7.29382">
        <ele>227.4</ele>
        <time>2020-06-28T09:12:57Z</time>
      </trkpt>
      <trkpt lat="48.79403" lon="7.2937">
        <ele>225.9</ele>
        <time>2020-06-28T09:12:59Z</time>
      </trkpt>
      <trkpt lat="48.794" lon="7.29357">
        <ele>224.8</ele>
        <time>2020-06-28T09:13:01Z</time>
      </trkpt>
      <trkpt lat="48.79397" lon="7.29345">
        <ele>224.2</ele>
        <time>2020-06-28T09:13:03Z</time>
      </trkpt>
      <trkpt lat="48.79395" lon="7.29326">
        <ele>223.8</ele>
        <time>2020-06-28T09:13:06Z</time>
      </trkpt>
      <trkpt lat="48.79393" lon="7.29309">
        <ele>224</ele>
        <time>2020-06-28T09:13:09Z</time>
      </trkpt>
      <trkpt lat="48.79393" lon="7.29296">
        <ele>223.9</ele>
        <time>2020-06-28T09:13:12Z</time>
      </trkpt>
      <trkpt lat="48.79393" lon="7.29283">
        <ele>224.7</ele>
        <time>2020-06-28T09:13:14Z</time>
      </trkpt>
      <trkpt lat="48.79393" lon="7.29262">
        <ele>225.1</ele>
        <time>2020-06-28T09:13:17Z</time>
      </trkpt>
      <trkpt lat="48.79395" lon="7.29248">
        <ele>225.5</ele>
        <time>2020-06-28T09:13:19Z</time>
      </trkpt>
      <trkpt lat="48.79395" lon="7.2923">
        <ele>225.5</ele>
        <time>2020-06-28T09:13:21Z</time>
      </trkpt>
      <trkpt lat="48.79395" lon="7.2921">
        <ele>224.7</ele>
        <time>2020-06-28T09:13:23Z</time>
      </trkpt>
      <trkpt lat="48.79392" lon="7.29189">
        <ele>223.8</ele>
        <time>2020-06-28T09:13:25Z</time>
      </trkpt>
      <trkpt lat="48.79389" lon="7.29168">
        <ele>222.8</ele>
        <time>2020-06-28T09:13:27Z</time>
      </trkpt>
      <trkpt lat="48.79384" lon="7.29149">
        <ele>222.1</ele>
        <time>2020-06-28T09:13:29Z</time>
      </trkpt>
      <trkpt lat="48.7938" lon="7.2913">
        <ele>219.8</ele>
        <time>2020-06-28T09:13:32Z</time>
      </trkpt>
      <trkpt lat="48.79379" lon="7.29122">
        <ele>218.7</ele>
        <time>2020-06-28T09:13:34Z</time>
      </trkpt>
      <trkpt lat="48.79376" lon="7.29117">
        <ele>219.3</ele>
        <time>2020-06-28T09:13:39Z</time>
      </trkpt>
      <trkpt lat="48.79372" lon="7.29122">
        <ele>217.5</ele>
        <time>2020-06-28T09:13:53Z</time>
      </trkpt>
      <trkpt lat="48.79366" lon="7.29124">
        <ele>214.8</ele>
        <time>2020-06-28T09:13:56Z</time>
      </trkpt>
      <trkpt lat="48.79362" lon="7.29121">
        <ele>212.8</ele>
        <time>2020-06-28T09:13:59Z</time>
      </trkpt>
      <trkpt lat="48.79357" lon="7.29123">
        <ele>210.9</ele>
        <time>2020-06-28T09:14:03Z</time>
      </trkpt>
      <trkpt lat="48.79351" lon="7.29127">
        <ele>211.8</ele>
        <time>2020-06-28T09:14:06Z</time>
      </trkpt>
      <trkpt lat="48.79344" lon="7.29129">
        <ele>213</ele>
        <time>2020-06-28T09:14:09Z</time>
      </trkpt>
      <trkpt lat="48.79338" lon="7.29131">
        <ele>213.4</ele>
        <time>2020-06-28T09:14:11Z</time>
      </trkpt>
      <trkpt lat="48.79331" lon="7.29137">
        <ele>213.6</ele>
        <time>2020-06-28T09:14:13Z</time>
      </trkpt>
      <trkpt lat="48.79325" lon="7.29143">
        <ele>214.3</ele>
        <time>2020-06-28T09:14:15Z</time>
      </trkpt>
      <trkpt lat="48.79321" lon="7.29146">
        <ele>214.7</ele>
        <time>2020-06-28T09:14:17Z</time>
      </trkpt>
      <trkpt lat="48.79316" lon="7.29148">
        <ele>215.5</ele>
        <time>2020-06-28T09:14:22Z</time>
      </trkpt>
      <trkpt lat="48.7931" lon="7.29153">
        <ele>215.6</ele>
        <time>2020-06-28T09:14:26Z</time>
      </trkpt>
      <trkpt lat="48.79306" lon="7.29158">
        <ele>215.9</ele>
        <time>2020-06-28T09:14:29Z</time>
      </trkpt>
      <trkpt lat="48.79301" lon="7.29157">
        <ele>218</ele>
        <time>2020-06-28T09:14:43Z</time>
      </trkpt>
      <trkpt lat="48.79297" lon="7.29159">
        <ele>221.8</ele>
        <time>2020-06-28T09:14:59Z</time>
      </trkpt>
      <trkpt lat="48.79294" lon="7.29165">
        <ele>217.1</ele>
        <time>2020-06-28T09:15:08Z</time>
      </trkpt>
      <trkpt lat="48.7929" lon="7.29169">
        <ele>211.2</ele>
        <time>2020-06-28T09:15:15Z</time>
      </trkpt>
      <trkpt lat="48.79287" lon="7.29175">
        <ele>209.2</ele>
        <time>2020-06-28T09:15:21Z</time>
      </trkpt>
      <trkpt lat="48.79283" lon="7.29177">
        <ele>209</ele>
        <time>2020-06-28T09:15:25Z</time>
      </trkpt>
      <trkpt lat="48.79279" lon="7.29181">
        <ele>209.5</ele>
        <time>2020-06-28T09:15:30Z</time>
      </trkpt>
      <trkpt lat="48.79275" lon="7.29184">
        <ele>209.9</ele>
        <time>2020-06-28T09:15:36Z</time>
      </trkpt>
      <trkpt lat="48.79276" lon="7.29191">
        <ele>207.7</ele>
        <time>2020-06-28T09:15:48Z</time>
      </trkpt>
      <trkpt lat="48.79273" lon="7.29196">
        <ele>207.5</ele>
        <time>2020-06-28T09:15:56Z</time>
      </trkpt>
      <trkpt lat="48.79268" lon="7.29199">
        <ele>207.6</ele>
        <time>2020-06-28T09:16:01Z</time>
      </trkpt>
      <trkpt lat="48.79263" lon="7.29198">
        <ele>209.8</ele>
        <time>2020-06-28T09:16:04Z</time>
      </trkpt>
      <trkpt lat="48.79259" lon="7.29202">
        <ele>210.2</ele>
        <time>2020-06-28T09:16:08Z</time>
      </trkpt>
      <trkpt lat="48.79255" lon="7.29205">
        <ele>234.6</ele>
        <time>2020-06-28T09:16:19Z</time>
      </trkpt>
      <trkpt lat="48.7925" lon="7.29208">
        <ele>229.2</ele>
        <time>2020-06-28T09:16:22Z</time>
      </trkpt>
      <trkpt lat="48.79244" lon="7.29211">
        <ele>224</ele>
        <time>2020-06-28T09:16:25Z</time>
      </trkpt>
      <trkpt lat="48.79239" lon="7.29216">
        <ele>221.6</ele>
        <time>2020-06-28T09:16:27Z</time>
      </trkpt>
      <trkpt lat="48.79235" lon="7.29221">
        <ele>220.1</ele>
        <time>2020-06-28T09:16:29Z</time>
      </trkpt>
      <trkpt lat="48.79231" lon="7.29225">
        <ele>218.5</ele>
        <time>2020-06-28T09:16:31Z</time>
      </trkpt>
      <trkpt lat="48.79224" lon="7.29228">
        <ele>217.2</ele>
        <time>2020-06-28T09:16:34Z</time>
      </trkpt>
      <trkpt lat="48.79216" lon="7.29231">
        <ele>216.5</ele>
        <time>2020-06-28T09:16:36Z</time>
      </trkpt>
      <trkpt lat="48.79204" lon="7.29231">
        <ele>215.2</ele>
        <time>2020-06-28T09:16:39Z</time>
      </trkpt>
      <trkpt lat="48.79199" lon="7.29231">
        <ele>214.8</ele>
        <time>2020-06-28T09:16:41Z</time>
      </trkpt>
      <trkpt lat="48.79194" lon="7.29227">
        <ele>214.5</ele>
        <time>2020-06-28T09:16:45Z</time>
      </trkpt>
      <trkpt lat="48.79188" lon="7.29224">
        <ele>214.3</ele>
        <time>2020-06-28T09:16:48Z</time>
      </trkpt>
      <trkpt lat="48.79184" lon="7.29223">
        <ele>214.7</ele>
        <time>2020-06-28T09:16:50Z</time>
      </trkpt>
      <trkpt lat="48.79174" lon="7.2922">
        <ele>214.6</ele>
        <time>2020-06-28T09:16:52Z</time>
      </trkpt>
      <trkpt lat="48.79165" lon="7.29219">
        <ele>213</ele>
        <time>2020-06-28T09:16:54Z</time>
      </trkpt>
      <trkpt lat="48.79152" lon="7.29224">
        <ele>217.6</ele>
        <time>2020-06-28T09:16:57Z</time>
      </trkpt>
      <trkpt lat="48.79145" lon="7.29225">
        <ele>216.1</ele>
        <time>2020-06-28T09:16:59Z</time>
      </trkpt>
      <trkpt lat="48.7914" lon="7.29224">
        <ele>213.8</ele>
        <time>2020-06-28T09:17:02Z</time>
      </trkpt>
      <trkpt lat="48.79134" lon="7.2922">
        <ele>212.9</ele>
        <time>2020-06-28T09:17:05Z</time>
      </trkpt>
      <trkpt lat="48.79129" lon="7.29218">
        <ele>212.9</ele>
        <time>2020-06-28T09:17:07Z</time>
      </trkpt>
      <trkpt lat="48.79125" lon="7.29215">
        <ele>213.2</ele>
        <time>2020-06-28T09:17:09Z</time>
      </trkpt>
      <trkpt lat="48.79119" lon="7.29216">
        <ele>213.8</ele>
        <time>2020-06-28T09:17:12Z</time>
      </trkpt>
      <trkpt lat="48.79114" lon="7.2922">
        <ele>212.9</ele>
        <time>2020-06-28T09:17:15Z</time>
      </trkpt>
      <trkpt lat="48.79109" lon="7.29221">
        <ele>212.5</ele>
        <time>2020-06-28T09:17:17Z</time>
      </trkpt>
      <trkpt lat="48.79105" lon="7.29219">
        <ele>212</ele>
        <time>2020-06-28T09:17:19Z</time>
      </trkpt>
      <trkpt lat="48.79098" lon="7.29219">
        <ele>210.6</ele>
        <time>2020-06-28T09:17:23Z</time>
      </trkpt>
      <trkpt lat="48.79094" lon="7.2922">
        <ele>210.7</ele>
        <time>2020-06-28T09:17:25Z</time>
      </trkpt>
      <trkpt lat="48.79087" lon="7.29217">
        <ele>210.3</ele>
        <time>2020-06-28T09:17:27Z</time>
      </trkpt>
      <trkpt lat="48.7908" lon="7.29213">
        <ele>210.7</ele>
        <time>2020-06-28T09:17:29Z</time>
      </trkpt>
      <trkpt lat="48.7907" lon="7.29207">
        <ele>211</ele>
        <time>2020-06-28T09:17:31Z</time>
      </trkpt>
      <trkpt lat="48.79055" lon="7.29197">
        <ele>210.6</ele>
        <time>2020-06-28T09:17:33Z</time>
      </trkpt>
      <trkpt lat="48.79041" lon="7.29191">
        <ele>210.1</ele>
        <time>2020-06-28T09:17:35Z</time>
      </trkpt>
      <trkpt lat="48.79022" lon="7.29187">
        <ele>209.8</ele>
        <time>2020-06-28T09:17:38Z</time>
      </trkpt>
      <trkpt lat="48.79013" lon="7.29183">
        <ele>209.3</ele>
        <time>2020-06-28T09:17:40Z</time>
      </trkpt>
      <trkpt lat="48.79004" lon="7.29179">
        <ele>209.4</ele>
        <time>2020-06-28T09:17:42Z</time>
      </trkpt>
      <trkpt lat="48.78996" lon="7.29174">
        <ele>209.4</ele>
        <time>2020-06-28T09:17:44Z</time>
      </trkpt>
      <trkpt lat="48.78986" lon="7.29169">
        <ele>209.7</ele>
        <time>2020-06-28T09:17:46Z</time>
      </trkpt>
      <trkpt lat="48.78977" lon="7.29165">
        <ele>210.3</ele>
        <time>2020-06-28T09:17:48Z</time>
      </trkpt>
      <trkpt lat="48.78964" lon="7.2916">
        <ele>211.7</ele>
        <time>2020-06-28T09:17:51Z</time>
      </trkpt>
      <trkpt lat="48.78957" lon="7.29157">
        <ele>212.2</ele>
        <time>2020-06-28T09:17:53Z</time>
      </trkpt>
      <trkpt lat="48.78951" lon="7.29156">
        <ele>212.9</ele>
        <time>2020-06-28T09:17:55Z</time>
      </trkpt>
      <trkpt lat="48.78943" lon="7.29156">
        <ele>213.4</ele>
        <time>2020-06-28T09:17:57Z</time>
      </trkpt>
      <trkpt lat="48.78935" lon="7.29155">
        <ele>214.4</ele>
        <time>2020-06-28T09:17:59Z</time>
      </trkpt>
      <trkpt lat="48.78928" lon="7.29154">
        <ele>215.7</ele>
        <time>2020-06-28T09:18:01Z</time>
      </trkpt>
      <trkpt lat="48.78921" lon="7.29152">
        <ele>216.7</ele>
        <time>2020-06-28T09:18:03Z</time>
      </trkpt>
      <trkpt lat="48.78913" lon="7.29151">
        <ele>217.3</ele>
        <time>2020-06-28T09:18:06Z</time>
      </trkpt>
      <trkpt lat="48.78908" lon="7.29151">
        <ele>216.7</ele>
        <time>2020-06-28T09:18:08Z</time>
      </trkpt>
      <trkpt lat="48.789" lon="7.29148">
        <ele>216.4</ele>
        <time>2020-06-28T09:18:11Z</time>
      </trkpt>
      <trkpt lat="48.78895" lon="7.29145">
        <ele>216.5</ele>
        <time>2020-06-28T09:18:13Z</time>
      </trkpt>
      <trkpt lat="48.78889" lon="7.29142">
        <ele>217.7</ele>
        <time>2020-06-28T09:18:15Z</time>
      </trkpt>
      <trkpt lat="48.78884" lon="7.2914">
        <ele>216.9</ele>
        <time>2020-06-28T09:18:17Z</time>
      </trkpt>
      <trkpt lat="48.78878" lon="7.29139">
        <ele>216.8</ele>
        <time>2020-06-28T09:18:19Z</time>
      </trkpt>
      <trkpt lat="48.78871" lon="7.29139">
        <ele>217.1</ele>
        <time>2020-06-28T09:18:21Z</time>
      </trkpt>
      <trkpt lat="48.78865" lon="7.29136">
        <ele>217.3</ele>
        <time>2020-06-28T09:18:23Z</time>
      </trkpt>
      <trkpt lat="48.78858" lon="7.29132">
        <ele>217.8</ele>
        <time>2020-06-28T09:18:25Z</time>
      </trkpt>
      <trkpt lat="48.78852" lon="7.29128">
        <ele>218.3</ele>
        <time>2020-06-28T09:18:27Z</time>
      </trkpt>
      <trkpt lat="48.78847" lon="7.29125">
        <ele>220.8</ele>
        <time>2020-06-28T09:18:30Z</time>
      </trkpt>
      <trkpt lat="48.78841" lon="7.29123">
        <ele>221.2</ele>
        <time>2020-06-28T09:18:32Z</time>
      </trkpt>
      <trkpt lat="48.78837" lon="7.29122">
        <ele>222.2</ele>
        <time>2020-06-28T09:18:34Z</time>
      </trkpt>
      <trkpt lat="48.78832" lon="7.29122">
        <ele>223.3</ele>
        <time>2020-06-28T09:18:36Z</time>
      </trkpt>
      <trkpt lat="48.78826" lon="7.29121">
        <ele>225.3</ele>
        <time>2020-06-28T09:18:39Z</time>
      </trkpt>
      <trkpt lat="48.78819" lon="7.2912">
        <ele>226.4</ele>
        <time>2020-06-28T09:18:42Z</time>
      </trkpt>
      <trkpt lat="48.78814" lon="7.29119">
        <ele>223.9</ele>
        <time>2020-06-28T09:18:45Z</time>
      </trkpt>
      <trkpt lat="48.7881" lon="7.29117">
        <ele>235.4</ele>
        <time>2020-06-28T09:19:43Z</time>
      </trkpt>
      <trkpt lat="48.78804" lon="7.2911">
        <ele>232.6</ele>
        <time>2020-06-28T09:20:08Z</time>
      </trkpt>
      <trkpt lat="48.78798" lon="7.29105">
        <ele>232.4</ele>
        <time>2020-06-28T09:20:10Z</time>
      </trkpt>
      <trkpt lat="48.78787" lon="7.29095">
        <ele>232.1</ele>
        <time>2020-06-28T09:20:12Z</time>
      </trkpt>
      <trkpt lat="48.78777" lon="7.29084">
        <ele>231.8</ele>
        <time>2020-06-28T09:20:14Z</time>
      </trkpt>
      <trkpt lat="48.78764" lon="7.29073">
        <ele>231.1</ele>
        <time>2020-06-28T09:20:16Z</time>
      </trkpt>
      <trkpt lat="48.78751" lon="7.29062">
        <ele>228.9</ele>
        <time>2020-06-28T09:20:18Z</time>
      </trkpt>
      <trkpt lat="48.78737" lon="7.29053">
        <ele>226.5</ele>
        <time>2020-06-28T09:20:20Z</time>
      </trkpt>
      <trkpt lat="48.78726" lon="7.29044">
        <ele>223.8</ele>
        <time>2020-06-28T09:20:22Z</time>
      </trkpt>
      <trkpt lat="48.78717" lon="7.29038">
        <ele>221.6</ele>
        <time>2020-06-28T09:20:24Z</time>
      </trkpt>
      <trkpt lat="48.78707" lon="7.29036">
        <ele>221.2</ele>
        <time>2020-06-28T09:20:26Z</time>
      </trkpt>
      <trkpt lat="48.78697" lon="7.29035">
        <ele>221.1</ele>
        <time>2020-06-28T09:20:28Z</time>
      </trkpt>
      <trkpt lat="48.78688" lon="7.29033">
        <ele>222.3</ele>
        <time>2020-06-28T09:20:30Z</time>
      </trkpt>
      <trkpt lat="48.78679" lon="7.29031">
        <ele>221.4</ele>
        <time>2020-06-28T09:20:32Z</time>
      </trkpt>
      <trkpt lat="48.7867" lon="7.29029">
        <ele>220.6</ele>
        <time>2020-06-28T09:20:34Z</time>
      </trkpt>
      <trkpt lat="48.78662" lon="7.29027">
        <ele>219</ele>
        <time>2020-06-28T09:20:36Z</time>
      </trkpt>
      <trkpt lat="48.78652" lon="7.29025">
        <ele>218.5</ele>
        <time>2020-06-28T09:20:38Z</time>
      </trkpt>
      <trkpt lat="48.78643" lon="7.29024">
        <ele>218</ele>
        <time>2020-06-28T09:20:40Z</time>
      </trkpt>
      <trkpt lat="48.78633" lon="7.29025">
        <ele>217.2</ele>
        <time>2020-06-28T09:20:42Z</time>
      </trkpt>
      <trkpt lat="48.78625" lon="7.29025">
        <ele>217.2</ele>
        <time>2020-06-28T09:20:44Z</time>
      </trkpt>
      <trkpt lat="48.78617" lon="7.29027">
        <ele>215.7</ele>
        <time>2020-06-28T09:20:46Z</time>
      </trkpt>
      <trkpt lat="48.78609" lon="7.2903">
        <ele>215.1</ele>
        <time>2020-06-28T09:20:48Z</time>
      </trkpt>
      <trkpt lat="48.78603" lon="7.29033">
        <ele>214.2</ele>
        <time>2020-06-28T09:20:50Z</time>
      </trkpt>
      <trkpt lat="48.78598" lon="7.29035">
        <ele>214</ele>
        <time>2020-06-28T09:20:52Z</time>
      </trkpt>
      <trkpt lat="48.78592" lon="7.29033">
        <ele>214.8</ele>
        <time>2020-06-28T09:20:55Z</time>
      </trkpt>
      <trkpt lat="48.78588" lon="7.29024">
        <ele>215.3</ele>
        <time>2020-06-28T09:20:58Z</time>
      </trkpt>
      <trkpt lat="48.78587" lon="7.29017">
        <ele>216</ele>
        <time>2020-06-28T09:21:00Z</time>
      </trkpt>
      <trkpt lat="48.78583" lon="7.29011">
        <ele>216.9</ele>
        <time>2020-06-28T09:21:03Z</time>
      </trkpt>
      <trkpt lat="48.78578" lon="7.29009">
        <ele>217.9</ele>
        <time>2020-06-28T09:21:12Z</time>
      </trkpt>
      <trkpt lat="48.78574" lon="7.29012">
        <ele>217.8</ele>
        <time>2020-06-28T09:21:38Z</time>
      </trkpt>
      <trkpt lat="48.7857" lon="7.29015">
        <ele>219.8</ele>
        <time>2020-06-28T09:21:48Z</time>
      </trkpt>
      <trkpt lat="48.78575" lon="7.29014">
        <ele>223.5</ele>
        <time>2020-06-28T09:22:16Z</time>
      </trkpt>
      <trkpt lat="48.78579" lon="7.29013">
        <ele>219.8</ele>
        <time>2020-06-28T09:22:38Z</time>
      </trkpt>
      <trkpt lat="48.78584" lon="7.29011">
        <ele>218.9</ele>
        <time>2020-06-28T09:23:41Z</time>
      </trkpt>
      <trkpt lat="48.78586" lon="7.29003">
        <ele>219.4</ele>
        <time>2020-06-28T09:23:44Z</time>
      </trkpt>
      <trkpt lat="48.78588" lon="7.28995">
        <ele>220.1</ele>
        <time>2020-06-28T09:23:47Z</time>
      </trkpt>
      <trkpt lat="48.78588" lon="7.28987">
        <ele>220.8</ele>
        <time>2020-06-28T09:23:50Z</time>
      </trkpt>
      <trkpt lat="48.78586" lon="7.28979">
        <ele>222.2</ele>
        <time>2020-06-28T09:23:53Z</time>
      </trkpt>
      <trkpt lat="48.78584" lon="7.28972">
        <ele>223.7</ele>
        <time>2020-06-28T09:23:56Z</time>
      </trkpt>
      <trkpt lat="48.78581" lon="7.28963">
        <ele>224.4</ele>
        <time>2020-06-28T09:23:59Z</time>
      </trkpt>
      <trkpt lat="48.78578" lon="7.28956">
        <ele>226</ele>
        <time>2020-06-28T09:24:02Z</time>
      </trkpt>
      <trkpt lat="48.78576" lon="7.28947">
        <ele>226.1</ele>
        <time>2020-06-28T09:24:05Z</time>
      </trkpt>
      <trkpt lat="48.78574" lon="7.28938">
        <ele>226.2</ele>
        <time>2020-06-28T09:24:08Z</time>
      </trkpt>
      <trkpt lat="48.78574" lon="7.2893">
        <ele>225.7</ele>
        <time>2020-06-28T09:24:11Z</time>
      </trkpt>
      <trkpt lat="48.78574" lon="7.28923">
        <ele>226</ele>
        <time>2020-06-28T09:24:14Z</time>
      </trkpt>
      <trkpt lat="48.78573" lon="7.28915">
        <ele>225.8</ele>
        <time>2020-06-28T09:24:17Z</time>
      </trkpt>
      <trkpt lat="48.78571" lon="7.28908">
        <ele>227</ele>
        <time>2020-06-28T09:24:20Z</time>
      </trkpt>
      <trkpt lat="48.78569" lon="7.28901">
        <ele>227.9</ele>
        <time>2020-06-28T09:24:23Z</time>
      </trkpt>
      <trkpt lat="48.78566" lon="7.28893">
        <ele>227.4</ele>
        <time>2020-06-28T09:24:26Z</time>
      </trkpt>
      <trkpt lat="48.78564" lon="7.28884">
        <ele>227.2</ele>
        <time>2020-06-28T09:24:29Z</time>
      </trkpt>
      <trkpt lat="48.78563" lon="7.28875">
        <ele>227.4</ele>
        <time>2020-06-28T09:24:32Z</time>
      </trkpt>
      <trkpt lat="48.78561" lon="7.28865">
        <ele>226.7</ele>
        <time>2020-06-28T09:24:35Z</time>
      </trkpt>
      <trkpt lat="48.78559" lon="7.28855">
        <ele>225.9</ele>
        <time>2020-06-28T09:24:38Z</time>
      </trkpt>
      <trkpt lat="48.78557" lon="7.28849">
        <ele>225.4</ele>
        <time>2020-06-28T09:24:40Z</time>
      </trkpt>
      <trkpt lat="48.78554" lon="7.28842">
        <ele>224.8</ele>
        <time>2020-06-28T09:24:43Z</time>
      </trkpt>
      <trkpt lat="48.7855" lon="7.28836">
        <ele>224.4</ele>
        <time>2020-06-28T09:24:45Z</time>
      </trkpt>
      <trkpt lat="48.78547" lon="7.28829">
        <ele>224.1</ele>
        <time>2020-06-28T09:24:47Z</time>
      </trkpt>
      <trkpt lat="48.78544" lon="7.28821">
        <ele>223.5</ele>
        <time>2020-06-28T09:24:50Z</time>
      </trkpt>
      <trkpt lat="48.78541" lon="7.28813">
        <ele>223.2</ele>
        <time>2020-06-28T09:24:53Z</time>
      </trkpt>
      <trkpt lat="48.78539" lon="7.28807">
        <ele>223.6</ele>
        <time>2020-06-28T09:24:56Z</time>
      </trkpt>
      <trkpt lat="48.78536" lon="7.28799">
        <ele>225.4</ele>
        <time>2020-06-28T09:24:59Z</time>
      </trkpt>
      <trkpt lat="48.78534" lon="7.28791">
        <ele>227</ele>
        <time>2020-06-28T09:25:02Z</time>
      </trkpt>
      <trkpt lat="48.78531" lon="7.28784">
        <ele>228</ele>
        <time>2020-06-28T09:25:05Z</time>
      </trkpt>
      <trkpt lat="48.78528" lon="7.28777">
        <ele>229</ele>
        <time>2020-06-28T09:25:08Z</time>
      </trkpt>
      <trkpt lat="48.78526" lon="7.28771">
        <ele>229.1</ele>
        <time>2020-06-28T09:25:11Z</time>
      </trkpt>
      <trkpt lat="48.78523" lon="7.28764">
        <ele>228.8</ele>
        <time>2020-06-28T09:25:15Z</time>
      </trkpt>
      <trkpt lat="48.78521" lon="7.28757">
        <ele>230.2</ele>
        <time>2020-06-28T09:25:20Z</time>
      </trkpt>
      <trkpt lat="48.7852" lon="7.2875">
        <ele>230.7</ele>
        <time>2020-06-28T09:25:26Z</time>
      </trkpt>
      <trkpt lat="48.78522" lon="7.28743">
        <ele>230.2</ele>
        <time>2020-06-28T09:25:30Z</time>
      </trkpt>
      <trkpt lat="48.7852" lon="7.28736">
        <ele>229.6</ele>
        <time>2020-06-28T09:25:34Z</time>
      </trkpt>
      <trkpt lat="48.78517" lon="7.28729">
        <ele>228</ele>
        <time>2020-06-28T09:25:42Z</time>
      </trkpt>
      <trkpt lat="48.78515" lon="7.28723">
        <ele>227.8</ele>
        <time>2020-06-28T09:25:46Z</time>
      </trkpt>
      <trkpt lat="48.78512" lon="7.28717">
        <ele>228.3</ele>
        <time>2020-06-28T09:25:49Z</time>
      </trkpt>
      <trkpt lat="48.78509" lon="7.28712">
        <ele>228.1</ele>
        <time>2020-06-28T09:25:52Z</time>
      </trkpt>
      <trkpt lat="48.78508" lon="7.28705">
        <ele>228.1</ele>
        <time>2020-06-28T09:25:55Z</time>
      </trkpt>
      <trkpt lat="48.78506" lon="7.28696">
        <ele>227.8</ele>
        <time>2020-06-28T09:25:58Z</time>
      </trkpt>
      <trkpt lat="48.78504" lon="7.28689">
        <ele>227.9</ele>
        <time>2020-06-28T09:26:00Z</time>
      </trkpt>
      <trkpt lat="48.785" lon="7.28677">
        <ele>229.6</ele>
        <time>2020-06-28T09:26:03Z</time>
      </trkpt>
      <trkpt lat="48.78496" lon="7.28669">
        <ele>231.5</ele>
        <time>2020-06-28T09:26:05Z</time>
      </trkpt>
      <trkpt lat="48.78493" lon="7.28661">
        <ele>231.5</ele>
        <time>2020-06-28T09:26:07Z</time>
      </trkpt>
      <trkpt lat="48.78489" lon="7.28652">
        <ele>231.9</ele>
        <time>2020-06-28T09:26:09Z</time>
      </trkpt>
      <trkpt lat="48.78486" lon="7.28645">
        <ele>232.5</ele>
        <time>2020-06-28T09:26:11Z</time>
      </trkpt>
      <trkpt lat="48.78482" lon="7.28633">
        <ele>233</ele>
        <time>2020-06-28T09:26:14Z</time>
      </trkpt>
      <trkpt lat="48.78477" lon="7.28623">
        <ele>233.9</ele>
        <time>2020-06-28T09:26:17Z</time>
      </trkpt>
      <trkpt lat="48.78474" lon="7.28617">
        <ele>234.9</ele>
        <time>2020-06-28T09:26:19Z</time>
      </trkpt>
      <trkpt lat="48.78471" lon="7.28612">
        <ele>235.9</ele>
        <time>2020-06-28T09:26:21Z</time>
      </trkpt>
      <trkpt lat="48.78467" lon="7.28604">
        <ele>236.5</ele>
        <time>2020-06-28T09:26:24Z</time>
      </trkpt>
      <trkpt lat="48.78462" lon="7.28597">
        <ele>236.9</ele>
        <time>2020-06-28T09:26:27Z</time>
      </trkpt>
      <trkpt lat="48.78458" lon="7.28591">
        <ele>237</ele>
        <time>2020-06-28T09:26:29Z</time>
      </trkpt>
      <trkpt lat="48.78455" lon="7.28586">
        <ele>237</ele>
        <time>2020-06-28T09:26:31Z</time>
      </trkpt>
      <trkpt lat="48.78452" lon="7.28581">
        <ele>237.6</ele>
        <time>2020-06-28T09:26:33Z</time>
      </trkpt>
      <trkpt lat="48.78449" lon="7.28575">
        <ele>238.7</ele>
        <time>2020-06-28T09:26:35Z</time>
      </trkpt>
      <trkpt lat="48.78446" lon="7.2857">
        <ele>239.5</ele>
        <time>2020-06-28T09:26:37Z</time>
      </trkpt>
      <trkpt lat="48.78443" lon="7.28564">
        <ele>239.8</ele>
        <time>2020-06-28T09:26:39Z</time>
      </trkpt>
      <trkpt lat="48.7844" lon="7.28557">
        <ele>240.4</ele>
        <time>2020-06-28T09:26:42Z</time>
      </trkpt>
      <trkpt lat="48.78436" lon="7.28549">
        <ele>241.2</ele>
        <time>2020-06-28T09:26:45Z</time>
      </trkpt>
      <trkpt lat="48.78433" lon="7.28541">
        <ele>241</ele>
        <time>2020-06-28T09:26:48Z</time>
      </trkpt>
      <trkpt lat="48.7843" lon="7.28533">
        <ele>241.5</ele>
        <time>2020-06-28T09:26:51Z</time>
      </trkpt>
      <trkpt lat="48.78426" lon="7.28524">
        <ele>241.4</ele>
        <time>2020-06-28T09:26:54Z</time>
      </trkpt>
      <trkpt lat="48.78423" lon="7.28518">
        <ele>241.1</ele>
        <time>2020-06-28T09:26:56Z</time>
      </trkpt>
      <trkpt lat="48.7842" lon="7.28512">
        <ele>240.8</ele>
        <time>2020-06-28T09:26:58Z</time>
      </trkpt>
      <trkpt lat="48.78417" lon="7.28506">
        <ele>240.6</ele>
        <time>2020-06-28T09:27:00Z</time>
      </trkpt>
      <trkpt lat="48.78414" lon="7.28499">
        <ele>240.8</ele>
        <time>2020-06-28T09:27:02Z</time>
      </trkpt>
      <trkpt lat="48.78411" lon="7.28492">
        <ele>240.8</ele>
        <time>2020-06-28T09:27:04Z</time>
      </trkpt>
      <trkpt lat="48.78407" lon="7.28484">
        <ele>240.9</ele>
        <time>2020-06-28T09:27:06Z</time>
      </trkpt>
      <trkpt lat="48.78404" lon="7.28477">
        <ele>240.8</ele>
        <time>2020-06-28T09:27:08Z</time>
      </trkpt>
      <trkpt lat="48.78401" lon="7.28469">
        <ele>240.6</ele>
        <time>2020-06-28T09:27:10Z</time>
      </trkpt>
      <trkpt lat="48.78398" lon="7.28461">
        <ele>240.4</ele>
        <time>2020-06-28T09:27:12Z</time>
      </trkpt>
      <trkpt lat="48.78393" lon="7.28454">
        <ele>240.9</ele>
        <time>2020-06-28T09:27:14Z</time>
      </trkpt>
      <trkpt lat="48.78389" lon="7.28449">
        <ele>241.1</ele>
        <time>2020-06-28T09:27:16Z</time>
      </trkpt>
      <trkpt lat="48.78384" lon="7.28444">
        <ele>241.4</ele>
        <time>2020-06-28T09:27:18Z</time>
      </trkpt>
      <trkpt lat="48.7838" lon="7.2844">
        <ele>241.7</ele>
        <time>2020-06-28T09:27:20Z</time>
      </trkpt>
      <trkpt lat="48.78376" lon="7.28436">
        <ele>241.8</ele>
        <time>2020-06-28T09:27:22Z</time>
      </trkpt>
      <trkpt lat="48.78371" lon="7.28432">
        <ele>242.3</ele>
        <time>2020-06-28T09:27:24Z</time>
      </trkpt>
      <trkpt lat="48.78365" lon="7.28428">
        <ele>243.1</ele>
        <time>2020-06-28T09:27:27Z</time>
      </trkpt>
      <trkpt lat="48.78359" lon="7.28426">
        <ele>244.3</ele>
        <time>2020-06-28T09:27:30Z</time>
      </trkpt>
      <trkpt lat="48.78354" lon="7.28421">
        <ele>245.6</ele>
        <time>2020-06-28T09:27:33Z</time>
      </trkpt>
      <trkpt lat="48.78349" lon="7.28417">
        <ele>246.5</ele>
        <time>2020-06-28T09:27:36Z</time>
      </trkpt>
      <trkpt lat="48.78345" lon="7.28413">
        <ele>246.5</ele>
        <time>2020-06-28T09:27:39Z</time>
      </trkpt>
      <trkpt lat="48.78341" lon="7.28408">
        <ele>247</ele>
        <time>2020-06-28T09:27:42Z</time>
      </trkpt>
      <trkpt lat="48.78337" lon="7.28402">
        <ele>246.8</ele>
        <time>2020-06-28T09:27:45Z</time>
      </trkpt>
      <trkpt lat="48.78332" lon="7.28397">
        <ele>246.3</ele>
        <time>2020-06-28T09:27:49Z</time>
      </trkpt>
      <trkpt lat="48.78329" lon="7.28393">
        <ele>246.2</ele>
        <time>2020-06-28T09:27:51Z</time>
      </trkpt>
      <trkpt lat="48.78325" lon="7.28388">
        <ele>246.1</ele>
        <time>2020-06-28T09:27:53Z</time>
      </trkpt>
      <trkpt lat="48.78321" lon="7.28382">
        <ele>245.9</ele>
        <time>2020-06-28T09:27:55Z</time>
      </trkpt>
      <trkpt lat="48.78318" lon="7.28377">
        <ele>245.6</ele>
        <time>2020-06-28T09:27:57Z</time>
      </trkpt>
      <trkpt lat="48.78314" lon="7.28371">
        <ele>245.7</ele>
        <time>2020-06-28T09:28:00Z</time>
      </trkpt>
      <trkpt lat="48.78308" lon="7.28367">
        <ele>246.7</ele>
        <time>2020-06-28T09:28:03Z</time>
      </trkpt>
      <trkpt lat="48.78303" lon="7.28365">
        <ele>249.1</ele>
        <time>2020-06-28T09:28:06Z</time>
      </trkpt>
      <trkpt lat="48.78298" lon="7.28361">
        <ele>250.1</ele>
        <time>2020-06-28T09:28:09Z</time>
      </trkpt>
      <trkpt lat="48.78293" lon="7.28357">
        <ele>251.3</ele>
        <time>2020-06-28T09:28:12Z</time>
      </trkpt>
      <trkpt lat="48.78289" lon="7.28355">
        <ele>251.8</ele>
        <time>2020-06-28T09:28:15Z</time>
      </trkpt>
      <trkpt lat="48.78284" lon="7.28352">
        <ele>249.7</ele>
        <time>2020-06-28T09:28:18Z</time>
      </trkpt>
      <trkpt lat="48.78278" lon="7.28347">
        <ele>248.9</ele>
        <time>2020-06-28T09:28:21Z</time>
      </trkpt>
      <trkpt lat="48.78273" lon="7.28344">
        <ele>250</ele>
        <time>2020-06-28T09:28:23Z</time>
      </trkpt>
      <trkpt lat="48.78269" lon="7.2834">
        <ele>250.5</ele>
        <time>2020-06-28T09:28:25Z</time>
      </trkpt>
      <trkpt lat="48.78264" lon="7.28336">
        <ele>250.6</ele>
        <time>2020-06-28T09:28:27Z</time>
      </trkpt>
      <trkpt lat="48.7826" lon="7.28333">
        <ele>250</ele>
        <time>2020-06-28T09:28:29Z</time>
      </trkpt>
      <trkpt lat="48.78255" lon="7.28331">
        <ele>250</ele>
        <time>2020-06-28T09:28:31Z</time>
      </trkpt>
      <trkpt lat="48.78251" lon="7.28328">
        <ele>249.7</ele>
        <time>2020-06-28T09:28:33Z</time>
      </trkpt>
      <trkpt lat="48.78245" lon="7.28325">
        <ele>249.4</ele>
        <time>2020-06-28T09:28:36Z</time>
      </trkpt>
      <trkpt lat="48.7824" lon="7.2832">
        <ele>248.4</ele>
        <time>2020-06-28T09:28:39Z</time>
      </trkpt>
      <trkpt lat="48.78234" lon="7.28315">
        <ele>249.2</ele>
        <time>2020-06-28T09:28:42Z</time>
      </trkpt>
      <trkpt lat="48.78229" lon="7.28309">
        <ele>249.6</ele>
        <time>2020-06-28T09:28:45Z</time>
      </trkpt>
      <trkpt lat="48.78223" lon="7.28305">
        <ele>247.8</ele>
        <time>2020-06-28T09:28:48Z</time>
      </trkpt>
      <trkpt lat="48.78218" lon="7.28302">
        <ele>246.8</ele>
        <time>2020-06-28T09:28:51Z</time>
      </trkpt>
      <trkpt lat="48.78214" lon="7.28299">
        <ele>246.8</ele>
        <time>2020-06-28T09:28:54Z</time>
      </trkpt>
      <trkpt lat="48.78209" lon="7.28297">
        <ele>248.5</ele>
        <time>2020-06-28T09:28:57Z</time>
      </trkpt>
      <trkpt lat="48.78204" lon="7.28293">
        <ele>249.8</ele>
        <time>2020-06-28T09:29:00Z</time>
      </trkpt>
      <trkpt lat="48.782" lon="7.2829">
        <ele>250.1</ele>
        <time>2020-06-28T09:29:02Z</time>
      </trkpt>
      <trkpt lat="48.78196" lon="7.28286">
        <ele>251.4</ele>
        <time>2020-06-28T09:29:04Z</time>
      </trkpt>
      <trkpt lat="48.78192" lon="7.28282">
        <ele>252.4</ele>
        <time>2020-06-28T09:29:06Z</time>
      </trkpt>
      <trkpt lat="48.78187" lon="7.28277">
        <ele>253.4</ele>
        <time>2020-06-28T09:29:08Z</time>
      </trkpt>
      <trkpt lat="48.78181" lon="7.28274">
        <ele>253.8</ele>
        <time>2020-06-28T09:29:11Z</time>
      </trkpt>
      <trkpt lat="48.78176" lon="7.28272">
        <ele>255.1</ele>
        <time>2020-06-28T09:29:14Z</time>
      </trkpt>
      <trkpt lat="48.78171" lon="7.28268">
        <ele>257.2</ele>
        <time>2020-06-28T09:29:17Z</time>
      </trkpt>
      <trkpt lat="48.78165" lon="7.28263">
        <ele>258.1</ele>
        <time>2020-06-28T09:29:20Z</time>
      </trkpt>
      <trkpt lat="48.78161" lon="7.2826">
        <ele>258.4</ele>
        <time>2020-06-28T09:29:22Z</time>
      </trkpt>
      <trkpt lat="48.78157" lon="7.28256">
        <ele>259.2</ele>
        <time>2020-06-28T09:29:24Z</time>
      </trkpt>
      <trkpt lat="48.78154" lon="7.28252">
        <ele>259.9</ele>
        <time>2020-06-28T09:29:26Z</time>
      </trkpt>
      <trkpt lat="48.78148" lon="7.28246">
        <ele>260.2</ele>
        <time>2020-06-28T09:29:29Z</time>
      </trkpt>
      <trkpt lat="48.78142" lon="7.28242">
        <ele>259.1</ele>
        <time>2020-06-28T09:29:32Z</time>
      </trkpt>
      <trkpt lat="48.78137" lon="7.28238">
        <ele>257.3</ele>
        <time>2020-06-28T09:29:35Z</time>
      </trkpt>
      <trkpt lat="48.78132" lon="7.28234">
        <ele>255.9</ele>
        <time>2020-06-28T09:29:38Z</time>
      </trkpt>
      <trkpt lat="48.78127" lon="7.2823">
        <ele>255.1</ele>
        <time>2020-06-28T09:29:41Z</time>
      </trkpt>
      <trkpt lat="48.78122" lon="7.28225">
        <ele>255.9</ele>
        <time>2020-06-28T09:29:44Z</time>
      </trkpt>
      <trkpt lat="48.78118" lon="7.28221">
        <ele>256.9</ele>
        <time>2020-06-28T09:29:46Z</time>
      </trkpt>
      <trkpt lat="48.78114" lon="7.28217">
        <ele>258.1</ele>
        <time>2020-06-28T09:29:48Z</time>
      </trkpt>
      <trkpt lat="48.78109" lon="7.28213">
        <ele>259.2</ele>
        <time>2020-06-28T09:29:50Z</time>
      </trkpt>
      <trkpt lat="48.78105" lon="7.28209">
        <ele>259.9</ele>
        <time>2020-06-28T09:29:52Z</time>
      </trkpt>
      <trkpt lat="48.781" lon="7.28206">
        <ele>261</ele>
        <time>2020-06-28T09:29:55Z</time>
      </trkpt>
      <trkpt lat="48.78094" lon="7.28201">
        <ele>262.3</ele>
        <time>2020-06-28T09:29:58Z</time>
      </trkpt>
      <trkpt lat="48.7809" lon="7.28197">
        <ele>262.7</ele>
        <time>2020-06-28T09:30:00Z</time>
      </trkpt>
      <trkpt lat="48.78086" lon="7.28194">
        <ele>263.3</ele>
        <time>2020-06-28T09:30:02Z</time>
      </trkpt>
      <trkpt lat="48.78081" lon="7.2819">
        <ele>264.2</ele>
        <time>2020-06-28T09:30:04Z</time>
      </trkpt>
      <trkpt lat="48.78077" lon="7.28186">
        <ele>264.7</ele>
        <time>2020-06-28T09:30:06Z</time>
      </trkpt>
      <trkpt lat="48.78073" lon="7.28182">
        <ele>265</ele>
        <time>2020-06-28T09:30:08Z</time>
      </trkpt>
      <trkpt lat="48.78069" lon="7.28178">
        <ele>265.1</ele>
        <time>2020-06-28T09:30:10Z</time>
      </trkpt>
      <trkpt lat="48.78065" lon="7.28174">
        <ele>265</ele>
        <time>2020-06-28T09:30:12Z</time>
      </trkpt>
      <trkpt lat="48.78062" lon="7.2817">
        <ele>265.2</ele>
        <time>2020-06-28T09:30:14Z</time>
      </trkpt>
      <trkpt lat="48.78057" lon="7.28166">
        <ele>265.6</ele>
        <time>2020-06-28T09:30:16Z</time>
      </trkpt>
      <trkpt lat="48.78052" lon="7.28161">
        <ele>265.4</ele>
        <time>2020-06-28T09:30:19Z</time>
      </trkpt>
      <trkpt lat="48.78046" lon="7.28156">
        <ele>265.6</ele>
        <time>2020-06-28T09:30:22Z</time>
      </trkpt>
      <trkpt lat="48.78042" lon="7.28152">
        <ele>265.9</ele>
        <time>2020-06-28T09:30:25Z</time>
      </trkpt>
      <trkpt lat="48.78038" lon="7.28148">
        <ele>265.7</ele>
        <time>2020-06-28T09:30:27Z</time>
      </trkpt>
      <trkpt lat="48.78033" lon="7.28141">
        <ele>266</ele>
        <time>2020-06-28T09:30:30Z</time>
      </trkpt>
      <trkpt lat="48.7803" lon="7.28136">
        <ele>266</ele>
        <time>2020-06-28T09:30:32Z</time>
      </trkpt>
      <trkpt lat="48.78026" lon="7.28131">
        <ele>266.3</ele>
        <time>2020-06-28T09:30:34Z</time>
      </trkpt>
      <trkpt lat="48.78022" lon="7.28127">
        <ele>267</ele>
        <time>2020-06-28T09:30:36Z</time>
      </trkpt>
      <trkpt lat="48.78017" lon="7.28123">
        <ele>267.5</ele>
        <time>2020-06-28T09:30:38Z</time>
      </trkpt>
      <trkpt lat="48.78012" lon="7.28119">
        <ele>267.8</ele>
        <time>2020-06-28T09:30:40Z</time>
      </trkpt>
      <trkpt lat="48.78007" lon="7.28115">
        <ele>267.7</ele>
        <time>2020-06-28T09:30:42Z</time>
      </trkpt>
      <trkpt lat="48.78003" lon="7.28111">
        <ele>267.6</ele>
        <time>2020-06-28T09:30:44Z</time>
      </trkpt>
      <trkpt lat="48.77999" lon="7.28107">
        <ele>268</ele>
        <time>2020-06-28T09:30:46Z</time>
      </trkpt>
      <trkpt lat="48.77997" lon="7.281">
        <ele>268</ele>
        <time>2020-06-28T09:30:48Z</time>
      </trkpt>
      <trkpt lat="48.77995" lon="7.28091">
        <ele>268.3</ele>
        <time>2020-06-28T09:30:50Z</time>
      </trkpt>
      <trkpt lat="48.77992" lon="7.28085">
        <ele>268.2</ele>
        <time>2020-06-28T09:30:52Z</time>
      </trkpt>
      <trkpt lat="48.77989" lon="7.2808">
        <ele>268.7</ele>
        <time>2020-06-28T09:30:54Z</time>
      </trkpt>
      <trkpt lat="48.77984" lon="7.28073">
        <ele>269.1</ele>
        <time>2020-06-28T09:30:57Z</time>
      </trkpt>
      <trkpt lat="48.77981" lon="7.28067">
        <ele>269.7</ele>
        <time>2020-06-28T09:30:59Z</time>
      </trkpt>
      <trkpt lat="48.77979" lon="7.28062">
        <ele>270.2</ele>
        <time>2020-06-28T09:31:01Z</time>
      </trkpt>
      <trkpt lat="48.77975" lon="7.28057">
        <ele>270</ele>
        <time>2020-06-28T09:31:03Z</time>
      </trkpt>
      <trkpt lat="48.77972" lon="7.28052">
        <ele>269.3</ele>
        <time>2020-06-28T09:31:05Z</time>
      </trkpt>
      <trkpt lat="48.77969" lon="7.28045">
        <ele>268.5</ele>
        <time>2020-06-28T09:31:07Z</time>
      </trkpt>
      <trkpt lat="48.77964" lon="7.28039">
        <ele>267.7</ele>
        <time>2020-06-28T09:31:09Z</time>
      </trkpt>
      <trkpt lat="48.77961" lon="7.28033">
        <ele>266.5</ele>
        <time>2020-06-28T09:31:11Z</time>
      </trkpt>
      <trkpt lat="48.77959" lon="7.28025">
        <ele>265.7</ele>
        <time>2020-06-28T09:31:13Z</time>
      </trkpt>
      <trkpt lat="48.77955" lon="7.28016">
        <ele>265.6</ele>
        <time>2020-06-28T09:31:15Z</time>
      </trkpt>
      <trkpt lat="48.77951" lon="7.28008">
        <ele>265.3</ele>
        <time>2020-06-28T09:31:17Z</time>
      </trkpt>
      <trkpt lat="48.77947" lon="7.28001">
        <ele>265.2</ele>
        <time>2020-06-28T09:31:19Z</time>
      </trkpt>
      <trkpt lat="48.77943" lon="7.27994">
        <ele>265.5</ele>
        <time>2020-06-28T09:31:21Z</time>
      </trkpt>
      <trkpt lat="48.77939" lon="7.27989">
        <ele>265.9</ele>
        <time>2020-06-28T09:31:23Z</time>
      </trkpt>
      <trkpt lat="48.77934" lon="7.27984">
        <ele>266.9</ele>
        <time>2020-06-28T09:31:25Z</time>
      </trkpt>
      <trkpt lat="48.7793" lon="7.27981">
        <ele>267.2</ele>
        <time>2020-06-28T09:31:27Z</time>
      </trkpt>
      <trkpt lat="48.77925" lon="7.27979">
        <ele>267.5</ele>
        <time>2020-06-28T09:31:29Z</time>
      </trkpt>
      <trkpt lat="48.77919" lon="7.27975">
        <ele>267.6</ele>
        <time>2020-06-28T09:31:32Z</time>
      </trkpt>
      <trkpt lat="48.77914" lon="7.27967">
        <ele>267.7</ele>
        <time>2020-06-28T09:31:35Z</time>
      </trkpt>
      <trkpt lat="48.7791" lon="7.27959">
        <ele>268.2</ele>
        <time>2020-06-28T09:31:38Z</time>
      </trkpt>
      <trkpt lat="48.77906" lon="7.27954">
        <ele>268.6</ele>
        <time>2020-06-28T09:31:40Z</time>
      </trkpt>
      <trkpt lat="48.77901" lon="7.27949">
        <ele>268.7</ele>
        <time>2020-06-28T09:31:43Z</time>
      </trkpt>
      <trkpt lat="48.77894" lon="7.27948">
        <ele>268.9</ele>
        <time>2020-06-28T09:31:46Z</time>
      </trkpt>
      <trkpt lat="48.77888" lon="7.27948">
        <ele>268.8</ele>
        <time>2020-06-28T09:31:48Z</time>
      </trkpt>
      <trkpt lat="48.77884" lon="7.27947">
        <ele>268.4</ele>
        <time>2020-06-28T09:31:50Z</time>
      </trkpt>
      <trkpt lat="48.7788" lon="7.27942">
        <ele>268</ele>
        <time>2020-06-28T09:31:53Z</time>
      </trkpt>
      <trkpt lat="48.77876" lon="7.27938">
        <ele>268.1</ele>
        <time>2020-06-28T09:31:55Z</time>
      </trkpt>
      <trkpt lat="48.77871" lon="7.27932">
        <ele>269.3</ele>
        <time>2020-06-28T09:31:57Z</time>
      </trkpt>
      <trkpt lat="48.77867" lon="7.27927">
        <ele>269.9</ele>
        <time>2020-06-28T09:31:59Z</time>
      </trkpt>
      <trkpt lat="48.77862" lon="7.27922">
        <ele>270</ele>
        <time>2020-06-28T09:32:01Z</time>
      </trkpt>
      <trkpt lat="48.77858" lon="7.27918">
        <ele>269.5</ele>
        <time>2020-06-28T09:32:03Z</time>
      </trkpt>
      <trkpt lat="48.77855" lon="7.27912">
        <ele>269.4</ele>
        <time>2020-06-28T09:32:06Z</time>
      </trkpt>
      <trkpt lat="48.77857" lon="7.27905">
        <ele>269.1</ele>
        <time>2020-06-28T09:32:14Z</time>
      </trkpt>
      <trkpt lat="48.77855" lon="7.27899">
        <ele>269.9</ele>
        <time>2020-06-28T09:32:17Z</time>
      </trkpt>
      <trkpt lat="48.7785" lon="7.27896">
        <ele>269.7</ele>
        <time>2020-06-28T09:32:19Z</time>
      </trkpt>
      <trkpt lat="48.77845" lon="7.27894">
        <ele>270</ele>
        <time>2020-06-28T09:32:21Z</time>
      </trkpt>
      <trkpt lat="48.77839" lon="7.27892">
        <ele>270.4</ele>
        <time>2020-06-28T09:32:23Z</time>
      </trkpt>
      <trkpt lat="48.77834" lon="7.2789">
        <ele>270.1</ele>
        <time>2020-06-28T09:32:25Z</time>
      </trkpt>
      <trkpt lat="48.77828" lon="7.27888">
        <ele>270.6</ele>
        <time>2020-06-28T09:32:28Z</time>
      </trkpt>
      <trkpt lat="48.77823" lon="7.27885">
        <ele>270.9</ele>
        <time>2020-06-28T09:32:30Z</time>
      </trkpt>
      <trkpt lat="48.77819" lon="7.27883">
        <ele>271.5</ele>
        <time>2020-06-28T09:32:32Z</time>
      </trkpt>
      <trkpt lat="48.77813" lon="7.27883">
        <ele>272.4</ele>
        <time>2020-06-28T09:32:35Z</time>
      </trkpt>
      <trkpt lat="48.77808" lon="7.27882">
        <ele>272.7</ele>
        <time>2020-06-28T09:32:38Z</time>
      </trkpt>
      <trkpt lat="48.77803" lon="7.27877">
        <ele>272.2</ele>
        <time>2020-06-28T09:32:42Z</time>
      </trkpt>
      <trkpt lat="48.77798" lon="7.27873">
        <ele>272.1</ele>
        <time>2020-06-28T09:32:46Z</time>
      </trkpt>
      <trkpt lat="48.77793" lon="7.2787">
        <ele>272.1</ele>
        <time>2020-06-28T09:32:49Z</time>
      </trkpt>
      <trkpt lat="48.77789" lon="7.27866">
        <ele>272.3</ele>
        <time>2020-06-28T09:32:51Z</time>
      </trkpt>
      <trkpt lat="48.77785" lon="7.27861">
        <ele>271.9</ele>
        <time>2020-06-28T09:32:53Z</time>
      </trkpt>
      <trkpt lat="48.77781" lon="7.27858">
        <ele>272.1</ele>
        <time>2020-06-28T09:32:55Z</time>
      </trkpt>
      <trkpt lat="48.77776" lon="7.27854">
        <ele>272.1</ele>
        <time>2020-06-28T09:32:57Z</time>
      </trkpt>
      <trkpt lat="48.77771" lon="7.27851">
        <ele>272.4</ele>
        <time>2020-06-28T09:32:59Z</time>
      </trkpt>
      <trkpt lat="48.77766" lon="7.27848">
        <ele>272.5</ele>
        <time>2020-06-28T09:33:02Z</time>
      </trkpt>
      <trkpt lat="48.77761" lon="7.27847">
        <ele>272.9</ele>
        <time>2020-06-28T09:33:09Z</time>
      </trkpt>
      <trkpt lat="48.77758" lon="7.2784">
        <ele>273.8</ele>
        <time>2020-06-28T09:33:21Z</time>
      </trkpt>
      <trkpt lat="48.77756" lon="7.27834">
        <ele>274.2</ele>
        <time>2020-06-28T09:33:24Z</time>
      </trkpt>
      <trkpt lat="48.77753" lon="7.27826">
        <ele>275</ele>
        <time>2020-06-28T09:33:27Z</time>
      </trkpt>
      <trkpt lat="48.7775" lon="7.27818">
        <ele>276.6</ele>
        <time>2020-06-28T09:33:30Z</time>
      </trkpt>
      <trkpt lat="48.77745" lon="7.27812">
        <ele>277.6</ele>
        <time>2020-06-28T09:33:33Z</time>
      </trkpt>
      <trkpt lat="48.77739" lon="7.27807">
        <ele>278.7</ele>
        <time>2020-06-28T09:33:36Z</time>
      </trkpt>
      <trkpt lat="48.77734" lon="7.27804">
        <ele>278.5</ele>
        <time>2020-06-28T09:33:39Z</time>
      </trkpt>
      <trkpt lat="48.77727" lon="7.27801">
        <ele>278.2</ele>
        <time>2020-06-28T09:33:42Z</time>
      </trkpt>
      <trkpt lat="48.77722" lon="7.27797">
        <ele>279.3</ele>
        <time>2020-06-28T09:33:45Z</time>
      </trkpt>
      <trkpt lat="48.77716" lon="7.27796">
        <ele>279.5</ele>
        <time>2020-06-28T09:33:48Z</time>
      </trkpt>
      <trkpt lat="48.77711" lon="7.27793">
        <ele>279</ele>
        <time>2020-06-28T09:33:51Z</time>
      </trkpt>
      <trkpt lat="48.77706" lon="7.27791">
        <ele>278.4</ele>
        <time>2020-06-28T09:33:53Z</time>
      </trkpt>
      <trkpt lat="48.77702" lon="7.27787">
        <ele>278.1</ele>
        <time>2020-06-28T09:33:55Z</time>
      </trkpt>
      <trkpt lat="48.777" lon="7.27781">
        <ele>277.4</ele>
        <time>2020-06-28T09:33:57Z</time>
      </trkpt>
      <trkpt lat="48.77698" lon="7.27773">
        <ele>274.6</ele>
        <time>2020-06-28T09:33:59Z</time>
      </trkpt>
      <trkpt lat="48.77696" lon="7.27765">
        <ele>272.2</ele>
        <time>2020-06-28T09:34:02Z</time>
      </trkpt>
      <trkpt lat="48.77691" lon="7.27762">
        <ele>271.1</ele>
        <time>2020-06-28T09:34:05Z</time>
      </trkpt>
      <trkpt lat="48.77686" lon="7.27762">
        <ele>270.8</ele>
        <time>2020-06-28T09:34:07Z</time>
      </trkpt>
      <trkpt lat="48.77682" lon="7.27762">
        <ele>271.9</ele>
        <time>2020-06-28T09:34:09Z</time>
      </trkpt>
      <trkpt lat="48.77676" lon="7.27764">
        <ele>272.8</ele>
        <time>2020-06-28T09:34:11Z</time>
      </trkpt>
      <trkpt lat="48.77671" lon="7.27764">
        <ele>273.7</ele>
        <time>2020-06-28T09:34:13Z</time>
      </trkpt>
      <trkpt lat="48.77666" lon="7.27763">
        <ele>274.3</ele>
        <time>2020-06-28T09:34:15Z</time>
      </trkpt>
      <trkpt lat="48.7766" lon="7.27763">
        <ele>275.2</ele>
        <time>2020-06-28T09:34:17Z</time>
      </trkpt>
      <trkpt lat="48.77654" lon="7.27764">
        <ele>276</ele>
        <time>2020-06-28T09:34:19Z</time>
      </trkpt>
      <trkpt lat="48.77648" lon="7.27765">
        <ele>277.3</ele>
        <time>2020-06-28T09:34:22Z</time>
      </trkpt>
      <trkpt lat="48.77642" lon="7.27768">
        <ele>278.2</ele>
        <time>2020-06-28T09:34:25Z</time>
      </trkpt>
      <trkpt lat="48.77638" lon="7.2777">
        <ele>279.1</ele>
        <time>2020-06-28T09:34:27Z</time>
      </trkpt>
      <trkpt lat="48.77633" lon="7.27774">
        <ele>279.8</ele>
        <time>2020-06-28T09:34:29Z</time>
      </trkpt>
      <trkpt lat="48.77627" lon="7.27779">
        <ele>280.5</ele>
        <time>2020-06-28T09:34:31Z</time>
      </trkpt>
      <trkpt lat="48.77621" lon="7.27781">
        <ele>281.2</ele>
        <time>2020-06-28T09:34:34Z</time>
      </trkpt>
      <trkpt lat="48.77617" lon="7.27781">
        <ele>281.5</ele>
        <time>2020-06-28T09:34:36Z</time>
      </trkpt>
      <trkpt lat="48.77611" lon="7.27778">
        <ele>281.1</ele>
        <time>2020-06-28T09:34:39Z</time>
      </trkpt>
      <trkpt lat="48.77606" lon="7.27775">
        <ele>281</ele>
        <time>2020-06-28T09:34:42Z</time>
      </trkpt>
      <trkpt lat="48.77604" lon="7.27768">
        <ele>280.9</ele>
        <time>2020-06-28T09:34:45Z</time>
      </trkpt>
      <trkpt lat="48.77601" lon="7.27762">
        <ele>281.1</ele>
        <time>2020-06-28T09:34:47Z</time>
      </trkpt>
      <trkpt lat="48.77596" lon="7.27757">
        <ele>281.7</ele>
        <time>2020-06-28T09:34:50Z</time>
      </trkpt>
      <trkpt lat="48.7759" lon="7.27754">
        <ele>281</ele>
        <time>2020-06-28T09:34:53Z</time>
      </trkpt>
      <trkpt lat="48.77586" lon="7.27751">
        <ele>280.8</ele>
        <time>2020-06-28T09:34:55Z</time>
      </trkpt>
      <trkpt lat="48.77581" lon="7.27748">
        <ele>282.6</ele>
        <time>2020-06-28T09:34:57Z</time>
      </trkpt>
      <trkpt lat="48.77575" lon="7.27744">
        <ele>283.9</ele>
        <time>2020-06-28T09:35:00Z</time>
      </trkpt>
      <trkpt lat="48.77572" lon="7.27739">
        <ele>285</ele>
        <time>2020-06-28T09:35:03Z</time>
      </trkpt>
      <trkpt lat="48.77567" lon="7.27735">
        <ele>285.9</ele>
        <time>2020-06-28T09:35:06Z</time>
      </trkpt>
      <trkpt lat="48.77563" lon="7.27732">
        <ele>286.9</ele>
        <time>2020-06-28T09:35:09Z</time>
      </trkpt>
      <trkpt lat="48.77558" lon="7.2773">
        <ele>287.2</ele>
        <time>2020-06-28T09:35:15Z</time>
      </trkpt>
      <trkpt lat="48.77553" lon="7.27726">
        <ele>286.3</ele>
        <time>2020-06-28T09:35:20Z</time>
      </trkpt>
      <trkpt lat="48.77548" lon="7.27723">
        <ele>286.6</ele>
        <time>2020-06-28T09:35:24Z</time>
      </trkpt>
      <trkpt lat="48.77543" lon="7.27724">
        <ele>287.3</ele>
        <time>2020-06-28T09:35:28Z</time>
      </trkpt>
      <trkpt lat="48.7754" lon="7.2773">
        <ele>288.4</ele>
        <time>2020-06-28T09:35:34Z</time>
      </trkpt>
      <trkpt lat="48.77538" lon="7.27737">
        <ele>289.3</ele>
        <time>2020-06-28T09:35:40Z</time>
      </trkpt>
      <trkpt lat="48.77537" lon="7.27745">
        <ele>289.6</ele>
        <time>2020-06-28T09:35:45Z</time>
      </trkpt>
      <trkpt lat="48.77535" lon="7.27753">
        <ele>290.9</ele>
        <time>2020-06-28T09:36:08Z</time>
      </trkpt>
      <trkpt lat="48.77535" lon="7.27761">
        <ele>291.7</ele>
        <time>2020-06-28T09:36:12Z</time>
      </trkpt>
      <trkpt lat="48.77534" lon="7.2777">
        <ele>292.5</ele>
        <time>2020-06-28T09:36:15Z</time>
      </trkpt>
      <trkpt lat="48.77533" lon="7.27778">
        <ele>293.1</ele>
        <time>2020-06-28T09:36:18Z</time>
      </trkpt>
      <trkpt lat="48.77531" lon="7.27785">
        <ele>293.8</ele>
        <time>2020-06-28T09:36:21Z</time>
      </trkpt>
      <trkpt lat="48.77529" lon="7.27793">
        <ele>294.1</ele>
        <time>2020-06-28T09:36:24Z</time>
      </trkpt>
      <trkpt lat="48.77527" lon="7.27799">
        <ele>294.6</ele>
        <time>2020-06-28T09:36:27Z</time>
      </trkpt>
      <trkpt lat="48.77524" lon="7.27806">
        <ele>295.7</ele>
        <time>2020-06-28T09:36:30Z</time>
      </trkpt>
      <trkpt lat="48.77521" lon="7.27812">
        <ele>296.2</ele>
        <time>2020-06-28T09:36:33Z</time>
      </trkpt>
      <trkpt lat="48.77519" lon="7.2782">
        <ele>296.6</ele>
        <time>2020-06-28T09:36:36Z</time>
      </trkpt>
      <trkpt lat="48.77517" lon="7.27827">
        <ele>296.8</ele>
        <time>2020-06-28T09:36:39Z</time>
      </trkpt>
      <trkpt lat="48.77515" lon="7.27835">
        <ele>297.8</ele>
        <time>2020-06-28T09:36:42Z</time>
      </trkpt>
      <trkpt lat="48.77513" lon="7.27843">
        <ele>298.7</ele>
        <time>2020-06-28T09:36:45Z</time>
      </trkpt>
      <trkpt lat="48.77512" lon="7.27852">
        <ele>299.6</ele>
        <time>2020-06-28T09:36:48Z</time>
      </trkpt>
      <trkpt lat="48.77511" lon="7.2786">
        <ele>299.8</ele>
        <time>2020-06-28T09:36:51Z</time>
      </trkpt>
      <trkpt lat="48.7751" lon="7.27868">
        <ele>300.4</ele>
        <time>2020-06-28T09:36:54Z</time>
      </trkpt>
      <trkpt lat="48.77509" lon="7.27877">
        <ele>301</ele>
        <time>2020-06-28T09:36:57Z</time>
      </trkpt>
      <trkpt lat="48.77508" lon="7.27885">
        <ele>301.6</ele>
        <time>2020-06-28T09:37:00Z</time>
      </trkpt>
      <trkpt lat="48.77507" lon="7.27893">
        <ele>302.7</ele>
        <time>2020-06-28T09:37:03Z</time>
      </trkpt>
      <trkpt lat="48.77506" lon="7.27901">
        <ele>303.4</ele>
        <time>2020-06-28T09:37:06Z</time>
      </trkpt>
      <trkpt lat="48.77503" lon="7.27908">
        <ele>303.7</ele>
        <time>2020-06-28T09:37:09Z</time>
      </trkpt>
      <trkpt lat="48.77497" lon="7.27911">
        <ele>304</ele>
        <time>2020-06-28T09:37:12Z</time>
      </trkpt>
      <trkpt lat="48.77492" lon="7.2791">
        <ele>304</ele>
        <time>2020-06-28T09:37:14Z</time>
      </trkpt>
      <trkpt lat="48.77488" lon="7.27907">
        <ele>303.7</ele>
        <time>2020-06-28T09:37:16Z</time>
      </trkpt>
      <trkpt lat="48.77483" lon="7.27905">
        <ele>303.4</ele>
        <time>2020-06-28T09:37:18Z</time>
      </trkpt>
      <trkpt lat="48.77479" lon="7.27903">
        <ele>303</ele>
        <time>2020-06-28T09:37:20Z</time>
      </trkpt>
      <trkpt lat="48.77474" lon="7.27901">
        <ele>302.8</ele>
        <time>2020-06-28T09:37:22Z</time>
      </trkpt>
      <trkpt lat="48.77468" lon="7.27898">
        <ele>302.6</ele>
        <time>2020-06-28T09:37:25Z</time>
      </trkpt>
      <trkpt lat="48.77463" lon="7.27896">
        <ele>302.5</ele>
        <time>2020-06-28T09:37:27Z</time>
      </trkpt>
      <trkpt lat="48.77438" lon="7.27893">
        <ele>297.5</ele>
        <time>2020-06-28T09:37:36Z</time>
      </trkpt>
      <trkpt lat="48.77433" lon="7.27891">
        <ele>298.6</ele>
        <time>2020-06-28T09:37:38Z</time>
      </trkpt>
      <trkpt lat="48.77429" lon="7.27891">
        <ele>299.2</ele>
        <time>2020-06-28T09:37:40Z</time>
      </trkpt>
      <trkpt lat="48.77424" lon="7.2789">
        <ele>299.7</ele>
        <time>2020-06-28T09:37:42Z</time>
      </trkpt>
      <trkpt lat="48.77419" lon="7.27889">
        <ele>300</ele>
        <time>2020-06-28T09:37:44Z</time>
      </trkpt>
      <trkpt lat="48.77415" lon="7.27888">
        <ele>300.2</ele>
        <time>2020-06-28T09:37:46Z</time>
      </trkpt>
      <trkpt lat="48.7741" lon="7.27887">
        <ele>300.2</ele>
        <time>2020-06-28T09:37:48Z</time>
      </trkpt>
      <trkpt lat="48.77406" lon="7.27885">
        <ele>300.5</ele>
        <time>2020-06-28T09:37:50Z</time>
      </trkpt>
      <trkpt lat="48.77401" lon="7.27883">
        <ele>300.9</ele>
        <time>2020-06-28T09:37:52Z</time>
      </trkpt>
      <trkpt lat="48.77397" lon="7.27882">
        <ele>300.9</ele>
        <time>2020-06-28T09:37:54Z</time>
      </trkpt>
      <trkpt lat="48.77392" lon="7.2788">
        <ele>301.4</ele>
        <time>2020-06-28T09:37:56Z</time>
      </trkpt>
      <trkpt lat="48.77388" lon="7.27879">
        <ele>301.7</ele>
        <time>2020-06-28T09:37:58Z</time>
      </trkpt>
      <trkpt lat="48.77381" lon="7.27878">
        <ele>301.9</ele>
        <time>2020-06-28T09:38:01Z</time>
      </trkpt>
      <trkpt lat="48.77377" lon="7.27877">
        <ele>302.3</ele>
        <time>2020-06-28T09:38:03Z</time>
      </trkpt>
      <trkpt lat="48.77372" lon="7.27875">
        <ele>302.2</ele>
        <time>2020-06-28T09:38:05Z</time>
      </trkpt>
      <trkpt lat="48.77367" lon="7.27874">
        <ele>302.2</ele>
        <time>2020-06-28T09:38:07Z</time>
      </trkpt>
      <trkpt lat="48.77362" lon="7.27872">
        <ele>302</ele>
        <time>2020-06-28T09:38:09Z</time>
      </trkpt>
      <trkpt lat="48.77358" lon="7.2787">
        <ele>302.5</ele>
        <time>2020-06-28T09:38:11Z</time>
      </trkpt>
      <trkpt lat="48.77354" lon="7.27865">
        <ele>302.6</ele>
        <time>2020-06-28T09:38:13Z</time>
      </trkpt>
      <trkpt lat="48.77352" lon="7.27857">
        <ele>302.9</ele>
        <time>2020-06-28T09:38:15Z</time>
      </trkpt>
      <trkpt lat="48.77354" lon="7.27849">
        <ele>302.8</ele>
        <time>2020-06-28T09:38:17Z</time>
      </trkpt>
      <trkpt lat="48.77356" lon="7.2784">
        <ele>302.2</ele>
        <time>2020-06-28T09:38:19Z</time>
      </trkpt>
      <trkpt lat="48.77359" lon="7.27829">
        <ele>301.8</ele>
        <time>2020-06-28T09:38:21Z</time>
      </trkpt>
      <trkpt lat="48.77361" lon="7.2782">
        <ele>301.5</ele>
        <time>2020-06-28T09:38:23Z</time>
      </trkpt>
      <trkpt lat="48.77364" lon="7.27811">
        <ele>300.9</ele>
        <time>2020-06-28T09:38:25Z</time>
      </trkpt>
      <trkpt lat="48.77369" lon="7.27797">
        <ele>299.7</ele>
        <time>2020-06-28T09:38:28Z</time>
      </trkpt>
      <trkpt lat="48.77372" lon="7.27785">
        <ele>299.1</ele>
        <time>2020-06-28T09:38:30Z</time>
      </trkpt>
      <trkpt lat="48.77376" lon="7.27772">
        <ele>298.4</ele>
        <time>2020-06-28T09:38:32Z</time>
      </trkpt>
      <trkpt lat="48.77379" lon="7.27759">
        <ele>297.6</ele>
        <time>2020-06-28T09:38:34Z</time>
      </trkpt>
      <trkpt lat="48.77383" lon="7.27743">
        <ele>296.5</ele>
        <time>2020-06-28T09:38:36Z</time>
      </trkpt>
      <trkpt lat="48.77387" lon="7.27727">
        <ele>295.5</ele>
        <time>2020-06-28T09:38:38Z</time>
      </trkpt>
      <trkpt lat="48.77391" lon="7.27713">
        <ele>294.7</ele>
        <time>2020-06-28T09:38:40Z</time>
      </trkpt>
      <trkpt lat="48.77395" lon="7.27698">
        <ele>294.1</ele>
        <time>2020-06-28T09:38:42Z</time>
      </trkpt>
      <trkpt lat="48.774" lon="7.27684">
        <ele>293.5</ele>
        <time>2020-06-28T09:38:44Z</time>
      </trkpt>
      <trkpt lat="48.77405" lon="7.27671">
        <ele>293.2</ele>
        <time>2020-06-28T09:38:46Z</time>
      </trkpt>
      <trkpt lat="48.77409" lon="7.2766">
        <ele>292.9</ele>
        <time>2020-06-28T09:38:48Z</time>
      </trkpt>
      <trkpt lat="48.77412" lon="7.27652">
        <ele>292.7</ele>
        <time>2020-06-28T09:38:50Z</time>
      </trkpt>
      <trkpt lat="48.77415" lon="7.27642">
        <ele>292.7</ele>
        <time>2020-06-28T09:38:52Z</time>
      </trkpt>
      <trkpt lat="48.77416" lon="7.27635">
        <ele>292.6</ele>
        <time>2020-06-28T09:38:54Z</time>
      </trkpt>
      <trkpt lat="48.77417" lon="7.27626">
        <ele>292.7</ele>
        <time>2020-06-28T09:38:57Z</time>
      </trkpt>
      <trkpt lat="48.77417" lon="7.27619">
        <ele>293.7</ele>
        <time>2020-06-28T09:39:01Z</time>
      </trkpt>
      <trkpt lat="48.77418" lon="7.27612">
        <ele>294.8</ele>
        <time>2020-06-28T09:39:04Z</time>
      </trkpt>
      <trkpt lat="48.77418" lon="7.27605">
        <ele>296</ele>
        <time>2020-06-28T09:39:08Z</time>
      </trkpt>
      <trkpt lat="48.7742" lon="7.27597">
        <ele>296.6</ele>
        <time>2020-06-28T09:39:11Z</time>
      </trkpt>
      <trkpt lat="48.77421" lon="7.27588">
        <ele>296.4</ele>
        <time>2020-06-28T09:39:14Z</time>
      </trkpt>
      <trkpt lat="48.77421" lon="7.27578">
        <ele>296.8</ele>
        <time>2020-06-28T09:39:17Z</time>
      </trkpt>
      <trkpt lat="48.77421" lon="7.27571">
        <ele>296.7</ele>
        <time>2020-06-28T09:39:19Z</time>
      </trkpt>
      <trkpt lat="48.77421" lon="7.27564">
        <ele>297.1</ele>
        <time>2020-06-28T09:39:21Z</time>
      </trkpt>
      <trkpt lat="48.77422" lon="7.27557">
        <ele>297.3</ele>
        <time>2020-06-28T09:39:23Z</time>
      </trkpt>
      <trkpt lat="48.77422" lon="7.27547">
        <ele>297.4</ele>
        <time>2020-06-28T09:39:26Z</time>
      </trkpt>
      <trkpt lat="48.77422" lon="7.27538">
        <ele>298</ele>
        <time>2020-06-28T09:39:29Z</time>
      </trkpt>
      <trkpt lat="48.77423" lon="7.27528">
        <ele>298.6</ele>
        <time>2020-06-28T09:39:32Z</time>
      </trkpt>
      <trkpt lat="48.77424" lon="7.27519">
        <ele>299.4</ele>
        <time>2020-06-28T09:39:35Z</time>
      </trkpt>
      <trkpt lat="48.77425" lon="7.2751">
        <ele>299.9</ele>
        <time>2020-06-28T09:39:38Z</time>
      </trkpt>
      <trkpt lat="48.77425" lon="7.27502">
        <ele>300.3</ele>
        <time>2020-06-28T09:39:41Z</time>
      </trkpt>
      <trkpt lat="48.77426" lon="7.27494">
        <ele>300.3</ele>
        <time>2020-06-28T09:39:44Z</time>
      </trkpt>
      <trkpt lat="48.77427" lon="7.27487">
        <ele>300.9</ele>
        <time>2020-06-28T09:39:47Z</time>
      </trkpt>
      <trkpt lat="48.77428" lon="7.27479">
        <ele>302.3</ele>
        <time>2020-06-28T09:39:50Z</time>
      </trkpt>
      <trkpt lat="48.77429" lon="7.27471">
        <ele>303.2</ele>
        <time>2020-06-28T09:39:53Z</time>
      </trkpt>
      <trkpt lat="48.7743" lon="7.27463">
        <ele>304.7</ele>
        <time>2020-06-28T09:39:56Z</time>
      </trkpt>
      <trkpt lat="48.77431" lon="7.27455">
        <ele>306</ele>
        <time>2020-06-28T09:39:59Z</time>
      </trkpt>
      <trkpt lat="48.77432" lon="7.27447">
        <ele>306.9</ele>
        <time>2020-06-28T09:40:02Z</time>
      </trkpt>
      <trkpt lat="48.77433" lon="7.27438">
        <ele>308.1</ele>
        <time>2020-06-28T09:40:05Z</time>
      </trkpt>
      <trkpt lat="48.77434" lon="7.27429">
        <ele>308.2</ele>
        <time>2020-06-28T09:40:08Z</time>
      </trkpt>
      <trkpt lat="48.77435" lon="7.27421">
        <ele>308.4</ele>
        <time>2020-06-28T09:40:11Z</time>
      </trkpt>
      <trkpt lat="48.77437" lon="7.27414">
        <ele>308.5</ele>
        <time>2020-06-28T09:40:14Z</time>
      </trkpt>
      <trkpt lat="48.77439" lon="7.27406">
        <ele>309.3</ele>
        <time>2020-06-28T09:40:17Z</time>
      </trkpt>
      <trkpt lat="48.77441" lon="7.27399">
        <ele>309.6</ele>
        <time>2020-06-28T09:40:20Z</time>
      </trkpt>
      <trkpt lat="48.77443" lon="7.27392">
        <ele>309.4</ele>
        <time>2020-06-28T09:40:23Z</time>
      </trkpt>
      <trkpt lat="48.77446" lon="7.27384">
        <ele>309.7</ele>
        <time>2020-06-28T09:40:26Z</time>
      </trkpt>
      <trkpt lat="48.77448" lon="7.27377">
        <ele>309.8</ele>
        <time>2020-06-28T09:40:29Z</time>
      </trkpt>
      <trkpt lat="48.77451" lon="7.2737">
        <ele>309.7</ele>
        <time>2020-06-28T09:40:32Z</time>
      </trkpt>
      <trkpt lat="48.77454" lon="7.27363">
        <ele>310.2</ele>
        <time>2020-06-28T09:40:35Z</time>
      </trkpt>
      <trkpt lat="48.77456" lon="7.27357">
        <ele>310.8</ele>
        <time>2020-06-28T09:40:38Z</time>
      </trkpt>
      <trkpt lat="48.77459" lon="7.2735">
        <ele>311.7</ele>
        <time>2020-06-28T09:40:41Z</time>
      </trkpt>
      <trkpt lat="48.77463" lon="7.27342">
        <ele>312.1</ele>
        <time>2020-06-28T09:40:44Z</time>
      </trkpt>
      <trkpt lat="48.77467" lon="7.27334">
        <ele>312.8</ele>
        <time>2020-06-28T09:40:47Z</time>
      </trkpt>
      <trkpt lat="48.77472" lon="7.27328">
        <ele>313.1</ele>
        <time>2020-06-28T09:40:50Z</time>
      </trkpt>
      <trkpt lat="48.77476" lon="7.27325">
        <ele>313.3</ele>
        <time>2020-06-28T09:40:52Z</time>
      </trkpt>
      <trkpt lat="48.77482" lon="7.27323">
        <ele>313.4</ele>
        <time>2020-06-28T09:40:54Z</time>
      </trkpt>
      <trkpt lat="48.77488" lon="7.27322">
        <ele>313.2</ele>
        <time>2020-06-28T09:40:56Z</time>
      </trkpt>
      <trkpt lat="48.77494" lon="7.27317">
        <ele>313</ele>
        <time>2020-06-28T09:40:58Z</time>
      </trkpt>
      <trkpt lat="48.77497" lon="7.27307">
        <ele>312.6</ele>
        <time>2020-06-28T09:41:00Z</time>
      </trkpt>
      <trkpt lat="48.77495" lon="7.27298">
        <ele>312.5</ele>
        <time>2020-06-28T09:41:02Z</time>
      </trkpt>
      <trkpt lat="48.77489" lon="7.27292">
        <ele>312.3</ele>
        <time>2020-06-28T09:41:04Z</time>
      </trkpt>
      <trkpt lat="48.77482" lon="7.27288">
        <ele>312.1</ele>
        <time>2020-06-28T09:41:06Z</time>
      </trkpt>
      <trkpt lat="48.77475" lon="7.27285">
        <ele>311.9</ele>
        <time>2020-06-28T09:41:08Z</time>
      </trkpt>
      <trkpt lat="48.77468" lon="7.27282">
        <ele>311.9</ele>
        <time>2020-06-28T09:41:10Z</time>
      </trkpt>
      <trkpt lat="48.77461" lon="7.27279">
        <ele>312.5</ele>
        <time>2020-06-28T09:41:12Z</time>
      </trkpt>
      <trkpt lat="48.77454" lon="7.27276">
        <ele>312.8</ele>
        <time>2020-06-28T09:41:14Z</time>
      </trkpt>
      <trkpt lat="48.77447" lon="7.27273">
        <ele>313.2</ele>
        <time>2020-06-28T09:41:16Z</time>
      </trkpt>
      <trkpt lat="48.77441" lon="7.2727">
        <ele>313.4</ele>
        <time>2020-06-28T09:41:18Z</time>
      </trkpt>
      <trkpt lat="48.77434" lon="7.27267">
        <ele>313.7</ele>
        <time>2020-06-28T09:41:20Z</time>
      </trkpt>
      <trkpt lat="48.77428" lon="7.27264">
        <ele>314.1</ele>
        <time>2020-06-28T09:41:22Z</time>
      </trkpt>
      <trkpt lat="48.77422" lon="7.27261">
        <ele>313.8</ele>
        <time>2020-06-28T09:41:24Z</time>
      </trkpt>
      <trkpt lat="48.77416" lon="7.27259">
        <ele>313.7</ele>
        <time>2020-06-28T09:41:26Z</time>
      </trkpt>
      <trkpt lat="48.7741" lon="7.27257">
        <ele>313.6</ele>
        <time>2020-06-28T09:41:28Z</time>
      </trkpt>
      <trkpt lat="48.77404" lon="7.27256">
        <ele>313.5</ele>
        <time>2020-06-28T09:41:30Z</time>
      </trkpt>
      <trkpt lat="48.77399" lon="7.27255">
        <ele>312.6</ele>
        <time>2020-06-28T09:41:32Z</time>
      </trkpt>
      <trkpt lat="48.77395" lon="7.27256">
        <ele>311.8</ele>
        <time>2020-06-28T09:41:34Z</time>
      </trkpt>
      <trkpt lat="48.7739" lon="7.27257">
        <ele>311</ele>
        <time>2020-06-28T09:41:36Z</time>
      </trkpt>
      <trkpt lat="48.77384" lon="7.27259">
        <ele>310.7</ele>
        <time>2020-06-28T09:41:38Z</time>
      </trkpt>
      <trkpt lat="48.77379" lon="7.27261">
        <ele>310.2</ele>
        <time>2020-06-28T09:41:40Z</time>
      </trkpt>
      <trkpt lat="48.77374" lon="7.27263">
        <ele>310.2</ele>
        <time>2020-06-28T09:41:42Z</time>
      </trkpt>
      <trkpt lat="48.77369" lon="7.27266">
        <ele>310.2</ele>
        <time>2020-06-28T09:41:44Z</time>
      </trkpt>
      <trkpt lat="48.77365" lon="7.27268">
        <ele>309.6</ele>
        <time>2020-06-28T09:41:46Z</time>
      </trkpt>
      <trkpt lat="48.7736" lon="7.27273">
        <ele>309.5</ele>
        <time>2020-06-28T09:41:49Z</time>
      </trkpt>
      <trkpt lat="48.77355" lon="7.27277">
        <ele>310.2</ele>
        <time>2020-06-28T09:41:51Z</time>
      </trkpt>
      <trkpt lat="48.77351" lon="7.27282">
        <ele>310.9</ele>
        <time>2020-06-28T09:41:53Z</time>
      </trkpt>
      <trkpt lat="48.77346" lon="7.27285">
        <ele>312.1</ele>
        <time>2020-06-28T09:41:55Z</time>
      </trkpt>
      <trkpt lat="48.77342" lon="7.27288">
        <ele>313.4</ele>
        <time>2020-06-28T09:41:57Z</time>
      </trkpt>
      <trkpt lat="48.77336" lon="7.27292">
        <ele>315</ele>
        <time>2020-06-28T09:42:00Z</time>
      </trkpt>
      <trkpt lat="48.7733" lon="7.27296">
        <ele>315.8</ele>
        <time>2020-06-28T09:42:03Z</time>
      </trkpt>
      <trkpt lat="48.77326" lon="7.27299">
        <ele>316.3</ele>
        <time>2020-06-28T09:42:05Z</time>
      </trkpt>
      <trkpt lat="48.77321" lon="7.27301">
        <ele>316.7</ele>
        <time>2020-06-28T09:42:07Z</time>
      </trkpt>
      <trkpt lat="48.77316" lon="7.27304">
        <ele>317.5</ele>
        <time>2020-06-28T09:42:09Z</time>
      </trkpt>
      <trkpt lat="48.77311" lon="7.27306">
        <ele>318</ele>
        <time>2020-06-28T09:42:11Z</time>
      </trkpt>
      <trkpt lat="48.77305" lon="7.27307">
        <ele>318.7</ele>
        <time>2020-06-28T09:42:13Z</time>
      </trkpt>
      <trkpt lat="48.773" lon="7.27308">
        <ele>318.7</ele>
        <time>2020-06-28T09:42:15Z</time>
      </trkpt>
      <trkpt lat="48.77294" lon="7.27308">
        <ele>318.8</ele>
        <time>2020-06-28T09:42:17Z</time>
      </trkpt>
      <trkpt lat="48.77288" lon="7.27307">
        <ele>318.5</ele>
        <time>2020-06-28T09:42:19Z</time>
      </trkpt>
      <trkpt lat="48.77282" lon="7.27306">
        <ele>318.2</ele>
        <time>2020-06-28T09:42:21Z</time>
      </trkpt>
      <trkpt lat="48.77276" lon="7.27305">
        <ele>317.9</ele>
        <time>2020-06-28T09:42:23Z</time>
      </trkpt>
      <trkpt lat="48.7727" lon="7.27303">
        <ele>317.9</ele>
        <time>2020-06-28T09:42:25Z</time>
      </trkpt>
      <trkpt lat="48.77264" lon="7.27302">
        <ele>317.9</ele>
        <time>2020-06-28T09:42:27Z</time>
      </trkpt>
      <trkpt lat="48.77258" lon="7.273">
        <ele>318.1</ele>
        <time>2020-06-28T09:42:29Z</time>
      </trkpt>
      <trkpt lat="48.77253" lon="7.27299">
        <ele>318.2</ele>
        <time>2020-06-28T09:42:31Z</time>
      </trkpt>
      <trkpt lat="48.77247" lon="7.27298">
        <ele>318.3</ele>
        <time>2020-06-28T09:42:33Z</time>
      </trkpt>
      <trkpt lat="48.77241" lon="7.27297">
        <ele>317.8</ele>
        <time>2020-06-28T09:42:35Z</time>
      </trkpt>
      <trkpt lat="48.77235" lon="7.27296">
        <ele>317.6</ele>
        <time>2020-06-28T09:42:37Z</time>
      </trkpt>
      <trkpt lat="48.77231" lon="7.27294">
        <ele>317.6</ele>
        <time>2020-06-28T09:42:39Z</time>
      </trkpt>
      <trkpt lat="48.77225" lon="7.27292">
        <ele>317.7</ele>
        <time>2020-06-28T09:42:41Z</time>
      </trkpt>
      <trkpt lat="48.77219" lon="7.27291">
        <ele>318.3</ele>
        <time>2020-06-28T09:42:43Z</time>
      </trkpt>
      <trkpt lat="48.77213" lon="7.2729">
        <ele>318.9</ele>
        <time>2020-06-28T09:42:45Z</time>
      </trkpt>
      <trkpt lat="48.77207" lon="7.27289">
        <ele>319.2</ele>
        <time>2020-06-28T09:42:47Z</time>
      </trkpt>
      <trkpt lat="48.77201" lon="7.27289">
        <ele>319.4</ele>
        <time>2020-06-28T09:42:49Z</time>
      </trkpt>
      <trkpt lat="48.77194" lon="7.27288">
        <ele>319.6</ele>
        <time>2020-06-28T09:42:51Z</time>
      </trkpt>
      <trkpt lat="48.77187" lon="7.27287">
        <ele>319.6</ele>
        <time>2020-06-28T09:42:53Z</time>
      </trkpt>
      <trkpt lat="48.77181" lon="7.27287">
        <ele>320</ele>
        <time>2020-06-28T09:42:55Z</time>
      </trkpt>
      <trkpt lat="48.77174" lon="7.27287">
        <ele>319.8</ele>
        <time>2020-06-28T09:42:57Z</time>
      </trkpt>
      <trkpt lat="48.77167" lon="7.27287">
        <ele>319.3</ele>
        <time>2020-06-28T09:42:59Z</time>
      </trkpt>
      <trkpt lat="48.7716" lon="7.27285">
        <ele>319.3</ele>
        <time>2020-06-28T09:43:01Z</time>
      </trkpt>
      <trkpt lat="48.77153" lon="7.27283">
        <ele>319.3</ele>
        <time>2020-06-28T09:43:03Z</time>
      </trkpt>
      <trkpt lat="48.77146" lon="7.27281">
        <ele>318.7</ele>
        <time>2020-06-28T09:43:05Z</time>
      </trkpt>
      <trkpt lat="48.77138" lon="7.27279">
        <ele>318.5</ele>
        <time>2020-06-28T09:43:07Z</time>
      </trkpt>
      <trkpt lat="48.77131" lon="7.27277">
        <ele>318</ele>
        <time>2020-06-28T09:43:09Z</time>
      </trkpt>
      <trkpt lat="48.77124" lon="7.27273">
        <ele>318</ele>
        <time>2020-06-28T09:43:11Z</time>
      </trkpt>
      <trkpt lat="48.77118" lon="7.2727">
        <ele>318.3</ele>
        <time>2020-06-28T09:43:13Z</time>
      </trkpt>
      <trkpt lat="48.77111" lon="7.27269">
        <ele>319.1</ele>
        <time>2020-06-28T09:43:15Z</time>
      </trkpt>
      <trkpt lat="48.77104" lon="7.27268">
        <ele>319.7</ele>
        <time>2020-06-28T09:43:17Z</time>
      </trkpt>
      <trkpt lat="48.77097" lon="7.27267">
        <ele>320.2</ele>
        <time>2020-06-28T09:43:19Z</time>
      </trkpt>
      <trkpt lat="48.7709" lon="7.27266">
        <ele>320.8</ele>
        <time>2020-06-28T09:43:21Z</time>
      </trkpt>
      <trkpt lat="48.77083" lon="7.27265">
        <ele>321.1</ele>
        <time>2020-06-28T09:43:23Z</time>
      </trkpt>
      <trkpt lat="48.77077" lon="7.27265">
        <ele>321</ele>
        <time>2020-06-28T09:43:25Z</time>
      </trkpt>
      <trkpt lat="48.7707" lon="7.27265">
        <ele>321.1</ele>
        <time>2020-06-28T09:43:27Z</time>
      </trkpt>
      <trkpt lat="48.77063" lon="7.27265">
        <ele>321.2</ele>
        <time>2020-06-28T09:43:29Z</time>
      </trkpt>
      <trkpt lat="48.77056" lon="7.27263">
        <ele>320.7</ele>
        <time>2020-06-28T09:43:31Z</time>
      </trkpt>
      <trkpt lat="48.77049" lon="7.27259">
        <ele>320.6</ele>
        <time>2020-06-28T09:43:33Z</time>
      </trkpt>
      <trkpt lat="48.77043" lon="7.27253">
        <ele>319.9</ele>
        <time>2020-06-28T09:43:35Z</time>
      </trkpt>
      <trkpt lat="48.77037" lon="7.27245">
        <ele>319.3</ele>
        <time>2020-06-28T09:43:37Z</time>
      </trkpt>
      <trkpt lat="48.77032" lon="7.27237">
        <ele>318.8</ele>
        <time>2020-06-28T09:43:39Z</time>
      </trkpt>
      <trkpt lat="48.77028" lon="7.27228">
        <ele>318.3</ele>
        <time>2020-06-28T09:43:41Z</time>
      </trkpt>
      <trkpt lat="48.77025" lon="7.27218">
        <ele>318.2</ele>
        <time>2020-06-28T09:43:43Z</time>
      </trkpt>
      <trkpt lat="48.77024" lon="7.27208">
        <ele>318.5</ele>
        <time>2020-06-28T09:43:45Z</time>
      </trkpt>
      <trkpt lat="48.77023" lon="7.27198">
        <ele>318.4</ele>
        <time>2020-06-28T09:43:47Z</time>
      </trkpt>
      <trkpt lat="48.77024" lon="7.27187">
        <ele>318.2</ele>
        <time>2020-06-28T09:43:49Z</time>
      </trkpt>
      <trkpt lat="48.77024" lon="7.27176">
        <ele>318.1</ele>
        <time>2020-06-28T09:43:51Z</time>
      </trkpt>
      <trkpt lat="48.77026" lon="7.27166">
        <ele>317.9</ele>
        <time>2020-06-28T09:43:53Z</time>
      </trkpt>
      <trkpt lat="48.77027" lon="7.27156">
        <ele>317.7</ele>
        <time>2020-06-28T09:43:55Z</time>
      </trkpt>
      <trkpt lat="48.77029" lon="7.27147">
        <ele>317.3</ele>
        <time>2020-06-28T09:43:57Z</time>
      </trkpt>
      <trkpt lat="48.77031" lon="7.27138">
        <ele>317.3</ele>
        <time>2020-06-28T09:43:59Z</time>
      </trkpt>
      <trkpt lat="48.77032" lon="7.27129">
        <ele>317.6</ele>
        <time>2020-06-28T09:44:01Z</time>
      </trkpt>
      <trkpt lat="48.77033" lon="7.2712">
        <ele>317.9</ele>
        <time>2020-06-28T09:44:03Z</time>
      </trkpt>
      <trkpt lat="48.77034" lon="7.2711">
        <ele>318.1</ele>
        <time>2020-06-28T09:44:05Z</time>
      </trkpt>
      <trkpt lat="48.77035" lon="7.27101">
        <ele>318.6</ele>
        <time>2020-06-28T09:44:07Z</time>
      </trkpt>
      <trkpt lat="48.77035" lon="7.2709">
        <ele>318.6</ele>
        <time>2020-06-28T09:44:09Z</time>
      </trkpt>
      <trkpt lat="48.77036" lon="7.27079">
        <ele>319.1</ele>
        <time>2020-06-28T09:44:11Z</time>
      </trkpt>
      <trkpt lat="48.77036" lon="7.27068">
        <ele>319.3</ele>
        <time>2020-06-28T09:44:13Z</time>
      </trkpt>
      <trkpt lat="48.77036" lon="7.27057">
        <ele>319.7</ele>
        <time>2020-06-28T09:44:15Z</time>
      </trkpt>
      <trkpt lat="48.77037" lon="7.27047">
        <ele>319.2</ele>
        <time>2020-06-28T09:44:17Z</time>
      </trkpt>
      <trkpt lat="48.77037" lon="7.27038">
        <ele>319.1</ele>
        <time>2020-06-28T09:44:19Z</time>
      </trkpt>
      <trkpt lat="48.77035" lon="7.27029">
        <ele>319.3</ele>
        <time>2020-06-28T09:44:21Z</time>
      </trkpt>
      <trkpt lat="48.77031" lon="7.27023">
        <ele>319</ele>
        <time>2020-06-28T09:44:23Z</time>
      </trkpt>
      <trkpt lat="48.77026" lon="7.27019">
        <ele>319.1</ele>
        <time>2020-06-28T09:44:25Z</time>
      </trkpt>
      <trkpt lat="48.7702" lon="7.27015">
        <ele>319.1</ele>
        <time>2020-06-28T09:44:27Z</time>
      </trkpt>
      <trkpt lat="48.77014" lon="7.2701">
        <ele>319.4</ele>
        <time>2020-06-28T09:44:29Z</time>
      </trkpt>
      <trkpt lat="48.77009" lon="7.27005">
        <ele>319.9</ele>
        <time>2020-06-28T09:44:31Z</time>
      </trkpt>
      <trkpt lat="48.77005" lon="7.26998">
        <ele>320.7</ele>
        <time>2020-06-28T09:44:33Z</time>
      </trkpt>
      <trkpt lat="48.77002" lon="7.26992">
        <ele>321.2</ele>
        <time>2020-06-28T09:44:35Z</time>
      </trkpt>
      <trkpt lat="48.76997" lon="7.26986">
        <ele>321.7</ele>
        <time>2020-06-28T09:44:37Z</time>
      </trkpt>
      <trkpt lat="48.76992" lon="7.26982">
        <ele>322.1</ele>
        <time>2020-06-28T09:44:39Z</time>
      </trkpt>
      <trkpt lat="48.76987" lon="7.26978">
        <ele>322.5</ele>
        <time>2020-06-28T09:44:41Z</time>
      </trkpt>
      <trkpt lat="48.76981" lon="7.26976">
        <ele>323</ele>
        <time>2020-06-28T09:44:43Z</time>
      </trkpt>
      <trkpt lat="48.76975" lon="7.26974">
        <ele>323.4</ele>
        <time>2020-06-28T09:44:45Z</time>
      </trkpt>
      <trkpt lat="48.7697" lon="7.26972">
        <ele>324.2</ele>
        <time>2020-06-28T09:44:47Z</time>
      </trkpt>
      <trkpt lat="48.76965" lon="7.26971">
        <ele>325.1</ele>
        <time>2020-06-28T09:44:49Z</time>
      </trkpt>
      <trkpt lat="48.76959" lon="7.26971">
        <ele>325.8</ele>
        <time>2020-06-28T09:44:51Z</time>
      </trkpt>
      <trkpt lat="48.76954" lon="7.2697">
        <ele>326.5</ele>
        <time>2020-06-28T09:44:53Z</time>
      </trkpt>
      <trkpt lat="48.76949" lon="7.26969">
        <ele>327.3</ele>
        <time>2020-06-28T09:44:55Z</time>
      </trkpt>
      <trkpt lat="48.76943" lon="7.26968">
        <ele>327.5</ele>
        <time>2020-06-28T09:44:57Z</time>
      </trkpt>
      <trkpt lat="48.76937" lon="7.26967">
        <ele>327.8</ele>
        <time>2020-06-28T09:44:59Z</time>
      </trkpt>
      <trkpt lat="48.76931" lon="7.26966">
        <ele>327.8</ele>
        <time>2020-06-28T09:45:01Z</time>
      </trkpt>
      <trkpt lat="48.76926" lon="7.26965">
        <ele>327.4</ele>
        <time>2020-06-28T09:45:03Z</time>
      </trkpt>
      <trkpt lat="48.7692" lon="7.26963">
        <ele>327.2</ele>
        <time>2020-06-28T09:45:05Z</time>
      </trkpt>
      <trkpt lat="48.76915" lon="7.26962">
        <ele>326.9</ele>
        <time>2020-06-28T09:45:07Z</time>
      </trkpt>
      <trkpt lat="48.7691" lon="7.2696">
        <ele>326.7</ele>
        <time>2020-06-28T09:45:09Z</time>
      </trkpt>
      <trkpt lat="48.76905" lon="7.26956">
        <ele>326.3</ele>
        <time>2020-06-28T09:45:11Z</time>
      </trkpt>
      <trkpt lat="48.76903" lon="7.2695">
        <ele>326.3</ele>
        <time>2020-06-28T09:45:13Z</time>
      </trkpt>
      <trkpt lat="48.76902" lon="7.26942">
        <ele>325.8</ele>
        <time>2020-06-28T09:45:15Z</time>
      </trkpt>
      <trkpt lat="48.76902" lon="7.26931">
        <ele>325.1</ele>
        <time>2020-06-28T09:45:17Z</time>
      </trkpt>
      <trkpt lat="48.76903" lon="7.26921">
        <ele>324.5</ele>
        <time>2020-06-28T09:45:19Z</time>
      </trkpt>
      <trkpt lat="48.76904" lon="7.26909">
        <ele>323.5</ele>
        <time>2020-06-28T09:45:21Z</time>
      </trkpt>
      <trkpt lat="48.76906" lon="7.26898">
        <ele>323.3</ele>
        <time>2020-06-28T09:45:23Z</time>
      </trkpt>
      <trkpt lat="48.76907" lon="7.26886">
        <ele>322.9</ele>
        <time>2020-06-28T09:45:25Z</time>
      </trkpt>
      <trkpt lat="48.76908" lon="7.26874">
        <ele>322.9</ele>
        <time>2020-06-28T09:45:27Z</time>
      </trkpt>
      <trkpt lat="48.76909" lon="7.26862">
        <ele>322.9</ele>
        <time>2020-06-28T09:45:29Z</time>
      </trkpt>
      <trkpt lat="48.7691" lon="7.26849">
        <ele>323</ele>
        <time>2020-06-28T09:45:31Z</time>
      </trkpt>
      <trkpt lat="48.76909" lon="7.26836">
        <ele>323.2</ele>
        <time>2020-06-28T09:45:33Z</time>
      </trkpt>
      <trkpt lat="48.76908" lon="7.26823">
        <ele>323.4</ele>
        <time>2020-06-28T09:45:35Z</time>
      </trkpt>
      <trkpt lat="48.76907" lon="7.2681">
        <ele>323.3</ele>
        <time>2020-06-28T09:45:37Z</time>
      </trkpt>
      <trkpt lat="48.76906" lon="7.26796">
        <ele>323.2</ele>
        <time>2020-06-28T09:45:39Z</time>
      </trkpt>
      <trkpt lat="48.76905" lon="7.26782">
        <ele>323.2</ele>
        <time>2020-06-28T09:45:41Z</time>
      </trkpt>
      <trkpt lat="48.76904" lon="7.26768">
        <ele>322.9</ele>
        <time>2020-06-28T09:45:43Z</time>
      </trkpt>
      <trkpt lat="48.76903" lon="7.26754">
        <ele>322.8</ele>
        <time>2020-06-28T09:45:45Z</time>
      </trkpt>
      <trkpt lat="48.76903" lon="7.26741">
        <ele>322.5</ele>
        <time>2020-06-28T09:45:47Z</time>
      </trkpt>
      <trkpt lat="48.76901" lon="7.26729">
        <ele>322.3</ele>
        <time>2020-06-28T09:45:49Z</time>
      </trkpt>
      <trkpt lat="48.76898" lon="7.26715">
        <ele>322.8</ele>
        <time>2020-06-28T09:45:51Z</time>
      </trkpt>
      <trkpt lat="48.76896" lon="7.26702">
        <ele>322.7</ele>
        <time>2020-06-28T09:45:53Z</time>
      </trkpt>
      <trkpt lat="48.76893" lon="7.26688">
        <ele>322.8</ele>
        <time>2020-06-28T09:45:55Z</time>
      </trkpt>
      <trkpt lat="48.7689" lon="7.26674">
        <ele>323</ele>
        <time>2020-06-28T09:45:57Z</time>
      </trkpt>
      <trkpt lat="48.76885" lon="7.26661">
        <ele>323.6</ele>
        <time>2020-06-28T09:45:59Z</time>
      </trkpt>
      <trkpt lat="48.76882" lon="7.26649">
        <ele>323.3</ele>
        <time>2020-06-28T09:46:01Z</time>
      </trkpt>
      <trkpt lat="48.76882" lon="7.26636">
        <ele>323.2</ele>
        <time>2020-06-28T09:46:03Z</time>
      </trkpt>
      <trkpt lat="48.76882" lon="7.26623">
        <ele>322.5</ele>
        <time>2020-06-28T09:46:05Z</time>
      </trkpt>
      <trkpt lat="48.76883" lon="7.2661">
        <ele>322.3</ele>
        <time>2020-06-28T09:46:07Z</time>
      </trkpt>
      <trkpt lat="48.76883" lon="7.26598">
        <ele>322.3</ele>
        <time>2020-06-28T09:46:09Z</time>
      </trkpt>
      <trkpt lat="48.76884" lon="7.26588">
        <ele>322.4</ele>
        <time>2020-06-28T09:46:11Z</time>
      </trkpt>
      <trkpt lat="48.76885" lon="7.26578">
        <ele>322.6</ele>
        <time>2020-06-28T09:46:13Z</time>
      </trkpt>
      <trkpt lat="48.76885" lon="7.26568">
        <ele>322.8</ele>
        <time>2020-06-28T09:46:15Z</time>
      </trkpt>
      <trkpt lat="48.76882" lon="7.26561">
        <ele>322.6</ele>
        <time>2020-06-28T09:46:17Z</time>
      </trkpt>
      <trkpt lat="48.76877" lon="7.26557">
        <ele>322.6</ele>
        <time>2020-06-28T09:46:19Z</time>
      </trkpt>
      <trkpt lat="48.76871" lon="7.26556">
        <ele>322.4</ele>
        <time>2020-06-28T09:46:21Z</time>
      </trkpt>
      <trkpt lat="48.76865" lon="7.26556">
        <ele>322.7</ele>
        <time>2020-06-28T09:46:23Z</time>
      </trkpt>
      <trkpt lat="48.76858" lon="7.26554">
        <ele>323.3</ele>
        <time>2020-06-28T09:46:25Z</time>
      </trkpt>
      <trkpt lat="48.76853" lon="7.2655">
        <ele>323.5</ele>
        <time>2020-06-28T09:46:27Z</time>
      </trkpt>
      <trkpt lat="48.7685" lon="7.26542">
        <ele>323.6</ele>
        <time>2020-06-28T09:46:29Z</time>
      </trkpt>
      <trkpt lat="48.7685" lon="7.26533">
        <ele>323</ele>
        <time>2020-06-28T09:46:31Z</time>
      </trkpt>
      <trkpt lat="48.76851" lon="7.26523">
        <ele>323</ele>
        <time>2020-06-28T09:46:33Z</time>
      </trkpt>
      <trkpt lat="48.76852" lon="7.26513">
        <ele>323.1</ele>
        <time>2020-06-28T09:46:35Z</time>
      </trkpt>
      <trkpt lat="48.76854" lon="7.26502">
        <ele>323.5</ele>
        <time>2020-06-28T09:46:37Z</time>
      </trkpt>
      <trkpt lat="48.76855" lon="7.2649">
        <ele>323.9</ele>
        <time>2020-06-28T09:46:39Z</time>
      </trkpt>
      <trkpt lat="48.76857" lon="7.2648">
        <ele>324.6</ele>
        <time>2020-06-28T09:46:41Z</time>
      </trkpt>
      <trkpt lat="48.76859" lon="7.2647">
        <ele>325.2</ele>
        <time>2020-06-28T09:46:43Z</time>
      </trkpt>
      <trkpt lat="48.7686" lon="7.26458">
        <ele>325.5</ele>
        <time>2020-06-28T09:46:45Z</time>
      </trkpt>
      <trkpt lat="48.76862" lon="7.26446">
        <ele>325.8</ele>
        <time>2020-06-28T09:46:47Z</time>
      </trkpt>
      <trkpt lat="48.76863" lon="7.26434">
        <ele>325.6</ele>
        <time>2020-06-28T09:46:49Z</time>
      </trkpt>
      <trkpt lat="48.76865" lon="7.26423">
        <ele>325.9</ele>
        <time>2020-06-28T09:46:51Z</time>
      </trkpt>
      <trkpt lat="48.76866" lon="7.26411">
        <ele>326.4</ele>
        <time>2020-06-28T09:46:53Z</time>
      </trkpt>
      <trkpt lat="48.76867" lon="7.26401">
        <ele>327.2</ele>
        <time>2020-06-28T09:46:55Z</time>
      </trkpt>
      <trkpt lat="48.76868" lon="7.2639">
        <ele>327.8</ele>
        <time>2020-06-28T09:46:57Z</time>
      </trkpt>
      <trkpt lat="48.76868" lon="7.26379">
        <ele>328.7</ele>
        <time>2020-06-28T09:46:59Z</time>
      </trkpt>
      <trkpt lat="48.76868" lon="7.26369">
        <ele>329.3</ele>
        <time>2020-06-28T09:47:01Z</time>
      </trkpt>
      <trkpt lat="48.76868" lon="7.2636">
        <ele>330.2</ele>
        <time>2020-06-28T09:47:03Z</time>
      </trkpt>
      <trkpt lat="48.76868" lon="7.26352">
        <ele>330.4</ele>
        <time>2020-06-28T09:47:05Z</time>
      </trkpt>
      <trkpt lat="48.76869" lon="7.26343">
        <ele>331.5</ele>
        <time>2020-06-28T09:47:08Z</time>
      </trkpt>
      <trkpt lat="48.7687" lon="7.26336">
        <ele>331.5</ele>
        <time>2020-06-28T09:48:34Z</time>
      </trkpt>
    </trkseg>
  </trk>
  <trk>
    <name><![CDATA[secteur Saverne - Dabo - Petite Pierre_18]]></name>
    <trkseg>
      <trkpt lat="48.70876" lon="7.21898">
        <ele>312.7</ele>
        <time>2020-05-22T13:50:21Z</time>
      </trkpt>
      <trkpt lat="48.70876" lon="7.21898">
        <ele>312.7</ele>
        <time>2020-05-22T13:50:21Z</time>
      </trkpt>
      <trkpt lat="48.70876" lon="7.21898">
        <ele>312.7</ele>
        <time>2020-05-22T13:50:21Z</time>
      </trkpt>
      <trkpt lat="48.70876" lon="7.21898">
        <ele>312.7</ele>
        <time>2020-05-22T13:50:21Z</time>
      </trkpt>
      <trkpt lat="48.70876" lon="7.21898">
        <ele>312.7</ele>
        <time>2020-05-22T13:50:21Z</time>
      </trkpt>
      <trkpt lat="48.70876" lon="7.21898">
        <ele>312.7</ele>
        <time>2020-05-22T13:50:21Z</time>
      </trkpt>
      <trkpt lat="48.70876" lon="7.21898">
        <ele>312.7</ele>
        <time>2020-05-22T13:50:21Z</time>
      </trkpt>
      <trkpt lat="48.70876" lon="7.21898">
        <ele>312.7</ele>
        <time>2020-05-22T13:50:21Z</time>
      </trkpt>
      <trkpt lat="48.70873" lon="7.21896">
        <ele>312.1</ele>
        <time>2020-05-22T13:50:23Z</time>
      </trkpt>
      <trkpt lat="48.70873" lon="7.21896">
        <ele>312</ele>
        <time>2020-05-22T13:50:24Z</time>
      </trkpt>
      <trkpt lat="48.70872" lon="7.21895">
        <ele>311.8</ele>
        <time>2020-05-22T13:50:25Z</time>
      </trkpt>
      <trkpt lat="48.70872" lon="7.21895">
        <ele>311.7</ele>
        <time>2020-05-22T13:50:27Z</time>
      </trkpt>
      <trkpt lat="48.70871" lon="7.21895">
        <ele>311.6</ele>
        <time>2020-05-22T13:50:29Z</time>
      </trkpt>
      <trkpt lat="48.70871" lon="7.21894">
        <ele>311.5</ele>
        <time>2020-05-22T13:50:30Z</time>
      </trkpt>
      <trkpt lat="48.7087" lon="7.21894">
        <ele>311.3</ele>
        <time>2020-05-22T13:50:31Z</time>
      </trkpt>
      <trkpt lat="48.7087" lon="7.21893">
        <ele>311.2</ele>
        <time>2020-05-22T13:50:32Z</time>
      </trkpt>
      <trkpt lat="48.70869" lon="7.21892">
        <ele>311.1</ele>
        <time>2020-05-22T13:50:34Z</time>
      </trkpt>
      <trkpt lat="48.70869" lon="7.21892">
        <ele>311</ele>
        <time>2020-05-22T13:50:36Z</time>
      </trkpt>
      <trkpt lat="48.70869" lon="7.21891">
        <ele>310.9</ele>
        <time>2020-05-22T13:50:38Z</time>
      </trkpt>
      <trkpt lat="48.70868" lon="7.21891">
        <ele>310.8</ele>
        <time>2020-05-22T13:50:40Z</time>
      </trkpt>
      <trkpt lat="48.70868" lon="7.2189">
        <ele>310.7</ele>
        <time>2020-05-22T13:50:41Z</time>
      </trkpt>
      <trkpt lat="48.70865" lon="7.21884">
        <ele>309.7</ele>
        <time>2020-05-22T13:50:43Z</time>
      </trkpt>
      <trkpt lat="48.70864" lon="7.21879">
        <ele>309.1</ele>
        <time>2020-05-22T13:50:44Z</time>
      </trkpt>
      <trkpt lat="48.70862" lon="7.21874">
        <ele>308.5</ele>
        <time>2020-05-22T13:50:45Z</time>
      </trkpt>
      <trkpt lat="48.70859" lon="7.21863">
        <ele>307</ele>
        <time>2020-05-22T13:50:47Z</time>
      </trkpt>
      <trkpt lat="48.70853" lon="7.21848">
        <ele>304.9</ele>
        <time>2020-05-22T13:50:49Z</time>
      </trkpt>
      <trkpt lat="48.70851" lon="7.21841">
        <ele>303.8</ele>
        <time>2020-05-22T13:50:50Z</time>
      </trkpt>
      <trkpt lat="48.70844" lon="7.21832">
        <ele>302.2</ele>
        <time>2020-05-22T13:50:52Z</time>
      </trkpt>
      <trkpt lat="48.70843" lon="7.2183">
        <ele>301.8</ele>
        <time>2020-05-22T13:50:54Z</time>
      </trkpt>
      <trkpt lat="48.70844" lon="7.21831">
        <ele>301.7</ele>
        <time>2020-05-22T13:50:55Z</time>
      </trkpt>
      <trkpt lat="48.70844" lon="7.21832">
        <ele>301.5</ele>
        <time>2020-05-22T13:50:56Z</time>
      </trkpt>
      <trkpt lat="48.70844" lon="7.21832">
        <ele>301.4</ele>
        <time>2020-05-22T13:50:58Z</time>
      </trkpt>
      <trkpt lat="48.70844" lon="7.21831">
        <ele>301.3</ele>
        <time>2020-05-22T13:50:59Z</time>
      </trkpt>
      <trkpt lat="48.70844" lon="7.2183">
        <ele>301.2</ele>
        <time>2020-05-22T13:51:00Z</time>
      </trkpt>
      <trkpt lat="48.70844" lon="7.21829">
        <ele>301</ele>
        <time>2020-05-22T13:51:02Z</time>
      </trkpt>
      <trkpt lat="48.70844" lon="7.21828">
        <ele>301</ele>
        <time>2020-05-22T13:51:03Z</time>
      </trkpt>
      <trkpt lat="48.70843" lon="7.21828">
        <ele>300.8</ele>
        <time>2020-05-22T13:51:05Z</time>
      </trkpt>
      <trkpt lat="48.70843" lon="7.21828">
        <ele>300.8</ele>
        <time>2020-05-22T13:51:06Z</time>
      </trkpt>
      <trkpt lat="48.70841" lon="7.21824">
        <ele>300.2</ele>
        <time>2020-05-22T13:51:08Z</time>
      </trkpt>
      <trkpt lat="48.70837" lon="7.21814">
        <ele>298.7</ele>
        <time>2020-05-22T13:51:10Z</time>
      </trkpt>
      <trkpt lat="48.70833" lon="7.21808">
        <ele>297.7</ele>
        <time>2020-05-22T13:51:11Z</time>
      </trkpt>
      <trkpt lat="48.70829" lon="7.21803">
        <ele>296.8</ele>
        <time>2020-05-22T13:51:12Z</time>
      </trkpt>
      <trkpt lat="48.70822" lon="7.21792">
        <ele>294.8</ele>
        <time>2020-05-22T13:51:14Z</time>
      </trkpt>
      <trkpt lat="48.70819" lon="7.21787">
        <ele>294</ele>
        <time>2020-05-22T13:51:15Z</time>
      </trkpt>
      <trkpt lat="48.70816" lon="7.21783">
        <ele>293.2</ele>
        <time>2020-05-22T13:51:16Z</time>
      </trkpt>
      <trkpt lat="48.70808" lon="7.2178">
        <ele>291.7</ele>
        <time>2020-05-22T13:51:18Z</time>
      </trkpt>
      <trkpt lat="48.70804" lon="7.21776">
        <ele>290.9</ele>
        <time>2020-05-22T13:51:20Z</time>
      </trkpt>
      <trkpt lat="48.70799" lon="7.21773">
        <ele>289.9</ele>
        <time>2020-05-22T13:51:22Z</time>
      </trkpt>
      <trkpt lat="48.70793" lon="7.21768">
        <ele>288.5</ele>
        <time>2020-05-22T13:51:24Z</time>
      </trkpt>
      <trkpt lat="48.7079" lon="7.21765">
        <ele>287.9</ele>
        <time>2020-05-22T13:51:25Z</time>
      </trkpt>
      <trkpt lat="48.70787" lon="7.21762">
        <ele>287.1</ele>
        <time>2020-05-22T13:51:26Z</time>
      </trkpt>
      <trkpt lat="48.7078" lon="7.21757">
        <ele>285.6</ele>
        <time>2020-05-22T13:51:28Z</time>
      </trkpt>
      <trkpt lat="48.70775" lon="7.21754">
        <ele>284.7</ele>
        <time>2020-05-22T13:51:29Z</time>
      </trkpt>
      <trkpt lat="48.70768" lon="7.21751">
        <ele>283.3</ele>
        <time>2020-05-22T13:51:30Z</time>
      </trkpt>
      <trkpt lat="48.70762" lon="7.21748">
        <ele>281.6</ele>
        <time>2020-05-22T13:51:31Z</time>
      </trkpt>
      <trkpt lat="48.70753" lon="7.21744">
        <ele>280.2</ele>
        <time>2020-05-22T13:51:33Z</time>
      </trkpt>
      <trkpt lat="48.70748" lon="7.21741">
        <ele>278.4</ele>
        <time>2020-05-22T13:51:34Z</time>
      </trkpt>
      <trkpt lat="48.70741" lon="7.21738">
        <ele>279</ele>
        <time>2020-05-22T13:51:36Z</time>
      </trkpt>
      <trkpt lat="48.70737" lon="7.21737">
        <ele>277</ele>
        <time>2020-05-22T13:51:37Z</time>
      </trkpt>
      <trkpt lat="48.70731" lon="7.21734">
        <ele>277.4</ele>
        <time>2020-05-22T13:51:39Z</time>
      </trkpt>
      <trkpt lat="48.70727" lon="7.21733">
        <ele>275.7</ele>
        <time>2020-05-22T13:51:40Z</time>
      </trkpt>
      <trkpt lat="48.70725" lon="7.21732">
        <ele>275.7</ele>
        <time>2020-05-22T13:51:41Z</time>
      </trkpt>
      <trkpt lat="48.70717" lon="7.21732">
        <ele>276.6</ele>
        <time>2020-05-22T13:51:43Z</time>
      </trkpt>
      <trkpt lat="48.7071" lon="7.21733">
        <ele>277.7</ele>
        <time>2020-05-22T13:51:45Z</time>
      </trkpt>
      <trkpt lat="48.70706" lon="7.21732">
        <ele>278.1</ele>
        <time>2020-05-22T13:51:47Z</time>
      </trkpt>
      <trkpt lat="48.70701" lon="7.21729">
        <ele>276.9</ele>
        <time>2020-05-22T13:51:50Z</time>
      </trkpt>
      <trkpt lat="48.70699" lon="7.21727">
        <ele>277.4</ele>
        <time>2020-05-22T13:51:51Z</time>
      </trkpt>
      <trkpt lat="48.70694" lon="7.21722">
        <ele>275.8</ele>
        <time>2020-05-22T13:51:53Z</time>
      </trkpt>
      <trkpt lat="48.70687" lon="7.21718">
        <ele>275.3</ele>
        <time>2020-05-22T13:51:55Z</time>
      </trkpt>
      <trkpt lat="48.70683" lon="7.21717">
        <ele>275.9</ele>
        <time>2020-05-22T13:51:56Z</time>
      </trkpt>
      <trkpt lat="48.70654" lon="7.2171">
        <ele>276.2</ele>
        <time>2020-05-22T13:52:02Z</time>
      </trkpt>
      <trkpt lat="48.7065" lon="7.2171">
        <ele>276.3</ele>
        <time>2020-05-22T13:52:03Z</time>
      </trkpt>
      <trkpt lat="48.70647" lon="7.21709">
        <ele>276.4</ele>
        <time>2020-05-22T13:52:04Z</time>
      </trkpt>
      <trkpt lat="48.70641" lon="7.21708">
        <ele>276.4</ele>
        <time>2020-05-22T13:52:06Z</time>
      </trkpt>
      <trkpt lat="48.70635" lon="7.21708">
        <ele>276.3</ele>
        <time>2020-05-22T13:52:08Z</time>
      </trkpt>
      <trkpt lat="48.70632" lon="7.21709">
        <ele>276.1</ele>
        <time>2020-05-22T13:52:09Z</time>
      </trkpt>
      <trkpt lat="48.70631" lon="7.21709">
        <ele>275.9</ele>
        <time>2020-05-22T13:52:10Z</time>
      </trkpt>
      <trkpt lat="48.70627" lon="7.21708">
        <ele>275.6</ele>
        <time>2020-05-22T13:52:11Z</time>
      </trkpt>
      <trkpt lat="48.70626" lon="7.21708">
        <ele>275.6</ele>
        <time>2020-05-22T13:52:12Z</time>
      </trkpt>
      <trkpt lat="48.70623" lon="7.21709">
        <ele>275.3</ele>
        <time>2020-05-22T13:52:14Z</time>
      </trkpt>
      <trkpt lat="48.70618" lon="7.21709">
        <ele>274.8</ele>
        <time>2020-05-22T13:52:16Z</time>
      </trkpt>
      <trkpt lat="48.70615" lon="7.2171">
        <ele>274.5</ele>
        <time>2020-05-22T13:52:17Z</time>
      </trkpt>
      <trkpt lat="48.70613" lon="7.21711">
        <ele>274.3</ele>
        <time>2020-05-22T13:52:18Z</time>
      </trkpt>
      <trkpt lat="48.70609" lon="7.21711">
        <ele>274.1</ele>
        <time>2020-05-22T13:52:20Z</time>
      </trkpt>
      <trkpt lat="48.70606" lon="7.2171">
        <ele>273.9</ele>
        <time>2020-05-22T13:52:21Z</time>
      </trkpt>
      <trkpt lat="48.70605" lon="7.2171">
        <ele>273.7</ele>
        <time>2020-05-22T13:52:22Z</time>
      </trkpt>
      <trkpt lat="48.70603" lon="7.21711">
        <ele>273.6</ele>
        <time>2020-05-22T13:52:23Z</time>
      </trkpt>
      <trkpt lat="48.70602" lon="7.21712">
        <ele>275.7</ele>
        <time>2020-05-22T13:52:25Z</time>
      </trkpt>
      <trkpt lat="48.70599" lon="7.21714">
        <ele>275.6</ele>
        <time>2020-05-22T13:52:27Z</time>
      </trkpt>
      <trkpt lat="48.70597" lon="7.21715">
        <ele>275.5</ele>
        <time>2020-05-22T13:52:28Z</time>
      </trkpt>
      <trkpt lat="48.70593" lon="7.21716">
        <ele>275.4</ele>
        <time>2020-05-22T13:52:30Z</time>
      </trkpt>
      <trkpt lat="48.70589" lon="7.21716">
        <ele>277.5</ele>
        <time>2020-05-22T13:52:31Z</time>
      </trkpt>
      <trkpt lat="48.70588" lon="7.21717">
        <ele>277.5</ele>
        <time>2020-05-22T13:52:32Z</time>
      </trkpt>
      <trkpt lat="48.70584" lon="7.21717">
        <ele>277.6</ele>
        <time>2020-05-22T13:52:34Z</time>
      </trkpt>
      <trkpt lat="48.70583" lon="7.21717">
        <ele>277.7</ele>
        <time>2020-05-22T13:52:35Z</time>
      </trkpt>
      <trkpt lat="48.70581" lon="7.21717">
        <ele>277.7</ele>
        <time>2020-05-22T13:52:36Z</time>
      </trkpt>
      <trkpt lat="48.70578" lon="7.21717">
        <ele>277.8</ele>
        <time>2020-05-22T13:52:38Z</time>
      </trkpt>
      <trkpt lat="48.70573" lon="7.21718">
        <ele>278.2</ele>
        <time>2020-05-22T13:52:40Z</time>
      </trkpt>
      <trkpt lat="48.70569" lon="7.21717">
        <ele>278.6</ele>
        <time>2020-05-22T13:52:42Z</time>
      </trkpt>
      <trkpt lat="48.70565" lon="7.21718">
        <ele>278.8</ele>
        <time>2020-05-22T13:52:44Z</time>
      </trkpt>
      <trkpt lat="48.7056" lon="7.21718">
        <ele>279.3</ele>
        <time>2020-05-22T13:52:46Z</time>
      </trkpt>
      <trkpt lat="48.70558" lon="7.21717">
        <ele>279.3</ele>
        <time>2020-05-22T13:52:47Z</time>
      </trkpt>
      <trkpt lat="48.70554" lon="7.21717">
        <ele>279.8</ele>
        <time>2020-05-22T13:52:49Z</time>
      </trkpt>
      <trkpt lat="48.70552" lon="7.21717">
        <ele>280</ele>
        <time>2020-05-22T13:52:50Z</time>
      </trkpt>
      <trkpt lat="48.70551" lon="7.21717">
        <ele>279.9</ele>
        <time>2020-05-22T13:52:51Z</time>
      </trkpt>
      <trkpt lat="48.70546" lon="7.21717">
        <ele>280.5</ele>
        <time>2020-05-22T13:52:53Z</time>
      </trkpt>
      <trkpt lat="48.70544" lon="7.21718">
        <ele>280.5</ele>
        <time>2020-05-22T13:52:54Z</time>
      </trkpt>
      <trkpt lat="48.7054" lon="7.21719">
        <ele>280.9</ele>
        <time>2020-05-22T13:52:56Z</time>
      </trkpt>
      <trkpt lat="48.70537" lon="7.2172">
        <ele>281.1</ele>
        <time>2020-05-22T13:52:57Z</time>
      </trkpt>
      <trkpt lat="48.70536" lon="7.2172">
        <ele>281.1</ele>
        <time>2020-05-22T13:52:58Z</time>
      </trkpt>
      <trkpt lat="48.70534" lon="7.2172">
        <ele>283.2</ele>
        <time>2020-05-22T13:52:59Z</time>
      </trkpt>
      <trkpt lat="48.70529" lon="7.2172">
        <ele>283.4</ele>
        <time>2020-05-22T13:53:01Z</time>
      </trkpt>
      <trkpt lat="48.70525" lon="7.21721">
        <ele>283.5</ele>
        <time>2020-05-22T13:53:03Z</time>
      </trkpt>
      <trkpt lat="48.70522" lon="7.2172">
        <ele>283.5</ele>
        <time>2020-05-22T13:53:04Z</time>
      </trkpt>
      <trkpt lat="48.7052" lon="7.2172">
        <ele>281.6</ele>
        <time>2020-05-22T13:53:05Z</time>
      </trkpt>
      <trkpt lat="48.70519" lon="7.2172">
        <ele>281.5</ele>
        <time>2020-05-22T13:53:06Z</time>
      </trkpt>
      <trkpt lat="48.70515" lon="7.2172">
        <ele>283.5</ele>
        <time>2020-05-22T13:53:08Z</time>
      </trkpt>
      <trkpt lat="48.70513" lon="7.21721">
        <ele>283.4</ele>
        <time>2020-05-22T13:53:09Z</time>
      </trkpt>
      <trkpt lat="48.70509" lon="7.21722">
        <ele>283.4</ele>
        <time>2020-05-22T13:53:11Z</time>
      </trkpt>
      <trkpt lat="48.70507" lon="7.21723">
        <ele>283.3</ele>
        <time>2020-05-22T13:53:12Z</time>
      </trkpt>
      <trkpt lat="48.70504" lon="7.21724">
        <ele>283.2</ele>
        <time>2020-05-22T13:53:14Z</time>
      </trkpt>
      <trkpt lat="48.705" lon="7.21725">
        <ele>284.9</ele>
        <time>2020-05-22T13:53:16Z</time>
      </trkpt>
      <trkpt lat="48.70498" lon="7.21727">
        <ele>284.8</ele>
        <time>2020-05-22T13:53:18Z</time>
      </trkpt>
      <trkpt lat="48.70494" lon="7.21729">
        <ele>284.6</ele>
        <time>2020-05-22T13:53:20Z</time>
      </trkpt>
      <trkpt lat="48.70493" lon="7.21729">
        <ele>286.5</ele>
        <time>2020-05-22T13:53:21Z</time>
      </trkpt>
      <trkpt lat="48.7049" lon="7.21729">
        <ele>286.4</ele>
        <time>2020-05-22T13:53:23Z</time>
      </trkpt>
      <trkpt lat="48.70488" lon="7.2173">
        <ele>286.2</ele>
        <time>2020-05-22T13:53:24Z</time>
      </trkpt>
      <trkpt lat="48.70485" lon="7.2173">
        <ele>286</ele>
        <time>2020-05-22T13:53:26Z</time>
      </trkpt>
      <trkpt lat="48.70483" lon="7.21732">
        <ele>285.8</ele>
        <time>2020-05-22T13:53:28Z</time>
      </trkpt>
      <trkpt lat="48.70478" lon="7.21735">
        <ele>287.1</ele>
        <time>2020-05-22T13:53:30Z</time>
      </trkpt>
      <trkpt lat="48.70477" lon="7.21737">
        <ele>287.1</ele>
        <time>2020-05-22T13:53:32Z</time>
      </trkpt>
      <trkpt lat="48.70475" lon="7.21738">
        <ele>288.6</ele>
        <time>2020-05-22T13:53:34Z</time>
      </trkpt>
      <trkpt lat="48.70475" lon="7.21739">
        <ele>288.6</ele>
        <time>2020-05-22T13:53:35Z</time>
      </trkpt>
      <trkpt lat="48.70475" lon="7.2174">
        <ele>288.5</ele>
        <time>2020-05-22T13:53:37Z</time>
      </trkpt>
      <trkpt lat="48.70474" lon="7.21741">
        <ele>288.5</ele>
        <time>2020-05-22T13:53:39Z</time>
      </trkpt>
      <trkpt lat="48.70474" lon="7.21743">
        <ele>290.4</ele>
        <time>2020-05-22T13:53:41Z</time>
      </trkpt>
      <trkpt lat="48.70473" lon="7.21744">
        <ele>290.3</ele>
        <time>2020-05-22T13:53:42Z</time>
      </trkpt>
      <trkpt lat="48.70473" lon="7.21744">
        <ele>290.3</ele>
        <time>2020-05-22T13:53:43Z</time>
      </trkpt>
      <trkpt lat="48.70473" lon="7.21745">
        <ele>290.3</ele>
        <time>2020-05-22T13:53:44Z</time>
      </trkpt>
      <trkpt lat="48.70473" lon="7.21745">
        <ele>289.9</ele>
        <time>2020-05-22T13:53:46Z</time>
      </trkpt>
      <trkpt lat="48.70473" lon="7.21745">
        <ele>289.8</ele>
        <time>2020-05-22T13:53:47Z</time>
      </trkpt>
      <trkpt lat="48.70473" lon="7.21745">
        <ele>289.8</ele>
        <time>2020-05-22T13:53:49Z</time>
      </trkpt>
      <trkpt lat="48.70473" lon="7.21745">
        <ele>289.8</ele>
        <time>2020-05-22T13:53:50Z</time>
      </trkpt>
      <trkpt lat="48.70473" lon="7.21745">
        <ele>289.7</ele>
        <time>2020-05-22T13:53:52Z</time>
      </trkpt>
      <trkpt lat="48.70473" lon="7.21745">
        <ele>289.7</ele>
        <time>2020-05-22T13:53:53Z</time>
      </trkpt>
      <trkpt lat="48.70472" lon="7.21745">
        <ele>289.7</ele>
        <time>2020-05-22T13:53:55Z</time>
      </trkpt>
      <trkpt lat="48.7047" lon="7.21745">
        <ele>289.2</ele>
        <time>2020-05-22T13:53:59Z</time>
      </trkpt>
      <trkpt lat="48.70463" lon="7.21747">
        <ele>290.2</ele>
        <time>2020-05-22T13:54:01Z</time>
      </trkpt>
      <trkpt lat="48.70453" lon="7.2175">
        <ele>288.8</ele>
        <time>2020-05-22T13:54:03Z</time>
      </trkpt>
      <trkpt lat="48.70444" lon="7.21751">
        <ele>287.9</ele>
        <time>2020-05-22T13:54:05Z</time>
      </trkpt>
      <trkpt lat="48.70439" lon="7.21752">
        <ele>287</ele>
        <time>2020-05-22T13:54:06Z</time>
      </trkpt>
      <trkpt lat="48.7043" lon="7.21756">
        <ele>285.6</ele>
        <time>2020-05-22T13:54:08Z</time>
      </trkpt>
      <trkpt lat="48.70425" lon="7.21758">
        <ele>284.7</ele>
        <time>2020-05-22T13:54:09Z</time>
      </trkpt>
      <trkpt lat="48.70418" lon="7.21759">
        <ele>283.5</ele>
        <time>2020-05-22T13:54:11Z</time>
      </trkpt>
      <trkpt lat="48.70411" lon="7.21757">
        <ele>279.9</ele>
        <time>2020-05-22T13:54:13Z</time>
      </trkpt>
      <trkpt lat="48.70404" lon="7.21754">
        <ele>275.5</ele>
        <time>2020-05-22T13:54:15Z</time>
      </trkpt>
      <trkpt lat="48.70398" lon="7.21752">
        <ele>273.7</ele>
        <time>2020-05-22T13:54:17Z</time>
      </trkpt>
      <trkpt lat="48.70396" lon="7.21751">
        <ele>272.7</ele>
        <time>2020-05-22T13:54:19Z</time>
      </trkpt>
      <trkpt lat="48.70395" lon="7.21751">
        <ele>272.7</ele>
        <time>2020-05-22T13:54:21Z</time>
      </trkpt>
      <trkpt lat="48.70394" lon="7.21751">
        <ele>272.7</ele>
        <time>2020-05-22T13:54:23Z</time>
      </trkpt>
      <trkpt lat="48.70394" lon="7.21751">
        <ele>272.6</ele>
        <time>2020-05-22T13:54:24Z</time>
      </trkpt>
      <trkpt lat="48.70395" lon="7.21751">
        <ele>272.6</ele>
        <time>2020-05-22T13:54:25Z</time>
      </trkpt>
      <trkpt lat="48.70395" lon="7.21751">
        <ele>272.6</ele>
        <time>2020-05-22T13:54:26Z</time>
      </trkpt>
      <trkpt lat="48.70395" lon="7.21751">
        <ele>272.5</ele>
        <time>2020-05-22T13:54:28Z</time>
      </trkpt>
      <trkpt lat="48.70395" lon="7.21751">
        <ele>272.5</ele>
        <time>2020-05-22T13:54:29Z</time>
      </trkpt>
      <trkpt lat="48.70395" lon="7.21751">
        <ele>272.5</ele>
        <time>2020-05-22T13:54:31Z</time>
      </trkpt>
      <trkpt lat="48.70395" lon="7.21751">
        <ele>272.4</ele>
        <time>2020-05-22T13:54:33Z</time>
      </trkpt>
      <trkpt lat="48.70392" lon="7.21749">
        <ele>270</ele>
        <time>2020-05-22T13:54:52Z</time>
      </trkpt>
      <trkpt lat="48.7039" lon="7.21747">
        <ele>269</ele>
        <time>2020-05-22T13:54:53Z</time>
      </trkpt>
      <trkpt lat="48.70389" lon="7.21747">
        <ele>268.9</ele>
        <time>2020-05-22T13:54:55Z</time>
      </trkpt>
      <trkpt lat="48.7039" lon="7.21747">
        <ele>268.9</ele>
        <time>2020-05-22T13:54:57Z</time>
      </trkpt>
      <trkpt lat="48.7039" lon="7.21746">
        <ele>268.9</ele>
        <time>2020-05-22T13:54:58Z</time>
      </trkpt>
      <trkpt lat="48.7039" lon="7.21746">
        <ele>267.5</ele>
        <time>2020-05-22T13:55:00Z</time>
      </trkpt>
      <trkpt lat="48.70389" lon="7.21746">
        <ele>267.5</ele>
        <time>2020-05-22T13:55:02Z</time>
      </trkpt>
      <trkpt lat="48.70389" lon="7.21745">
        <ele>267.4</ele>
        <time>2020-05-22T13:55:03Z</time>
      </trkpt>
      <trkpt lat="48.70389" lon="7.21745">
        <ele>267.4</ele>
        <time>2020-05-22T13:55:04Z</time>
      </trkpt>
      <trkpt lat="48.70383" lon="7.21746">
        <ele>265.5</ele>
        <time>2020-05-22T13:55:06Z</time>
      </trkpt>
      <trkpt lat="48.70379" lon="7.21747">
        <ele>265.8</ele>
        <time>2020-05-22T13:55:07Z</time>
      </trkpt>
      <trkpt lat="48.70375" lon="7.21749">
        <ele>264.2</ele>
        <time>2020-05-22T13:55:08Z</time>
      </trkpt>
      <trkpt lat="48.7037" lon="7.21751">
        <ele>263.6</ele>
        <time>2020-05-22T13:55:10Z</time>
      </trkpt>
      <trkpt lat="48.70367" lon="7.21751">
        <ele>262.6</ele>
        <time>2020-05-22T13:55:11Z</time>
      </trkpt>
      <trkpt lat="48.7036" lon="7.21751">
        <ele>260.5</ele>
        <time>2020-05-22T13:55:13Z</time>
      </trkpt>
      <trkpt lat="48.70351" lon="7.21753">
        <ele>257</ele>
        <time>2020-05-22T13:55:15Z</time>
      </trkpt>
      <trkpt lat="48.70346" lon="7.21756">
        <ele>257.2</ele>
        <time>2020-05-22T13:55:16Z</time>
      </trkpt>
      <trkpt lat="48.70335" lon="7.21765">
        <ele>256.1</ele>
        <time>2020-05-22T13:55:18Z</time>
      </trkpt>
      <trkpt lat="48.70326" lon="7.21775">
        <ele>256</ele>
        <time>2020-05-22T13:55:20Z</time>
      </trkpt>
      <trkpt lat="48.70321" lon="7.21777">
        <ele>255.9</ele>
        <time>2020-05-22T13:55:21Z</time>
      </trkpt>
      <trkpt lat="48.70316" lon="7.21778">
        <ele>255.9</ele>
        <time>2020-05-22T13:55:22Z</time>
      </trkpt>
      <trkpt lat="48.70311" lon="7.21782">
        <ele>255.8</ele>
        <time>2020-05-22T13:55:23Z</time>
      </trkpt>
      <trkpt lat="48.703" lon="7.2179">
        <ele>255.2</ele>
        <time>2020-05-22T13:55:25Z</time>
      </trkpt>
      <trkpt lat="48.70296" lon="7.21794">
        <ele>254.9</ele>
        <time>2020-05-22T13:55:26Z</time>
      </trkpt>
      <trkpt lat="48.70292" lon="7.218">
        <ele>254.5</ele>
        <time>2020-05-22T13:55:27Z</time>
      </trkpt>
      <trkpt lat="48.70284" lon="7.21813">
        <ele>255.1</ele>
        <time>2020-05-22T13:55:29Z</time>
      </trkpt>
      <trkpt lat="48.70277" lon="7.2182">
        <ele>255.5</ele>
        <time>2020-05-22T13:55:31Z</time>
      </trkpt>
      <trkpt lat="48.70268" lon="7.21828">
        <ele>255.9</ele>
        <time>2020-05-22T13:55:33Z</time>
      </trkpt>
      <trkpt lat="48.70259" lon="7.21836">
        <ele>256.2</ele>
        <time>2020-05-22T13:55:35Z</time>
      </trkpt>
      <trkpt lat="48.70253" lon="7.21845">
        <ele>256.5</ele>
        <time>2020-05-22T13:55:37Z</time>
      </trkpt>
      <trkpt lat="48.7025" lon="7.21849">
        <ele>256.6</ele>
        <time>2020-05-22T13:55:38Z</time>
      </trkpt>
      <trkpt lat="48.70245" lon="7.21855">
        <ele>256.9</ele>
        <time>2020-05-22T13:55:40Z</time>
      </trkpt>
      <trkpt lat="48.70242" lon="7.21856">
        <ele>257</ele>
        <time>2020-05-22T13:55:41Z</time>
      </trkpt>
      <trkpt lat="48.70236" lon="7.21858">
        <ele>257.4</ele>
        <time>2020-05-22T13:55:43Z</time>
      </trkpt>
      <trkpt lat="48.70227" lon="7.21858">
        <ele>258</ele>
        <time>2020-05-22T13:55:45Z</time>
      </trkpt>
      <trkpt lat="48.70222" lon="7.21858">
        <ele>258.4</ele>
        <time>2020-05-22T13:55:46Z</time>
      </trkpt>
      <trkpt lat="48.70211" lon="7.2186">
        <ele>259.3</ele>
        <time>2020-05-22T13:55:48Z</time>
      </trkpt>
      <trkpt lat="48.70202" lon="7.21872">
        <ele>260.2</ele>
        <time>2020-05-22T13:55:50Z</time>
      </trkpt>
      <trkpt lat="48.70196" lon="7.21883">
        <ele>261.1</ele>
        <time>2020-05-22T13:55:52Z</time>
      </trkpt>
      <trkpt lat="48.70191" lon="7.2189">
        <ele>261.7</ele>
        <time>2020-05-22T13:55:53Z</time>
      </trkpt>
      <trkpt lat="48.70186" lon="7.21898">
        <ele>262.3</ele>
        <time>2020-05-22T13:55:54Z</time>
      </trkpt>
      <trkpt lat="48.70178" lon="7.21914">
        <ele>263.4</ele>
        <time>2020-05-22T13:55:56Z</time>
      </trkpt>
      <trkpt lat="48.70176" lon="7.21926">
        <ele>263.9</ele>
        <time>2020-05-22T13:55:58Z</time>
      </trkpt>
      <trkpt lat="48.70174" lon="7.21929">
        <ele>264</ele>
        <time>2020-05-22T13:56:00Z</time>
      </trkpt>
      <trkpt lat="48.70172" lon="7.2193">
        <ele>264.1</ele>
        <time>2020-05-22T13:56:01Z</time>
      </trkpt>
      <trkpt lat="48.70172" lon="7.21931">
        <ele>264.2</ele>
        <time>2020-05-22T13:56:03Z</time>
      </trkpt>
      <trkpt lat="48.70172" lon="7.2193">
        <ele>264.2</ele>
        <time>2020-05-22T13:56:04Z</time>
      </trkpt>
      <trkpt lat="48.70172" lon="7.2193">
        <ele>264.2</ele>
        <time>2020-05-22T13:56:06Z</time>
      </trkpt>
      <trkpt lat="48.70172" lon="7.2193">
        <ele>264.3</ele>
        <time>2020-05-22T13:56:08Z</time>
      </trkpt>
      <trkpt lat="48.70173" lon="7.2193">
        <ele>264.3</ele>
        <time>2020-05-22T13:56:10Z</time>
      </trkpt>
      <trkpt lat="48.70173" lon="7.2193">
        <ele>264.3</ele>
        <time>2020-05-22T13:56:11Z</time>
      </trkpt>
      <trkpt lat="48.70173" lon="7.2193">
        <ele>264.3</ele>
        <time>2020-05-22T13:56:12Z</time>
      </trkpt>
      <trkpt lat="48.70174" lon="7.21931">
        <ele>264.4</ele>
        <time>2020-05-22T13:56:14Z</time>
      </trkpt>
      <trkpt lat="48.70174" lon="7.21932">
        <ele>264.4</ele>
        <time>2020-05-22T13:56:16Z</time>
      </trkpt>
      <trkpt lat="48.70174" lon="7.21932">
        <ele>264.4</ele>
        <time>2020-05-22T13:56:18Z</time>
      </trkpt>
      <trkpt lat="48.70174" lon="7.21932">
        <ele>264.4</ele>
        <time>2020-05-22T13:56:19Z</time>
      </trkpt>
      <trkpt lat="48.70175" lon="7.21932">
        <ele>264.4</ele>
        <time>2020-05-22T13:56:21Z</time>
      </trkpt>
      <trkpt lat="48.70175" lon="7.21932">
        <ele>264.4</ele>
        <time>2020-05-22T13:56:22Z</time>
      </trkpt>
      <trkpt lat="48.70175" lon="7.21931">
        <ele>264.5</ele>
        <time>2020-05-22T13:56:23Z</time>
      </trkpt>
      <trkpt lat="48.70176" lon="7.21931">
        <ele>264.5</ele>
        <time>2020-05-22T13:56:24Z</time>
      </trkpt>
      <trkpt lat="48.70177" lon="7.2193">
        <ele>264.6</ele>
        <time>2020-05-22T13:56:25Z</time>
      </trkpt>
      <trkpt lat="48.70178" lon="7.21928">
        <ele>264.7</ele>
        <time>2020-05-22T13:56:27Z</time>
      </trkpt>
      <trkpt lat="48.70179" lon="7.21925">
        <ele>264.8</ele>
        <time>2020-05-22T13:56:28Z</time>
      </trkpt>
      <trkpt lat="48.70179" lon="7.21921">
        <ele>265</ele>
        <time>2020-05-22T13:56:30Z</time>
      </trkpt>
      <trkpt lat="48.70179" lon="7.2192">
        <ele>265</ele>
        <time>2020-05-22T13:56:31Z</time>
      </trkpt>
      <trkpt lat="48.70177" lon="7.21918">
        <ele>265.2</ele>
        <time>2020-05-22T13:56:33Z</time>
      </trkpt>
      <trkpt lat="48.70176" lon="7.21918">
        <ele>265.2</ele>
        <time>2020-05-22T13:56:34Z</time>
      </trkpt>
      <trkpt lat="48.70176" lon="7.21917">
        <ele>265.2</ele>
        <time>2020-05-22T13:56:35Z</time>
      </trkpt>
      <trkpt lat="48.70176" lon="7.21915">
        <ele>265.3</ele>
        <time>2020-05-22T13:56:37Z</time>
      </trkpt>
      <trkpt lat="48.70175" lon="7.21915">
        <ele>265.3</ele>
        <time>2020-05-22T13:56:38Z</time>
      </trkpt>
      <trkpt lat="48.70175" lon="7.21914">
        <ele>265.3</ele>
        <time>2020-05-22T13:56:39Z</time>
      </trkpt>
      <trkpt lat="48.70175" lon="7.21913">
        <ele>265.4</ele>
        <time>2020-05-22T13:56:41Z</time>
      </trkpt>
      <trkpt lat="48.70175" lon="7.21912">
        <ele>265.4</ele>
        <time>2020-05-22T13:56:43Z</time>
      </trkpt>
      <trkpt lat="48.70175" lon="7.21912">
        <ele>265.4</ele>
        <time>2020-05-22T13:56:44Z</time>
      </trkpt>
      <trkpt lat="48.70175" lon="7.21913">
        <ele>265.4</ele>
        <time>2020-05-22T13:56:46Z</time>
      </trkpt>
      <trkpt lat="48.70175" lon="7.21914">
        <ele>265.5</ele>
        <time>2020-05-22T13:56:47Z</time>
      </trkpt>
      <trkpt lat="48.70179" lon="7.21916">
        <ele>265.6</ele>
        <time>2020-05-22T13:56:49Z</time>
      </trkpt>
      <trkpt lat="48.70181" lon="7.21916">
        <ele>265.7</ele>
        <time>2020-05-22T13:56:51Z</time>
      </trkpt>
      <trkpt lat="48.70182" lon="7.21916">
        <ele>265.7</ele>
        <time>2020-05-22T13:56:52Z</time>
      </trkpt>
      <trkpt lat="48.70182" lon="7.21916">
        <ele>265.7</ele>
        <time>2020-05-22T13:56:53Z</time>
      </trkpt>
      <trkpt lat="48.70182" lon="7.21916">
        <ele>265.7</ele>
        <time>2020-05-22T13:56:54Z</time>
      </trkpt>
      <trkpt lat="48.70182" lon="7.21916">
        <ele>265.7</ele>
        <time>2020-05-22T13:56:56Z</time>
      </trkpt>
      <trkpt lat="48.70182" lon="7.21916">
        <ele>265.7</ele>
        <time>2020-05-22T13:56:58Z</time>
      </trkpt>
      <trkpt lat="48.70182" lon="7.21916">
        <ele>265.7</ele>
        <time>2020-05-22T13:57:00Z</time>
      </trkpt>
      <trkpt lat="48.70182" lon="7.21916">
        <ele>265.7</ele>
        <time>2020-05-22T13:57:02Z</time>
      </trkpt>
      <trkpt lat="48.70182" lon="7.21916">
        <ele>265.7</ele>
        <time>2020-05-22T13:57:04Z</time>
      </trkpt>
      <trkpt lat="48.7018" lon="7.21924">
        <ele>265.8</ele>
        <time>2020-05-22T13:57:15Z</time>
      </trkpt>
      <trkpt lat="48.70179" lon="7.21934">
        <ele>266</ele>
        <time>2020-05-22T13:57:17Z</time>
      </trkpt>
      <trkpt lat="48.70178" lon="7.21945">
        <ele>266.2</ele>
        <time>2020-05-22T13:57:19Z</time>
      </trkpt>
      <trkpt lat="48.70178" lon="7.21951">
        <ele>266.3</ele>
        <time>2020-05-22T13:57:20Z</time>
      </trkpt>
      <trkpt lat="48.70178" lon="7.21956">
        <ele>266.4</ele>
        <time>2020-05-22T13:57:21Z</time>
      </trkpt>
      <trkpt lat="48.70177" lon="7.21965">
        <ele>266.6</ele>
        <time>2020-05-22T13:57:23Z</time>
      </trkpt>
      <trkpt lat="48.70177" lon="7.21976">
        <ele>266.7</ele>
        <time>2020-05-22T13:57:25Z</time>
      </trkpt>
      <trkpt lat="48.70177" lon="7.21986">
        <ele>266.9</ele>
        <time>2020-05-22T13:57:27Z</time>
      </trkpt>
      <trkpt lat="48.70176" lon="7.21993">
        <ele>267</ele>
        <time>2020-05-22T13:57:28Z</time>
      </trkpt>
      <trkpt lat="48.70175" lon="7.22004">
        <ele>267.2</ele>
        <time>2020-05-22T13:57:30Z</time>
      </trkpt>
      <trkpt lat="48.70175" lon="7.22009">
        <ele>267.3</ele>
        <time>2020-05-22T13:57:31Z</time>
      </trkpt>
      <trkpt lat="48.70174" lon="7.2202">
        <ele>267.5</ele>
        <time>2020-05-22T13:57:33Z</time>
      </trkpt>
      <trkpt lat="48.70173" lon="7.22027">
        <ele>267.7</ele>
        <time>2020-05-22T13:57:34Z</time>
      </trkpt>
      <trkpt lat="48.70172" lon="7.2204">
        <ele>268</ele>
        <time>2020-05-22T13:57:36Z</time>
      </trkpt>
      <trkpt lat="48.70171" lon="7.22054">
        <ele>268.4</ele>
        <time>2020-05-22T13:57:38Z</time>
      </trkpt>
      <trkpt lat="48.7017" lon="7.22061">
        <ele>268.7</ele>
        <time>2020-05-22T13:57:39Z</time>
      </trkpt>
      <trkpt lat="48.70171" lon="7.22067">
        <ele>268.9</ele>
        <time>2020-05-22T13:57:40Z</time>
      </trkpt>
      <trkpt lat="48.70171" lon="7.22078">
        <ele>269.4</ele>
        <time>2020-05-22T13:57:42Z</time>
      </trkpt>
      <trkpt lat="48.70171" lon="7.22084">
        <ele>269.7</ele>
        <time>2020-05-22T13:57:43Z</time>
      </trkpt>
      <trkpt lat="48.7017" lon="7.22097">
        <ele>270.3</ele>
        <time>2020-05-22T13:57:45Z</time>
      </trkpt>
      <trkpt lat="48.7017" lon="7.2211">
        <ele>270.9</ele>
        <time>2020-05-22T13:57:47Z</time>
      </trkpt>
      <trkpt lat="48.70171" lon="7.22117">
        <ele>271.3</ele>
        <time>2020-05-22T13:57:48Z</time>
      </trkpt>
      <trkpt lat="48.70172" lon="7.22131">
        <ele>272.1</ele>
        <time>2020-05-22T13:57:50Z</time>
      </trkpt>
      <trkpt lat="48.70173" lon="7.22138">
        <ele>272.5</ele>
        <time>2020-05-22T13:57:51Z</time>
      </trkpt>
      <trkpt lat="48.70174" lon="7.22144">
        <ele>272.8</ele>
        <time>2020-05-22T13:57:52Z</time>
      </trkpt>
      <trkpt lat="48.70177" lon="7.22155">
        <ele>273.4</ele>
        <time>2020-05-22T13:57:54Z</time>
      </trkpt>
      <trkpt lat="48.70178" lon="7.2216">
        <ele>273.6</ele>
        <time>2020-05-22T13:57:55Z</time>
      </trkpt>
      <trkpt lat="48.70179" lon="7.22165">
        <ele>273.8</ele>
        <time>2020-05-22T13:57:56Z</time>
      </trkpt>
      <trkpt lat="48.70181" lon="7.2217">
        <ele>274</ele>
        <time>2020-05-22T13:57:57Z</time>
      </trkpt>
      <trkpt lat="48.70183" lon="7.22175">
        <ele>274.2</ele>
        <time>2020-05-22T13:57:58Z</time>
      </trkpt>
      <trkpt lat="48.70186" lon="7.22182">
        <ele>274.6</ele>
        <time>2020-05-22T13:58:00Z</time>
      </trkpt>
      <trkpt lat="48.70189" lon="7.22189">
        <ele>274.8</ele>
        <time>2020-05-22T13:58:02Z</time>
      </trkpt>
      <trkpt lat="48.70191" lon="7.22199">
        <ele>275.1</ele>
        <time>2020-05-22T13:58:04Z</time>
      </trkpt>
      <trkpt lat="48.70195" lon="7.22208">
        <ele>275.4</ele>
        <time>2020-05-22T13:58:06Z</time>
      </trkpt>
      <trkpt lat="48.70197" lon="7.22213">
        <ele>275.6</ele>
        <time>2020-05-22T13:58:07Z</time>
      </trkpt>
      <trkpt lat="48.702" lon="7.22222">
        <ele>275.9</ele>
        <time>2020-05-22T13:58:09Z</time>
      </trkpt>
      <trkpt lat="48.70204" lon="7.22232">
        <ele>276.3</ele>
        <time>2020-05-22T13:58:11Z</time>
      </trkpt>
      <trkpt lat="48.70206" lon="7.22237">
        <ele>276.5</ele>
        <time>2020-05-22T13:58:12Z</time>
      </trkpt>
      <trkpt lat="48.70208" lon="7.22241">
        <ele>276.6</ele>
        <time>2020-05-22T13:58:13Z</time>
      </trkpt>
      <trkpt lat="48.7021" lon="7.22245">
        <ele>276.8</ele>
        <time>2020-05-22T13:58:14Z</time>
      </trkpt>
      <trkpt lat="48.70213" lon="7.22254">
        <ele>277.1</ele>
        <time>2020-05-22T13:58:16Z</time>
      </trkpt>
      <trkpt lat="48.70214" lon="7.22259">
        <ele>277.3</ele>
        <time>2020-05-22T13:58:17Z</time>
      </trkpt>
      <trkpt lat="48.70216" lon="7.22268">
        <ele>277.6</ele>
        <time>2020-05-22T13:58:19Z</time>
      </trkpt>
      <trkpt lat="48.70219" lon="7.22275">
        <ele>277.9</ele>
        <time>2020-05-22T13:58:21Z</time>
      </trkpt>
      <trkpt lat="48.70222" lon="7.22283">
        <ele>278.1</ele>
        <time>2020-05-22T13:58:23Z</time>
      </trkpt>
      <trkpt lat="48.70223" lon="7.22288">
        <ele>278.2</ele>
        <time>2020-05-22T13:58:24Z</time>
      </trkpt>
      <trkpt lat="48.70225" lon="7.22292">
        <ele>278.3</ele>
        <time>2020-05-22T13:58:25Z</time>
      </trkpt>
      <trkpt lat="48.70226" lon="7.22301">
        <ele>278.5</ele>
        <time>2020-05-22T13:58:27Z</time>
      </trkpt>
      <trkpt lat="48.70227" lon="7.22307">
        <ele>278.7</ele>
        <time>2020-05-22T13:58:28Z</time>
      </trkpt>
      <trkpt lat="48.70228" lon="7.22312">
        <ele>278.8</ele>
        <time>2020-05-22T13:58:29Z</time>
      </trkpt>
      <trkpt lat="48.70233" lon="7.22322">
        <ele>279.2</ele>
        <time>2020-05-22T13:58:31Z</time>
      </trkpt>
      <trkpt lat="48.70239" lon="7.22335">
        <ele>279.8</ele>
        <time>2020-05-22T13:58:33Z</time>
      </trkpt>
      <trkpt lat="48.70243" lon="7.22347">
        <ele>280.4</ele>
        <time>2020-05-22T13:58:35Z</time>
      </trkpt>
      <trkpt lat="48.70244" lon="7.22358">
        <ele>280.9</ele>
        <time>2020-05-22T13:58:37Z</time>
      </trkpt>
      <trkpt lat="48.70245" lon="7.22363">
        <ele>281.1</ele>
        <time>2020-05-22T13:58:38Z</time>
      </trkpt>
      <trkpt lat="48.70247" lon="7.22373">
        <ele>281.6</ele>
        <time>2020-05-22T13:58:40Z</time>
      </trkpt>
      <trkpt lat="48.7025" lon="7.22377">
        <ele>281.9</ele>
        <time>2020-05-22T13:58:41Z</time>
      </trkpt>
      <trkpt lat="48.70252" lon="7.22385">
        <ele>282.4</ele>
        <time>2020-05-22T13:58:43Z</time>
      </trkpt>
      <trkpt lat="48.70253" lon="7.22393">
        <ele>282.8</ele>
        <time>2020-05-22T13:58:45Z</time>
      </trkpt>
      <trkpt lat="48.70254" lon="7.22397">
        <ele>283.1</ele>
        <time>2020-05-22T13:58:46Z</time>
      </trkpt>
      <trkpt lat="48.70255" lon="7.22401">
        <ele>283.3</ele>
        <time>2020-05-22T13:58:47Z</time>
      </trkpt>
      <trkpt lat="48.70257" lon="7.22411">
        <ele>283.6</ele>
        <time>2020-05-22T13:58:49Z</time>
      </trkpt>
      <trkpt lat="48.70258" lon="7.22415">
        <ele>283.7</ele>
        <time>2020-05-22T13:58:50Z</time>
      </trkpt>
      <trkpt lat="48.70259" lon="7.22418">
        <ele>283.9</ele>
        <time>2020-05-22T13:58:51Z</time>
      </trkpt>
      <trkpt lat="48.70262" lon="7.22425">
        <ele>283.7</ele>
        <time>2020-05-22T13:58:53Z</time>
      </trkpt>
      <trkpt lat="48.70264" lon="7.22434">
        <ele>283.7</ele>
        <time>2020-05-22T13:58:55Z</time>
      </trkpt>
      <trkpt lat="48.70265" lon="7.22438">
        <ele>283.3</ele>
        <time>2020-05-22T13:58:56Z</time>
      </trkpt>
      <trkpt lat="48.70268" lon="7.22446">
        <ele>283.4</ele>
        <time>2020-05-22T13:58:58Z</time>
      </trkpt>
      <trkpt lat="48.70269" lon="7.2245">
        <ele>284.3</ele>
        <time>2020-05-22T13:58:59Z</time>
      </trkpt>
      <trkpt lat="48.70272" lon="7.22457">
        <ele>284.6</ele>
        <time>2020-05-22T13:59:01Z</time>
      </trkpt>
      <trkpt lat="48.70273" lon="7.22461">
        <ele>284.3</ele>
        <time>2020-05-22T13:59:02Z</time>
      </trkpt>
      <trkpt lat="48.70276" lon="7.22468">
        <ele>284.7</ele>
        <time>2020-05-22T13:59:04Z</time>
      </trkpt>
      <trkpt lat="48.70281" lon="7.22476">
        <ele>286</ele>
        <time>2020-05-22T13:59:06Z</time>
      </trkpt>
      <trkpt lat="48.70283" lon="7.22479">
        <ele>287</ele>
        <time>2020-05-22T13:59:07Z</time>
      </trkpt>
      <trkpt lat="48.70288" lon="7.22487">
        <ele>287.3</ele>
        <time>2020-05-22T13:59:09Z</time>
      </trkpt>
      <trkpt lat="48.70289" lon="7.2249">
        <ele>287.9</ele>
        <time>2020-05-22T13:59:10Z</time>
      </trkpt>
      <trkpt lat="48.70291" lon="7.22496">
        <ele>288.4</ele>
        <time>2020-05-22T13:59:11Z</time>
      </trkpt>
      <trkpt lat="48.70292" lon="7.22498">
        <ele>288.1</ele>
        <time>2020-05-22T13:59:12Z</time>
      </trkpt>
      <trkpt lat="48.70294" lon="7.22505">
        <ele>288.6</ele>
        <time>2020-05-22T13:59:14Z</time>
      </trkpt>
      <trkpt lat="48.70296" lon="7.22513">
        <ele>288</ele>
        <time>2020-05-22T13:59:16Z</time>
      </trkpt>
      <trkpt lat="48.70298" lon="7.22521">
        <ele>288.4</ele>
        <time>2020-05-22T13:59:18Z</time>
      </trkpt>
      <trkpt lat="48.703" lon="7.22528">
        <ele>288.2</ele>
        <time>2020-05-22T13:59:20Z</time>
      </trkpt>
      <trkpt lat="48.70302" lon="7.22536">
        <ele>288.7</ele>
        <time>2020-05-22T13:59:22Z</time>
      </trkpt>
      <trkpt lat="48.70303" lon="7.2254">
        <ele>289.6</ele>
        <time>2020-05-22T13:59:23Z</time>
      </trkpt>
      <trkpt lat="48.70305" lon="7.22545">
        <ele>289.2</ele>
        <time>2020-05-22T13:59:24Z</time>
      </trkpt>
      <trkpt lat="48.70306" lon="7.22547">
        <ele>290.1</ele>
        <time>2020-05-22T13:59:25Z</time>
      </trkpt>
      <trkpt lat="48.70308" lon="7.22553">
        <ele>289.6</ele>
        <time>2020-05-22T13:59:26Z</time>
      </trkpt>
      <trkpt lat="48.70308" lon="7.22555">
        <ele>289.6</ele>
        <time>2020-05-22T13:59:27Z</time>
      </trkpt>
      <trkpt lat="48.7031" lon="7.22563">
        <ele>289.9</ele>
        <time>2020-05-22T13:59:29Z</time>
      </trkpt>
      <trkpt lat="48.7031" lon="7.22567">
        <ele>289.6</ele>
        <time>2020-05-22T13:59:30Z</time>
      </trkpt>
      <trkpt lat="48.70311" lon="7.22573">
        <ele>289.5</ele>
        <time>2020-05-22T13:59:32Z</time>
      </trkpt>
      <trkpt lat="48.70312" lon="7.22576">
        <ele>289.9</ele>
        <time>2020-05-22T13:59:33Z</time>
      </trkpt>
      <trkpt lat="48.70314" lon="7.22583">
        <ele>290.1</ele>
        <time>2020-05-22T13:59:35Z</time>
      </trkpt>
      <trkpt lat="48.70315" lon="7.22587">
        <ele>290.1</ele>
        <time>2020-05-22T13:59:36Z</time>
      </trkpt>
      <trkpt lat="48.70317" lon="7.22593">
        <ele>290.3</ele>
        <time>2020-05-22T13:59:38Z</time>
      </trkpt>
      <trkpt lat="48.70319" lon="7.22598">
        <ele>290.1</ele>
        <time>2020-05-22T13:59:40Z</time>
      </trkpt>
      <trkpt lat="48.70319" lon="7.22606">
        <ele>289.8</ele>
        <time>2020-05-22T13:59:42Z</time>
      </trkpt>
      <trkpt lat="48.70319" lon="7.2261">
        <ele>289.6</ele>
        <time>2020-05-22T13:59:43Z</time>
      </trkpt>
      <trkpt lat="48.70321" lon="7.22616">
        <ele>289.9</ele>
        <time>2020-05-22T13:59:45Z</time>
      </trkpt>
      <trkpt lat="48.70323" lon="7.22621">
        <ele>290.2</ele>
        <time>2020-05-22T13:59:46Z</time>
      </trkpt>
      <trkpt lat="48.70325" lon="7.22626">
        <ele>289.7</ele>
        <time>2020-05-22T13:59:47Z</time>
      </trkpt>
      <trkpt lat="48.70327" lon="7.22636">
        <ele>289.7</ele>
        <time>2020-05-22T13:59:49Z</time>
      </trkpt>
      <trkpt lat="48.70328" lon="7.22641">
        <ele>289.5</ele>
        <time>2020-05-22T13:59:50Z</time>
      </trkpt>
      <trkpt lat="48.70329" lon="7.22653">
        <ele>289.1</ele>
        <time>2020-05-22T13:59:52Z</time>
      </trkpt>
      <trkpt lat="48.70329" lon="7.22659">
        <ele>288.8</ele>
        <time>2020-05-22T13:59:53Z</time>
      </trkpt>
      <trkpt lat="48.70328" lon="7.22665">
        <ele>288.1</ele>
        <time>2020-05-22T13:59:54Z</time>
      </trkpt>
      <trkpt lat="48.70327" lon="7.22669">
        <ele>288</ele>
        <time>2020-05-22T13:59:55Z</time>
      </trkpt>
      <trkpt lat="48.70324" lon="7.22677">
        <ele>287.8</ele>
        <time>2020-05-22T13:59:57Z</time>
      </trkpt>
      <trkpt lat="48.7032" lon="7.2268">
        <ele>287.8</ele>
        <time>2020-05-22T13:59:59Z</time>
      </trkpt>
      <trkpt lat="48.70316" lon="7.2268">
        <ele>287.9</ele>
        <time>2020-05-22T14:00:00Z</time>
      </trkpt>
      <trkpt lat="48.70314" lon="7.22678">
        <ele>288</ele>
        <time>2020-05-22T14:00:01Z</time>
      </trkpt>
      <trkpt lat="48.7031" lon="7.22672">
        <ele>288</ele>
        <time>2020-05-22T14:00:03Z</time>
      </trkpt>
      <trkpt lat="48.70308" lon="7.22669">
        <ele>288.2</ele>
        <time>2020-05-22T14:00:04Z</time>
      </trkpt>
      <trkpt lat="48.70306" lon="7.22664">
        <ele>288</ele>
        <time>2020-05-22T14:00:06Z</time>
      </trkpt>
      <trkpt lat="48.70307" lon="7.22664">
        <ele>288</ele>
        <time>2020-05-22T14:00:08Z</time>
      </trkpt>
      <trkpt lat="48.70307" lon="7.22664">
        <ele>288</ele>
        <time>2020-05-22T14:00:09Z</time>
      </trkpt>
      <trkpt lat="48.70309" lon="7.22665">
        <ele>288</ele>
        <time>2020-05-22T14:00:11Z</time>
      </trkpt>
      <trkpt lat="48.70309" lon="7.22665">
        <ele>288</ele>
        <time>2020-05-22T14:00:12Z</time>
      </trkpt>
      <trkpt lat="48.7031" lon="7.22666">
        <ele>288</ele>
        <time>2020-05-22T14:00:14Z</time>
      </trkpt>
      <trkpt lat="48.7031" lon="7.22666">
        <ele>288</ele>
        <time>2020-05-22T14:00:16Z</time>
      </trkpt>
      <trkpt lat="48.7031" lon="7.22666">
        <ele>288.1</ele>
        <time>2020-05-22T14:00:18Z</time>
      </trkpt>
      <trkpt lat="48.7031" lon="7.22665">
        <ele>288.1</ele>
        <time>2020-05-22T14:00:19Z</time>
      </trkpt>
      <trkpt lat="48.70307" lon="7.2266">
        <ele>288.1</ele>
        <time>2020-05-22T14:00:21Z</time>
      </trkpt>
      <trkpt lat="48.70303" lon="7.22651">
        <ele>287.9</ele>
        <time>2020-05-22T14:00:23Z</time>
      </trkpt>
      <trkpt lat="48.70298" lon="7.2264">
        <ele>287.6</ele>
        <time>2020-05-22T14:00:25Z</time>
      </trkpt>
      <trkpt lat="48.70296" lon="7.22633">
        <ele>287.2</ele>
        <time>2020-05-22T14:00:26Z</time>
      </trkpt>
      <trkpt lat="48.70291" lon="7.22621">
        <ele>286.6</ele>
        <time>2020-05-22T14:00:28Z</time>
      </trkpt>
      <trkpt lat="48.70287" lon="7.22614">
        <ele>286.3</ele>
        <time>2020-05-22T14:00:29Z</time>
      </trkpt>
      <trkpt lat="48.70284" lon="7.22607">
        <ele>285.9</ele>
        <time>2020-05-22T14:00:30Z</time>
      </trkpt>
      <trkpt lat="48.7028" lon="7.22593">
        <ele>285.2</ele>
        <time>2020-05-22T14:00:32Z</time>
      </trkpt>
      <trkpt lat="48.70277" lon="7.22585">
        <ele>284.4</ele>
        <time>2020-05-22T14:00:33Z</time>
      </trkpt>
      <trkpt lat="48.70274" lon="7.22578">
        <ele>284</ele>
        <time>2020-05-22T14:00:34Z</time>
      </trkpt>
      <trkpt lat="48.70272" lon="7.2257">
        <ele>283.1</ele>
        <time>2020-05-22T14:00:35Z</time>
      </trkpt>
      <trkpt lat="48.70267" lon="7.2256">
        <ele>281.8</ele>
        <time>2020-05-22T14:00:36Z</time>
      </trkpt>
      <trkpt lat="48.70258" lon="7.22539">
        <ele>280</ele>
        <time>2020-05-22T14:00:38Z</time>
      </trkpt>
      <trkpt lat="48.70249" lon="7.22518">
        <ele>278.7</ele>
        <time>2020-05-22T14:00:40Z</time>
      </trkpt>
      <trkpt lat="48.70243" lon="7.22508">
        <ele>278.2</ele>
        <time>2020-05-22T14:00:41Z</time>
      </trkpt>
      <trkpt lat="48.70231" lon="7.22488">
        <ele>276.5</ele>
        <time>2020-05-22T14:00:43Z</time>
      </trkpt>
      <trkpt lat="48.70221" lon="7.22471">
        <ele>275.8</ele>
        <time>2020-05-22T14:00:45Z</time>
      </trkpt>
      <trkpt lat="48.70216" lon="7.22462">
        <ele>275.6</ele>
        <time>2020-05-22T14:00:46Z</time>
      </trkpt>
      <trkpt lat="48.70204" lon="7.22442">
        <ele>275.8</ele>
        <time>2020-05-22T14:00:48Z</time>
      </trkpt>
      <trkpt lat="48.70198" lon="7.22431">
        <ele>275.6</ele>
        <time>2020-05-22T14:00:49Z</time>
      </trkpt>
      <trkpt lat="48.70189" lon="7.2241">
        <ele>276.3</ele>
        <time>2020-05-22T14:00:51Z</time>
      </trkpt>
      <trkpt lat="48.70182" lon="7.22388">
        <ele>276.6</ele>
        <time>2020-05-22T14:00:53Z</time>
      </trkpt>
      <trkpt lat="48.70179" lon="7.22377">
        <ele>276.5</ele>
        <time>2020-05-22T14:00:54Z</time>
      </trkpt>
      <trkpt lat="48.70176" lon="7.22358">
        <ele>276.1</ele>
        <time>2020-05-22T14:00:56Z</time>
      </trkpt>
      <trkpt lat="48.70171" lon="7.22339">
        <ele>275.7</ele>
        <time>2020-05-22T14:00:58Z</time>
      </trkpt>
      <trkpt lat="48.70165" lon="7.22321">
        <ele>274.3</ele>
        <time>2020-05-22T14:01:00Z</time>
      </trkpt>
      <trkpt lat="48.70158" lon="7.22305">
        <ele>273.5</ele>
        <time>2020-05-22T14:01:02Z</time>
      </trkpt>
      <trkpt lat="48.70154" lon="7.22297">
        <ele>273.1</ele>
        <time>2020-05-22T14:01:03Z</time>
      </trkpt>
      <trkpt lat="48.7015" lon="7.22289">
        <ele>272.5</ele>
        <time>2020-05-22T14:01:04Z</time>
      </trkpt>
      <trkpt lat="48.70146" lon="7.22283">
        <ele>272.5</ele>
        <time>2020-05-22T14:01:05Z</time>
      </trkpt>
      <trkpt lat="48.70139" lon="7.22272">
        <ele>271.7</ele>
        <time>2020-05-22T14:01:07Z</time>
      </trkpt>
      <trkpt lat="48.70135" lon="7.22267">
        <ele>271.6</ele>
        <time>2020-05-22T14:01:08Z</time>
      </trkpt>
      <trkpt lat="48.70129" lon="7.22257">
        <ele>270.9</ele>
        <time>2020-05-22T14:01:10Z</time>
      </trkpt>
      <trkpt lat="48.70129" lon="7.22255">
        <ele>270.3</ele>
        <time>2020-05-22T14:01:11Z</time>
      </trkpt>
      <trkpt lat="48.70129" lon="7.22255">
        <ele>270.3</ele>
        <time>2020-05-22T14:01:12Z</time>
      </trkpt>
      <trkpt lat="48.70129" lon="7.22254">
        <ele>270.3</ele>
        <time>2020-05-22T14:01:14Z</time>
      </trkpt>
      <trkpt lat="48.70129" lon="7.22253">
        <ele>270.3</ele>
        <time>2020-05-22T14:01:16Z</time>
      </trkpt>
      <trkpt lat="48.70129" lon="7.22253">
        <ele>270.4</ele>
        <time>2020-05-22T14:01:17Z</time>
      </trkpt>
      <trkpt lat="48.70129" lon="7.22252">
        <ele>269.8</ele>
        <time>2020-05-22T14:01:18Z</time>
      </trkpt>
      <trkpt lat="48.7013" lon="7.22252">
        <ele>269.8</ele>
        <time>2020-05-22T14:01:20Z</time>
      </trkpt>
      <trkpt lat="48.7013" lon="7.22251">
        <ele>269.8</ele>
        <time>2020-05-22T14:01:21Z</time>
      </trkpt>
      <trkpt lat="48.7013" lon="7.22251">
        <ele>269.8</ele>
        <time>2020-05-22T14:01:22Z</time>
      </trkpt>
      <trkpt lat="48.7013" lon="7.2225">
        <ele>269.7</ele>
        <time>2020-05-22T14:01:23Z</time>
      </trkpt>
      <trkpt lat="48.70128" lon="7.22247">
        <ele>269.2</ele>
        <time>2020-05-22T14:01:24Z</time>
      </trkpt>
      <trkpt lat="48.70122" lon="7.22239">
        <ele>268.2</ele>
        <time>2020-05-22T14:01:26Z</time>
      </trkpt>
      <trkpt lat="48.7012" lon="7.22234">
        <ele>267.7</ele>
        <time>2020-05-22T14:01:27Z</time>
      </trkpt>
      <trkpt lat="48.70118" lon="7.22228">
        <ele>267.1</ele>
        <time>2020-05-22T14:01:28Z</time>
      </trkpt>
      <trkpt lat="48.70115" lon="7.22222">
        <ele>265.9</ele>
        <time>2020-05-22T14:01:29Z</time>
      </trkpt>
      <trkpt lat="48.70109" lon="7.22208">
        <ele>264</ele>
        <time>2020-05-22T14:01:31Z</time>
      </trkpt>
      <trkpt lat="48.70106" lon="7.222">
        <ele>262.8</ele>
        <time>2020-05-22T14:01:32Z</time>
      </trkpt>
      <trkpt lat="48.70103" lon="7.22193">
        <ele>262.2</ele>
        <time>2020-05-22T14:01:33Z</time>
      </trkpt>
      <trkpt lat="48.70097" lon="7.22176">
        <ele>260.3</ele>
        <time>2020-05-22T14:01:35Z</time>
      </trkpt>
      <trkpt lat="48.70093" lon="7.22168">
        <ele>259.3</ele>
        <time>2020-05-22T14:01:36Z</time>
      </trkpt>
      <trkpt lat="48.70085" lon="7.22161">
        <ele>258.3</ele>
        <time>2020-05-22T14:01:38Z</time>
      </trkpt>
      <trkpt lat="48.70075" lon="7.2216">
        <ele>258.7</ele>
        <time>2020-05-22T14:01:40Z</time>
      </trkpt>
      <trkpt lat="48.70069" lon="7.22158">
        <ele>259</ele>
        <time>2020-05-22T14:01:41Z</time>
      </trkpt>
      <trkpt lat="48.70061" lon="7.22154">
        <ele>258.9</ele>
        <time>2020-05-22T14:01:43Z</time>
      </trkpt>
      <trkpt lat="48.70057" lon="7.22152">
        <ele>258.5</ele>
        <time>2020-05-22T14:01:44Z</time>
      </trkpt>
      <trkpt lat="48.70054" lon="7.2215">
        <ele>258.7</ele>
        <time>2020-05-22T14:01:45Z</time>
      </trkpt>
      <trkpt lat="48.70051" lon="7.22147">
        <ele>258.5</ele>
        <time>2020-05-22T14:01:46Z</time>
      </trkpt>
      <trkpt lat="48.70048" lon="7.22146">
        <ele>258.7</ele>
        <time>2020-05-22T14:01:47Z</time>
      </trkpt>
      <trkpt lat="48.70043" lon="7.22145">
        <ele>258.9</ele>
        <time>2020-05-22T14:01:49Z</time>
      </trkpt>
      <trkpt lat="48.7004" lon="7.22145">
        <ele>259.7</ele>
        <time>2020-05-22T14:01:50Z</time>
      </trkpt>
      <trkpt lat="48.70038" lon="7.22146">
        <ele>260</ele>
        <time>2020-05-22T14:01:51Z</time>
      </trkpt>
      <trkpt lat="48.70035" lon="7.22146">
        <ele>260.4</ele>
        <time>2020-05-22T14:01:52Z</time>
      </trkpt>
      <trkpt lat="48.70031" lon="7.22147">
        <ele>260.9</ele>
        <time>2020-05-22T14:01:54Z</time>
      </trkpt>
      <trkpt lat="48.70032" lon="7.22147">
        <ele>260.9</ele>
        <time>2020-05-22T14:01:56Z</time>
      </trkpt>
      <trkpt lat="48.70032" lon="7.22147">
        <ele>260.9</ele>
        <time>2020-05-22T14:01:58Z</time>
      </trkpt>
      <trkpt lat="48.70032" lon="7.22147">
        <ele>260.9</ele>
        <time>2020-05-22T14:01:59Z</time>
      </trkpt>
      <trkpt lat="48.70032" lon="7.22146">
        <ele>260.9</ele>
        <time>2020-05-22T14:02:02Z</time>
      </trkpt>
      <trkpt lat="48.70033" lon="7.22146">
        <ele>260.9</ele>
        <time>2020-05-22T14:02:04Z</time>
      </trkpt>
      <trkpt lat="48.70033" lon="7.22147">
        <ele>261</ele>
        <time>2020-05-22T14:02:05Z</time>
      </trkpt>
      <trkpt lat="48.70033" lon="7.22146">
        <ele>261</ele>
        <time>2020-05-22T14:02:07Z</time>
      </trkpt>
      <trkpt lat="48.70033" lon="7.22146">
        <ele>261</ele>
        <time>2020-05-22T14:02:08Z</time>
      </trkpt>
      <trkpt lat="48.70033" lon="7.22144">
        <ele>260.6</ele>
        <time>2020-05-22T14:02:10Z</time>
      </trkpt>
      <trkpt lat="48.70034" lon="7.22143">
        <ele>260.2</ele>
        <time>2020-05-22T14:02:11Z</time>
      </trkpt>
      <trkpt lat="48.70035" lon="7.22141">
        <ele>260.2</ele>
        <time>2020-05-22T14:02:13Z</time>
      </trkpt>
      <trkpt lat="48.70035" lon="7.2214">
        <ele>259.9</ele>
        <time>2020-05-22T14:02:14Z</time>
      </trkpt>
      <trkpt lat="48.70034" lon="7.22139">
        <ele>259.9</ele>
        <time>2020-05-22T14:02:16Z</time>
      </trkpt>
      <trkpt lat="48.70034" lon="7.22139">
        <ele>260.3</ele>
        <time>2020-05-22T14:02:17Z</time>
      </trkpt>
      <trkpt lat="48.70034" lon="7.22139">
        <ele>260.3</ele>
        <time>2020-05-22T14:02:18Z</time>
      </trkpt>
      <trkpt lat="48.70033" lon="7.22138">
        <ele>260.3</ele>
        <time>2020-05-22T14:02:20Z</time>
      </trkpt>
      <trkpt lat="48.70034" lon="7.22138">
        <ele>260.4</ele>
        <time>2020-05-22T14:02:22Z</time>
      </trkpt>
      <trkpt lat="48.70034" lon="7.22139">
        <ele>260.4</ele>
        <time>2020-05-22T14:02:23Z</time>
      </trkpt>
      <trkpt lat="48.70033" lon="7.22139">
        <ele>260.4</ele>
        <time>2020-05-22T14:02:24Z</time>
      </trkpt>
      <trkpt lat="48.70033" lon="7.22139">
        <ele>260.4</ele>
        <time>2020-05-22T14:02:25Z</time>
      </trkpt>
      <trkpt lat="48.70033" lon="7.22139">
        <ele>260.4</ele>
        <time>2020-05-22T14:02:27Z</time>
      </trkpt>
      <trkpt lat="48.70027" lon="7.22142">
        <ele>261.7</ele>
        <time>2020-05-22T14:02:41Z</time>
      </trkpt>
      <trkpt lat="48.70024" lon="7.22144">
        <ele>262.2</ele>
        <time>2020-05-22T14:02:42Z</time>
      </trkpt>
      <trkpt lat="48.70021" lon="7.22146">
        <ele>263</ele>
        <time>2020-05-22T14:02:43Z</time>
      </trkpt>
      <trkpt lat="48.70015" lon="7.22151">
        <ele>264.2</ele>
        <time>2020-05-22T14:02:45Z</time>
      </trkpt>
      <trkpt lat="48.70008" lon="7.22153">
        <ele>264.9</ele>
        <time>2020-05-22T14:02:47Z</time>
      </trkpt>
      <trkpt lat="48.70005" lon="7.22154">
        <ele>265.8</ele>
        <time>2020-05-22T14:02:48Z</time>
      </trkpt>
      <trkpt lat="48.70002" lon="7.22155">
        <ele>266.1</ele>
        <time>2020-05-22T14:02:49Z</time>
      </trkpt>
      <trkpt lat="48.69996" lon="7.22159">
        <ele>266.9</ele>
        <time>2020-05-22T14:02:51Z</time>
      </trkpt>
      <trkpt lat="48.69989" lon="7.22163">
        <ele>267.6</ele>
        <time>2020-05-22T14:02:53Z</time>
      </trkpt>
      <trkpt lat="48.69986" lon="7.22166">
        <ele>267.9</ele>
        <time>2020-05-22T14:02:54Z</time>
      </trkpt>
      <trkpt lat="48.69983" lon="7.22168">
        <ele>268.4</ele>
        <time>2020-05-22T14:02:55Z</time>
      </trkpt>
      <trkpt lat="48.69977" lon="7.22173">
        <ele>269.5</ele>
        <time>2020-05-22T14:02:57Z</time>
      </trkpt>
      <trkpt lat="48.69974" lon="7.22175">
        <ele>269.7</ele>
        <time>2020-05-22T14:02:58Z</time>
      </trkpt>
      <trkpt lat="48.69968" lon="7.2218">
        <ele>270.6</ele>
        <time>2020-05-22T14:03:00Z</time>
      </trkpt>
      <trkpt lat="48.69964" lon="7.22185">
        <ele>271</ele>
        <time>2020-05-22T14:03:02Z</time>
      </trkpt>
      <trkpt lat="48.6996" lon="7.22191">
        <ele>271.4</ele>
        <time>2020-05-22T14:03:04Z</time>
      </trkpt>
      <trkpt lat="48.69959" lon="7.22194">
        <ele>271.8</ele>
        <time>2020-05-22T14:03:05Z</time>
      </trkpt>
      <trkpt lat="48.69954" lon="7.22199">
        <ele>272.6</ele>
        <time>2020-05-22T14:03:07Z</time>
      </trkpt>
      <trkpt lat="48.69951" lon="7.22202">
        <ele>273.3</ele>
        <time>2020-05-22T14:03:08Z</time>
      </trkpt>
      <trkpt lat="48.69946" lon="7.22207">
        <ele>274.1</ele>
        <time>2020-05-22T14:03:10Z</time>
      </trkpt>
      <trkpt lat="48.69942" lon="7.22212">
        <ele>275.1</ele>
        <time>2020-05-22T14:03:12Z</time>
      </trkpt>
      <trkpt lat="48.6994" lon="7.22214">
        <ele>275.7</ele>
        <time>2020-05-22T14:03:13Z</time>
      </trkpt>
      <trkpt lat="48.69937" lon="7.22218">
        <ele>275.8</ele>
        <time>2020-05-22T14:03:14Z</time>
      </trkpt>
      <trkpt lat="48.69935" lon="7.22219">
        <ele>276.1</ele>
        <time>2020-05-22T14:03:15Z</time>
      </trkpt>
      <trkpt lat="48.69934" lon="7.22221">
        <ele>276.1</ele>
        <time>2020-05-22T14:03:16Z</time>
      </trkpt>
      <trkpt lat="48.69929" lon="7.22227">
        <ele>276.3</ele>
        <time>2020-05-22T14:03:18Z</time>
      </trkpt>
      <trkpt lat="48.69926" lon="7.22229">
        <ele>276.4</ele>
        <time>2020-05-22T14:03:19Z</time>
      </trkpt>
      <trkpt lat="48.69921" lon="7.22234">
        <ele>276.6</ele>
        <time>2020-05-22T14:03:21Z</time>
      </trkpt>
      <trkpt lat="48.69918" lon="7.22237">
        <ele>276.8</ele>
        <time>2020-05-22T14:03:22Z</time>
      </trkpt>
      <trkpt lat="48.69913" lon="7.22242">
        <ele>277</ele>
        <time>2020-05-22T14:03:24Z</time>
      </trkpt>
      <trkpt lat="48.6991" lon="7.22246">
        <ele>277.3</ele>
        <time>2020-05-22T14:03:25Z</time>
      </trkpt>
      <trkpt lat="48.69904" lon="7.22252">
        <ele>277.4</ele>
        <time>2020-05-22T14:03:27Z</time>
      </trkpt>
      <trkpt lat="48.69898" lon="7.22259">
        <ele>277.2</ele>
        <time>2020-05-22T14:03:29Z</time>
      </trkpt>
      <trkpt lat="48.69894" lon="7.22262">
        <ele>277.1</ele>
        <time>2020-05-22T14:03:30Z</time>
      </trkpt>
      <trkpt lat="48.69888" lon="7.22268">
        <ele>276.6</ele>
        <time>2020-05-22T14:03:32Z</time>
      </trkpt>
      <trkpt lat="48.69885" lon="7.22272">
        <ele>276.5</ele>
        <time>2020-05-22T14:03:33Z</time>
      </trkpt>
      <trkpt lat="48.6988" lon="7.22278">
        <ele>276</ele>
        <time>2020-05-22T14:03:35Z</time>
      </trkpt>
      <trkpt lat="48.69874" lon="7.22284">
        <ele>276.2</ele>
        <time>2020-05-22T14:03:37Z</time>
      </trkpt>
      <trkpt lat="48.69868" lon="7.22289">
        <ele>275.9</ele>
        <time>2020-05-22T14:03:39Z</time>
      </trkpt>
      <trkpt lat="48.69862" lon="7.22295">
        <ele>275.5</ele>
        <time>2020-05-22T14:03:41Z</time>
      </trkpt>
      <trkpt lat="48.69856" lon="7.22302">
        <ele>275.7</ele>
        <time>2020-05-22T14:03:43Z</time>
      </trkpt>
      <trkpt lat="48.6985" lon="7.22309">
        <ele>276.2</ele>
        <time>2020-05-22T14:03:45Z</time>
      </trkpt>
      <trkpt lat="48.69844" lon="7.22316">
        <ele>275.6</ele>
        <time>2020-05-22T14:03:47Z</time>
      </trkpt>
      <trkpt lat="48.69837" lon="7.22323">
        <ele>276</ele>
        <time>2020-05-22T14:03:49Z</time>
      </trkpt>
      <trkpt lat="48.69831" lon="7.22329">
        <ele>275.6</ele>
        <time>2020-05-22T14:03:51Z</time>
      </trkpt>
      <trkpt lat="48.69821" lon="7.22336">
        <ele>274.5</ele>
        <time>2020-05-22T14:03:53Z</time>
      </trkpt>
      <trkpt lat="48.69815" lon="7.2234">
        <ele>274</ele>
        <time>2020-05-22T14:03:54Z</time>
      </trkpt>
      <trkpt lat="48.69805" lon="7.22346">
        <ele>272.5</ele>
        <time>2020-05-22T14:03:56Z</time>
      </trkpt>
      <trkpt lat="48.69797" lon="7.22354">
        <ele>271.4</ele>
        <time>2020-05-22T14:03:58Z</time>
      </trkpt>
      <trkpt lat="48.69792" lon="7.22361">
        <ele>271</ele>
        <time>2020-05-22T14:04:00Z</time>
      </trkpt>
      <trkpt lat="48.69789" lon="7.22364">
        <ele>271</ele>
        <time>2020-05-22T14:04:01Z</time>
      </trkpt>
      <trkpt lat="48.69786" lon="7.22367">
        <ele>270.5</ele>
        <time>2020-05-22T14:04:02Z</time>
      </trkpt>
      <trkpt lat="48.69784" lon="7.2237">
        <ele>270.5</ele>
        <time>2020-05-22T14:04:03Z</time>
      </trkpt>
      <trkpt lat="48.69779" lon="7.22376">
        <ele>270</ele>
        <time>2020-05-22T14:04:05Z</time>
      </trkpt>
      <trkpt lat="48.69773" lon="7.22381">
        <ele>270.1</ele>
        <time>2020-05-22T14:04:07Z</time>
      </trkpt>
      <trkpt lat="48.69771" lon="7.22385">
        <ele>270.1</ele>
        <time>2020-05-22T14:04:08Z</time>
      </trkpt>
      <trkpt lat="48.69766" lon="7.22389">
        <ele>269.9</ele>
        <time>2020-05-22T14:04:10Z</time>
      </trkpt>
      <trkpt lat="48.69763" lon="7.22392">
        <ele>270.1</ele>
        <time>2020-05-22T14:04:11Z</time>
      </trkpt>
      <trkpt lat="48.69758" lon="7.22397">
        <ele>269.9</ele>
        <time>2020-05-22T14:04:13Z</time>
      </trkpt>
      <trkpt lat="48.69753" lon="7.22401">
        <ele>269.7</ele>
        <time>2020-05-22T14:04:15Z</time>
      </trkpt>
      <trkpt lat="48.6975" lon="7.22402">
        <ele>269.5</ele>
        <time>2020-05-22T14:04:16Z</time>
      </trkpt>
      <trkpt lat="48.69747" lon="7.22404">
        <ele>269.7</ele>
        <time>2020-05-22T14:04:17Z</time>
      </trkpt>
      <trkpt lat="48.69741" lon="7.22409">
        <ele>269.8</ele>
        <time>2020-05-22T14:04:19Z</time>
      </trkpt>
      <trkpt lat="48.69735" lon="7.22414">
        <ele>269.9</ele>
        <time>2020-05-22T14:04:21Z</time>
      </trkpt>
      <trkpt lat="48.69733" lon="7.22417">
        <ele>270.2</ele>
        <time>2020-05-22T14:04:22Z</time>
      </trkpt>
      <trkpt lat="48.69727" lon="7.22424">
        <ele>270.2</ele>
        <time>2020-05-22T14:04:24Z</time>
      </trkpt>
      <trkpt lat="48.69724" lon="7.22427">
        <ele>270.4</ele>
        <time>2020-05-22T14:04:25Z</time>
      </trkpt>
      <trkpt lat="48.69717" lon="7.22433">
        <ele>270.8</ele>
        <time>2020-05-22T14:04:27Z</time>
      </trkpt>
      <trkpt lat="48.69711" lon="7.2244">
        <ele>270.5</ele>
        <time>2020-05-22T14:04:29Z</time>
      </trkpt>
      <trkpt lat="48.69707" lon="7.22443">
        <ele>270.7</ele>
        <time>2020-05-22T14:04:30Z</time>
      </trkpt>
      <trkpt lat="48.69699" lon="7.22448">
        <ele>270.2</ele>
        <time>2020-05-22T14:04:32Z</time>
      </trkpt>
      <trkpt lat="48.69696" lon="7.22451">
        <ele>270.1</ele>
        <time>2020-05-22T14:04:33Z</time>
      </trkpt>
      <trkpt lat="48.69692" lon="7.22454">
        <ele>269.7</ele>
        <time>2020-05-22T14:04:34Z</time>
      </trkpt>
      <trkpt lat="48.69689" lon="7.22456">
        <ele>269.6</ele>
        <time>2020-05-22T14:04:35Z</time>
      </trkpt>
      <trkpt lat="48.69685" lon="7.22458">
        <ele>269</ele>
        <time>2020-05-22T14:04:36Z</time>
      </trkpt>
      <trkpt lat="48.69682" lon="7.2246">
        <ele>268.5</ele>
        <time>2020-05-22T14:04:37Z</time>
      </trkpt>
      <trkpt lat="48.69674" lon="7.22463">
        <ele>267.2</ele>
        <time>2020-05-22T14:04:39Z</time>
      </trkpt>
      <trkpt lat="48.6967" lon="7.22464">
        <ele>267</ele>
        <time>2020-05-22T14:04:40Z</time>
      </trkpt>
      <trkpt lat="48.69663" lon="7.22467">
        <ele>266.1</ele>
        <time>2020-05-22T14:04:42Z</time>
      </trkpt>
      <trkpt lat="48.69657" lon="7.2247">
        <ele>265.7</ele>
        <time>2020-05-22T14:04:44Z</time>
      </trkpt>
      <trkpt lat="48.6965" lon="7.22473">
        <ele>265.4</ele>
        <time>2020-05-22T14:04:46Z</time>
      </trkpt>
      <trkpt lat="48.69647" lon="7.22475">
        <ele>265.2</ele>
        <time>2020-05-22T14:04:47Z</time>
      </trkpt>
      <trkpt lat="48.69643" lon="7.22476">
        <ele>265.4</ele>
        <time>2020-05-22T14:04:48Z</time>
      </trkpt>
      <trkpt lat="48.69641" lon="7.22479">
        <ele>265.3</ele>
        <time>2020-05-22T14:04:49Z</time>
      </trkpt>
      <trkpt lat="48.69635" lon="7.22484">
        <ele>265.4</ele>
        <time>2020-05-22T14:04:51Z</time>
      </trkpt>
      <trkpt lat="48.69632" lon="7.22486">
        <ele>265.6</ele>
        <time>2020-05-22T14:04:52Z</time>
      </trkpt>
      <trkpt lat="48.69625" lon="7.2249">
        <ele>265.8</ele>
        <time>2020-05-22T14:04:54Z</time>
      </trkpt>
      <trkpt lat="48.69622" lon="7.22492">
        <ele>265.8</ele>
        <time>2020-05-22T14:04:55Z</time>
      </trkpt>
      <trkpt lat="48.69618" lon="7.22494">
        <ele>266.1</ele>
        <time>2020-05-22T14:04:56Z</time>
      </trkpt>
      <trkpt lat="48.69615" lon="7.22496">
        <ele>266.2</ele>
        <time>2020-05-22T14:04:57Z</time>
      </trkpt>
      <trkpt lat="48.69607" lon="7.225">
        <ele>266.5</ele>
        <time>2020-05-22T14:04:59Z</time>
      </trkpt>
      <trkpt lat="48.69603" lon="7.22502">
        <ele>266.8</ele>
        <time>2020-05-22T14:05:00Z</time>
      </trkpt>
      <trkpt lat="48.696" lon="7.22505">
        <ele>266.9</ele>
        <time>2020-05-22T14:05:01Z</time>
      </trkpt>
      <trkpt lat="48.69597" lon="7.22507">
        <ele>267.1</ele>
        <time>2020-05-22T14:05:02Z</time>
      </trkpt>
      <trkpt lat="48.69592" lon="7.22512">
        <ele>267.1</ele>
        <time>2020-05-22T14:05:04Z</time>
      </trkpt>
      <trkpt lat="48.69586" lon="7.22517">
        <ele>267.2</ele>
        <time>2020-05-22T14:05:06Z</time>
      </trkpt>
      <trkpt lat="48.69583" lon="7.2252">
        <ele>267.1</ele>
        <time>2020-05-22T14:05:07Z</time>
      </trkpt>
      <trkpt lat="48.6958" lon="7.22522">
        <ele>267.1</ele>
        <time>2020-05-22T14:05:08Z</time>
      </trkpt>
      <trkpt lat="48.69573" lon="7.22528">
        <ele>266.9</ele>
        <time>2020-05-22T14:05:10Z</time>
      </trkpt>
      <trkpt lat="48.6957" lon="7.22531">
        <ele>266.9</ele>
        <time>2020-05-22T14:05:11Z</time>
      </trkpt>
      <trkpt lat="48.69563" lon="7.2254">
        <ele>267</ele>
        <time>2020-05-22T14:05:13Z</time>
      </trkpt>
      <trkpt lat="48.69557" lon="7.22548">
        <ele>267.3</ele>
        <time>2020-05-22T14:05:15Z</time>
      </trkpt>
      <trkpt lat="48.69551" lon="7.22556">
        <ele>267.5</ele>
        <time>2020-05-22T14:05:17Z</time>
      </trkpt>
      <trkpt lat="48.69549" lon="7.2256">
        <ele>267.6</ele>
        <time>2020-05-22T14:05:18Z</time>
      </trkpt>
      <trkpt lat="48.69547" lon="7.22563">
        <ele>267.6</ele>
        <time>2020-05-22T14:05:19Z</time>
      </trkpt>
      <trkpt lat="48.69546" lon="7.22566">
        <ele>267.7</ele>
        <time>2020-05-22T14:05:20Z</time>
      </trkpt>
      <trkpt lat="48.69546" lon="7.22567">
        <ele>267.7</ele>
        <time>2020-05-22T14:05:22Z</time>
      </trkpt>
      <trkpt lat="48.69546" lon="7.22567">
        <ele>267.7</ele>
        <time>2020-05-22T14:05:23Z</time>
      </trkpt>
      <trkpt lat="48.69547" lon="7.22567">
        <ele>267.7</ele>
        <time>2020-05-22T14:05:25Z</time>
      </trkpt>
      <trkpt lat="48.69547" lon="7.22567">
        <ele>267.7</ele>
        <time>2020-05-22T14:05:26Z</time>
      </trkpt>
      <trkpt lat="48.69547" lon="7.22568">
        <ele>267.7</ele>
        <time>2020-05-22T14:05:27Z</time>
      </trkpt>
      <trkpt lat="48.69546" lon="7.22568">
        <ele>267.7</ele>
        <time>2020-05-22T14:05:29Z</time>
      </trkpt>
      <trkpt lat="48.69546" lon="7.22568">
        <ele>267.7</ele>
        <time>2020-05-22T14:05:30Z</time>
      </trkpt>
      <trkpt lat="48.69546" lon="7.22568">
        <ele>267.7</ele>
        <time>2020-05-22T14:05:32Z</time>
      </trkpt>
      <trkpt lat="48.69546" lon="7.22568">
        <ele>267.7</ele>
        <time>2020-05-22T14:05:33Z</time>
      </trkpt>
      <trkpt lat="48.69546" lon="7.22568">
        <ele>267.7</ele>
        <time>2020-05-22T14:05:34Z</time>
      </trkpt>
      <trkpt lat="48.69546" lon="7.22568">
        <ele>267.7</ele>
        <time>2020-05-22T14:05:36Z</time>
      </trkpt>
      <trkpt lat="48.69542" lon="7.22567">
        <ele>267.8</ele>
        <time>2020-05-22T14:06:09Z</time>
      </trkpt>
      <trkpt lat="48.69535" lon="7.22562">
        <ele>268</ele>
        <time>2020-05-22T14:06:11Z</time>
      </trkpt>
      <trkpt lat="48.69532" lon="7.22557">
        <ele>268.1</ele>
        <time>2020-05-22T14:06:12Z</time>
      </trkpt>
      <trkpt lat="48.69529" lon="7.22551">
        <ele>268.3</ele>
        <time>2020-05-22T14:06:13Z</time>
      </trkpt>
      <trkpt lat="48.69522" lon="7.22539">
        <ele>268.8</ele>
        <time>2020-05-22T14:06:15Z</time>
      </trkpt>
      <trkpt lat="48.69513" lon="7.22537">
        <ele>269.2</ele>
        <time>2020-05-22T14:06:17Z</time>
      </trkpt>
      <trkpt lat="48.69511" lon="7.22538">
        <ele>269.2</ele>
        <time>2020-05-22T14:06:19Z</time>
      </trkpt>
      <trkpt lat="48.69511" lon="7.22539">
        <ele>269.2</ele>
        <time>2020-05-22T14:06:20Z</time>
      </trkpt>
      <trkpt lat="48.69511" lon="7.2254">
        <ele>269.2</ele>
        <time>2020-05-22T14:06:22Z</time>
      </trkpt>
      <trkpt lat="48.69511" lon="7.22541">
        <ele>269.2</ele>
        <time>2020-05-22T14:06:23Z</time>
      </trkpt>
      <trkpt lat="48.69511" lon="7.22541">
        <ele>269.2</ele>
        <time>2020-05-22T14:06:25Z</time>
      </trkpt>
      <trkpt lat="48.69511" lon="7.22541">
        <ele>269.2</ele>
        <time>2020-05-22T14:06:26Z</time>
      </trkpt>
      <trkpt lat="48.69511" lon="7.22541">
        <ele>269.2</ele>
        <time>2020-05-22T14:06:28Z</time>
      </trkpt>
      <trkpt lat="48.69511" lon="7.22541">
        <ele>269.2</ele>
        <time>2020-05-22T14:06:29Z</time>
      </trkpt>
      <trkpt lat="48.6951" lon="7.22541">
        <ele>269.2</ele>
        <time>2020-05-22T14:06:30Z</time>
      </trkpt>
      <trkpt lat="48.6951" lon="7.22543">
        <ele>269.2</ele>
        <time>2020-05-22T14:06:32Z</time>
      </trkpt>
      <trkpt lat="48.69511" lon="7.22544">
        <ele>269.2</ele>
        <time>2020-05-22T14:06:33Z</time>
      </trkpt>
      <trkpt lat="48.6951" lon="7.22543">
        <ele>269.2</ele>
        <time>2020-05-22T14:06:35Z</time>
      </trkpt>
      <trkpt lat="48.6951" lon="7.22543">
        <ele>269.2</ele>
        <time>2020-05-22T14:06:36Z</time>
      </trkpt>
      <trkpt lat="48.69511" lon="7.22546">
        <ele>269.4</ele>
        <time>2020-05-22T14:06:38Z</time>
      </trkpt>
      <trkpt lat="48.6951" lon="7.22546">
        <ele>269.4</ele>
        <time>2020-05-22T14:06:39Z</time>
      </trkpt>
      <trkpt lat="48.6951" lon="7.2255">
        <ele>269.5</ele>
        <time>2020-05-22T14:06:40Z</time>
      </trkpt>
      <trkpt lat="48.6951" lon="7.22554">
        <ele>269.6</ele>
        <time>2020-05-22T14:06:41Z</time>
      </trkpt>
      <trkpt lat="48.69509" lon="7.22562">
        <ele>269.8</ele>
        <time>2020-05-22T14:06:43Z</time>
      </trkpt>
      <trkpt lat="48.69508" lon="7.22566">
        <ele>270</ele>
        <time>2020-05-22T14:06:44Z</time>
      </trkpt>
      <trkpt lat="48.69508" lon="7.22574">
        <ele>270.2</ele>
        <time>2020-05-22T14:06:46Z</time>
      </trkpt>
      <trkpt lat="48.69508" lon="7.22581">
        <ele>270.5</ele>
        <time>2020-05-22T14:06:48Z</time>
      </trkpt>
      <trkpt lat="48.69509" lon="7.22586">
        <ele>270.7</ele>
        <time>2020-05-22T14:06:49Z</time>
      </trkpt>
      <trkpt lat="48.69509" lon="7.22588">
        <ele>270.8</ele>
        <time>2020-05-22T14:06:50Z</time>
      </trkpt>
      <trkpt lat="48.69511" lon="7.22592">
        <ele>270.9</ele>
        <time>2020-05-22T14:06:51Z</time>
      </trkpt>
      <trkpt lat="48.69511" lon="7.22594">
        <ele>271</ele>
        <time>2020-05-22T14:06:52Z</time>
      </trkpt>
      <trkpt lat="48.69511" lon="7.226">
        <ele>271.2</ele>
        <time>2020-05-22T14:06:54Z</time>
      </trkpt>
      <trkpt lat="48.69511" lon="7.22604">
        <ele>271.3</ele>
        <time>2020-05-22T14:06:55Z</time>
      </trkpt>
      <trkpt lat="48.69511" lon="7.22608">
        <ele>271.5</ele>
        <time>2020-05-22T14:06:57Z</time>
      </trkpt>
      <trkpt lat="48.69511" lon="7.2261">
        <ele>271.6</ele>
        <time>2020-05-22T14:06:58Z</time>
      </trkpt>
      <trkpt lat="48.6951" lon="7.22615">
        <ele>271.8</ele>
        <time>2020-05-22T14:07:00Z</time>
      </trkpt>
      <trkpt lat="48.69509" lon="7.22618">
        <ele>271.9</ele>
        <time>2020-05-22T14:07:02Z</time>
      </trkpt>
      <trkpt lat="48.69509" lon="7.22618">
        <ele>271.9</ele>
        <time>2020-05-22T14:07:03Z</time>
      </trkpt>
      <trkpt lat="48.6951" lon="7.22619">
        <ele>272</ele>
        <time>2020-05-22T14:07:05Z</time>
      </trkpt>
      <trkpt lat="48.6951" lon="7.22619">
        <ele>272</ele>
        <time>2020-05-22T14:07:06Z</time>
      </trkpt>
      <trkpt lat="48.6951" lon="7.22619">
        <ele>272</ele>
        <time>2020-05-22T14:07:07Z</time>
      </trkpt>
      <trkpt lat="48.6951" lon="7.2262">
        <ele>272</ele>
        <time>2020-05-22T14:07:09Z</time>
      </trkpt>
      <trkpt lat="48.6951" lon="7.22621">
        <ele>272.1</ele>
        <time>2020-05-22T14:07:11Z</time>
      </trkpt>
      <trkpt lat="48.6951" lon="7.22621">
        <ele>272.1</ele>
        <time>2020-05-22T14:07:13Z</time>
      </trkpt>
      <trkpt lat="48.6951" lon="7.22621">
        <ele>272.1</ele>
        <time>2020-05-22T14:07:15Z</time>
      </trkpt>
      <trkpt lat="48.6951" lon="7.22621">
        <ele>272.1</ele>
        <time>2020-05-22T14:07:16Z</time>
      </trkpt>
      <trkpt lat="48.6951" lon="7.22621">
        <ele>272.1</ele>
        <time>2020-05-22T14:07:18Z</time>
      </trkpt>
      <trkpt lat="48.6951" lon="7.22621">
        <ele>272.1</ele>
        <time>2020-05-22T14:07:19Z</time>
      </trkpt>
      <trkpt lat="48.6951" lon="7.22621">
        <ele>272.1</ele>
        <time>2020-05-22T14:07:21Z</time>
      </trkpt>
      <trkpt lat="48.69509" lon="7.22625">
        <ele>272.3</ele>
        <time>2020-05-22T14:07:40Z</time>
      </trkpt>
      <trkpt lat="48.69509" lon="7.22627">
        <ele>272.4</ele>
        <time>2020-05-22T14:07:41Z</time>
      </trkpt>
      <trkpt lat="48.69509" lon="7.2263">
        <ele>272.5</ele>
        <time>2020-05-22T14:07:42Z</time>
      </trkpt>
      <trkpt lat="48.69509" lon="7.22634">
        <ele>272.8</ele>
        <time>2020-05-22T14:07:44Z</time>
      </trkpt>
      <trkpt lat="48.69511" lon="7.22641">
        <ele>273.1</ele>
        <time>2020-05-22T14:07:46Z</time>
      </trkpt>
      <trkpt lat="48.69511" lon="7.22646">
        <ele>273.5</ele>
        <time>2020-05-22T14:07:48Z</time>
      </trkpt>
      <trkpt lat="48.6951" lon="7.2265">
        <ele>273.7</ele>
        <time>2020-05-22T14:07:49Z</time>
      </trkpt>
      <trkpt lat="48.6951" lon="7.22656">
        <ele>274.1</ele>
        <time>2020-05-22T14:07:51Z</time>
      </trkpt>
      <trkpt lat="48.69509" lon="7.22662">
        <ele>274.5</ele>
        <time>2020-05-22T14:07:53Z</time>
      </trkpt>
      <trkpt lat="48.6951" lon="7.22665">
        <ele>274.6</ele>
        <time>2020-05-22T14:07:54Z</time>
      </trkpt>
      <trkpt lat="48.69511" lon="7.2267">
        <ele>275</ele>
        <time>2020-05-22T14:07:56Z</time>
      </trkpt>
      <trkpt lat="48.69512" lon="7.22675">
        <ele>275.3</ele>
        <time>2020-05-22T14:07:58Z</time>
      </trkpt>
      <trkpt lat="48.69513" lon="7.2268">
        <ele>275.6</ele>
        <time>2020-05-22T14:08:00Z</time>
      </trkpt>
      <trkpt lat="48.69513" lon="7.22683">
        <ele>275.8</ele>
        <time>2020-05-22T14:08:01Z</time>
      </trkpt>
      <trkpt lat="48.69513" lon="7.22688">
        <ele>276.1</ele>
        <time>2020-05-22T14:08:03Z</time>
      </trkpt>
      <trkpt lat="48.69513" lon="7.22692">
        <ele>276.3</ele>
        <time>2020-05-22T14:08:04Z</time>
      </trkpt>
      <trkpt lat="48.69511" lon="7.22698">
        <ele>276.7</ele>
        <time>2020-05-22T14:08:06Z</time>
      </trkpt>
      <trkpt lat="48.6951" lon="7.22705">
        <ele>277.1</ele>
        <time>2020-05-22T14:08:08Z</time>
      </trkpt>
      <trkpt lat="48.69509" lon="7.22709">
        <ele>277.3</ele>
        <time>2020-05-22T14:08:09Z</time>
      </trkpt>
      <trkpt lat="48.69508" lon="7.22714">
        <ele>277.6</ele>
        <time>2020-05-22T14:08:11Z</time>
      </trkpt>
      <trkpt lat="48.69507" lon="7.2272">
        <ele>277.9</ele>
        <time>2020-05-22T14:08:13Z</time>
      </trkpt>
      <trkpt lat="48.69506" lon="7.22723">
        <ele>278</ele>
        <time>2020-05-22T14:08:14Z</time>
      </trkpt>
      <trkpt lat="48.69505" lon="7.22729">
        <ele>278.3</ele>
        <time>2020-05-22T14:08:16Z</time>
      </trkpt>
      <trkpt lat="48.69505" lon="7.22735">
        <ele>278.5</ele>
        <time>2020-05-22T14:08:18Z</time>
      </trkpt>
      <trkpt lat="48.69505" lon="7.22738">
        <ele>278.7</ele>
        <time>2020-05-22T14:08:19Z</time>
      </trkpt>
      <trkpt lat="48.69506" lon="7.22745">
        <ele>278.9</ele>
        <time>2020-05-22T14:08:21Z</time>
      </trkpt>
      <trkpt lat="48.69505" lon="7.22753">
        <ele>279.3</ele>
        <time>2020-05-22T14:08:23Z</time>
      </trkpt>
      <trkpt lat="48.69504" lon="7.2276">
        <ele>279.5</ele>
        <time>2020-05-22T14:08:25Z</time>
      </trkpt>
      <trkpt lat="48.69503" lon="7.22763">
        <ele>279.7</ele>
        <time>2020-05-22T14:08:26Z</time>
      </trkpt>
      <trkpt lat="48.69502" lon="7.22768">
        <ele>279.9</ele>
        <time>2020-05-22T14:08:28Z</time>
      </trkpt>
      <trkpt lat="48.695" lon="7.22774">
        <ele>280.1</ele>
        <time>2020-05-22T14:08:30Z</time>
      </trkpt>
      <trkpt lat="48.69499" lon="7.22781">
        <ele>280.4</ele>
        <time>2020-05-22T14:08:32Z</time>
      </trkpt>
      <trkpt lat="48.69498" lon="7.22787">
        <ele>280.6</ele>
        <time>2020-05-22T14:08:34Z</time>
      </trkpt>
      <trkpt lat="48.69497" lon="7.22789">
        <ele>280.7</ele>
        <time>2020-05-22T14:08:35Z</time>
      </trkpt>
      <trkpt lat="48.69496" lon="7.22795">
        <ele>280.9</ele>
        <time>2020-05-22T14:08:37Z</time>
      </trkpt>
      <trkpt lat="48.69495" lon="7.22798">
        <ele>281.1</ele>
        <time>2020-05-22T14:08:38Z</time>
      </trkpt>
      <trkpt lat="48.69493" lon="7.22804">
        <ele>281.3</ele>
        <time>2020-05-22T14:08:40Z</time>
      </trkpt>
      <trkpt lat="48.69492" lon="7.22807">
        <ele>281.4</ele>
        <time>2020-05-22T14:08:41Z</time>
      </trkpt>
      <trkpt lat="48.69491" lon="7.22813">
        <ele>281.6</ele>
        <time>2020-05-22T14:08:43Z</time>
      </trkpt>
      <trkpt lat="48.69491" lon="7.22819">
        <ele>281.7</ele>
        <time>2020-05-22T14:08:45Z</time>
      </trkpt>
      <trkpt lat="48.6949" lon="7.22825">
        <ele>281.9</ele>
        <time>2020-05-22T14:08:47Z</time>
      </trkpt>
      <trkpt lat="48.6949" lon="7.22828">
        <ele>281.9</ele>
        <time>2020-05-22T14:08:48Z</time>
      </trkpt>
      <trkpt lat="48.69491" lon="7.22835">
        <ele>282.1</ele>
        <time>2020-05-22T14:08:50Z</time>
      </trkpt>
      <trkpt lat="48.69492" lon="7.2284">
        <ele>282.2</ele>
        <time>2020-05-22T14:08:52Z</time>
      </trkpt>
      <trkpt lat="48.69492" lon="7.22843">
        <ele>282.2</ele>
        <time>2020-05-22T14:08:53Z</time>
      </trkpt>
      <trkpt lat="48.69493" lon="7.22849">
        <ele>282.4</ele>
        <time>2020-05-22T14:08:55Z</time>
      </trkpt>
      <trkpt lat="48.69493" lon="7.22852">
        <ele>282.5</ele>
        <time>2020-05-22T14:08:56Z</time>
      </trkpt>
      <trkpt lat="48.69494" lon="7.22857">
        <ele>282.6</ele>
        <time>2020-05-22T14:08:58Z</time>
      </trkpt>
      <trkpt lat="48.69495" lon="7.2286">
        <ele>282.7</ele>
        <time>2020-05-22T14:08:59Z</time>
      </trkpt>
      <trkpt lat="48.69494" lon="7.22862">
        <ele>282.8</ele>
        <time>2020-05-22T14:09:00Z</time>
      </trkpt>
      <trkpt lat="48.69494" lon="7.22864">
        <ele>282.9</ele>
        <time>2020-05-22T14:09:01Z</time>
      </trkpt>
      <trkpt lat="48.69494" lon="7.22866">
        <ele>282.9</ele>
        <time>2020-05-22T14:09:02Z</time>
      </trkpt>
      <trkpt lat="48.69494" lon="7.22872">
        <ele>283.1</ele>
        <time>2020-05-22T14:09:04Z</time>
      </trkpt>
      <trkpt lat="48.69491" lon="7.22878">
        <ele>283.4</ele>
        <time>2020-05-22T14:09:06Z</time>
      </trkpt>
      <trkpt lat="48.69489" lon="7.22884">
        <ele>283.6</ele>
        <time>2020-05-22T14:09:08Z</time>
      </trkpt>
      <trkpt lat="48.69489" lon="7.22889">
        <ele>283.7</ele>
        <time>2020-05-22T14:09:09Z</time>
      </trkpt>
      <trkpt lat="48.69489" lon="7.2289">
        <ele>283.8</ele>
        <time>2020-05-22T14:09:10Z</time>
      </trkpt>
      <trkpt lat="48.69489" lon="7.22893">
        <ele>283.8</ele>
        <time>2020-05-22T14:09:11Z</time>
      </trkpt>
      <trkpt lat="48.69489" lon="7.22899">
        <ele>283.9</ele>
        <time>2020-05-22T14:09:13Z</time>
      </trkpt>
      <trkpt lat="48.69489" lon="7.22902">
        <ele>283.9</ele>
        <time>2020-05-22T14:09:14Z</time>
      </trkpt>
      <trkpt lat="48.6949" lon="7.22909">
        <ele>284</ele>
        <time>2020-05-22T14:09:16Z</time>
      </trkpt>
      <trkpt lat="48.69488" lon="7.22916">
        <ele>284.2</ele>
        <time>2020-05-22T14:09:18Z</time>
      </trkpt>
      <trkpt lat="48.69487" lon="7.22922">
        <ele>284.4</ele>
        <time>2020-05-22T14:09:20Z</time>
      </trkpt>
      <trkpt lat="48.69486" lon="7.22927">
        <ele>284.5</ele>
        <time>2020-05-22T14:09:21Z</time>
      </trkpt>
      <trkpt lat="48.69486" lon="7.22929">
        <ele>284.6</ele>
        <time>2020-05-22T14:09:22Z</time>
      </trkpt>
      <trkpt lat="48.69485" lon="7.22932">
        <ele>284.6</ele>
        <time>2020-05-22T14:09:23Z</time>
      </trkpt>
      <trkpt lat="48.69484" lon="7.22938">
        <ele>284.8</ele>
        <time>2020-05-22T14:09:25Z</time>
      </trkpt>
      <trkpt lat="48.69483" lon="7.22943">
        <ele>284.9</ele>
        <time>2020-05-22T14:09:26Z</time>
      </trkpt>
      <trkpt lat="48.69482" lon="7.22944">
        <ele>285</ele>
        <time>2020-05-22T14:09:27Z</time>
      </trkpt>
      <trkpt lat="48.69481" lon="7.22949">
        <ele>285.1</ele>
        <time>2020-05-22T14:09:29Z</time>
      </trkpt>
      <trkpt lat="48.69478" lon="7.22955">
        <ele>285.3</ele>
        <time>2020-05-22T14:09:31Z</time>
      </trkpt>
      <trkpt lat="48.69478" lon="7.22957">
        <ele>285.3</ele>
        <time>2020-05-22T14:09:32Z</time>
      </trkpt>
      <trkpt lat="48.69477" lon="7.22961">
        <ele>285.4</ele>
        <time>2020-05-22T14:09:34Z</time>
      </trkpt>
      <trkpt lat="48.69476" lon="7.22964">
        <ele>285.5</ele>
        <time>2020-05-22T14:09:35Z</time>
      </trkpt>
      <trkpt lat="48.69475" lon="7.22971">
        <ele>285.6</ele>
        <time>2020-05-22T14:09:37Z</time>
      </trkpt>
      <trkpt lat="48.69472" lon="7.22976">
        <ele>285.8</ele>
        <time>2020-05-22T14:09:39Z</time>
      </trkpt>
      <trkpt lat="48.69471" lon="7.22979">
        <ele>285.9</ele>
        <time>2020-05-22T14:09:40Z</time>
      </trkpt>
      <trkpt lat="48.69469" lon="7.22985">
        <ele>286.1</ele>
        <time>2020-05-22T14:09:42Z</time>
      </trkpt>
      <trkpt lat="48.69469" lon="7.22989">
        <ele>286.2</ele>
        <time>2020-05-22T14:09:43Z</time>
      </trkpt>
      <trkpt lat="48.69469" lon="7.22991">
        <ele>286.2</ele>
        <time>2020-05-22T14:09:44Z</time>
      </trkpt>
      <trkpt lat="48.69469" lon="7.22995">
        <ele>286.3</ele>
        <time>2020-05-22T14:09:45Z</time>
      </trkpt>
      <trkpt lat="48.69469" lon="7.22997">
        <ele>286.4</ele>
        <time>2020-05-22T14:09:46Z</time>
      </trkpt>
      <trkpt lat="48.69469" lon="7.23001">
        <ele>286.5</ele>
        <time>2020-05-22T14:09:47Z</time>
      </trkpt>
      <trkpt lat="48.69468" lon="7.23008">
        <ele>286.7</ele>
        <time>2020-05-22T14:09:49Z</time>
      </trkpt>
      <trkpt lat="48.69468" lon="7.23011">
        <ele>286.7</ele>
        <time>2020-05-22T14:09:50Z</time>
      </trkpt>
      <trkpt lat="48.69468" lon="7.23018">
        <ele>287</ele>
        <time>2020-05-22T14:09:52Z</time>
      </trkpt>
      <trkpt lat="48.69469" lon="7.23025">
        <ele>287.2</ele>
        <time>2020-05-22T14:09:54Z</time>
      </trkpt>
      <trkpt lat="48.69469" lon="7.23031">
        <ele>287.4</ele>
        <time>2020-05-22T14:09:55Z</time>
      </trkpt>
      <trkpt lat="48.69469" lon="7.23032">
        <ele>287.5</ele>
        <time>2020-05-22T14:09:56Z</time>
      </trkpt>
      <trkpt lat="48.69469" lon="7.23038">
        <ele>287.7</ele>
        <time>2020-05-22T14:09:58Z</time>
      </trkpt>
      <trkpt lat="48.69469" lon="7.23044">
        <ele>288</ele>
        <time>2020-05-22T14:10:00Z</time>
      </trkpt>
      <trkpt lat="48.69468" lon="7.23047">
        <ele>288.1</ele>
        <time>2020-05-22T14:10:01Z</time>
      </trkpt>
      <trkpt lat="48.69467" lon="7.23052">
        <ele>288.3</ele>
        <time>2020-05-22T14:10:03Z</time>
      </trkpt>
      <trkpt lat="48.69465" lon="7.23058">
        <ele>288.6</ele>
        <time>2020-05-22T14:10:05Z</time>
      </trkpt>
      <trkpt lat="48.69464" lon="7.23063">
        <ele>288.8</ele>
        <time>2020-05-22T14:10:06Z</time>
      </trkpt>
      <trkpt lat="48.69463" lon="7.23064">
        <ele>288.9</ele>
        <time>2020-05-22T14:10:07Z</time>
      </trkpt>
      <trkpt lat="48.69462" lon="7.23069">
        <ele>289.1</ele>
        <time>2020-05-22T14:10:09Z</time>
      </trkpt>
      <trkpt lat="48.69461" lon="7.23075">
        <ele>289.4</ele>
        <time>2020-05-22T14:10:11Z</time>
      </trkpt>
      <trkpt lat="48.6946" lon="7.23081">
        <ele>289.6</ele>
        <time>2020-05-22T14:10:13Z</time>
      </trkpt>
      <trkpt lat="48.69459" lon="7.23087">
        <ele>289.9</ele>
        <time>2020-05-22T14:10:15Z</time>
      </trkpt>
      <trkpt lat="48.69459" lon="7.23091">
        <ele>290.1</ele>
        <time>2020-05-22T14:10:17Z</time>
      </trkpt>
      <trkpt lat="48.69458" lon="7.23096">
        <ele>290.4</ele>
        <time>2020-05-22T14:10:19Z</time>
      </trkpt>
      <trkpt lat="48.69455" lon="7.23101">
        <ele>290.7</ele>
        <time>2020-05-22T14:10:21Z</time>
      </trkpt>
      <trkpt lat="48.69453" lon="7.23103">
        <ele>290.8</ele>
        <time>2020-05-22T14:10:22Z</time>
      </trkpt>
      <trkpt lat="48.69451" lon="7.23108">
        <ele>291</ele>
        <time>2020-05-22T14:10:24Z</time>
      </trkpt>
      <trkpt lat="48.69449" lon="7.23113">
        <ele>291.2</ele>
        <time>2020-05-22T14:10:25Z</time>
      </trkpt>
      <trkpt lat="48.69449" lon="7.23115">
        <ele>291.2</ele>
        <time>2020-05-22T14:10:26Z</time>
      </trkpt>
      <trkpt lat="48.69447" lon="7.23119">
        <ele>291.3</ele>
        <time>2020-05-22T14:10:27Z</time>
      </trkpt>
      <trkpt lat="48.69443" lon="7.23125">
        <ele>291.4</ele>
        <time>2020-05-22T14:10:29Z</time>
      </trkpt>
      <trkpt lat="48.6944" lon="7.23128">
        <ele>291.5</ele>
        <time>2020-05-22T14:10:30Z</time>
      </trkpt>
      <trkpt lat="48.69436" lon="7.23134">
        <ele>291.6</ele>
        <time>2020-05-22T14:10:32Z</time>
      </trkpt>
      <trkpt lat="48.69431" lon="7.23143">
        <ele>291.6</ele>
        <time>2020-05-22T14:10:34Z</time>
      </trkpt>
      <trkpt lat="48.69426" lon="7.23153">
        <ele>291.6</ele>
        <time>2020-05-22T14:10:36Z</time>
      </trkpt>
      <trkpt lat="48.69421" lon="7.23164">
        <ele>291.5</ele>
        <time>2020-05-22T14:10:38Z</time>
      </trkpt>
      <trkpt lat="48.69417" lon="7.23171">
        <ele>291.4</ele>
        <time>2020-05-22T14:10:39Z</time>
      </trkpt>
      <trkpt lat="48.69411" lon="7.23186">
        <ele>291.2</ele>
        <time>2020-05-22T14:10:41Z</time>
      </trkpt>
      <trkpt lat="48.69408" lon="7.23197">
        <ele>291.1</ele>
        <time>2020-05-22T14:10:43Z</time>
      </trkpt>
      <trkpt lat="48.69405" lon="7.23203">
        <ele>291.1</ele>
        <time>2020-05-22T14:10:44Z</time>
      </trkpt>
      <trkpt lat="48.694" lon="7.23214">
        <ele>290.9</ele>
        <time>2020-05-22T14:10:46Z</time>
      </trkpt>
      <trkpt lat="48.69393" lon="7.23223">
        <ele>290.8</ele>
        <time>2020-05-22T14:10:48Z</time>
      </trkpt>
      <trkpt lat="48.6939" lon="7.23228">
        <ele>290.7</ele>
        <time>2020-05-22T14:10:49Z</time>
      </trkpt>
      <trkpt lat="48.69385" lon="7.23237">
        <ele>290.7</ele>
        <time>2020-05-22T14:10:51Z</time>
      </trkpt>
      <trkpt lat="48.6938" lon="7.23248">
        <ele>290.6</ele>
        <time>2020-05-22T14:10:53Z</time>
      </trkpt>
      <trkpt lat="48.69375" lon="7.2326">
        <ele>290.4</ele>
        <time>2020-05-22T14:10:55Z</time>
      </trkpt>
      <trkpt lat="48.6937" lon="7.23272">
        <ele>290.3</ele>
        <time>2020-05-22T14:10:57Z</time>
      </trkpt>
      <trkpt lat="48.69368" lon="7.23279">
        <ele>290.3</ele>
        <time>2020-05-22T14:10:58Z</time>
      </trkpt>
      <trkpt lat="48.69363" lon="7.23292">
        <ele>290.2</ele>
        <time>2020-05-22T14:11:00Z</time>
      </trkpt>
      <trkpt lat="48.6936" lon="7.23298">
        <ele>290.2</ele>
        <time>2020-05-22T14:11:01Z</time>
      </trkpt>
      <trkpt lat="48.69355" lon="7.2331">
        <ele>290.1</ele>
        <time>2020-05-22T14:11:03Z</time>
      </trkpt>
      <trkpt lat="48.6935" lon="7.23321">
        <ele>289.9</ele>
        <time>2020-05-22T14:11:05Z</time>
      </trkpt>
      <trkpt lat="48.69343" lon="7.23333">
        <ele>289.7</ele>
        <time>2020-05-22T14:11:07Z</time>
      </trkpt>
      <trkpt lat="48.69337" lon="7.23344">
        <ele>289.5</ele>
        <time>2020-05-22T14:11:09Z</time>
      </trkpt>
      <trkpt lat="48.69335" lon="7.2335">
        <ele>289.5</ele>
        <time>2020-05-22T14:11:10Z</time>
      </trkpt>
      <trkpt lat="48.6933" lon="7.23362">
        <ele>289.3</ele>
        <time>2020-05-22T14:11:12Z</time>
      </trkpt>
      <trkpt lat="48.69327" lon="7.23369">
        <ele>289.3</ele>
        <time>2020-05-22T14:11:13Z</time>
      </trkpt>
      <trkpt lat="48.69323" lon="7.23383">
        <ele>289.2</ele>
        <time>2020-05-22T14:11:15Z</time>
      </trkpt>
      <trkpt lat="48.69317" lon="7.23394">
        <ele>289.1</ele>
        <time>2020-05-22T14:11:17Z</time>
      </trkpt>
      <trkpt lat="48.69314" lon="7.234">
        <ele>289.1</ele>
        <time>2020-05-22T14:11:18Z</time>
      </trkpt>
      <trkpt lat="48.69309" lon="7.23411">
        <ele>289</ele>
        <time>2020-05-22T14:11:20Z</time>
      </trkpt>
      <trkpt lat="48.69307" lon="7.23418">
        <ele>289</ele>
        <time>2020-05-22T14:11:21Z</time>
      </trkpt>
      <trkpt lat="48.69303" lon="7.23431">
        <ele>289</ele>
        <time>2020-05-22T14:11:23Z</time>
      </trkpt>
      <trkpt lat="48.69297" lon="7.23442">
        <ele>288.9</ele>
        <time>2020-05-22T14:11:25Z</time>
      </trkpt>
      <trkpt lat="48.69293" lon="7.23448">
        <ele>288.9</ele>
        <time>2020-05-22T14:11:26Z</time>
      </trkpt>
      <trkpt lat="48.69289" lon="7.23454">
        <ele>288.8</ele>
        <time>2020-05-22T14:11:27Z</time>
      </trkpt>
      <trkpt lat="48.69281" lon="7.23467">
        <ele>288.6</ele>
        <time>2020-05-22T14:11:29Z</time>
      </trkpt>
      <trkpt lat="48.69277" lon="7.23473">
        <ele>288.6</ele>
        <time>2020-05-22T14:11:30Z</time>
      </trkpt>
      <trkpt lat="48.69271" lon="7.23486">
        <ele>288.4</ele>
        <time>2020-05-22T14:11:32Z</time>
      </trkpt>
      <trkpt lat="48.69268" lon="7.23494">
        <ele>288.4</ele>
        <time>2020-05-22T14:11:33Z</time>
      </trkpt>
      <trkpt lat="48.69265" lon="7.23501">
        <ele>288.3</ele>
        <time>2020-05-22T14:11:34Z</time>
      </trkpt>
      <trkpt lat="48.69261" lon="7.23513">
        <ele>288.3</ele>
        <time>2020-05-22T14:11:36Z</time>
      </trkpt>
      <trkpt lat="48.69258" lon="7.2352">
        <ele>288.3</ele>
        <time>2020-05-22T14:11:37Z</time>
      </trkpt>
      <trkpt lat="48.69254" lon="7.23532">
        <ele>288.4</ele>
        <time>2020-05-22T14:11:39Z</time>
      </trkpt>
      <trkpt lat="48.69249" lon="7.23542">
        <ele>288.4</ele>
        <time>2020-05-22T14:11:41Z</time>
      </trkpt>
      <trkpt lat="48.69243" lon="7.23554">
        <ele>288.4</ele>
        <time>2020-05-22T14:11:43Z</time>
      </trkpt>
      <trkpt lat="48.69239" lon="7.23561">
        <ele>288.4</ele>
        <time>2020-05-22T14:11:45Z</time>
      </trkpt>
      <trkpt lat="48.69239" lon="7.23561">
        <ele>288.4</ele>
        <time>2020-05-22T14:11:47Z</time>
      </trkpt>
      <trkpt lat="48.69239" lon="7.23561">
        <ele>288.4</ele>
        <time>2020-05-22T14:11:49Z</time>
      </trkpt>
      <trkpt lat="48.69239" lon="7.23561">
        <ele>288.4</ele>
        <time>2020-05-22T14:11:51Z</time>
      </trkpt>
      <trkpt lat="48.69239" lon="7.23561">
        <ele>288.4</ele>
        <time>2020-05-22T14:11:52Z</time>
      </trkpt>
      <trkpt lat="48.69239" lon="7.23561">
        <ele>288.4</ele>
        <time>2020-05-22T14:11:54Z</time>
      </trkpt>
      <trkpt lat="48.69239" lon="7.23561">
        <ele>288.4</ele>
        <time>2020-05-22T14:11:56Z</time>
      </trkpt>
      <trkpt lat="48.69237" lon="7.23566">
        <ele>288.4</ele>
        <time>2020-05-22T14:12:19Z</time>
      </trkpt>
      <trkpt lat="48.69233" lon="7.23571">
        <ele>288.3</ele>
        <time>2020-05-22T14:12:21Z</time>
      </trkpt>
      <trkpt lat="48.69229" lon="7.23577">
        <ele>288.2</ele>
        <time>2020-05-22T14:12:23Z</time>
      </trkpt>
      <trkpt lat="48.69225" lon="7.23586">
        <ele>288.2</ele>
        <time>2020-05-22T14:12:25Z</time>
      </trkpt>
      <trkpt lat="48.69223" lon="7.23591">
        <ele>288.2</ele>
        <time>2020-05-22T14:12:26Z</time>
      </trkpt>
      <trkpt lat="48.69222" lon="7.23595">
        <ele>288.2</ele>
        <time>2020-05-22T14:12:27Z</time>
      </trkpt>
      <trkpt lat="48.69217" lon="7.23605">
        <ele>288.2</ele>
        <time>2020-05-22T14:12:29Z</time>
      </trkpt>
      <trkpt lat="48.69213" lon="7.23613">
        <ele>288.1</ele>
        <time>2020-05-22T14:12:31Z</time>
      </trkpt>
      <trkpt lat="48.69211" lon="7.23617">
        <ele>288.1</ele>
        <time>2020-05-22T14:12:32Z</time>
      </trkpt>
      <trkpt lat="48.69209" lon="7.23622">
        <ele>288.1</ele>
        <time>2020-05-22T14:12:33Z</time>
      </trkpt>
      <trkpt lat="48.69207" lon="7.23626">
        <ele>288.1</ele>
        <time>2020-05-22T14:12:34Z</time>
      </trkpt>
      <trkpt lat="48.69204" lon="7.23631">
        <ele>288.2</ele>
        <time>2020-05-22T14:12:36Z</time>
      </trkpt>
      <trkpt lat="48.69201" lon="7.23634">
        <ele>288.2</ele>
        <time>2020-05-22T14:12:37Z</time>
      </trkpt>
      <trkpt lat="48.69197" lon="7.23639">
        <ele>288.3</ele>
        <time>2020-05-22T14:12:39Z</time>
      </trkpt>
      <trkpt lat="48.69192" lon="7.23645">
        <ele>288.4</ele>
        <time>2020-05-22T14:12:41Z</time>
      </trkpt>
      <trkpt lat="48.69189" lon="7.23653">
        <ele>288.5</ele>
        <time>2020-05-22T14:12:43Z</time>
      </trkpt>
      <trkpt lat="48.69186" lon="7.23658">
        <ele>288.6</ele>
        <time>2020-05-22T14:12:44Z</time>
      </trkpt>
      <trkpt lat="48.69184" lon="7.23662">
        <ele>288.7</ele>
        <time>2020-05-22T14:12:45Z</time>
      </trkpt>
      <trkpt lat="48.6918" lon="7.2367">
        <ele>288.9</ele>
        <time>2020-05-22T14:12:47Z</time>
      </trkpt>
      <trkpt lat="48.69178" lon="7.23675">
        <ele>289</ele>
        <time>2020-05-22T14:12:48Z</time>
      </trkpt>
      <trkpt lat="48.69174" lon="7.23686">
        <ele>288.9</ele>
        <time>2020-05-22T14:12:50Z</time>
      </trkpt>
      <trkpt lat="48.69171" lon="7.23698">
        <ele>287.7</ele>
        <time>2020-05-22T14:12:52Z</time>
      </trkpt>
      <trkpt lat="48.69169" lon="7.23704">
        <ele>286.3</ele>
        <time>2020-05-22T14:12:53Z</time>
      </trkpt>
      <trkpt lat="48.69168" lon="7.23709">
        <ele>284.4</ele>
        <time>2020-05-22T14:12:54Z</time>
      </trkpt>
      <trkpt lat="48.69167" lon="7.23715">
        <ele>281.9</ele>
        <time>2020-05-22T14:12:55Z</time>
      </trkpt>
      <trkpt lat="48.69166" lon="7.23721">
        <ele>282</ele>
        <time>2020-05-22T14:12:56Z</time>
      </trkpt>
      <trkpt lat="48.69165" lon="7.23732">
        <ele>282.2</ele>
        <time>2020-05-22T14:12:58Z</time>
      </trkpt>
      <trkpt lat="48.69165" lon="7.23742">
        <ele>282.2</ele>
        <time>2020-05-22T14:13:00Z</time>
      </trkpt>
      <trkpt lat="48.69165" lon="7.23746">
        <ele>282.2</ele>
        <time>2020-05-22T14:13:01Z</time>
      </trkpt>
      <trkpt lat="48.69164" lon="7.23747">
        <ele>282.2</ele>
        <time>2020-05-22T14:13:03Z</time>
      </trkpt>
      <trkpt lat="48.69162" lon="7.23746">
        <ele>282.2</ele>
        <time>2020-05-22T14:13:05Z</time>
      </trkpt>
      <trkpt lat="48.69161" lon="7.23744">
        <ele>282.2</ele>
        <time>2020-05-22T14:13:06Z</time>
      </trkpt>
      <trkpt lat="48.69161" lon="7.23743">
        <ele>282.2</ele>
        <time>2020-05-22T14:13:07Z</time>
      </trkpt>
      <trkpt lat="48.69161" lon="7.23743">
        <ele>282.2</ele>
        <time>2020-05-22T14:13:08Z</time>
      </trkpt>
      <trkpt lat="48.69161" lon="7.23743">
        <ele>282.2</ele>
        <time>2020-05-22T14:13:09Z</time>
      </trkpt>
      <trkpt lat="48.69162" lon="7.23745">
        <ele>282.2</ele>
        <time>2020-05-22T14:13:11Z</time>
      </trkpt>
      <trkpt lat="48.69162" lon="7.23745">
        <ele>282.2</ele>
        <time>2020-05-22T14:13:12Z</time>
      </trkpt>
      <trkpt lat="48.69161" lon="7.23746">
        <ele>282.2</ele>
        <time>2020-05-22T14:13:14Z</time>
      </trkpt>
      <trkpt lat="48.69161" lon="7.23746">
        <ele>282.2</ele>
        <time>2020-05-22T14:13:16Z</time>
      </trkpt>
      <trkpt lat="48.69161" lon="7.23746">
        <ele>282.2</ele>
        <time>2020-05-22T14:13:17Z</time>
      </trkpt>
      <trkpt lat="48.69161" lon="7.23746">
        <ele>282.2</ele>
        <time>2020-05-22T14:13:19Z</time>
      </trkpt>
      <trkpt lat="48.69161" lon="7.23746">
        <ele>282.2</ele>
        <time>2020-05-22T14:13:20Z</time>
      </trkpt>
      <trkpt lat="48.69161" lon="7.23746">
        <ele>282.2</ele>
        <time>2020-05-22T14:13:22Z</time>
      </trkpt>
      <trkpt lat="48.6916" lon="7.23753">
        <ele>282.2</ele>
        <time>2020-05-22T14:14:18Z</time>
      </trkpt>
      <trkpt lat="48.6916" lon="7.23755">
        <ele>282.2</ele>
        <time>2020-05-22T14:14:19Z</time>
      </trkpt>
      <trkpt lat="48.69159" lon="7.23763">
        <ele>282.3</ele>
        <time>2020-05-22T14:14:21Z</time>
      </trkpt>
      <trkpt lat="48.69158" lon="7.23771">
        <ele>282.5</ele>
        <time>2020-05-22T14:14:23Z</time>
      </trkpt>
      <trkpt lat="48.69158" lon="7.23776">
        <ele>282.5</ele>
        <time>2020-05-22T14:14:24Z</time>
      </trkpt>
      <trkpt lat="48.69158" lon="7.23781">
        <ele>282.6</ele>
        <time>2020-05-22T14:14:25Z</time>
      </trkpt>
      <trkpt lat="48.69159" lon="7.23786">
        <ele>282.7</ele>
        <time>2020-05-22T14:14:26Z</time>
      </trkpt>
      <trkpt lat="48.69159" lon="7.23797">
        <ele>283</ele>
        <time>2020-05-22T14:14:28Z</time>
      </trkpt>
      <trkpt lat="48.69159" lon="7.23801">
        <ele>283.1</ele>
        <time>2020-05-22T14:14:29Z</time>
      </trkpt>
      <trkpt lat="48.69159" lon="7.23805">
        <ele>283.3</ele>
        <time>2020-05-22T14:14:30Z</time>
      </trkpt>
      <trkpt lat="48.6916" lon="7.23814">
        <ele>283.5</ele>
        <time>2020-05-22T14:14:32Z</time>
      </trkpt>
      <trkpt lat="48.6916" lon="7.2382">
        <ele>283.7</ele>
        <time>2020-05-22T14:14:34Z</time>
      </trkpt>
      <trkpt lat="48.69161" lon="7.23825">
        <ele>283.8</ele>
        <time>2020-05-22T14:14:35Z</time>
      </trkpt>
      <trkpt lat="48.69161" lon="7.23827">
        <ele>283.9</ele>
        <time>2020-05-22T14:14:36Z</time>
      </trkpt>
      <trkpt lat="48.69161" lon="7.23831">
        <ele>284</ele>
        <time>2020-05-22T14:14:37Z</time>
      </trkpt>
      <trkpt lat="48.69161" lon="7.23836">
        <ele>284.2</ele>
        <time>2020-05-22T14:14:39Z</time>
      </trkpt>
      <trkpt lat="48.69161" lon="7.23842">
        <ele>284.4</ele>
        <time>2020-05-22T14:14:41Z</time>
      </trkpt>
      <trkpt lat="48.69161" lon="7.2385">
        <ele>284.7</ele>
        <time>2020-05-22T14:14:43Z</time>
      </trkpt>
      <trkpt lat="48.69161" lon="7.23856">
        <ele>285</ele>
        <time>2020-05-22T14:14:45Z</time>
      </trkpt>
      <trkpt lat="48.69161" lon="7.23861">
        <ele>285.2</ele>
        <time>2020-05-22T14:14:46Z</time>
      </trkpt>
      <trkpt lat="48.69161" lon="7.23862">
        <ele>285.2</ele>
        <time>2020-05-22T14:14:47Z</time>
      </trkpt>
      <trkpt lat="48.6916" lon="7.23869">
        <ele>285.5</ele>
        <time>2020-05-22T14:14:49Z</time>
      </trkpt>
      <trkpt lat="48.69158" lon="7.23875">
        <ele>285.9</ele>
        <time>2020-05-22T14:14:51Z</time>
      </trkpt>
      <trkpt lat="48.69158" lon="7.2388">
        <ele>286.2</ele>
        <time>2020-05-22T14:14:53Z</time>
      </trkpt>
      <trkpt lat="48.69157" lon="7.23885">
        <ele>286.5</ele>
        <time>2020-05-22T14:14:55Z</time>
      </trkpt>
      <trkpt lat="48.69157" lon="7.23889">
        <ele>286.8</ele>
        <time>2020-05-22T14:14:57Z</time>
      </trkpt>
      <trkpt lat="48.69158" lon="7.23896">
        <ele>287.3</ele>
        <time>2020-05-22T14:14:59Z</time>
      </trkpt>
      <trkpt lat="48.6916" lon="7.23903">
        <ele>287.8</ele>
        <time>2020-05-22T14:15:01Z</time>
      </trkpt>
      <trkpt lat="48.6916" lon="7.23906">
        <ele>288</ele>
        <time>2020-05-22T14:15:02Z</time>
      </trkpt>
      <trkpt lat="48.6916" lon="7.23911">
        <ele>288.4</ele>
        <time>2020-05-22T14:15:04Z</time>
      </trkpt>
      <trkpt lat="48.6916" lon="7.23913">
        <ele>288.5</ele>
        <time>2020-05-22T14:15:05Z</time>
      </trkpt>
      <trkpt lat="48.69158" lon="7.23917">
        <ele>288.8</ele>
        <time>2020-05-22T14:15:07Z</time>
      </trkpt>
      <trkpt lat="48.69158" lon="7.23922">
        <ele>289</ele>
        <time>2020-05-22T14:15:09Z</time>
      </trkpt>
      <trkpt lat="48.69158" lon="7.23924">
        <ele>289.1</ele>
        <time>2020-05-22T14:15:10Z</time>
      </trkpt>
      <trkpt lat="48.69158" lon="7.23926">
        <ele>289.3</ele>
        <time>2020-05-22T14:15:11Z</time>
      </trkpt>
      <trkpt lat="48.69157" lon="7.23929">
        <ele>289.4</ele>
        <time>2020-05-22T14:15:12Z</time>
      </trkpt>
      <trkpt lat="48.69156" lon="7.23936">
        <ele>289.8</ele>
        <time>2020-05-22T14:15:14Z</time>
      </trkpt>
      <trkpt lat="48.69153" lon="7.23943">
        <ele>290.2</ele>
        <time>2020-05-22T14:15:16Z</time>
      </trkpt>
      <trkpt lat="48.69152" lon="7.23948">
        <ele>290.5</ele>
        <time>2020-05-22T14:15:18Z</time>
      </trkpt>
      <trkpt lat="48.69151" lon="7.23952">
        <ele>290.6</ele>
        <time>2020-05-22T14:15:19Z</time>
      </trkpt>
      <trkpt lat="48.6915" lon="7.23958">
        <ele>290.9</ele>
        <time>2020-05-22T14:15:21Z</time>
      </trkpt>
      <trkpt lat="48.69149" lon="7.23961">
        <ele>291</ele>
        <time>2020-05-22T14:15:22Z</time>
      </trkpt>
      <trkpt lat="48.69149" lon="7.23968">
        <ele>291.2</ele>
        <time>2020-05-22T14:15:24Z</time>
      </trkpt>
      <trkpt lat="48.69149" lon="7.23972">
        <ele>291.3</ele>
        <time>2020-05-22T14:15:25Z</time>
      </trkpt>
      <trkpt lat="48.69148" lon="7.23979">
        <ele>291.4</ele>
        <time>2020-05-22T14:15:27Z</time>
      </trkpt>
      <trkpt lat="48.69147" lon="7.23985">
        <ele>291.6</ele>
        <time>2020-05-22T14:15:29Z</time>
      </trkpt>
      <trkpt lat="48.69147" lon="7.2399">
        <ele>291.8</ele>
        <time>2020-05-22T14:15:31Z</time>
      </trkpt>
      <trkpt lat="48.69147" lon="7.23993">
        <ele>291.9</ele>
        <time>2020-05-22T14:15:32Z</time>
      </trkpt>
      <trkpt lat="48.69146" lon="7.23998">
        <ele>292.2</ele>
        <time>2020-05-22T14:15:34Z</time>
      </trkpt>
      <trkpt lat="48.69146" lon="7.24">
        <ele>292.3</ele>
        <time>2020-05-22T14:15:35Z</time>
      </trkpt>
      <trkpt lat="48.69147" lon="7.24003">
        <ele>292.4</ele>
        <time>2020-05-22T14:15:36Z</time>
      </trkpt>
      <trkpt lat="48.69147" lon="7.24007">
        <ele>292.5</ele>
        <time>2020-05-22T14:15:38Z</time>
      </trkpt>
      <trkpt lat="48.69148" lon="7.2401">
        <ele>292.6</ele>
        <time>2020-05-22T14:15:40Z</time>
      </trkpt>
      <trkpt lat="48.69149" lon="7.24012">
        <ele>292.6</ele>
        <time>2020-05-22T14:15:42Z</time>
      </trkpt>
      <trkpt lat="48.69149" lon="7.24012">
        <ele>292.6</ele>
        <time>2020-05-22T14:15:44Z</time>
      </trkpt>
      <trkpt lat="48.69149" lon="7.24012">
        <ele>292.7</ele>
        <time>2020-05-22T14:15:45Z</time>
      </trkpt>
      <trkpt lat="48.69149" lon="7.24012">
        <ele>292.7</ele>
        <time>2020-05-22T14:15:47Z</time>
      </trkpt>
      <trkpt lat="48.69149" lon="7.24013">
        <ele>292.7</ele>
        <time>2020-05-22T14:15:49Z</time>
      </trkpt>
      <trkpt lat="48.69149" lon="7.24013">
        <ele>292.7</ele>
        <time>2020-05-22T14:15:51Z</time>
      </trkpt>
      <trkpt lat="48.69149" lon="7.24013">
        <ele>292.7</ele>
        <time>2020-05-22T14:15:53Z</time>
      </trkpt>
      <trkpt lat="48.6915" lon="7.24017">
        <ele>292.8</ele>
        <time>2020-05-22T14:15:56Z</time>
      </trkpt>
      <trkpt lat="48.69151" lon="7.2402">
        <ele>292.9</ele>
        <time>2020-05-22T14:15:57Z</time>
      </trkpt>
      <trkpt lat="48.69152" lon="7.24024">
        <ele>293.1</ele>
        <time>2020-05-22T14:15:59Z</time>
      </trkpt>
      <trkpt lat="48.69152" lon="7.24026">
        <ele>293.2</ele>
        <time>2020-05-22T14:16:00Z</time>
      </trkpt>
      <trkpt lat="48.69152" lon="7.24028">
        <ele>293.3</ele>
        <time>2020-05-22T14:16:01Z</time>
      </trkpt>
      <trkpt lat="48.69153" lon="7.24031">
        <ele>293.4</ele>
        <time>2020-05-22T14:16:02Z</time>
      </trkpt>
      <trkpt lat="48.69153" lon="7.24033">
        <ele>293.5</ele>
        <time>2020-05-22T14:16:03Z</time>
      </trkpt>
      <trkpt lat="48.69154" lon="7.24037">
        <ele>293.6</ele>
        <time>2020-05-22T14:16:05Z</time>
      </trkpt>
      <trkpt lat="48.69154" lon="7.24039">
        <ele>293.7</ele>
        <time>2020-05-22T14:16:06Z</time>
      </trkpt>
      <trkpt lat="48.69154" lon="7.24042">
        <ele>293.8</ele>
        <time>2020-05-22T14:16:07Z</time>
      </trkpt>
      <trkpt lat="48.69153" lon="7.24044">
        <ele>293.9</ele>
        <time>2020-05-22T14:16:08Z</time>
      </trkpt>
      <trkpt lat="48.69153" lon="7.24048">
        <ele>294</ele>
        <time>2020-05-22T14:16:10Z</time>
      </trkpt>
      <trkpt lat="48.69153" lon="7.24051">
        <ele>294.1</ele>
        <time>2020-05-22T14:16:11Z</time>
      </trkpt>
      <trkpt lat="48.69154" lon="7.24056">
        <ele>294.2</ele>
        <time>2020-05-22T14:16:13Z</time>
      </trkpt>
      <trkpt lat="48.69154" lon="7.24062">
        <ele>294.4</ele>
        <time>2020-05-22T14:16:15Z</time>
      </trkpt>
      <trkpt lat="48.69154" lon="7.24064">
        <ele>294.4</ele>
        <time>2020-05-22T14:16:16Z</time>
      </trkpt>
      <trkpt lat="48.69154" lon="7.2407">
        <ele>294.6</ele>
        <time>2020-05-22T14:16:18Z</time>
      </trkpt>
      <trkpt lat="48.69153" lon="7.24073">
        <ele>294.7</ele>
        <time>2020-05-22T14:16:19Z</time>
      </trkpt>
      <trkpt lat="48.69153" lon="7.24081">
        <ele>294.9</ele>
        <time>2020-05-22T14:16:21Z</time>
      </trkpt>
      <trkpt lat="48.69153" lon="7.24088">
        <ele>295.2</ele>
        <time>2020-05-22T14:16:23Z</time>
      </trkpt>
      <trkpt lat="48.69153" lon="7.24091">
        <ele>295.4</ele>
        <time>2020-05-22T14:16:24Z</time>
      </trkpt>
      <trkpt lat="48.69153" lon="7.24097">
        <ele>295.6</ele>
        <time>2020-05-22T14:16:26Z</time>
      </trkpt>
      <trkpt lat="48.69153" lon="7.241">
        <ele>295.8</ele>
        <time>2020-05-22T14:16:27Z</time>
      </trkpt>
      <trkpt lat="48.69154" lon="7.24104">
        <ele>296</ele>
        <time>2020-05-22T14:16:29Z</time>
      </trkpt>
      <trkpt lat="48.69154" lon="7.24108">
        <ele>296.1</ele>
        <time>2020-05-22T14:16:30Z</time>
      </trkpt>
      <trkpt lat="48.69155" lon="7.24114">
        <ele>296.4</ele>
        <time>2020-05-22T14:16:32Z</time>
      </trkpt>
      <trkpt lat="48.69154" lon="7.24118">
        <ele>296.5</ele>
        <time>2020-05-22T14:16:33Z</time>
      </trkpt>
      <trkpt lat="48.69153" lon="7.24124">
        <ele>296.8</ele>
        <time>2020-05-22T14:16:35Z</time>
      </trkpt>
      <trkpt lat="48.69152" lon="7.24127">
        <ele>296.9</ele>
        <time>2020-05-22T14:16:36Z</time>
      </trkpt>
      <trkpt lat="48.6915" lon="7.24132">
        <ele>297.1</ele>
        <time>2020-05-22T14:16:38Z</time>
      </trkpt>
      <trkpt lat="48.69149" lon="7.24136">
        <ele>297.2</ele>
        <time>2020-05-22T14:16:39Z</time>
      </trkpt>
      <trkpt lat="48.69149" lon="7.24138">
        <ele>297.3</ele>
        <time>2020-05-22T14:16:40Z</time>
      </trkpt>
      <trkpt lat="48.69148" lon="7.24141">
        <ele>297.4</ele>
        <time>2020-05-22T14:16:41Z</time>
      </trkpt>
      <trkpt lat="48.69147" lon="7.24147">
        <ele>297.6</ele>
        <time>2020-05-22T14:16:43Z</time>
      </trkpt>
      <trkpt lat="48.69146" lon="7.2415">
        <ele>297.7</ele>
        <time>2020-05-22T14:16:44Z</time>
      </trkpt>
      <trkpt lat="48.69144" lon="7.24157">
        <ele>297.9</ele>
        <time>2020-05-22T14:16:46Z</time>
      </trkpt>
      <trkpt lat="48.69143" lon="7.2416">
        <ele>298</ele>
        <time>2020-05-22T14:16:47Z</time>
      </trkpt>
      <trkpt lat="48.6914" lon="7.24165">
        <ele>298.2</ele>
        <time>2020-05-22T14:16:49Z</time>
      </trkpt>
      <trkpt lat="48.69139" lon="7.24168">
        <ele>298.3</ele>
        <time>2020-05-22T14:16:50Z</time>
      </trkpt>
      <trkpt lat="48.69136" lon="7.24172">
        <ele>298.5</ele>
        <time>2020-05-22T14:16:52Z</time>
      </trkpt>
      <trkpt lat="48.69133" lon="7.24176">
        <ele>298.7</ele>
        <time>2020-05-22T14:16:54Z</time>
      </trkpt>
      <trkpt lat="48.69132" lon="7.24178">
        <ele>298.8</ele>
        <time>2020-05-22T14:16:55Z</time>
      </trkpt>
      <trkpt lat="48.6913" lon="7.24182">
        <ele>299</ele>
        <time>2020-05-22T14:16:57Z</time>
      </trkpt>
      <trkpt lat="48.69127" lon="7.24186">
        <ele>299.1</ele>
        <time>2020-05-22T14:16:58Z</time>
      </trkpt>
      <trkpt lat="48.69126" lon="7.24187">
        <ele>299.2</ele>
        <time>2020-05-22T14:16:59Z</time>
      </trkpt>
      <trkpt lat="48.69124" lon="7.2419">
        <ele>299.3</ele>
        <time>2020-05-22T14:17:01Z</time>
      </trkpt>
      <trkpt lat="48.69119" lon="7.24194">
        <ele>299.5</ele>
        <time>2020-05-22T14:17:03Z</time>
      </trkpt>
      <trkpt lat="48.69116" lon="7.24197">
        <ele>299.7</ele>
        <time>2020-05-22T14:17:05Z</time>
      </trkpt>
      <trkpt lat="48.69112" lon="7.24202">
        <ele>299.9</ele>
        <time>2020-05-22T14:17:07Z</time>
      </trkpt>
      <trkpt lat="48.69107" lon="7.24207">
        <ele>300.1</ele>
        <time>2020-05-22T14:17:09Z</time>
      </trkpt>
      <trkpt lat="48.69103" lon="7.2421">
        <ele>300.2</ele>
        <time>2020-05-22T14:17:11Z</time>
      </trkpt>
      <trkpt lat="48.691" lon="7.24214">
        <ele>300.3</ele>
        <time>2020-05-22T14:17:12Z</time>
      </trkpt>
      <trkpt lat="48.69099" lon="7.24216">
        <ele>300.3</ele>
        <time>2020-05-22T14:17:13Z</time>
      </trkpt>
      <trkpt lat="48.69096" lon="7.24218">
        <ele>300.4</ele>
        <time>2020-05-22T14:17:14Z</time>
      </trkpt>
      <trkpt lat="48.69094" lon="7.24221">
        <ele>300.4</ele>
        <time>2020-05-22T14:17:15Z</time>
      </trkpt>
      <trkpt lat="48.69091" lon="7.24227">
        <ele>300.6</ele>
        <time>2020-05-22T14:17:17Z</time>
      </trkpt>
      <trkpt lat="48.69088" lon="7.24234">
        <ele>300.7</ele>
        <time>2020-05-22T14:17:19Z</time>
      </trkpt>
      <trkpt lat="48.69086" lon="7.24239">
        <ele>300.8</ele>
        <time>2020-05-22T14:17:21Z</time>
      </trkpt>
      <trkpt lat="48.69085" lon="7.24242">
        <ele>300.9</ele>
        <time>2020-05-22T14:17:22Z</time>
      </trkpt>
      <trkpt lat="48.69082" lon="7.24248">
        <ele>301.1</ele>
        <time>2020-05-22T14:17:24Z</time>
      </trkpt>
      <trkpt lat="48.6908" lon="7.24251">
        <ele>301.2</ele>
        <time>2020-05-22T14:17:25Z</time>
      </trkpt>
      <trkpt lat="48.69077" lon="7.24258">
        <ele>301.5</ele>
        <time>2020-05-22T14:17:27Z</time>
      </trkpt>
      <trkpt lat="48.69073" lon="7.24266">
        <ele>301.9</ele>
        <time>2020-05-22T14:17:29Z</time>
      </trkpt>
      <trkpt lat="48.69069" lon="7.24274">
        <ele>302.3</ele>
        <time>2020-05-22T14:17:31Z</time>
      </trkpt>
      <trkpt lat="48.69064" lon="7.24284">
        <ele>302.7</ele>
        <time>2020-05-22T14:17:33Z</time>
      </trkpt>
      <trkpt lat="48.69062" lon="7.24287">
        <ele>302.9</ele>
        <time>2020-05-22T14:17:34Z</time>
      </trkpt>
      <trkpt lat="48.69058" lon="7.24297">
        <ele>303.2</ele>
        <time>2020-05-22T14:17:36Z</time>
      </trkpt>
      <trkpt lat="48.69056" lon="7.24301">
        <ele>303.4</ele>
        <time>2020-05-22T14:17:37Z</time>
      </trkpt>
      <trkpt lat="48.69051" lon="7.2431">
        <ele>303.6</ele>
        <time>2020-05-22T14:17:39Z</time>
      </trkpt>
      <trkpt lat="48.69048" lon="7.24315">
        <ele>303.7</ele>
        <time>2020-05-22T14:17:40Z</time>
      </trkpt>
      <trkpt lat="48.69043" lon="7.24324">
        <ele>304</ele>
        <time>2020-05-22T14:17:42Z</time>
      </trkpt>
      <trkpt lat="48.69039" lon="7.24333">
        <ele>304.3</ele>
        <time>2020-05-22T14:17:44Z</time>
      </trkpt>
      <trkpt lat="48.69036" lon="7.24337">
        <ele>304.5</ele>
        <time>2020-05-22T14:17:45Z</time>
      </trkpt>
      <trkpt lat="48.69031" lon="7.24344">
        <ele>304.7</ele>
        <time>2020-05-22T14:17:47Z</time>
      </trkpt>
      <trkpt lat="48.69028" lon="7.24348">
        <ele>304.8</ele>
        <time>2020-05-22T14:17:48Z</time>
      </trkpt>
      <trkpt lat="48.69025" lon="7.24353">
        <ele>304.9</ele>
        <time>2020-05-22T14:17:49Z</time>
      </trkpt>
      <trkpt lat="48.69022" lon="7.2436">
        <ele>305</ele>
        <time>2020-05-22T14:17:51Z</time>
      </trkpt>
      <trkpt lat="48.69018" lon="7.24367">
        <ele>305.3</ele>
        <time>2020-05-22T14:17:53Z</time>
      </trkpt>
      <trkpt lat="48.69016" lon="7.24369">
        <ele>305.4</ele>
        <time>2020-05-22T14:17:54Z</time>
      </trkpt>
      <trkpt lat="48.69013" lon="7.24374">
        <ele>305.6</ele>
        <time>2020-05-22T14:17:56Z</time>
      </trkpt>
      <trkpt lat="48.69007" lon="7.2438">
        <ele>306</ele>
        <time>2020-05-22T14:17:58Z</time>
      </trkpt>
      <trkpt lat="48.69005" lon="7.24382">
        <ele>306.1</ele>
        <time>2020-05-22T14:17:59Z</time>
      </trkpt>
      <trkpt lat="48.69" lon="7.24386">
        <ele>306.3</ele>
        <time>2020-05-22T14:18:01Z</time>
      </trkpt>
      <trkpt lat="48.68995" lon="7.24392">
        <ele>306.6</ele>
        <time>2020-05-22T14:18:03Z</time>
      </trkpt>
      <trkpt lat="48.68991" lon="7.24394">
        <ele>306.8</ele>
        <time>2020-05-22T14:18:05Z</time>
      </trkpt>
      <trkpt lat="48.68988" lon="7.24395">
        <ele>306.9</ele>
        <time>2020-05-22T14:18:06Z</time>
      </trkpt>
      <trkpt lat="48.68985" lon="7.24398">
        <ele>307.1</ele>
        <time>2020-05-22T14:18:08Z</time>
      </trkpt>
      <trkpt lat="48.68984" lon="7.24399">
        <ele>307.2</ele>
        <time>2020-05-22T14:18:09Z</time>
      </trkpt>
      <trkpt lat="48.68979" lon="7.24401">
        <ele>307.5</ele>
        <time>2020-05-22T14:18:11Z</time>
      </trkpt>
      <trkpt lat="48.68973" lon="7.24403">
        <ele>308</ele>
        <time>2020-05-22T14:18:13Z</time>
      </trkpt>
      <trkpt lat="48.6897" lon="7.24406">
        <ele>308.3</ele>
        <time>2020-05-22T14:18:14Z</time>
      </trkpt>
      <trkpt lat="48.68965" lon="7.24409">
        <ele>308.7</ele>
        <time>2020-05-22T14:18:16Z</time>
      </trkpt>
      <trkpt lat="48.68961" lon="7.24413">
        <ele>309.1</ele>
        <time>2020-05-22T14:18:18Z</time>
      </trkpt>
      <trkpt lat="48.68957" lon="7.24417">
        <ele>309.3</ele>
        <time>2020-05-22T14:18:19Z</time>
      </trkpt>
      <trkpt lat="48.68956" lon="7.24418">
        <ele>309.4</ele>
        <time>2020-05-22T14:18:20Z</time>
      </trkpt>
      <trkpt lat="48.6895" lon="7.24423">
        <ele>309.9</ele>
        <time>2020-05-22T14:18:22Z</time>
      </trkpt>
      <trkpt lat="48.68946" lon="7.24427">
        <ele>310.2</ele>
        <time>2020-05-22T14:18:24Z</time>
      </trkpt>
      <trkpt lat="48.68943" lon="7.2443">
        <ele>310.4</ele>
        <time>2020-05-22T14:18:25Z</time>
      </trkpt>
      <trkpt lat="48.6894" lon="7.24433">
        <ele>310.7</ele>
        <time>2020-05-22T14:18:26Z</time>
      </trkpt>
      <trkpt lat="48.68934" lon="7.24439">
        <ele>311.1</ele>
        <time>2020-05-22T14:18:28Z</time>
      </trkpt>
      <trkpt lat="48.68926" lon="7.24448">
        <ele>311.6</ele>
        <time>2020-05-22T14:18:30Z</time>
      </trkpt>
      <trkpt lat="48.68921" lon="7.24459">
        <ele>312</ele>
        <time>2020-05-22T14:18:32Z</time>
      </trkpt>
      <trkpt lat="48.68919" lon="7.24464">
        <ele>312.2</ele>
        <time>2020-05-22T14:18:33Z</time>
      </trkpt>
      <trkpt lat="48.68916" lon="7.24475">
        <ele>312.5</ele>
        <time>2020-05-22T14:18:35Z</time>
      </trkpt>
      <trkpt lat="48.68915" lon="7.2448">
        <ele>312.6</ele>
        <time>2020-05-22T14:18:36Z</time>
      </trkpt>
      <trkpt lat="48.68912" lon="7.2449">
        <ele>312.8</ele>
        <time>2020-05-22T14:18:38Z</time>
      </trkpt>
      <trkpt lat="48.68908" lon="7.24502">
        <ele>313.2</ele>
        <time>2020-05-22T14:18:40Z</time>
      </trkpt>
      <trkpt lat="48.68906" lon="7.24513">
        <ele>313.7</ele>
        <time>2020-05-22T14:18:42Z</time>
      </trkpt>
      <trkpt lat="48.68903" lon="7.24523">
        <ele>314.2</ele>
        <time>2020-05-22T14:18:44Z</time>
      </trkpt>
      <trkpt lat="48.689" lon="7.24532">
        <ele>314.5</ele>
        <time>2020-05-22T14:18:46Z</time>
      </trkpt>
      <trkpt lat="48.68897" lon="7.24541">
        <ele>314.6</ele>
        <time>2020-05-22T14:18:48Z</time>
      </trkpt>
      <trkpt lat="48.68893" lon="7.24549">
        <ele>315</ele>
        <time>2020-05-22T14:18:50Z</time>
      </trkpt>
      <trkpt lat="48.68891" lon="7.24551">
        <ele>315.1</ele>
        <time>2020-05-22T14:18:51Z</time>
      </trkpt>
      <trkpt lat="48.6889" lon="7.24551">
        <ele>315.1</ele>
        <time>2020-05-22T14:18:52Z</time>
      </trkpt>
      <trkpt lat="48.68889" lon="7.24553">
        <ele>315.1</ele>
        <time>2020-05-22T14:18:53Z</time>
      </trkpt>
      <trkpt lat="48.68889" lon="7.24554">
        <ele>315.4</ele>
        <time>2020-05-22T14:18:55Z</time>
      </trkpt>
      <trkpt lat="48.68889" lon="7.24555">
        <ele>315.4</ele>
        <time>2020-05-22T14:18:57Z</time>
      </trkpt>
      <trkpt lat="48.68889" lon="7.24556">
        <ele>315.4</ele>
        <time>2020-05-22T14:18:58Z</time>
      </trkpt>
      <trkpt lat="48.68888" lon="7.24557">
        <ele>315.5</ele>
        <time>2020-05-22T14:18:59Z</time>
      </trkpt>
      <trkpt lat="48.68888" lon="7.24558">
        <ele>315.5</ele>
        <time>2020-05-22T14:19:01Z</time>
      </trkpt>
      <trkpt lat="48.68888" lon="7.24559">
        <ele>315.5</ele>
        <time>2020-05-22T14:19:03Z</time>
      </trkpt>
      <trkpt lat="48.68888" lon="7.24561">
        <ele>315.5</ele>
        <time>2020-05-22T14:19:20Z</time>
      </trkpt>
      <trkpt lat="48.68887" lon="7.24562">
        <ele>315.7</ele>
        <time>2020-05-22T14:19:21Z</time>
      </trkpt>
      <trkpt lat="48.68887" lon="7.24563">
        <ele>315.7</ele>
        <time>2020-05-22T14:19:22Z</time>
      </trkpt>
      <trkpt lat="48.68883" lon="7.24571">
        <ele>316.2</ele>
        <time>2020-05-22T14:19:24Z</time>
      </trkpt>
      <trkpt lat="48.68881" lon="7.24575">
        <ele>316.3</ele>
        <time>2020-05-22T14:19:25Z</time>
      </trkpt>
      <trkpt lat="48.68877" lon="7.24583">
        <ele>316.4</ele>
        <time>2020-05-22T14:19:27Z</time>
      </trkpt>
      <trkpt lat="48.68874" lon="7.24592">
        <ele>316.8</ele>
        <time>2020-05-22T14:19:29Z</time>
      </trkpt>
      <trkpt lat="48.68873" lon="7.24596">
        <ele>317</ele>
        <time>2020-05-22T14:19:30Z</time>
      </trkpt>
      <trkpt lat="48.68868" lon="7.24607">
        <ele>317.6</ele>
        <time>2020-05-22T14:19:33Z</time>
      </trkpt>
      <trkpt lat="48.68864" lon="7.24613">
        <ele>318.3</ele>
        <time>2020-05-22T14:19:35Z</time>
      </trkpt>
      <trkpt lat="48.68862" lon="7.24617">
        <ele>318.3</ele>
        <time>2020-05-22T14:19:36Z</time>
      </trkpt>
      <trkpt lat="48.68857" lon="7.24624">
        <ele>318.9</ele>
        <time>2020-05-22T14:19:38Z</time>
      </trkpt>
      <trkpt lat="48.68855" lon="7.24627">
        <ele>319.3</ele>
        <time>2020-05-22T14:19:39Z</time>
      </trkpt>
      <trkpt lat="48.68851" lon="7.24634">
        <ele>319.4</ele>
        <time>2020-05-22T14:19:41Z</time>
      </trkpt>
      <trkpt lat="48.68849" lon="7.24637">
        <ele>319.6</ele>
        <time>2020-05-22T14:19:42Z</time>
      </trkpt>
      <trkpt lat="48.68845" lon="7.24645">
        <ele>319.9</ele>
        <time>2020-05-22T14:19:44Z</time>
      </trkpt>
      <trkpt lat="48.68843" lon="7.24649">
        <ele>320</ele>
        <time>2020-05-22T14:19:45Z</time>
      </trkpt>
      <trkpt lat="48.68838" lon="7.24656">
        <ele>320.2</ele>
        <time>2020-05-22T14:19:47Z</time>
      </trkpt>
      <trkpt lat="48.68836" lon="7.2466">
        <ele>320.2</ele>
        <time>2020-05-22T14:19:48Z</time>
      </trkpt>
      <trkpt lat="48.68832" lon="7.24664">
        <ele>320.3</ele>
        <time>2020-05-22T14:19:49Z</time>
      </trkpt>
      <trkpt lat="48.6883" lon="7.24667">
        <ele>320.5</ele>
        <time>2020-05-22T14:19:50Z</time>
      </trkpt>
      <trkpt lat="48.68825" lon="7.24674">
        <ele>320.8</ele>
        <time>2020-05-22T14:19:52Z</time>
      </trkpt>
      <trkpt lat="48.68822" lon="7.24677">
        <ele>320.9</ele>
        <time>2020-05-22T14:19:53Z</time>
      </trkpt>
      <trkpt lat="48.68818" lon="7.24681">
        <ele>320.9</ele>
        <time>2020-05-22T14:19:55Z</time>
      </trkpt>
      <trkpt lat="48.68815" lon="7.24684">
        <ele>321.1</ele>
        <time>2020-05-22T14:19:56Z</time>
      </trkpt>
      <trkpt lat="48.68813" lon="7.24685">
        <ele>321.1</ele>
        <time>2020-05-22T14:19:57Z</time>
      </trkpt>
      <trkpt lat="48.68811" lon="7.24687">
        <ele>321.2</ele>
        <time>2020-05-22T14:19:58Z</time>
      </trkpt>
      <trkpt lat="48.68808" lon="7.24688">
        <ele>321.3</ele>
        <time>2020-05-22T14:19:59Z</time>
      </trkpt>
      <trkpt lat="48.68803" lon="7.2469">
        <ele>321.9</ele>
        <time>2020-05-22T14:20:01Z</time>
      </trkpt>
      <trkpt lat="48.688" lon="7.24692">
        <ele>322.1</ele>
        <time>2020-05-22T14:20:02Z</time>
      </trkpt>
      <trkpt lat="48.68794" lon="7.24693">
        <ele>322.7</ele>
        <time>2020-05-22T14:20:04Z</time>
      </trkpt>
      <trkpt lat="48.68787" lon="7.24695">
        <ele>323.4</ele>
        <time>2020-05-22T14:20:06Z</time>
      </trkpt>
      <trkpt lat="48.68784" lon="7.24696">
        <ele>324</ele>
        <time>2020-05-22T14:20:07Z</time>
      </trkpt>
      <trkpt lat="48.68779" lon="7.24698">
        <ele>324.6</ele>
        <time>2020-05-22T14:20:09Z</time>
      </trkpt>
      <trkpt lat="48.68773" lon="7.24701">
        <ele>325.2</ele>
        <time>2020-05-22T14:20:11Z</time>
      </trkpt>
      <trkpt lat="48.68767" lon="7.24705">
        <ele>325.7</ele>
        <time>2020-05-22T14:20:13Z</time>
      </trkpt>
      <trkpt lat="48.68762" lon="7.24709">
        <ele>326</ele>
        <time>2020-05-22T14:20:15Z</time>
      </trkpt>
      <trkpt lat="48.68756" lon="7.24711">
        <ele>326.8</ele>
        <time>2020-05-22T14:20:17Z</time>
      </trkpt>
      <trkpt lat="48.68754" lon="7.24713">
        <ele>327.2</ele>
        <time>2020-05-22T14:20:18Z</time>
      </trkpt>
      <trkpt lat="48.68752" lon="7.24714">
        <ele>327.7</ele>
        <time>2020-05-22T14:20:19Z</time>
      </trkpt>
      <trkpt lat="48.68747" lon="7.24716">
        <ele>328.5</ele>
        <time>2020-05-22T14:20:21Z</time>
      </trkpt>
      <trkpt lat="48.68745" lon="7.24717">
        <ele>328.5</ele>
        <time>2020-05-22T14:20:22Z</time>
      </trkpt>
      <trkpt lat="48.6874" lon="7.24718">
        <ele>329.3</ele>
        <time>2020-05-22T14:20:24Z</time>
      </trkpt>
      <trkpt lat="48.68738" lon="7.24718">
        <ele>329.7</ele>
        <time>2020-05-22T14:20:25Z</time>
      </trkpt>
      <trkpt lat="48.68733" lon="7.24719">
        <ele>330.4</ele>
        <time>2020-05-22T14:20:27Z</time>
      </trkpt>
      <trkpt lat="48.6873" lon="7.24719">
        <ele>330.7</ele>
        <time>2020-05-22T14:20:28Z</time>
      </trkpt>
      <trkpt lat="48.68725" lon="7.24721">
        <ele>331.1</ele>
        <time>2020-05-22T14:20:30Z</time>
      </trkpt>
      <trkpt lat="48.68721" lon="7.24723">
        <ele>331.5</ele>
        <time>2020-05-22T14:20:32Z</time>
      </trkpt>
      <trkpt lat="48.68716" lon="7.24725">
        <ele>331.8</ele>
        <time>2020-05-22T14:20:34Z</time>
      </trkpt>
      <trkpt lat="48.68713" lon="7.24726">
        <ele>332.1</ele>
        <time>2020-05-22T14:20:35Z</time>
      </trkpt>
      <trkpt lat="48.68712" lon="7.24727">
        <ele>332.1</ele>
        <time>2020-05-22T14:20:36Z</time>
      </trkpt>
      <trkpt lat="48.6871" lon="7.24728">
        <ele>332.5</ele>
        <time>2020-05-22T14:20:37Z</time>
      </trkpt>
      <trkpt lat="48.68706" lon="7.2473">
        <ele>332.4</ele>
        <time>2020-05-22T14:20:39Z</time>
      </trkpt>
      <trkpt lat="48.68701" lon="7.24732">
        <ele>333.2</ele>
        <time>2020-05-22T14:20:41Z</time>
      </trkpt>
      <trkpt lat="48.68697" lon="7.24734">
        <ele>333.2</ele>
        <time>2020-05-22T14:20:43Z</time>
      </trkpt>
      <trkpt lat="48.68695" lon="7.24735">
        <ele>333.6</ele>
        <time>2020-05-22T14:20:44Z</time>
      </trkpt>
      <trkpt lat="48.6869" lon="7.24735">
        <ele>334.4</ele>
        <time>2020-05-22T14:20:46Z</time>
      </trkpt>
      <trkpt lat="48.68688" lon="7.24735">
        <ele>334.7</ele>
        <time>2020-05-22T14:20:47Z</time>
      </trkpt>
      <trkpt lat="48.68683" lon="7.24733">
        <ele>335.1</ele>
        <time>2020-05-22T14:20:49Z</time>
      </trkpt>
      <trkpt lat="48.68681" lon="7.24733">
        <ele>335.5</ele>
        <time>2020-05-22T14:20:50Z</time>
      </trkpt>
      <trkpt lat="48.68677" lon="7.24734">
        <ele>335.9</ele>
        <time>2020-05-22T14:20:52Z</time>
      </trkpt>
      <trkpt lat="48.68675" lon="7.24735">
        <ele>336.3</ele>
        <time>2020-05-22T14:20:53Z</time>
      </trkpt>
      <trkpt lat="48.6867" lon="7.24737">
        <ele>337.1</ele>
        <time>2020-05-22T14:20:55Z</time>
      </trkpt>
      <trkpt lat="48.68667" lon="7.24737">
        <ele>337.5</ele>
        <time>2020-05-22T14:20:56Z</time>
      </trkpt>
      <trkpt lat="48.68663" lon="7.24737">
        <ele>337.9</ele>
        <time>2020-05-22T14:20:58Z</time>
      </trkpt>
      <trkpt lat="48.68661" lon="7.24737">
        <ele>338.3</ele>
        <time>2020-05-22T14:20:59Z</time>
      </trkpt>
      <trkpt lat="48.68656" lon="7.24736">
        <ele>339</ele>
        <time>2020-05-22T14:21:01Z</time>
      </trkpt>
      <trkpt lat="48.68651" lon="7.24736">
        <ele>339.6</ele>
        <time>2020-05-22T14:21:03Z</time>
      </trkpt>
      <trkpt lat="48.68648" lon="7.24737">
        <ele>339.8</ele>
        <time>2020-05-22T14:21:04Z</time>
      </trkpt>
      <trkpt lat="48.68644" lon="7.24736">
        <ele>340.1</ele>
        <time>2020-05-22T14:21:06Z</time>
      </trkpt>
      <trkpt lat="48.68641" lon="7.24735">
        <ele>340.3</ele>
        <time>2020-05-22T14:21:07Z</time>
      </trkpt>
      <trkpt lat="48.6864" lon="7.24735">
        <ele>340.3</ele>
        <time>2020-05-22T14:21:08Z</time>
      </trkpt>
      <trkpt lat="48.68638" lon="7.24735">
        <ele>340.6</ele>
        <time>2020-05-22T14:21:09Z</time>
      </trkpt>
      <trkpt lat="48.68633" lon="7.24736">
        <ele>341</ele>
        <time>2020-05-22T14:21:11Z</time>
      </trkpt>
      <trkpt lat="48.68628" lon="7.24738">
        <ele>340.4</ele>
        <time>2020-05-22T14:21:13Z</time>
      </trkpt>
      <trkpt lat="48.68623" lon="7.24739">
        <ele>340.7</ele>
        <time>2020-05-22T14:21:15Z</time>
      </trkpt>
      <trkpt lat="48.68617" lon="7.2474">
        <ele>340.8</ele>
        <time>2020-05-22T14:21:17Z</time>
      </trkpt>
      <trkpt lat="48.68612" lon="7.24741">
        <ele>341.1</ele>
        <time>2020-05-22T14:21:19Z</time>
      </trkpt>
      <trkpt lat="48.6861" lon="7.24741">
        <ele>341.3</ele>
        <time>2020-05-22T14:21:20Z</time>
      </trkpt>
      <trkpt lat="48.68606" lon="7.2474">
        <ele>341.5</ele>
        <time>2020-05-22T14:21:22Z</time>
      </trkpt>
      <trkpt lat="48.68604" lon="7.24739">
        <ele>341.7</ele>
        <time>2020-05-22T14:21:23Z</time>
      </trkpt>
      <trkpt lat="48.68599" lon="7.24739">
        <ele>342</ele>
        <time>2020-05-22T14:21:25Z</time>
      </trkpt>
      <trkpt lat="48.68595" lon="7.2474">
        <ele>342</ele>
        <time>2020-05-22T14:21:27Z</time>
      </trkpt>
      <trkpt lat="48.6859" lon="7.24742">
        <ele>341.2</ele>
        <time>2020-05-22T14:21:29Z</time>
      </trkpt>
      <trkpt lat="48.68587" lon="7.24742">
        <ele>341.3</ele>
        <time>2020-05-22T14:21:30Z</time>
      </trkpt>
      <trkpt lat="48.68583" lon="7.24742">
        <ele>341.6</ele>
        <time>2020-05-22T14:21:32Z</time>
      </trkpt>
      <trkpt lat="48.68581" lon="7.24743">
        <ele>341.6</ele>
        <time>2020-05-22T14:21:33Z</time>
      </trkpt>
      <trkpt lat="48.68575" lon="7.24744">
        <ele>341.9</ele>
        <time>2020-05-22T14:21:35Z</time>
      </trkpt>
      <trkpt lat="48.6857" lon="7.24746">
        <ele>341.1</ele>
        <time>2020-05-22T14:21:37Z</time>
      </trkpt>
      <trkpt lat="48.68564" lon="7.24749">
        <ele>341.5</ele>
        <time>2020-05-22T14:21:39Z</time>
      </trkpt>
      <trkpt lat="48.68562" lon="7.2475">
        <ele>341.7</ele>
        <time>2020-05-22T14:21:40Z</time>
      </trkpt>
      <trkpt lat="48.68559" lon="7.24754">
        <ele>340.9</ele>
        <time>2020-05-22T14:21:42Z</time>
      </trkpt>
      <trkpt lat="48.68556" lon="7.24756">
        <ele>340.1</ele>
        <time>2020-05-22T14:21:43Z</time>
      </trkpt>
      <trkpt lat="48.68555" lon="7.24757">
        <ele>340.1</ele>
        <time>2020-05-22T14:21:44Z</time>
      </trkpt>
      <trkpt lat="48.68551" lon="7.24759">
        <ele>339.7</ele>
        <time>2020-05-22T14:21:46Z</time>
      </trkpt>
      <trkpt lat="48.68546" lon="7.24762">
        <ele>340.3</ele>
        <time>2020-05-22T14:21:48Z</time>
      </trkpt>
      <trkpt lat="48.68542" lon="7.24764">
        <ele>339.7</ele>
        <time>2020-05-22T14:21:50Z</time>
      </trkpt>
      <trkpt lat="48.68538" lon="7.24765">
        <ele>340</ele>
        <time>2020-05-22T14:21:52Z</time>
      </trkpt>
      <trkpt lat="48.68533" lon="7.24766">
        <ele>340.8</ele>
        <time>2020-05-22T14:21:54Z</time>
      </trkpt>
      <trkpt lat="48.68528" lon="7.24767">
        <ele>341.7</ele>
        <time>2020-05-22T14:21:56Z</time>
      </trkpt>
      <trkpt lat="48.68525" lon="7.24768">
        <ele>341.2</ele>
        <time>2020-05-22T14:21:57Z</time>
      </trkpt>
      <trkpt lat="48.6852" lon="7.24771">
        <ele>342.1</ele>
        <time>2020-05-22T14:21:59Z</time>
      </trkpt>
      <trkpt lat="48.68515" lon="7.24773">
        <ele>342.2</ele>
        <time>2020-05-22T14:22:01Z</time>
      </trkpt>
      <trkpt lat="48.68511" lon="7.24775">
        <ele>342.6</ele>
        <time>2020-05-22T14:22:02Z</time>
      </trkpt>
      <trkpt lat="48.68509" lon="7.24776">
        <ele>343</ele>
        <time>2020-05-22T14:22:03Z</time>
      </trkpt>
      <trkpt lat="48.68504" lon="7.24779">
        <ele>342.7</ele>
        <time>2020-05-22T14:22:05Z</time>
      </trkpt>
      <trkpt lat="48.685" lon="7.24781">
        <ele>342.8</ele>
        <time>2020-05-22T14:22:07Z</time>
      </trkpt>
      <trkpt lat="48.68497" lon="7.24783">
        <ele>343.2</ele>
        <time>2020-05-22T14:22:08Z</time>
      </trkpt>
      <trkpt lat="48.68495" lon="7.24783">
        <ele>343.6</ele>
        <time>2020-05-22T14:22:09Z</time>
      </trkpt>
      <trkpt lat="48.6849" lon="7.24786">
        <ele>343.3</ele>
        <time>2020-05-22T14:22:11Z</time>
      </trkpt>
      <trkpt lat="48.68488" lon="7.24787">
        <ele>343.6</ele>
        <time>2020-05-22T14:22:12Z</time>
      </trkpt>
      <trkpt lat="48.68482" lon="7.24788">
        <ele>344</ele>
        <time>2020-05-22T14:22:14Z</time>
      </trkpt>
      <trkpt lat="48.6848" lon="7.24788">
        <ele>344.2</ele>
        <time>2020-05-22T14:22:15Z</time>
      </trkpt>
      <trkpt lat="48.68475" lon="7.24789">
        <ele>344</ele>
        <time>2020-05-22T14:22:17Z</time>
      </trkpt>
      <trkpt lat="48.68472" lon="7.2479">
        <ele>344.2</ele>
        <time>2020-05-22T14:22:18Z</time>
      </trkpt>
      <trkpt lat="48.68468" lon="7.2479">
        <ele>344.3</ele>
        <time>2020-05-22T14:22:19Z</time>
      </trkpt>
      <trkpt lat="48.68467" lon="7.24791">
        <ele>344.4</ele>
        <time>2020-05-22T14:22:20Z</time>
      </trkpt>
      <trkpt lat="48.68464" lon="7.24792">
        <ele>344.5</ele>
        <time>2020-05-22T14:22:22Z</time>
      </trkpt>
      <trkpt lat="48.68459" lon="7.24793">
        <ele>344.5</ele>
        <time>2020-05-22T14:22:24Z</time>
      </trkpt>
      <trkpt lat="48.68454" lon="7.24794">
        <ele>344.2</ele>
        <time>2020-05-22T14:22:26Z</time>
      </trkpt>
      <trkpt lat="48.68449" lon="7.24797">
        <ele>344.3</ele>
        <time>2020-05-22T14:22:28Z</time>
      </trkpt>
      <trkpt lat="48.68444" lon="7.24799">
        <ele>344</ele>
        <time>2020-05-22T14:22:30Z</time>
      </trkpt>
      <trkpt lat="48.68441" lon="7.24799">
        <ele>344</ele>
        <time>2020-05-22T14:22:31Z</time>
      </trkpt>
      <trkpt lat="48.68437" lon="7.248">
        <ele>344.1</ele>
        <time>2020-05-22T14:22:32Z</time>
      </trkpt>
      <trkpt lat="48.68436" lon="7.248">
        <ele>344.1</ele>
        <time>2020-05-22T14:22:33Z</time>
      </trkpt>
      <trkpt lat="48.68434" lon="7.24801">
        <ele>344.1</ele>
        <time>2020-05-22T14:22:34Z</time>
      </trkpt>
      <trkpt lat="48.68429" lon="7.248">
        <ele>344</ele>
        <time>2020-05-22T14:22:36Z</time>
      </trkpt>
      <trkpt lat="48.68426" lon="7.24801">
        <ele>344</ele>
        <time>2020-05-22T14:22:37Z</time>
      </trkpt>
      <trkpt lat="48.68422" lon="7.24801">
        <ele>343.9</ele>
        <time>2020-05-22T14:22:39Z</time>
      </trkpt>
      <trkpt lat="48.6842" lon="7.24801">
        <ele>343.9</ele>
        <time>2020-05-22T14:22:40Z</time>
      </trkpt>
      <trkpt lat="48.68416" lon="7.24803">
        <ele>343.4</ele>
        <time>2020-05-22T14:22:42Z</time>
      </trkpt>
      <trkpt lat="48.68413" lon="7.24804">
        <ele>343.4</ele>
        <time>2020-05-22T14:22:43Z</time>
      </trkpt>
      <trkpt lat="48.68412" lon="7.24805">
        <ele>343.4</ele>
        <time>2020-05-22T14:22:44Z</time>
      </trkpt>
      <trkpt lat="48.68408" lon="7.24805">
        <ele>343.4</ele>
        <time>2020-05-22T14:22:46Z</time>
      </trkpt>
      <trkpt lat="48.68406" lon="7.24805">
        <ele>343.4</ele>
        <time>2020-05-22T14:22:47Z</time>
      </trkpt>
      <trkpt lat="48.68402" lon="7.24806">
        <ele>343</ele>
        <time>2020-05-22T14:22:49Z</time>
      </trkpt>
      <trkpt lat="48.684" lon="7.24807">
        <ele>343</ele>
        <time>2020-05-22T14:22:50Z</time>
      </trkpt>
      <trkpt lat="48.68395" lon="7.24808">
        <ele>343</ele>
        <time>2020-05-22T14:22:52Z</time>
      </trkpt>
      <trkpt lat="48.68392" lon="7.24809">
        <ele>343</ele>
        <time>2020-05-22T14:22:53Z</time>
      </trkpt>
      <trkpt lat="48.68386" lon="7.2481">
        <ele>342.6</ele>
        <time>2020-05-22T14:22:55Z</time>
      </trkpt>
      <trkpt lat="48.68381" lon="7.24811">
        <ele>342.6</ele>
        <time>2020-05-22T14:22:57Z</time>
      </trkpt>
      <trkpt lat="48.68376" lon="7.2481">
        <ele>343.4</ele>
        <time>2020-05-22T14:22:59Z</time>
      </trkpt>
      <trkpt lat="48.68374" lon="7.24809">
        <ele>343.4</ele>
        <time>2020-05-22T14:23:00Z</time>
      </trkpt>
      <trkpt lat="48.68369" lon="7.24809">
        <ele>343.7</ele>
        <time>2020-05-22T14:23:02Z</time>
      </trkpt>
      <trkpt lat="48.68365" lon="7.2481">
        <ele>343.9</ele>
        <time>2020-05-22T14:23:03Z</time>
      </trkpt>
      <trkpt lat="48.68364" lon="7.2481">
        <ele>344.2</ele>
        <time>2020-05-22T14:23:04Z</time>
      </trkpt>
      <trkpt lat="48.6836" lon="7.2481">
        <ele>343.8</ele>
        <time>2020-05-22T14:23:05Z</time>
      </trkpt>
      <trkpt lat="48.68359" lon="7.2481">
        <ele>344.1</ele>
        <time>2020-05-22T14:23:06Z</time>
      </trkpt>
      <trkpt lat="48.68356" lon="7.24811">
        <ele>344.4</ele>
        <time>2020-05-22T14:23:07Z</time>
      </trkpt>
      <trkpt lat="48.68351" lon="7.24812">
        <ele>345.1</ele>
        <time>2020-05-22T14:23:09Z</time>
      </trkpt>
      <trkpt lat="48.68349" lon="7.24812">
        <ele>345.1</ele>
        <time>2020-05-22T14:23:10Z</time>
      </trkpt>
      <trkpt lat="48.68345" lon="7.24813">
        <ele>345.7</ele>
        <time>2020-05-22T14:23:12Z</time>
      </trkpt>
      <trkpt lat="48.68341" lon="7.24814">
        <ele>346.1</ele>
        <time>2020-05-22T14:23:14Z</time>
      </trkpt>
      <trkpt lat="48.68337" lon="7.24817">
        <ele>345.8</ele>
        <time>2020-05-22T14:23:16Z</time>
      </trkpt>
      <trkpt lat="48.68335" lon="7.24818">
        <ele>346.2</ele>
        <time>2020-05-22T14:23:17Z</time>
      </trkpt>
      <trkpt lat="48.68331" lon="7.24818">
        <ele>346.9</ele>
        <time>2020-05-22T14:23:19Z</time>
      </trkpt>
      <trkpt lat="48.68329" lon="7.24818">
        <ele>346.9</ele>
        <time>2020-05-22T14:23:20Z</time>
      </trkpt>
      <trkpt lat="48.68324" lon="7.24819">
        <ele>347.1</ele>
        <time>2020-05-22T14:23:22Z</time>
      </trkpt>
      <trkpt lat="48.68319" lon="7.24821">
        <ele>347.8</ele>
        <time>2020-05-22T14:23:24Z</time>
      </trkpt>
      <trkpt lat="48.68316" lon="7.24822">
        <ele>348.2</ele>
        <time>2020-05-22T14:23:25Z</time>
      </trkpt>
      <trkpt lat="48.68312" lon="7.24824">
        <ele>347.9</ele>
        <time>2020-05-22T14:23:27Z</time>
      </trkpt>
      <trkpt lat="48.68303" lon="7.24827">
        <ele>349</ele>
        <time>2020-05-22T14:23:31Z</time>
      </trkpt>
      <trkpt lat="48.68301" lon="7.24829">
        <ele>348.7</ele>
        <time>2020-05-22T14:23:32Z</time>
      </trkpt>
      <trkpt lat="48.68297" lon="7.24833">
        <ele>348.6</ele>
        <time>2020-05-22T14:23:34Z</time>
      </trkpt>
      <trkpt lat="48.68295" lon="7.24834">
        <ele>348.6</ele>
        <time>2020-05-22T14:23:35Z</time>
      </trkpt>
      <trkpt lat="48.6829" lon="7.24834">
        <ele>349.1</ele>
        <time>2020-05-22T14:23:37Z</time>
      </trkpt>
      <trkpt lat="48.68288" lon="7.24833">
        <ele>349.3</ele>
        <time>2020-05-22T14:23:38Z</time>
      </trkpt>
      <trkpt lat="48.68284" lon="7.24832">
        <ele>349.5</ele>
        <time>2020-05-22T14:23:40Z</time>
      </trkpt>
      <trkpt lat="48.68285" lon="7.2483">
        <ele>350.2</ele>
        <time>2020-05-22T14:23:42Z</time>
      </trkpt>
      <trkpt lat="48.68286" lon="7.2483">
        <ele>350</ele>
        <time>2020-05-22T14:23:43Z</time>
      </trkpt>
      <trkpt lat="48.68287" lon="7.2483">
        <ele>350</ele>
        <time>2020-05-22T14:23:45Z</time>
      </trkpt>
      <trkpt lat="48.68287" lon="7.2483">
        <ele>350</ele>
        <time>2020-05-22T14:23:47Z</time>
      </trkpt>
      <trkpt lat="48.68287" lon="7.24829">
        <ele>350</ele>
        <time>2020-05-22T14:23:50Z</time>
      </trkpt>
      <trkpt lat="48.68287" lon="7.24829">
        <ele>350</ele>
        <time>2020-05-22T14:23:52Z</time>
      </trkpt>
      <trkpt lat="48.68287" lon="7.24829">
        <ele>350</ele>
        <time>2020-05-22T14:23:53Z</time>
      </trkpt>
      <trkpt lat="48.68283" lon="7.24829">
        <ele>350.4</ele>
        <time>2020-05-22T14:24:09Z</time>
      </trkpt>
      <trkpt lat="48.68279" lon="7.24827">
        <ele>351.2</ele>
        <time>2020-05-22T14:24:11Z</time>
      </trkpt>
      <trkpt lat="48.68276" lon="7.24827">
        <ele>351.3</ele>
        <time>2020-05-22T14:24:13Z</time>
      </trkpt>
      <trkpt lat="48.68273" lon="7.24825">
        <ele>351.4</ele>
        <time>2020-05-22T14:24:15Z</time>
      </trkpt>
      <trkpt lat="48.6827" lon="7.24823">
        <ele>351.5</ele>
        <time>2020-05-22T14:24:17Z</time>
      </trkpt>
      <trkpt lat="48.68267" lon="7.24821">
        <ele>352.2</ele>
        <time>2020-05-22T14:24:19Z</time>
      </trkpt>
      <trkpt lat="48.68265" lon="7.2482">
        <ele>352.1</ele>
        <time>2020-05-22T14:24:20Z</time>
      </trkpt>
      <trkpt lat="48.68262" lon="7.2482">
        <ele>352.1</ele>
        <time>2020-05-22T14:24:22Z</time>
      </trkpt>
      <trkpt lat="48.68259" lon="7.24819">
        <ele>352</ele>
        <time>2020-05-22T14:24:24Z</time>
      </trkpt>
      <trkpt lat="48.68257" lon="7.24819">
        <ele>352</ele>
        <time>2020-05-22T14:24:25Z</time>
      </trkpt>
      <trkpt lat="48.68254" lon="7.24819">
        <ele>351.9</ele>
        <time>2020-05-22T14:24:27Z</time>
      </trkpt>
      <trkpt lat="48.6825" lon="7.24819">
        <ele>351.8</ele>
        <time>2020-05-22T14:24:29Z</time>
      </trkpt>
      <trkpt lat="48.68247" lon="7.24819">
        <ele>351.7</ele>
        <time>2020-05-22T14:24:31Z</time>
      </trkpt>
      <trkpt lat="48.68243" lon="7.2482">
        <ele>351.5</ele>
        <time>2020-05-22T14:24:33Z</time>
      </trkpt>
      <trkpt lat="48.6824" lon="7.24821">
        <ele>351.4</ele>
        <time>2020-05-22T14:24:34Z</time>
      </trkpt>
      <trkpt lat="48.68236" lon="7.24822">
        <ele>351.3</ele>
        <time>2020-05-22T14:24:36Z</time>
      </trkpt>
      <trkpt lat="48.68233" lon="7.24824">
        <ele>350.5</ele>
        <time>2020-05-22T14:24:38Z</time>
      </trkpt>
      <trkpt lat="48.6823" lon="7.24825">
        <ele>350.5</ele>
        <time>2020-05-22T14:24:39Z</time>
      </trkpt>
      <trkpt lat="48.68226" lon="7.24828">
        <ele>349.9</ele>
        <time>2020-05-22T14:24:41Z</time>
      </trkpt>
      <trkpt lat="48.68222" lon="7.24829">
        <ele>349.9</ele>
        <time>2020-05-22T14:24:43Z</time>
      </trkpt>
      <trkpt lat="48.68217" lon="7.2483">
        <ele>350</ele>
        <time>2020-05-22T14:24:45Z</time>
      </trkpt>
      <trkpt lat="48.68213" lon="7.24832">
        <ele>349.5</ele>
        <time>2020-05-22T14:24:47Z</time>
      </trkpt>
      <trkpt lat="48.68209" lon="7.24836">
        <ele>349.1</ele>
        <time>2020-05-22T14:24:49Z</time>
      </trkpt>
      <trkpt lat="48.68207" lon="7.24837">
        <ele>349.1</ele>
        <time>2020-05-22T14:24:50Z</time>
      </trkpt>
      <trkpt lat="48.68204" lon="7.2484">
        <ele>349.2</ele>
        <time>2020-05-22T14:24:52Z</time>
      </trkpt>
      <trkpt lat="48.68201" lon="7.24842">
        <ele>348.8</ele>
        <time>2020-05-22T14:24:54Z</time>
      </trkpt>
      <trkpt lat="48.68196" lon="7.24843">
        <ele>349</ele>
        <time>2020-05-22T14:24:56Z</time>
      </trkpt>
      <trkpt lat="48.68193" lon="7.24847">
        <ele>348.5</ele>
        <time>2020-05-22T14:24:58Z</time>
      </trkpt>
      <trkpt lat="48.68192" lon="7.24851">
        <ele>348.1</ele>
        <time>2020-05-22T14:25:00Z</time>
      </trkpt>
      <trkpt lat="48.6819" lon="7.24853">
        <ele>347.4</ele>
        <time>2020-05-22T14:25:02Z</time>
      </trkpt>
      <trkpt lat="48.68186" lon="7.24856">
        <ele>347.7</ele>
        <time>2020-05-22T14:25:04Z</time>
      </trkpt>
      <trkpt lat="48.68183" lon="7.24858">
        <ele>347.2</ele>
        <time>2020-05-22T14:25:06Z</time>
      </trkpt>
      <trkpt lat="48.68179" lon="7.2486">
        <ele>347.3</ele>
        <time>2020-05-22T14:25:07Z</time>
      </trkpt>
      <trkpt lat="48.68178" lon="7.24861">
        <ele>347.3</ele>
        <time>2020-05-22T14:25:08Z</time>
      </trkpt>
      <trkpt lat="48.68174" lon="7.24863">
        <ele>347</ele>
        <time>2020-05-22T14:25:10Z</time>
      </trkpt>
      <trkpt lat="48.68171" lon="7.24866">
        <ele>346.7</ele>
        <time>2020-05-22T14:25:12Z</time>
      </trkpt>
      <trkpt lat="48.6817" lon="7.24868">
        <ele>346.7</ele>
        <time>2020-05-22T14:25:13Z</time>
      </trkpt>
      <trkpt lat="48.68167" lon="7.24871">
        <ele>346.7</ele>
        <time>2020-05-22T14:25:15Z</time>
      </trkpt>
      <trkpt lat="48.68165" lon="7.24873">
        <ele>347</ele>
        <time>2020-05-22T14:25:16Z</time>
      </trkpt>
      <trkpt lat="48.68162" lon="7.24873">
        <ele>347.4</ele>
        <time>2020-05-22T14:25:18Z</time>
      </trkpt>
      <trkpt lat="48.6816" lon="7.24874">
        <ele>347.8</ele>
        <time>2020-05-22T14:25:19Z</time>
      </trkpt>
      <trkpt lat="48.68157" lon="7.24877">
        <ele>348</ele>
        <time>2020-05-22T14:25:21Z</time>
      </trkpt>
      <trkpt lat="48.68154" lon="7.24881">
        <ele>348.5</ele>
        <time>2020-05-22T14:25:23Z</time>
      </trkpt>
      <trkpt lat="48.68152" lon="7.24883">
        <ele>348.8</ele>
        <time>2020-05-22T14:25:24Z</time>
      </trkpt>
      <trkpt lat="48.68149" lon="7.24885">
        <ele>349.3</ele>
        <time>2020-05-22T14:25:26Z</time>
      </trkpt>
      <trkpt lat="48.68148" lon="7.24886">
        <ele>349.3</ele>
        <time>2020-05-22T14:25:27Z</time>
      </trkpt>
      <trkpt lat="48.68146" lon="7.24887">
        <ele>349.5</ele>
        <time>2020-05-22T14:25:28Z</time>
      </trkpt>
      <trkpt lat="48.68142" lon="7.2489">
        <ele>349.8</ele>
        <time>2020-05-22T14:25:30Z</time>
      </trkpt>
      <trkpt lat="48.6814" lon="7.24893">
        <ele>349.8</ele>
        <time>2020-05-22T14:25:32Z</time>
      </trkpt>
      <trkpt lat="48.68136" lon="7.24898">
        <ele>349.9</ele>
        <time>2020-05-22T14:25:34Z</time>
      </trkpt>
      <trkpt lat="48.68134" lon="7.24901">
        <ele>349.9</ele>
        <time>2020-05-22T14:25:35Z</time>
      </trkpt>
      <trkpt lat="48.68132" lon="7.24906">
        <ele>350.3</ele>
        <time>2020-05-22T14:25:37Z</time>
      </trkpt>
      <trkpt lat="48.68129" lon="7.24911">
        <ele>350.8</ele>
        <time>2020-05-22T14:25:39Z</time>
      </trkpt>
      <trkpt lat="48.68126" lon="7.24914">
        <ele>351.5</ele>
        <time>2020-05-22T14:25:41Z</time>
      </trkpt>
      <trkpt lat="48.68124" lon="7.24917">
        <ele>351.5</ele>
        <time>2020-05-22T14:25:42Z</time>
      </trkpt>
      <trkpt lat="48.68122" lon="7.2492">
        <ele>352.2</ele>
        <time>2020-05-22T14:25:44Z</time>
      </trkpt>
      <trkpt lat="48.68119" lon="7.24924">
        <ele>352.8</ele>
        <time>2020-05-22T14:25:46Z</time>
      </trkpt>
      <trkpt lat="48.68118" lon="7.24925">
        <ele>352.8</ele>
        <time>2020-05-22T14:25:47Z</time>
      </trkpt>
      <trkpt lat="48.68114" lon="7.24929">
        <ele>353.4</ele>
        <time>2020-05-22T14:25:49Z</time>
      </trkpt>
      <trkpt lat="48.6811" lon="7.24933">
        <ele>353.7</ele>
        <time>2020-05-22T14:25:51Z</time>
      </trkpt>
      <trkpt lat="48.68106" lon="7.24935">
        <ele>354</ele>
        <time>2020-05-22T14:25:52Z</time>
      </trkpt>
      <trkpt lat="48.68105" lon="7.24936">
        <ele>354</ele>
        <time>2020-05-22T14:25:53Z</time>
      </trkpt>
      <trkpt lat="48.68101" lon="7.24938">
        <ele>353.9</ele>
        <time>2020-05-22T14:25:55Z</time>
      </trkpt>
      <trkpt lat="48.68099" lon="7.24939">
        <ele>354.3</ele>
        <time>2020-05-22T14:25:56Z</time>
      </trkpt>
      <trkpt lat="48.68094" lon="7.24942">
        <ele>354.2</ele>
        <time>2020-05-22T14:25:58Z</time>
      </trkpt>
      <trkpt lat="48.68092" lon="7.24943">
        <ele>354.8</ele>
        <time>2020-05-22T14:25:59Z</time>
      </trkpt>
      <trkpt lat="48.6809" lon="7.24944">
        <ele>354.8</ele>
        <time>2020-05-22T14:26:00Z</time>
      </trkpt>
      <trkpt lat="48.68086" lon="7.24946">
        <ele>354.7</ele>
        <time>2020-05-22T14:26:02Z</time>
      </trkpt>
      <trkpt lat="48.68084" lon="7.24948">
        <ele>355.4</ele>
        <time>2020-05-22T14:26:03Z</time>
      </trkpt>
      <trkpt lat="48.68083" lon="7.24949">
        <ele>355.4</ele>
        <time>2020-05-22T14:26:04Z</time>
      </trkpt>
      <trkpt lat="48.6808" lon="7.24952">
        <ele>355.8</ele>
        <time>2020-05-22T14:26:06Z</time>
      </trkpt>
      <trkpt lat="48.68078" lon="7.24954">
        <ele>355.8</ele>
        <time>2020-05-22T14:26:07Z</time>
      </trkpt>
      <trkpt lat="48.68074" lon="7.24956">
        <ele>355.7</ele>
        <time>2020-05-22T14:26:09Z</time>
      </trkpt>
      <trkpt lat="48.6807" lon="7.24959">
        <ele>355.9</ele>
        <time>2020-05-22T14:26:11Z</time>
      </trkpt>
      <trkpt lat="48.68065" lon="7.24959">
        <ele>355.8</ele>
        <time>2020-05-22T14:26:13Z</time>
      </trkpt>
      <trkpt lat="48.68061" lon="7.24959">
        <ele>355.8</ele>
        <time>2020-05-22T14:26:15Z</time>
      </trkpt>
      <trkpt lat="48.68056" lon="7.2496">
        <ele>355.8</ele>
        <time>2020-05-22T14:26:17Z</time>
      </trkpt>
      <trkpt lat="48.68053" lon="7.24961">
        <ele>356.4</ele>
        <time>2020-05-22T14:26:19Z</time>
      </trkpt>
      <trkpt lat="48.68049" lon="7.24963">
        <ele>356.4</ele>
        <time>2020-05-22T14:26:21Z</time>
      </trkpt>
      <trkpt lat="48.68046" lon="7.24964">
        <ele>356.5</ele>
        <time>2020-05-22T14:26:23Z</time>
      </trkpt>
      <trkpt lat="48.68042" lon="7.24965">
        <ele>356.5</ele>
        <time>2020-05-22T14:26:25Z</time>
      </trkpt>
      <trkpt lat="48.6804" lon="7.24965">
        <ele>356.8</ele>
        <time>2020-05-22T14:26:26Z</time>
      </trkpt>
      <trkpt lat="48.68036" lon="7.24966">
        <ele>356.9</ele>
        <time>2020-05-22T14:26:28Z</time>
      </trkpt>
      <trkpt lat="48.68032" lon="7.24967">
        <ele>357</ele>
        <time>2020-05-22T14:26:29Z</time>
      </trkpt>
      <trkpt lat="48.68031" lon="7.24967">
        <ele>357</ele>
        <time>2020-05-22T14:26:30Z</time>
      </trkpt>
      <trkpt lat="48.68029" lon="7.24968">
        <ele>357.2</ele>
        <time>2020-05-22T14:26:31Z</time>
      </trkpt>
      <trkpt lat="48.68023" lon="7.24968">
        <ele>357.5</ele>
        <time>2020-05-22T14:26:33Z</time>
      </trkpt>
      <trkpt lat="48.68019" lon="7.24969">
        <ele>357.9</ele>
        <time>2020-05-22T14:26:35Z</time>
      </trkpt>
      <trkpt lat="48.68015" lon="7.2497">
        <ele>358.4</ele>
        <time>2020-05-22T14:26:37Z</time>
      </trkpt>
      <trkpt lat="48.68013" lon="7.2497">
        <ele>358.6</ele>
        <time>2020-05-22T14:26:38Z</time>
      </trkpt>
      <trkpt lat="48.68009" lon="7.24972">
        <ele>358.9</ele>
        <time>2020-05-22T14:26:40Z</time>
      </trkpt>
      <trkpt lat="48.68007" lon="7.24973">
        <ele>359.2</ele>
        <time>2020-05-22T14:26:41Z</time>
      </trkpt>
      <trkpt lat="48.68002" lon="7.24973">
        <ele>359.9</ele>
        <time>2020-05-22T14:26:43Z</time>
      </trkpt>
      <trkpt lat="48.68" lon="7.24973">
        <ele>359.9</ele>
        <time>2020-05-22T14:26:44Z</time>
      </trkpt>
      <trkpt lat="48.67996" lon="7.24974">
        <ele>360.7</ele>
        <time>2020-05-22T14:26:46Z</time>
      </trkpt>
      <trkpt lat="48.67993" lon="7.24976">
        <ele>361.1</ele>
        <time>2020-05-22T14:26:48Z</time>
      </trkpt>
      <trkpt lat="48.67991" lon="7.24978">
        <ele>361.3</ele>
        <time>2020-05-22T14:26:50Z</time>
      </trkpt>
      <trkpt lat="48.6799" lon="7.2498">
        <ele>361.3</ele>
        <time>2020-05-22T14:26:51Z</time>
      </trkpt>
      <trkpt lat="48.67987" lon="7.24984">
        <ele>361.4</ele>
        <time>2020-05-22T14:26:53Z</time>
      </trkpt>
      <trkpt lat="48.67985" lon="7.24988">
        <ele>361.6</ele>
        <time>2020-05-22T14:26:55Z</time>
      </trkpt>
      <trkpt lat="48.67984" lon="7.2499">
        <ele>361.6</ele>
        <time>2020-05-22T14:26:56Z</time>
      </trkpt>
      <trkpt lat="48.67983" lon="7.24992">
        <ele>361.4</ele>
        <time>2020-05-22T14:26:57Z</time>
      </trkpt>
      <trkpt lat="48.6798" lon="7.24997">
        <ele>361.7</ele>
        <time>2020-05-22T14:26:59Z</time>
      </trkpt>
      <trkpt lat="48.67979" lon="7.25">
        <ele>362.2</ele>
        <time>2020-05-22T14:27:00Z</time>
      </trkpt>
      <trkpt lat="48.67978" lon="7.25002">
        <ele>362.2</ele>
        <time>2020-05-22T14:27:01Z</time>
      </trkpt>
      <trkpt lat="48.67976" lon="7.25006">
        <ele>362.8</ele>
        <time>2020-05-22T14:27:03Z</time>
      </trkpt>
      <trkpt lat="48.67975" lon="7.25008">
        <ele>362.8</ele>
        <time>2020-05-22T14:27:04Z</time>
      </trkpt>
      <trkpt lat="48.67974" lon="7.25011">
        <ele>362.8</ele>
        <time>2020-05-22T14:27:05Z</time>
      </trkpt>
      <trkpt lat="48.67972" lon="7.25017">
        <ele>363.7</ele>
        <time>2020-05-22T14:27:07Z</time>
      </trkpt>
      <trkpt lat="48.67971" lon="7.2502">
        <ele>364.3</ele>
        <time>2020-05-22T14:27:08Z</time>
      </trkpt>
      <trkpt lat="48.6797" lon="7.25026">
        <ele>364.6</ele>
        <time>2020-05-22T14:27:10Z</time>
      </trkpt>
      <trkpt lat="48.67968" lon="7.25031">
        <ele>365.3</ele>
        <time>2020-05-22T14:27:11Z</time>
      </trkpt>
      <trkpt lat="48.67968" lon="7.25032">
        <ele>365.3</ele>
        <time>2020-05-22T14:27:12Z</time>
      </trkpt>
      <trkpt lat="48.67967" lon="7.25034">
        <ele>365.6</ele>
        <time>2020-05-22T14:27:13Z</time>
      </trkpt>
      <trkpt lat="48.67965" lon="7.25039">
        <ele>366.3</ele>
        <time>2020-05-22T14:27:15Z</time>
      </trkpt>
      <trkpt lat="48.67964" lon="7.25041">
        <ele>366.3</ele>
        <time>2020-05-22T14:27:16Z</time>
      </trkpt>
      <trkpt lat="48.67962" lon="7.25045">
        <ele>367.1</ele>
        <time>2020-05-22T14:27:18Z</time>
      </trkpt>
      <trkpt lat="48.6796" lon="7.25048">
        <ele>367.9</ele>
        <time>2020-05-22T14:27:20Z</time>
      </trkpt>
      <trkpt lat="48.67959" lon="7.25049">
        <ele>367.9</ele>
        <time>2020-05-22T14:27:21Z</time>
      </trkpt>
      <trkpt lat="48.67955" lon="7.25053">
        <ele>368.7</ele>
        <time>2020-05-22T14:27:23Z</time>
      </trkpt>
      <trkpt lat="48.67954" lon="7.25055">
        <ele>369.2</ele>
        <time>2020-05-22T14:27:24Z</time>
      </trkpt>
      <trkpt lat="48.67952" lon="7.25057">
        <ele>369.6</ele>
        <time>2020-05-22T14:27:26Z</time>
      </trkpt>
      <trkpt lat="48.6795" lon="7.25062">
        <ele>370.4</ele>
        <time>2020-05-22T14:27:28Z</time>
      </trkpt>
      <trkpt lat="48.67949" lon="7.25064">
        <ele>370.8</ele>
        <time>2020-05-22T14:27:29Z</time>
      </trkpt>
      <trkpt lat="48.67947" lon="7.25067">
        <ele>371.2</ele>
        <time>2020-05-22T14:27:31Z</time>
      </trkpt>
      <trkpt lat="48.67945" lon="7.2507">
        <ele>371.9</ele>
        <time>2020-05-22T14:27:32Z</time>
      </trkpt>
      <trkpt lat="48.67944" lon="7.25071">
        <ele>371.9</ele>
        <time>2020-05-22T14:27:33Z</time>
      </trkpt>
      <trkpt lat="48.67942" lon="7.25075">
        <ele>372.5</ele>
        <time>2020-05-22T14:27:35Z</time>
      </trkpt>
      <trkpt lat="48.67941" lon="7.25079">
        <ele>372.7</ele>
        <time>2020-05-22T14:27:37Z</time>
      </trkpt>
      <trkpt lat="48.6794" lon="7.25082">
        <ele>373.1</ele>
        <time>2020-05-22T14:27:38Z</time>
      </trkpt>
      <trkpt lat="48.67938" lon="7.25085">
        <ele>373.3</ele>
        <time>2020-05-22T14:27:40Z</time>
      </trkpt>
      <trkpt lat="48.67936" lon="7.25087">
        <ele>373.4</ele>
        <time>2020-05-22T14:27:41Z</time>
      </trkpt>
      <trkpt lat="48.67934" lon="7.25091">
        <ele>373.5</ele>
        <time>2020-05-22T14:27:43Z</time>
      </trkpt>
      <trkpt lat="48.67932" lon="7.25095">
        <ele>373.6</ele>
        <time>2020-05-22T14:27:45Z</time>
      </trkpt>
      <trkpt lat="48.67929" lon="7.25099">
        <ele>373.6</ele>
        <time>2020-05-22T14:27:47Z</time>
      </trkpt>
      <trkpt lat="48.67927" lon="7.25102">
        <ele>373.6</ele>
        <time>2020-05-22T14:27:49Z</time>
      </trkpt>
      <trkpt lat="48.67925" lon="7.25108">
        <ele>373.5</ele>
        <time>2020-05-22T14:27:51Z</time>
      </trkpt>
      <trkpt lat="48.67924" lon="7.25112">
        <ele>373.6</ele>
        <time>2020-05-22T14:27:53Z</time>
      </trkpt>
      <trkpt lat="48.67922" lon="7.25117">
        <ele>373.5</ele>
        <time>2020-05-22T14:27:55Z</time>
      </trkpt>
      <trkpt lat="48.6792" lon="7.25118">
        <ele>373.5</ele>
        <time>2020-05-22T14:27:56Z</time>
      </trkpt>
      <trkpt lat="48.67919" lon="7.2512">
        <ele>373.5</ele>
        <time>2020-05-22T14:27:57Z</time>
      </trkpt>
      <trkpt lat="48.67918" lon="7.25124">
        <ele>373.6</ele>
        <time>2020-05-22T14:27:59Z</time>
      </trkpt>
      <trkpt lat="48.67916" lon="7.25129">
        <ele>373.5</ele>
        <time>2020-05-22T14:28:01Z</time>
      </trkpt>
      <trkpt lat="48.67914" lon="7.25134">
        <ele>373.3</ele>
        <time>2020-05-22T14:28:03Z</time>
      </trkpt>
      <trkpt lat="48.67913" lon="7.25137">
        <ele>373.3</ele>
        <time>2020-05-22T14:28:05Z</time>
      </trkpt>
      <trkpt lat="48.67912" lon="7.25139">
        <ele>373.3</ele>
        <time>2020-05-22T14:28:06Z</time>
      </trkpt>
      <trkpt lat="48.67912" lon="7.2514">
        <ele>373.1</ele>
        <time>2020-05-22T14:28:07Z</time>
      </trkpt>
      <trkpt lat="48.6791" lon="7.25142">
        <ele>373</ele>
        <time>2020-05-22T14:28:09Z</time>
      </trkpt>
      <trkpt lat="48.67906" lon="7.25146">
        <ele>372.7</ele>
        <time>2020-05-22T14:28:11Z</time>
      </trkpt>
      <trkpt lat="48.67904" lon="7.25149">
        <ele>372.5</ele>
        <time>2020-05-22T14:28:12Z</time>
      </trkpt>
      <trkpt lat="48.67902" lon="7.25149">
        <ele>372.2</ele>
        <time>2020-05-22T14:28:13Z</time>
      </trkpt>
      <trkpt lat="48.67901" lon="7.25151">
        <ele>372.2</ele>
        <time>2020-05-22T14:28:14Z</time>
      </trkpt>
      <trkpt lat="48.67899" lon="7.25155">
        <ele>371.9</ele>
        <time>2020-05-22T14:28:16Z</time>
      </trkpt>
      <trkpt lat="48.67897" lon="7.25159">
        <ele>371.8</ele>
        <time>2020-05-22T14:28:18Z</time>
      </trkpt>
      <trkpt lat="48.67896" lon="7.25159">
        <ele>371.8</ele>
        <time>2020-05-22T14:28:19Z</time>
      </trkpt>
      <trkpt lat="48.67895" lon="7.2516">
        <ele>371.7</ele>
        <time>2020-05-22T14:28:20Z</time>
      </trkpt>
      <trkpt lat="48.67893" lon="7.25163">
        <ele>371.7</ele>
        <time>2020-05-22T14:28:22Z</time>
      </trkpt>
      <trkpt lat="48.67893" lon="7.25165">
        <ele>371.7</ele>
        <time>2020-05-22T14:28:23Z</time>
      </trkpt>
      <trkpt lat="48.6789" lon="7.25168">
        <ele>371.7</ele>
        <time>2020-05-22T14:28:25Z</time>
      </trkpt>
      <trkpt lat="48.67888" lon="7.25171">
        <ele>371.9</ele>
        <time>2020-05-22T14:28:27Z</time>
      </trkpt>
      <trkpt lat="48.67887" lon="7.25172">
        <ele>371.9</ele>
        <time>2020-05-22T14:28:28Z</time>
      </trkpt>
      <trkpt lat="48.67886" lon="7.25175">
        <ele>372</ele>
        <time>2020-05-22T14:28:29Z</time>
      </trkpt>
      <trkpt lat="48.67884" lon="7.25176">
        <ele>372.1</ele>
        <time>2020-05-22T14:28:30Z</time>
      </trkpt>
      <trkpt lat="48.67882" lon="7.25178">
        <ele>372.3</ele>
        <time>2020-05-22T14:28:32Z</time>
      </trkpt>
      <trkpt lat="48.67881" lon="7.2518">
        <ele>372.6</ele>
        <time>2020-05-22T14:28:33Z</time>
      </trkpt>
      <trkpt lat="48.6788" lon="7.25181">
        <ele>372.6</ele>
        <time>2020-05-22T14:28:34Z</time>
      </trkpt>
      <trkpt lat="48.67877" lon="7.25184">
        <ele>372.9</ele>
        <time>2020-05-22T14:28:35Z</time>
      </trkpt>
      <trkpt lat="48.67876" lon="7.25184">
        <ele>372.9</ele>
        <time>2020-05-22T14:28:36Z</time>
      </trkpt>
      <trkpt lat="48.67874" lon="7.25187">
        <ele>373.1</ele>
        <time>2020-05-22T14:28:38Z</time>
      </trkpt>
      <trkpt lat="48.67873" lon="7.25189">
        <ele>373.3</ele>
        <time>2020-05-22T14:28:39Z</time>
      </trkpt>
      <trkpt lat="48.67871" lon="7.25192">
        <ele>373.5</ele>
        <time>2020-05-22T14:28:41Z</time>
      </trkpt>
      <trkpt lat="48.67867" lon="7.25195">
        <ele>373.8</ele>
        <time>2020-05-22T14:28:43Z</time>
      </trkpt>
      <trkpt lat="48.67864" lon="7.25196">
        <ele>374</ele>
        <time>2020-05-22T14:28:45Z</time>
      </trkpt>
      <trkpt lat="48.6786" lon="7.25198">
        <ele>374.4</ele>
        <time>2020-05-22T14:28:47Z</time>
      </trkpt>
      <trkpt lat="48.6786" lon="7.25199">
        <ele>374.4</ele>
        <time>2020-05-22T14:28:48Z</time>
      </trkpt>
      <trkpt lat="48.67859" lon="7.252">
        <ele>374.4</ele>
        <time>2020-05-22T14:28:49Z</time>
      </trkpt>
      <trkpt lat="48.67858" lon="7.25201">
        <ele>374.5</ele>
        <time>2020-05-22T14:28:50Z</time>
      </trkpt>
      <trkpt lat="48.67855" lon="7.25205">
        <ele>374.8</ele>
        <time>2020-05-22T14:28:52Z</time>
      </trkpt>
      <trkpt lat="48.67853" lon="7.25206">
        <ele>374.9</ele>
        <time>2020-05-22T14:28:53Z</time>
      </trkpt>
      <trkpt lat="48.67852" lon="7.25208">
        <ele>375</ele>
        <time>2020-05-22T14:28:54Z</time>
      </trkpt>
      <trkpt lat="48.67848" lon="7.2521">
        <ele>375.2</ele>
        <time>2020-05-22T14:28:56Z</time>
      </trkpt>
      <trkpt lat="48.67846" lon="7.25214">
        <ele>375.5</ele>
        <time>2020-05-22T14:28:58Z</time>
      </trkpt>
      <trkpt lat="48.67844" lon="7.25216">
        <ele>375.5</ele>
        <time>2020-05-22T14:28:59Z</time>
      </trkpt>
      <trkpt lat="48.67841" lon="7.25218">
        <ele>375.8</ele>
        <time>2020-05-22T14:29:01Z</time>
      </trkpt>
      <trkpt lat="48.67837" lon="7.25219">
        <ele>376.1</ele>
        <time>2020-05-22T14:29:03Z</time>
      </trkpt>
      <trkpt lat="48.67836" lon="7.25221">
        <ele>376.1</ele>
        <time>2020-05-22T14:29:04Z</time>
      </trkpt>
      <trkpt lat="48.67832" lon="7.25222">
        <ele>376.4</ele>
        <time>2020-05-22T14:29:06Z</time>
      </trkpt>
      <trkpt lat="48.6783" lon="7.25223">
        <ele>376.4</ele>
        <time>2020-05-22T14:29:08Z</time>
      </trkpt>
      <trkpt lat="48.67829" lon="7.25224">
        <ele>376.4</ele>
        <time>2020-05-22T14:29:09Z</time>
      </trkpt>
      <trkpt lat="48.67826" lon="7.25226">
        <ele>376.4</ele>
        <time>2020-05-22T14:29:11Z</time>
      </trkpt>
      <trkpt lat="48.67825" lon="7.25227">
        <ele>376.5</ele>
        <time>2020-05-22T14:29:12Z</time>
      </trkpt>
      <trkpt lat="48.67823" lon="7.25228">
        <ele>376.5</ele>
        <time>2020-05-22T14:29:13Z</time>
      </trkpt>
      <trkpt lat="48.67821" lon="7.25229">
        <ele>376.5</ele>
        <time>2020-05-22T14:29:14Z</time>
      </trkpt>
      <trkpt lat="48.67819" lon="7.2523">
        <ele>376.4</ele>
        <time>2020-05-22T14:29:16Z</time>
      </trkpt>
      <trkpt lat="48.67818" lon="7.2523">
        <ele>376.3</ele>
        <time>2020-05-22T14:29:17Z</time>
      </trkpt>
      <trkpt lat="48.67814" lon="7.25232">
        <ele>376.4</ele>
        <time>2020-05-22T14:29:19Z</time>
      </trkpt>
      <trkpt lat="48.6781" lon="7.25233">
        <ele>376.3</ele>
        <time>2020-05-22T14:29:21Z</time>
      </trkpt>
      <trkpt lat="48.67809" lon="7.25234">
        <ele>376.3</ele>
        <time>2020-05-22T14:29:22Z</time>
      </trkpt>
      <trkpt lat="48.67808" lon="7.25234">
        <ele>376.3</ele>
        <time>2020-05-22T14:29:23Z</time>
      </trkpt>
      <trkpt lat="48.67804" lon="7.25236">
        <ele>376.4</ele>
        <time>2020-05-22T14:29:25Z</time>
      </trkpt>
      <trkpt lat="48.67803" lon="7.25236">
        <ele>376.5</ele>
        <time>2020-05-22T14:29:26Z</time>
      </trkpt>
      <trkpt lat="48.67801" lon="7.25236">
        <ele>376.5</ele>
        <time>2020-05-22T14:29:27Z</time>
      </trkpt>
      <trkpt lat="48.67798" lon="7.25237">
        <ele>376.6</ele>
        <time>2020-05-22T14:29:29Z</time>
      </trkpt>
      <trkpt lat="48.67796" lon="7.25238">
        <ele>376.6</ele>
        <time>2020-05-22T14:29:30Z</time>
      </trkpt>
      <trkpt lat="48.67793" lon="7.25239">
        <ele>376.7</ele>
        <time>2020-05-22T14:29:32Z</time>
      </trkpt>
      <trkpt lat="48.6779" lon="7.25241">
        <ele>377</ele>
        <time>2020-05-22T14:29:34Z</time>
      </trkpt>
      <trkpt lat="48.67787" lon="7.25242">
        <ele>377.2</ele>
        <time>2020-05-22T14:29:36Z</time>
      </trkpt>
      <trkpt lat="48.67786" lon="7.25243">
        <ele>377.6</ele>
        <time>2020-05-22T14:29:37Z</time>
      </trkpt>
      <trkpt lat="48.67782" lon="7.25244">
        <ele>378.1</ele>
        <time>2020-05-22T14:29:39Z</time>
      </trkpt>
      <trkpt lat="48.67781" lon="7.25245">
        <ele>378.6</ele>
        <time>2020-05-22T14:29:40Z</time>
      </trkpt>
      <trkpt lat="48.6778" lon="7.25245">
        <ele>378.6</ele>
        <time>2020-05-22T14:29:41Z</time>
      </trkpt>
      <trkpt lat="48.67777" lon="7.25247">
        <ele>379.1</ele>
        <time>2020-05-22T14:29:43Z</time>
      </trkpt>
      <trkpt lat="48.67772" lon="7.25248">
        <ele>380.3</ele>
        <time>2020-05-22T14:29:45Z</time>
      </trkpt>
      <trkpt lat="48.67769" lon="7.25248">
        <ele>380.9</ele>
        <time>2020-05-22T14:29:47Z</time>
      </trkpt>
      <trkpt lat="48.67766" lon="7.25249">
        <ele>381.3</ele>
        <time>2020-05-22T14:29:49Z</time>
      </trkpt>
      <trkpt lat="48.67764" lon="7.2525">
        <ele>381.3</ele>
        <time>2020-05-22T14:29:50Z</time>
      </trkpt>
      <trkpt lat="48.67763" lon="7.2525">
        <ele>381.8</ele>
        <time>2020-05-22T14:29:51Z</time>
      </trkpt>
      <trkpt lat="48.67759" lon="7.25253">
        <ele>382.1</ele>
        <time>2020-05-22T14:29:53Z</time>
      </trkpt>
      <trkpt lat="48.67756" lon="7.25254">
        <ele>383.2</ele>
        <time>2020-05-22T14:29:55Z</time>
      </trkpt>
      <trkpt lat="48.67754" lon="7.25254">
        <ele>383.2</ele>
        <time>2020-05-22T14:29:56Z</time>
      </trkpt>
      <trkpt lat="48.6775" lon="7.25256">
        <ele>384.5</ele>
        <time>2020-05-22T14:29:58Z</time>
      </trkpt>
      <trkpt lat="48.67747" lon="7.25257">
        <ele>384.7</ele>
        <time>2020-05-22T14:30:00Z</time>
      </trkpt>
      <trkpt lat="48.67743" lon="7.25259">
        <ele>385.3</ele>
        <time>2020-05-22T14:30:02Z</time>
      </trkpt>
      <trkpt lat="48.67741" lon="7.25262">
        <ele>385.4</ele>
        <time>2020-05-22T14:30:04Z</time>
      </trkpt>
      <trkpt lat="48.67739" lon="7.25264">
        <ele>385.4</ele>
        <time>2020-05-22T14:30:05Z</time>
      </trkpt>
      <trkpt lat="48.67738" lon="7.25266">
        <ele>385.4</ele>
        <time>2020-05-22T14:30:07Z</time>
      </trkpt>
      <trkpt lat="48.67736" lon="7.25268">
        <ele>385.4</ele>
        <time>2020-05-22T14:30:08Z</time>
      </trkpt>
      <trkpt lat="48.67734" lon="7.2527">
        <ele>385.3</ele>
        <time>2020-05-22T14:30:10Z</time>
      </trkpt>
      <trkpt lat="48.67733" lon="7.25271">
        <ele>385.8</ele>
        <time>2020-05-22T14:30:11Z</time>
      </trkpt>
      <trkpt lat="48.67729" lon="7.25273">
        <ele>386.3</ele>
        <time>2020-05-22T14:30:13Z</time>
      </trkpt>
      <trkpt lat="48.67725" lon="7.25275">
        <ele>386.4</ele>
        <time>2020-05-22T14:30:15Z</time>
      </trkpt>
      <trkpt lat="48.67723" lon="7.25277">
        <ele>387.1</ele>
        <time>2020-05-22T14:30:16Z</time>
      </trkpt>
      <trkpt lat="48.67721" lon="7.25279">
        <ele>387.3</ele>
        <time>2020-05-22T14:30:18Z</time>
      </trkpt>
      <trkpt lat="48.67718" lon="7.25281">
        <ele>388.1</ele>
        <time>2020-05-22T14:30:20Z</time>
      </trkpt>
      <trkpt lat="48.67716" lon="7.25282">
        <ele>388.8</ele>
        <time>2020-05-22T14:30:21Z</time>
      </trkpt>
      <trkpt lat="48.67713" lon="7.25285">
        <ele>389</ele>
        <time>2020-05-22T14:30:23Z</time>
      </trkpt>
      <trkpt lat="48.67711" lon="7.25289">
        <ele>388.6</ele>
        <time>2020-05-22T14:30:25Z</time>
      </trkpt>
      <trkpt lat="48.67709" lon="7.25291">
        <ele>388.8</ele>
        <time>2020-05-22T14:30:27Z</time>
      </trkpt>
      <trkpt lat="48.67708" lon="7.25293">
        <ele>389.5</ele>
        <time>2020-05-22T14:30:28Z</time>
      </trkpt>
      <trkpt lat="48.67704" lon="7.25296">
        <ele>389.7</ele>
        <time>2020-05-22T14:30:30Z</time>
      </trkpt>
      <trkpt lat="48.67701" lon="7.25298">
        <ele>390.4</ele>
        <time>2020-05-22T14:30:32Z</time>
      </trkpt>
      <trkpt lat="48.67697" lon="7.25301">
        <ele>390.6</ele>
        <time>2020-05-22T14:30:34Z</time>
      </trkpt>
      <trkpt lat="48.67695" lon="7.25305">
        <ele>390.9</ele>
        <time>2020-05-22T14:30:36Z</time>
      </trkpt>
      <trkpt lat="48.67694" lon="7.25306">
        <ele>390.9</ele>
        <time>2020-05-22T14:30:37Z</time>
      </trkpt>
      <trkpt lat="48.67693" lon="7.25309">
        <ele>391.2</ele>
        <time>2020-05-22T14:30:38Z</time>
      </trkpt>
      <trkpt lat="48.67691" lon="7.25313">
        <ele>391.5</ele>
        <time>2020-05-22T14:30:40Z</time>
      </trkpt>
      <trkpt lat="48.67689" lon="7.25315">
        <ele>391.5</ele>
        <time>2020-05-22T14:30:41Z</time>
      </trkpt>
      <trkpt lat="48.67688" lon="7.25316">
        <ele>391.5</ele>
        <time>2020-05-22T14:30:42Z</time>
      </trkpt>
      <trkpt lat="48.67685" lon="7.2532">
        <ele>392.6</ele>
        <time>2020-05-22T14:30:44Z</time>
      </trkpt>
      <trkpt lat="48.67684" lon="7.25321">
        <ele>392.2</ele>
        <time>2020-05-22T14:30:46Z</time>
      </trkpt>
      <trkpt lat="48.67684" lon="7.25323">
        <ele>392.2</ele>
        <time>2020-05-22T14:30:47Z</time>
      </trkpt>
      <trkpt lat="48.67683" lon="7.25325">
        <ele>392.2</ele>
        <time>2020-05-22T14:30:48Z</time>
      </trkpt>
      <trkpt lat="48.67681" lon="7.25328">
        <ele>392.4</ele>
        <time>2020-05-22T14:30:50Z</time>
      </trkpt>
      <trkpt lat="48.67679" lon="7.25329">
        <ele>392.9</ele>
        <time>2020-05-22T14:30:51Z</time>
      </trkpt>
      <trkpt lat="48.67677" lon="7.25332">
        <ele>392.5</ele>
        <time>2020-05-22T14:30:53Z</time>
      </trkpt>
      <trkpt lat="48.67674" lon="7.25336">
        <ele>393</ele>
        <time>2020-05-22T14:30:55Z</time>
      </trkpt>
      <trkpt lat="48.67673" lon="7.25337">
        <ele>393</ele>
        <time>2020-05-22T14:30:56Z</time>
      </trkpt>
      <trkpt lat="48.67671" lon="7.25339">
        <ele>392.5</ele>
        <time>2020-05-22T14:30:57Z</time>
      </trkpt>
      <trkpt lat="48.67667" lon="7.25343">
        <ele>393.1</ele>
        <time>2020-05-22T14:31:00Z</time>
      </trkpt>
      <trkpt lat="48.67664" lon="7.25346">
        <ele>393.6</ele>
        <time>2020-05-22T14:31:02Z</time>
      </trkpt>
      <trkpt lat="48.67663" lon="7.25348">
        <ele>393.2</ele>
        <time>2020-05-22T14:31:03Z</time>
      </trkpt>
      <trkpt lat="48.67662" lon="7.25349">
        <ele>393.7</ele>
        <time>2020-05-22T14:31:04Z</time>
      </trkpt>
      <trkpt lat="48.6766" lon="7.25352">
        <ele>393.4</ele>
        <time>2020-05-22T14:31:06Z</time>
      </trkpt>
      <trkpt lat="48.67659" lon="7.25355">
        <ele>393.8</ele>
        <time>2020-05-22T14:31:08Z</time>
      </trkpt>
      <trkpt lat="48.67656" lon="7.25357">
        <ele>394</ele>
        <time>2020-05-22T14:31:10Z</time>
      </trkpt>
      <trkpt lat="48.67654" lon="7.2536">
        <ele>394.2</ele>
        <time>2020-05-22T14:31:12Z</time>
      </trkpt>
      <trkpt lat="48.67652" lon="7.25361">
        <ele>394.2</ele>
        <time>2020-05-22T14:31:13Z</time>
      </trkpt>
      <trkpt lat="48.67651" lon="7.25362">
        <ele>394.2</ele>
        <time>2020-05-22T14:31:14Z</time>
      </trkpt>
      <trkpt lat="48.6765" lon="7.25363">
        <ele>394.7</ele>
        <time>2020-05-22T14:31:15Z</time>
      </trkpt>
      <trkpt lat="48.67648" lon="7.25367">
        <ele>395</ele>
        <time>2020-05-22T14:31:17Z</time>
      </trkpt>
      <trkpt lat="48.67647" lon="7.25369">
        <ele>394.7</ele>
        <time>2020-05-22T14:31:18Z</time>
      </trkpt>
      <trkpt lat="48.67645" lon="7.25372">
        <ele>395.3</ele>
        <time>2020-05-22T14:31:20Z</time>
      </trkpt>
      <trkpt lat="48.67644" lon="7.25374">
        <ele>395.3</ele>
        <time>2020-05-22T14:31:21Z</time>
      </trkpt>
      <trkpt lat="48.67642" lon="7.25378">
        <ele>395.7</ele>
        <time>2020-05-22T14:31:23Z</time>
      </trkpt>
      <trkpt lat="48.67641" lon="7.2538">
        <ele>395.7</ele>
        <time>2020-05-22T14:31:24Z</time>
      </trkpt>
      <trkpt lat="48.6764" lon="7.25382">
        <ele>395.4</ele>
        <time>2020-05-22T14:31:25Z</time>
      </trkpt>
      <trkpt lat="48.67639" lon="7.25383">
        <ele>396</ele>
        <time>2020-05-22T14:31:26Z</time>
      </trkpt>
      <trkpt lat="48.67638" lon="7.25385">
        <ele>396</ele>
        <time>2020-05-22T14:31:27Z</time>
      </trkpt>
      <trkpt lat="48.67634" lon="7.25389">
        <ele>396.3</ele>
        <time>2020-05-22T14:31:29Z</time>
      </trkpt>
      <trkpt lat="48.67634" lon="7.25391">
        <ele>396.6</ele>
        <time>2020-05-22T14:31:31Z</time>
      </trkpt>
      <trkpt lat="48.67634" lon="7.25393">
        <ele>396.6</ele>
        <time>2020-05-22T14:31:32Z</time>
      </trkpt>
      <trkpt lat="48.67633" lon="7.25395">
        <ele>396.3</ele>
        <time>2020-05-22T14:31:33Z</time>
      </trkpt>
      <trkpt lat="48.67632" lon="7.25396">
        <ele>396.3</ele>
        <time>2020-05-22T14:31:34Z</time>
      </trkpt>
      <trkpt lat="48.67628" lon="7.25399">
        <ele>397.2</ele>
        <time>2020-05-22T14:31:36Z</time>
      </trkpt>
      <trkpt lat="48.67627" lon="7.254">
        <ele>397.2</ele>
        <time>2020-05-22T14:31:37Z</time>
      </trkpt>
      <trkpt lat="48.67624" lon="7.25403">
        <ele>397.5</ele>
        <time>2020-05-22T14:31:39Z</time>
      </trkpt>
      <trkpt lat="48.67621" lon="7.25405">
        <ele>398</ele>
        <time>2020-05-22T14:31:41Z</time>
      </trkpt>
      <trkpt lat="48.67617" lon="7.25407">
        <ele>398.6</ele>
        <time>2020-05-22T14:31:43Z</time>
      </trkpt>
      <trkpt lat="48.67614" lon="7.25409">
        <ele>398.9</ele>
        <time>2020-05-22T14:31:45Z</time>
      </trkpt>
      <trkpt lat="48.67613" lon="7.2541">
        <ele>399.5</ele>
        <time>2020-05-22T14:31:46Z</time>
      </trkpt>
      <trkpt lat="48.6761" lon="7.25412">
        <ele>399.8</ele>
        <time>2020-05-22T14:31:48Z</time>
      </trkpt>
      <trkpt lat="48.67607" lon="7.25413">
        <ele>400.3</ele>
        <time>2020-05-22T14:31:50Z</time>
      </trkpt>
      <trkpt lat="48.67606" lon="7.25415">
        <ele>400.8</ele>
        <time>2020-05-22T14:31:51Z</time>
      </trkpt>
      <trkpt lat="48.67604" lon="7.25417">
        <ele>400.6</ele>
        <time>2020-05-22T14:31:53Z</time>
      </trkpt>
      <trkpt lat="48.67603" lon="7.25418">
        <ele>401</ele>
        <time>2020-05-22T14:31:54Z</time>
      </trkpt>
      <trkpt lat="48.67601" lon="7.2542">
        <ele>400.8</ele>
        <time>2020-05-22T14:31:55Z</time>
      </trkpt>
      <trkpt lat="48.67598" lon="7.25424">
        <ele>401</ele>
        <time>2020-05-22T14:31:57Z</time>
      </trkpt>
      <trkpt lat="48.67597" lon="7.25426">
        <ele>401.5</ele>
        <time>2020-05-22T14:31:59Z</time>
      </trkpt>
      <trkpt lat="48.67596" lon="7.25427">
        <ele>401.5</ele>
        <time>2020-05-22T14:32:00Z</time>
      </trkpt>
      <trkpt lat="48.67594" lon="7.2543">
        <ele>401.9</ele>
        <time>2020-05-22T14:32:01Z</time>
      </trkpt>
      <trkpt lat="48.67591" lon="7.25433">
        <ele>402.3</ele>
        <time>2020-05-22T14:32:03Z</time>
      </trkpt>
      <trkpt lat="48.67589" lon="7.25436">
        <ele>402.3</ele>
        <time>2020-05-22T14:32:05Z</time>
      </trkpt>
      <trkpt lat="48.67586" lon="7.25438">
        <ele>403.4</ele>
        <time>2020-05-22T14:32:07Z</time>
      </trkpt>
      <trkpt lat="48.67584" lon="7.2544">
        <ele>403.4</ele>
        <time>2020-05-22T14:32:08Z</time>
      </trkpt>
      <trkpt lat="48.67583" lon="7.25441">
        <ele>403.8</ele>
        <time>2020-05-22T14:32:09Z</time>
      </trkpt>
      <trkpt lat="48.6758" lon="7.25444">
        <ele>404.4</ele>
        <time>2020-05-22T14:32:11Z</time>
      </trkpt>
      <trkpt lat="48.67578" lon="7.25445">
        <ele>404.3</ele>
        <time>2020-05-22T14:32:12Z</time>
      </trkpt>
      <trkpt lat="48.67577" lon="7.25447">
        <ele>404.8</ele>
        <time>2020-05-22T14:32:13Z</time>
      </trkpt>
      <trkpt lat="48.67574" lon="7.25448">
        <ele>405.2</ele>
        <time>2020-05-22T14:32:15Z</time>
      </trkpt>
      <trkpt lat="48.67572" lon="7.25449">
        <ele>405.2</ele>
        <time>2020-05-22T14:32:16Z</time>
      </trkpt>
      <trkpt lat="48.6757" lon="7.2545">
        <ele>405.5</ele>
        <time>2020-05-22T14:32:17Z</time>
      </trkpt>
      <trkpt lat="48.67567" lon="7.25453">
        <ele>405.8</ele>
        <time>2020-05-22T14:32:19Z</time>
      </trkpt>
      <trkpt lat="48.67563" lon="7.25457">
        <ele>406.3</ele>
        <time>2020-05-22T14:32:21Z</time>
      </trkpt>
      <trkpt lat="48.67561" lon="7.25458">
        <ele>406.3</ele>
        <time>2020-05-22T14:32:23Z</time>
      </trkpt>
      <trkpt lat="48.6756" lon="7.25459">
        <ele>406.5</ele>
        <time>2020-05-22T14:32:24Z</time>
      </trkpt>
      <trkpt lat="48.67558" lon="7.25461">
        <ele>406.5</ele>
        <time>2020-05-22T14:32:25Z</time>
      </trkpt>
      <trkpt lat="48.67556" lon="7.25463">
        <ele>406.8</ele>
        <time>2020-05-22T14:32:26Z</time>
      </trkpt>
      <trkpt lat="48.67555" lon="7.25464">
        <ele>406.8</ele>
        <time>2020-05-22T14:32:27Z</time>
      </trkpt>
      <trkpt lat="48.67552" lon="7.25467">
        <ele>407.2</ele>
        <time>2020-05-22T14:32:29Z</time>
      </trkpt>
      <trkpt lat="48.67549" lon="7.2547">
        <ele>407.9</ele>
        <time>2020-05-22T14:32:31Z</time>
      </trkpt>
      <trkpt lat="48.67547" lon="7.2547">
        <ele>407.9</ele>
        <time>2020-05-22T14:32:32Z</time>
      </trkpt>
      <trkpt lat="48.67546" lon="7.25471">
        <ele>408.1</ele>
        <time>2020-05-22T14:32:33Z</time>
      </trkpt>
      <trkpt lat="48.67544" lon="7.25473">
        <ele>408.1</ele>
        <time>2020-05-22T14:32:35Z</time>
      </trkpt>
      <trkpt lat="48.67542" lon="7.25474">
        <ele>408.5</ele>
        <time>2020-05-22T14:32:36Z</time>
      </trkpt>
      <trkpt lat="48.67539" lon="7.25477">
        <ele>408.8</ele>
        <time>2020-05-22T14:32:38Z</time>
      </trkpt>
      <trkpt lat="48.67537" lon="7.2548">
        <ele>409.3</ele>
        <time>2020-05-22T14:32:40Z</time>
      </trkpt>
      <trkpt lat="48.67535" lon="7.25482">
        <ele>409.8</ele>
        <time>2020-05-22T14:32:42Z</time>
      </trkpt>
      <trkpt lat="48.67532" lon="7.25485">
        <ele>409.8</ele>
        <time>2020-05-22T14:32:44Z</time>
      </trkpt>
      <trkpt lat="48.67531" lon="7.25486">
        <ele>410.3</ele>
        <time>2020-05-22T14:32:45Z</time>
      </trkpt>
      <trkpt lat="48.6753" lon="7.25487">
        <ele>410.3</ele>
        <time>2020-05-22T14:32:46Z</time>
      </trkpt>
      <trkpt lat="48.67529" lon="7.2549">
        <ele>410.9</ele>
        <time>2020-05-22T14:32:48Z</time>
      </trkpt>
      <trkpt lat="48.67526" lon="7.25492">
        <ele>411.4</ele>
        <time>2020-05-22T14:32:50Z</time>
      </trkpt>
      <trkpt lat="48.67524" lon="7.25493">
        <ele>411.4</ele>
        <time>2020-05-22T14:32:51Z</time>
      </trkpt>
      <trkpt lat="48.67521" lon="7.25497">
        <ele>411.9</ele>
        <time>2020-05-22T14:32:53Z</time>
      </trkpt>
      <trkpt lat="48.67519" lon="7.25499">
        <ele>412.4</ele>
        <time>2020-05-22T14:32:54Z</time>
      </trkpt>
      <trkpt lat="48.67516" lon="7.25502">
        <ele>412.7</ele>
        <time>2020-05-22T14:32:56Z</time>
      </trkpt>
      <trkpt lat="48.67513" lon="7.25505">
        <ele>413.1</ele>
        <time>2020-05-22T14:32:58Z</time>
      </trkpt>
      <trkpt lat="48.67511" lon="7.25508">
        <ele>413.4</ele>
        <time>2020-05-22T14:33:00Z</time>
      </trkpt>
      <trkpt lat="48.67509" lon="7.25512">
        <ele>413.6</ele>
        <time>2020-05-22T14:33:02Z</time>
      </trkpt>
      <trkpt lat="48.67508" lon="7.25514">
        <ele>413.6</ele>
        <time>2020-05-22T14:33:03Z</time>
      </trkpt>
      <trkpt lat="48.67505" lon="7.25516">
        <ele>414</ele>
        <time>2020-05-22T14:33:05Z</time>
      </trkpt>
      <trkpt lat="48.67504" lon="7.25517">
        <ele>414</ele>
        <time>2020-05-22T14:33:06Z</time>
      </trkpt>
      <trkpt lat="48.67503" lon="7.25519">
        <ele>414.4</ele>
        <time>2020-05-22T14:33:07Z</time>
      </trkpt>
      <trkpt lat="48.67501" lon="7.25522">
        <ele>414.8</ele>
        <time>2020-05-22T14:33:09Z</time>
      </trkpt>
      <trkpt lat="48.67498" lon="7.25525">
        <ele>415.3</ele>
        <time>2020-05-22T14:33:11Z</time>
      </trkpt>
      <trkpt lat="48.67496" lon="7.25526">
        <ele>415.3</ele>
        <time>2020-05-22T14:33:12Z</time>
      </trkpt>
      <trkpt lat="48.67493" lon="7.25529">
        <ele>415.8</ele>
        <time>2020-05-22T14:33:14Z</time>
      </trkpt>
      <trkpt lat="48.67489" lon="7.25531">
        <ele>416.6</ele>
        <time>2020-05-22T14:33:16Z</time>
      </trkpt>
      <trkpt lat="48.67485" lon="7.25533">
        <ele>417.1</ele>
        <time>2020-05-22T14:33:18Z</time>
      </trkpt>
      <trkpt lat="48.67482" lon="7.25536">
        <ele>417.6</ele>
        <time>2020-05-22T14:33:20Z</time>
      </trkpt>
      <trkpt lat="48.67479" lon="7.2554">
        <ele>418.2</ele>
        <time>2020-05-22T14:33:22Z</time>
      </trkpt>
      <trkpt lat="48.67476" lon="7.25543">
        <ele>418.7</ele>
        <time>2020-05-22T14:33:24Z</time>
      </trkpt>
      <trkpt lat="48.67474" lon="7.25545">
        <ele>419.3</ele>
        <time>2020-05-22T14:33:25Z</time>
      </trkpt>
      <trkpt lat="48.67471" lon="7.25547">
        <ele>419.8</ele>
        <time>2020-05-22T14:33:27Z</time>
      </trkpt>
      <trkpt lat="48.6747" lon="7.25548">
        <ele>419.9</ele>
        <time>2020-05-22T14:33:28Z</time>
      </trkpt>
      <trkpt lat="48.67468" lon="7.25551">
        <ele>420.5</ele>
        <time>2020-05-22T14:33:30Z</time>
      </trkpt>
      <trkpt lat="48.67466" lon="7.25554">
        <ele>421.2</ele>
        <time>2020-05-22T14:33:32Z</time>
      </trkpt>
      <trkpt lat="48.67464" lon="7.25555">
        <ele>421.7</ele>
        <time>2020-05-22T14:33:34Z</time>
      </trkpt>
      <trkpt lat="48.67462" lon="7.25559">
        <ele>421.8</ele>
        <time>2020-05-22T14:33:36Z</time>
      </trkpt>
      <trkpt lat="48.67459" lon="7.25561">
        <ele>422.4</ele>
        <time>2020-05-22T14:33:38Z</time>
      </trkpt>
      <trkpt lat="48.67456" lon="7.25563">
        <ele>423</ele>
        <time>2020-05-22T14:33:40Z</time>
      </trkpt>
      <trkpt lat="48.67454" lon="7.25564">
        <ele>423.5</ele>
        <time>2020-05-22T14:33:41Z</time>
      </trkpt>
      <trkpt lat="48.67451" lon="7.25566">
        <ele>424.2</ele>
        <time>2020-05-22T14:33:43Z</time>
      </trkpt>
      <trkpt lat="48.6745" lon="7.25567">
        <ele>424.8</ele>
        <time>2020-05-22T14:33:44Z</time>
      </trkpt>
      <trkpt lat="48.67449" lon="7.25568">
        <ele>424.8</ele>
        <time>2020-05-22T14:33:45Z</time>
      </trkpt>
      <trkpt lat="48.67446" lon="7.2557">
        <ele>425.5</ele>
        <time>2020-05-22T14:33:47Z</time>
      </trkpt>
      <trkpt lat="48.67444" lon="7.25572">
        <ele>425.5</ele>
        <time>2020-05-22T14:33:48Z</time>
      </trkpt>
      <trkpt lat="48.67442" lon="7.25576">
        <ele>426.2</ele>
        <time>2020-05-22T14:33:50Z</time>
      </trkpt>
      <trkpt lat="48.6744" lon="7.25577">
        <ele>427</ele>
        <time>2020-05-22T14:33:51Z</time>
      </trkpt>
      <trkpt lat="48.67437" lon="7.25581">
        <ele>427.7</ele>
        <time>2020-05-22T14:33:53Z</time>
      </trkpt>
      <trkpt lat="48.67435" lon="7.25584">
        <ele>428.4</ele>
        <time>2020-05-22T14:33:55Z</time>
      </trkpt>
      <trkpt lat="48.67433" lon="7.25589">
        <ele>428.4</ele>
        <time>2020-05-22T14:33:57Z</time>
      </trkpt>
      <trkpt lat="48.67432" lon="7.25591">
        <ele>429.1</ele>
        <time>2020-05-22T14:33:58Z</time>
      </trkpt>
      <trkpt lat="48.6743" lon="7.25594">
        <ele>429.9</ele>
        <time>2020-05-22T14:34:00Z</time>
      </trkpt>
      <trkpt lat="48.67429" lon="7.25595">
        <ele>429.9</ele>
        <time>2020-05-22T14:34:01Z</time>
      </trkpt>
      <trkpt lat="48.67427" lon="7.25597">
        <ele>430.7</ele>
        <time>2020-05-22T14:34:02Z</time>
      </trkpt>
      <trkpt lat="48.67426" lon="7.25599">
        <ele>430.7</ele>
        <time>2020-05-22T14:34:04Z</time>
      </trkpt>
      <trkpt lat="48.67425" lon="7.25606">
        <ele>430.7</ele>
        <time>2020-05-22T14:34:06Z</time>
      </trkpt>
      <trkpt lat="48.67424" lon="7.25613">
        <ele>431.5</ele>
        <time>2020-05-22T14:34:08Z</time>
      </trkpt>
      <trkpt lat="48.67423" lon="7.25618">
        <ele>431.6</ele>
        <time>2020-05-22T14:34:09Z</time>
      </trkpt>
      <trkpt lat="48.67423" lon="7.25619">
        <ele>431.6</ele>
        <time>2020-05-22T14:34:10Z</time>
      </trkpt>
      <trkpt lat="48.67425" lon="7.25624">
        <ele>431</ele>
        <time>2020-05-22T14:34:11Z</time>
      </trkpt>
      <trkpt lat="48.67425" lon="7.25626">
        <ele>431</ele>
        <time>2020-05-22T14:34:12Z</time>
      </trkpt>
      <trkpt lat="48.67429" lon="7.2563">
        <ele>430.5</ele>
        <time>2020-05-22T14:34:14Z</time>
      </trkpt>
      <trkpt lat="48.6743" lon="7.25631">
        <ele>430.7</ele>
        <time>2020-05-22T14:34:15Z</time>
      </trkpt>
      <trkpt lat="48.67433" lon="7.25633">
        <ele>429.6</ele>
        <time>2020-05-22T14:34:17Z</time>
      </trkpt>
      <trkpt lat="48.67435" lon="7.25634">
        <ele>429.6</ele>
        <time>2020-05-22T14:34:19Z</time>
      </trkpt>
      <trkpt lat="48.67439" lon="7.25634">
        <ele>428.7</ele>
        <time>2020-05-22T14:34:21Z</time>
      </trkpt>
      <trkpt lat="48.67442" lon="7.25635">
        <ele>428.1</ele>
        <time>2020-05-22T14:34:23Z</time>
      </trkpt>
      <trkpt lat="48.67445" lon="7.25634">
        <ele>427.2</ele>
        <time>2020-05-22T14:34:25Z</time>
      </trkpt>
      <trkpt lat="48.67447" lon="7.25634">
        <ele>427.6</ele>
        <time>2020-05-22T14:34:27Z</time>
      </trkpt>
      <trkpt lat="48.67449" lon="7.25635">
        <ele>427</ele>
        <time>2020-05-22T14:34:29Z</time>
      </trkpt>
      <trkpt lat="48.67451" lon="7.25637">
        <ele>426.5</ele>
        <time>2020-05-22T14:34:30Z</time>
      </trkpt>
      <trkpt lat="48.67454" lon="7.2564">
        <ele>426.5</ele>
        <time>2020-05-22T14:34:32Z</time>
      </trkpt>
      <trkpt lat="48.67456" lon="7.25642">
        <ele>426.5</ele>
        <time>2020-05-22T14:34:33Z</time>
      </trkpt>
      <trkpt lat="48.67458" lon="7.25643">
        <ele>426.7</ele>
        <time>2020-05-22T14:34:35Z</time>
      </trkpt>
      <trkpt lat="48.6746" lon="7.25645">
        <ele>426.4</ele>
        <time>2020-05-22T14:34:37Z</time>
      </trkpt>
      <trkpt lat="48.67463" lon="7.25646">
        <ele>426</ele>
        <time>2020-05-22T14:34:39Z</time>
      </trkpt>
      <trkpt lat="48.67466" lon="7.25649">
        <ele>426.4</ele>
        <time>2020-05-22T14:34:41Z</time>
      </trkpt>
      <trkpt lat="48.67469" lon="7.25651">
        <ele>426.9</ele>
        <time>2020-05-22T14:34:43Z</time>
      </trkpt>
      <trkpt lat="48.67473" lon="7.25654">
        <ele>426.5</ele>
        <time>2020-05-22T14:34:45Z</time>
      </trkpt>
      <trkpt lat="48.67474" lon="7.25656">
        <ele>426.5</ele>
        <time>2020-05-22T14:34:46Z</time>
      </trkpt>
      <trkpt lat="48.67477" lon="7.25659">
        <ele>427.2</ele>
        <time>2020-05-22T14:34:48Z</time>
      </trkpt>
      <trkpt lat="48.67479" lon="7.25663">
        <ele>428</ele>
        <time>2020-05-22T14:34:50Z</time>
      </trkpt>
      <trkpt lat="48.6748" lon="7.25664">
        <ele>428</ele>
        <time>2020-05-22T14:34:51Z</time>
      </trkpt>
      <trkpt lat="48.67482" lon="7.25667">
        <ele>428.9</ele>
        <time>2020-05-22T14:34:53Z</time>
      </trkpt>
      <trkpt lat="48.67485" lon="7.25668">
        <ele>428.9</ele>
        <time>2020-05-22T14:34:55Z</time>
      </trkpt>
      <trkpt lat="48.67488" lon="7.25671">
        <ele>430</ele>
        <time>2020-05-22T14:34:57Z</time>
      </trkpt>
      <trkpt lat="48.67491" lon="7.25675">
        <ele>431.2</ele>
        <time>2020-05-22T14:34:59Z</time>
      </trkpt>
      <trkpt lat="48.67493" lon="7.25677">
        <ele>431.3</ele>
        <time>2020-05-22T14:35:00Z</time>
      </trkpt>
      <trkpt lat="48.67494" lon="7.25678">
        <ele>432.4</ele>
        <time>2020-05-22T14:35:01Z</time>
      </trkpt>
      <trkpt lat="48.67495" lon="7.25679">
        <ele>432.4</ele>
        <time>2020-05-22T14:35:02Z</time>
      </trkpt>
      <trkpt lat="48.67498" lon="7.25684">
        <ele>433.9</ele>
        <time>2020-05-22T14:35:04Z</time>
      </trkpt>
      <trkpt lat="48.675" lon="7.25686">
        <ele>435.1</ele>
        <time>2020-05-22T14:35:05Z</time>
      </trkpt>
      <trkpt lat="48.67503" lon="7.25689">
        <ele>435.4</ele>
        <time>2020-05-22T14:35:07Z</time>
      </trkpt>
      <trkpt lat="48.67505" lon="7.25691">
        <ele>436.8</ele>
        <time>2020-05-22T14:35:09Z</time>
      </trkpt>
      <trkpt lat="48.67509" lon="7.25694">
        <ele>437.1</ele>
        <time>2020-05-22T14:35:11Z</time>
      </trkpt>
      <trkpt lat="48.67512" lon="7.25696">
        <ele>438.6</ele>
        <time>2020-05-22T14:35:13Z</time>
      </trkpt>
      <trkpt lat="48.67515" lon="7.25697">
        <ele>439.1</ele>
        <time>2020-05-22T14:35:15Z</time>
      </trkpt>
      <trkpt lat="48.67518" lon="7.25698">
        <ele>439.4</ele>
        <time>2020-05-22T14:35:17Z</time>
      </trkpt>
      <trkpt lat="48.67521" lon="7.257">
        <ele>440.8</ele>
        <time>2020-05-22T14:35:18Z</time>
      </trkpt>
      <trkpt lat="48.67524" lon="7.25701">
        <ele>441</ele>
        <time>2020-05-22T14:35:20Z</time>
      </trkpt>
      <trkpt lat="48.67526" lon="7.25701">
        <ele>441</ele>
        <time>2020-05-22T14:35:21Z</time>
      </trkpt>
      <trkpt lat="48.67526" lon="7.25702">
        <ele>441</ele>
        <time>2020-05-22T14:35:23Z</time>
      </trkpt>
      <trkpt lat="48.67528" lon="7.25705">
        <ele>442.4</ele>
        <time>2020-05-22T14:35:25Z</time>
      </trkpt>
      <trkpt lat="48.67529" lon="7.25705">
        <ele>442.6</ele>
        <time>2020-05-22T14:35:26Z</time>
      </trkpt>
      <trkpt lat="48.67531" lon="7.25705">
        <ele>442.6</ele>
        <time>2020-05-22T14:35:27Z</time>
      </trkpt>
      <trkpt lat="48.67534" lon="7.25706">
        <ele>442.9</ele>
        <time>2020-05-22T14:35:29Z</time>
      </trkpt>
      <trkpt lat="48.67536" lon="7.25706">
        <ele>443.1</ele>
        <time>2020-05-22T14:35:30Z</time>
      </trkpt>
      <trkpt lat="48.67537" lon="7.25706">
        <ele>443.1</ele>
        <time>2020-05-22T14:35:31Z</time>
      </trkpt>
      <trkpt lat="48.6754" lon="7.25705">
        <ele>443.4</ele>
        <time>2020-05-22T14:35:33Z</time>
      </trkpt>
      <trkpt lat="48.67543" lon="7.25706">
        <ele>443.9</ele>
        <time>2020-05-22T14:35:35Z</time>
      </trkpt>
      <trkpt lat="48.67545" lon="7.25706">
        <ele>443.9</ele>
        <time>2020-05-22T14:35:36Z</time>
      </trkpt>
      <trkpt lat="48.67547" lon="7.25707">
        <ele>444.2</ele>
        <time>2020-05-22T14:35:37Z</time>
      </trkpt>
      <trkpt lat="48.67548" lon="7.25708">
        <ele>445.4</ele>
        <time>2020-05-22T14:35:38Z</time>
      </trkpt>
      <trkpt lat="48.67549" lon="7.25709">
        <ele>445.8</ele>
        <time>2020-05-22T14:35:39Z</time>
      </trkpt>
      <trkpt lat="48.67552" lon="7.2571">
        <ele>445.8</ele>
        <time>2020-05-22T14:35:41Z</time>
      </trkpt>
      <trkpt lat="48.67552" lon="7.2571">
        <ele>446.1</ele>
        <time>2020-05-22T14:35:42Z</time>
      </trkpt>
      <trkpt lat="48.67552" lon="7.25711">
        <ele>446.1</ele>
        <time>2020-05-22T14:35:44Z</time>
      </trkpt>
      <trkpt lat="48.67553" lon="7.25711">
        <ele>446.1</ele>
        <time>2020-05-22T14:35:45Z</time>
      </trkpt>
      <trkpt lat="48.67553" lon="7.25711">
        <ele>446.1</ele>
        <time>2020-05-22T14:35:47Z</time>
      </trkpt>
      <trkpt lat="48.67554" lon="7.25711">
        <ele>446.1</ele>
        <time>2020-05-22T14:35:48Z</time>
      </trkpt>
      <trkpt lat="48.67554" lon="7.25712">
        <ele>447.4</ele>
        <time>2020-05-22T14:35:49Z</time>
      </trkpt>
      <trkpt lat="48.67555" lon="7.25712">
        <ele>447.7</ele>
        <time>2020-05-22T14:35:50Z</time>
      </trkpt>
      <trkpt lat="48.67555" lon="7.25712">
        <ele>447.7</ele>
        <time>2020-05-22T14:35:52Z</time>
      </trkpt>
      <trkpt lat="48.67556" lon="7.25712">
        <ele>447.7</ele>
        <time>2020-05-22T14:35:53Z</time>
      </trkpt>
      <trkpt lat="48.67556" lon="7.25712">
        <ele>447.7</ele>
        <time>2020-05-22T14:35:55Z</time>
      </trkpt>
      <trkpt lat="48.67557" lon="7.25713">
        <ele>447.7</ele>
        <time>2020-05-22T14:35:57Z</time>
      </trkpt>
      <trkpt lat="48.67557" lon="7.25713">
        <ele>447.7</ele>
        <time>2020-05-22T14:35:58Z</time>
      </trkpt>
      <trkpt lat="48.67558" lon="7.25713">
        <ele>448.1</ele>
        <time>2020-05-22T14:36:00Z</time>
      </trkpt>
      <trkpt lat="48.67558" lon="7.25713">
        <ele>448.1</ele>
        <time>2020-05-22T14:36:02Z</time>
      </trkpt>
      <trkpt lat="48.67559" lon="7.25714">
        <ele>448.1</ele>
        <time>2020-05-22T14:36:03Z</time>
      </trkpt>
      <trkpt lat="48.67559" lon="7.25714">
        <ele>448.1</ele>
        <time>2020-05-22T14:36:04Z</time>
      </trkpt>
      <trkpt lat="48.6756" lon="7.25714">
        <ele>448.1</ele>
        <time>2020-05-22T14:36:06Z</time>
      </trkpt>
      <trkpt lat="48.6756" lon="7.25714">
        <ele>448.1</ele>
        <time>2020-05-22T14:36:08Z</time>
      </trkpt>
      <trkpt lat="48.67561" lon="7.25715">
        <ele>448.4</ele>
        <time>2020-05-22T14:36:10Z</time>
      </trkpt>
      <trkpt lat="48.67561" lon="7.25715">
        <ele>448.4</ele>
        <time>2020-05-22T14:36:12Z</time>
      </trkpt>
      <trkpt lat="48.67562" lon="7.25715">
        <ele>448.4</ele>
        <time>2020-05-22T14:36:13Z</time>
      </trkpt>
      <trkpt lat="48.67562" lon="7.25715">
        <ele>448.4</ele>
        <time>2020-05-22T14:36:15Z</time>
      </trkpt>
      <trkpt lat="48.67563" lon="7.25715">
        <ele>448.4</ele>
        <time>2020-05-22T14:36:16Z</time>
      </trkpt>
      <trkpt lat="48.67563" lon="7.25716">
        <ele>448.4</ele>
        <time>2020-05-22T14:36:18Z</time>
      </trkpt>
      <trkpt lat="48.67564" lon="7.25716">
        <ele>449.8</ele>
        <time>2020-05-22T14:36:20Z</time>
      </trkpt>
      <trkpt lat="48.67564" lon="7.25716">
        <ele>449.8</ele>
        <time>2020-05-22T14:37:26Z</time>
      </trkpt>
      <trkpt lat="48.67565" lon="7.25716">
        <ele>449.8</ele>
        <time>2020-05-22T14:37:27Z</time>
      </trkpt>
      <trkpt lat="48.67565" lon="7.25717">
        <ele>449.8</ele>
        <time>2020-05-22T14:37:28Z</time>
      </trkpt>
      <trkpt lat="48.67567" lon="7.25718">
        <ele>450.1</ele>
        <time>2020-05-22T14:37:30Z</time>
      </trkpt>
      <trkpt lat="48.67569" lon="7.25718">
        <ele>450.1</ele>
        <time>2020-05-22T14:37:32Z</time>
      </trkpt>
      <trkpt lat="48.6757" lon="7.25719">
        <ele>450.3</ele>
        <time>2020-05-22T14:37:33Z</time>
      </trkpt>
      <trkpt lat="48.67571" lon="7.2572">
        <ele>451.2</ele>
        <time>2020-05-22T14:37:34Z</time>
      </trkpt>
      <trkpt lat="48.67574" lon="7.25721">
        <ele>451.4</ele>
        <time>2020-05-22T14:37:36Z</time>
      </trkpt>
      <trkpt lat="48.67577" lon="7.25721">
        <ele>451.5</ele>
        <time>2020-05-22T14:37:38Z</time>
      </trkpt>
      <trkpt lat="48.67579" lon="7.25723">
        <ele>451.7</ele>
        <time>2020-05-22T14:37:40Z</time>
      </trkpt>
      <trkpt lat="48.67581" lon="7.25724">
        <ele>452.5</ele>
        <time>2020-05-22T14:37:41Z</time>
      </trkpt>
      <trkpt lat="48.67582" lon="7.25725">
        <ele>452.5</ele>
        <time>2020-05-22T14:37:42Z</time>
      </trkpt>
      <trkpt lat="48.67583" lon="7.25726">
        <ele>452.6</ele>
        <time>2020-05-22T14:37:43Z</time>
      </trkpt>
      <trkpt lat="48.67586" lon="7.25727">
        <ele>452.6</ele>
        <time>2020-05-22T14:37:45Z</time>
      </trkpt>
      <trkpt lat="48.67587" lon="7.25728">
        <ele>452.7</ele>
        <time>2020-05-22T14:37:46Z</time>
      </trkpt>
      <trkpt lat="48.67588" lon="7.25729">
        <ele>453.4</ele>
        <time>2020-05-22T14:37:47Z</time>
      </trkpt>
      <trkpt lat="48.67591" lon="7.25731">
        <ele>453.4</ele>
        <time>2020-05-22T14:37:49Z</time>
      </trkpt>
      <trkpt lat="48.67592" lon="7.25731">
        <ele>453.4</ele>
        <time>2020-05-22T14:37:50Z</time>
      </trkpt>
      <trkpt lat="48.67595" lon="7.25732">
        <ele>453.5</ele>
        <time>2020-05-22T14:37:52Z</time>
      </trkpt>
      <trkpt lat="48.67596" lon="7.25733">
        <ele>453.5</ele>
        <time>2020-05-22T14:37:53Z</time>
      </trkpt>
      <trkpt lat="48.67598" lon="7.25733">
        <ele>454.1</ele>
        <time>2020-05-22T14:37:55Z</time>
      </trkpt>
      <trkpt lat="48.67599" lon="7.25734">
        <ele>454.1</ele>
        <time>2020-05-22T14:37:56Z</time>
      </trkpt>
      <trkpt lat="48.676" lon="7.25735">
        <ele>454.1</ele>
        <time>2020-05-22T14:37:57Z</time>
      </trkpt>
      <trkpt lat="48.67603" lon="7.25737">
        <ele>454.8</ele>
        <time>2020-05-22T14:37:59Z</time>
      </trkpt>
      <trkpt lat="48.67603" lon="7.25737">
        <ele>454.8</ele>
        <time>2020-05-22T14:38:00Z</time>
      </trkpt>
      <trkpt lat="48.67605" lon="7.25738">
        <ele>454.8</ele>
        <time>2020-05-22T14:38:01Z</time>
      </trkpt>
      <trkpt lat="48.67607" lon="7.25738">
        <ele>454.9</ele>
        <time>2020-05-22T14:38:03Z</time>
      </trkpt>
      <trkpt lat="48.67608" lon="7.25738">
        <ele>454.9</ele>
        <time>2020-05-22T14:38:04Z</time>
      </trkpt>
      <trkpt lat="48.67611" lon="7.25738">
        <ele>454.9</ele>
        <time>2020-05-22T14:38:06Z</time>
      </trkpt>
      <trkpt lat="48.67614" lon="7.25738">
        <ele>455</ele>
        <time>2020-05-22T14:38:08Z</time>
      </trkpt>
      <trkpt lat="48.67618" lon="7.25738">
        <ele>455</ele>
        <time>2020-05-22T14:38:10Z</time>
      </trkpt>
      <trkpt lat="48.67621" lon="7.25739">
        <ele>455</ele>
        <time>2020-05-22T14:38:12Z</time>
      </trkpt>
      <trkpt lat="48.67624" lon="7.2574">
        <ele>455</ele>
        <time>2020-05-22T14:38:14Z</time>
      </trkpt>
      <trkpt lat="48.67626" lon="7.25741">
        <ele>455</ele>
        <time>2020-05-22T14:38:15Z</time>
      </trkpt>
      <trkpt lat="48.67629" lon="7.25743">
        <ele>455.6</ele>
        <time>2020-05-22T14:38:17Z</time>
      </trkpt>
      <trkpt lat="48.67631" lon="7.25744">
        <ele>455.6</ele>
        <time>2020-05-22T14:38:18Z</time>
      </trkpt>
      <trkpt lat="48.67634" lon="7.25745">
        <ele>455.5</ele>
        <time>2020-05-22T14:38:20Z</time>
      </trkpt>
      <trkpt lat="48.67636" lon="7.25746">
        <ele>455.5</ele>
        <time>2020-05-22T14:38:21Z</time>
      </trkpt>
      <trkpt lat="48.67639" lon="7.25746">
        <ele>456.1</ele>
        <time>2020-05-22T14:38:23Z</time>
      </trkpt>
      <trkpt lat="48.67641" lon="7.25746">
        <ele>456</ele>
        <time>2020-05-22T14:38:24Z</time>
      </trkpt>
      <trkpt lat="48.67644" lon="7.25748">
        <ele>455.9</ele>
        <time>2020-05-22T14:38:26Z</time>
      </trkpt>
      <trkpt lat="48.67647" lon="7.2575">
        <ele>455.8</ele>
        <time>2020-05-22T14:38:28Z</time>
      </trkpt>
      <trkpt lat="48.67652" lon="7.25754">
        <ele>456.4</ele>
        <time>2020-05-22T14:38:30Z</time>
      </trkpt>
      <trkpt lat="48.67655" lon="7.25757">
        <ele>457.1</ele>
        <time>2020-05-22T14:38:32Z</time>
      </trkpt>
      <trkpt lat="48.67659" lon="7.25759">
        <ele>457.7</ele>
        <time>2020-05-22T14:38:34Z</time>
      </trkpt>
      <trkpt lat="48.6766" lon="7.2576">
        <ele>457.6</ele>
        <time>2020-05-22T14:38:35Z</time>
      </trkpt>
      <trkpt lat="48.67663" lon="7.25761">
        <ele>457.5</ele>
        <time>2020-05-22T14:38:37Z</time>
      </trkpt>
      <trkpt lat="48.67665" lon="7.25761">
        <ele>457.5</ele>
        <time>2020-05-22T14:38:38Z</time>
      </trkpt>
      <trkpt lat="48.67668" lon="7.25762">
        <ele>457.4</ele>
        <time>2020-05-22T14:38:40Z</time>
      </trkpt>
      <trkpt lat="48.67669" lon="7.25762">
        <ele>457.2</ele>
        <time>2020-05-22T14:38:41Z</time>
      </trkpt>
      <trkpt lat="48.67673" lon="7.25762">
        <ele>457.1</ele>
        <time>2020-05-22T14:38:43Z</time>
      </trkpt>
      <trkpt lat="48.67673" lon="7.25761">
        <ele>457.1</ele>
        <time>2020-05-22T14:38:45Z</time>
      </trkpt>
      <trkpt lat="48.67675" lon="7.2576">
        <ele>457</ele>
        <time>2020-05-22T14:38:47Z</time>
      </trkpt>
      <trkpt lat="48.67676" lon="7.25761">
        <ele>457</ele>
        <time>2020-05-22T14:38:49Z</time>
      </trkpt>
      <trkpt lat="48.67677" lon="7.25762">
        <ele>456.8</ele>
        <time>2020-05-22T14:38:50Z</time>
      </trkpt>
      <trkpt lat="48.67679" lon="7.25765">
        <ele>457.5</ele>
        <time>2020-05-22T14:38:52Z</time>
      </trkpt>
      <trkpt lat="48.67681" lon="7.25769">
        <ele>458.1</ele>
        <time>2020-05-22T14:38:54Z</time>
      </trkpt>
      <trkpt lat="48.67681" lon="7.2577">
        <ele>458.1</ele>
        <time>2020-05-22T14:38:55Z</time>
      </trkpt>
      <trkpt lat="48.67681" lon="7.25774">
        <ele>458.7</ele>
        <time>2020-05-22T14:38:57Z</time>
      </trkpt>
      <trkpt lat="48.6768" lon="7.25776">
        <ele>459.4</ele>
        <time>2020-05-22T14:38:58Z</time>
      </trkpt>
      <trkpt lat="48.67681" lon="7.2578">
        <ele>459.4</ele>
        <time>2020-05-22T14:39:00Z</time>
      </trkpt>
      <trkpt lat="48.6768" lon="7.25782">
        <ele>460.1</ele>
        <time>2020-05-22T14:39:02Z</time>
      </trkpt>
      <trkpt lat="48.67679" lon="7.25784">
        <ele>460.1</ele>
        <time>2020-05-22T14:39:03Z</time>
      </trkpt>
      <trkpt lat="48.67678" lon="7.25785">
        <ele>460.8</ele>
        <time>2020-05-22T14:39:04Z</time>
      </trkpt>
      <trkpt lat="48.67676" lon="7.25787">
        <ele>460.9</ele>
        <time>2020-05-22T14:39:06Z</time>
      </trkpt>
      <trkpt lat="48.67675" lon="7.25788">
        <ele>460.9</ele>
        <time>2020-05-22T14:39:07Z</time>
      </trkpt>
      <trkpt lat="48.67673" lon="7.25789">
        <ele>461.6</ele>
        <time>2020-05-22T14:39:09Z</time>
      </trkpt>
      <trkpt lat="48.67671" lon="7.25789">
        <ele>461.6</ele>
        <time>2020-05-22T14:39:11Z</time>
      </trkpt>
      <trkpt lat="48.6767" lon="7.25789">
        <ele>461.6</ele>
        <time>2020-05-22T14:39:12Z</time>
      </trkpt>
      <trkpt lat="48.67669" lon="7.2579">
        <ele>461.6</ele>
        <time>2020-05-22T14:39:14Z</time>
      </trkpt>
      <trkpt lat="48.67666" lon="7.2579">
        <ele>461.7</ele>
        <time>2020-05-22T14:39:16Z</time>
      </trkpt>
      <trkpt lat="48.67665" lon="7.2579">
        <ele>461.7</ele>
        <time>2020-05-22T14:39:18Z</time>
      </trkpt>
      <trkpt lat="48.67665" lon="7.2579">
        <ele>461.7</ele>
        <time>2020-05-22T14:39:19Z</time>
      </trkpt>
      <trkpt lat="48.67666" lon="7.25791">
        <ele>461.7</ele>
        <time>2020-05-22T14:39:21Z</time>
      </trkpt>
      <trkpt lat="48.67667" lon="7.25792">
        <ele>461.7</ele>
        <time>2020-05-22T14:39:22Z</time>
      </trkpt>
      <trkpt lat="48.67667" lon="7.25792">
        <ele>461.7</ele>
        <time>2020-05-22T14:39:23Z</time>
      </trkpt>
      <trkpt lat="48.67667" lon="7.25792">
        <ele>461.7</ele>
        <time>2020-05-22T14:39:25Z</time>
      </trkpt>
      <trkpt lat="48.67667" lon="7.25792">
        <ele>461.7</ele>
        <time>2020-05-22T14:39:26Z</time>
      </trkpt>
      <trkpt lat="48.67667" lon="7.25792">
        <ele>461.7</ele>
        <time>2020-05-22T14:39:28Z</time>
      </trkpt>
      <trkpt lat="48.67667" lon="7.25792">
        <ele>461.7</ele>
        <time>2020-05-22T14:39:29Z</time>
      </trkpt>
      <trkpt lat="48.67667" lon="7.25792">
        <ele>461.7</ele>
        <time>2020-05-22T14:39:31Z</time>
      </trkpt>
      <trkpt lat="48.67666" lon="7.25792">
        <ele>461.7</ele>
        <time>2020-05-22T14:39:33Z</time>
      </trkpt>
      <trkpt lat="48.67661" lon="7.25793">
        <ele>461.7</ele>
        <time>2020-05-22T14:39:59Z</time>
      </trkpt>
      <trkpt lat="48.6766" lon="7.25793">
        <ele>461.7</ele>
        <time>2020-05-22T14:40:00Z</time>
      </trkpt>
      <trkpt lat="48.67659" lon="7.25793">
        <ele>461.8</ele>
        <time>2020-05-22T14:40:01Z</time>
      </trkpt>
      <trkpt lat="48.67657" lon="7.25794">
        <ele>462.4</ele>
        <time>2020-05-22T14:40:02Z</time>
      </trkpt>
      <trkpt lat="48.67657" lon="7.25794">
        <ele>462.4</ele>
        <time>2020-05-22T14:40:03Z</time>
      </trkpt>
      <trkpt lat="48.67654" lon="7.25796">
        <ele>462.4</ele>
        <time>2020-05-22T14:40:05Z</time>
      </trkpt>
      <trkpt lat="48.67652" lon="7.25795">
        <ele>462.4</ele>
        <time>2020-05-22T14:40:06Z</time>
      </trkpt>
      <trkpt lat="48.6765" lon="7.25795">
        <ele>462.5</ele>
        <time>2020-05-22T14:40:07Z</time>
      </trkpt>
      <trkpt lat="48.67646" lon="7.25796">
        <ele>462.5</ele>
        <time>2020-05-22T14:40:09Z</time>
      </trkpt>
      <trkpt lat="48.67645" lon="7.25796">
        <ele>462.5</ele>
        <time>2020-05-22T14:40:10Z</time>
      </trkpt>
      <trkpt lat="48.67641" lon="7.25796">
        <ele>462.4</ele>
        <time>2020-05-22T14:40:12Z</time>
      </trkpt>
      <trkpt lat="48.6764" lon="7.25797">
        <ele>462.4</ele>
        <time>2020-05-22T14:40:13Z</time>
      </trkpt>
      <trkpt lat="48.67638" lon="7.25798">
        <ele>462.4</ele>
        <time>2020-05-22T14:40:14Z</time>
      </trkpt>
      <trkpt lat="48.67636" lon="7.258">
        <ele>462.3</ele>
        <time>2020-05-22T14:40:16Z</time>
      </trkpt>
      <trkpt lat="48.67634" lon="7.25801">
        <ele>462.3</ele>
        <time>2020-05-22T14:40:17Z</time>
      </trkpt>
      <trkpt lat="48.67631" lon="7.25803">
        <ele>462.2</ele>
        <time>2020-05-22T14:40:19Z</time>
      </trkpt>
      <trkpt lat="48.67627" lon="7.25804">
        <ele>462.2</ele>
        <time>2020-05-22T14:40:21Z</time>
      </trkpt>
      <trkpt lat="48.67626" lon="7.25804">
        <ele>462.2</ele>
        <time>2020-05-22T14:40:22Z</time>
      </trkpt>
      <trkpt lat="48.67622" lon="7.25805">
        <ele>462.1</ele>
        <time>2020-05-22T14:40:24Z</time>
      </trkpt>
      <trkpt lat="48.67618" lon="7.25807">
        <ele>462</ele>
        <time>2020-05-22T14:40:26Z</time>
      </trkpt>
      <trkpt lat="48.67617" lon="7.25808">
        <ele>462</ele>
        <time>2020-05-22T14:40:27Z</time>
      </trkpt>
      <trkpt lat="48.67614" lon="7.25809">
        <ele>461.9</ele>
        <time>2020-05-22T14:40:29Z</time>
      </trkpt>
      <trkpt lat="48.67612" lon="7.25811">
        <ele>461.9</ele>
        <time>2020-05-22T14:40:31Z</time>
      </trkpt>
      <trkpt lat="48.6761" lon="7.25813">
        <ele>461.9</ele>
        <time>2020-05-22T14:40:33Z</time>
      </trkpt>
      <trkpt lat="48.67608" lon="7.25815">
        <ele>461.8</ele>
        <time>2020-05-22T14:40:35Z</time>
      </trkpt>
      <trkpt lat="48.67605" lon="7.25817">
        <ele>461.8</ele>
        <time>2020-05-22T14:40:37Z</time>
      </trkpt>
      <trkpt lat="48.67602" lon="7.25818">
        <ele>461.7</ele>
        <time>2020-05-22T14:40:39Z</time>
      </trkpt>
      <trkpt lat="48.67599" lon="7.25819">
        <ele>461.7</ele>
        <time>2020-05-22T14:40:41Z</time>
      </trkpt>
      <trkpt lat="48.67595" lon="7.25821">
        <ele>461.7</ele>
        <time>2020-05-22T14:40:43Z</time>
      </trkpt>
      <trkpt lat="48.67593" lon="7.25822">
        <ele>461.6</ele>
        <time>2020-05-22T14:40:44Z</time>
      </trkpt>
      <trkpt lat="48.67592" lon="7.25823">
        <ele>461.6</ele>
        <time>2020-05-22T14:40:45Z</time>
      </trkpt>
      <trkpt lat="48.67589" lon="7.25823">
        <ele>461.6</ele>
        <time>2020-05-22T14:40:47Z</time>
      </trkpt>
      <trkpt lat="48.67585" lon="7.25824">
        <ele>461.5</ele>
        <time>2020-05-22T14:40:49Z</time>
      </trkpt>
      <trkpt lat="48.67583" lon="7.25825">
        <ele>461.5</ele>
        <time>2020-05-22T14:40:50Z</time>
      </trkpt>
      <trkpt lat="48.6758" lon="7.25828">
        <ele>461.5</ele>
        <time>2020-05-22T14:40:52Z</time>
      </trkpt>
      <trkpt lat="48.67577" lon="7.25828">
        <ele>461.5</ele>
        <time>2020-05-22T14:40:53Z</time>
      </trkpt>
      <trkpt lat="48.67576" lon="7.25828">
        <ele>461.4</ele>
        <time>2020-05-22T14:40:54Z</time>
      </trkpt>
      <trkpt lat="48.67572" lon="7.25828">
        <ele>461.4</ele>
        <time>2020-05-22T14:40:56Z</time>
      </trkpt>
      <trkpt lat="48.6757" lon="7.25829">
        <ele>461.4</ele>
        <time>2020-05-22T14:40:58Z</time>
      </trkpt>
      <trkpt lat="48.67568" lon="7.2583">
        <ele>461.4</ele>
        <time>2020-05-22T14:40:59Z</time>
      </trkpt>
      <trkpt lat="48.67566" lon="7.2583">
        <ele>461.4</ele>
        <time>2020-05-22T14:41:00Z</time>
      </trkpt>
      <trkpt lat="48.67563" lon="7.25831">
        <ele>461.4</ele>
        <time>2020-05-22T14:41:02Z</time>
      </trkpt>
      <trkpt lat="48.6756" lon="7.2583">
        <ele>461.4</ele>
        <time>2020-05-22T14:41:04Z</time>
      </trkpt>
      <trkpt lat="48.67557" lon="7.25831">
        <ele>461.4</ele>
        <time>2020-05-22T14:41:06Z</time>
      </trkpt>
      <trkpt lat="48.67555" lon="7.25833">
        <ele>461.4</ele>
        <time>2020-05-22T14:41:07Z</time>
      </trkpt>
      <trkpt lat="48.67552" lon="7.25834">
        <ele>461.5</ele>
        <time>2020-05-22T14:41:09Z</time>
      </trkpt>
      <trkpt lat="48.6755" lon="7.25834">
        <ele>461.5</ele>
        <time>2020-05-22T14:41:10Z</time>
      </trkpt>
      <trkpt lat="48.67546" lon="7.25832">
        <ele>461.6</ele>
        <time>2020-05-22T14:41:12Z</time>
      </trkpt>
      <trkpt lat="48.67543" lon="7.25832">
        <ele>461.7</ele>
        <time>2020-05-22T14:41:14Z</time>
      </trkpt>
      <trkpt lat="48.6754" lon="7.25834">
        <ele>461.8</ele>
        <time>2020-05-22T14:41:16Z</time>
      </trkpt>
      <trkpt lat="48.67538" lon="7.25836">
        <ele>461.8</ele>
        <time>2020-05-22T14:41:17Z</time>
      </trkpt>
      <trkpt lat="48.67536" lon="7.25836">
        <ele>461.9</ele>
        <time>2020-05-22T14:41:18Z</time>
      </trkpt>
      <trkpt lat="48.67534" lon="7.25835">
        <ele>461.9</ele>
        <time>2020-05-22T14:41:20Z</time>
      </trkpt>
      <trkpt lat="48.67532" lon="7.25834">
        <ele>461.9</ele>
        <time>2020-05-22T14:41:21Z</time>
      </trkpt>
      <trkpt lat="48.67531" lon="7.25833">
        <ele>461.9</ele>
        <time>2020-05-22T14:41:22Z</time>
      </trkpt>
      <trkpt lat="48.67527" lon="7.25834">
        <ele>461.9</ele>
        <time>2020-05-22T14:41:24Z</time>
      </trkpt>
      <trkpt lat="48.67526" lon="7.25835">
        <ele>461.9</ele>
        <time>2020-05-22T14:41:25Z</time>
      </trkpt>
      <trkpt lat="48.67522" lon="7.25837">
        <ele>461.8</ele>
        <time>2020-05-22T14:41:27Z</time>
      </trkpt>
      <trkpt lat="48.67519" lon="7.25837">
        <ele>461.9</ele>
        <time>2020-05-22T14:41:29Z</time>
      </trkpt>
      <trkpt lat="48.67517" lon="7.25837">
        <ele>461.9</ele>
        <time>2020-05-22T14:41:30Z</time>
      </trkpt>
      <trkpt lat="48.67515" lon="7.25838">
        <ele>461.9</ele>
        <time>2020-05-22T14:41:31Z</time>
      </trkpt>
      <trkpt lat="48.67513" lon="7.25841">
        <ele>461.9</ele>
        <time>2020-05-22T14:41:33Z</time>
      </trkpt>
      <trkpt lat="48.67512" lon="7.25844">
        <ele>461.9</ele>
        <time>2020-05-22T14:41:34Z</time>
      </trkpt>
      <trkpt lat="48.67512" lon="7.25851">
        <ele>462.1</ele>
        <time>2020-05-22T14:41:36Z</time>
      </trkpt>
      <trkpt lat="48.67512" lon="7.25858">
        <ele>461.9</ele>
        <time>2020-05-22T14:41:38Z</time>
      </trkpt>
      <trkpt lat="48.67514" lon="7.25862">
        <ele>461.9</ele>
        <time>2020-05-22T14:41:40Z</time>
      </trkpt>
      <trkpt lat="48.67517" lon="7.25866">
        <ele>461.8</ele>
        <time>2020-05-22T14:41:42Z</time>
      </trkpt>
      <trkpt lat="48.67518" lon="7.25868">
        <ele>461.8</ele>
        <time>2020-05-22T14:41:43Z</time>
      </trkpt>
      <trkpt lat="48.67519" lon="7.2587">
        <ele>461.7</ele>
        <time>2020-05-22T14:41:44Z</time>
      </trkpt>
      <trkpt lat="48.67522" lon="7.25874">
        <ele>461.6</ele>
        <time>2020-05-22T14:41:46Z</time>
      </trkpt>
      <trkpt lat="48.67524" lon="7.25877">
        <ele>461.5</ele>
        <time>2020-05-22T14:41:47Z</time>
      </trkpt>
      <trkpt lat="48.67525" lon="7.25878">
        <ele>461.5</ele>
        <time>2020-05-22T14:41:48Z</time>
      </trkpt>
    </trkseg>
  </trk>
  <trk>
    <name><![CDATA[secteur Saverne - Dabo - Petite Pierre_19]]></name>
    <trkseg>
      <trkpt lat="48.74711" lon="7.27672">
        <ele>299.76</ele>
        <time>2020-05-21T19:05:58.000Z</time>
      </trkpt>
      <trkpt lat="48.74711" lon="7.27672">
        <ele>299.76</ele>
        <time>2020-05-21T19:05:58.000Z</time>
      </trkpt>
      <trkpt lat="48.74711" lon="7.27672">
        <ele>299.76</ele>
        <time>2020-05-21T19:05:58.000Z</time>
      </trkpt>
      <trkpt lat="48.74711" lon="7.27672">
        <ele>299.76</ele>
        <time>2020-05-21T19:05:58.000Z</time>
      </trkpt>
      <trkpt lat="48.74711" lon="7.27672">
        <ele>299.76</ele>
        <time>2020-05-21T19:05:58.000Z</time>
      </trkpt>
      <trkpt lat="48.74711" lon="7.27672">
        <ele>299.76</ele>
        <time>2020-05-21T19:05:58.000Z</time>
      </trkpt>
      <trkpt lat="48.74711" lon="7.27672">
        <ele>299.76</ele>
        <time>2020-05-21T19:05:58.000Z</time>
      </trkpt>
      <trkpt lat="48.74706" lon="7.27679">
        <ele>299.94</ele>
        <time>2020-05-21T19:05:59.000Z</time>
      </trkpt>
      <trkpt lat="48.74702" lon="7.27688">
        <ele>298.35</ele>
        <time>2020-05-21T19:06:00.000Z</time>
      </trkpt>
      <trkpt lat="48.74699" lon="7.27697">
        <ele>299.58</ele>
        <time>2020-05-21T19:06:01.000Z</time>
      </trkpt>
      <trkpt lat="48.74694" lon="7.27705">
        <ele>299.49</ele>
        <time>2020-05-21T19:06:02.000Z</time>
      </trkpt>
      <trkpt lat="48.74691" lon="7.27712">
        <ele>298.1</ele>
        <time>2020-05-21T19:06:03.000Z</time>
      </trkpt>
      <trkpt lat="48.74686" lon="7.27719">
        <ele>297.5</ele>
        <time>2020-05-21T19:06:04.000Z</time>
      </trkpt>
      <trkpt lat="48.74683" lon="7.27726">
        <ele>295.16</ele>
        <time>2020-05-21T19:06:06.000Z</time>
      </trkpt>
      <trkpt lat="48.74678" lon="7.27733">
        <ele>295.02</ele>
        <time>2020-05-21T19:06:08.000Z</time>
      </trkpt>
      <trkpt lat="48.74671" lon="7.27741">
        <ele>291.07</ele>
        <time>2020-05-21T19:06:10.000Z</time>
      </trkpt>
      <trkpt lat="48.74668" lon="7.27747">
        <ele>291.41</ele>
        <time>2020-05-21T19:06:11.000Z</time>
      </trkpt>
      <trkpt lat="48.74664" lon="7.27752">
        <ele>291.09</ele>
        <time>2020-05-21T19:06:12.000Z</time>
      </trkpt>
      <trkpt lat="48.74661" lon="7.27759">
        <ele>290.85</ele>
        <time>2020-05-21T19:06:13.000Z</time>
      </trkpt>
      <trkpt lat="48.74658" lon="7.27765">
        <ele>293.05</ele>
        <time>2020-05-21T19:06:14.000Z</time>
      </trkpt>
      <trkpt lat="48.74653" lon="7.27771">
        <ele>293.06</ele>
        <time>2020-05-21T19:06:15.000Z</time>
      </trkpt>
      <trkpt lat="48.74649" lon="7.27776">
        <ele>292.86</ele>
        <time>2020-05-21T19:06:16.000Z</time>
      </trkpt>
      <trkpt lat="48.74645" lon="7.27781">
        <ele>292.49</ele>
        <time>2020-05-21T19:06:17.000Z</time>
      </trkpt>
      <trkpt lat="48.74629" lon="7.27794">
        <ele>291.08</ele>
        <time>2020-05-21T19:06:20.000Z</time>
      </trkpt>
      <trkpt lat="48.74623" lon="7.27799">
        <ele>291.55</ele>
        <time>2020-05-21T19:06:21.000Z</time>
      </trkpt>
      <trkpt lat="48.74619" lon="7.27804">
        <ele>290.95</ele>
        <time>2020-05-21T19:06:22.000Z</time>
      </trkpt>
      <trkpt lat="48.74613" lon="7.27807">
        <ele>291.86</ele>
        <time>2020-05-21T19:06:23.000Z</time>
      </trkpt>
      <trkpt lat="48.74607" lon="7.27816">
        <ele>288.89</ele>
        <time>2020-05-21T19:06:24.000Z</time>
      </trkpt>
      <trkpt lat="48.74602" lon="7.27822">
        <ele>289.42</ele>
        <time>2020-05-21T19:06:25.000Z</time>
      </trkpt>
      <trkpt lat="48.74597" lon="7.2783">
        <ele>288.71</ele>
        <time>2020-05-21T19:06:26.000Z</time>
      </trkpt>
      <trkpt lat="48.74592" lon="7.27835">
        <ele>289.88</ele>
        <time>2020-05-21T19:06:27.000Z</time>
      </trkpt>
      <trkpt lat="48.74587" lon="7.27841">
        <ele>289.36</ele>
        <time>2020-05-21T19:06:28.000Z</time>
      </trkpt>
      <trkpt lat="48.74574" lon="7.27851">
        <ele>288.45</ele>
        <time>2020-05-21T19:06:30.000Z</time>
      </trkpt>
      <trkpt lat="48.74568" lon="7.27857">
        <ele>289.19</ele>
        <time>2020-05-21T19:06:31.000Z</time>
      </trkpt>
      <trkpt lat="48.74563" lon="7.27863">
        <ele>288.4</ele>
        <time>2020-05-21T19:06:32.000Z</time>
      </trkpt>
      <trkpt lat="48.74558" lon="7.27869">
        <ele>289.08</ele>
        <time>2020-05-21T19:06:33.000Z</time>
      </trkpt>
      <trkpt lat="48.74552" lon="7.27873">
        <ele>289.57</ele>
        <time>2020-05-21T19:06:34.000Z</time>
      </trkpt>
      <trkpt lat="48.74548" lon="7.27874">
        <ele>291.73</ele>
        <time>2020-05-21T19:06:35.000Z</time>
      </trkpt>
      <trkpt lat="48.74543" lon="7.27877">
        <ele>292.32</ele>
        <time>2020-05-21T19:06:36.000Z</time>
      </trkpt>
      <trkpt lat="48.74538" lon="7.27882">
        <ele>291.88</ele>
        <time>2020-05-21T19:06:37.000Z</time>
      </trkpt>
      <trkpt lat="48.74534" lon="7.27885">
        <ele>291.89</ele>
        <time>2020-05-21T19:06:38.000Z</time>
      </trkpt>
      <trkpt lat="48.74529" lon="7.27888">
        <ele>291.58</ele>
        <time>2020-05-21T19:06:39.000Z</time>
      </trkpt>
      <trkpt lat="48.74524" lon="7.27893">
        <ele>290.89</ele>
        <time>2020-05-21T19:06:40.000Z</time>
      </trkpt>
      <trkpt lat="48.74514" lon="7.27903">
        <ele>291.63</ele>
        <time>2020-05-21T19:06:42.000Z</time>
      </trkpt>
      <trkpt lat="48.74509" lon="7.27909">
        <ele>291.19</ele>
        <time>2020-05-21T19:06:43.000Z</time>
      </trkpt>
      <trkpt lat="48.74503" lon="7.27915">
        <ele>291.32</ele>
        <time>2020-05-21T19:06:44.000Z</time>
      </trkpt>
      <trkpt lat="48.74496" lon="7.2792">
        <ele>291.72</ele>
        <time>2020-05-21T19:06:45.000Z</time>
      </trkpt>
      <trkpt lat="48.74489" lon="7.27925">
        <ele>292.33</ele>
        <time>2020-05-21T19:06:46.000Z</time>
      </trkpt>
      <trkpt lat="48.74482" lon="7.2793">
        <ele>291.17</ele>
        <time>2020-05-21T19:06:47.000Z</time>
      </trkpt>
      <trkpt lat="48.74475" lon="7.27933">
        <ele>291.23</ele>
        <time>2020-05-21T19:06:48.000Z</time>
      </trkpt>
      <trkpt lat="48.74468" lon="7.27939">
        <ele>289.99</ele>
        <time>2020-05-21T19:06:49.000Z</time>
      </trkpt>
      <trkpt lat="48.7446" lon="7.27943">
        <ele>289.54</ele>
        <time>2020-05-21T19:06:50.000Z</time>
      </trkpt>
      <trkpt lat="48.74453" lon="7.27948">
        <ele>289.15</ele>
        <time>2020-05-21T19:06:51.000Z</time>
      </trkpt>
      <trkpt lat="48.74447" lon="7.27953">
        <ele>290.7</ele>
        <time>2020-05-21T19:06:52.000Z</time>
      </trkpt>
      <trkpt lat="48.74439" lon="7.27959">
        <ele>290.47</ele>
        <time>2020-05-21T19:06:53.000Z</time>
      </trkpt>
      <trkpt lat="48.74432" lon="7.27964">
        <ele>290.11</ele>
        <time>2020-05-21T19:06:54.000Z</time>
      </trkpt>
      <trkpt lat="48.74424" lon="7.27969">
        <ele>289.07</ele>
        <time>2020-05-21T19:06:55.000Z</time>
      </trkpt>
      <trkpt lat="48.74415" lon="7.27975">
        <ele>287.61</ele>
        <time>2020-05-21T19:06:56.000Z</time>
      </trkpt>
      <trkpt lat="48.74408" lon="7.27981">
        <ele>287.06</ele>
        <time>2020-05-21T19:06:57.000Z</time>
      </trkpt>
      <trkpt lat="48.744" lon="7.27986">
        <ele>287.12</ele>
        <time>2020-05-21T19:06:58.000Z</time>
      </trkpt>
      <trkpt lat="48.74392" lon="7.27991">
        <ele>286.99</ele>
        <time>2020-05-21T19:06:59.000Z</time>
      </trkpt>
      <trkpt lat="48.74383" lon="7.27994">
        <ele>286.56</ele>
        <time>2020-05-21T19:07:00.000Z</time>
      </trkpt>
      <trkpt lat="48.74376" lon="7.27998">
        <ele>286.55</ele>
        <time>2020-05-21T19:07:01.000Z</time>
      </trkpt>
      <trkpt lat="48.74368" lon="7.28001">
        <ele>285.78</ele>
        <time>2020-05-21T19:07:02.000Z</time>
      </trkpt>
      <trkpt lat="48.74361" lon="7.28005">
        <ele>285.63</ele>
        <time>2020-05-21T19:07:03.000Z</time>
      </trkpt>
      <trkpt lat="48.74353" lon="7.2801">
        <ele>285.26</ele>
        <time>2020-05-21T19:07:04.000Z</time>
      </trkpt>
      <trkpt lat="48.74346" lon="7.28015">
        <ele>285.56</ele>
        <time>2020-05-21T19:07:05.000Z</time>
      </trkpt>
      <trkpt lat="48.74339" lon="7.28021">
        <ele>285.99</ele>
        <time>2020-05-21T19:07:06.000Z</time>
      </trkpt>
      <trkpt lat="48.74331" lon="7.28028">
        <ele>285.78</ele>
        <time>2020-05-21T19:07:07.000Z</time>
      </trkpt>
      <trkpt lat="48.74325" lon="7.28035">
        <ele>286.84</ele>
        <time>2020-05-21T19:07:08.000Z</time>
      </trkpt>
      <trkpt lat="48.74319" lon="7.28042">
        <ele>286.48</ele>
        <time>2020-05-21T19:07:09.000Z</time>
      </trkpt>
      <trkpt lat="48.74313" lon="7.28047">
        <ele>288.33</ele>
        <time>2020-05-21T19:07:10.000Z</time>
      </trkpt>
      <trkpt lat="48.74306" lon="7.28055">
        <ele>287.75</ele>
        <time>2020-05-21T19:07:11.000Z</time>
      </trkpt>
      <trkpt lat="48.743" lon="7.28061">
        <ele>288.31</ele>
        <time>2020-05-21T19:07:12.000Z</time>
      </trkpt>
      <trkpt lat="48.74293" lon="7.28066">
        <ele>287.9</ele>
        <time>2020-05-21T19:07:13.000Z</time>
      </trkpt>
      <trkpt lat="48.74288" lon="7.28073">
        <ele>289.16</ele>
        <time>2020-05-21T19:07:14.000Z</time>
      </trkpt>
      <trkpt lat="48.74283" lon="7.28078">
        <ele>287.84</ele>
        <time>2020-05-21T19:07:15.000Z</time>
      </trkpt>
      <trkpt lat="48.74277" lon="7.28083">
        <ele>287.05</ele>
        <time>2020-05-21T19:07:16.000Z</time>
      </trkpt>
      <trkpt lat="48.74272" lon="7.28088">
        <ele>287.69</ele>
        <time>2020-05-21T19:07:17.000Z</time>
      </trkpt>
      <trkpt lat="48.74266" lon="7.28092">
        <ele>287.31</ele>
        <time>2020-05-21T19:07:18.000Z</time>
      </trkpt>
      <trkpt lat="48.74261" lon="7.28097">
        <ele>287.5</ele>
        <time>2020-05-21T19:07:19.000Z</time>
      </trkpt>
      <trkpt lat="48.74256" lon="7.28101">
        <ele>287.12</ele>
        <time>2020-05-21T19:07:20.000Z</time>
      </trkpt>
      <trkpt lat="48.7425" lon="7.28103">
        <ele>287.34</ele>
        <time>2020-05-21T19:07:21.000Z</time>
      </trkpt>
      <trkpt lat="48.74244" lon="7.28106">
        <ele>287.71</ele>
        <time>2020-05-21T19:07:22.000Z</time>
      </trkpt>
      <trkpt lat="48.74238" lon="7.28108">
        <ele>287.27</ele>
        <time>2020-05-21T19:07:23.000Z</time>
      </trkpt>
      <trkpt lat="48.74232" lon="7.28109">
        <ele>287.73</ele>
        <time>2020-05-21T19:07:24.000Z</time>
      </trkpt>
      <trkpt lat="48.74226" lon="7.2811">
        <ele>287.24</ele>
        <time>2020-05-21T19:07:25.000Z</time>
      </trkpt>
      <trkpt lat="48.74221" lon="7.28112">
        <ele>286.6</ele>
        <time>2020-05-21T19:07:26.000Z</time>
      </trkpt>
      <trkpt lat="48.74215" lon="7.28115">
        <ele>285.92</ele>
        <time>2020-05-21T19:07:27.000Z</time>
      </trkpt>
      <trkpt lat="48.74209" lon="7.28118">
        <ele>285.58</ele>
        <time>2020-05-21T19:07:28.000Z</time>
      </trkpt>
      <trkpt lat="48.74204" lon="7.28122">
        <ele>284.78</ele>
        <time>2020-05-21T19:07:29.000Z</time>
      </trkpt>
      <trkpt lat="48.74198" lon="7.28128">
        <ele>284.1</ele>
        <time>2020-05-21T19:07:30.000Z</time>
      </trkpt>
      <trkpt lat="48.74193" lon="7.28133">
        <ele>284.61</ele>
        <time>2020-05-21T19:07:31.000Z</time>
      </trkpt>
      <trkpt lat="48.74188" lon="7.28139">
        <ele>284.58</ele>
        <time>2020-05-21T19:07:32.000Z</time>
      </trkpt>
      <trkpt lat="48.74182" lon="7.28145">
        <ele>284.56</ele>
        <time>2020-05-21T19:07:33.000Z</time>
      </trkpt>
      <trkpt lat="48.74177" lon="7.28152">
        <ele>284.72</ele>
        <time>2020-05-21T19:07:34.000Z</time>
      </trkpt>
      <trkpt lat="48.74171" lon="7.28157">
        <ele>284.33</ele>
        <time>2020-05-21T19:07:35.000Z</time>
      </trkpt>
      <trkpt lat="48.74164" lon="7.28161">
        <ele>284.16</ele>
        <time>2020-05-21T19:07:36.000Z</time>
      </trkpt>
      <trkpt lat="48.74157" lon="7.28166">
        <ele>283.41</ele>
        <time>2020-05-21T19:07:37.000Z</time>
      </trkpt>
      <trkpt lat="48.74149" lon="7.28169">
        <ele>282.16</ele>
        <time>2020-05-21T19:07:38.000Z</time>
      </trkpt>
      <trkpt lat="48.74141" lon="7.28171">
        <ele>282.38</ele>
        <time>2020-05-21T19:07:39.000Z</time>
      </trkpt>
      <trkpt lat="48.74133" lon="7.28171">
        <ele>281.46</ele>
        <time>2020-05-21T19:07:40.000Z</time>
      </trkpt>
      <trkpt lat="48.74125" lon="7.28171">
        <ele>280.26</ele>
        <time>2020-05-21T19:07:41.000Z</time>
      </trkpt>
      <trkpt lat="48.74118" lon="7.28172">
        <ele>279.8</ele>
        <time>2020-05-21T19:07:42.000Z</time>
      </trkpt>
      <trkpt lat="48.74111" lon="7.28175">
        <ele>279.27</ele>
        <time>2020-05-21T19:07:43.000Z</time>
      </trkpt>
      <trkpt lat="48.74104" lon="7.28176">
        <ele>278.83</ele>
        <time>2020-05-21T19:07:44.000Z</time>
      </trkpt>
      <trkpt lat="48.74098" lon="7.2818">
        <ele>278.82</ele>
        <time>2020-05-21T19:07:45.000Z</time>
      </trkpt>
      <trkpt lat="48.7409" lon="7.28183">
        <ele>280</ele>
        <time>2020-05-21T19:07:46.000Z</time>
      </trkpt>
      <trkpt lat="48.74084" lon="7.28188">
        <ele>280.3</ele>
        <time>2020-05-21T19:07:47.000Z</time>
      </trkpt>
      <trkpt lat="48.74077" lon="7.28194">
        <ele>280.43</ele>
        <time>2020-05-21T19:07:48.000Z</time>
      </trkpt>
      <trkpt lat="48.74071" lon="7.282">
        <ele>280.57</ele>
        <time>2020-05-21T19:07:49.000Z</time>
      </trkpt>
      <trkpt lat="48.74065" lon="7.28205">
        <ele>280.76</ele>
        <time>2020-05-21T19:07:50.000Z</time>
      </trkpt>
      <trkpt lat="48.74059" lon="7.28211">
        <ele>280.82</ele>
        <time>2020-05-21T19:07:51.000Z</time>
      </trkpt>
      <trkpt lat="48.74053" lon="7.28216">
        <ele>281.63</ele>
        <time>2020-05-21T19:07:52.000Z</time>
      </trkpt>
      <trkpt lat="48.74048" lon="7.28222">
        <ele>281.41</ele>
        <time>2020-05-21T19:07:53.000Z</time>
      </trkpt>
      <trkpt lat="48.74042" lon="7.28227">
        <ele>281.38</ele>
        <time>2020-05-21T19:07:54.000Z</time>
      </trkpt>
      <trkpt lat="48.74035" lon="7.2823">
        <ele>280.2</ele>
        <time>2020-05-21T19:07:55.000Z</time>
      </trkpt>
      <trkpt lat="48.74028" lon="7.28232">
        <ele>280.33</ele>
        <time>2020-05-21T19:07:56.000Z</time>
      </trkpt>
      <trkpt lat="48.74021" lon="7.28235">
        <ele>279.58</ele>
        <time>2020-05-21T19:07:57.000Z</time>
      </trkpt>
      <trkpt lat="48.74015" lon="7.28236">
        <ele>278.61</ele>
        <time>2020-05-21T19:07:58.000Z</time>
      </trkpt>
      <trkpt lat="48.74009" lon="7.28237">
        <ele>278.12</ele>
        <time>2020-05-21T19:07:59.000Z</time>
      </trkpt>
      <trkpt lat="48.74004" lon="7.28239">
        <ele>276.94</ele>
        <time>2020-05-21T19:08:00.000Z</time>
      </trkpt>
      <trkpt lat="48.73997" lon="7.2824">
        <ele>277.15</ele>
        <time>2020-05-21T19:08:01.000Z</time>
      </trkpt>
      <trkpt lat="48.73991" lon="7.28242">
        <ele>276.63</ele>
        <time>2020-05-21T19:08:02.000Z</time>
      </trkpt>
      <trkpt lat="48.73986" lon="7.28245">
        <ele>276.44</ele>
        <time>2020-05-21T19:08:03.000Z</time>
      </trkpt>
      <trkpt lat="48.73979" lon="7.28248">
        <ele>276.7</ele>
        <time>2020-05-21T19:08:04.000Z</time>
      </trkpt>
      <trkpt lat="48.73972" lon="7.2825">
        <ele>277.37</ele>
        <time>2020-05-21T19:08:05.000Z</time>
      </trkpt>
      <trkpt lat="48.73964" lon="7.28256">
        <ele>277.03</ele>
        <time>2020-05-21T19:08:06.000Z</time>
      </trkpt>
      <trkpt lat="48.73959" lon="7.28257">
        <ele>277.55</ele>
        <time>2020-05-21T19:08:07.000Z</time>
      </trkpt>
      <trkpt lat="48.73953" lon="7.28258">
        <ele>276.98</ele>
        <time>2020-05-21T19:08:08.000Z</time>
      </trkpt>
      <trkpt lat="48.73947" lon="7.28262">
        <ele>278.05</ele>
        <time>2020-05-21T19:08:09.000Z</time>
      </trkpt>
      <trkpt lat="48.73941" lon="7.28266">
        <ele>277.6</ele>
        <time>2020-05-21T19:08:10.000Z</time>
      </trkpt>
      <trkpt lat="48.73935" lon="7.28267">
        <ele>277.67</ele>
        <time>2020-05-21T19:08:11.000Z</time>
      </trkpt>
      <trkpt lat="48.73929" lon="7.28272">
        <ele>277.44</ele>
        <time>2020-05-21T19:08:12.000Z</time>
      </trkpt>
      <trkpt lat="48.73922" lon="7.28275">
        <ele>277.49</ele>
        <time>2020-05-21T19:08:13.000Z</time>
      </trkpt>
      <trkpt lat="48.73916" lon="7.28278">
        <ele>279.37</ele>
        <time>2020-05-21T19:08:14.000Z</time>
      </trkpt>
      <trkpt lat="48.73909" lon="7.2828">
        <ele>279.45</ele>
        <time>2020-05-21T19:08:15.000Z</time>
      </trkpt>
      <trkpt lat="48.73903" lon="7.28282">
        <ele>280.6</ele>
        <time>2020-05-21T19:08:16.000Z</time>
      </trkpt>
      <trkpt lat="48.73896" lon="7.28287">
        <ele>279.51</ele>
        <time>2020-05-21T19:08:17.000Z</time>
      </trkpt>
      <trkpt lat="48.73889" lon="7.28289">
        <ele>278.98</ele>
        <time>2020-05-21T19:08:18.000Z</time>
      </trkpt>
      <trkpt lat="48.73883" lon="7.28291">
        <ele>278.8</ele>
        <time>2020-05-21T19:08:19.000Z</time>
      </trkpt>
      <trkpt lat="48.73877" lon="7.28293">
        <ele>278.9</ele>
        <time>2020-05-21T19:08:20.000Z</time>
      </trkpt>
      <trkpt lat="48.73868" lon="7.28293">
        <ele>277.73</ele>
        <time>2020-05-21T19:08:21.000Z</time>
      </trkpt>
      <trkpt lat="48.73861" lon="7.28294">
        <ele>277.5</ele>
        <time>2020-05-21T19:08:22.000Z</time>
      </trkpt>
      <trkpt lat="48.73853" lon="7.28294">
        <ele>277.24</ele>
        <time>2020-05-21T19:08:23.000Z</time>
      </trkpt>
      <trkpt lat="48.73845" lon="7.28296">
        <ele>276.36</ele>
        <time>2020-05-21T19:08:24.000Z</time>
      </trkpt>
      <trkpt lat="48.73838" lon="7.28296">
        <ele>274.9</ele>
        <time>2020-05-21T19:08:25.000Z</time>
      </trkpt>
      <trkpt lat="48.73832" lon="7.28299">
        <ele>273.09</ele>
        <time>2020-05-21T19:08:26.000Z</time>
      </trkpt>
      <trkpt lat="48.73825" lon="7.283">
        <ele>273.27</ele>
        <time>2020-05-21T19:08:27.000Z</time>
      </trkpt>
      <trkpt lat="48.73817" lon="7.283">
        <ele>273.16</ele>
        <time>2020-05-21T19:08:28.000Z</time>
      </trkpt>
      <trkpt lat="48.7381" lon="7.28301">
        <ele>272.91</ele>
        <time>2020-05-21T19:08:29.000Z</time>
      </trkpt>
      <trkpt lat="48.73804" lon="7.28302">
        <ele>271.39</ele>
        <time>2020-05-21T19:08:30.000Z</time>
      </trkpt>
      <trkpt lat="48.73797" lon="7.28302">
        <ele>270.92</ele>
        <time>2020-05-21T19:08:31.000Z</time>
      </trkpt>
      <trkpt lat="48.73791" lon="7.28303">
        <ele>270.03</ele>
        <time>2020-05-21T19:08:32.000Z</time>
      </trkpt>
      <trkpt lat="48.73784" lon="7.28306">
        <ele>269.07</ele>
        <time>2020-05-21T19:08:33.000Z</time>
      </trkpt>
      <trkpt lat="48.73777" lon="7.28307">
        <ele>270.02</ele>
        <time>2020-05-21T19:08:34.000Z</time>
      </trkpt>
      <trkpt lat="48.73769" lon="7.28307">
        <ele>270.19</ele>
        <time>2020-05-21T19:08:35.000Z</time>
      </trkpt>
      <trkpt lat="48.73763" lon="7.28306">
        <ele>269.58</ele>
        <time>2020-05-21T19:08:36.000Z</time>
      </trkpt>
      <trkpt lat="48.73756" lon="7.28307">
        <ele>270.64</ele>
        <time>2020-05-21T19:08:37.000Z</time>
      </trkpt>
      <trkpt lat="48.7375" lon="7.28308">
        <ele>270.2</ele>
        <time>2020-05-21T19:08:38.000Z</time>
      </trkpt>
      <trkpt lat="48.73744" lon="7.28309">
        <ele>270.14</ele>
        <time>2020-05-21T19:08:39.000Z</time>
      </trkpt>
      <trkpt lat="48.73736" lon="7.28309">
        <ele>270.94</ele>
        <time>2020-05-21T19:08:40.000Z</time>
      </trkpt>
      <trkpt lat="48.73731" lon="7.2831">
        <ele>270.49</ele>
        <time>2020-05-21T19:08:41.000Z</time>
      </trkpt>
      <trkpt lat="48.73724" lon="7.2831">
        <ele>270.3</ele>
        <time>2020-05-21T19:08:42.000Z</time>
      </trkpt>
      <trkpt lat="48.73716" lon="7.28307">
        <ele>270.3</ele>
        <time>2020-05-21T19:08:43.000Z</time>
      </trkpt>
      <trkpt lat="48.7371" lon="7.28305">
        <ele>270.37</ele>
        <time>2020-05-21T19:08:44.000Z</time>
      </trkpt>
      <trkpt lat="48.73703" lon="7.28301">
        <ele>270.17</ele>
        <time>2020-05-21T19:08:45.000Z</time>
      </trkpt>
      <trkpt lat="48.73696" lon="7.28298">
        <ele>269.65</ele>
        <time>2020-05-21T19:08:46.000Z</time>
      </trkpt>
      <trkpt lat="48.73688" lon="7.28294">
        <ele>268.38</ele>
        <time>2020-05-21T19:08:47.000Z</time>
      </trkpt>
      <trkpt lat="48.73681" lon="7.28291">
        <ele>268</ele>
        <time>2020-05-21T19:08:48.000Z</time>
      </trkpt>
      <trkpt lat="48.73674" lon="7.28285">
        <ele>269.31</ele>
        <time>2020-05-21T19:08:49.000Z</time>
      </trkpt>
      <trkpt lat="48.73668" lon="7.28279">
        <ele>270.35</ele>
        <time>2020-05-21T19:08:50.000Z</time>
      </trkpt>
      <trkpt lat="48.73661" lon="7.28274">
        <ele>269.24</ele>
        <time>2020-05-21T19:08:51.000Z</time>
      </trkpt>
      <trkpt lat="48.73653" lon="7.28271">
        <ele>269.15</ele>
        <time>2020-05-21T19:08:52.000Z</time>
      </trkpt>
      <trkpt lat="48.73645" lon="7.28267">
        <ele>269.08</ele>
        <time>2020-05-21T19:08:53.000Z</time>
      </trkpt>
      <trkpt lat="48.73637" lon="7.28264">
        <ele>268.97</ele>
        <time>2020-05-21T19:08:54.000Z</time>
      </trkpt>
      <trkpt lat="48.7363" lon="7.2826">
        <ele>269.5</ele>
        <time>2020-05-21T19:08:55.000Z</time>
      </trkpt>
      <trkpt lat="48.73622" lon="7.28255">
        <ele>270.43</ele>
        <time>2020-05-21T19:08:56.000Z</time>
      </trkpt>
      <trkpt lat="48.73614" lon="7.28251">
        <ele>269.3</ele>
        <time>2020-05-21T19:08:57.000Z</time>
      </trkpt>
      <trkpt lat="48.73607" lon="7.28246">
        <ele>267.44</ele>
        <time>2020-05-21T19:08:58.000Z</time>
      </trkpt>
      <trkpt lat="48.736" lon="7.28241">
        <ele>267.28</ele>
        <time>2020-05-21T19:08:59.000Z</time>
      </trkpt>
      <trkpt lat="48.73594" lon="7.28236">
        <ele>267.28</ele>
        <time>2020-05-21T19:09:00.000Z</time>
      </trkpt>
      <trkpt lat="48.73587" lon="7.2823">
        <ele>266.16</ele>
        <time>2020-05-21T19:09:01.000Z</time>
      </trkpt>
      <trkpt lat="48.73581" lon="7.28223">
        <ele>265.2</ele>
        <time>2020-05-21T19:09:02.000Z</time>
      </trkpt>
      <trkpt lat="48.73575" lon="7.28216">
        <ele>264.95</ele>
        <time>2020-05-21T19:09:03.000Z</time>
      </trkpt>
      <trkpt lat="48.73568" lon="7.28214">
        <ele>266.77</ele>
        <time>2020-05-21T19:09:04.000Z</time>
      </trkpt>
      <trkpt lat="48.73561" lon="7.2821">
        <ele>265.89</ele>
        <time>2020-05-21T19:09:05.000Z</time>
      </trkpt>
      <trkpt lat="48.73555" lon="7.28205">
        <ele>266.47</ele>
        <time>2020-05-21T19:09:06.000Z</time>
      </trkpt>
      <trkpt lat="48.73548" lon="7.28202">
        <ele>266.31</ele>
        <time>2020-05-21T19:09:07.000Z</time>
      </trkpt>
      <trkpt lat="48.73541" lon="7.28199">
        <ele>265.9</ele>
        <time>2020-05-21T19:09:08.000Z</time>
      </trkpt>
      <trkpt lat="48.73535" lon="7.28195">
        <ele>266.59</ele>
        <time>2020-05-21T19:09:09.000Z</time>
      </trkpt>
      <trkpt lat="48.73528" lon="7.28191">
        <ele>266.34</ele>
        <time>2020-05-21T19:09:10.000Z</time>
      </trkpt>
      <trkpt lat="48.73522" lon="7.28188">
        <ele>266.16</ele>
        <time>2020-05-21T19:09:11.000Z</time>
      </trkpt>
      <trkpt lat="48.73515" lon="7.28185">
        <ele>267.63</ele>
        <time>2020-05-21T19:09:12.000Z</time>
      </trkpt>
      <trkpt lat="48.7351" lon="7.28181">
        <ele>266.77</ele>
        <time>2020-05-21T19:09:13.000Z</time>
      </trkpt>
      <trkpt lat="48.73505" lon="7.28178">
        <ele>267.7</ele>
        <time>2020-05-21T19:09:14.000Z</time>
      </trkpt>
      <trkpt lat="48.73498" lon="7.28175">
        <ele>267.46</ele>
        <time>2020-05-21T19:09:15.000Z</time>
      </trkpt>
      <trkpt lat="48.73493" lon="7.28172">
        <ele>265.87</ele>
        <time>2020-05-21T19:09:16.000Z</time>
      </trkpt>
      <trkpt lat="48.73488" lon="7.28169">
        <ele>266.91</ele>
        <time>2020-05-21T19:09:17.000Z</time>
      </trkpt>
      <trkpt lat="48.73482" lon="7.28167">
        <ele>266.36</ele>
        <time>2020-05-21T19:09:18.000Z</time>
      </trkpt>
      <trkpt lat="48.73478" lon="7.28164">
        <ele>265.75</ele>
        <time>2020-05-21T19:09:19.000Z</time>
      </trkpt>
      <trkpt lat="48.73472" lon="7.28162">
        <ele>264.77</ele>
        <time>2020-05-21T19:09:20.000Z</time>
      </trkpt>
      <trkpt lat="48.73467" lon="7.28164">
        <ele>264.11</ele>
        <time>2020-05-21T19:09:21.000Z</time>
      </trkpt>
      <trkpt lat="48.73457" lon="7.28164">
        <ele>262.81</ele>
        <time>2020-05-21T19:09:23.000Z</time>
      </trkpt>
      <trkpt lat="48.73452" lon="7.28166">
        <ele>262.24</ele>
        <time>2020-05-21T19:09:24.000Z</time>
      </trkpt>
      <trkpt lat="48.73447" lon="7.28166">
        <ele>261.57</ele>
        <time>2020-05-21T19:09:25.000Z</time>
      </trkpt>
      <trkpt lat="48.73441" lon="7.28165">
        <ele>261.09</ele>
        <time>2020-05-21T19:09:26.000Z</time>
      </trkpt>
      <trkpt lat="48.73434" lon="7.28163">
        <ele>260.72</ele>
        <time>2020-05-21T19:09:27.000Z</time>
      </trkpt>
      <trkpt lat="48.73428" lon="7.28163">
        <ele>260.2</ele>
        <time>2020-05-21T19:09:28.000Z</time>
      </trkpt>
      <trkpt lat="48.7342" lon="7.28163">
        <ele>260.63</ele>
        <time>2020-05-21T19:09:30.000Z</time>
      </trkpt>
      <trkpt lat="48.73414" lon="7.28164">
        <ele>260.88</ele>
        <time>2020-05-21T19:09:31.000Z</time>
      </trkpt>
      <trkpt lat="48.73407" lon="7.28164">
        <ele>260.54</ele>
        <time>2020-05-21T19:09:32.000Z</time>
      </trkpt>
      <trkpt lat="48.734" lon="7.2816">
        <ele>259.87</ele>
        <time>2020-05-21T19:09:33.000Z</time>
      </trkpt>
      <trkpt lat="48.73376" lon="7.28158">
        <ele>257.53</ele>
        <time>2020-05-21T19:09:38.000Z</time>
      </trkpt>
    </trkseg>
  </trk>
  <trk>
    <name><![CDATA[secteur Saverne - Dabo - Petite Pierre_20]]></name>
    <trkseg>
      <trkpt lat="48.75611" lon="7.26516">
        <ele>361.7</ele>
        <time>2020-05-21T17:35:08.000Z</time>
      </trkpt>
      <trkpt lat="48.75611" lon="7.26516">
        <ele>361.7</ele>
        <time>2020-05-21T17:35:08.000Z</time>
      </trkpt>
      <trkpt lat="48.75611" lon="7.26516">
        <ele>361.7</ele>
        <time>2020-05-21T17:35:08.000Z</time>
      </trkpt>
      <trkpt lat="48.75611" lon="7.26516">
        <ele>361.7</ele>
        <time>2020-05-21T17:35:08.000Z</time>
      </trkpt>
      <trkpt lat="48.75611" lon="7.26516">
        <ele>361.7</ele>
        <time>2020-05-21T17:35:08.000Z</time>
      </trkpt>
      <trkpt lat="48.75611" lon="7.26516">
        <ele>361.7</ele>
        <time>2020-05-21T17:35:08.000Z</time>
      </trkpt>
      <trkpt lat="48.75611" lon="7.26516">
        <ele>361.7</ele>
        <time>2020-05-21T17:35:08.000Z</time>
      </trkpt>
      <trkpt lat="48.7562" lon="7.26515">
        <ele>360.4</ele>
        <time>2020-05-21T17:35:09.000Z</time>
      </trkpt>
      <trkpt lat="48.75628" lon="7.26513">
        <ele>361.8</ele>
        <time>2020-05-21T17:35:10.000Z</time>
      </trkpt>
      <trkpt lat="48.75633" lon="7.2651">
        <ele>362.22</ele>
        <time>2020-05-21T17:35:11.000Z</time>
      </trkpt>
      <trkpt lat="48.75638" lon="7.26507">
        <ele>360.92</ele>
        <time>2020-05-21T17:35:12.000Z</time>
      </trkpt>
      <trkpt lat="48.75643" lon="7.26504">
        <ele>361.57</ele>
        <time>2020-05-21T17:35:13.000Z</time>
      </trkpt>
      <trkpt lat="48.75648" lon="7.26502">
        <ele>363.22</ele>
        <time>2020-05-21T17:35:14.000Z</time>
      </trkpt>
      <trkpt lat="48.75654" lon="7.26495">
        <ele>366.14</ele>
        <time>2020-05-21T17:35:16.000Z</time>
      </trkpt>
      <trkpt lat="48.75658" lon="7.26492">
        <ele>366.29</ele>
        <time>2020-05-21T17:35:17.000Z</time>
      </trkpt>
      <trkpt lat="48.75663" lon="7.26484">
        <ele>363.34</ele>
        <time>2020-05-21T17:35:18.000Z</time>
      </trkpt>
      <trkpt lat="48.75667" lon="7.26478">
        <ele>362.73</ele>
        <time>2020-05-21T17:35:19.000Z</time>
      </trkpt>
      <trkpt lat="48.75671" lon="7.26473">
        <ele>362.09</ele>
        <time>2020-05-21T17:35:20.000Z</time>
      </trkpt>
      <trkpt lat="48.75676" lon="7.26469">
        <ele>360.11</ele>
        <time>2020-05-21T17:35:21.000Z</time>
      </trkpt>
      <trkpt lat="48.75685" lon="7.26463">
        <ele>360.37</ele>
        <time>2020-05-21T17:35:23.000Z</time>
      </trkpt>
      <trkpt lat="48.75693" lon="7.26454">
        <ele>363.02</ele>
        <time>2020-05-21T17:35:25.000Z</time>
      </trkpt>
      <trkpt lat="48.75697" lon="7.26451">
        <ele>363.87</ele>
        <time>2020-05-21T17:35:26.000Z</time>
      </trkpt>
      <trkpt lat="48.757" lon="7.26444">
        <ele>361.77</ele>
        <time>2020-05-21T17:35:27.000Z</time>
      </trkpt>
      <trkpt lat="48.75706" lon="7.26438">
        <ele>362.23</ele>
        <time>2020-05-21T17:35:29.000Z</time>
      </trkpt>
      <trkpt lat="48.75714" lon="7.26427">
        <ele>360.14</ele>
        <time>2020-05-21T17:35:31.000Z</time>
      </trkpt>
      <trkpt lat="48.75719" lon="7.26422">
        <ele>358.83</ele>
        <time>2020-05-21T17:35:33.000Z</time>
      </trkpt>
      <trkpt lat="48.75726" lon="7.26413">
        <ele>359.52</ele>
        <time>2020-05-21T17:35:35.000Z</time>
      </trkpt>
      <trkpt lat="48.75732" lon="7.26407">
        <ele>359.09</ele>
        <time>2020-05-21T17:35:37.000Z</time>
      </trkpt>
      <trkpt lat="48.75737" lon="7.26401">
        <ele>357.57</ele>
        <time>2020-05-21T17:35:39.000Z</time>
      </trkpt>
      <trkpt lat="48.75744" lon="7.26393">
        <ele>356.72</ele>
        <time>2020-05-21T17:35:41.000Z</time>
      </trkpt>
      <trkpt lat="48.75748" lon="7.26389">
        <ele>356.83</ele>
        <time>2020-05-21T17:35:42.000Z</time>
      </trkpt>
      <trkpt lat="48.75767" lon="7.26374">
        <ele>356.92</ele>
        <time>2020-05-21T17:35:45.000Z</time>
      </trkpt>
      <trkpt lat="48.7577" lon="7.26369">
        <ele>358.66</ele>
        <time>2020-05-21T17:35:46.000Z</time>
      </trkpt>
      <trkpt lat="48.75776" lon="7.26359">
        <ele>358.53</ele>
        <time>2020-05-21T17:35:48.000Z</time>
      </trkpt>
      <trkpt lat="48.75781" lon="7.26355">
        <ele>357.92</ele>
        <time>2020-05-21T17:35:49.000Z</time>
      </trkpt>
      <trkpt lat="48.75786" lon="7.26351">
        <ele>356.33</ele>
        <time>2020-05-21T17:35:50.000Z</time>
      </trkpt>
      <trkpt lat="48.75795" lon="7.26343">
        <ele>357.77</ele>
        <time>2020-05-21T17:35:52.000Z</time>
      </trkpt>
      <trkpt lat="48.75808" lon="7.26331">
        <ele>354.54</ele>
        <time>2020-05-21T17:35:54.000Z</time>
      </trkpt>
      <trkpt lat="48.75814" lon="7.26326">
        <ele>354.46</ele>
        <time>2020-05-21T17:35:55.000Z</time>
      </trkpt>
      <trkpt lat="48.75818" lon="7.26322">
        <ele>353.96</ele>
        <time>2020-05-21T17:35:56.000Z</time>
      </trkpt>
      <trkpt lat="48.75828" lon="7.26315">
        <ele>353.93</ele>
        <time>2020-05-21T17:35:58.000Z</time>
      </trkpt>
      <trkpt lat="48.75833" lon="7.2631">
        <ele>353.55</ele>
        <time>2020-05-21T17:35:59.000Z</time>
      </trkpt>
      <trkpt lat="48.75837" lon="7.26308">
        <ele>356.6</ele>
        <time>2020-05-21T17:36:00.000Z</time>
      </trkpt>
      <trkpt lat="48.75841" lon="7.26303">
        <ele>357.87</ele>
        <time>2020-05-21T17:36:01.000Z</time>
      </trkpt>
      <trkpt lat="48.75846" lon="7.26298">
        <ele>358.98</ele>
        <time>2020-05-21T17:36:02.000Z</time>
      </trkpt>
      <trkpt lat="48.7585" lon="7.2629">
        <ele>357.95</ele>
        <time>2020-05-21T17:36:03.000Z</time>
      </trkpt>
      <trkpt lat="48.75855" lon="7.26284">
        <ele>358.13</ele>
        <time>2020-05-21T17:36:04.000Z</time>
      </trkpt>
      <trkpt lat="48.75861" lon="7.26277">
        <ele>355.75</ele>
        <time>2020-05-21T17:36:05.000Z</time>
      </trkpt>
      <trkpt lat="48.75863" lon="7.2627">
        <ele>355.87</ele>
        <time>2020-05-21T17:36:06.000Z</time>
      </trkpt>
      <trkpt lat="48.75873" lon="7.26243">
        <ele>355.9</ele>
        <time>2020-05-21T17:36:09.000Z</time>
      </trkpt>
      <trkpt lat="48.75876" lon="7.26237">
        <ele>356.8</ele>
        <time>2020-05-21T17:36:10.000Z</time>
      </trkpt>
      <trkpt lat="48.75877" lon="7.26227">
        <ele>355.32</ele>
        <time>2020-05-21T17:36:11.000Z</time>
      </trkpt>
      <trkpt lat="48.7588" lon="7.2622">
        <ele>355.8</ele>
        <time>2020-05-21T17:36:12.000Z</time>
      </trkpt>
      <trkpt lat="48.75881" lon="7.26212">
        <ele>354.51</ele>
        <time>2020-05-21T17:36:13.000Z</time>
      </trkpt>
      <trkpt lat="48.75884" lon="7.26205">
        <ele>353.86</ele>
        <time>2020-05-21T17:36:14.000Z</time>
      </trkpt>
      <trkpt lat="48.75887" lon="7.26201">
        <ele>354.23</ele>
        <time>2020-05-21T17:36:15.000Z</time>
      </trkpt>
      <trkpt lat="48.7589" lon="7.26193">
        <ele>356.17</ele>
        <time>2020-05-21T17:36:17.000Z</time>
      </trkpt>
      <trkpt lat="48.75895" lon="7.26187">
        <ele>356.77</ele>
        <time>2020-05-21T17:36:20.000Z</time>
      </trkpt>
      <trkpt lat="48.759" lon="7.26181">
        <ele>373.18</ele>
        <time>2020-05-21T17:36:22.000Z</time>
      </trkpt>
      <trkpt lat="48.75904" lon="7.26176">
        <ele>367.68</ele>
        <time>2020-05-21T17:36:25.000Z</time>
      </trkpt>
      <trkpt lat="48.75907" lon="7.26172">
        <ele>365.6</ele>
        <time>2020-05-21T17:36:28.000Z</time>
      </trkpt>
      <trkpt lat="48.75911" lon="7.26167">
        <ele>363.8</ele>
        <time>2020-05-21T17:36:30.000Z</time>
      </trkpt>
      <trkpt lat="48.75916" lon="7.26161">
        <ele>362.53</ele>
        <time>2020-05-21T17:36:32.000Z</time>
      </trkpt>
      <trkpt lat="48.7592" lon="7.26154">
        <ele>362.73</ele>
        <time>2020-05-21T17:36:35.000Z</time>
      </trkpt>
      <trkpt lat="48.75924" lon="7.26148">
        <ele>361.71</ele>
        <time>2020-05-21T17:36:37.000Z</time>
      </trkpt>
      <trkpt lat="48.75929" lon="7.26142">
        <ele>360.3</ele>
        <time>2020-05-21T17:36:40.000Z</time>
      </trkpt>
      <trkpt lat="48.75932" lon="7.26137">
        <ele>361.77</ele>
        <time>2020-05-21T17:36:42.000Z</time>
      </trkpt>
      <trkpt lat="48.75936" lon="7.26132">
        <ele>360.04</ele>
        <time>2020-05-21T17:36:44.000Z</time>
      </trkpt>
      <trkpt lat="48.75939" lon="7.26127">
        <ele>359.02</ele>
        <time>2020-05-21T17:36:46.000Z</time>
      </trkpt>
      <trkpt lat="48.75943" lon="7.26119">
        <ele>359.82</ele>
        <time>2020-05-21T17:36:48.000Z</time>
      </trkpt>
      <trkpt lat="48.75947" lon="7.26112">
        <ele>358.82</ele>
        <time>2020-05-21T17:36:50.000Z</time>
      </trkpt>
      <trkpt lat="48.75951" lon="7.26104">
        <ele>356.86</ele>
        <time>2020-05-21T17:36:52.000Z</time>
      </trkpt>
      <trkpt lat="48.75956" lon="7.26093">
        <ele>358.32</ele>
        <time>2020-05-21T17:36:54.000Z</time>
      </trkpt>
      <trkpt lat="48.7596" lon="7.26089">
        <ele>358.23</ele>
        <time>2020-05-21T17:36:55.000Z</time>
      </trkpt>
      <trkpt lat="48.75969" lon="7.26077">
        <ele>357.8</ele>
        <time>2020-05-21T17:36:57.000Z</time>
      </trkpt>
      <trkpt lat="48.75974" lon="7.26073">
        <ele>358.63</ele>
        <time>2020-05-21T17:36:58.000Z</time>
      </trkpt>
      <trkpt lat="48.75982" lon="7.26066">
        <ele>359.67</ele>
        <time>2020-05-21T17:37:00.000Z</time>
      </trkpt>
      <trkpt lat="48.75989" lon="7.2606">
        <ele>358.58</ele>
        <time>2020-05-21T17:37:02.000Z</time>
      </trkpt>
      <trkpt lat="48.75993" lon="7.26056">
        <ele>358.64</ele>
        <time>2020-05-21T17:37:03.000Z</time>
      </trkpt>
      <trkpt lat="48.76001" lon="7.2605">
        <ele>358.27</ele>
        <time>2020-05-21T17:37:05.000Z</time>
      </trkpt>
      <trkpt lat="48.76007" lon="7.2604">
        <ele>357.39</ele>
        <time>2020-05-21T17:37:07.000Z</time>
      </trkpt>
      <trkpt lat="48.76011" lon="7.26037">
        <ele>357.87</ele>
        <time>2020-05-21T17:37:08.000Z</time>
      </trkpt>
      <trkpt lat="48.76018" lon="7.26034">
        <ele>358.77</ele>
        <time>2020-05-21T17:37:10.000Z</time>
      </trkpt>
      <trkpt lat="48.76023" lon="7.2603">
        <ele>359.88</ele>
        <time>2020-05-21T17:37:11.000Z</time>
      </trkpt>
      <trkpt lat="48.76031" lon="7.26026">
        <ele>356.82</ele>
        <time>2020-05-21T17:37:13.000Z</time>
      </trkpt>
      <trkpt lat="48.76039" lon="7.26025">
        <ele>355.19</ele>
        <time>2020-05-21T17:37:15.000Z</time>
      </trkpt>
      <trkpt lat="48.76047" lon="7.26024">
        <ele>352.86</ele>
        <time>2020-05-21T17:37:17.000Z</time>
      </trkpt>
      <trkpt lat="48.76096" lon="7.26026">
        <ele>362.84</ele>
        <time>2020-05-21T17:37:28.000Z</time>
      </trkpt>
      <trkpt lat="48.76103" lon="7.26027">
        <ele>359.99</ele>
        <time>2020-05-21T17:37:30.000Z</time>
      </trkpt>
      <trkpt lat="48.7611" lon="7.26031">
        <ele>358.19</ele>
        <time>2020-05-21T17:37:32.000Z</time>
      </trkpt>
      <trkpt lat="48.76116" lon="7.26033">
        <ele>357.76</ele>
        <time>2020-05-21T17:37:34.000Z</time>
      </trkpt>
      <trkpt lat="48.76122" lon="7.26035">
        <ele>357.01</ele>
        <time>2020-05-21T17:37:36.000Z</time>
      </trkpt>
      <trkpt lat="48.76128" lon="7.26037">
        <ele>357.56</ele>
        <time>2020-05-21T17:37:38.000Z</time>
      </trkpt>
      <trkpt lat="48.76133" lon="7.2604">
        <ele>357.68</ele>
        <time>2020-05-21T17:37:40.000Z</time>
      </trkpt>
      <trkpt lat="48.76138" lon="7.26043">
        <ele>358.06</ele>
        <time>2020-05-21T17:37:42.000Z</time>
      </trkpt>
      <trkpt lat="48.76143" lon="7.26045">
        <ele>358.24</ele>
        <time>2020-05-21T17:37:44.000Z</time>
      </trkpt>
      <trkpt lat="48.76148" lon="7.26047">
        <ele>357.84</ele>
        <time>2020-05-21T17:37:46.000Z</time>
      </trkpt>
      <trkpt lat="48.76154" lon="7.26048">
        <ele>357.72</ele>
        <time>2020-05-21T17:37:48.000Z</time>
      </trkpt>
      <trkpt lat="48.76159" lon="7.26051">
        <ele>357.98</ele>
        <time>2020-05-21T17:37:50.000Z</time>
      </trkpt>
      <trkpt lat="48.76164" lon="7.26052">
        <ele>358.7</ele>
        <time>2020-05-21T17:37:52.000Z</time>
      </trkpt>
      <trkpt lat="48.7617" lon="7.26055">
        <ele>360.25</ele>
        <time>2020-05-21T17:37:55.000Z</time>
      </trkpt>
      <trkpt lat="48.76174" lon="7.26056">
        <ele>360.86</ele>
        <time>2020-05-21T17:37:57.000Z</time>
      </trkpt>
      <trkpt lat="48.76179" lon="7.26056">
        <ele>360.51</ele>
        <time>2020-05-21T17:37:59.000Z</time>
      </trkpt>
      <trkpt lat="48.76185" lon="7.26058">
        <ele>362.41</ele>
        <time>2020-05-21T17:38:02.000Z</time>
      </trkpt>
      <trkpt lat="48.76191" lon="7.26059">
        <ele>361.79</ele>
        <time>2020-05-21T17:38:05.000Z</time>
      </trkpt>
      <trkpt lat="48.76198" lon="7.26059">
        <ele>361.83</ele>
        <time>2020-05-21T17:38:08.000Z</time>
      </trkpt>
      <trkpt lat="48.76205" lon="7.26058">
        <ele>366.25</ele>
        <time>2020-05-21T17:38:11.000Z</time>
      </trkpt>
      <trkpt lat="48.76211" lon="7.2606">
        <ele>366.41</ele>
        <time>2020-05-21T17:38:14.000Z</time>
      </trkpt>
      <trkpt lat="48.76217" lon="7.26061">
        <ele>367.86</ele>
        <time>2020-05-21T17:38:17.000Z</time>
      </trkpt>
      <trkpt lat="48.76222" lon="7.2606">
        <ele>366.02</ele>
        <time>2020-05-21T17:38:20.000Z</time>
      </trkpt>
      <trkpt lat="48.76228" lon="7.26061">
        <ele>366.12</ele>
        <time>2020-05-21T17:38:23.000Z</time>
      </trkpt>
      <trkpt lat="48.76235" lon="7.26063">
        <ele>367.04</ele>
        <time>2020-05-21T17:38:26.000Z</time>
      </trkpt>
      <trkpt lat="48.7624" lon="7.26063">
        <ele>369.01</ele>
        <time>2020-05-21T17:38:28.000Z</time>
      </trkpt>
      <trkpt lat="48.76246" lon="7.26065">
        <ele>370.21</ele>
        <time>2020-05-21T17:38:31.000Z</time>
      </trkpt>
      <trkpt lat="48.76251" lon="7.26067">
        <ele>370.03</ele>
        <time>2020-05-21T17:38:34.000Z</time>
      </trkpt>
      <trkpt lat="48.76257" lon="7.2607">
        <ele>369.54</ele>
        <time>2020-05-21T17:38:37.000Z</time>
      </trkpt>
      <trkpt lat="48.76263" lon="7.26073">
        <ele>369.58</ele>
        <time>2020-05-21T17:38:40.000Z</time>
      </trkpt>
      <trkpt lat="48.76268" lon="7.26074">
        <ele>369.55</ele>
        <time>2020-05-21T17:38:43.000Z</time>
      </trkpt>
      <trkpt lat="48.76273" lon="7.26075">
        <ele>369.08</ele>
        <time>2020-05-21T17:38:46.000Z</time>
      </trkpt>
      <trkpt lat="48.76278" lon="7.26076">
        <ele>368.14</ele>
        <time>2020-05-21T17:38:49.000Z</time>
      </trkpt>
      <trkpt lat="48.76284" lon="7.26077">
        <ele>367.53</ele>
        <time>2020-05-21T17:38:52.000Z</time>
      </trkpt>
      <trkpt lat="48.76289" lon="7.2608">
        <ele>370.5</ele>
        <time>2020-05-21T17:38:55.000Z</time>
      </trkpt>
      <trkpt lat="48.76294" lon="7.26083">
        <ele>373.15</ele>
        <time>2020-05-21T17:38:58.000Z</time>
      </trkpt>
      <trkpt lat="48.76299" lon="7.26086">
        <ele>372.92</ele>
        <time>2020-05-21T17:39:01.000Z</time>
      </trkpt>
      <trkpt lat="48.76305" lon="7.26089">
        <ele>372.26</ele>
        <time>2020-05-21T17:39:04.000Z</time>
      </trkpt>
      <trkpt lat="48.76311" lon="7.26092">
        <ele>371.57</ele>
        <time>2020-05-21T17:39:07.000Z</time>
      </trkpt>
      <trkpt lat="48.76315" lon="7.26095">
        <ele>370.49</ele>
        <time>2020-05-21T17:39:10.000Z</time>
      </trkpt>
      <trkpt lat="48.76321" lon="7.26098">
        <ele>371.18</ele>
        <time>2020-05-21T17:39:14.000Z</time>
      </trkpt>
      <trkpt lat="48.76326" lon="7.26099">
        <ele>374.47</ele>
        <time>2020-05-21T17:39:17.000Z</time>
      </trkpt>
      <trkpt lat="48.76331" lon="7.26101">
        <ele>375.48</ele>
        <time>2020-05-21T17:39:20.000Z</time>
      </trkpt>
      <trkpt lat="48.76336" lon="7.26104">
        <ele>374.68</ele>
        <time>2020-05-21T17:39:23.000Z</time>
      </trkpt>
      <trkpt lat="48.76342" lon="7.26107">
        <ele>376.8</ele>
        <time>2020-05-21T17:39:26.000Z</time>
      </trkpt>
    </trkseg>
  </trk>
  <trk>
    <name><![CDATA[secteur Saverne - Dabo - Petite Pierre_21]]></name>
    <trkseg>
      <trkpt lat="48.75609" lon="7.26522">
        <ele>306.1</ele>
        <time>2020-08-14T11:20:09Z</time>
      </trkpt>
      <trkpt lat="48.75609" lon="7.26522">
        <ele>306.1</ele>
        <time>2020-08-14T11:20:09Z</time>
      </trkpt>
      <trkpt lat="48.75609" lon="7.26522">
        <ele>306.1</ele>
        <time>2020-08-14T11:20:09Z</time>
      </trkpt>
      <trkpt lat="48.75609" lon="7.26522">
        <ele>306.1</ele>
        <time>2020-08-14T11:20:09Z</time>
      </trkpt>
      <trkpt lat="48.75609" lon="7.26522">
        <ele>306.1</ele>
        <time>2020-08-14T11:20:09Z</time>
      </trkpt>
      <trkpt lat="48.75609" lon="7.26522">
        <ele>306.1</ele>
        <time>2020-08-14T11:20:09Z</time>
      </trkpt>
      <trkpt lat="48.75609" lon="7.26522">
        <ele>306.1</ele>
        <time>2020-08-14T11:20:09Z</time>
      </trkpt>
      <trkpt lat="48.75605" lon="7.26524">
        <ele>303.1</ele>
        <time>2020-08-14T11:20:13Z</time>
      </trkpt>
      <trkpt lat="48.756" lon="7.26528">
        <ele>301.7</ele>
        <time>2020-08-14T11:20:15Z</time>
      </trkpt>
      <trkpt lat="48.75595" lon="7.26532">
        <ele>301.2</ele>
        <time>2020-08-14T11:20:17Z</time>
      </trkpt>
      <trkpt lat="48.7559" lon="7.26539">
        <ele>300.8</ele>
        <time>2020-08-14T11:20:19Z</time>
      </trkpt>
      <trkpt lat="48.75584" lon="7.26552">
        <ele>309.4</ele>
        <time>2020-08-14T11:20:21Z</time>
      </trkpt>
      <trkpt lat="48.7558" lon="7.26568">
        <ele>309.5</ele>
        <time>2020-08-14T11:20:23Z</time>
      </trkpt>
      <trkpt lat="48.75574" lon="7.26586">
        <ele>309.3</ele>
        <time>2020-08-14T11:20:25Z</time>
      </trkpt>
      <trkpt lat="48.75568" lon="7.26604">
        <ele>307.7</ele>
        <time>2020-08-14T11:20:27Z</time>
      </trkpt>
      <trkpt lat="48.75563" lon="7.26622">
        <ele>304.6</ele>
        <time>2020-08-14T11:20:29Z</time>
      </trkpt>
      <trkpt lat="48.75559" lon="7.2664">
        <ele>302</ele>
        <time>2020-08-14T11:20:31Z</time>
      </trkpt>
      <trkpt lat="48.75554" lon="7.26657">
        <ele>300.1</ele>
        <time>2020-08-14T11:20:33Z</time>
      </trkpt>
      <trkpt lat="48.75545" lon="7.26673">
        <ele>298.3</ele>
        <time>2020-08-14T11:20:35Z</time>
      </trkpt>
      <trkpt lat="48.75534" lon="7.26686">
        <ele>296.8</ele>
        <time>2020-08-14T11:20:37Z</time>
      </trkpt>
      <trkpt lat="48.75524" lon="7.26699">
        <ele>294.8</ele>
        <time>2020-08-14T11:20:39Z</time>
      </trkpt>
      <trkpt lat="48.75512" lon="7.26707">
        <ele>292.6</ele>
        <time>2020-08-14T11:20:41Z</time>
      </trkpt>
      <trkpt lat="48.75501" lon="7.26716">
        <ele>290.8</ele>
        <time>2020-08-14T11:20:43Z</time>
      </trkpt>
      <trkpt lat="48.75489" lon="7.26725">
        <ele>290.4</ele>
        <time>2020-08-14T11:20:45Z</time>
      </trkpt>
      <trkpt lat="48.75478" lon="7.26732">
        <ele>290.4</ele>
        <time>2020-08-14T11:20:47Z</time>
      </trkpt>
      <trkpt lat="48.75467" lon="7.26741">
        <ele>289.8</ele>
        <time>2020-08-14T11:20:49Z</time>
      </trkpt>
      <trkpt lat="48.75456" lon="7.2675">
        <ele>287.5</ele>
        <time>2020-08-14T11:20:51Z</time>
      </trkpt>
      <trkpt lat="48.75445" lon="7.26761">
        <ele>285.8</ele>
        <time>2020-08-14T11:20:53Z</time>
      </trkpt>
      <trkpt lat="48.75436" lon="7.26771">
        <ele>284.6</ele>
        <time>2020-08-14T11:20:55Z</time>
      </trkpt>
      <trkpt lat="48.75425" lon="7.2678">
        <ele>284.5</ele>
        <time>2020-08-14T11:20:57Z</time>
      </trkpt>
      <trkpt lat="48.75414" lon="7.26786">
        <ele>284.1</ele>
        <time>2020-08-14T11:20:59Z</time>
      </trkpt>
      <trkpt lat="48.75403" lon="7.2679">
        <ele>283.8</ele>
        <time>2020-08-14T11:21:01Z</time>
      </trkpt>
      <trkpt lat="48.75393" lon="7.26793">
        <ele>283.7</ele>
        <time>2020-08-14T11:21:03Z</time>
      </trkpt>
      <trkpt lat="48.75382" lon="7.268">
        <ele>281.4</ele>
        <time>2020-08-14T11:21:05Z</time>
      </trkpt>
      <trkpt lat="48.75372" lon="7.26807">
        <ele>280</ele>
        <time>2020-08-14T11:21:07Z</time>
      </trkpt>
      <trkpt lat="48.75363" lon="7.26813">
        <ele>278.8</ele>
        <time>2020-08-14T11:21:09Z</time>
      </trkpt>
      <trkpt lat="48.75353" lon="7.26821">
        <ele>277.6</ele>
        <time>2020-08-14T11:21:11Z</time>
      </trkpt>
      <trkpt lat="48.75343" lon="7.26828">
        <ele>275.6</ele>
        <time>2020-08-14T11:21:13Z</time>
      </trkpt>
      <trkpt lat="48.75332" lon="7.26835">
        <ele>274.1</ele>
        <time>2020-08-14T11:21:15Z</time>
      </trkpt>
      <trkpt lat="48.75323" lon="7.26842">
        <ele>273.5</ele>
        <time>2020-08-14T11:21:17Z</time>
      </trkpt>
      <trkpt lat="48.75312" lon="7.26846">
        <ele>271.4</ele>
        <time>2020-08-14T11:21:19Z</time>
      </trkpt>
      <trkpt lat="48.75303" lon="7.26852">
        <ele>270.4</ele>
        <time>2020-08-14T11:21:21Z</time>
      </trkpt>
      <trkpt lat="48.75296" lon="7.2686">
        <ele>270.1</ele>
        <time>2020-08-14T11:21:23Z</time>
      </trkpt>
      <trkpt lat="48.75292" lon="7.26865">
        <ele>269.6</ele>
        <time>2020-08-14T11:21:25Z</time>
      </trkpt>
      <trkpt lat="48.75285" lon="7.26869">
        <ele>268.5</ele>
        <time>2020-08-14T11:21:27Z</time>
      </trkpt>
      <trkpt lat="48.75276" lon="7.26876">
        <ele>268.9</ele>
        <time>2020-08-14T11:21:29Z</time>
      </trkpt>
      <trkpt lat="48.75268" lon="7.26881">
        <ele>268.8</ele>
        <time>2020-08-14T11:21:31Z</time>
      </trkpt>
      <trkpt lat="48.75259" lon="7.26885">
        <ele>282.7</ele>
        <time>2020-08-14T11:21:33Z</time>
      </trkpt>
      <trkpt lat="48.7525" lon="7.2689">
        <ele>284.8</ele>
        <time>2020-08-14T11:21:35Z</time>
      </trkpt>
      <trkpt lat="48.75241" lon="7.26898">
        <ele>292.7</ele>
        <time>2020-08-14T11:21:37Z</time>
      </trkpt>
      <trkpt lat="48.75233" lon="7.26905">
        <ele>292.9</ele>
        <time>2020-08-14T11:21:39Z</time>
      </trkpt>
      <trkpt lat="48.75226" lon="7.2691">
        <ele>293.7</ele>
        <time>2020-08-14T11:21:41Z</time>
      </trkpt>
      <trkpt lat="48.75219" lon="7.26913">
        <ele>293.2</ele>
        <time>2020-08-14T11:21:43Z</time>
      </trkpt>
      <trkpt lat="48.75213" lon="7.26916">
        <ele>290.7</ele>
        <time>2020-08-14T11:21:45Z</time>
      </trkpt>
      <trkpt lat="48.75205" lon="7.2692">
        <ele>288.8</ele>
        <time>2020-08-14T11:21:47Z</time>
      </trkpt>
      <trkpt lat="48.75197" lon="7.26925">
        <ele>287.9</ele>
        <time>2020-08-14T11:21:49Z</time>
      </trkpt>
      <trkpt lat="48.75189" lon="7.2693">
        <ele>287.7</ele>
        <time>2020-08-14T11:21:51Z</time>
      </trkpt>
      <trkpt lat="48.7518" lon="7.26937">
        <ele>287.8</ele>
        <time>2020-08-14T11:21:53Z</time>
      </trkpt>
      <trkpt lat="48.75173" lon="7.26944">
        <ele>288.2</ele>
        <time>2020-08-14T11:21:55Z</time>
      </trkpt>
      <trkpt lat="48.75158" lon="7.26952">
        <ele>288</ele>
        <time>2020-08-14T11:21:58Z</time>
      </trkpt>
      <trkpt lat="48.75148" lon="7.26956">
        <ele>286.8</ele>
        <time>2020-08-14T11:22:00Z</time>
      </trkpt>
      <trkpt lat="48.75138" lon="7.26958">
        <ele>286.4</ele>
        <time>2020-08-14T11:22:02Z</time>
      </trkpt>
      <trkpt lat="48.75126" lon="7.26964">
        <ele>286.1</ele>
        <time>2020-08-14T11:22:04Z</time>
      </trkpt>
      <trkpt lat="48.75115" lon="7.26969">
        <ele>285.6</ele>
        <time>2020-08-14T11:22:06Z</time>
      </trkpt>
      <trkpt lat="48.75102" lon="7.26973">
        <ele>284.6</ele>
        <time>2020-08-14T11:22:08Z</time>
      </trkpt>
      <trkpt lat="48.75091" lon="7.26979">
        <ele>284</ele>
        <time>2020-08-14T11:22:10Z</time>
      </trkpt>
      <trkpt lat="48.7508" lon="7.26991">
        <ele>283.9</ele>
        <time>2020-08-14T11:22:12Z</time>
      </trkpt>
      <trkpt lat="48.75072" lon="7.27004">
        <ele>284.2</ele>
        <time>2020-08-14T11:22:14Z</time>
      </trkpt>
      <trkpt lat="48.75064" lon="7.27016">
        <ele>283.4</ele>
        <time>2020-08-14T11:22:16Z</time>
      </trkpt>
      <trkpt lat="48.75058" lon="7.27027">
        <ele>282.2</ele>
        <time>2020-08-14T11:22:18Z</time>
      </trkpt>
      <trkpt lat="48.75056" lon="7.27033">
        <ele>279.4</ele>
        <time>2020-08-14T11:22:21Z</time>
      </trkpt>
      <trkpt lat="48.75051" lon="7.27035">
        <ele>275.3</ele>
        <time>2020-08-14T11:22:26Z</time>
      </trkpt>
      <trkpt lat="48.75047" lon="7.2704">
        <ele>274.6</ele>
        <time>2020-08-14T11:23:07Z</time>
      </trkpt>
      <trkpt lat="48.75042" lon="7.27047">
        <ele>273.8</ele>
        <time>2020-08-14T11:23:10Z</time>
      </trkpt>
      <trkpt lat="48.75038" lon="7.27053">
        <ele>272.8</ele>
        <time>2020-08-14T11:23:12Z</time>
      </trkpt>
      <trkpt lat="48.75033" lon="7.27062">
        <ele>272.1</ele>
        <time>2020-08-14T11:23:14Z</time>
      </trkpt>
      <trkpt lat="48.75028" lon="7.2707">
        <ele>271.4</ele>
        <time>2020-08-14T11:23:16Z</time>
      </trkpt>
      <trkpt lat="48.75021" lon="7.27079">
        <ele>270.3</ele>
        <time>2020-08-14T11:23:18Z</time>
      </trkpt>
      <trkpt lat="48.75015" lon="7.27089">
        <ele>268.9</ele>
        <time>2020-08-14T11:23:20Z</time>
      </trkpt>
      <trkpt lat="48.75009" lon="7.271">
        <ele>267.9</ele>
        <time>2020-08-14T11:23:22Z</time>
      </trkpt>
      <trkpt lat="48.75004" lon="7.2711">
        <ele>265.3</ele>
        <time>2020-08-14T11:23:24Z</time>
      </trkpt>
      <trkpt lat="48.75" lon="7.27118">
        <ele>264.4</ele>
        <time>2020-08-14T11:23:26Z</time>
      </trkpt>
      <trkpt lat="48.74994" lon="7.27126">
        <ele>263.2</ele>
        <time>2020-08-14T11:23:28Z</time>
      </trkpt>
      <trkpt lat="48.74988" lon="7.27134">
        <ele>261.8</ele>
        <time>2020-08-14T11:23:30Z</time>
      </trkpt>
      <trkpt lat="48.74982" lon="7.27141">
        <ele>260.1</ele>
        <time>2020-08-14T11:23:32Z</time>
      </trkpt>
      <trkpt lat="48.74976" lon="7.27149">
        <ele>258</ele>
        <time>2020-08-14T11:23:34Z</time>
      </trkpt>
      <trkpt lat="48.7497" lon="7.27157">
        <ele>256.4</ele>
        <time>2020-08-14T11:23:36Z</time>
      </trkpt>
      <trkpt lat="48.74964" lon="7.27164">
        <ele>253.9</ele>
        <time>2020-08-14T11:23:38Z</time>
      </trkpt>
      <trkpt lat="48.74958" lon="7.27171">
        <ele>252.7</ele>
        <time>2020-08-14T11:23:40Z</time>
      </trkpt>
      <trkpt lat="48.74953" lon="7.27177">
        <ele>251.4</ele>
        <time>2020-08-14T11:23:42Z</time>
      </trkpt>
      <trkpt lat="48.74948" lon="7.27184">
        <ele>250.7</ele>
        <time>2020-08-14T11:23:44Z</time>
      </trkpt>
      <trkpt lat="48.74942" lon="7.2719">
        <ele>250.5</ele>
        <time>2020-08-14T11:23:46Z</time>
      </trkpt>
      <trkpt lat="48.74935" lon="7.27197">
        <ele>249.9</ele>
        <time>2020-08-14T11:23:48Z</time>
      </trkpt>
      <trkpt lat="48.74928" lon="7.27202">
        <ele>250.2</ele>
        <time>2020-08-14T11:23:50Z</time>
      </trkpt>
      <trkpt lat="48.74922" lon="7.27207">
        <ele>250.1</ele>
        <time>2020-08-14T11:23:52Z</time>
      </trkpt>
      <trkpt lat="48.74919" lon="7.27212">
        <ele>250.9</ele>
        <time>2020-08-14T11:23:57Z</time>
      </trkpt>
      <trkpt lat="48.74914" lon="7.27213">
        <ele>254.1</ele>
        <time>2020-08-14T11:24:09Z</time>
      </trkpt>
      <trkpt lat="48.74911" lon="7.27219">
        <ele>255.1</ele>
        <time>2020-08-14T11:24:11Z</time>
      </trkpt>
      <trkpt lat="48.74907" lon="7.27227">
        <ele>255.5</ele>
        <time>2020-08-14T11:24:13Z</time>
      </trkpt>
      <trkpt lat="48.74902" lon="7.27236">
        <ele>255.8</ele>
        <time>2020-08-14T11:24:15Z</time>
      </trkpt>
      <trkpt lat="48.74896" lon="7.27248">
        <ele>255.5</ele>
        <time>2020-08-14T11:24:17Z</time>
      </trkpt>
      <trkpt lat="48.74889" lon="7.27261">
        <ele>255</ele>
        <time>2020-08-14T11:24:19Z</time>
      </trkpt>
      <trkpt lat="48.74883" lon="7.27274">
        <ele>254.8</ele>
        <time>2020-08-14T11:24:21Z</time>
      </trkpt>
      <trkpt lat="48.74874" lon="7.27286">
        <ele>254</ele>
        <time>2020-08-14T11:24:23Z</time>
      </trkpt>
      <trkpt lat="48.74866" lon="7.27298">
        <ele>253.5</ele>
        <time>2020-08-14T11:24:25Z</time>
      </trkpt>
      <trkpt lat="48.74859" lon="7.2731">
        <ele>253.1</ele>
        <time>2020-08-14T11:24:27Z</time>
      </trkpt>
      <trkpt lat="48.74852" lon="7.27321">
        <ele>253</ele>
        <time>2020-08-14T11:24:29Z</time>
      </trkpt>
      <trkpt lat="48.74845" lon="7.27335">
        <ele>252.5</ele>
        <time>2020-08-14T11:24:31Z</time>
      </trkpt>
      <trkpt lat="48.74838" lon="7.2735">
        <ele>252.2</ele>
        <time>2020-08-14T11:24:33Z</time>
      </trkpt>
      <trkpt lat="48.74831" lon="7.27365">
        <ele>252.2</ele>
        <time>2020-08-14T11:24:35Z</time>
      </trkpt>
      <trkpt lat="48.74825" lon="7.27382">
        <ele>252.3</ele>
        <time>2020-08-14T11:24:37Z</time>
      </trkpt>
      <trkpt lat="48.74819" lon="7.27399">
        <ele>252.2</ele>
        <time>2020-08-14T11:24:39Z</time>
      </trkpt>
      <trkpt lat="48.74812" lon="7.27416">
        <ele>252.1</ele>
        <time>2020-08-14T11:24:41Z</time>
      </trkpt>
      <trkpt lat="48.74805" lon="7.27431">
        <ele>251</ele>
        <time>2020-08-14T11:24:43Z</time>
      </trkpt>
      <trkpt lat="48.74799" lon="7.27446">
        <ele>251.6</ele>
        <time>2020-08-14T11:24:45Z</time>
      </trkpt>
      <trkpt lat="48.74793" lon="7.27462">
        <ele>252</ele>
        <time>2020-08-14T11:24:47Z</time>
      </trkpt>
      <trkpt lat="48.74788" lon="7.27476">
        <ele>252.5</ele>
        <time>2020-08-14T11:24:49Z</time>
      </trkpt>
      <trkpt lat="48.74785" lon="7.27492">
        <ele>252.8</ele>
        <time>2020-08-14T11:24:51Z</time>
      </trkpt>
      <trkpt lat="48.7478" lon="7.27506">
        <ele>253.6</ele>
        <time>2020-08-14T11:24:53Z</time>
      </trkpt>
      <trkpt lat="48.74774" lon="7.27517">
        <ele>253.9</ele>
        <time>2020-08-14T11:24:55Z</time>
      </trkpt>
      <trkpt lat="48.74766" lon="7.27529">
        <ele>253.8</ele>
        <time>2020-08-14T11:24:57Z</time>
      </trkpt>
      <trkpt lat="48.7476" lon="7.27541">
        <ele>253.1</ele>
        <time>2020-08-14T11:24:59Z</time>
      </trkpt>
      <trkpt lat="48.74755" lon="7.27556">
        <ele>252</ele>
        <time>2020-08-14T11:25:01Z</time>
      </trkpt>
      <trkpt lat="48.7475" lon="7.2757">
        <ele>251.7</ele>
        <time>2020-08-14T11:25:03Z</time>
      </trkpt>
      <trkpt lat="48.74746" lon="7.27584">
        <ele>251.4</ele>
        <time>2020-08-14T11:25:05Z</time>
      </trkpt>
      <trkpt lat="48.74743" lon="7.27596">
        <ele>251.6</ele>
        <time>2020-08-14T11:25:07Z</time>
      </trkpt>
      <trkpt lat="48.74739" lon="7.27608">
        <ele>251.7</ele>
        <time>2020-08-14T11:25:09Z</time>
      </trkpt>
      <trkpt lat="48.74734" lon="7.27618">
        <ele>251.1</ele>
        <time>2020-08-14T11:25:11Z</time>
      </trkpt>
      <trkpt lat="48.74728" lon="7.27627">
        <ele>251.2</ele>
        <time>2020-08-14T11:25:13Z</time>
      </trkpt>
      <trkpt lat="48.74724" lon="7.27635">
        <ele>251.2</ele>
        <time>2020-08-14T11:25:15Z</time>
      </trkpt>
      <trkpt lat="48.74721" lon="7.27642">
        <ele>248.6</ele>
        <time>2020-08-14T11:25:19Z</time>
      </trkpt>
      <trkpt lat="48.74721" lon="7.27649">
        <ele>246.2</ele>
        <time>2020-08-14T11:25:31Z</time>
      </trkpt>
      <trkpt lat="48.74717" lon="7.27657">
        <ele>246.7</ele>
        <time>2020-08-14T11:25:34Z</time>
      </trkpt>
      <trkpt lat="48.74713" lon="7.27665">
        <ele>247.2</ele>
        <time>2020-08-14T11:25:36Z</time>
      </trkpt>
      <trkpt lat="48.7471" lon="7.27672">
        <ele>248.4</ele>
        <time>2020-08-14T11:25:38Z</time>
      </trkpt>
      <trkpt lat="48.74707" lon="7.27679">
        <ele>249</ele>
        <time>2020-08-14T11:25:40Z</time>
      </trkpt>
      <trkpt lat="48.74706" lon="7.27686">
        <ele>249.7</ele>
        <time>2020-08-14T11:25:42Z</time>
      </trkpt>
      <trkpt lat="48.74704" lon="7.27694">
        <ele>249.2</ele>
        <time>2020-08-14T11:25:44Z</time>
      </trkpt>
      <trkpt lat="48.74702" lon="7.27704">
        <ele>249.5</ele>
        <time>2020-08-14T11:25:46Z</time>
      </trkpt>
      <trkpt lat="48.74699" lon="7.27714">
        <ele>250.2</ele>
        <time>2020-08-14T11:25:48Z</time>
      </trkpt>
      <trkpt lat="48.74698" lon="7.27724">
        <ele>251.5</ele>
        <time>2020-08-14T11:25:50Z</time>
      </trkpt>
      <trkpt lat="48.74696" lon="7.27736">
        <ele>252.6</ele>
        <time>2020-08-14T11:25:52Z</time>
      </trkpt>
      <trkpt lat="48.74693" lon="7.27747">
        <ele>254.3</ele>
        <time>2020-08-14T11:25:54Z</time>
      </trkpt>
      <trkpt lat="48.7469" lon="7.27756">
        <ele>255.7</ele>
        <time>2020-08-14T11:25:56Z</time>
      </trkpt>
      <trkpt lat="48.74687" lon="7.27766">
        <ele>256.8</ele>
        <time>2020-08-14T11:25:58Z</time>
      </trkpt>
      <trkpt lat="48.74684" lon="7.27776">
        <ele>257.9</ele>
        <time>2020-08-14T11:26:00Z</time>
      </trkpt>
      <trkpt lat="48.74681" lon="7.27787">
        <ele>258.9</ele>
        <time>2020-08-14T11:26:02Z</time>
      </trkpt>
      <trkpt lat="48.74677" lon="7.27798">
        <ele>260.1</ele>
        <time>2020-08-14T11:26:04Z</time>
      </trkpt>
      <trkpt lat="48.74673" lon="7.2781">
        <ele>262.2</ele>
        <time>2020-08-14T11:26:06Z</time>
      </trkpt>
      <trkpt lat="48.74669" lon="7.2782">
        <ele>264.1</ele>
        <time>2020-08-14T11:26:08Z</time>
      </trkpt>
      <trkpt lat="48.74665" lon="7.27828">
        <ele>266</ele>
        <time>2020-08-14T11:26:10Z</time>
      </trkpt>
      <trkpt lat="48.74659" lon="7.27837">
        <ele>267.3</ele>
        <time>2020-08-14T11:26:12Z</time>
      </trkpt>
      <trkpt lat="48.74653" lon="7.27846">
        <ele>268.7</ele>
        <time>2020-08-14T11:26:14Z</time>
      </trkpt>
      <trkpt lat="48.74647" lon="7.27855">
        <ele>270.2</ele>
        <time>2020-08-14T11:26:16Z</time>
      </trkpt>
      <trkpt lat="48.74642" lon="7.27864">
        <ele>270.9</ele>
        <time>2020-08-14T11:26:18Z</time>
      </trkpt>
      <trkpt lat="48.74636" lon="7.27872">
        <ele>272</ele>
        <time>2020-08-14T11:26:20Z</time>
      </trkpt>
      <trkpt lat="48.74631" lon="7.27879">
        <ele>272.2</ele>
        <time>2020-08-14T11:26:22Z</time>
      </trkpt>
      <trkpt lat="48.74626" lon="7.27886">
        <ele>272</ele>
        <time>2020-08-14T11:26:24Z</time>
      </trkpt>
      <trkpt lat="48.7462" lon="7.27893">
        <ele>270.7</ele>
        <time>2020-08-14T11:26:26Z</time>
      </trkpt>
      <trkpt lat="48.74613" lon="7.27898">
        <ele>270.3</ele>
        <time>2020-08-14T11:26:28Z</time>
      </trkpt>
      <trkpt lat="48.74607" lon="7.27904">
        <ele>269.4</ele>
        <time>2020-08-14T11:26:30Z</time>
      </trkpt>
      <trkpt lat="48.74601" lon="7.27912">
        <ele>270.5</ele>
        <time>2020-08-14T11:26:32Z</time>
      </trkpt>
      <trkpt lat="48.74594" lon="7.27921">
        <ele>271.8</ele>
        <time>2020-08-14T11:26:34Z</time>
      </trkpt>
      <trkpt lat="48.74588" lon="7.27928">
        <ele>272.7</ele>
        <time>2020-08-14T11:26:36Z</time>
      </trkpt>
      <trkpt lat="48.74583" lon="7.27934">
        <ele>273.3</ele>
        <time>2020-08-14T11:26:38Z</time>
      </trkpt>
      <trkpt lat="48.74578" lon="7.27939">
        <ele>274.6</ele>
        <time>2020-08-14T11:26:40Z</time>
      </trkpt>
      <trkpt lat="48.74573" lon="7.27945">
        <ele>274.7</ele>
        <time>2020-08-14T11:26:43Z</time>
      </trkpt>
      <trkpt lat="48.74569" lon="7.27949">
        <ele>275.2</ele>
        <time>2020-08-14T11:26:48Z</time>
      </trkpt>
      <trkpt lat="48.74565" lon="7.27951">
        <ele>277.8</ele>
        <time>2020-08-14T11:27:07Z</time>
      </trkpt>
      <trkpt lat="48.74561" lon="7.27955">
        <ele>279.8</ele>
        <time>2020-08-14T11:27:20Z</time>
      </trkpt>
      <trkpt lat="48.74558" lon="7.27961">
        <ele>279.8</ele>
        <time>2020-08-14T11:27:22Z</time>
      </trkpt>
      <trkpt lat="48.7455" lon="7.27971">
        <ele>280.9</ele>
        <time>2020-08-14T11:27:25Z</time>
      </trkpt>
      <trkpt lat="48.74545" lon="7.27978">
        <ele>281.8</ele>
        <time>2020-08-14T11:27:27Z</time>
      </trkpt>
      <trkpt lat="48.7454" lon="7.27985">
        <ele>283.4</ele>
        <time>2020-08-14T11:27:29Z</time>
      </trkpt>
      <trkpt lat="48.74535" lon="7.27992">
        <ele>284.7</ele>
        <time>2020-08-14T11:27:31Z</time>
      </trkpt>
      <trkpt lat="48.74524" lon="7.28001">
        <ele>285.4</ele>
        <time>2020-08-14T11:27:34Z</time>
      </trkpt>
      <trkpt lat="48.74519" lon="7.28008">
        <ele>285.5</ele>
        <time>2020-08-14T11:27:36Z</time>
      </trkpt>
      <trkpt lat="48.74515" lon="7.28015">
        <ele>286.2</ele>
        <time>2020-08-14T11:27:38Z</time>
      </trkpt>
      <trkpt lat="48.7451" lon="7.28021">
        <ele>286.4</ele>
        <time>2020-08-14T11:27:40Z</time>
      </trkpt>
      <trkpt lat="48.74505" lon="7.28028">
        <ele>286.4</ele>
        <time>2020-08-14T11:27:42Z</time>
      </trkpt>
      <trkpt lat="48.74501" lon="7.28034">
        <ele>286.2</ele>
        <time>2020-08-14T11:27:44Z</time>
      </trkpt>
      <trkpt lat="48.74495" lon="7.28041">
        <ele>286</ele>
        <time>2020-08-14T11:27:46Z</time>
      </trkpt>
      <trkpt lat="48.74485" lon="7.28047">
        <ele>285.5</ele>
        <time>2020-08-14T11:27:48Z</time>
      </trkpt>
      <trkpt lat="48.74477" lon="7.28057">
        <ele>285.4</ele>
        <time>2020-08-14T11:27:50Z</time>
      </trkpt>
      <trkpt lat="48.74471" lon="7.28065">
        <ele>285.1</ele>
        <time>2020-08-14T11:27:52Z</time>
      </trkpt>
      <trkpt lat="48.74462" lon="7.28077">
        <ele>284.9</ele>
        <time>2020-08-14T11:27:55Z</time>
      </trkpt>
      <trkpt lat="48.74458" lon="7.28085">
        <ele>285.8</ele>
        <time>2020-08-14T11:27:57Z</time>
      </trkpt>
      <trkpt lat="48.74454" lon="7.2809">
        <ele>286.7</ele>
        <time>2020-08-14T11:27:59Z</time>
      </trkpt>
      <trkpt lat="48.74449" lon="7.28097">
        <ele>287.3</ele>
        <time>2020-08-14T11:28:02Z</time>
      </trkpt>
      <trkpt lat="48.74445" lon="7.28103">
        <ele>287.7</ele>
        <time>2020-08-14T11:28:04Z</time>
      </trkpt>
      <trkpt lat="48.7444" lon="7.2811">
        <ele>288.1</ele>
        <time>2020-08-14T11:28:06Z</time>
      </trkpt>
      <trkpt lat="48.74436" lon="7.28116">
        <ele>288.8</ele>
        <time>2020-08-14T11:28:08Z</time>
      </trkpt>
      <trkpt lat="48.74429" lon="7.28126">
        <ele>290.5</ele>
        <time>2020-08-14T11:28:11Z</time>
      </trkpt>
      <trkpt lat="48.74424" lon="7.28131">
        <ele>291.1</ele>
        <time>2020-08-14T11:28:13Z</time>
      </trkpt>
      <trkpt lat="48.74419" lon="7.28134">
        <ele>291.8</ele>
        <time>2020-08-14T11:28:15Z</time>
      </trkpt>
      <trkpt lat="48.74415" lon="7.28137">
        <ele>291.2</ele>
        <time>2020-08-14T11:28:17Z</time>
      </trkpt>
      <trkpt lat="48.74409" lon="7.28142">
        <ele>291.2</ele>
        <time>2020-08-14T11:28:19Z</time>
      </trkpt>
      <trkpt lat="48.74403" lon="7.28149">
        <ele>291</ele>
        <time>2020-08-14T11:28:21Z</time>
      </trkpt>
      <trkpt lat="48.74395" lon="7.28156">
        <ele>291</ele>
        <time>2020-08-14T11:28:23Z</time>
      </trkpt>
      <trkpt lat="48.74386" lon="7.28163">
        <ele>291.2</ele>
        <time>2020-08-14T11:28:25Z</time>
      </trkpt>
      <trkpt lat="48.74378" lon="7.28172">
        <ele>291.1</ele>
        <time>2020-08-14T11:28:27Z</time>
      </trkpt>
      <trkpt lat="48.74369" lon="7.28179">
        <ele>292.2</ele>
        <time>2020-08-14T11:28:29Z</time>
      </trkpt>
      <trkpt lat="48.74362" lon="7.28186">
        <ele>292.7</ele>
        <time>2020-08-14T11:28:31Z</time>
      </trkpt>
      <trkpt lat="48.74353" lon="7.28193">
        <ele>292.2</ele>
        <time>2020-08-14T11:28:33Z</time>
      </trkpt>
      <trkpt lat="48.74345" lon="7.28198">
        <ele>291.5</ele>
        <time>2020-08-14T11:28:35Z</time>
      </trkpt>
      <trkpt lat="48.74337" lon="7.28205">
        <ele>291.6</ele>
        <time>2020-08-14T11:28:37Z</time>
      </trkpt>
      <trkpt lat="48.7433" lon="7.28213">
        <ele>291.4</ele>
        <time>2020-08-14T11:28:39Z</time>
      </trkpt>
      <trkpt lat="48.74324" lon="7.2822">
        <ele>291.7</ele>
        <time>2020-08-14T11:28:41Z</time>
      </trkpt>
      <trkpt lat="48.74319" lon="7.28226">
        <ele>291.9</ele>
        <time>2020-08-14T11:28:43Z</time>
      </trkpt>
      <trkpt lat="48.74313" lon="7.28234">
        <ele>292.6</ele>
        <time>2020-08-14T11:28:45Z</time>
      </trkpt>
      <trkpt lat="48.74307" lon="7.28241">
        <ele>292.9</ele>
        <time>2020-08-14T11:28:47Z</time>
      </trkpt>
      <trkpt lat="48.74299" lon="7.28247">
        <ele>292.8</ele>
        <time>2020-08-14T11:28:49Z</time>
      </trkpt>
      <trkpt lat="48.74291" lon="7.28254">
        <ele>293.3</ele>
        <time>2020-08-14T11:28:51Z</time>
      </trkpt>
      <trkpt lat="48.74284" lon="7.28261">
        <ele>294</ele>
        <time>2020-08-14T11:28:53Z</time>
      </trkpt>
      <trkpt lat="48.74277" lon="7.28268">
        <ele>295.8</ele>
        <time>2020-08-14T11:28:55Z</time>
      </trkpt>
      <trkpt lat="48.74271" lon="7.28274">
        <ele>298.1</ele>
        <time>2020-08-14T11:28:57Z</time>
      </trkpt>
      <trkpt lat="48.74265" lon="7.28281">
        <ele>299.4</ele>
        <time>2020-08-14T11:28:59Z</time>
      </trkpt>
      <trkpt lat="48.74258" lon="7.28287">
        <ele>300.1</ele>
        <time>2020-08-14T11:29:01Z</time>
      </trkpt>
      <trkpt lat="48.74253" lon="7.28292">
        <ele>301.8</ele>
        <time>2020-08-14T11:29:03Z</time>
      </trkpt>
      <trkpt lat="48.74248" lon="7.28298">
        <ele>302.9</ele>
        <time>2020-08-14T11:29:05Z</time>
      </trkpt>
      <trkpt lat="48.74243" lon="7.28302">
        <ele>304.4</ele>
        <time>2020-08-14T11:29:07Z</time>
      </trkpt>
      <trkpt lat="48.74239" lon="7.28307">
        <ele>306.3</ele>
        <time>2020-08-14T11:29:09Z</time>
      </trkpt>
      <trkpt lat="48.74236" lon="7.28312">
        <ele>308.8</ele>
        <time>2020-08-14T11:29:16Z</time>
      </trkpt>
      <trkpt lat="48.74241" lon="7.28315">
        <ele>306</ele>
        <time>2020-08-14T11:29:26Z</time>
      </trkpt>
      <trkpt lat="48.74247" lon="7.28315">
        <ele>306.1</ele>
        <time>2020-08-14T11:29:29Z</time>
      </trkpt>
      <trkpt lat="48.74252" lon="7.28314">
        <ele>306.8</ele>
        <time>2020-08-14T11:29:32Z</time>
      </trkpt>
      <trkpt lat="48.74247" lon="7.2832">
        <ele>307.6</ele>
        <time>2020-08-14T11:29:47Z</time>
      </trkpt>
      <trkpt lat="48.74242" lon="7.28324">
        <ele>308.6</ele>
        <time>2020-08-14T11:29:50Z</time>
      </trkpt>
      <trkpt lat="48.74237" lon="7.28328">
        <ele>308.9</ele>
        <time>2020-08-14T11:29:52Z</time>
      </trkpt>
      <trkpt lat="48.7423" lon="7.28332">
        <ele>308.8</ele>
        <time>2020-08-14T11:29:54Z</time>
      </trkpt>
      <trkpt lat="48.74223" lon="7.28336">
        <ele>308.9</ele>
        <time>2020-08-14T11:29:56Z</time>
      </trkpt>
      <trkpt lat="48.74216" lon="7.28339">
        <ele>308.8</ele>
        <time>2020-08-14T11:29:58Z</time>
      </trkpt>
      <trkpt lat="48.7421" lon="7.28344">
        <ele>309.5</ele>
        <time>2020-08-14T11:30:00Z</time>
      </trkpt>
      <trkpt lat="48.74205" lon="7.2835">
        <ele>310.2</ele>
        <time>2020-08-14T11:30:02Z</time>
      </trkpt>
      <trkpt lat="48.74201" lon="7.28358">
        <ele>311.1</ele>
        <time>2020-08-14T11:30:04Z</time>
      </trkpt>
      <trkpt lat="48.74199" lon="7.28367">
        <ele>311.9</ele>
        <time>2020-08-14T11:30:06Z</time>
      </trkpt>
      <trkpt lat="48.74196" lon="7.28375">
        <ele>313.5</ele>
        <time>2020-08-14T11:30:08Z</time>
      </trkpt>
      <trkpt lat="48.74189" lon="7.28384">
        <ele>314.8</ele>
        <time>2020-08-14T11:30:11Z</time>
      </trkpt>
      <trkpt lat="48.74184" lon="7.28389">
        <ele>316.2</ele>
        <time>2020-08-14T11:30:13Z</time>
      </trkpt>
      <trkpt lat="48.74178" lon="7.28393">
        <ele>318.3</ele>
        <time>2020-08-14T11:30:15Z</time>
      </trkpt>
      <trkpt lat="48.74169" lon="7.28396">
        <ele>320.1</ele>
        <time>2020-08-14T11:30:17Z</time>
      </trkpt>
      <trkpt lat="48.74159" lon="7.28399">
        <ele>321.9</ele>
        <time>2020-08-14T11:30:19Z</time>
      </trkpt>
      <trkpt lat="48.7415" lon="7.28401">
        <ele>323.8</ele>
        <time>2020-08-14T11:30:21Z</time>
      </trkpt>
      <trkpt lat="48.74136" lon="7.28405">
        <ele>325.1</ele>
        <time>2020-08-14T11:30:24Z</time>
      </trkpt>
      <trkpt lat="48.74128" lon="7.28409">
        <ele>325.9</ele>
        <time>2020-08-14T11:30:26Z</time>
      </trkpt>
      <trkpt lat="48.7412" lon="7.28412">
        <ele>325.7</ele>
        <time>2020-08-14T11:30:28Z</time>
      </trkpt>
      <trkpt lat="48.74111" lon="7.28417">
        <ele>325.9</ele>
        <time>2020-08-14T11:30:30Z</time>
      </trkpt>
      <trkpt lat="48.74102" lon="7.28423">
        <ele>325.7</ele>
        <time>2020-08-14T11:30:32Z</time>
      </trkpt>
      <trkpt lat="48.74092" lon="7.28432">
        <ele>325.4</ele>
        <time>2020-08-14T11:30:34Z</time>
      </trkpt>
      <trkpt lat="48.74082" lon="7.28443">
        <ele>324.8</ele>
        <time>2020-08-14T11:30:36Z</time>
      </trkpt>
      <trkpt lat="48.74072" lon="7.28455">
        <ele>324.7</ele>
        <time>2020-08-14T11:30:38Z</time>
      </trkpt>
      <trkpt lat="48.74061" lon="7.28465">
        <ele>324.7</ele>
        <time>2020-08-14T11:30:40Z</time>
      </trkpt>
      <trkpt lat="48.74044" lon="7.28479">
        <ele>324.6</ele>
        <time>2020-08-14T11:30:43Z</time>
      </trkpt>
      <trkpt lat="48.74032" lon="7.28489">
        <ele>324.7</ele>
        <time>2020-08-14T11:30:45Z</time>
      </trkpt>
      <trkpt lat="48.74021" lon="7.28499">
        <ele>324.7</ele>
        <time>2020-08-14T11:30:47Z</time>
      </trkpt>
      <trkpt lat="48.7401" lon="7.28511">
        <ele>325.3</ele>
        <time>2020-08-14T11:30:49Z</time>
      </trkpt>
      <trkpt lat="48.74001" lon="7.28522">
        <ele>325.3</ele>
        <time>2020-08-14T11:30:51Z</time>
      </trkpt>
      <trkpt lat="48.7399" lon="7.28537">
        <ele>325.3</ele>
        <time>2020-08-14T11:30:54Z</time>
      </trkpt>
      <trkpt lat="48.73981" lon="7.2855">
        <ele>326.1</ele>
        <time>2020-08-14T11:30:57Z</time>
      </trkpt>
      <trkpt lat="48.73977" lon="7.28555">
        <ele>327.1</ele>
        <time>2020-08-14T11:31:00Z</time>
      </trkpt>
      <trkpt lat="48.73978" lon="7.28563">
        <ele>327.4</ele>
        <time>2020-08-14T11:31:36Z</time>
      </trkpt>
      <trkpt lat="48.7397" lon="7.28564">
        <ele>327.1</ele>
        <time>2020-08-14T11:31:39Z</time>
      </trkpt>
      <trkpt lat="48.73963" lon="7.28561">
        <ele>327.1</ele>
        <time>2020-08-14T11:31:41Z</time>
      </trkpt>
      <trkpt lat="48.73953" lon="7.28558">
        <ele>326.7</ele>
        <time>2020-08-14T11:31:43Z</time>
      </trkpt>
      <trkpt lat="48.73935" lon="7.28554">
        <ele>324.5</ele>
        <time>2020-08-14T11:31:45Z</time>
      </trkpt>
      <trkpt lat="48.73928" lon="7.28554">
        <ele>323.8</ele>
        <time>2020-08-14T11:31:47Z</time>
      </trkpt>
      <trkpt lat="48.73922" lon="7.28556">
        <ele>323.4</ele>
        <time>2020-08-14T11:31:49Z</time>
      </trkpt>
      <trkpt lat="48.73915" lon="7.28559">
        <ele>323.5</ele>
        <time>2020-08-14T11:31:51Z</time>
      </trkpt>
      <trkpt lat="48.73909" lon="7.28559">
        <ele>323.5</ele>
        <time>2020-08-14T11:31:53Z</time>
      </trkpt>
      <trkpt lat="48.73904" lon="7.28558">
        <ele>324</ele>
        <time>2020-08-14T11:32:07Z</time>
      </trkpt>
      <trkpt lat="48.7389" lon="7.28548">
        <ele>324.7</ele>
        <time>2020-08-14T11:32:09Z</time>
      </trkpt>
      <trkpt lat="48.73878" lon="7.28548">
        <ele>325</ele>
        <time>2020-08-14T11:32:11Z</time>
      </trkpt>
      <trkpt lat="48.73869" lon="7.28552">
        <ele>324.5</ele>
        <time>2020-08-14T11:32:17Z</time>
      </trkpt>
      <trkpt lat="48.73861" lon="7.28562">
        <ele>323.1</ele>
        <time>2020-08-14T11:32:19Z</time>
      </trkpt>
      <trkpt lat="48.73851" lon="7.2856">
        <ele>321.5</ele>
        <time>2020-08-14T11:32:22Z</time>
      </trkpt>
      <trkpt lat="48.73844" lon="7.28558">
        <ele>320.3</ele>
        <time>2020-08-14T11:32:24Z</time>
      </trkpt>
      <trkpt lat="48.73833" lon="7.2856">
        <ele>317.8</ele>
        <time>2020-08-14T11:32:27Z</time>
      </trkpt>
      <trkpt lat="48.73826" lon="7.28564">
        <ele>316.5</ele>
        <time>2020-08-14T11:32:29Z</time>
      </trkpt>
      <trkpt lat="48.73818" lon="7.28565">
        <ele>315.2</ele>
        <time>2020-08-14T11:32:31Z</time>
      </trkpt>
      <trkpt lat="48.73811" lon="7.28566">
        <ele>313.1</ele>
        <time>2020-08-14T11:32:33Z</time>
      </trkpt>
      <trkpt lat="48.73803" lon="7.28567">
        <ele>311.6</ele>
        <time>2020-08-14T11:32:35Z</time>
      </trkpt>
      <trkpt lat="48.73797" lon="7.28566">
        <ele>310.5</ele>
        <time>2020-08-14T11:32:37Z</time>
      </trkpt>
      <trkpt lat="48.73789" lon="7.28564">
        <ele>309.6</ele>
        <time>2020-08-14T11:32:40Z</time>
      </trkpt>
      <trkpt lat="48.73784" lon="7.28561">
        <ele>307.7</ele>
        <time>2020-08-14T11:32:46Z</time>
      </trkpt>
      <trkpt lat="48.73778" lon="7.28555">
        <ele>307.6</ele>
        <time>2020-08-14T11:32:49Z</time>
      </trkpt>
      <trkpt lat="48.73775" lon="7.28549">
        <ele>306.5</ele>
        <time>2020-08-14T11:32:51Z</time>
      </trkpt>
      <trkpt lat="48.73771" lon="7.28545">
        <ele>306</ele>
        <time>2020-08-14T11:32:53Z</time>
      </trkpt>
      <trkpt lat="48.73766" lon="7.2854">
        <ele>305.5</ele>
        <time>2020-08-14T11:32:58Z</time>
      </trkpt>
      <trkpt lat="48.73746" lon="7.28535">
        <ele>304</ele>
        <time>2020-08-14T11:33:00Z</time>
      </trkpt>
      <trkpt lat="48.73728" lon="7.28536">
        <ele>302.3</ele>
        <time>2020-08-14T11:33:03Z</time>
      </trkpt>
      <trkpt lat="48.73718" lon="7.28538">
        <ele>301</ele>
        <time>2020-08-14T11:33:05Z</time>
      </trkpt>
      <trkpt lat="48.73708" lon="7.28542">
        <ele>300.3</ele>
        <time>2020-08-14T11:33:08Z</time>
      </trkpt>
      <trkpt lat="48.73707" lon="7.2855">
        <ele>299.8</ele>
        <time>2020-08-14T11:33:19Z</time>
      </trkpt>
      <trkpt lat="48.73708" lon="7.2856">
        <ele>298.6</ele>
        <time>2020-08-14T11:33:22Z</time>
      </trkpt>
      <trkpt lat="48.7371" lon="7.28568">
        <ele>297.9</ele>
        <time>2020-08-14T11:33:24Z</time>
      </trkpt>
      <trkpt lat="48.73712" lon="7.28574">
        <ele>297.1</ele>
        <time>2020-08-14T11:33:26Z</time>
      </trkpt>
      <trkpt lat="48.73715" lon="7.28581">
        <ele>296.3</ele>
        <time>2020-08-14T11:33:28Z</time>
      </trkpt>
      <trkpt lat="48.73716" lon="7.2859">
        <ele>296</ele>
        <time>2020-08-14T11:33:30Z</time>
      </trkpt>
      <trkpt lat="48.73715" lon="7.28597">
        <ele>295.3</ele>
        <time>2020-08-14T11:33:32Z</time>
      </trkpt>
      <trkpt lat="48.73713" lon="7.28604">
        <ele>294.3</ele>
        <time>2020-08-14T11:33:34Z</time>
      </trkpt>
      <trkpt lat="48.7371" lon="7.2861">
        <ele>292.4</ele>
        <time>2020-08-14T11:33:36Z</time>
      </trkpt>
      <trkpt lat="48.73704" lon="7.28615">
        <ele>290.3</ele>
        <time>2020-08-14T11:33:38Z</time>
      </trkpt>
      <trkpt lat="48.73694" lon="7.28616">
        <ele>289.2</ele>
        <time>2020-08-14T11:33:40Z</time>
      </trkpt>
      <trkpt lat="48.73683" lon="7.28619">
        <ele>287.4</ele>
        <time>2020-08-14T11:33:42Z</time>
      </trkpt>
      <trkpt lat="48.73673" lon="7.2862">
        <ele>285.9</ele>
        <time>2020-08-14T11:33:44Z</time>
      </trkpt>
      <trkpt lat="48.73666" lon="7.28618">
        <ele>284</ele>
        <time>2020-08-14T11:33:46Z</time>
      </trkpt>
      <trkpt lat="48.73658" lon="7.28617">
        <ele>282.3</ele>
        <time>2020-08-14T11:33:48Z</time>
      </trkpt>
      <trkpt lat="48.73653" lon="7.28617">
        <ele>281.6</ele>
        <time>2020-08-14T11:33:50Z</time>
      </trkpt>
      <trkpt lat="48.73647" lon="7.28616">
        <ele>280.5</ele>
        <time>2020-08-14T11:33:52Z</time>
      </trkpt>
      <trkpt lat="48.73641" lon="7.28615">
        <ele>279.2</ele>
        <time>2020-08-14T11:33:54Z</time>
      </trkpt>
      <trkpt lat="48.73633" lon="7.28615">
        <ele>277.8</ele>
        <time>2020-08-14T11:33:56Z</time>
      </trkpt>
      <trkpt lat="48.73625" lon="7.28616">
        <ele>276.7</ele>
        <time>2020-08-14T11:33:58Z</time>
      </trkpt>
      <trkpt lat="48.73617" lon="7.28618">
        <ele>275.5</ele>
        <time>2020-08-14T11:34:00Z</time>
      </trkpt>
      <trkpt lat="48.73599" lon="7.28622">
        <ele>273.6</ele>
        <time>2020-08-14T11:34:03Z</time>
      </trkpt>
      <trkpt lat="48.73587" lon="7.28625">
        <ele>272.6</ele>
        <time>2020-08-14T11:34:05Z</time>
      </trkpt>
      <trkpt lat="48.73574" lon="7.28628">
        <ele>271.6</ele>
        <time>2020-08-14T11:34:11Z</time>
      </trkpt>
      <trkpt lat="48.73552" lon="7.28635">
        <ele>268.9</ele>
        <time>2020-08-14T11:34:13Z</time>
      </trkpt>
      <trkpt lat="48.73541" lon="7.28639">
        <ele>267.5</ele>
        <time>2020-08-14T11:34:15Z</time>
      </trkpt>
      <trkpt lat="48.7353" lon="7.28644">
        <ele>267.1</ele>
        <time>2020-08-14T11:34:21Z</time>
      </trkpt>
      <trkpt lat="48.73512" lon="7.2865">
        <ele>266.4</ele>
        <time>2020-08-14T11:34:23Z</time>
      </trkpt>
      <trkpt lat="48.73505" lon="7.28648">
        <ele>266.6</ele>
        <time>2020-08-14T11:34:25Z</time>
      </trkpt>
      <trkpt lat="48.73497" lon="7.2865">
        <ele>266</ele>
        <time>2020-08-14T11:34:28Z</time>
      </trkpt>
      <trkpt lat="48.73492" lon="7.28653">
        <ele>264.8</ele>
        <time>2020-08-14T11:34:31Z</time>
      </trkpt>
      <trkpt lat="48.73485" lon="7.28653">
        <ele>263.3</ele>
        <time>2020-08-14T11:34:33Z</time>
      </trkpt>
      <trkpt lat="48.73477" lon="7.28653">
        <ele>262.4</ele>
        <time>2020-08-14T11:34:35Z</time>
      </trkpt>
      <trkpt lat="48.73468" lon="7.28652">
        <ele>261.3</ele>
        <time>2020-08-14T11:34:37Z</time>
      </trkpt>
      <trkpt lat="48.73455" lon="7.28648">
        <ele>259.8</ele>
        <time>2020-08-14T11:34:40Z</time>
      </trkpt>
      <trkpt lat="48.73447" lon="7.28645">
        <ele>259</ele>
        <time>2020-08-14T11:34:42Z</time>
      </trkpt>
      <trkpt lat="48.7344" lon="7.28644">
        <ele>257.4</ele>
        <time>2020-08-14T11:34:44Z</time>
      </trkpt>
      <trkpt lat="48.73432" lon="7.28645">
        <ele>256.2</ele>
        <time>2020-08-14T11:34:46Z</time>
      </trkpt>
      <trkpt lat="48.73421" lon="7.28648">
        <ele>254.7</ele>
        <time>2020-08-14T11:34:52Z</time>
      </trkpt>
      <trkpt lat="48.73403" lon="7.28655">
        <ele>253.5</ele>
        <time>2020-08-14T11:34:54Z</time>
      </trkpt>
      <trkpt lat="48.73393" lon="7.28658">
        <ele>252.5</ele>
        <time>2020-08-14T11:34:56Z</time>
      </trkpt>
      <trkpt lat="48.73385" lon="7.28659">
        <ele>251.6</ele>
        <time>2020-08-14T11:34:58Z</time>
      </trkpt>
      <trkpt lat="48.73378" lon="7.2866">
        <ele>250.2</ele>
        <time>2020-08-14T11:35:00Z</time>
      </trkpt>
      <trkpt lat="48.73373" lon="7.28661">
        <ele>249.1</ele>
        <time>2020-08-14T11:35:02Z</time>
      </trkpt>
      <trkpt lat="48.73365" lon="7.28659">
        <ele>246.7</ele>
        <time>2020-08-14T11:35:05Z</time>
      </trkpt>
      <trkpt lat="48.73357" lon="7.28656">
        <ele>244.4</ele>
        <time>2020-08-14T11:35:08Z</time>
      </trkpt>
      <trkpt lat="48.73348" lon="7.28655">
        <ele>241.1</ele>
        <time>2020-08-14T11:35:11Z</time>
      </trkpt>
      <trkpt lat="48.73342" lon="7.28656">
        <ele>239.2</ele>
        <time>2020-08-14T11:35:13Z</time>
      </trkpt>
      <trkpt lat="48.73332" lon="7.2866">
        <ele>237.5</ele>
        <time>2020-08-14T11:35:16Z</time>
      </trkpt>
      <trkpt lat="48.73324" lon="7.2866">
        <ele>235.4</ele>
        <time>2020-08-14T11:35:18Z</time>
      </trkpt>
      <trkpt lat="48.73315" lon="7.28657">
        <ele>233.1</ele>
        <time>2020-08-14T11:35:20Z</time>
      </trkpt>
      <trkpt lat="48.73303" lon="7.28656">
        <ele>231.4</ele>
        <time>2020-08-14T11:35:23Z</time>
      </trkpt>
      <trkpt lat="48.73295" lon="7.28657">
        <ele>230.5</ele>
        <time>2020-08-14T11:35:25Z</time>
      </trkpt>
      <trkpt lat="48.73288" lon="7.28657">
        <ele>229.6</ele>
        <time>2020-08-14T11:35:30Z</time>
      </trkpt>
      <trkpt lat="48.73281" lon="7.2866">
        <ele>229.1</ele>
        <time>2020-08-14T11:35:32Z</time>
      </trkpt>
      <trkpt lat="48.73268" lon="7.28663">
        <ele>227.8</ele>
        <time>2020-08-14T11:35:35Z</time>
      </trkpt>
      <trkpt lat="48.73263" lon="7.28665">
        <ele>227</ele>
        <time>2020-08-14T11:35:37Z</time>
      </trkpt>
      <trkpt lat="48.73269" lon="7.28666">
        <ele>224.7</ele>
        <time>2020-08-14T11:35:52Z</time>
      </trkpt>
      <trkpt lat="48.73274" lon="7.2867">
        <ele>225</ele>
        <time>2020-08-14T11:35:57Z</time>
      </trkpt>
      <trkpt lat="48.73278" lon="7.28665">
        <ele>221.2</ele>
        <time>2020-08-14T11:36:07Z</time>
      </trkpt>
      <trkpt lat="48.73282" lon="7.28668">
        <ele>219.7</ele>
        <time>2020-08-14T11:36:11Z</time>
      </trkpt>
      <trkpt lat="48.73286" lon="7.2867">
        <ele>219.4</ele>
        <time>2020-08-14T11:36:16Z</time>
      </trkpt>
      <trkpt lat="48.73292" lon="7.28671">
        <ele>221.8</ele>
        <time>2020-08-14T11:36:32Z</time>
      </trkpt>
      <trkpt lat="48.73292" lon="7.28678">
        <ele>221.8</ele>
        <time>2020-08-14T11:36:37Z</time>
      </trkpt>
      <trkpt lat="48.73292" lon="7.28685">
        <ele>221.1</ele>
        <time>2020-08-14T11:36:41Z</time>
      </trkpt>
      <trkpt lat="48.73297" lon="7.28685">
        <ele>223.4</ele>
        <time>2020-08-14T11:36:50Z</time>
      </trkpt>
      <trkpt lat="48.73302" lon="7.28687">
        <ele>224.8</ele>
        <time>2020-08-14T11:36:53Z</time>
      </trkpt>
      <trkpt lat="48.73307" lon="7.28689">
        <ele>226.5</ele>
        <time>2020-08-14T11:36:56Z</time>
      </trkpt>
      <trkpt lat="48.73314" lon="7.28693">
        <ele>227.4</ele>
        <time>2020-08-14T11:36:59Z</time>
      </trkpt>
      <trkpt lat="48.73324" lon="7.28696">
        <ele>227.9</ele>
        <time>2020-08-14T11:37:01Z</time>
      </trkpt>
      <trkpt lat="48.73332" lon="7.28695">
        <ele>225.9</ele>
        <time>2020-08-14T11:37:03Z</time>
      </trkpt>
      <trkpt lat="48.73342" lon="7.28698">
        <ele>226.6</ele>
        <time>2020-08-14T11:37:05Z</time>
      </trkpt>
      <trkpt lat="48.73351" lon="7.28703">
        <ele>226.6</ele>
        <time>2020-08-14T11:37:07Z</time>
      </trkpt>
      <trkpt lat="48.73361" lon="7.28706">
        <ele>226</ele>
        <time>2020-08-14T11:37:09Z</time>
      </trkpt>
      <trkpt lat="48.73367" lon="7.28712">
        <ele>224.7</ele>
        <time>2020-08-14T11:37:11Z</time>
      </trkpt>
      <trkpt lat="48.73373" lon="7.28721">
        <ele>225.1</ele>
        <time>2020-08-14T11:37:13Z</time>
      </trkpt>
      <trkpt lat="48.73375" lon="7.28734">
        <ele>224.9</ele>
        <time>2020-08-14T11:37:15Z</time>
      </trkpt>
      <trkpt lat="48.73372" lon="7.28745">
        <ele>225</ele>
        <time>2020-08-14T11:37:17Z</time>
      </trkpt>
      <trkpt lat="48.73367" lon="7.28752">
        <ele>224.8</ele>
        <time>2020-08-14T11:37:19Z</time>
      </trkpt>
      <trkpt lat="48.7336" lon="7.28756">
        <ele>225.4</ele>
        <time>2020-08-14T11:37:21Z</time>
      </trkpt>
      <trkpt lat="48.73353" lon="7.28758">
        <ele>225.1</ele>
        <time>2020-08-14T11:37:23Z</time>
      </trkpt>
      <trkpt lat="48.73345" lon="7.28756">
        <ele>225.9</ele>
        <time>2020-08-14T11:37:25Z</time>
      </trkpt>
      <trkpt lat="48.73337" lon="7.28756">
        <ele>226</ele>
        <time>2020-08-14T11:37:27Z</time>
      </trkpt>
      <trkpt lat="48.73327" lon="7.28757">
        <ele>226.4</ele>
        <time>2020-08-14T11:37:29Z</time>
      </trkpt>
      <trkpt lat="48.73313" lon="7.28755">
        <ele>227.4</ele>
        <time>2020-08-14T11:37:32Z</time>
      </trkpt>
      <trkpt lat="48.73303" lon="7.28752">
        <ele>227.6</ele>
        <time>2020-08-14T11:37:34Z</time>
      </trkpt>
      <trkpt lat="48.73295" lon="7.28754">
        <ele>227.5</ele>
        <time>2020-08-14T11:37:36Z</time>
      </trkpt>
      <trkpt lat="48.73285" lon="7.28753">
        <ele>227.4</ele>
        <time>2020-08-14T11:37:38Z</time>
      </trkpt>
      <trkpt lat="48.73276" lon="7.28753">
        <ele>228.2</ele>
        <time>2020-08-14T11:37:40Z</time>
      </trkpt>
      <trkpt lat="48.73265" lon="7.28754">
        <ele>227.9</ele>
        <time>2020-08-14T11:37:42Z</time>
      </trkpt>
      <trkpt lat="48.7325" lon="7.28752">
        <ele>229.3</ele>
        <time>2020-08-14T11:37:45Z</time>
      </trkpt>
      <trkpt lat="48.73241" lon="7.28747">
        <ele>230</ele>
        <time>2020-08-14T11:37:47Z</time>
      </trkpt>
      <trkpt lat="48.73231" lon="7.28747">
        <ele>230.3</ele>
        <time>2020-08-14T11:37:49Z</time>
      </trkpt>
      <trkpt lat="48.73222" lon="7.28746">
        <ele>231.6</ele>
        <time>2020-08-14T11:37:51Z</time>
      </trkpt>
      <trkpt lat="48.73213" lon="7.28749">
        <ele>230.6</ele>
        <time>2020-08-14T11:37:53Z</time>
      </trkpt>
      <trkpt lat="48.73204" lon="7.28756">
        <ele>229.6</ele>
        <time>2020-08-14T11:37:55Z</time>
      </trkpt>
      <trkpt lat="48.73197" lon="7.2877">
        <ele>229.7</ele>
        <time>2020-08-14T11:37:57Z</time>
      </trkpt>
      <trkpt lat="48.73189" lon="7.28792">
        <ele>229</ele>
        <time>2020-08-14T11:38:00Z</time>
      </trkpt>
      <trkpt lat="48.73183" lon="7.28808">
        <ele>227.7</ele>
        <time>2020-08-14T11:38:02Z</time>
      </trkpt>
      <trkpt lat="48.7318" lon="7.28824">
        <ele>226.9</ele>
        <time>2020-08-14T11:38:04Z</time>
      </trkpt>
      <trkpt lat="48.73174" lon="7.28839">
        <ele>225.5</ele>
        <time>2020-08-14T11:38:06Z</time>
      </trkpt>
      <trkpt lat="48.73168" lon="7.28856">
        <ele>224.1</ele>
        <time>2020-08-14T11:38:08Z</time>
      </trkpt>
      <trkpt lat="48.73166" lon="7.28875">
        <ele>221.8</ele>
        <time>2020-08-14T11:38:10Z</time>
      </trkpt>
      <trkpt lat="48.73162" lon="7.28895">
        <ele>219.9</ele>
        <time>2020-08-14T11:38:12Z</time>
      </trkpt>
      <trkpt lat="48.73158" lon="7.28913">
        <ele>217</ele>
        <time>2020-08-14T11:38:14Z</time>
      </trkpt>
      <trkpt lat="48.73154" lon="7.28931">
        <ele>215.7</ele>
        <time>2020-08-14T11:38:16Z</time>
      </trkpt>
      <trkpt lat="48.73152" lon="7.2895">
        <ele>215.3</ele>
        <time>2020-08-14T11:38:18Z</time>
      </trkpt>
      <trkpt lat="48.73149" lon="7.28968">
        <ele>217.9</ele>
        <time>2020-08-14T11:38:20Z</time>
      </trkpt>
      <trkpt lat="48.73146" lon="7.28987">
        <ele>217.3</ele>
        <time>2020-08-14T11:38:22Z</time>
      </trkpt>
      <trkpt lat="48.73143" lon="7.29002">
        <ele>218</ele>
        <time>2020-08-14T11:38:24Z</time>
      </trkpt>
      <trkpt lat="48.73139" lon="7.2902">
        <ele>218.1</ele>
        <time>2020-08-14T11:38:26Z</time>
      </trkpt>
      <trkpt lat="48.73136" lon="7.29038">
        <ele>218.5</ele>
        <time>2020-08-14T11:38:28Z</time>
      </trkpt>
      <trkpt lat="48.73132" lon="7.29055">
        <ele>218.5</ele>
        <time>2020-08-14T11:38:30Z</time>
      </trkpt>
      <trkpt lat="48.73126" lon="7.29072">
        <ele>218.3</ele>
        <time>2020-08-14T11:38:32Z</time>
      </trkpt>
      <trkpt lat="48.73122" lon="7.2909">
        <ele>218.4</ele>
        <time>2020-08-14T11:38:34Z</time>
      </trkpt>
      <trkpt lat="48.73118" lon="7.29108">
        <ele>218.5</ele>
        <time>2020-08-14T11:38:36Z</time>
      </trkpt>
      <trkpt lat="48.73114" lon="7.29127">
        <ele>219</ele>
        <time>2020-08-14T11:38:38Z</time>
      </trkpt>
      <trkpt lat="48.7311" lon="7.29146">
        <ele>219.8</ele>
        <time>2020-08-14T11:38:40Z</time>
      </trkpt>
      <trkpt lat="48.73106" lon="7.29164">
        <ele>220.8</ele>
        <time>2020-08-14T11:38:42Z</time>
      </trkpt>
      <trkpt lat="48.73101" lon="7.2918">
        <ele>221.1</ele>
        <time>2020-08-14T11:38:44Z</time>
      </trkpt>
      <trkpt lat="48.73096" lon="7.29198">
        <ele>220.9</ele>
        <time>2020-08-14T11:38:46Z</time>
      </trkpt>
      <trkpt lat="48.73091" lon="7.29216">
        <ele>221.3</ele>
        <time>2020-08-14T11:38:48Z</time>
      </trkpt>
      <trkpt lat="48.73089" lon="7.29226">
        <ele>220.8</ele>
        <time>2020-08-14T11:38:50Z</time>
      </trkpt>
      <trkpt lat="48.73087" lon="7.29233">
        <ele>220.7</ele>
        <time>2020-08-14T11:38:52Z</time>
      </trkpt>
      <trkpt lat="48.73084" lon="7.29245">
        <ele>220.1</ele>
        <time>2020-08-14T11:38:55Z</time>
      </trkpt>
      <trkpt lat="48.73083" lon="7.29255">
        <ele>219.4</ele>
        <time>2020-08-14T11:38:57Z</time>
      </trkpt>
      <trkpt lat="48.73081" lon="7.29268">
        <ele>219.2</ele>
        <time>2020-08-14T11:39:00Z</time>
      </trkpt>
      <trkpt lat="48.73079" lon="7.29277">
        <ele>219.4</ele>
        <time>2020-08-14T11:39:02Z</time>
      </trkpt>
      <trkpt lat="48.73075" lon="7.29291">
        <ele>219.4</ele>
        <time>2020-08-14T11:39:04Z</time>
      </trkpt>
      <trkpt lat="48.7307" lon="7.29305">
        <ele>219.4</ele>
        <time>2020-08-14T11:39:06Z</time>
      </trkpt>
      <trkpt lat="48.73065" lon="7.29321">
        <ele>218.9</ele>
        <time>2020-08-14T11:39:08Z</time>
      </trkpt>
      <trkpt lat="48.7306" lon="7.29334">
        <ele>218.2</ele>
        <time>2020-08-14T11:39:10Z</time>
      </trkpt>
      <trkpt lat="48.73055" lon="7.29348">
        <ele>218</ele>
        <time>2020-08-14T11:39:12Z</time>
      </trkpt>
      <trkpt lat="48.7305" lon="7.29362">
        <ele>217.8</ele>
        <time>2020-08-14T11:39:14Z</time>
      </trkpt>
      <trkpt lat="48.73047" lon="7.29376">
        <ele>217.2</ele>
        <time>2020-08-14T11:39:16Z</time>
      </trkpt>
      <trkpt lat="48.73046" lon="7.29393">
        <ele>217</ele>
        <time>2020-08-14T11:39:18Z</time>
      </trkpt>
      <trkpt lat="48.73041" lon="7.29407">
        <ele>217.8</ele>
        <time>2020-08-14T11:39:20Z</time>
      </trkpt>
      <trkpt lat="48.73035" lon="7.29422">
        <ele>217.6</ele>
        <time>2020-08-14T11:39:22Z</time>
      </trkpt>
      <trkpt lat="48.7303" lon="7.29439">
        <ele>216.4</ele>
        <time>2020-08-14T11:39:24Z</time>
      </trkpt>
      <trkpt lat="48.73027" lon="7.29451">
        <ele>216.7</ele>
        <time>2020-08-14T11:39:26Z</time>
      </trkpt>
      <trkpt lat="48.73024" lon="7.29463">
        <ele>216.2</ele>
        <time>2020-08-14T11:39:28Z</time>
      </trkpt>
      <trkpt lat="48.73021" lon="7.29479">
        <ele>215.5</ele>
        <time>2020-08-14T11:39:30Z</time>
      </trkpt>
      <trkpt lat="48.7302" lon="7.29491">
        <ele>214.4</ele>
        <time>2020-08-14T11:39:32Z</time>
      </trkpt>
      <trkpt lat="48.73017" lon="7.29503">
        <ele>213.4</ele>
        <time>2020-08-14T11:39:34Z</time>
      </trkpt>
      <trkpt lat="48.73013" lon="7.29518">
        <ele>212.6</ele>
        <time>2020-08-14T11:39:36Z</time>
      </trkpt>
      <trkpt lat="48.73007" lon="7.29534">
        <ele>212.6</ele>
        <time>2020-08-14T11:39:38Z</time>
      </trkpt>
      <trkpt lat="48.73002" lon="7.29552">
        <ele>212.3</ele>
        <time>2020-08-14T11:39:40Z</time>
      </trkpt>
      <trkpt lat="48.72996" lon="7.29568">
        <ele>213.7</ele>
        <time>2020-08-14T11:39:42Z</time>
      </trkpt>
      <trkpt lat="48.72991" lon="7.29587">
        <ele>213.9</ele>
        <time>2020-08-14T11:39:44Z</time>
      </trkpt>
      <trkpt lat="48.72986" lon="7.29605">
        <ele>213.5</ele>
        <time>2020-08-14T11:39:46Z</time>
      </trkpt>
      <trkpt lat="48.72981" lon="7.29624">
        <ele>214.3</ele>
        <time>2020-08-14T11:39:48Z</time>
      </trkpt>
      <trkpt lat="48.72975" lon="7.29654">
        <ele>212.7</ele>
        <time>2020-08-14T11:39:51Z</time>
      </trkpt>
      <trkpt lat="48.72972" lon="7.29675">
        <ele>211.7</ele>
        <time>2020-08-14T11:39:53Z</time>
      </trkpt>
      <trkpt lat="48.72967" lon="7.29696">
        <ele>211.5</ele>
        <time>2020-08-14T11:39:55Z</time>
      </trkpt>
      <trkpt lat="48.72961" lon="7.29719">
        <ele>210.4</ele>
        <time>2020-08-14T11:39:57Z</time>
      </trkpt>
      <trkpt lat="48.72954" lon="7.29739">
        <ele>209.7</ele>
        <time>2020-08-14T11:39:59Z</time>
      </trkpt>
      <trkpt lat="48.72948" lon="7.29761">
        <ele>209.2</ele>
        <time>2020-08-14T11:40:01Z</time>
      </trkpt>
      <trkpt lat="48.72942" lon="7.29784">
        <ele>209.5</ele>
        <time>2020-08-14T11:40:03Z</time>
      </trkpt>
      <trkpt lat="48.72937" lon="7.29807">
        <ele>210</ele>
        <time>2020-08-14T11:40:05Z</time>
      </trkpt>
      <trkpt lat="48.72931" lon="7.29829">
        <ele>210.8</ele>
        <time>2020-08-14T11:40:07Z</time>
      </trkpt>
      <trkpt lat="48.72924" lon="7.29849">
        <ele>211.9</ele>
        <time>2020-08-14T11:40:09Z</time>
      </trkpt>
      <trkpt lat="48.72915" lon="7.29869">
        <ele>213.2</ele>
        <time>2020-08-14T11:40:11Z</time>
      </trkpt>
      <trkpt lat="48.72904" lon="7.29886">
        <ele>214.5</ele>
        <time>2020-08-14T11:40:13Z</time>
      </trkpt>
      <trkpt lat="48.72893" lon="7.29903">
        <ele>215.7</ele>
        <time>2020-08-14T11:40:15Z</time>
      </trkpt>
      <trkpt lat="48.72883" lon="7.29921">
        <ele>217.1</ele>
        <time>2020-08-14T11:40:17Z</time>
      </trkpt>
      <trkpt lat="48.72873" lon="7.29936">
        <ele>218.5</ele>
        <time>2020-08-14T11:40:19Z</time>
      </trkpt>
      <trkpt lat="48.72863" lon="7.29947">
        <ele>220.1</ele>
        <time>2020-08-14T11:40:21Z</time>
      </trkpt>
      <trkpt lat="48.72855" lon="7.29957">
        <ele>221.1</ele>
        <time>2020-08-14T11:40:23Z</time>
      </trkpt>
      <trkpt lat="48.72847" lon="7.29966">
        <ele>222.1</ele>
        <time>2020-08-14T11:40:25Z</time>
      </trkpt>
      <trkpt lat="48.7284" lon="7.29975">
        <ele>222.4</ele>
        <time>2020-08-14T11:40:27Z</time>
      </trkpt>
      <trkpt lat="48.72833" lon="7.29981">
        <ele>222.6</ele>
        <time>2020-08-14T11:40:29Z</time>
      </trkpt>
      <trkpt lat="48.72823" lon="7.29983">
        <ele>222.5</ele>
        <time>2020-08-14T11:40:31Z</time>
      </trkpt>
      <trkpt lat="48.72812" lon="7.29983">
        <ele>222.7</ele>
        <time>2020-08-14T11:40:33Z</time>
      </trkpt>
      <trkpt lat="48.72802" lon="7.29983">
        <ele>222.7</ele>
        <time>2020-08-14T11:40:35Z</time>
      </trkpt>
      <trkpt lat="48.72793" lon="7.29985">
        <ele>223.5</ele>
        <time>2020-08-14T11:40:37Z</time>
      </trkpt>
      <trkpt lat="48.72785" lon="7.29987">
        <ele>223.7</ele>
        <time>2020-08-14T11:40:39Z</time>
      </trkpt>
      <trkpt lat="48.72777" lon="7.2999">
        <ele>223.7</ele>
        <time>2020-08-14T11:40:41Z</time>
      </trkpt>
      <trkpt lat="48.72771" lon="7.29998">
        <ele>224</ele>
        <time>2020-08-14T11:40:43Z</time>
      </trkpt>
      <trkpt lat="48.72768" lon="7.30011">
        <ele>223.3</ele>
        <time>2020-08-14T11:40:45Z</time>
      </trkpt>
      <trkpt lat="48.72766" lon="7.30033">
        <ele>223.4</ele>
        <time>2020-08-14T11:40:48Z</time>
      </trkpt>
      <trkpt lat="48.72769" lon="7.30045">
        <ele>224.5</ele>
        <time>2020-08-14T11:40:50Z</time>
      </trkpt>
      <trkpt lat="48.72771" lon="7.30054">
        <ele>224.6</ele>
        <time>2020-08-14T11:40:52Z</time>
      </trkpt>
      <trkpt lat="48.72772" lon="7.30064">
        <ele>223.8</ele>
        <time>2020-08-14T11:40:54Z</time>
      </trkpt>
      <trkpt lat="48.72774" lon="7.30073">
        <ele>223.5</ele>
        <time>2020-08-14T11:40:56Z</time>
      </trkpt>
      <trkpt lat="48.72777" lon="7.30083">
        <ele>223.7</ele>
        <time>2020-08-14T11:40:58Z</time>
      </trkpt>
      <trkpt lat="48.72779" lon="7.30094">
        <ele>224.1</ele>
        <time>2020-08-14T11:41:00Z</time>
      </trkpt>
      <trkpt lat="48.72786" lon="7.30118">
        <ele>224.6</ele>
        <time>2020-08-14T11:41:03Z</time>
      </trkpt>
      <trkpt lat="48.72792" lon="7.30131">
        <ele>224.6</ele>
        <time>2020-08-14T11:41:05Z</time>
      </trkpt>
      <trkpt lat="48.72798" lon="7.30145">
        <ele>225.5</ele>
        <time>2020-08-14T11:41:08Z</time>
      </trkpt>
      <trkpt lat="48.72802" lon="7.30157">
        <ele>226.5</ele>
        <time>2020-08-14T11:41:10Z</time>
      </trkpt>
      <trkpt lat="48.72807" lon="7.30169">
        <ele>227.4</ele>
        <time>2020-08-14T11:41:12Z</time>
      </trkpt>
      <trkpt lat="48.72812" lon="7.30179">
        <ele>226.6</ele>
        <time>2020-08-14T11:41:14Z</time>
      </trkpt>
      <trkpt lat="48.72818" lon="7.30191">
        <ele>227.6</ele>
        <time>2020-08-14T11:41:16Z</time>
      </trkpt>
      <trkpt lat="48.72829" lon="7.30207">
        <ele>231.2</ele>
        <time>2020-08-14T11:41:19Z</time>
      </trkpt>
      <trkpt lat="48.72836" lon="7.30218">
        <ele>233.7</ele>
        <time>2020-08-14T11:41:21Z</time>
      </trkpt>
      <trkpt lat="48.72842" lon="7.30227">
        <ele>235.9</ele>
        <time>2020-08-14T11:41:23Z</time>
      </trkpt>
      <trkpt lat="48.72848" lon="7.30237">
        <ele>237.9</ele>
        <time>2020-08-14T11:41:25Z</time>
      </trkpt>
      <trkpt lat="48.72856" lon="7.30253">
        <ele>240.2</ele>
        <time>2020-08-14T11:41:28Z</time>
      </trkpt>
      <trkpt lat="48.72862" lon="7.30262">
        <ele>242.1</ele>
        <time>2020-08-14T11:41:30Z</time>
      </trkpt>
      <trkpt lat="48.72869" lon="7.30277">
        <ele>244.1</ele>
        <time>2020-08-14T11:41:33Z</time>
      </trkpt>
      <trkpt lat="48.72874" lon="7.30285">
        <ele>245.2</ele>
        <time>2020-08-14T11:41:35Z</time>
      </trkpt>
      <trkpt lat="48.7288" lon="7.30293">
        <ele>246.6</ele>
        <time>2020-08-14T11:41:37Z</time>
      </trkpt>
      <trkpt lat="48.72884" lon="7.303">
        <ele>248</ele>
        <time>2020-08-14T11:41:39Z</time>
      </trkpt>
      <trkpt lat="48.72888" lon="7.30306">
        <ele>248.9</ele>
        <time>2020-08-14T11:41:41Z</time>
      </trkpt>
      <trkpt lat="48.7289" lon="7.30313">
        <ele>250</ele>
        <time>2020-08-14T11:41:43Z</time>
      </trkpt>
      <trkpt lat="48.72893" lon="7.30321">
        <ele>251.1</ele>
        <time>2020-08-14T11:41:45Z</time>
      </trkpt>
      <trkpt lat="48.72893" lon="7.30328">
        <ele>251.6</ele>
        <time>2020-08-14T11:41:47Z</time>
      </trkpt>
      <trkpt lat="48.72894" lon="7.30336">
        <ele>251.9</ele>
        <time>2020-08-14T11:41:49Z</time>
      </trkpt>
      <trkpt lat="48.72894" lon="7.30345">
        <ele>252.3</ele>
        <time>2020-08-14T11:41:51Z</time>
      </trkpt>
      <trkpt lat="48.72893" lon="7.30362">
        <ele>254.5</ele>
        <time>2020-08-14T11:41:54Z</time>
      </trkpt>
      <trkpt lat="48.72887" lon="7.30376">
        <ele>256.8</ele>
        <time>2020-08-14T11:41:56Z</time>
      </trkpt>
      <trkpt lat="48.72877" lon="7.30375">
        <ele>259.8</ele>
        <time>2020-08-14T11:41:59Z</time>
      </trkpt>
      <trkpt lat="48.72869" lon="7.3037">
        <ele>261.2</ele>
        <time>2020-08-14T11:42:01Z</time>
      </trkpt>
      <trkpt lat="48.72861" lon="7.30362">
        <ele>262.1</ele>
        <time>2020-08-14T11:42:03Z</time>
      </trkpt>
      <trkpt lat="48.72848" lon="7.30346">
        <ele>262.9</ele>
        <time>2020-08-14T11:42:06Z</time>
      </trkpt>
      <trkpt lat="48.72836" lon="7.30329">
        <ele>262.7</ele>
        <time>2020-08-14T11:42:09Z</time>
      </trkpt>
      <trkpt lat="48.72827" lon="7.30317">
        <ele>261.6</ele>
        <time>2020-08-14T11:42:11Z</time>
      </trkpt>
      <trkpt lat="48.72818" lon="7.30305">
        <ele>260.8</ele>
        <time>2020-08-14T11:42:13Z</time>
      </trkpt>
      <trkpt lat="48.72807" lon="7.30286">
        <ele>259.5</ele>
        <time>2020-08-14T11:42:16Z</time>
      </trkpt>
      <trkpt lat="48.72794" lon="7.30261">
        <ele>258.3</ele>
        <time>2020-08-14T11:42:19Z</time>
      </trkpt>
      <trkpt lat="48.72787" lon="7.30242">
        <ele>257.2</ele>
        <time>2020-08-14T11:42:21Z</time>
      </trkpt>
      <trkpt lat="48.72775" lon="7.30213">
        <ele>255.6</ele>
        <time>2020-08-14T11:42:24Z</time>
      </trkpt>
      <trkpt lat="48.72767" lon="7.30192">
        <ele>254.3</ele>
        <time>2020-08-14T11:42:26Z</time>
      </trkpt>
      <trkpt lat="48.7276" lon="7.30173">
        <ele>252.7</ele>
        <time>2020-08-14T11:42:28Z</time>
      </trkpt>
      <trkpt lat="48.72752" lon="7.30152">
        <ele>252.2</ele>
        <time>2020-08-14T11:42:30Z</time>
      </trkpt>
      <trkpt lat="48.72741" lon="7.30123">
        <ele>250.7</ele>
        <time>2020-08-14T11:42:33Z</time>
      </trkpt>
      <trkpt lat="48.72734" lon="7.30102">
        <ele>249.4</ele>
        <time>2020-08-14T11:42:35Z</time>
      </trkpt>
      <trkpt lat="48.72721" lon="7.30079">
        <ele>247.5</ele>
        <time>2020-08-14T11:42:38Z</time>
      </trkpt>
      <trkpt lat="48.72711" lon="7.30072">
        <ele>245.9</ele>
        <time>2020-08-14T11:42:40Z</time>
      </trkpt>
      <trkpt lat="48.727" lon="7.30073">
        <ele>244.5</ele>
        <time>2020-08-14T11:42:42Z</time>
      </trkpt>
      <trkpt lat="48.72689" lon="7.30082">
        <ele>244.4</ele>
        <time>2020-08-14T11:42:44Z</time>
      </trkpt>
      <trkpt lat="48.72676" lon="7.30093">
        <ele>243.2</ele>
        <time>2020-08-14T11:42:46Z</time>
      </trkpt>
      <trkpt lat="48.72663" lon="7.30108">
        <ele>242.6</ele>
        <time>2020-08-14T11:42:48Z</time>
      </trkpt>
      <trkpt lat="48.72651" lon="7.30124">
        <ele>241.7</ele>
        <time>2020-08-14T11:42:50Z</time>
      </trkpt>
      <trkpt lat="48.72638" lon="7.3014">
        <ele>241.2</ele>
        <time>2020-08-14T11:42:52Z</time>
      </trkpt>
      <trkpt lat="48.72624" lon="7.30159">
        <ele>241.4</ele>
        <time>2020-08-14T11:42:54Z</time>
      </trkpt>
      <trkpt lat="48.72614" lon="7.30179">
        <ele>241.8</ele>
        <time>2020-08-14T11:42:56Z</time>
      </trkpt>
      <trkpt lat="48.72603" lon="7.302">
        <ele>241.8</ele>
        <time>2020-08-14T11:42:58Z</time>
      </trkpt>
      <trkpt lat="48.72595" lon="7.30222">
        <ele>238.8</ele>
        <time>2020-08-14T11:43:00Z</time>
      </trkpt>
      <trkpt lat="48.7259" lon="7.30244">
        <ele>239.2</ele>
        <time>2020-08-14T11:43:03Z</time>
      </trkpt>
      <trkpt lat="48.72579" lon="7.30276">
        <ele>239.1</ele>
        <time>2020-08-14T11:43:06Z</time>
      </trkpt>
      <trkpt lat="48.7257" lon="7.30295">
        <ele>239</ele>
        <time>2020-08-14T11:43:08Z</time>
      </trkpt>
      <trkpt lat="48.72561" lon="7.30314">
        <ele>239.4</ele>
        <time>2020-08-14T11:43:10Z</time>
      </trkpt>
      <trkpt lat="48.72552" lon="7.30332">
        <ele>240.1</ele>
        <time>2020-08-14T11:43:12Z</time>
      </trkpt>
      <trkpt lat="48.72542" lon="7.30351">
        <ele>240.7</ele>
        <time>2020-08-14T11:43:14Z</time>
      </trkpt>
      <trkpt lat="48.72531" lon="7.3037">
        <ele>241.2</ele>
        <time>2020-08-14T11:43:16Z</time>
      </trkpt>
      <trkpt lat="48.72516" lon="7.30399">
        <ele>241.7</ele>
        <time>2020-08-14T11:43:19Z</time>
      </trkpt>
      <trkpt lat="48.72498" lon="7.30427">
        <ele>241.7</ele>
        <time>2020-08-14T11:43:21Z</time>
      </trkpt>
      <trkpt lat="48.72488" lon="7.30447">
        <ele>241.6</ele>
        <time>2020-08-14T11:43:24Z</time>
      </trkpt>
      <trkpt lat="48.72476" lon="7.30465">
        <ele>240.8</ele>
        <time>2020-08-14T11:43:25Z</time>
      </trkpt>
      <trkpt lat="48.72466" lon="7.30483">
        <ele>239.6</ele>
        <time>2020-08-14T11:43:27Z</time>
      </trkpt>
      <trkpt lat="48.72455" lon="7.30503">
        <ele>238</ele>
        <time>2020-08-14T11:43:29Z</time>
      </trkpt>
      <trkpt lat="48.72442" lon="7.3052">
        <ele>236.3</ele>
        <time>2020-08-14T11:43:31Z</time>
      </trkpt>
      <trkpt lat="48.72428" lon="7.30535">
        <ele>235</ele>
        <time>2020-08-14T11:43:33Z</time>
      </trkpt>
      <trkpt lat="48.72415" lon="7.3055">
        <ele>232.6</ele>
        <time>2020-08-14T11:43:35Z</time>
      </trkpt>
      <trkpt lat="48.724" lon="7.30562">
        <ele>230.2</ele>
        <time>2020-08-14T11:43:37Z</time>
      </trkpt>
      <trkpt lat="48.72386" lon="7.30572">
        <ele>227.8</ele>
        <time>2020-08-14T11:43:40Z</time>
      </trkpt>
      <trkpt lat="48.72375" lon="7.30581">
        <ele>225.8</ele>
        <time>2020-08-14T11:43:42Z</time>
      </trkpt>
      <trkpt lat="48.7236" lon="7.306">
        <ele>223.2</ele>
        <time>2020-08-14T11:43:45Z</time>
      </trkpt>
      <trkpt lat="48.72351" lon="7.30617">
        <ele>221.9</ele>
        <time>2020-08-14T11:43:46Z</time>
      </trkpt>
      <trkpt lat="48.72342" lon="7.30632">
        <ele>221.3</ele>
        <time>2020-08-14T11:43:48Z</time>
      </trkpt>
      <trkpt lat="48.72332" lon="7.30644">
        <ele>220.5</ele>
        <time>2020-08-14T11:43:50Z</time>
      </trkpt>
      <trkpt lat="48.7232" lon="7.3065">
        <ele>220.7</ele>
        <time>2020-08-14T11:43:52Z</time>
      </trkpt>
      <trkpt lat="48.72307" lon="7.30652">
        <ele>220.9</ele>
        <time>2020-08-14T11:43:54Z</time>
      </trkpt>
      <trkpt lat="48.72295" lon="7.30654">
        <ele>221.5</ele>
        <time>2020-08-14T11:43:56Z</time>
      </trkpt>
      <trkpt lat="48.72284" lon="7.30654">
        <ele>222</ele>
        <time>2020-08-14T11:43:58Z</time>
      </trkpt>
      <trkpt lat="48.72273" lon="7.30653">
        <ele>222.8</ele>
        <time>2020-08-14T11:44:01Z</time>
      </trkpt>
      <trkpt lat="48.72257" lon="7.30653">
        <ele>223.6</ele>
        <time>2020-08-14T11:44:04Z</time>
      </trkpt>
      <trkpt lat="48.72246" lon="7.30657">
        <ele>223.7</ele>
        <time>2020-08-14T11:44:06Z</time>
      </trkpt>
      <trkpt lat="48.72235" lon="7.30659">
        <ele>224</ele>
        <time>2020-08-14T11:44:08Z</time>
      </trkpt>
      <trkpt lat="48.72218" lon="7.30667">
        <ele>224</ele>
        <time>2020-08-14T11:44:11Z</time>
      </trkpt>
      <trkpt lat="48.72202" lon="7.30679">
        <ele>224.1</ele>
        <time>2020-08-14T11:44:14Z</time>
      </trkpt>
      <trkpt lat="48.7219" lon="7.30689">
        <ele>224.4</ele>
        <time>2020-08-14T11:44:15Z</time>
      </trkpt>
      <trkpt lat="48.72181" lon="7.30701">
        <ele>224.6</ele>
        <time>2020-08-14T11:44:17Z</time>
      </trkpt>
      <trkpt lat="48.72171" lon="7.30716">
        <ele>224.8</ele>
        <time>2020-08-14T11:44:19Z</time>
      </trkpt>
      <trkpt lat="48.72161" lon="7.30728">
        <ele>224.2</ele>
        <time>2020-08-14T11:44:22Z</time>
      </trkpt>
      <trkpt lat="48.72152" lon="7.30742">
        <ele>222.9</ele>
        <time>2020-08-14T11:44:24Z</time>
      </trkpt>
      <trkpt lat="48.72143" lon="7.3077">
        <ele>220.6</ele>
        <time>2020-08-14T11:44:27Z</time>
      </trkpt>
      <trkpt lat="48.7214" lon="7.30791">
        <ele>219.9</ele>
        <time>2020-08-14T11:44:29Z</time>
      </trkpt>
      <trkpt lat="48.72138" lon="7.30813">
        <ele>219.6</ele>
        <time>2020-08-14T11:44:31Z</time>
      </trkpt>
      <trkpt lat="48.72135" lon="7.30845">
        <ele>219.8</ele>
        <time>2020-08-14T11:44:33Z</time>
      </trkpt>
      <trkpt lat="48.72136" lon="7.30868">
        <ele>220.4</ele>
        <time>2020-08-14T11:44:36Z</time>
      </trkpt>
      <trkpt lat="48.72135" lon="7.30902">
        <ele>221.2</ele>
        <time>2020-08-14T11:44:39Z</time>
      </trkpt>
      <trkpt lat="48.72134" lon="7.30935">
        <ele>221.8</ele>
        <time>2020-08-14T11:44:42Z</time>
      </trkpt>
      <trkpt lat="48.72132" lon="7.30959">
        <ele>222.7</ele>
        <time>2020-08-14T11:44:44Z</time>
      </trkpt>
      <trkpt lat="48.7213" lon="7.30983">
        <ele>223.9</ele>
        <time>2020-08-14T11:44:46Z</time>
      </trkpt>
      <trkpt lat="48.72127" lon="7.31017">
        <ele>223.9</ele>
        <time>2020-08-14T11:44:49Z</time>
      </trkpt>
      <trkpt lat="48.72124" lon="7.31041">
        <ele>222.7</ele>
        <time>2020-08-14T11:44:50Z</time>
      </trkpt>
      <trkpt lat="48.72121" lon="7.31067">
        <ele>221.3</ele>
        <time>2020-08-14T11:44:52Z</time>
      </trkpt>
      <trkpt lat="48.72117" lon="7.31091">
        <ele>220.1</ele>
        <time>2020-08-14T11:44:55Z</time>
      </trkpt>
      <trkpt lat="48.72112" lon="7.31115">
        <ele>219</ele>
        <time>2020-08-14T11:44:57Z</time>
      </trkpt>
      <trkpt lat="48.72107" lon="7.3115">
        <ele>216.8</ele>
        <time>2020-08-14T11:44:59Z</time>
      </trkpt>
      <trkpt lat="48.72103" lon="7.31172">
        <ele>216.3</ele>
        <time>2020-08-14T11:45:01Z</time>
      </trkpt>
      <trkpt lat="48.72103" lon="7.31195">
        <ele>215.1</ele>
        <time>2020-08-14T11:45:03Z</time>
      </trkpt>
      <trkpt lat="48.72105" lon="7.31218">
        <ele>214.6</ele>
        <time>2020-08-14T11:45:05Z</time>
      </trkpt>
      <trkpt lat="48.72108" lon="7.31239">
        <ele>214.5</ele>
        <time>2020-08-14T11:45:07Z</time>
      </trkpt>
      <trkpt lat="48.7211" lon="7.31261">
        <ele>214.2</ele>
        <time>2020-08-14T11:45:09Z</time>
      </trkpt>
      <trkpt lat="48.7211" lon="7.31283">
        <ele>214.1</ele>
        <time>2020-08-14T11:45:11Z</time>
      </trkpt>
      <trkpt lat="48.72114" lon="7.31306">
        <ele>213.9</ele>
        <time>2020-08-14T11:45:14Z</time>
      </trkpt>
      <trkpt lat="48.72122" lon="7.31337">
        <ele>213.4</ele>
        <time>2020-08-14T11:45:16Z</time>
      </trkpt>
      <trkpt lat="48.72129" lon="7.31358">
        <ele>213.4</ele>
        <time>2020-08-14T11:45:19Z</time>
      </trkpt>
      <trkpt lat="48.7214" lon="7.31386">
        <ele>213.4</ele>
        <time>2020-08-14T11:45:21Z</time>
      </trkpt>
      <trkpt lat="48.72148" lon="7.31405">
        <ele>213.7</ele>
        <time>2020-08-14T11:45:24Z</time>
      </trkpt>
      <trkpt lat="48.72155" lon="7.31424">
        <ele>213.6</ele>
        <time>2020-08-14T11:45:26Z</time>
      </trkpt>
      <trkpt lat="48.72167" lon="7.31452">
        <ele>214.4</ele>
        <time>2020-08-14T11:45:29Z</time>
      </trkpt>
      <trkpt lat="48.72173" lon="7.31473">
        <ele>215.1</ele>
        <time>2020-08-14T11:45:31Z</time>
      </trkpt>
      <trkpt lat="48.72179" lon="7.31495">
        <ele>215.8</ele>
        <time>2020-08-14T11:45:33Z</time>
      </trkpt>
      <trkpt lat="48.72186" lon="7.31528">
        <ele>215.7</ele>
        <time>2020-08-14T11:45:36Z</time>
      </trkpt>
      <trkpt lat="48.72191" lon="7.31552">
        <ele>215.6</ele>
        <time>2020-08-14T11:45:38Z</time>
      </trkpt>
      <trkpt lat="48.72198" lon="7.31588">
        <ele>214.3</ele>
        <time>2020-08-14T11:45:40Z</time>
      </trkpt>
      <trkpt lat="48.72202" lon="7.31612">
        <ele>213.2</ele>
        <time>2020-08-14T11:45:42Z</time>
      </trkpt>
      <trkpt lat="48.72205" lon="7.31636">
        <ele>212.6</ele>
        <time>2020-08-14T11:45:44Z</time>
      </trkpt>
      <trkpt lat="48.72206" lon="7.31659">
        <ele>211.8</ele>
        <time>2020-08-14T11:45:46Z</time>
      </trkpt>
      <trkpt lat="48.72207" lon="7.3168">
        <ele>210.9</ele>
        <time>2020-08-14T11:45:48Z</time>
      </trkpt>
      <trkpt lat="48.7221" lon="7.31702">
        <ele>209.7</ele>
        <time>2020-08-14T11:45:50Z</time>
      </trkpt>
      <trkpt lat="48.72212" lon="7.31725">
        <ele>209.4</ele>
        <time>2020-08-14T11:45:52Z</time>
      </trkpt>
      <trkpt lat="48.72214" lon="7.31748">
        <ele>208.8</ele>
        <time>2020-08-14T11:45:54Z</time>
      </trkpt>
      <trkpt lat="48.72215" lon="7.31772">
        <ele>208.4</ele>
        <time>2020-08-14T11:45:56Z</time>
      </trkpt>
      <trkpt lat="48.72216" lon="7.31793">
        <ele>207.7</ele>
        <time>2020-08-14T11:45:58Z</time>
      </trkpt>
      <trkpt lat="48.72217" lon="7.31813">
        <ele>206.9</ele>
        <time>2020-08-14T11:46:01Z</time>
      </trkpt>
      <trkpt lat="48.72219" lon="7.31833">
        <ele>206.9</ele>
        <time>2020-08-14T11:46:03Z</time>
      </trkpt>
      <trkpt lat="48.72222" lon="7.31853">
        <ele>206.9</ele>
        <time>2020-08-14T11:46:05Z</time>
      </trkpt>
      <trkpt lat="48.72228" lon="7.31882">
        <ele>206.7</ele>
        <time>2020-08-14T11:46:08Z</time>
      </trkpt>
      <trkpt lat="48.72234" lon="7.31902">
        <ele>206.5</ele>
        <time>2020-08-14T11:46:10Z</time>
      </trkpt>
      <trkpt lat="48.72241" lon="7.3192">
        <ele>206.8</ele>
        <time>2020-08-14T11:46:12Z</time>
      </trkpt>
      <trkpt lat="48.72249" lon="7.3194">
        <ele>207.3</ele>
        <time>2020-08-14T11:46:14Z</time>
      </trkpt>
      <trkpt lat="48.72258" lon="7.31957">
        <ele>207.5</ele>
        <time>2020-08-14T11:46:16Z</time>
      </trkpt>
      <trkpt lat="48.72269" lon="7.31984">
        <ele>208.8</ele>
        <time>2020-08-14T11:46:19Z</time>
      </trkpt>
      <trkpt lat="48.72279" lon="7.3201">
        <ele>209.9</ele>
        <time>2020-08-14T11:46:22Z</time>
      </trkpt>
      <trkpt lat="48.72286" lon="7.32023">
        <ele>209.9</ele>
        <time>2020-08-14T11:46:24Z</time>
      </trkpt>
      <trkpt lat="48.72292" lon="7.32036">
        <ele>211</ele>
        <time>2020-08-14T11:46:26Z</time>
      </trkpt>
      <trkpt lat="48.72304" lon="7.32052">
        <ele>211.2</ele>
        <time>2020-08-14T11:46:29Z</time>
      </trkpt>
      <trkpt lat="48.72311" lon="7.32067">
        <ele>212.1</ele>
        <time>2020-08-14T11:46:31Z</time>
      </trkpt>
      <trkpt lat="48.7232" lon="7.32079">
        <ele>211.3</ele>
        <time>2020-08-14T11:46:33Z</time>
      </trkpt>
      <trkpt lat="48.72328" lon="7.32092">
        <ele>211.4</ele>
        <time>2020-08-14T11:46:35Z</time>
      </trkpt>
      <trkpt lat="48.72337" lon="7.32104">
        <ele>211.4</ele>
        <time>2020-08-14T11:46:37Z</time>
      </trkpt>
      <trkpt lat="48.72347" lon="7.32117">
        <ele>211.6</ele>
        <time>2020-08-14T11:46:39Z</time>
      </trkpt>
      <trkpt lat="48.72359" lon="7.32139">
        <ele>211.8</ele>
        <time>2020-08-14T11:46:42Z</time>
      </trkpt>
      <trkpt lat="48.72368" lon="7.32155">
        <ele>211.4</ele>
        <time>2020-08-14T11:46:44Z</time>
      </trkpt>
      <trkpt lat="48.72377" lon="7.32171">
        <ele>211.3</ele>
        <time>2020-08-14T11:46:46Z</time>
      </trkpt>
      <trkpt lat="48.72388" lon="7.32189">
        <ele>212.3</ele>
        <time>2020-08-14T11:46:48Z</time>
      </trkpt>
      <trkpt lat="48.72404" lon="7.32212">
        <ele>212.7</ele>
        <time>2020-08-14T11:46:51Z</time>
      </trkpt>
      <trkpt lat="48.72417" lon="7.32231">
        <ele>212.8</ele>
        <time>2020-08-14T11:46:53Z</time>
      </trkpt>
      <trkpt lat="48.72427" lon="7.32248">
        <ele>212.7</ele>
        <time>2020-08-14T11:46:55Z</time>
      </trkpt>
      <trkpt lat="48.72438" lon="7.32266">
        <ele>211.5</ele>
        <time>2020-08-14T11:46:57Z</time>
      </trkpt>
      <trkpt lat="48.72448" lon="7.32282">
        <ele>211.4</ele>
        <time>2020-08-14T11:46:59Z</time>
      </trkpt>
      <trkpt lat="48.72464" lon="7.32305">
        <ele>210.3</ele>
        <time>2020-08-14T11:47:02Z</time>
      </trkpt>
      <trkpt lat="48.72475" lon="7.32319">
        <ele>210.9</ele>
        <time>2020-08-14T11:47:04Z</time>
      </trkpt>
      <trkpt lat="48.72487" lon="7.3233">
        <ele>211.2</ele>
        <time>2020-08-14T11:47:06Z</time>
      </trkpt>
      <trkpt lat="48.72499" lon="7.32342">
        <ele>211.7</ele>
        <time>2020-08-14T11:47:08Z</time>
      </trkpt>
      <trkpt lat="48.72514" lon="7.3236">
        <ele>211.5</ele>
        <time>2020-08-14T11:47:10Z</time>
      </trkpt>
      <trkpt lat="48.72531" lon="7.32386">
        <ele>212.8</ele>
        <time>2020-08-14T11:47:13Z</time>
      </trkpt>
      <trkpt lat="48.72542" lon="7.32402">
        <ele>213.6</ele>
        <time>2020-08-14T11:47:15Z</time>
      </trkpt>
      <trkpt lat="48.72556" lon="7.32418">
        <ele>213.9</ele>
        <time>2020-08-14T11:47:17Z</time>
      </trkpt>
      <trkpt lat="48.7257" lon="7.32432">
        <ele>214.1</ele>
        <time>2020-08-14T11:47:19Z</time>
      </trkpt>
      <trkpt lat="48.72582" lon="7.32446">
        <ele>214.5</ele>
        <time>2020-08-14T11:47:21Z</time>
      </trkpt>
      <trkpt lat="48.72594" lon="7.32461">
        <ele>214.3</ele>
        <time>2020-08-14T11:47:23Z</time>
      </trkpt>
      <trkpt lat="48.72609" lon="7.32487">
        <ele>214.1</ele>
        <time>2020-08-14T11:47:26Z</time>
      </trkpt>
      <trkpt lat="48.72619" lon="7.32505">
        <ele>213.9</ele>
        <time>2020-08-14T11:47:28Z</time>
      </trkpt>
      <trkpt lat="48.72627" lon="7.32521">
        <ele>213.2</ele>
        <time>2020-08-14T11:47:30Z</time>
      </trkpt>
      <trkpt lat="48.72634" lon="7.32539">
        <ele>211.8</ele>
        <time>2020-08-14T11:47:32Z</time>
      </trkpt>
      <trkpt lat="48.72641" lon="7.32559">
        <ele>211.5</ele>
        <time>2020-08-14T11:47:34Z</time>
      </trkpt>
      <trkpt lat="48.72648" lon="7.32579">
        <ele>210.3</ele>
        <time>2020-08-14T11:47:36Z</time>
      </trkpt>
      <trkpt lat="48.72655" lon="7.32597">
        <ele>209.7</ele>
        <time>2020-08-14T11:47:38Z</time>
      </trkpt>
      <trkpt lat="48.72661" lon="7.3262">
        <ele>208.8</ele>
        <time>2020-08-14T11:47:40Z</time>
      </trkpt>
      <trkpt lat="48.72664" lon="7.32642">
        <ele>208.4</ele>
        <time>2020-08-14T11:47:42Z</time>
      </trkpt>
      <trkpt lat="48.72666" lon="7.32667">
        <ele>208.3</ele>
        <time>2020-08-14T11:47:44Z</time>
      </trkpt>
      <trkpt lat="48.72669" lon="7.32691">
        <ele>208.2</ele>
        <time>2020-08-14T11:47:46Z</time>
      </trkpt>
      <trkpt lat="48.72673" lon="7.32715">
        <ele>207.2</ele>
        <time>2020-08-14T11:47:48Z</time>
      </trkpt>
      <trkpt lat="48.72677" lon="7.3274">
        <ele>207.5</ele>
        <time>2020-08-14T11:47:50Z</time>
      </trkpt>
      <trkpt lat="48.72679" lon="7.32767">
        <ele>207.8</ele>
        <time>2020-08-14T11:47:52Z</time>
      </trkpt>
      <trkpt lat="48.72682" lon="7.32791">
        <ele>208</ele>
        <time>2020-08-14T11:47:54Z</time>
      </trkpt>
      <trkpt lat="48.72684" lon="7.32818">
        <ele>208.9</ele>
        <time>2020-08-14T11:47:56Z</time>
      </trkpt>
      <trkpt lat="48.72685" lon="7.32844">
        <ele>209.6</ele>
        <time>2020-08-14T11:47:58Z</time>
      </trkpt>
      <trkpt lat="48.72687" lon="7.32866">
        <ele>211.1</ele>
        <time>2020-08-14T11:48:00Z</time>
      </trkpt>
      <trkpt lat="48.7269" lon="7.32888">
        <ele>212.3</ele>
        <time>2020-08-14T11:48:02Z</time>
      </trkpt>
      <trkpt lat="48.72697" lon="7.32908">
        <ele>213.3</ele>
        <time>2020-08-14T11:48:04Z</time>
      </trkpt>
      <trkpt lat="48.72705" lon="7.32929">
        <ele>213.1</ele>
        <time>2020-08-14T11:48:06Z</time>
      </trkpt>
      <trkpt lat="48.72713" lon="7.32949">
        <ele>212.9</ele>
        <time>2020-08-14T11:48:08Z</time>
      </trkpt>
      <trkpt lat="48.72723" lon="7.32968">
        <ele>214</ele>
        <time>2020-08-14T11:48:10Z</time>
      </trkpt>
      <trkpt lat="48.7273" lon="7.32988">
        <ele>214.7</ele>
        <time>2020-08-14T11:48:12Z</time>
      </trkpt>
      <trkpt lat="48.7274" lon="7.33011">
        <ele>215</ele>
        <time>2020-08-14T11:48:14Z</time>
      </trkpt>
      <trkpt lat="48.72751" lon="7.3303">
        <ele>215.2</ele>
        <time>2020-08-14T11:48:16Z</time>
      </trkpt>
      <trkpt lat="48.72766" lon="7.33054">
        <ele>213.8</ele>
        <time>2020-08-14T11:48:19Z</time>
      </trkpt>
      <trkpt lat="48.72778" lon="7.33065">
        <ele>212.9</ele>
        <time>2020-08-14T11:48:21Z</time>
      </trkpt>
      <trkpt lat="48.72788" lon="7.33075">
        <ele>212.5</ele>
        <time>2020-08-14T11:48:23Z</time>
      </trkpt>
      <trkpt lat="48.72801" lon="7.33084">
        <ele>211.5</ele>
        <time>2020-08-14T11:48:25Z</time>
      </trkpt>
      <trkpt lat="48.72815" lon="7.33092">
        <ele>210.7</ele>
        <time>2020-08-14T11:48:27Z</time>
      </trkpt>
      <trkpt lat="48.7283" lon="7.331">
        <ele>209.8</ele>
        <time>2020-08-14T11:48:29Z</time>
      </trkpt>
      <trkpt lat="48.72843" lon="7.33109">
        <ele>208.1</ele>
        <time>2020-08-14T11:48:31Z</time>
      </trkpt>
      <trkpt lat="48.72856" lon="7.33118">
        <ele>207.5</ele>
        <time>2020-08-14T11:48:33Z</time>
      </trkpt>
      <trkpt lat="48.72871" lon="7.33126">
        <ele>205.9</ele>
        <time>2020-08-14T11:48:35Z</time>
      </trkpt>
      <trkpt lat="48.72885" lon="7.33135">
        <ele>205.3</ele>
        <time>2020-08-14T11:48:37Z</time>
      </trkpt>
      <trkpt lat="48.72899" lon="7.33146">
        <ele>204.9</ele>
        <time>2020-08-14T11:48:39Z</time>
      </trkpt>
      <trkpt lat="48.72911" lon="7.33155">
        <ele>205</ele>
        <time>2020-08-14T11:48:41Z</time>
      </trkpt>
      <trkpt lat="48.72932" lon="7.33164">
        <ele>205.3</ele>
        <time>2020-08-14T11:48:44Z</time>
      </trkpt>
      <trkpt lat="48.72949" lon="7.33171">
        <ele>205.5</ele>
        <time>2020-08-14T11:48:46Z</time>
      </trkpt>
      <trkpt lat="48.72964" lon="7.33181">
        <ele>205</ele>
        <time>2020-08-14T11:48:48Z</time>
      </trkpt>
      <trkpt lat="48.72978" lon="7.3319">
        <ele>206.2</ele>
        <time>2020-08-14T11:48:50Z</time>
      </trkpt>
      <trkpt lat="48.72997" lon="7.33206">
        <ele>206.4</ele>
        <time>2020-08-14T11:48:53Z</time>
      </trkpt>
      <trkpt lat="48.73011" lon="7.33216">
        <ele>207.2</ele>
        <time>2020-08-14T11:48:55Z</time>
      </trkpt>
      <trkpt lat="48.73024" lon="7.33226">
        <ele>208.2</ele>
        <time>2020-08-14T11:48:57Z</time>
      </trkpt>
      <trkpt lat="48.73035" lon="7.33241">
        <ele>208.8</ele>
        <time>2020-08-14T11:48:59Z</time>
      </trkpt>
      <trkpt lat="48.73047" lon="7.33251">
        <ele>209.3</ele>
        <time>2020-08-14T11:49:01Z</time>
      </trkpt>
      <trkpt lat="48.73059" lon="7.33263">
        <ele>210.6</ele>
        <time>2020-08-14T11:49:03Z</time>
      </trkpt>
      <trkpt lat="48.73079" lon="7.33276">
        <ele>211.4</ele>
        <time>2020-08-14T11:49:06Z</time>
      </trkpt>
      <trkpt lat="48.73095" lon="7.33287">
        <ele>212.5</ele>
        <time>2020-08-14T11:49:08Z</time>
      </trkpt>
      <trkpt lat="48.73107" lon="7.33305">
        <ele>212.5</ele>
        <time>2020-08-14T11:49:10Z</time>
      </trkpt>
      <trkpt lat="48.73118" lon="7.33325">
        <ele>212</ele>
        <time>2020-08-14T11:49:12Z</time>
      </trkpt>
      <trkpt lat="48.7313" lon="7.33348">
        <ele>211.9</ele>
        <time>2020-08-14T11:49:14Z</time>
      </trkpt>
      <trkpt lat="48.73142" lon="7.33371">
        <ele>209</ele>
        <time>2020-08-14T11:49:16Z</time>
      </trkpt>
      <trkpt lat="48.73153" lon="7.33395">
        <ele>207.1</ele>
        <time>2020-08-14T11:49:18Z</time>
      </trkpt>
      <trkpt lat="48.73164" lon="7.33421">
        <ele>205.7</ele>
        <time>2020-08-14T11:49:20Z</time>
      </trkpt>
      <trkpt lat="48.73174" lon="7.33447">
        <ele>205.2</ele>
        <time>2020-08-14T11:49:22Z</time>
      </trkpt>
      <trkpt lat="48.73184" lon="7.33472">
        <ele>204</ele>
        <time>2020-08-14T11:49:24Z</time>
      </trkpt>
      <trkpt lat="48.73193" lon="7.33498">
        <ele>203.7</ele>
        <time>2020-08-14T11:49:26Z</time>
      </trkpt>
      <trkpt lat="48.73201" lon="7.33525">
        <ele>203.3</ele>
        <time>2020-08-14T11:49:28Z</time>
      </trkpt>
      <trkpt lat="48.73207" lon="7.33551">
        <ele>202.2</ele>
        <time>2020-08-14T11:49:30Z</time>
      </trkpt>
      <trkpt lat="48.73209" lon="7.33578">
        <ele>200.9</ele>
        <time>2020-08-14T11:49:32Z</time>
      </trkpt>
      <trkpt lat="48.73209" lon="7.33605">
        <ele>199.5</ele>
        <time>2020-08-14T11:49:34Z</time>
      </trkpt>
      <trkpt lat="48.73208" lon="7.33632">
        <ele>198.8</ele>
        <time>2020-08-14T11:49:36Z</time>
      </trkpt>
      <trkpt lat="48.73206" lon="7.33671">
        <ele>197.9</ele>
        <time>2020-08-14T11:49:39Z</time>
      </trkpt>
      <trkpt lat="48.73205" lon="7.33697">
        <ele>197</ele>
        <time>2020-08-14T11:49:41Z</time>
      </trkpt>
      <trkpt lat="48.73202" lon="7.33723">
        <ele>196.5</ele>
        <time>2020-08-14T11:49:43Z</time>
      </trkpt>
      <trkpt lat="48.732" lon="7.33749">
        <ele>195.9</ele>
        <time>2020-08-14T11:49:45Z</time>
      </trkpt>
      <trkpt lat="48.73199" lon="7.33774">
        <ele>195.3</ele>
        <time>2020-08-14T11:49:47Z</time>
      </trkpt>
      <trkpt lat="48.73198" lon="7.33798">
        <ele>194.8</ele>
        <time>2020-08-14T11:49:49Z</time>
      </trkpt>
      <trkpt lat="48.73198" lon="7.33823">
        <ele>195.8</ele>
        <time>2020-08-14T11:49:51Z</time>
      </trkpt>
      <trkpt lat="48.73201" lon="7.33846">
        <ele>195.8</ele>
        <time>2020-08-14T11:49:53Z</time>
      </trkpt>
      <trkpt lat="48.73206" lon="7.33869">
        <ele>195.9</ele>
        <time>2020-08-14T11:49:55Z</time>
      </trkpt>
      <trkpt lat="48.73213" lon="7.3389">
        <ele>195.3</ele>
        <time>2020-08-14T11:49:57Z</time>
      </trkpt>
      <trkpt lat="48.73223" lon="7.33908">
        <ele>195.1</ele>
        <time>2020-08-14T11:49:59Z</time>
      </trkpt>
      <trkpt lat="48.73234" lon="7.33927">
        <ele>194.6</ele>
        <time>2020-08-14T11:50:01Z</time>
      </trkpt>
      <trkpt lat="48.73245" lon="7.33944">
        <ele>194.1</ele>
        <time>2020-08-14T11:50:03Z</time>
      </trkpt>
      <trkpt lat="48.73258" lon="7.33955">
        <ele>194</ele>
        <time>2020-08-14T11:50:05Z</time>
      </trkpt>
      <trkpt lat="48.73271" lon="7.33963">
        <ele>194.1</ele>
        <time>2020-08-14T11:50:07Z</time>
      </trkpt>
      <trkpt lat="48.73284" lon="7.33976">
        <ele>194.3</ele>
        <time>2020-08-14T11:50:09Z</time>
      </trkpt>
      <trkpt lat="48.73299" lon="7.33987">
        <ele>194.4</ele>
        <time>2020-08-14T11:50:11Z</time>
      </trkpt>
      <trkpt lat="48.73314" lon="7.33999">
        <ele>195</ele>
        <time>2020-08-14T11:50:13Z</time>
      </trkpt>
      <trkpt lat="48.73329" lon="7.34012">
        <ele>195.6</ele>
        <time>2020-08-14T11:50:15Z</time>
      </trkpt>
      <trkpt lat="48.73341" lon="7.34028">
        <ele>195.8</ele>
        <time>2020-08-14T11:50:17Z</time>
      </trkpt>
      <trkpt lat="48.73349" lon="7.34047">
        <ele>195.9</ele>
        <time>2020-08-14T11:50:19Z</time>
      </trkpt>
      <trkpt lat="48.7335" lon="7.34067">
        <ele>196.5</ele>
        <time>2020-08-14T11:50:21Z</time>
      </trkpt>
      <trkpt lat="48.73348" lon="7.34086">
        <ele>196.7</ele>
        <time>2020-08-14T11:50:23Z</time>
      </trkpt>
      <trkpt lat="48.73344" lon="7.34102">
        <ele>196.2</ele>
        <time>2020-08-14T11:50:25Z</time>
      </trkpt>
      <trkpt lat="48.73341" lon="7.34114">
        <ele>195.7</ele>
        <time>2020-08-14T11:50:27Z</time>
      </trkpt>
      <trkpt lat="48.73342" lon="7.34123">
        <ele>195.7</ele>
        <time>2020-08-14T11:50:29Z</time>
      </trkpt>
      <trkpt lat="48.73346" lon="7.34131">
        <ele>196</ele>
        <time>2020-08-14T11:50:31Z</time>
      </trkpt>
      <trkpt lat="48.7335" lon="7.34137">
        <ele>195.6</ele>
        <time>2020-08-14T11:50:33Z</time>
      </trkpt>
      <trkpt lat="48.73357" lon="7.34143">
        <ele>195.5</ele>
        <time>2020-08-14T11:50:35Z</time>
      </trkpt>
      <trkpt lat="48.73365" lon="7.34149">
        <ele>195.2</ele>
        <time>2020-08-14T11:50:37Z</time>
      </trkpt>
      <trkpt lat="48.73374" lon="7.34157">
        <ele>195.2</ele>
        <time>2020-08-14T11:50:39Z</time>
      </trkpt>
      <trkpt lat="48.73383" lon="7.34164">
        <ele>195.2</ele>
        <time>2020-08-14T11:50:41Z</time>
      </trkpt>
      <trkpt lat="48.73394" lon="7.34172">
        <ele>195.1</ele>
        <time>2020-08-14T11:50:43Z</time>
      </trkpt>
      <trkpt lat="48.73406" lon="7.3418">
        <ele>195.3</ele>
        <time>2020-08-14T11:50:45Z</time>
      </trkpt>
      <trkpt lat="48.73417" lon="7.3419">
        <ele>195.3</ele>
        <time>2020-08-14T11:50:47Z</time>
      </trkpt>
      <trkpt lat="48.73428" lon="7.34201">
        <ele>195.3</ele>
        <time>2020-08-14T11:50:49Z</time>
      </trkpt>
      <trkpt lat="48.73438" lon="7.34212">
        <ele>195</ele>
        <time>2020-08-14T11:50:51Z</time>
      </trkpt>
      <trkpt lat="48.73448" lon="7.34224">
        <ele>194.5</ele>
        <time>2020-08-14T11:50:53Z</time>
      </trkpt>
      <trkpt lat="48.73458" lon="7.34235">
        <ele>194.2</ele>
        <time>2020-08-14T11:50:55Z</time>
      </trkpt>
      <trkpt lat="48.73468" lon="7.34247">
        <ele>193.8</ele>
        <time>2020-08-14T11:50:57Z</time>
      </trkpt>
      <trkpt lat="48.73478" lon="7.3426">
        <ele>193.6</ele>
        <time>2020-08-14T11:50:59Z</time>
      </trkpt>
      <trkpt lat="48.73487" lon="7.34274">
        <ele>193.3</ele>
        <time>2020-08-14T11:51:01Z</time>
      </trkpt>
      <trkpt lat="48.73497" lon="7.34288">
        <ele>193</ele>
        <time>2020-08-14T11:51:03Z</time>
      </trkpt>
      <trkpt lat="48.73505" lon="7.34302">
        <ele>192.7</ele>
        <time>2020-08-14T11:51:05Z</time>
      </trkpt>
      <trkpt lat="48.73515" lon="7.34316">
        <ele>192.3</ele>
        <time>2020-08-14T11:51:07Z</time>
      </trkpt>
      <trkpt lat="48.73524" lon="7.34329">
        <ele>192.1</ele>
        <time>2020-08-14T11:51:09Z</time>
      </trkpt>
      <trkpt lat="48.73532" lon="7.34344">
        <ele>191.8</ele>
        <time>2020-08-14T11:51:11Z</time>
      </trkpt>
      <trkpt lat="48.73541" lon="7.34358">
        <ele>192.1</ele>
        <time>2020-08-14T11:51:13Z</time>
      </trkpt>
      <trkpt lat="48.7355" lon="7.34373">
        <ele>192.1</ele>
        <time>2020-08-14T11:51:15Z</time>
      </trkpt>
      <trkpt lat="48.73559" lon="7.34388">
        <ele>192.1</ele>
        <time>2020-08-14T11:51:17Z</time>
      </trkpt>
      <trkpt lat="48.73567" lon="7.34403">
        <ele>192</ele>
        <time>2020-08-14T11:51:19Z</time>
      </trkpt>
      <trkpt lat="48.73576" lon="7.34418">
        <ele>191.9</ele>
        <time>2020-08-14T11:51:21Z</time>
      </trkpt>
      <trkpt lat="48.73589" lon="7.34441">
        <ele>192.1</ele>
        <time>2020-08-14T11:51:24Z</time>
      </trkpt>
      <trkpt lat="48.73598" lon="7.34456">
        <ele>192.1</ele>
        <time>2020-08-14T11:51:26Z</time>
      </trkpt>
      <trkpt lat="48.73606" lon="7.3447">
        <ele>192.2</ele>
        <time>2020-08-14T11:51:28Z</time>
      </trkpt>
      <trkpt lat="48.73619" lon="7.34494">
        <ele>192</ele>
        <time>2020-08-14T11:51:31Z</time>
      </trkpt>
      <trkpt lat="48.73628" lon="7.34509">
        <ele>191.6</ele>
        <time>2020-08-14T11:51:33Z</time>
      </trkpt>
      <trkpt lat="48.73636" lon="7.34523">
        <ele>190.9</ele>
        <time>2020-08-14T11:51:35Z</time>
      </trkpt>
      <trkpt lat="48.73644" lon="7.34534">
        <ele>190.5</ele>
        <time>2020-08-14T11:51:37Z</time>
      </trkpt>
      <trkpt lat="48.7365" lon="7.34543">
        <ele>190.2</ele>
        <time>2020-08-14T11:51:40Z</time>
      </trkpt>
      <trkpt lat="48.73654" lon="7.34547">
        <ele>193.7</ele>
        <time>2020-08-14T11:52:04Z</time>
      </trkpt>
      <trkpt lat="48.73658" lon="7.34552">
        <ele>194.3</ele>
        <time>2020-08-14T11:52:19Z</time>
      </trkpt>
      <trkpt lat="48.73665" lon="7.34559">
        <ele>194.5</ele>
        <time>2020-08-14T11:52:22Z</time>
      </trkpt>
      <trkpt lat="48.73673" lon="7.34571">
        <ele>194.5</ele>
        <time>2020-08-14T11:52:25Z</time>
      </trkpt>
      <trkpt lat="48.7368" lon="7.3458">
        <ele>194.5</ele>
        <time>2020-08-14T11:52:27Z</time>
      </trkpt>
      <trkpt lat="48.73692" lon="7.34596">
        <ele>194</ele>
        <time>2020-08-14T11:52:30Z</time>
      </trkpt>
      <trkpt lat="48.737" lon="7.34607">
        <ele>194.1</ele>
        <time>2020-08-14T11:52:32Z</time>
      </trkpt>
      <trkpt lat="48.73709" lon="7.34621">
        <ele>194.1</ele>
        <time>2020-08-14T11:52:34Z</time>
      </trkpt>
      <trkpt lat="48.73719" lon="7.34633">
        <ele>194.3</ele>
        <time>2020-08-14T11:52:36Z</time>
      </trkpt>
      <trkpt lat="48.73733" lon="7.34651">
        <ele>194.5</ele>
        <time>2020-08-14T11:52:39Z</time>
      </trkpt>
      <trkpt lat="48.73744" lon="7.34662">
        <ele>194.4</ele>
        <time>2020-08-14T11:52:41Z</time>
      </trkpt>
      <trkpt lat="48.73763" lon="7.34676">
        <ele>193.6</ele>
        <time>2020-08-14T11:52:44Z</time>
      </trkpt>
      <trkpt lat="48.73775" lon="7.34684">
        <ele>193.1</ele>
        <time>2020-08-14T11:52:46Z</time>
      </trkpt>
      <trkpt lat="48.73788" lon="7.34692">
        <ele>192.1</ele>
        <time>2020-08-14T11:52:48Z</time>
      </trkpt>
      <trkpt lat="48.73799" lon="7.34699">
        <ele>191.7</ele>
        <time>2020-08-14T11:52:50Z</time>
      </trkpt>
      <trkpt lat="48.73811" lon="7.34708">
        <ele>191.5</ele>
        <time>2020-08-14T11:52:52Z</time>
      </trkpt>
      <trkpt lat="48.73822" lon="7.34716">
        <ele>191.3</ele>
        <time>2020-08-14T11:52:54Z</time>
      </trkpt>
      <trkpt lat="48.73834" lon="7.34726">
        <ele>191.3</ele>
        <time>2020-08-14T11:52:56Z</time>
      </trkpt>
      <trkpt lat="48.73845" lon="7.34736">
        <ele>191.3</ele>
        <time>2020-08-14T11:52:58Z</time>
      </trkpt>
      <trkpt lat="48.73855" lon="7.34748">
        <ele>191.5</ele>
        <time>2020-08-14T11:53:00Z</time>
      </trkpt>
      <trkpt lat="48.73865" lon="7.34759">
        <ele>191.2</ele>
        <time>2020-08-14T11:53:02Z</time>
      </trkpt>
      <trkpt lat="48.73875" lon="7.3477">
        <ele>191.4</ele>
        <time>2020-08-14T11:53:04Z</time>
      </trkpt>
      <trkpt lat="48.73886" lon="7.34781">
        <ele>191.7</ele>
        <time>2020-08-14T11:53:06Z</time>
      </trkpt>
      <trkpt lat="48.73902" lon="7.34797">
        <ele>192.6</ele>
        <time>2020-08-14T11:53:09Z</time>
      </trkpt>
      <trkpt lat="48.73913" lon="7.34806">
        <ele>192.2</ele>
        <time>2020-08-14T11:53:11Z</time>
      </trkpt>
      <trkpt lat="48.7393" lon="7.3482">
        <ele>191.7</ele>
        <time>2020-08-14T11:53:14Z</time>
      </trkpt>
      <trkpt lat="48.73941" lon="7.3483">
        <ele>191.4</ele>
        <time>2020-08-14T11:53:16Z</time>
      </trkpt>
      <trkpt lat="48.73952" lon="7.34839">
        <ele>191.3</ele>
        <time>2020-08-14T11:53:18Z</time>
      </trkpt>
      <trkpt lat="48.73968" lon="7.34855">
        <ele>191</ele>
        <time>2020-08-14T11:53:21Z</time>
      </trkpt>
      <trkpt lat="48.73978" lon="7.34866">
        <ele>191</ele>
        <time>2020-08-14T11:53:23Z</time>
      </trkpt>
      <trkpt lat="48.73994" lon="7.34883">
        <ele>190.8</ele>
        <time>2020-08-14T11:53:26Z</time>
      </trkpt>
      <trkpt lat="48.74005" lon="7.34895">
        <ele>190.5</ele>
        <time>2020-08-14T11:53:28Z</time>
      </trkpt>
      <trkpt lat="48.74015" lon="7.34905">
        <ele>190.5</ele>
        <time>2020-08-14T11:53:30Z</time>
      </trkpt>
      <trkpt lat="48.74026" lon="7.34916">
        <ele>190.3</ele>
        <time>2020-08-14T11:53:32Z</time>
      </trkpt>
      <trkpt lat="48.74036" lon="7.34929">
        <ele>190.3</ele>
        <time>2020-08-14T11:53:34Z</time>
      </trkpt>
      <trkpt lat="48.74046" lon="7.34941">
        <ele>189.5</ele>
        <time>2020-08-14T11:53:36Z</time>
      </trkpt>
      <trkpt lat="48.74058" lon="7.34963">
        <ele>189.5</ele>
        <time>2020-08-14T11:53:39Z</time>
      </trkpt>
      <trkpt lat="48.74066" lon="7.34979">
        <ele>189.6</ele>
        <time>2020-08-14T11:53:41Z</time>
      </trkpt>
      <trkpt lat="48.74072" lon="7.34996">
        <ele>189.9</ele>
        <time>2020-08-14T11:53:43Z</time>
      </trkpt>
      <trkpt lat="48.74079" lon="7.35013">
        <ele>189.9</ele>
        <time>2020-08-14T11:53:45Z</time>
      </trkpt>
      <trkpt lat="48.74085" lon="7.3503">
        <ele>190</ele>
        <time>2020-08-14T11:53:47Z</time>
      </trkpt>
      <trkpt lat="48.74091" lon="7.35048">
        <ele>189.9</ele>
        <time>2020-08-14T11:53:49Z</time>
      </trkpt>
      <trkpt lat="48.74096" lon="7.35067">
        <ele>190</ele>
        <time>2020-08-14T11:53:51Z</time>
      </trkpt>
      <trkpt lat="48.74101" lon="7.35085">
        <ele>190.1</ele>
        <time>2020-08-14T11:53:53Z</time>
      </trkpt>
      <trkpt lat="48.74104" lon="7.35104">
        <ele>190</ele>
        <time>2020-08-14T11:53:55Z</time>
      </trkpt>
      <trkpt lat="48.74108" lon="7.35123">
        <ele>190.3</ele>
        <time>2020-08-14T11:53:57Z</time>
      </trkpt>
      <trkpt lat="48.74111" lon="7.35143">
        <ele>191.1</ele>
        <time>2020-08-14T11:53:59Z</time>
      </trkpt>
      <trkpt lat="48.74113" lon="7.35163">
        <ele>191.4</ele>
        <time>2020-08-14T11:54:01Z</time>
      </trkpt>
      <trkpt lat="48.74114" lon="7.35184">
        <ele>191.7</ele>
        <time>2020-08-14T11:54:03Z</time>
      </trkpt>
      <trkpt lat="48.74116" lon="7.35207">
        <ele>192.1</ele>
        <time>2020-08-14T11:54:05Z</time>
      </trkpt>
      <trkpt lat="48.74117" lon="7.3523">
        <ele>192.6</ele>
        <time>2020-08-14T11:54:07Z</time>
      </trkpt>
      <trkpt lat="48.74118" lon="7.35253">
        <ele>193</ele>
        <time>2020-08-14T11:54:09Z</time>
      </trkpt>
      <trkpt lat="48.74118" lon="7.35277">
        <ele>192.8</ele>
        <time>2020-08-14T11:54:11Z</time>
      </trkpt>
      <trkpt lat="48.74117" lon="7.35302">
        <ele>192.8</ele>
        <time>2020-08-14T11:54:13Z</time>
      </trkpt>
      <trkpt lat="48.74117" lon="7.35326">
        <ele>193</ele>
        <time>2020-08-14T11:54:15Z</time>
      </trkpt>
      <trkpt lat="48.74116" lon="7.3535">
        <ele>193</ele>
        <time>2020-08-14T11:54:17Z</time>
      </trkpt>
      <trkpt lat="48.74116" lon="7.35374">
        <ele>193.4</ele>
        <time>2020-08-14T11:54:19Z</time>
      </trkpt>
      <trkpt lat="48.74115" lon="7.35409">
        <ele>193.6</ele>
        <time>2020-08-14T11:54:22Z</time>
      </trkpt>
      <trkpt lat="48.74114" lon="7.35432">
        <ele>193.4</ele>
        <time>2020-08-14T11:54:24Z</time>
      </trkpt>
      <trkpt lat="48.74113" lon="7.35464">
        <ele>193.3</ele>
        <time>2020-08-14T11:54:27Z</time>
      </trkpt>
      <trkpt lat="48.74112" lon="7.35485">
        <ele>193.1</ele>
        <time>2020-08-14T11:54:29Z</time>
      </trkpt>
      <trkpt lat="48.74112" lon="7.35505">
        <ele>194</ele>
        <time>2020-08-14T11:54:31Z</time>
      </trkpt>
      <trkpt lat="48.74111" lon="7.35524">
        <ele>194.7</ele>
        <time>2020-08-14T11:54:33Z</time>
      </trkpt>
      <trkpt lat="48.74111" lon="7.35542">
        <ele>194.6</ele>
        <time>2020-08-14T11:54:35Z</time>
      </trkpt>
      <trkpt lat="48.74112" lon="7.35562">
        <ele>194.8</ele>
        <time>2020-08-14T11:54:37Z</time>
      </trkpt>
      <trkpt lat="48.74111" lon="7.35593">
        <ele>194.5</ele>
        <time>2020-08-14T11:54:40Z</time>
      </trkpt>
      <trkpt lat="48.74109" lon="7.35616">
        <ele>194.5</ele>
        <time>2020-08-14T11:54:42Z</time>
      </trkpt>
      <trkpt lat="48.74107" lon="7.35651">
        <ele>195</ele>
        <time>2020-08-14T11:54:45Z</time>
      </trkpt>
      <trkpt lat="48.74107" lon="7.35675">
        <ele>196</ele>
        <time>2020-08-14T11:54:47Z</time>
      </trkpt>
      <trkpt lat="48.74106" lon="7.35699">
        <ele>196.5</ele>
        <time>2020-08-14T11:54:49Z</time>
      </trkpt>
      <trkpt lat="48.74105" lon="7.35723">
        <ele>197.1</ele>
        <time>2020-08-14T11:54:51Z</time>
      </trkpt>
      <trkpt lat="48.74104" lon="7.35748">
        <ele>197.2</ele>
        <time>2020-08-14T11:54:53Z</time>
      </trkpt>
      <trkpt lat="48.74104" lon="7.35773">
        <ele>197.5</ele>
        <time>2020-08-14T11:54:55Z</time>
      </trkpt>
      <trkpt lat="48.74103" lon="7.35798">
        <ele>197.5</ele>
        <time>2020-08-14T11:54:57Z</time>
      </trkpt>
      <trkpt lat="48.74102" lon="7.35822">
        <ele>197.8</ele>
        <time>2020-08-14T11:54:59Z</time>
      </trkpt>
      <trkpt lat="48.74103" lon="7.35847">
        <ele>198.2</ele>
        <time>2020-08-14T11:55:01Z</time>
      </trkpt>
      <trkpt lat="48.74105" lon="7.35873">
        <ele>198.9</ele>
        <time>2020-08-14T11:55:03Z</time>
      </trkpt>
      <trkpt lat="48.74108" lon="7.35897">
        <ele>199.6</ele>
        <time>2020-08-14T11:55:05Z</time>
      </trkpt>
      <trkpt lat="48.74112" lon="7.3592">
        <ele>200.3</ele>
        <time>2020-08-14T11:55:07Z</time>
      </trkpt>
      <trkpt lat="48.74118" lon="7.35942">
        <ele>200.7</ele>
        <time>2020-08-14T11:55:09Z</time>
      </trkpt>
      <trkpt lat="48.74127" lon="7.35956">
        <ele>201</ele>
        <time>2020-08-14T11:55:11Z</time>
      </trkpt>
      <trkpt lat="48.74136" lon="7.35972">
        <ele>200.7</ele>
        <time>2020-08-14T11:55:13Z</time>
      </trkpt>
      <trkpt lat="48.74144" lon="7.35987">
        <ele>199.8</ele>
        <time>2020-08-14T11:55:15Z</time>
      </trkpt>
      <trkpt lat="48.74151" lon="7.36001">
        <ele>198.7</ele>
        <time>2020-08-14T11:55:17Z</time>
      </trkpt>
      <trkpt lat="48.74158" lon="7.36015">
        <ele>198.2</ele>
        <time>2020-08-14T11:55:19Z</time>
      </trkpt>
      <trkpt lat="48.74166" lon="7.36029">
        <ele>197.8</ele>
        <time>2020-08-14T11:55:21Z</time>
      </trkpt>
      <trkpt lat="48.74173" lon="7.36042">
        <ele>197.3</ele>
        <time>2020-08-14T11:55:23Z</time>
      </trkpt>
      <trkpt lat="48.74181" lon="7.36054">
        <ele>196.9</ele>
        <time>2020-08-14T11:55:25Z</time>
      </trkpt>
      <trkpt lat="48.74188" lon="7.36067">
        <ele>197</ele>
        <time>2020-08-14T11:55:27Z</time>
      </trkpt>
      <trkpt lat="48.74195" lon="7.3608">
        <ele>197</ele>
        <time>2020-08-14T11:55:29Z</time>
      </trkpt>
      <trkpt lat="48.74202" lon="7.36092">
        <ele>196.9</ele>
        <time>2020-08-14T11:55:31Z</time>
      </trkpt>
      <trkpt lat="48.74209" lon="7.36102">
        <ele>196.8</ele>
        <time>2020-08-14T11:55:33Z</time>
      </trkpt>
      <trkpt lat="48.7421" lon="7.36114">
        <ele>196.6</ele>
        <time>2020-08-14T11:55:35Z</time>
      </trkpt>
      <trkpt lat="48.74207" lon="7.36125">
        <ele>195.4</ele>
        <time>2020-08-14T11:55:37Z</time>
      </trkpt>
      <trkpt lat="48.74201" lon="7.36136">
        <ele>194.9</ele>
        <time>2020-08-14T11:55:39Z</time>
      </trkpt>
      <trkpt lat="48.74196" lon="7.36145">
        <ele>193.7</ele>
        <time>2020-08-14T11:55:41Z</time>
      </trkpt>
      <trkpt lat="48.74192" lon="7.36158">
        <ele>193.4</ele>
        <time>2020-08-14T11:55:43Z</time>
      </trkpt>
      <trkpt lat="48.74191" lon="7.3617">
        <ele>193.3</ele>
        <time>2020-08-14T11:55:45Z</time>
      </trkpt>
      <trkpt lat="48.74194" lon="7.36182">
        <ele>193.6</ele>
        <time>2020-08-14T11:55:47Z</time>
      </trkpt>
      <trkpt lat="48.74199" lon="7.36194">
        <ele>194.3</ele>
        <time>2020-08-14T11:55:49Z</time>
      </trkpt>
      <trkpt lat="48.74207" lon="7.36206">
        <ele>194.7</ele>
        <time>2020-08-14T11:55:51Z</time>
      </trkpt>
      <trkpt lat="48.74213" lon="7.36219">
        <ele>194.5</ele>
        <time>2020-08-14T11:55:53Z</time>
      </trkpt>
      <trkpt lat="48.74221" lon="7.36233">
        <ele>194.4</ele>
        <time>2020-08-14T11:55:55Z</time>
      </trkpt>
      <trkpt lat="48.74224" lon="7.36247">
        <ele>194.3</ele>
        <time>2020-08-14T11:55:57Z</time>
      </trkpt>
      <trkpt lat="48.7422" lon="7.3626">
        <ele>194.1</ele>
        <time>2020-08-14T11:55:59Z</time>
      </trkpt>
      <trkpt lat="48.74214" lon="7.3627">
        <ele>194.1</ele>
        <time>2020-08-14T11:56:01Z</time>
      </trkpt>
      <trkpt lat="48.74206" lon="7.36279">
        <ele>194.2</ele>
        <time>2020-08-14T11:56:03Z</time>
      </trkpt>
    </trkseg>
  </trk>
  <trk>
    <name><![CDATA[secteur Saverne - Dabo - Petite Pierre_22]]></name>
    <trkseg>
      <trkpt lat="48.73866" lon="7.26167">
        <ele>272.07</ele>
        <time>2020-05-21T17:10:15.000Z</time>
      </trkpt>
      <trkpt lat="48.73866" lon="7.26167">
        <ele>272.07</ele>
        <time>2020-05-21T17:10:15.000Z</time>
      </trkpt>
      <trkpt lat="48.73866" lon="7.26167">
        <ele>272.07</ele>
        <time>2020-05-21T17:10:15.000Z</time>
      </trkpt>
      <trkpt lat="48.73866" lon="7.26167">
        <ele>272.07</ele>
        <time>2020-05-21T17:10:15.000Z</time>
      </trkpt>
      <trkpt lat="48.73866" lon="7.26167">
        <ele>272.07</ele>
        <time>2020-05-21T17:10:15.000Z</time>
      </trkpt>
      <trkpt lat="48.73866" lon="7.26167">
        <ele>272.07</ele>
        <time>2020-05-21T17:10:15.000Z</time>
      </trkpt>
      <trkpt lat="48.73866" lon="7.26167">
        <ele>272.07</ele>
        <time>2020-05-21T17:10:15.000Z</time>
      </trkpt>
      <trkpt lat="48.73863" lon="7.26161">
        <ele>272.65</ele>
        <time>2020-05-21T17:10:17.000Z</time>
      </trkpt>
      <trkpt lat="48.7386" lon="7.26155">
        <ele>274.07</ele>
        <time>2020-05-21T17:10:19.000Z</time>
      </trkpt>
      <trkpt lat="48.73858" lon="7.26147">
        <ele>274.28</ele>
        <time>2020-05-21T17:10:22.000Z</time>
      </trkpt>
      <trkpt lat="48.73856" lon="7.2614">
        <ele>273.33</ele>
        <time>2020-05-21T17:10:24.000Z</time>
      </trkpt>
      <trkpt lat="48.73852" lon="7.26132">
        <ele>271.73</ele>
        <time>2020-05-21T17:10:27.000Z</time>
      </trkpt>
      <trkpt lat="48.7385" lon="7.26127">
        <ele>271.94</ele>
        <time>2020-05-21T17:10:29.000Z</time>
      </trkpt>
      <trkpt lat="48.73846" lon="7.2612">
        <ele>271.25</ele>
        <time>2020-05-21T17:10:32.000Z</time>
      </trkpt>
      <trkpt lat="48.73843" lon="7.26112">
        <ele>273.45</ele>
        <time>2020-05-21T17:10:35.000Z</time>
      </trkpt>
      <trkpt lat="48.73839" lon="7.26104">
        <ele>272.98</ele>
        <time>2020-05-21T17:10:38.000Z</time>
      </trkpt>
      <trkpt lat="48.73836" lon="7.26099">
        <ele>273.24</ele>
        <time>2020-05-21T17:10:40.000Z</time>
      </trkpt>
      <trkpt lat="48.73833" lon="7.26092">
        <ele>274.27</ele>
        <time>2020-05-21T17:10:43.000Z</time>
      </trkpt>
      <trkpt lat="48.73829" lon="7.26085">
        <ele>274.16</ele>
        <time>2020-05-21T17:10:46.000Z</time>
      </trkpt>
      <trkpt lat="48.73826" lon="7.26076">
        <ele>272.66</ele>
        <time>2020-05-21T17:10:49.000Z</time>
      </trkpt>
      <trkpt lat="48.73822" lon="7.26068">
        <ele>275.44</ele>
        <time>2020-05-21T17:10:52.000Z</time>
      </trkpt>
      <trkpt lat="48.73818" lon="7.2606">
        <ele>277.25</ele>
        <time>2020-05-21T17:10:55.000Z</time>
      </trkpt>
      <trkpt lat="48.73814" lon="7.26056">
        <ele>276.15</ele>
        <time>2020-05-21T17:10:57.000Z</time>
      </trkpt>
      <trkpt lat="48.73812" lon="7.26049">
        <ele>276.46</ele>
        <time>2020-05-21T17:11:00.000Z</time>
      </trkpt>
      <trkpt lat="48.73808" lon="7.26044">
        <ele>277.02</ele>
        <time>2020-05-21T17:11:02.000Z</time>
      </trkpt>
      <trkpt lat="48.73805" lon="7.26038">
        <ele>276.99</ele>
        <time>2020-05-21T17:11:04.000Z</time>
      </trkpt>
      <trkpt lat="48.73802" lon="7.26033">
        <ele>278.13</ele>
        <time>2020-05-21T17:11:06.000Z</time>
      </trkpt>
      <trkpt lat="48.73797" lon="7.26028">
        <ele>278.55</ele>
        <time>2020-05-21T17:11:09.000Z</time>
      </trkpt>
      <trkpt lat="48.73791" lon="7.26022">
        <ele>281.2</ele>
        <time>2020-05-21T17:11:12.000Z</time>
      </trkpt>
      <trkpt lat="48.73788" lon="7.26017">
        <ele>282.84</ele>
        <time>2020-05-21T17:11:14.000Z</time>
      </trkpt>
      <trkpt lat="48.73784" lon="7.26013">
        <ele>284.45</ele>
        <time>2020-05-21T17:11:16.000Z</time>
      </trkpt>
      <trkpt lat="48.7378" lon="7.26007">
        <ele>284.46</ele>
        <time>2020-05-21T17:11:19.000Z</time>
      </trkpt>
      <trkpt lat="48.73777" lon="7.26001">
        <ele>285.05</ele>
        <time>2020-05-21T17:11:22.000Z</time>
      </trkpt>
      <trkpt lat="48.73773" lon="7.25997">
        <ele>286.59</ele>
        <time>2020-05-21T17:11:24.000Z</time>
      </trkpt>
      <trkpt lat="48.73768" lon="7.25992">
        <ele>287.66</ele>
        <time>2020-05-21T17:11:27.000Z</time>
      </trkpt>
      <trkpt lat="48.73762" lon="7.25988">
        <ele>286.41</ele>
        <time>2020-05-21T17:11:30.000Z</time>
      </trkpt>
      <trkpt lat="48.73757" lon="7.25984">
        <ele>286.53</ele>
        <time>2020-05-21T17:11:33.000Z</time>
      </trkpt>
      <trkpt lat="48.73752" lon="7.25977">
        <ele>286.12</ele>
        <time>2020-05-21T17:11:36.000Z</time>
      </trkpt>
      <trkpt lat="48.73748" lon="7.25972">
        <ele>283.9</ele>
        <time>2020-05-21T17:11:38.000Z</time>
      </trkpt>
      <trkpt lat="48.73744" lon="7.25966">
        <ele>280.46</ele>
        <time>2020-05-21T17:11:40.000Z</time>
      </trkpt>
      <trkpt lat="48.73741" lon="7.2596">
        <ele>282.26</ele>
        <time>2020-05-21T17:11:42.000Z</time>
      </trkpt>
      <trkpt lat="48.73736" lon="7.25954">
        <ele>284.05</ele>
        <time>2020-05-21T17:11:45.000Z</time>
      </trkpt>
      <trkpt lat="48.73731" lon="7.2595">
        <ele>287.85</ele>
        <time>2020-05-21T17:11:48.000Z</time>
      </trkpt>
      <trkpt lat="48.73728" lon="7.25943">
        <ele>287.67</ele>
        <time>2020-05-21T17:11:51.000Z</time>
      </trkpt>
      <trkpt lat="48.73723" lon="7.25935">
        <ele>287.76</ele>
        <time>2020-05-21T17:11:54.000Z</time>
      </trkpt>
      <trkpt lat="48.73719" lon="7.25928">
        <ele>290.67</ele>
        <time>2020-05-21T17:11:57.000Z</time>
      </trkpt>
      <trkpt lat="48.73715" lon="7.25922">
        <ele>290.67</ele>
        <time>2020-05-21T17:12:00.000Z</time>
      </trkpt>
      <trkpt lat="48.73711" lon="7.25915">
        <ele>291.69</ele>
        <time>2020-05-21T17:12:03.000Z</time>
      </trkpt>
      <trkpt lat="48.73706" lon="7.25907">
        <ele>293.73</ele>
        <time>2020-05-21T17:12:06.000Z</time>
      </trkpt>
      <trkpt lat="48.73704" lon="7.25901">
        <ele>294.88</ele>
        <time>2020-05-21T17:12:08.000Z</time>
      </trkpt>
      <trkpt lat="48.737" lon="7.25895">
        <ele>295.26</ele>
        <time>2020-05-21T17:12:10.000Z</time>
      </trkpt>
      <trkpt lat="48.73696" lon="7.25889">
        <ele>297.79</ele>
        <time>2020-05-21T17:12:13.000Z</time>
      </trkpt>
      <trkpt lat="48.73693" lon="7.25884">
        <ele>295.84</ele>
        <time>2020-05-21T17:12:15.000Z</time>
      </trkpt>
      <trkpt lat="48.7369" lon="7.25878">
        <ele>296.68</ele>
        <time>2020-05-21T17:12:18.000Z</time>
      </trkpt>
      <trkpt lat="48.73686" lon="7.2587">
        <ele>298.18</ele>
        <time>2020-05-21T17:12:21.000Z</time>
      </trkpt>
      <trkpt lat="48.73682" lon="7.25862">
        <ele>299.44</ele>
        <time>2020-05-21T17:12:24.000Z</time>
      </trkpt>
      <trkpt lat="48.7368" lon="7.25855">
        <ele>299.76</ele>
        <time>2020-05-21T17:12:26.000Z</time>
      </trkpt>
      <trkpt lat="48.73679" lon="7.25848">
        <ele>299.85</ele>
        <time>2020-05-21T17:12:28.000Z</time>
      </trkpt>
      <trkpt lat="48.73677" lon="7.25842">
        <ele>299.69</ele>
        <time>2020-05-21T17:12:30.000Z</time>
      </trkpt>
      <trkpt lat="48.73675" lon="7.25832">
        <ele>297.76</ele>
        <time>2020-05-21T17:12:33.000Z</time>
      </trkpt>
      <trkpt lat="48.73674" lon="7.25825">
        <ele>296.28</ele>
        <time>2020-05-21T17:12:35.000Z</time>
      </trkpt>
      <trkpt lat="48.73672" lon="7.25817">
        <ele>296.99</ele>
        <time>2020-05-21T17:12:38.000Z</time>
      </trkpt>
      <trkpt lat="48.7367" lon="7.25811">
        <ele>298.91</ele>
        <time>2020-05-21T17:12:40.000Z</time>
      </trkpt>
      <trkpt lat="48.7367" lon="7.25802">
        <ele>297.96</ele>
        <time>2020-05-21T17:12:43.000Z</time>
      </trkpt>
      <trkpt lat="48.73666" lon="7.25764">
        <ele>297.33</ele>
        <time>2020-05-21T17:12:51.000Z</time>
      </trkpt>
      <trkpt lat="48.73665" lon="7.25752">
        <ele>296.6</ele>
        <time>2020-05-21T17:12:53.000Z</time>
      </trkpt>
      <trkpt lat="48.73664" lon="7.2574">
        <ele>296.52</ele>
        <time>2020-05-21T17:12:55.000Z</time>
      </trkpt>
      <trkpt lat="48.73664" lon="7.25727">
        <ele>297.65</ele>
        <time>2020-05-21T17:12:57.000Z</time>
      </trkpt>
      <trkpt lat="48.73662" lon="7.25715">
        <ele>300.15</ele>
        <time>2020-05-21T17:12:59.000Z</time>
      </trkpt>
      <trkpt lat="48.73662" lon="7.25702">
        <ele>300</ele>
        <time>2020-05-21T17:13:01.000Z</time>
      </trkpt>
      <trkpt lat="48.73662" lon="7.25689">
        <ele>298.07</ele>
        <time>2020-05-21T17:13:03.000Z</time>
      </trkpt>
      <trkpt lat="48.73664" lon="7.25677">
        <ele>300.16</ele>
        <time>2020-05-21T17:13:05.000Z</time>
      </trkpt>
      <trkpt lat="48.73666" lon="7.25667">
        <ele>299.68</ele>
        <time>2020-05-21T17:13:07.000Z</time>
      </trkpt>
      <trkpt lat="48.73668" lon="7.25658">
        <ele>299.7</ele>
        <time>2020-05-21T17:13:09.000Z</time>
      </trkpt>
      <trkpt lat="48.7367" lon="7.25649">
        <ele>298.97</ele>
        <time>2020-05-21T17:13:11.000Z</time>
      </trkpt>
      <trkpt lat="48.73672" lon="7.25641">
        <ele>297.83</ele>
        <time>2020-05-21T17:13:13.000Z</time>
      </trkpt>
      <trkpt lat="48.73674" lon="7.25633">
        <ele>284.46</ele>
        <time>2020-05-21T17:13:15.000Z</time>
      </trkpt>
      <trkpt lat="48.73675" lon="7.25626">
        <ele>328.91</ele>
        <time>2020-05-21T17:13:17.000Z</time>
      </trkpt>
      <trkpt lat="48.73676" lon="7.25616">
        <ele>313.35</ele>
        <time>2020-05-21T17:13:19.000Z</time>
      </trkpt>
      <trkpt lat="48.73679" lon="7.25605">
        <ele>307.79</ele>
        <time>2020-05-21T17:13:21.000Z</time>
      </trkpt>
      <trkpt lat="48.73683" lon="7.25593">
        <ele>303.35</ele>
        <time>2020-05-21T17:13:23.000Z</time>
      </trkpt>
      <trkpt lat="48.73685" lon="7.25582">
        <ele>301.8</ele>
        <time>2020-05-21T17:13:25.000Z</time>
      </trkpt>
      <trkpt lat="48.73687" lon="7.2557">
        <ele>299.91</ele>
        <time>2020-05-21T17:13:27.000Z</time>
      </trkpt>
      <trkpt lat="48.73691" lon="7.25558">
        <ele>299.88</ele>
        <time>2020-05-21T17:13:29.000Z</time>
      </trkpt>
      <trkpt lat="48.73692" lon="7.2555">
        <ele>299.27</ele>
        <time>2020-05-21T17:13:30.000Z</time>
      </trkpt>
      <trkpt lat="48.73693" lon="7.25543">
        <ele>298.43</ele>
        <time>2020-05-21T17:13:31.000Z</time>
      </trkpt>
      <trkpt lat="48.73697" lon="7.25532">
        <ele>299.51</ele>
        <time>2020-05-21T17:13:33.000Z</time>
      </trkpt>
      <trkpt lat="48.73698" lon="7.25525">
        <ele>299.67</ele>
        <time>2020-05-21T17:13:34.000Z</time>
      </trkpt>
      <trkpt lat="48.737" lon="7.25517">
        <ele>298.24</ele>
        <time>2020-05-21T17:13:35.000Z</time>
      </trkpt>
      <trkpt lat="48.73711" lon="7.25478">
        <ele>294.74</ele>
        <time>2020-05-21T17:13:42.000Z</time>
      </trkpt>
      <trkpt lat="48.73713" lon="7.25472">
        <ele>294.69</ele>
        <time>2020-05-21T17:13:45.000Z</time>
      </trkpt>
      <trkpt lat="48.73716" lon="7.25465">
        <ele>294.31</ele>
        <time>2020-05-21T17:13:47.000Z</time>
      </trkpt>
      <trkpt lat="48.73712" lon="7.2547">
        <ele>300.27</ele>
        <time>2020-05-21T17:13:57.000Z</time>
      </trkpt>
      <trkpt lat="48.73712" lon="7.25477">
        <ele>298.5</ele>
        <time>2020-05-21T17:14:00.000Z</time>
      </trkpt>
      <trkpt lat="48.73711" lon="7.25488">
        <ele>298.1</ele>
        <time>2020-05-21T17:14:03.000Z</time>
      </trkpt>
    </trkseg>
  </trk>
  <trk>
    <name><![CDATA[secteur Saverne - Dabo - Petite Pierre_23]]></name>
    <trkseg>
      <trkpt lat="48.73708" lon="7.25494">
        <ele>295.96</ele>
        <time>2020-05-21T17:14:05.000Z</time>
      </trkpt>
      <trkpt lat="48.73708" lon="7.25494">
        <ele>295.96</ele>
        <time>2020-05-21T17:14:05.000Z</time>
      </trkpt>
      <trkpt lat="48.73708" lon="7.25494">
        <ele>295.96</ele>
        <time>2020-05-21T17:14:05.000Z</time>
      </trkpt>
      <trkpt lat="48.73708" lon="7.25494">
        <ele>295.96</ele>
        <time>2020-05-21T17:14:05.000Z</time>
      </trkpt>
      <trkpt lat="48.73708" lon="7.25494">
        <ele>295.96</ele>
        <time>2020-05-21T17:14:05.000Z</time>
      </trkpt>
      <trkpt lat="48.73708" lon="7.25494">
        <ele>295.96</ele>
        <time>2020-05-21T17:14:05.000Z</time>
      </trkpt>
      <trkpt lat="48.73708" lon="7.25494">
        <ele>295.96</ele>
        <time>2020-05-21T17:14:05.000Z</time>
      </trkpt>
      <trkpt lat="48.73711" lon="7.25489">
        <ele>295.39</ele>
        <time>2020-05-21T17:14:21.000Z</time>
      </trkpt>
      <trkpt lat="48.73717" lon="7.25487">
        <ele>291.99</ele>
        <time>2020-05-21T17:14:29.000Z</time>
      </trkpt>
      <trkpt lat="48.7372" lon="7.2548">
        <ele>295.47</ele>
        <time>2020-05-21T17:14:33.000Z</time>
      </trkpt>
      <trkpt lat="48.73723" lon="7.25474">
        <ele>296.96</ele>
        <time>2020-05-21T17:14:36.000Z</time>
      </trkpt>
      <trkpt lat="48.73727" lon="7.25467">
        <ele>354.67</ele>
        <time>2020-05-21T17:14:39.000Z</time>
      </trkpt>
      <trkpt lat="48.73731" lon="7.2546">
        <ele>331.25</ele>
        <time>2020-05-21T17:14:42.000Z</time>
      </trkpt>
      <trkpt lat="48.73734" lon="7.25455">
        <ele>320.17</ele>
        <time>2020-05-21T17:14:44.000Z</time>
      </trkpt>
      <trkpt lat="48.73738" lon="7.25449">
        <ele>299.13</ele>
        <time>2020-05-21T17:14:56.000Z</time>
      </trkpt>
      <trkpt lat="48.73742" lon="7.25443">
        <ele>298.56</ele>
        <time>2020-05-21T17:15:00.000Z</time>
      </trkpt>
      <trkpt lat="48.73743" lon="7.25435">
        <ele>296.89</ele>
        <time>2020-05-21T17:15:06.000Z</time>
      </trkpt>
      <trkpt lat="48.73745" lon="7.25427">
        <ele>299.14</ele>
        <time>2020-05-21T17:15:09.000Z</time>
      </trkpt>
      <trkpt lat="48.73749" lon="7.25419">
        <ele>298.94</ele>
        <time>2020-05-21T17:15:12.000Z</time>
      </trkpt>
      <trkpt lat="48.73752" lon="7.25414">
        <ele>300.15</ele>
        <time>2020-05-21T17:15:15.000Z</time>
      </trkpt>
      <trkpt lat="48.73757" lon="7.25407">
        <ele>298.21</ele>
        <time>2020-05-21T17:15:19.000Z</time>
      </trkpt>
      <trkpt lat="48.73761" lon="7.254">
        <ele>298.32</ele>
        <time>2020-05-21T17:15:22.000Z</time>
      </trkpt>
      <trkpt lat="48.73766" lon="7.25396">
        <ele>300.31</ele>
        <time>2020-05-21T17:15:26.000Z</time>
      </trkpt>
      <trkpt lat="48.73771" lon="7.25394">
        <ele>301.6</ele>
        <time>2020-05-21T17:15:29.000Z</time>
      </trkpt>
      <trkpt lat="48.73777" lon="7.25394">
        <ele>301.36</ele>
        <time>2020-05-21T17:15:32.000Z</time>
      </trkpt>
      <trkpt lat="48.73781" lon="7.2539">
        <ele>299.79</ele>
        <time>2020-05-21T17:15:38.000Z</time>
      </trkpt>
      <trkpt lat="48.73786" lon="7.25389">
        <ele>306.96</ele>
        <time>2020-05-21T17:15:55.000Z</time>
      </trkpt>
      <trkpt lat="48.73791" lon="7.25392">
        <ele>300.51</ele>
        <time>2020-05-21T17:16:12.000Z</time>
      </trkpt>
      <trkpt lat="48.73795" lon="7.25395">
        <ele>300.47</ele>
        <time>2020-05-21T17:16:19.000Z</time>
      </trkpt>
      <trkpt lat="48.738" lon="7.25396">
        <ele>302.43</ele>
        <time>2020-05-21T17:16:23.000Z</time>
      </trkpt>
      <trkpt lat="48.73805" lon="7.25397">
        <ele>303.25</ele>
        <time>2020-05-21T17:16:26.000Z</time>
      </trkpt>
      <trkpt lat="48.7381" lon="7.25394">
        <ele>310.68</ele>
        <time>2020-05-21T17:16:49.000Z</time>
      </trkpt>
      <trkpt lat="48.73816" lon="7.25393">
        <ele>311.12</ele>
        <time>2020-05-21T17:16:58.000Z</time>
      </trkpt>
      <trkpt lat="48.73822" lon="7.25393">
        <ele>312.6</ele>
        <time>2020-05-21T17:17:01.000Z</time>
      </trkpt>
      <trkpt lat="48.73828" lon="7.25394">
        <ele>311.5</ele>
        <time>2020-05-21T17:17:04.000Z</time>
      </trkpt>
      <trkpt lat="48.73833" lon="7.25397">
        <ele>311.65</ele>
        <time>2020-05-21T17:17:07.000Z</time>
      </trkpt>
      <trkpt lat="48.73838" lon="7.25398">
        <ele>313.83</ele>
        <time>2020-05-21T17:17:11.000Z</time>
      </trkpt>
      <trkpt lat="48.73842" lon="7.25401">
        <ele>315.3</ele>
        <time>2020-05-21T17:17:14.000Z</time>
      </trkpt>
      <trkpt lat="48.73847" lon="7.25404">
        <ele>316.67</ele>
        <time>2020-05-21T17:17:17.000Z</time>
      </trkpt>
      <trkpt lat="48.73852" lon="7.25406">
        <ele>317.47</ele>
        <time>2020-05-21T17:17:20.000Z</time>
      </trkpt>
      <trkpt lat="48.73857" lon="7.25404">
        <ele>319.12</ele>
        <time>2020-05-21T17:17:24.000Z</time>
      </trkpt>
      <trkpt lat="48.73861" lon="7.25401">
        <ele>325.88</ele>
        <time>2020-05-21T17:17:44.000Z</time>
      </trkpt>
      <trkpt lat="48.73867" lon="7.25405">
        <ele>344.8</ele>
        <time>2020-05-21T17:17:48.000Z</time>
      </trkpt>
      <trkpt lat="48.73871" lon="7.25406">
        <ele>338.52</ele>
        <time>2020-05-21T17:17:51.000Z</time>
      </trkpt>
      <trkpt lat="48.73877" lon="7.25409">
        <ele>333.69</ele>
        <time>2020-05-21T17:17:54.000Z</time>
      </trkpt>
      <trkpt lat="48.73882" lon="7.25411">
        <ele>334.71</ele>
        <time>2020-05-21T17:17:57.000Z</time>
      </trkpt>
      <trkpt lat="48.73913" lon="7.2542">
        <ele>333.62</ele>
        <time>2020-05-21T17:18:14.000Z</time>
      </trkpt>
      <trkpt lat="48.73919" lon="7.25424">
        <ele>333.98</ele>
        <time>2020-05-21T17:18:18.000Z</time>
      </trkpt>
      <trkpt lat="48.73923" lon="7.25426">
        <ele>333.7</ele>
        <time>2020-05-21T17:18:22.000Z</time>
      </trkpt>
      <trkpt lat="48.73929" lon="7.25428">
        <ele>337.4</ele>
        <time>2020-05-21T17:18:28.000Z</time>
      </trkpt>
      <trkpt lat="48.73934" lon="7.25429">
        <ele>339.37</ele>
        <time>2020-05-21T17:18:32.000Z</time>
      </trkpt>
      <trkpt lat="48.73939" lon="7.25431">
        <ele>337.28</ele>
        <time>2020-05-21T17:18:36.000Z</time>
      </trkpt>
      <trkpt lat="48.73944" lon="7.25434">
        <ele>339.89</ele>
        <time>2020-05-21T17:18:40.000Z</time>
      </trkpt>
      <trkpt lat="48.73949" lon="7.25435">
        <ele>342.06</ele>
        <time>2020-05-21T17:18:43.000Z</time>
      </trkpt>
      <trkpt lat="48.73952" lon="7.2544">
        <ele>347.02</ele>
        <time>2020-05-21T17:19:00.000Z</time>
      </trkpt>
      <trkpt lat="48.73948" lon="7.25445">
        <ele>349.71</ele>
        <time>2020-05-21T17:19:17.000Z</time>
      </trkpt>
      <trkpt lat="48.73944" lon="7.25448">
        <ele>352.74</ele>
        <time>2020-05-21T17:19:23.000Z</time>
      </trkpt>
      <trkpt lat="48.73939" lon="7.25449">
        <ele>353.08</ele>
        <time>2020-05-21T17:19:27.000Z</time>
      </trkpt>
      <trkpt lat="48.73934" lon="7.2545">
        <ele>352.88</ele>
        <time>2020-05-21T17:19:32.000Z</time>
      </trkpt>
      <trkpt lat="48.73933" lon="7.25457">
        <ele>356.69</ele>
        <time>2020-05-21T17:19:44.000Z</time>
      </trkpt>
      <trkpt lat="48.73928" lon="7.25459">
        <ele>356.39</ele>
        <time>2020-05-21T17:19:48.000Z</time>
      </trkpt>
      <trkpt lat="48.73923" lon="7.25462">
        <ele>360.11</ele>
        <time>2020-05-21T17:20:13.000Z</time>
      </trkpt>
      <trkpt lat="48.73919" lon="7.25458">
        <ele>364.9</ele>
        <time>2020-05-21T17:20:26.000Z</time>
      </trkpt>
      <trkpt lat="48.73914" lon="7.25459">
        <ele>365.71</ele>
        <time>2020-05-21T17:20:31.000Z</time>
      </trkpt>
      <trkpt lat="48.7391" lon="7.25462">
        <ele>366.03</ele>
        <time>2020-05-21T17:20:35.000Z</time>
      </trkpt>
      <trkpt lat="48.73906" lon="7.25465">
        <ele>365.82</ele>
        <time>2020-05-21T17:20:39.000Z</time>
      </trkpt>
      <trkpt lat="48.73901" lon="7.25468">
        <ele>361.33</ele>
        <time>2020-05-21T17:20:57.000Z</time>
      </trkpt>
      <trkpt lat="48.73897" lon="7.25467">
        <ele>359.97</ele>
        <time>2020-05-21T17:21:00.000Z</time>
      </trkpt>
      <trkpt lat="48.73892" lon="7.25464">
        <ele>358.17</ele>
        <time>2020-05-21T17:21:03.000Z</time>
      </trkpt>
      <trkpt lat="48.73887" lon="7.25462">
        <ele>356.25</ele>
        <time>2020-05-21T17:21:06.000Z</time>
      </trkpt>
      <trkpt lat="48.73883" lon="7.25465">
        <ele>354.62</ele>
        <time>2020-05-21T17:21:11.000Z</time>
      </trkpt>
      <trkpt lat="48.73878" lon="7.25469">
        <ele>352.92</ele>
        <time>2020-05-21T17:21:15.000Z</time>
      </trkpt>
      <trkpt lat="48.73872" lon="7.25467">
        <ele>352.04</ele>
        <time>2020-05-21T17:21:18.000Z</time>
      </trkpt>
      <trkpt lat="48.73867" lon="7.25468">
        <ele>350.64</ele>
        <time>2020-05-21T17:21:21.000Z</time>
      </trkpt>
      <trkpt lat="48.73861" lon="7.25469">
        <ele>351.82</ele>
        <time>2020-05-21T17:21:24.000Z</time>
      </trkpt>
      <trkpt lat="48.73856" lon="7.2547">
        <ele>354.18</ele>
        <time>2020-05-21T17:21:27.000Z</time>
      </trkpt>
      <trkpt lat="48.7385" lon="7.25473">
        <ele>350.66</ele>
        <time>2020-05-21T17:21:31.000Z</time>
      </trkpt>
      <trkpt lat="48.73844" lon="7.25477">
        <ele>348.99</ele>
        <time>2020-05-21T17:21:34.000Z</time>
      </trkpt>
      <trkpt lat="48.7384" lon="7.2548">
        <ele>348.2</ele>
        <time>2020-05-21T17:21:37.000Z</time>
      </trkpt>
      <trkpt lat="48.73836" lon="7.25486">
        <ele>346.68</ele>
        <time>2020-05-21T17:21:40.000Z</time>
      </trkpt>
      <trkpt lat="48.73833" lon="7.25492">
        <ele>349.1</ele>
        <time>2020-05-21T17:21:43.000Z</time>
      </trkpt>
      <trkpt lat="48.73829" lon="7.25496">
        <ele>351.75</ele>
        <time>2020-05-21T17:21:46.000Z</time>
      </trkpt>
      <trkpt lat="48.73825" lon="7.255">
        <ele>354.24</ele>
        <time>2020-05-21T17:21:50.000Z</time>
      </trkpt>
      <trkpt lat="48.73821" lon="7.25506">
        <ele>356.01</ele>
        <time>2020-05-21T17:21:54.000Z</time>
      </trkpt>
      <trkpt lat="48.73818" lon="7.25511">
        <ele>356.38</ele>
        <time>2020-05-21T17:21:58.000Z</time>
      </trkpt>
      <trkpt lat="48.73812" lon="7.25515">
        <ele>355.75</ele>
        <time>2020-05-21T17:22:01.000Z</time>
      </trkpt>
      <trkpt lat="48.73807" lon="7.25519">
        <ele>370</ele>
        <time>2020-05-21T17:22:04.000Z</time>
      </trkpt>
      <trkpt lat="48.73801" lon="7.25522">
        <ele>365.85</ele>
        <time>2020-05-21T17:22:07.000Z</time>
      </trkpt>
      <trkpt lat="48.73794" lon="7.25525">
        <ele>363.81</ele>
        <time>2020-05-21T17:22:10.000Z</time>
      </trkpt>
      <trkpt lat="48.73789" lon="7.25528">
        <ele>366.46</ele>
        <time>2020-05-21T17:22:13.000Z</time>
      </trkpt>
      <trkpt lat="48.73784" lon="7.25532">
        <ele>362.5</ele>
        <time>2020-05-21T17:22:16.000Z</time>
      </trkpt>
      <trkpt lat="48.73776" lon="7.25544">
        <ele>362.11</ele>
        <time>2020-05-21T17:22:21.000Z</time>
      </trkpt>
      <trkpt lat="48.73774" lon="7.25552">
        <ele>364.72</ele>
        <time>2020-05-21T17:22:24.000Z</time>
      </trkpt>
      <trkpt lat="48.73773" lon="7.25561">
        <ele>366.89</ele>
        <time>2020-05-21T17:22:27.000Z</time>
      </trkpt>
      <trkpt lat="48.73777" lon="7.25566">
        <ele>370</ele>
        <time>2020-05-21T17:22:31.000Z</time>
      </trkpt>
      <trkpt lat="48.73781" lon="7.25569">
        <ele>367.53</ele>
        <time>2020-05-21T17:22:34.000Z</time>
      </trkpt>
      <trkpt lat="48.73786" lon="7.25574">
        <ele>367.84</ele>
        <time>2020-05-21T17:22:38.000Z</time>
      </trkpt>
      <trkpt lat="48.73791" lon="7.25576">
        <ele>369.4</ele>
        <time>2020-05-21T17:22:41.000Z</time>
      </trkpt>
      <trkpt lat="48.73796" lon="7.25576">
        <ele>371.68</ele>
        <time>2020-05-21T17:22:44.000Z</time>
      </trkpt>
      <trkpt lat="48.73801" lon="7.25577">
        <ele>370.21</ele>
        <time>2020-05-21T17:22:47.000Z</time>
      </trkpt>
      <trkpt lat="48.73807" lon="7.25579">
        <ele>368</ele>
        <time>2020-05-21T17:22:50.000Z</time>
      </trkpt>
      <trkpt lat="48.73812" lon="7.25583">
        <ele>368.4</ele>
        <time>2020-05-21T17:22:53.000Z</time>
      </trkpt>
      <trkpt lat="48.73817" lon="7.25583">
        <ele>366.55</ele>
        <time>2020-05-21T17:22:56.000Z</time>
      </trkpt>
      <trkpt lat="48.73822" lon="7.25584">
        <ele>367.84</ele>
        <time>2020-05-21T17:23:00.000Z</time>
      </trkpt>
      <trkpt lat="48.73827" lon="7.25587">
        <ele>370.56</ele>
        <time>2020-05-21T17:23:04.000Z</time>
      </trkpt>
      <trkpt lat="48.73832" lon="7.25589">
        <ele>377.26</ele>
        <time>2020-05-21T17:23:09.000Z</time>
      </trkpt>
      <trkpt lat="48.73837" lon="7.2559">
        <ele>379.05</ele>
        <time>2020-05-21T17:23:14.000Z</time>
      </trkpt>
      <trkpt lat="48.73841" lon="7.25589">
        <ele>377.56</ele>
        <time>2020-05-21T17:23:44.000Z</time>
      </trkpt>
      <trkpt lat="48.73846" lon="7.25588">
        <ele>374.4</ele>
        <time>2020-05-21T17:23:58.000Z</time>
      </trkpt>
      <trkpt lat="48.73851" lon="7.2559">
        <ele>378.4</ele>
        <time>2020-05-21T17:24:01.000Z</time>
      </trkpt>
      <trkpt lat="48.73857" lon="7.25591">
        <ele>380.2</ele>
        <time>2020-05-21T17:24:04.000Z</time>
      </trkpt>
      <trkpt lat="48.73861" lon="7.25594">
        <ele>381.16</ele>
        <time>2020-05-21T17:24:07.000Z</time>
      </trkpt>
      <trkpt lat="48.73866" lon="7.25597">
        <ele>382.19</ele>
        <time>2020-05-21T17:24:11.000Z</time>
      </trkpt>
      <trkpt lat="48.7387" lon="7.25598">
        <ele>383.57</ele>
        <time>2020-05-21T17:24:14.000Z</time>
      </trkpt>
      <trkpt lat="48.73877" lon="7.256">
        <ele>384.9</ele>
        <time>2020-05-21T17:24:18.000Z</time>
      </trkpt>
      <trkpt lat="48.73883" lon="7.25603">
        <ele>386.15</ele>
        <time>2020-05-21T17:24:21.000Z</time>
      </trkpt>
      <trkpt lat="48.73888" lon="7.25603">
        <ele>383.89</ele>
        <time>2020-05-21T17:24:23.000Z</time>
      </trkpt>
      <trkpt lat="48.73893" lon="7.25605">
        <ele>385.26</ele>
        <time>2020-05-21T17:24:26.000Z</time>
      </trkpt>
      <trkpt lat="48.73898" lon="7.25608">
        <ele>385.82</ele>
        <time>2020-05-21T17:24:29.000Z</time>
      </trkpt>
      <trkpt lat="48.73902" lon="7.2561">
        <ele>386.99</ele>
        <time>2020-05-21T17:24:32.000Z</time>
      </trkpt>
      <trkpt lat="48.73908" lon="7.25611">
        <ele>386.73</ele>
        <time>2020-05-21T17:24:36.000Z</time>
      </trkpt>
      <trkpt lat="48.73914" lon="7.2561">
        <ele>386.24</ele>
        <time>2020-05-21T17:24:39.000Z</time>
      </trkpt>
      <trkpt lat="48.7392" lon="7.25609">
        <ele>385.61</ele>
        <time>2020-05-21T17:24:41.000Z</time>
      </trkpt>
      <trkpt lat="48.73925" lon="7.25607">
        <ele>383.85</ele>
        <time>2020-05-21T17:24:43.000Z</time>
      </trkpt>
      <trkpt lat="48.7393" lon="7.25605">
        <ele>385.37</ele>
        <time>2020-05-21T17:24:45.000Z</time>
      </trkpt>
      <trkpt lat="48.73935" lon="7.25604">
        <ele>382.64</ele>
        <time>2020-05-21T17:24:47.000Z</time>
      </trkpt>
      <trkpt lat="48.73941" lon="7.25605">
        <ele>382.81</ele>
        <time>2020-05-21T17:24:49.000Z</time>
      </trkpt>
      <trkpt lat="48.73947" lon="7.25608">
        <ele>384.66</ele>
        <time>2020-05-21T17:24:51.000Z</time>
      </trkpt>
      <trkpt lat="48.73954" lon="7.2561">
        <ele>384.1</ele>
        <time>2020-05-21T17:24:53.000Z</time>
      </trkpt>
      <trkpt lat="48.7396" lon="7.25612">
        <ele>384.69</ele>
        <time>2020-05-21T17:24:55.000Z</time>
      </trkpt>
      <trkpt lat="48.73965" lon="7.25614">
        <ele>385.23</ele>
        <time>2020-05-21T17:24:58.000Z</time>
      </trkpt>
      <trkpt lat="48.73971" lon="7.25616">
        <ele>382.58</ele>
        <time>2020-05-21T17:25:00.000Z</time>
      </trkpt>
      <trkpt lat="48.73978" lon="7.25618">
        <ele>382.61</ele>
        <time>2020-05-21T17:25:02.000Z</time>
      </trkpt>
      <trkpt lat="48.73985" lon="7.25619">
        <ele>384.73</ele>
        <time>2020-05-21T17:25:04.000Z</time>
      </trkpt>
      <trkpt lat="48.73992" lon="7.2562">
        <ele>388.47</ele>
        <time>2020-05-21T17:25:06.000Z</time>
      </trkpt>
      <trkpt lat="48.73998" lon="7.2562">
        <ele>391.29</ele>
        <time>2020-05-21T17:25:08.000Z</time>
      </trkpt>
      <trkpt lat="48.74004" lon="7.25619">
        <ele>388.32</ele>
        <time>2020-05-21T17:25:10.000Z</time>
      </trkpt>
      <trkpt lat="48.7401" lon="7.25617">
        <ele>389.52</ele>
        <time>2020-05-21T17:25:12.000Z</time>
      </trkpt>
      <trkpt lat="48.74017" lon="7.25616">
        <ele>388.65</ele>
        <time>2020-05-21T17:25:14.000Z</time>
      </trkpt>
      <trkpt lat="48.74023" lon="7.25613">
        <ele>388.74</ele>
        <time>2020-05-21T17:25:16.000Z</time>
      </trkpt>
      <trkpt lat="48.74029" lon="7.2561">
        <ele>388.95</ele>
        <time>2020-05-21T17:25:18.000Z</time>
      </trkpt>
      <trkpt lat="48.74035" lon="7.25607">
        <ele>389.91</ele>
        <time>2020-05-21T17:25:20.000Z</time>
      </trkpt>
      <trkpt lat="48.74041" lon="7.25604">
        <ele>389.04</ele>
        <time>2020-05-21T17:25:22.000Z</time>
      </trkpt>
      <trkpt lat="48.74047" lon="7.25603">
        <ele>386.59</ele>
        <time>2020-05-21T17:25:24.000Z</time>
      </trkpt>
      <trkpt lat="48.74052" lon="7.25603">
        <ele>388.45</ele>
        <time>2020-05-21T17:25:26.000Z</time>
      </trkpt>
      <trkpt lat="48.74057" lon="7.25603">
        <ele>388.01</ele>
        <time>2020-05-21T17:25:28.000Z</time>
      </trkpt>
      <trkpt lat="48.74064" lon="7.25602">
        <ele>387.84</ele>
        <time>2020-05-21T17:25:30.000Z</time>
      </trkpt>
      <trkpt lat="48.74069" lon="7.25602">
        <ele>389.83</ele>
        <time>2020-05-21T17:25:32.000Z</time>
      </trkpt>
      <trkpt lat="48.74075" lon="7.25603">
        <ele>390.62</ele>
        <time>2020-05-21T17:25:34.000Z</time>
      </trkpt>
      <trkpt lat="48.74081" lon="7.25602">
        <ele>391.57</ele>
        <time>2020-05-21T17:25:36.000Z</time>
      </trkpt>
      <trkpt lat="48.74087" lon="7.25602">
        <ele>391.78</ele>
        <time>2020-05-21T17:25:38.000Z</time>
      </trkpt>
      <trkpt lat="48.74093" lon="7.25603">
        <ele>392.46</ele>
        <time>2020-05-21T17:25:40.000Z</time>
      </trkpt>
      <trkpt lat="48.74098" lon="7.25603">
        <ele>393.56</ele>
        <time>2020-05-21T17:25:42.000Z</time>
      </trkpt>
      <trkpt lat="48.74103" lon="7.25603">
        <ele>392.69</ele>
        <time>2020-05-21T17:25:44.000Z</time>
      </trkpt>
      <trkpt lat="48.74111" lon="7.25602">
        <ele>389.97</ele>
        <time>2020-05-21T17:25:46.000Z</time>
      </trkpt>
      <trkpt lat="48.74117" lon="7.25604">
        <ele>391.52</ele>
        <time>2020-05-21T17:25:48.000Z</time>
      </trkpt>
      <trkpt lat="48.74124" lon="7.25607">
        <ele>391.56</ele>
        <time>2020-05-21T17:25:50.000Z</time>
      </trkpt>
      <trkpt lat="48.74132" lon="7.2561">
        <ele>392.11</ele>
        <time>2020-05-21T17:25:52.000Z</time>
      </trkpt>
      <trkpt lat="48.74139" lon="7.25612">
        <ele>393.68</ele>
        <time>2020-05-21T17:25:54.000Z</time>
      </trkpt>
      <trkpt lat="48.74146" lon="7.25615">
        <ele>393</ele>
        <time>2020-05-21T17:25:56.000Z</time>
      </trkpt>
      <trkpt lat="48.74151" lon="7.25618">
        <ele>392.59</ele>
        <time>2020-05-21T17:25:58.000Z</time>
      </trkpt>
      <trkpt lat="48.74155" lon="7.25623">
        <ele>391.44</ele>
        <time>2020-05-21T17:26:00.000Z</time>
      </trkpt>
      <trkpt lat="48.74159" lon="7.25627">
        <ele>392.8</ele>
        <time>2020-05-21T17:26:02.000Z</time>
      </trkpt>
      <trkpt lat="48.74165" lon="7.25631">
        <ele>392.17</ele>
        <time>2020-05-21T17:26:04.000Z</time>
      </trkpt>
      <trkpt lat="48.7417" lon="7.25635">
        <ele>393.92</ele>
        <time>2020-05-21T17:26:06.000Z</time>
      </trkpt>
      <trkpt lat="48.74176" lon="7.25639">
        <ele>395.27</ele>
        <time>2020-05-21T17:26:08.000Z</time>
      </trkpt>
      <trkpt lat="48.74181" lon="7.25643">
        <ele>395.43</ele>
        <time>2020-05-21T17:26:10.000Z</time>
      </trkpt>
      <trkpt lat="48.74186" lon="7.25647">
        <ele>395.66</ele>
        <time>2020-05-21T17:26:12.000Z</time>
      </trkpt>
      <trkpt lat="48.74192" lon="7.25653">
        <ele>395.21</ele>
        <time>2020-05-21T17:26:15.000Z</time>
      </trkpt>
      <trkpt lat="48.74197" lon="7.25661">
        <ele>393.9</ele>
        <time>2020-05-21T17:26:17.000Z</time>
      </trkpt>
      <trkpt lat="48.74203" lon="7.25668">
        <ele>394.61</ele>
        <time>2020-05-21T17:26:19.000Z</time>
      </trkpt>
      <trkpt lat="48.74209" lon="7.25674">
        <ele>394.07</ele>
        <time>2020-05-21T17:26:21.000Z</time>
      </trkpt>
      <trkpt lat="48.74213" lon="7.25678">
        <ele>397.02</ele>
        <time>2020-05-21T17:26:23.000Z</time>
      </trkpt>
      <trkpt lat="48.74217" lon="7.25682">
        <ele>398.87</ele>
        <time>2020-05-21T17:26:25.000Z</time>
      </trkpt>
      <trkpt lat="48.74222" lon="7.25687">
        <ele>399.94</ele>
        <time>2020-05-21T17:26:27.000Z</time>
      </trkpt>
      <trkpt lat="48.74226" lon="7.25692">
        <ele>398.16</ele>
        <time>2020-05-21T17:26:29.000Z</time>
      </trkpt>
      <trkpt lat="48.7423" lon="7.25698">
        <ele>398.4</ele>
        <time>2020-05-21T17:26:31.000Z</time>
      </trkpt>
      <trkpt lat="48.74234" lon="7.25705">
        <ele>398.43</ele>
        <time>2020-05-21T17:26:33.000Z</time>
      </trkpt>
      <trkpt lat="48.74238" lon="7.2571">
        <ele>399.2</ele>
        <time>2020-05-21T17:26:35.000Z</time>
      </trkpt>
      <trkpt lat="48.74246" lon="7.2572">
        <ele>401.26</ele>
        <time>2020-05-21T17:26:39.000Z</time>
      </trkpt>
      <trkpt lat="48.74251" lon="7.25727">
        <ele>400.5</ele>
        <time>2020-05-21T17:26:42.000Z</time>
      </trkpt>
      <trkpt lat="48.74255" lon="7.25733">
        <ele>392.21</ele>
        <time>2020-05-21T17:26:44.000Z</time>
      </trkpt>
      <trkpt lat="48.74259" lon="7.25739">
        <ele>397.07</ele>
        <time>2020-05-21T17:26:46.000Z</time>
      </trkpt>
      <trkpt lat="48.74264" lon="7.25745">
        <ele>396.78</ele>
        <time>2020-05-21T17:26:48.000Z</time>
      </trkpt>
      <trkpt lat="48.74268" lon="7.2575">
        <ele>397.68</ele>
        <time>2020-05-21T17:26:50.000Z</time>
      </trkpt>
      <trkpt lat="48.74272" lon="7.25755">
        <ele>398.27</ele>
        <time>2020-05-21T17:26:52.000Z</time>
      </trkpt>
      <trkpt lat="48.74277" lon="7.25761">
        <ele>398.25</ele>
        <time>2020-05-21T17:26:54.000Z</time>
      </trkpt>
      <trkpt lat="48.74282" lon="7.25766">
        <ele>398.6</ele>
        <time>2020-05-21T17:26:56.000Z</time>
      </trkpt>
      <trkpt lat="48.74286" lon="7.25771">
        <ele>397.19</ele>
        <time>2020-05-21T17:26:58.000Z</time>
      </trkpt>
      <trkpt lat="48.74291" lon="7.25776">
        <ele>396.96</ele>
        <time>2020-05-21T17:27:01.000Z</time>
      </trkpt>
      <trkpt lat="48.74296" lon="7.2578">
        <ele>398.88</ele>
        <time>2020-05-21T17:27:03.000Z</time>
      </trkpt>
      <trkpt lat="48.743" lon="7.25784">
        <ele>398.97</ele>
        <time>2020-05-21T17:27:05.000Z</time>
      </trkpt>
      <trkpt lat="48.74306" lon="7.25788">
        <ele>399.16</ele>
        <time>2020-05-21T17:27:07.000Z</time>
      </trkpt>
      <trkpt lat="48.7431" lon="7.25793">
        <ele>397.5</ele>
        <time>2020-05-21T17:27:09.000Z</time>
      </trkpt>
      <trkpt lat="48.74314" lon="7.25797">
        <ele>398.49</ele>
        <time>2020-05-21T17:27:11.000Z</time>
      </trkpt>
      <trkpt lat="48.74318" lon="7.25801">
        <ele>401.37</ele>
        <time>2020-05-21T17:27:13.000Z</time>
      </trkpt>
      <trkpt lat="48.74324" lon="7.25806">
        <ele>402.15</ele>
        <time>2020-05-21T17:27:16.000Z</time>
      </trkpt>
      <trkpt lat="48.74329" lon="7.25809">
        <ele>401.87</ele>
        <time>2020-05-21T17:27:19.000Z</time>
      </trkpt>
      <trkpt lat="48.74334" lon="7.25812">
        <ele>402.54</ele>
        <time>2020-05-21T17:27:21.000Z</time>
      </trkpt>
      <trkpt lat="48.7434" lon="7.25815">
        <ele>404.97</ele>
        <time>2020-05-21T17:27:24.000Z</time>
      </trkpt>
      <trkpt lat="48.74346" lon="7.25817">
        <ele>404.82</ele>
        <time>2020-05-21T17:27:26.000Z</time>
      </trkpt>
      <trkpt lat="48.7435" lon="7.2582">
        <ele>404.62</ele>
        <time>2020-05-21T17:27:28.000Z</time>
      </trkpt>
      <trkpt lat="48.74356" lon="7.25824">
        <ele>403.75</ele>
        <time>2020-05-21T17:27:31.000Z</time>
      </trkpt>
      <trkpt lat="48.74362" lon="7.25825">
        <ele>403.63</ele>
        <time>2020-05-21T17:27:34.000Z</time>
      </trkpt>
      <trkpt lat="48.74367" lon="7.25828">
        <ele>402.44</ele>
        <time>2020-05-21T17:27:36.000Z</time>
      </trkpt>
      <trkpt lat="48.74372" lon="7.25832">
        <ele>402.72</ele>
        <time>2020-05-21T17:27:38.000Z</time>
      </trkpt>
      <trkpt lat="48.74377" lon="7.25833">
        <ele>402.01</ele>
        <time>2020-05-21T17:27:40.000Z</time>
      </trkpt>
      <trkpt lat="48.74382" lon="7.25834">
        <ele>400.42</ele>
        <time>2020-05-21T17:27:42.000Z</time>
      </trkpt>
      <trkpt lat="48.74387" lon="7.25834">
        <ele>399.89</ele>
        <time>2020-05-21T17:27:44.000Z</time>
      </trkpt>
      <trkpt lat="48.74393" lon="7.25832">
        <ele>401.41</ele>
        <time>2020-05-21T17:27:46.000Z</time>
      </trkpt>
      <trkpt lat="48.744" lon="7.25831">
        <ele>403.78</ele>
        <time>2020-05-21T17:27:48.000Z</time>
      </trkpt>
      <trkpt lat="48.74406" lon="7.2583">
        <ele>406.8</ele>
        <time>2020-05-21T17:27:50.000Z</time>
      </trkpt>
      <trkpt lat="48.74412" lon="7.2583">
        <ele>406.97</ele>
        <time>2020-05-21T17:27:52.000Z</time>
      </trkpt>
      <trkpt lat="48.74417" lon="7.2583">
        <ele>407.32</ele>
        <time>2020-05-21T17:27:54.000Z</time>
      </trkpt>
      <trkpt lat="48.74423" lon="7.2583">
        <ele>405.27</ele>
        <time>2020-05-21T17:27:56.000Z</time>
      </trkpt>
      <trkpt lat="48.74429" lon="7.25829">
        <ele>405.8</ele>
        <time>2020-05-21T17:27:58.000Z</time>
      </trkpt>
      <trkpt lat="48.74435" lon="7.25828">
        <ele>406.42</ele>
        <time>2020-05-21T17:28:00.000Z</time>
      </trkpt>
      <trkpt lat="48.74441" lon="7.25828">
        <ele>406.96</ele>
        <time>2020-05-21T17:28:02.000Z</time>
      </trkpt>
      <trkpt lat="48.74447" lon="7.25826">
        <ele>407.16</ele>
        <time>2020-05-21T17:28:04.000Z</time>
      </trkpt>
      <trkpt lat="48.74451" lon="7.25824">
        <ele>407.44</ele>
        <time>2020-05-21T17:28:06.000Z</time>
      </trkpt>
      <trkpt lat="48.74457" lon="7.25822">
        <ele>407.23</ele>
        <time>2020-05-21T17:28:08.000Z</time>
      </trkpt>
      <trkpt lat="48.74463" lon="7.25821">
        <ele>407.54</ele>
        <time>2020-05-21T17:28:10.000Z</time>
      </trkpt>
      <trkpt lat="48.74469" lon="7.2582">
        <ele>407.73</ele>
        <time>2020-05-21T17:28:12.000Z</time>
      </trkpt>
      <trkpt lat="48.74476" lon="7.25819">
        <ele>407.81</ele>
        <time>2020-05-21T17:28:14.000Z</time>
      </trkpt>
      <trkpt lat="48.74484" lon="7.25819">
        <ele>408.38</ele>
        <time>2020-05-21T17:28:16.000Z</time>
      </trkpt>
      <trkpt lat="48.74493" lon="7.25819">
        <ele>407.77</ele>
        <time>2020-05-21T17:28:18.000Z</time>
      </trkpt>
      <trkpt lat="48.74502" lon="7.25818">
        <ele>407.91</ele>
        <time>2020-05-21T17:28:20.000Z</time>
      </trkpt>
      <trkpt lat="48.74511" lon="7.25819">
        <ele>407.37</ele>
        <time>2020-05-21T17:28:22.000Z</time>
      </trkpt>
      <trkpt lat="48.74516" lon="7.25821">
        <ele>407.31</ele>
        <time>2020-05-21T17:28:23.000Z</time>
      </trkpt>
      <trkpt lat="48.74525" lon="7.25823">
        <ele>408.51</ele>
        <time>2020-05-21T17:28:25.000Z</time>
      </trkpt>
      <trkpt lat="48.74534" lon="7.25824">
        <ele>406.73</ele>
        <time>2020-05-21T17:28:27.000Z</time>
      </trkpt>
      <trkpt lat="48.74542" lon="7.25825">
        <ele>405.76</ele>
        <time>2020-05-21T17:28:29.000Z</time>
      </trkpt>
      <trkpt lat="48.74547" lon="7.25825">
        <ele>405.58</ele>
        <time>2020-05-21T17:28:30.000Z</time>
      </trkpt>
      <trkpt lat="48.74552" lon="7.25826">
        <ele>406.16</ele>
        <time>2020-05-21T17:28:31.000Z</time>
      </trkpt>
      <trkpt lat="48.74557" lon="7.25827">
        <ele>405.52</ele>
        <time>2020-05-21T17:28:32.000Z</time>
      </trkpt>
      <trkpt lat="48.74563" lon="7.25827">
        <ele>406.13</ele>
        <time>2020-05-21T17:28:33.000Z</time>
      </trkpt>
      <trkpt lat="48.74568" lon="7.25828">
        <ele>406.33</ele>
        <time>2020-05-21T17:28:34.000Z</time>
      </trkpt>
      <trkpt lat="48.74573" lon="7.25828">
        <ele>406.08</ele>
        <time>2020-05-21T17:28:35.000Z</time>
      </trkpt>
      <trkpt lat="48.74579" lon="7.25828">
        <ele>405.87</ele>
        <time>2020-05-21T17:28:36.000Z</time>
      </trkpt>
      <trkpt lat="48.74585" lon="7.2583">
        <ele>405.63</ele>
        <time>2020-05-21T17:28:37.000Z</time>
      </trkpt>
      <trkpt lat="48.74589" lon="7.25833">
        <ele>405.98</ele>
        <time>2020-05-21T17:28:38.000Z</time>
      </trkpt>
      <trkpt lat="48.74594" lon="7.25835">
        <ele>406.45</ele>
        <time>2020-05-21T17:28:39.000Z</time>
      </trkpt>
      <trkpt lat="48.74599" lon="7.25837">
        <ele>406.32</ele>
        <time>2020-05-21T17:28:40.000Z</time>
      </trkpt>
      <trkpt lat="48.74604" lon="7.25837">
        <ele>407.07</ele>
        <time>2020-05-21T17:28:41.000Z</time>
      </trkpt>
      <trkpt lat="48.7461" lon="7.25839">
        <ele>407.21</ele>
        <time>2020-05-21T17:28:42.000Z</time>
      </trkpt>
      <trkpt lat="48.74614" lon="7.2584">
        <ele>406.82</ele>
        <time>2020-05-21T17:28:43.000Z</time>
      </trkpt>
      <trkpt lat="48.74623" lon="7.25843">
        <ele>406.61</ele>
        <time>2020-05-21T17:28:45.000Z</time>
      </trkpt>
      <trkpt lat="48.74628" lon="7.25846">
        <ele>406.78</ele>
        <time>2020-05-21T17:28:46.000Z</time>
      </trkpt>
      <trkpt lat="48.74633" lon="7.25849">
        <ele>407.1</ele>
        <time>2020-05-21T17:28:47.000Z</time>
      </trkpt>
      <trkpt lat="48.74638" lon="7.25853">
        <ele>407.39</ele>
        <time>2020-05-21T17:28:48.000Z</time>
      </trkpt>
      <trkpt lat="48.74643" lon="7.25857">
        <ele>407.66</ele>
        <time>2020-05-21T17:28:49.000Z</time>
      </trkpt>
      <trkpt lat="48.74648" lon="7.25861">
        <ele>408.04</ele>
        <time>2020-05-21T17:28:50.000Z</time>
      </trkpt>
      <trkpt lat="48.74653" lon="7.25865">
        <ele>408.22</ele>
        <time>2020-05-21T17:28:51.000Z</time>
      </trkpt>
      <trkpt lat="48.74658" lon="7.25869">
        <ele>409.41</ele>
        <time>2020-05-21T17:28:52.000Z</time>
      </trkpt>
      <trkpt lat="48.74663" lon="7.25874">
        <ele>410.18</ele>
        <time>2020-05-21T17:28:53.000Z</time>
      </trkpt>
      <trkpt lat="48.74668" lon="7.25877">
        <ele>409.61</ele>
        <time>2020-05-21T17:28:54.000Z</time>
      </trkpt>
      <trkpt lat="48.74672" lon="7.25881">
        <ele>408.74</ele>
        <time>2020-05-21T17:28:55.000Z</time>
      </trkpt>
      <trkpt lat="48.74677" lon="7.25885">
        <ele>406.22</ele>
        <time>2020-05-21T17:28:56.000Z</time>
      </trkpt>
      <trkpt lat="48.74682" lon="7.25888">
        <ele>406.72</ele>
        <time>2020-05-21T17:28:57.000Z</time>
      </trkpt>
      <trkpt lat="48.74687" lon="7.25891">
        <ele>406.43</ele>
        <time>2020-05-21T17:28:58.000Z</time>
      </trkpt>
      <trkpt lat="48.74692" lon="7.25893">
        <ele>407.12</ele>
        <time>2020-05-21T17:28:59.000Z</time>
      </trkpt>
      <trkpt lat="48.74697" lon="7.25896">
        <ele>405.19</ele>
        <time>2020-05-21T17:29:00.000Z</time>
      </trkpt>
      <trkpt lat="48.74702" lon="7.25898">
        <ele>405.16</ele>
        <time>2020-05-21T17:29:01.000Z</time>
      </trkpt>
      <trkpt lat="48.74707" lon="7.25901">
        <ele>404.71</ele>
        <time>2020-05-21T17:29:02.000Z</time>
      </trkpt>
      <trkpt lat="48.74711" lon="7.25904">
        <ele>404.74</ele>
        <time>2020-05-21T17:29:03.000Z</time>
      </trkpt>
      <trkpt lat="48.74716" lon="7.25907">
        <ele>403.33</ele>
        <time>2020-05-21T17:29:04.000Z</time>
      </trkpt>
      <trkpt lat="48.74741" lon="7.25924">
        <ele>402.38</ele>
        <time>2020-05-21T17:29:09.000Z</time>
      </trkpt>
      <trkpt lat="48.74746" lon="7.25927">
        <ele>401.43</ele>
        <time>2020-05-21T17:29:10.000Z</time>
      </trkpt>
      <trkpt lat="48.74751" lon="7.25931">
        <ele>401.11</ele>
        <time>2020-05-21T17:29:11.000Z</time>
      </trkpt>
      <trkpt lat="48.74756" lon="7.25936">
        <ele>401.09</ele>
        <time>2020-05-21T17:29:12.000Z</time>
      </trkpt>
      <trkpt lat="48.7476" lon="7.25943">
        <ele>401.3</ele>
        <time>2020-05-21T17:29:13.000Z</time>
      </trkpt>
      <trkpt lat="48.74761" lon="7.2595">
        <ele>401.31</ele>
        <time>2020-05-21T17:29:14.000Z</time>
      </trkpt>
      <trkpt lat="48.74762" lon="7.25958">
        <ele>400.87</ele>
        <time>2020-05-21T17:29:15.000Z</time>
      </trkpt>
      <trkpt lat="48.74758" lon="7.25969">
        <ele>400.27</ele>
        <time>2020-05-21T17:29:17.000Z</time>
      </trkpt>
      <trkpt lat="48.74752" lon="7.25978">
        <ele>402.37</ele>
        <time>2020-05-21T17:29:19.000Z</time>
      </trkpt>
      <trkpt lat="48.7475" lon="7.2599">
        <ele>404.15</ele>
        <time>2020-05-21T17:29:21.000Z</time>
      </trkpt>
      <trkpt lat="48.7475" lon="7.26002">
        <ele>403.67</ele>
        <time>2020-05-21T17:29:23.000Z</time>
      </trkpt>
      <trkpt lat="48.74752" lon="7.26015">
        <ele>404.71</ele>
        <time>2020-05-21T17:29:25.000Z</time>
      </trkpt>
      <trkpt lat="48.74754" lon="7.26026">
        <ele>405.13</ele>
        <time>2020-05-21T17:29:27.000Z</time>
      </trkpt>
      <trkpt lat="48.74756" lon="7.26037">
        <ele>405.28</ele>
        <time>2020-05-21T17:29:29.000Z</time>
      </trkpt>
      <trkpt lat="48.74759" lon="7.26048">
        <ele>404.85</ele>
        <time>2020-05-21T17:29:31.000Z</time>
      </trkpt>
      <trkpt lat="48.74761" lon="7.26057">
        <ele>403.28</ele>
        <time>2020-05-21T17:29:33.000Z</time>
      </trkpt>
      <trkpt lat="48.74763" lon="7.26066">
        <ele>404.3</ele>
        <time>2020-05-21T17:29:35.000Z</time>
      </trkpt>
      <trkpt lat="48.74766" lon="7.26074">
        <ele>406.5</ele>
        <time>2020-05-21T17:29:37.000Z</time>
      </trkpt>
      <trkpt lat="48.74769" lon="7.26082">
        <ele>405.62</ele>
        <time>2020-05-21T17:29:39.000Z</time>
      </trkpt>
      <trkpt lat="48.74771" lon="7.2609">
        <ele>407.76</ele>
        <time>2020-05-21T17:29:41.000Z</time>
      </trkpt>
      <trkpt lat="48.74774" lon="7.26098">
        <ele>408.03</ele>
        <time>2020-05-21T17:29:43.000Z</time>
      </trkpt>
      <trkpt lat="48.74777" lon="7.26106">
        <ele>408.13</ele>
        <time>2020-05-21T17:29:45.000Z</time>
      </trkpt>
      <trkpt lat="48.7478" lon="7.26115">
        <ele>408.99</ele>
        <time>2020-05-21T17:29:47.000Z</time>
      </trkpt>
      <trkpt lat="48.74783" lon="7.26124">
        <ele>409.76</ele>
        <time>2020-05-21T17:29:49.000Z</time>
      </trkpt>
      <trkpt lat="48.74786" lon="7.26133">
        <ele>409.54</ele>
        <time>2020-05-21T17:29:51.000Z</time>
      </trkpt>
      <trkpt lat="48.7479" lon="7.26143">
        <ele>411.87</ele>
        <time>2020-05-21T17:29:53.000Z</time>
      </trkpt>
      <trkpt lat="48.74793" lon="7.26153">
        <ele>411.75</ele>
        <time>2020-05-21T17:29:55.000Z</time>
      </trkpt>
      <trkpt lat="48.74796" lon="7.26164">
        <ele>412.19</ele>
        <time>2020-05-21T17:29:57.000Z</time>
      </trkpt>
      <trkpt lat="48.74799" lon="7.26174">
        <ele>412.47</ele>
        <time>2020-05-21T17:29:59.000Z</time>
      </trkpt>
      <trkpt lat="48.74802" lon="7.26183">
        <ele>410.43</ele>
        <time>2020-05-21T17:30:01.000Z</time>
      </trkpt>
      <trkpt lat="48.74805" lon="7.26193">
        <ele>410.97</ele>
        <time>2020-05-21T17:30:03.000Z</time>
      </trkpt>
      <trkpt lat="48.74808" lon="7.26204">
        <ele>410.43</ele>
        <time>2020-05-21T17:30:05.000Z</time>
      </trkpt>
      <trkpt lat="48.74811" lon="7.26217">
        <ele>410.57</ele>
        <time>2020-05-21T17:30:07.000Z</time>
      </trkpt>
      <trkpt lat="48.74812" lon="7.26224">
        <ele>410.72</ele>
        <time>2020-05-21T17:30:08.000Z</time>
      </trkpt>
      <trkpt lat="48.74813" lon="7.26231">
        <ele>411.1</ele>
        <time>2020-05-21T17:30:09.000Z</time>
      </trkpt>
      <trkpt lat="48.74815" lon="7.26237">
        <ele>410.44</ele>
        <time>2020-05-21T17:30:10.000Z</time>
      </trkpt>
      <trkpt lat="48.74816" lon="7.26245">
        <ele>409.95</ele>
        <time>2020-05-21T17:30:11.000Z</time>
      </trkpt>
      <trkpt lat="48.74818" lon="7.26251">
        <ele>410.03</ele>
        <time>2020-05-21T17:30:12.000Z</time>
      </trkpt>
      <trkpt lat="48.74819" lon="7.26259">
        <ele>408.93</ele>
        <time>2020-05-21T17:30:13.000Z</time>
      </trkpt>
      <trkpt lat="48.74821" lon="7.26266">
        <ele>408.96</ele>
        <time>2020-05-21T17:30:14.000Z</time>
      </trkpt>
      <trkpt lat="48.74823" lon="7.26274">
        <ele>409.17</ele>
        <time>2020-05-21T17:30:15.000Z</time>
      </trkpt>
      <trkpt lat="48.74825" lon="7.26282">
        <ele>408.76</ele>
        <time>2020-05-21T17:30:16.000Z</time>
      </trkpt>
      <trkpt lat="48.74827" lon="7.2629">
        <ele>408.1</ele>
        <time>2020-05-21T17:30:17.000Z</time>
      </trkpt>
      <trkpt lat="48.74831" lon="7.26298">
        <ele>407.61</ele>
        <time>2020-05-21T17:30:18.000Z</time>
      </trkpt>
      <trkpt lat="48.74845" lon="7.26322">
        <ele>408.04</ele>
        <time>2020-05-21T17:30:21.000Z</time>
      </trkpt>
      <trkpt lat="48.74847" lon="7.26332">
        <ele>407.12</ele>
        <time>2020-05-21T17:30:22.000Z</time>
      </trkpt>
      <trkpt lat="48.74851" lon="7.26341">
        <ele>407.03</ele>
        <time>2020-05-21T17:30:23.000Z</time>
      </trkpt>
      <trkpt lat="48.74853" lon="7.2635">
        <ele>406.88</ele>
        <time>2020-05-21T17:30:24.000Z</time>
      </trkpt>
      <trkpt lat="48.74855" lon="7.26358">
        <ele>406.48</ele>
        <time>2020-05-21T17:30:25.000Z</time>
      </trkpt>
      <trkpt lat="48.74859" lon="7.26367">
        <ele>405.1</ele>
        <time>2020-05-21T17:30:26.000Z</time>
      </trkpt>
      <trkpt lat="48.74862" lon="7.26373">
        <ele>404.42</ele>
        <time>2020-05-21T17:30:27.000Z</time>
      </trkpt>
      <trkpt lat="48.74864" lon="7.26381">
        <ele>403.35</ele>
        <time>2020-05-21T17:30:28.000Z</time>
      </trkpt>
      <trkpt lat="48.74866" lon="7.2639">
        <ele>403</ele>
        <time>2020-05-21T17:30:29.000Z</time>
      </trkpt>
      <trkpt lat="48.74868" lon="7.26397">
        <ele>402.82</ele>
        <time>2020-05-21T17:30:30.000Z</time>
      </trkpt>
      <trkpt lat="48.7487" lon="7.26404">
        <ele>402.13</ele>
        <time>2020-05-21T17:30:31.000Z</time>
      </trkpt>
      <trkpt lat="48.74871" lon="7.26411">
        <ele>402.02</ele>
        <time>2020-05-21T17:30:32.000Z</time>
      </trkpt>
      <trkpt lat="48.74872" lon="7.26419">
        <ele>400.61</ele>
        <time>2020-05-21T17:30:33.000Z</time>
      </trkpt>
      <trkpt lat="48.74874" lon="7.26428">
        <ele>400.51</ele>
        <time>2020-05-21T17:30:34.000Z</time>
      </trkpt>
      <trkpt lat="48.74874" lon="7.26438">
        <ele>399.52</ele>
        <time>2020-05-21T17:30:35.000Z</time>
      </trkpt>
      <trkpt lat="48.74875" lon="7.26447">
        <ele>399.41</ele>
        <time>2020-05-21T17:30:36.000Z</time>
      </trkpt>
      <trkpt lat="48.74876" lon="7.26456">
        <ele>399.37</ele>
        <time>2020-05-21T17:30:37.000Z</time>
      </trkpt>
      <trkpt lat="48.74876" lon="7.26465">
        <ele>397.9</ele>
        <time>2020-05-21T17:30:38.000Z</time>
      </trkpt>
      <trkpt lat="48.74876" lon="7.26474">
        <ele>398.42</ele>
        <time>2020-05-21T17:30:39.000Z</time>
      </trkpt>
      <trkpt lat="48.74875" lon="7.26485">
        <ele>397.29</ele>
        <time>2020-05-21T17:30:40.000Z</time>
      </trkpt>
      <trkpt lat="48.74874" lon="7.26497">
        <ele>396.65</ele>
        <time>2020-05-21T17:30:41.000Z</time>
      </trkpt>
      <trkpt lat="48.74872" lon="7.2651">
        <ele>394.96</ele>
        <time>2020-05-21T17:30:42.000Z</time>
      </trkpt>
      <trkpt lat="48.74871" lon="7.26524">
        <ele>393.07</ele>
        <time>2020-05-21T17:30:43.000Z</time>
      </trkpt>
      <trkpt lat="48.74871" lon="7.26534">
        <ele>392.42</ele>
        <time>2020-05-21T17:30:44.000Z</time>
      </trkpt>
      <trkpt lat="48.74869" lon="7.26544">
        <ele>391.49</ele>
        <time>2020-05-21T17:30:45.000Z</time>
      </trkpt>
      <trkpt lat="48.74869" lon="7.26555">
        <ele>390.87</ele>
        <time>2020-05-21T17:30:46.000Z</time>
      </trkpt>
      <trkpt lat="48.74868" lon="7.26564">
        <ele>389.84</ele>
        <time>2020-05-21T17:30:47.000Z</time>
      </trkpt>
      <trkpt lat="48.74866" lon="7.26571">
        <ele>389.05</ele>
        <time>2020-05-21T17:30:48.000Z</time>
      </trkpt>
      <trkpt lat="48.74865" lon="7.2658">
        <ele>389.58</ele>
        <time>2020-05-21T17:30:49.000Z</time>
      </trkpt>
      <trkpt lat="48.74864" lon="7.26589">
        <ele>388.95</ele>
        <time>2020-05-21T17:30:50.000Z</time>
      </trkpt>
      <trkpt lat="48.74862" lon="7.26597">
        <ele>388.25</ele>
        <time>2020-05-21T17:30:51.000Z</time>
      </trkpt>
      <trkpt lat="48.74861" lon="7.26606">
        <ele>389.96</ele>
        <time>2020-05-21T17:30:52.000Z</time>
      </trkpt>
      <trkpt lat="48.74859" lon="7.26614">
        <ele>389.64</ele>
        <time>2020-05-21T17:30:53.000Z</time>
      </trkpt>
      <trkpt lat="48.74857" lon="7.26622">
        <ele>389.68</ele>
        <time>2020-05-21T17:30:54.000Z</time>
      </trkpt>
      <trkpt lat="48.74855" lon="7.26629">
        <ele>389.49</ele>
        <time>2020-05-21T17:30:55.000Z</time>
      </trkpt>
      <trkpt lat="48.74854" lon="7.26637">
        <ele>387.74</ele>
        <time>2020-05-21T17:30:56.000Z</time>
      </trkpt>
      <trkpt lat="48.74854" lon="7.26644">
        <ele>387.98</ele>
        <time>2020-05-21T17:30:57.000Z</time>
      </trkpt>
      <trkpt lat="48.74853" lon="7.26651">
        <ele>387.97</ele>
        <time>2020-05-21T17:30:58.000Z</time>
      </trkpt>
      <trkpt lat="48.74851" lon="7.26665">
        <ele>388.08</ele>
        <time>2020-05-21T17:31:00.000Z</time>
      </trkpt>
      <trkpt lat="48.74851" lon="7.26672">
        <ele>388.71</ele>
        <time>2020-05-21T17:31:01.000Z</time>
      </trkpt>
      <trkpt lat="48.7485" lon="7.26681">
        <ele>389</ele>
        <time>2020-05-21T17:31:02.000Z</time>
      </trkpt>
      <trkpt lat="48.74849" lon="7.26688">
        <ele>390.08</ele>
        <time>2020-05-21T17:31:03.000Z</time>
      </trkpt>
      <trkpt lat="48.74848" lon="7.26697">
        <ele>390.05</ele>
        <time>2020-05-21T17:31:04.000Z</time>
      </trkpt>
      <trkpt lat="48.74848" lon="7.26706">
        <ele>390.2</ele>
        <time>2020-05-21T17:31:05.000Z</time>
      </trkpt>
      <trkpt lat="48.74848" lon="7.26714">
        <ele>390.07</ele>
        <time>2020-05-21T17:31:06.000Z</time>
      </trkpt>
      <trkpt lat="48.74849" lon="7.26726">
        <ele>390.72</ele>
        <time>2020-05-21T17:31:08.000Z</time>
      </trkpt>
      <trkpt lat="48.74849" lon="7.26739">
        <ele>391.14</ele>
        <time>2020-05-21T17:31:10.000Z</time>
      </trkpt>
      <trkpt lat="48.74848" lon="7.26746">
        <ele>389.57</ele>
        <time>2020-05-21T17:31:11.000Z</time>
      </trkpt>
      <trkpt lat="48.74849" lon="7.26754">
        <ele>388.19</ele>
        <time>2020-05-21T17:31:12.000Z</time>
      </trkpt>
      <trkpt lat="48.74847" lon="7.26762">
        <ele>386.99</ele>
        <time>2020-05-21T17:31:14.000Z</time>
      </trkpt>
      <trkpt lat="48.74845" lon="7.26773">
        <ele>390.19</ele>
        <time>2020-05-21T17:31:16.000Z</time>
      </trkpt>
      <trkpt lat="48.74843" lon="7.2678">
        <ele>386.65</ele>
        <time>2020-05-21T17:31:18.000Z</time>
      </trkpt>
      <trkpt lat="48.74842" lon="7.26786">
        <ele>388.64</ele>
        <time>2020-05-21T17:31:20.000Z</time>
      </trkpt>
      <trkpt lat="48.74839" lon="7.26794">
        <ele>389.77</ele>
        <time>2020-05-21T17:31:23.000Z</time>
      </trkpt>
      <trkpt lat="48.74843" lon="7.26799">
        <ele>389.87</ele>
        <time>2020-05-21T17:31:26.000Z</time>
      </trkpt>
      <trkpt lat="48.74851" lon="7.268">
        <ele>390.48</ele>
        <time>2020-05-21T17:31:28.000Z</time>
      </trkpt>
      <trkpt lat="48.74857" lon="7.26797">
        <ele>392.39</ele>
        <time>2020-05-21T17:31:30.000Z</time>
      </trkpt>
      <trkpt lat="48.7486" lon="7.26782">
        <ele>390.3</ele>
        <time>2020-05-21T17:31:32.000Z</time>
      </trkpt>
      <trkpt lat="48.74862" lon="7.26776">
        <ele>390.11</ele>
        <time>2020-05-21T17:31:33.000Z</time>
      </trkpt>
      <trkpt lat="48.74864" lon="7.26769">
        <ele>389.63</ele>
        <time>2020-05-21T17:31:34.000Z</time>
      </trkpt>
      <trkpt lat="48.74867" lon="7.26759">
        <ele>386.54</ele>
        <time>2020-05-21T17:31:36.000Z</time>
      </trkpt>
      <trkpt lat="48.74868" lon="7.26747">
        <ele>386.55</ele>
        <time>2020-05-21T17:31:38.000Z</time>
      </trkpt>
      <trkpt lat="48.74869" lon="7.26738">
        <ele>383.56</ele>
        <time>2020-05-21T17:31:39.000Z</time>
      </trkpt>
      <trkpt lat="48.7487" lon="7.26732">
        <ele>383.5</ele>
        <time>2020-05-21T17:31:40.000Z</time>
      </trkpt>
      <trkpt lat="48.74873" lon="7.26724">
        <ele>382.98</ele>
        <time>2020-05-21T17:31:41.000Z</time>
      </trkpt>
      <trkpt lat="48.74876" lon="7.26715">
        <ele>382.32</ele>
        <time>2020-05-21T17:31:42.000Z</time>
      </trkpt>
      <trkpt lat="48.74879" lon="7.26706">
        <ele>381.34</ele>
        <time>2020-05-21T17:31:43.000Z</time>
      </trkpt>
      <trkpt lat="48.74881" lon="7.26695">
        <ele>381.55</ele>
        <time>2020-05-21T17:31:44.000Z</time>
      </trkpt>
      <trkpt lat="48.74882" lon="7.26686">
        <ele>381.11</ele>
        <time>2020-05-21T17:31:45.000Z</time>
      </trkpt>
      <trkpt lat="48.74884" lon="7.26678">
        <ele>380.17</ele>
        <time>2020-05-21T17:31:46.000Z</time>
      </trkpt>
      <trkpt lat="48.74887" lon="7.26671">
        <ele>379.13</ele>
        <time>2020-05-21T17:31:47.000Z</time>
      </trkpt>
      <trkpt lat="48.749" lon="7.26649">
        <ele>381.14</ele>
        <time>2020-05-21T17:31:50.000Z</time>
      </trkpt>
      <trkpt lat="48.74902" lon="7.26639">
        <ele>382.26</ele>
        <time>2020-05-21T17:31:52.000Z</time>
      </trkpt>
      <trkpt lat="48.74905" lon="7.26631">
        <ele>380.04</ele>
        <time>2020-05-21T17:31:54.000Z</time>
      </trkpt>
      <trkpt lat="48.74913" lon="7.26629">
        <ele>378.18</ele>
        <time>2020-05-21T17:31:56.000Z</time>
      </trkpt>
      <trkpt lat="48.74917" lon="7.26625">
        <ele>377.28</ele>
        <time>2020-05-21T17:31:57.000Z</time>
      </trkpt>
      <trkpt lat="48.74947" lon="7.26603">
        <ele>372.12</ele>
        <time>2020-05-21T17:32:03.000Z</time>
      </trkpt>
      <trkpt lat="48.7496" lon="7.26594">
        <ele>374.74</ele>
        <time>2020-05-21T17:32:06.000Z</time>
      </trkpt>
      <trkpt lat="48.74967" lon="7.26591">
        <ele>375.02</ele>
        <time>2020-05-21T17:32:08.000Z</time>
      </trkpt>
      <trkpt lat="48.74974" lon="7.26588">
        <ele>375.77</ele>
        <time>2020-05-21T17:32:10.000Z</time>
      </trkpt>
      <trkpt lat="48.74984" lon="7.26594">
        <ele>375.92</ele>
        <time>2020-05-21T17:32:12.000Z</time>
      </trkpt>
      <trkpt lat="48.7499" lon="7.26596">
        <ele>376.29</ele>
        <time>2020-05-21T17:32:14.000Z</time>
      </trkpt>
      <trkpt lat="48.74999" lon="7.26594">
        <ele>377.52</ele>
        <time>2020-05-21T17:32:16.000Z</time>
      </trkpt>
      <trkpt lat="48.75007" lon="7.26597">
        <ele>376.67</ele>
        <time>2020-05-21T17:32:18.000Z</time>
      </trkpt>
      <trkpt lat="48.75012" lon="7.26597">
        <ele>376.61</ele>
        <time>2020-05-21T17:32:20.000Z</time>
      </trkpt>
      <trkpt lat="48.75015" lon="7.26603">
        <ele>377.9</ele>
        <time>2020-05-21T17:32:23.000Z</time>
      </trkpt>
      <trkpt lat="48.75018" lon="7.26608">
        <ele>377.86</ele>
        <time>2020-05-21T17:32:25.000Z</time>
      </trkpt>
      <trkpt lat="48.75022" lon="7.26614">
        <ele>376.23</ele>
        <time>2020-05-21T17:32:27.000Z</time>
      </trkpt>
      <trkpt lat="48.75027" lon="7.26621">
        <ele>373.31</ele>
        <time>2020-05-21T17:32:29.000Z</time>
      </trkpt>
      <trkpt lat="48.75032" lon="7.26627">
        <ele>372.52</ele>
        <time>2020-05-21T17:32:31.000Z</time>
      </trkpt>
      <trkpt lat="48.75038" lon="7.26635">
        <ele>371.98</ele>
        <time>2020-05-21T17:32:33.000Z</time>
      </trkpt>
      <trkpt lat="48.75043" lon="7.26639">
        <ele>372.41</ele>
        <time>2020-05-21T17:32:35.000Z</time>
      </trkpt>
      <trkpt lat="48.75047" lon="7.26645">
        <ele>377.99</ele>
        <time>2020-05-21T17:32:38.000Z</time>
      </trkpt>
      <trkpt lat="48.75051" lon="7.26649">
        <ele>378.65</ele>
        <time>2020-05-21T17:32:41.000Z</time>
      </trkpt>
      <trkpt lat="48.75057" lon="7.26653">
        <ele>378.21</ele>
        <time>2020-05-21T17:32:44.000Z</time>
      </trkpt>
      <trkpt lat="48.75063" lon="7.26658">
        <ele>378.84</ele>
        <time>2020-05-21T17:32:46.000Z</time>
      </trkpt>
      <trkpt lat="48.75066" lon="7.26663">
        <ele>384.32</ele>
        <time>2020-05-21T17:32:48.000Z</time>
      </trkpt>
      <trkpt lat="48.7507" lon="7.2667">
        <ele>384.63</ele>
        <time>2020-05-21T17:32:51.000Z</time>
      </trkpt>
      <trkpt lat="48.75073" lon="7.26676">
        <ele>385.25</ele>
        <time>2020-05-21T17:32:53.000Z</time>
      </trkpt>
      <trkpt lat="48.75078" lon="7.26681">
        <ele>382.87</ele>
        <time>2020-05-21T17:32:56.000Z</time>
      </trkpt>
      <trkpt lat="48.7508" lon="7.26686">
        <ele>383.41</ele>
        <time>2020-05-21T17:32:58.000Z</time>
      </trkpt>
      <trkpt lat="48.75085" lon="7.26694">
        <ele>386.15</ele>
        <time>2020-05-21T17:33:00.000Z</time>
      </trkpt>
      <trkpt lat="48.75089" lon="7.26702">
        <ele>384.63</ele>
        <time>2020-05-21T17:33:02.000Z</time>
      </trkpt>
      <trkpt lat="48.75094" lon="7.26708">
        <ele>387.76</ele>
        <time>2020-05-21T17:33:05.000Z</time>
      </trkpt>
      <trkpt lat="48.75099" lon="7.26714">
        <ele>388.95</ele>
        <time>2020-05-21T17:33:08.000Z</time>
      </trkpt>
      <trkpt lat="48.75104" lon="7.26717">
        <ele>387.51</ele>
        <time>2020-05-21T17:33:10.000Z</time>
      </trkpt>
      <trkpt lat="48.75109" lon="7.26721">
        <ele>388.3</ele>
        <time>2020-05-21T17:33:12.000Z</time>
      </trkpt>
      <trkpt lat="48.75114" lon="7.26725">
        <ele>388.68</ele>
        <time>2020-05-21T17:33:14.000Z</time>
      </trkpt>
      <trkpt lat="48.75119" lon="7.2673">
        <ele>388.93</ele>
        <time>2020-05-21T17:33:16.000Z</time>
      </trkpt>
      <trkpt lat="48.75125" lon="7.26734">
        <ele>387.76</ele>
        <time>2020-05-21T17:33:18.000Z</time>
      </trkpt>
      <trkpt lat="48.7513" lon="7.26737">
        <ele>385.49</ele>
        <time>2020-05-21T17:33:20.000Z</time>
      </trkpt>
      <trkpt lat="48.75136" lon="7.26738">
        <ele>383.51</ele>
        <time>2020-05-21T17:33:22.000Z</time>
      </trkpt>
      <trkpt lat="48.75143" lon="7.26739">
        <ele>385.05</ele>
        <time>2020-05-21T17:33:24.000Z</time>
      </trkpt>
      <trkpt lat="48.75148" lon="7.2674">
        <ele>382.98</ele>
        <time>2020-05-21T17:33:26.000Z</time>
      </trkpt>
      <trkpt lat="48.75153" lon="7.26739">
        <ele>388.89</ele>
        <time>2020-05-21T17:33:29.000Z</time>
      </trkpt>
      <trkpt lat="48.75161" lon="7.26738">
        <ele>379.55</ele>
        <time>2020-05-21T17:33:32.000Z</time>
      </trkpt>
      <trkpt lat="48.75166" lon="7.26736">
        <ele>380.1</ele>
        <time>2020-05-21T17:33:35.000Z</time>
      </trkpt>
      <trkpt lat="48.75173" lon="7.26734">
        <ele>378.89</ele>
        <time>2020-05-21T17:33:38.000Z</time>
      </trkpt>
      <trkpt lat="48.7518" lon="7.2673">
        <ele>379.37</ele>
        <time>2020-05-21T17:33:40.000Z</time>
      </trkpt>
      <trkpt lat="48.75215" lon="7.26731">
        <ele>374.34</ele>
        <time>2020-05-21T17:33:46.000Z</time>
      </trkpt>
      <trkpt lat="48.75222" lon="7.26728">
        <ele>374.84</ele>
        <time>2020-05-21T17:33:49.000Z</time>
      </trkpt>
      <trkpt lat="48.75228" lon="7.2673">
        <ele>372.95</ele>
        <time>2020-05-21T17:33:51.000Z</time>
      </trkpt>
      <trkpt lat="48.75233" lon="7.26727">
        <ele>371.18</ele>
        <time>2020-05-21T17:33:53.000Z</time>
      </trkpt>
      <trkpt lat="48.75241" lon="7.26724">
        <ele>373.92</ele>
        <time>2020-05-21T17:33:55.000Z</time>
      </trkpt>
      <trkpt lat="48.75245" lon="7.26721">
        <ele>376.19</ele>
        <time>2020-05-21T17:33:57.000Z</time>
      </trkpt>
      <trkpt lat="48.75252" lon="7.26716">
        <ele>377.75</ele>
        <time>2020-05-21T17:34:00.000Z</time>
      </trkpt>
      <trkpt lat="48.7526" lon="7.26713">
        <ele>377.87</ele>
        <time>2020-05-21T17:34:02.000Z</time>
      </trkpt>
      <trkpt lat="48.75265" lon="7.26711">
        <ele>376.63</ele>
        <time>2020-05-21T17:34:03.000Z</time>
      </trkpt>
      <trkpt lat="48.75272" lon="7.26709">
        <ele>376.59</ele>
        <time>2020-05-21T17:34:05.000Z</time>
      </trkpt>
      <trkpt lat="48.75279" lon="7.26706">
        <ele>377.16</ele>
        <time>2020-05-21T17:34:07.000Z</time>
      </trkpt>
      <trkpt lat="48.75286" lon="7.26704">
        <ele>375.67</ele>
        <time>2020-05-21T17:34:09.000Z</time>
      </trkpt>
      <trkpt lat="48.75294" lon="7.26701">
        <ele>376.38</ele>
        <time>2020-05-21T17:34:11.000Z</time>
      </trkpt>
      <trkpt lat="48.75302" lon="7.26699">
        <ele>374.26</ele>
        <time>2020-05-21T17:34:13.000Z</time>
      </trkpt>
      <trkpt lat="48.75309" lon="7.26695">
        <ele>375.63</ele>
        <time>2020-05-21T17:34:15.000Z</time>
      </trkpt>
      <trkpt lat="48.75316" lon="7.26691">
        <ele>376.85</ele>
        <time>2020-05-21T17:34:17.000Z</time>
      </trkpt>
      <trkpt lat="48.75324" lon="7.26687">
        <ele>376.44</ele>
        <time>2020-05-21T17:34:19.000Z</time>
      </trkpt>
      <trkpt lat="48.75332" lon="7.26685">
        <ele>376.99</ele>
        <time>2020-05-21T17:34:21.000Z</time>
      </trkpt>
      <trkpt lat="48.75339" lon="7.26684">
        <ele>377.59</ele>
        <time>2020-05-21T17:34:23.000Z</time>
      </trkpt>
      <trkpt lat="48.75347" lon="7.26682">
        <ele>380.73</ele>
        <time>2020-05-21T17:34:25.000Z</time>
      </trkpt>
      <trkpt lat="48.75355" lon="7.26676">
        <ele>380.85</ele>
        <time>2020-05-21T17:34:27.000Z</time>
      </trkpt>
      <trkpt lat="48.75364" lon="7.26671">
        <ele>378.96</ele>
        <time>2020-05-21T17:34:28.000Z</time>
      </trkpt>
      <trkpt lat="48.75371" lon="7.26669">
        <ele>378.14</ele>
        <time>2020-05-21T17:34:29.000Z</time>
      </trkpt>
      <trkpt lat="48.75379" lon="7.26665">
        <ele>377.7</ele>
        <time>2020-05-21T17:34:30.000Z</time>
      </trkpt>
      <trkpt lat="48.75386" lon="7.26662">
        <ele>379.38</ele>
        <time>2020-05-21T17:34:31.000Z</time>
      </trkpt>
      <trkpt lat="48.75397" lon="7.26657">
        <ele>375.73</ele>
        <time>2020-05-21T17:34:33.000Z</time>
      </trkpt>
      <trkpt lat="48.75402" lon="7.26656">
        <ele>374.58</ele>
        <time>2020-05-21T17:34:34.000Z</time>
      </trkpt>
      <trkpt lat="48.7541" lon="7.26655">
        <ele>374.93</ele>
        <time>2020-05-21T17:34:35.000Z</time>
      </trkpt>
      <trkpt lat="48.75417" lon="7.26657">
        <ele>374.34</ele>
        <time>2020-05-21T17:34:36.000Z</time>
      </trkpt>
      <trkpt lat="48.75425" lon="7.26656">
        <ele>375.1</ele>
        <time>2020-05-21T17:34:37.000Z</time>
      </trkpt>
      <trkpt lat="48.75432" lon="7.26653">
        <ele>374.6</ele>
        <time>2020-05-21T17:34:38.000Z</time>
      </trkpt>
      <trkpt lat="48.75437" lon="7.26651">
        <ele>373.78</ele>
        <time>2020-05-21T17:34:39.000Z</time>
      </trkpt>
      <trkpt lat="48.75446" lon="7.26651">
        <ele>374.93</ele>
        <time>2020-05-21T17:34:40.000Z</time>
      </trkpt>
      <trkpt lat="48.75451" lon="7.26648">
        <ele>374.61</ele>
        <time>2020-05-21T17:34:41.000Z</time>
      </trkpt>
      <trkpt lat="48.75459" lon="7.26644">
        <ele>375.02</ele>
        <time>2020-05-21T17:34:42.000Z</time>
      </trkpt>
      <trkpt lat="48.75469" lon="7.26642">
        <ele>375.39</ele>
        <time>2020-05-21T17:34:43.000Z</time>
      </trkpt>
      <trkpt lat="48.75475" lon="7.26637">
        <ele>373.45</ele>
        <time>2020-05-21T17:34:44.000Z</time>
      </trkpt>
      <trkpt lat="48.75481" lon="7.26631">
        <ele>373.24</ele>
        <time>2020-05-21T17:34:45.000Z</time>
      </trkpt>
      <trkpt lat="48.75488" lon="7.26625">
        <ele>372.33</ele>
        <time>2020-05-21T17:34:46.000Z</time>
      </trkpt>
      <trkpt lat="48.75495" lon="7.26619">
        <ele>369.88</ele>
        <time>2020-05-21T17:34:47.000Z</time>
      </trkpt>
      <trkpt lat="48.75501" lon="7.26617">
        <ele>372.85</ele>
        <time>2020-05-21T17:34:48.000Z</time>
      </trkpt>
      <trkpt lat="48.75505" lon="7.26611">
        <ele>371.88</ele>
        <time>2020-05-21T17:34:49.000Z</time>
      </trkpt>
      <trkpt lat="48.75511" lon="7.26598">
        <ele>369.11</ele>
        <time>2020-05-21T17:34:51.000Z</time>
      </trkpt>
      <trkpt lat="48.75515" lon="7.26592">
        <ele>368.41</ele>
        <time>2020-05-21T17:34:52.000Z</time>
      </trkpt>
      <trkpt lat="48.75519" lon="7.26586">
        <ele>371.99</ele>
        <time>2020-05-21T17:34:53.000Z</time>
      </trkpt>
      <trkpt lat="48.75523" lon="7.2658">
        <ele>373.1</ele>
        <time>2020-05-21T17:34:54.000Z</time>
      </trkpt>
      <trkpt lat="48.75527" lon="7.26574">
        <ele>372.81</ele>
        <time>2020-05-21T17:34:55.000Z</time>
      </trkpt>
      <trkpt lat="48.75534" lon="7.26565">
        <ele>371.24</ele>
        <time>2020-05-21T17:34:56.000Z</time>
      </trkpt>
      <trkpt lat="48.75539" lon="7.2656">
        <ele>371.86</ele>
        <time>2020-05-21T17:34:57.000Z</time>
      </trkpt>
      <trkpt lat="48.75546" lon="7.26556">
        <ele>370.89</ele>
        <time>2020-05-21T17:34:58.000Z</time>
      </trkpt>
      <trkpt lat="48.75552" lon="7.2655">
        <ele>368.8</ele>
        <time>2020-05-21T17:34:59.000Z</time>
      </trkpt>
      <trkpt lat="48.7556" lon="7.26546">
        <ele>367.91</ele>
        <time>2020-05-21T17:35:00.000Z</time>
      </trkpt>
      <trkpt lat="48.75567" lon="7.26539">
        <ele>367.91</ele>
        <time>2020-05-21T17:35:01.000Z</time>
      </trkpt>
      <trkpt lat="48.75573" lon="7.26533">
        <ele>368.97</ele>
        <time>2020-05-21T17:35:02.000Z</time>
      </trkpt>
      <trkpt lat="48.7558" lon="7.26528">
        <ele>366.09</ele>
        <time>2020-05-21T17:35:03.000Z</time>
      </trkpt>
      <trkpt lat="48.75586" lon="7.26524">
        <ele>365</ele>
        <time>2020-05-21T17:35:04.000Z</time>
      </trkpt>
      <trkpt lat="48.75594" lon="7.2652">
        <ele>363.82</ele>
        <time>2020-05-21T17:35:05.000Z</time>
      </trkpt>
      <trkpt lat="48.756" lon="7.26517">
        <ele>363.93</ele>
        <time>2020-05-21T17:35:06.000Z</time>
      </trkpt>
      <trkpt lat="48.75611" lon="7.26516">
        <ele>361.7</ele>
        <time>2020-05-21T17:35:08.000Z</time>
      </trkpt>
    </trkseg>
  </trk>
  <trk>
    <name><![CDATA[secteur Saverne - Dabo - Petite Pierre_24]]></name>
    <trkseg>
      <trkpt lat="48.73514" lon="7.25095">
        <ele>219</ele>
        <time>2020-05-22T12:09:14Z</time>
      </trkpt>
      <trkpt lat="48.73514" lon="7.25095">
        <ele>219</ele>
        <time>2020-05-22T12:09:14Z</time>
      </trkpt>
      <trkpt lat="48.73514" lon="7.25095">
        <ele>219</ele>
        <time>2020-05-22T12:09:14Z</time>
      </trkpt>
      <trkpt lat="48.73514" lon="7.25095">
        <ele>219</ele>
        <time>2020-05-22T12:09:14Z</time>
      </trkpt>
      <trkpt lat="48.73514" lon="7.25095">
        <ele>219</ele>
        <time>2020-05-22T12:09:14Z</time>
      </trkpt>
      <trkpt lat="48.73514" lon="7.25095">
        <ele>219</ele>
        <time>2020-05-22T12:09:14Z</time>
      </trkpt>
      <trkpt lat="48.73514" lon="7.25095">
        <ele>219</ele>
        <time>2020-05-22T12:09:14Z</time>
      </trkpt>
      <trkpt lat="48.73509" lon="7.25092">
        <ele>218.8</ele>
        <time>2020-05-22T12:09:16Z</time>
      </trkpt>
      <trkpt lat="48.73502" lon="7.25083">
        <ele>218.7</ele>
        <time>2020-05-22T12:09:18Z</time>
      </trkpt>
      <trkpt lat="48.73499" lon="7.25076">
        <ele>218.5</ele>
        <time>2020-05-22T12:09:19Z</time>
      </trkpt>
      <trkpt lat="48.73492" lon="7.25062">
        <ele>218.2</ele>
        <time>2020-05-22T12:09:21Z</time>
      </trkpt>
      <trkpt lat="48.73486" lon="7.25047">
        <ele>217.9</ele>
        <time>2020-05-22T12:09:23Z</time>
      </trkpt>
      <trkpt lat="48.73479" lon="7.25035">
        <ele>217.8</ele>
        <time>2020-05-22T12:09:25Z</time>
      </trkpt>
      <trkpt lat="48.73474" lon="7.25021">
        <ele>217.7</ele>
        <time>2020-05-22T12:09:27Z</time>
      </trkpt>
      <trkpt lat="48.73471" lon="7.25015">
        <ele>217.7</ele>
        <time>2020-05-22T12:09:28Z</time>
      </trkpt>
      <trkpt lat="48.73468" lon="7.25009">
        <ele>217.6</ele>
        <time>2020-05-22T12:09:29Z</time>
      </trkpt>
      <trkpt lat="48.73462" lon="7.24997">
        <ele>217.5</ele>
        <time>2020-05-22T12:09:31Z</time>
      </trkpt>
      <trkpt lat="48.73459" lon="7.24991">
        <ele>217.5</ele>
        <time>2020-05-22T12:09:32Z</time>
      </trkpt>
      <trkpt lat="48.73453" lon="7.24978">
        <ele>217.5</ele>
        <time>2020-05-22T12:09:34Z</time>
      </trkpt>
      <trkpt lat="48.73446" lon="7.24967">
        <ele>217.4</ele>
        <time>2020-05-22T12:09:36Z</time>
      </trkpt>
      <trkpt lat="48.73438" lon="7.24957">
        <ele>217.3</ele>
        <time>2020-05-22T12:09:38Z</time>
      </trkpt>
      <trkpt lat="48.73433" lon="7.24953">
        <ele>217.3</ele>
        <time>2020-05-22T12:09:39Z</time>
      </trkpt>
      <trkpt lat="48.73425" lon="7.24944">
        <ele>217.3</ele>
        <time>2020-05-22T12:09:41Z</time>
      </trkpt>
      <trkpt lat="48.73418" lon="7.24937">
        <ele>217.3</ele>
        <time>2020-05-22T12:09:43Z</time>
      </trkpt>
      <trkpt lat="48.7341" lon="7.2493">
        <ele>217.3</ele>
        <time>2020-05-22T12:09:45Z</time>
      </trkpt>
      <trkpt lat="48.73405" lon="7.24928">
        <ele>217.2</ele>
        <time>2020-05-22T12:09:46Z</time>
      </trkpt>
      <trkpt lat="48.73396" lon="7.24923">
        <ele>217.2</ele>
        <time>2020-05-22T12:09:48Z</time>
      </trkpt>
      <trkpt lat="48.73387" lon="7.24918">
        <ele>217.2</ele>
        <time>2020-05-22T12:09:50Z</time>
      </trkpt>
      <trkpt lat="48.73382" lon="7.24916">
        <ele>217.1</ele>
        <time>2020-05-22T12:09:51Z</time>
      </trkpt>
      <trkpt lat="48.73377" lon="7.24914">
        <ele>217.1</ele>
        <time>2020-05-22T12:09:52Z</time>
      </trkpt>
      <trkpt lat="48.73368" lon="7.24911">
        <ele>217.1</ele>
        <time>2020-05-22T12:09:54Z</time>
      </trkpt>
      <trkpt lat="48.73359" lon="7.24909">
        <ele>217.1</ele>
        <time>2020-05-22T12:09:56Z</time>
      </trkpt>
      <trkpt lat="48.73354" lon="7.24907">
        <ele>217.1</ele>
        <time>2020-05-22T12:09:57Z</time>
      </trkpt>
      <trkpt lat="48.73349" lon="7.24907">
        <ele>217.1</ele>
        <time>2020-05-22T12:09:58Z</time>
      </trkpt>
      <trkpt lat="48.73345" lon="7.24906">
        <ele>217.1</ele>
        <time>2020-05-22T12:09:59Z</time>
      </trkpt>
      <trkpt lat="48.7334" lon="7.24905">
        <ele>217.1</ele>
        <time>2020-05-22T12:10:00Z</time>
      </trkpt>
      <trkpt lat="48.73335" lon="7.24904">
        <ele>217.1</ele>
        <time>2020-05-22T12:10:01Z</time>
      </trkpt>
      <trkpt lat="48.73326" lon="7.24906">
        <ele>217</ele>
        <time>2020-05-22T12:10:03Z</time>
      </trkpt>
      <trkpt lat="48.73316" lon="7.24908">
        <ele>217</ele>
        <time>2020-05-22T12:10:05Z</time>
      </trkpt>
      <trkpt lat="48.73311" lon="7.2491">
        <ele>217</ele>
        <time>2020-05-22T12:10:06Z</time>
      </trkpt>
      <trkpt lat="48.73302" lon="7.24913">
        <ele>217</ele>
        <time>2020-05-22T12:10:08Z</time>
      </trkpt>
      <trkpt lat="48.73293" lon="7.24917">
        <ele>217</ele>
        <time>2020-05-22T12:10:10Z</time>
      </trkpt>
      <trkpt lat="48.73289" lon="7.2492">
        <ele>217</ele>
        <time>2020-05-22T12:10:11Z</time>
      </trkpt>
      <trkpt lat="48.7328" lon="7.24925">
        <ele>217.1</ele>
        <time>2020-05-22T12:10:13Z</time>
      </trkpt>
      <trkpt lat="48.73274" lon="7.24924">
        <ele>217.1</ele>
        <time>2020-05-22T12:10:14Z</time>
      </trkpt>
      <trkpt lat="48.73268" lon="7.24919">
        <ele>217.6</ele>
        <time>2020-05-22T12:10:16Z</time>
      </trkpt>
      <trkpt lat="48.73268" lon="7.24909">
        <ele>217.8</ele>
        <time>2020-05-22T12:10:18Z</time>
      </trkpt>
      <trkpt lat="48.73268" lon="7.24903">
        <ele>217.9</ele>
        <time>2020-05-22T12:10:19Z</time>
      </trkpt>
      <trkpt lat="48.73268" lon="7.24897">
        <ele>218.1</ele>
        <time>2020-05-22T12:10:20Z</time>
      </trkpt>
      <trkpt lat="48.73267" lon="7.24887">
        <ele>218.4</ele>
        <time>2020-05-22T12:10:22Z</time>
      </trkpt>
      <trkpt lat="48.73267" lon="7.24881">
        <ele>218.5</ele>
        <time>2020-05-22T12:10:23Z</time>
      </trkpt>
      <trkpt lat="48.73266" lon="7.24871">
        <ele>218.8</ele>
        <time>2020-05-22T12:10:25Z</time>
      </trkpt>
      <trkpt lat="48.73265" lon="7.2486">
        <ele>219.2</ele>
        <time>2020-05-22T12:10:27Z</time>
      </trkpt>
      <trkpt lat="48.73265" lon="7.24855">
        <ele>219.3</ele>
        <time>2020-05-22T12:10:28Z</time>
      </trkpt>
      <trkpt lat="48.73264" lon="7.24845">
        <ele>219.6</ele>
        <time>2020-05-22T12:10:30Z</time>
      </trkpt>
      <trkpt lat="48.73263" lon="7.24839">
        <ele>219.8</ele>
        <time>2020-05-22T12:10:31Z</time>
      </trkpt>
      <trkpt lat="48.73263" lon="7.24829">
        <ele>220</ele>
        <time>2020-05-22T12:10:33Z</time>
      </trkpt>
      <trkpt lat="48.73262" lon="7.24823">
        <ele>220.2</ele>
        <time>2020-05-22T12:10:34Z</time>
      </trkpt>
      <trkpt lat="48.73263" lon="7.24812">
        <ele>220.4</ele>
        <time>2020-05-22T12:10:36Z</time>
      </trkpt>
      <trkpt lat="48.73263" lon="7.248">
        <ele>220.7</ele>
        <time>2020-05-22T12:10:38Z</time>
      </trkpt>
      <trkpt lat="48.73264" lon="7.24794">
        <ele>220.8</ele>
        <time>2020-05-22T12:10:39Z</time>
      </trkpt>
      <trkpt lat="48.73264" lon="7.24783">
        <ele>221.2</ele>
        <time>2020-05-22T12:10:41Z</time>
      </trkpt>
      <trkpt lat="48.73262" lon="7.2478">
        <ele>221.3</ele>
        <time>2020-05-22T12:10:42Z</time>
      </trkpt>
      <trkpt lat="48.73257" lon="7.24781">
        <ele>221.6</ele>
        <time>2020-05-22T12:10:44Z</time>
      </trkpt>
      <trkpt lat="48.73255" lon="7.24787">
        <ele>221.8</ele>
        <time>2020-05-22T12:10:46Z</time>
      </trkpt>
      <trkpt lat="48.73254" lon="7.2479">
        <ele>222</ele>
        <time>2020-05-22T12:10:47Z</time>
      </trkpt>
      <trkpt lat="48.73251" lon="7.24797">
        <ele>222.4</ele>
        <time>2020-05-22T12:10:49Z</time>
      </trkpt>
      <trkpt lat="48.73251" lon="7.24802">
        <ele>222.7</ele>
        <time>2020-05-22T12:10:50Z</time>
      </trkpt>
      <trkpt lat="48.73251" lon="7.24804">
        <ele>222.8</ele>
        <time>2020-05-22T12:10:51Z</time>
      </trkpt>
      <trkpt lat="48.7325" lon="7.2481">
        <ele>223.2</ele>
        <time>2020-05-22T12:10:53Z</time>
      </trkpt>
      <trkpt lat="48.7325" lon="7.24813">
        <ele>223.4</ele>
        <time>2020-05-22T12:10:54Z</time>
      </trkpt>
      <trkpt lat="48.7325" lon="7.24817">
        <ele>223.7</ele>
        <time>2020-05-22T12:10:56Z</time>
      </trkpt>
      <trkpt lat="48.7325" lon="7.24822">
        <ele>224</ele>
        <time>2020-05-22T12:10:58Z</time>
      </trkpt>
      <trkpt lat="48.7325" lon="7.24828">
        <ele>224.4</ele>
        <time>2020-05-22T12:11:00Z</time>
      </trkpt>
      <trkpt lat="48.7325" lon="7.2483">
        <ele>224.6</ele>
        <time>2020-05-22T12:11:01Z</time>
      </trkpt>
      <trkpt lat="48.73249" lon="7.24836">
        <ele>225</ele>
        <time>2020-05-22T12:11:03Z</time>
      </trkpt>
      <trkpt lat="48.73248" lon="7.24838">
        <ele>225.2</ele>
        <time>2020-05-22T12:11:04Z</time>
      </trkpt>
      <trkpt lat="48.73247" lon="7.24842">
        <ele>225.5</ele>
        <time>2020-05-22T12:11:06Z</time>
      </trkpt>
      <trkpt lat="48.73246" lon="7.24847">
        <ele>225.8</ele>
        <time>2020-05-22T12:11:08Z</time>
      </trkpt>
      <trkpt lat="48.73246" lon="7.24849">
        <ele>226</ele>
        <time>2020-05-22T12:11:09Z</time>
      </trkpt>
      <trkpt lat="48.73245" lon="7.24854">
        <ele>226.4</ele>
        <time>2020-05-22T12:11:11Z</time>
      </trkpt>
      <trkpt lat="48.73245" lon="7.24856">
        <ele>226.5</ele>
        <time>2020-05-22T12:11:12Z</time>
      </trkpt>
      <trkpt lat="48.73245" lon="7.24858">
        <ele>226.7</ele>
        <time>2020-05-22T12:11:13Z</time>
      </trkpt>
      <trkpt lat="48.73244" lon="7.24863">
        <ele>227.2</ele>
        <time>2020-05-22T12:11:15Z</time>
      </trkpt>
      <trkpt lat="48.73243" lon="7.24866">
        <ele>227.4</ele>
        <time>2020-05-22T12:11:16Z</time>
      </trkpt>
      <trkpt lat="48.73242" lon="7.24868">
        <ele>227.6</ele>
        <time>2020-05-22T12:11:17Z</time>
      </trkpt>
      <trkpt lat="48.73242" lon="7.24873">
        <ele>228</ele>
        <time>2020-05-22T12:11:19Z</time>
      </trkpt>
      <trkpt lat="48.73241" lon="7.24875">
        <ele>228.2</ele>
        <time>2020-05-22T12:11:20Z</time>
      </trkpt>
      <trkpt lat="48.73241" lon="7.24879">
        <ele>228.6</ele>
        <time>2020-05-22T12:11:22Z</time>
      </trkpt>
      <trkpt lat="48.7324" lon="7.24885">
        <ele>229.1</ele>
        <time>2020-05-22T12:11:24Z</time>
      </trkpt>
      <trkpt lat="48.7324" lon="7.24887">
        <ele>229.3</ele>
        <time>2020-05-22T12:11:25Z</time>
      </trkpt>
      <trkpt lat="48.73239" lon="7.24892">
        <ele>229.9</ele>
        <time>2020-05-22T12:11:27Z</time>
      </trkpt>
      <trkpt lat="48.73238" lon="7.24895">
        <ele>230.1</ele>
        <time>2020-05-22T12:11:28Z</time>
      </trkpt>
      <trkpt lat="48.73237" lon="7.249">
        <ele>230.7</ele>
        <time>2020-05-22T12:11:30Z</time>
      </trkpt>
      <trkpt lat="48.73236" lon="7.24903">
        <ele>230.9</ele>
        <time>2020-05-22T12:11:31Z</time>
      </trkpt>
      <trkpt lat="48.73234" lon="7.24907">
        <ele>231.5</ele>
        <time>2020-05-22T12:11:33Z</time>
      </trkpt>
      <trkpt lat="48.73231" lon="7.24913">
        <ele>232.2</ele>
        <time>2020-05-22T12:11:35Z</time>
      </trkpt>
      <trkpt lat="48.73229" lon="7.24915">
        <ele>232.4</ele>
        <time>2020-05-22T12:11:37Z</time>
      </trkpt>
      <trkpt lat="48.73228" lon="7.24917">
        <ele>232.6</ele>
        <time>2020-05-22T12:11:38Z</time>
      </trkpt>
      <trkpt lat="48.73227" lon="7.24919">
        <ele>232.9</ele>
        <time>2020-05-22T12:11:39Z</time>
      </trkpt>
      <trkpt lat="48.73225" lon="7.24923">
        <ele>233.4</ele>
        <time>2020-05-22T12:11:41Z</time>
      </trkpt>
      <trkpt lat="48.73223" lon="7.24925">
        <ele>233.8</ele>
        <time>2020-05-22T12:11:42Z</time>
      </trkpt>
      <trkpt lat="48.7322" lon="7.24929">
        <ele>234.4</ele>
        <time>2020-05-22T12:11:44Z</time>
      </trkpt>
      <trkpt lat="48.73217" lon="7.24932">
        <ele>234.9</ele>
        <time>2020-05-22T12:11:46Z</time>
      </trkpt>
      <trkpt lat="48.73214" lon="7.24934">
        <ele>235.4</ele>
        <time>2020-05-22T12:11:48Z</time>
      </trkpt>
      <trkpt lat="48.73214" lon="7.24932">
        <ele>235.6</ele>
        <time>2020-05-22T12:11:50Z</time>
      </trkpt>
      <trkpt lat="48.73215" lon="7.2493">
        <ele>235.8</ele>
        <time>2020-05-22T12:11:52Z</time>
      </trkpt>
      <trkpt lat="48.73215" lon="7.2493">
        <ele>235.8</ele>
        <time>2020-05-22T12:11:53Z</time>
      </trkpt>
      <trkpt lat="48.73215" lon="7.2493">
        <ele>235.8</ele>
        <time>2020-05-22T12:11:55Z</time>
      </trkpt>
      <trkpt lat="48.73215" lon="7.2493">
        <ele>235.8</ele>
        <time>2020-05-22T12:11:56Z</time>
      </trkpt>
      <trkpt lat="48.73215" lon="7.2493">
        <ele>235.9</ele>
        <time>2020-05-22T12:11:58Z</time>
      </trkpt>
      <trkpt lat="48.73215" lon="7.2493">
        <ele>235.9</ele>
        <time>2020-05-22T12:12:00Z</time>
      </trkpt>
      <trkpt lat="48.73215" lon="7.2493">
        <ele>235.9</ele>
        <time>2020-05-22T12:12:02Z</time>
      </trkpt>
      <trkpt lat="48.73216" lon="7.24934">
        <ele>236.4</ele>
        <time>2020-05-22T12:12:19Z</time>
      </trkpt>
      <trkpt lat="48.73216" lon="7.24934">
        <ele>236.4</ele>
        <time>2020-05-22T12:12:20Z</time>
      </trkpt>
      <trkpt lat="48.73216" lon="7.24934">
        <ele>236.4</ele>
        <time>2020-05-22T12:12:21Z</time>
      </trkpt>
      <trkpt lat="48.73216" lon="7.24934">
        <ele>236.4</ele>
        <time>2020-05-22T12:12:22Z</time>
      </trkpt>
      <trkpt lat="48.73216" lon="7.24935">
        <ele>236.6</ele>
        <time>2020-05-22T12:12:24Z</time>
      </trkpt>
      <trkpt lat="48.73216" lon="7.24935">
        <ele>236.6</ele>
        <time>2020-05-22T12:12:26Z</time>
      </trkpt>
      <trkpt lat="48.73216" lon="7.24934">
        <ele>236.7</ele>
        <time>2020-05-22T12:12:28Z</time>
      </trkpt>
      <trkpt lat="48.73216" lon="7.24934">
        <ele>236.7</ele>
        <time>2020-05-22T12:12:30Z</time>
      </trkpt>
      <trkpt lat="48.73216" lon="7.24934">
        <ele>236.7</ele>
        <time>2020-05-22T12:12:32Z</time>
      </trkpt>
      <trkpt lat="48.73216" lon="7.24934">
        <ele>236.8</ele>
        <time>2020-05-22T12:12:34Z</time>
      </trkpt>
      <trkpt lat="48.73213" lon="7.24937">
        <ele>237.3</ele>
        <time>2020-05-22T12:12:50Z</time>
      </trkpt>
      <trkpt lat="48.73212" lon="7.24938">
        <ele>237.5</ele>
        <time>2020-05-22T12:12:51Z</time>
      </trkpt>
      <trkpt lat="48.73208" lon="7.24941">
        <ele>238.1</ele>
        <time>2020-05-22T12:12:53Z</time>
      </trkpt>
      <trkpt lat="48.73207" lon="7.24942">
        <ele>238.4</ele>
        <time>2020-05-22T12:12:54Z</time>
      </trkpt>
      <trkpt lat="48.73205" lon="7.24943">
        <ele>238.7</ele>
        <time>2020-05-22T12:12:55Z</time>
      </trkpt>
      <trkpt lat="48.73203" lon="7.24944">
        <ele>238.9</ele>
        <time>2020-05-22T12:12:56Z</time>
      </trkpt>
      <trkpt lat="48.73201" lon="7.24945">
        <ele>239.3</ele>
        <time>2020-05-22T12:12:58Z</time>
      </trkpt>
      <trkpt lat="48.73199" lon="7.24946">
        <ele>239.6</ele>
        <time>2020-05-22T12:12:59Z</time>
      </trkpt>
      <trkpt lat="48.73196" lon="7.24948">
        <ele>240.1</ele>
        <time>2020-05-22T12:13:01Z</time>
      </trkpt>
      <trkpt lat="48.73194" lon="7.24948">
        <ele>240.4</ele>
        <time>2020-05-22T12:13:02Z</time>
      </trkpt>
      <trkpt lat="48.7319" lon="7.24949">
        <ele>240.8</ele>
        <time>2020-05-22T12:13:04Z</time>
      </trkpt>
      <trkpt lat="48.73187" lon="7.2495">
        <ele>241.2</ele>
        <time>2020-05-22T12:13:05Z</time>
      </trkpt>
      <trkpt lat="48.73186" lon="7.2495">
        <ele>241.4</ele>
        <time>2020-05-22T12:13:06Z</time>
      </trkpt>
      <trkpt lat="48.73182" lon="7.24953">
        <ele>241.9</ele>
        <time>2020-05-22T12:13:08Z</time>
      </trkpt>
      <trkpt lat="48.73177" lon="7.24955">
        <ele>242.3</ele>
        <time>2020-05-22T12:13:10Z</time>
      </trkpt>
      <trkpt lat="48.73174" lon="7.24958">
        <ele>242.7</ele>
        <time>2020-05-22T12:13:12Z</time>
      </trkpt>
      <trkpt lat="48.73172" lon="7.24959">
        <ele>242.8</ele>
        <time>2020-05-22T12:13:13Z</time>
      </trkpt>
      <trkpt lat="48.73168" lon="7.24961">
        <ele>243.3</ele>
        <time>2020-05-22T12:13:15Z</time>
      </trkpt>
      <trkpt lat="48.73164" lon="7.24963">
        <ele>243.6</ele>
        <time>2020-05-22T12:13:17Z</time>
      </trkpt>
      <trkpt lat="48.7316" lon="7.24964">
        <ele>244.1</ele>
        <time>2020-05-22T12:13:19Z</time>
      </trkpt>
      <trkpt lat="48.73155" lon="7.24966">
        <ele>244.6</ele>
        <time>2020-05-22T12:13:21Z</time>
      </trkpt>
      <trkpt lat="48.73152" lon="7.24967">
        <ele>245</ele>
        <time>2020-05-22T12:13:23Z</time>
      </trkpt>
      <trkpt lat="48.73148" lon="7.24966">
        <ele>245.4</ele>
        <time>2020-05-22T12:13:25Z</time>
      </trkpt>
      <trkpt lat="48.73146" lon="7.24967">
        <ele>245.6</ele>
        <time>2020-05-22T12:13:26Z</time>
      </trkpt>
      <trkpt lat="48.73143" lon="7.24966">
        <ele>246.1</ele>
        <time>2020-05-22T12:13:28Z</time>
      </trkpt>
      <trkpt lat="48.7314" lon="7.24965">
        <ele>246.5</ele>
        <time>2020-05-22T12:13:29Z</time>
      </trkpt>
      <trkpt lat="48.73139" lon="7.24965">
        <ele>246.7</ele>
        <time>2020-05-22T12:13:30Z</time>
      </trkpt>
      <trkpt lat="48.73137" lon="7.24964">
        <ele>246.9</ele>
        <time>2020-05-22T12:13:31Z</time>
      </trkpt>
      <trkpt lat="48.73135" lon="7.24963">
        <ele>247.3</ele>
        <time>2020-05-22T12:13:33Z</time>
      </trkpt>
      <trkpt lat="48.73132" lon="7.24962">
        <ele>247.7</ele>
        <time>2020-05-22T12:13:34Z</time>
      </trkpt>
      <trkpt lat="48.73131" lon="7.24961">
        <ele>247.8</ele>
        <time>2020-05-22T12:13:35Z</time>
      </trkpt>
      <trkpt lat="48.73129" lon="7.24961">
        <ele>248.1</ele>
        <time>2020-05-22T12:13:36Z</time>
      </trkpt>
      <trkpt lat="48.73127" lon="7.2496">
        <ele>248.4</ele>
        <time>2020-05-22T12:13:38Z</time>
      </trkpt>
      <trkpt lat="48.73126" lon="7.24961">
        <ele>248.6</ele>
        <time>2020-05-22T12:13:39Z</time>
      </trkpt>
      <trkpt lat="48.73122" lon="7.24961">
        <ele>248.9</ele>
        <time>2020-05-22T12:13:41Z</time>
      </trkpt>
      <trkpt lat="48.7312" lon="7.2496">
        <ele>249.2</ele>
        <time>2020-05-22T12:13:42Z</time>
      </trkpt>
      <trkpt lat="48.73116" lon="7.24956">
        <ele>249.6</ele>
        <time>2020-05-22T12:13:44Z</time>
      </trkpt>
      <trkpt lat="48.73115" lon="7.24953">
        <ele>249.8</ele>
        <time>2020-05-22T12:13:45Z</time>
      </trkpt>
      <trkpt lat="48.73115" lon="7.24947">
        <ele>250</ele>
        <time>2020-05-22T12:13:47Z</time>
      </trkpt>
      <trkpt lat="48.73115" lon="7.24939">
        <ele>250.2</ele>
        <time>2020-05-22T12:13:49Z</time>
      </trkpt>
      <trkpt lat="48.73115" lon="7.24936">
        <ele>250.3</ele>
        <time>2020-05-22T12:13:50Z</time>
      </trkpt>
      <trkpt lat="48.73117" lon="7.24929">
        <ele>250.4</ele>
        <time>2020-05-22T12:13:52Z</time>
      </trkpt>
      <trkpt lat="48.7312" lon="7.24925">
        <ele>250.5</ele>
        <time>2020-05-22T12:13:53Z</time>
      </trkpt>
      <trkpt lat="48.73121" lon="7.24924">
        <ele>250.5</ele>
        <time>2020-05-22T12:13:54Z</time>
      </trkpt>
      <trkpt lat="48.73124" lon="7.24919">
        <ele>250.5</ele>
        <time>2020-05-22T12:13:56Z</time>
      </trkpt>
      <trkpt lat="48.73126" lon="7.24912">
        <ele>250.5</ele>
        <time>2020-05-22T12:13:58Z</time>
      </trkpt>
      <trkpt lat="48.73129" lon="7.24903">
        <ele>250.5</ele>
        <time>2020-05-22T12:14:00Z</time>
      </trkpt>
      <trkpt lat="48.73129" lon="7.24899">
        <ele>250.5</ele>
        <time>2020-05-22T12:14:01Z</time>
      </trkpt>
      <trkpt lat="48.73129" lon="7.24895">
        <ele>250.5</ele>
        <time>2020-05-22T12:14:02Z</time>
      </trkpt>
      <trkpt lat="48.73128" lon="7.2489">
        <ele>250.5</ele>
        <time>2020-05-22T12:14:03Z</time>
      </trkpt>
      <trkpt lat="48.73124" lon="7.24878">
        <ele>250.3</ele>
        <time>2020-05-22T12:14:05Z</time>
      </trkpt>
      <trkpt lat="48.73121" lon="7.24875">
        <ele>250.3</ele>
        <time>2020-05-22T12:14:06Z</time>
      </trkpt>
      <trkpt lat="48.73109" lon="7.24868">
        <ele>250.1</ele>
        <time>2020-05-22T12:14:08Z</time>
      </trkpt>
      <trkpt lat="48.73104" lon="7.24865">
        <ele>250.1</ele>
        <time>2020-05-22T12:14:09Z</time>
      </trkpt>
      <trkpt lat="48.73096" lon="7.24858">
        <ele>250.2</ele>
        <time>2020-05-22T12:14:11Z</time>
      </trkpt>
      <trkpt lat="48.73091" lon="7.24854">
        <ele>250.2</ele>
        <time>2020-05-22T12:14:12Z</time>
      </trkpt>
      <trkpt lat="48.73087" lon="7.24852">
        <ele>250.3</ele>
        <time>2020-05-22T12:14:13Z</time>
      </trkpt>
      <trkpt lat="48.73082" lon="7.24851">
        <ele>250.4</ele>
        <time>2020-05-22T12:14:14Z</time>
      </trkpt>
      <trkpt lat="48.73075" lon="7.24849">
        <ele>250.6</ele>
        <time>2020-05-22T12:14:16Z</time>
      </trkpt>
      <trkpt lat="48.73071" lon="7.24849">
        <ele>250.7</ele>
        <time>2020-05-22T12:14:17Z</time>
      </trkpt>
      <trkpt lat="48.73067" lon="7.24847">
        <ele>250.8</ele>
        <time>2020-05-22T12:14:18Z</time>
      </trkpt>
      <trkpt lat="48.73064" lon="7.24843">
        <ele>251</ele>
        <time>2020-05-22T12:14:19Z</time>
      </trkpt>
      <trkpt lat="48.73061" lon="7.24835">
        <ele>251.2</ele>
        <time>2020-05-22T12:14:21Z</time>
      </trkpt>
      <trkpt lat="48.73059" lon="7.24825">
        <ele>251.6</ele>
        <time>2020-05-22T12:14:23Z</time>
      </trkpt>
      <trkpt lat="48.73058" lon="7.2482">
        <ele>251.7</ele>
        <time>2020-05-22T12:14:24Z</time>
      </trkpt>
      <trkpt lat="48.73056" lon="7.24811">
        <ele>252</ele>
        <time>2020-05-22T12:14:26Z</time>
      </trkpt>
      <trkpt lat="48.73055" lon="7.24806">
        <ele>252.2</ele>
        <time>2020-05-22T12:14:27Z</time>
      </trkpt>
      <trkpt lat="48.73052" lon="7.24799">
        <ele>252.5</ele>
        <time>2020-05-22T12:14:29Z</time>
      </trkpt>
      <trkpt lat="48.73051" lon="7.24794">
        <ele>252.7</ele>
        <time>2020-05-22T12:14:30Z</time>
      </trkpt>
      <trkpt lat="48.7305" lon="7.24785">
        <ele>253</ele>
        <time>2020-05-22T12:14:32Z</time>
      </trkpt>
      <trkpt lat="48.73049" lon="7.24774">
        <ele>253.5</ele>
        <time>2020-05-22T12:14:34Z</time>
      </trkpt>
      <trkpt lat="48.73048" lon="7.24764">
        <ele>254</ele>
        <time>2020-05-22T12:14:36Z</time>
      </trkpt>
      <trkpt lat="48.73047" lon="7.24759">
        <ele>254.2</ele>
        <time>2020-05-22T12:14:37Z</time>
      </trkpt>
      <trkpt lat="48.73046" lon="7.24757">
        <ele>254.3</ele>
        <time>2020-05-22T12:14:38Z</time>
      </trkpt>
      <trkpt lat="48.73044" lon="7.2475">
        <ele>254.7</ele>
        <time>2020-05-22T12:14:40Z</time>
      </trkpt>
      <trkpt lat="48.73043" lon="7.24743">
        <ele>255.1</ele>
        <time>2020-05-22T12:14:42Z</time>
      </trkpt>
      <trkpt lat="48.73043" lon="7.24739">
        <ele>255.3</ele>
        <time>2020-05-22T12:14:43Z</time>
      </trkpt>
      <trkpt lat="48.73043" lon="7.24729">
        <ele>255.8</ele>
        <time>2020-05-22T12:14:45Z</time>
      </trkpt>
      <trkpt lat="48.73043" lon="7.24725">
        <ele>256</ele>
        <time>2020-05-22T12:14:46Z</time>
      </trkpt>
      <trkpt lat="48.73043" lon="7.2472">
        <ele>256.2</ele>
        <time>2020-05-22T12:14:47Z</time>
      </trkpt>
      <trkpt lat="48.73042" lon="7.24719">
        <ele>256.3</ele>
        <time>2020-05-22T12:14:48Z</time>
      </trkpt>
      <trkpt lat="48.7304" lon="7.24714">
        <ele>256.6</ele>
        <time>2020-05-22T12:14:50Z</time>
      </trkpt>
      <trkpt lat="48.73038" lon="7.24711">
        <ele>256.8</ele>
        <time>2020-05-22T12:14:51Z</time>
      </trkpt>
      <trkpt lat="48.73035" lon="7.24699">
        <ele>257.4</ele>
        <time>2020-05-22T12:14:53Z</time>
      </trkpt>
      <trkpt lat="48.73034" lon="7.2469">
        <ele>257.8</ele>
        <time>2020-05-22T12:14:55Z</time>
      </trkpt>
      <trkpt lat="48.73033" lon="7.24682">
        <ele>258.2</ele>
        <time>2020-05-22T12:14:57Z</time>
      </trkpt>
      <trkpt lat="48.73032" lon="7.24674">
        <ele>258.5</ele>
        <time>2020-05-22T12:14:59Z</time>
      </trkpt>
      <trkpt lat="48.73032" lon="7.24665">
        <ele>259</ele>
        <time>2020-05-22T12:15:01Z</time>
      </trkpt>
      <trkpt lat="48.73031" lon="7.24661">
        <ele>259.2</ele>
        <time>2020-05-22T12:15:02Z</time>
      </trkpt>
      <trkpt lat="48.73031" lon="7.24653">
        <ele>259.6</ele>
        <time>2020-05-22T12:15:04Z</time>
      </trkpt>
      <trkpt lat="48.73029" lon="7.24645">
        <ele>260.1</ele>
        <time>2020-05-22T12:15:06Z</time>
      </trkpt>
      <trkpt lat="48.73029" lon="7.24641">
        <ele>260.3</ele>
        <time>2020-05-22T12:15:07Z</time>
      </trkpt>
      <trkpt lat="48.73027" lon="7.24633">
        <ele>260.8</ele>
        <time>2020-05-22T12:15:09Z</time>
      </trkpt>
      <trkpt lat="48.73026" lon="7.24627">
        <ele>261.1</ele>
        <time>2020-05-22T12:15:10Z</time>
      </trkpt>
      <trkpt lat="48.73026" lon="7.24625">
        <ele>261.2</ele>
        <time>2020-05-22T12:15:11Z</time>
      </trkpt>
      <trkpt lat="48.73025" lon="7.24621">
        <ele>261.4</ele>
        <time>2020-05-22T12:15:12Z</time>
      </trkpt>
      <trkpt lat="48.73023" lon="7.24611">
        <ele>261.9</ele>
        <time>2020-05-22T12:15:14Z</time>
      </trkpt>
      <trkpt lat="48.73022" lon="7.24606">
        <ele>262.2</ele>
        <time>2020-05-22T12:15:15Z</time>
      </trkpt>
      <trkpt lat="48.73022" lon="7.24595">
        <ele>262.7</ele>
        <time>2020-05-22T12:15:17Z</time>
      </trkpt>
      <trkpt lat="48.73021" lon="7.2459">
        <ele>263</ele>
        <time>2020-05-22T12:15:18Z</time>
      </trkpt>
      <trkpt lat="48.7302" lon="7.2458">
        <ele>263.6</ele>
        <time>2020-05-22T12:15:20Z</time>
      </trkpt>
      <trkpt lat="48.73018" lon="7.24576">
        <ele>263.8</ele>
        <time>2020-05-22T12:15:21Z</time>
      </trkpt>
      <trkpt lat="48.73016" lon="7.24573">
        <ele>264.1</ele>
        <time>2020-05-22T12:15:22Z</time>
      </trkpt>
      <trkpt lat="48.73013" lon="7.24566">
        <ele>264.5</ele>
        <time>2020-05-22T12:15:24Z</time>
      </trkpt>
      <trkpt lat="48.73011" lon="7.24558">
        <ele>265</ele>
        <time>2020-05-22T12:15:26Z</time>
      </trkpt>
      <trkpt lat="48.73009" lon="7.24553">
        <ele>265.3</ele>
        <time>2020-05-22T12:15:27Z</time>
      </trkpt>
      <trkpt lat="48.73007" lon="7.24547">
        <ele>265.7</ele>
        <time>2020-05-22T12:15:29Z</time>
      </trkpt>
      <trkpt lat="48.73004" lon="7.2454">
        <ele>266</ele>
        <time>2020-05-22T12:15:31Z</time>
      </trkpt>
      <trkpt lat="48.73003" lon="7.24536">
        <ele>266.3</ele>
        <time>2020-05-22T12:15:32Z</time>
      </trkpt>
      <trkpt lat="48.73002" lon="7.24532">
        <ele>266.5</ele>
        <time>2020-05-22T12:15:33Z</time>
      </trkpt>
      <trkpt lat="48.72999" lon="7.24527">
        <ele>266.8</ele>
        <time>2020-05-22T12:15:35Z</time>
      </trkpt>
      <trkpt lat="48.72996" lon="7.2452">
        <ele>267.2</ele>
        <time>2020-05-22T12:15:37Z</time>
      </trkpt>
      <trkpt lat="48.72994" lon="7.24515">
        <ele>267.5</ele>
        <time>2020-05-22T12:15:39Z</time>
      </trkpt>
      <trkpt lat="48.72992" lon="7.24511">
        <ele>267.7</ele>
        <time>2020-05-22T12:15:40Z</time>
      </trkpt>
      <trkpt lat="48.72991" lon="7.24507">
        <ele>267.9</ele>
        <time>2020-05-22T12:15:41Z</time>
      </trkpt>
      <trkpt lat="48.7299" lon="7.245">
        <ele>268.2</ele>
        <time>2020-05-22T12:15:42Z</time>
      </trkpt>
      <trkpt lat="48.72989" lon="7.24493">
        <ele>268.5</ele>
        <time>2020-05-22T12:15:44Z</time>
      </trkpt>
      <trkpt lat="48.72986" lon="7.24485">
        <ele>268.9</ele>
        <time>2020-05-22T12:15:46Z</time>
      </trkpt>
      <trkpt lat="48.72984" lon="7.24477">
        <ele>269.2</ele>
        <time>2020-05-22T12:15:48Z</time>
      </trkpt>
      <trkpt lat="48.72981" lon="7.24467">
        <ele>269.6</ele>
        <time>2020-05-22T12:15:50Z</time>
      </trkpt>
      <trkpt lat="48.72979" lon="7.2446">
        <ele>269.9</ele>
        <time>2020-05-22T12:15:52Z</time>
      </trkpt>
      <trkpt lat="48.72977" lon="7.24456">
        <ele>270.2</ele>
        <time>2020-05-22T12:15:53Z</time>
      </trkpt>
      <trkpt lat="48.72977" lon="7.24454">
        <ele>270.3</ele>
        <time>2020-05-22T12:15:54Z</time>
      </trkpt>
      <trkpt lat="48.72975" lon="7.24451">
        <ele>270.4</ele>
        <time>2020-05-22T12:15:55Z</time>
      </trkpt>
      <trkpt lat="48.72973" lon="7.24442">
        <ele>270.9</ele>
        <time>2020-05-22T12:15:57Z</time>
      </trkpt>
      <trkpt lat="48.72972" lon="7.24437">
        <ele>271.2</ele>
        <time>2020-05-22T12:15:58Z</time>
      </trkpt>
      <trkpt lat="48.72971" lon="7.24433">
        <ele>271.4</ele>
        <time>2020-05-22T12:15:59Z</time>
      </trkpt>
      <trkpt lat="48.72971" lon="7.24428">
        <ele>271.6</ele>
        <time>2020-05-22T12:16:00Z</time>
      </trkpt>
      <trkpt lat="48.72969" lon="7.24421">
        <ele>272.1</ele>
        <time>2020-05-22T12:16:02Z</time>
      </trkpt>
      <trkpt lat="48.72969" lon="7.24412">
        <ele>272.6</ele>
        <time>2020-05-22T12:16:04Z</time>
      </trkpt>
      <trkpt lat="48.72968" lon="7.24407">
        <ele>273</ele>
        <time>2020-05-22T12:16:06Z</time>
      </trkpt>
      <trkpt lat="48.72967" lon="7.24405">
        <ele>273.1</ele>
        <time>2020-05-22T12:16:07Z</time>
      </trkpt>
      <trkpt lat="48.72965" lon="7.24402">
        <ele>273.4</ele>
        <time>2020-05-22T12:16:09Z</time>
      </trkpt>
      <trkpt lat="48.72964" lon="7.24397">
        <ele>273.7</ele>
        <time>2020-05-22T12:16:11Z</time>
      </trkpt>
      <trkpt lat="48.72964" lon="7.24392">
        <ele>274</ele>
        <time>2020-05-22T12:16:13Z</time>
      </trkpt>
      <trkpt lat="48.72964" lon="7.24387">
        <ele>274.3</ele>
        <time>2020-05-22T12:16:15Z</time>
      </trkpt>
      <trkpt lat="48.72961" lon="7.24382">
        <ele>274.6</ele>
        <time>2020-05-22T12:16:17Z</time>
      </trkpt>
      <trkpt lat="48.7296" lon="7.24378">
        <ele>274.8</ele>
        <time>2020-05-22T12:16:18Z</time>
      </trkpt>
      <trkpt lat="48.72958" lon="7.24373">
        <ele>275</ele>
        <time>2020-05-22T12:16:20Z</time>
      </trkpt>
      <trkpt lat="48.72957" lon="7.2437">
        <ele>275.2</ele>
        <time>2020-05-22T12:16:21Z</time>
      </trkpt>
      <trkpt lat="48.72956" lon="7.24364">
        <ele>275.4</ele>
        <time>2020-05-22T12:16:23Z</time>
      </trkpt>
      <trkpt lat="48.72955" lon="7.2436">
        <ele>275.6</ele>
        <time>2020-05-22T12:16:24Z</time>
      </trkpt>
      <trkpt lat="48.72953" lon="7.24353">
        <ele>275.8</ele>
        <time>2020-05-22T12:16:26Z</time>
      </trkpt>
      <trkpt lat="48.72952" lon="7.24348">
        <ele>276</ele>
        <time>2020-05-22T12:16:27Z</time>
      </trkpt>
      <trkpt lat="48.72951" lon="7.24347">
        <ele>276</ele>
        <time>2020-05-22T12:16:28Z</time>
      </trkpt>
      <trkpt lat="48.72949" lon="7.2434">
        <ele>276.3</ele>
        <time>2020-05-22T12:16:30Z</time>
      </trkpt>
      <trkpt lat="48.72948" lon="7.24336">
        <ele>276.4</ele>
        <time>2020-05-22T12:16:31Z</time>
      </trkpt>
      <trkpt lat="48.72945" lon="7.24329">
        <ele>276.7</ele>
        <time>2020-05-22T12:16:33Z</time>
      </trkpt>
      <trkpt lat="48.72944" lon="7.24325">
        <ele>276.8</ele>
        <time>2020-05-22T12:16:34Z</time>
      </trkpt>
      <trkpt lat="48.72942" lon="7.24317">
        <ele>277</ele>
        <time>2020-05-22T12:16:36Z</time>
      </trkpt>
      <trkpt lat="48.7294" lon="7.24309">
        <ele>277.3</ele>
        <time>2020-05-22T12:16:38Z</time>
      </trkpt>
      <trkpt lat="48.7294" lon="7.24304">
        <ele>277.5</ele>
        <time>2020-05-22T12:16:39Z</time>
      </trkpt>
      <trkpt lat="48.72937" lon="7.24294">
        <ele>277.9</ele>
        <time>2020-05-22T12:16:41Z</time>
      </trkpt>
      <trkpt lat="48.72937" lon="7.2429">
        <ele>278</ele>
        <time>2020-05-22T12:16:42Z</time>
      </trkpt>
      <trkpt lat="48.72935" lon="7.24282">
        <ele>278.3</ele>
        <time>2020-05-22T12:16:44Z</time>
      </trkpt>
      <trkpt lat="48.72935" lon="7.24278">
        <ele>278.5</ele>
        <time>2020-05-22T12:16:45Z</time>
      </trkpt>
      <trkpt lat="48.72934" lon="7.24271">
        <ele>278.7</ele>
        <time>2020-05-22T12:16:47Z</time>
      </trkpt>
      <trkpt lat="48.72932" lon="7.24264">
        <ele>279</ele>
        <time>2020-05-22T12:16:49Z</time>
      </trkpt>
      <trkpt lat="48.72931" lon="7.24258">
        <ele>279.2</ele>
        <time>2020-05-22T12:16:50Z</time>
      </trkpt>
      <trkpt lat="48.72931" lon="7.24256">
        <ele>279.3</ele>
        <time>2020-05-22T12:16:51Z</time>
      </trkpt>
      <trkpt lat="48.72928" lon="7.2425">
        <ele>279.6</ele>
        <time>2020-05-22T12:16:53Z</time>
      </trkpt>
      <trkpt lat="48.72925" lon="7.24246">
        <ele>279.9</ele>
        <time>2020-05-22T12:16:54Z</time>
      </trkpt>
      <trkpt lat="48.72924" lon="7.24245">
        <ele>279.9</ele>
        <time>2020-05-22T12:16:55Z</time>
      </trkpt>
      <trkpt lat="48.72923" lon="7.24243">
        <ele>280.1</ele>
        <time>2020-05-22T12:16:56Z</time>
      </trkpt>
      <trkpt lat="48.72923" lon="7.2424">
        <ele>280.2</ele>
        <time>2020-05-22T12:16:57Z</time>
      </trkpt>
      <trkpt lat="48.72922" lon="7.24234">
        <ele>280.5</ele>
        <time>2020-05-22T12:16:58Z</time>
      </trkpt>
      <trkpt lat="48.72922" lon="7.24232">
        <ele>280.6</ele>
        <time>2020-05-22T12:16:59Z</time>
      </trkpt>
      <trkpt lat="48.72921" lon="7.24227">
        <ele>280.8</ele>
        <time>2020-05-22T12:17:01Z</time>
      </trkpt>
      <trkpt lat="48.72921" lon="7.24224">
        <ele>280.9</ele>
        <time>2020-05-22T12:17:02Z</time>
      </trkpt>
      <trkpt lat="48.72919" lon="7.24216">
        <ele>281.3</ele>
        <time>2020-05-22T12:17:04Z</time>
      </trkpt>
      <trkpt lat="48.72919" lon="7.24212">
        <ele>281.5</ele>
        <time>2020-05-22T12:17:05Z</time>
      </trkpt>
      <trkpt lat="48.72917" lon="7.24203">
        <ele>282</ele>
        <time>2020-05-22T12:17:07Z</time>
      </trkpt>
      <trkpt lat="48.72916" lon="7.24197">
        <ele>282.3</ele>
        <time>2020-05-22T12:17:08Z</time>
      </trkpt>
      <trkpt lat="48.72915" lon="7.24192">
        <ele>282.5</ele>
        <time>2020-05-22T12:17:09Z</time>
      </trkpt>
      <trkpt lat="48.72915" lon="7.24188">
        <ele>282.7</ele>
        <time>2020-05-22T12:17:10Z</time>
      </trkpt>
      <trkpt lat="48.72914" lon="7.2418">
        <ele>283</ele>
        <time>2020-05-22T12:17:12Z</time>
      </trkpt>
      <trkpt lat="48.72914" lon="7.24176">
        <ele>283.2</ele>
        <time>2020-05-22T12:17:13Z</time>
      </trkpt>
      <trkpt lat="48.72914" lon="7.24167">
        <ele>283.6</ele>
        <time>2020-05-22T12:17:15Z</time>
      </trkpt>
      <trkpt lat="48.72912" lon="7.24158">
        <ele>283.9</ele>
        <time>2020-05-22T12:17:17Z</time>
      </trkpt>
      <trkpt lat="48.72912" lon="7.24153">
        <ele>284</ele>
        <time>2020-05-22T12:17:18Z</time>
      </trkpt>
      <trkpt lat="48.72912" lon="7.24146">
        <ele>284.3</ele>
        <time>2020-05-22T12:17:20Z</time>
      </trkpt>
      <trkpt lat="48.72912" lon="7.24143">
        <ele>284.4</ele>
        <time>2020-05-22T12:17:21Z</time>
      </trkpt>
      <trkpt lat="48.72913" lon="7.24137">
        <ele>284.7</ele>
        <time>2020-05-22T12:17:23Z</time>
      </trkpt>
      <trkpt lat="48.72914" lon="7.24133">
        <ele>284.8</ele>
        <time>2020-05-22T12:17:24Z</time>
      </trkpt>
      <trkpt lat="48.72915" lon="7.24127">
        <ele>285</ele>
        <time>2020-05-22T12:17:26Z</time>
      </trkpt>
      <trkpt lat="48.72915" lon="7.24123">
        <ele>285.1</ele>
        <time>2020-05-22T12:17:27Z</time>
      </trkpt>
      <trkpt lat="48.72914" lon="7.24117">
        <ele>285.4</ele>
        <time>2020-05-22T12:17:29Z</time>
      </trkpt>
      <trkpt lat="48.72914" lon="7.24114">
        <ele>285.5</ele>
        <time>2020-05-22T12:17:30Z</time>
      </trkpt>
      <trkpt lat="48.72914" lon="7.24107">
        <ele>285.8</ele>
        <time>2020-05-22T12:17:32Z</time>
      </trkpt>
      <trkpt lat="48.72914" lon="7.24104">
        <ele>285.9</ele>
        <time>2020-05-22T12:17:33Z</time>
      </trkpt>
      <trkpt lat="48.72914" lon="7.24098">
        <ele>286.2</ele>
        <time>2020-05-22T12:17:35Z</time>
      </trkpt>
      <trkpt lat="48.72915" lon="7.2409">
        <ele>286.6</ele>
        <time>2020-05-22T12:17:37Z</time>
      </trkpt>
      <trkpt lat="48.72917" lon="7.24084">
        <ele>286.8</ele>
        <time>2020-05-22T12:17:39Z</time>
      </trkpt>
      <trkpt lat="48.7292" lon="7.24075">
        <ele>287.4</ele>
        <time>2020-05-22T12:17:41Z</time>
      </trkpt>
      <trkpt lat="48.7292" lon="7.24069">
        <ele>287.7</ele>
        <time>2020-05-22T12:17:43Z</time>
      </trkpt>
      <trkpt lat="48.72919" lon="7.24066">
        <ele>288</ele>
        <time>2020-05-22T12:17:45Z</time>
      </trkpt>
      <trkpt lat="48.72919" lon="7.24064">
        <ele>288.1</ele>
        <time>2020-05-22T12:17:46Z</time>
      </trkpt>
      <trkpt lat="48.72921" lon="7.24059">
        <ele>288.5</ele>
        <time>2020-05-22T12:17:48Z</time>
      </trkpt>
      <trkpt lat="48.72922" lon="7.24053">
        <ele>288.8</ele>
        <time>2020-05-22T12:17:50Z</time>
      </trkpt>
      <trkpt lat="48.72922" lon="7.24049">
        <ele>289.2</ele>
        <time>2020-05-22T12:17:52Z</time>
      </trkpt>
      <trkpt lat="48.72922" lon="7.24047">
        <ele>289.3</ele>
        <time>2020-05-22T12:17:53Z</time>
      </trkpt>
      <trkpt lat="48.72921" lon="7.24043">
        <ele>289.5</ele>
        <time>2020-05-22T12:17:55Z</time>
      </trkpt>
      <trkpt lat="48.72921" lon="7.24041">
        <ele>289.7</ele>
        <time>2020-05-22T12:17:56Z</time>
      </trkpt>
      <trkpt lat="48.72921" lon="7.24036">
        <ele>290.1</ele>
        <time>2020-05-22T12:17:58Z</time>
      </trkpt>
      <trkpt lat="48.72921" lon="7.24029">
        <ele>290.6</ele>
        <time>2020-05-22T12:18:00Z</time>
      </trkpt>
      <trkpt lat="48.72921" lon="7.24024">
        <ele>291</ele>
        <time>2020-05-22T12:18:02Z</time>
      </trkpt>
      <trkpt lat="48.72921" lon="7.24022">
        <ele>291.1</ele>
        <time>2020-05-22T12:18:03Z</time>
      </trkpt>
      <trkpt lat="48.72921" lon="7.24016">
        <ele>291.5</ele>
        <time>2020-05-22T12:18:05Z</time>
      </trkpt>
      <trkpt lat="48.72922" lon="7.24014">
        <ele>291.7</ele>
        <time>2020-05-22T12:18:06Z</time>
      </trkpt>
      <trkpt lat="48.72923" lon="7.24011">
        <ele>291.9</ele>
        <time>2020-05-22T12:18:08Z</time>
      </trkpt>
      <trkpt lat="48.72924" lon="7.24006">
        <ele>292.3</ele>
        <time>2020-05-22T12:18:09Z</time>
      </trkpt>
      <trkpt lat="48.72924" lon="7.24005">
        <ele>292.4</ele>
        <time>2020-05-22T12:18:10Z</time>
      </trkpt>
      <trkpt lat="48.72924" lon="7.24">
        <ele>292.7</ele>
        <time>2020-05-22T12:18:11Z</time>
      </trkpt>
      <trkpt lat="48.72924" lon="7.23994">
        <ele>293.1</ele>
        <time>2020-05-22T12:18:13Z</time>
      </trkpt>
      <trkpt lat="48.72925" lon="7.2399">
        <ele>293.4</ele>
        <time>2020-05-22T12:18:14Z</time>
      </trkpt>
      <trkpt lat="48.72925" lon="7.23988">
        <ele>293.5</ele>
        <time>2020-05-22T12:18:15Z</time>
      </trkpt>
      <trkpt lat="48.72927" lon="7.23981">
        <ele>293.9</ele>
        <time>2020-05-22T12:18:17Z</time>
      </trkpt>
      <trkpt lat="48.72927" lon="7.23976">
        <ele>294.3</ele>
        <time>2020-05-22T12:18:19Z</time>
      </trkpt>
      <trkpt lat="48.72927" lon="7.23973">
        <ele>294.4</ele>
        <time>2020-05-22T12:18:20Z</time>
      </trkpt>
      <trkpt lat="48.72927" lon="7.23966">
        <ele>294.8</ele>
        <time>2020-05-22T12:18:22Z</time>
      </trkpt>
      <trkpt lat="48.72928" lon="7.23961">
        <ele>295.1</ele>
        <time>2020-05-22T12:18:24Z</time>
      </trkpt>
      <trkpt lat="48.72928" lon="7.23957">
        <ele>295.2</ele>
        <time>2020-05-22T12:18:25Z</time>
      </trkpt>
      <trkpt lat="48.72929" lon="7.23951">
        <ele>295.5</ele>
        <time>2020-05-22T12:18:27Z</time>
      </trkpt>
      <trkpt lat="48.7293" lon="7.23943">
        <ele>295.8</ele>
        <time>2020-05-22T12:18:29Z</time>
      </trkpt>
      <trkpt lat="48.7293" lon="7.23934">
        <ele>296.1</ele>
        <time>2020-05-22T12:18:31Z</time>
      </trkpt>
      <trkpt lat="48.7293" lon="7.23929">
        <ele>296.3</ele>
        <time>2020-05-22T12:18:32Z</time>
      </trkpt>
      <trkpt lat="48.7293" lon="7.23921">
        <ele>296.5</ele>
        <time>2020-05-22T12:18:34Z</time>
      </trkpt>
      <trkpt lat="48.7293" lon="7.23916">
        <ele>296.6</ele>
        <time>2020-05-22T12:18:35Z</time>
      </trkpt>
      <trkpt lat="48.7293" lon="7.23908">
        <ele>296.8</ele>
        <time>2020-05-22T12:18:37Z</time>
      </trkpt>
      <trkpt lat="48.72931" lon="7.23903">
        <ele>297</ele>
        <time>2020-05-22T12:18:39Z</time>
      </trkpt>
      <trkpt lat="48.72932" lon="7.23901">
        <ele>297</ele>
        <time>2020-05-22T12:18:40Z</time>
      </trkpt>
      <trkpt lat="48.72933" lon="7.23898">
        <ele>297.1</ele>
        <time>2020-05-22T12:18:41Z</time>
      </trkpt>
      <trkpt lat="48.72933" lon="7.23895">
        <ele>297.1</ele>
        <time>2020-05-22T12:18:42Z</time>
      </trkpt>
      <trkpt lat="48.72933" lon="7.23883">
        <ele>297.3</ele>
        <time>2020-05-22T12:18:44Z</time>
      </trkpt>
      <trkpt lat="48.72933" lon="7.23871">
        <ele>297.5</ele>
        <time>2020-05-22T12:18:46Z</time>
      </trkpt>
      <trkpt lat="48.72933" lon="7.23866">
        <ele>297.5</ele>
        <time>2020-05-22T12:18:47Z</time>
      </trkpt>
      <trkpt lat="48.72933" lon="7.23859">
        <ele>297.6</ele>
        <time>2020-05-22T12:18:48Z</time>
      </trkpt>
      <trkpt lat="48.72933" lon="7.23847">
        <ele>297.8</ele>
        <time>2020-05-22T12:18:50Z</time>
      </trkpt>
      <trkpt lat="48.72934" lon="7.23835">
        <ele>298</ele>
        <time>2020-05-22T12:18:52Z</time>
      </trkpt>
      <trkpt lat="48.72934" lon="7.2383">
        <ele>298</ele>
        <time>2020-05-22T12:18:53Z</time>
      </trkpt>
      <trkpt lat="48.72934" lon="7.23826">
        <ele>298.1</ele>
        <time>2020-05-22T12:18:54Z</time>
      </trkpt>
      <trkpt lat="48.72932" lon="7.23816">
        <ele>298.4</ele>
        <time>2020-05-22T12:18:56Z</time>
      </trkpt>
      <trkpt lat="48.7293" lon="7.23811">
        <ele>298.6</ele>
        <time>2020-05-22T12:18:57Z</time>
      </trkpt>
      <trkpt lat="48.72929" lon="7.2381">
        <ele>298.7</ele>
        <time>2020-05-22T12:18:58Z</time>
      </trkpt>
      <trkpt lat="48.72928" lon="7.23808">
        <ele>298.8</ele>
        <time>2020-05-22T12:18:59Z</time>
      </trkpt>
      <trkpt lat="48.72927" lon="7.23806">
        <ele>298.9</ele>
        <time>2020-05-22T12:19:00Z</time>
      </trkpt>
      <trkpt lat="48.72927" lon="7.23798">
        <ele>299.4</ele>
        <time>2020-05-22T12:19:02Z</time>
      </trkpt>
      <trkpt lat="48.72925" lon="7.2379">
        <ele>299.9</ele>
        <time>2020-05-22T12:19:04Z</time>
      </trkpt>
      <trkpt lat="48.72925" lon="7.23787">
        <ele>300.2</ele>
        <time>2020-05-22T12:19:05Z</time>
      </trkpt>
      <trkpt lat="48.72926" lon="7.23783">
        <ele>300.5</ele>
        <time>2020-05-22T12:19:07Z</time>
      </trkpt>
      <trkpt lat="48.72926" lon="7.23778">
        <ele>301</ele>
        <time>2020-05-22T12:19:09Z</time>
      </trkpt>
      <trkpt lat="48.72927" lon="7.23776">
        <ele>301.2</ele>
        <time>2020-05-22T12:19:10Z</time>
      </trkpt>
      <trkpt lat="48.72927" lon="7.23773">
        <ele>301.6</ele>
        <time>2020-05-22T12:19:11Z</time>
      </trkpt>
      <trkpt lat="48.72927" lon="7.23767">
        <ele>302.1</ele>
        <time>2020-05-22T12:19:13Z</time>
      </trkpt>
      <trkpt lat="48.72927" lon="7.23763">
        <ele>302.6</ele>
        <time>2020-05-22T12:19:14Z</time>
      </trkpt>
      <trkpt lat="48.72929" lon="7.23755">
        <ele>303.4</ele>
        <time>2020-05-22T12:19:16Z</time>
      </trkpt>
      <trkpt lat="48.72931" lon="7.23749">
        <ele>304</ele>
        <time>2020-05-22T12:19:18Z</time>
      </trkpt>
      <trkpt lat="48.72932" lon="7.23742">
        <ele>304.6</ele>
        <time>2020-05-22T12:19:19Z</time>
      </trkpt>
      <trkpt lat="48.72933" lon="7.23739">
        <ele>304.9</ele>
        <time>2020-05-22T12:19:20Z</time>
      </trkpt>
      <trkpt lat="48.72933" lon="7.23733">
        <ele>305.4</ele>
        <time>2020-05-22T12:19:22Z</time>
      </trkpt>
      <trkpt lat="48.72932" lon="7.23727">
        <ele>305.7</ele>
        <time>2020-05-22T12:19:24Z</time>
      </trkpt>
      <trkpt lat="48.72931" lon="7.2372">
        <ele>306.1</ele>
        <time>2020-05-22T12:19:26Z</time>
      </trkpt>
      <trkpt lat="48.72931" lon="7.23717">
        <ele>306.2</ele>
        <time>2020-05-22T12:19:27Z</time>
      </trkpt>
      <trkpt lat="48.7293" lon="7.23713">
        <ele>306.3</ele>
        <time>2020-05-22T12:19:29Z</time>
      </trkpt>
      <trkpt lat="48.7293" lon="7.2371">
        <ele>306.3</ele>
        <time>2020-05-22T12:19:30Z</time>
      </trkpt>
      <trkpt lat="48.72928" lon="7.237">
        <ele>306.3</ele>
        <time>2020-05-22T12:19:32Z</time>
      </trkpt>
      <trkpt lat="48.72926" lon="7.23693">
        <ele>306.3</ele>
        <time>2020-05-22T12:19:33Z</time>
      </trkpt>
      <trkpt lat="48.72921" lon="7.23669">
        <ele>305.7</ele>
        <time>2020-05-22T12:19:35Z</time>
      </trkpt>
      <trkpt lat="48.72919" lon="7.23654">
        <ele>305.3</ele>
        <time>2020-05-22T12:19:37Z</time>
      </trkpt>
      <trkpt lat="48.72918" lon="7.23635">
        <ele>305</ele>
        <time>2020-05-22T12:19:39Z</time>
      </trkpt>
      <trkpt lat="48.72916" lon="7.23616">
        <ele>304.8</ele>
        <time>2020-05-22T12:19:41Z</time>
      </trkpt>
      <trkpt lat="48.72915" lon="7.236">
        <ele>305</ele>
        <time>2020-05-22T12:19:43Z</time>
      </trkpt>
      <trkpt lat="48.72915" lon="7.23592">
        <ele>305.1</ele>
        <time>2020-05-22T12:19:44Z</time>
      </trkpt>
      <trkpt lat="48.72917" lon="7.23578">
        <ele>305.5</ele>
        <time>2020-05-22T12:19:46Z</time>
      </trkpt>
      <trkpt lat="48.72916" lon="7.23572">
        <ele>305.7</ele>
        <time>2020-05-22T12:19:47Z</time>
      </trkpt>
      <trkpt lat="48.72915" lon="7.23557">
        <ele>306.3</ele>
        <time>2020-05-22T12:19:49Z</time>
      </trkpt>
      <trkpt lat="48.72913" lon="7.23544">
        <ele>306.7</ele>
        <time>2020-05-22T12:19:51Z</time>
      </trkpt>
      <trkpt lat="48.72911" lon="7.23538">
        <ele>306.9</ele>
        <time>2020-05-22T12:19:53Z</time>
      </trkpt>
      <trkpt lat="48.72911" lon="7.23533">
        <ele>307.1</ele>
        <time>2020-05-22T12:19:54Z</time>
      </trkpt>
      <trkpt lat="48.7291" lon="7.23531">
        <ele>307.1</ele>
        <time>2020-05-22T12:19:55Z</time>
      </trkpt>
      <trkpt lat="48.72911" lon="7.23527">
        <ele>307.2</ele>
        <time>2020-05-22T12:19:56Z</time>
      </trkpt>
      <trkpt lat="48.72913" lon="7.23519">
        <ele>307.3</ele>
        <time>2020-05-22T12:19:58Z</time>
      </trkpt>
      <trkpt lat="48.72915" lon="7.23505">
        <ele>307.4</ele>
        <time>2020-05-22T12:20:00Z</time>
      </trkpt>
      <trkpt lat="48.72914" lon="7.23495">
        <ele>307.5</ele>
        <time>2020-05-22T12:20:01Z</time>
      </trkpt>
      <trkpt lat="48.72914" lon="7.23488">
        <ele>307.5</ele>
        <time>2020-05-22T12:20:02Z</time>
      </trkpt>
      <trkpt lat="48.72913" lon="7.23482">
        <ele>307.5</ele>
        <time>2020-05-22T12:20:03Z</time>
      </trkpt>
      <trkpt lat="48.72913" lon="7.23478">
        <ele>307.5</ele>
        <time>2020-05-22T12:20:04Z</time>
      </trkpt>
      <trkpt lat="48.72912" lon="7.23464">
        <ele>307.4</ele>
        <time>2020-05-22T12:20:06Z</time>
      </trkpt>
      <trkpt lat="48.72913" lon="7.23455">
        <ele>307.3</ele>
        <time>2020-05-22T12:20:07Z</time>
      </trkpt>
      <trkpt lat="48.72913" lon="7.23448">
        <ele>307.2</ele>
        <time>2020-05-22T12:20:08Z</time>
      </trkpt>
      <trkpt lat="48.72911" lon="7.23436">
        <ele>306.9</ele>
        <time>2020-05-22T12:20:10Z</time>
      </trkpt>
      <trkpt lat="48.7291" lon="7.23431">
        <ele>306.8</ele>
        <time>2020-05-22T12:20:11Z</time>
      </trkpt>
      <trkpt lat="48.72909" lon="7.23424">
        <ele>306.6</ele>
        <time>2020-05-22T12:20:13Z</time>
      </trkpt>
      <trkpt lat="48.72906" lon="7.23422">
        <ele>306.4</ele>
        <time>2020-05-22T12:20:15Z</time>
      </trkpt>
      <trkpt lat="48.72903" lon="7.23417">
        <ele>306.1</ele>
        <time>2020-05-22T12:20:17Z</time>
      </trkpt>
      <trkpt lat="48.72902" lon="7.23413">
        <ele>305.9</ele>
        <time>2020-05-22T12:20:18Z</time>
      </trkpt>
      <trkpt lat="48.72902" lon="7.23411">
        <ele>305.8</ele>
        <time>2020-05-22T12:20:19Z</time>
      </trkpt>
      <trkpt lat="48.72902" lon="7.23401">
        <ele>305</ele>
        <time>2020-05-22T12:20:21Z</time>
      </trkpt>
      <trkpt lat="48.72901" lon="7.23397">
        <ele>304.8</ele>
        <time>2020-05-22T12:20:22Z</time>
      </trkpt>
      <trkpt lat="48.729" lon="7.23395">
        <ele>304.6</ele>
        <time>2020-05-22T12:20:23Z</time>
      </trkpt>
      <trkpt lat="48.72894" lon="7.23385">
        <ele>303.9</ele>
        <time>2020-05-22T12:20:25Z</time>
      </trkpt>
      <trkpt lat="48.72891" lon="7.23379">
        <ele>303.6</ele>
        <time>2020-05-22T12:20:26Z</time>
      </trkpt>
      <trkpt lat="48.72889" lon="7.23373">
        <ele>303.3</ele>
        <time>2020-05-22T12:20:27Z</time>
      </trkpt>
      <trkpt lat="48.72887" lon="7.23363">
        <ele>302.8</ele>
        <time>2020-05-22T12:20:29Z</time>
      </trkpt>
      <trkpt lat="48.72886" lon="7.23359">
        <ele>302.6</ele>
        <time>2020-05-22T12:20:30Z</time>
      </trkpt>
      <trkpt lat="48.72886" lon="7.23355">
        <ele>302.5</ele>
        <time>2020-05-22T12:20:31Z</time>
      </trkpt>
      <trkpt lat="48.72887" lon="7.23351">
        <ele>302.3</ele>
        <time>2020-05-22T12:20:33Z</time>
      </trkpt>
      <trkpt lat="48.72887" lon="7.23351">
        <ele>302.3</ele>
        <time>2020-05-22T12:20:34Z</time>
      </trkpt>
      <trkpt lat="48.72887" lon="7.2335">
        <ele>302.3</ele>
        <time>2020-05-22T12:20:35Z</time>
      </trkpt>
      <trkpt lat="48.72888" lon="7.23347">
        <ele>302.1</ele>
        <time>2020-05-22T12:20:37Z</time>
      </trkpt>
      <trkpt lat="48.72889" lon="7.23343">
        <ele>301.9</ele>
        <time>2020-05-22T12:20:39Z</time>
      </trkpt>
      <trkpt lat="48.72889" lon="7.23338">
        <ele>301.7</ele>
        <time>2020-05-22T12:20:41Z</time>
      </trkpt>
      <trkpt lat="48.72889" lon="7.23337">
        <ele>301.7</ele>
        <time>2020-05-22T12:20:42Z</time>
      </trkpt>
      <trkpt lat="48.72889" lon="7.23336">
        <ele>301.6</ele>
        <time>2020-05-22T12:20:43Z</time>
      </trkpt>
      <trkpt lat="48.7289" lon="7.23333">
        <ele>301.4</ele>
        <time>2020-05-22T12:20:45Z</time>
      </trkpt>
      <trkpt lat="48.72891" lon="7.23332">
        <ele>301.4</ele>
        <time>2020-05-22T12:20:46Z</time>
      </trkpt>
      <trkpt lat="48.72891" lon="7.23331">
        <ele>301.3</ele>
        <time>2020-05-22T12:20:47Z</time>
      </trkpt>
      <trkpt lat="48.72891" lon="7.23325">
        <ele>301</ele>
        <time>2020-05-22T12:20:49Z</time>
      </trkpt>
      <trkpt lat="48.7289" lon="7.2332">
        <ele>300.7</ele>
        <time>2020-05-22T12:20:50Z</time>
      </trkpt>
      <trkpt lat="48.72889" lon="7.23315">
        <ele>300.4</ele>
        <time>2020-05-22T12:20:51Z</time>
      </trkpt>
      <trkpt lat="48.72887" lon="7.23302">
        <ele>299.5</ele>
        <time>2020-05-22T12:20:53Z</time>
      </trkpt>
      <trkpt lat="48.72886" lon="7.23296">
        <ele>299.1</ele>
        <time>2020-05-22T12:20:54Z</time>
      </trkpt>
      <trkpt lat="48.72889" lon="7.23283">
        <ele>298</ele>
        <time>2020-05-22T12:20:56Z</time>
      </trkpt>
      <trkpt lat="48.72889" lon="7.23274">
        <ele>297.3</ele>
        <time>2020-05-22T12:20:57Z</time>
      </trkpt>
      <trkpt lat="48.72887" lon="7.23255">
        <ele>295.9</ele>
        <time>2020-05-22T12:20:59Z</time>
      </trkpt>
      <trkpt lat="48.72886" lon="7.23247">
        <ele>295.5</ele>
        <time>2020-05-22T12:21:00Z</time>
      </trkpt>
      <trkpt lat="48.72889" lon="7.23235">
        <ele>297</ele>
        <time>2020-05-22T12:21:02Z</time>
      </trkpt>
      <trkpt lat="48.72891" lon="7.23231">
        <ele>297.6</ele>
        <time>2020-05-22T12:21:03Z</time>
      </trkpt>
      <trkpt lat="48.72895" lon="7.23227">
        <ele>298.5</ele>
        <time>2020-05-22T12:21:04Z</time>
      </trkpt>
      <trkpt lat="48.72898" lon="7.23224">
        <ele>299.2</ele>
        <time>2020-05-22T12:21:05Z</time>
      </trkpt>
      <trkpt lat="48.72904" lon="7.23218">
        <ele>300.4</ele>
        <time>2020-05-22T12:21:07Z</time>
      </trkpt>
      <trkpt lat="48.72907" lon="7.23216">
        <ele>301</ele>
        <time>2020-05-22T12:21:08Z</time>
      </trkpt>
      <trkpt lat="48.72911" lon="7.23214">
        <ele>301.7</ele>
        <time>2020-05-22T12:21:09Z</time>
      </trkpt>
      <trkpt lat="48.72916" lon="7.23213">
        <ele>302.7</ele>
        <time>2020-05-22T12:21:11Z</time>
      </trkpt>
      <trkpt lat="48.7292" lon="7.23212">
        <ele>303.2</ele>
        <time>2020-05-22T12:21:12Z</time>
      </trkpt>
      <trkpt lat="48.72923" lon="7.23212">
        <ele>303.8</ele>
        <time>2020-05-22T12:21:13Z</time>
      </trkpt>
      <trkpt lat="48.72924" lon="7.23212">
        <ele>303.9</ele>
        <time>2020-05-22T12:21:14Z</time>
      </trkpt>
      <trkpt lat="48.72926" lon="7.23213">
        <ele>304.3</ele>
        <time>2020-05-22T12:21:15Z</time>
      </trkpt>
      <trkpt lat="48.72928" lon="7.23214">
        <ele>304.7</ele>
        <time>2020-05-22T12:21:17Z</time>
      </trkpt>
      <trkpt lat="48.72933" lon="7.23215">
        <ele>305.5</ele>
        <time>2020-05-22T12:21:19Z</time>
      </trkpt>
      <trkpt lat="48.72939" lon="7.23215">
        <ele>306.6</ele>
        <time>2020-05-22T12:21:21Z</time>
      </trkpt>
      <trkpt lat="48.72944" lon="7.23215">
        <ele>307.4</ele>
        <time>2020-05-22T12:21:22Z</time>
      </trkpt>
      <trkpt lat="48.72951" lon="7.23219">
        <ele>308.6</ele>
        <time>2020-05-22T12:21:24Z</time>
      </trkpt>
      <trkpt lat="48.72963" lon="7.23221">
        <ele>310.7</ele>
        <time>2020-05-22T12:21:26Z</time>
      </trkpt>
      <trkpt lat="48.72967" lon="7.2322">
        <ele>311.4</ele>
        <time>2020-05-22T12:21:27Z</time>
      </trkpt>
      <trkpt lat="48.72971" lon="7.2322">
        <ele>311.8</ele>
        <time>2020-05-22T12:21:28Z</time>
      </trkpt>
      <trkpt lat="48.72975" lon="7.23222">
        <ele>312.2</ele>
        <time>2020-05-22T12:21:29Z</time>
      </trkpt>
      <trkpt lat="48.7298" lon="7.23222">
        <ele>312.5</ele>
        <time>2020-05-22T12:21:30Z</time>
      </trkpt>
      <trkpt lat="48.72989" lon="7.23223">
        <ele>312.7</ele>
        <time>2020-05-22T12:21:32Z</time>
      </trkpt>
      <trkpt lat="48.72993" lon="7.23221">
        <ele>312.8</ele>
        <time>2020-05-22T12:21:34Z</time>
      </trkpt>
      <trkpt lat="48.72995" lon="7.23217">
        <ele>312.7</ele>
        <time>2020-05-22T12:21:36Z</time>
      </trkpt>
      <trkpt lat="48.72996" lon="7.23215">
        <ele>312.7</ele>
        <time>2020-05-22T12:21:37Z</time>
      </trkpt>
      <trkpt lat="48.72996" lon="7.23214">
        <ele>312.7</ele>
        <time>2020-05-22T12:21:39Z</time>
      </trkpt>
      <trkpt lat="48.72997" lon="7.23213">
        <ele>312.7</ele>
        <time>2020-05-22T12:21:41Z</time>
      </trkpt>
      <trkpt lat="48.72998" lon="7.23212">
        <ele>312.7</ele>
        <time>2020-05-22T12:21:43Z</time>
      </trkpt>
      <trkpt lat="48.72998" lon="7.23211">
        <ele>312.7</ele>
        <time>2020-05-22T12:21:44Z</time>
      </trkpt>
      <trkpt lat="48.72999" lon="7.23209">
        <ele>312.7</ele>
        <time>2020-05-22T12:21:45Z</time>
      </trkpt>
      <trkpt lat="48.73001" lon="7.23206">
        <ele>312.6</ele>
        <time>2020-05-22T12:21:47Z</time>
      </trkpt>
      <trkpt lat="48.73001" lon="7.23204">
        <ele>312.6</ele>
        <time>2020-05-22T12:21:49Z</time>
      </trkpt>
      <trkpt lat="48.73001" lon="7.23203">
        <ele>312.5</ele>
        <time>2020-05-22T12:21:51Z</time>
      </trkpt>
      <trkpt lat="48.73002" lon="7.23201">
        <ele>312.5</ele>
        <time>2020-05-22T12:21:52Z</time>
      </trkpt>
      <trkpt lat="48.73002" lon="7.232">
        <ele>312.5</ele>
        <time>2020-05-22T12:21:53Z</time>
      </trkpt>
      <trkpt lat="48.73004" lon="7.2319">
        <ele>312.2</ele>
        <time>2020-05-22T12:21:55Z</time>
      </trkpt>
      <trkpt lat="48.73004" lon="7.23177">
        <ele>311.9</ele>
        <time>2020-05-22T12:21:57Z</time>
      </trkpt>
      <trkpt lat="48.73005" lon="7.23172">
        <ele>311.7</ele>
        <time>2020-05-22T12:21:58Z</time>
      </trkpt>
      <trkpt lat="48.73007" lon="7.23165">
        <ele>311.5</ele>
        <time>2020-05-22T12:22:00Z</time>
      </trkpt>
      <trkpt lat="48.73008" lon="7.23161">
        <ele>311.4</ele>
        <time>2020-05-22T12:22:01Z</time>
      </trkpt>
      <trkpt lat="48.73012" lon="7.2315">
        <ele>311.2</ele>
        <time>2020-05-22T12:22:03Z</time>
      </trkpt>
      <trkpt lat="48.73014" lon="7.23138">
        <ele>311</ele>
        <time>2020-05-22T12:22:05Z</time>
      </trkpt>
      <trkpt lat="48.73014" lon="7.23132">
        <ele>310.9</ele>
        <time>2020-05-22T12:22:06Z</time>
      </trkpt>
      <trkpt lat="48.73014" lon="7.23122">
        <ele>310.7</ele>
        <time>2020-05-22T12:22:08Z</time>
      </trkpt>
      <trkpt lat="48.73015" lon="7.23115">
        <ele>310.6</ele>
        <time>2020-05-22T12:22:09Z</time>
      </trkpt>
      <trkpt lat="48.73014" lon="7.23106">
        <ele>310.3</ele>
        <time>2020-05-22T12:22:11Z</time>
      </trkpt>
      <trkpt lat="48.73014" lon="7.231">
        <ele>310.2</ele>
        <time>2020-05-22T12:22:12Z</time>
      </trkpt>
      <trkpt lat="48.73018" lon="7.23087">
        <ele>309.7</ele>
        <time>2020-05-22T12:22:14Z</time>
      </trkpt>
      <trkpt lat="48.73017" lon="7.23079">
        <ele>309.4</ele>
        <time>2020-05-22T12:22:15Z</time>
      </trkpt>
      <trkpt lat="48.73016" lon="7.23074">
        <ele>309.3</ele>
        <time>2020-05-22T12:22:16Z</time>
      </trkpt>
      <trkpt lat="48.73014" lon="7.23071">
        <ele>309.1</ele>
        <time>2020-05-22T12:22:17Z</time>
      </trkpt>
      <trkpt lat="48.73012" lon="7.23057">
        <ele>308.6</ele>
        <time>2020-05-22T12:22:19Z</time>
      </trkpt>
      <trkpt lat="48.73011" lon="7.2305">
        <ele>308.2</ele>
        <time>2020-05-22T12:22:20Z</time>
      </trkpt>
      <trkpt lat="48.73011" lon="7.23043">
        <ele>307.9</ele>
        <time>2020-05-22T12:22:21Z</time>
      </trkpt>
      <trkpt lat="48.7301" lon="7.23029">
        <ele>307.3</ele>
        <time>2020-05-22T12:22:23Z</time>
      </trkpt>
      <trkpt lat="48.73007" lon="7.23007">
        <ele>306.2</ele>
        <time>2020-05-22T12:22:25Z</time>
      </trkpt>
      <trkpt lat="48.73006" lon="7.22997">
        <ele>305.7</ele>
        <time>2020-05-22T12:22:26Z</time>
      </trkpt>
      <trkpt lat="48.73005" lon="7.22989">
        <ele>305.3</ele>
        <time>2020-05-22T12:22:27Z</time>
      </trkpt>
      <trkpt lat="48.73006" lon="7.22974">
        <ele>304.5</ele>
        <time>2020-05-22T12:22:29Z</time>
      </trkpt>
      <trkpt lat="48.73006" lon="7.22967">
        <ele>304.2</ele>
        <time>2020-05-22T12:22:30Z</time>
      </trkpt>
      <trkpt lat="48.73003" lon="7.22953">
        <ele>303.5</ele>
        <time>2020-05-22T12:22:32Z</time>
      </trkpt>
      <trkpt lat="48.73" lon="7.22936">
        <ele>302.7</ele>
        <time>2020-05-22T12:22:34Z</time>
      </trkpt>
      <trkpt lat="48.73001" lon="7.22919">
        <ele>301.9</ele>
        <time>2020-05-22T12:22:36Z</time>
      </trkpt>
      <trkpt lat="48.73003" lon="7.22912">
        <ele>301.6</ele>
        <time>2020-05-22T12:22:37Z</time>
      </trkpt>
      <trkpt lat="48.73006" lon="7.22907">
        <ele>301.3</ele>
        <time>2020-05-22T12:22:38Z</time>
      </trkpt>
      <trkpt lat="48.73008" lon="7.22904">
        <ele>301</ele>
        <time>2020-05-22T12:22:39Z</time>
      </trkpt>
      <trkpt lat="48.73012" lon="7.22893">
        <ele>300.5</ele>
        <time>2020-05-22T12:22:41Z</time>
      </trkpt>
      <trkpt lat="48.73011" lon="7.22882">
        <ele>300</ele>
        <time>2020-05-22T12:22:43Z</time>
      </trkpt>
      <trkpt lat="48.73011" lon="7.22878">
        <ele>299.9</ele>
        <time>2020-05-22T12:22:44Z</time>
      </trkpt>
      <trkpt lat="48.73013" lon="7.22875">
        <ele>299.7</ele>
        <time>2020-05-22T12:22:45Z</time>
      </trkpt>
      <trkpt lat="48.73013" lon="7.22868">
        <ele>299.4</ele>
        <time>2020-05-22T12:22:47Z</time>
      </trkpt>
      <trkpt lat="48.73015" lon="7.22865">
        <ele>299.2</ele>
        <time>2020-05-22T12:22:49Z</time>
      </trkpt>
      <trkpt lat="48.73016" lon="7.22866">
        <ele>299.2</ele>
        <time>2020-05-22T12:22:50Z</time>
      </trkpt>
      <trkpt lat="48.73016" lon="7.22866">
        <ele>299.2</ele>
        <time>2020-05-22T12:22:51Z</time>
      </trkpt>
      <trkpt lat="48.73017" lon="7.22866">
        <ele>299.1</ele>
        <time>2020-05-22T12:22:53Z</time>
      </trkpt>
      <trkpt lat="48.73019" lon="7.22867">
        <ele>299</ele>
        <time>2020-05-22T12:22:55Z</time>
      </trkpt>
      <trkpt lat="48.7302" lon="7.22866">
        <ele>298.9</ele>
        <time>2020-05-22T12:22:56Z</time>
      </trkpt>
      <trkpt lat="48.7302" lon="7.22865">
        <ele>298.9</ele>
        <time>2020-05-22T12:22:57Z</time>
      </trkpt>
      <trkpt lat="48.73021" lon="7.22864">
        <ele>298.8</ele>
        <time>2020-05-22T12:22:58Z</time>
      </trkpt>
      <trkpt lat="48.73021" lon="7.2286">
        <ele>298.7</ele>
        <time>2020-05-22T12:23:00Z</time>
      </trkpt>
      <trkpt lat="48.73021" lon="7.22859">
        <ele>298.6</ele>
        <time>2020-05-22T12:23:01Z</time>
      </trkpt>
      <trkpt lat="48.73021" lon="7.22856">
        <ele>298.5</ele>
        <time>2020-05-22T12:23:02Z</time>
      </trkpt>
      <trkpt lat="48.73021" lon="7.22855">
        <ele>298.4</ele>
        <time>2020-05-22T12:23:04Z</time>
      </trkpt>
      <trkpt lat="48.73022" lon="7.22854">
        <ele>298.4</ele>
        <time>2020-05-22T12:23:05Z</time>
      </trkpt>
      <trkpt lat="48.73022" lon="7.2285">
        <ele>298.2</ele>
        <time>2020-05-22T12:23:07Z</time>
      </trkpt>
      <trkpt lat="48.73022" lon="7.22849">
        <ele>298.2</ele>
        <time>2020-05-22T12:23:09Z</time>
      </trkpt>
      <trkpt lat="48.73021" lon="7.22848">
        <ele>298.2</ele>
        <time>2020-05-22T12:23:11Z</time>
      </trkpt>
      <trkpt lat="48.73021" lon="7.22847">
        <ele>298.1</ele>
        <time>2020-05-22T12:23:12Z</time>
      </trkpt>
      <trkpt lat="48.73021" lon="7.22847">
        <ele>298.1</ele>
        <time>2020-05-22T12:23:13Z</time>
      </trkpt>
      <trkpt lat="48.7302" lon="7.22846">
        <ele>298.1</ele>
        <time>2020-05-22T12:23:14Z</time>
      </trkpt>
      <trkpt lat="48.7302" lon="7.22845">
        <ele>298.1</ele>
        <time>2020-05-22T12:23:16Z</time>
      </trkpt>
      <trkpt lat="48.7302" lon="7.22845">
        <ele>298</ele>
        <time>2020-05-22T12:23:17Z</time>
      </trkpt>
      <trkpt lat="48.7302" lon="7.22844">
        <ele>298</ele>
        <time>2020-05-22T12:23:18Z</time>
      </trkpt>
      <trkpt lat="48.73017" lon="7.22834">
        <ele>297.6</ele>
        <time>2020-05-22T12:23:20Z</time>
      </trkpt>
      <trkpt lat="48.73015" lon="7.22828">
        <ele>297.4</ele>
        <time>2020-05-22T12:23:21Z</time>
      </trkpt>
      <trkpt lat="48.73011" lon="7.22818">
        <ele>296.8</ele>
        <time>2020-05-22T12:23:23Z</time>
      </trkpt>
      <trkpt lat="48.73008" lon="7.22812">
        <ele>296.5</ele>
        <time>2020-05-22T12:23:24Z</time>
      </trkpt>
      <trkpt lat="48.73005" lon="7.22806">
        <ele>295.9</ele>
        <time>2020-05-22T12:23:26Z</time>
      </trkpt>
      <trkpt lat="48.73003" lon="7.22805">
        <ele>295.8</ele>
        <time>2020-05-22T12:23:28Z</time>
      </trkpt>
      <trkpt lat="48.73003" lon="7.22805">
        <ele>295.8</ele>
        <time>2020-05-22T12:23:29Z</time>
      </trkpt>
      <trkpt lat="48.73003" lon="7.22804">
        <ele>295.7</ele>
        <time>2020-05-22T12:23:30Z</time>
      </trkpt>
      <trkpt lat="48.73003" lon="7.22803">
        <ele>295.6</ele>
        <time>2020-05-22T12:23:32Z</time>
      </trkpt>
      <trkpt lat="48.73003" lon="7.22802">
        <ele>295.5</ele>
        <time>2020-05-22T12:23:33Z</time>
      </trkpt>
      <trkpt lat="48.73003" lon="7.22803">
        <ele>295.5</ele>
        <time>2020-05-22T12:23:35Z</time>
      </trkpt>
      <trkpt lat="48.73003" lon="7.22803">
        <ele>295.5</ele>
        <time>2020-05-22T12:23:36Z</time>
      </trkpt>
      <trkpt lat="48.73003" lon="7.22803">
        <ele>295.5</ele>
        <time>2020-05-22T12:23:37Z</time>
      </trkpt>
      <trkpt lat="48.73003" lon="7.22803">
        <ele>295.4</ele>
        <time>2020-05-22T12:23:38Z</time>
      </trkpt>
      <trkpt lat="48.73002" lon="7.22803">
        <ele>295.4</ele>
        <time>2020-05-22T12:23:40Z</time>
      </trkpt>
      <trkpt lat="48.73002" lon="7.22803">
        <ele>295.3</ele>
        <time>2020-05-22T12:23:41Z</time>
      </trkpt>
      <trkpt lat="48.73001" lon="7.22803">
        <ele>295.3</ele>
        <time>2020-05-22T12:23:43Z</time>
      </trkpt>
      <trkpt lat="48.73001" lon="7.22804">
        <ele>295.2</ele>
        <time>2020-05-22T12:23:44Z</time>
      </trkpt>
      <trkpt lat="48.73" lon="7.22805">
        <ele>295</ele>
        <time>2020-05-22T12:23:45Z</time>
      </trkpt>
      <trkpt lat="48.73" lon="7.22806">
        <ele>294.9</ele>
        <time>2020-05-22T12:23:46Z</time>
      </trkpt>
      <trkpt lat="48.72999" lon="7.22809">
        <ele>294.5</ele>
        <time>2020-05-22T12:23:48Z</time>
      </trkpt>
      <trkpt lat="48.72999" lon="7.22811">
        <ele>294.3</ele>
        <time>2020-05-22T12:23:50Z</time>
      </trkpt>
      <trkpt lat="48.72999" lon="7.22816">
        <ele>293.7</ele>
        <time>2020-05-22T12:23:52Z</time>
      </trkpt>
      <trkpt lat="48.72999" lon="7.22819">
        <ele>293.2</ele>
        <time>2020-05-22T12:23:53Z</time>
      </trkpt>
      <trkpt lat="48.72999" lon="7.2282">
        <ele>293</ele>
        <time>2020-05-22T12:23:55Z</time>
      </trkpt>
      <trkpt lat="48.72999" lon="7.22821">
        <ele>292.9</ele>
        <time>2020-05-22T12:23:56Z</time>
      </trkpt>
      <trkpt lat="48.72999" lon="7.22822">
        <ele>292.7</ele>
        <time>2020-05-22T12:23:57Z</time>
      </trkpt>
      <trkpt lat="48.72998" lon="7.22824">
        <ele>292.4</ele>
        <time>2020-05-22T12:23:59Z</time>
      </trkpt>
      <trkpt lat="48.72998" lon="7.22828">
        <ele>291.6</ele>
        <time>2020-05-22T12:24:01Z</time>
      </trkpt>
      <trkpt lat="48.72997" lon="7.22832">
        <ele>290.8</ele>
        <time>2020-05-22T12:24:02Z</time>
      </trkpt>
      <trkpt lat="48.72995" lon="7.22836">
        <ele>290</ele>
        <time>2020-05-22T12:24:04Z</time>
      </trkpt>
      <trkpt lat="48.72993" lon="7.22839">
        <ele>289.2</ele>
        <time>2020-05-22T12:24:06Z</time>
      </trkpt>
      <trkpt lat="48.72991" lon="7.22841">
        <ele>288.5</ele>
        <time>2020-05-22T12:24:07Z</time>
      </trkpt>
      <trkpt lat="48.72989" lon="7.22842">
        <ele>287.8</ele>
        <time>2020-05-22T12:24:09Z</time>
      </trkpt>
      <trkpt lat="48.72987" lon="7.22843">
        <ele>287.2</ele>
        <time>2020-05-22T12:24:10Z</time>
      </trkpt>
      <trkpt lat="48.72982" lon="7.22845">
        <ele>285.8</ele>
        <time>2020-05-22T12:24:12Z</time>
      </trkpt>
      <trkpt lat="48.7298" lon="7.22845">
        <ele>285.2</ele>
        <time>2020-05-22T12:24:14Z</time>
      </trkpt>
      <trkpt lat="48.72977" lon="7.22844">
        <ele>284.5</ele>
        <time>2020-05-22T12:24:16Z</time>
      </trkpt>
      <trkpt lat="48.72977" lon="7.22844">
        <ele>284.3</ele>
        <time>2020-05-22T12:24:18Z</time>
      </trkpt>
      <trkpt lat="48.72977" lon="7.22844">
        <ele>284.3</ele>
        <time>2020-05-22T12:24:19Z</time>
      </trkpt>
      <trkpt lat="48.72977" lon="7.22843">
        <ele>284.1</ele>
        <time>2020-05-22T12:24:21Z</time>
      </trkpt>
      <trkpt lat="48.72977" lon="7.22843">
        <ele>284</ele>
        <time>2020-05-22T12:24:22Z</time>
      </trkpt>
      <trkpt lat="48.72977" lon="7.22843">
        <ele>283.9</ele>
        <time>2020-05-22T12:24:23Z</time>
      </trkpt>
      <trkpt lat="48.72978" lon="7.22843">
        <ele>283.8</ele>
        <time>2020-05-22T12:24:25Z</time>
      </trkpt>
      <trkpt lat="48.72978" lon="7.22843">
        <ele>283.7</ele>
        <time>2020-05-22T12:24:27Z</time>
      </trkpt>
      <trkpt lat="48.72975" lon="7.2284">
        <ele>282.5</ele>
        <time>2020-05-22T12:24:50Z</time>
      </trkpt>
      <trkpt lat="48.72974" lon="7.22838">
        <ele>282.1</ele>
        <time>2020-05-22T12:24:52Z</time>
      </trkpt>
      <trkpt lat="48.72973" lon="7.22837">
        <ele>281.8</ele>
        <time>2020-05-22T12:24:53Z</time>
      </trkpt>
      <trkpt lat="48.72973" lon="7.22835">
        <ele>281.5</ele>
        <time>2020-05-22T12:24:54Z</time>
      </trkpt>
      <trkpt lat="48.72973" lon="7.22832">
        <ele>281.1</ele>
        <time>2020-05-22T12:24:56Z</time>
      </trkpt>
      <trkpt lat="48.72973" lon="7.22832">
        <ele>280.9</ele>
        <time>2020-05-22T12:24:58Z</time>
      </trkpt>
      <trkpt lat="48.72973" lon="7.22831">
        <ele>280.7</ele>
        <time>2020-05-22T12:24:59Z</time>
      </trkpt>
      <trkpt lat="48.72973" lon="7.22829">
        <ele>280.5</ele>
        <time>2020-05-22T12:25:01Z</time>
      </trkpt>
      <trkpt lat="48.72973" lon="7.2283">
        <ele>280.4</ele>
        <time>2020-05-22T12:25:03Z</time>
      </trkpt>
      <trkpt lat="48.72973" lon="7.22831">
        <ele>280.3</ele>
        <time>2020-05-22T12:25:05Z</time>
      </trkpt>
      <trkpt lat="48.72973" lon="7.22831">
        <ele>280.2</ele>
        <time>2020-05-22T12:25:06Z</time>
      </trkpt>
      <trkpt lat="48.72973" lon="7.22832">
        <ele>280.1</ele>
        <time>2020-05-22T12:25:08Z</time>
      </trkpt>
      <trkpt lat="48.72973" lon="7.22832">
        <ele>280.1</ele>
        <time>2020-05-22T12:25:09Z</time>
      </trkpt>
      <trkpt lat="48.72973" lon="7.22832">
        <ele>280</ele>
        <time>2020-05-22T12:25:11Z</time>
      </trkpt>
      <trkpt lat="48.72972" lon="7.22833">
        <ele>279.9</ele>
        <time>2020-05-22T12:25:13Z</time>
      </trkpt>
      <trkpt lat="48.7297" lon="7.22832">
        <ele>279.3</ele>
        <time>2020-05-22T12:25:15Z</time>
      </trkpt>
      <trkpt lat="48.72968" lon="7.22832">
        <ele>279</ele>
        <time>2020-05-22T12:25:17Z</time>
      </trkpt>
      <trkpt lat="48.72967" lon="7.22832">
        <ele>278.9</ele>
        <time>2020-05-22T12:25:19Z</time>
      </trkpt>
      <trkpt lat="48.72967" lon="7.22831">
        <ele>278.8</ele>
        <time>2020-05-22T12:25:20Z</time>
      </trkpt>
      <trkpt lat="48.72966" lon="7.22831">
        <ele>278.7</ele>
        <time>2020-05-22T12:25:21Z</time>
      </trkpt>
      <trkpt lat="48.72962" lon="7.22834">
        <ele>278</ele>
        <time>2020-05-22T12:25:23Z</time>
      </trkpt>
      <trkpt lat="48.7296" lon="7.22834">
        <ele>277.7</ele>
        <time>2020-05-22T12:25:24Z</time>
      </trkpt>
      <trkpt lat="48.72958" lon="7.22834">
        <ele>277.6</ele>
        <time>2020-05-22T12:25:25Z</time>
      </trkpt>
      <trkpt lat="48.72955" lon="7.22833">
        <ele>277.2</ele>
        <time>2020-05-22T12:25:27Z</time>
      </trkpt>
      <trkpt lat="48.72949" lon="7.22837">
        <ele>276.7</ele>
        <time>2020-05-22T12:25:29Z</time>
      </trkpt>
      <trkpt lat="48.72946" lon="7.22839">
        <ele>276.6</ele>
        <time>2020-05-22T12:25:31Z</time>
      </trkpt>
      <trkpt lat="48.72944" lon="7.2284">
        <ele>276.5</ele>
        <time>2020-05-22T12:25:32Z</time>
      </trkpt>
      <trkpt lat="48.72943" lon="7.22841">
        <ele>276.5</ele>
        <time>2020-05-22T12:25:34Z</time>
      </trkpt>
      <trkpt lat="48.72942" lon="7.22841">
        <ele>276.5</ele>
        <time>2020-05-22T12:25:36Z</time>
      </trkpt>
      <trkpt lat="48.72941" lon="7.22842">
        <ele>276.4</ele>
        <time>2020-05-22T12:25:37Z</time>
      </trkpt>
      <trkpt lat="48.7294" lon="7.22843">
        <ele>276.4</ele>
        <time>2020-05-22T12:25:39Z</time>
      </trkpt>
      <trkpt lat="48.72939" lon="7.22843">
        <ele>276.4</ele>
        <time>2020-05-22T12:25:41Z</time>
      </trkpt>
      <trkpt lat="48.72939" lon="7.22844">
        <ele>276.4</ele>
        <time>2020-05-22T12:25:42Z</time>
      </trkpt>
      <trkpt lat="48.72938" lon="7.22844">
        <ele>276.4</ele>
        <time>2020-05-22T12:25:43Z</time>
      </trkpt>
      <trkpt lat="48.72937" lon="7.22845">
        <ele>276.3</ele>
        <time>2020-05-22T12:25:45Z</time>
      </trkpt>
      <trkpt lat="48.72932" lon="7.22849">
        <ele>276.2</ele>
        <time>2020-05-22T12:25:47Z</time>
      </trkpt>
      <trkpt lat="48.72926" lon="7.22853">
        <ele>275.9</ele>
        <time>2020-05-22T12:25:49Z</time>
      </trkpt>
      <trkpt lat="48.72922" lon="7.22855">
        <ele>275.7</ele>
        <time>2020-05-22T12:25:51Z</time>
      </trkpt>
      <trkpt lat="48.72921" lon="7.22855">
        <ele>275.7</ele>
        <time>2020-05-22T12:25:52Z</time>
      </trkpt>
      <trkpt lat="48.72918" lon="7.22855">
        <ele>275.6</ele>
        <time>2020-05-22T12:25:54Z</time>
      </trkpt>
      <trkpt lat="48.72918" lon="7.22855">
        <ele>275.5</ele>
        <time>2020-05-22T12:25:56Z</time>
      </trkpt>
      <trkpt lat="48.72917" lon="7.22855">
        <ele>275.2</ele>
        <time>2020-05-22T12:25:57Z</time>
      </trkpt>
      <trkpt lat="48.72914" lon="7.22853">
        <ele>275.1</ele>
        <time>2020-05-22T12:25:59Z</time>
      </trkpt>
      <trkpt lat="48.72912" lon="7.22849">
        <ele>275</ele>
        <time>2020-05-22T12:26:01Z</time>
      </trkpt>
      <trkpt lat="48.72912" lon="7.22849">
        <ele>275</ele>
        <time>2020-05-22T12:26:02Z</time>
      </trkpt>
      <trkpt lat="48.72911" lon="7.22845">
        <ele>274.9</ele>
        <time>2020-05-22T12:26:04Z</time>
      </trkpt>
      <trkpt lat="48.7291" lon="7.22845">
        <ele>274.9</ele>
        <time>2020-05-22T12:26:05Z</time>
      </trkpt>
      <trkpt lat="48.7291" lon="7.22845">
        <ele>274.9</ele>
        <time>2020-05-22T12:26:06Z</time>
      </trkpt>
      <trkpt lat="48.7291" lon="7.22843">
        <ele>274.8</ele>
        <time>2020-05-22T12:26:08Z</time>
      </trkpt>
      <trkpt lat="48.72909" lon="7.22839">
        <ele>274.6</ele>
        <time>2020-05-22T12:26:10Z</time>
      </trkpt>
      <trkpt lat="48.72908" lon="7.22836">
        <ele>274.4</ele>
        <time>2020-05-22T12:26:11Z</time>
      </trkpt>
      <trkpt lat="48.72907" lon="7.22831">
        <ele>274.1</ele>
        <time>2020-05-22T12:26:13Z</time>
      </trkpt>
      <trkpt lat="48.72906" lon="7.22825">
        <ele>273.7</ele>
        <time>2020-05-22T12:26:14Z</time>
      </trkpt>
      <trkpt lat="48.72903" lon="7.22815">
        <ele>273</ele>
        <time>2020-05-22T12:26:15Z</time>
      </trkpt>
      <trkpt lat="48.72902" lon="7.22806">
        <ele>272.3</ele>
        <time>2020-05-22T12:26:16Z</time>
      </trkpt>
      <trkpt lat="48.729" lon="7.228">
        <ele>271.8</ele>
        <time>2020-05-22T12:26:17Z</time>
      </trkpt>
      <trkpt lat="48.72896" lon="7.22789">
        <ele>271.1</ele>
        <time>2020-05-22T12:26:19Z</time>
      </trkpt>
      <trkpt lat="48.72894" lon="7.22784">
        <ele>270.8</ele>
        <time>2020-05-22T12:26:20Z</time>
      </trkpt>
      <trkpt lat="48.72885" lon="7.22774">
        <ele>270.1</ele>
        <time>2020-05-22T12:26:22Z</time>
      </trkpt>
      <trkpt lat="48.72881" lon="7.22771">
        <ele>269.9</ele>
        <time>2020-05-22T12:26:23Z</time>
      </trkpt>
      <trkpt lat="48.72876" lon="7.22765">
        <ele>269.6</ele>
        <time>2020-05-22T12:26:25Z</time>
      </trkpt>
      <trkpt lat="48.72872" lon="7.22758">
        <ele>269.4</ele>
        <time>2020-05-22T12:26:27Z</time>
      </trkpt>
      <trkpt lat="48.72871" lon="7.22755">
        <ele>269.3</ele>
        <time>2020-05-22T12:26:29Z</time>
      </trkpt>
      <trkpt lat="48.7287" lon="7.22747">
        <ele>269.3</ele>
        <time>2020-05-22T12:26:31Z</time>
      </trkpt>
      <trkpt lat="48.7287" lon="7.22743">
        <ele>269.2</ele>
        <time>2020-05-22T12:26:32Z</time>
      </trkpt>
      <trkpt lat="48.72869" lon="7.22737">
        <ele>269.3</ele>
        <time>2020-05-22T12:26:34Z</time>
      </trkpt>
      <trkpt lat="48.72869" lon="7.22735">
        <ele>269.3</ele>
        <time>2020-05-22T12:26:35Z</time>
      </trkpt>
      <trkpt lat="48.72869" lon="7.22727">
        <ele>269.3</ele>
        <time>2020-05-22T12:26:37Z</time>
      </trkpt>
      <trkpt lat="48.72869" lon="7.22724">
        <ele>269.3</ele>
        <time>2020-05-22T12:26:38Z</time>
      </trkpt>
      <trkpt lat="48.72869" lon="7.22718">
        <ele>269.3</ele>
        <time>2020-05-22T12:26:40Z</time>
      </trkpt>
      <trkpt lat="48.72868" lon="7.22712">
        <ele>269.3</ele>
        <time>2020-05-22T12:26:41Z</time>
      </trkpt>
      <trkpt lat="48.72868" lon="7.2271">
        <ele>269.3</ele>
        <time>2020-05-22T12:26:42Z</time>
      </trkpt>
      <trkpt lat="48.72864" lon="7.22702">
        <ele>269.1</ele>
        <time>2020-05-22T12:26:44Z</time>
      </trkpt>
      <trkpt lat="48.72863" lon="7.22699">
        <ele>269</ele>
        <time>2020-05-22T12:26:45Z</time>
      </trkpt>
      <trkpt lat="48.72859" lon="7.22692">
        <ele>268.9</ele>
        <time>2020-05-22T12:26:47Z</time>
      </trkpt>
      <trkpt lat="48.72857" lon="7.2269">
        <ele>268.8</ele>
        <time>2020-05-22T12:26:49Z</time>
      </trkpt>
      <trkpt lat="48.72856" lon="7.2269">
        <ele>268.8</ele>
        <time>2020-05-22T12:26:50Z</time>
      </trkpt>
      <trkpt lat="48.72855" lon="7.2269">
        <ele>268.8</ele>
        <time>2020-05-22T12:26:51Z</time>
      </trkpt>
      <trkpt lat="48.72853" lon="7.22692">
        <ele>268.7</ele>
        <time>2020-05-22T12:26:53Z</time>
      </trkpt>
      <trkpt lat="48.72852" lon="7.22693">
        <ele>268.7</ele>
        <time>2020-05-22T12:26:54Z</time>
      </trkpt>
      <trkpt lat="48.72852" lon="7.22695">
        <ele>268.6</ele>
        <time>2020-05-22T12:26:56Z</time>
      </trkpt>
      <trkpt lat="48.72851" lon="7.22696">
        <ele>268.6</ele>
        <time>2020-05-22T12:26:57Z</time>
      </trkpt>
      <trkpt lat="48.72852" lon="7.22704">
        <ele>268.4</ele>
        <time>2020-05-22T12:26:59Z</time>
      </trkpt>
      <trkpt lat="48.72852" lon="7.22703">
        <ele>268.4</ele>
        <time>2020-05-22T12:27:00Z</time>
      </trkpt>
      <trkpt lat="48.72852" lon="7.22705">
        <ele>268.3</ele>
        <time>2020-05-22T12:27:02Z</time>
      </trkpt>
      <trkpt lat="48.72853" lon="7.22711">
        <ele>268.1</ele>
        <time>2020-05-22T12:27:04Z</time>
      </trkpt>
      <trkpt lat="48.72854" lon="7.22716">
        <ele>268</ele>
        <time>2020-05-22T12:27:05Z</time>
      </trkpt>
      <trkpt lat="48.72855" lon="7.22717">
        <ele>268</ele>
        <time>2020-05-22T12:27:06Z</time>
      </trkpt>
      <trkpt lat="48.72856" lon="7.22719">
        <ele>267.9</ele>
        <time>2020-05-22T12:27:07Z</time>
      </trkpt>
      <trkpt lat="48.72853" lon="7.22719">
        <ele>267.7</ele>
        <time>2020-05-22T12:27:08Z</time>
      </trkpt>
      <trkpt lat="48.7285" lon="7.22721">
        <ele>267.5</ele>
        <time>2020-05-22T12:27:09Z</time>
      </trkpt>
      <trkpt lat="48.72847" lon="7.22726">
        <ele>267.3</ele>
        <time>2020-05-22T12:27:10Z</time>
      </trkpt>
      <trkpt lat="48.72845" lon="7.22731">
        <ele>267</ele>
        <time>2020-05-22T12:27:11Z</time>
      </trkpt>
      <trkpt lat="48.72845" lon="7.22737">
        <ele>266.7</ele>
        <time>2020-05-22T12:27:13Z</time>
      </trkpt>
      <trkpt lat="48.72844" lon="7.22743">
        <ele>266.5</ele>
        <time>2020-05-22T12:27:14Z</time>
      </trkpt>
      <trkpt lat="48.72846" lon="7.22754">
        <ele>266</ele>
        <time>2020-05-22T12:27:16Z</time>
      </trkpt>
      <trkpt lat="48.7285" lon="7.22762">
        <ele>265.5</ele>
        <time>2020-05-22T12:27:18Z</time>
      </trkpt>
      <trkpt lat="48.72851" lon="7.22767">
        <ele>265.2</ele>
        <time>2020-05-22T12:27:19Z</time>
      </trkpt>
      <trkpt lat="48.72849" lon="7.22775">
        <ele>264.8</ele>
        <time>2020-05-22T12:27:21Z</time>
      </trkpt>
      <trkpt lat="48.72849" lon="7.22779">
        <ele>264.6</ele>
        <time>2020-05-22T12:27:22Z</time>
      </trkpt>
      <trkpt lat="48.72849" lon="7.22788">
        <ele>264</ele>
        <time>2020-05-22T12:27:24Z</time>
      </trkpt>
      <trkpt lat="48.7285" lon="7.22806">
        <ele>263</ele>
        <time>2020-05-22T12:27:26Z</time>
      </trkpt>
      <trkpt lat="48.72852" lon="7.2282">
        <ele>262.1</ele>
        <time>2020-05-22T12:27:28Z</time>
      </trkpt>
      <trkpt lat="48.72854" lon="7.22832">
        <ele>261.3</ele>
        <time>2020-05-22T12:27:30Z</time>
      </trkpt>
      <trkpt lat="48.72854" lon="7.22842">
        <ele>260.8</ele>
        <time>2020-05-22T12:27:32Z</time>
      </trkpt>
      <trkpt lat="48.72854" lon="7.22855">
        <ele>260.1</ele>
        <time>2020-05-22T12:27:34Z</time>
      </trkpt>
      <trkpt lat="48.72854" lon="7.2286">
        <ele>259.9</ele>
        <time>2020-05-22T12:27:35Z</time>
      </trkpt>
      <trkpt lat="48.72854" lon="7.22867">
        <ele>259.5</ele>
        <time>2020-05-22T12:27:36Z</time>
      </trkpt>
      <trkpt lat="48.72851" lon="7.22881">
        <ele>258.9</ele>
        <time>2020-05-22T12:27:38Z</time>
      </trkpt>
      <trkpt lat="48.72852" lon="7.2289">
        <ele>258.7</ele>
        <time>2020-05-22T12:27:39Z</time>
      </trkpt>
      <trkpt lat="48.72845" lon="7.22898">
        <ele>258.5</ele>
        <time>2020-05-22T12:27:41Z</time>
      </trkpt>
      <trkpt lat="48.72845" lon="7.22899">
        <ele>258.5</ele>
        <time>2020-05-22T12:27:42Z</time>
      </trkpt>
      <trkpt lat="48.72844" lon="7.22899">
        <ele>258.5</ele>
        <time>2020-05-22T12:27:43Z</time>
      </trkpt>
      <trkpt lat="48.72844" lon="7.229">
        <ele>258.5</ele>
        <time>2020-05-22T12:27:45Z</time>
      </trkpt>
      <trkpt lat="48.72844" lon="7.22901">
        <ele>258.5</ele>
        <time>2020-05-22T12:27:46Z</time>
      </trkpt>
      <trkpt lat="48.72843" lon="7.22901">
        <ele>258.5</ele>
        <time>2020-05-22T12:27:48Z</time>
      </trkpt>
      <trkpt lat="48.72843" lon="7.22902">
        <ele>258.5</ele>
        <time>2020-05-22T12:27:49Z</time>
      </trkpt>
      <trkpt lat="48.72843" lon="7.22903">
        <ele>258.5</ele>
        <time>2020-05-22T12:27:51Z</time>
      </trkpt>
      <trkpt lat="48.72843" lon="7.22904">
        <ele>258.5</ele>
        <time>2020-05-22T12:27:52Z</time>
      </trkpt>
      <trkpt lat="48.72842" lon="7.22904">
        <ele>258.5</ele>
        <time>2020-05-22T12:27:53Z</time>
      </trkpt>
      <trkpt lat="48.72838" lon="7.22915">
        <ele>258.4</ele>
        <time>2020-05-22T12:27:55Z</time>
      </trkpt>
      <trkpt lat="48.72833" lon="7.2292">
        <ele>258.3</ele>
        <time>2020-05-22T12:27:57Z</time>
      </trkpt>
      <trkpt lat="48.72829" lon="7.22925">
        <ele>258.1</ele>
        <time>2020-05-22T12:27:59Z</time>
      </trkpt>
      <trkpt lat="48.72827" lon="7.22927">
        <ele>258.3</ele>
        <time>2020-05-22T12:28:00Z</time>
      </trkpt>
      <trkpt lat="48.72826" lon="7.22929">
        <ele>258.3</ele>
        <time>2020-05-22T12:28:01Z</time>
      </trkpt>
      <trkpt lat="48.72823" lon="7.22934">
        <ele>258.4</ele>
        <time>2020-05-22T12:28:03Z</time>
      </trkpt>
      <trkpt lat="48.72819" lon="7.22939">
        <ele>258.5</ele>
        <time>2020-05-22T12:28:05Z</time>
      </trkpt>
      <trkpt lat="48.72816" lon="7.2294">
        <ele>258.5</ele>
        <time>2020-05-22T12:28:06Z</time>
      </trkpt>
      <trkpt lat="48.72814" lon="7.22941">
        <ele>258.5</ele>
        <time>2020-05-22T12:28:07Z</time>
      </trkpt>
      <trkpt lat="48.72813" lon="7.22943">
        <ele>258.6</ele>
        <time>2020-05-22T12:28:09Z</time>
      </trkpt>
      <trkpt lat="48.72812" lon="7.22944">
        <ele>258.6</ele>
        <time>2020-05-22T12:28:11Z</time>
      </trkpt>
      <trkpt lat="48.72807" lon="7.2295">
        <ele>258.7</ele>
        <time>2020-05-22T12:28:13Z</time>
      </trkpt>
      <trkpt lat="48.72801" lon="7.22954">
        <ele>258.8</ele>
        <time>2020-05-22T12:28:15Z</time>
      </trkpt>
      <trkpt lat="48.72799" lon="7.22956">
        <ele>258.9</ele>
        <time>2020-05-22T12:28:16Z</time>
      </trkpt>
      <trkpt lat="48.72796" lon="7.22958">
        <ele>258.9</ele>
        <time>2020-05-22T12:28:17Z</time>
      </trkpt>
      <trkpt lat="48.72794" lon="7.2296">
        <ele>259</ele>
        <time>2020-05-22T12:28:19Z</time>
      </trkpt>
      <trkpt lat="48.72794" lon="7.22963">
        <ele>259</ele>
        <time>2020-05-22T12:28:21Z</time>
      </trkpt>
      <trkpt lat="48.72793" lon="7.22961">
        <ele>259</ele>
        <time>2020-05-22T12:28:22Z</time>
      </trkpt>
      <trkpt lat="48.72791" lon="7.22959">
        <ele>259.1</ele>
        <time>2020-05-22T12:28:23Z</time>
      </trkpt>
      <trkpt lat="48.7279" lon="7.22958">
        <ele>259.1</ele>
        <time>2020-05-22T12:28:25Z</time>
      </trkpt>
      <trkpt lat="48.72788" lon="7.22958">
        <ele>259.1</ele>
        <time>2020-05-22T12:28:27Z</time>
      </trkpt>
      <trkpt lat="48.72786" lon="7.22957">
        <ele>259.2</ele>
        <time>2020-05-22T12:28:29Z</time>
      </trkpt>
      <trkpt lat="48.72785" lon="7.22956">
        <ele>259.2</ele>
        <time>2020-05-22T12:28:30Z</time>
      </trkpt>
      <trkpt lat="48.72783" lon="7.22955">
        <ele>259.3</ele>
        <time>2020-05-22T12:28:32Z</time>
      </trkpt>
      <trkpt lat="48.72782" lon="7.22954">
        <ele>259.3</ele>
        <time>2020-05-22T12:28:33Z</time>
      </trkpt>
      <trkpt lat="48.72782" lon="7.22952">
        <ele>259.3</ele>
        <time>2020-05-22T12:28:34Z</time>
      </trkpt>
      <trkpt lat="48.72782" lon="7.22952">
        <ele>259.3</ele>
        <time>2020-05-22T12:28:36Z</time>
      </trkpt>
      <trkpt lat="48.72782" lon="7.22951">
        <ele>259.3</ele>
        <time>2020-05-22T12:28:37Z</time>
      </trkpt>
      <trkpt lat="48.72782" lon="7.2295">
        <ele>259.4</ele>
        <time>2020-05-22T12:28:39Z</time>
      </trkpt>
      <trkpt lat="48.72782" lon="7.22947">
        <ele>259.4</ele>
        <time>2020-05-22T12:28:41Z</time>
      </trkpt>
      <trkpt lat="48.72781" lon="7.22947">
        <ele>259.4</ele>
        <time>2020-05-22T12:28:43Z</time>
      </trkpt>
      <trkpt lat="48.72781" lon="7.22946">
        <ele>259.4</ele>
        <time>2020-05-22T12:28:44Z</time>
      </trkpt>
      <trkpt lat="48.72779" lon="7.22945">
        <ele>260.2</ele>
        <time>2020-05-22T12:28:46Z</time>
      </trkpt>
      <trkpt lat="48.72778" lon="7.22944">
        <ele>260.4</ele>
        <time>2020-05-22T12:28:48Z</time>
      </trkpt>
      <trkpt lat="48.72777" lon="7.22942">
        <ele>260.7</ele>
        <time>2020-05-22T12:28:50Z</time>
      </trkpt>
      <trkpt lat="48.72777" lon="7.2294">
        <ele>260.9</ele>
        <time>2020-05-22T12:28:52Z</time>
      </trkpt>
      <trkpt lat="48.72777" lon="7.22937">
        <ele>261.3</ele>
        <time>2020-05-22T12:28:53Z</time>
      </trkpt>
      <trkpt lat="48.72776" lon="7.22935">
        <ele>261.5</ele>
        <time>2020-05-22T12:28:54Z</time>
      </trkpt>
      <trkpt lat="48.72776" lon="7.22934">
        <ele>261.7</ele>
        <time>2020-05-22T12:28:55Z</time>
      </trkpt>
      <trkpt lat="48.72776" lon="7.22932">
        <ele>262</ele>
        <time>2020-05-22T12:28:57Z</time>
      </trkpt>
      <trkpt lat="48.72775" lon="7.22932">
        <ele>262</ele>
        <time>2020-05-22T12:28:58Z</time>
      </trkpt>
      <trkpt lat="48.72775" lon="7.22931">
        <ele>262.2</ele>
        <time>2020-05-22T12:28:59Z</time>
      </trkpt>
      <trkpt lat="48.72775" lon="7.22929">
        <ele>262.4</ele>
        <time>2020-05-22T12:29:01Z</time>
      </trkpt>
      <trkpt lat="48.72775" lon="7.22928">
        <ele>262.6</ele>
        <time>2020-05-22T12:29:02Z</time>
      </trkpt>
      <trkpt lat="48.72775" lon="7.22926">
        <ele>262.7</ele>
        <time>2020-05-22T12:29:04Z</time>
      </trkpt>
      <trkpt lat="48.72774" lon="7.22925">
        <ele>262.9</ele>
        <time>2020-05-22T12:29:06Z</time>
      </trkpt>
      <trkpt lat="48.72774" lon="7.22924">
        <ele>263.1</ele>
        <time>2020-05-22T12:29:07Z</time>
      </trkpt>
      <trkpt lat="48.72774" lon="7.22921">
        <ele>263.5</ele>
        <time>2020-05-22T12:29:09Z</time>
      </trkpt>
      <trkpt lat="48.72773" lon="7.2292">
        <ele>263.7</ele>
        <time>2020-05-22T12:29:10Z</time>
      </trkpt>
      <trkpt lat="48.72773" lon="7.22917">
        <ele>264.1</ele>
        <time>2020-05-22T12:29:12Z</time>
      </trkpt>
      <trkpt lat="48.72774" lon="7.22914">
        <ele>264.5</ele>
        <time>2020-05-22T12:29:14Z</time>
      </trkpt>
      <trkpt lat="48.72774" lon="7.22912">
        <ele>264.8</ele>
        <time>2020-05-22T12:29:16Z</time>
      </trkpt>
      <trkpt lat="48.72775" lon="7.22911">
        <ele>265</ele>
        <time>2020-05-22T12:29:18Z</time>
      </trkpt>
      <trkpt lat="48.72775" lon="7.22909">
        <ele>265.2</ele>
        <time>2020-05-22T12:29:20Z</time>
      </trkpt>
      <trkpt lat="48.72776" lon="7.22907">
        <ele>265.5</ele>
        <time>2020-05-22T12:29:21Z</time>
      </trkpt>
      <trkpt lat="48.72776" lon="7.22904">
        <ele>266</ele>
        <time>2020-05-22T12:29:23Z</time>
      </trkpt>
      <trkpt lat="48.72777" lon="7.22903">
        <ele>266.2</ele>
        <time>2020-05-22T12:29:24Z</time>
      </trkpt>
      <trkpt lat="48.72777" lon="7.22902">
        <ele>266.3</ele>
        <time>2020-05-22T12:29:25Z</time>
      </trkpt>
      <trkpt lat="48.72778" lon="7.22899">
        <ele>266.7</ele>
        <time>2020-05-22T12:29:27Z</time>
      </trkpt>
      <trkpt lat="48.72778" lon="7.22898">
        <ele>266.9</ele>
        <time>2020-05-22T12:29:28Z</time>
      </trkpt>
      <trkpt lat="48.7278" lon="7.22896">
        <ele>267.4</ele>
        <time>2020-05-22T12:29:30Z</time>
      </trkpt>
      <trkpt lat="48.72782" lon="7.22895">
        <ele>267.8</ele>
        <time>2020-05-22T12:29:32Z</time>
      </trkpt>
      <trkpt lat="48.72782" lon="7.22894">
        <ele>267.9</ele>
        <time>2020-05-22T12:29:33Z</time>
      </trkpt>
      <trkpt lat="48.72782" lon="7.22894">
        <ele>267.9</ele>
        <time>2020-05-22T12:29:35Z</time>
      </trkpt>
      <trkpt lat="48.72782" lon="7.22894">
        <ele>268</ele>
        <time>2020-05-22T12:29:36Z</time>
      </trkpt>
      <trkpt lat="48.72782" lon="7.22894">
        <ele>268</ele>
        <time>2020-05-22T12:29:37Z</time>
      </trkpt>
      <trkpt lat="48.72783" lon="7.22891">
        <ele>268.4</ele>
        <time>2020-05-22T12:29:39Z</time>
      </trkpt>
      <trkpt lat="48.72783" lon="7.2289">
        <ele>268.6</ele>
        <time>2020-05-22T12:29:41Z</time>
      </trkpt>
      <trkpt lat="48.72784" lon="7.2289">
        <ele>268.7</ele>
        <time>2020-05-22T12:29:43Z</time>
      </trkpt>
      <trkpt lat="48.72784" lon="7.22891">
        <ele>268.8</ele>
        <time>2020-05-22T12:29:44Z</time>
      </trkpt>
      <trkpt lat="48.72784" lon="7.2289">
        <ele>268.8</ele>
        <time>2020-05-22T12:29:46Z</time>
      </trkpt>
      <trkpt lat="48.72785" lon="7.22889">
        <ele>269</ele>
        <time>2020-05-22T12:29:48Z</time>
      </trkpt>
      <trkpt lat="48.72785" lon="7.22889">
        <ele>269</ele>
        <time>2020-05-22T12:29:50Z</time>
      </trkpt>
      <trkpt lat="48.72785" lon="7.22889">
        <ele>269.1</ele>
        <time>2020-05-22T12:29:52Z</time>
      </trkpt>
      <trkpt lat="48.72785" lon="7.2289">
        <ele>269.1</ele>
        <time>2020-05-22T12:29:54Z</time>
      </trkpt>
      <trkpt lat="48.72785" lon="7.22888">
        <ele>269.3</ele>
        <time>2020-05-22T12:29:56Z</time>
      </trkpt>
      <trkpt lat="48.72786" lon="7.22887">
        <ele>269.6</ele>
        <time>2020-05-22T12:29:57Z</time>
      </trkpt>
      <trkpt lat="48.72787" lon="7.22885">
        <ele>269.8</ele>
        <time>2020-05-22T12:29:58Z</time>
      </trkpt>
      <trkpt lat="48.72788" lon="7.22881">
        <ele>270.4</ele>
        <time>2020-05-22T12:30:00Z</time>
      </trkpt>
      <trkpt lat="48.7279" lon="7.22876">
        <ele>271.1</ele>
        <time>2020-05-22T12:30:02Z</time>
      </trkpt>
      <trkpt lat="48.72792" lon="7.22874">
        <ele>271.4</ele>
        <time>2020-05-22T12:30:03Z</time>
      </trkpt>
      <trkpt lat="48.72792" lon="7.22873">
        <ele>271.6</ele>
        <time>2020-05-22T12:30:04Z</time>
      </trkpt>
      <trkpt lat="48.72793" lon="7.22872">
        <ele>271.8</ele>
        <time>2020-05-22T12:30:05Z</time>
      </trkpt>
      <trkpt lat="48.72795" lon="7.22867">
        <ele>272.4</ele>
        <time>2020-05-22T12:30:07Z</time>
      </trkpt>
      <trkpt lat="48.72797" lon="7.22864">
        <ele>272.8</ele>
        <time>2020-05-22T12:30:09Z</time>
      </trkpt>
      <trkpt lat="48.72799" lon="7.22861">
        <ele>273.3</ele>
        <time>2020-05-22T12:30:11Z</time>
      </trkpt>
      <trkpt lat="48.728" lon="7.22859">
        <ele>273.5</ele>
        <time>2020-05-22T12:30:12Z</time>
      </trkpt>
      <trkpt lat="48.72802" lon="7.22854">
        <ele>274.2</ele>
        <time>2020-05-22T12:30:14Z</time>
      </trkpt>
      <trkpt lat="48.72804" lon="7.22849">
        <ele>274.7</ele>
        <time>2020-05-22T12:30:16Z</time>
      </trkpt>
      <trkpt lat="48.72803" lon="7.22847">
        <ele>274.9</ele>
        <time>2020-05-22T12:30:17Z</time>
      </trkpt>
      <trkpt lat="48.72803" lon="7.22841">
        <ele>275.6</ele>
        <time>2020-05-22T12:30:19Z</time>
      </trkpt>
      <trkpt lat="48.72802" lon="7.22835">
        <ele>276.2</ele>
        <time>2020-05-22T12:30:21Z</time>
      </trkpt>
      <trkpt lat="48.72801" lon="7.22833">
        <ele>276.4</ele>
        <time>2020-05-22T12:30:22Z</time>
      </trkpt>
      <trkpt lat="48.72801" lon="7.22831">
        <ele>276.6</ele>
        <time>2020-05-22T12:30:23Z</time>
      </trkpt>
      <trkpt lat="48.728" lon="7.22826">
        <ele>277.1</ele>
        <time>2020-05-22T12:30:25Z</time>
      </trkpt>
      <trkpt lat="48.72799" lon="7.22822">
        <ele>277.5</ele>
        <time>2020-05-22T12:30:27Z</time>
      </trkpt>
      <trkpt lat="48.72798" lon="7.22818">
        <ele>277.9</ele>
        <time>2020-05-22T12:30:29Z</time>
      </trkpt>
      <trkpt lat="48.72798" lon="7.22815">
        <ele>278.2</ele>
        <time>2020-05-22T12:30:30Z</time>
      </trkpt>
      <trkpt lat="48.72799" lon="7.22811">
        <ele>278.5</ele>
        <time>2020-05-22T12:30:32Z</time>
      </trkpt>
      <trkpt lat="48.72799" lon="7.2281">
        <ele>278.7</ele>
        <time>2020-05-22T12:30:33Z</time>
      </trkpt>
      <trkpt lat="48.72799" lon="7.22806">
        <ele>279</ele>
        <time>2020-05-22T12:30:35Z</time>
      </trkpt>
      <trkpt lat="48.72798" lon="7.22803">
        <ele>279.3</ele>
        <time>2020-05-22T12:30:37Z</time>
      </trkpt>
      <trkpt lat="48.72797" lon="7.22799">
        <ele>279.6</ele>
        <time>2020-05-22T12:30:39Z</time>
      </trkpt>
      <trkpt lat="48.72797" lon="7.22796">
        <ele>280</ele>
        <time>2020-05-22T12:30:41Z</time>
      </trkpt>
      <trkpt lat="48.72796" lon="7.22791">
        <ele>280.4</ele>
        <time>2020-05-22T12:30:43Z</time>
      </trkpt>
      <trkpt lat="48.72795" lon="7.22787">
        <ele>280.8</ele>
        <time>2020-05-22T12:30:45Z</time>
      </trkpt>
      <trkpt lat="48.72794" lon="7.22784">
        <ele>281.1</ele>
        <time>2020-05-22T12:30:46Z</time>
      </trkpt>
      <trkpt lat="48.72793" lon="7.22778">
        <ele>281.7</ele>
        <time>2020-05-22T12:30:48Z</time>
      </trkpt>
      <trkpt lat="48.72792" lon="7.22775">
        <ele>282</ele>
        <time>2020-05-22T12:30:50Z</time>
      </trkpt>
      <trkpt lat="48.72792" lon="7.22773">
        <ele>282.1</ele>
        <time>2020-05-22T12:30:51Z</time>
      </trkpt>
      <trkpt lat="48.7279" lon="7.22768">
        <ele>282.6</ele>
        <time>2020-05-22T12:30:53Z</time>
      </trkpt>
      <trkpt lat="48.72789" lon="7.22764">
        <ele>282.9</ele>
        <time>2020-05-22T12:30:54Z</time>
      </trkpt>
      <trkpt lat="48.72787" lon="7.22761">
        <ele>283.4</ele>
        <time>2020-05-22T12:30:56Z</time>
      </trkpt>
      <trkpt lat="48.72785" lon="7.22759">
        <ele>283.7</ele>
        <time>2020-05-22T12:30:57Z</time>
      </trkpt>
      <trkpt lat="48.7278" lon="7.22754">
        <ele>284.4</ele>
        <time>2020-05-22T12:30:59Z</time>
      </trkpt>
      <trkpt lat="48.72777" lon="7.2275">
        <ele>285</ele>
        <time>2020-05-22T12:31:01Z</time>
      </trkpt>
      <trkpt lat="48.72774" lon="7.22748">
        <ele>285.4</ele>
        <time>2020-05-22T12:31:02Z</time>
      </trkpt>
      <trkpt lat="48.72774" lon="7.22747">
        <ele>285.5</ele>
        <time>2020-05-22T12:31:03Z</time>
      </trkpt>
      <trkpt lat="48.72771" lon="7.22744">
        <ele>286</ele>
        <time>2020-05-22T12:31:05Z</time>
      </trkpt>
      <trkpt lat="48.7277" lon="7.22742">
        <ele>286.2</ele>
        <time>2020-05-22T12:31:07Z</time>
      </trkpt>
      <trkpt lat="48.72767" lon="7.22738">
        <ele>286.7</ele>
        <time>2020-05-22T12:31:09Z</time>
      </trkpt>
      <trkpt lat="48.72765" lon="7.22736">
        <ele>287.1</ele>
        <time>2020-05-22T12:31:11Z</time>
      </trkpt>
      <trkpt lat="48.72763" lon="7.22735">
        <ele>287.3</ele>
        <time>2020-05-22T12:31:12Z</time>
      </trkpt>
      <trkpt lat="48.72762" lon="7.22731">
        <ele>287.7</ele>
        <time>2020-05-22T12:31:14Z</time>
      </trkpt>
      <trkpt lat="48.7276" lon="7.22726">
        <ele>288.3</ele>
        <time>2020-05-22T12:31:16Z</time>
      </trkpt>
      <trkpt lat="48.72758" lon="7.22724">
        <ele>288.5</ele>
        <time>2020-05-22T12:31:17Z</time>
      </trkpt>
      <trkpt lat="48.72756" lon="7.2272">
        <ele>289</ele>
        <time>2020-05-22T12:31:19Z</time>
      </trkpt>
      <trkpt lat="48.72755" lon="7.2272">
        <ele>289.1</ele>
        <time>2020-05-22T12:31:20Z</time>
      </trkpt>
      <trkpt lat="48.72752" lon="7.22717">
        <ele>289.5</ele>
        <time>2020-05-22T12:31:22Z</time>
      </trkpt>
      <trkpt lat="48.72751" lon="7.22715">
        <ele>289.8</ele>
        <time>2020-05-22T12:31:24Z</time>
      </trkpt>
      <trkpt lat="48.72749" lon="7.22714">
        <ele>289.9</ele>
        <time>2020-05-22T12:31:25Z</time>
      </trkpt>
      <trkpt lat="48.72749" lon="7.22713">
        <ele>290.1</ele>
        <time>2020-05-22T12:31:26Z</time>
      </trkpt>
      <trkpt lat="48.72746" lon="7.22712">
        <ele>290.5</ele>
        <time>2020-05-22T12:31:28Z</time>
      </trkpt>
      <trkpt lat="48.72743" lon="7.22711">
        <ele>290.8</ele>
        <time>2020-05-22T12:31:30Z</time>
      </trkpt>
      <trkpt lat="48.72742" lon="7.22711">
        <ele>290.9</ele>
        <time>2020-05-22T12:31:31Z</time>
      </trkpt>
      <trkpt lat="48.72738" lon="7.2271">
        <ele>291.3</ele>
        <time>2020-05-22T12:31:33Z</time>
      </trkpt>
      <trkpt lat="48.72737" lon="7.2271">
        <ele>291.4</ele>
        <time>2020-05-22T12:31:34Z</time>
      </trkpt>
      <trkpt lat="48.72734" lon="7.2271">
        <ele>291.7</ele>
        <time>2020-05-22T12:31:36Z</time>
      </trkpt>
      <trkpt lat="48.7273" lon="7.2271">
        <ele>292.2</ele>
        <time>2020-05-22T12:31:38Z</time>
      </trkpt>
      <trkpt lat="48.72728" lon="7.2271">
        <ele>292.4</ele>
        <time>2020-05-22T12:31:39Z</time>
      </trkpt>
      <trkpt lat="48.72725" lon="7.22709">
        <ele>292.6</ele>
        <time>2020-05-22T12:31:41Z</time>
      </trkpt>
      <trkpt lat="48.72721" lon="7.22709">
        <ele>293</ele>
        <time>2020-05-22T12:31:43Z</time>
      </trkpt>
      <trkpt lat="48.7272" lon="7.2271">
        <ele>293.1</ele>
        <time>2020-05-22T12:31:44Z</time>
      </trkpt>
      <trkpt lat="48.72714" lon="7.22713">
        <ele>293.6</ele>
        <time>2020-05-22T12:31:46Z</time>
      </trkpt>
      <trkpt lat="48.72711" lon="7.22715">
        <ele>293.9</ele>
        <time>2020-05-22T12:31:48Z</time>
      </trkpt>
      <trkpt lat="48.72709" lon="7.22716">
        <ele>294.1</ele>
        <time>2020-05-22T12:31:49Z</time>
      </trkpt>
      <trkpt lat="48.72705" lon="7.22721">
        <ele>294.5</ele>
        <time>2020-05-22T12:31:51Z</time>
      </trkpt>
      <trkpt lat="48.72701" lon="7.22725">
        <ele>294.8</ele>
        <time>2020-05-22T12:31:53Z</time>
      </trkpt>
      <trkpt lat="48.72698" lon="7.22729">
        <ele>295.2</ele>
        <time>2020-05-22T12:31:55Z</time>
      </trkpt>
      <trkpt lat="48.72694" lon="7.22734">
        <ele>295.7</ele>
        <time>2020-05-22T12:31:57Z</time>
      </trkpt>
      <trkpt lat="48.72692" lon="7.22737">
        <ele>295.9</ele>
        <time>2020-05-22T12:31:58Z</time>
      </trkpt>
      <trkpt lat="48.72689" lon="7.2274">
        <ele>296.2</ele>
        <time>2020-05-22T12:32:00Z</time>
      </trkpt>
      <trkpt lat="48.72685" lon="7.22743">
        <ele>296.7</ele>
        <time>2020-05-22T12:32:02Z</time>
      </trkpt>
      <trkpt lat="48.7268" lon="7.22747">
        <ele>297.2</ele>
        <time>2020-05-22T12:32:04Z</time>
      </trkpt>
      <trkpt lat="48.72677" lon="7.22749">
        <ele>297.5</ele>
        <time>2020-05-22T12:32:05Z</time>
      </trkpt>
      <trkpt lat="48.72676" lon="7.22749">
        <ele>297.7</ele>
        <time>2020-05-22T12:32:06Z</time>
      </trkpt>
      <trkpt lat="48.72672" lon="7.22749">
        <ele>298.4</ele>
        <time>2020-05-22T12:32:08Z</time>
      </trkpt>
      <trkpt lat="48.72672" lon="7.22748">
        <ele>298.5</ele>
        <time>2020-05-22T12:32:09Z</time>
      </trkpt>
      <trkpt lat="48.72671" lon="7.22747">
        <ele>298.6</ele>
        <time>2020-05-22T12:32:10Z</time>
      </trkpt>
      <trkpt lat="48.72671" lon="7.22747">
        <ele>298.6</ele>
        <time>2020-05-22T12:32:11Z</time>
      </trkpt>
      <trkpt lat="48.7267" lon="7.22745">
        <ele>298.8</ele>
        <time>2020-05-22T12:32:13Z</time>
      </trkpt>
      <trkpt lat="48.72669" lon="7.22744">
        <ele>298.9</ele>
        <time>2020-05-22T12:32:15Z</time>
      </trkpt>
      <trkpt lat="48.7267" lon="7.22743">
        <ele>299</ele>
        <time>2020-05-22T12:32:17Z</time>
      </trkpt>
      <trkpt lat="48.72669" lon="7.22742">
        <ele>299.2</ele>
        <time>2020-05-22T12:32:19Z</time>
      </trkpt>
      <trkpt lat="48.72668" lon="7.22741">
        <ele>299.3</ele>
        <time>2020-05-22T12:32:20Z</time>
      </trkpt>
      <trkpt lat="48.72668" lon="7.2274">
        <ele>299.5</ele>
        <time>2020-05-22T12:32:21Z</time>
      </trkpt>
      <trkpt lat="48.72666" lon="7.22738">
        <ele>299.7</ele>
        <time>2020-05-22T12:32:22Z</time>
      </trkpt>
      <trkpt lat="48.72664" lon="7.22735">
        <ele>300</ele>
        <time>2020-05-22T12:32:24Z</time>
      </trkpt>
      <trkpt lat="48.72662" lon="7.22733">
        <ele>300.4</ele>
        <time>2020-05-22T12:32:26Z</time>
      </trkpt>
      <trkpt lat="48.72659" lon="7.22732">
        <ele>300.7</ele>
        <time>2020-05-22T12:32:27Z</time>
      </trkpt>
      <trkpt lat="48.72655" lon="7.22732">
        <ele>301.2</ele>
        <time>2020-05-22T12:32:29Z</time>
      </trkpt>
      <trkpt lat="48.72653" lon="7.22731">
        <ele>301.4</ele>
        <time>2020-05-22T12:32:30Z</time>
      </trkpt>
      <trkpt lat="48.72652" lon="7.22732">
        <ele>301.5</ele>
        <time>2020-05-22T12:32:32Z</time>
      </trkpt>
      <trkpt lat="48.72651" lon="7.22732">
        <ele>301.6</ele>
        <time>2020-05-22T12:32:33Z</time>
      </trkpt>
      <trkpt lat="48.7265" lon="7.22733">
        <ele>301.7</ele>
        <time>2020-05-22T12:32:35Z</time>
      </trkpt>
      <trkpt lat="48.7265" lon="7.22734">
        <ele>301.8</ele>
        <time>2020-05-22T12:32:36Z</time>
      </trkpt>
      <trkpt lat="48.72649" lon="7.22734">
        <ele>301.9</ele>
        <time>2020-05-22T12:32:37Z</time>
      </trkpt>
      <trkpt lat="48.72647" lon="7.22732">
        <ele>302.1</ele>
        <time>2020-05-22T12:32:39Z</time>
      </trkpt>
      <trkpt lat="48.72646" lon="7.22731">
        <ele>302.3</ele>
        <time>2020-05-22T12:32:40Z</time>
      </trkpt>
      <trkpt lat="48.72644" lon="7.2273">
        <ele>302.5</ele>
        <time>2020-05-22T12:32:42Z</time>
      </trkpt>
      <trkpt lat="48.72643" lon="7.2273">
        <ele>302.6</ele>
        <time>2020-05-22T12:32:44Z</time>
      </trkpt>
      <trkpt lat="48.72642" lon="7.2273">
        <ele>302.7</ele>
        <time>2020-05-22T12:32:45Z</time>
      </trkpt>
      <trkpt lat="48.72641" lon="7.22729">
        <ele>302.8</ele>
        <time>2020-05-22T12:32:46Z</time>
      </trkpt>
      <trkpt lat="48.7264" lon="7.22727">
        <ele>303</ele>
        <time>2020-05-22T12:32:48Z</time>
      </trkpt>
      <trkpt lat="48.72639" lon="7.22727">
        <ele>303.1</ele>
        <time>2020-05-22T12:32:49Z</time>
      </trkpt>
      <trkpt lat="48.72638" lon="7.22726">
        <ele>303.1</ele>
        <time>2020-05-22T12:32:50Z</time>
      </trkpt>
      <trkpt lat="48.72636" lon="7.22724">
        <ele>303.5</ele>
        <time>2020-05-22T12:32:52Z</time>
      </trkpt>
      <trkpt lat="48.72635" lon="7.22724">
        <ele>303.6</ele>
        <time>2020-05-22T12:32:54Z</time>
      </trkpt>
      <trkpt lat="48.72635" lon="7.22725">
        <ele>303.7</ele>
        <time>2020-05-22T12:32:56Z</time>
      </trkpt>
      <trkpt lat="48.72634" lon="7.22726">
        <ele>303.8</ele>
        <time>2020-05-22T12:32:57Z</time>
      </trkpt>
      <trkpt lat="48.72632" lon="7.22726">
        <ele>304</ele>
        <time>2020-05-22T12:32:58Z</time>
      </trkpt>
      <trkpt lat="48.7263" lon="7.22727">
        <ele>304.2</ele>
        <time>2020-05-22T12:32:59Z</time>
      </trkpt>
      <trkpt lat="48.72628" lon="7.22724">
        <ele>304.6</ele>
        <time>2020-05-22T12:33:01Z</time>
      </trkpt>
      <trkpt lat="48.72626" lon="7.22719">
        <ele>305</ele>
        <time>2020-05-22T12:33:03Z</time>
      </trkpt>
      <trkpt lat="48.72625" lon="7.22717">
        <ele>305.2</ele>
        <time>2020-05-22T12:33:05Z</time>
      </trkpt>
      <trkpt lat="48.72622" lon="7.22713">
        <ele>305.6</ele>
        <time>2020-05-22T12:33:07Z</time>
      </trkpt>
      <trkpt lat="48.72621" lon="7.22712">
        <ele>305.8</ele>
        <time>2020-05-22T12:33:08Z</time>
      </trkpt>
      <trkpt lat="48.72617" lon="7.22709">
        <ele>306.3</ele>
        <time>2020-05-22T12:33:10Z</time>
      </trkpt>
      <trkpt lat="48.72616" lon="7.22708">
        <ele>306.5</ele>
        <time>2020-05-22T12:33:11Z</time>
      </trkpt>
      <trkpt lat="48.72613" lon="7.22705">
        <ele>307</ele>
        <time>2020-05-22T12:33:13Z</time>
      </trkpt>
      <trkpt lat="48.72609" lon="7.22702">
        <ele>307.5</ele>
        <time>2020-05-22T12:33:15Z</time>
      </trkpt>
      <trkpt lat="48.72607" lon="7.22701">
        <ele>307.7</ele>
        <time>2020-05-22T12:33:16Z</time>
      </trkpt>
      <trkpt lat="48.72604" lon="7.22697">
        <ele>308.3</ele>
        <time>2020-05-22T12:33:18Z</time>
      </trkpt>
      <trkpt lat="48.72602" lon="7.22694">
        <ele>308.6</ele>
        <time>2020-05-22T12:33:20Z</time>
      </trkpt>
      <trkpt lat="48.72599" lon="7.22691">
        <ele>309</ele>
        <time>2020-05-22T12:33:22Z</time>
      </trkpt>
      <trkpt lat="48.72596" lon="7.22689">
        <ele>309.4</ele>
        <time>2020-05-22T12:33:24Z</time>
      </trkpt>
      <trkpt lat="48.72593" lon="7.22687">
        <ele>309.8</ele>
        <time>2020-05-22T12:33:26Z</time>
      </trkpt>
      <trkpt lat="48.7259" lon="7.22684">
        <ele>310.1</ele>
        <time>2020-05-22T12:33:28Z</time>
      </trkpt>
      <trkpt lat="48.72589" lon="7.22683">
        <ele>310.3</ele>
        <time>2020-05-22T12:33:29Z</time>
      </trkpt>
      <trkpt lat="48.72587" lon="7.22679">
        <ele>310.7</ele>
        <time>2020-05-22T12:33:31Z</time>
      </trkpt>
      <trkpt lat="48.72585" lon="7.22677">
        <ele>310.9</ele>
        <time>2020-05-22T12:33:33Z</time>
      </trkpt>
      <trkpt lat="48.72583" lon="7.22674">
        <ele>311.2</ele>
        <time>2020-05-22T12:33:35Z</time>
      </trkpt>
      <trkpt lat="48.7258" lon="7.2267">
        <ele>311.5</ele>
        <time>2020-05-22T12:33:37Z</time>
      </trkpt>
      <trkpt lat="48.72576" lon="7.22666">
        <ele>311.9</ele>
        <time>2020-05-22T12:33:39Z</time>
      </trkpt>
      <trkpt lat="48.72574" lon="7.22663">
        <ele>312.2</ele>
        <time>2020-05-22T12:33:41Z</time>
      </trkpt>
      <trkpt lat="48.72571" lon="7.22659">
        <ele>312.5</ele>
        <time>2020-05-22T12:33:43Z</time>
      </trkpt>
      <trkpt lat="48.72567" lon="7.22653">
        <ele>313</ele>
        <time>2020-05-22T12:33:45Z</time>
      </trkpt>
      <trkpt lat="48.72564" lon="7.22649">
        <ele>313.3</ele>
        <time>2020-05-22T12:33:47Z</time>
      </trkpt>
      <trkpt lat="48.72562" lon="7.22647">
        <ele>313.5</ele>
        <time>2020-05-22T12:33:48Z</time>
      </trkpt>
      <trkpt lat="48.72558" lon="7.22646">
        <ele>313.7</ele>
        <time>2020-05-22T12:33:50Z</time>
      </trkpt>
      <trkpt lat="48.72553" lon="7.22643">
        <ele>314.1</ele>
        <time>2020-05-22T12:33:52Z</time>
      </trkpt>
      <trkpt lat="48.72548" lon="7.22639">
        <ele>314.4</ele>
        <time>2020-05-22T12:33:54Z</time>
      </trkpt>
      <trkpt lat="48.72546" lon="7.22638">
        <ele>314.5</ele>
        <time>2020-05-22T12:33:55Z</time>
      </trkpt>
      <trkpt lat="48.72545" lon="7.22636">
        <ele>314.6</ele>
        <time>2020-05-22T12:33:56Z</time>
      </trkpt>
      <trkpt lat="48.72539" lon="7.22631">
        <ele>314.9</ele>
        <time>2020-05-22T12:33:58Z</time>
      </trkpt>
      <trkpt lat="48.72537" lon="7.22629">
        <ele>315</ele>
        <time>2020-05-22T12:33:59Z</time>
      </trkpt>
      <trkpt lat="48.72532" lon="7.22623">
        <ele>315.4</ele>
        <time>2020-05-22T12:34:01Z</time>
      </trkpt>
      <trkpt lat="48.7253" lon="7.22621">
        <ele>315.5</ele>
        <time>2020-05-22T12:34:02Z</time>
      </trkpt>
      <trkpt lat="48.72526" lon="7.22614">
        <ele>315.8</ele>
        <time>2020-05-22T12:34:04Z</time>
      </trkpt>
      <trkpt lat="48.7252" lon="7.2261">
        <ele>316.2</ele>
        <time>2020-05-22T12:34:06Z</time>
      </trkpt>
      <trkpt lat="48.72517" lon="7.22608">
        <ele>316.3</ele>
        <time>2020-05-22T12:34:07Z</time>
      </trkpt>
      <trkpt lat="48.72513" lon="7.22603">
        <ele>316.5</ele>
        <time>2020-05-22T12:34:09Z</time>
      </trkpt>
      <trkpt lat="48.72511" lon="7.22599">
        <ele>316.7</ele>
        <time>2020-05-22T12:34:10Z</time>
      </trkpt>
      <trkpt lat="48.72509" lon="7.22596">
        <ele>316.8</ele>
        <time>2020-05-22T12:34:11Z</time>
      </trkpt>
      <trkpt lat="48.72505" lon="7.22588">
        <ele>317.1</ele>
        <time>2020-05-22T12:34:13Z</time>
      </trkpt>
      <trkpt lat="48.72502" lon="7.22585">
        <ele>317.2</ele>
        <time>2020-05-22T12:34:14Z</time>
      </trkpt>
      <trkpt lat="48.72498" lon="7.22581">
        <ele>317.4</ele>
        <time>2020-05-22T12:34:15Z</time>
      </trkpt>
      <trkpt lat="48.72494" lon="7.22578">
        <ele>317.7</ele>
        <time>2020-05-22T12:34:16Z</time>
      </trkpt>
      <trkpt lat="48.72486" lon="7.22572">
        <ele>318</ele>
        <time>2020-05-22T12:34:18Z</time>
      </trkpt>
      <trkpt lat="48.72478" lon="7.22569">
        <ele>318.3</ele>
        <time>2020-05-22T12:34:20Z</time>
      </trkpt>
      <trkpt lat="48.72469" lon="7.22567">
        <ele>318.4</ele>
        <time>2020-05-22T12:34:22Z</time>
      </trkpt>
      <trkpt lat="48.72464" lon="7.22567">
        <ele>318.4</ele>
        <time>2020-05-22T12:34:23Z</time>
      </trkpt>
      <trkpt lat="48.72459" lon="7.22569">
        <ele>318.3</ele>
        <time>2020-05-22T12:34:24Z</time>
      </trkpt>
      <trkpt lat="48.72454" lon="7.22572">
        <ele>316.7</ele>
        <time>2020-05-22T12:34:25Z</time>
      </trkpt>
      <trkpt lat="48.72447" lon="7.22581">
        <ele>313.7</ele>
        <time>2020-05-22T12:34:27Z</time>
      </trkpt>
      <trkpt lat="48.72445" lon="7.22584">
        <ele>312.8</ele>
        <time>2020-05-22T12:34:28Z</time>
      </trkpt>
      <trkpt lat="48.72439" lon="7.22589">
        <ele>311.1</ele>
        <time>2020-05-22T12:34:30Z</time>
      </trkpt>
      <trkpt lat="48.72436" lon="7.22592">
        <ele>310.6</ele>
        <time>2020-05-22T12:34:31Z</time>
      </trkpt>
      <trkpt lat="48.72432" lon="7.22599">
        <ele>309.6</ele>
        <time>2020-05-22T12:34:33Z</time>
      </trkpt>
      <trkpt lat="48.72428" lon="7.22602">
        <ele>308.9</ele>
        <time>2020-05-22T12:34:34Z</time>
      </trkpt>
      <trkpt lat="48.72422" lon="7.22611">
        <ele>307.7</ele>
        <time>2020-05-22T12:34:36Z</time>
      </trkpt>
      <trkpt lat="48.72413" lon="7.22621">
        <ele>306.1</ele>
        <time>2020-05-22T12:34:38Z</time>
      </trkpt>
      <trkpt lat="48.72402" lon="7.22633">
        <ele>304.2</ele>
        <time>2020-05-22T12:34:40Z</time>
      </trkpt>
      <trkpt lat="48.72391" lon="7.22648">
        <ele>301.9</ele>
        <time>2020-05-22T12:34:42Z</time>
      </trkpt>
      <trkpt lat="48.72385" lon="7.22655">
        <ele>300.7</ele>
        <time>2020-05-22T12:34:43Z</time>
      </trkpt>
      <trkpt lat="48.72378" lon="7.22659">
        <ele>299.6</ele>
        <time>2020-05-22T12:34:44Z</time>
      </trkpt>
      <trkpt lat="48.72361" lon="7.22668">
        <ele>297.1</ele>
        <time>2020-05-22T12:34:46Z</time>
      </trkpt>
      <trkpt lat="48.72348" lon="7.22672">
        <ele>295.3</ele>
        <time>2020-05-22T12:34:48Z</time>
      </trkpt>
      <trkpt lat="48.72341" lon="7.22671">
        <ele>294.4</ele>
        <time>2020-05-22T12:34:49Z</time>
      </trkpt>
      <trkpt lat="48.72328" lon="7.22671">
        <ele>292.8</ele>
        <time>2020-05-22T12:34:51Z</time>
      </trkpt>
      <trkpt lat="48.72321" lon="7.22668">
        <ele>292.8</ele>
        <time>2020-05-22T12:34:53Z</time>
      </trkpt>
      <trkpt lat="48.72322" lon="7.22668">
        <ele>292.8</ele>
        <time>2020-05-22T12:34:55Z</time>
      </trkpt>
      <trkpt lat="48.72323" lon="7.22667">
        <ele>292.8</ele>
        <time>2020-05-22T12:34:56Z</time>
      </trkpt>
      <trkpt lat="48.72323" lon="7.22666">
        <ele>292.8</ele>
        <time>2020-05-22T12:34:57Z</time>
      </trkpt>
      <trkpt lat="48.72323" lon="7.22664">
        <ele>292.8</ele>
        <time>2020-05-22T12:35:01Z</time>
      </trkpt>
      <trkpt lat="48.72323" lon="7.22663">
        <ele>292.8</ele>
        <time>2020-05-22T12:35:03Z</time>
      </trkpt>
      <trkpt lat="48.72323" lon="7.22664">
        <ele>292.8</ele>
        <time>2020-05-22T12:35:05Z</time>
      </trkpt>
      <trkpt lat="48.72323" lon="7.22664">
        <ele>292.8</ele>
        <time>2020-05-22T12:35:06Z</time>
      </trkpt>
      <trkpt lat="48.72323" lon="7.22664">
        <ele>292.8</ele>
        <time>2020-05-22T12:35:07Z</time>
      </trkpt>
      <trkpt lat="48.72326" lon="7.22665">
        <ele>292.8</ele>
        <time>2020-05-22T12:35:15Z</time>
      </trkpt>
      <trkpt lat="48.72326" lon="7.22665">
        <ele>292.8</ele>
        <time>2020-05-22T12:35:17Z</time>
      </trkpt>
      <trkpt lat="48.72326" lon="7.22665">
        <ele>292.8</ele>
        <time>2020-05-22T12:35:18Z</time>
      </trkpt>
      <trkpt lat="48.72329" lon="7.22666">
        <ele>292.8</ele>
        <time>2020-05-22T12:35:20Z</time>
      </trkpt>
      <trkpt lat="48.72332" lon="7.22669">
        <ele>292.8</ele>
        <time>2020-05-22T12:35:22Z</time>
      </trkpt>
      <trkpt lat="48.72334" lon="7.2267">
        <ele>292.9</ele>
        <time>2020-05-22T12:35:23Z</time>
      </trkpt>
      <trkpt lat="48.72338" lon="7.22676">
        <ele>292.9</ele>
        <time>2020-05-22T12:35:25Z</time>
      </trkpt>
      <trkpt lat="48.72343" lon="7.22682">
        <ele>292.9</ele>
        <time>2020-05-22T12:35:27Z</time>
      </trkpt>
      <trkpt lat="48.72349" lon="7.22682">
        <ele>292.9</ele>
        <time>2020-05-22T12:35:29Z</time>
      </trkpt>
      <trkpt lat="48.72349" lon="7.22674">
        <ele>293</ele>
        <time>2020-05-22T12:35:31Z</time>
      </trkpt>
      <trkpt lat="48.72343" lon="7.22669">
        <ele>293</ele>
        <time>2020-05-22T12:35:33Z</time>
      </trkpt>
      <trkpt lat="48.72341" lon="7.22668">
        <ele>293</ele>
        <time>2020-05-22T12:35:34Z</time>
      </trkpt>
      <trkpt lat="48.72334" lon="7.22662">
        <ele>293</ele>
        <time>2020-05-22T12:35:36Z</time>
      </trkpt>
      <trkpt lat="48.72331" lon="7.22657">
        <ele>297.3</ele>
        <time>2020-05-22T12:35:37Z</time>
      </trkpt>
      <trkpt lat="48.72329" lon="7.22653">
        <ele>301.6</ele>
        <time>2020-05-22T12:35:38Z</time>
      </trkpt>
      <trkpt lat="48.72325" lon="7.22646">
        <ele>306.7</ele>
        <time>2020-05-22T12:35:40Z</time>
      </trkpt>
      <trkpt lat="48.72323" lon="7.2264">
        <ele>311</ele>
        <time>2020-05-22T12:35:42Z</time>
      </trkpt>
      <trkpt lat="48.72321" lon="7.22636">
        <ele>315.3</ele>
        <time>2020-05-22T12:35:43Z</time>
      </trkpt>
      <trkpt lat="48.72321" lon="7.22635">
        <ele>315.2</ele>
        <time>2020-05-22T12:35:44Z</time>
      </trkpt>
      <trkpt lat="48.7232" lon="7.22631">
        <ele>315.2</ele>
        <time>2020-05-22T12:35:46Z</time>
      </trkpt>
      <trkpt lat="48.72319" lon="7.22629">
        <ele>315.2</ele>
        <time>2020-05-22T12:35:47Z</time>
      </trkpt>
      <trkpt lat="48.72318" lon="7.22628">
        <ele>315.1</ele>
        <time>2020-05-22T12:35:48Z</time>
      </trkpt>
      <trkpt lat="48.72315" lon="7.22624">
        <ele>315.1</ele>
        <time>2020-05-22T12:35:50Z</time>
      </trkpt>
      <trkpt lat="48.72313" lon="7.22621">
        <ele>315</ele>
        <time>2020-05-22T12:35:52Z</time>
      </trkpt>
      <trkpt lat="48.72311" lon="7.22616">
        <ele>315</ele>
        <time>2020-05-22T12:35:54Z</time>
      </trkpt>
      <trkpt lat="48.72309" lon="7.22612">
        <ele>314.9</ele>
        <time>2020-05-22T12:35:56Z</time>
      </trkpt>
      <trkpt lat="48.72307" lon="7.22609">
        <ele>314.9</ele>
        <time>2020-05-22T12:35:58Z</time>
      </trkpt>
      <trkpt lat="48.72303" lon="7.22604">
        <ele>314.8</ele>
        <time>2020-05-22T12:36:00Z</time>
      </trkpt>
      <trkpt lat="48.72301" lon="7.22602">
        <ele>314.8</ele>
        <time>2020-05-22T12:36:01Z</time>
      </trkpt>
      <trkpt lat="48.72298" lon="7.226">
        <ele>314.7</ele>
        <time>2020-05-22T12:36:03Z</time>
      </trkpt>
      <trkpt lat="48.72296" lon="7.22595">
        <ele>314.7</ele>
        <time>2020-05-22T12:36:05Z</time>
      </trkpt>
      <trkpt lat="48.72294" lon="7.22589">
        <ele>314.7</ele>
        <time>2020-05-22T12:36:07Z</time>
      </trkpt>
      <trkpt lat="48.72291" lon="7.22585">
        <ele>314.6</ele>
        <time>2020-05-22T12:36:09Z</time>
      </trkpt>
      <trkpt lat="48.72288" lon="7.22579">
        <ele>314.6</ele>
        <time>2020-05-22T12:36:11Z</time>
      </trkpt>
      <trkpt lat="48.72285" lon="7.22575">
        <ele>314.7</ele>
        <time>2020-05-22T12:36:13Z</time>
      </trkpt>
      <trkpt lat="48.72281" lon="7.2257">
        <ele>314.7</ele>
        <time>2020-05-22T12:36:15Z</time>
      </trkpt>
      <trkpt lat="48.7228" lon="7.22569">
        <ele>314.7</ele>
        <time>2020-05-22T12:36:16Z</time>
      </trkpt>
      <trkpt lat="48.72276" lon="7.22565">
        <ele>314.8</ele>
        <time>2020-05-22T12:36:18Z</time>
      </trkpt>
      <trkpt lat="48.72273" lon="7.22562">
        <ele>314.8</ele>
        <time>2020-05-22T12:36:20Z</time>
      </trkpt>
      <trkpt lat="48.7227" lon="7.22559">
        <ele>314.9</ele>
        <time>2020-05-22T12:36:22Z</time>
      </trkpt>
      <trkpt lat="48.72266" lon="7.22555">
        <ele>315.1</ele>
        <time>2020-05-22T12:36:24Z</time>
      </trkpt>
      <trkpt lat="48.72263" lon="7.22551">
        <ele>315.2</ele>
        <time>2020-05-22T12:36:26Z</time>
      </trkpt>
      <trkpt lat="48.72261" lon="7.22547">
        <ele>315.3</ele>
        <time>2020-05-22T12:36:28Z</time>
      </trkpt>
      <trkpt lat="48.7226" lon="7.22545">
        <ele>315.4</ele>
        <time>2020-05-22T12:36:29Z</time>
      </trkpt>
      <trkpt lat="48.72259" lon="7.22543">
        <ele>315.5</ele>
        <time>2020-05-22T12:36:31Z</time>
      </trkpt>
      <trkpt lat="48.72256" lon="7.22538">
        <ele>315.7</ele>
        <time>2020-05-22T12:36:33Z</time>
      </trkpt>
      <trkpt lat="48.72254" lon="7.22535">
        <ele>315.8</ele>
        <time>2020-05-22T12:36:35Z</time>
      </trkpt>
      <trkpt lat="48.72253" lon="7.22533">
        <ele>315.9</ele>
        <time>2020-05-22T12:36:36Z</time>
      </trkpt>
      <trkpt lat="48.7225" lon="7.2253">
        <ele>316.2</ele>
        <time>2020-05-22T12:36:38Z</time>
      </trkpt>
      <trkpt lat="48.72248" lon="7.22526">
        <ele>316.4</ele>
        <time>2020-05-22T12:36:40Z</time>
      </trkpt>
      <trkpt lat="48.72245" lon="7.22521">
        <ele>316.8</ele>
        <time>2020-05-22T12:36:42Z</time>
      </trkpt>
      <trkpt lat="48.7224" lon="7.22518">
        <ele>317.1</ele>
        <time>2020-05-22T12:36:44Z</time>
      </trkpt>
      <trkpt lat="48.72237" lon="7.22516">
        <ele>317.3</ele>
        <time>2020-05-22T12:36:45Z</time>
      </trkpt>
      <trkpt lat="48.72236" lon="7.22516">
        <ele>317.4</ele>
        <time>2020-05-22T12:36:46Z</time>
      </trkpt>
      <trkpt lat="48.72234" lon="7.22513">
        <ele>317.6</ele>
        <time>2020-05-22T12:36:47Z</time>
      </trkpt>
      <trkpt lat="48.72231" lon="7.22505">
        <ele>318.2</ele>
        <time>2020-05-22T12:36:49Z</time>
      </trkpt>
      <trkpt lat="48.72229" lon="7.22495">
        <ele>318.7</ele>
        <time>2020-05-22T12:36:51Z</time>
      </trkpt>
      <trkpt lat="48.72228" lon="7.22488">
        <ele>319.1</ele>
        <time>2020-05-22T12:36:53Z</time>
      </trkpt>
      <trkpt lat="48.72226" lon="7.22484">
        <ele>319.3</ele>
        <time>2020-05-22T12:36:54Z</time>
      </trkpt>
      <trkpt lat="48.72225" lon="7.22483">
        <ele>319.4</ele>
        <time>2020-05-22T12:36:55Z</time>
      </trkpt>
      <trkpt lat="48.72222" lon="7.22479">
        <ele>319.6</ele>
        <time>2020-05-22T12:36:56Z</time>
      </trkpt>
      <trkpt lat="48.72217" lon="7.22474">
        <ele>320</ele>
        <time>2020-05-22T12:36:58Z</time>
      </trkpt>
      <trkpt lat="48.72215" lon="7.22471">
        <ele>320.2</ele>
        <time>2020-05-22T12:36:59Z</time>
      </trkpt>
      <trkpt lat="48.7221" lon="7.22466">
        <ele>320.6</ele>
        <time>2020-05-22T12:37:01Z</time>
      </trkpt>
      <trkpt lat="48.72206" lon="7.2246">
        <ele>320.9</ele>
        <time>2020-05-22T12:37:03Z</time>
      </trkpt>
      <trkpt lat="48.72204" lon="7.22457">
        <ele>321.1</ele>
        <time>2020-05-22T12:37:04Z</time>
      </trkpt>
      <trkpt lat="48.72198" lon="7.22452">
        <ele>321.6</ele>
        <time>2020-05-22T12:37:06Z</time>
      </trkpt>
      <trkpt lat="48.72193" lon="7.22446">
        <ele>322</ele>
        <time>2020-05-22T12:37:08Z</time>
      </trkpt>
      <trkpt lat="48.7219" lon="7.22439">
        <ele>322.4</ele>
        <time>2020-05-22T12:37:10Z</time>
      </trkpt>
      <trkpt lat="48.7219" lon="7.22435">
        <ele>322.6</ele>
        <time>2020-05-22T12:37:11Z</time>
      </trkpt>
      <trkpt lat="48.72191" lon="7.22429">
        <ele>322.8</ele>
        <time>2020-05-22T12:37:13Z</time>
      </trkpt>
      <trkpt lat="48.72192" lon="7.22426">
        <ele>323</ele>
        <time>2020-05-22T12:37:14Z</time>
      </trkpt>
      <trkpt lat="48.72192" lon="7.22424">
        <ele>323</ele>
        <time>2020-05-22T12:37:15Z</time>
      </trkpt>
      <trkpt lat="48.72192" lon="7.22423">
        <ele>323.1</ele>
        <time>2020-05-22T12:37:16Z</time>
      </trkpt>
      <trkpt lat="48.72193" lon="7.2242">
        <ele>323.2</ele>
        <time>2020-05-22T12:37:18Z</time>
      </trkpt>
      <trkpt lat="48.72192" lon="7.22418">
        <ele>323.3</ele>
        <time>2020-05-22T12:37:20Z</time>
      </trkpt>
      <trkpt lat="48.72191" lon="7.22416">
        <ele>323.4</ele>
        <time>2020-05-22T12:37:22Z</time>
      </trkpt>
      <trkpt lat="48.7219" lon="7.22414">
        <ele>323.5</ele>
        <time>2020-05-22T12:37:23Z</time>
      </trkpt>
      <trkpt lat="48.72187" lon="7.22407">
        <ele>323.9</ele>
        <time>2020-05-22T12:37:25Z</time>
      </trkpt>
      <trkpt lat="48.72187" lon="7.22403">
        <ele>324</ele>
        <time>2020-05-22T12:37:27Z</time>
      </trkpt>
      <trkpt lat="48.72186" lon="7.22401">
        <ele>324.1</ele>
        <time>2020-05-22T12:37:29Z</time>
      </trkpt>
      <trkpt lat="48.72186" lon="7.22399">
        <ele>324.2</ele>
        <time>2020-05-22T12:37:30Z</time>
      </trkpt>
      <trkpt lat="48.72185" lon="7.22395">
        <ele>324.4</ele>
        <time>2020-05-22T12:37:32Z</time>
      </trkpt>
      <trkpt lat="48.72185" lon="7.22392">
        <ele>324.5</ele>
        <time>2020-05-22T12:37:34Z</time>
      </trkpt>
      <trkpt lat="48.72184" lon="7.22389">
        <ele>324.7</ele>
        <time>2020-05-22T12:37:36Z</time>
      </trkpt>
      <trkpt lat="48.72184" lon="7.22388">
        <ele>324.7</ele>
        <time>2020-05-22T12:37:37Z</time>
      </trkpt>
      <trkpt lat="48.72182" lon="7.22385">
        <ele>324.9</ele>
        <time>2020-05-22T12:37:39Z</time>
      </trkpt>
      <trkpt lat="48.72182" lon="7.22382">
        <ele>325</ele>
        <time>2020-05-22T12:37:40Z</time>
      </trkpt>
      <trkpt lat="48.7218" lon="7.22377">
        <ele>325.3</ele>
        <time>2020-05-22T12:37:42Z</time>
      </trkpt>
      <trkpt lat="48.7218" lon="7.22373">
        <ele>325.5</ele>
        <time>2020-05-22T12:37:44Z</time>
      </trkpt>
      <trkpt lat="48.72179" lon="7.2237">
        <ele>325.7</ele>
        <time>2020-05-22T12:37:46Z</time>
      </trkpt>
      <trkpt lat="48.72179" lon="7.22366">
        <ele>325.9</ele>
        <time>2020-05-22T12:37:48Z</time>
      </trkpt>
      <trkpt lat="48.72179" lon="7.22364">
        <ele>325.9</ele>
        <time>2020-05-22T12:37:49Z</time>
      </trkpt>
      <trkpt lat="48.72178" lon="7.22363">
        <ele>326.1</ele>
        <time>2020-05-22T12:37:50Z</time>
      </trkpt>
      <trkpt lat="48.72178" lon="7.22362">
        <ele>326.1</ele>
        <time>2020-05-22T12:37:52Z</time>
      </trkpt>
      <trkpt lat="48.72178" lon="7.2236">
        <ele>326.2</ele>
        <time>2020-05-22T12:37:53Z</time>
      </trkpt>
      <trkpt lat="48.72178" lon="7.22358">
        <ele>326.4</ele>
        <time>2020-05-22T12:37:55Z</time>
      </trkpt>
      <trkpt lat="48.72179" lon="7.22355">
        <ele>326.5</ele>
        <time>2020-05-22T12:37:57Z</time>
      </trkpt>
      <trkpt lat="48.72179" lon="7.22354">
        <ele>326.6</ele>
        <time>2020-05-22T12:37:58Z</time>
      </trkpt>
      <trkpt lat="48.72178" lon="7.22352">
        <ele>326.7</ele>
        <time>2020-05-22T12:38:00Z</time>
      </trkpt>
      <trkpt lat="48.72178" lon="7.22352">
        <ele>326.8</ele>
        <time>2020-05-22T12:38:01Z</time>
      </trkpt>
      <trkpt lat="48.72178" lon="7.22351">
        <ele>326.8</ele>
        <time>2020-05-22T12:38:02Z</time>
      </trkpt>
      <trkpt lat="48.72177" lon="7.2235">
        <ele>326.9</ele>
        <time>2020-05-22T12:38:03Z</time>
      </trkpt>
      <trkpt lat="48.72177" lon="7.22349">
        <ele>326.9</ele>
        <time>2020-05-22T12:38:04Z</time>
      </trkpt>
      <trkpt lat="48.72176" lon="7.22347">
        <ele>327.1</ele>
        <time>2020-05-22T12:38:06Z</time>
      </trkpt>
      <trkpt lat="48.72176" lon="7.22345">
        <ele>327.2</ele>
        <time>2020-05-22T12:38:07Z</time>
      </trkpt>
      <trkpt lat="48.72175" lon="7.22342">
        <ele>327.4</ele>
        <time>2020-05-22T12:38:09Z</time>
      </trkpt>
      <trkpt lat="48.72175" lon="7.22341">
        <ele>327.5</ele>
        <time>2020-05-22T12:38:10Z</time>
      </trkpt>
      <trkpt lat="48.72175" lon="7.22339">
        <ele>327.6</ele>
        <time>2020-05-22T12:38:11Z</time>
      </trkpt>
      <trkpt lat="48.72175" lon="7.22337">
        <ele>327.7</ele>
        <time>2020-05-22T12:38:12Z</time>
      </trkpt>
      <trkpt lat="48.72175" lon="7.22336">
        <ele>327.8</ele>
        <time>2020-05-22T12:38:13Z</time>
      </trkpt>
      <trkpt lat="48.72175" lon="7.22333">
        <ele>328</ele>
        <time>2020-05-22T12:38:15Z</time>
      </trkpt>
      <trkpt lat="48.72176" lon="7.22331">
        <ele>328.1</ele>
        <time>2020-05-22T12:38:17Z</time>
      </trkpt>
      <trkpt lat="48.72176" lon="7.2233">
        <ele>328.2</ele>
        <time>2020-05-22T12:38:19Z</time>
      </trkpt>
      <trkpt lat="48.72176" lon="7.22327">
        <ele>328.4</ele>
        <time>2020-05-22T12:38:21Z</time>
      </trkpt>
      <trkpt lat="48.72176" lon="7.22326">
        <ele>328.4</ele>
        <time>2020-05-22T12:38:22Z</time>
      </trkpt>
      <trkpt lat="48.72177" lon="7.22324">
        <ele>328.6</ele>
        <time>2020-05-22T12:38:24Z</time>
      </trkpt>
      <trkpt lat="48.72177" lon="7.22322">
        <ele>328.7</ele>
        <time>2020-05-22T12:38:26Z</time>
      </trkpt>
      <trkpt lat="48.72177" lon="7.22322">
        <ele>328.8</ele>
        <time>2020-05-22T12:38:27Z</time>
      </trkpt>
      <trkpt lat="48.72177" lon="7.22321">
        <ele>328.8</ele>
        <time>2020-05-22T12:38:28Z</time>
      </trkpt>
      <trkpt lat="48.72177" lon="7.2232">
        <ele>328.9</ele>
        <time>2020-05-22T12:38:30Z</time>
      </trkpt>
      <trkpt lat="48.72177" lon="7.22319">
        <ele>329</ele>
        <time>2020-05-22T12:38:32Z</time>
      </trkpt>
      <trkpt lat="48.72176" lon="7.22317">
        <ele>329.1</ele>
        <time>2020-05-22T12:38:34Z</time>
      </trkpt>
      <trkpt lat="48.72176" lon="7.22317">
        <ele>329.1</ele>
        <time>2020-05-22T12:38:35Z</time>
      </trkpt>
      <trkpt lat="48.72176" lon="7.22317">
        <ele>329.1</ele>
        <time>2020-05-22T12:38:36Z</time>
      </trkpt>
      <trkpt lat="48.72176" lon="7.22316">
        <ele>329.2</ele>
        <time>2020-05-22T12:38:38Z</time>
      </trkpt>
      <trkpt lat="48.72177" lon="7.22315">
        <ele>329.3</ele>
        <time>2020-05-22T12:38:40Z</time>
      </trkpt>
      <trkpt lat="48.72177" lon="7.22315">
        <ele>329.3</ele>
        <time>2020-05-22T12:38:41Z</time>
      </trkpt>
      <trkpt lat="48.72177" lon="7.22315">
        <ele>329.3</ele>
        <time>2020-05-22T12:38:42Z</time>
      </trkpt>
      <trkpt lat="48.72177" lon="7.22315">
        <ele>329.3</ele>
        <time>2020-05-22T12:38:43Z</time>
      </trkpt>
      <trkpt lat="48.72176" lon="7.22314">
        <ele>329.4</ele>
        <time>2020-05-22T12:38:45Z</time>
      </trkpt>
      <trkpt lat="48.72176" lon="7.22314">
        <ele>329.4</ele>
        <time>2020-05-22T12:38:46Z</time>
      </trkpt>
      <trkpt lat="48.72176" lon="7.22313">
        <ele>329.5</ele>
        <time>2020-05-22T12:38:48Z</time>
      </trkpt>
      <trkpt lat="48.72177" lon="7.22313">
        <ele>329.5</ele>
        <time>2020-05-22T12:38:50Z</time>
      </trkpt>
      <trkpt lat="48.72176" lon="7.22312">
        <ele>329.5</ele>
        <time>2020-05-22T12:38:51Z</time>
      </trkpt>
      <trkpt lat="48.72176" lon="7.2231">
        <ele>329.7</ele>
        <time>2020-05-22T12:38:53Z</time>
      </trkpt>
      <trkpt lat="48.72176" lon="7.22308">
        <ele>329.8</ele>
        <time>2020-05-22T12:38:54Z</time>
      </trkpt>
      <trkpt lat="48.72176" lon="7.22305">
        <ele>330</ele>
        <time>2020-05-22T12:38:56Z</time>
      </trkpt>
      <trkpt lat="48.72176" lon="7.22302">
        <ele>330.2</ele>
        <time>2020-05-22T12:38:58Z</time>
      </trkpt>
      <trkpt lat="48.72176" lon="7.22301">
        <ele>330.3</ele>
        <time>2020-05-22T12:38:59Z</time>
      </trkpt>
      <trkpt lat="48.72176" lon="7.223">
        <ele>330.3</ele>
        <time>2020-05-22T12:39:00Z</time>
      </trkpt>
      <trkpt lat="48.72177" lon="7.22297">
        <ele>330.5</ele>
        <time>2020-05-22T12:39:02Z</time>
      </trkpt>
      <trkpt lat="48.72176" lon="7.22292">
        <ele>330.8</ele>
        <time>2020-05-22T12:39:04Z</time>
      </trkpt>
      <trkpt lat="48.72176" lon="7.22288">
        <ele>331</ele>
        <time>2020-05-22T12:39:06Z</time>
      </trkpt>
      <trkpt lat="48.72177" lon="7.22282">
        <ele>331.3</ele>
        <time>2020-05-22T12:39:08Z</time>
      </trkpt>
      <trkpt lat="48.72177" lon="7.22279">
        <ele>331.5</ele>
        <time>2020-05-22T12:39:09Z</time>
      </trkpt>
      <trkpt lat="48.72177" lon="7.22274">
        <ele>331.7</ele>
        <time>2020-05-22T12:39:11Z</time>
      </trkpt>
      <trkpt lat="48.72177" lon="7.22269">
        <ele>332</ele>
        <time>2020-05-22T12:39:13Z</time>
      </trkpt>
      <trkpt lat="48.72177" lon="7.22264">
        <ele>332.3</ele>
        <time>2020-05-22T12:39:14Z</time>
      </trkpt>
      <trkpt lat="48.72177" lon="7.22263">
        <ele>332.3</ele>
        <time>2020-05-22T12:39:15Z</time>
      </trkpt>
      <trkpt lat="48.72176" lon="7.22257">
        <ele>332.6</ele>
        <time>2020-05-22T12:39:17Z</time>
      </trkpt>
      <trkpt lat="48.72175" lon="7.22255">
        <ele>332.7</ele>
        <time>2020-05-22T12:39:18Z</time>
      </trkpt>
      <trkpt lat="48.72174" lon="7.22253">
        <ele>332.8</ele>
        <time>2020-05-22T12:39:19Z</time>
      </trkpt>
      <trkpt lat="48.72173" lon="7.22246">
        <ele>333</ele>
        <time>2020-05-22T12:39:21Z</time>
      </trkpt>
      <trkpt lat="48.72174" lon="7.22241">
        <ele>333.2</ele>
        <time>2020-05-22T12:39:23Z</time>
      </trkpt>
      <trkpt lat="48.72174" lon="7.22238">
        <ele>333.3</ele>
        <time>2020-05-22T12:39:24Z</time>
      </trkpt>
      <trkpt lat="48.72174" lon="7.22232">
        <ele>333.5</ele>
        <time>2020-05-22T12:39:26Z</time>
      </trkpt>
      <trkpt lat="48.72173" lon="7.22227">
        <ele>333.7</ele>
        <time>2020-05-22T12:39:28Z</time>
      </trkpt>
      <trkpt lat="48.72173" lon="7.22224">
        <ele>333.8</ele>
        <time>2020-05-22T12:39:30Z</time>
      </trkpt>
      <trkpt lat="48.72174" lon="7.22222">
        <ele>333.9</ele>
        <time>2020-05-22T12:39:31Z</time>
      </trkpt>
      <trkpt lat="48.72175" lon="7.22218">
        <ele>334</ele>
        <time>2020-05-22T12:39:33Z</time>
      </trkpt>
      <trkpt lat="48.72175" lon="7.22215">
        <ele>334.1</ele>
        <time>2020-05-22T12:39:35Z</time>
      </trkpt>
      <trkpt lat="48.72176" lon="7.22211">
        <ele>334.3</ele>
        <time>2020-05-22T12:39:37Z</time>
      </trkpt>
      <trkpt lat="48.72176" lon="7.22209">
        <ele>334.4</ele>
        <time>2020-05-22T12:39:38Z</time>
      </trkpt>
      <trkpt lat="48.72176" lon="7.22206">
        <ele>334.5</ele>
        <time>2020-05-22T12:39:39Z</time>
      </trkpt>
      <trkpt lat="48.72176" lon="7.22202">
        <ele>334.6</ele>
        <time>2020-05-22T12:39:41Z</time>
      </trkpt>
      <trkpt lat="48.72176" lon="7.22201">
        <ele>334.7</ele>
        <time>2020-05-22T12:39:42Z</time>
      </trkpt>
      <trkpt lat="48.72176" lon="7.22199">
        <ele>334.8</ele>
        <time>2020-05-22T12:39:43Z</time>
      </trkpt>
      <trkpt lat="48.72176" lon="7.22195">
        <ele>335</ele>
        <time>2020-05-22T12:39:45Z</time>
      </trkpt>
      <trkpt lat="48.72176" lon="7.22191">
        <ele>335.2</ele>
        <time>2020-05-22T12:39:47Z</time>
      </trkpt>
      <trkpt lat="48.72176" lon="7.22188">
        <ele>335.3</ele>
        <time>2020-05-22T12:39:48Z</time>
      </trkpt>
      <trkpt lat="48.72177" lon="7.22185">
        <ele>335.4</ele>
        <time>2020-05-22T12:39:49Z</time>
      </trkpt>
      <trkpt lat="48.72177" lon="7.22183">
        <ele>335.6</ele>
        <time>2020-05-22T12:39:50Z</time>
      </trkpt>
      <trkpt lat="48.72177" lon="7.22179">
        <ele>335.8</ele>
        <time>2020-05-22T12:39:52Z</time>
      </trkpt>
      <trkpt lat="48.72177" lon="7.22176">
        <ele>336</ele>
        <time>2020-05-22T12:39:54Z</time>
      </trkpt>
      <trkpt lat="48.7218" lon="7.22171">
        <ele>336.2</ele>
        <time>2020-05-22T12:39:56Z</time>
      </trkpt>
      <trkpt lat="48.7218" lon="7.2217">
        <ele>336.4</ele>
        <time>2020-05-22T12:39:57Z</time>
      </trkpt>
      <trkpt lat="48.72182" lon="7.22166">
        <ele>336.5</ele>
        <time>2020-05-22T12:39:59Z</time>
      </trkpt>
      <trkpt lat="48.72182" lon="7.22162">
        <ele>336.8</ele>
        <time>2020-05-22T12:40:01Z</time>
      </trkpt>
      <trkpt lat="48.72183" lon="7.2216">
        <ele>336.9</ele>
        <time>2020-05-22T12:40:02Z</time>
      </trkpt>
      <trkpt lat="48.72184" lon="7.22155">
        <ele>337.1</ele>
        <time>2020-05-22T12:40:04Z</time>
      </trkpt>
      <trkpt lat="48.72185" lon="7.2215">
        <ele>337.4</ele>
        <time>2020-05-22T12:40:06Z</time>
      </trkpt>
      <trkpt lat="48.72186" lon="7.22147">
        <ele>337.5</ele>
        <time>2020-05-22T12:40:07Z</time>
      </trkpt>
      <trkpt lat="48.72188" lon="7.22143">
        <ele>337.7</ele>
        <time>2020-05-22T12:40:09Z</time>
      </trkpt>
      <trkpt lat="48.7219" lon="7.22136">
        <ele>338</ele>
        <time>2020-05-22T12:40:11Z</time>
      </trkpt>
      <trkpt lat="48.7219" lon="7.22134">
        <ele>338</ele>
        <time>2020-05-22T12:40:13Z</time>
      </trkpt>
      <trkpt lat="48.7219" lon="7.22132">
        <ele>338.1</ele>
        <time>2020-05-22T12:40:14Z</time>
      </trkpt>
      <trkpt lat="48.72192" lon="7.22127">
        <ele>338.3</ele>
        <time>2020-05-22T12:40:16Z</time>
      </trkpt>
      <trkpt lat="48.72192" lon="7.22126">
        <ele>338.3</ele>
        <time>2020-05-22T12:40:17Z</time>
      </trkpt>
      <trkpt lat="48.72193" lon="7.22124">
        <ele>338.4</ele>
        <time>2020-05-22T12:40:18Z</time>
      </trkpt>
      <trkpt lat="48.72195" lon="7.2212">
        <ele>338.5</ele>
        <time>2020-05-22T12:40:20Z</time>
      </trkpt>
      <trkpt lat="48.72196" lon="7.22116">
        <ele>338.6</ele>
        <time>2020-05-22T12:40:22Z</time>
      </trkpt>
      <trkpt lat="48.72197" lon="7.22112">
        <ele>338.8</ele>
        <time>2020-05-22T12:40:24Z</time>
      </trkpt>
      <trkpt lat="48.72198" lon="7.22108">
        <ele>338.9</ele>
        <time>2020-05-22T12:40:26Z</time>
      </trkpt>
      <trkpt lat="48.72198" lon="7.22103">
        <ele>339</ele>
        <time>2020-05-22T12:40:28Z</time>
      </trkpt>
      <trkpt lat="48.72198" lon="7.22101">
        <ele>339.1</ele>
        <time>2020-05-22T12:40:29Z</time>
      </trkpt>
      <trkpt lat="48.72199" lon="7.22095">
        <ele>339.2</ele>
        <time>2020-05-22T12:40:31Z</time>
      </trkpt>
      <trkpt lat="48.72199" lon="7.22091">
        <ele>339.4</ele>
        <time>2020-05-22T12:40:33Z</time>
      </trkpt>
      <trkpt lat="48.72199" lon="7.22088">
        <ele>339.4</ele>
        <time>2020-05-22T12:40:34Z</time>
      </trkpt>
      <trkpt lat="48.72198" lon="7.22084">
        <ele>339.6</ele>
        <time>2020-05-22T12:40:36Z</time>
      </trkpt>
      <trkpt lat="48.72198" lon="7.2208">
        <ele>339.6</ele>
        <time>2020-05-22T12:40:38Z</time>
      </trkpt>
      <trkpt lat="48.72199" lon="7.22077">
        <ele>339.8</ele>
        <time>2020-05-22T12:40:40Z</time>
      </trkpt>
      <trkpt lat="48.722" lon="7.22075">
        <ele>339.8</ele>
        <time>2020-05-22T12:40:41Z</time>
      </trkpt>
      <trkpt lat="48.722" lon="7.22073">
        <ele>339.9</ele>
        <time>2020-05-22T12:40:42Z</time>
      </trkpt>
      <trkpt lat="48.72202" lon="7.2207">
        <ele>340</ele>
        <time>2020-05-22T12:40:44Z</time>
      </trkpt>
      <trkpt lat="48.72203" lon="7.22068">
        <ele>340</ele>
        <time>2020-05-22T12:40:45Z</time>
      </trkpt>
      <trkpt lat="48.72203" lon="7.22068">
        <ele>340</ele>
        <time>2020-05-22T12:40:46Z</time>
      </trkpt>
      <trkpt lat="48.72204" lon="7.22064">
        <ele>340.1</ele>
        <time>2020-05-22T12:40:48Z</time>
      </trkpt>
      <trkpt lat="48.72204" lon="7.2206">
        <ele>340.2</ele>
        <time>2020-05-22T12:40:49Z</time>
      </trkpt>
      <trkpt lat="48.72204" lon="7.22059">
        <ele>340.2</ele>
        <time>2020-05-22T12:40:50Z</time>
      </trkpt>
      <trkpt lat="48.72205" lon="7.22058">
        <ele>340.2</ele>
        <time>2020-05-22T12:40:51Z</time>
      </trkpt>
      <trkpt lat="48.72206" lon="7.22054">
        <ele>340.3</ele>
        <time>2020-05-22T12:40:53Z</time>
      </trkpt>
      <trkpt lat="48.72206" lon="7.22051">
        <ele>340.4</ele>
        <time>2020-05-22T12:40:55Z</time>
      </trkpt>
      <trkpt lat="48.72207" lon="7.22048">
        <ele>340.4</ele>
        <time>2020-05-22T12:40:57Z</time>
      </trkpt>
      <trkpt lat="48.72207" lon="7.22046">
        <ele>340.5</ele>
        <time>2020-05-22T12:40:58Z</time>
      </trkpt>
      <trkpt lat="48.72208" lon="7.22041">
        <ele>340.6</ele>
        <time>2020-05-22T12:41:00Z</time>
      </trkpt>
      <trkpt lat="48.72208" lon="7.22039">
        <ele>340.6</ele>
        <time>2020-05-22T12:41:02Z</time>
      </trkpt>
      <trkpt lat="48.72208" lon="7.22037">
        <ele>340.6</ele>
        <time>2020-05-22T12:41:04Z</time>
      </trkpt>
      <trkpt lat="48.72208" lon="7.22034">
        <ele>340.7</ele>
        <time>2020-05-22T12:41:05Z</time>
      </trkpt>
      <trkpt lat="48.72208" lon="7.22028">
        <ele>340.7</ele>
        <time>2020-05-22T12:41:07Z</time>
      </trkpt>
      <trkpt lat="48.72207" lon="7.22027">
        <ele>340.8</ele>
        <time>2020-05-22T12:41:08Z</time>
      </trkpt>
      <trkpt lat="48.72207" lon="7.22022">
        <ele>340.8</ele>
        <time>2020-05-22T12:41:10Z</time>
      </trkpt>
      <trkpt lat="48.72208" lon="7.22021">
        <ele>340.8</ele>
        <time>2020-05-22T12:41:11Z</time>
      </trkpt>
      <trkpt lat="48.7221" lon="7.22016">
        <ele>340.9</ele>
        <time>2020-05-22T12:41:13Z</time>
      </trkpt>
      <trkpt lat="48.72212" lon="7.22014">
        <ele>341</ele>
        <time>2020-05-22T12:41:14Z</time>
      </trkpt>
      <trkpt lat="48.72213" lon="7.22011">
        <ele>341</ele>
        <time>2020-05-22T12:41:16Z</time>
      </trkpt>
      <trkpt lat="48.72215" lon="7.22008">
        <ele>341.1</ele>
        <time>2020-05-22T12:41:18Z</time>
      </trkpt>
      <trkpt lat="48.72215" lon="7.22005">
        <ele>341.2</ele>
        <time>2020-05-22T12:41:19Z</time>
      </trkpt>
      <trkpt lat="48.72216" lon="7.21999">
        <ele>341.3</ele>
        <time>2020-05-22T12:41:21Z</time>
      </trkpt>
      <trkpt lat="48.72217" lon="7.21995">
        <ele>341.3</ele>
        <time>2020-05-22T12:41:22Z</time>
      </trkpt>
      <trkpt lat="48.72218" lon="7.21988">
        <ele>341.5</ele>
        <time>2020-05-22T12:41:24Z</time>
      </trkpt>
      <trkpt lat="48.72218" lon="7.21981">
        <ele>341.7</ele>
        <time>2020-05-22T12:41:26Z</time>
      </trkpt>
      <trkpt lat="48.7222" lon="7.21975">
        <ele>341.8</ele>
        <time>2020-05-22T12:41:28Z</time>
      </trkpt>
      <trkpt lat="48.72222" lon="7.21971">
        <ele>342</ele>
        <time>2020-05-22T12:41:30Z</time>
      </trkpt>
      <trkpt lat="48.72223" lon="7.21966">
        <ele>342.2</ele>
        <time>2020-05-22T12:41:32Z</time>
      </trkpt>
      <trkpt lat="48.72224" lon="7.21964">
        <ele>342.2</ele>
        <time>2020-05-22T12:41:33Z</time>
      </trkpt>
      <trkpt lat="48.72226" lon="7.2196">
        <ele>342.4</ele>
        <time>2020-05-22T12:41:35Z</time>
      </trkpt>
      <trkpt lat="48.72226" lon="7.21958">
        <ele>342.5</ele>
        <time>2020-05-22T12:41:36Z</time>
      </trkpt>
      <trkpt lat="48.72227" lon="7.21957">
        <ele>342.5</ele>
        <time>2020-05-22T12:41:37Z</time>
      </trkpt>
      <trkpt lat="48.72228" lon="7.21955">
        <ele>342.6</ele>
        <time>2020-05-22T12:41:39Z</time>
      </trkpt>
      <trkpt lat="48.72228" lon="7.21951">
        <ele>342.7</ele>
        <time>2020-05-22T12:41:41Z</time>
      </trkpt>
      <trkpt lat="48.7223" lon="7.21947">
        <ele>342.9</ele>
        <time>2020-05-22T12:41:43Z</time>
      </trkpt>
      <trkpt lat="48.72232" lon="7.21943">
        <ele>343</ele>
        <time>2020-05-22T12:41:45Z</time>
      </trkpt>
      <trkpt lat="48.72234" lon="7.21938">
        <ele>343.2</ele>
        <time>2020-05-22T12:41:47Z</time>
      </trkpt>
      <trkpt lat="48.72237" lon="7.21933">
        <ele>343.4</ele>
        <time>2020-05-22T12:41:49Z</time>
      </trkpt>
      <trkpt lat="48.72238" lon="7.21929">
        <ele>343.5</ele>
        <time>2020-05-22T12:41:51Z</time>
      </trkpt>
      <trkpt lat="48.72239" lon="7.21925">
        <ele>343.6</ele>
        <time>2020-05-22T12:41:53Z</time>
      </trkpt>
      <trkpt lat="48.72239" lon="7.2192">
        <ele>343.7</ele>
        <time>2020-05-22T12:41:55Z</time>
      </trkpt>
      <trkpt lat="48.72239" lon="7.21917">
        <ele>343.8</ele>
        <time>2020-05-22T12:41:56Z</time>
      </trkpt>
      <trkpt lat="48.72238" lon="7.21911">
        <ele>343.9</ele>
        <time>2020-05-22T12:41:58Z</time>
      </trkpt>
      <trkpt lat="48.72239" lon="7.21907">
        <ele>344</ele>
        <time>2020-05-22T12:42:00Z</time>
      </trkpt>
      <trkpt lat="48.72239" lon="7.21904">
        <ele>344</ele>
        <time>2020-05-22T12:42:01Z</time>
      </trkpt>
      <trkpt lat="48.72242" lon="7.21899">
        <ele>344.1</ele>
        <time>2020-05-22T12:42:03Z</time>
      </trkpt>
      <trkpt lat="48.72243" lon="7.21894">
        <ele>344.2</ele>
        <time>2020-05-22T12:42:05Z</time>
      </trkpt>
      <trkpt lat="48.72243" lon="7.21889">
        <ele>344.2</ele>
        <time>2020-05-22T12:42:07Z</time>
      </trkpt>
      <trkpt lat="48.72242" lon="7.21887">
        <ele>344.3</ele>
        <time>2020-05-22T12:42:08Z</time>
      </trkpt>
      <trkpt lat="48.72241" lon="7.21883">
        <ele>344.3</ele>
        <time>2020-05-22T12:42:10Z</time>
      </trkpt>
      <trkpt lat="48.7224" lon="7.21881">
        <ele>344.3</ele>
        <time>2020-05-22T12:42:11Z</time>
      </trkpt>
      <trkpt lat="48.72243" lon="7.21876">
        <ele>344.4</ele>
        <time>2020-05-22T12:42:13Z</time>
      </trkpt>
      <trkpt lat="48.72244" lon="7.21871">
        <ele>344.4</ele>
        <time>2020-05-22T12:42:15Z</time>
      </trkpt>
      <trkpt lat="48.72244" lon="7.21869">
        <ele>344.5</ele>
        <time>2020-05-22T12:42:16Z</time>
      </trkpt>
      <trkpt lat="48.72244" lon="7.21863">
        <ele>344.5</ele>
        <time>2020-05-22T12:42:18Z</time>
      </trkpt>
      <trkpt lat="48.72244" lon="7.2186">
        <ele>344.5</ele>
        <time>2020-05-22T12:42:19Z</time>
      </trkpt>
      <trkpt lat="48.72246" lon="7.21855">
        <ele>344.5</ele>
        <time>2020-05-22T12:42:21Z</time>
      </trkpt>
      <trkpt lat="48.72248" lon="7.21848">
        <ele>344.5</ele>
        <time>2020-05-22T12:42:23Z</time>
      </trkpt>
      <trkpt lat="48.72251" lon="7.21843">
        <ele>344.6</ele>
        <time>2020-05-22T12:42:25Z</time>
      </trkpt>
      <trkpt lat="48.72253" lon="7.21839">
        <ele>344.6</ele>
        <time>2020-05-22T12:42:27Z</time>
      </trkpt>
      <trkpt lat="48.72255" lon="7.21834">
        <ele>344.7</ele>
        <time>2020-05-22T12:42:29Z</time>
      </trkpt>
      <trkpt lat="48.72256" lon="7.21828">
        <ele>344.7</ele>
        <time>2020-05-22T12:42:31Z</time>
      </trkpt>
      <trkpt lat="48.72257" lon="7.21826">
        <ele>344.8</ele>
        <time>2020-05-22T12:42:32Z</time>
      </trkpt>
      <trkpt lat="48.72257" lon="7.21824">
        <ele>344.8</ele>
        <time>2020-05-22T12:42:33Z</time>
      </trkpt>
      <trkpt lat="48.72258" lon="7.21821">
        <ele>344.8</ele>
        <time>2020-05-22T12:42:34Z</time>
      </trkpt>
      <trkpt lat="48.7226" lon="7.21817">
        <ele>344.8</ele>
        <time>2020-05-22T12:42:36Z</time>
      </trkpt>
      <trkpt lat="48.72261" lon="7.21812">
        <ele>344.8</ele>
        <time>2020-05-22T12:42:38Z</time>
      </trkpt>
      <trkpt lat="48.72262" lon="7.21809">
        <ele>344.9</ele>
        <time>2020-05-22T12:42:39Z</time>
      </trkpt>
      <trkpt lat="48.72263" lon="7.21804">
        <ele>344.9</ele>
        <time>2020-05-22T12:42:41Z</time>
      </trkpt>
      <trkpt lat="48.72265" lon="7.21797">
        <ele>344.9</ele>
        <time>2020-05-22T12:42:43Z</time>
      </trkpt>
      <trkpt lat="48.72265" lon="7.21795">
        <ele>344.9</ele>
        <time>2020-05-22T12:42:44Z</time>
      </trkpt>
      <trkpt lat="48.72266" lon="7.21793">
        <ele>344.8</ele>
        <time>2020-05-22T12:42:45Z</time>
      </trkpt>
      <trkpt lat="48.72267" lon="7.21788">
        <ele>344.8</ele>
        <time>2020-05-22T12:42:47Z</time>
      </trkpt>
      <trkpt lat="48.72268" lon="7.21786">
        <ele>344.8</ele>
        <time>2020-05-22T12:42:48Z</time>
      </trkpt>
      <trkpt lat="48.72269" lon="7.21784">
        <ele>344.8</ele>
        <time>2020-05-22T12:42:49Z</time>
      </trkpt>
      <trkpt lat="48.72271" lon="7.2178">
        <ele>344.8</ele>
        <time>2020-05-22T12:42:50Z</time>
      </trkpt>
      <trkpt lat="48.72271" lon="7.21779">
        <ele>344.7</ele>
        <time>2020-05-22T12:42:51Z</time>
      </trkpt>
      <trkpt lat="48.72275" lon="7.21774">
        <ele>344.6</ele>
        <time>2020-05-22T12:42:53Z</time>
      </trkpt>
      <trkpt lat="48.72279" lon="7.21768">
        <ele>344.5</ele>
        <time>2020-05-22T12:42:55Z</time>
      </trkpt>
      <trkpt lat="48.72282" lon="7.21765">
        <ele>344.3</ele>
        <time>2020-05-22T12:42:57Z</time>
      </trkpt>
      <trkpt lat="48.72286" lon="7.21761">
        <ele>344.1</ele>
        <time>2020-05-22T12:42:59Z</time>
      </trkpt>
      <trkpt lat="48.72288" lon="7.21755">
        <ele>343.9</ele>
        <time>2020-05-22T12:43:00Z</time>
      </trkpt>
      <trkpt lat="48.72288" lon="7.21753">
        <ele>343.8</ele>
        <time>2020-05-22T12:43:01Z</time>
      </trkpt>
      <trkpt lat="48.7229" lon="7.21741">
        <ele>343.3</ele>
        <time>2020-05-22T12:43:03Z</time>
      </trkpt>
      <trkpt lat="48.72292" lon="7.21734">
        <ele>342.8</ele>
        <time>2020-05-22T12:43:04Z</time>
      </trkpt>
      <trkpt lat="48.72294" lon="7.21727">
        <ele>342.3</ele>
        <time>2020-05-22T12:43:05Z</time>
      </trkpt>
      <trkpt lat="48.72299" lon="7.21714">
        <ele>341.3</ele>
        <time>2020-05-22T12:43:07Z</time>
      </trkpt>
      <trkpt lat="48.72301" lon="7.21706">
        <ele>340.9</ele>
        <time>2020-05-22T12:43:08Z</time>
      </trkpt>
      <trkpt lat="48.72307" lon="7.21691">
        <ele>340.1</ele>
        <time>2020-05-22T12:43:10Z</time>
      </trkpt>
      <trkpt lat="48.72313" lon="7.21675">
        <ele>339.2</ele>
        <time>2020-05-22T12:43:12Z</time>
      </trkpt>
      <trkpt lat="48.72322" lon="7.21658">
        <ele>338.1</ele>
        <time>2020-05-22T12:43:14Z</time>
      </trkpt>
      <trkpt lat="48.72333" lon="7.21644">
        <ele>337</ele>
        <time>2020-05-22T12:43:16Z</time>
      </trkpt>
      <trkpt lat="48.72344" lon="7.21629">
        <ele>336</ele>
        <time>2020-05-22T12:43:18Z</time>
      </trkpt>
      <trkpt lat="48.7235" lon="7.21623">
        <ele>335.4</ele>
        <time>2020-05-22T12:43:19Z</time>
      </trkpt>
      <trkpt lat="48.72356" lon="7.21614">
        <ele>334.9</ele>
        <time>2020-05-22T12:43:20Z</time>
      </trkpt>
      <trkpt lat="48.72368" lon="7.21597">
        <ele>333.8</ele>
        <time>2020-05-22T12:43:22Z</time>
      </trkpt>
      <trkpt lat="48.72381" lon="7.21581">
        <ele>332.5</ele>
        <time>2020-05-22T12:43:24Z</time>
      </trkpt>
      <trkpt lat="48.72388" lon="7.21575">
        <ele>332</ele>
        <time>2020-05-22T12:43:25Z</time>
      </trkpt>
      <trkpt lat="48.72402" lon="7.21563">
        <ele>331</ele>
        <time>2020-05-22T12:43:27Z</time>
      </trkpt>
      <trkpt lat="48.72416" lon="7.21554">
        <ele>329.8</ele>
        <time>2020-05-22T12:43:29Z</time>
      </trkpt>
      <trkpt lat="48.72425" lon="7.21552">
        <ele>329.1</ele>
        <time>2020-05-22T12:43:30Z</time>
      </trkpt>
      <trkpt lat="48.72434" lon="7.21551">
        <ele>328.3</ele>
        <time>2020-05-22T12:43:31Z</time>
      </trkpt>
      <trkpt lat="48.72451" lon="7.21547">
        <ele>326.7</ele>
        <time>2020-05-22T12:43:33Z</time>
      </trkpt>
      <trkpt lat="48.7247" lon="7.21545">
        <ele>325.1</ele>
        <time>2020-05-22T12:43:35Z</time>
      </trkpt>
      <trkpt lat="48.72479" lon="7.21544">
        <ele>324.4</ele>
        <time>2020-05-22T12:43:36Z</time>
      </trkpt>
      <trkpt lat="48.72498" lon="7.21548">
        <ele>323.1</ele>
        <time>2020-05-22T12:43:38Z</time>
      </trkpt>
      <trkpt lat="48.72515" lon="7.21556">
        <ele>323.2</ele>
        <time>2020-05-22T12:43:40Z</time>
      </trkpt>
      <trkpt lat="48.72523" lon="7.21561">
        <ele>323.1</ele>
        <time>2020-05-22T12:43:41Z</time>
      </trkpt>
      <trkpt lat="48.72539" lon="7.21566">
        <ele>322.9</ele>
        <time>2020-05-22T12:43:43Z</time>
      </trkpt>
      <trkpt lat="48.72556" lon="7.2157">
        <ele>322.5</ele>
        <time>2020-05-22T12:43:45Z</time>
      </trkpt>
      <trkpt lat="48.72573" lon="7.21577">
        <ele>321.8</ele>
        <time>2020-05-22T12:43:47Z</time>
      </trkpt>
      <trkpt lat="48.72581" lon="7.2158">
        <ele>321.3</ele>
        <time>2020-05-22T12:43:48Z</time>
      </trkpt>
      <trkpt lat="48.7259" lon="7.2158">
        <ele>320.9</ele>
        <time>2020-05-22T12:43:49Z</time>
      </trkpt>
      <trkpt lat="48.72598" lon="7.21578">
        <ele>320.5</ele>
        <time>2020-05-22T12:43:50Z</time>
      </trkpt>
      <trkpt lat="48.72616" lon="7.21572">
        <ele>319.8</ele>
        <time>2020-05-22T12:43:52Z</time>
      </trkpt>
      <trkpt lat="48.72634" lon="7.21565">
        <ele>319.7</ele>
        <time>2020-05-22T12:43:54Z</time>
      </trkpt>
      <trkpt lat="48.72646" lon="7.2155">
        <ele>319.8</ele>
        <time>2020-05-22T12:43:56Z</time>
      </trkpt>
      <trkpt lat="48.7265" lon="7.21541">
        <ele>319.9</ele>
        <time>2020-05-22T12:43:57Z</time>
      </trkpt>
      <trkpt lat="48.72654" lon="7.21532">
        <ele>319.9</ele>
        <time>2020-05-22T12:43:58Z</time>
      </trkpt>
      <trkpt lat="48.72657" lon="7.21523">
        <ele>319.9</ele>
        <time>2020-05-22T12:43:59Z</time>
      </trkpt>
      <trkpt lat="48.72663" lon="7.21503">
        <ele>320</ele>
        <time>2020-05-22T12:44:01Z</time>
      </trkpt>
      <trkpt lat="48.72664" lon="7.21482">
        <ele>320</ele>
        <time>2020-05-22T12:44:03Z</time>
      </trkpt>
      <trkpt lat="48.72667" lon="7.2146">
        <ele>320</ele>
        <time>2020-05-22T12:44:05Z</time>
      </trkpt>
      <trkpt lat="48.72669" lon="7.2145">
        <ele>320.7</ele>
        <time>2020-05-22T12:44:06Z</time>
      </trkpt>
      <trkpt lat="48.7267" lon="7.2144">
        <ele>320.3</ele>
        <time>2020-05-22T12:44:07Z</time>
      </trkpt>
      <trkpt lat="48.72669" lon="7.21432">
        <ele>319.8</ele>
        <time>2020-05-22T12:44:08Z</time>
      </trkpt>
      <trkpt lat="48.7267" lon="7.21417">
        <ele>320</ele>
        <time>2020-05-22T12:44:10Z</time>
      </trkpt>
      <trkpt lat="48.7267" lon="7.21409">
        <ele>319.1</ele>
        <time>2020-05-22T12:44:11Z</time>
      </trkpt>
      <trkpt lat="48.72671" lon="7.21402">
        <ele>318</ele>
        <time>2020-05-22T12:44:12Z</time>
      </trkpt>
      <trkpt lat="48.72673" lon="7.21393">
        <ele>317.9</ele>
        <time>2020-05-22T12:44:14Z</time>
      </trkpt>
      <trkpt lat="48.72676" lon="7.21387">
        <ele>317.9</ele>
        <time>2020-05-22T12:44:16Z</time>
      </trkpt>
      <trkpt lat="48.72678" lon="7.21381">
        <ele>316.5</ele>
        <time>2020-05-22T12:44:17Z</time>
      </trkpt>
      <trkpt lat="48.7268" lon="7.21377">
        <ele>316.4</ele>
        <time>2020-05-22T12:44:18Z</time>
      </trkpt>
      <trkpt lat="48.72683" lon="7.2137">
        <ele>316.3</ele>
        <time>2020-05-22T12:44:20Z</time>
      </trkpt>
      <trkpt lat="48.72687" lon="7.21365">
        <ele>316.2</ele>
        <time>2020-05-22T12:44:22Z</time>
      </trkpt>
      <trkpt lat="48.7269" lon="7.21358">
        <ele>316.7</ele>
        <time>2020-05-22T12:44:24Z</time>
      </trkpt>
      <trkpt lat="48.72695" lon="7.21353">
        <ele>316.7</ele>
        <time>2020-05-22T12:44:26Z</time>
      </trkpt>
      <trkpt lat="48.72699" lon="7.21348">
        <ele>317.5</ele>
        <time>2020-05-22T12:44:28Z</time>
      </trkpt>
      <trkpt lat="48.72701" lon="7.21345">
        <ele>316.6</ele>
        <time>2020-05-22T12:44:29Z</time>
      </trkpt>
      <trkpt lat="48.72703" lon="7.21338">
        <ele>316.2</ele>
        <time>2020-05-22T12:44:31Z</time>
      </trkpt>
      <trkpt lat="48.72706" lon="7.2133">
        <ele>316</ele>
        <time>2020-05-22T12:44:33Z</time>
      </trkpt>
      <trkpt lat="48.7271" lon="7.21326">
        <ele>316.4</ele>
        <time>2020-05-22T12:44:35Z</time>
      </trkpt>
      <trkpt lat="48.72713" lon="7.21323">
        <ele>316</ele>
        <time>2020-05-22T12:44:37Z</time>
      </trkpt>
      <trkpt lat="48.72718" lon="7.21321">
        <ele>315.6</ele>
        <time>2020-05-22T12:44:39Z</time>
      </trkpt>
      <trkpt lat="48.72722" lon="7.21317">
        <ele>316</ele>
        <time>2020-05-22T12:44:41Z</time>
      </trkpt>
      <trkpt lat="48.72726" lon="7.21314">
        <ele>316.5</ele>
        <time>2020-05-22T12:44:43Z</time>
      </trkpt>
      <trkpt lat="48.72729" lon="7.21309">
        <ele>316.8</ele>
        <time>2020-05-22T12:44:45Z</time>
      </trkpt>
      <trkpt lat="48.72731" lon="7.21306">
        <ele>317.1</ele>
        <time>2020-05-22T12:44:46Z</time>
      </trkpt>
      <trkpt lat="48.72735" lon="7.21302">
        <ele>317.4</ele>
        <time>2020-05-22T12:44:48Z</time>
      </trkpt>
      <trkpt lat="48.72737" lon="7.21301">
        <ele>317.6</ele>
        <time>2020-05-22T12:44:49Z</time>
      </trkpt>
      <trkpt lat="48.7274" lon="7.21297">
        <ele>318</ele>
        <time>2020-05-22T12:44:51Z</time>
      </trkpt>
      <trkpt lat="48.72743" lon="7.21294">
        <ele>318.2</ele>
        <time>2020-05-22T12:44:52Z</time>
      </trkpt>
      <trkpt lat="48.72747" lon="7.2129">
        <ele>318.6</ele>
        <time>2020-05-22T12:44:54Z</time>
      </trkpt>
      <trkpt lat="48.72749" lon="7.21288">
        <ele>318.8</ele>
        <time>2020-05-22T12:44:55Z</time>
      </trkpt>
      <trkpt lat="48.72752" lon="7.21285">
        <ele>319.1</ele>
        <time>2020-05-22T12:44:57Z</time>
      </trkpt>
      <trkpt lat="48.72757" lon="7.21282">
        <ele>319.5</ele>
        <time>2020-05-22T12:44:59Z</time>
      </trkpt>
      <trkpt lat="48.72762" lon="7.2128">
        <ele>319.9</ele>
        <time>2020-05-22T12:45:01Z</time>
      </trkpt>
      <trkpt lat="48.72765" lon="7.21278">
        <ele>320.2</ele>
        <time>2020-05-22T12:45:03Z</time>
      </trkpt>
      <trkpt lat="48.7277" lon="7.21276">
        <ele>320.6</ele>
        <time>2020-05-22T12:45:05Z</time>
      </trkpt>
      <trkpt lat="48.72773" lon="7.21274">
        <ele>320.9</ele>
        <time>2020-05-22T12:45:06Z</time>
      </trkpt>
      <trkpt lat="48.72774" lon="7.21273">
        <ele>321</ele>
        <time>2020-05-22T12:45:07Z</time>
      </trkpt>
      <trkpt lat="48.72776" lon="7.21271">
        <ele>321.2</ele>
        <time>2020-05-22T12:45:08Z</time>
      </trkpt>
      <trkpt lat="48.72781" lon="7.21269">
        <ele>321.6</ele>
        <time>2020-05-22T12:45:10Z</time>
      </trkpt>
      <trkpt lat="48.72784" lon="7.21266">
        <ele>321.9</ele>
        <time>2020-05-22T12:45:12Z</time>
      </trkpt>
      <trkpt lat="48.72786" lon="7.21264">
        <ele>322.1</ele>
        <time>2020-05-22T12:45:13Z</time>
      </trkpt>
      <trkpt lat="48.72789" lon="7.21261">
        <ele>322.4</ele>
        <time>2020-05-22T12:45:15Z</time>
      </trkpt>
      <trkpt lat="48.72792" lon="7.21258">
        <ele>322.7</ele>
        <time>2020-05-22T12:45:16Z</time>
      </trkpt>
      <trkpt lat="48.72793" lon="7.21256">
        <ele>322.9</ele>
        <time>2020-05-22T12:45:17Z</time>
      </trkpt>
      <trkpt lat="48.72796" lon="7.21254">
        <ele>323.2</ele>
        <time>2020-05-22T12:45:18Z</time>
      </trkpt>
      <trkpt lat="48.72797" lon="7.21253">
        <ele>323.2</ele>
        <time>2020-05-22T12:45:19Z</time>
      </trkpt>
      <trkpt lat="48.72799" lon="7.21252">
        <ele>323.4</ele>
        <time>2020-05-22T12:45:20Z</time>
      </trkpt>
      <trkpt lat="48.72803" lon="7.2125">
        <ele>323.7</ele>
        <time>2020-05-22T12:45:22Z</time>
      </trkpt>
      <trkpt lat="48.72805" lon="7.21248">
        <ele>324</ele>
        <time>2020-05-22T12:45:23Z</time>
      </trkpt>
      <trkpt lat="48.7281" lon="7.21243">
        <ele>324.5</ele>
        <time>2020-05-22T12:45:25Z</time>
      </trkpt>
      <trkpt lat="48.72814" lon="7.21239">
        <ele>324.9</ele>
        <time>2020-05-22T12:45:27Z</time>
      </trkpt>
      <trkpt lat="48.72817" lon="7.21235">
        <ele>325.2</ele>
        <time>2020-05-22T12:45:29Z</time>
      </trkpt>
      <trkpt lat="48.72818" lon="7.21233">
        <ele>325.4</ele>
        <time>2020-05-22T12:45:30Z</time>
      </trkpt>
      <trkpt lat="48.72822" lon="7.21228">
        <ele>325.8</ele>
        <time>2020-05-22T12:45:32Z</time>
      </trkpt>
      <trkpt lat="48.72823" lon="7.21226">
        <ele>326</ele>
        <time>2020-05-22T12:45:33Z</time>
      </trkpt>
      <trkpt lat="48.72827" lon="7.21221">
        <ele>326.4</ele>
        <time>2020-05-22T12:45:35Z</time>
      </trkpt>
      <trkpt lat="48.7283" lon="7.21219">
        <ele>326.7</ele>
        <time>2020-05-22T12:45:36Z</time>
      </trkpt>
      <trkpt lat="48.72831" lon="7.21218">
        <ele>326.8</ele>
        <time>2020-05-22T12:45:37Z</time>
      </trkpt>
      <trkpt lat="48.72834" lon="7.21214">
        <ele>327.1</ele>
        <time>2020-05-22T12:45:39Z</time>
      </trkpt>
      <trkpt lat="48.72838" lon="7.21212">
        <ele>327.4</ele>
        <time>2020-05-22T12:45:41Z</time>
      </trkpt>
      <trkpt lat="48.72841" lon="7.21209">
        <ele>327.7</ele>
        <time>2020-05-22T12:45:42Z</time>
      </trkpt>
      <trkpt lat="48.72841" lon="7.21208">
        <ele>327.8</ele>
        <time>2020-05-22T12:45:43Z</time>
      </trkpt>
      <trkpt lat="48.72843" lon="7.21206">
        <ele>328</ele>
        <time>2020-05-22T12:45:44Z</time>
      </trkpt>
      <trkpt lat="48.72846" lon="7.21204">
        <ele>328.3</ele>
        <time>2020-05-22T12:45:46Z</time>
      </trkpt>
      <trkpt lat="48.72849" lon="7.21204">
        <ele>328.6</ele>
        <time>2020-05-22T12:45:48Z</time>
      </trkpt>
      <trkpt lat="48.72853" lon="7.21203">
        <ele>328.8</ele>
        <time>2020-05-22T12:45:49Z</time>
      </trkpt>
      <trkpt lat="48.72854" lon="7.21203">
        <ele>328.9</ele>
        <time>2020-05-22T12:45:50Z</time>
      </trkpt>
      <trkpt lat="48.72856" lon="7.21203">
        <ele>329.1</ele>
        <time>2020-05-22T12:45:51Z</time>
      </trkpt>
      <trkpt lat="48.72859" lon="7.21202">
        <ele>329.4</ele>
        <time>2020-05-22T12:45:53Z</time>
      </trkpt>
      <trkpt lat="48.72861" lon="7.21201">
        <ele>329.5</ele>
        <time>2020-05-22T12:45:54Z</time>
      </trkpt>
      <trkpt lat="48.72864" lon="7.21199">
        <ele>329.8</ele>
        <time>2020-05-22T12:45:56Z</time>
      </trkpt>
      <trkpt lat="48.72867" lon="7.21197">
        <ele>330.1</ele>
        <time>2020-05-22T12:45:58Z</time>
      </trkpt>
      <trkpt lat="48.72871" lon="7.21195">
        <ele>330.4</ele>
        <time>2020-05-22T12:46:00Z</time>
      </trkpt>
      <trkpt lat="48.72873" lon="7.21192">
        <ele>330.7</ele>
        <time>2020-05-22T12:46:02Z</time>
      </trkpt>
      <trkpt lat="48.72877" lon="7.2119">
        <ele>331.1</ele>
        <time>2020-05-22T12:46:04Z</time>
      </trkpt>
      <trkpt lat="48.72882" lon="7.21189">
        <ele>331.5</ele>
        <time>2020-05-22T12:46:06Z</time>
      </trkpt>
      <trkpt lat="48.72885" lon="7.21188">
        <ele>331.7</ele>
        <time>2020-05-22T12:46:07Z</time>
      </trkpt>
      <trkpt lat="48.72888" lon="7.21185">
        <ele>332</ele>
        <time>2020-05-22T12:46:09Z</time>
      </trkpt>
      <trkpt lat="48.72891" lon="7.21182">
        <ele>332.3</ele>
        <time>2020-05-22T12:46:11Z</time>
      </trkpt>
      <trkpt lat="48.72894" lon="7.21182">
        <ele>332.5</ele>
        <time>2020-05-22T12:46:12Z</time>
      </trkpt>
      <trkpt lat="48.72896" lon="7.21182">
        <ele>332.7</ele>
        <time>2020-05-22T12:46:13Z</time>
      </trkpt>
      <trkpt lat="48.72898" lon="7.21181">
        <ele>332.9</ele>
        <time>2020-05-22T12:46:14Z</time>
      </trkpt>
      <trkpt lat="48.72903" lon="7.21178">
        <ele>333.3</ele>
        <time>2020-05-22T12:46:16Z</time>
      </trkpt>
      <trkpt lat="48.72907" lon="7.21175">
        <ele>333.6</ele>
        <time>2020-05-22T12:46:18Z</time>
      </trkpt>
      <trkpt lat="48.72912" lon="7.21172">
        <ele>334</ele>
        <time>2020-05-22T12:46:20Z</time>
      </trkpt>
      <trkpt lat="48.72916" lon="7.21169">
        <ele>334.4</ele>
        <time>2020-05-22T12:46:22Z</time>
      </trkpt>
      <trkpt lat="48.72919" lon="7.21168">
        <ele>334.7</ele>
        <time>2020-05-22T12:46:23Z</time>
      </trkpt>
      <trkpt lat="48.7292" lon="7.21168">
        <ele>334.8</ele>
        <time>2020-05-22T12:46:24Z</time>
      </trkpt>
      <trkpt lat="48.72921" lon="7.21167">
        <ele>334.9</ele>
        <time>2020-05-22T12:46:25Z</time>
      </trkpt>
      <trkpt lat="48.72923" lon="7.21167">
        <ele>335.1</ele>
        <time>2020-05-22T12:46:26Z</time>
      </trkpt>
      <trkpt lat="48.72928" lon="7.21166">
        <ele>335.6</ele>
        <time>2020-05-22T12:46:28Z</time>
      </trkpt>
      <trkpt lat="48.7293" lon="7.21166">
        <ele>335.8</ele>
        <time>2020-05-22T12:46:29Z</time>
      </trkpt>
      <trkpt lat="48.72934" lon="7.21164">
        <ele>336.3</ele>
        <time>2020-05-22T12:46:31Z</time>
      </trkpt>
      <trkpt lat="48.72938" lon="7.21161">
        <ele>336.7</ele>
        <time>2020-05-22T12:46:33Z</time>
      </trkpt>
      <trkpt lat="48.72942" lon="7.2116">
        <ele>337</ele>
        <time>2020-05-22T12:46:35Z</time>
      </trkpt>
      <trkpt lat="48.72944" lon="7.21158">
        <ele>337.2</ele>
        <time>2020-05-22T12:46:36Z</time>
      </trkpt>
      <trkpt lat="48.72948" lon="7.21156">
        <ele>337.6</ele>
        <time>2020-05-22T12:46:38Z</time>
      </trkpt>
      <trkpt lat="48.72952" lon="7.21154">
        <ele>338</ele>
        <time>2020-05-22T12:46:40Z</time>
      </trkpt>
      <trkpt lat="48.72954" lon="7.21153">
        <ele>338.2</ele>
        <time>2020-05-22T12:46:41Z</time>
      </trkpt>
      <trkpt lat="48.72959" lon="7.2115">
        <ele>338.6</ele>
        <time>2020-05-22T12:46:43Z</time>
      </trkpt>
      <trkpt lat="48.72961" lon="7.21148">
        <ele>338.8</ele>
        <time>2020-05-22T12:46:44Z</time>
      </trkpt>
      <trkpt lat="48.72965" lon="7.21145">
        <ele>339.2</ele>
        <time>2020-05-22T12:46:46Z</time>
      </trkpt>
      <trkpt lat="48.72967" lon="7.21143">
        <ele>339.4</ele>
        <time>2020-05-22T12:46:47Z</time>
      </trkpt>
      <trkpt lat="48.72972" lon="7.2114">
        <ele>339.8</ele>
        <time>2020-05-22T12:46:49Z</time>
      </trkpt>
      <trkpt lat="48.72976" lon="7.2114">
        <ele>339.9</ele>
        <time>2020-05-22T12:46:51Z</time>
      </trkpt>
      <trkpt lat="48.72978" lon="7.21139">
        <ele>339.9</ele>
        <time>2020-05-22T12:46:52Z</time>
      </trkpt>
      <trkpt lat="48.72981" lon="7.21137">
        <ele>340.1</ele>
        <time>2020-05-22T12:46:54Z</time>
      </trkpt>
      <trkpt lat="48.72984" lon="7.21135">
        <ele>340.2</ele>
        <time>2020-05-22T12:46:55Z</time>
      </trkpt>
      <trkpt lat="48.72985" lon="7.21135">
        <ele>340.2</ele>
        <time>2020-05-22T12:46:56Z</time>
      </trkpt>
      <trkpt lat="48.72989" lon="7.21132">
        <ele>340.3</ele>
        <time>2020-05-22T12:46:58Z</time>
      </trkpt>
      <trkpt lat="48.72993" lon="7.21127">
        <ele>340.5</ele>
        <time>2020-05-22T12:47:00Z</time>
      </trkpt>
      <trkpt lat="48.72997" lon="7.21124">
        <ele>340.6</ele>
        <time>2020-05-22T12:47:02Z</time>
      </trkpt>
      <trkpt lat="48.73" lon="7.21122">
        <ele>340.7</ele>
        <time>2020-05-22T12:47:03Z</time>
      </trkpt>
      <trkpt lat="48.73001" lon="7.21122">
        <ele>340.7</ele>
        <time>2020-05-22T12:47:04Z</time>
      </trkpt>
      <trkpt lat="48.73004" lon="7.2112">
        <ele>340.8</ele>
        <time>2020-05-22T12:47:05Z</time>
      </trkpt>
      <trkpt lat="48.73005" lon="7.21119">
        <ele>340.8</ele>
        <time>2020-05-22T12:47:06Z</time>
      </trkpt>
      <trkpt lat="48.73009" lon="7.21116">
        <ele>340.9</ele>
        <time>2020-05-22T12:47:08Z</time>
      </trkpt>
      <trkpt lat="48.73011" lon="7.21115">
        <ele>341</ele>
        <time>2020-05-22T12:47:09Z</time>
      </trkpt>
      <trkpt lat="48.73014" lon="7.21111">
        <ele>341.1</ele>
        <time>2020-05-22T12:47:11Z</time>
      </trkpt>
      <trkpt lat="48.73017" lon="7.21107">
        <ele>341.3</ele>
        <time>2020-05-22T12:47:12Z</time>
      </trkpt>
      <trkpt lat="48.73017" lon="7.21106">
        <ele>341.3</ele>
        <time>2020-05-22T12:47:13Z</time>
      </trkpt>
      <trkpt lat="48.73019" lon="7.21103">
        <ele>341.4</ele>
        <time>2020-05-22T12:47:14Z</time>
      </trkpt>
      <trkpt lat="48.73021" lon="7.21096">
        <ele>341.6</ele>
        <time>2020-05-22T12:47:16Z</time>
      </trkpt>
      <trkpt lat="48.73023" lon="7.21089">
        <ele>341.8</ele>
        <time>2020-05-22T12:47:18Z</time>
      </trkpt>
      <trkpt lat="48.73024" lon="7.21084">
        <ele>341.9</ele>
        <time>2020-05-22T12:47:19Z</time>
      </trkpt>
      <trkpt lat="48.73025" lon="7.21083">
        <ele>342</ele>
        <time>2020-05-22T12:47:20Z</time>
      </trkpt>
      <trkpt lat="48.73027" lon="7.21079">
        <ele>342.1</ele>
        <time>2020-05-22T12:47:22Z</time>
      </trkpt>
      <trkpt lat="48.73029" lon="7.21073">
        <ele>342.3</ele>
        <time>2020-05-22T12:47:24Z</time>
      </trkpt>
      <trkpt lat="48.73031" lon="7.21065">
        <ele>342.6</ele>
        <time>2020-05-22T12:47:26Z</time>
      </trkpt>
      <trkpt lat="48.73031" lon="7.2106">
        <ele>342.7</ele>
        <time>2020-05-22T12:47:27Z</time>
      </trkpt>
      <trkpt lat="48.73029" lon="7.21052">
        <ele>343</ele>
        <time>2020-05-22T12:47:29Z</time>
      </trkpt>
      <trkpt lat="48.73028" lon="7.21047">
        <ele>343.1</ele>
        <time>2020-05-22T12:47:30Z</time>
      </trkpt>
      <trkpt lat="48.73028" lon="7.21046">
        <ele>343.2</ele>
        <time>2020-05-22T12:47:31Z</time>
      </trkpt>
      <trkpt lat="48.73026" lon="7.2104">
        <ele>343.4</ele>
        <time>2020-05-22T12:47:33Z</time>
      </trkpt>
      <trkpt lat="48.73024" lon="7.21034">
        <ele>343.6</ele>
        <time>2020-05-22T12:47:35Z</time>
      </trkpt>
      <trkpt lat="48.73023" lon="7.21031">
        <ele>343.7</ele>
        <time>2020-05-22T12:47:36Z</time>
      </trkpt>
      <trkpt lat="48.73021" lon="7.21026">
        <ele>344</ele>
        <time>2020-05-22T12:47:38Z</time>
      </trkpt>
      <trkpt lat="48.7302" lon="7.21022">
        <ele>344.1</ele>
        <time>2020-05-22T12:47:40Z</time>
      </trkpt>
      <trkpt lat="48.73019" lon="7.2102">
        <ele>344.2</ele>
        <time>2020-05-22T12:47:41Z</time>
      </trkpt>
      <trkpt lat="48.73019" lon="7.21018">
        <ele>344.3</ele>
        <time>2020-05-22T12:47:42Z</time>
      </trkpt>
      <trkpt lat="48.73018" lon="7.21014">
        <ele>344.5</ele>
        <time>2020-05-22T12:47:44Z</time>
      </trkpt>
      <trkpt lat="48.73016" lon="7.2101">
        <ele>344.6</ele>
        <time>2020-05-22T12:47:46Z</time>
      </trkpt>
      <trkpt lat="48.73015" lon="7.21005">
        <ele>344.8</ele>
        <time>2020-05-22T12:47:48Z</time>
      </trkpt>
      <trkpt lat="48.73014" lon="7.21003">
        <ele>345</ele>
        <time>2020-05-22T12:47:49Z</time>
      </trkpt>
      <trkpt lat="48.73014" lon="7.21">
        <ele>345.1</ele>
        <time>2020-05-22T12:47:50Z</time>
      </trkpt>
      <trkpt lat="48.73012" lon="7.20995">
        <ele>345.6</ele>
        <time>2020-05-22T12:47:52Z</time>
      </trkpt>
      <trkpt lat="48.7301" lon="7.20991">
        <ele>345.8</ele>
        <time>2020-05-22T12:47:54Z</time>
      </trkpt>
      <trkpt lat="48.73006" lon="7.20988">
        <ele>345.9</ele>
        <time>2020-05-22T12:47:56Z</time>
      </trkpt>
      <trkpt lat="48.73004" lon="7.20987">
        <ele>346.1</ele>
        <time>2020-05-22T12:47:57Z</time>
      </trkpt>
      <trkpt lat="48.73003" lon="7.20986">
        <ele>346.1</ele>
        <time>2020-05-22T12:47:58Z</time>
      </trkpt>
      <trkpt lat="48.72998" lon="7.20986">
        <ele>346.1</ele>
        <time>2020-05-22T12:48:00Z</time>
      </trkpt>
      <trkpt lat="48.72994" lon="7.20986">
        <ele>346.1</ele>
        <time>2020-05-22T12:48:02Z</time>
      </trkpt>
      <trkpt lat="48.72992" lon="7.20985">
        <ele>346.2</ele>
        <time>2020-05-22T12:48:03Z</time>
      </trkpt>
      <trkpt lat="48.72989" lon="7.20982">
        <ele>346.3</ele>
        <time>2020-05-22T12:48:05Z</time>
      </trkpt>
      <trkpt lat="48.72986" lon="7.2098">
        <ele>346.4</ele>
        <time>2020-05-22T12:48:06Z</time>
      </trkpt>
      <trkpt lat="48.72985" lon="7.2098">
        <ele>346.4</ele>
        <time>2020-05-22T12:48:07Z</time>
      </trkpt>
      <trkpt lat="48.72982" lon="7.20977">
        <ele>346.5</ele>
        <time>2020-05-22T12:48:09Z</time>
      </trkpt>
      <trkpt lat="48.7298" lon="7.20975">
        <ele>346.6</ele>
        <time>2020-05-22T12:48:10Z</time>
      </trkpt>
      <trkpt lat="48.72977" lon="7.20969">
        <ele>346.8</ele>
        <time>2020-05-22T12:48:12Z</time>
      </trkpt>
      <trkpt lat="48.72974" lon="7.20963">
        <ele>347</ele>
        <time>2020-05-22T12:48:14Z</time>
      </trkpt>
      <trkpt lat="48.72972" lon="7.2096">
        <ele>347.1</ele>
        <time>2020-05-22T12:48:15Z</time>
      </trkpt>
      <trkpt lat="48.72967" lon="7.20957">
        <ele>347</ele>
        <time>2020-05-22T12:48:17Z</time>
      </trkpt>
      <trkpt lat="48.72963" lon="7.20957">
        <ele>346.9</ele>
        <time>2020-05-22T12:48:18Z</time>
      </trkpt>
      <trkpt lat="48.72956" lon="7.20961">
        <ele>346.8</ele>
        <time>2020-05-22T12:48:20Z</time>
      </trkpt>
      <trkpt lat="48.7295" lon="7.20965">
        <ele>346.7</ele>
        <time>2020-05-22T12:48:22Z</time>
      </trkpt>
      <trkpt lat="48.72948" lon="7.20966">
        <ele>346.6</ele>
        <time>2020-05-22T12:48:23Z</time>
      </trkpt>
      <trkpt lat="48.72942" lon="7.20969">
        <ele>346.5</ele>
        <time>2020-05-22T12:48:25Z</time>
      </trkpt>
      <trkpt lat="48.72936" lon="7.2097">
        <ele>346.4</ele>
        <time>2020-05-22T12:48:27Z</time>
      </trkpt>
      <trkpt lat="48.72934" lon="7.2097">
        <ele>346.4</ele>
        <time>2020-05-22T12:48:28Z</time>
      </trkpt>
      <trkpt lat="48.72929" lon="7.20969">
        <ele>346.3</ele>
        <time>2020-05-22T12:48:30Z</time>
      </trkpt>
      <trkpt lat="48.72924" lon="7.20968">
        <ele>346.3</ele>
        <time>2020-05-22T12:48:32Z</time>
      </trkpt>
      <trkpt lat="48.72919" lon="7.20968">
        <ele>346.3</ele>
        <time>2020-05-22T12:48:34Z</time>
      </trkpt>
      <trkpt lat="48.72917" lon="7.20968">
        <ele>346.3</ele>
        <time>2020-05-22T12:48:35Z</time>
      </trkpt>
      <trkpt lat="48.72912" lon="7.20969">
        <ele>346.4</ele>
        <time>2020-05-22T12:48:37Z</time>
      </trkpt>
      <trkpt lat="48.72908" lon="7.20969">
        <ele>346.4</ele>
        <time>2020-05-22T12:48:38Z</time>
      </trkpt>
      <trkpt lat="48.72907" lon="7.20969">
        <ele>346.4</ele>
        <time>2020-05-22T12:48:39Z</time>
      </trkpt>
      <trkpt lat="48.72903" lon="7.20969">
        <ele>346.5</ele>
        <time>2020-05-22T12:48:41Z</time>
      </trkpt>
      <trkpt lat="48.72901" lon="7.20969">
        <ele>346.6</ele>
        <time>2020-05-22T12:48:42Z</time>
      </trkpt>
      <trkpt lat="48.72899" lon="7.20969">
        <ele>346.6</ele>
        <time>2020-05-22T12:48:43Z</time>
      </trkpt>
      <trkpt lat="48.72898" lon="7.20969">
        <ele>346.6</ele>
        <time>2020-05-22T12:48:44Z</time>
      </trkpt>
      <trkpt lat="48.72893" lon="7.20969">
        <ele>346.8</ele>
        <time>2020-05-22T12:48:46Z</time>
      </trkpt>
      <trkpt lat="48.72889" lon="7.20969">
        <ele>346.8</ele>
        <time>2020-05-22T12:48:48Z</time>
      </trkpt>
      <trkpt lat="48.72885" lon="7.20969">
        <ele>346.9</ele>
        <time>2020-05-22T12:48:49Z</time>
      </trkpt>
      <trkpt lat="48.72884" lon="7.20969">
        <ele>347</ele>
        <time>2020-05-22T12:48:50Z</time>
      </trkpt>
      <trkpt lat="48.72882" lon="7.20969">
        <ele>347</ele>
        <time>2020-05-22T12:48:51Z</time>
      </trkpt>
      <trkpt lat="48.72876" lon="7.20969">
        <ele>347.1</ele>
        <time>2020-05-22T12:48:53Z</time>
      </trkpt>
      <trkpt lat="48.72873" lon="7.20969">
        <ele>347.2</ele>
        <time>2020-05-22T12:48:54Z</time>
      </trkpt>
      <trkpt lat="48.7287" lon="7.20969">
        <ele>347.2</ele>
        <time>2020-05-22T12:48:55Z</time>
      </trkpt>
      <trkpt lat="48.72866" lon="7.20969">
        <ele>347.3</ele>
        <time>2020-05-22T12:48:57Z</time>
      </trkpt>
      <trkpt lat="48.72861" lon="7.20968">
        <ele>347.4</ele>
        <time>2020-05-22T12:48:59Z</time>
      </trkpt>
      <trkpt lat="48.72857" lon="7.20968">
        <ele>347.5</ele>
        <time>2020-05-22T12:49:01Z</time>
      </trkpt>
      <trkpt lat="48.72852" lon="7.20968">
        <ele>347.6</ele>
        <time>2020-05-22T12:49:03Z</time>
      </trkpt>
      <trkpt lat="48.72848" lon="7.20968">
        <ele>347.7</ele>
        <time>2020-05-22T12:49:04Z</time>
      </trkpt>
      <trkpt lat="48.72847" lon="7.20968">
        <ele>347.7</ele>
        <time>2020-05-22T12:49:05Z</time>
      </trkpt>
      <trkpt lat="48.72844" lon="7.20967">
        <ele>347.7</ele>
        <time>2020-05-22T12:49:06Z</time>
      </trkpt>
      <trkpt lat="48.72843" lon="7.20967">
        <ele>347.7</ele>
        <time>2020-05-22T12:49:07Z</time>
      </trkpt>
      <trkpt lat="48.72839" lon="7.20966">
        <ele>347.7</ele>
        <time>2020-05-22T12:49:09Z</time>
      </trkpt>
      <trkpt lat="48.72836" lon="7.20966">
        <ele>347.7</ele>
        <time>2020-05-22T12:49:10Z</time>
      </trkpt>
      <trkpt lat="48.72835" lon="7.20966">
        <ele>347.7</ele>
        <time>2020-05-22T12:49:11Z</time>
      </trkpt>
      <trkpt lat="48.72833" lon="7.20966">
        <ele>347.8</ele>
        <time>2020-05-22T12:49:12Z</time>
      </trkpt>
      <trkpt lat="48.72829" lon="7.20965">
        <ele>347.8</ele>
        <time>2020-05-22T12:49:14Z</time>
      </trkpt>
      <trkpt lat="48.72827" lon="7.20965">
        <ele>347.9</ele>
        <time>2020-05-22T12:49:15Z</time>
      </trkpt>
      <trkpt lat="48.72822" lon="7.20964">
        <ele>347.9</ele>
        <time>2020-05-22T12:49:17Z</time>
      </trkpt>
      <trkpt lat="48.72819" lon="7.20963">
        <ele>348</ele>
        <time>2020-05-22T12:49:18Z</time>
      </trkpt>
      <trkpt lat="48.72817" lon="7.20963">
        <ele>348</ele>
        <time>2020-05-22T12:49:19Z</time>
      </trkpt>
      <trkpt lat="48.72812" lon="7.20962">
        <ele>348.1</ele>
        <time>2020-05-22T12:49:21Z</time>
      </trkpt>
      <trkpt lat="48.7281" lon="7.20962">
        <ele>348.1</ele>
        <time>2020-05-22T12:49:22Z</time>
      </trkpt>
      <trkpt lat="48.72806" lon="7.20961">
        <ele>348</ele>
        <time>2020-05-22T12:49:24Z</time>
      </trkpt>
      <trkpt lat="48.72803" lon="7.2096">
        <ele>348</ele>
        <time>2020-05-22T12:49:25Z</time>
      </trkpt>
      <trkpt lat="48.72802" lon="7.2096">
        <ele>347.9</ele>
        <time>2020-05-22T12:49:26Z</time>
      </trkpt>
      <trkpt lat="48.72797" lon="7.20961">
        <ele>347.7</ele>
        <time>2020-05-22T12:49:28Z</time>
      </trkpt>
      <trkpt lat="48.7279" lon="7.20963">
        <ele>347.9</ele>
        <time>2020-05-22T12:49:30Z</time>
      </trkpt>
      <trkpt lat="48.72784" lon="7.20965">
        <ele>348</ele>
        <time>2020-05-22T12:49:32Z</time>
      </trkpt>
      <trkpt lat="48.72781" lon="7.20966">
        <ele>348.1</ele>
        <time>2020-05-22T12:49:33Z</time>
      </trkpt>
      <trkpt lat="48.72772" lon="7.20967">
        <ele>348.1</ele>
        <time>2020-05-22T12:49:35Z</time>
      </trkpt>
      <trkpt lat="48.72769" lon="7.20967">
        <ele>348.2</ele>
        <time>2020-05-22T12:49:36Z</time>
      </trkpt>
      <trkpt lat="48.72765" lon="7.20967">
        <ele>348.2</ele>
        <time>2020-05-22T12:49:37Z</time>
      </trkpt>
      <trkpt lat="48.72762" lon="7.20968">
        <ele>348.2</ele>
        <time>2020-05-22T12:49:38Z</time>
      </trkpt>
      <trkpt lat="48.72758" lon="7.20968">
        <ele>348.2</ele>
        <time>2020-05-22T12:49:39Z</time>
      </trkpt>
      <trkpt lat="48.7275" lon="7.20972">
        <ele>348.1</ele>
        <time>2020-05-22T12:49:41Z</time>
      </trkpt>
      <trkpt lat="48.72744" lon="7.20975">
        <ele>348</ele>
        <time>2020-05-22T12:49:43Z</time>
      </trkpt>
      <trkpt lat="48.7274" lon="7.20976">
        <ele>347.9</ele>
        <time>2020-05-22T12:49:44Z</time>
      </trkpt>
      <trkpt lat="48.72736" lon="7.20976">
        <ele>347.8</ele>
        <time>2020-05-22T12:49:45Z</time>
      </trkpt>
      <trkpt lat="48.72732" lon="7.20977">
        <ele>347.7</ele>
        <time>2020-05-22T12:49:46Z</time>
      </trkpt>
      <trkpt lat="48.72721" lon="7.20979">
        <ele>347.4</ele>
        <time>2020-05-22T12:49:48Z</time>
      </trkpt>
      <trkpt lat="48.72711" lon="7.2098">
        <ele>347</ele>
        <time>2020-05-22T12:49:50Z</time>
      </trkpt>
      <trkpt lat="48.727" lon="7.20981">
        <ele>346.6</ele>
        <time>2020-05-22T12:49:52Z</time>
      </trkpt>
      <trkpt lat="48.72696" lon="7.20981">
        <ele>346.5</ele>
        <time>2020-05-22T12:49:53Z</time>
      </trkpt>
      <trkpt lat="48.72685" lon="7.20983">
        <ele>346.2</ele>
        <time>2020-05-22T12:49:55Z</time>
      </trkpt>
      <trkpt lat="48.72679" lon="7.20981">
        <ele>346.1</ele>
        <time>2020-05-22T12:49:56Z</time>
      </trkpt>
      <trkpt lat="48.72667" lon="7.20976">
        <ele>345.7</ele>
        <time>2020-05-22T12:49:58Z</time>
      </trkpt>
      <trkpt lat="48.72661" lon="7.20971">
        <ele>345.6</ele>
        <time>2020-05-22T12:49:59Z</time>
      </trkpt>
      <trkpt lat="48.72656" lon="7.20966">
        <ele>345.5</ele>
        <time>2020-05-22T12:50:01Z</time>
      </trkpt>
      <trkpt lat="48.72655" lon="7.20967">
        <ele>345.4</ele>
        <time>2020-05-22T12:50:02Z</time>
      </trkpt>
      <trkpt lat="48.72655" lon="7.20968">
        <ele>345.4</ele>
        <time>2020-05-22T12:50:03Z</time>
      </trkpt>
      <trkpt lat="48.72654" lon="7.20969">
        <ele>345.4</ele>
        <time>2020-05-22T12:50:04Z</time>
      </trkpt>
      <trkpt lat="48.7265" lon="7.2097">
        <ele>344.5</ele>
        <time>2020-05-22T12:50:06Z</time>
      </trkpt>
      <trkpt lat="48.72646" lon="7.20969">
        <ele>344.5</ele>
        <time>2020-05-22T12:50:07Z</time>
      </trkpt>
      <trkpt lat="48.72641" lon="7.20969">
        <ele>344</ele>
        <time>2020-05-22T12:50:08Z</time>
      </trkpt>
      <trkpt lat="48.72621" lon="7.2097">
        <ele>342.5</ele>
        <time>2020-05-22T12:50:10Z</time>
      </trkpt>
      <trkpt lat="48.72606" lon="7.20973">
        <ele>340.9</ele>
        <time>2020-05-22T12:50:12Z</time>
      </trkpt>
      <trkpt lat="48.72592" lon="7.2097">
        <ele>338.9</ele>
        <time>2020-05-22T12:50:14Z</time>
      </trkpt>
      <trkpt lat="48.72585" lon="7.20974">
        <ele>336.6</ele>
        <time>2020-05-22T12:50:15Z</time>
      </trkpt>
      <trkpt lat="48.72568" lon="7.20986">
        <ele>332.6</ele>
        <time>2020-05-22T12:50:17Z</time>
      </trkpt>
      <trkpt lat="48.7256" lon="7.20993">
        <ele>329.9</ele>
        <time>2020-05-22T12:50:18Z</time>
      </trkpt>
      <trkpt lat="48.72549" lon="7.21001">
        <ele>326.4</ele>
        <time>2020-05-22T12:50:20Z</time>
      </trkpt>
      <trkpt lat="48.72544" lon="7.21006">
        <ele>324.4</ele>
        <time>2020-05-22T12:50:21Z</time>
      </trkpt>
      <trkpt lat="48.7254" lon="7.21009">
        <ele>322.9</ele>
        <time>2020-05-22T12:50:22Z</time>
      </trkpt>
      <trkpt lat="48.72535" lon="7.21013">
        <ele>321.1</ele>
        <time>2020-05-22T12:50:23Z</time>
      </trkpt>
      <trkpt lat="48.72525" lon="7.21015">
        <ele>319</ele>
        <time>2020-05-22T12:50:25Z</time>
      </trkpt>
      <trkpt lat="48.72519" lon="7.21018">
        <ele>317.2</ele>
        <time>2020-05-22T12:50:27Z</time>
      </trkpt>
      <trkpt lat="48.72514" lon="7.21019">
        <ele>316.4</ele>
        <time>2020-05-22T12:50:28Z</time>
      </trkpt>
      <trkpt lat="48.72509" lon="7.21019">
        <ele>315.2</ele>
        <time>2020-05-22T12:50:29Z</time>
      </trkpt>
      <trkpt lat="48.72495" lon="7.21015">
        <ele>312.7</ele>
        <time>2020-05-22T12:50:31Z</time>
      </trkpt>
      <trkpt lat="48.72486" lon="7.21005">
        <ele>310.9</ele>
        <time>2020-05-22T12:50:33Z</time>
      </trkpt>
      <trkpt lat="48.72478" lon="7.20996">
        <ele>309.9</ele>
        <time>2020-05-22T12:50:35Z</time>
      </trkpt>
      <trkpt lat="48.72477" lon="7.20991">
        <ele>308.9</ele>
        <time>2020-05-22T12:50:36Z</time>
      </trkpt>
      <trkpt lat="48.72473" lon="7.20981">
        <ele>308.3</ele>
        <time>2020-05-22T12:50:38Z</time>
      </trkpt>
      <trkpt lat="48.72469" lon="7.20974">
        <ele>308.2</ele>
        <time>2020-05-22T12:50:39Z</time>
      </trkpt>
      <trkpt lat="48.72462" lon="7.2096">
        <ele>308</ele>
        <time>2020-05-22T12:50:41Z</time>
      </trkpt>
      <trkpt lat="48.72458" lon="7.20955">
        <ele>307.8</ele>
        <time>2020-05-22T12:50:42Z</time>
      </trkpt>
      <trkpt lat="48.72456" lon="7.20951">
        <ele>307.7</ele>
        <time>2020-05-22T12:50:43Z</time>
      </trkpt>
      <trkpt lat="48.72457" lon="7.20936">
        <ele>307.3</ele>
        <time>2020-05-22T12:50:45Z</time>
      </trkpt>
      <trkpt lat="48.72459" lon="7.20918">
        <ele>306.8</ele>
        <time>2020-05-22T12:50:47Z</time>
      </trkpt>
      <trkpt lat="48.7246" lon="7.2091">
        <ele>306.6</ele>
        <time>2020-05-22T12:50:48Z</time>
      </trkpt>
      <trkpt lat="48.72458" lon="7.209">
        <ele>306.3</ele>
        <time>2020-05-22T12:50:49Z</time>
      </trkpt>
      <trkpt lat="48.72455" lon="7.20878">
        <ele>305.3</ele>
        <time>2020-05-22T12:50:51Z</time>
      </trkpt>
      <trkpt lat="48.72457" lon="7.20861">
        <ele>304.3</ele>
        <time>2020-05-22T12:50:53Z</time>
      </trkpt>
      <trkpt lat="48.72457" lon="7.20841">
        <ele>303.2</ele>
        <time>2020-05-22T12:50:55Z</time>
      </trkpt>
      <trkpt lat="48.72456" lon="7.20822">
        <ele>302.3</ele>
        <time>2020-05-22T12:50:57Z</time>
      </trkpt>
      <trkpt lat="48.72458" lon="7.20812">
        <ele>302</ele>
        <time>2020-05-22T12:50:58Z</time>
      </trkpt>
      <trkpt lat="48.72462" lon="7.20792">
        <ele>301.4</ele>
        <time>2020-05-22T12:51:00Z</time>
      </trkpt>
      <trkpt lat="48.72463" lon="7.2078">
        <ele>301</ele>
        <time>2020-05-22T12:51:01Z</time>
      </trkpt>
      <trkpt lat="48.7247" lon="7.20762">
        <ele>300.4</ele>
        <time>2020-05-22T12:51:03Z</time>
      </trkpt>
      <trkpt lat="48.72472" lon="7.20756">
        <ele>300.1</ele>
        <time>2020-05-22T12:51:04Z</time>
      </trkpt>
      <trkpt lat="48.72474" lon="7.2075">
        <ele>299.9</ele>
        <time>2020-05-22T12:51:05Z</time>
      </trkpt>
      <trkpt lat="48.72476" lon="7.20743">
        <ele>299.6</ele>
        <time>2020-05-22T12:51:06Z</time>
      </trkpt>
      <trkpt lat="48.72479" lon="7.20727">
        <ele>299</ele>
        <time>2020-05-22T12:51:08Z</time>
      </trkpt>
      <trkpt lat="48.72481" lon="7.20719">
        <ele>298.6</ele>
        <time>2020-05-22T12:51:09Z</time>
      </trkpt>
      <trkpt lat="48.72484" lon="7.20699">
        <ele>297.7</ele>
        <time>2020-05-22T12:51:11Z</time>
      </trkpt>
      <trkpt lat="48.72486" lon="7.20688">
        <ele>297.2</ele>
        <time>2020-05-22T12:51:12Z</time>
      </trkpt>
      <trkpt lat="48.72488" lon="7.20678">
        <ele>296.7</ele>
        <time>2020-05-22T12:51:13Z</time>
      </trkpt>
      <trkpt lat="48.72489" lon="7.20669">
        <ele>296.3</ele>
        <time>2020-05-22T12:51:14Z</time>
      </trkpt>
      <trkpt lat="48.72489" lon="7.20655">
        <ele>295.7</ele>
        <time>2020-05-22T12:51:16Z</time>
      </trkpt>
      <trkpt lat="48.72492" lon="7.2064">
        <ele>295.2</ele>
        <time>2020-05-22T12:51:18Z</time>
      </trkpt>
      <trkpt lat="48.72494" lon="7.2062">
        <ele>294.5</ele>
        <time>2020-05-22T12:51:20Z</time>
      </trkpt>
      <trkpt lat="48.72499" lon="7.206">
        <ele>294</ele>
        <time>2020-05-22T12:51:22Z</time>
      </trkpt>
      <trkpt lat="48.72503" lon="7.20591">
        <ele>293.9</ele>
        <time>2020-05-22T12:51:23Z</time>
      </trkpt>
      <trkpt lat="48.72507" lon="7.20583">
        <ele>293.8</ele>
        <time>2020-05-22T12:51:24Z</time>
      </trkpt>
      <trkpt lat="48.72513" lon="7.20568">
        <ele>293.6</ele>
        <time>2020-05-22T12:51:26Z</time>
      </trkpt>
      <trkpt lat="48.72516" lon="7.20553">
        <ele>293.5</ele>
        <time>2020-05-22T12:51:28Z</time>
      </trkpt>
      <trkpt lat="48.72518" lon="7.20544">
        <ele>293.4</ele>
        <time>2020-05-22T12:51:29Z</time>
      </trkpt>
      <trkpt lat="48.72519" lon="7.20537">
        <ele>293.2</ele>
        <time>2020-05-22T12:51:30Z</time>
      </trkpt>
      <trkpt lat="48.72524" lon="7.20526">
        <ele>293</ele>
        <time>2020-05-22T12:51:32Z</time>
      </trkpt>
      <trkpt lat="48.72527" lon="7.2052">
        <ele>292.9</ele>
        <time>2020-05-22T12:51:33Z</time>
      </trkpt>
      <trkpt lat="48.7253" lon="7.20505">
        <ele>292.7</ele>
        <time>2020-05-22T12:51:35Z</time>
      </trkpt>
      <trkpt lat="48.7253" lon="7.20496">
        <ele>292.6</ele>
        <time>2020-05-22T12:51:36Z</time>
      </trkpt>
      <trkpt lat="48.72533" lon="7.20482">
        <ele>292.4</ele>
        <time>2020-05-22T12:51:38Z</time>
      </trkpt>
      <trkpt lat="48.72534" lon="7.20474">
        <ele>292.3</ele>
        <time>2020-05-22T12:51:39Z</time>
      </trkpt>
      <trkpt lat="48.72536" lon="7.20458">
        <ele>292.1</ele>
        <time>2020-05-22T12:51:41Z</time>
      </trkpt>
      <trkpt lat="48.72537" lon="7.2045">
        <ele>291.9</ele>
        <time>2020-05-22T12:51:42Z</time>
      </trkpt>
      <trkpt lat="48.72537" lon="7.2044">
        <ele>291.6</ele>
        <time>2020-05-22T12:51:43Z</time>
      </trkpt>
      <trkpt lat="48.7254" lon="7.2042">
        <ele>291.1</ele>
        <time>2020-05-22T12:51:45Z</time>
      </trkpt>
      <trkpt lat="48.72542" lon="7.2041">
        <ele>290.9</ele>
        <time>2020-05-22T12:51:46Z</time>
      </trkpt>
      <trkpt lat="48.72543" lon="7.20389">
        <ele>290.8</ele>
        <time>2020-05-22T12:51:48Z</time>
      </trkpt>
      <trkpt lat="48.72544" lon="7.2038">
        <ele>290.9</ele>
        <time>2020-05-22T12:51:49Z</time>
      </trkpt>
      <trkpt lat="48.72546" lon="7.20372">
        <ele>291</ele>
        <time>2020-05-22T12:51:50Z</time>
      </trkpt>
      <trkpt lat="48.72547" lon="7.20363">
        <ele>291.1</ele>
        <time>2020-05-22T12:51:51Z</time>
      </trkpt>
      <trkpt lat="48.72549" lon="7.20347">
        <ele>291.4</ele>
        <time>2020-05-22T12:51:53Z</time>
      </trkpt>
      <trkpt lat="48.72551" lon="7.2034">
        <ele>291.6</ele>
        <time>2020-05-22T12:51:54Z</time>
      </trkpt>
      <trkpt lat="48.72551" lon="7.20334">
        <ele>291.8</ele>
        <time>2020-05-22T12:51:55Z</time>
      </trkpt>
      <trkpt lat="48.72552" lon="7.20329">
        <ele>292</ele>
        <time>2020-05-22T12:51:56Z</time>
      </trkpt>
      <trkpt lat="48.72553" lon="7.20322">
        <ele>292.2</ele>
        <time>2020-05-22T12:51:58Z</time>
      </trkpt>
      <trkpt lat="48.72553" lon="7.20317">
        <ele>292.4</ele>
        <time>2020-05-22T12:51:59Z</time>
      </trkpt>
      <trkpt lat="48.72554" lon="7.20308">
        <ele>292.7</ele>
        <time>2020-05-22T12:52:01Z</time>
      </trkpt>
      <trkpt lat="48.72554" lon="7.203">
        <ele>292.8</ele>
        <time>2020-05-22T12:52:03Z</time>
      </trkpt>
      <trkpt lat="48.72553" lon="7.20297">
        <ele>292.9</ele>
        <time>2020-05-22T12:52:04Z</time>
      </trkpt>
      <trkpt lat="48.72552" lon="7.20287">
        <ele>293</ele>
        <time>2020-05-22T12:52:06Z</time>
      </trkpt>
      <trkpt lat="48.72551" lon="7.20283">
        <ele>293</ele>
        <time>2020-05-22T12:52:07Z</time>
      </trkpt>
      <trkpt lat="48.7255" lon="7.20273">
        <ele>293</ele>
        <time>2020-05-22T12:52:09Z</time>
      </trkpt>
      <trkpt lat="48.72548" lon="7.20262">
        <ele>293</ele>
        <time>2020-05-22T12:52:11Z</time>
      </trkpt>
      <trkpt lat="48.72546" lon="7.20256">
        <ele>293</ele>
        <time>2020-05-22T12:52:12Z</time>
      </trkpt>
      <trkpt lat="48.72544" lon="7.20245">
        <ele>293.1</ele>
        <time>2020-05-22T12:52:14Z</time>
      </trkpt>
      <trkpt lat="48.72543" lon="7.20239">
        <ele>293.2</ele>
        <time>2020-05-22T12:52:15Z</time>
      </trkpt>
      <trkpt lat="48.72543" lon="7.20233">
        <ele>293.2</ele>
        <time>2020-05-22T12:52:16Z</time>
      </trkpt>
      <trkpt lat="48.72544" lon="7.20224">
        <ele>293.3</ele>
        <time>2020-05-22T12:52:18Z</time>
      </trkpt>
      <trkpt lat="48.72544" lon="7.20217">
        <ele>293.4</ele>
        <time>2020-05-22T12:52:19Z</time>
      </trkpt>
      <trkpt lat="48.72544" lon="7.20206">
        <ele>293.6</ele>
        <time>2020-05-22T12:52:21Z</time>
      </trkpt>
      <trkpt lat="48.72544" lon="7.202">
        <ele>293.7</ele>
        <time>2020-05-22T12:52:22Z</time>
      </trkpt>
      <trkpt lat="48.72543" lon="7.20195">
        <ele>293.7</ele>
        <time>2020-05-22T12:52:23Z</time>
      </trkpt>
      <trkpt lat="48.72542" lon="7.20186">
        <ele>293.9</ele>
        <time>2020-05-22T12:52:25Z</time>
      </trkpt>
      <trkpt lat="48.7254" lon="7.20174">
        <ele>294</ele>
        <time>2020-05-22T12:52:27Z</time>
      </trkpt>
      <trkpt lat="48.72538" lon="7.20164">
        <ele>293.8</ele>
        <time>2020-05-22T12:52:29Z</time>
      </trkpt>
      <trkpt lat="48.72538" lon="7.20159">
        <ele>293.7</ele>
        <time>2020-05-22T12:52:30Z</time>
      </trkpt>
      <trkpt lat="48.72537" lon="7.20158">
        <ele>293.7</ele>
        <time>2020-05-22T12:52:32Z</time>
      </trkpt>
      <trkpt lat="48.72536" lon="7.20157">
        <ele>293.6</ele>
        <time>2020-05-22T12:52:34Z</time>
      </trkpt>
      <trkpt lat="48.72536" lon="7.20156">
        <ele>293.6</ele>
        <time>2020-05-22T12:52:35Z</time>
      </trkpt>
      <trkpt lat="48.72535" lon="7.20155">
        <ele>293.6</ele>
        <time>2020-05-22T12:52:37Z</time>
      </trkpt>
      <trkpt lat="48.72535" lon="7.20154">
        <ele>293.5</ele>
        <time>2020-05-22T12:52:38Z</time>
      </trkpt>
      <trkpt lat="48.72534" lon="7.20153">
        <ele>293.5</ele>
        <time>2020-05-22T12:52:39Z</time>
      </trkpt>
      <trkpt lat="48.72534" lon="7.20153">
        <ele>293.5</ele>
        <time>2020-05-22T12:52:42Z</time>
      </trkpt>
      <trkpt lat="48.72533" lon="7.20152">
        <ele>293.4</ele>
        <time>2020-05-22T12:52:59Z</time>
      </trkpt>
      <trkpt lat="48.72533" lon="7.20151">
        <ele>293.4</ele>
        <time>2020-05-22T12:53:00Z</time>
      </trkpt>
      <trkpt lat="48.72532" lon="7.2015">
        <ele>293.4</ele>
        <time>2020-05-22T12:53:01Z</time>
      </trkpt>
      <trkpt lat="48.72529" lon="7.20142">
        <ele>293.2</ele>
        <time>2020-05-22T12:53:03Z</time>
      </trkpt>
      <trkpt lat="48.7253" lon="7.20132">
        <ele>292.9</ele>
        <time>2020-05-22T12:53:05Z</time>
      </trkpt>
      <trkpt lat="48.72531" lon="7.20127">
        <ele>292.7</ele>
        <time>2020-05-22T12:53:06Z</time>
      </trkpt>
      <trkpt lat="48.72526" lon="7.20115">
        <ele>292.1</ele>
        <time>2020-05-22T12:53:08Z</time>
      </trkpt>
      <trkpt lat="48.72525" lon="7.20112">
        <ele>291.9</ele>
        <time>2020-05-22T12:53:09Z</time>
      </trkpt>
      <trkpt lat="48.72521" lon="7.201">
        <ele>291.2</ele>
        <time>2020-05-22T12:53:11Z</time>
      </trkpt>
      <trkpt lat="48.72517" lon="7.20085">
        <ele>290.3</ele>
        <time>2020-05-22T12:53:13Z</time>
      </trkpt>
      <trkpt lat="48.72515" lon="7.20078">
        <ele>289.8</ele>
        <time>2020-05-22T12:53:14Z</time>
      </trkpt>
      <trkpt lat="48.72515" lon="7.20069">
        <ele>289.3</ele>
        <time>2020-05-22T12:53:15Z</time>
      </trkpt>
      <trkpt lat="48.72515" lon="7.20059">
        <ele>288.7</ele>
        <time>2020-05-22T12:53:16Z</time>
      </trkpt>
      <trkpt lat="48.72514" lon="7.20041">
        <ele>287.7</ele>
        <time>2020-05-22T12:53:18Z</time>
      </trkpt>
      <trkpt lat="48.72514" lon="7.20023">
        <ele>286.8</ele>
        <time>2020-05-22T12:53:20Z</time>
      </trkpt>
      <trkpt lat="48.72514" lon="7.20015">
        <ele>286.2</ele>
        <time>2020-05-22T12:53:21Z</time>
      </trkpt>
      <trkpt lat="48.72515" lon="7.20008">
        <ele>285.8</ele>
        <time>2020-05-22T12:53:22Z</time>
      </trkpt>
      <trkpt lat="48.72519" lon="7.19997">
        <ele>285.1</ele>
        <time>2020-05-22T12:53:24Z</time>
      </trkpt>
      <trkpt lat="48.72522" lon="7.19994">
        <ele>284.8</ele>
        <time>2020-05-22T12:53:25Z</time>
      </trkpt>
      <trkpt lat="48.72531" lon="7.19987">
        <ele>283.9</ele>
        <time>2020-05-22T12:53:27Z</time>
      </trkpt>
      <trkpt lat="48.72538" lon="7.19978">
        <ele>283.3</ele>
        <time>2020-05-22T12:53:29Z</time>
      </trkpt>
      <trkpt lat="48.72543" lon="7.19974">
        <ele>282.9</ele>
        <time>2020-05-22T12:53:30Z</time>
      </trkpt>
      <trkpt lat="48.72553" lon="7.19965">
        <ele>281.9</ele>
        <time>2020-05-22T12:53:32Z</time>
      </trkpt>
      <trkpt lat="48.72556" lon="7.19958">
        <ele>281.5</ele>
        <time>2020-05-22T12:53:33Z</time>
      </trkpt>
      <trkpt lat="48.7256" lon="7.19951">
        <ele>281</ele>
        <time>2020-05-22T12:53:34Z</time>
      </trkpt>
      <trkpt lat="48.72567" lon="7.19933">
        <ele>280</ele>
        <time>2020-05-22T12:53:36Z</time>
      </trkpt>
      <trkpt lat="48.7257" lon="7.19926">
        <ele>279.6</ele>
        <time>2020-05-22T12:53:37Z</time>
      </trkpt>
      <trkpt lat="48.72576" lon="7.19915">
        <ele>278.9</ele>
        <time>2020-05-22T12:53:39Z</time>
      </trkpt>
      <trkpt lat="48.72582" lon="7.19906">
        <ele>278.2</ele>
        <time>2020-05-22T12:53:41Z</time>
      </trkpt>
      <trkpt lat="48.72591" lon="7.19898">
        <ele>277.4</ele>
        <time>2020-05-22T12:53:43Z</time>
      </trkpt>
      <trkpt lat="48.72598" lon="7.19884">
        <ele>276.5</ele>
        <time>2020-05-22T12:53:45Z</time>
      </trkpt>
      <trkpt lat="48.72604" lon="7.19874">
        <ele>275.7</ele>
        <time>2020-05-22T12:53:47Z</time>
      </trkpt>
      <trkpt lat="48.7261" lon="7.19869">
        <ele>275</ele>
        <time>2020-05-22T12:53:49Z</time>
      </trkpt>
      <trkpt lat="48.72615" lon="7.19867">
        <ele>274.4</ele>
        <time>2020-05-22T12:53:50Z</time>
      </trkpt>
      <trkpt lat="48.72619" lon="7.19855">
        <ele>273.4</ele>
        <time>2020-05-22T12:53:52Z</time>
      </trkpt>
      <trkpt lat="48.7262" lon="7.19842">
        <ele>272.1</ele>
        <time>2020-05-22T12:53:54Z</time>
      </trkpt>
      <trkpt lat="48.7262" lon="7.19835">
        <ele>271.3</ele>
        <time>2020-05-22T12:53:55Z</time>
      </trkpt>
      <trkpt lat="48.72619" lon="7.19829">
        <ele>269.3</ele>
        <time>2020-05-22T12:53:56Z</time>
      </trkpt>
      <trkpt lat="48.7261" lon="7.19821">
        <ele>267.6</ele>
        <time>2020-05-22T12:53:58Z</time>
      </trkpt>
      <trkpt lat="48.72602" lon="7.19811">
        <ele>266</ele>
        <time>2020-05-22T12:54:00Z</time>
      </trkpt>
      <trkpt lat="48.72598" lon="7.19806">
        <ele>265.4</ele>
        <time>2020-05-22T12:54:01Z</time>
      </trkpt>
      <trkpt lat="48.72589" lon="7.19806">
        <ele>264.1</ele>
        <time>2020-05-22T12:54:03Z</time>
      </trkpt>
      <trkpt lat="48.72582" lon="7.1981">
        <ele>263.2</ele>
        <time>2020-05-22T12:54:04Z</time>
      </trkpt>
      <trkpt lat="48.72575" lon="7.19811">
        <ele>262.5</ele>
        <time>2020-05-22T12:54:05Z</time>
      </trkpt>
      <trkpt lat="48.72568" lon="7.19811">
        <ele>261.7</ele>
        <time>2020-05-22T12:54:06Z</time>
      </trkpt>
      <trkpt lat="48.72559" lon="7.19813">
        <ele>261</ele>
        <time>2020-05-22T12:54:08Z</time>
      </trkpt>
      <trkpt lat="48.7255" lon="7.19812">
        <ele>260.2</ele>
        <time>2020-05-22T12:54:10Z</time>
      </trkpt>
      <trkpt lat="48.72544" lon="7.1981">
        <ele>259.8</ele>
        <time>2020-05-22T12:54:11Z</time>
      </trkpt>
      <trkpt lat="48.72539" lon="7.19806">
        <ele>259.4</ele>
        <time>2020-05-22T12:54:12Z</time>
      </trkpt>
      <trkpt lat="48.72534" lon="7.19804">
        <ele>259.1</ele>
        <time>2020-05-22T12:54:13Z</time>
      </trkpt>
      <trkpt lat="48.72528" lon="7.19797">
        <ele>258.6</ele>
        <time>2020-05-22T12:54:15Z</time>
      </trkpt>
      <trkpt lat="48.72526" lon="7.19797">
        <ele>258.5</ele>
        <time>2020-05-22T12:54:16Z</time>
      </trkpt>
      <trkpt lat="48.72523" lon="7.19799">
        <ele>258.2</ele>
        <time>2020-05-22T12:54:18Z</time>
      </trkpt>
      <trkpt lat="48.72518" lon="7.19807">
        <ele>257.7</ele>
        <time>2020-05-22T12:54:20Z</time>
      </trkpt>
      <trkpt lat="48.72516" lon="7.19812">
        <ele>257.3</ele>
        <time>2020-05-22T12:54:21Z</time>
      </trkpt>
      <trkpt lat="48.7251" lon="7.1982">
        <ele>256.6</ele>
        <time>2020-05-22T12:54:23Z</time>
      </trkpt>
      <trkpt lat="48.72507" lon="7.1982">
        <ele>256.2</ele>
        <time>2020-05-22T12:54:24Z</time>
      </trkpt>
      <trkpt lat="48.72501" lon="7.19818">
        <ele>255</ele>
        <time>2020-05-22T12:54:26Z</time>
      </trkpt>
      <trkpt lat="48.72499" lon="7.19818">
        <ele>254.7</ele>
        <time>2020-05-22T12:54:27Z</time>
      </trkpt>
      <trkpt lat="48.72497" lon="7.19819">
        <ele>254.3</ele>
        <time>2020-05-22T12:54:29Z</time>
      </trkpt>
      <trkpt lat="48.72495" lon="7.19819">
        <ele>254.1</ele>
        <time>2020-05-22T12:54:30Z</time>
      </trkpt>
      <trkpt lat="48.72494" lon="7.1982">
        <ele>253.8</ele>
        <time>2020-05-22T12:54:31Z</time>
      </trkpt>
      <trkpt lat="48.72492" lon="7.19821">
        <ele>253.6</ele>
        <time>2020-05-22T12:54:32Z</time>
      </trkpt>
      <trkpt lat="48.72486" lon="7.1982">
        <ele>250.4</ele>
        <time>2020-05-22T12:54:34Z</time>
      </trkpt>
      <trkpt lat="48.72482" lon="7.19812">
        <ele>250.6</ele>
        <time>2020-05-22T12:54:36Z</time>
      </trkpt>
      <trkpt lat="48.72481" lon="7.19801">
        <ele>250.6</ele>
        <time>2020-05-22T12:54:38Z</time>
      </trkpt>
      <trkpt lat="48.72479" lon="7.19791">
        <ele>250.7</ele>
        <time>2020-05-22T12:54:40Z</time>
      </trkpt>
      <trkpt lat="48.72478" lon="7.19786">
        <ele>250.7</ele>
        <time>2020-05-22T12:54:41Z</time>
      </trkpt>
      <trkpt lat="48.72476" lon="7.1978">
        <ele>250.7</ele>
        <time>2020-05-22T12:54:42Z</time>
      </trkpt>
      <trkpt lat="48.72473" lon="7.1977">
        <ele>250.7</ele>
        <time>2020-05-22T12:54:44Z</time>
      </trkpt>
      <trkpt lat="48.72471" lon="7.19765">
        <ele>250.8</ele>
        <time>2020-05-22T12:54:45Z</time>
      </trkpt>
      <trkpt lat="48.72467" lon="7.19754">
        <ele>250.8</ele>
        <time>2020-05-22T12:54:47Z</time>
      </trkpt>
      <trkpt lat="48.72464" lon="7.19743">
        <ele>250.9</ele>
        <time>2020-05-22T12:54:49Z</time>
      </trkpt>
      <trkpt lat="48.72461" lon="7.19731">
        <ele>250.9</ele>
        <time>2020-05-22T12:54:51Z</time>
      </trkpt>
      <trkpt lat="48.72458" lon="7.19719">
        <ele>251</ele>
        <time>2020-05-22T12:54:53Z</time>
      </trkpt>
      <trkpt lat="48.72456" lon="7.19713">
        <ele>251</ele>
        <time>2020-05-22T12:54:54Z</time>
      </trkpt>
      <trkpt lat="48.72454" lon="7.19707">
        <ele>251</ele>
        <time>2020-05-22T12:54:55Z</time>
      </trkpt>
      <trkpt lat="48.72449" lon="7.19696">
        <ele>251.1</ele>
        <time>2020-05-22T12:54:57Z</time>
      </trkpt>
      <trkpt lat="48.72445" lon="7.19685">
        <ele>251.2</ele>
        <time>2020-05-22T12:54:59Z</time>
      </trkpt>
      <trkpt lat="48.72443" lon="7.19679">
        <ele>251.3</ele>
        <time>2020-05-22T12:55:00Z</time>
      </trkpt>
      <trkpt lat="48.7244" lon="7.19669">
        <ele>251.5</ele>
        <time>2020-05-22T12:55:02Z</time>
      </trkpt>
      <trkpt lat="48.72437" lon="7.19659">
        <ele>251.8</ele>
        <time>2020-05-22T12:55:04Z</time>
      </trkpt>
      <trkpt lat="48.72436" lon="7.19655">
        <ele>251.9</ele>
        <time>2020-05-22T12:55:05Z</time>
      </trkpt>
      <trkpt lat="48.72436" lon="7.1965">
        <ele>252</ele>
        <time>2020-05-22T12:55:06Z</time>
      </trkpt>
      <trkpt lat="48.72435" lon="7.19643">
        <ele>252.2</ele>
        <time>2020-05-22T12:55:08Z</time>
      </trkpt>
      <trkpt lat="48.72433" lon="7.19635">
        <ele>252.5</ele>
        <time>2020-05-22T12:55:10Z</time>
      </trkpt>
      <trkpt lat="48.72433" lon="7.19632">
        <ele>252.5</ele>
        <time>2020-05-22T12:55:11Z</time>
      </trkpt>
      <trkpt lat="48.7243" lon="7.19625">
        <ele>252.7</ele>
        <time>2020-05-22T12:55:13Z</time>
      </trkpt>
      <trkpt lat="48.72429" lon="7.19622">
        <ele>252.7</ele>
        <time>2020-05-22T12:55:14Z</time>
      </trkpt>
      <trkpt lat="48.72428" lon="7.19615">
        <ele>252.8</ele>
        <time>2020-05-22T12:55:16Z</time>
      </trkpt>
      <trkpt lat="48.72427" lon="7.1961">
        <ele>252.8</ele>
        <time>2020-05-22T12:55:17Z</time>
      </trkpt>
      <trkpt lat="48.72426" lon="7.19605">
        <ele>252.8</ele>
        <time>2020-05-22T12:55:18Z</time>
      </trkpt>
      <trkpt lat="48.72425" lon="7.19601">
        <ele>252.8</ele>
        <time>2020-05-22T12:55:19Z</time>
      </trkpt>
      <trkpt lat="48.72423" lon="7.19593">
        <ele>252.8</ele>
        <time>2020-05-22T12:55:21Z</time>
      </trkpt>
      <trkpt lat="48.72421" lon="7.19589">
        <ele>252.8</ele>
        <time>2020-05-22T12:55:22Z</time>
      </trkpt>
      <trkpt lat="48.72419" lon="7.19585">
        <ele>252.8</ele>
        <time>2020-05-22T12:55:23Z</time>
      </trkpt>
      <trkpt lat="48.72417" lon="7.19577">
        <ele>252.8</ele>
        <time>2020-05-22T12:55:25Z</time>
      </trkpt>
      <trkpt lat="48.72416" lon="7.19573">
        <ele>252.8</ele>
        <time>2020-05-22T12:55:26Z</time>
      </trkpt>
      <trkpt lat="48.72414" lon="7.19564">
        <ele>252.9</ele>
        <time>2020-05-22T12:55:28Z</time>
      </trkpt>
      <trkpt lat="48.72413" lon="7.1956">
        <ele>252.9</ele>
        <time>2020-05-22T12:55:29Z</time>
      </trkpt>
      <trkpt lat="48.7241" lon="7.19552">
        <ele>252.9</ele>
        <time>2020-05-22T12:55:31Z</time>
      </trkpt>
      <trkpt lat="48.72409" lon="7.19545">
        <ele>252.9</ele>
        <time>2020-05-22T12:55:33Z</time>
      </trkpt>
      <trkpt lat="48.72409" lon="7.19534">
        <ele>252.9</ele>
        <time>2020-05-22T12:55:35Z</time>
      </trkpt>
      <trkpt lat="48.72409" lon="7.19531">
        <ele>252.9</ele>
        <time>2020-05-22T12:55:36Z</time>
      </trkpt>
      <trkpt lat="48.72407" lon="7.19522">
        <ele>252.9</ele>
        <time>2020-05-22T12:55:38Z</time>
      </trkpt>
      <trkpt lat="48.72405" lon="7.19518">
        <ele>252.9</ele>
        <time>2020-05-22T12:55:39Z</time>
      </trkpt>
      <trkpt lat="48.72404" lon="7.19513">
        <ele>252.9</ele>
        <time>2020-05-22T12:55:40Z</time>
      </trkpt>
      <trkpt lat="48.72402" lon="7.19503">
        <ele>252.9</ele>
        <time>2020-05-22T12:55:42Z</time>
      </trkpt>
      <trkpt lat="48.724" lon="7.19492">
        <ele>252.9</ele>
        <time>2020-05-22T12:55:44Z</time>
      </trkpt>
      <trkpt lat="48.72399" lon="7.19487">
        <ele>252.9</ele>
        <time>2020-05-22T12:55:45Z</time>
      </trkpt>
      <trkpt lat="48.72396" lon="7.19476">
        <ele>252.9</ele>
        <time>2020-05-22T12:55:47Z</time>
      </trkpt>
      <trkpt lat="48.72394" lon="7.1947">
        <ele>252.9</ele>
        <time>2020-05-22T12:55:48Z</time>
      </trkpt>
      <trkpt lat="48.72393" lon="7.19461">
        <ele>252.9</ele>
        <time>2020-05-22T12:55:50Z</time>
      </trkpt>
      <trkpt lat="48.72392" lon="7.19456">
        <ele>252.9</ele>
        <time>2020-05-22T12:55:51Z</time>
      </trkpt>
      <trkpt lat="48.72392" lon="7.19451">
        <ele>252.9</ele>
        <time>2020-05-22T12:55:52Z</time>
      </trkpt>
      <trkpt lat="48.72391" lon="7.1944">
        <ele>252.9</ele>
        <time>2020-05-22T12:55:54Z</time>
      </trkpt>
      <trkpt lat="48.72391" lon="7.1943">
        <ele>252.9</ele>
        <time>2020-05-22T12:55:56Z</time>
      </trkpt>
      <trkpt lat="48.7239" lon="7.19425">
        <ele>253</ele>
        <time>2020-05-22T12:55:57Z</time>
      </trkpt>
      <trkpt lat="48.7239" lon="7.19416">
        <ele>253</ele>
        <time>2020-05-22T12:55:59Z</time>
      </trkpt>
      <trkpt lat="48.7239" lon="7.19411">
        <ele>253</ele>
        <time>2020-05-22T12:56:00Z</time>
      </trkpt>
      <trkpt lat="48.7239" lon="7.19406">
        <ele>253.1</ele>
        <time>2020-05-22T12:56:01Z</time>
      </trkpt>
      <trkpt lat="48.7239" lon="7.19396">
        <ele>253.2</ele>
        <time>2020-05-22T12:56:03Z</time>
      </trkpt>
      <trkpt lat="48.7239" lon="7.19386">
        <ele>253.4</ele>
        <time>2020-05-22T12:56:05Z</time>
      </trkpt>
      <trkpt lat="48.7239" lon="7.19381">
        <ele>253.5</ele>
        <time>2020-05-22T12:56:06Z</time>
      </trkpt>
      <trkpt lat="48.7239" lon="7.19372">
        <ele>253.7</ele>
        <time>2020-05-22T12:56:08Z</time>
      </trkpt>
      <trkpt lat="48.72389" lon="7.19368">
        <ele>253.8</ele>
        <time>2020-05-22T12:56:09Z</time>
      </trkpt>
      <trkpt lat="48.7239" lon="7.19362">
        <ele>254</ele>
        <time>2020-05-22T12:56:11Z</time>
      </trkpt>
      <trkpt lat="48.72391" lon="7.19356">
        <ele>254.2</ele>
        <time>2020-05-22T12:56:13Z</time>
      </trkpt>
      <trkpt lat="48.72391" lon="7.19352">
        <ele>254.3</ele>
        <time>2020-05-22T12:56:14Z</time>
      </trkpt>
      <trkpt lat="48.72392" lon="7.19345">
        <ele>254.5</ele>
        <time>2020-05-22T12:56:16Z</time>
      </trkpt>
      <trkpt lat="48.72391" lon="7.19339">
        <ele>254.6</ele>
        <time>2020-05-22T12:56:18Z</time>
      </trkpt>
      <trkpt lat="48.7239" lon="7.19336">
        <ele>254.7</ele>
        <time>2020-05-22T12:56:19Z</time>
      </trkpt>
      <trkpt lat="48.7239" lon="7.19329">
        <ele>254.8</ele>
        <time>2020-05-22T12:56:21Z</time>
      </trkpt>
      <trkpt lat="48.7239" lon="7.19323">
        <ele>254.9</ele>
        <time>2020-05-22T12:56:22Z</time>
      </trkpt>
      <trkpt lat="48.7239" lon="7.19321">
        <ele>255</ele>
        <time>2020-05-22T12:56:23Z</time>
      </trkpt>
      <trkpt lat="48.7239" lon="7.19312">
        <ele>255</ele>
        <time>2020-05-22T12:56:25Z</time>
      </trkpt>
      <trkpt lat="48.7239" lon="7.19307">
        <ele>255.1</ele>
        <time>2020-05-22T12:56:26Z</time>
      </trkpt>
      <trkpt lat="48.72391" lon="7.193">
        <ele>255.1</ele>
        <time>2020-05-22T12:56:28Z</time>
      </trkpt>
      <trkpt lat="48.72392" lon="7.19292">
        <ele>255.2</ele>
        <time>2020-05-22T12:56:30Z</time>
      </trkpt>
      <trkpt lat="48.72393" lon="7.19282">
        <ele>255.2</ele>
        <time>2020-05-22T12:56:32Z</time>
      </trkpt>
      <trkpt lat="48.72392" lon="7.19273">
        <ele>255.2</ele>
        <time>2020-05-22T12:56:34Z</time>
      </trkpt>
      <trkpt lat="48.72391" lon="7.1927">
        <ele>255.2</ele>
        <time>2020-05-22T12:56:35Z</time>
      </trkpt>
      <trkpt lat="48.7239" lon="7.19261">
        <ele>255.2</ele>
        <time>2020-05-22T12:56:37Z</time>
      </trkpt>
      <trkpt lat="48.7239" lon="7.19257">
        <ele>255.2</ele>
        <time>2020-05-22T12:56:38Z</time>
      </trkpt>
      <trkpt lat="48.72389" lon="7.19249">
        <ele>255.2</ele>
        <time>2020-05-22T12:56:40Z</time>
      </trkpt>
      <trkpt lat="48.72388" lon="7.19243">
        <ele>255.2</ele>
        <time>2020-05-22T12:56:41Z</time>
      </trkpt>
      <trkpt lat="48.72387" lon="7.19238">
        <ele>255.1</ele>
        <time>2020-05-22T12:56:42Z</time>
      </trkpt>
      <trkpt lat="48.72386" lon="7.19228">
        <ele>255.1</ele>
        <time>2020-05-22T12:56:44Z</time>
      </trkpt>
      <trkpt lat="48.72385" lon="7.19224">
        <ele>255.1</ele>
        <time>2020-05-22T12:56:45Z</time>
      </trkpt>
      <trkpt lat="48.72385" lon="7.19213">
        <ele>255.1</ele>
        <time>2020-05-22T12:56:47Z</time>
      </trkpt>
      <trkpt lat="48.72386" lon="7.19202">
        <ele>255.1</ele>
        <time>2020-05-22T12:56:49Z</time>
      </trkpt>
      <trkpt lat="48.72386" lon="7.19192">
        <ele>255.1</ele>
        <time>2020-05-22T12:56:51Z</time>
      </trkpt>
      <trkpt lat="48.72386" lon="7.19186">
        <ele>255.1</ele>
        <time>2020-05-22T12:56:52Z</time>
      </trkpt>
      <trkpt lat="48.72388" lon="7.19175">
        <ele>255.1</ele>
        <time>2020-05-22T12:56:54Z</time>
      </trkpt>
      <trkpt lat="48.72389" lon="7.1917">
        <ele>255.1</ele>
        <time>2020-05-22T12:56:55Z</time>
      </trkpt>
      <trkpt lat="48.7239" lon="7.19158">
        <ele>255.2</ele>
        <time>2020-05-22T12:56:57Z</time>
      </trkpt>
      <trkpt lat="48.7239" lon="7.19153">
        <ele>255.2</ele>
        <time>2020-05-22T12:56:58Z</time>
      </trkpt>
      <trkpt lat="48.72391" lon="7.19142">
        <ele>255.2</ele>
        <time>2020-05-22T12:57:00Z</time>
      </trkpt>
      <trkpt lat="48.72391" lon="7.19137">
        <ele>255.2</ele>
        <time>2020-05-22T12:57:01Z</time>
      </trkpt>
      <trkpt lat="48.72393" lon="7.19126">
        <ele>255.3</ele>
        <time>2020-05-22T12:57:03Z</time>
      </trkpt>
      <trkpt lat="48.72394" lon="7.1912">
        <ele>255.3</ele>
        <time>2020-05-22T12:57:04Z</time>
      </trkpt>
      <trkpt lat="48.72395" lon="7.19109">
        <ele>255.3</ele>
        <time>2020-05-22T12:57:06Z</time>
      </trkpt>
      <trkpt lat="48.72396" lon="7.19097">
        <ele>255.4</ele>
        <time>2020-05-22T12:57:08Z</time>
      </trkpt>
      <trkpt lat="48.72398" lon="7.19085">
        <ele>255.4</ele>
        <time>2020-05-22T12:57:10Z</time>
      </trkpt>
      <trkpt lat="48.72399" lon="7.19079">
        <ele>255.5</ele>
        <time>2020-05-22T12:57:11Z</time>
      </trkpt>
      <trkpt lat="48.72399" lon="7.19067">
        <ele>255.6</ele>
        <time>2020-05-22T12:57:13Z</time>
      </trkpt>
      <trkpt lat="48.72401" lon="7.19055">
        <ele>255.7</ele>
        <time>2020-05-22T12:57:15Z</time>
      </trkpt>
      <trkpt lat="48.72403" lon="7.19043">
        <ele>256</ele>
        <time>2020-05-22T12:57:17Z</time>
      </trkpt>
      <trkpt lat="48.72404" lon="7.19032">
        <ele>256.3</ele>
        <time>2020-05-22T12:57:19Z</time>
      </trkpt>
      <trkpt lat="48.72406" lon="7.19022">
        <ele>256.6</ele>
        <time>2020-05-22T12:57:21Z</time>
      </trkpt>
      <trkpt lat="48.72408" lon="7.19011">
        <ele>257</ele>
        <time>2020-05-22T12:57:23Z</time>
      </trkpt>
      <trkpt lat="48.72409" lon="7.19006">
        <ele>257.1</ele>
        <time>2020-05-22T12:57:24Z</time>
      </trkpt>
      <trkpt lat="48.72411" lon="7.18997">
        <ele>257.3</ele>
        <time>2020-05-22T12:57:26Z</time>
      </trkpt>
      <trkpt lat="48.72413" lon="7.18987">
        <ele>257.5</ele>
        <time>2020-05-22T12:57:28Z</time>
      </trkpt>
      <trkpt lat="48.72416" lon="7.18978">
        <ele>257.6</ele>
        <time>2020-05-22T12:57:30Z</time>
      </trkpt>
      <trkpt lat="48.72417" lon="7.18973">
        <ele>257.6</ele>
        <time>2020-05-22T12:57:31Z</time>
      </trkpt>
      <trkpt lat="48.72419" lon="7.18964">
        <ele>257.6</ele>
        <time>2020-05-22T12:57:33Z</time>
      </trkpt>
      <trkpt lat="48.7242" lon="7.18959">
        <ele>257.6</ele>
        <time>2020-05-22T12:57:34Z</time>
      </trkpt>
      <trkpt lat="48.72422" lon="7.1895">
        <ele>257.6</ele>
        <time>2020-05-22T12:57:36Z</time>
      </trkpt>
      <trkpt lat="48.72424" lon="7.1894">
        <ele>257.6</ele>
        <time>2020-05-22T12:57:38Z</time>
      </trkpt>
      <trkpt lat="48.72426" lon="7.1893">
        <ele>257.6</ele>
        <time>2020-05-22T12:57:40Z</time>
      </trkpt>
      <trkpt lat="48.72427" lon="7.18925">
        <ele>257.6</ele>
        <time>2020-05-22T12:57:41Z</time>
      </trkpt>
      <trkpt lat="48.72429" lon="7.18915">
        <ele>257.6</ele>
        <time>2020-05-22T12:57:43Z</time>
      </trkpt>
      <trkpt lat="48.72431" lon="7.18904">
        <ele>257.6</ele>
        <time>2020-05-22T12:57:45Z</time>
      </trkpt>
      <trkpt lat="48.72432" lon="7.18899">
        <ele>257.6</ele>
        <time>2020-05-22T12:57:46Z</time>
      </trkpt>
      <trkpt lat="48.72432" lon="7.18893">
        <ele>257.6</ele>
        <time>2020-05-22T12:57:47Z</time>
      </trkpt>
      <trkpt lat="48.72434" lon="7.18888">
        <ele>257.6</ele>
        <time>2020-05-22T12:57:48Z</time>
      </trkpt>
      <trkpt lat="48.72434" lon="7.18882">
        <ele>257.6</ele>
        <time>2020-05-22T12:57:49Z</time>
      </trkpt>
      <trkpt lat="48.72435" lon="7.18876">
        <ele>257.6</ele>
        <time>2020-05-22T12:57:50Z</time>
      </trkpt>
      <trkpt lat="48.72438" lon="7.18864">
        <ele>257.6</ele>
        <time>2020-05-22T12:57:52Z</time>
      </trkpt>
      <trkpt lat="48.72439" lon="7.18859">
        <ele>257.6</ele>
        <time>2020-05-22T12:57:53Z</time>
      </trkpt>
      <trkpt lat="48.7244" lon="7.18854">
        <ele>257.6</ele>
        <time>2020-05-22T12:57:54Z</time>
      </trkpt>
      <trkpt lat="48.72441" lon="7.18842">
        <ele>257.6</ele>
        <time>2020-05-22T12:57:56Z</time>
      </trkpt>
      <trkpt lat="48.72442" lon="7.18836">
        <ele>257.6</ele>
        <time>2020-05-22T12:57:57Z</time>
      </trkpt>
      <trkpt lat="48.72443" lon="7.1883">
        <ele>257.6</ele>
        <time>2020-05-22T12:57:58Z</time>
      </trkpt>
      <trkpt lat="48.72446" lon="7.18819">
        <ele>257.6</ele>
        <time>2020-05-22T12:58:00Z</time>
      </trkpt>
      <trkpt lat="48.72448" lon="7.18807">
        <ele>257.6</ele>
        <time>2020-05-22T12:58:02Z</time>
      </trkpt>
      <trkpt lat="48.72449" lon="7.18801">
        <ele>257.6</ele>
        <time>2020-05-22T12:58:03Z</time>
      </trkpt>
      <trkpt lat="48.72453" lon="7.1879">
        <ele>257.7</ele>
        <time>2020-05-22T12:58:05Z</time>
      </trkpt>
      <trkpt lat="48.72455" lon="7.18784">
        <ele>257.7</ele>
        <time>2020-05-22T12:58:06Z</time>
      </trkpt>
      <trkpt lat="48.72457" lon="7.18778">
        <ele>257.7</ele>
        <time>2020-05-22T12:58:07Z</time>
      </trkpt>
      <trkpt lat="48.72459" lon="7.18773">
        <ele>257.8</ele>
        <time>2020-05-22T12:58:08Z</time>
      </trkpt>
      <trkpt lat="48.72461" lon="7.18768">
        <ele>257.8</ele>
        <time>2020-05-22T12:58:09Z</time>
      </trkpt>
      <trkpt lat="48.72466" lon="7.18757">
        <ele>257.9</ele>
        <time>2020-05-22T12:58:11Z</time>
      </trkpt>
      <trkpt lat="48.72471" lon="7.18747">
        <ele>258.1</ele>
        <time>2020-05-22T12:58:13Z</time>
      </trkpt>
      <trkpt lat="48.72473" lon="7.18743">
        <ele>258.2</ele>
        <time>2020-05-22T12:58:14Z</time>
      </trkpt>
      <trkpt lat="48.72478" lon="7.18733">
        <ele>258.4</ele>
        <time>2020-05-22T12:58:16Z</time>
      </trkpt>
      <trkpt lat="48.7248" lon="7.18729">
        <ele>258.6</ele>
        <time>2020-05-22T12:58:17Z</time>
      </trkpt>
      <trkpt lat="48.72482" lon="7.18726">
        <ele>258.7</ele>
        <time>2020-05-22T12:58:18Z</time>
      </trkpt>
      <trkpt lat="48.72486" lon="7.1872">
        <ele>259</ele>
        <time>2020-05-22T12:58:20Z</time>
      </trkpt>
      <trkpt lat="48.72491" lon="7.18715">
        <ele>259.2</ele>
        <time>2020-05-22T12:58:22Z</time>
      </trkpt>
      <trkpt lat="48.72493" lon="7.18712">
        <ele>259.4</ele>
        <time>2020-05-22T12:58:23Z</time>
      </trkpt>
      <trkpt lat="48.72497" lon="7.18707">
        <ele>259.6</ele>
        <time>2020-05-22T12:58:25Z</time>
      </trkpt>
      <trkpt lat="48.725" lon="7.18704">
        <ele>259.7</ele>
        <time>2020-05-22T12:58:26Z</time>
      </trkpt>
      <trkpt lat="48.72504" lon="7.18699">
        <ele>260</ele>
        <time>2020-05-22T12:58:28Z</time>
      </trkpt>
      <trkpt lat="48.72508" lon="7.18693">
        <ele>260.1</ele>
        <time>2020-05-22T12:58:30Z</time>
      </trkpt>
      <trkpt lat="48.72511" lon="7.18691">
        <ele>260.2</ele>
        <time>2020-05-22T12:58:31Z</time>
      </trkpt>
      <trkpt lat="48.72514" lon="7.18688">
        <ele>260.2</ele>
        <time>2020-05-22T12:58:32Z</time>
      </trkpt>
      <trkpt lat="48.72519" lon="7.1868">
        <ele>260.3</ele>
        <time>2020-05-22T12:58:34Z</time>
      </trkpt>
      <trkpt lat="48.72523" lon="7.18673">
        <ele>260.3</ele>
        <time>2020-05-22T12:58:36Z</time>
      </trkpt>
      <trkpt lat="48.72525" lon="7.18669">
        <ele>260.3</ele>
        <time>2020-05-22T12:58:37Z</time>
      </trkpt>
      <trkpt lat="48.72526" lon="7.18665">
        <ele>260.3</ele>
        <time>2020-05-22T12:58:38Z</time>
      </trkpt>
      <trkpt lat="48.72529" lon="7.18657">
        <ele>260.3</ele>
        <time>2020-05-22T12:58:40Z</time>
      </trkpt>
      <trkpt lat="48.7253" lon="7.18651">
        <ele>260.4</ele>
        <time>2020-05-22T12:58:41Z</time>
      </trkpt>
      <trkpt lat="48.72531" lon="7.18649">
        <ele>260.5</ele>
        <time>2020-05-22T12:58:42Z</time>
      </trkpt>
      <trkpt lat="48.72532" lon="7.18639">
        <ele>260.7</ele>
        <time>2020-05-22T12:58:44Z</time>
      </trkpt>
      <trkpt lat="48.72532" lon="7.18634">
        <ele>260.8</ele>
        <time>2020-05-22T12:58:45Z</time>
      </trkpt>
      <trkpt lat="48.72532" lon="7.18625">
        <ele>261</ele>
        <time>2020-05-22T12:58:47Z</time>
      </trkpt>
      <trkpt lat="48.72533" lon="7.18615">
        <ele>261.3</ele>
        <time>2020-05-22T12:58:49Z</time>
      </trkpt>
      <trkpt lat="48.72534" lon="7.18611">
        <ele>261.4</ele>
        <time>2020-05-22T12:58:50Z</time>
      </trkpt>
      <trkpt lat="48.72535" lon="7.18602">
        <ele>261.6</ele>
        <time>2020-05-22T12:58:52Z</time>
      </trkpt>
      <trkpt lat="48.72535" lon="7.18598">
        <ele>261.8</ele>
        <time>2020-05-22T12:58:53Z</time>
      </trkpt>
      <trkpt lat="48.72536" lon="7.18589">
        <ele>262</ele>
        <time>2020-05-22T12:58:55Z</time>
      </trkpt>
      <trkpt lat="48.72537" lon="7.18579">
        <ele>262.3</ele>
        <time>2020-05-22T12:58:57Z</time>
      </trkpt>
      <trkpt lat="48.72537" lon="7.18575">
        <ele>262.5</ele>
        <time>2020-05-22T12:58:58Z</time>
      </trkpt>
      <trkpt lat="48.72537" lon="7.18567">
        <ele>262.9</ele>
        <time>2020-05-22T12:59:00Z</time>
      </trkpt>
      <trkpt lat="48.72537" lon="7.18562">
        <ele>262.9</ele>
        <time>2020-05-22T12:59:01Z</time>
      </trkpt>
      <trkpt lat="48.72537" lon="7.18555">
        <ele>262.9</ele>
        <time>2020-05-22T12:59:03Z</time>
      </trkpt>
      <trkpt lat="48.72537" lon="7.18551">
        <ele>262.9</ele>
        <time>2020-05-22T12:59:04Z</time>
      </trkpt>
      <trkpt lat="48.72537" lon="7.18542">
        <ele>263</ele>
        <time>2020-05-22T12:59:06Z</time>
      </trkpt>
      <trkpt lat="48.72535" lon="7.18534">
        <ele>263.1</ele>
        <time>2020-05-22T12:59:08Z</time>
      </trkpt>
      <trkpt lat="48.72533" lon="7.1853">
        <ele>263.1</ele>
        <time>2020-05-22T12:59:09Z</time>
      </trkpt>
      <trkpt lat="48.72529" lon="7.18523">
        <ele>263.2</ele>
        <time>2020-05-22T12:59:11Z</time>
      </trkpt>
      <trkpt lat="48.72528" lon="7.18519">
        <ele>263.2</ele>
        <time>2020-05-22T12:59:12Z</time>
      </trkpt>
      <trkpt lat="48.72524" lon="7.18511">
        <ele>263.3</ele>
        <time>2020-05-22T12:59:14Z</time>
      </trkpt>
      <trkpt lat="48.72522" lon="7.18508">
        <ele>263.4</ele>
        <time>2020-05-22T12:59:15Z</time>
      </trkpt>
      <trkpt lat="48.72519" lon="7.18499">
        <ele>263.5</ele>
        <time>2020-05-22T12:59:17Z</time>
      </trkpt>
      <trkpt lat="48.72518" lon="7.18495">
        <ele>263.6</ele>
        <time>2020-05-22T12:59:18Z</time>
      </trkpt>
      <trkpt lat="48.72515" lon="7.18486">
        <ele>263.8</ele>
        <time>2020-05-22T12:59:20Z</time>
      </trkpt>
      <trkpt lat="48.72514" lon="7.18482">
        <ele>263.9</ele>
        <time>2020-05-22T12:59:21Z</time>
      </trkpt>
      <trkpt lat="48.72512" lon="7.18474">
        <ele>264.1</ele>
        <time>2020-05-22T12:59:23Z</time>
      </trkpt>
      <trkpt lat="48.72511" lon="7.1847">
        <ele>264.2</ele>
        <time>2020-05-22T12:59:24Z</time>
      </trkpt>
      <trkpt lat="48.72509" lon="7.18463">
        <ele>264.3</ele>
        <time>2020-05-22T12:59:26Z</time>
      </trkpt>
      <trkpt lat="48.72509" lon="7.18459">
        <ele>264.4</ele>
        <time>2020-05-22T12:59:27Z</time>
      </trkpt>
      <trkpt lat="48.72508" lon="7.18452">
        <ele>264.6</ele>
        <time>2020-05-22T12:59:29Z</time>
      </trkpt>
      <trkpt lat="48.72507" lon="7.18448">
        <ele>264.7</ele>
        <time>2020-05-22T12:59:30Z</time>
      </trkpt>
      <trkpt lat="48.72507" lon="7.18444">
        <ele>264.7</ele>
        <time>2020-05-22T12:59:31Z</time>
      </trkpt>
      <trkpt lat="48.72507" lon="7.18434">
        <ele>264.9</ele>
        <time>2020-05-22T12:59:33Z</time>
      </trkpt>
      <trkpt lat="48.72508" lon="7.18426">
        <ele>265</ele>
        <time>2020-05-22T12:59:35Z</time>
      </trkpt>
      <trkpt lat="48.72509" lon="7.1842">
        <ele>265.1</ele>
        <time>2020-05-22T12:59:36Z</time>
      </trkpt>
      <trkpt lat="48.7251" lon="7.18419">
        <ele>265.1</ele>
        <time>2020-05-22T12:59:37Z</time>
      </trkpt>
      <trkpt lat="48.72511" lon="7.18415">
        <ele>265.2</ele>
        <time>2020-05-22T12:59:38Z</time>
      </trkpt>
      <trkpt lat="48.72512" lon="7.18409">
        <ele>265.3</ele>
        <time>2020-05-22T12:59:40Z</time>
      </trkpt>
      <trkpt lat="48.72513" lon="7.18402">
        <ele>265.4</ele>
        <time>2020-05-22T12:59:42Z</time>
      </trkpt>
      <trkpt lat="48.72512" lon="7.18394">
        <ele>265.5</ele>
        <time>2020-05-22T12:59:44Z</time>
      </trkpt>
      <trkpt lat="48.72511" lon="7.18391">
        <ele>265.5</ele>
        <time>2020-05-22T12:59:45Z</time>
      </trkpt>
      <trkpt lat="48.72509" lon="7.18383">
        <ele>265.6</ele>
        <time>2020-05-22T12:59:47Z</time>
      </trkpt>
      <trkpt lat="48.72507" lon="7.18375">
        <ele>265.6</ele>
        <time>2020-05-22T12:59:49Z</time>
      </trkpt>
      <trkpt lat="48.72505" lon="7.18367">
        <ele>265.7</ele>
        <time>2020-05-22T12:59:51Z</time>
      </trkpt>
      <trkpt lat="48.72504" lon="7.18363">
        <ele>265.7</ele>
        <time>2020-05-22T12:59:52Z</time>
      </trkpt>
      <trkpt lat="48.72503" lon="7.18359">
        <ele>265.8</ele>
        <time>2020-05-22T12:59:53Z</time>
      </trkpt>
      <trkpt lat="48.72501" lon="7.18351">
        <ele>265.8</ele>
        <time>2020-05-22T12:59:55Z</time>
      </trkpt>
      <trkpt lat="48.72499" lon="7.18343">
        <ele>265.8</ele>
        <time>2020-05-22T12:59:57Z</time>
      </trkpt>
      <trkpt lat="48.72496" lon="7.18335">
        <ele>265.9</ele>
        <time>2020-05-22T12:59:59Z</time>
      </trkpt>
      <trkpt lat="48.72494" lon="7.18326">
        <ele>265.9</ele>
        <time>2020-05-22T13:00:01Z</time>
      </trkpt>
      <trkpt lat="48.72492" lon="7.18318">
        <ele>265.9</ele>
        <time>2020-05-22T13:00:03Z</time>
      </trkpt>
      <trkpt lat="48.7249" lon="7.18309">
        <ele>265.9</ele>
        <time>2020-05-22T13:00:05Z</time>
      </trkpt>
      <trkpt lat="48.72488" lon="7.18298">
        <ele>265.9</ele>
        <time>2020-05-22T13:00:07Z</time>
      </trkpt>
      <trkpt lat="48.72485" lon="7.18288">
        <ele>266</ele>
        <time>2020-05-22T13:00:09Z</time>
      </trkpt>
      <trkpt lat="48.72482" lon="7.18279">
        <ele>266.1</ele>
        <time>2020-05-22T13:00:11Z</time>
      </trkpt>
      <trkpt lat="48.72481" lon="7.18274">
        <ele>266.1</ele>
        <time>2020-05-22T13:00:12Z</time>
      </trkpt>
      <trkpt lat="48.72479" lon="7.18264">
        <ele>266.1</ele>
        <time>2020-05-22T13:00:14Z</time>
      </trkpt>
      <trkpt lat="48.72477" lon="7.18254">
        <ele>266.1</ele>
        <time>2020-05-22T13:00:16Z</time>
      </trkpt>
      <trkpt lat="48.72474" lon="7.18245">
        <ele>266.2</ele>
        <time>2020-05-22T13:00:18Z</time>
      </trkpt>
      <trkpt lat="48.72472" lon="7.18235">
        <ele>266.2</ele>
        <time>2020-05-22T13:00:20Z</time>
      </trkpt>
      <trkpt lat="48.72468" lon="7.18227">
        <ele>266.2</ele>
        <time>2020-05-22T13:00:22Z</time>
      </trkpt>
      <trkpt lat="48.72466" lon="7.18224">
        <ele>266.2</ele>
        <time>2020-05-22T13:00:23Z</time>
      </trkpt>
      <trkpt lat="48.72458" lon="7.18221">
        <ele>266.1</ele>
        <time>2020-05-22T13:00:25Z</time>
      </trkpt>
      <trkpt lat="48.72454" lon="7.18221">
        <ele>266</ele>
        <time>2020-05-22T13:00:26Z</time>
      </trkpt>
      <trkpt lat="48.7245" lon="7.1822">
        <ele>266</ele>
        <time>2020-05-22T13:00:27Z</time>
      </trkpt>
      <trkpt lat="48.72444" lon="7.18213">
        <ele>266.6</ele>
        <time>2020-05-22T13:00:29Z</time>
      </trkpt>
      <trkpt lat="48.72442" lon="7.1821">
        <ele>266.7</ele>
        <time>2020-05-22T13:00:30Z</time>
      </trkpt>
      <trkpt lat="48.72438" lon="7.18205">
        <ele>267</ele>
        <time>2020-05-22T13:00:32Z</time>
      </trkpt>
      <trkpt lat="48.72437" lon="7.18203">
        <ele>267.1</ele>
        <time>2020-05-22T13:00:33Z</time>
      </trkpt>
      <trkpt lat="48.72434" lon="7.18198">
        <ele>267.3</ele>
        <time>2020-05-22T13:00:35Z</time>
      </trkpt>
      <trkpt lat="48.72433" lon="7.18192">
        <ele>267.5</ele>
        <time>2020-05-22T13:00:36Z</time>
      </trkpt>
      <trkpt lat="48.72433" lon="7.18191">
        <ele>267.5</ele>
        <time>2020-05-22T13:00:37Z</time>
      </trkpt>
      <trkpt lat="48.72433" lon="7.18187">
        <ele>267.6</ele>
        <time>2020-05-22T13:00:38Z</time>
      </trkpt>
      <trkpt lat="48.72433" lon="7.1818">
        <ele>267.9</ele>
        <time>2020-05-22T13:00:40Z</time>
      </trkpt>
      <trkpt lat="48.72433" lon="7.18176">
        <ele>268</ele>
        <time>2020-05-22T13:00:41Z</time>
      </trkpt>
      <trkpt lat="48.72433" lon="7.18169">
        <ele>268.3</ele>
        <time>2020-05-22T13:00:43Z</time>
      </trkpt>
      <trkpt lat="48.72432" lon="7.18161">
        <ele>268.6</ele>
        <time>2020-05-22T13:00:45Z</time>
      </trkpt>
      <trkpt lat="48.72431" lon="7.18153">
        <ele>268.8</ele>
        <time>2020-05-22T13:00:47Z</time>
      </trkpt>
      <trkpt lat="48.7243" lon="7.18146">
        <ele>269.1</ele>
        <time>2020-05-22T13:00:49Z</time>
      </trkpt>
      <trkpt lat="48.7243" lon="7.18143">
        <ele>269.2</ele>
        <time>2020-05-22T13:00:50Z</time>
      </trkpt>
      <trkpt lat="48.7243" lon="7.18136">
        <ele>269.4</ele>
        <time>2020-05-22T13:00:52Z</time>
      </trkpt>
      <trkpt lat="48.72429" lon="7.18129">
        <ele>269.7</ele>
        <time>2020-05-22T13:00:54Z</time>
      </trkpt>
      <trkpt lat="48.72429" lon="7.18126">
        <ele>269.8</ele>
        <time>2020-05-22T13:00:55Z</time>
      </trkpt>
      <trkpt lat="48.72428" lon="7.18119">
        <ele>270</ele>
        <time>2020-05-22T13:00:57Z</time>
      </trkpt>
      <trkpt lat="48.72428" lon="7.18111">
        <ele>270.3</ele>
        <time>2020-05-22T13:00:59Z</time>
      </trkpt>
      <trkpt lat="48.72427" lon="7.18106">
        <ele>270.4</ele>
        <time>2020-05-22T13:01:00Z</time>
      </trkpt>
      <trkpt lat="48.72427" lon="7.18104">
        <ele>270.5</ele>
        <time>2020-05-22T13:01:01Z</time>
      </trkpt>
      <trkpt lat="48.72427" lon="7.18096">
        <ele>270.7</ele>
        <time>2020-05-22T13:01:03Z</time>
      </trkpt>
      <trkpt lat="48.72425" lon="7.1809">
        <ele>270.9</ele>
        <time>2020-05-22T13:01:05Z</time>
      </trkpt>
      <trkpt lat="48.72423" lon="7.18084">
        <ele>271.1</ele>
        <time>2020-05-22T13:01:07Z</time>
      </trkpt>
      <trkpt lat="48.72421" lon="7.18078">
        <ele>271.3</ele>
        <time>2020-05-22T13:01:09Z</time>
      </trkpt>
      <trkpt lat="48.7242" lon="7.1807">
        <ele>271.6</ele>
        <time>2020-05-22T13:01:11Z</time>
      </trkpt>
      <trkpt lat="48.72418" lon="7.18062">
        <ele>271.8</ele>
        <time>2020-05-22T13:01:13Z</time>
      </trkpt>
      <trkpt lat="48.72416" lon="7.18055">
        <ele>272</ele>
        <time>2020-05-22T13:01:15Z</time>
      </trkpt>
      <trkpt lat="48.72413" lon="7.18048">
        <ele>272.2</ele>
        <time>2020-05-22T13:01:17Z</time>
      </trkpt>
      <trkpt lat="48.72409" lon="7.18043">
        <ele>272.4</ele>
        <time>2020-05-22T13:01:19Z</time>
      </trkpt>
      <trkpt lat="48.72407" lon="7.18039">
        <ele>272.5</ele>
        <time>2020-05-22T13:01:20Z</time>
      </trkpt>
      <trkpt lat="48.72406" lon="7.18038">
        <ele>272.5</ele>
        <time>2020-05-22T13:01:21Z</time>
      </trkpt>
      <trkpt lat="48.72403" lon="7.18031">
        <ele>272.5</ele>
        <time>2020-05-22T13:01:23Z</time>
      </trkpt>
      <trkpt lat="48.724" lon="7.18025">
        <ele>272.6</ele>
        <time>2020-05-22T13:01:25Z</time>
      </trkpt>
      <trkpt lat="48.72397" lon="7.18017">
        <ele>272.7</ele>
        <time>2020-05-22T13:01:27Z</time>
      </trkpt>
      <trkpt lat="48.72393" lon="7.1801">
        <ele>272.8</ele>
        <time>2020-05-22T13:01:29Z</time>
      </trkpt>
      <trkpt lat="48.72392" lon="7.18007">
        <ele>272.8</ele>
        <time>2020-05-22T13:01:30Z</time>
      </trkpt>
      <trkpt lat="48.7239" lon="7.18003">
        <ele>272.8</ele>
        <time>2020-05-22T13:01:31Z</time>
      </trkpt>
      <trkpt lat="48.72388" lon="7.18">
        <ele>272.8</ele>
        <time>2020-05-22T13:01:32Z</time>
      </trkpt>
      <trkpt lat="48.72386" lon="7.17996">
        <ele>272.8</ele>
        <time>2020-05-22T13:01:33Z</time>
      </trkpt>
      <trkpt lat="48.72385" lon="7.17993">
        <ele>272.9</ele>
        <time>2020-05-22T13:01:34Z</time>
      </trkpt>
      <trkpt lat="48.72381" lon="7.17986">
        <ele>272.9</ele>
        <time>2020-05-22T13:01:36Z</time>
      </trkpt>
      <trkpt lat="48.72379" lon="7.17982">
        <ele>272.9</ele>
        <time>2020-05-22T13:01:37Z</time>
      </trkpt>
      <trkpt lat="48.72376" lon="7.17975">
        <ele>272.9</ele>
        <time>2020-05-22T13:01:39Z</time>
      </trkpt>
      <trkpt lat="48.72374" lon="7.17972">
        <ele>272.8</ele>
        <time>2020-05-22T13:01:40Z</time>
      </trkpt>
      <trkpt lat="48.7237" lon="7.17966">
        <ele>272.8</ele>
        <time>2020-05-22T13:01:42Z</time>
      </trkpt>
      <trkpt lat="48.72368" lon="7.17963">
        <ele>272.8</ele>
        <time>2020-05-22T13:01:43Z</time>
      </trkpt>
      <trkpt lat="48.72363" lon="7.17958">
        <ele>272.8</ele>
        <time>2020-05-22T13:01:45Z</time>
      </trkpt>
      <trkpt lat="48.72358" lon="7.17952">
        <ele>272.8</ele>
        <time>2020-05-22T13:01:47Z</time>
      </trkpt>
      <trkpt lat="48.72356" lon="7.17945">
        <ele>272.7</ele>
        <time>2020-05-22T13:01:49Z</time>
      </trkpt>
      <trkpt lat="48.72354" lon="7.17939">
        <ele>272.7</ele>
        <time>2020-05-22T13:01:51Z</time>
      </trkpt>
      <trkpt lat="48.72355" lon="7.17938">
        <ele>272.7</ele>
        <time>2020-05-22T13:01:53Z</time>
      </trkpt>
      <trkpt lat="48.72356" lon="7.17938">
        <ele>272.7</ele>
        <time>2020-05-22T13:01:54Z</time>
      </trkpt>
      <trkpt lat="48.72356" lon="7.17938">
        <ele>272.7</ele>
        <time>2020-05-22T13:01:56Z</time>
      </trkpt>
      <trkpt lat="48.72355" lon="7.17938">
        <ele>272.7</ele>
        <time>2020-05-22T13:01:58Z</time>
      </trkpt>
      <trkpt lat="48.72355" lon="7.17939">
        <ele>272.7</ele>
        <time>2020-05-22T13:02:00Z</time>
      </trkpt>
      <trkpt lat="48.72355" lon="7.1794">
        <ele>272.7</ele>
        <time>2020-05-22T13:02:01Z</time>
      </trkpt>
      <trkpt lat="48.72355" lon="7.1794">
        <ele>272.7</ele>
        <time>2020-05-22T13:02:03Z</time>
      </trkpt>
      <trkpt lat="48.72355" lon="7.1794">
        <ele>272.7</ele>
        <time>2020-05-22T13:02:05Z</time>
      </trkpt>
      <trkpt lat="48.72354" lon="7.17941">
        <ele>272.7</ele>
        <time>2020-05-22T13:02:07Z</time>
      </trkpt>
      <trkpt lat="48.72355" lon="7.17941">
        <ele>272.7</ele>
        <time>2020-05-22T13:02:08Z</time>
      </trkpt>
      <trkpt lat="48.72355" lon="7.17941">
        <ele>272.7</ele>
        <time>2020-05-22T13:02:09Z</time>
      </trkpt>
      <trkpt lat="48.72355" lon="7.17942">
        <ele>272.7</ele>
        <time>2020-05-22T13:02:10Z</time>
      </trkpt>
      <trkpt lat="48.72355" lon="7.17942">
        <ele>272.7</ele>
        <time>2020-05-22T13:02:11Z</time>
      </trkpt>
      <trkpt lat="48.7235" lon="7.17937">
        <ele>272.6</ele>
        <time>2020-05-22T13:02:45Z</time>
      </trkpt>
      <trkpt lat="48.72347" lon="7.17931">
        <ele>272.6</ele>
        <time>2020-05-22T13:02:47Z</time>
      </trkpt>
      <trkpt lat="48.72346" lon="7.17928">
        <ele>272.6</ele>
        <time>2020-05-22T13:02:48Z</time>
      </trkpt>
      <trkpt lat="48.72343" lon="7.17922">
        <ele>272.5</ele>
        <time>2020-05-22T13:02:50Z</time>
      </trkpt>
      <trkpt lat="48.72341" lon="7.17919">
        <ele>272.5</ele>
        <time>2020-05-22T13:02:51Z</time>
      </trkpt>
      <trkpt lat="48.72336" lon="7.17915">
        <ele>272.4</ele>
        <time>2020-05-22T13:02:53Z</time>
      </trkpt>
      <trkpt lat="48.72331" lon="7.17915">
        <ele>272.5</ele>
        <time>2020-05-22T13:02:55Z</time>
      </trkpt>
      <trkpt lat="48.72329" lon="7.17919">
        <ele>272.5</ele>
        <time>2020-05-22T13:02:56Z</time>
      </trkpt>
      <trkpt lat="48.72362" lon="7.17971">
        <ele>276.8</ele>
      </trkpt>
      <trkpt lat="48.72381" lon="7.18002">
        <ele>275.8</ele>
      </trkpt>
      <trkpt lat="48.72402" lon="7.18048">
        <ele>274.3</ele>
      </trkpt>
      <trkpt lat="48.72411" lon="7.1807">
        <ele>271.8</ele>
      </trkpt>
      <trkpt lat="48.72419" lon="7.1809">
        <ele>270.5</ele>
      </trkpt>
      <trkpt lat="48.72424" lon="7.18131">
        <ele>273.3</ele>
      </trkpt>
      <trkpt lat="48.72428" lon="7.18198">
        <ele>268.2</ele>
      </trkpt>
      <trkpt lat="48.72447" lon="7.18225">
        <ele>269.1</ele>
      </trkpt>
      <trkpt lat="48.72468" lon="7.18231">
        <ele>271.3</ele>
      </trkpt>
      <trkpt lat="48.72481" lon="7.18294">
        <ele>267.7</ele>
      </trkpt>
      <trkpt lat="48.72503" lon="7.18372">
        <ele>274.6</ele>
      </trkpt>
      <trkpt lat="48.72507" lon="7.18397">
        <ele>271.3</ele>
      </trkpt>
      <trkpt lat="48.72507" lon="7.1841">
        <ele>267</ele>
      </trkpt>
      <trkpt lat="48.72505" lon="7.18435">
        <ele>265.9</ele>
      </trkpt>
      <trkpt lat="48.72507" lon="7.18456">
        <ele>266.9</ele>
      </trkpt>
      <trkpt lat="48.72519" lon="7.18511">
        <ele>261.4</ele>
      </trkpt>
      <trkpt lat="48.72529" lon="7.18529">
        <ele>262.7</ele>
      </trkpt>
      <trkpt lat="48.72532" lon="7.18548">
        <ele>262.5</ele>
      </trkpt>
      <trkpt lat="48.72535" lon="7.18559">
        <ele>262.3</ele>
      </trkpt>
      <trkpt lat="48.72536" lon="7.18576">
        <ele>261.8</ele>
      </trkpt>
      <trkpt lat="48.72533" lon="7.1859">
        <ele>259.4</ele>
      </trkpt>
      <trkpt lat="48.72527" lon="7.18646">
        <ele>259.1</ele>
      </trkpt>
      <trkpt lat="48.72488" lon="7.18707">
        <ele>259.2</ele>
      </trkpt>
      <trkpt lat="48.72459" lon="7.1876">
        <ele>263.9</ele>
      </trkpt>
      <trkpt lat="48.72437" lon="7.18842">
        <ele>266.5</ele>
      </trkpt>
      <trkpt lat="48.7242" lon="7.18947">
        <ele>269.5</ele>
      </trkpt>
      <trkpt lat="48.7241" lon="7.19009">
        <ele>259.1</ele>
      </trkpt>
      <trkpt lat="48.72385" lon="7.19186">
        <ele>260.9</ele>
      </trkpt>
      <trkpt lat="48.72382" lon="7.19327">
        <ele>261.4</ele>
      </trkpt>
      <trkpt lat="48.72385" lon="7.19425">
        <ele>262.3</ele>
      </trkpt>
      <trkpt lat="48.72395" lon="7.19514">
        <ele>260</ele>
      </trkpt>
      <trkpt lat="48.72415" lon="7.19596">
        <ele>253.7</ele>
      </trkpt>
      <trkpt lat="48.72469" lon="7.19779">
        <ele>252.8</ele>
      </trkpt>
      <trkpt lat="48.72481" lon="7.19861">
        <ele>249.4</ele>
      </trkpt>
      <trkpt lat="48.72481" lon="7.19902">
        <ele>249.6</ele>
      </trkpt>
      <trkpt lat="48.72474" lon="7.19972">
        <ele>255.6</ele>
      </trkpt>
      <trkpt lat="48.72467" lon="7.20046">
        <ele>261.2</ele>
      </trkpt>
      <trkpt lat="48.72457" lon="7.20105">
        <ele>261.9</ele>
      </trkpt>
      <trkpt lat="48.72453" lon="7.20233">
        <ele>261.7</ele>
      </trkpt>
      <trkpt lat="48.72454" lon="7.20376">
        <ele>261.1</ele>
      </trkpt>
      <trkpt lat="48.72451" lon="7.20409">
        <ele>259.9</ele>
      </trkpt>
      <trkpt lat="48.7243" lon="7.20489">
        <ele>255.9</ele>
      </trkpt>
      <trkpt lat="48.72398" lon="7.20626">
        <ele>252.1</ele>
      </trkpt>
      <trkpt lat="48.72357" lon="7.20732">
        <ele>252.7</ele>
      </trkpt>
      <trkpt lat="48.72337" lon="7.20811">
        <ele>257</ele>
      </trkpt>
      <trkpt lat="48.72325" lon="7.20901">
        <ele>253.2</ele>
      </trkpt>
      <trkpt lat="48.72315" lon="7.21007">
        <ele>251.9</ele>
      </trkpt>
      <trkpt lat="48.72309" lon="7.2108">
        <ele>249.8</ele>
      </trkpt>
      <trkpt lat="48.72289" lon="7.21143">
        <ele>245.1</ele>
      </trkpt>
      <trkpt lat="48.72265" lon="7.21198">
        <ele>247</ele>
      </trkpt>
      <trkpt lat="48.72219" lon="7.21262">
        <ele>248.5</ele>
      </trkpt>
      <trkpt lat="48.72214" lon="7.21255">
        <ele>248.2</ele>
      </trkpt>
      <trkpt lat="48.7221" lon="7.21253">
        <ele>248.2</ele>
      </trkpt>
      <trkpt lat="48.72206" lon="7.21262">
        <ele>248.4</ele>
      </trkpt>
      <trkpt lat="48.72201" lon="7.21273">
        <ele>248.6</ele>
      </trkpt>
      <trkpt lat="48.72186" lon="7.21284">
        <ele>248.3</ele>
      </trkpt>
      <trkpt lat="48.72173" lon="7.21292">
        <ele>247.9</ele>
      </trkpt>
      <trkpt lat="48.72153" lon="7.21304">
        <ele>251.6</ele>
      </trkpt>
      <trkpt lat="48.72137" lon="7.21317">
        <ele>252.7</ele>
      </trkpt>
      <trkpt lat="48.72124" lon="7.21351">
        <ele>250.9</ele>
      </trkpt>
      <trkpt lat="48.72116" lon="7.21373">
        <ele>251</ele>
      </trkpt>
      <trkpt lat="48.72106" lon="7.21364">
        <ele>252.1</ele>
      </trkpt>
      <trkpt lat="48.72101" lon="7.21365">
        <ele>252.4</ele>
      </trkpt>
      <trkpt lat="48.72066" lon="7.21454">
        <ele>253.6</ele>
      </trkpt>
      <trkpt lat="48.72033" lon="7.21515">
        <ele>247.6</ele>
      </trkpt>
      <trkpt lat="48.71995" lon="7.21589">
        <ele>244.3</ele>
      </trkpt>
      <trkpt lat="48.71981" lon="7.21613">
        <ele>246</ele>
      </trkpt>
      <trkpt lat="48.7197" lon="7.21647">
        <ele>244.7</ele>
      </trkpt>
      <trkpt lat="48.7196" lon="7.21666">
        <ele>245.1</ele>
      </trkpt>
      <trkpt lat="48.71954" lon="7.21679">
        <ele>239.4</ele>
      </trkpt>
      <trkpt lat="48.71946" lon="7.21691">
        <ele>239.6</ele>
      </trkpt>
      <trkpt lat="48.71933" lon="7.21721">
        <ele>238.2</ele>
      </trkpt>
      <trkpt lat="48.71924" lon="7.21726">
        <ele>238.1</ele>
      </trkpt>
      <trkpt lat="48.71918" lon="7.2176">
        <ele>236</ele>
      </trkpt>
      <trkpt lat="48.71923" lon="7.21812">
        <ele>235.6</ele>
      </trkpt>
      <trkpt lat="48.71953" lon="7.22014">
        <ele>229.3</ele>
      </trkpt>
      <trkpt lat="48.71964" lon="7.2211">
        <ele>229.5</ele>
      </trkpt>
      <trkpt lat="48.71967" lon="7.22129">
        <ele>229.6</ele>
      </trkpt>
      <trkpt lat="48.71963" lon="7.22157">
        <ele>229.6</ele>
      </trkpt>
      <trkpt lat="48.71945" lon="7.22217">
        <ele>229.3</ele>
      </trkpt>
      <trkpt lat="48.71939" lon="7.22253">
        <ele>228.2</ele>
      </trkpt>
      <trkpt lat="48.71931" lon="7.2229">
        <ele>227.8</ele>
      </trkpt>
      <trkpt lat="48.71928" lon="7.22331">
        <ele>226.3</ele>
      </trkpt>
      <trkpt lat="48.71923" lon="7.22352">
        <ele>225.8</ele>
      </trkpt>
      <trkpt lat="48.71911" lon="7.22377">
        <ele>226.2</ele>
      </trkpt>
      <trkpt lat="48.71899" lon="7.22396">
        <ele>226.3</ele>
      </trkpt>
      <trkpt lat="48.71888" lon="7.22414">
        <ele>226.9</ele>
      </trkpt>
      <trkpt lat="48.71867" lon="7.22441">
        <ele>231.1</ele>
      </trkpt>
      <trkpt lat="48.7185" lon="7.22469">
        <ele>233.2</ele>
      </trkpt>
      <trkpt lat="48.71845" lon="7.22479">
        <ele>234.6</ele>
      </trkpt>
      <trkpt lat="48.71859" lon="7.22524">
        <ele>233.1</ele>
      </trkpt>
      <trkpt lat="48.71859" lon="7.22535">
        <ele>232.7</ele>
      </trkpt>
      <trkpt lat="48.71855" lon="7.22552">
        <ele>232.9</ele>
      </trkpt>
      <trkpt lat="48.71846" lon="7.2257">
        <ele>234.4</ele>
      </trkpt>
      <trkpt lat="48.7184" lon="7.22562">
        <ele>234.3</ele>
      </trkpt>
      <trkpt lat="48.71835" lon="7.22547">
        <ele>234.1</ele>
      </trkpt>
      <trkpt lat="48.7183" lon="7.22521">
        <ele>245.1</ele>
      </trkpt>
      <trkpt lat="48.71824" lon="7.22487">
        <ele>246.8</ele>
      </trkpt>
      <trkpt lat="48.71817" lon="7.2246">
        <ele>249.8</ele>
      </trkpt>
      <trkpt lat="48.71805" lon="7.22441">
        <ele>250.9</ele>
      </trkpt>
      <trkpt lat="48.718" lon="7.22424">
        <ele>251.2</ele>
      </trkpt>
      <trkpt lat="48.71788" lon="7.22405">
        <ele>248.3</ele>
      </trkpt>
      <trkpt lat="48.71781" lon="7.22384">
        <ele>247.6</ele>
      </trkpt>
      <trkpt lat="48.71763" lon="7.22361">
        <ele>246.4</ele>
      </trkpt>
      <trkpt lat="48.71742" lon="7.22347">
        <ele>253.7</ele>
      </trkpt>
      <trkpt lat="48.71715" lon="7.22334">
        <ele>258.1</ele>
      </trkpt>
      <trkpt lat="48.7168" lon="7.22321">
        <ele>253</ele>
      </trkpt>
      <trkpt lat="48.71656" lon="7.22306">
        <ele>257.6</ele>
      </trkpt>
      <trkpt lat="48.71627" lon="7.2228">
        <ele>255.5</ele>
      </trkpt>
      <trkpt lat="48.71603" lon="7.22274">
        <ele>255.8</ele>
      </trkpt>
      <trkpt lat="48.71583" lon="7.22267">
        <ele>258.6</ele>
      </trkpt>
      <trkpt lat="48.71563" lon="7.22257">
        <ele>259.4</ele>
      </trkpt>
      <trkpt lat="48.71546" lon="7.22247">
        <ele>250.4</ele>
      </trkpt>
      <trkpt lat="48.71535" lon="7.22238">
        <ele>250.5</ele>
      </trkpt>
      <trkpt lat="48.71519" lon="7.22229">
        <ele>251</ele>
      </trkpt>
      <trkpt lat="48.71505" lon="7.22224">
        <ele>251</ele>
      </trkpt>
      <trkpt lat="48.71493" lon="7.22211">
        <ele>254.2</ele>
      </trkpt>
      <trkpt lat="48.71479" lon="7.22195">
        <ele>252.6</ele>
      </trkpt>
      <trkpt lat="48.71468" lon="7.22173">
        <ele>251.7</ele>
      </trkpt>
      <trkpt lat="48.71461" lon="7.22155">
        <ele>243</ele>
      </trkpt>
      <trkpt lat="48.71448" lon="7.22145">
        <ele>243.6</ele>
      </trkpt>
      <trkpt lat="48.71448" lon="7.22144">
        <ele>241.6</ele>
        <time>2020-05-22T13:38:20Z</time>
      </trkpt>
      <trkpt lat="48.71445" lon="7.22141">
        <ele>241.5</ele>
        <time>2020-05-22T13:38:22Z</time>
      </trkpt>
      <trkpt lat="48.71444" lon="7.2214">
        <ele>241.4</ele>
        <time>2020-05-22T13:38:23Z</time>
      </trkpt>
      <trkpt lat="48.7144" lon="7.22138">
        <ele>241.3</ele>
        <time>2020-05-22T13:38:25Z</time>
      </trkpt>
      <trkpt lat="48.71438" lon="7.22136">
        <ele>241.2</ele>
        <time>2020-05-22T13:38:27Z</time>
      </trkpt>
      <trkpt lat="48.71434" lon="7.22133">
        <ele>241.1</ele>
        <time>2020-05-22T13:38:29Z</time>
      </trkpt>
      <trkpt lat="48.71433" lon="7.22132">
        <ele>241.1</ele>
        <time>2020-05-22T13:38:30Z</time>
      </trkpt>
      <trkpt lat="48.71431" lon="7.22128">
        <ele>241</ele>
        <time>2020-05-22T13:38:32Z</time>
      </trkpt>
      <trkpt lat="48.71429" lon="7.22125">
        <ele>241</ele>
        <time>2020-05-22T13:38:33Z</time>
      </trkpt>
      <trkpt lat="48.71426" lon="7.22123">
        <ele>240.9</ele>
        <time>2020-05-22T13:38:35Z</time>
      </trkpt>
      <trkpt lat="48.71425" lon="7.22119">
        <ele>240.8</ele>
        <time>2020-05-22T13:38:37Z</time>
      </trkpt>
      <trkpt lat="48.71423" lon="7.22115">
        <ele>240.7</ele>
        <time>2020-05-22T13:38:39Z</time>
      </trkpt>
      <trkpt lat="48.71422" lon="7.22114">
        <ele>240.7</ele>
        <time>2020-05-22T13:38:40Z</time>
      </trkpt>
      <trkpt lat="48.71419" lon="7.2211">
        <ele>240.6</ele>
        <time>2020-05-22T13:38:42Z</time>
      </trkpt>
      <trkpt lat="48.71416" lon="7.22106">
        <ele>240.5</ele>
        <time>2020-05-22T13:38:44Z</time>
      </trkpt>
      <trkpt lat="48.71413" lon="7.22103">
        <ele>240.5</ele>
        <time>2020-05-22T13:38:46Z</time>
      </trkpt>
      <trkpt lat="48.71412" lon="7.22098">
        <ele>240.4</ele>
        <time>2020-05-22T13:38:48Z</time>
      </trkpt>
      <trkpt lat="48.71411" lon="7.22096">
        <ele>240.4</ele>
        <time>2020-05-22T13:38:49Z</time>
      </trkpt>
      <trkpt lat="48.71408" lon="7.22093">
        <ele>240.4</ele>
        <time>2020-05-22T13:38:51Z</time>
      </trkpt>
      <trkpt lat="48.71405" lon="7.22089">
        <ele>240.3</ele>
        <time>2020-05-22T13:38:53Z</time>
      </trkpt>
      <trkpt lat="48.71404" lon="7.22088">
        <ele>240.3</ele>
        <time>2020-05-22T13:38:54Z</time>
      </trkpt>
      <trkpt lat="48.71403" lon="7.22086">
        <ele>240.3</ele>
        <time>2020-05-22T13:38:55Z</time>
      </trkpt>
      <trkpt lat="48.71401" lon="7.22082">
        <ele>240.2</ele>
        <time>2020-05-22T13:38:57Z</time>
      </trkpt>
      <trkpt lat="48.71401" lon="7.22081">
        <ele>240.2</ele>
        <time>2020-05-22T13:38:58Z</time>
      </trkpt>
      <trkpt lat="48.71398" lon="7.22077">
        <ele>240.1</ele>
        <time>2020-05-22T13:39:00Z</time>
      </trkpt>
      <trkpt lat="48.71396" lon="7.22074">
        <ele>240</ele>
        <time>2020-05-22T13:39:02Z</time>
      </trkpt>
      <trkpt lat="48.71395" lon="7.22072">
        <ele>239.9</ele>
        <time>2020-05-22T13:39:03Z</time>
      </trkpt>
      <trkpt lat="48.71392" lon="7.22069">
        <ele>241.3</ele>
        <time>2020-05-22T13:39:05Z</time>
      </trkpt>
      <trkpt lat="48.71391" lon="7.22068">
        <ele>241.5</ele>
        <time>2020-05-22T13:39:06Z</time>
      </trkpt>
      <trkpt lat="48.71388" lon="7.22064">
        <ele>242</ele>
        <time>2020-05-22T13:39:08Z</time>
      </trkpt>
      <trkpt lat="48.71387" lon="7.22063">
        <ele>242.3</ele>
        <time>2020-05-22T13:39:10Z</time>
      </trkpt>
      <trkpt lat="48.71386" lon="7.2206">
        <ele>242.6</ele>
        <time>2020-05-22T13:39:11Z</time>
      </trkpt>
      <trkpt lat="48.71384" lon="7.22057">
        <ele>242.9</ele>
        <time>2020-05-22T13:39:13Z</time>
      </trkpt>
      <trkpt lat="48.71383" lon="7.22054">
        <ele>243.2</ele>
        <time>2020-05-22T13:39:15Z</time>
      </trkpt>
      <trkpt lat="48.71383" lon="7.22053">
        <ele>243.3</ele>
        <time>2020-05-22T13:39:16Z</time>
      </trkpt>
      <trkpt lat="48.7138" lon="7.22049">
        <ele>243.8</ele>
        <time>2020-05-22T13:39:18Z</time>
      </trkpt>
      <trkpt lat="48.71379" lon="7.22048">
        <ele>244</ele>
        <time>2020-05-22T13:39:19Z</time>
      </trkpt>
      <trkpt lat="48.71377" lon="7.22045">
        <ele>244.3</ele>
        <time>2020-05-22T13:39:21Z</time>
      </trkpt>
      <trkpt lat="48.71376" lon="7.22043">
        <ele>244.6</ele>
        <time>2020-05-22T13:39:22Z</time>
      </trkpt>
      <trkpt lat="48.71376" lon="7.22041">
        <ele>244.7</ele>
        <time>2020-05-22T13:39:24Z</time>
      </trkpt>
      <trkpt lat="48.71375" lon="7.2204">
        <ele>244.9</ele>
        <time>2020-05-22T13:39:25Z</time>
      </trkpt>
      <trkpt lat="48.71374" lon="7.22038">
        <ele>245.2</ele>
        <time>2020-05-22T13:39:27Z</time>
      </trkpt>
      <trkpt lat="48.71371" lon="7.22036">
        <ele>245.6</ele>
        <time>2020-05-22T13:39:29Z</time>
      </trkpt>
      <trkpt lat="48.71368" lon="7.22033">
        <ele>246.2</ele>
        <time>2020-05-22T13:39:31Z</time>
      </trkpt>
      <trkpt lat="48.71367" lon="7.22032">
        <ele>246.4</ele>
        <time>2020-05-22T13:39:32Z</time>
      </trkpt>
      <trkpt lat="48.71365" lon="7.22029">
        <ele>246.7</ele>
        <time>2020-05-22T13:39:34Z</time>
      </trkpt>
      <trkpt lat="48.71365" lon="7.22025">
        <ele>247.2</ele>
        <time>2020-05-22T13:39:36Z</time>
      </trkpt>
      <trkpt lat="48.71365" lon="7.22023">
        <ele>247.4</ele>
        <time>2020-05-22T13:39:37Z</time>
      </trkpt>
      <trkpt lat="48.71363" lon="7.22019">
        <ele>247.8</ele>
        <time>2020-05-22T13:39:39Z</time>
      </trkpt>
      <trkpt lat="48.7136" lon="7.22016">
        <ele>248.4</ele>
        <time>2020-05-22T13:39:41Z</time>
      </trkpt>
      <trkpt lat="48.71357" lon="7.22011">
        <ele>248.9</ele>
        <time>2020-05-22T13:39:43Z</time>
      </trkpt>
      <trkpt lat="48.71355" lon="7.22009">
        <ele>249.2</ele>
        <time>2020-05-22T13:39:44Z</time>
      </trkpt>
      <trkpt lat="48.71353" lon="7.22006">
        <ele>249.6</ele>
        <time>2020-05-22T13:39:46Z</time>
      </trkpt>
      <trkpt lat="48.71352" lon="7.22005">
        <ele>249.8</ele>
        <time>2020-05-22T13:39:47Z</time>
      </trkpt>
      <trkpt lat="48.71349" lon="7.22001">
        <ele>250.2</ele>
        <time>2020-05-22T13:39:49Z</time>
      </trkpt>
      <trkpt lat="48.71348" lon="7.21997">
        <ele>250.7</ele>
        <time>2020-05-22T13:39:51Z</time>
      </trkpt>
      <trkpt lat="48.71346" lon="7.21995">
        <ele>250.9</ele>
        <time>2020-05-22T13:39:52Z</time>
      </trkpt>
      <trkpt lat="48.71345" lon="7.21994">
        <ele>251.1</ele>
        <time>2020-05-22T13:39:53Z</time>
      </trkpt>
      <trkpt lat="48.71342" lon="7.21991">
        <ele>251.7</ele>
        <time>2020-05-22T13:39:55Z</time>
      </trkpt>
      <trkpt lat="48.71339" lon="7.21989">
        <ele>252.4</ele>
        <time>2020-05-22T13:39:57Z</time>
      </trkpt>
      <trkpt lat="48.71337" lon="7.21986">
        <ele>253</ele>
        <time>2020-05-22T13:39:59Z</time>
      </trkpt>
      <trkpt lat="48.71336" lon="7.21985">
        <ele>253.2</ele>
        <time>2020-05-22T13:40:00Z</time>
      </trkpt>
      <trkpt lat="48.71335" lon="7.21983">
        <ele>253.4</ele>
        <time>2020-05-22T13:40:01Z</time>
      </trkpt>
      <trkpt lat="48.71332" lon="7.21981">
        <ele>254</ele>
        <time>2020-05-22T13:40:03Z</time>
      </trkpt>
      <trkpt lat="48.71331" lon="7.2198">
        <ele>254.3</ele>
        <time>2020-05-22T13:40:04Z</time>
      </trkpt>
      <trkpt lat="48.71329" lon="7.21977">
        <ele>254.8</ele>
        <time>2020-05-22T13:40:06Z</time>
      </trkpt>
      <trkpt lat="48.71327" lon="7.21976">
        <ele>255.1</ele>
        <time>2020-05-22T13:40:07Z</time>
      </trkpt>
      <trkpt lat="48.71324" lon="7.21971">
        <ele>255.8</ele>
        <time>2020-05-22T13:40:09Z</time>
      </trkpt>
      <trkpt lat="48.71323" lon="7.21968">
        <ele>256.2</ele>
        <time>2020-05-22T13:40:10Z</time>
      </trkpt>
      <trkpt lat="48.71321" lon="7.21965">
        <ele>256.8</ele>
        <time>2020-05-22T13:40:12Z</time>
      </trkpt>
      <trkpt lat="48.7132" lon="7.21964">
        <ele>256.9</ele>
        <time>2020-05-22T13:40:13Z</time>
      </trkpt>
      <trkpt lat="48.7132" lon="7.21961">
        <ele>257.3</ele>
        <time>2020-05-22T13:40:15Z</time>
      </trkpt>
      <trkpt lat="48.71319" lon="7.21959">
        <ele>257.6</ele>
        <time>2020-05-22T13:40:16Z</time>
      </trkpt>
      <trkpt lat="48.71318" lon="7.21955">
        <ele>258</ele>
        <time>2020-05-22T13:40:18Z</time>
      </trkpt>
      <trkpt lat="48.71315" lon="7.21954">
        <ele>258.5</ele>
        <time>2020-05-22T13:40:20Z</time>
      </trkpt>
      <trkpt lat="48.71312" lon="7.21952">
        <ele>259</ele>
        <time>2020-05-22T13:40:22Z</time>
      </trkpt>
      <trkpt lat="48.71311" lon="7.21949">
        <ele>259.3</ele>
        <time>2020-05-22T13:40:23Z</time>
      </trkpt>
      <trkpt lat="48.7131" lon="7.21946">
        <ele>259.5</ele>
        <time>2020-05-22T13:40:25Z</time>
      </trkpt>
      <trkpt lat="48.71309" lon="7.21944">
        <ele>259.8</ele>
        <time>2020-05-22T13:40:27Z</time>
      </trkpt>
      <trkpt lat="48.71306" lon="7.21942">
        <ele>260</ele>
        <time>2020-05-22T13:40:29Z</time>
      </trkpt>
      <trkpt lat="48.71304" lon="7.21941">
        <ele>260.2</ele>
        <time>2020-05-22T13:40:30Z</time>
      </trkpt>
      <trkpt lat="48.71302" lon="7.21941">
        <ele>260.5</ele>
        <time>2020-05-22T13:40:32Z</time>
      </trkpt>
      <trkpt lat="48.71301" lon="7.21941">
        <ele>260.6</ele>
        <time>2020-05-22T13:40:33Z</time>
      </trkpt>
      <trkpt lat="48.71299" lon="7.2194">
        <ele>260.8</ele>
        <time>2020-05-22T13:40:34Z</time>
      </trkpt>
      <trkpt lat="48.71295" lon="7.21939">
        <ele>261.2</ele>
        <time>2020-05-22T13:40:36Z</time>
      </trkpt>
      <trkpt lat="48.71294" lon="7.21937">
        <ele>261.4</ele>
        <time>2020-05-22T13:40:37Z</time>
      </trkpt>
      <trkpt lat="48.71291" lon="7.21935">
        <ele>262</ele>
        <time>2020-05-22T13:40:39Z</time>
      </trkpt>
      <trkpt lat="48.71289" lon="7.21935">
        <ele>262.3</ele>
        <time>2020-05-22T13:40:41Z</time>
      </trkpt>
      <trkpt lat="48.71288" lon="7.21935">
        <ele>262.5</ele>
        <time>2020-05-22T13:40:42Z</time>
      </trkpt>
      <trkpt lat="48.71285" lon="7.21935">
        <ele>263</ele>
        <time>2020-05-22T13:40:44Z</time>
      </trkpt>
      <trkpt lat="48.71284" lon="7.21934">
        <ele>263.1</ele>
        <time>2020-05-22T13:40:45Z</time>
      </trkpt>
      <trkpt lat="48.71283" lon="7.21934">
        <ele>263.3</ele>
        <time>2020-05-22T13:40:46Z</time>
      </trkpt>
      <trkpt lat="48.7128" lon="7.21932">
        <ele>263.8</ele>
        <time>2020-05-22T13:40:48Z</time>
      </trkpt>
      <trkpt lat="48.71278" lon="7.21931">
        <ele>264.2</ele>
        <time>2020-05-22T13:40:49Z</time>
      </trkpt>
      <trkpt lat="48.71277" lon="7.21931">
        <ele>264.4</ele>
        <time>2020-05-22T13:40:50Z</time>
      </trkpt>
      <trkpt lat="48.71276" lon="7.2193">
        <ele>264.6</ele>
        <time>2020-05-22T13:40:51Z</time>
      </trkpt>
      <trkpt lat="48.71274" lon="7.21929">
        <ele>265</ele>
        <time>2020-05-22T13:40:53Z</time>
      </trkpt>
      <trkpt lat="48.71271" lon="7.21927">
        <ele>265.5</ele>
        <time>2020-05-22T13:40:55Z</time>
      </trkpt>
      <trkpt lat="48.71268" lon="7.21926">
        <ele>266</ele>
        <time>2020-05-22T13:40:57Z</time>
      </trkpt>
      <trkpt lat="48.71267" lon="7.21925">
        <ele>266.2</ele>
        <time>2020-05-22T13:40:58Z</time>
      </trkpt>
      <trkpt lat="48.71264" lon="7.21925">
        <ele>266.7</ele>
        <time>2020-05-22T13:41:00Z</time>
      </trkpt>
      <trkpt lat="48.71261" lon="7.21925">
        <ele>267.1</ele>
        <time>2020-05-22T13:41:02Z</time>
      </trkpt>
      <trkpt lat="48.71259" lon="7.21924">
        <ele>267.4</ele>
        <time>2020-05-22T13:41:04Z</time>
      </trkpt>
      <trkpt lat="48.71257" lon="7.21924">
        <ele>267.7</ele>
        <time>2020-05-22T13:41:05Z</time>
      </trkpt>
      <trkpt lat="48.71253" lon="7.21923">
        <ele>268.1</ele>
        <time>2020-05-22T13:41:07Z</time>
      </trkpt>
      <trkpt lat="48.71251" lon="7.21923">
        <ele>268.5</ele>
        <time>2020-05-22T13:41:09Z</time>
      </trkpt>
      <trkpt lat="48.71249" lon="7.21922">
        <ele>268.8</ele>
        <time>2020-05-22T13:41:10Z</time>
      </trkpt>
      <trkpt lat="48.71247" lon="7.2192">
        <ele>269</ele>
        <time>2020-05-22T13:41:11Z</time>
      </trkpt>
      <trkpt lat="48.71244" lon="7.2192">
        <ele>269.4</ele>
        <time>2020-05-22T13:41:13Z</time>
      </trkpt>
      <trkpt lat="48.71244" lon="7.2192">
        <ele>269.5</ele>
        <time>2020-05-22T13:41:14Z</time>
      </trkpt>
      <trkpt lat="48.71242" lon="7.21919">
        <ele>269.8</ele>
        <time>2020-05-22T13:41:16Z</time>
      </trkpt>
      <trkpt lat="48.71239" lon="7.21919">
        <ele>270.1</ele>
        <time>2020-05-22T13:41:18Z</time>
      </trkpt>
      <trkpt lat="48.71235" lon="7.21917">
        <ele>270.7</ele>
        <time>2020-05-22T13:41:20Z</time>
      </trkpt>
      <trkpt lat="48.71234" lon="7.21917">
        <ele>270.8</ele>
        <time>2020-05-22T13:41:22Z</time>
      </trkpt>
      <trkpt lat="48.71233" lon="7.21916">
        <ele>271</ele>
        <time>2020-05-22T13:41:23Z</time>
      </trkpt>
      <trkpt lat="48.7123" lon="7.21915">
        <ele>271.4</ele>
        <time>2020-05-22T13:41:25Z</time>
      </trkpt>
      <trkpt lat="48.71227" lon="7.21914">
        <ele>271.8</ele>
        <time>2020-05-22T13:41:27Z</time>
      </trkpt>
      <trkpt lat="48.71224" lon="7.21913">
        <ele>272.2</ele>
        <time>2020-05-22T13:41:29Z</time>
      </trkpt>
      <trkpt lat="48.71223" lon="7.21913">
        <ele>272.4</ele>
        <time>2020-05-22T13:41:30Z</time>
      </trkpt>
      <trkpt lat="48.71221" lon="7.21913">
        <ele>272.6</ele>
        <time>2020-05-22T13:41:32Z</time>
      </trkpt>
      <trkpt lat="48.71219" lon="7.21913">
        <ele>273</ele>
        <time>2020-05-22T13:41:34Z</time>
      </trkpt>
      <trkpt lat="48.71218" lon="7.21912">
        <ele>273.1</ele>
        <time>2020-05-22T13:41:35Z</time>
      </trkpt>
      <trkpt lat="48.71214" lon="7.21911">
        <ele>273.6</ele>
        <time>2020-05-22T13:41:37Z</time>
      </trkpt>
      <trkpt lat="48.71211" lon="7.2191">
        <ele>274.1</ele>
        <time>2020-05-22T13:41:39Z</time>
      </trkpt>
      <trkpt lat="48.7121" lon="7.21909">
        <ele>274.2</ele>
        <time>2020-05-22T13:41:40Z</time>
      </trkpt>
      <trkpt lat="48.71209" lon="7.21909">
        <ele>274.4</ele>
        <time>2020-05-22T13:41:42Z</time>
      </trkpt>
      <trkpt lat="48.71207" lon="7.21908">
        <ele>274.6</ele>
        <time>2020-05-22T13:41:44Z</time>
      </trkpt>
      <trkpt lat="48.71204" lon="7.21908">
        <ele>275</ele>
        <time>2020-05-22T13:41:46Z</time>
      </trkpt>
      <trkpt lat="48.71201" lon="7.21908">
        <ele>275.4</ele>
        <time>2020-05-22T13:41:48Z</time>
      </trkpt>
      <trkpt lat="48.712" lon="7.21908">
        <ele>275.6</ele>
        <time>2020-05-22T13:41:49Z</time>
      </trkpt>
      <trkpt lat="48.71196" lon="7.21907">
        <ele>276.1</ele>
        <time>2020-05-22T13:41:51Z</time>
      </trkpt>
      <trkpt lat="48.71195" lon="7.21906">
        <ele>276.3</ele>
        <time>2020-05-22T13:41:52Z</time>
      </trkpt>
      <trkpt lat="48.71191" lon="7.21906">
        <ele>276.8</ele>
        <time>2020-05-22T13:41:54Z</time>
      </trkpt>
      <trkpt lat="48.71187" lon="7.21906">
        <ele>277.4</ele>
        <time>2020-05-22T13:41:56Z</time>
      </trkpt>
      <trkpt lat="48.71183" lon="7.21905">
        <ele>277.8</ele>
        <time>2020-05-22T13:41:58Z</time>
      </trkpt>
      <trkpt lat="48.71182" lon="7.21905">
        <ele>277.9</ele>
        <time>2020-05-22T13:41:59Z</time>
      </trkpt>
      <trkpt lat="48.7118" lon="7.21904">
        <ele>278.2</ele>
        <time>2020-05-22T13:42:01Z</time>
      </trkpt>
      <trkpt lat="48.71178" lon="7.21903">
        <ele>278.4</ele>
        <time>2020-05-22T13:42:02Z</time>
      </trkpt>
      <trkpt lat="48.71176" lon="7.21903">
        <ele>278.7</ele>
        <time>2020-05-22T13:42:04Z</time>
      </trkpt>
      <trkpt lat="48.71172" lon="7.21902">
        <ele>279.1</ele>
        <time>2020-05-22T13:42:06Z</time>
      </trkpt>
      <trkpt lat="48.71171" lon="7.21902">
        <ele>279.2</ele>
        <time>2020-05-22T13:42:08Z</time>
      </trkpt>
      <trkpt lat="48.7117" lon="7.21901">
        <ele>279.3</ele>
        <time>2020-05-22T13:42:09Z</time>
      </trkpt>
      <trkpt lat="48.71167" lon="7.21901">
        <ele>279.6</ele>
        <time>2020-05-22T13:42:11Z</time>
      </trkpt>
      <trkpt lat="48.71163" lon="7.219">
        <ele>280.1</ele>
        <time>2020-05-22T13:42:13Z</time>
      </trkpt>
      <trkpt lat="48.71161" lon="7.219">
        <ele>280.3</ele>
        <time>2020-05-22T13:42:15Z</time>
      </trkpt>
      <trkpt lat="48.7116" lon="7.219">
        <ele>280.4</ele>
        <time>2020-05-22T13:42:17Z</time>
      </trkpt>
      <trkpt lat="48.71158" lon="7.219">
        <ele>280.6</ele>
        <time>2020-05-22T13:42:18Z</time>
      </trkpt>
      <trkpt lat="48.71155" lon="7.219">
        <ele>280.9</ele>
        <time>2020-05-22T13:42:20Z</time>
      </trkpt>
      <trkpt lat="48.71153" lon="7.219">
        <ele>281.1</ele>
        <time>2020-05-22T13:42:21Z</time>
      </trkpt>
      <trkpt lat="48.7115" lon="7.21898">
        <ele>281.5</ele>
        <time>2020-05-22T13:42:23Z</time>
      </trkpt>
      <trkpt lat="48.71147" lon="7.21897">
        <ele>281.8</ele>
        <time>2020-05-22T13:42:25Z</time>
      </trkpt>
      <trkpt lat="48.71143" lon="7.21897">
        <ele>282.2</ele>
        <time>2020-05-22T13:42:27Z</time>
      </trkpt>
      <trkpt lat="48.7114" lon="7.21896">
        <ele>282.5</ele>
        <time>2020-05-22T13:42:29Z</time>
      </trkpt>
      <trkpt lat="48.71137" lon="7.21895">
        <ele>282.8</ele>
        <time>2020-05-22T13:42:31Z</time>
      </trkpt>
      <trkpt lat="48.71133" lon="7.21895">
        <ele>283.1</ele>
        <time>2020-05-22T13:42:33Z</time>
      </trkpt>
      <trkpt lat="48.71132" lon="7.21895">
        <ele>283.2</ele>
        <time>2020-05-22T13:42:34Z</time>
      </trkpt>
      <trkpt lat="48.71128" lon="7.21895">
        <ele>283.6</ele>
        <time>2020-05-22T13:42:36Z</time>
      </trkpt>
      <trkpt lat="48.71126" lon="7.21895">
        <ele>283.8</ele>
        <time>2020-05-22T13:42:37Z</time>
      </trkpt>
      <trkpt lat="48.71124" lon="7.21895">
        <ele>284</ele>
        <time>2020-05-22T13:42:39Z</time>
      </trkpt>
      <trkpt lat="48.71122" lon="7.21895">
        <ele>284.2</ele>
        <time>2020-05-22T13:42:41Z</time>
      </trkpt>
      <trkpt lat="48.71122" lon="7.21895">
        <ele>284.2</ele>
        <time>2020-05-22T13:42:42Z</time>
      </trkpt>
      <trkpt lat="48.71118" lon="7.21895">
        <ele>284.6</ele>
        <time>2020-05-22T13:42:44Z</time>
      </trkpt>
      <trkpt lat="48.71117" lon="7.21895">
        <ele>284.7</ele>
        <time>2020-05-22T13:42:45Z</time>
      </trkpt>
      <trkpt lat="48.71112" lon="7.21895">
        <ele>285.2</ele>
        <time>2020-05-22T13:42:47Z</time>
      </trkpt>
      <trkpt lat="48.7111" lon="7.21894">
        <ele>285.5</ele>
        <time>2020-05-22T13:42:48Z</time>
      </trkpt>
      <trkpt lat="48.71108" lon="7.21893">
        <ele>285.8</ele>
        <time>2020-05-22T13:42:50Z</time>
      </trkpt>
      <trkpt lat="48.71104" lon="7.21893">
        <ele>286.2</ele>
        <time>2020-05-22T13:42:52Z</time>
      </trkpt>
      <trkpt lat="48.71103" lon="7.21894">
        <ele>286.4</ele>
        <time>2020-05-22T13:42:53Z</time>
      </trkpt>
      <trkpt lat="48.71101" lon="7.21894">
        <ele>286.6</ele>
        <time>2020-05-22T13:42:54Z</time>
      </trkpt>
      <trkpt lat="48.71098" lon="7.21893">
        <ele>286.9</ele>
        <time>2020-05-22T13:42:56Z</time>
      </trkpt>
      <trkpt lat="48.71097" lon="7.21892">
        <ele>287.1</ele>
        <time>2020-05-22T13:42:58Z</time>
      </trkpt>
      <trkpt lat="48.71094" lon="7.21892">
        <ele>287.4</ele>
        <time>2020-05-22T13:43:00Z</time>
      </trkpt>
      <trkpt lat="48.71092" lon="7.21892">
        <ele>287.6</ele>
        <time>2020-05-22T13:43:01Z</time>
      </trkpt>
      <trkpt lat="48.7109" lon="7.21892">
        <ele>287.8</ele>
        <time>2020-05-22T13:43:02Z</time>
      </trkpt>
      <trkpt lat="48.71087" lon="7.21891">
        <ele>288.2</ele>
        <time>2020-05-22T13:43:04Z</time>
      </trkpt>
      <trkpt lat="48.71086" lon="7.2189">
        <ele>288.3</ele>
        <time>2020-05-22T13:43:05Z</time>
      </trkpt>
      <trkpt lat="48.71085" lon="7.2189">
        <ele>288.4</ele>
        <time>2020-05-22T13:43:06Z</time>
      </trkpt>
      <trkpt lat="48.71082" lon="7.2189">
        <ele>288.7</ele>
        <time>2020-05-22T13:43:08Z</time>
      </trkpt>
      <trkpt lat="48.71079" lon="7.2189">
        <ele>289.1</ele>
        <time>2020-05-22T13:43:10Z</time>
      </trkpt>
      <trkpt lat="48.71077" lon="7.21891">
        <ele>289.3</ele>
        <time>2020-05-22T13:43:11Z</time>
      </trkpt>
      <trkpt lat="48.71075" lon="7.21892">
        <ele>289.6</ele>
        <time>2020-05-22T13:43:13Z</time>
      </trkpt>
      <trkpt lat="48.71073" lon="7.21892">
        <ele>289.7</ele>
        <time>2020-05-22T13:43:14Z</time>
      </trkpt>
      <trkpt lat="48.71071" lon="7.21893">
        <ele>289.9</ele>
        <time>2020-05-22T13:43:15Z</time>
      </trkpt>
      <trkpt lat="48.71068" lon="7.21894">
        <ele>290.3</ele>
        <time>2020-05-22T13:43:17Z</time>
      </trkpt>
      <trkpt lat="48.71066" lon="7.21893">
        <ele>290.6</ele>
        <time>2020-05-22T13:43:19Z</time>
      </trkpt>
      <trkpt lat="48.71062" lon="7.21893">
        <ele>290.9</ele>
        <time>2020-05-22T13:43:22Z</time>
      </trkpt>
      <trkpt lat="48.71061" lon="7.21894">
        <ele>291.1</ele>
        <time>2020-05-22T13:43:23Z</time>
      </trkpt>
      <trkpt lat="48.71059" lon="7.21894">
        <ele>291.3</ele>
        <time>2020-05-22T13:43:25Z</time>
      </trkpt>
      <trkpt lat="48.71057" lon="7.21894">
        <ele>291.5</ele>
        <time>2020-05-22T13:43:26Z</time>
      </trkpt>
      <trkpt lat="48.71054" lon="7.21893">
        <ele>291.8</ele>
        <time>2020-05-22T13:43:28Z</time>
      </trkpt>
      <trkpt lat="48.71053" lon="7.21893">
        <ele>292</ele>
        <time>2020-05-22T13:43:29Z</time>
      </trkpt>
      <trkpt lat="48.71052" lon="7.21892">
        <ele>292.1</ele>
        <time>2020-05-22T13:43:30Z</time>
      </trkpt>
      <trkpt lat="48.71049" lon="7.2189">
        <ele>292.4</ele>
        <time>2020-05-22T13:43:32Z</time>
      </trkpt>
      <trkpt lat="48.71046" lon="7.2189">
        <ele>292.8</ele>
        <time>2020-05-22T13:43:34Z</time>
      </trkpt>
      <trkpt lat="48.71044" lon="7.2189">
        <ele>293</ele>
        <time>2020-05-22T13:43:35Z</time>
      </trkpt>
      <trkpt lat="48.71043" lon="7.2189">
        <ele>293.2</ele>
        <time>2020-05-22T13:43:36Z</time>
      </trkpt>
      <trkpt lat="48.71041" lon="7.2189">
        <ele>293.4</ele>
        <time>2020-05-22T13:43:37Z</time>
      </trkpt>
      <trkpt lat="48.71038" lon="7.2189">
        <ele>293.8</ele>
        <time>2020-05-22T13:43:39Z</time>
      </trkpt>
      <trkpt lat="48.71033" lon="7.2189">
        <ele>294.6</ele>
        <time>2020-05-22T13:43:41Z</time>
      </trkpt>
      <trkpt lat="48.71032" lon="7.2189">
        <ele>294.8</ele>
        <time>2020-05-22T13:43:43Z</time>
      </trkpt>
      <trkpt lat="48.7103" lon="7.21889">
        <ele>295</ele>
        <time>2020-05-22T13:43:44Z</time>
      </trkpt>
      <trkpt lat="48.71029" lon="7.21889">
        <ele>295.3</ele>
        <time>2020-05-22T13:43:45Z</time>
      </trkpt>
      <trkpt lat="48.71024" lon="7.21889">
        <ele>296</ele>
        <time>2020-05-22T13:43:47Z</time>
      </trkpt>
      <trkpt lat="48.71021" lon="7.21889">
        <ele>296.6</ele>
        <time>2020-05-22T13:43:49Z</time>
      </trkpt>
      <trkpt lat="48.71019" lon="7.21888">
        <ele>296.9</ele>
        <time>2020-05-22T13:43:50Z</time>
      </trkpt>
      <trkpt lat="48.71018" lon="7.21888">
        <ele>297.1</ele>
        <time>2020-05-22T13:43:51Z</time>
      </trkpt>
      <trkpt lat="48.71015" lon="7.21889">
        <ele>297.6</ele>
        <time>2020-05-22T13:43:53Z</time>
      </trkpt>
      <trkpt lat="48.71013" lon="7.2189">
        <ele>297.8</ele>
        <time>2020-05-22T13:43:54Z</time>
      </trkpt>
      <trkpt lat="48.71012" lon="7.2189">
        <ele>298.1</ele>
        <time>2020-05-22T13:43:55Z</time>
      </trkpt>
      <trkpt lat="48.71008" lon="7.21891">
        <ele>298.5</ele>
        <time>2020-05-22T13:43:57Z</time>
      </trkpt>
      <trkpt lat="48.71005" lon="7.21891">
        <ele>299</ele>
        <time>2020-05-22T13:43:59Z</time>
      </trkpt>
      <trkpt lat="48.71001" lon="7.2189">
        <ele>299.4</ele>
        <time>2020-05-22T13:44:01Z</time>
      </trkpt>
      <trkpt lat="48.70997" lon="7.21891">
        <ele>299.9</ele>
        <time>2020-05-22T13:44:03Z</time>
      </trkpt>
      <trkpt lat="48.70993" lon="7.21892">
        <ele>300.4</ele>
        <time>2020-05-22T13:44:05Z</time>
      </trkpt>
      <trkpt lat="48.70989" lon="7.21893">
        <ele>300.9</ele>
        <time>2020-05-22T13:44:07Z</time>
      </trkpt>
      <trkpt lat="48.70986" lon="7.21893">
        <ele>301.2</ele>
        <time>2020-05-22T13:44:09Z</time>
      </trkpt>
      <trkpt lat="48.70983" lon="7.21895">
        <ele>301.4</ele>
        <time>2020-05-22T13:44:11Z</time>
      </trkpt>
      <trkpt lat="48.7098" lon="7.21896">
        <ele>301.7</ele>
        <time>2020-05-22T13:44:13Z</time>
      </trkpt>
      <trkpt lat="48.70978" lon="7.21896">
        <ele>301.9</ele>
        <time>2020-05-22T13:44:14Z</time>
      </trkpt>
      <trkpt lat="48.70976" lon="7.21896">
        <ele>302</ele>
        <time>2020-05-22T13:44:15Z</time>
      </trkpt>
      <trkpt lat="48.70975" lon="7.21896">
        <ele>302.1</ele>
        <time>2020-05-22T13:44:16Z</time>
      </trkpt>
      <trkpt lat="48.70974" lon="7.21896">
        <ele>302.2</ele>
        <time>2020-05-22T13:44:17Z</time>
      </trkpt>
      <trkpt lat="48.7097" lon="7.21897">
        <ele>302.5</ele>
        <time>2020-05-22T13:44:19Z</time>
      </trkpt>
      <trkpt lat="48.70968" lon="7.21897">
        <ele>302.7</ele>
        <time>2020-05-22T13:44:21Z</time>
      </trkpt>
      <trkpt lat="48.70966" lon="7.21897">
        <ele>302.8</ele>
        <time>2020-05-22T13:44:22Z</time>
      </trkpt>
      <trkpt lat="48.70963" lon="7.21897">
        <ele>303.1</ele>
        <time>2020-05-22T13:44:24Z</time>
      </trkpt>
      <trkpt lat="48.7096" lon="7.21899">
        <ele>303.5</ele>
        <time>2020-05-22T13:44:26Z</time>
      </trkpt>
      <trkpt lat="48.70958" lon="7.21899">
        <ele>303.6</ele>
        <time>2020-05-22T13:44:27Z</time>
      </trkpt>
      <trkpt lat="48.70957" lon="7.21899">
        <ele>303.7</ele>
        <time>2020-05-22T13:44:28Z</time>
      </trkpt>
      <trkpt lat="48.70956" lon="7.219">
        <ele>303.9</ele>
        <time>2020-05-22T13:44:29Z</time>
      </trkpt>
      <trkpt lat="48.70954" lon="7.21905">
        <ele>304.3</ele>
        <time>2020-05-22T13:44:31Z</time>
      </trkpt>
      <trkpt lat="48.70952" lon="7.21907">
        <ele>304.6</ele>
        <time>2020-05-22T13:44:33Z</time>
      </trkpt>
      <trkpt lat="48.70951" lon="7.21907">
        <ele>304.7</ele>
        <time>2020-05-22T13:44:34Z</time>
      </trkpt>
      <trkpt lat="48.70949" lon="7.21907">
        <ele>304.9</ele>
        <time>2020-05-22T13:44:35Z</time>
      </trkpt>
      <trkpt lat="48.70947" lon="7.21907">
        <ele>305.1</ele>
        <time>2020-05-22T13:44:37Z</time>
      </trkpt>
      <trkpt lat="48.70944" lon="7.21908">
        <ele>305.3</ele>
        <time>2020-05-22T13:44:39Z</time>
      </trkpt>
      <trkpt lat="48.70942" lon="7.21907">
        <ele>305.5</ele>
        <time>2020-05-22T13:44:41Z</time>
      </trkpt>
      <trkpt lat="48.70941" lon="7.21908">
        <ele>305.6</ele>
        <time>2020-05-22T13:44:42Z</time>
      </trkpt>
      <trkpt lat="48.7094" lon="7.21908">
        <ele>305.7</ele>
        <time>2020-05-22T13:44:43Z</time>
      </trkpt>
      <trkpt lat="48.70937" lon="7.21908">
        <ele>306</ele>
        <time>2020-05-22T13:44:45Z</time>
      </trkpt>
      <trkpt lat="48.70934" lon="7.21909">
        <ele>306.3</ele>
        <time>2020-05-22T13:44:47Z</time>
      </trkpt>
      <trkpt lat="48.70933" lon="7.21908">
        <ele>306.4</ele>
        <time>2020-05-22T13:44:48Z</time>
      </trkpt>
      <trkpt lat="48.7093" lon="7.21908">
        <ele>306.7</ele>
        <time>2020-05-22T13:44:50Z</time>
      </trkpt>
      <trkpt lat="48.70928" lon="7.21908">
        <ele>306.9</ele>
        <time>2020-05-22T13:44:51Z</time>
      </trkpt>
      <trkpt lat="48.70926" lon="7.21908">
        <ele>307.2</ele>
        <time>2020-05-22T13:44:53Z</time>
      </trkpt>
      <trkpt lat="48.70921" lon="7.21907">
        <ele>307.7</ele>
        <time>2020-05-22T13:44:55Z</time>
      </trkpt>
      <trkpt lat="48.7092" lon="7.21907">
        <ele>307.8</ele>
        <time>2020-05-22T13:44:57Z</time>
      </trkpt>
      <trkpt lat="48.70919" lon="7.21906">
        <ele>307.9</ele>
        <time>2020-05-22T13:44:58Z</time>
      </trkpt>
      <trkpt lat="48.70917" lon="7.21906">
        <ele>308.2</ele>
        <time>2020-05-22T13:45:00Z</time>
      </trkpt>
      <trkpt lat="48.70913" lon="7.21905">
        <ele>308.5</ele>
        <time>2020-05-22T13:45:02Z</time>
      </trkpt>
      <trkpt lat="48.70912" lon="7.21905">
        <ele>308.7</ele>
        <time>2020-05-22T13:45:03Z</time>
      </trkpt>
      <trkpt lat="48.70909" lon="7.21904">
        <ele>309</ele>
        <time>2020-05-22T13:45:05Z</time>
      </trkpt>
      <trkpt lat="48.70908" lon="7.21904">
        <ele>309.1</ele>
        <time>2020-05-22T13:45:06Z</time>
      </trkpt>
      <trkpt lat="48.70906" lon="7.21903">
        <ele>309.5</ele>
        <time>2020-05-22T13:45:08Z</time>
      </trkpt>
      <trkpt lat="48.70903" lon="7.21903">
        <ele>309.8</ele>
        <time>2020-05-22T13:45:10Z</time>
      </trkpt>
      <trkpt lat="48.70901" lon="7.21902">
        <ele>310.1</ele>
        <time>2020-05-22T13:45:12Z</time>
      </trkpt>
      <trkpt lat="48.709" lon="7.21901">
        <ele>310.3</ele>
        <time>2020-05-22T13:45:13Z</time>
      </trkpt>
      <trkpt lat="48.70896" lon="7.21899">
        <ele>310.7</ele>
        <time>2020-05-22T13:45:15Z</time>
      </trkpt>
      <trkpt lat="48.70895" lon="7.21898">
        <ele>310.9</ele>
        <time>2020-05-22T13:45:16Z</time>
      </trkpt>
      <trkpt lat="48.70891" lon="7.21898">
        <ele>311.3</ele>
        <time>2020-05-22T13:45:18Z</time>
      </trkpt>
      <trkpt lat="48.7089" lon="7.21898">
        <ele>311.6</ele>
        <time>2020-05-22T13:45:19Z</time>
      </trkpt>
      <trkpt lat="48.70886" lon="7.21897">
        <ele>312</ele>
        <time>2020-05-22T13:45:21Z</time>
      </trkpt>
      <trkpt lat="48.70884" lon="7.21896">
        <ele>312.4</ele>
        <time>2020-05-22T13:45:23Z</time>
      </trkpt>
      <trkpt lat="48.70881" lon="7.21896">
        <ele>312.8</ele>
        <time>2020-05-22T13:45:25Z</time>
      </trkpt>
      <trkpt lat="48.70878" lon="7.21897">
        <ele>313.2</ele>
        <time>2020-05-22T13:45:26Z</time>
      </trkpt>
      <trkpt lat="48.70877" lon="7.21897">
        <ele>313.4</ele>
        <time>2020-05-22T13:45:27Z</time>
      </trkpt>
      <trkpt lat="48.70876" lon="7.21897">
        <ele>313.6</ele>
        <time>2020-05-22T13:45:28Z</time>
      </trkpt>
      <trkpt lat="48.70875" lon="7.21899">
        <ele>313.7</ele>
        <time>2020-05-22T13:45:29Z</time>
      </trkpt>
      <trkpt lat="48.70874" lon="7.21903">
        <ele>313.9</ele>
        <time>2020-05-22T13:45:31Z</time>
      </trkpt>
    </trkseg>
  </trk>
  <trk>
    <name><![CDATA[secteur Saverne - Dabo - Petite Pierre_25]]></name>
    <trkseg>
      <trkpt lat="48.73855" lon="7.26193">
        <ele>258.62</ele>
        <time>2020-05-21T17:09:17.000Z</time>
      </trkpt>
      <trkpt lat="48.73855" lon="7.26193">
        <ele>258.62</ele>
        <time>2020-05-21T17:09:17.000Z</time>
      </trkpt>
      <trkpt lat="48.73855" lon="7.26193">
        <ele>258.62</ele>
        <time>2020-05-21T17:09:17.000Z</time>
      </trkpt>
      <trkpt lat="48.73855" lon="7.26193">
        <ele>258.62</ele>
        <time>2020-05-21T17:09:17.000Z</time>
      </trkpt>
      <trkpt lat="48.73855" lon="7.26193">
        <ele>258.62</ele>
        <time>2020-05-21T17:09:17.000Z</time>
      </trkpt>
      <trkpt lat="48.73855" lon="7.26193">
        <ele>258.62</ele>
        <time>2020-05-21T17:09:17.000Z</time>
      </trkpt>
      <trkpt lat="48.73855" lon="7.26193">
        <ele>258.62</ele>
        <time>2020-05-21T17:09:17.000Z</time>
      </trkpt>
      <trkpt lat="48.73862" lon="7.26194">
        <ele>260.99</ele>
        <time>2020-05-21T17:09:19.000Z</time>
      </trkpt>
      <trkpt lat="48.73867" lon="7.262">
        <ele>261.63</ele>
        <time>2020-05-21T17:09:21.000Z</time>
      </trkpt>
      <trkpt lat="48.73871" lon="7.26206">
        <ele>262.29</ele>
        <time>2020-05-21T17:09:23.000Z</time>
      </trkpt>
      <trkpt lat="48.73876" lon="7.26213">
        <ele>263.7</ele>
        <time>2020-05-21T17:09:25.000Z</time>
      </trkpt>
      <trkpt lat="48.7388" lon="7.26219">
        <ele>264</ele>
        <time>2020-05-21T17:09:27.000Z</time>
      </trkpt>
      <trkpt lat="48.73884" lon="7.26224">
        <ele>264.51</ele>
        <time>2020-05-21T17:09:29.000Z</time>
      </trkpt>
    </trkseg>
  </trk>
  <trk>
    <name><![CDATA[secteur Saverne - Dabo - Petite Pierre_26]]></name>
    <trkseg>
      <trkpt lat="48.73849" lon="7.26195">
        <ele>216.6</ele>
        <time>2020-05-22T12:04:31Z</time>
      </trkpt>
      <trkpt lat="48.73849" lon="7.26195">
        <ele>216.6</ele>
        <time>2020-05-22T12:04:31Z</time>
      </trkpt>
      <trkpt lat="48.73849" lon="7.26195">
        <ele>216.6</ele>
        <time>2020-05-22T12:04:31Z</time>
      </trkpt>
      <trkpt lat="48.73849" lon="7.26195">
        <ele>216.6</ele>
        <time>2020-05-22T12:04:31Z</time>
      </trkpt>
      <trkpt lat="48.73849" lon="7.26195">
        <ele>216.6</ele>
        <time>2020-05-22T12:04:31Z</time>
      </trkpt>
      <trkpt lat="48.73849" lon="7.26195">
        <ele>216.6</ele>
        <time>2020-05-22T12:04:31Z</time>
      </trkpt>
      <trkpt lat="48.73849" lon="7.26195">
        <ele>216.6</ele>
        <time>2020-05-22T12:04:31Z</time>
      </trkpt>
      <trkpt lat="48.73847" lon="7.26191">
        <ele>216.5</ele>
        <time>2020-05-22T12:04:32Z</time>
      </trkpt>
      <trkpt lat="48.73843" lon="7.26181">
        <ele>216.2</ele>
        <time>2020-05-22T12:04:34Z</time>
      </trkpt>
      <trkpt lat="48.73841" lon="7.26176">
        <ele>216.1</ele>
        <time>2020-05-22T12:04:35Z</time>
      </trkpt>
      <trkpt lat="48.73837" lon="7.26171">
        <ele>216</ele>
        <time>2020-05-22T12:04:36Z</time>
      </trkpt>
      <trkpt lat="48.7383" lon="7.26163">
        <ele>215.8</ele>
        <time>2020-05-22T12:04:38Z</time>
      </trkpt>
      <trkpt lat="48.73821" lon="7.26153">
        <ele>215.5</ele>
        <time>2020-05-22T12:04:40Z</time>
      </trkpt>
      <trkpt lat="48.73812" lon="7.26144">
        <ele>215.3</ele>
        <time>2020-05-22T12:04:42Z</time>
      </trkpt>
      <trkpt lat="48.73803" lon="7.26133">
        <ele>215</ele>
        <time>2020-05-22T12:04:44Z</time>
      </trkpt>
      <trkpt lat="48.73798" lon="7.26128">
        <ele>214.9</ele>
        <time>2020-05-22T12:04:45Z</time>
      </trkpt>
      <trkpt lat="48.73794" lon="7.26124">
        <ele>214.9</ele>
        <time>2020-05-22T12:04:46Z</time>
      </trkpt>
      <trkpt lat="48.73786" lon="7.26116">
        <ele>214.9</ele>
        <time>2020-05-22T12:04:48Z</time>
      </trkpt>
      <trkpt lat="48.73777" lon="7.26105">
        <ele>214.9</ele>
        <time>2020-05-22T12:04:50Z</time>
      </trkpt>
      <trkpt lat="48.73772" lon="7.261">
        <ele>214.9</ele>
        <time>2020-05-22T12:04:51Z</time>
      </trkpt>
      <trkpt lat="48.73763" lon="7.2609">
        <ele>215</ele>
        <time>2020-05-22T12:04:53Z</time>
      </trkpt>
      <trkpt lat="48.73759" lon="7.26084">
        <ele>215</ele>
        <time>2020-05-22T12:04:54Z</time>
      </trkpt>
      <trkpt lat="48.73755" lon="7.26078">
        <ele>215.1</ele>
        <time>2020-05-22T12:04:55Z</time>
      </trkpt>
      <trkpt lat="48.73751" lon="7.26072">
        <ele>215.2</ele>
        <time>2020-05-22T12:04:56Z</time>
      </trkpt>
      <trkpt lat="48.73745" lon="7.26061">
        <ele>215.3</ele>
        <time>2020-05-22T12:04:58Z</time>
      </trkpt>
      <trkpt lat="48.73741" lon="7.26056">
        <ele>215.4</ele>
        <time>2020-05-22T12:04:59Z</time>
      </trkpt>
      <trkpt lat="48.73734" lon="7.26045">
        <ele>215.6</ele>
        <time>2020-05-22T12:05:01Z</time>
      </trkpt>
      <trkpt lat="48.73727" lon="7.26036">
        <ele>215.8</ele>
        <time>2020-05-22T12:05:03Z</time>
      </trkpt>
      <trkpt lat="48.73719" lon="7.26027">
        <ele>216</ele>
        <time>2020-05-22T12:05:05Z</time>
      </trkpt>
      <trkpt lat="48.73715" lon="7.26021">
        <ele>216.1</ele>
        <time>2020-05-22T12:05:06Z</time>
      </trkpt>
      <trkpt lat="48.73709" lon="7.26012">
        <ele>216.4</ele>
        <time>2020-05-22T12:05:08Z</time>
      </trkpt>
      <trkpt lat="48.73703" lon="7.26003">
        <ele>216.6</ele>
        <time>2020-05-22T12:05:10Z</time>
      </trkpt>
      <trkpt lat="48.73697" lon="7.25994">
        <ele>216.8</ele>
        <time>2020-05-22T12:05:12Z</time>
      </trkpt>
      <trkpt lat="48.73694" lon="7.25989">
        <ele>216.9</ele>
        <time>2020-05-22T12:05:13Z</time>
      </trkpt>
      <trkpt lat="48.73691" lon="7.25985">
        <ele>217</ele>
        <time>2020-05-22T12:05:14Z</time>
      </trkpt>
      <trkpt lat="48.73686" lon="7.25977">
        <ele>217.1</ele>
        <time>2020-05-22T12:05:16Z</time>
      </trkpt>
      <trkpt lat="48.73683" lon="7.25973">
        <ele>217.2</ele>
        <time>2020-05-22T12:05:17Z</time>
      </trkpt>
      <trkpt lat="48.7368" lon="7.25969">
        <ele>217.2</ele>
        <time>2020-05-22T12:05:18Z</time>
      </trkpt>
      <trkpt lat="48.73675" lon="7.25962">
        <ele>217.3</ele>
        <time>2020-05-22T12:05:20Z</time>
      </trkpt>
      <trkpt lat="48.73672" lon="7.25957">
        <ele>217.4</ele>
        <time>2020-05-22T12:05:21Z</time>
      </trkpt>
      <trkpt lat="48.73669" lon="7.25953">
        <ele>217.4</ele>
        <time>2020-05-22T12:05:22Z</time>
      </trkpt>
      <trkpt lat="48.73662" lon="7.25944">
        <ele>217.2</ele>
        <time>2020-05-22T12:05:24Z</time>
      </trkpt>
      <trkpt lat="48.73659" lon="7.2594">
        <ele>217.1</ele>
        <time>2020-05-22T12:05:25Z</time>
      </trkpt>
      <trkpt lat="48.73653" lon="7.2593">
        <ele>216.9</ele>
        <time>2020-05-22T12:05:27Z</time>
      </trkpt>
      <trkpt lat="48.73647" lon="7.25919">
        <ele>216.7</ele>
        <time>2020-05-22T12:05:29Z</time>
      </trkpt>
      <trkpt lat="48.73644" lon="7.25914">
        <ele>216.6</ele>
        <time>2020-05-22T12:05:30Z</time>
      </trkpt>
      <trkpt lat="48.73639" lon="7.25902">
        <ele>216.4</ele>
        <time>2020-05-22T12:05:32Z</time>
      </trkpt>
      <trkpt lat="48.73635" lon="7.2589">
        <ele>216.1</ele>
        <time>2020-05-22T12:05:34Z</time>
      </trkpt>
      <trkpt lat="48.73631" lon="7.25878">
        <ele>215.9</ele>
        <time>2020-05-22T12:05:36Z</time>
      </trkpt>
      <trkpt lat="48.73629" lon="7.25872">
        <ele>215.9</ele>
        <time>2020-05-22T12:05:37Z</time>
      </trkpt>
      <trkpt lat="48.73625" lon="7.25858">
        <ele>215.6</ele>
        <time>2020-05-22T12:05:39Z</time>
      </trkpt>
      <trkpt lat="48.73623" lon="7.25852">
        <ele>215.5</ele>
        <time>2020-05-22T12:05:40Z</time>
      </trkpt>
      <trkpt lat="48.73618" lon="7.25841">
        <ele>215.3</ele>
        <time>2020-05-22T12:05:42Z</time>
      </trkpt>
      <trkpt lat="48.73614" lon="7.25828">
        <ele>215.1</ele>
        <time>2020-05-22T12:05:44Z</time>
      </trkpt>
      <trkpt lat="48.73611" lon="7.25815">
        <ele>214.9</ele>
        <time>2020-05-22T12:05:46Z</time>
      </trkpt>
      <trkpt lat="48.73609" lon="7.25803">
        <ele>214.9</ele>
        <time>2020-05-22T12:05:48Z</time>
      </trkpt>
      <trkpt lat="48.73608" lon="7.25797">
        <ele>214.9</ele>
        <time>2020-05-22T12:05:49Z</time>
      </trkpt>
      <trkpt lat="48.73607" lon="7.2579">
        <ele>214.8</ele>
        <time>2020-05-22T12:05:50Z</time>
      </trkpt>
      <trkpt lat="48.73606" lon="7.25778">
        <ele>214.8</ele>
        <time>2020-05-22T12:05:52Z</time>
      </trkpt>
      <trkpt lat="48.73605" lon="7.25766">
        <ele>214.8</ele>
        <time>2020-05-22T12:05:54Z</time>
      </trkpt>
      <trkpt lat="48.73604" lon="7.25753">
        <ele>214.8</ele>
        <time>2020-05-22T12:05:56Z</time>
      </trkpt>
      <trkpt lat="48.73603" lon="7.25747">
        <ele>214.8</ele>
        <time>2020-05-22T12:05:57Z</time>
      </trkpt>
      <trkpt lat="48.73602" lon="7.25736">
        <ele>214.8</ele>
        <time>2020-05-22T12:06:00Z</time>
      </trkpt>
      <trkpt lat="48.73602" lon="7.25724">
        <ele>214.8</ele>
        <time>2020-05-22T12:06:02Z</time>
      </trkpt>
      <trkpt lat="48.73601" lon="7.25719">
        <ele>214.8</ele>
        <time>2020-05-22T12:06:03Z</time>
      </trkpt>
      <trkpt lat="48.73602" lon="7.25707">
        <ele>214.8</ele>
        <time>2020-05-22T12:06:05Z</time>
      </trkpt>
      <trkpt lat="48.73602" lon="7.257">
        <ele>214.8</ele>
        <time>2020-05-22T12:06:06Z</time>
      </trkpt>
      <trkpt lat="48.73603" lon="7.25694">
        <ele>214.9</ele>
        <time>2020-05-22T12:06:07Z</time>
      </trkpt>
      <trkpt lat="48.73604" lon="7.25682">
        <ele>214.9</ele>
        <time>2020-05-22T12:06:09Z</time>
      </trkpt>
      <trkpt lat="48.73605" lon="7.25676">
        <ele>215</ele>
        <time>2020-05-22T12:06:10Z</time>
      </trkpt>
      <trkpt lat="48.73606" lon="7.25664">
        <ele>215</ele>
        <time>2020-05-22T12:06:12Z</time>
      </trkpt>
      <trkpt lat="48.73607" lon="7.25653">
        <ele>215.1</ele>
        <time>2020-05-22T12:06:14Z</time>
      </trkpt>
      <trkpt lat="48.73608" lon="7.25641">
        <ele>215.1</ele>
        <time>2020-05-22T12:06:16Z</time>
      </trkpt>
      <trkpt lat="48.73608" lon="7.25635">
        <ele>215.1</ele>
        <time>2020-05-22T12:06:17Z</time>
      </trkpt>
      <trkpt lat="48.73609" lon="7.25624">
        <ele>215.2</ele>
        <time>2020-05-22T12:06:19Z</time>
      </trkpt>
      <trkpt lat="48.73609" lon="7.25618">
        <ele>215.2</ele>
        <time>2020-05-22T12:06:20Z</time>
      </trkpt>
      <trkpt lat="48.7361" lon="7.25611">
        <ele>215.2</ele>
        <time>2020-05-22T12:06:21Z</time>
      </trkpt>
      <trkpt lat="48.73611" lon="7.25599">
        <ele>215.3</ele>
        <time>2020-05-22T12:06:23Z</time>
      </trkpt>
      <trkpt lat="48.73612" lon="7.25593">
        <ele>215.3</ele>
        <time>2020-05-22T12:06:24Z</time>
      </trkpt>
      <trkpt lat="48.73611" lon="7.25583">
        <ele>215.3</ele>
        <time>2020-05-22T12:06:26Z</time>
      </trkpt>
      <trkpt lat="48.7361" lon="7.25577">
        <ele>215.6</ele>
        <time>2020-05-22T12:06:27Z</time>
      </trkpt>
      <trkpt lat="48.73607" lon="7.25569">
        <ele>215.6</ele>
        <time>2020-05-22T12:06:29Z</time>
      </trkpt>
      <trkpt lat="48.73601" lon="7.25563">
        <ele>215.7</ele>
        <time>2020-05-22T12:06:31Z</time>
      </trkpt>
      <trkpt lat="48.73594" lon="7.2556">
        <ele>215.7</ele>
        <time>2020-05-22T12:06:33Z</time>
      </trkpt>
      <trkpt lat="48.7359" lon="7.25558">
        <ele>215.7</ele>
        <time>2020-05-22T12:06:34Z</time>
      </trkpt>
      <trkpt lat="48.73586" lon="7.25557">
        <ele>215.7</ele>
        <time>2020-05-22T12:06:35Z</time>
      </trkpt>
      <trkpt lat="48.73582" lon="7.25555">
        <ele>215.7</ele>
        <time>2020-05-22T12:06:36Z</time>
      </trkpt>
      <trkpt lat="48.73576" lon="7.25549">
        <ele>215.7</ele>
        <time>2020-05-22T12:06:38Z</time>
      </trkpt>
      <trkpt lat="48.73572" lon="7.2554">
        <ele>215.6</ele>
        <time>2020-05-22T12:06:40Z</time>
      </trkpt>
      <trkpt lat="48.73571" lon="7.25528">
        <ele>215.6</ele>
        <time>2020-05-22T12:06:42Z</time>
      </trkpt>
      <trkpt lat="48.73571" lon="7.25522">
        <ele>215.6</ele>
        <time>2020-05-22T12:06:43Z</time>
      </trkpt>
      <trkpt lat="48.73571" lon="7.25517">
        <ele>215.6</ele>
        <time>2020-05-22T12:06:44Z</time>
      </trkpt>
      <trkpt lat="48.73571" lon="7.25511">
        <ele>215.6</ele>
        <time>2020-05-22T12:06:45Z</time>
      </trkpt>
      <trkpt lat="48.7357" lon="7.25506">
        <ele>215.6</ele>
        <time>2020-05-22T12:06:46Z</time>
      </trkpt>
      <trkpt lat="48.7357" lon="7.25501">
        <ele>215.6</ele>
        <time>2020-05-22T12:06:47Z</time>
      </trkpt>
      <trkpt lat="48.7357" lon="7.2549">
        <ele>215.6</ele>
        <time>2020-05-22T12:06:49Z</time>
      </trkpt>
      <trkpt lat="48.73569" lon="7.25478">
        <ele>215.5</ele>
        <time>2020-05-22T12:06:51Z</time>
      </trkpt>
      <trkpt lat="48.73568" lon="7.25466">
        <ele>215.5</ele>
        <time>2020-05-22T12:06:53Z</time>
      </trkpt>
      <trkpt lat="48.73569" lon="7.2546">
        <ele>215.5</ele>
        <time>2020-05-22T12:06:54Z</time>
      </trkpt>
      <trkpt lat="48.73567" lon="7.25446">
        <ele>215.5</ele>
        <time>2020-05-22T12:06:56Z</time>
      </trkpt>
      <trkpt lat="48.73567" lon="7.25439">
        <ele>215.5</ele>
        <time>2020-05-22T12:06:57Z</time>
      </trkpt>
      <trkpt lat="48.73566" lon="7.25426">
        <ele>215.5</ele>
        <time>2020-05-22T12:06:59Z</time>
      </trkpt>
      <trkpt lat="48.73565" lon="7.25412">
        <ele>215.5</ele>
        <time>2020-05-22T12:07:01Z</time>
      </trkpt>
      <trkpt lat="48.73565" lon="7.25406">
        <ele>215.5</ele>
        <time>2020-05-22T12:07:02Z</time>
      </trkpt>
      <trkpt lat="48.73563" lon="7.25394">
        <ele>215.5</ele>
        <time>2020-05-22T12:07:04Z</time>
      </trkpt>
      <trkpt lat="48.73562" lon="7.25388">
        <ele>215.5</ele>
        <time>2020-05-22T12:07:05Z</time>
      </trkpt>
      <trkpt lat="48.73562" lon="7.25376">
        <ele>215.6</ele>
        <time>2020-05-22T12:07:07Z</time>
      </trkpt>
      <trkpt lat="48.73561" lon="7.25364">
        <ele>215.6</ele>
        <time>2020-05-22T12:07:09Z</time>
      </trkpt>
      <trkpt lat="48.73561" lon="7.25357">
        <ele>215.6</ele>
        <time>2020-05-22T12:07:10Z</time>
      </trkpt>
      <trkpt lat="48.7356" lon="7.25344">
        <ele>215.6</ele>
        <time>2020-05-22T12:07:12Z</time>
      </trkpt>
      <trkpt lat="48.73559" lon="7.25331">
        <ele>215.6</ele>
        <time>2020-05-22T12:07:14Z</time>
      </trkpt>
      <trkpt lat="48.73559" lon="7.25325">
        <ele>215.6</ele>
        <time>2020-05-22T12:07:15Z</time>
      </trkpt>
      <trkpt lat="48.73559" lon="7.25313">
        <ele>215.7</ele>
        <time>2020-05-22T12:07:17Z</time>
      </trkpt>
      <trkpt lat="48.73558" lon="7.25301">
        <ele>215.7</ele>
        <time>2020-05-22T12:07:19Z</time>
      </trkpt>
      <trkpt lat="48.73558" lon="7.2529">
        <ele>215.7</ele>
        <time>2020-05-22T12:07:21Z</time>
      </trkpt>
      <trkpt lat="48.73557" lon="7.25283">
        <ele>215.7</ele>
        <time>2020-05-22T12:07:22Z</time>
      </trkpt>
      <trkpt lat="48.73556" lon="7.2527">
        <ele>215.7</ele>
        <time>2020-05-22T12:07:24Z</time>
      </trkpt>
      <trkpt lat="48.73553" lon="7.25258">
        <ele>215.7</ele>
        <time>2020-05-22T12:07:26Z</time>
      </trkpt>
      <trkpt lat="48.73552" lon="7.25246">
        <ele>215.8</ele>
        <time>2020-05-22T12:07:28Z</time>
      </trkpt>
      <trkpt lat="48.73551" lon="7.25233">
        <ele>215.8</ele>
        <time>2020-05-22T12:07:30Z</time>
      </trkpt>
      <trkpt lat="48.7355" lon="7.25226">
        <ele>215.8</ele>
        <time>2020-05-22T12:07:31Z</time>
      </trkpt>
      <trkpt lat="48.73549" lon="7.25219">
        <ele>215.8</ele>
        <time>2020-05-22T12:07:32Z</time>
      </trkpt>
      <trkpt lat="48.73548" lon="7.25213">
        <ele>215.9</ele>
        <time>2020-05-22T12:07:33Z</time>
      </trkpt>
      <trkpt lat="48.73547" lon="7.252">
        <ele>216</ele>
        <time>2020-05-22T12:07:35Z</time>
      </trkpt>
      <trkpt lat="48.73546" lon="7.25187">
        <ele>216.2</ele>
        <time>2020-05-22T12:07:37Z</time>
      </trkpt>
      <trkpt lat="48.73545" lon="7.25181">
        <ele>216.2</ele>
        <time>2020-05-22T12:07:38Z</time>
      </trkpt>
      <trkpt lat="48.73544" lon="7.25168">
        <ele>216.4</ele>
        <time>2020-05-22T12:07:40Z</time>
      </trkpt>
      <trkpt lat="48.73544" lon="7.25155">
        <ele>216.8</ele>
        <time>2020-05-22T12:07:42Z</time>
      </trkpt>
      <trkpt lat="48.73543" lon="7.25149">
        <ele>217</ele>
        <time>2020-05-22T12:07:43Z</time>
      </trkpt>
      <trkpt lat="48.73542" lon="7.25136">
        <ele>217.4</ele>
        <time>2020-05-22T12:07:45Z</time>
      </trkpt>
      <trkpt lat="48.73539" lon="7.25125">
        <ele>217.9</ele>
        <time>2020-05-22T12:07:47Z</time>
      </trkpt>
      <trkpt lat="48.73537" lon="7.2512">
        <ele>218.2</ele>
        <time>2020-05-22T12:07:48Z</time>
      </trkpt>
      <trkpt lat="48.73533" lon="7.25112">
        <ele>218.8</ele>
        <time>2020-05-22T12:07:50Z</time>
      </trkpt>
      <trkpt lat="48.7353" lon="7.25108">
        <ele>218.9</ele>
        <time>2020-05-22T12:07:51Z</time>
      </trkpt>
      <trkpt lat="48.73525" lon="7.25102">
        <ele>218.9</ele>
        <time>2020-05-22T12:07:53Z</time>
      </trkpt>
    </trkseg>
  </trk>
  <trk>
    <name><![CDATA[secteur Saverne - Dabo - Petite Pierre_27]]></name>
    <trkseg>
      <trkpt lat="48.73263" lon="7.28663">
        <ele>223.3</ele>
        <time>2020-08-14T14:34:01Z</time>
      </trkpt>
      <trkpt lat="48.73263" lon="7.28663">
        <ele>223.3</ele>
        <time>2020-08-14T14:34:01Z</time>
      </trkpt>
      <trkpt lat="48.73263" lon="7.28663">
        <ele>223.3</ele>
        <time>2020-08-14T14:34:01Z</time>
      </trkpt>
      <trkpt lat="48.73263" lon="7.28663">
        <ele>223.3</ele>
        <time>2020-08-14T14:34:01Z</time>
      </trkpt>
      <trkpt lat="48.73263" lon="7.28663">
        <ele>223.3</ele>
        <time>2020-08-14T14:34:01Z</time>
      </trkpt>
      <trkpt lat="48.73263" lon="7.28663">
        <ele>223.3</ele>
        <time>2020-08-14T14:34:01Z</time>
      </trkpt>
      <trkpt lat="48.73263" lon="7.28663">
        <ele>223.3</ele>
        <time>2020-08-14T14:34:01Z</time>
      </trkpt>
      <trkpt lat="48.73257" lon="7.28661">
        <ele>223.3</ele>
        <time>2020-08-14T14:34:05Z</time>
      </trkpt>
      <trkpt lat="48.73253" lon="7.28655">
        <ele>223.8</ele>
        <time>2020-08-14T14:34:08Z</time>
      </trkpt>
      <trkpt lat="48.7325" lon="7.28649">
        <ele>223.9</ele>
        <time>2020-08-14T14:34:11Z</time>
      </trkpt>
      <trkpt lat="48.7325" lon="7.28639">
        <ele>223.7</ele>
        <time>2020-08-14T14:34:14Z</time>
      </trkpt>
      <trkpt lat="48.7325" lon="7.28631">
        <ele>223.7</ele>
        <time>2020-08-14T14:34:16Z</time>
      </trkpt>
      <trkpt lat="48.73249" lon="7.2862">
        <ele>224</ele>
        <time>2020-08-14T14:34:18Z</time>
      </trkpt>
      <trkpt lat="48.7325" lon="7.28608">
        <ele>223.6</ele>
        <time>2020-08-14T14:34:20Z</time>
      </trkpt>
      <trkpt lat="48.73251" lon="7.28596">
        <ele>223.3</ele>
        <time>2020-08-14T14:34:22Z</time>
      </trkpt>
      <trkpt lat="48.73253" lon="7.28583">
        <ele>222.8</ele>
        <time>2020-08-14T14:34:24Z</time>
      </trkpt>
      <trkpt lat="48.73256" lon="7.2857">
        <ele>222.6</ele>
        <time>2020-08-14T14:34:26Z</time>
      </trkpt>
      <trkpt lat="48.73259" lon="7.28558">
        <ele>222.7</ele>
        <time>2020-08-14T14:34:28Z</time>
      </trkpt>
      <trkpt lat="48.73262" lon="7.28547">
        <ele>222.9</ele>
        <time>2020-08-14T14:34:30Z</time>
      </trkpt>
      <trkpt lat="48.73265" lon="7.28536">
        <ele>222.9</ele>
        <time>2020-08-14T14:34:32Z</time>
      </trkpt>
      <trkpt lat="48.73269" lon="7.28526">
        <ele>223.5</ele>
        <time>2020-08-14T14:34:34Z</time>
      </trkpt>
      <trkpt lat="48.73272" lon="7.28516">
        <ele>224.2</ele>
        <time>2020-08-14T14:34:36Z</time>
      </trkpt>
      <trkpt lat="48.73272" lon="7.28509">
        <ele>225.5</ele>
        <time>2020-08-14T14:34:39Z</time>
      </trkpt>
      <trkpt lat="48.73274" lon="7.285">
        <ele>226.4</ele>
        <time>2020-08-14T14:34:51Z</time>
      </trkpt>
      <trkpt lat="48.73277" lon="7.28491">
        <ele>225.6</ele>
        <time>2020-08-14T14:34:53Z</time>
      </trkpt>
      <trkpt lat="48.7328" lon="7.28482">
        <ele>224.5</ele>
        <time>2020-08-14T14:34:55Z</time>
      </trkpt>
      <trkpt lat="48.73284" lon="7.28472">
        <ele>223.8</ele>
        <time>2020-08-14T14:34:57Z</time>
      </trkpt>
      <trkpt lat="48.73288" lon="7.28461">
        <ele>222.9</ele>
        <time>2020-08-14T14:34:59Z</time>
      </trkpt>
      <trkpt lat="48.7329" lon="7.2845">
        <ele>222.6</ele>
        <time>2020-08-14T14:35:01Z</time>
      </trkpt>
      <trkpt lat="48.73294" lon="7.28433">
        <ele>222.5</ele>
        <time>2020-08-14T14:35:04Z</time>
      </trkpt>
      <trkpt lat="48.73296" lon="7.28419">
        <ele>223.1</ele>
        <time>2020-08-14T14:35:06Z</time>
      </trkpt>
      <trkpt lat="48.73299" lon="7.28404">
        <ele>223</ele>
        <time>2020-08-14T14:35:08Z</time>
      </trkpt>
      <trkpt lat="48.73302" lon="7.28393">
        <ele>223.1</ele>
        <time>2020-08-14T14:35:10Z</time>
      </trkpt>
      <trkpt lat="48.73304" lon="7.28385">
        <ele>223.8</ele>
        <time>2020-08-14T14:35:12Z</time>
      </trkpt>
      <trkpt lat="48.73307" lon="7.28377">
        <ele>224.6</ele>
        <time>2020-08-14T14:35:14Z</time>
      </trkpt>
      <trkpt lat="48.7331" lon="7.28367">
        <ele>225.2</ele>
        <time>2020-08-14T14:35:16Z</time>
      </trkpt>
      <trkpt lat="48.73315" lon="7.28356">
        <ele>225.7</ele>
        <time>2020-08-14T14:35:18Z</time>
      </trkpt>
      <trkpt lat="48.7332" lon="7.28347">
        <ele>226</ele>
        <time>2020-08-14T14:35:20Z</time>
      </trkpt>
      <trkpt lat="48.73324" lon="7.28338">
        <ele>226.1</ele>
        <time>2020-08-14T14:35:22Z</time>
      </trkpt>
      <trkpt lat="48.73327" lon="7.28325">
        <ele>226.3</ele>
        <time>2020-08-14T14:35:24Z</time>
      </trkpt>
      <trkpt lat="48.73329" lon="7.28313">
        <ele>226.5</ele>
        <time>2020-08-14T14:35:26Z</time>
      </trkpt>
      <trkpt lat="48.73332" lon="7.283">
        <ele>226.4</ele>
        <time>2020-08-14T14:35:28Z</time>
      </trkpt>
      <trkpt lat="48.73336" lon="7.28286">
        <ele>226.1</ele>
        <time>2020-08-14T14:35:30Z</time>
      </trkpt>
      <trkpt lat="48.7334" lon="7.28271">
        <ele>225.4</ele>
        <time>2020-08-14T14:35:32Z</time>
      </trkpt>
      <trkpt lat="48.73345" lon="7.28255">
        <ele>224.6</ele>
        <time>2020-08-14T14:35:34Z</time>
      </trkpt>
      <trkpt lat="48.73351" lon="7.28238">
        <ele>223.6</ele>
        <time>2020-08-14T14:35:36Z</time>
      </trkpt>
      <trkpt lat="48.73356" lon="7.2822">
        <ele>222.9</ele>
        <time>2020-08-14T14:35:38Z</time>
      </trkpt>
      <trkpt lat="48.73362" lon="7.28203">
        <ele>221.7</ele>
        <time>2020-08-14T14:35:40Z</time>
      </trkpt>
      <trkpt lat="48.73369" lon="7.28185">
        <ele>220.2</ele>
        <time>2020-08-14T14:35:42Z</time>
      </trkpt>
      <trkpt lat="48.73375" lon="7.28165">
        <ele>218.7</ele>
        <time>2020-08-14T14:35:44Z</time>
      </trkpt>
      <trkpt lat="48.7338" lon="7.28144">
        <ele>217.2</ele>
        <time>2020-08-14T14:35:46Z</time>
      </trkpt>
      <trkpt lat="48.73385" lon="7.28125">
        <ele>215.8</ele>
        <time>2020-08-14T14:35:48Z</time>
      </trkpt>
      <trkpt lat="48.73392" lon="7.28107">
        <ele>214.6</ele>
        <time>2020-08-14T14:35:50Z</time>
      </trkpt>
      <trkpt lat="48.734" lon="7.28093">
        <ele>214.1</ele>
        <time>2020-08-14T14:35:52Z</time>
      </trkpt>
      <trkpt lat="48.73408" lon="7.28081">
        <ele>213.8</ele>
        <time>2020-08-14T14:35:54Z</time>
      </trkpt>
      <trkpt lat="48.73412" lon="7.28069">
        <ele>213.8</ele>
        <time>2020-08-14T14:35:56Z</time>
      </trkpt>
      <trkpt lat="48.73416" lon="7.28058">
        <ele>213.2</ele>
        <time>2020-08-14T14:35:58Z</time>
      </trkpt>
      <trkpt lat="48.7342" lon="7.28049">
        <ele>213.2</ele>
        <time>2020-08-14T14:36:00Z</time>
      </trkpt>
      <trkpt lat="48.73424" lon="7.2804">
        <ele>213.8</ele>
        <time>2020-08-14T14:36:02Z</time>
      </trkpt>
      <trkpt lat="48.73427" lon="7.28032">
        <ele>215.3</ele>
        <time>2020-08-14T14:36:04Z</time>
      </trkpt>
      <trkpt lat="48.73431" lon="7.28026">
        <ele>216.7</ele>
        <time>2020-08-14T14:36:06Z</time>
      </trkpt>
      <trkpt lat="48.73434" lon="7.28018">
        <ele>217.9</ele>
        <time>2020-08-14T14:36:08Z</time>
      </trkpt>
      <trkpt lat="48.73438" lon="7.28008">
        <ele>219.1</ele>
        <time>2020-08-14T14:36:10Z</time>
      </trkpt>
      <trkpt lat="48.73444" lon="7.27995">
        <ele>221.6</ele>
        <time>2020-08-14T14:36:13Z</time>
      </trkpt>
      <trkpt lat="48.73446" lon="7.27987">
        <ele>223.4</ele>
        <time>2020-08-14T14:36:15Z</time>
      </trkpt>
      <trkpt lat="48.73449" lon="7.27978">
        <ele>224.9</ele>
        <time>2020-08-14T14:36:17Z</time>
      </trkpt>
      <trkpt lat="48.73453" lon="7.27969">
        <ele>226</ele>
        <time>2020-08-14T14:36:19Z</time>
      </trkpt>
      <trkpt lat="48.73457" lon="7.27961">
        <ele>226.9</ele>
        <time>2020-08-14T14:36:21Z</time>
      </trkpt>
      <trkpt lat="48.7346" lon="7.27952">
        <ele>228</ele>
        <time>2020-08-14T14:36:23Z</time>
      </trkpt>
      <trkpt lat="48.73462" lon="7.27943">
        <ele>228.2</ele>
        <time>2020-08-14T14:36:25Z</time>
      </trkpt>
      <trkpt lat="48.73461" lon="7.27933">
        <ele>228.5</ele>
        <time>2020-08-14T14:36:27Z</time>
      </trkpt>
      <trkpt lat="48.7346" lon="7.27918">
        <ele>229.3</ele>
        <time>2020-08-14T14:36:29Z</time>
      </trkpt>
      <trkpt lat="48.73462" lon="7.27903">
        <ele>228.8</ele>
        <time>2020-08-14T14:36:31Z</time>
      </trkpt>
      <trkpt lat="48.73464" lon="7.27886">
        <ele>229.6</ele>
        <time>2020-08-14T14:36:33Z</time>
      </trkpt>
      <trkpt lat="48.73468" lon="7.27871">
        <ele>229.8</ele>
        <time>2020-08-14T14:36:35Z</time>
      </trkpt>
      <trkpt lat="48.73472" lon="7.27855">
        <ele>230.1</ele>
        <time>2020-08-14T14:36:37Z</time>
      </trkpt>
      <trkpt lat="48.73479" lon="7.27842">
        <ele>229.7</ele>
        <time>2020-08-14T14:36:39Z</time>
      </trkpt>
      <trkpt lat="48.73484" lon="7.27835">
        <ele>229</ele>
        <time>2020-08-14T14:36:41Z</time>
      </trkpt>
      <trkpt lat="48.7349" lon="7.2783">
        <ele>228.3</ele>
        <time>2020-08-14T14:36:43Z</time>
      </trkpt>
      <trkpt lat="48.73496" lon="7.27823">
        <ele>228.5</ele>
        <time>2020-08-14T14:36:45Z</time>
      </trkpt>
      <trkpt lat="48.73499" lon="7.27813">
        <ele>227.7</ele>
        <time>2020-08-14T14:36:47Z</time>
      </trkpt>
      <trkpt lat="48.73501" lon="7.27802">
        <ele>226.9</ele>
        <time>2020-08-14T14:36:49Z</time>
      </trkpt>
      <trkpt lat="48.73503" lon="7.27792">
        <ele>226.1</ele>
        <time>2020-08-14T14:36:51Z</time>
      </trkpt>
      <trkpt lat="48.73507" lon="7.2778">
        <ele>225.3</ele>
        <time>2020-08-14T14:36:53Z</time>
      </trkpt>
      <trkpt lat="48.73511" lon="7.27769">
        <ele>224.8</ele>
        <time>2020-08-14T14:36:55Z</time>
      </trkpt>
      <trkpt lat="48.73517" lon="7.27756">
        <ele>224.7</ele>
        <time>2020-08-14T14:36:57Z</time>
      </trkpt>
      <trkpt lat="48.73522" lon="7.27741">
        <ele>224.4</ele>
        <time>2020-08-14T14:36:59Z</time>
      </trkpt>
      <trkpt lat="48.73528" lon="7.27725">
        <ele>225</ele>
        <time>2020-08-14T14:37:01Z</time>
      </trkpt>
      <trkpt lat="48.73535" lon="7.27711">
        <ele>224.8</ele>
        <time>2020-08-14T14:37:03Z</time>
      </trkpt>
      <trkpt lat="48.7354" lon="7.27697">
        <ele>225.1</ele>
        <time>2020-08-14T14:37:05Z</time>
      </trkpt>
      <trkpt lat="48.73545" lon="7.27683">
        <ele>225.6</ele>
        <time>2020-08-14T14:37:07Z</time>
      </trkpt>
      <trkpt lat="48.73553" lon="7.27671">
        <ele>225.1</ele>
        <time>2020-08-14T14:37:09Z</time>
      </trkpt>
      <trkpt lat="48.7356" lon="7.27659">
        <ele>226.1</ele>
        <time>2020-08-14T14:37:11Z</time>
      </trkpt>
      <trkpt lat="48.73569" lon="7.27649">
        <ele>225.9</ele>
        <time>2020-08-14T14:37:13Z</time>
      </trkpt>
      <trkpt lat="48.73575" lon="7.27639">
        <ele>224.2</ele>
        <time>2020-08-14T14:37:15Z</time>
      </trkpt>
      <trkpt lat="48.7358" lon="7.27628">
        <ele>223.5</ele>
        <time>2020-08-14T14:37:17Z</time>
      </trkpt>
      <trkpt lat="48.73588" lon="7.2762">
        <ele>223</ele>
        <time>2020-08-14T14:37:19Z</time>
      </trkpt>
      <trkpt lat="48.73595" lon="7.27612">
        <ele>222.2</ele>
        <time>2020-08-14T14:37:21Z</time>
      </trkpt>
      <trkpt lat="48.73601" lon="7.27602">
        <ele>222.5</ele>
        <time>2020-08-14T14:37:23Z</time>
      </trkpt>
      <trkpt lat="48.73609" lon="7.27592">
        <ele>223.6</ele>
        <time>2020-08-14T14:37:25Z</time>
      </trkpt>
      <trkpt lat="48.73617" lon="7.27581">
        <ele>224.6</ele>
        <time>2020-08-14T14:37:27Z</time>
      </trkpt>
      <trkpt lat="48.73626" lon="7.2757">
        <ele>225.2</ele>
        <time>2020-08-14T14:37:29Z</time>
      </trkpt>
      <trkpt lat="48.73634" lon="7.27559">
        <ele>226</ele>
        <time>2020-08-14T14:37:31Z</time>
      </trkpt>
      <trkpt lat="48.73641" lon="7.27547">
        <ele>226</ele>
        <time>2020-08-14T14:37:33Z</time>
      </trkpt>
      <trkpt lat="48.73649" lon="7.27533">
        <ele>226.2</ele>
        <time>2020-08-14T14:37:35Z</time>
      </trkpt>
      <trkpt lat="48.73658" lon="7.27519">
        <ele>225.8</ele>
        <time>2020-08-14T14:37:37Z</time>
      </trkpt>
      <trkpt lat="48.73666" lon="7.27505">
        <ele>226.5</ele>
        <time>2020-08-14T14:37:39Z</time>
      </trkpt>
      <trkpt lat="48.73675" lon="7.27493">
        <ele>226.4</ele>
        <time>2020-08-14T14:37:41Z</time>
      </trkpt>
      <trkpt lat="48.73683" lon="7.2748">
        <ele>226.3</ele>
        <time>2020-08-14T14:37:43Z</time>
      </trkpt>
      <trkpt lat="48.73692" lon="7.27469">
        <ele>225.9</ele>
        <time>2020-08-14T14:37:45Z</time>
      </trkpt>
      <trkpt lat="48.73697" lon="7.27459">
        <ele>226.1</ele>
        <time>2020-08-14T14:37:47Z</time>
      </trkpt>
      <trkpt lat="48.737" lon="7.27452">
        <ele>226.3</ele>
        <time>2020-08-14T14:37:50Z</time>
      </trkpt>
      <trkpt lat="48.73704" lon="7.2745">
        <ele>226.5</ele>
        <time>2020-08-14T14:38:09Z</time>
      </trkpt>
      <trkpt lat="48.73704" lon="7.27442">
        <ele>227.1</ele>
        <time>2020-08-14T14:38:28Z</time>
      </trkpt>
      <trkpt lat="48.73709" lon="7.27438">
        <ele>227.5</ele>
        <time>2020-08-14T14:38:33Z</time>
      </trkpt>
      <trkpt lat="48.73714" lon="7.27431">
        <ele>227.5</ele>
        <time>2020-08-14T14:38:37Z</time>
      </trkpt>
      <trkpt lat="48.73718" lon="7.27424">
        <ele>227.4</ele>
        <time>2020-08-14T14:38:39Z</time>
      </trkpt>
      <trkpt lat="48.73722" lon="7.27417">
        <ele>227.9</ele>
        <time>2020-08-14T14:38:42Z</time>
      </trkpt>
      <trkpt lat="48.73726" lon="7.27412">
        <ele>227.8</ele>
        <time>2020-08-14T14:38:44Z</time>
      </trkpt>
      <trkpt lat="48.7373" lon="7.27406">
        <ele>227.9</ele>
        <time>2020-08-14T14:38:46Z</time>
      </trkpt>
      <trkpt lat="48.73736" lon="7.27398">
        <ele>226.8</ele>
        <time>2020-08-14T14:38:48Z</time>
      </trkpt>
      <trkpt lat="48.73742" lon="7.2739">
        <ele>226.9</ele>
        <time>2020-08-14T14:38:50Z</time>
      </trkpt>
      <trkpt lat="48.73749" lon="7.27383">
        <ele>225.8</ele>
        <time>2020-08-14T14:38:52Z</time>
      </trkpt>
      <trkpt lat="48.73755" lon="7.27372">
        <ele>225.7</ele>
        <time>2020-08-14T14:38:54Z</time>
      </trkpt>
      <trkpt lat="48.73759" lon="7.2736">
        <ele>225.7</ele>
        <time>2020-08-14T14:38:56Z</time>
      </trkpt>
      <trkpt lat="48.73765" lon="7.27341">
        <ele>226.4</ele>
        <time>2020-08-14T14:38:59Z</time>
      </trkpt>
      <trkpt lat="48.7377" lon="7.27328">
        <ele>227.5</ele>
        <time>2020-08-14T14:39:01Z</time>
      </trkpt>
      <trkpt lat="48.73775" lon="7.27314">
        <ele>228</ele>
        <time>2020-08-14T14:39:03Z</time>
      </trkpt>
      <trkpt lat="48.73781" lon="7.27302">
        <ele>228.4</ele>
        <time>2020-08-14T14:39:05Z</time>
      </trkpt>
      <trkpt lat="48.73787" lon="7.27291">
        <ele>228.9</ele>
        <time>2020-08-14T14:39:07Z</time>
      </trkpt>
      <trkpt lat="48.73794" lon="7.2728">
        <ele>228.9</ele>
        <time>2020-08-14T14:39:10Z</time>
      </trkpt>
      <trkpt lat="48.738" lon="7.27269">
        <ele>229</ele>
        <time>2020-08-14T14:39:11Z</time>
      </trkpt>
      <trkpt lat="48.73805" lon="7.27259">
        <ele>229</ele>
        <time>2020-08-14T14:39:13Z</time>
      </trkpt>
      <trkpt lat="48.73813" lon="7.27243">
        <ele>229.3</ele>
        <time>2020-08-14T14:39:16Z</time>
      </trkpt>
      <trkpt lat="48.73818" lon="7.27232">
        <ele>230</ele>
        <time>2020-08-14T14:39:18Z</time>
      </trkpt>
      <trkpt lat="48.73822" lon="7.27221">
        <ele>230.4</ele>
        <time>2020-08-14T14:39:20Z</time>
      </trkpt>
      <trkpt lat="48.73825" lon="7.27209">
        <ele>231.1</ele>
        <time>2020-08-14T14:39:22Z</time>
      </trkpt>
      <trkpt lat="48.73828" lon="7.27196">
        <ele>231.6</ele>
        <time>2020-08-14T14:39:24Z</time>
      </trkpt>
      <trkpt lat="48.73834" lon="7.27182">
        <ele>231.5</ele>
        <time>2020-08-14T14:39:26Z</time>
      </trkpt>
      <trkpt lat="48.73839" lon="7.27169">
        <ele>231.9</ele>
        <time>2020-08-14T14:39:28Z</time>
      </trkpt>
      <trkpt lat="48.73846" lon="7.27148">
        <ele>232</ele>
        <time>2020-08-14T14:39:31Z</time>
      </trkpt>
      <trkpt lat="48.7385" lon="7.27133">
        <ele>231.8</ele>
        <time>2020-08-14T14:39:33Z</time>
      </trkpt>
      <trkpt lat="48.73853" lon="7.2712">
        <ele>231.4</ele>
        <time>2020-08-14T14:39:35Z</time>
      </trkpt>
      <trkpt lat="48.73857" lon="7.27108">
        <ele>231.5</ele>
        <time>2020-08-14T14:39:37Z</time>
      </trkpt>
      <trkpt lat="48.73861" lon="7.27095">
        <ele>231.3</ele>
        <time>2020-08-14T14:39:40Z</time>
      </trkpt>
      <trkpt lat="48.73864" lon="7.2707">
        <ele>233.1</ele>
        <time>2020-08-14T14:39:42Z</time>
      </trkpt>
      <trkpt lat="48.73865" lon="7.27054">
        <ele>234.4</ele>
        <time>2020-08-14T14:39:44Z</time>
      </trkpt>
      <trkpt lat="48.73865" lon="7.2704">
        <ele>235.5</ele>
        <time>2020-08-14T14:39:46Z</time>
      </trkpt>
      <trkpt lat="48.73862" lon="7.27017">
        <ele>236.8</ele>
        <time>2020-08-14T14:39:49Z</time>
      </trkpt>
      <trkpt lat="48.73861" lon="7.27004">
        <ele>237.7</ele>
        <time>2020-08-14T14:39:52Z</time>
      </trkpt>
      <trkpt lat="48.73859" lon="7.26982">
        <ele>238.8</ele>
        <time>2020-08-14T14:39:54Z</time>
      </trkpt>
      <trkpt lat="48.7386" lon="7.26966">
        <ele>239.2</ele>
        <time>2020-08-14T14:39:57Z</time>
      </trkpt>
      <trkpt lat="48.7386" lon="7.26949">
        <ele>240.2</ele>
        <time>2020-08-14T14:39:59Z</time>
      </trkpt>
      <trkpt lat="48.73861" lon="7.2692">
        <ele>240.4</ele>
        <time>2020-08-14T14:40:01Z</time>
      </trkpt>
      <trkpt lat="48.73861" lon="7.26891">
        <ele>240.7</ele>
        <time>2020-08-14T14:40:04Z</time>
      </trkpt>
      <trkpt lat="48.73861" lon="7.26872">
        <ele>241.2</ele>
        <time>2020-08-14T14:40:07Z</time>
      </trkpt>
      <trkpt lat="48.73861" lon="7.26843">
        <ele>242.5</ele>
        <time>2020-08-14T14:40:09Z</time>
      </trkpt>
      <trkpt lat="48.73861" lon="7.26826">
        <ele>242.4</ele>
        <time>2020-08-14T14:40:11Z</time>
      </trkpt>
      <trkpt lat="48.73862" lon="7.2681">
        <ele>242.7</ele>
        <time>2020-08-14T14:40:13Z</time>
      </trkpt>
      <trkpt lat="48.73864" lon="7.26794">
        <ele>242.9</ele>
        <time>2020-08-14T14:40:15Z</time>
      </trkpt>
      <trkpt lat="48.73866" lon="7.26777">
        <ele>243.5</ele>
        <time>2020-08-14T14:40:17Z</time>
      </trkpt>
      <trkpt lat="48.73867" lon="7.26757">
        <ele>243.4</ele>
        <time>2020-08-14T14:40:19Z</time>
      </trkpt>
      <trkpt lat="48.73869" lon="7.26738">
        <ele>243.8</ele>
        <time>2020-08-14T14:40:21Z</time>
      </trkpt>
      <trkpt lat="48.73871" lon="7.26719">
        <ele>243.9</ele>
        <time>2020-08-14T14:40:23Z</time>
      </trkpt>
      <trkpt lat="48.73877" lon="7.267">
        <ele>242.7</ele>
        <time>2020-08-14T14:40:25Z</time>
      </trkpt>
      <trkpt lat="48.73882" lon="7.26681">
        <ele>240.6</ele>
        <time>2020-08-14T14:40:27Z</time>
      </trkpt>
      <trkpt lat="48.73886" lon="7.26664">
        <ele>240.1</ele>
        <time>2020-08-14T14:40:29Z</time>
      </trkpt>
      <trkpt lat="48.73891" lon="7.26647">
        <ele>238.9</ele>
        <time>2020-08-14T14:40:31Z</time>
      </trkpt>
      <trkpt lat="48.73895" lon="7.26632">
        <ele>238.4</ele>
        <time>2020-08-14T14:40:34Z</time>
      </trkpt>
      <trkpt lat="48.73901" lon="7.26611">
        <ele>237.8</ele>
        <time>2020-08-14T14:40:36Z</time>
      </trkpt>
      <trkpt lat="48.73905" lon="7.26598">
        <ele>238.7</ele>
        <time>2020-08-14T14:40:38Z</time>
      </trkpt>
      <trkpt lat="48.7391" lon="7.2658">
        <ele>239</ele>
        <time>2020-08-14T14:40:40Z</time>
      </trkpt>
      <trkpt lat="48.73915" lon="7.26561">
        <ele>238.4</ele>
        <time>2020-08-14T14:40:42Z</time>
      </trkpt>
      <trkpt lat="48.73919" lon="7.26543">
        <ele>238.5</ele>
        <time>2020-08-14T14:40:44Z</time>
      </trkpt>
      <trkpt lat="48.73921" lon="7.26523">
        <ele>238.8</ele>
        <time>2020-08-14T14:40:46Z</time>
      </trkpt>
      <trkpt lat="48.73923" lon="7.26505">
        <ele>239</ele>
        <time>2020-08-14T14:40:48Z</time>
      </trkpt>
      <trkpt lat="48.73924" lon="7.26487">
        <ele>239.4</ele>
        <time>2020-08-14T14:40:50Z</time>
      </trkpt>
      <trkpt lat="48.73924" lon="7.26469">
        <ele>238.6</ele>
        <time>2020-08-14T14:40:52Z</time>
      </trkpt>
      <trkpt lat="48.73923" lon="7.26449">
        <ele>238.2</ele>
        <time>2020-08-14T14:40:54Z</time>
      </trkpt>
      <trkpt lat="48.73923" lon="7.2643">
        <ele>237.8</ele>
        <time>2020-08-14T14:40:56Z</time>
      </trkpt>
      <trkpt lat="48.73922" lon="7.26409">
        <ele>237</ele>
        <time>2020-08-14T14:40:58Z</time>
      </trkpt>
      <trkpt lat="48.73919" lon="7.26388">
        <ele>236.8</ele>
        <time>2020-08-14T14:41:00Z</time>
      </trkpt>
      <trkpt lat="48.73915" lon="7.26365">
        <ele>236.2</ele>
        <time>2020-08-14T14:41:02Z</time>
      </trkpt>
      <trkpt lat="48.73911" lon="7.2634">
        <ele>235.1</ele>
        <time>2020-08-14T14:41:04Z</time>
      </trkpt>
      <trkpt lat="48.73907" lon="7.26314">
        <ele>234.2</ele>
        <time>2020-08-14T14:41:06Z</time>
      </trkpt>
      <trkpt lat="48.73901" lon="7.2629">
        <ele>233.4</ele>
        <time>2020-08-14T14:41:08Z</time>
      </trkpt>
      <trkpt lat="48.73896" lon="7.26267">
        <ele>232.3</ele>
        <time>2020-08-14T14:41:10Z</time>
      </trkpt>
      <trkpt lat="48.73891" lon="7.26248">
        <ele>231.5</ele>
        <time>2020-08-14T14:41:12Z</time>
      </trkpt>
      <trkpt lat="48.73887" lon="7.2623">
        <ele>231.2</ele>
        <time>2020-08-14T14:41:14Z</time>
      </trkpt>
      <trkpt lat="48.73883" lon="7.26216">
        <ele>230.8</ele>
        <time>2020-08-14T14:41:16Z</time>
      </trkpt>
      <trkpt lat="48.7388" lon="7.26206">
        <ele>230.7</ele>
        <time>2020-08-14T14:41:18Z</time>
      </trkpt>
      <trkpt lat="48.73877" lon="7.26195">
        <ele>230.2</ele>
        <time>2020-08-14T14:41:20Z</time>
      </trkpt>
      <trkpt lat="48.73873" lon="7.26183">
        <ele>229.9</ele>
        <time>2020-08-14T14:41:22Z</time>
      </trkpt>
      <trkpt lat="48.73868" lon="7.26172">
        <ele>228.4</ele>
        <time>2020-08-14T14:41:24Z</time>
      </trkpt>
      <trkpt lat="48.73863" lon="7.2616">
        <ele>228.6</ele>
        <time>2020-08-14T14:41:26Z</time>
      </trkpt>
    </trkseg>
  </trk>
  <trk>
    <name><![CDATA[secteur Saverne - Dabo - Petite Pierre_28]]></name>
    <trkseg>
      <trkpt lat="48.73095" lon="7.33285">
        <ele>256.88</ele>
        <time>2020-05-21T19:42:22.000Z</time>
      </trkpt>
      <trkpt lat="48.73095" lon="7.33285">
        <ele>256.88</ele>
        <time>2020-05-21T19:42:22.000Z</time>
      </trkpt>
      <trkpt lat="48.73095" lon="7.33285">
        <ele>256.88</ele>
        <time>2020-05-21T19:42:22.000Z</time>
      </trkpt>
      <trkpt lat="48.73095" lon="7.33285">
        <ele>256.88</ele>
        <time>2020-05-21T19:42:22.000Z</time>
      </trkpt>
      <trkpt lat="48.73095" lon="7.33285">
        <ele>256.88</ele>
        <time>2020-05-21T19:42:22.000Z</time>
      </trkpt>
      <trkpt lat="48.73095" lon="7.33285">
        <ele>256.88</ele>
        <time>2020-05-21T19:42:22.000Z</time>
      </trkpt>
      <trkpt lat="48.73095" lon="7.33285">
        <ele>256.88</ele>
        <time>2020-05-21T19:42:22.000Z</time>
      </trkpt>
      <trkpt lat="48.731" lon="7.33279">
        <ele>258.85</ele>
        <time>2020-05-21T19:42:24.000Z</time>
      </trkpt>
      <trkpt lat="48.73105" lon="7.33274">
        <ele>257.92</ele>
        <time>2020-05-21T19:42:27.000Z</time>
      </trkpt>
      <trkpt lat="48.73108" lon="7.33268">
        <ele>257.76</ele>
        <time>2020-05-21T19:42:29.000Z</time>
      </trkpt>
      <trkpt lat="48.73108" lon="7.3326">
        <ele>254.47</ele>
        <time>2020-05-21T19:42:32.000Z</time>
      </trkpt>
      <trkpt lat="48.73112" lon="7.33255">
        <ele>254.95</ele>
        <time>2020-05-21T19:42:34.000Z</time>
      </trkpt>
      <trkpt lat="48.73118" lon="7.33251">
        <ele>254.89</ele>
        <time>2020-05-21T19:42:36.000Z</time>
      </trkpt>
      <trkpt lat="48.73122" lon="7.33246">
        <ele>257.39</ele>
        <time>2020-05-21T19:42:38.000Z</time>
      </trkpt>
      <trkpt lat="48.73127" lon="7.33241">
        <ele>255.49</ele>
        <time>2020-05-21T19:42:41.000Z</time>
      </trkpt>
      <trkpt lat="48.73129" lon="7.33231">
        <ele>251.99</ele>
        <time>2020-05-21T19:42:44.000Z</time>
      </trkpt>
      <trkpt lat="48.73133" lon="7.33225">
        <ele>255.14</ele>
        <time>2020-05-21T19:42:47.000Z</time>
      </trkpt>
      <trkpt lat="48.73134" lon="7.33218">
        <ele>251.47</ele>
        <time>2020-05-21T19:42:50.000Z</time>
      </trkpt>
      <trkpt lat="48.73134" lon="7.33209">
        <ele>258.14</ele>
        <time>2020-05-21T19:42:52.000Z</time>
      </trkpt>
      <trkpt lat="48.73139" lon="7.33203">
        <ele>259.7</ele>
        <time>2020-05-21T19:42:55.000Z</time>
      </trkpt>
      <trkpt lat="48.73142" lon="7.33197">
        <ele>259.22</ele>
        <time>2020-05-21T19:42:58.000Z</time>
      </trkpt>
      <trkpt lat="48.73147" lon="7.3319">
        <ele>262.16</ele>
        <time>2020-05-21T19:43:01.000Z</time>
      </trkpt>
      <trkpt lat="48.7315" lon="7.33184">
        <ele>262.03</ele>
        <time>2020-05-21T19:43:04.000Z</time>
      </trkpt>
      <trkpt lat="48.7315" lon="7.33176">
        <ele>266.06</ele>
        <time>2020-05-21T19:43:07.000Z</time>
      </trkpt>
      <trkpt lat="48.73156" lon="7.3318">
        <ele>270</ele>
        <time>2020-05-21T19:43:12.000Z</time>
      </trkpt>
      <trkpt lat="48.7316" lon="7.33184">
        <ele>271.87</ele>
        <time>2020-05-21T19:43:14.000Z</time>
      </trkpt>
      <trkpt lat="48.73165" lon="7.33187">
        <ele>275.53</ele>
        <time>2020-05-21T19:43:18.000Z</time>
      </trkpt>
      <trkpt lat="48.73166" lon="7.33229">
        <ele>275.84</ele>
        <time>2020-05-21T19:43:26.000Z</time>
      </trkpt>
      <trkpt lat="48.73167" lon="7.33239">
        <ele>275.65</ele>
        <time>2020-05-21T19:43:29.000Z</time>
      </trkpt>
      <trkpt lat="48.73168" lon="7.33248">
        <ele>277.43</ele>
        <time>2020-05-21T19:43:31.000Z</time>
      </trkpt>
      <trkpt lat="48.73168" lon="7.33256">
        <ele>276.9</ele>
        <time>2020-05-21T19:43:33.000Z</time>
      </trkpt>
      <trkpt lat="48.73167" lon="7.33264">
        <ele>275.44</ele>
        <time>2020-05-21T19:43:35.000Z</time>
      </trkpt>
      <trkpt lat="48.73168" lon="7.33271">
        <ele>275.68</ele>
        <time>2020-05-21T19:43:37.000Z</time>
      </trkpt>
      <trkpt lat="48.73169" lon="7.33278">
        <ele>277.06</ele>
        <time>2020-05-21T19:43:39.000Z</time>
      </trkpt>
      <trkpt lat="48.73169" lon="7.33288">
        <ele>278.01</ele>
        <time>2020-05-21T19:43:41.000Z</time>
      </trkpt>
      <trkpt lat="48.73169" lon="7.33298">
        <ele>277.74</ele>
        <time>2020-05-21T19:43:43.000Z</time>
      </trkpt>
      <trkpt lat="48.7317" lon="7.33309">
        <ele>274.03</ele>
        <time>2020-05-21T19:43:46.000Z</time>
      </trkpt>
      <trkpt lat="48.73173" lon="7.33315">
        <ele>273.56</ele>
        <time>2020-05-21T19:43:48.000Z</time>
      </trkpt>
      <trkpt lat="48.73177" lon="7.33323">
        <ele>274.14</ele>
        <time>2020-05-21T19:43:51.000Z</time>
      </trkpt>
      <trkpt lat="48.73182" lon="7.33331">
        <ele>276.49</ele>
        <time>2020-05-21T19:43:54.000Z</time>
      </trkpt>
      <trkpt lat="48.73183" lon="7.33339">
        <ele>272.49</ele>
        <time>2020-05-21T19:43:56.000Z</time>
      </trkpt>
      <trkpt lat="48.73187" lon="7.33348">
        <ele>274.75</ele>
        <time>2020-05-21T19:43:58.000Z</time>
      </trkpt>
      <trkpt lat="48.73193" lon="7.33354">
        <ele>271.8</ele>
        <time>2020-05-21T19:44:01.000Z</time>
      </trkpt>
      <trkpt lat="48.73196" lon="7.3336">
        <ele>271.85</ele>
        <time>2020-05-21T19:44:03.000Z</time>
      </trkpt>
      <trkpt lat="48.732" lon="7.33366">
        <ele>272.62</ele>
        <time>2020-05-21T19:44:05.000Z</time>
      </trkpt>
      <trkpt lat="48.73203" lon="7.33373">
        <ele>271.12</ele>
        <time>2020-05-21T19:44:07.000Z</time>
      </trkpt>
      <trkpt lat="48.73205" lon="7.3338">
        <ele>271.49</ele>
        <time>2020-05-21T19:44:09.000Z</time>
      </trkpt>
      <trkpt lat="48.7321" lon="7.33386">
        <ele>272.11</ele>
        <time>2020-05-21T19:44:11.000Z</time>
      </trkpt>
      <trkpt lat="48.73228" lon="7.33414">
        <ele>272</ele>
        <time>2020-05-21T19:44:18.000Z</time>
      </trkpt>
      <trkpt lat="48.73233" lon="7.3342">
        <ele>273.03</ele>
        <time>2020-05-21T19:44:20.000Z</time>
      </trkpt>
      <trkpt lat="48.73236" lon="7.33426">
        <ele>268.22</ele>
        <time>2020-05-21T19:44:22.000Z</time>
      </trkpt>
      <trkpt lat="48.73238" lon="7.33432">
        <ele>271.39</ele>
        <time>2020-05-21T19:44:24.000Z</time>
      </trkpt>
      <trkpt lat="48.73242" lon="7.3344">
        <ele>270.04</ele>
        <time>2020-05-21T19:44:26.000Z</time>
      </trkpt>
      <trkpt lat="48.73245" lon="7.33446">
        <ele>274.24</ele>
        <time>2020-05-21T19:44:29.000Z</time>
      </trkpt>
      <trkpt lat="48.73248" lon="7.33453">
        <ele>277.73</ele>
        <time>2020-05-21T19:44:32.000Z</time>
      </trkpt>
      <trkpt lat="48.73252" lon="7.33456">
        <ele>278.36</ele>
        <time>2020-05-21T19:44:34.000Z</time>
      </trkpt>
      <trkpt lat="48.73255" lon="7.33464">
        <ele>279.63</ele>
        <time>2020-05-21T19:44:36.000Z</time>
      </trkpt>
      <trkpt lat="48.73256" lon="7.33473">
        <ele>283.47</ele>
        <time>2020-05-21T19:44:38.000Z</time>
      </trkpt>
      <trkpt lat="48.73258" lon="7.33482">
        <ele>283.59</ele>
        <time>2020-05-21T19:44:41.000Z</time>
      </trkpt>
      <trkpt lat="48.73262" lon="7.33489">
        <ele>285.44</ele>
        <time>2020-05-21T19:44:45.000Z</time>
      </trkpt>
      <trkpt lat="48.73264" lon="7.33498">
        <ele>285.75</ele>
        <time>2020-05-21T19:44:47.000Z</time>
      </trkpt>
      <trkpt lat="48.73265" lon="7.33505">
        <ele>287.56</ele>
        <time>2020-05-21T19:44:50.000Z</time>
      </trkpt>
      <trkpt lat="48.73269" lon="7.33522">
        <ele>287.72</ele>
        <time>2020-05-21T19:44:54.000Z</time>
      </trkpt>
      <trkpt lat="48.7327" lon="7.3353">
        <ele>290.73</ele>
        <time>2020-05-21T19:44:56.000Z</time>
      </trkpt>
      <trkpt lat="48.73272" lon="7.33538">
        <ele>290.27</ele>
        <time>2020-05-21T19:44:58.000Z</time>
      </trkpt>
      <trkpt lat="48.73274" lon="7.33545">
        <ele>289.24</ele>
        <time>2020-05-21T19:45:01.000Z</time>
      </trkpt>
      <trkpt lat="48.73275" lon="7.33554">
        <ele>292.4</ele>
        <time>2020-05-21T19:45:04.000Z</time>
      </trkpt>
      <trkpt lat="48.73275" lon="7.33565">
        <ele>293.33</ele>
        <time>2020-05-21T19:45:07.000Z</time>
      </trkpt>
      <trkpt lat="48.73278" lon="7.33571">
        <ele>294.17</ele>
        <time>2020-05-21T19:45:09.000Z</time>
      </trkpt>
      <trkpt lat="48.7328" lon="7.33578">
        <ele>294.84</ele>
        <time>2020-05-21T19:45:12.000Z</time>
      </trkpt>
      <trkpt lat="48.73282" lon="7.33587">
        <ele>293.86</ele>
        <time>2020-05-21T19:45:15.000Z</time>
      </trkpt>
      <trkpt lat="48.73282" lon="7.33594">
        <ele>294.31</ele>
        <time>2020-05-21T19:45:17.000Z</time>
      </trkpt>
      <trkpt lat="48.73283" lon="7.33605">
        <ele>294.91</ele>
        <time>2020-05-21T19:45:20.000Z</time>
      </trkpt>
      <trkpt lat="48.73283" lon="7.33613">
        <ele>295.33</ele>
        <time>2020-05-21T19:45:22.000Z</time>
      </trkpt>
      <trkpt lat="48.73285" lon="7.33623">
        <ele>296.05</ele>
        <time>2020-05-21T19:45:25.000Z</time>
      </trkpt>
      <trkpt lat="48.73284" lon="7.3363">
        <ele>294.72</ele>
        <time>2020-05-21T19:45:28.000Z</time>
      </trkpt>
      <trkpt lat="48.73284" lon="7.33637">
        <ele>295.9</ele>
        <time>2020-05-21T19:45:31.000Z</time>
      </trkpt>
      <trkpt lat="48.73285" lon="7.33644">
        <ele>296.22</ele>
        <time>2020-05-21T19:45:33.000Z</time>
      </trkpt>
      <trkpt lat="48.73286" lon="7.33652">
        <ele>294.56</ele>
        <time>2020-05-21T19:45:35.000Z</time>
      </trkpt>
      <trkpt lat="48.73286" lon="7.3366">
        <ele>295.06</ele>
        <time>2020-05-21T19:45:37.000Z</time>
      </trkpt>
      <trkpt lat="48.73288" lon="7.33667">
        <ele>293.69</ele>
        <time>2020-05-21T19:45:39.000Z</time>
      </trkpt>
      <trkpt lat="48.73287" lon="7.33676">
        <ele>292.62</ele>
        <time>2020-05-21T19:45:42.000Z</time>
      </trkpt>
      <trkpt lat="48.73286" lon="7.33686">
        <ele>294.49</ele>
        <time>2020-05-21T19:45:45.000Z</time>
      </trkpt>
      <trkpt lat="48.73284" lon="7.33695">
        <ele>296.35</ele>
        <time>2020-05-21T19:45:48.000Z</time>
      </trkpt>
      <trkpt lat="48.73283" lon="7.33703">
        <ele>295.62</ele>
        <time>2020-05-21T19:45:50.000Z</time>
      </trkpt>
      <trkpt lat="48.73283" lon="7.33712">
        <ele>296.54</ele>
        <time>2020-05-21T19:45:52.000Z</time>
      </trkpt>
      <trkpt lat="48.73283" lon="7.33721">
        <ele>296.26</ele>
        <time>2020-05-21T19:45:55.000Z</time>
      </trkpt>
      <trkpt lat="48.73282" lon="7.3373">
        <ele>297.13</ele>
        <time>2020-05-21T19:45:58.000Z</time>
      </trkpt>
      <trkpt lat="48.73281" lon="7.33737">
        <ele>297.63</ele>
        <time>2020-05-21T19:46:00.000Z</time>
      </trkpt>
      <trkpt lat="48.73282" lon="7.33745">
        <ele>298.18</ele>
        <time>2020-05-21T19:46:03.000Z</time>
      </trkpt>
      <trkpt lat="48.73283" lon="7.33752">
        <ele>296.31</ele>
        <time>2020-05-21T19:46:05.000Z</time>
      </trkpt>
      <trkpt lat="48.73283" lon="7.3376">
        <ele>295.09</ele>
        <time>2020-05-21T19:46:07.000Z</time>
      </trkpt>
      <trkpt lat="48.73283" lon="7.33767">
        <ele>294.48</ele>
        <time>2020-05-21T19:46:09.000Z</time>
      </trkpt>
      <trkpt lat="48.73284" lon="7.33774">
        <ele>295.85</ele>
        <time>2020-05-21T19:46:11.000Z</time>
      </trkpt>
      <trkpt lat="48.73286" lon="7.3378">
        <ele>295.74</ele>
        <time>2020-05-21T19:46:13.000Z</time>
      </trkpt>
      <trkpt lat="48.73288" lon="7.33787">
        <ele>296.43</ele>
        <time>2020-05-21T19:46:15.000Z</time>
      </trkpt>
      <trkpt lat="48.73291" lon="7.33794">
        <ele>296.54</ele>
        <time>2020-05-21T19:46:18.000Z</time>
      </trkpt>
      <trkpt lat="48.73295" lon="7.33801">
        <ele>297.24</ele>
        <time>2020-05-21T19:46:21.000Z</time>
      </trkpt>
      <trkpt lat="48.73298" lon="7.33807">
        <ele>297.58</ele>
        <time>2020-05-21T19:46:24.000Z</time>
      </trkpt>
      <trkpt lat="48.73301" lon="7.33813">
        <ele>298.28</ele>
        <time>2020-05-21T19:46:27.000Z</time>
      </trkpt>
      <trkpt lat="48.73304" lon="7.3382">
        <ele>298.99</ele>
        <time>2020-05-21T19:46:30.000Z</time>
      </trkpt>
      <trkpt lat="48.73308" lon="7.33824">
        <ele>299</ele>
        <time>2020-05-21T19:46:33.000Z</time>
      </trkpt>
      <trkpt lat="48.73312" lon="7.33829">
        <ele>300.42</ele>
        <time>2020-05-21T19:46:36.000Z</time>
      </trkpt>
      <trkpt lat="48.73317" lon="7.33832">
        <ele>301.82</ele>
        <time>2020-05-21T19:46:39.000Z</time>
      </trkpt>
      <trkpt lat="48.73322" lon="7.33836">
        <ele>302.68</ele>
        <time>2020-05-21T19:46:41.000Z</time>
      </trkpt>
      <trkpt lat="48.73327" lon="7.3384">
        <ele>303.16</ele>
        <time>2020-05-21T19:46:43.000Z</time>
      </trkpt>
      <trkpt lat="48.73331" lon="7.33843">
        <ele>302.74</ele>
        <time>2020-05-21T19:46:45.000Z</time>
      </trkpt>
      <trkpt lat="48.73337" lon="7.33845">
        <ele>303.44</ele>
        <time>2020-05-21T19:46:49.000Z</time>
      </trkpt>
      <trkpt lat="48.73342" lon="7.33849">
        <ele>306.94</ele>
        <time>2020-05-21T19:46:52.000Z</time>
      </trkpt>
      <trkpt lat="48.73349" lon="7.33853">
        <ele>307.94</ele>
        <time>2020-05-21T19:46:55.000Z</time>
      </trkpt>
      <trkpt lat="48.73354" lon="7.33855">
        <ele>309.5</ele>
        <time>2020-05-21T19:46:57.000Z</time>
      </trkpt>
      <trkpt lat="48.73359" lon="7.33859">
        <ele>310.58</ele>
        <time>2020-05-21T19:46:59.000Z</time>
      </trkpt>
      <trkpt lat="48.73364" lon="7.33861">
        <ele>310.78</ele>
        <time>2020-05-21T19:47:01.000Z</time>
      </trkpt>
      <trkpt lat="48.7337" lon="7.33865">
        <ele>310.76</ele>
        <time>2020-05-21T19:47:03.000Z</time>
      </trkpt>
      <trkpt lat="48.73375" lon="7.33868">
        <ele>309.32</ele>
        <time>2020-05-21T19:47:05.000Z</time>
      </trkpt>
      <trkpt lat="48.73381" lon="7.33874">
        <ele>309.92</ele>
        <time>2020-05-21T19:47:08.000Z</time>
      </trkpt>
      <trkpt lat="48.73385" lon="7.3388">
        <ele>310.42</ele>
        <time>2020-05-21T19:47:10.000Z</time>
      </trkpt>
      <trkpt lat="48.73389" lon="7.33883">
        <ele>308.2</ele>
        <time>2020-05-21T19:47:12.000Z</time>
      </trkpt>
      <trkpt lat="48.73394" lon="7.33888">
        <ele>307.28</ele>
        <time>2020-05-21T19:47:14.000Z</time>
      </trkpt>
      <trkpt lat="48.73399" lon="7.33899">
        <ele>306.36</ele>
        <time>2020-05-21T19:47:16.000Z</time>
      </trkpt>
      <trkpt lat="48.73404" lon="7.33903">
        <ele>306.05</ele>
        <time>2020-05-21T19:47:17.000Z</time>
      </trkpt>
      <trkpt lat="48.73407" lon="7.33908">
        <ele>306.49</ele>
        <time>2020-05-21T19:47:18.000Z</time>
      </trkpt>
      <trkpt lat="48.73417" lon="7.33919">
        <ele>305.46</ele>
        <time>2020-05-21T19:47:20.000Z</time>
      </trkpt>
      <trkpt lat="48.73424" lon="7.33926">
        <ele>305.79</ele>
        <time>2020-05-21T19:47:22.000Z</time>
      </trkpt>
      <trkpt lat="48.73428" lon="7.33932">
        <ele>304.18</ele>
        <time>2020-05-21T19:47:23.000Z</time>
      </trkpt>
      <trkpt lat="48.73432" lon="7.33939">
        <ele>301.17</ele>
        <time>2020-05-21T19:47:24.000Z</time>
      </trkpt>
      <trkpt lat="48.73438" lon="7.33955">
        <ele>302.45</ele>
        <time>2020-05-21T19:47:26.000Z</time>
      </trkpt>
      <trkpt lat="48.73446" lon="7.33958">
        <ele>300.13</ele>
        <time>2020-05-21T19:47:28.000Z</time>
      </trkpt>
      <trkpt lat="48.73454" lon="7.33964">
        <ele>298.41</ele>
        <time>2020-05-21T19:47:30.000Z</time>
      </trkpt>
      <trkpt lat="48.7346" lon="7.33968">
        <ele>297.53</ele>
        <time>2020-05-21T19:47:31.000Z</time>
      </trkpt>
      <trkpt lat="48.73462" lon="7.33976">
        <ele>296.25</ele>
        <time>2020-05-21T19:47:32.000Z</time>
      </trkpt>
      <trkpt lat="48.73466" lon="7.33981">
        <ele>295.28</ele>
        <time>2020-05-21T19:47:33.000Z</time>
      </trkpt>
      <trkpt lat="48.7347" lon="7.33985">
        <ele>295.65</ele>
        <time>2020-05-21T19:47:34.000Z</time>
      </trkpt>
      <trkpt lat="48.73472" lon="7.33993">
        <ele>296.01</ele>
        <time>2020-05-21T19:47:35.000Z</time>
      </trkpt>
      <trkpt lat="48.73475" lon="7.33998">
        <ele>295.62</ele>
        <time>2020-05-21T19:47:36.000Z</time>
      </trkpt>
      <trkpt lat="48.73479" lon="7.34003">
        <ele>296.04</ele>
        <time>2020-05-21T19:47:37.000Z</time>
      </trkpt>
      <trkpt lat="48.73483" lon="7.34007">
        <ele>295.49</ele>
        <time>2020-05-21T19:47:38.000Z</time>
      </trkpt>
      <trkpt lat="48.73488" lon="7.34011">
        <ele>296.41</ele>
        <time>2020-05-21T19:47:39.000Z</time>
      </trkpt>
      <trkpt lat="48.73501" lon="7.3402">
        <ele>295.11</ele>
        <time>2020-05-21T19:47:41.000Z</time>
      </trkpt>
      <trkpt lat="48.73506" lon="7.3402">
        <ele>294.44</ele>
        <time>2020-05-21T19:47:42.000Z</time>
      </trkpt>
      <trkpt lat="48.7351" lon="7.34023">
        <ele>294.82</ele>
        <time>2020-05-21T19:47:43.000Z</time>
      </trkpt>
      <trkpt lat="48.73519" lon="7.34027">
        <ele>295.58</ele>
        <time>2020-05-21T19:47:45.000Z</time>
      </trkpt>
      <trkpt lat="48.73523" lon="7.34032">
        <ele>294.17</ele>
        <time>2020-05-21T19:47:46.000Z</time>
      </trkpt>
      <trkpt lat="48.73529" lon="7.3404">
        <ele>294.5</ele>
        <time>2020-05-21T19:47:48.000Z</time>
      </trkpt>
      <trkpt lat="48.73535" lon="7.34046">
        <ele>296.17</ele>
        <time>2020-05-21T19:47:50.000Z</time>
      </trkpt>
      <trkpt lat="48.73546" lon="7.34053">
        <ele>296</ele>
        <time>2020-05-21T19:47:52.000Z</time>
      </trkpt>
      <trkpt lat="48.73552" lon="7.34058">
        <ele>294.71</ele>
        <time>2020-05-21T19:47:53.000Z</time>
      </trkpt>
      <trkpt lat="48.73556" lon="7.34064">
        <ele>294.96</ele>
        <time>2020-05-21T19:47:54.000Z</time>
      </trkpt>
      <trkpt lat="48.73559" lon="7.34073">
        <ele>295.45</ele>
        <time>2020-05-21T19:47:55.000Z</time>
      </trkpt>
      <trkpt lat="48.73564" lon="7.34077">
        <ele>294.22</ele>
        <time>2020-05-21T19:47:56.000Z</time>
      </trkpt>
      <trkpt lat="48.73567" lon="7.34085">
        <ele>295.27</ele>
        <time>2020-05-21T19:47:57.000Z</time>
      </trkpt>
      <trkpt lat="48.73573" lon="7.34091">
        <ele>292.49</ele>
        <time>2020-05-21T19:47:59.000Z</time>
      </trkpt>
      <trkpt lat="48.73578" lon="7.34094">
        <ele>291.08</ele>
        <time>2020-05-21T19:48:00.000Z</time>
      </trkpt>
      <trkpt lat="48.7358" lon="7.34103">
        <ele>292.22</ele>
        <time>2020-05-21T19:48:01.000Z</time>
      </trkpt>
      <trkpt lat="48.73585" lon="7.34116">
        <ele>288.2</ele>
        <time>2020-05-21T19:48:03.000Z</time>
      </trkpt>
      <trkpt lat="48.73587" lon="7.34122">
        <ele>288.22</ele>
        <time>2020-05-21T19:48:04.000Z</time>
      </trkpt>
      <trkpt lat="48.73589" lon="7.34129">
        <ele>288.52</ele>
        <time>2020-05-21T19:48:05.000Z</time>
      </trkpt>
      <trkpt lat="48.73592" lon="7.34137">
        <ele>286.62</ele>
        <time>2020-05-21T19:48:06.000Z</time>
      </trkpt>
      <trkpt lat="48.73594" lon="7.34145">
        <ele>287.14</ele>
        <time>2020-05-21T19:48:07.000Z</time>
      </trkpt>
      <trkpt lat="48.73596" lon="7.34152">
        <ele>286</ele>
        <time>2020-05-21T19:48:08.000Z</time>
      </trkpt>
      <trkpt lat="48.73598" lon="7.34159">
        <ele>286.76</ele>
        <time>2020-05-21T19:48:09.000Z</time>
      </trkpt>
      <trkpt lat="48.73601" lon="7.34166">
        <ele>286.23</ele>
        <time>2020-05-21T19:48:10.000Z</time>
      </trkpt>
      <trkpt lat="48.73601" lon="7.34174">
        <ele>286.56</ele>
        <time>2020-05-21T19:48:11.000Z</time>
      </trkpt>
      <trkpt lat="48.73604" lon="7.34185">
        <ele>286.56</ele>
        <time>2020-05-21T19:48:12.000Z</time>
      </trkpt>
      <trkpt lat="48.73606" lon="7.34195">
        <ele>284.93</ele>
        <time>2020-05-21T19:48:13.000Z</time>
      </trkpt>
      <trkpt lat="48.7361" lon="7.342">
        <ele>284.27</ele>
        <time>2020-05-21T19:48:14.000Z</time>
      </trkpt>
      <trkpt lat="48.73613" lon="7.34209">
        <ele>282.27</ele>
        <time>2020-05-21T19:48:15.000Z</time>
      </trkpt>
      <trkpt lat="48.73615" lon="7.34217">
        <ele>282.35</ele>
        <time>2020-05-21T19:48:16.000Z</time>
      </trkpt>
      <trkpt lat="48.73618" lon="7.34225">
        <ele>283.25</ele>
        <time>2020-05-21T19:48:17.000Z</time>
      </trkpt>
      <trkpt lat="48.7362" lon="7.34232">
        <ele>282.67</ele>
        <time>2020-05-21T19:48:18.000Z</time>
      </trkpt>
      <trkpt lat="48.73624" lon="7.34238">
        <ele>281</ele>
        <time>2020-05-21T19:48:19.000Z</time>
      </trkpt>
      <trkpt lat="48.73628" lon="7.34249">
        <ele>280.89</ele>
        <time>2020-05-21T19:48:21.000Z</time>
      </trkpt>
      <trkpt lat="48.73631" lon="7.34256">
        <ele>280.25</ele>
        <time>2020-05-21T19:48:22.000Z</time>
      </trkpt>
      <trkpt lat="48.73635" lon="7.34262">
        <ele>279.84</ele>
        <time>2020-05-21T19:48:23.000Z</time>
      </trkpt>
      <trkpt lat="48.73639" lon="7.34267">
        <ele>279.64</ele>
        <time>2020-05-21T19:48:24.000Z</time>
      </trkpt>
      <trkpt lat="48.73643" lon="7.34272">
        <ele>279.43</ele>
        <time>2020-05-21T19:48:25.000Z</time>
      </trkpt>
      <trkpt lat="48.73647" lon="7.34284">
        <ele>279.55</ele>
        <time>2020-05-21T19:48:27.000Z</time>
      </trkpt>
      <trkpt lat="48.73651" lon="7.34288">
        <ele>278.34</ele>
        <time>2020-05-21T19:48:28.000Z</time>
      </trkpt>
      <trkpt lat="48.73655" lon="7.34292">
        <ele>277.25</ele>
        <time>2020-05-21T19:48:29.000Z</time>
      </trkpt>
      <trkpt lat="48.7366" lon="7.34303">
        <ele>275.04</ele>
        <time>2020-05-21T19:48:31.000Z</time>
      </trkpt>
      <trkpt lat="48.73663" lon="7.34308">
        <ele>274.87</ele>
        <time>2020-05-21T19:48:32.000Z</time>
      </trkpt>
      <trkpt lat="48.73669" lon="7.34318">
        <ele>273.27</ele>
        <time>2020-05-21T19:48:34.000Z</time>
      </trkpt>
      <trkpt lat="48.73673" lon="7.34323">
        <ele>272.55</ele>
        <time>2020-05-21T19:48:35.000Z</time>
      </trkpt>
      <trkpt lat="48.73678" lon="7.34332">
        <ele>271.47</ele>
        <time>2020-05-21T19:48:37.000Z</time>
      </trkpt>
      <trkpt lat="48.73685" lon="7.34336">
        <ele>272.3</ele>
        <time>2020-05-21T19:48:39.000Z</time>
      </trkpt>
      <trkpt lat="48.73693" lon="7.34338">
        <ele>270.71</ele>
        <time>2020-05-21T19:48:41.000Z</time>
      </trkpt>
      <trkpt lat="48.73704" lon="7.34343">
        <ele>268.15</ele>
        <time>2020-05-21T19:48:43.000Z</time>
      </trkpt>
      <trkpt lat="48.73709" lon="7.34346">
        <ele>266.02</ele>
        <time>2020-05-21T19:48:44.000Z</time>
      </trkpt>
      <trkpt lat="48.73714" lon="7.34345">
        <ele>265.73</ele>
        <time>2020-05-21T19:48:45.000Z</time>
      </trkpt>
      <trkpt lat="48.73722" lon="7.34353">
        <ele>265.75</ele>
        <time>2020-05-21T19:48:47.000Z</time>
      </trkpt>
      <trkpt lat="48.73726" lon="7.34358">
        <ele>264.88</ele>
        <time>2020-05-21T19:48:48.000Z</time>
      </trkpt>
      <trkpt lat="48.73737" lon="7.34372">
        <ele>264.02</ele>
        <time>2020-05-21T19:48:50.000Z</time>
      </trkpt>
      <trkpt lat="48.73741" lon="7.34379">
        <ele>263.42</ele>
        <time>2020-05-21T19:48:51.000Z</time>
      </trkpt>
      <trkpt lat="48.73747" lon="7.34383">
        <ele>262.14</ele>
        <time>2020-05-21T19:48:52.000Z</time>
      </trkpt>
      <trkpt lat="48.7375" lon="7.34389">
        <ele>262.07</ele>
        <time>2020-05-21T19:48:53.000Z</time>
      </trkpt>
      <trkpt lat="48.73753" lon="7.34395">
        <ele>262.7</ele>
        <time>2020-05-21T19:48:54.000Z</time>
      </trkpt>
      <trkpt lat="48.73755" lon="7.34406">
        <ele>265.67</ele>
        <time>2020-05-21T19:48:56.000Z</time>
      </trkpt>
      <trkpt lat="48.73759" lon="7.34411">
        <ele>266.3</ele>
        <time>2020-05-21T19:48:57.000Z</time>
      </trkpt>
      <trkpt lat="48.73763" lon="7.3442">
        <ele>265.24</ele>
        <time>2020-05-21T19:48:59.000Z</time>
      </trkpt>
      <trkpt lat="48.73765" lon="7.34428">
        <ele>268.5</ele>
        <time>2020-05-21T19:49:02.000Z</time>
      </trkpt>
      <trkpt lat="48.73764" lon="7.34436">
        <ele>265.58</ele>
        <time>2020-05-21T19:49:05.000Z</time>
      </trkpt>
      <trkpt lat="48.73761" lon="7.34445">
        <ele>264.2</ele>
        <time>2020-05-21T19:49:07.000Z</time>
      </trkpt>
      <trkpt lat="48.73765" lon="7.3446">
        <ele>261.9</ele>
        <time>2020-05-21T19:49:09.000Z</time>
      </trkpt>
      <trkpt lat="48.7377" lon="7.34486">
        <ele>261.17</ele>
        <time>2020-05-21T19:49:12.000Z</time>
      </trkpt>
      <trkpt lat="48.7377" lon="7.34493">
        <ele>257.83</ele>
        <time>2020-05-21T19:49:14.000Z</time>
      </trkpt>
      <trkpt lat="48.73774" lon="7.34499">
        <ele>257.46</ele>
        <time>2020-05-21T19:49:16.000Z</time>
      </trkpt>
      <trkpt lat="48.73777" lon="7.34507">
        <ele>257.5</ele>
        <time>2020-05-21T19:49:18.000Z</time>
      </trkpt>
      <trkpt lat="48.73785" lon="7.3452">
        <ele>257.1</ele>
        <time>2020-05-21T19:49:21.000Z</time>
      </trkpt>
      <trkpt lat="48.73788" lon="7.34526">
        <ele>255.62</ele>
        <time>2020-05-21T19:49:23.000Z</time>
      </trkpt>
      <trkpt lat="48.73791" lon="7.34535">
        <ele>254.07</ele>
        <time>2020-05-21T19:49:26.000Z</time>
      </trkpt>
      <trkpt lat="48.73796" lon="7.34539">
        <ele>250.21</ele>
        <time>2020-05-21T19:49:29.000Z</time>
      </trkpt>
      <trkpt lat="48.73801" lon="7.34543">
        <ele>248.08</ele>
        <time>2020-05-21T19:49:32.000Z</time>
      </trkpt>
      <trkpt lat="48.73805" lon="7.34546">
        <ele>246.22</ele>
        <time>2020-05-21T19:49:35.000Z</time>
      </trkpt>
      <trkpt lat="48.73806" lon="7.34553">
        <ele>241.95</ele>
        <time>2020-05-21T19:49:44.000Z</time>
      </trkpt>
      <trkpt lat="48.73807" lon="7.3456">
        <ele>239.12</ele>
        <time>2020-05-21T19:49:52.000Z</time>
      </trkpt>
      <trkpt lat="48.73812" lon="7.34567">
        <ele>238.73</ele>
        <time>2020-05-21T19:49:59.000Z</time>
      </trkpt>
      <trkpt lat="48.73817" lon="7.34573">
        <ele>237.22</ele>
        <time>2020-05-21T19:50:01.000Z</time>
      </trkpt>
      <trkpt lat="48.73822" lon="7.34579">
        <ele>237.1</ele>
        <time>2020-05-21T19:50:03.000Z</time>
      </trkpt>
      <trkpt lat="48.73828" lon="7.34586">
        <ele>237.1</ele>
        <time>2020-05-21T19:50:05.000Z</time>
      </trkpt>
      <trkpt lat="48.73834" lon="7.34593">
        <ele>236.87</ele>
        <time>2020-05-21T19:50:07.000Z</time>
      </trkpt>
      <trkpt lat="48.73839" lon="7.34598">
        <ele>236.46</ele>
        <time>2020-05-21T19:50:09.000Z</time>
      </trkpt>
      <trkpt lat="48.73844" lon="7.34602">
        <ele>237.12</ele>
        <time>2020-05-21T19:50:11.000Z</time>
      </trkpt>
      <trkpt lat="48.7385" lon="7.34603">
        <ele>237.36</ele>
        <time>2020-05-21T19:50:13.000Z</time>
      </trkpt>
      <trkpt lat="48.73855" lon="7.346">
        <ele>237.07</ele>
        <time>2020-05-21T19:50:15.000Z</time>
      </trkpt>
      <trkpt lat="48.73857" lon="7.34592">
        <ele>237.28</ele>
        <time>2020-05-21T19:50:17.000Z</time>
      </trkpt>
      <trkpt lat="48.73856" lon="7.34581">
        <ele>238.16</ele>
        <time>2020-05-21T19:50:19.000Z</time>
      </trkpt>
      <trkpt lat="48.73854" lon="7.3457">
        <ele>238.4</ele>
        <time>2020-05-21T19:50:21.000Z</time>
      </trkpt>
      <trkpt lat="48.73852" lon="7.3456">
        <ele>238.62</ele>
        <time>2020-05-21T19:50:23.000Z</time>
      </trkpt>
      <trkpt lat="48.7385" lon="7.34552">
        <ele>238.77</ele>
        <time>2020-05-21T19:50:25.000Z</time>
      </trkpt>
      <trkpt lat="48.73848" lon="7.34543">
        <ele>238.73</ele>
        <time>2020-05-21T19:50:27.000Z</time>
      </trkpt>
      <trkpt lat="48.73846" lon="7.34533">
        <ele>239.12</ele>
        <time>2020-05-21T19:50:29.000Z</time>
      </trkpt>
      <trkpt lat="48.73844" lon="7.34524">
        <ele>239.82</ele>
        <time>2020-05-21T19:50:31.000Z</time>
      </trkpt>
      <trkpt lat="48.73843" lon="7.34515">
        <ele>240.14</ele>
        <time>2020-05-21T19:50:33.000Z</time>
      </trkpt>
      <trkpt lat="48.73843" lon="7.34507">
        <ele>242.58</ele>
        <time>2020-05-21T19:50:35.000Z</time>
      </trkpt>
      <trkpt lat="48.73843" lon="7.34498">
        <ele>242.66</ele>
        <time>2020-05-21T19:50:37.000Z</time>
      </trkpt>
      <trkpt lat="48.73842" lon="7.3449">
        <ele>243.66</ele>
        <time>2020-05-21T19:50:39.000Z</time>
      </trkpt>
      <trkpt lat="48.73839" lon="7.34482">
        <ele>245.29</ele>
        <time>2020-05-21T19:50:41.000Z</time>
      </trkpt>
      <trkpt lat="48.73837" lon="7.34471">
        <ele>245.2</ele>
        <time>2020-05-21T19:50:43.000Z</time>
      </trkpt>
      <trkpt lat="48.73835" lon="7.34463">
        <ele>243.87</ele>
        <time>2020-05-21T19:50:45.000Z</time>
      </trkpt>
      <trkpt lat="48.73834" lon="7.34456">
        <ele>245.66</ele>
        <time>2020-05-21T19:50:47.000Z</time>
      </trkpt>
      <trkpt lat="48.73832" lon="7.34447">
        <ele>248.35</ele>
        <time>2020-05-21T19:50:50.000Z</time>
      </trkpt>
      <trkpt lat="48.73831" lon="7.34439">
        <ele>249.33</ele>
        <time>2020-05-21T19:50:52.000Z</time>
      </trkpt>
      <trkpt lat="48.73831" lon="7.34431">
        <ele>250.46</ele>
        <time>2020-05-21T19:50:54.000Z</time>
      </trkpt>
      <trkpt lat="48.73832" lon="7.34424">
        <ele>250.58</ele>
        <time>2020-05-21T19:50:56.000Z</time>
      </trkpt>
      <trkpt lat="48.73834" lon="7.34416">
        <ele>249.67</ele>
        <time>2020-05-21T19:50:58.000Z</time>
      </trkpt>
      <trkpt lat="48.73836" lon="7.34408">
        <ele>249.72</ele>
        <time>2020-05-21T19:51:00.000Z</time>
      </trkpt>
      <trkpt lat="48.73838" lon="7.344">
        <ele>247.63</ele>
        <time>2020-05-21T19:51:02.000Z</time>
      </trkpt>
      <trkpt lat="48.73839" lon="7.34393">
        <ele>249.36</ele>
        <time>2020-05-21T19:51:04.000Z</time>
      </trkpt>
      <trkpt lat="48.7384" lon="7.34386">
        <ele>248.77</ele>
        <time>2020-05-21T19:51:06.000Z</time>
      </trkpt>
      <trkpt lat="48.73841" lon="7.34375">
        <ele>252.79</ele>
        <time>2020-05-21T19:51:09.000Z</time>
      </trkpt>
      <trkpt lat="48.7384" lon="7.34368">
        <ele>253.46</ele>
        <time>2020-05-21T19:51:11.000Z</time>
      </trkpt>
      <trkpt lat="48.7384" lon="7.34359">
        <ele>254.9</ele>
        <time>2020-05-21T19:51:14.000Z</time>
      </trkpt>
      <trkpt lat="48.7384" lon="7.34349">
        <ele>253.45</ele>
        <time>2020-05-21T19:51:17.000Z</time>
      </trkpt>
      <trkpt lat="48.73841" lon="7.34339">
        <ele>253.07</ele>
        <time>2020-05-21T19:51:19.000Z</time>
      </trkpt>
      <trkpt lat="48.73842" lon="7.3433">
        <ele>254.22</ele>
        <time>2020-05-21T19:51:21.000Z</time>
      </trkpt>
      <trkpt lat="48.73843" lon="7.34323">
        <ele>254.93</ele>
        <time>2020-05-21T19:51:23.000Z</time>
      </trkpt>
      <trkpt lat="48.73843" lon="7.34315">
        <ele>254.96</ele>
        <time>2020-05-21T19:51:25.000Z</time>
      </trkpt>
      <trkpt lat="48.73844" lon="7.34307">
        <ele>256.96</ele>
        <time>2020-05-21T19:51:27.000Z</time>
      </trkpt>
      <trkpt lat="48.73845" lon="7.343">
        <ele>257.68</ele>
        <time>2020-05-21T19:51:29.000Z</time>
      </trkpt>
      <trkpt lat="48.73846" lon="7.34292">
        <ele>255.59</ele>
        <time>2020-05-21T19:51:31.000Z</time>
      </trkpt>
      <trkpt lat="48.73848" lon="7.34286">
        <ele>254.89</ele>
        <time>2020-05-21T19:51:33.000Z</time>
      </trkpt>
      <trkpt lat="48.7385" lon="7.34278">
        <ele>253</ele>
        <time>2020-05-21T19:51:35.000Z</time>
      </trkpt>
      <trkpt lat="48.73851" lon="7.34269">
        <ele>252.07</ele>
        <time>2020-05-21T19:51:37.000Z</time>
      </trkpt>
      <trkpt lat="48.7385" lon="7.34262">
        <ele>251.11</ele>
        <time>2020-05-21T19:51:39.000Z</time>
      </trkpt>
      <trkpt lat="48.73849" lon="7.34254">
        <ele>252.55</ele>
        <time>2020-05-21T19:51:41.000Z</time>
      </trkpt>
      <trkpt lat="48.73848" lon="7.34247">
        <ele>253.07</ele>
        <time>2020-05-21T19:51:43.000Z</time>
      </trkpt>
      <trkpt lat="48.73846" lon="7.34239">
        <ele>256.73</ele>
        <time>2020-05-21T19:51:46.000Z</time>
      </trkpt>
      <trkpt lat="48.73844" lon="7.34232">
        <ele>259.9</ele>
        <time>2020-05-21T19:51:49.000Z</time>
      </trkpt>
      <trkpt lat="48.73842" lon="7.34224">
        <ele>260.51</ele>
        <time>2020-05-21T19:51:52.000Z</time>
      </trkpt>
      <trkpt lat="48.73841" lon="7.34216">
        <ele>263.09</ele>
        <time>2020-05-21T19:51:55.000Z</time>
      </trkpt>
      <trkpt lat="48.73839" lon="7.34209">
        <ele>263.12</ele>
        <time>2020-05-21T19:51:58.000Z</time>
      </trkpt>
      <trkpt lat="48.73837" lon="7.34201">
        <ele>264.48</ele>
        <time>2020-05-21T19:52:01.000Z</time>
      </trkpt>
      <trkpt lat="48.73837" lon="7.34195">
        <ele>265.48</ele>
        <time>2020-05-21T19:52:04.000Z</time>
      </trkpt>
      <trkpt lat="48.73836" lon="7.34185">
        <ele>266.02</ele>
        <time>2020-05-21T19:52:07.000Z</time>
      </trkpt>
      <trkpt lat="48.73835" lon="7.34176">
        <ele>263.94</ele>
        <time>2020-05-21T19:52:10.000Z</time>
      </trkpt>
      <trkpt lat="48.73834" lon="7.34167">
        <ele>262.44</ele>
        <time>2020-05-21T19:52:13.000Z</time>
      </trkpt>
      <trkpt lat="48.73833" lon="7.3416">
        <ele>262.75</ele>
        <time>2020-05-21T19:52:15.000Z</time>
      </trkpt>
      <trkpt lat="48.73834" lon="7.34151">
        <ele>264.31</ele>
        <time>2020-05-21T19:52:18.000Z</time>
      </trkpt>
      <trkpt lat="48.73833" lon="7.34143">
        <ele>265.6</ele>
        <time>2020-05-21T19:52:21.000Z</time>
      </trkpt>
      <trkpt lat="48.73834" lon="7.34134">
        <ele>265.57</ele>
        <time>2020-05-21T19:52:24.000Z</time>
      </trkpt>
      <trkpt lat="48.73833" lon="7.34126">
        <ele>265.15</ele>
        <time>2020-05-21T19:52:26.000Z</time>
      </trkpt>
      <trkpt lat="48.73833" lon="7.34118">
        <ele>264.96</ele>
        <time>2020-05-21T19:52:28.000Z</time>
      </trkpt>
      <trkpt lat="48.73832" lon="7.34108">
        <ele>264.4</ele>
        <time>2020-05-21T19:52:31.000Z</time>
      </trkpt>
      <trkpt lat="48.73833" lon="7.34101">
        <ele>263.15</ele>
        <time>2020-05-21T19:52:33.000Z</time>
      </trkpt>
      <trkpt lat="48.73835" lon="7.34092">
        <ele>264.08</ele>
        <time>2020-05-21T19:52:36.000Z</time>
      </trkpt>
      <trkpt lat="48.73838" lon="7.34085">
        <ele>263.74</ele>
        <time>2020-05-21T19:52:39.000Z</time>
      </trkpt>
      <trkpt lat="48.73839" lon="7.34076">
        <ele>269.18</ele>
        <time>2020-05-21T19:52:43.000Z</time>
      </trkpt>
      <trkpt lat="48.7384" lon="7.34067">
        <ele>270.61</ele>
        <time>2020-05-21T19:52:46.000Z</time>
      </trkpt>
      <trkpt lat="48.7384" lon="7.34059">
        <ele>268.08</ele>
        <time>2020-05-21T19:52:48.000Z</time>
      </trkpt>
      <trkpt lat="48.7384" lon="7.34051">
        <ele>266.76</ele>
        <time>2020-05-21T19:52:51.000Z</time>
      </trkpt>
      <trkpt lat="48.7384" lon="7.34043">
        <ele>269.31</ele>
        <time>2020-05-21T19:52:54.000Z</time>
      </trkpt>
      <trkpt lat="48.73841" lon="7.34034">
        <ele>271.24</ele>
        <time>2020-05-21T19:52:57.000Z</time>
      </trkpt>
      <trkpt lat="48.73843" lon="7.34025">
        <ele>270.89</ele>
        <time>2020-05-21T19:53:00.000Z</time>
      </trkpt>
      <trkpt lat="48.73845" lon="7.34018">
        <ele>272.77</ele>
        <time>2020-05-21T19:53:02.000Z</time>
      </trkpt>
      <trkpt lat="48.73846" lon="7.3401">
        <ele>271.85</ele>
        <time>2020-05-21T19:53:04.000Z</time>
      </trkpt>
      <trkpt lat="48.7385" lon="7.33991">
        <ele>269.08</ele>
        <time>2020-05-21T19:53:08.000Z</time>
      </trkpt>
      <trkpt lat="48.73853" lon="7.33984">
        <ele>269.67</ele>
        <time>2020-05-21T19:53:10.000Z</time>
      </trkpt>
      <trkpt lat="48.73856" lon="7.33932">
        <ele>267.27</ele>
        <time>2020-05-21T19:53:20.000Z</time>
      </trkpt>
      <trkpt lat="48.73856" lon="7.33921">
        <ele>268.05</ele>
        <time>2020-05-21T19:53:22.000Z</time>
      </trkpt>
      <trkpt lat="48.73856" lon="7.33914">
        <ele>265.46</ele>
        <time>2020-05-21T19:53:25.000Z</time>
      </trkpt>
      <trkpt lat="48.7386" lon="7.33918">
        <ele>265.46</ele>
        <time>2020-05-21T19:53:30.000Z</time>
      </trkpt>
      <trkpt lat="48.73863" lon="7.33924">
        <ele>266</ele>
        <time>2020-05-21T19:53:35.000Z</time>
      </trkpt>
      <trkpt lat="48.73863" lon="7.33931">
        <ele>265.09</ele>
        <time>2020-05-21T19:53:47.000Z</time>
      </trkpt>
      <trkpt lat="48.73865" lon="7.3394">
        <ele>266.04</ele>
        <time>2020-05-21T19:53:50.000Z</time>
      </trkpt>
      <trkpt lat="48.73867" lon="7.33946">
        <ele>265.42</ele>
        <time>2020-05-21T19:53:52.000Z</time>
      </trkpt>
      <trkpt lat="48.7387" lon="7.33953">
        <ele>267.24</ele>
        <time>2020-05-21T19:53:54.000Z</time>
      </trkpt>
      <trkpt lat="48.73876" lon="7.33956">
        <ele>267.62</ele>
        <time>2020-05-21T19:53:57.000Z</time>
      </trkpt>
      <trkpt lat="48.73882" lon="7.33956">
        <ele>268.72</ele>
        <time>2020-05-21T19:54:02.000Z</time>
      </trkpt>
      <trkpt lat="48.73886" lon="7.3396">
        <ele>272.53</ele>
        <time>2020-05-21T19:54:05.000Z</time>
      </trkpt>
      <trkpt lat="48.73888" lon="7.33967">
        <ele>270.57</ele>
        <time>2020-05-21T19:54:08.000Z</time>
      </trkpt>
      <trkpt lat="48.7389" lon="7.33974">
        <ele>268.61</ele>
        <time>2020-05-21T19:54:18.000Z</time>
      </trkpt>
      <trkpt lat="48.73895" lon="7.33981">
        <ele>260.82</ele>
        <time>2020-05-21T19:54:22.000Z</time>
      </trkpt>
      <trkpt lat="48.73896" lon="7.33991">
        <ele>259.66</ele>
        <time>2020-05-21T19:54:24.000Z</time>
      </trkpt>
      <trkpt lat="48.73898" lon="7.33999">
        <ele>258.64</ele>
        <time>2020-05-21T19:54:26.000Z</time>
      </trkpt>
      <trkpt lat="48.739" lon="7.34007">
        <ele>259.53</ele>
        <time>2020-05-21T19:54:28.000Z</time>
      </trkpt>
      <trkpt lat="48.73902" lon="7.34016">
        <ele>259.48</ele>
        <time>2020-05-21T19:54:30.000Z</time>
      </trkpt>
      <trkpt lat="48.73904" lon="7.34026">
        <ele>258.43</ele>
        <time>2020-05-21T19:54:32.000Z</time>
      </trkpt>
      <trkpt lat="48.73906" lon="7.34036">
        <ele>257.41</ele>
        <time>2020-05-21T19:54:34.000Z</time>
      </trkpt>
      <trkpt lat="48.73907" lon="7.34046">
        <ele>256.97</ele>
        <time>2020-05-21T19:54:36.000Z</time>
      </trkpt>
      <trkpt lat="48.73908" lon="7.34058">
        <ele>257.32</ele>
        <time>2020-05-21T19:54:38.000Z</time>
      </trkpt>
      <trkpt lat="48.73908" lon="7.34068">
        <ele>256.79</ele>
        <time>2020-05-21T19:54:40.000Z</time>
      </trkpt>
      <trkpt lat="48.7391" lon="7.34079">
        <ele>255.67</ele>
        <time>2020-05-21T19:54:42.000Z</time>
      </trkpt>
      <trkpt lat="48.73912" lon="7.34091">
        <ele>253.18</ele>
        <time>2020-05-21T19:54:44.000Z</time>
      </trkpt>
      <trkpt lat="48.73914" lon="7.34101">
        <ele>249.67</ele>
        <time>2020-05-21T19:54:46.000Z</time>
      </trkpt>
      <trkpt lat="48.73916" lon="7.34112">
        <ele>248.24</ele>
        <time>2020-05-21T19:54:48.000Z</time>
      </trkpt>
      <trkpt lat="48.73917" lon="7.3413">
        <ele>248.44</ele>
        <time>2020-05-21T19:54:50.000Z</time>
      </trkpt>
      <trkpt lat="48.73917" lon="7.34138">
        <ele>248.33</ele>
        <time>2020-05-21T19:54:51.000Z</time>
      </trkpt>
      <trkpt lat="48.73918" lon="7.34146">
        <ele>248.42</ele>
        <time>2020-05-21T19:54:52.000Z</time>
      </trkpt>
      <trkpt lat="48.73919" lon="7.34153">
        <ele>247.96</ele>
        <time>2020-05-21T19:54:53.000Z</time>
      </trkpt>
      <trkpt lat="48.73919" lon="7.34161">
        <ele>248.32</ele>
        <time>2020-05-21T19:54:54.000Z</time>
      </trkpt>
      <trkpt lat="48.73919" lon="7.34168">
        <ele>248.57</ele>
        <time>2020-05-21T19:54:55.000Z</time>
      </trkpt>
      <trkpt lat="48.73919" lon="7.34175">
        <ele>249.42</ele>
        <time>2020-05-21T19:54:56.000Z</time>
      </trkpt>
      <trkpt lat="48.73919" lon="7.34182">
        <ele>249.66</ele>
        <time>2020-05-21T19:54:57.000Z</time>
      </trkpt>
      <trkpt lat="48.73918" lon="7.34194">
        <ele>252.63</ele>
        <time>2020-05-21T19:54:59.000Z</time>
      </trkpt>
      <trkpt lat="48.73916" lon="7.34205">
        <ele>252.79</ele>
        <time>2020-05-21T19:55:01.000Z</time>
      </trkpt>
      <trkpt lat="48.73916" lon="7.34217">
        <ele>252.89</ele>
        <time>2020-05-21T19:55:03.000Z</time>
      </trkpt>
      <trkpt lat="48.73916" lon="7.34231">
        <ele>253.45</ele>
        <time>2020-05-21T19:55:05.000Z</time>
      </trkpt>
      <trkpt lat="48.73918" lon="7.34242">
        <ele>252.36</ele>
        <time>2020-05-21T19:55:07.000Z</time>
      </trkpt>
      <trkpt lat="48.7392" lon="7.34256">
        <ele>251.65</ele>
        <time>2020-05-21T19:55:09.000Z</time>
      </trkpt>
      <trkpt lat="48.73922" lon="7.34263">
        <ele>252.75</ele>
        <time>2020-05-21T19:55:10.000Z</time>
      </trkpt>
      <trkpt lat="48.73927" lon="7.34266">
        <ele>252.16</ele>
        <time>2020-05-21T19:55:17.000Z</time>
      </trkpt>
      <trkpt lat="48.73928" lon="7.34258">
        <ele>253.13</ele>
        <time>2020-05-21T19:55:22.000Z</time>
      </trkpt>
      <trkpt lat="48.73926" lon="7.34248">
        <ele>252.83</ele>
        <time>2020-05-21T19:55:25.000Z</time>
      </trkpt>
      <trkpt lat="48.73924" lon="7.34237">
        <ele>254.94</ele>
        <time>2020-05-21T19:55:27.000Z</time>
      </trkpt>
      <trkpt lat="48.73924" lon="7.34229">
        <ele>258</ele>
        <time>2020-05-21T19:55:29.000Z</time>
      </trkpt>
      <trkpt lat="48.73924" lon="7.3422">
        <ele>258.53</ele>
        <time>2020-05-21T19:55:31.000Z</time>
      </trkpt>
      <trkpt lat="48.73923" lon="7.34214">
        <ele>257</ele>
        <time>2020-05-21T19:55:33.000Z</time>
      </trkpt>
      <trkpt lat="48.73923" lon="7.34206">
        <ele>256.96</ele>
        <time>2020-05-21T19:55:35.000Z</time>
      </trkpt>
      <trkpt lat="48.73923" lon="7.34197">
        <ele>256.82</ele>
        <time>2020-05-21T19:55:37.000Z</time>
      </trkpt>
      <trkpt lat="48.73924" lon="7.34189">
        <ele>255.61</ele>
        <time>2020-05-21T19:55:39.000Z</time>
      </trkpt>
      <trkpt lat="48.73925" lon="7.34181">
        <ele>255.67</ele>
        <time>2020-05-21T19:55:41.000Z</time>
      </trkpt>
      <trkpt lat="48.73925" lon="7.34172">
        <ele>255.54</ele>
        <time>2020-05-21T19:55:43.000Z</time>
      </trkpt>
      <trkpt lat="48.73924" lon="7.34165">
        <ele>256.45</ele>
        <time>2020-05-21T19:55:45.000Z</time>
      </trkpt>
      <trkpt lat="48.73924" lon="7.34156">
        <ele>257.07</ele>
        <time>2020-05-21T19:55:47.000Z</time>
      </trkpt>
      <trkpt lat="48.73923" lon="7.34147">
        <ele>256.04</ele>
        <time>2020-05-21T19:55:49.000Z</time>
      </trkpt>
      <trkpt lat="48.73924" lon="7.3414">
        <ele>255.55</ele>
        <time>2020-05-21T19:55:51.000Z</time>
      </trkpt>
      <trkpt lat="48.73926" lon="7.34131">
        <ele>254.1</ele>
        <time>2020-05-21T19:55:54.000Z</time>
      </trkpt>
      <trkpt lat="48.73926" lon="7.34123">
        <ele>255.88</ele>
        <time>2020-05-21T19:55:56.000Z</time>
      </trkpt>
      <trkpt lat="48.73926" lon="7.34114">
        <ele>255.72</ele>
        <time>2020-05-21T19:55:58.000Z</time>
      </trkpt>
      <trkpt lat="48.73926" lon="7.34106">
        <ele>256.47</ele>
        <time>2020-05-21T19:56:01.000Z</time>
      </trkpt>
      <trkpt lat="48.73927" lon="7.34097">
        <ele>258.6</ele>
        <time>2020-05-21T19:56:04.000Z</time>
      </trkpt>
      <trkpt lat="48.73926" lon="7.34089">
        <ele>260.6</ele>
        <time>2020-05-21T19:56:07.000Z</time>
      </trkpt>
      <trkpt lat="48.73927" lon="7.34082">
        <ele>262.59</ele>
        <time>2020-05-21T19:56:10.000Z</time>
      </trkpt>
      <trkpt lat="48.73927" lon="7.34074">
        <ele>262.33</ele>
        <time>2020-05-21T19:56:12.000Z</time>
      </trkpt>
      <trkpt lat="48.73929" lon="7.34067">
        <ele>263.48</ele>
        <time>2020-05-21T19:56:14.000Z</time>
      </trkpt>
      <trkpt lat="48.7393" lon="7.3406">
        <ele>283.51</ele>
        <time>2020-05-21T19:56:16.000Z</time>
      </trkpt>
      <trkpt lat="48.73932" lon="7.34053">
        <ele>274.49</ele>
        <time>2020-05-21T19:56:19.000Z</time>
      </trkpt>
      <trkpt lat="48.73934" lon="7.34046">
        <ele>271.09</ele>
        <time>2020-05-21T19:56:22.000Z</time>
      </trkpt>
      <trkpt lat="48.73934" lon="7.34039">
        <ele>279.34</ele>
        <time>2020-05-21T19:56:24.000Z</time>
      </trkpt>
      <trkpt lat="48.73933" lon="7.34032">
        <ele>275.17</ele>
        <time>2020-05-21T19:56:26.000Z</time>
      </trkpt>
      <trkpt lat="48.73935" lon="7.34025">
        <ele>271.54</ele>
        <time>2020-05-21T19:56:29.000Z</time>
      </trkpt>
      <trkpt lat="48.73938" lon="7.34019">
        <ele>271.17</ele>
        <time>2020-05-21T19:56:33.000Z</time>
      </trkpt>
      <trkpt lat="48.73939" lon="7.34012">
        <ele>270.12</ele>
        <time>2020-05-21T19:56:35.000Z</time>
      </trkpt>
      <trkpt lat="48.7394" lon="7.34004">
        <ele>270.11</ele>
        <time>2020-05-21T19:56:38.000Z</time>
      </trkpt>
      <trkpt lat="48.73942" lon="7.33996">
        <ele>271.59</ele>
        <time>2020-05-21T19:56:42.000Z</time>
      </trkpt>
      <trkpt lat="48.73944" lon="7.33988">
        <ele>273.2</ele>
        <time>2020-05-21T19:56:45.000Z</time>
      </trkpt>
      <trkpt lat="48.73946" lon="7.33982">
        <ele>274.14</ele>
        <time>2020-05-21T19:56:48.000Z</time>
      </trkpt>
      <trkpt lat="48.73947" lon="7.33975">
        <ele>275.75</ele>
        <time>2020-05-21T19:56:53.000Z</time>
      </trkpt>
      <trkpt lat="48.73948" lon="7.33965">
        <ele>279.45</ele>
        <time>2020-05-21T19:56:57.000Z</time>
      </trkpt>
      <trkpt lat="48.73949" lon="7.33959">
        <ele>281.36</ele>
        <time>2020-05-21T19:57:00.000Z</time>
      </trkpt>
      <trkpt lat="48.73951" lon="7.33953">
        <ele>283.73</ele>
        <time>2020-05-21T19:57:03.000Z</time>
      </trkpt>
      <trkpt lat="48.73953" lon="7.33945">
        <ele>282.85</ele>
        <time>2020-05-21T19:57:06.000Z</time>
      </trkpt>
      <trkpt lat="48.73954" lon="7.33938">
        <ele>282.61</ele>
        <time>2020-05-21T19:57:09.000Z</time>
      </trkpt>
      <trkpt lat="48.73955" lon="7.3393">
        <ele>282.61</ele>
        <time>2020-05-21T19:57:11.000Z</time>
      </trkpt>
      <trkpt lat="48.73956" lon="7.33923">
        <ele>279.87</ele>
        <time>2020-05-21T19:57:13.000Z</time>
      </trkpt>
      <trkpt lat="48.73959" lon="7.33914">
        <ele>280.47</ele>
        <time>2020-05-21T19:57:16.000Z</time>
      </trkpt>
      <trkpt lat="48.7396" lon="7.33906">
        <ele>281.23</ele>
        <time>2020-05-21T19:57:18.000Z</time>
      </trkpt>
      <trkpt lat="48.73961" lon="7.33897">
        <ele>281.2</ele>
        <time>2020-05-21T19:57:21.000Z</time>
      </trkpt>
      <trkpt lat="48.73963" lon="7.3389">
        <ele>280.83</ele>
        <time>2020-05-21T19:57:23.000Z</time>
      </trkpt>
      <trkpt lat="48.73964" lon="7.33883">
        <ele>279.27</ele>
        <time>2020-05-21T19:57:25.000Z</time>
      </trkpt>
      <trkpt lat="48.73964" lon="7.33874">
        <ele>279.1</ele>
        <time>2020-05-21T19:57:28.000Z</time>
      </trkpt>
      <trkpt lat="48.73966" lon="7.33865">
        <ele>279.33</ele>
        <time>2020-05-21T19:57:31.000Z</time>
      </trkpt>
      <trkpt lat="48.73967" lon="7.33856">
        <ele>279.5</ele>
        <time>2020-05-21T19:57:34.000Z</time>
      </trkpt>
      <trkpt lat="48.7397" lon="7.33849">
        <ele>284.05</ele>
        <time>2020-05-21T19:57:37.000Z</time>
      </trkpt>
      <trkpt lat="48.73973" lon="7.33843">
        <ele>282.24</ele>
        <time>2020-05-21T19:57:40.000Z</time>
      </trkpt>
      <trkpt lat="48.73975" lon="7.33835">
        <ele>283.9</ele>
        <time>2020-05-21T19:57:43.000Z</time>
      </trkpt>
      <trkpt lat="48.73975" lon="7.33827">
        <ele>284.01</ele>
        <time>2020-05-21T19:57:45.000Z</time>
      </trkpt>
      <trkpt lat="48.73977" lon="7.33818">
        <ele>286.19</ele>
        <time>2020-05-21T19:57:48.000Z</time>
      </trkpt>
      <trkpt lat="48.73978" lon="7.33812">
        <ele>281.83</ele>
        <time>2020-05-21T19:57:51.000Z</time>
      </trkpt>
      <trkpt lat="48.73981" lon="7.33805">
        <ele>282.09</ele>
        <time>2020-05-21T19:57:55.000Z</time>
      </trkpt>
      <trkpt lat="48.73984" lon="7.33799">
        <ele>280.2</ele>
        <time>2020-05-21T19:57:58.000Z</time>
      </trkpt>
      <trkpt lat="48.73984" lon="7.3379">
        <ele>279.59</ele>
        <time>2020-05-21T19:58:01.000Z</time>
      </trkpt>
      <trkpt lat="48.73984" lon="7.33782">
        <ele>281.25</ele>
        <time>2020-05-21T19:58:04.000Z</time>
      </trkpt>
      <trkpt lat="48.73987" lon="7.33773">
        <ele>280.22</ele>
        <time>2020-05-21T19:58:07.000Z</time>
      </trkpt>
      <trkpt lat="48.73989" lon="7.33765">
        <ele>282.28</ele>
        <time>2020-05-21T19:58:10.000Z</time>
      </trkpt>
      <trkpt lat="48.73991" lon="7.33754">
        <ele>282.66</ele>
        <time>2020-05-21T19:58:13.000Z</time>
      </trkpt>
      <trkpt lat="48.73992" lon="7.33746">
        <ele>284.27</ele>
        <time>2020-05-21T19:58:15.000Z</time>
      </trkpt>
      <trkpt lat="48.73997" lon="7.33739">
        <ele>286.61</ele>
        <time>2020-05-21T19:58:18.000Z</time>
      </trkpt>
      <trkpt lat="48.74" lon="7.33734">
        <ele>285.45</ele>
        <time>2020-05-21T19:58:20.000Z</time>
      </trkpt>
      <trkpt lat="48.74001" lon="7.33725">
        <ele>286.37</ele>
        <time>2020-05-21T19:58:22.000Z</time>
      </trkpt>
      <trkpt lat="48.74003" lon="7.33717">
        <ele>286.12</ele>
        <time>2020-05-21T19:58:24.000Z</time>
      </trkpt>
      <trkpt lat="48.74005" lon="7.33711">
        <ele>286.41</ele>
        <time>2020-05-21T19:58:26.000Z</time>
      </trkpt>
      <trkpt lat="48.74022" lon="7.3373">
        <ele>286.14</ele>
        <time>2020-05-21T19:58:35.000Z</time>
      </trkpt>
      <trkpt lat="48.74026" lon="7.33736">
        <ele>288.87</ele>
        <time>2020-05-21T19:58:40.000Z</time>
      </trkpt>
      <trkpt lat="48.7403" lon="7.33742">
        <ele>287.2</ele>
        <time>2020-05-21T19:58:43.000Z</time>
      </trkpt>
      <trkpt lat="48.74032" lon="7.33749">
        <ele>289.15</ele>
        <time>2020-05-21T19:58:47.000Z</time>
      </trkpt>
      <trkpt lat="48.74032" lon="7.33757">
        <ele>292.11</ele>
        <time>2020-05-21T19:58:51.000Z</time>
      </trkpt>
      <trkpt lat="48.74032" lon="7.33766">
        <ele>292.46</ele>
        <time>2020-05-21T19:58:54.000Z</time>
      </trkpt>
      <trkpt lat="48.74034" lon="7.33774">
        <ele>295.57</ele>
        <time>2020-05-21T19:58:57.000Z</time>
      </trkpt>
      <trkpt lat="48.74034" lon="7.33783">
        <ele>296.12</ele>
        <time>2020-05-21T19:59:00.000Z</time>
      </trkpt>
      <trkpt lat="48.74035" lon="7.33793">
        <ele>296.96</ele>
        <time>2020-05-21T19:59:03.000Z</time>
      </trkpt>
      <trkpt lat="48.74035" lon="7.338">
        <ele>295.97</ele>
        <time>2020-05-21T19:59:04.000Z</time>
      </trkpt>
      <trkpt lat="48.74034" lon="7.33813">
        <ele>297.49</ele>
        <time>2020-05-21T19:59:06.000Z</time>
      </trkpt>
      <trkpt lat="48.74035" lon="7.33822">
        <ele>297.33</ele>
        <time>2020-05-21T19:59:08.000Z</time>
      </trkpt>
      <trkpt lat="48.74036" lon="7.33835">
        <ele>295.86</ele>
        <time>2020-05-21T19:59:10.000Z</time>
      </trkpt>
      <trkpt lat="48.74037" lon="7.33842">
        <ele>295.7</ele>
        <time>2020-05-21T19:59:11.000Z</time>
      </trkpt>
      <trkpt lat="48.74039" lon="7.3385">
        <ele>295.13</ele>
        <time>2020-05-21T19:59:12.000Z</time>
      </trkpt>
      <trkpt lat="48.7404" lon="7.33863">
        <ele>295.33</ele>
        <time>2020-05-21T19:59:14.000Z</time>
      </trkpt>
      <trkpt lat="48.7404" lon="7.33875">
        <ele>294.43</ele>
        <time>2020-05-21T19:59:16.000Z</time>
      </trkpt>
      <trkpt lat="48.74041" lon="7.33889">
        <ele>291.9</ele>
        <time>2020-05-21T19:59:18.000Z</time>
      </trkpt>
      <trkpt lat="48.74042" lon="7.33901">
        <ele>293.28</ele>
        <time>2020-05-21T19:59:20.000Z</time>
      </trkpt>
      <trkpt lat="48.74043" lon="7.33911">
        <ele>290.95</ele>
        <time>2020-05-21T19:59:22.000Z</time>
      </trkpt>
      <trkpt lat="48.74043" lon="7.3392">
        <ele>291.2</ele>
        <time>2020-05-21T19:59:24.000Z</time>
      </trkpt>
      <trkpt lat="48.74042" lon="7.33932">
        <ele>292.25</ele>
        <time>2020-05-21T19:59:26.000Z</time>
      </trkpt>
      <trkpt lat="48.74042" lon="7.33944">
        <ele>293.56</ele>
        <time>2020-05-21T19:59:28.000Z</time>
      </trkpt>
      <trkpt lat="48.74043" lon="7.33951">
        <ele>292.95</ele>
        <time>2020-05-21T19:59:29.000Z</time>
      </trkpt>
      <trkpt lat="48.74043" lon="7.33958">
        <ele>293.73</ele>
        <time>2020-05-21T19:59:30.000Z</time>
      </trkpt>
      <trkpt lat="48.74045" lon="7.33971">
        <ele>294.07</ele>
        <time>2020-05-21T19:59:32.000Z</time>
      </trkpt>
      <trkpt lat="48.74047" lon="7.33982">
        <ele>295.37</ele>
        <time>2020-05-21T19:59:34.000Z</time>
      </trkpt>
      <trkpt lat="48.74049" lon="7.33994">
        <ele>295.3</ele>
        <time>2020-05-21T19:59:36.000Z</time>
      </trkpt>
      <trkpt lat="48.7405" lon="7.34005">
        <ele>297.41</ele>
        <time>2020-05-21T19:59:38.000Z</time>
      </trkpt>
      <trkpt lat="48.74049" lon="7.34016">
        <ele>297.46</ele>
        <time>2020-05-21T19:59:40.000Z</time>
      </trkpt>
      <trkpt lat="48.74049" lon="7.34028">
        <ele>298.09</ele>
        <time>2020-05-21T19:59:42.000Z</time>
      </trkpt>
      <trkpt lat="48.74049" lon="7.34036">
        <ele>298.25</ele>
        <time>2020-05-21T19:59:44.000Z</time>
      </trkpt>
      <trkpt lat="48.74049" lon="7.3405">
        <ele>299.57</ele>
        <time>2020-05-21T19:59:46.000Z</time>
      </trkpt>
      <trkpt lat="48.74047" lon="7.34062">
        <ele>297.92</ele>
        <time>2020-05-21T19:59:48.000Z</time>
      </trkpt>
      <trkpt lat="48.74047" lon="7.34069">
        <ele>296.3</ele>
        <time>2020-05-21T19:59:49.000Z</time>
      </trkpt>
      <trkpt lat="48.74045" lon="7.34076">
        <ele>294.17</ele>
        <time>2020-05-21T19:59:50.000Z</time>
      </trkpt>
      <trkpt lat="48.74044" lon="7.34086">
        <ele>294.92</ele>
        <time>2020-05-21T19:59:51.000Z</time>
      </trkpt>
      <trkpt lat="48.74045" lon="7.34093">
        <ele>294.41</ele>
        <time>2020-05-21T19:59:52.000Z</time>
      </trkpt>
      <trkpt lat="48.74045" lon="7.34102">
        <ele>295.15</ele>
        <time>2020-05-21T19:59:53.000Z</time>
      </trkpt>
      <trkpt lat="48.74046" lon="7.34111">
        <ele>295.13</ele>
        <time>2020-05-21T19:59:54.000Z</time>
      </trkpt>
      <trkpt lat="48.74046" lon="7.34119">
        <ele>294.7</ele>
        <time>2020-05-21T19:59:55.000Z</time>
      </trkpt>
      <trkpt lat="48.74046" lon="7.3413">
        <ele>295.16</ele>
        <time>2020-05-21T19:59:56.000Z</time>
      </trkpt>
      <trkpt lat="48.74045" lon="7.34139">
        <ele>295.34</ele>
        <time>2020-05-21T19:59:57.000Z</time>
      </trkpt>
      <trkpt lat="48.74045" lon="7.34149">
        <ele>296.26</ele>
        <time>2020-05-21T19:59:58.000Z</time>
      </trkpt>
      <trkpt lat="48.74047" lon="7.34162">
        <ele>297.35</ele>
        <time>2020-05-21T20:00:00.000Z</time>
      </trkpt>
      <trkpt lat="48.74049" lon="7.3417">
        <ele>297.5</ele>
        <time>2020-05-21T20:00:01.000Z</time>
      </trkpt>
      <trkpt lat="48.74052" lon="7.34177">
        <ele>297.8</ele>
        <time>2020-05-21T20:00:02.000Z</time>
      </trkpt>
      <trkpt lat="48.74054" lon="7.34185">
        <ele>298.44</ele>
        <time>2020-05-21T20:00:03.000Z</time>
      </trkpt>
      <trkpt lat="48.74055" lon="7.34195">
        <ele>298.45</ele>
        <time>2020-05-21T20:00:04.000Z</time>
      </trkpt>
      <trkpt lat="48.74057" lon="7.34202">
        <ele>299.07</ele>
        <time>2020-05-21T20:00:05.000Z</time>
      </trkpt>
      <trkpt lat="48.74059" lon="7.34211">
        <ele>299.44</ele>
        <time>2020-05-21T20:00:06.000Z</time>
      </trkpt>
      <trkpt lat="48.74062" lon="7.34227">
        <ele>297.91</ele>
        <time>2020-05-21T20:00:08.000Z</time>
      </trkpt>
      <trkpt lat="48.74063" lon="7.34242">
        <ele>295.84</ele>
        <time>2020-05-21T20:00:10.000Z</time>
      </trkpt>
      <trkpt lat="48.74063" lon="7.34251">
        <ele>295.5</ele>
        <time>2020-05-21T20:00:11.000Z</time>
      </trkpt>
      <trkpt lat="48.74088" lon="7.34352">
        <ele>291.07</ele>
        <time>2020-05-21T20:00:26.000Z</time>
      </trkpt>
      <trkpt lat="48.74092" lon="7.3436">
        <ele>290.32</ele>
        <time>2020-05-21T20:00:28.000Z</time>
      </trkpt>
      <trkpt lat="48.74095" lon="7.34368">
        <ele>292.08</ele>
        <time>2020-05-21T20:00:30.000Z</time>
      </trkpt>
      <trkpt lat="48.74098" lon="7.34376">
        <ele>292.81</ele>
        <time>2020-05-21T20:00:32.000Z</time>
      </trkpt>
      <trkpt lat="48.74103" lon="7.34378">
        <ele>292.91</ele>
        <time>2020-05-21T20:00:34.000Z</time>
      </trkpt>
      <trkpt lat="48.74108" lon="7.34376">
        <ele>294.21</ele>
        <time>2020-05-21T20:00:42.000Z</time>
      </trkpt>
      <trkpt lat="48.74111" lon="7.34382">
        <ele>294.99</ele>
        <time>2020-05-21T20:00:44.000Z</time>
      </trkpt>
      <trkpt lat="48.74116" lon="7.34388">
        <ele>294.81</ele>
        <time>2020-05-21T20:00:47.000Z</time>
      </trkpt>
      <trkpt lat="48.74121" lon="7.34394">
        <ele>294.36</ele>
        <time>2020-05-21T20:00:50.000Z</time>
      </trkpt>
      <trkpt lat="48.74126" lon="7.34398">
        <ele>297.28</ele>
        <time>2020-05-21T20:00:52.000Z</time>
      </trkpt>
      <trkpt lat="48.74131" lon="7.344">
        <ele>299.06</ele>
        <time>2020-05-21T20:00:56.000Z</time>
      </trkpt>
      <trkpt lat="48.74137" lon="7.34404">
        <ele>298.66</ele>
        <time>2020-05-21T20:00:59.000Z</time>
      </trkpt>
      <trkpt lat="48.74143" lon="7.34407">
        <ele>299.1</ele>
        <time>2020-05-21T20:01:02.000Z</time>
      </trkpt>
      <trkpt lat="48.74148" lon="7.34409">
        <ele>302.5</ele>
        <time>2020-05-21T20:01:04.000Z</time>
      </trkpt>
      <trkpt lat="48.74153" lon="7.34412">
        <ele>305.08</ele>
        <time>2020-05-21T20:01:06.000Z</time>
      </trkpt>
      <trkpt lat="48.74158" lon="7.34415">
        <ele>305.22</ele>
        <time>2020-05-21T20:01:08.000Z</time>
      </trkpt>
      <trkpt lat="48.74163" lon="7.34416">
        <ele>306.73</ele>
        <time>2020-05-21T20:01:10.000Z</time>
      </trkpt>
      <trkpt lat="48.74168" lon="7.34421">
        <ele>308.19</ele>
        <time>2020-05-21T20:01:13.000Z</time>
      </trkpt>
      <trkpt lat="48.74173" lon="7.34427">
        <ele>308.87</ele>
        <time>2020-05-21T20:01:16.000Z</time>
      </trkpt>
      <trkpt lat="48.74178" lon="7.34432">
        <ele>309.69</ele>
        <time>2020-05-21T20:01:20.000Z</time>
      </trkpt>
      <trkpt lat="48.74184" lon="7.34434">
        <ele>309.35</ele>
        <time>2020-05-21T20:01:24.000Z</time>
      </trkpt>
      <trkpt lat="48.74189" lon="7.34435">
        <ele>308.33</ele>
        <time>2020-05-21T20:01:26.000Z</time>
      </trkpt>
      <trkpt lat="48.74195" lon="7.34435">
        <ele>311.6</ele>
        <time>2020-05-21T20:01:29.000Z</time>
      </trkpt>
      <trkpt lat="48.742" lon="7.34435">
        <ele>313.73</ele>
        <time>2020-05-21T20:01:32.000Z</time>
      </trkpt>
      <trkpt lat="48.74207" lon="7.34435">
        <ele>316.79</ele>
        <time>2020-05-21T20:01:39.000Z</time>
      </trkpt>
      <trkpt lat="48.74212" lon="7.34436">
        <ele>318.08</ele>
        <time>2020-05-21T20:01:41.000Z</time>
      </trkpt>
      <trkpt lat="48.74219" lon="7.3444">
        <ele>317.95</ele>
        <time>2020-05-21T20:01:44.000Z</time>
      </trkpt>
      <trkpt lat="48.74224" lon="7.34444">
        <ele>320.71</ele>
        <time>2020-05-21T20:01:47.000Z</time>
      </trkpt>
      <trkpt lat="48.74228" lon="7.34446">
        <ele>320.89</ele>
        <time>2020-05-21T20:01:49.000Z</time>
      </trkpt>
      <trkpt lat="48.74234" lon="7.34448">
        <ele>322.18</ele>
        <time>2020-05-21T20:01:52.000Z</time>
      </trkpt>
      <trkpt lat="48.74239" lon="7.34452">
        <ele>321.36</ele>
        <time>2020-05-21T20:01:55.000Z</time>
      </trkpt>
      <trkpt lat="48.74244" lon="7.34455">
        <ele>321.77</ele>
        <time>2020-05-21T20:01:58.000Z</time>
      </trkpt>
      <trkpt lat="48.7425" lon="7.34457">
        <ele>320.66</ele>
        <time>2020-05-21T20:02:01.000Z</time>
      </trkpt>
      <trkpt lat="48.74255" lon="7.34456">
        <ele>319.57</ele>
        <time>2020-05-21T20:02:04.000Z</time>
      </trkpt>
      <trkpt lat="48.7426" lon="7.34457">
        <ele>319.44</ele>
        <time>2020-05-21T20:02:07.000Z</time>
      </trkpt>
      <trkpt lat="48.74265" lon="7.34457">
        <ele>321.12</ele>
        <time>2020-05-21T20:02:10.000Z</time>
      </trkpt>
      <trkpt lat="48.7427" lon="7.34454">
        <ele>322.02</ele>
        <time>2020-05-21T20:02:13.000Z</time>
      </trkpt>
      <trkpt lat="48.74275" lon="7.34454">
        <ele>321.24</ele>
        <time>2020-05-21T20:02:16.000Z</time>
      </trkpt>
      <trkpt lat="48.74281" lon="7.34452">
        <ele>321.46</ele>
        <time>2020-05-21T20:02:19.000Z</time>
      </trkpt>
      <trkpt lat="48.74288" lon="7.34454">
        <ele>324.84</ele>
        <time>2020-05-21T20:02:22.000Z</time>
      </trkpt>
      <trkpt lat="48.74293" lon="7.34455">
        <ele>324.51</ele>
        <time>2020-05-21T20:02:25.000Z</time>
      </trkpt>
      <trkpt lat="48.74298" lon="7.34455">
        <ele>324.05</ele>
        <time>2020-05-21T20:02:28.000Z</time>
      </trkpt>
      <trkpt lat="48.74303" lon="7.34454">
        <ele>323.13</ele>
        <time>2020-05-21T20:02:31.000Z</time>
      </trkpt>
      <trkpt lat="48.74309" lon="7.34453">
        <ele>324.17</ele>
        <time>2020-05-21T20:02:34.000Z</time>
      </trkpt>
      <trkpt lat="48.74314" lon="7.3445">
        <ele>323.89</ele>
        <time>2020-05-21T20:02:37.000Z</time>
      </trkpt>
      <trkpt lat="48.74318" lon="7.34447">
        <ele>324.38</ele>
        <time>2020-05-21T20:02:39.000Z</time>
      </trkpt>
      <trkpt lat="48.74323" lon="7.34444">
        <ele>325.2</ele>
        <time>2020-05-21T20:02:42.000Z</time>
      </trkpt>
      <trkpt lat="48.74328" lon="7.34443">
        <ele>323.66</ele>
        <time>2020-05-21T20:02:45.000Z</time>
      </trkpt>
      <trkpt lat="48.74334" lon="7.34439">
        <ele>323.74</ele>
        <time>2020-05-21T20:02:48.000Z</time>
      </trkpt>
      <trkpt lat="48.74339" lon="7.34435">
        <ele>325.12</ele>
        <time>2020-05-21T20:02:51.000Z</time>
      </trkpt>
      <trkpt lat="48.74343" lon="7.34428">
        <ele>325.56</ele>
        <time>2020-05-21T20:02:54.000Z</time>
      </trkpt>
      <trkpt lat="48.74347" lon="7.34422">
        <ele>326.42</ele>
        <time>2020-05-21T20:02:58.000Z</time>
      </trkpt>
      <trkpt lat="48.74351" lon="7.34417">
        <ele>328.81</ele>
        <time>2020-05-21T20:03:01.000Z</time>
      </trkpt>
      <trkpt lat="48.74354" lon="7.34409">
        <ele>326.52</ele>
        <time>2020-05-21T20:03:04.000Z</time>
      </trkpt>
      <trkpt lat="48.74357" lon="7.34401">
        <ele>324.88</ele>
        <time>2020-05-21T20:03:07.000Z</time>
      </trkpt>
      <trkpt lat="48.7436" lon="7.34395">
        <ele>326.99</ele>
        <time>2020-05-21T20:03:09.000Z</time>
      </trkpt>
      <trkpt lat="48.74363" lon="7.3439">
        <ele>327.92</ele>
        <time>2020-05-21T20:03:11.000Z</time>
      </trkpt>
      <trkpt lat="48.74368" lon="7.34384">
        <ele>326.48</ele>
        <time>2020-05-21T20:03:14.000Z</time>
      </trkpt>
      <trkpt lat="48.74372" lon="7.34377">
        <ele>327.19</ele>
        <time>2020-05-21T20:03:17.000Z</time>
      </trkpt>
      <trkpt lat="48.74373" lon="7.34371">
        <ele>328.23</ele>
        <time>2020-05-21T20:03:20.000Z</time>
      </trkpt>
      <trkpt lat="48.74369" lon="7.34367">
        <ele>329.03</ele>
        <time>2020-05-21T20:03:41.000Z</time>
      </trkpt>
      <trkpt lat="48.74372" lon="7.34362">
        <ele>325.94</ele>
        <time>2020-05-21T20:04:13.000Z</time>
      </trkpt>
      <trkpt lat="48.74373" lon="7.34354">
        <ele>326.16</ele>
        <time>2020-05-21T20:04:28.000Z</time>
      </trkpt>
      <trkpt lat="48.74374" lon="7.34346">
        <ele>325.86</ele>
        <time>2020-05-21T20:04:33.000Z</time>
      </trkpt>
      <trkpt lat="48.74374" lon="7.34339">
        <ele>328.83</ele>
        <time>2020-05-21T20:04:41.000Z</time>
      </trkpt>
      <trkpt lat="48.74369" lon="7.34343">
        <ele>329.32</ele>
        <time>2020-05-21T20:04:52.000Z</time>
      </trkpt>
      <trkpt lat="48.74366" lon="7.34348">
        <ele>334.5</ele>
        <time>2020-05-21T20:04:58.000Z</time>
      </trkpt>
      <trkpt lat="48.74362" lon="7.34344">
        <ele>336.45</ele>
        <time>2020-05-21T20:05:06.000Z</time>
      </trkpt>
      <trkpt lat="48.7436" lon="7.34337">
        <ele>335.82</ele>
        <time>2020-05-21T20:05:12.000Z</time>
      </trkpt>
      <trkpt lat="48.74357" lon="7.34329">
        <ele>334.68</ele>
        <time>2020-05-21T20:05:18.000Z</time>
      </trkpt>
      <trkpt lat="48.74353" lon="7.34323">
        <ele>336.92</ele>
        <time>2020-05-21T20:05:21.000Z</time>
      </trkpt>
      <trkpt lat="48.74352" lon="7.34315">
        <ele>335.12</ele>
        <time>2020-05-21T20:05:25.000Z</time>
      </trkpt>
      <trkpt lat="48.74352" lon="7.34306">
        <ele>334.25</ele>
        <time>2020-05-21T20:05:29.000Z</time>
      </trkpt>
      <trkpt lat="48.74351" lon="7.34299">
        <ele>335.63</ele>
        <time>2020-05-21T20:05:33.000Z</time>
      </trkpt>
      <trkpt lat="48.74351" lon="7.34292">
        <ele>336.41</ele>
        <time>2020-05-21T20:05:36.000Z</time>
      </trkpt>
      <trkpt lat="48.74353" lon="7.34285">
        <ele>337.35</ele>
        <time>2020-05-21T20:05:40.000Z</time>
      </trkpt>
      <trkpt lat="48.74352" lon="7.34277">
        <ele>340.18</ele>
        <time>2020-05-21T20:05:44.000Z</time>
      </trkpt>
      <trkpt lat="48.74354" lon="7.34271">
        <ele>341.34</ele>
        <time>2020-05-21T20:05:49.000Z</time>
      </trkpt>
      <trkpt lat="48.74354" lon="7.34261">
        <ele>338.9</ele>
        <time>2020-05-21T20:05:56.000Z</time>
      </trkpt>
      <trkpt lat="48.74353" lon="7.34254">
        <ele>339.44</ele>
        <time>2020-05-21T20:05:59.000Z</time>
      </trkpt>
      <trkpt lat="48.74352" lon="7.34246">
        <ele>336.17</ele>
        <time>2020-05-21T20:06:02.000Z</time>
      </trkpt>
      <trkpt lat="48.7435" lon="7.3424">
        <ele>300.1</ele>
        <time>2020-05-21T20:06:05.000Z</time>
      </trkpt>
      <trkpt lat="48.74352" lon="7.34232">
        <ele>320.93</ele>
        <time>2020-05-21T20:06:10.000Z</time>
      </trkpt>
      <trkpt lat="48.74354" lon="7.34224">
        <ele>293.29</ele>
        <time>2020-05-21T20:06:14.000Z</time>
      </trkpt>
      <trkpt lat="48.74357" lon="7.34218">
        <ele>317.72</ele>
        <time>2020-05-21T20:06:18.000Z</time>
      </trkpt>
      <trkpt lat="48.7436" lon="7.34213">
        <ele>326.51</ele>
        <time>2020-05-21T20:06:22.000Z</time>
      </trkpt>
      <trkpt lat="48.74363" lon="7.34207">
        <ele>331.49</ele>
        <time>2020-05-21T20:06:27.000Z</time>
      </trkpt>
      <trkpt lat="48.74364" lon="7.34201">
        <ele>336.06</ele>
        <time>2020-05-21T20:06:32.000Z</time>
      </trkpt>
      <trkpt lat="48.74368" lon="7.34196">
        <ele>339.76</ele>
        <time>2020-05-21T20:06:36.000Z</time>
      </trkpt>
      <trkpt lat="48.74372" lon="7.34192">
        <ele>343.46</ele>
        <time>2020-05-21T20:06:40.000Z</time>
      </trkpt>
      <trkpt lat="48.74377" lon="7.34189">
        <ele>347.55</ele>
        <time>2020-05-21T20:06:43.000Z</time>
      </trkpt>
      <trkpt lat="48.74381" lon="7.34188">
        <ele>349.1</ele>
        <time>2020-05-21T20:06:47.000Z</time>
      </trkpt>
      <trkpt lat="48.74385" lon="7.34183">
        <ele>319.75</ele>
        <time>2020-05-21T20:06:54.000Z</time>
      </trkpt>
      <trkpt lat="48.74388" lon="7.34179">
        <ele>342.23</ele>
        <time>2020-05-21T20:06:59.000Z</time>
      </trkpt>
      <trkpt lat="48.74395" lon="7.3417">
        <ele>354.3</ele>
        <time>2020-05-21T20:07:07.000Z</time>
      </trkpt>
      <trkpt lat="48.74395" lon="7.34161">
        <ele>355.22</ele>
        <time>2020-05-21T20:07:12.000Z</time>
      </trkpt>
      <trkpt lat="48.74399" lon="7.34157">
        <ele>359.6</ele>
        <time>2020-05-21T20:07:18.000Z</time>
      </trkpt>
      <trkpt lat="48.74404" lon="7.34144">
        <ele>363.11</ele>
        <time>2020-05-21T20:07:26.000Z</time>
      </trkpt>
      <trkpt lat="48.74405" lon="7.34137">
        <ele>363.83</ele>
        <time>2020-05-21T20:07:30.000Z</time>
      </trkpt>
      <trkpt lat="48.74407" lon="7.34129">
        <ele>365.75</ele>
        <time>2020-05-21T20:07:35.000Z</time>
      </trkpt>
      <trkpt lat="48.74408" lon="7.34121">
        <ele>367.34</ele>
        <time>2020-05-21T20:07:40.000Z</time>
      </trkpt>
      <trkpt lat="48.74406" lon="7.34114">
        <ele>369.27</ele>
        <time>2020-05-21T20:07:47.000Z</time>
      </trkpt>
      <trkpt lat="48.74406" lon="7.34107">
        <ele>371.23</ele>
        <time>2020-05-21T20:07:52.000Z</time>
      </trkpt>
      <trkpt lat="48.74408" lon="7.341">
        <ele>371.82</ele>
        <time>2020-05-21T20:08:01.000Z</time>
      </trkpt>
      <trkpt lat="48.74409" lon="7.34093">
        <ele>377.97</ele>
        <time>2020-05-21T20:08:09.000Z</time>
      </trkpt>
      <trkpt lat="48.74405" lon="7.3409">
        <ele>375.44</ele>
        <time>2020-05-21T20:08:19.000Z</time>
      </trkpt>
      <trkpt lat="48.74402" lon="7.34097">
        <ele>375.42</ele>
        <time>2020-05-21T20:08:25.000Z</time>
      </trkpt>
      <trkpt lat="48.74399" lon="7.34103">
        <ele>350.35</ele>
        <time>2020-05-21T20:08:29.000Z</time>
      </trkpt>
      <trkpt lat="48.74395" lon="7.34107">
        <ele>370.1</ele>
        <time>2020-05-21T20:08:34.000Z</time>
      </trkpt>
      <trkpt lat="48.74391" lon="7.34112">
        <ele>377.16</ele>
        <time>2020-05-21T20:08:41.000Z</time>
      </trkpt>
      <trkpt lat="48.74386" lon="7.34113">
        <ele>378.07</ele>
        <time>2020-05-21T20:08:48.000Z</time>
      </trkpt>
      <trkpt lat="48.74382" lon="7.34116">
        <ele>377.05</ele>
        <time>2020-05-21T20:08:52.000Z</time>
      </trkpt>
      <trkpt lat="48.74377" lon="7.34118">
        <ele>376.48</ele>
        <time>2020-05-21T20:08:59.000Z</time>
      </trkpt>
      <trkpt lat="48.74372" lon="7.34122">
        <ele>374.77</ele>
        <time>2020-05-21T20:09:03.000Z</time>
      </trkpt>
      <trkpt lat="48.74368" lon="7.34126">
        <ele>373.27</ele>
        <time>2020-05-21T20:09:07.000Z</time>
      </trkpt>
      <trkpt lat="48.74363" lon="7.34129">
        <ele>375.64</ele>
        <time>2020-05-21T20:09:11.000Z</time>
      </trkpt>
      <trkpt lat="48.74357" lon="7.3413">
        <ele>374.71</ele>
        <time>2020-05-21T20:09:15.000Z</time>
      </trkpt>
      <trkpt lat="48.74353" lon="7.34129">
        <ele>374</ele>
        <time>2020-05-21T20:09:19.000Z</time>
      </trkpt>
      <trkpt lat="48.74348" lon="7.34128">
        <ele>378.19</ele>
        <time>2020-05-21T20:09:23.000Z</time>
      </trkpt>
      <trkpt lat="48.74343" lon="7.34128">
        <ele>379.44</ele>
        <time>2020-05-21T20:09:28.000Z</time>
      </trkpt>
      <trkpt lat="48.74339" lon="7.34124">
        <ele>340.21</ele>
        <time>2020-05-21T20:09:33.000Z</time>
      </trkpt>
      <trkpt lat="48.74343" lon="7.34119">
        <ele>370.5</ele>
        <time>2020-05-21T20:09:39.000Z</time>
      </trkpt>
      <trkpt lat="48.74345" lon="7.34113">
        <ele>374.17</ele>
        <time>2020-05-21T20:09:45.000Z</time>
      </trkpt>
      <trkpt lat="48.74348" lon="7.34107">
        <ele>379.2</ele>
        <time>2020-05-21T20:09:52.000Z</time>
      </trkpt>
      <trkpt lat="48.74349" lon="7.34101">
        <ele>380.84</ele>
        <time>2020-05-21T20:09:58.000Z</time>
      </trkpt>
      <trkpt lat="48.74349" lon="7.34093">
        <ele>380.62</ele>
        <time>2020-05-21T20:10:05.000Z</time>
      </trkpt>
      <trkpt lat="48.74343" lon="7.34094">
        <ele>383.3</ele>
        <time>2020-05-21T20:10:14.000Z</time>
      </trkpt>
      <trkpt lat="48.74339" lon="7.34092">
        <ele>388.99</ele>
        <time>2020-05-21T20:10:21.000Z</time>
      </trkpt>
      <trkpt lat="48.74338" lon="7.34084">
        <ele>390.11</ele>
        <time>2020-05-21T20:10:25.000Z</time>
      </trkpt>
      <trkpt lat="48.74295" lon="7.34021">
        <ele>391.63</ele>
        <time>2020-05-21T20:11:01.000Z</time>
      </trkpt>
      <trkpt lat="48.74293" lon="7.34014">
        <ele>392.07</ele>
        <time>2020-05-21T20:11:04.000Z</time>
      </trkpt>
      <trkpt lat="48.74289" lon="7.34008">
        <ele>393.48</ele>
        <time>2020-05-21T20:11:08.000Z</time>
      </trkpt>
      <trkpt lat="48.74286" lon="7.34001">
        <ele>394.11</ele>
        <time>2020-05-21T20:11:11.000Z</time>
      </trkpt>
      <trkpt lat="48.74286" lon="7.33993">
        <ele>393.89</ele>
        <time>2020-05-21T20:11:14.000Z</time>
      </trkpt>
      <trkpt lat="48.74288" lon="7.33986">
        <ele>396</ele>
        <time>2020-05-21T20:11:18.000Z</time>
      </trkpt>
      <trkpt lat="48.74292" lon="7.33979">
        <ele>396.16</ele>
        <time>2020-05-21T20:11:22.000Z</time>
      </trkpt>
      <trkpt lat="48.74294" lon="7.33972">
        <ele>397.36</ele>
        <time>2020-05-21T20:11:26.000Z</time>
      </trkpt>
      <trkpt lat="48.74295" lon="7.33965">
        <ele>397.46</ele>
        <time>2020-05-21T20:11:29.000Z</time>
      </trkpt>
      <trkpt lat="48.74296" lon="7.33957">
        <ele>395.63</ele>
        <time>2020-05-21T20:11:33.000Z</time>
      </trkpt>
      <trkpt lat="48.74295" lon="7.33949">
        <ele>396.19</ele>
        <time>2020-05-21T20:11:37.000Z</time>
      </trkpt>
      <trkpt lat="48.74293" lon="7.33942">
        <ele>396.82</ele>
        <time>2020-05-21T20:11:40.000Z</time>
      </trkpt>
      <trkpt lat="48.74294" lon="7.33934">
        <ele>396.22</ele>
        <time>2020-05-21T20:11:43.000Z</time>
      </trkpt>
      <trkpt lat="48.74295" lon="7.33927">
        <ele>398.22</ele>
        <time>2020-05-21T20:11:45.000Z</time>
      </trkpt>
      <trkpt lat="48.74295" lon="7.33919">
        <ele>399.68</ele>
        <time>2020-05-21T20:11:48.000Z</time>
      </trkpt>
      <trkpt lat="48.74296" lon="7.33908">
        <ele>401.59</ele>
        <time>2020-05-21T20:11:51.000Z</time>
      </trkpt>
      <trkpt lat="48.74297" lon="7.33901">
        <ele>401.16</ele>
        <time>2020-05-21T20:11:53.000Z</time>
      </trkpt>
      <trkpt lat="48.74299" lon="7.33893">
        <ele>404.64</ele>
        <time>2020-05-21T20:11:56.000Z</time>
      </trkpt>
      <trkpt lat="48.743" lon="7.33886">
        <ele>406.46</ele>
        <time>2020-05-21T20:11:58.000Z</time>
      </trkpt>
      <trkpt lat="48.74301" lon="7.3388">
        <ele>404.63</ele>
        <time>2020-05-21T20:12:00.000Z</time>
      </trkpt>
      <trkpt lat="48.74302" lon="7.3387">
        <ele>404.59</ele>
        <time>2020-05-21T20:12:03.000Z</time>
      </trkpt>
      <trkpt lat="48.74304" lon="7.33863">
        <ele>405.84</ele>
        <time>2020-05-21T20:12:07.000Z</time>
      </trkpt>
      <trkpt lat="48.74302" lon="7.33855">
        <ele>407.52</ele>
        <time>2020-05-21T20:12:10.000Z</time>
      </trkpt>
      <trkpt lat="48.74302" lon="7.33847">
        <ele>407.33</ele>
        <time>2020-05-21T20:12:13.000Z</time>
      </trkpt>
      <trkpt lat="48.74301" lon="7.33838">
        <ele>406.74</ele>
        <time>2020-05-21T20:12:16.000Z</time>
      </trkpt>
      <trkpt lat="48.74301" lon="7.33831">
        <ele>406.3</ele>
        <time>2020-05-21T20:12:19.000Z</time>
      </trkpt>
      <trkpt lat="48.74302" lon="7.33821">
        <ele>407.09</ele>
        <time>2020-05-21T20:12:22.000Z</time>
      </trkpt>
      <trkpt lat="48.74305" lon="7.33814">
        <ele>406.46</ele>
        <time>2020-05-21T20:12:25.000Z</time>
      </trkpt>
      <trkpt lat="48.74305" lon="7.33807">
        <ele>407.83</ele>
        <time>2020-05-21T20:12:34.000Z</time>
      </trkpt>
      <trkpt lat="48.74302" lon="7.338">
        <ele>407.5</ele>
        <time>2020-05-21T20:13:38.000Z</time>
      </trkpt>
      <trkpt lat="48.74301" lon="7.33792">
        <ele>408</ele>
        <time>2020-05-21T20:13:42.000Z</time>
      </trkpt>
      <trkpt lat="48.74301" lon="7.33784">
        <ele>408.41</ele>
        <time>2020-05-21T20:13:46.000Z</time>
      </trkpt>
      <trkpt lat="48.74301" lon="7.33776">
        <ele>390.91</ele>
        <time>2020-05-21T20:13:49.000Z</time>
      </trkpt>
      <trkpt lat="48.74301" lon="7.33768">
        <ele>399.32</ele>
        <time>2020-05-21T20:13:52.000Z</time>
      </trkpt>
      <trkpt lat="48.74301" lon="7.33761">
        <ele>405.84</ele>
        <time>2020-05-21T20:13:56.000Z</time>
      </trkpt>
      <trkpt lat="48.74298" lon="7.33754">
        <ele>408.48</ele>
        <time>2020-05-21T20:13:58.000Z</time>
      </trkpt>
      <trkpt lat="48.74296" lon="7.33747">
        <ele>408.54</ele>
        <time>2020-05-21T20:14:01.000Z</time>
      </trkpt>
      <trkpt lat="48.74295" lon="7.33739">
        <ele>410.39</ele>
        <time>2020-05-21T20:14:03.000Z</time>
      </trkpt>
      <trkpt lat="48.74293" lon="7.33733">
        <ele>412.91</ele>
        <time>2020-05-21T20:14:06.000Z</time>
      </trkpt>
      <trkpt lat="48.74287" lon="7.33719">
        <ele>417.79</ele>
        <time>2020-05-21T20:14:11.000Z</time>
      </trkpt>
      <trkpt lat="48.74284" lon="7.3371">
        <ele>420.32</ele>
        <time>2020-05-21T20:14:14.000Z</time>
      </trkpt>
      <trkpt lat="48.7428" lon="7.33702">
        <ele>421.97</ele>
        <time>2020-05-21T20:14:18.000Z</time>
      </trkpt>
      <trkpt lat="48.74276" lon="7.33696">
        <ele>420.18</ele>
        <time>2020-05-21T20:14:21.000Z</time>
      </trkpt>
      <trkpt lat="48.74273" lon="7.33679">
        <ele>421.66</ele>
        <time>2020-05-21T20:14:26.000Z</time>
      </trkpt>
      <trkpt lat="48.74272" lon="7.33672">
        <ele>421.75</ele>
        <time>2020-05-21T20:14:28.000Z</time>
      </trkpt>
      <trkpt lat="48.74273" lon="7.33664">
        <ele>422.97</ele>
        <time>2020-05-21T20:14:31.000Z</time>
      </trkpt>
      <trkpt lat="48.74276" lon="7.33657">
        <ele>422.97</ele>
        <time>2020-05-21T20:14:34.000Z</time>
      </trkpt>
      <trkpt lat="48.74278" lon="7.33647">
        <ele>422.33</ele>
        <time>2020-05-21T20:14:37.000Z</time>
      </trkpt>
      <trkpt lat="48.74279" lon="7.33639">
        <ele>421.48</ele>
        <time>2020-05-21T20:14:39.000Z</time>
      </trkpt>
      <trkpt lat="48.74278" lon="7.33629">
        <ele>422.93</ele>
        <time>2020-05-21T20:14:42.000Z</time>
      </trkpt>
      <trkpt lat="48.74278" lon="7.33621">
        <ele>422.95</ele>
        <time>2020-05-21T20:14:45.000Z</time>
      </trkpt>
      <trkpt lat="48.74278" lon="7.33612">
        <ele>425.27</ele>
        <time>2020-05-21T20:14:48.000Z</time>
      </trkpt>
      <trkpt lat="48.7428" lon="7.33606">
        <ele>423.14</ele>
        <time>2020-05-21T20:14:51.000Z</time>
      </trkpt>
      <trkpt lat="48.74282" lon="7.33597">
        <ele>424.92</ele>
        <time>2020-05-21T20:14:54.000Z</time>
      </trkpt>
      <trkpt lat="48.74284" lon="7.33588">
        <ele>427.15</ele>
        <time>2020-05-21T20:14:57.000Z</time>
      </trkpt>
      <trkpt lat="48.74286" lon="7.33581">
        <ele>425.31</ele>
        <time>2020-05-21T20:15:00.000Z</time>
      </trkpt>
      <trkpt lat="48.74288" lon="7.33574">
        <ele>426.11</ele>
        <time>2020-05-21T20:15:02.000Z</time>
      </trkpt>
      <trkpt lat="48.7429" lon="7.33567">
        <ele>426.02</ele>
        <time>2020-05-21T20:15:04.000Z</time>
      </trkpt>
      <trkpt lat="48.74293" lon="7.33558">
        <ele>425.01</ele>
        <time>2020-05-21T20:15:07.000Z</time>
      </trkpt>
      <trkpt lat="48.74296" lon="7.33552">
        <ele>423.42</ele>
        <time>2020-05-21T20:15:09.000Z</time>
      </trkpt>
      <trkpt lat="48.74303" lon="7.33534">
        <ele>422.17</ele>
        <time>2020-05-21T20:15:13.000Z</time>
      </trkpt>
      <trkpt lat="48.74306" lon="7.33526">
        <ele>423.73</ele>
        <time>2020-05-21T20:15:15.000Z</time>
      </trkpt>
      <trkpt lat="48.74309" lon="7.33519">
        <ele>423.08</ele>
        <time>2020-05-21T20:15:17.000Z</time>
      </trkpt>
      <trkpt lat="48.74311" lon="7.33513">
        <ele>423.3</ele>
        <time>2020-05-21T20:15:19.000Z</time>
      </trkpt>
      <trkpt lat="48.74314" lon="7.33504">
        <ele>421.76</ele>
        <time>2020-05-21T20:15:22.000Z</time>
      </trkpt>
      <trkpt lat="48.74317" lon="7.33498">
        <ele>418.77</ele>
        <time>2020-05-21T20:15:24.000Z</time>
      </trkpt>
      <trkpt lat="48.74321" lon="7.33495">
        <ele>419.25</ele>
        <time>2020-05-21T20:15:27.000Z</time>
      </trkpt>
      <trkpt lat="48.74324" lon="7.3349">
        <ele>420.46</ele>
        <time>2020-05-21T20:15:29.000Z</time>
      </trkpt>
      <trkpt lat="48.74327" lon="7.33484">
        <ele>421.48</ele>
        <time>2020-05-21T20:15:31.000Z</time>
      </trkpt>
      <trkpt lat="48.7433" lon="7.33478">
        <ele>422.87</ele>
        <time>2020-05-21T20:15:33.000Z</time>
      </trkpt>
      <trkpt lat="48.74333" lon="7.33473">
        <ele>423.71</ele>
        <time>2020-05-21T20:15:35.000Z</time>
      </trkpt>
      <trkpt lat="48.74336" lon="7.33468">
        <ele>424.66</ele>
        <time>2020-05-21T20:15:39.000Z</time>
      </trkpt>
      <trkpt lat="48.74341" lon="7.33462">
        <ele>425.07</ele>
        <time>2020-05-21T20:15:43.000Z</time>
      </trkpt>
      <trkpt lat="48.74345" lon="7.33455">
        <ele>427.91</ele>
        <time>2020-05-21T20:15:46.000Z</time>
      </trkpt>
      <trkpt lat="48.74347" lon="7.33447">
        <ele>434.41</ele>
        <time>2020-05-21T20:15:50.000Z</time>
      </trkpt>
      <trkpt lat="48.7435" lon="7.33441">
        <ele>432.52</ele>
        <time>2020-05-21T20:15:53.000Z</time>
      </trkpt>
      <trkpt lat="48.74355" lon="7.33437">
        <ele>429.89</ele>
        <time>2020-05-21T20:15:56.000Z</time>
      </trkpt>
      <trkpt lat="48.74359" lon="7.33431">
        <ele>430.69</ele>
        <time>2020-05-21T20:15:59.000Z</time>
      </trkpt>
      <trkpt lat="48.74362" lon="7.33424">
        <ele>431.55</ele>
        <time>2020-05-21T20:16:02.000Z</time>
      </trkpt>
      <trkpt lat="48.74367" lon="7.33423">
        <ele>429.41</ele>
        <time>2020-05-21T20:16:06.000Z</time>
      </trkpt>
      <trkpt lat="48.74372" lon="7.33422">
        <ele>430.33</ele>
        <time>2020-05-21T20:16:11.000Z</time>
      </trkpt>
      <trkpt lat="48.74377" lon="7.33419">
        <ele>431.91</ele>
        <time>2020-05-21T20:16:15.000Z</time>
      </trkpt>
      <trkpt lat="48.74381" lon="7.33422">
        <ele>433.42</ele>
        <time>2020-05-21T20:16:18.000Z</time>
      </trkpt>
      <trkpt lat="48.74386" lon="7.33426">
        <ele>433.86</ele>
        <time>2020-05-21T20:16:22.000Z</time>
      </trkpt>
      <trkpt lat="48.7439" lon="7.33425">
        <ele>432.96</ele>
        <time>2020-05-21T20:16:25.000Z</time>
      </trkpt>
      <trkpt lat="48.74395" lon="7.33425">
        <ele>435.61</ele>
        <time>2020-05-21T20:16:27.000Z</time>
      </trkpt>
      <trkpt lat="48.744" lon="7.33425">
        <ele>435.46</ele>
        <time>2020-05-21T20:16:29.000Z</time>
      </trkpt>
      <trkpt lat="48.74406" lon="7.33424">
        <ele>441</ele>
        <time>2020-05-21T20:16:32.000Z</time>
      </trkpt>
      <trkpt lat="48.74411" lon="7.33422">
        <ele>442.54</ele>
        <time>2020-05-21T20:16:34.000Z</time>
      </trkpt>
      <trkpt lat="48.74415" lon="7.33416">
        <ele>444.48</ele>
        <time>2020-05-21T20:16:37.000Z</time>
      </trkpt>
      <trkpt lat="48.74418" lon="7.33408">
        <ele>441.59</ele>
        <time>2020-05-21T20:16:40.000Z</time>
      </trkpt>
      <trkpt lat="48.74421" lon="7.334">
        <ele>444.4</ele>
        <time>2020-05-21T20:16:43.000Z</time>
      </trkpt>
      <trkpt lat="48.74425" lon="7.33395">
        <ele>444.29</ele>
        <time>2020-05-21T20:16:47.000Z</time>
      </trkpt>
      <trkpt lat="48.7443" lon="7.33397">
        <ele>444.7</ele>
        <time>2020-05-21T20:16:50.000Z</time>
      </trkpt>
      <trkpt lat="48.74434" lon="7.33401">
        <ele>444.95</ele>
        <time>2020-05-21T20:16:54.000Z</time>
      </trkpt>
      <trkpt lat="48.7444" lon="7.33403">
        <ele>447.98</ele>
        <time>2020-05-21T20:16:57.000Z</time>
      </trkpt>
      <trkpt lat="48.74446" lon="7.33405">
        <ele>449.46</ele>
        <time>2020-05-21T20:17:00.000Z</time>
      </trkpt>
      <trkpt lat="48.74451" lon="7.33404">
        <ele>451.68</ele>
        <time>2020-05-21T20:17:04.000Z</time>
      </trkpt>
      <trkpt lat="48.74458" lon="7.33404">
        <ele>451.12</ele>
        <time>2020-05-21T20:17:07.000Z</time>
      </trkpt>
      <trkpt lat="48.74463" lon="7.33405">
        <ele>453.1</ele>
        <time>2020-05-21T20:17:09.000Z</time>
      </trkpt>
      <trkpt lat="48.74469" lon="7.33404">
        <ele>455.06</ele>
        <time>2020-05-21T20:17:12.000Z</time>
      </trkpt>
      <trkpt lat="48.74474" lon="7.33404">
        <ele>456.23</ele>
        <time>2020-05-21T20:17:14.000Z</time>
      </trkpt>
      <trkpt lat="48.7448" lon="7.33404">
        <ele>454.29</ele>
        <time>2020-05-21T20:17:16.000Z</time>
      </trkpt>
      <trkpt lat="48.74484" lon="7.33402">
        <ele>455.59</ele>
        <time>2020-05-21T20:17:18.000Z</time>
      </trkpt>
      <trkpt lat="48.74489" lon="7.33401">
        <ele>457.59</ele>
        <time>2020-05-21T20:17:21.000Z</time>
      </trkpt>
      <trkpt lat="48.74494" lon="7.33401">
        <ele>459.69</ele>
        <time>2020-05-21T20:17:23.000Z</time>
      </trkpt>
      <trkpt lat="48.745" lon="7.33397">
        <ele>401.28</ele>
        <time>2020-05-21T20:17:26.000Z</time>
      </trkpt>
      <trkpt lat="48.74505" lon="7.33395">
        <ele>422.35</ele>
        <time>2020-05-21T20:17:28.000Z</time>
      </trkpt>
      <trkpt lat="48.74509" lon="7.33392">
        <ele>434.15</ele>
        <time>2020-05-21T20:17:30.000Z</time>
      </trkpt>
      <trkpt lat="48.74515" lon="7.33388">
        <ele>443.77</ele>
        <time>2020-05-21T20:17:33.000Z</time>
      </trkpt>
      <trkpt lat="48.7452" lon="7.33386">
        <ele>443.77</ele>
        <time>2020-05-21T20:17:35.000Z</time>
      </trkpt>
      <trkpt lat="48.74525" lon="7.33382">
        <ele>448.52</ele>
        <time>2020-05-21T20:17:38.000Z</time>
      </trkpt>
      <trkpt lat="48.74531" lon="7.33377">
        <ele>452.85</ele>
        <time>2020-05-21T20:17:41.000Z</time>
      </trkpt>
      <trkpt lat="48.74536" lon="7.33375">
        <ele>454.36</ele>
        <time>2020-05-21T20:17:44.000Z</time>
      </trkpt>
      <trkpt lat="48.74541" lon="7.33373">
        <ele>452.42</ele>
        <time>2020-05-21T20:17:46.000Z</time>
      </trkpt>
      <trkpt lat="48.74546" lon="7.33373">
        <ele>454.29</ele>
        <time>2020-05-21T20:17:48.000Z</time>
      </trkpt>
      <trkpt lat="48.7456" lon="7.33367">
        <ele>455.14</ele>
        <time>2020-05-21T20:17:52.000Z</time>
      </trkpt>
      <trkpt lat="48.74617" lon="7.33345">
        <ele>455.37</ele>
        <time>2020-05-21T20:18:02.000Z</time>
      </trkpt>
      <trkpt lat="48.74622" lon="7.3334">
        <ele>455.61</ele>
        <time>2020-05-21T20:18:03.000Z</time>
      </trkpt>
      <trkpt lat="48.74628" lon="7.33336">
        <ele>455.48</ele>
        <time>2020-05-21T20:18:04.000Z</time>
      </trkpt>
      <trkpt lat="48.74634" lon="7.33335">
        <ele>454.65</ele>
        <time>2020-05-21T20:18:05.000Z</time>
      </trkpt>
      <trkpt lat="48.74641" lon="7.33337">
        <ele>452.75</ele>
        <time>2020-05-21T20:18:06.000Z</time>
      </trkpt>
      <trkpt lat="48.74645" lon="7.33334">
        <ele>453.76</ele>
        <time>2020-05-21T20:18:07.000Z</time>
      </trkpt>
      <trkpt lat="48.74658" lon="7.33331">
        <ele>454.62</ele>
        <time>2020-05-21T20:18:09.000Z</time>
      </trkpt>
      <trkpt lat="48.74665" lon="7.33325">
        <ele>453.35</ele>
        <time>2020-05-21T20:18:10.000Z</time>
      </trkpt>
      <trkpt lat="48.74674" lon="7.33321">
        <ele>455.89</ele>
        <time>2020-05-21T20:18:12.000Z</time>
      </trkpt>
      <trkpt lat="48.74678" lon="7.33317">
        <ele>456.48</ele>
        <time>2020-05-21T20:18:13.000Z</time>
      </trkpt>
      <trkpt lat="48.74682" lon="7.33314">
        <ele>456.93</ele>
        <time>2020-05-21T20:18:14.000Z</time>
      </trkpt>
      <trkpt lat="48.74688" lon="7.33309">
        <ele>456.67</ele>
        <time>2020-05-21T20:18:16.000Z</time>
      </trkpt>
      <trkpt lat="48.74692" lon="7.33307">
        <ele>456.6</ele>
        <time>2020-05-21T20:18:17.000Z</time>
      </trkpt>
      <trkpt lat="48.747" lon="7.333">
        <ele>454.35</ele>
        <time>2020-05-21T20:18:19.000Z</time>
      </trkpt>
      <trkpt lat="48.74704" lon="7.33298">
        <ele>455.09</ele>
        <time>2020-05-21T20:18:20.000Z</time>
      </trkpt>
      <trkpt lat="48.7471" lon="7.33295">
        <ele>450.99</ele>
        <time>2020-05-21T20:18:22.000Z</time>
      </trkpt>
      <trkpt lat="48.74725" lon="7.33292">
        <ele>448.66</ele>
        <time>2020-05-21T20:18:25.000Z</time>
      </trkpt>
      <trkpt lat="48.74734" lon="7.33287">
        <ele>354.52</ele>
        <time>2020-05-21T20:18:27.000Z</time>
      </trkpt>
      <trkpt lat="48.74745" lon="7.33281">
        <ele>385.18</ele>
        <time>2020-05-21T20:18:29.000Z</time>
      </trkpt>
      <trkpt lat="48.74755" lon="7.33279">
        <ele>401.23</ele>
        <time>2020-05-21T20:18:31.000Z</time>
      </trkpt>
      <trkpt lat="48.74761" lon="7.33275">
        <ele>411.49</ele>
        <time>2020-05-21T20:18:32.000Z</time>
      </trkpt>
      <trkpt lat="48.74766" lon="7.33275">
        <ele>416.63</ele>
        <time>2020-05-21T20:18:33.000Z</time>
      </trkpt>
      <trkpt lat="48.74774" lon="7.33268">
        <ele>423.52</ele>
        <time>2020-05-21T20:18:35.000Z</time>
      </trkpt>
      <trkpt lat="48.74785" lon="7.33262">
        <ele>430.94</ele>
        <time>2020-05-21T20:18:37.000Z</time>
      </trkpt>
      <trkpt lat="48.74793" lon="7.33257">
        <ele>434.52</ele>
        <time>2020-05-21T20:18:38.000Z</time>
      </trkpt>
      <trkpt lat="48.748" lon="7.33255">
        <ele>438.21</ele>
        <time>2020-05-21T20:18:39.000Z</time>
      </trkpt>
      <trkpt lat="48.74804" lon="7.33249">
        <ele>438.81</ele>
        <time>2020-05-21T20:18:40.000Z</time>
      </trkpt>
      <trkpt lat="48.74812" lon="7.33246">
        <ele>439.02</ele>
        <time>2020-05-21T20:18:41.000Z</time>
      </trkpt>
      <trkpt lat="48.74819" lon="7.33243">
        <ele>440.15</ele>
        <time>2020-05-21T20:18:42.000Z</time>
      </trkpt>
      <trkpt lat="48.74825" lon="7.33238">
        <ele>442.19</ele>
        <time>2020-05-21T20:18:43.000Z</time>
      </trkpt>
      <trkpt lat="48.74831" lon="7.33235">
        <ele>443.2</ele>
        <time>2020-05-21T20:18:44.000Z</time>
      </trkpt>
      <trkpt lat="48.74835" lon="7.33229">
        <ele>443.64</ele>
        <time>2020-05-21T20:18:45.000Z</time>
      </trkpt>
      <trkpt lat="48.74841" lon="7.33223">
        <ele>443.11</ele>
        <time>2020-05-21T20:18:46.000Z</time>
      </trkpt>
      <trkpt lat="48.74846" lon="7.33217">
        <ele>442.85</ele>
        <time>2020-05-21T20:18:47.000Z</time>
      </trkpt>
      <trkpt lat="48.7485" lon="7.33208">
        <ele>442.88</ele>
        <time>2020-05-21T20:18:48.000Z</time>
      </trkpt>
      <trkpt lat="48.74853" lon="7.33201">
        <ele>442.02</ele>
        <time>2020-05-21T20:18:49.000Z</time>
      </trkpt>
      <trkpt lat="48.7486" lon="7.33199">
        <ele>443.2</ele>
        <time>2020-05-21T20:18:50.000Z</time>
      </trkpt>
      <trkpt lat="48.74866" lon="7.33193">
        <ele>444.1</ele>
        <time>2020-05-21T20:18:51.000Z</time>
      </trkpt>
      <trkpt lat="48.74873" lon="7.33187">
        <ele>445.86</ele>
        <time>2020-05-21T20:18:52.000Z</time>
      </trkpt>
      <trkpt lat="48.74881" lon="7.33184">
        <ele>448.14</ele>
        <time>2020-05-21T20:18:53.000Z</time>
      </trkpt>
      <trkpt lat="48.74887" lon="7.33179">
        <ele>448.16</ele>
        <time>2020-05-21T20:18:54.000Z</time>
      </trkpt>
      <trkpt lat="48.74893" lon="7.33172">
        <ele>451.02</ele>
        <time>2020-05-21T20:18:55.000Z</time>
      </trkpt>
      <trkpt lat="48.74901" lon="7.33169">
        <ele>450.17</ele>
        <time>2020-05-21T20:18:56.000Z</time>
      </trkpt>
      <trkpt lat="48.74907" lon="7.33163">
        <ele>449.38</ele>
        <time>2020-05-21T20:18:57.000Z</time>
      </trkpt>
      <trkpt lat="48.74912" lon="7.33156">
        <ele>449.54</ele>
        <time>2020-05-21T20:18:58.000Z</time>
      </trkpt>
      <trkpt lat="48.74918" lon="7.33149">
        <ele>448.31</ele>
        <time>2020-05-21T20:18:59.000Z</time>
      </trkpt>
      <trkpt lat="48.74923" lon="7.33142">
        <ele>447.47</ele>
        <time>2020-05-21T20:19:00.000Z</time>
      </trkpt>
      <trkpt lat="48.7493" lon="7.33137">
        <ele>445.86</ele>
        <time>2020-05-21T20:19:01.000Z</time>
      </trkpt>
      <trkpt lat="48.74936" lon="7.33132">
        <ele>445.64</ele>
        <time>2020-05-21T20:19:02.000Z</time>
      </trkpt>
      <trkpt lat="48.7494" lon="7.33124">
        <ele>445.13</ele>
        <time>2020-05-21T20:19:03.000Z</time>
      </trkpt>
      <trkpt lat="48.74946" lon="7.33115">
        <ele>444.48</ele>
        <time>2020-05-21T20:19:04.000Z</time>
      </trkpt>
      <trkpt lat="48.74953" lon="7.33107">
        <ele>445.44</ele>
        <time>2020-05-21T20:19:05.000Z</time>
      </trkpt>
      <trkpt lat="48.74959" lon="7.33101">
        <ele>445.64</ele>
        <time>2020-05-21T20:19:06.000Z</time>
      </trkpt>
      <trkpt lat="48.74967" lon="7.33097">
        <ele>445.93</ele>
        <time>2020-05-21T20:19:07.000Z</time>
      </trkpt>
      <trkpt lat="48.74973" lon="7.33093">
        <ele>445.94</ele>
        <time>2020-05-21T20:19:08.000Z</time>
      </trkpt>
      <trkpt lat="48.74979" lon="7.33091">
        <ele>442.31</ele>
        <time>2020-05-21T20:19:09.000Z</time>
      </trkpt>
      <trkpt lat="48.74984" lon="7.33087">
        <ele>442.79</ele>
        <time>2020-05-21T20:19:10.000Z</time>
      </trkpt>
      <trkpt lat="48.7499" lon="7.33084">
        <ele>439.69</ele>
        <time>2020-05-21T20:19:11.000Z</time>
      </trkpt>
      <trkpt lat="48.74995" lon="7.33081">
        <ele>437.63</ele>
        <time>2020-05-21T20:19:12.000Z</time>
      </trkpt>
      <trkpt lat="48.75" lon="7.33081">
        <ele>436.09</ele>
        <time>2020-05-21T20:19:13.000Z</time>
      </trkpt>
      <trkpt lat="48.75006" lon="7.33082">
        <ele>436.27</ele>
        <time>2020-05-21T20:19:14.000Z</time>
      </trkpt>
      <trkpt lat="48.75012" lon="7.33082">
        <ele>436.82</ele>
        <time>2020-05-21T20:19:15.000Z</time>
      </trkpt>
      <trkpt lat="48.7502" lon="7.33087">
        <ele>435.04</ele>
        <time>2020-05-21T20:19:16.000Z</time>
      </trkpt>
      <trkpt lat="48.75026" lon="7.33086">
        <ele>433.1</ele>
        <time>2020-05-21T20:19:17.000Z</time>
      </trkpt>
      <trkpt lat="48.75032" lon="7.3309">
        <ele>432.32</ele>
        <time>2020-05-21T20:19:18.000Z</time>
      </trkpt>
      <trkpt lat="48.75037" lon="7.33094">
        <ele>432.39</ele>
        <time>2020-05-21T20:19:19.000Z</time>
      </trkpt>
      <trkpt lat="48.75043" lon="7.33096">
        <ele>433.89</ele>
        <time>2020-05-21T20:19:20.000Z</time>
      </trkpt>
      <trkpt lat="48.75047" lon="7.33101">
        <ele>435.88</ele>
        <time>2020-05-21T20:19:21.000Z</time>
      </trkpt>
      <trkpt lat="48.75054" lon="7.33105">
        <ele>435.94</ele>
        <time>2020-05-21T20:19:22.000Z</time>
      </trkpt>
      <trkpt lat="48.7506" lon="7.33109">
        <ele>436.38</ele>
        <time>2020-05-21T20:19:23.000Z</time>
      </trkpt>
      <trkpt lat="48.75064" lon="7.33114">
        <ele>436.45</ele>
        <time>2020-05-21T20:19:24.000Z</time>
      </trkpt>
      <trkpt lat="48.75069" lon="7.3312">
        <ele>437.37</ele>
        <time>2020-05-21T20:19:25.000Z</time>
      </trkpt>
      <trkpt lat="48.75074" lon="7.33128">
        <ele>436.26</ele>
        <time>2020-05-21T20:19:26.000Z</time>
      </trkpt>
      <trkpt lat="48.7508" lon="7.33133">
        <ele>434.89</ele>
        <time>2020-05-21T20:19:27.000Z</time>
      </trkpt>
      <trkpt lat="48.75083" lon="7.33138">
        <ele>435.96</ele>
        <time>2020-05-21T20:19:28.000Z</time>
      </trkpt>
      <trkpt lat="48.75088" lon="7.33146">
        <ele>436.13</ele>
        <time>2020-05-21T20:19:29.000Z</time>
      </trkpt>
      <trkpt lat="48.75096" lon="7.33158">
        <ele>435.76</ele>
        <time>2020-05-21T20:19:31.000Z</time>
      </trkpt>
      <trkpt lat="48.751" lon="7.33164">
        <ele>435.92</ele>
        <time>2020-05-21T20:19:32.000Z</time>
      </trkpt>
      <trkpt lat="48.75103" lon="7.3317">
        <ele>435.83</ele>
        <time>2020-05-21T20:19:33.000Z</time>
      </trkpt>
      <trkpt lat="48.75107" lon="7.33175">
        <ele>436.58</ele>
        <time>2020-05-21T20:19:34.000Z</time>
      </trkpt>
      <trkpt lat="48.75111" lon="7.33181">
        <ele>435.94</ele>
        <time>2020-05-21T20:19:35.000Z</time>
      </trkpt>
      <trkpt lat="48.75115" lon="7.3319">
        <ele>435.64</ele>
        <time>2020-05-21T20:19:36.000Z</time>
      </trkpt>
      <trkpt lat="48.7512" lon="7.33198">
        <ele>436.7</ele>
        <time>2020-05-21T20:19:37.000Z</time>
      </trkpt>
      <trkpt lat="48.75123" lon="7.33205">
        <ele>438.69</ele>
        <time>2020-05-21T20:19:38.000Z</time>
      </trkpt>
      <trkpt lat="48.75127" lon="7.33212">
        <ele>438.38</ele>
        <time>2020-05-21T20:19:39.000Z</time>
      </trkpt>
      <trkpt lat="48.75131" lon="7.3322">
        <ele>378.84</ele>
        <time>2020-05-21T20:19:40.000Z</time>
      </trkpt>
      <trkpt lat="48.75136" lon="7.33229">
        <ele>392.03</ele>
        <time>2020-05-21T20:19:41.000Z</time>
      </trkpt>
      <trkpt lat="48.7514" lon="7.33237">
        <ele>407.02</ele>
        <time>2020-05-21T20:19:42.000Z</time>
      </trkpt>
      <trkpt lat="48.75144" lon="7.33243">
        <ele>416.06</ele>
        <time>2020-05-21T20:19:43.000Z</time>
      </trkpt>
      <trkpt lat="48.75146" lon="7.33249">
        <ele>428.97</ele>
        <time>2020-05-21T20:19:44.000Z</time>
      </trkpt>
      <trkpt lat="48.75151" lon="7.33257">
        <ele>428.63</ele>
        <time>2020-05-21T20:19:45.000Z</time>
      </trkpt>
      <trkpt lat="48.75155" lon="7.33266">
        <ele>430.27</ele>
        <time>2020-05-21T20:19:46.000Z</time>
      </trkpt>
      <trkpt lat="48.75159" lon="7.33274">
        <ele>431.99</ele>
        <time>2020-05-21T20:19:47.000Z</time>
      </trkpt>
      <trkpt lat="48.7516" lon="7.33281">
        <ele>430.97</ele>
        <time>2020-05-21T20:19:48.000Z</time>
      </trkpt>
      <trkpt lat="48.75163" lon="7.33288">
        <ele>431.85</ele>
        <time>2020-05-21T20:19:49.000Z</time>
      </trkpt>
      <trkpt lat="48.75166" lon="7.33296">
        <ele>432.09</ele>
        <time>2020-05-21T20:19:50.000Z</time>
      </trkpt>
      <trkpt lat="48.75169" lon="7.33303">
        <ele>431.25</ele>
        <time>2020-05-21T20:19:51.000Z</time>
      </trkpt>
      <trkpt lat="48.75174" lon="7.3331">
        <ele>432.98</ele>
        <time>2020-05-21T20:19:52.000Z</time>
      </trkpt>
      <trkpt lat="48.75178" lon="7.33316">
        <ele>432.02</ele>
        <time>2020-05-21T20:19:53.000Z</time>
      </trkpt>
      <trkpt lat="48.75179" lon="7.33322">
        <ele>430.84</ele>
        <time>2020-05-21T20:19:54.000Z</time>
      </trkpt>
      <trkpt lat="48.75182" lon="7.33329">
        <ele>430.36</ele>
        <time>2020-05-21T20:19:55.000Z</time>
      </trkpt>
      <trkpt lat="48.75186" lon="7.33334">
        <ele>428.71</ele>
        <time>2020-05-21T20:19:56.000Z</time>
      </trkpt>
      <trkpt lat="48.75191" lon="7.3334">
        <ele>428.84</ele>
        <time>2020-05-21T20:19:57.000Z</time>
      </trkpt>
      <trkpt lat="48.75196" lon="7.33348">
        <ele>427.82</ele>
        <time>2020-05-21T20:19:59.000Z</time>
      </trkpt>
      <trkpt lat="48.75199" lon="7.33354">
        <ele>427.44</ele>
        <time>2020-05-21T20:20:00.000Z</time>
      </trkpt>
      <trkpt lat="48.75202" lon="7.33359">
        <ele>428.49</ele>
        <time>2020-05-21T20:20:01.000Z</time>
      </trkpt>
      <trkpt lat="48.75209" lon="7.33371">
        <ele>427.63</ele>
        <time>2020-05-21T20:20:03.000Z</time>
      </trkpt>
      <trkpt lat="48.75215" lon="7.3338">
        <ele>427.05</ele>
        <time>2020-05-21T20:20:05.000Z</time>
      </trkpt>
      <trkpt lat="48.75219" lon="7.33388">
        <ele>427.02</ele>
        <time>2020-05-21T20:20:07.000Z</time>
      </trkpt>
      <trkpt lat="48.75225" lon="7.33399">
        <ele>427.73</ele>
        <time>2020-05-21T20:20:09.000Z</time>
      </trkpt>
      <trkpt lat="48.75226" lon="7.3341">
        <ele>427.09</ele>
        <time>2020-05-21T20:20:11.000Z</time>
      </trkpt>
      <trkpt lat="48.75231" lon="7.3342">
        <ele>428.37</ele>
        <time>2020-05-21T20:20:13.000Z</time>
      </trkpt>
      <trkpt lat="48.75236" lon="7.33428">
        <ele>432.15</ele>
        <time>2020-05-21T20:20:15.000Z</time>
      </trkpt>
      <trkpt lat="48.75241" lon="7.33434">
        <ele>434.62</ele>
        <time>2020-05-21T20:20:17.000Z</time>
      </trkpt>
      <trkpt lat="48.75245" lon="7.33442">
        <ele>432.83</ele>
        <time>2020-05-21T20:20:19.000Z</time>
      </trkpt>
      <trkpt lat="48.7525" lon="7.33451">
        <ele>431.88</ele>
        <time>2020-05-21T20:20:21.000Z</time>
      </trkpt>
      <trkpt lat="48.75255" lon="7.33457">
        <ele>430.32</ele>
        <time>2020-05-21T20:20:23.000Z</time>
      </trkpt>
      <trkpt lat="48.7526" lon="7.33462">
        <ele>433.07</ele>
        <time>2020-05-21T20:20:25.000Z</time>
      </trkpt>
      <trkpt lat="48.75265" lon="7.33468">
        <ele>432.53</ele>
        <time>2020-05-21T20:20:27.000Z</time>
      </trkpt>
      <trkpt lat="48.7527" lon="7.33474">
        <ele>434.32</ele>
        <time>2020-05-21T20:20:29.000Z</time>
      </trkpt>
      <trkpt lat="48.75275" lon="7.33481">
        <ele>434.11</ele>
        <time>2020-05-21T20:20:31.000Z</time>
      </trkpt>
      <trkpt lat="48.75282" lon="7.33484">
        <ele>436.05</ele>
        <time>2020-05-21T20:20:33.000Z</time>
      </trkpt>
      <trkpt lat="48.75288" lon="7.33482">
        <ele>436.53</ele>
        <time>2020-05-21T20:20:36.000Z</time>
      </trkpt>
      <trkpt lat="48.75293" lon="7.33481">
        <ele>436.88</ele>
        <time>2020-05-21T20:20:38.000Z</time>
      </trkpt>
      <trkpt lat="48.75301" lon="7.33483">
        <ele>437.67</ele>
        <time>2020-05-21T20:20:40.000Z</time>
      </trkpt>
      <trkpt lat="48.75308" lon="7.33483">
        <ele>390.36</ele>
        <time>2020-05-21T20:20:42.000Z</time>
      </trkpt>
      <trkpt lat="48.75316" lon="7.33482">
        <ele>411.71</ele>
        <time>2020-05-21T20:20:44.000Z</time>
      </trkpt>
      <trkpt lat="48.75325" lon="7.33483">
        <ele>421.25</ele>
        <time>2020-05-21T20:20:46.000Z</time>
      </trkpt>
      <trkpt lat="48.75333" lon="7.33484">
        <ele>430.87</ele>
        <time>2020-05-21T20:20:48.000Z</time>
      </trkpt>
      <trkpt lat="48.7534" lon="7.33484">
        <ele>432.83</ele>
        <time>2020-05-21T20:20:50.000Z</time>
      </trkpt>
      <trkpt lat="48.75348" lon="7.33483">
        <ele>431.98</ele>
        <time>2020-05-21T20:20:52.000Z</time>
      </trkpt>
      <trkpt lat="48.75355" lon="7.33484">
        <ele>433.51</ele>
        <time>2020-05-21T20:20:54.000Z</time>
      </trkpt>
      <trkpt lat="48.7536" lon="7.33486">
        <ele>433.65</ele>
        <time>2020-05-21T20:20:55.000Z</time>
      </trkpt>
      <trkpt lat="48.75363" lon="7.3349">
        <ele>434.17</ele>
        <time>2020-05-21T20:20:56.000Z</time>
      </trkpt>
      <trkpt lat="48.75368" lon="7.33498">
        <ele>433.3</ele>
        <time>2020-05-21T20:20:57.000Z</time>
      </trkpt>
      <trkpt lat="48.75372" lon="7.33505">
        <ele>432.71</ele>
        <time>2020-05-21T20:20:58.000Z</time>
      </trkpt>
      <trkpt lat="48.75376" lon="7.33512">
        <ele>433.74</ele>
        <time>2020-05-21T20:20:59.000Z</time>
      </trkpt>
      <trkpt lat="48.7538" lon="7.33518">
        <ele>433.32</ele>
        <time>2020-05-21T20:21:00.000Z</time>
      </trkpt>
      <trkpt lat="48.75385" lon="7.33525">
        <ele>433.06</ele>
        <time>2020-05-21T20:21:01.000Z</time>
      </trkpt>
      <trkpt lat="48.75388" lon="7.33533">
        <ele>432.65</ele>
        <time>2020-05-21T20:21:02.000Z</time>
      </trkpt>
      <trkpt lat="48.75391" lon="7.33543">
        <ele>431.64</ele>
        <time>2020-05-21T20:21:03.000Z</time>
      </trkpt>
      <trkpt lat="48.75395" lon="7.33552">
        <ele>431.56</ele>
        <time>2020-05-21T20:21:04.000Z</time>
      </trkpt>
      <trkpt lat="48.75399" lon="7.33561">
        <ele>430.74</ele>
        <time>2020-05-21T20:21:05.000Z</time>
      </trkpt>
      <trkpt lat="48.75402" lon="7.3357">
        <ele>429.59</ele>
        <time>2020-05-21T20:21:06.000Z</time>
      </trkpt>
      <trkpt lat="48.75403" lon="7.3358">
        <ele>429.26</ele>
        <time>2020-05-21T20:21:07.000Z</time>
      </trkpt>
      <trkpt lat="48.75403" lon="7.3359">
        <ele>428.91</ele>
        <time>2020-05-21T20:21:08.000Z</time>
      </trkpt>
      <trkpt lat="48.75401" lon="7.336">
        <ele>428.69</ele>
        <time>2020-05-21T20:21:09.000Z</time>
      </trkpt>
      <trkpt lat="48.75399" lon="7.33608">
        <ele>430.2</ele>
        <time>2020-05-21T20:21:10.000Z</time>
      </trkpt>
      <trkpt lat="48.75396" lon="7.33617">
        <ele>429.78</ele>
        <time>2020-05-21T20:21:11.000Z</time>
      </trkpt>
      <trkpt lat="48.75392" lon="7.33625">
        <ele>429.8</ele>
        <time>2020-05-21T20:21:12.000Z</time>
      </trkpt>
      <trkpt lat="48.75391" lon="7.33634">
        <ele>430.93</ele>
        <time>2020-05-21T20:21:13.000Z</time>
      </trkpt>
      <trkpt lat="48.75391" lon="7.33645">
        <ele>431.23</ele>
        <time>2020-05-21T20:21:14.000Z</time>
      </trkpt>
      <trkpt lat="48.7539" lon="7.33654">
        <ele>431.57</ele>
        <time>2020-05-21T20:21:15.000Z</time>
      </trkpt>
      <trkpt lat="48.75391" lon="7.33664">
        <ele>430.72</ele>
        <time>2020-05-21T20:21:16.000Z</time>
      </trkpt>
      <trkpt lat="48.75391" lon="7.33674">
        <ele>429.61</ele>
        <time>2020-05-21T20:21:17.000Z</time>
      </trkpt>
      <trkpt lat="48.75392" lon="7.33684">
        <ele>428.22</ele>
        <time>2020-05-21T20:21:18.000Z</time>
      </trkpt>
      <trkpt lat="48.75389" lon="7.33706">
        <ele>428.63</ele>
        <time>2020-05-21T20:21:20.000Z</time>
      </trkpt>
      <trkpt lat="48.75387" lon="7.33715">
        <ele>428.96</ele>
        <time>2020-05-21T20:21:21.000Z</time>
      </trkpt>
      <trkpt lat="48.75386" lon="7.33728">
        <ele>428.87</ele>
        <time>2020-05-21T20:21:23.000Z</time>
      </trkpt>
      <trkpt lat="48.75387" lon="7.33737">
        <ele>405.55</ele>
        <time>2020-05-21T20:21:27.000Z</time>
      </trkpt>
      <trkpt lat="48.75386" lon="7.33744">
        <ele>415.65</ele>
        <time>2020-05-21T20:21:29.000Z</time>
      </trkpt>
      <trkpt lat="48.75386" lon="7.33751">
        <ele>422.81</ele>
        <time>2020-05-21T20:21:31.000Z</time>
      </trkpt>
      <trkpt lat="48.75388" lon="7.33763">
        <ele>427.64</ele>
        <time>2020-05-21T20:21:33.000Z</time>
      </trkpt>
      <trkpt lat="48.75389" lon="7.33778">
        <ele>427.4</ele>
        <time>2020-05-21T20:21:35.000Z</time>
      </trkpt>
      <trkpt lat="48.7539" lon="7.33785">
        <ele>428.1</ele>
        <time>2020-05-21T20:21:36.000Z</time>
      </trkpt>
      <trkpt lat="48.75391" lon="7.33793">
        <ele>427.83</ele>
        <time>2020-05-21T20:21:37.000Z</time>
      </trkpt>
      <trkpt lat="48.75392" lon="7.33803">
        <ele>428.52</ele>
        <time>2020-05-21T20:21:39.000Z</time>
      </trkpt>
      <trkpt lat="48.75391" lon="7.33814">
        <ele>426.79</ele>
        <time>2020-05-21T20:21:41.000Z</time>
      </trkpt>
      <trkpt lat="48.75391" lon="7.33827">
        <ele>426.08</ele>
        <time>2020-05-21T20:21:43.000Z</time>
      </trkpt>
      <trkpt lat="48.75392" lon="7.33839">
        <ele>425.72</ele>
        <time>2020-05-21T20:21:45.000Z</time>
      </trkpt>
      <trkpt lat="48.75394" lon="7.33846">
        <ele>424.37</ele>
        <time>2020-05-21T20:21:46.000Z</time>
      </trkpt>
      <trkpt lat="48.75395" lon="7.33852">
        <ele>424.02</ele>
        <time>2020-05-21T20:21:47.000Z</time>
      </trkpt>
      <trkpt lat="48.75397" lon="7.33859">
        <ele>424.82</ele>
        <time>2020-05-21T20:21:48.000Z</time>
      </trkpt>
      <trkpt lat="48.75403" lon="7.33873">
        <ele>426.01</ele>
        <time>2020-05-21T20:21:50.000Z</time>
      </trkpt>
      <trkpt lat="48.75409" lon="7.33885">
        <ele>427.55</ele>
        <time>2020-05-21T20:21:52.000Z</time>
      </trkpt>
      <trkpt lat="48.75411" lon="7.33891">
        <ele>428.35</ele>
        <time>2020-05-21T20:21:53.000Z</time>
      </trkpt>
      <trkpt lat="48.75414" lon="7.33898">
        <ele>428.89</ele>
        <time>2020-05-21T20:21:54.000Z</time>
      </trkpt>
      <trkpt lat="48.75414" lon="7.33911">
        <ele>425.23</ele>
        <time>2020-05-21T20:21:56.000Z</time>
      </trkpt>
      <trkpt lat="48.7542" lon="7.33919">
        <ele>426.06</ele>
        <time>2020-05-21T20:21:58.000Z</time>
      </trkpt>
      <trkpt lat="48.75422" lon="7.33929">
        <ele>426.88</ele>
        <time>2020-05-21T20:22:00.000Z</time>
      </trkpt>
      <trkpt lat="48.75426" lon="7.33938">
        <ele>422.73</ele>
        <time>2020-05-21T20:22:02.000Z</time>
      </trkpt>
      <trkpt lat="48.7543" lon="7.33949">
        <ele>422.47</ele>
        <time>2020-05-21T20:22:04.000Z</time>
      </trkpt>
      <trkpt lat="48.75438" lon="7.33965">
        <ele>421.84</ele>
        <time>2020-05-21T20:22:06.000Z</time>
      </trkpt>
      <trkpt lat="48.75442" lon="7.33971">
        <ele>420.54</ele>
        <time>2020-05-21T20:22:07.000Z</time>
      </trkpt>
      <trkpt lat="48.75446" lon="7.33977">
        <ele>421.93</ele>
        <time>2020-05-21T20:22:08.000Z</time>
      </trkpt>
      <trkpt lat="48.7545" lon="7.33983">
        <ele>421.6</ele>
        <time>2020-05-21T20:22:09.000Z</time>
      </trkpt>
      <trkpt lat="48.75454" lon="7.33987">
        <ele>420.31</ele>
        <time>2020-05-21T20:22:10.000Z</time>
      </trkpt>
      <trkpt lat="48.75459" lon="7.33995">
        <ele>419.47</ele>
        <time>2020-05-21T20:22:12.000Z</time>
      </trkpt>
      <trkpt lat="48.75462" lon="7.34001">
        <ele>419.76</ele>
        <time>2020-05-21T20:22:13.000Z</time>
      </trkpt>
      <trkpt lat="48.75466" lon="7.34006">
        <ele>420.68</ele>
        <time>2020-05-21T20:22:15.000Z</time>
      </trkpt>
      <trkpt lat="48.75472" lon="7.34013">
        <ele>419.76</ele>
        <time>2020-05-21T20:22:17.000Z</time>
      </trkpt>
      <trkpt lat="48.75476" lon="7.34018">
        <ele>419.77</ele>
        <time>2020-05-21T20:22:18.000Z</time>
      </trkpt>
      <trkpt lat="48.7548" lon="7.34022">
        <ele>420.06</ele>
        <time>2020-05-21T20:22:19.000Z</time>
      </trkpt>
      <trkpt lat="48.75484" lon="7.34027">
        <ele>420.23</ele>
        <time>2020-05-21T20:22:20.000Z</time>
      </trkpt>
      <trkpt lat="48.75488" lon="7.34031">
        <ele>420.84</ele>
        <time>2020-05-21T20:22:21.000Z</time>
      </trkpt>
      <trkpt lat="48.75492" lon="7.34035">
        <ele>422.37</ele>
        <time>2020-05-21T20:22:22.000Z</time>
      </trkpt>
      <trkpt lat="48.75498" lon="7.3404">
        <ele>425.03</ele>
        <time>2020-05-21T20:22:24.000Z</time>
      </trkpt>
      <trkpt lat="48.75503" lon="7.34046">
        <ele>424.65</ele>
        <time>2020-05-21T20:22:26.000Z</time>
      </trkpt>
      <trkpt lat="48.7551" lon="7.34052">
        <ele>423.59</ele>
        <time>2020-05-21T20:22:28.000Z</time>
      </trkpt>
      <trkpt lat="48.75517" lon="7.34059">
        <ele>422.8</ele>
        <time>2020-05-21T20:22:30.000Z</time>
      </trkpt>
      <trkpt lat="48.75522" lon="7.34062">
        <ele>421.1</ele>
        <time>2020-05-21T20:22:31.000Z</time>
      </trkpt>
      <trkpt lat="48.75526" lon="7.34065">
        <ele>421.81</ele>
        <time>2020-05-21T20:22:32.000Z</time>
      </trkpt>
      <trkpt lat="48.7553" lon="7.34069">
        <ele>422.18</ele>
        <time>2020-05-21T20:22:33.000Z</time>
      </trkpt>
      <trkpt lat="48.75537" lon="7.34074">
        <ele>419.81</ele>
        <time>2020-05-21T20:22:35.000Z</time>
      </trkpt>
      <trkpt lat="48.75543" lon="7.34083">
        <ele>418.56</ele>
        <time>2020-05-21T20:22:37.000Z</time>
      </trkpt>
      <trkpt lat="48.7556" lon="7.34111">
        <ele>416.98</ele>
        <time>2020-05-21T20:22:41.000Z</time>
      </trkpt>
      <trkpt lat="48.75566" lon="7.34123">
        <ele>415.71</ele>
        <time>2020-05-21T20:22:43.000Z</time>
      </trkpt>
      <trkpt lat="48.75569" lon="7.34129">
        <ele>415.65</ele>
        <time>2020-05-21T20:22:44.000Z</time>
      </trkpt>
      <trkpt lat="48.75573" lon="7.34136">
        <ele>415.06</ele>
        <time>2020-05-21T20:22:45.000Z</time>
      </trkpt>
      <trkpt lat="48.75577" lon="7.34147">
        <ele>414.64</ele>
        <time>2020-05-21T20:22:47.000Z</time>
      </trkpt>
      <trkpt lat="48.7558" lon="7.34158">
        <ele>414.6</ele>
        <time>2020-05-21T20:22:49.000Z</time>
      </trkpt>
      <trkpt lat="48.75583" lon="7.34167">
        <ele>414.09</ele>
        <time>2020-05-21T20:22:51.000Z</time>
      </trkpt>
      <trkpt lat="48.75589" lon="7.34179">
        <ele>413.28</ele>
        <time>2020-05-21T20:22:53.000Z</time>
      </trkpt>
      <trkpt lat="48.75593" lon="7.3419">
        <ele>412.66</ele>
        <time>2020-05-21T20:22:55.000Z</time>
      </trkpt>
      <trkpt lat="48.75595" lon="7.34204">
        <ele>412.75</ele>
        <time>2020-05-21T20:22:57.000Z</time>
      </trkpt>
      <trkpt lat="48.75595" lon="7.34215">
        <ele>410.43</ele>
        <time>2020-05-21T20:22:59.000Z</time>
      </trkpt>
      <trkpt lat="48.75599" lon="7.34224">
        <ele>411.12</ele>
        <time>2020-05-21T20:23:01.000Z</time>
      </trkpt>
      <trkpt lat="48.75605" lon="7.34242">
        <ele>407.12</ele>
        <time>2020-05-21T20:23:04.000Z</time>
      </trkpt>
      <trkpt lat="48.75608" lon="7.3425">
        <ele>406.23</ele>
        <time>2020-05-21T20:23:05.000Z</time>
      </trkpt>
      <trkpt lat="48.7561" lon="7.34262">
        <ele>404.94</ele>
        <time>2020-05-21T20:23:07.000Z</time>
      </trkpt>
      <trkpt lat="48.75614" lon="7.34285">
        <ele>401.21</ele>
        <time>2020-05-21T20:23:10.000Z</time>
      </trkpt>
      <trkpt lat="48.75619" lon="7.3429">
        <ele>398.01</ele>
        <time>2020-05-21T20:23:11.000Z</time>
      </trkpt>
      <trkpt lat="48.75623" lon="7.34297">
        <ele>397.02</ele>
        <time>2020-05-21T20:23:12.000Z</time>
      </trkpt>
      <trkpt lat="48.75624" lon="7.34304">
        <ele>396.25</ele>
        <time>2020-05-21T20:23:13.000Z</time>
      </trkpt>
      <trkpt lat="48.75624" lon="7.34316">
        <ele>396.31</ele>
        <time>2020-05-21T20:23:15.000Z</time>
      </trkpt>
      <trkpt lat="48.75627" lon="7.34323">
        <ele>396.43</ele>
        <time>2020-05-21T20:23:16.000Z</time>
      </trkpt>
      <trkpt lat="48.75629" lon="7.3433">
        <ele>396.47</ele>
        <time>2020-05-21T20:23:17.000Z</time>
      </trkpt>
      <trkpt lat="48.75634" lon="7.34337">
        <ele>397.2</ele>
        <time>2020-05-21T20:23:19.000Z</time>
      </trkpt>
      <trkpt lat="48.75638" lon="7.34348">
        <ele>396.24</ele>
        <time>2020-05-21T20:23:21.000Z</time>
      </trkpt>
      <trkpt lat="48.75637" lon="7.34356">
        <ele>394.51</ele>
        <time>2020-05-21T20:23:23.000Z</time>
      </trkpt>
      <trkpt lat="48.7564" lon="7.34362">
        <ele>392.58</ele>
        <time>2020-05-21T20:23:39.000Z</time>
      </trkpt>
      <trkpt lat="48.75642" lon="7.34368">
        <ele>393.93</ele>
        <time>2020-05-21T20:23:43.000Z</time>
      </trkpt>
      <trkpt lat="48.75643" lon="7.34375">
        <ele>394.29</ele>
        <time>2020-05-21T20:23:45.000Z</time>
      </trkpt>
      <trkpt lat="48.75646" lon="7.34382">
        <ele>393.14</ele>
        <time>2020-05-21T20:23:47.000Z</time>
      </trkpt>
      <trkpt lat="48.75651" lon="7.34393">
        <ele>393.64</ele>
        <time>2020-05-21T20:23:49.000Z</time>
      </trkpt>
      <trkpt lat="48.75659" lon="7.34415">
        <ele>391.9</ele>
        <time>2020-05-21T20:23:52.000Z</time>
      </trkpt>
      <trkpt lat="48.75661" lon="7.34423">
        <ele>391.33</ele>
        <time>2020-05-21T20:23:53.000Z</time>
      </trkpt>
      <trkpt lat="48.75663" lon="7.34431">
        <ele>390.79</ele>
        <time>2020-05-21T20:23:54.000Z</time>
      </trkpt>
      <trkpt lat="48.75665" lon="7.34438">
        <ele>391.01</ele>
        <time>2020-05-21T20:23:55.000Z</time>
      </trkpt>
      <trkpt lat="48.75668" lon="7.34444">
        <ele>388.9</ele>
        <time>2020-05-21T20:23:56.000Z</time>
      </trkpt>
      <trkpt lat="48.75671" lon="7.34452">
        <ele>387.62</ele>
        <time>2020-05-21T20:23:57.000Z</time>
      </trkpt>
      <trkpt lat="48.75673" lon="7.34459">
        <ele>306.89</ele>
        <time>2020-05-21T20:23:58.000Z</time>
      </trkpt>
      <trkpt lat="48.75678" lon="7.34466">
        <ele>316.74</ele>
        <time>2020-05-21T20:23:59.000Z</time>
      </trkpt>
      <trkpt lat="48.7568" lon="7.34473">
        <ele>328.34</ele>
        <time>2020-05-21T20:24:00.000Z</time>
      </trkpt>
      <trkpt lat="48.75682" lon="7.3448">
        <ele>336.55</ele>
        <time>2020-05-21T20:24:01.000Z</time>
      </trkpt>
      <trkpt lat="48.75681" lon="7.34487">
        <ele>344.87</ele>
        <time>2020-05-21T20:24:02.000Z</time>
      </trkpt>
      <trkpt lat="48.75681" lon="7.34495">
        <ele>352.74</ele>
        <time>2020-05-21T20:24:03.000Z</time>
      </trkpt>
      <trkpt lat="48.7569" lon="7.34504">
        <ele>340.38</ele>
        <time>2020-05-21T20:24:05.000Z</time>
      </trkpt>
      <trkpt lat="48.75695" lon="7.34509">
        <ele>347.09</ele>
        <time>2020-05-21T20:24:06.000Z</time>
      </trkpt>
      <trkpt lat="48.757" lon="7.34519">
        <ele>355.2</ele>
        <time>2020-05-21T20:24:07.000Z</time>
      </trkpt>
      <trkpt lat="48.75704" lon="7.34525">
        <ele>359.91</ele>
        <time>2020-05-21T20:24:08.000Z</time>
      </trkpt>
      <trkpt lat="48.75708" lon="7.34531">
        <ele>361.51</ele>
        <time>2020-05-21T20:24:09.000Z</time>
      </trkpt>
      <trkpt lat="48.75713" lon="7.34533">
        <ele>364.49</ele>
        <time>2020-05-21T20:24:10.000Z</time>
      </trkpt>
      <trkpt lat="48.75717" lon="7.34538">
        <ele>365.73</ele>
        <time>2020-05-21T20:24:11.000Z</time>
      </trkpt>
      <trkpt lat="48.75721" lon="7.34544">
        <ele>367.26</ele>
        <time>2020-05-21T20:24:12.000Z</time>
      </trkpt>
      <trkpt lat="48.75726" lon="7.34546">
        <ele>367.3</ele>
        <time>2020-05-21T20:24:13.000Z</time>
      </trkpt>
      <trkpt lat="48.75729" lon="7.34551">
        <ele>368.63</ele>
        <time>2020-05-21T20:24:14.000Z</time>
      </trkpt>
      <trkpt lat="48.75736" lon="7.34551">
        <ele>321.97</ele>
        <time>2020-05-21T20:24:15.000Z</time>
      </trkpt>
      <trkpt lat="48.75741" lon="7.34552">
        <ele>330.03</ele>
        <time>2020-05-21T20:24:16.000Z</time>
      </trkpt>
      <trkpt lat="48.75747" lon="7.3455">
        <ele>340.44</ele>
        <time>2020-05-21T20:24:17.000Z</time>
      </trkpt>
      <trkpt lat="48.75758" lon="7.34549">
        <ele>328.11</ele>
        <time>2020-05-21T20:24:19.000Z</time>
      </trkpt>
      <trkpt lat="48.75764" lon="7.34548">
        <ele>339.34</ele>
        <time>2020-05-21T20:24:20.000Z</time>
      </trkpt>
      <trkpt lat="48.75771" lon="7.34549">
        <ele>349.46</ele>
        <time>2020-05-21T20:24:21.000Z</time>
      </trkpt>
      <trkpt lat="48.75777" lon="7.3455">
        <ele>355.61</ele>
        <time>2020-05-21T20:24:22.000Z</time>
      </trkpt>
      <trkpt lat="48.75804" lon="7.34563">
        <ele>368.96</ele>
        <time>2020-05-21T20:24:26.000Z</time>
      </trkpt>
      <trkpt lat="48.75816" lon="7.34576">
        <ele>365.99</ele>
        <time>2020-05-21T20:24:29.000Z</time>
      </trkpt>
      <trkpt lat="48.75822" lon="7.34582">
        <ele>369.7</ele>
        <time>2020-05-21T20:24:31.000Z</time>
      </trkpt>
      <trkpt lat="48.75827" lon="7.3459">
        <ele>372.17</ele>
        <time>2020-05-21T20:24:33.000Z</time>
      </trkpt>
      <trkpt lat="48.75834" lon="7.34602">
        <ele>373.49</ele>
        <time>2020-05-21T20:24:35.000Z</time>
      </trkpt>
      <trkpt lat="48.75841" lon="7.34603">
        <ele>373.55</ele>
        <time>2020-05-21T20:24:37.000Z</time>
      </trkpt>
      <trkpt lat="48.75848" lon="7.34598">
        <ele>373.05</ele>
        <time>2020-05-21T20:24:39.000Z</time>
      </trkpt>
      <trkpt lat="48.75852" lon="7.34593">
        <ele>311.83</ele>
        <time>2020-05-21T20:24:41.000Z</time>
      </trkpt>
      <trkpt lat="48.75856" lon="7.34588">
        <ele>336.12</ele>
        <time>2020-05-21T20:24:43.000Z</time>
      </trkpt>
      <trkpt lat="48.75862" lon="7.34583">
        <ele>352.38</ele>
        <time>2020-05-21T20:24:46.000Z</time>
      </trkpt>
      <trkpt lat="48.75866" lon="7.34578">
        <ele>362.53</ele>
        <time>2020-05-21T20:24:49.000Z</time>
      </trkpt>
      <trkpt lat="48.7587" lon="7.34575">
        <ele>362.53</ele>
        <time>2020-05-21T20:24:51.000Z</time>
      </trkpt>
      <trkpt lat="48.75877" lon="7.34573">
        <ele>366.77</ele>
        <time>2020-05-21T20:24:53.000Z</time>
      </trkpt>
      <trkpt lat="48.75884" lon="7.34571">
        <ele>370.57</ele>
        <time>2020-05-21T20:24:55.000Z</time>
      </trkpt>
      <trkpt lat="48.75902" lon="7.34553">
        <ele>372.91</ele>
        <time>2020-05-21T20:24:59.000Z</time>
      </trkpt>
      <trkpt lat="48.75906" lon="7.34548">
        <ele>372.75</ele>
        <time>2020-05-21T20:25:00.000Z</time>
      </trkpt>
      <trkpt lat="48.75916" lon="7.34541">
        <ele>374.38</ele>
        <time>2020-05-21T20:25:02.000Z</time>
      </trkpt>
      <trkpt lat="48.75922" lon="7.34537">
        <ele>374.48</ele>
        <time>2020-05-21T20:25:07.000Z</time>
      </trkpt>
      <trkpt lat="48.75928" lon="7.3453">
        <ele>373.16</ele>
        <time>2020-05-21T20:25:10.000Z</time>
      </trkpt>
      <trkpt lat="48.75933" lon="7.34524">
        <ele>373.47</ele>
        <time>2020-05-21T20:25:12.000Z</time>
      </trkpt>
      <trkpt lat="48.75937" lon="7.3452">
        <ele>372.76</ele>
        <time>2020-05-21T20:25:14.000Z</time>
      </trkpt>
      <trkpt lat="48.75941" lon="7.34515">
        <ele>384.43</ele>
        <time>2020-05-21T20:26:45.000Z</time>
      </trkpt>
      <trkpt lat="48.75946" lon="7.34513">
        <ele>384.44</ele>
        <time>2020-05-21T20:26:47.000Z</time>
      </trkpt>
      <trkpt lat="48.75952" lon="7.34507">
        <ele>383.1</ele>
        <time>2020-05-21T20:26:49.000Z</time>
      </trkpt>
      <trkpt lat="48.75956" lon="7.34501">
        <ele>381.48</ele>
        <time>2020-05-21T20:26:51.000Z</time>
      </trkpt>
      <trkpt lat="48.75963" lon="7.34494">
        <ele>379.37</ele>
        <time>2020-05-21T20:26:53.000Z</time>
      </trkpt>
      <trkpt lat="48.75967" lon="7.3449">
        <ele>376.18</ele>
        <time>2020-05-21T20:26:55.000Z</time>
      </trkpt>
      <trkpt lat="48.76008" lon="7.34469">
        <ele>374.73</ele>
        <time>2020-05-21T20:27:03.000Z</time>
      </trkpt>
      <trkpt lat="48.76019" lon="7.34458">
        <ele>373.44</ele>
        <time>2020-05-21T20:27:06.000Z</time>
      </trkpt>
      <trkpt lat="48.76027" lon="7.34459">
        <ele>373.74</ele>
        <time>2020-05-21T20:27:09.000Z</time>
      </trkpt>
      <trkpt lat="48.76032" lon="7.3446">
        <ele>373.26</ele>
        <time>2020-05-21T20:27:10.000Z</time>
      </trkpt>
      <trkpt lat="48.76037" lon="7.34457">
        <ele>369.06</ele>
        <time>2020-05-21T20:27:12.000Z</time>
      </trkpt>
      <trkpt lat="48.76044" lon="7.34452">
        <ele>366.22</ele>
        <time>2020-05-21T20:27:14.000Z</time>
      </trkpt>
      <trkpt lat="48.76053" lon="7.3445">
        <ele>363.27</ele>
        <time>2020-05-21T20:27:16.000Z</time>
      </trkpt>
      <trkpt lat="48.76073" lon="7.34441">
        <ele>357.61</ele>
        <time>2020-05-21T20:27:20.000Z</time>
      </trkpt>
      <trkpt lat="48.76079" lon="7.3444">
        <ele>357.46</ele>
        <time>2020-05-21T20:27:21.000Z</time>
      </trkpt>
      <trkpt lat="48.76091" lon="7.34434">
        <ele>356.1</ele>
        <time>2020-05-21T20:27:23.000Z</time>
      </trkpt>
      <trkpt lat="48.76096" lon="7.34432">
        <ele>354.83</ele>
        <time>2020-05-21T20:27:24.000Z</time>
      </trkpt>
      <trkpt lat="48.761" lon="7.3443">
        <ele>354.46</ele>
        <time>2020-05-21T20:27:25.000Z</time>
      </trkpt>
      <trkpt lat="48.76114" lon="7.34425">
        <ele>351.49</ele>
        <time>2020-05-21T20:27:27.000Z</time>
      </trkpt>
      <trkpt lat="48.76119" lon="7.34414">
        <ele>349.19</ele>
        <time>2020-05-21T20:27:29.000Z</time>
      </trkpt>
      <trkpt lat="48.76121" lon="7.34406">
        <ele>347.22</ele>
        <time>2020-05-21T20:27:31.000Z</time>
      </trkpt>
      <trkpt lat="48.76145" lon="7.34389">
        <ele>346.91</ele>
        <time>2020-05-21T20:27:35.000Z</time>
      </trkpt>
      <trkpt lat="48.76153" lon="7.34379">
        <ele>345.3</ele>
        <time>2020-05-21T20:27:37.000Z</time>
      </trkpt>
      <trkpt lat="48.76156" lon="7.34368">
        <ele>342.93</ele>
        <time>2020-05-21T20:27:39.000Z</time>
      </trkpt>
      <trkpt lat="48.76162" lon="7.34362">
        <ele>341.51</ele>
        <time>2020-05-21T20:27:41.000Z</time>
      </trkpt>
      <trkpt lat="48.76166" lon="7.34358">
        <ele>340.16</ele>
        <time>2020-05-21T20:27:42.000Z</time>
      </trkpt>
      <trkpt lat="48.76166" lon="7.34345">
        <ele>337.53</ele>
        <time>2020-05-21T20:27:44.000Z</time>
      </trkpt>
    </trkseg>
  </trk>
  <trk>
    <name><![CDATA[secteur Saverne - Dabo - Petite Pierre_29]]></name>
    <trkseg>
      <trkpt lat="48.71855" lon="7.30401">
        <ele>273.7</ele>
        <time>2020-05-10T13:56:06Z</time>
      </trkpt>
      <trkpt lat="48.71855" lon="7.30401">
        <ele>273.7</ele>
        <time>2020-05-10T13:56:06Z</time>
      </trkpt>
      <trkpt lat="48.71855" lon="7.30401">
        <ele>273.7</ele>
        <time>2020-05-10T13:56:06Z</time>
      </trkpt>
      <trkpt lat="48.71855" lon="7.30401">
        <ele>273.7</ele>
        <time>2020-05-10T13:56:06Z</time>
      </trkpt>
      <trkpt lat="48.71855" lon="7.30401">
        <ele>273.7</ele>
        <time>2020-05-10T13:56:06Z</time>
      </trkpt>
      <trkpt lat="48.71855" lon="7.30401">
        <ele>273.7</ele>
        <time>2020-05-10T13:56:06Z</time>
      </trkpt>
      <trkpt lat="48.71855" lon="7.30401">
        <ele>273.7</ele>
        <time>2020-05-10T13:56:06Z</time>
      </trkpt>
      <trkpt lat="48.71855" lon="7.30396">
        <ele>273.8</ele>
        <time>2020-05-10T13:56:08Z</time>
      </trkpt>
      <trkpt lat="48.71854" lon="7.30394">
        <ele>273.8</ele>
        <time>2020-05-10T13:56:09Z</time>
      </trkpt>
      <trkpt lat="48.71853" lon="7.30393">
        <ele>273.9</ele>
        <time>2020-05-10T13:56:10Z</time>
      </trkpt>
      <trkpt lat="48.71848" lon="7.30391">
        <ele>274</ele>
        <time>2020-05-10T13:56:12Z</time>
      </trkpt>
      <trkpt lat="48.71842" lon="7.30394">
        <ele>273.8</ele>
        <time>2020-05-10T13:56:14Z</time>
      </trkpt>
      <trkpt lat="48.71836" lon="7.30402">
        <ele>273.7</ele>
        <time>2020-05-10T13:56:16Z</time>
      </trkpt>
      <trkpt lat="48.71832" lon="7.30408">
        <ele>273.5</ele>
        <time>2020-05-10T13:56:18Z</time>
      </trkpt>
      <trkpt lat="48.71831" lon="7.30413">
        <ele>273.5</ele>
        <time>2020-05-10T13:56:19Z</time>
      </trkpt>
      <trkpt lat="48.71829" lon="7.30419">
        <ele>273.4</ele>
        <time>2020-05-10T13:56:20Z</time>
      </trkpt>
      <trkpt lat="48.7183" lon="7.3043">
        <ele>273.3</ele>
        <time>2020-05-10T13:56:22Z</time>
      </trkpt>
      <trkpt lat="48.71831" lon="7.30435">
        <ele>273.2</ele>
        <time>2020-05-10T13:56:23Z</time>
      </trkpt>
      <trkpt lat="48.71832" lon="7.30446">
        <ele>273.1</ele>
        <time>2020-05-10T13:56:25Z</time>
      </trkpt>
      <trkpt lat="48.71833" lon="7.30451">
        <ele>279.6</ele>
        <time>2020-05-10T13:56:26Z</time>
      </trkpt>
      <trkpt lat="48.71835" lon="7.30462">
        <ele>284.9</ele>
        <time>2020-05-10T13:56:28Z</time>
      </trkpt>
      <trkpt lat="48.71835" lon="7.30472">
        <ele>291.4</ele>
        <time>2020-05-10T13:56:30Z</time>
      </trkpt>
      <trkpt lat="48.71835" lon="7.30477">
        <ele>291</ele>
        <time>2020-05-10T13:56:31Z</time>
      </trkpt>
      <trkpt lat="48.71838" lon="7.30488">
        <ele>290.1</ele>
        <time>2020-05-10T13:56:33Z</time>
      </trkpt>
      <trkpt lat="48.7184" lon="7.30498">
        <ele>289.4</ele>
        <time>2020-05-10T13:56:35Z</time>
      </trkpt>
      <trkpt lat="48.71841" lon="7.30503">
        <ele>289</ele>
        <time>2020-05-10T13:56:36Z</time>
      </trkpt>
      <trkpt lat="48.71842" lon="7.30513">
        <ele>288.3</ele>
        <time>2020-05-10T13:56:38Z</time>
      </trkpt>
      <trkpt lat="48.71843" lon="7.30523">
        <ele>287.5</ele>
        <time>2020-05-10T13:56:40Z</time>
      </trkpt>
      <trkpt lat="48.71844" lon="7.30532">
        <ele>286.8</ele>
        <time>2020-05-10T13:56:42Z</time>
      </trkpt>
      <trkpt lat="48.71845" lon="7.30541">
        <ele>286.2</ele>
        <time>2020-05-10T13:56:44Z</time>
      </trkpt>
      <trkpt lat="48.71846" lon="7.30545">
        <ele>285.8</ele>
        <time>2020-05-10T13:56:45Z</time>
      </trkpt>
      <trkpt lat="48.71846" lon="7.3055">
        <ele>285.5</ele>
        <time>2020-05-10T13:56:47Z</time>
      </trkpt>
      <trkpt lat="48.71847" lon="7.3055">
        <ele>285.5</ele>
        <time>2020-05-10T13:56:48Z</time>
      </trkpt>
      <trkpt lat="48.71846" lon="7.30549">
        <ele>285.4</ele>
        <time>2020-05-10T13:56:50Z</time>
      </trkpt>
      <trkpt lat="48.71846" lon="7.30547">
        <ele>285.2</ele>
        <time>2020-05-10T13:56:52Z</time>
      </trkpt>
      <trkpt lat="48.71846" lon="7.30547">
        <ele>285.2</ele>
        <time>2020-05-10T13:56:54Z</time>
      </trkpt>
      <trkpt lat="48.71846" lon="7.30547">
        <ele>285.2</ele>
        <time>2020-05-10T13:56:55Z</time>
      </trkpt>
      <trkpt lat="48.71846" lon="7.30548">
        <ele>285.1</ele>
        <time>2020-05-10T13:56:57Z</time>
      </trkpt>
      <trkpt lat="48.71845" lon="7.30548">
        <ele>285.1</ele>
        <time>2020-05-10T13:56:58Z</time>
      </trkpt>
      <trkpt lat="48.71845" lon="7.30548">
        <ele>285.1</ele>
        <time>2020-05-10T13:56:59Z</time>
      </trkpt>
      <trkpt lat="48.71845" lon="7.30549">
        <ele>285</ele>
        <time>2020-05-10T13:57:01Z</time>
      </trkpt>
      <trkpt lat="48.71845" lon="7.3055">
        <ele>284.9</ele>
        <time>2020-05-10T13:57:03Z</time>
      </trkpt>
      <trkpt lat="48.71845" lon="7.3055">
        <ele>284.9</ele>
        <time>2020-05-10T13:57:04Z</time>
      </trkpt>
      <trkpt lat="48.71845" lon="7.3055">
        <ele>284.9</ele>
        <time>2020-05-10T13:57:06Z</time>
      </trkpt>
      <trkpt lat="48.71845" lon="7.3055">
        <ele>284.9</ele>
        <time>2020-05-10T13:57:07Z</time>
      </trkpt>
      <trkpt lat="48.71845" lon="7.3055">
        <ele>284.9</ele>
        <time>2020-05-10T13:57:08Z</time>
      </trkpt>
      <trkpt lat="48.71845" lon="7.30549">
        <ele>284.8</ele>
        <time>2020-05-10T13:57:09Z</time>
      </trkpt>
      <trkpt lat="48.71846" lon="7.30549">
        <ele>284.8</ele>
        <time>2020-05-10T13:57:10Z</time>
      </trkpt>
      <trkpt lat="48.71846" lon="7.30549">
        <ele>284.8</ele>
        <time>2020-05-10T13:57:11Z</time>
      </trkpt>
      <trkpt lat="48.71845" lon="7.3055">
        <ele>284.7</ele>
        <time>2020-05-10T13:57:13Z</time>
      </trkpt>
      <trkpt lat="48.71845" lon="7.3055">
        <ele>284.6</ele>
        <time>2020-05-10T13:57:15Z</time>
      </trkpt>
      <trkpt lat="48.71845" lon="7.3055">
        <ele>284.6</ele>
        <time>2020-05-10T13:57:16Z</time>
      </trkpt>
      <trkpt lat="48.71845" lon="7.3055">
        <ele>284.6</ele>
        <time>2020-05-10T13:57:18Z</time>
      </trkpt>
      <trkpt lat="48.71845" lon="7.3055">
        <ele>284.6</ele>
        <time>2020-05-10T13:57:19Z</time>
      </trkpt>
      <trkpt lat="48.71845" lon="7.3055">
        <ele>284.6</ele>
        <time>2020-05-10T13:57:20Z</time>
      </trkpt>
      <trkpt lat="48.71843" lon="7.30554">
        <ele>284.3</ele>
        <time>2020-05-10T13:57:24Z</time>
      </trkpt>
      <trkpt lat="48.71842" lon="7.30559">
        <ele>284</ele>
        <time>2020-05-10T13:57:26Z</time>
      </trkpt>
      <trkpt lat="48.71843" lon="7.3057">
        <ele>283.2</ele>
        <time>2020-05-10T13:57:28Z</time>
      </trkpt>
      <trkpt lat="48.71844" lon="7.30576">
        <ele>282.8</ele>
        <time>2020-05-10T13:57:29Z</time>
      </trkpt>
      <trkpt lat="48.71845" lon="7.30589">
        <ele>281.9</ele>
        <time>2020-05-10T13:57:31Z</time>
      </trkpt>
      <trkpt lat="48.71846" lon="7.30595">
        <ele>281.4</ele>
        <time>2020-05-10T13:57:32Z</time>
      </trkpt>
      <trkpt lat="48.71846" lon="7.30601">
        <ele>281</ele>
        <time>2020-05-10T13:57:33Z</time>
      </trkpt>
      <trkpt lat="48.71847" lon="7.30613">
        <ele>280.1</ele>
        <time>2020-05-10T13:57:35Z</time>
      </trkpt>
      <trkpt lat="48.71848" lon="7.30625">
        <ele>279.2</ele>
        <time>2020-05-10T13:57:37Z</time>
      </trkpt>
      <trkpt lat="48.71848" lon="7.30636">
        <ele>278.3</ele>
        <time>2020-05-10T13:57:39Z</time>
      </trkpt>
      <trkpt lat="48.71848" lon="7.30647">
        <ele>277.3</ele>
        <time>2020-05-10T13:57:41Z</time>
      </trkpt>
      <trkpt lat="48.71847" lon="7.30659">
        <ele>278</ele>
        <time>2020-05-10T13:57:43Z</time>
      </trkpt>
      <trkpt lat="48.71846" lon="7.3067">
        <ele>278.6</ele>
        <time>2020-05-10T13:57:45Z</time>
      </trkpt>
      <trkpt lat="48.71846" lon="7.3068">
        <ele>279.2</ele>
        <time>2020-05-10T13:57:47Z</time>
      </trkpt>
      <trkpt lat="48.71845" lon="7.3069">
        <ele>279.8</ele>
        <time>2020-05-10T13:57:49Z</time>
      </trkpt>
      <trkpt lat="48.71844" lon="7.30701">
        <ele>280.4</ele>
        <time>2020-05-10T13:57:51Z</time>
      </trkpt>
      <trkpt lat="48.71843" lon="7.30712">
        <ele>281.1</ele>
        <time>2020-05-10T13:57:53Z</time>
      </trkpt>
      <trkpt lat="48.71842" lon="7.30723">
        <ele>281.6</ele>
        <time>2020-05-10T13:57:55Z</time>
      </trkpt>
      <trkpt lat="48.7184" lon="7.30733">
        <ele>282.1</ele>
        <time>2020-05-10T13:57:57Z</time>
      </trkpt>
      <trkpt lat="48.71838" lon="7.30738">
        <ele>282.4</ele>
        <time>2020-05-10T13:57:58Z</time>
      </trkpt>
      <trkpt lat="48.71836" lon="7.30744">
        <ele>282.7</ele>
        <time>2020-05-10T13:58:00Z</time>
      </trkpt>
      <trkpt lat="48.71833" lon="7.30756">
        <ele>283.3</ele>
        <time>2020-05-10T13:58:01Z</time>
      </trkpt>
      <trkpt lat="48.7183" lon="7.30761">
        <ele>283.6</ele>
        <time>2020-05-10T13:58:02Z</time>
      </trkpt>
      <trkpt lat="48.71827" lon="7.30771">
        <ele>284.1</ele>
        <time>2020-05-10T13:58:04Z</time>
      </trkpt>
      <trkpt lat="48.71823" lon="7.30781">
        <ele>284.6</ele>
        <time>2020-05-10T13:58:06Z</time>
      </trkpt>
      <trkpt lat="48.71818" lon="7.3079">
        <ele>285.1</ele>
        <time>2020-05-10T13:58:08Z</time>
      </trkpt>
      <trkpt lat="48.71816" lon="7.30795">
        <ele>285.3</ele>
        <time>2020-05-10T13:58:09Z</time>
      </trkpt>
      <trkpt lat="48.7181" lon="7.30803">
        <ele>286.9</ele>
        <time>2020-05-10T13:58:11Z</time>
      </trkpt>
      <trkpt lat="48.71804" lon="7.30811">
        <ele>288.5</ele>
        <time>2020-05-10T13:58:13Z</time>
      </trkpt>
      <trkpt lat="48.71802" lon="7.30816">
        <ele>289.4</ele>
        <time>2020-05-10T13:58:14Z</time>
      </trkpt>
      <trkpt lat="48.718" lon="7.30819">
        <ele>290.1</ele>
        <time>2020-05-10T13:58:15Z</time>
      </trkpt>
      <trkpt lat="48.71797" lon="7.30825">
        <ele>290.8</ele>
        <time>2020-05-10T13:58:17Z</time>
      </trkpt>
      <trkpt lat="48.71794" lon="7.30828">
        <ele>291.3</ele>
        <time>2020-05-10T13:58:18Z</time>
      </trkpt>
      <trkpt lat="48.71792" lon="7.30832">
        <ele>291.8</ele>
        <time>2020-05-10T13:58:19Z</time>
      </trkpt>
      <trkpt lat="48.71787" lon="7.30841">
        <ele>292.6</ele>
        <time>2020-05-10T13:58:21Z</time>
      </trkpt>
      <trkpt lat="48.71781" lon="7.30851">
        <ele>292.5</ele>
        <time>2020-05-10T13:58:23Z</time>
      </trkpt>
      <trkpt lat="48.71778" lon="7.30857">
        <ele>294.1</ele>
        <time>2020-05-10T13:58:24Z</time>
      </trkpt>
      <trkpt lat="48.71775" lon="7.30861">
        <ele>293.5</ele>
        <time>2020-05-10T13:58:25Z</time>
      </trkpt>
      <trkpt lat="48.71772" lon="7.3087">
        <ele>293.5</ele>
        <time>2020-05-10T13:58:27Z</time>
      </trkpt>
      <trkpt lat="48.71771" lon="7.3088">
        <ele>292.3</ele>
        <time>2020-05-10T13:58:29Z</time>
      </trkpt>
      <trkpt lat="48.71769" lon="7.30885">
        <ele>292.8</ele>
        <time>2020-05-10T13:58:30Z</time>
      </trkpt>
      <trkpt lat="48.71766" lon="7.30896">
        <ele>292.2</ele>
        <time>2020-05-10T13:58:32Z</time>
      </trkpt>
      <trkpt lat="48.71761" lon="7.30906">
        <ele>292.1</ele>
        <time>2020-05-10T13:58:34Z</time>
      </trkpt>
      <trkpt lat="48.7176" lon="7.30912">
        <ele>292.4</ele>
        <time>2020-05-10T13:58:35Z</time>
      </trkpt>
      <trkpt lat="48.71756" lon="7.30922">
        <ele>291.6</ele>
        <time>2020-05-10T13:58:37Z</time>
      </trkpt>
      <trkpt lat="48.71752" lon="7.30931">
        <ele>292.6</ele>
        <time>2020-05-10T13:58:39Z</time>
      </trkpt>
      <trkpt lat="48.71751" lon="7.30942">
        <ele>291.9</ele>
        <time>2020-05-10T13:58:41Z</time>
      </trkpt>
      <trkpt lat="48.7175" lon="7.30947">
        <ele>292.4</ele>
        <time>2020-05-10T13:58:42Z</time>
      </trkpt>
      <trkpt lat="48.71749" lon="7.30952">
        <ele>292.1</ele>
        <time>2020-05-10T13:58:43Z</time>
      </trkpt>
      <trkpt lat="48.71747" lon="7.30961">
        <ele>291.5</ele>
        <time>2020-05-10T13:58:45Z</time>
      </trkpt>
      <trkpt lat="48.71746" lon="7.30966">
        <ele>292.3</ele>
        <time>2020-05-10T13:58:46Z</time>
      </trkpt>
      <trkpt lat="48.71745" lon="7.30976">
        <ele>291.7</ele>
        <time>2020-05-10T13:58:48Z</time>
      </trkpt>
      <trkpt lat="48.71744" lon="7.3098">
        <ele>292.4</ele>
        <time>2020-05-10T13:58:49Z</time>
      </trkpt>
      <trkpt lat="48.71741" lon="7.30991">
        <ele>292.6</ele>
        <time>2020-05-10T13:58:51Z</time>
      </trkpt>
      <trkpt lat="48.71739" lon="7.30998">
        <ele>292.4</ele>
        <time>2020-05-10T13:58:52Z</time>
      </trkpt>
      <trkpt lat="48.71738" lon="7.31003">
        <ele>292.9</ele>
        <time>2020-05-10T13:58:53Z</time>
      </trkpt>
      <trkpt lat="48.71737" lon="7.31008">
        <ele>292.7</ele>
        <time>2020-05-10T13:58:54Z</time>
      </trkpt>
      <trkpt lat="48.71735" lon="7.31019">
        <ele>293</ele>
        <time>2020-05-10T13:58:56Z</time>
      </trkpt>
      <trkpt lat="48.71733" lon="7.31031">
        <ele>292.1</ele>
        <time>2020-05-10T13:58:58Z</time>
      </trkpt>
      <trkpt lat="48.71733" lon="7.31036">
        <ele>292.5</ele>
        <time>2020-05-10T13:58:59Z</time>
      </trkpt>
      <trkpt lat="48.71731" lon="7.31045">
        <ele>291.9</ele>
        <time>2020-05-10T13:59:01Z</time>
      </trkpt>
      <trkpt lat="48.71731" lon="7.31049">
        <ele>291.6</ele>
        <time>2020-05-10T13:59:02Z</time>
      </trkpt>
      <trkpt lat="48.7173" lon="7.31054">
        <ele>291.3</ele>
        <time>2020-05-10T13:59:03Z</time>
      </trkpt>
      <trkpt lat="48.71729" lon="7.31064">
        <ele>290.9</ele>
        <time>2020-05-10T13:59:05Z</time>
      </trkpt>
      <trkpt lat="48.71728" lon="7.31069">
        <ele>290.5</ele>
        <time>2020-05-10T13:59:06Z</time>
      </trkpt>
      <trkpt lat="48.71725" lon="7.31077">
        <ele>290.3</ele>
        <time>2020-05-10T13:59:08Z</time>
      </trkpt>
      <trkpt lat="48.71722" lon="7.31087">
        <ele>290</ele>
        <time>2020-05-10T13:59:10Z</time>
      </trkpt>
      <trkpt lat="48.71721" lon="7.31092">
        <ele>290.1</ele>
        <time>2020-05-10T13:59:11Z</time>
      </trkpt>
      <trkpt lat="48.71719" lon="7.31097">
        <ele>289.7</ele>
        <time>2020-05-10T13:59:12Z</time>
      </trkpt>
      <trkpt lat="48.71715" lon="7.31106">
        <ele>289.7</ele>
        <time>2020-05-10T13:59:14Z</time>
      </trkpt>
      <trkpt lat="48.71711" lon="7.31109">
        <ele>289.6</ele>
        <time>2020-05-10T13:59:15Z</time>
      </trkpt>
      <trkpt lat="48.71708" lon="7.31112">
        <ele>289.5</ele>
        <time>2020-05-10T13:59:16Z</time>
      </trkpt>
      <trkpt lat="48.71702" lon="7.31115">
        <ele>289.7</ele>
        <time>2020-05-10T13:59:18Z</time>
      </trkpt>
      <trkpt lat="48.71694" lon="7.31115">
        <ele>290.4</ele>
        <time>2020-05-10T13:59:20Z</time>
      </trkpt>
      <trkpt lat="48.7169" lon="7.31113">
        <ele>291.5</ele>
        <time>2020-05-10T13:59:22Z</time>
      </trkpt>
      <trkpt lat="48.71684" lon="7.31108">
        <ele>292.5</ele>
        <time>2020-05-10T13:59:23Z</time>
      </trkpt>
      <trkpt lat="48.7168" lon="7.31102">
        <ele>293.4</ele>
        <time>2020-05-10T13:59:25Z</time>
      </trkpt>
      <trkpt lat="48.71677" lon="7.31099">
        <ele>294.2</ele>
        <time>2020-05-10T13:59:26Z</time>
      </trkpt>
      <trkpt lat="48.71672" lon="7.31091">
        <ele>296.1</ele>
        <time>2020-05-10T13:59:28Z</time>
      </trkpt>
      <trkpt lat="48.71669" lon="7.31089">
        <ele>297.1</ele>
        <time>2020-05-10T13:59:29Z</time>
      </trkpt>
      <trkpt lat="48.71663" lon="7.31082">
        <ele>298.4</ele>
        <time>2020-05-10T13:59:31Z</time>
      </trkpt>
      <trkpt lat="48.71658" lon="7.31076">
        <ele>299.6</ele>
        <time>2020-05-10T13:59:33Z</time>
      </trkpt>
      <trkpt lat="48.71654" lon="7.31075">
        <ele>299.7</ele>
        <time>2020-05-10T13:59:34Z</time>
      </trkpt>
      <trkpt lat="48.71647" lon="7.31072">
        <ele>300</ele>
        <time>2020-05-10T13:59:36Z</time>
      </trkpt>
      <trkpt lat="48.71639" lon="7.31068">
        <ele>300.3</ele>
        <time>2020-05-10T13:59:38Z</time>
      </trkpt>
      <trkpt lat="48.71637" lon="7.31066">
        <ele>300.4</ele>
        <time>2020-05-10T13:59:39Z</time>
      </trkpt>
      <trkpt lat="48.71635" lon="7.31062">
        <ele>300.6</ele>
        <time>2020-05-10T13:59:40Z</time>
      </trkpt>
      <trkpt lat="48.71632" lon="7.31058">
        <ele>300.8</ele>
        <time>2020-05-10T13:59:41Z</time>
      </trkpt>
      <trkpt lat="48.71631" lon="7.31056">
        <ele>300.9</ele>
        <time>2020-05-10T13:59:42Z</time>
      </trkpt>
      <trkpt lat="48.71626" lon="7.31051">
        <ele>301.2</ele>
        <time>2020-05-10T13:59:44Z</time>
      </trkpt>
      <trkpt lat="48.71623" lon="7.31047">
        <ele>301.4</ele>
        <time>2020-05-10T13:59:45Z</time>
      </trkpt>
      <trkpt lat="48.71618" lon="7.31041">
        <ele>301.7</ele>
        <time>2020-05-10T13:59:47Z</time>
      </trkpt>
      <trkpt lat="48.71614" lon="7.31037">
        <ele>302</ele>
        <time>2020-05-10T13:59:49Z</time>
      </trkpt>
      <trkpt lat="48.71608" lon="7.31031">
        <ele>302.3</ele>
        <time>2020-05-10T13:59:51Z</time>
      </trkpt>
      <trkpt lat="48.71606" lon="7.31027">
        <ele>302.4</ele>
        <time>2020-05-10T13:59:52Z</time>
      </trkpt>
      <trkpt lat="48.71604" lon="7.31023">
        <ele>302.6</ele>
        <time>2020-05-10T13:59:53Z</time>
      </trkpt>
      <trkpt lat="48.716" lon="7.31015">
        <ele>303</ele>
        <time>2020-05-10T13:59:55Z</time>
      </trkpt>
      <trkpt lat="48.71595" lon="7.31009">
        <ele>303.3</ele>
        <time>2020-05-10T13:59:57Z</time>
      </trkpt>
      <trkpt lat="48.71591" lon="7.31006">
        <ele>303.5</ele>
        <time>2020-05-10T13:59:59Z</time>
      </trkpt>
      <trkpt lat="48.71587" lon="7.31001">
        <ele>303.8</ele>
        <time>2020-05-10T14:00:01Z</time>
      </trkpt>
      <trkpt lat="48.71584" lon="7.30999">
        <ele>304</ele>
        <time>2020-05-10T14:00:02Z</time>
      </trkpt>
      <trkpt lat="48.71578" lon="7.30996">
        <ele>304.3</ele>
        <time>2020-05-10T14:00:04Z</time>
      </trkpt>
      <trkpt lat="48.71572" lon="7.30992">
        <ele>304.6</ele>
        <time>2020-05-10T14:00:06Z</time>
      </trkpt>
      <trkpt lat="48.71568" lon="7.30989">
        <ele>304.8</ele>
        <time>2020-05-10T14:00:07Z</time>
      </trkpt>
      <trkpt lat="48.71565" lon="7.30986">
        <ele>305</ele>
        <time>2020-05-10T14:00:08Z</time>
      </trkpt>
      <trkpt lat="48.71559" lon="7.30982">
        <ele>305.3</ele>
        <time>2020-05-10T14:00:10Z</time>
      </trkpt>
      <trkpt lat="48.71556" lon="7.30979">
        <ele>305.4</ele>
        <time>2020-05-10T14:00:11Z</time>
      </trkpt>
      <trkpt lat="48.71553" lon="7.30976">
        <ele>305.6</ele>
        <time>2020-05-10T14:00:12Z</time>
      </trkpt>
      <trkpt lat="48.71546" lon="7.3097">
        <ele>305.9</ele>
        <time>2020-05-10T14:00:14Z</time>
      </trkpt>
      <trkpt lat="48.7154" lon="7.30966">
        <ele>306.2</ele>
        <time>2020-05-10T14:00:16Z</time>
      </trkpt>
      <trkpt lat="48.71534" lon="7.30963">
        <ele>306.5</ele>
        <time>2020-05-10T14:00:18Z</time>
      </trkpt>
      <trkpt lat="48.71532" lon="7.30961">
        <ele>306.6</ele>
        <time>2020-05-10T14:00:19Z</time>
      </trkpt>
      <trkpt lat="48.71525" lon="7.30955">
        <ele>306.9</ele>
        <time>2020-05-10T14:00:21Z</time>
      </trkpt>
      <trkpt lat="48.71522" lon="7.30952">
        <ele>307</ele>
        <time>2020-05-10T14:00:22Z</time>
      </trkpt>
      <trkpt lat="48.7152" lon="7.30948">
        <ele>307.2</ele>
        <time>2020-05-10T14:00:23Z</time>
      </trkpt>
      <trkpt lat="48.71518" lon="7.30947">
        <ele>307.2</ele>
        <time>2020-05-10T14:00:24Z</time>
      </trkpt>
      <trkpt lat="48.71513" lon="7.30939">
        <ele>307.5</ele>
        <time>2020-05-10T14:00:26Z</time>
      </trkpt>
      <trkpt lat="48.71507" lon="7.30933">
        <ele>307.8</ele>
        <time>2020-05-10T14:00:28Z</time>
      </trkpt>
      <trkpt lat="48.71503" lon="7.3093">
        <ele>307.9</ele>
        <time>2020-05-10T14:00:29Z</time>
      </trkpt>
      <trkpt lat="48.71498" lon="7.30925">
        <ele>308.2</ele>
        <time>2020-05-10T14:00:31Z</time>
      </trkpt>
      <trkpt lat="48.71496" lon="7.30922">
        <ele>308.3</ele>
        <time>2020-05-10T14:00:32Z</time>
      </trkpt>
      <trkpt lat="48.71491" lon="7.30917">
        <ele>308.7</ele>
        <time>2020-05-10T14:00:34Z</time>
      </trkpt>
      <trkpt lat="48.71488" lon="7.30914">
        <ele>308.9</ele>
        <time>2020-05-10T14:00:35Z</time>
      </trkpt>
      <trkpt lat="48.71487" lon="7.30912">
        <ele>309</ele>
        <time>2020-05-10T14:00:36Z</time>
      </trkpt>
      <trkpt lat="48.71482" lon="7.30906">
        <ele>309.3</ele>
        <time>2020-05-10T14:00:38Z</time>
      </trkpt>
      <trkpt lat="48.71479" lon="7.30904">
        <ele>309.5</ele>
        <time>2020-05-10T14:00:39Z</time>
      </trkpt>
      <trkpt lat="48.71475" lon="7.30899">
        <ele>309.7</ele>
        <time>2020-05-10T14:00:41Z</time>
      </trkpt>
      <trkpt lat="48.71473" lon="7.30895">
        <ele>309.9</ele>
        <time>2020-05-10T14:00:42Z</time>
      </trkpt>
      <trkpt lat="48.71468" lon="7.3089">
        <ele>310.1</ele>
        <time>2020-05-10T14:00:44Z</time>
      </trkpt>
      <trkpt lat="48.71464" lon="7.30887">
        <ele>310.3</ele>
        <time>2020-05-10T14:00:45Z</time>
      </trkpt>
      <trkpt lat="48.71461" lon="7.30885">
        <ele>310.4</ele>
        <time>2020-05-10T14:00:46Z</time>
      </trkpt>
      <trkpt lat="48.71455" lon="7.30878">
        <ele>310.8</ele>
        <time>2020-05-10T14:00:48Z</time>
      </trkpt>
      <trkpt lat="48.71449" lon="7.30873">
        <ele>311.1</ele>
        <time>2020-05-10T14:00:50Z</time>
      </trkpt>
      <trkpt lat="48.71446" lon="7.30869">
        <ele>311.3</ele>
        <time>2020-05-10T14:00:51Z</time>
      </trkpt>
      <trkpt lat="48.71443" lon="7.30866">
        <ele>311.4</ele>
        <time>2020-05-10T14:00:52Z</time>
      </trkpt>
      <trkpt lat="48.71438" lon="7.30861">
        <ele>311.7</ele>
        <time>2020-05-10T14:00:54Z</time>
      </trkpt>
      <trkpt lat="48.71432" lon="7.30854">
        <ele>312.1</ele>
        <time>2020-05-10T14:00:56Z</time>
      </trkpt>
      <trkpt lat="48.71429" lon="7.30851">
        <ele>312.2</ele>
        <time>2020-05-10T14:00:57Z</time>
      </trkpt>
      <trkpt lat="48.71423" lon="7.30843">
        <ele>312.5</ele>
        <time>2020-05-10T14:00:59Z</time>
      </trkpt>
      <trkpt lat="48.71419" lon="7.30836">
        <ele>312.7</ele>
        <time>2020-05-10T14:01:01Z</time>
      </trkpt>
      <trkpt lat="48.71415" lon="7.3083">
        <ele>312.9</ele>
        <time>2020-05-10T14:01:03Z</time>
      </trkpt>
      <trkpt lat="48.7141" lon="7.30824">
        <ele>313.2</ele>
        <time>2020-05-10T14:01:04Z</time>
      </trkpt>
      <trkpt lat="48.71405" lon="7.30817">
        <ele>313.5</ele>
        <time>2020-05-10T14:01:06Z</time>
      </trkpt>
      <trkpt lat="48.71403" lon="7.30814">
        <ele>313.7</ele>
        <time>2020-05-10T14:01:07Z</time>
      </trkpt>
      <trkpt lat="48.71396" lon="7.30808">
        <ele>314.1</ele>
        <time>2020-05-10T14:01:09Z</time>
      </trkpt>
      <trkpt lat="48.71391" lon="7.30802">
        <ele>314.3</ele>
        <time>2020-05-10T14:01:11Z</time>
      </trkpt>
      <trkpt lat="48.71385" lon="7.30795">
        <ele>314.7</ele>
        <time>2020-05-10T14:01:13Z</time>
      </trkpt>
      <trkpt lat="48.71382" lon="7.30791">
        <ele>314.8</ele>
        <time>2020-05-10T14:01:14Z</time>
      </trkpt>
      <trkpt lat="48.7138" lon="7.30787">
        <ele>315</ele>
        <time>2020-05-10T14:01:15Z</time>
      </trkpt>
      <trkpt lat="48.71379" lon="7.30784">
        <ele>315.1</ele>
        <time>2020-05-10T14:01:16Z</time>
      </trkpt>
      <trkpt lat="48.71372" lon="7.30778">
        <ele>315.3</ele>
        <time>2020-05-10T14:01:18Z</time>
      </trkpt>
      <trkpt lat="48.71369" lon="7.30775">
        <ele>315.5</ele>
        <time>2020-05-10T14:01:19Z</time>
      </trkpt>
      <trkpt lat="48.71363" lon="7.30768">
        <ele>315.8</ele>
        <time>2020-05-10T14:01:21Z</time>
      </trkpt>
      <trkpt lat="48.71357" lon="7.3076">
        <ele>316.1</ele>
        <time>2020-05-10T14:01:23Z</time>
      </trkpt>
      <trkpt lat="48.71352" lon="7.30753">
        <ele>316.5</ele>
        <time>2020-05-10T14:01:25Z</time>
      </trkpt>
      <trkpt lat="48.71349" lon="7.30751">
        <ele>316.7</ele>
        <time>2020-05-10T14:01:26Z</time>
      </trkpt>
      <trkpt lat="48.71342" lon="7.30744">
        <ele>317.1</ele>
        <time>2020-05-10T14:01:28Z</time>
      </trkpt>
      <trkpt lat="48.71337" lon="7.30739">
        <ele>317.4</ele>
        <time>2020-05-10T14:01:30Z</time>
      </trkpt>
      <trkpt lat="48.71331" lon="7.30731">
        <ele>317.8</ele>
        <time>2020-05-10T14:01:32Z</time>
      </trkpt>
      <trkpt lat="48.71325" lon="7.30723">
        <ele>318.3</ele>
        <time>2020-05-10T14:01:34Z</time>
      </trkpt>
      <trkpt lat="48.71322" lon="7.30719">
        <ele>318.5</ele>
        <time>2020-05-10T14:01:35Z</time>
      </trkpt>
      <trkpt lat="48.71319" lon="7.30715">
        <ele>318.7</ele>
        <time>2020-05-10T14:01:36Z</time>
      </trkpt>
      <trkpt lat="48.71316" lon="7.30712">
        <ele>318.9</ele>
        <time>2020-05-10T14:01:37Z</time>
      </trkpt>
      <trkpt lat="48.7131" lon="7.30705">
        <ele>319.3</ele>
        <time>2020-05-10T14:01:39Z</time>
      </trkpt>
      <trkpt lat="48.71308" lon="7.30701">
        <ele>319.5</ele>
        <time>2020-05-10T14:01:40Z</time>
      </trkpt>
      <trkpt lat="48.71304" lon="7.30697">
        <ele>319.7</ele>
        <time>2020-05-10T14:01:41Z</time>
      </trkpt>
      <trkpt lat="48.71298" lon="7.30691">
        <ele>320</ele>
        <time>2020-05-10T14:01:43Z</time>
      </trkpt>
      <trkpt lat="48.71295" lon="7.30689">
        <ele>320.2</ele>
        <time>2020-05-10T14:01:44Z</time>
      </trkpt>
      <trkpt lat="48.71289" lon="7.30684">
        <ele>320.5</ele>
        <time>2020-05-10T14:01:46Z</time>
      </trkpt>
      <trkpt lat="48.71283" lon="7.30679">
        <ele>320.9</ele>
        <time>2020-05-10T14:01:48Z</time>
      </trkpt>
      <trkpt lat="48.71276" lon="7.30675">
        <ele>321.4</ele>
        <time>2020-05-10T14:01:50Z</time>
      </trkpt>
      <trkpt lat="48.71273" lon="7.30673">
        <ele>321.6</ele>
        <time>2020-05-10T14:01:51Z</time>
      </trkpt>
      <trkpt lat="48.7127" lon="7.3067">
        <ele>321.8</ele>
        <time>2020-05-10T14:01:52Z</time>
      </trkpt>
      <trkpt lat="48.71263" lon="7.30666">
        <ele>322.3</ele>
        <time>2020-05-10T14:01:54Z</time>
      </trkpt>
      <trkpt lat="48.7126" lon="7.30663">
        <ele>322.5</ele>
        <time>2020-05-10T14:01:55Z</time>
      </trkpt>
      <trkpt lat="48.71254" lon="7.30655">
        <ele>322.8</ele>
        <time>2020-05-10T14:01:57Z</time>
      </trkpt>
      <trkpt lat="48.7125" lon="7.30649">
        <ele>323</ele>
        <time>2020-05-10T14:01:59Z</time>
      </trkpt>
      <trkpt lat="48.71248" lon="7.30645">
        <ele>323.1</ele>
        <time>2020-05-10T14:02:00Z</time>
      </trkpt>
      <trkpt lat="48.71245" lon="7.30637">
        <ele>323.4</ele>
        <time>2020-05-10T14:02:02Z</time>
      </trkpt>
      <trkpt lat="48.71243" lon="7.30633">
        <ele>323.5</ele>
        <time>2020-05-10T14:02:03Z</time>
      </trkpt>
      <trkpt lat="48.7124" lon="7.30623">
        <ele>323.9</ele>
        <time>2020-05-10T14:02:05Z</time>
      </trkpt>
      <trkpt lat="48.71237" lon="7.30616">
        <ele>324.1</ele>
        <time>2020-05-10T14:02:07Z</time>
      </trkpt>
      <trkpt lat="48.71233" lon="7.30607">
        <ele>324.4</ele>
        <time>2020-05-10T14:02:09Z</time>
      </trkpt>
      <trkpt lat="48.71228" lon="7.30599">
        <ele>324.7</ele>
        <time>2020-05-10T14:02:11Z</time>
      </trkpt>
      <trkpt lat="48.71226" lon="7.30595">
        <ele>324.9</ele>
        <time>2020-05-10T14:02:12Z</time>
      </trkpt>
      <trkpt lat="48.71223" lon="7.3059">
        <ele>325</ele>
        <time>2020-05-10T14:02:13Z</time>
      </trkpt>
      <trkpt lat="48.71219" lon="7.30583">
        <ele>325.3</ele>
        <time>2020-05-10T14:02:15Z</time>
      </trkpt>
      <trkpt lat="48.71215" lon="7.30575">
        <ele>325.5</ele>
        <time>2020-05-10T14:02:17Z</time>
      </trkpt>
      <trkpt lat="48.71214" lon="7.30571">
        <ele>325.7</ele>
        <time>2020-05-10T14:02:18Z</time>
      </trkpt>
      <trkpt lat="48.71212" lon="7.30561">
        <ele>326</ele>
        <time>2020-05-10T14:02:20Z</time>
      </trkpt>
      <trkpt lat="48.71211" lon="7.30558">
        <ele>326.1</ele>
        <time>2020-05-10T14:02:21Z</time>
      </trkpt>
      <trkpt lat="48.71211" lon="7.30557">
        <ele>326.1</ele>
        <time>2020-05-10T14:02:23Z</time>
      </trkpt>
      <trkpt lat="48.7121" lon="7.30558">
        <ele>326.2</ele>
        <time>2020-05-10T14:02:25Z</time>
      </trkpt>
      <trkpt lat="48.71209" lon="7.30559">
        <ele>326.2</ele>
        <time>2020-05-10T14:02:29Z</time>
      </trkpt>
      <trkpt lat="48.71209" lon="7.30559">
        <ele>326.2</ele>
        <time>2020-05-10T14:02:30Z</time>
      </trkpt>
      <trkpt lat="48.71208" lon="7.3056">
        <ele>326.3</ele>
        <time>2020-05-10T14:02:31Z</time>
      </trkpt>
      <trkpt lat="48.71208" lon="7.3056">
        <ele>326.3</ele>
        <time>2020-05-10T14:02:33Z</time>
      </trkpt>
      <trkpt lat="48.71208" lon="7.3056">
        <ele>326.3</ele>
        <time>2020-05-10T14:02:34Z</time>
      </trkpt>
      <trkpt lat="48.71208" lon="7.3056">
        <ele>326.3</ele>
        <time>2020-05-10T14:02:35Z</time>
      </trkpt>
      <trkpt lat="48.71208" lon="7.30559">
        <ele>326.3</ele>
        <time>2020-05-10T14:02:37Z</time>
      </trkpt>
      <trkpt lat="48.71208" lon="7.30559">
        <ele>326.4</ele>
        <time>2020-05-10T14:02:38Z</time>
      </trkpt>
      <trkpt lat="48.71208" lon="7.30558">
        <ele>326.4</ele>
        <time>2020-05-10T14:02:40Z</time>
      </trkpt>
      <trkpt lat="48.71208" lon="7.30558">
        <ele>326.4</ele>
        <time>2020-05-10T14:02:42Z</time>
      </trkpt>
      <trkpt lat="48.71208" lon="7.30558">
        <ele>326.4</ele>
        <time>2020-05-10T14:02:44Z</time>
      </trkpt>
      <trkpt lat="48.71208" lon="7.30554">
        <ele>326.5</ele>
        <time>2020-05-10T14:02:55Z</time>
      </trkpt>
      <trkpt lat="48.71207" lon="7.30543">
        <ele>326.8</ele>
        <time>2020-05-10T14:02:57Z</time>
      </trkpt>
      <trkpt lat="48.71206" lon="7.30537">
        <ele>327</ele>
        <time>2020-05-10T14:02:58Z</time>
      </trkpt>
      <trkpt lat="48.71205" lon="7.3053">
        <ele>327.2</ele>
        <time>2020-05-10T14:03:00Z</time>
      </trkpt>
      <trkpt lat="48.71204" lon="7.30526">
        <ele>327.3</ele>
        <time>2020-05-10T14:03:01Z</time>
      </trkpt>
      <trkpt lat="48.71198" lon="7.30515">
        <ele>327.7</ele>
        <time>2020-05-10T14:03:03Z</time>
      </trkpt>
      <trkpt lat="48.71194" lon="7.30507">
        <ele>328</ele>
        <time>2020-05-10T14:03:05Z</time>
      </trkpt>
      <trkpt lat="48.71191" lon="7.30495">
        <ele>328.4</ele>
        <time>2020-05-10T14:03:07Z</time>
      </trkpt>
      <trkpt lat="48.71187" lon="7.30484">
        <ele>328.8</ele>
        <time>2020-05-10T14:03:09Z</time>
      </trkpt>
      <trkpt lat="48.71185" lon="7.30479">
        <ele>328.9</ele>
        <time>2020-05-10T14:03:10Z</time>
      </trkpt>
      <trkpt lat="48.71185" lon="7.30473">
        <ele>329.1</ele>
        <time>2020-05-10T14:03:11Z</time>
      </trkpt>
      <trkpt lat="48.71183" lon="7.30461">
        <ele>329.4</ele>
        <time>2020-05-10T14:03:13Z</time>
      </trkpt>
      <trkpt lat="48.71182" lon="7.30452">
        <ele>329.6</ele>
        <time>2020-05-10T14:03:15Z</time>
      </trkpt>
      <trkpt lat="48.71181" lon="7.30449">
        <ele>329.7</ele>
        <time>2020-05-10T14:03:16Z</time>
      </trkpt>
      <trkpt lat="48.71179" lon="7.30441">
        <ele>330</ele>
        <time>2020-05-10T14:03:18Z</time>
      </trkpt>
      <trkpt lat="48.71179" lon="7.30436">
        <ele>330.1</ele>
        <time>2020-05-10T14:03:19Z</time>
      </trkpt>
      <trkpt lat="48.71178" lon="7.30428">
        <ele>330.4</ele>
        <time>2020-05-10T14:03:21Z</time>
      </trkpt>
      <trkpt lat="48.71178" lon="7.30422">
        <ele>330.6</ele>
        <time>2020-05-10T14:03:22Z</time>
      </trkpt>
      <trkpt lat="48.71178" lon="7.30412">
        <ele>331</ele>
        <time>2020-05-10T14:03:24Z</time>
      </trkpt>
      <trkpt lat="48.71177" lon="7.30398">
        <ele>331.3</ele>
        <time>2020-05-10T14:03:26Z</time>
      </trkpt>
      <trkpt lat="48.71177" lon="7.30392">
        <ele>331.5</ele>
        <time>2020-05-10T14:03:27Z</time>
      </trkpt>
      <trkpt lat="48.71178" lon="7.3038">
        <ele>331.8</ele>
        <time>2020-05-10T14:03:29Z</time>
      </trkpt>
      <trkpt lat="48.71178" lon="7.30372">
        <ele>332</ele>
        <time>2020-05-10T14:03:31Z</time>
      </trkpt>
      <trkpt lat="48.71178" lon="7.30361">
        <ele>332.2</ele>
        <time>2020-05-10T14:03:32Z</time>
      </trkpt>
      <trkpt lat="48.71178" lon="7.30356">
        <ele>332.3</ele>
        <time>2020-05-10T14:03:33Z</time>
      </trkpt>
      <trkpt lat="48.71175" lon="7.30349">
        <ele>332.6</ele>
        <time>2020-05-10T14:03:35Z</time>
      </trkpt>
      <trkpt lat="48.71174" lon="7.30344">
        <ele>332.7</ele>
        <time>2020-05-10T14:03:36Z</time>
      </trkpt>
      <trkpt lat="48.71175" lon="7.30338">
        <ele>332.9</ele>
        <time>2020-05-10T14:03:37Z</time>
      </trkpt>
      <trkpt lat="48.71174" lon="7.30326">
        <ele>333.3</ele>
        <time>2020-05-10T14:03:39Z</time>
      </trkpt>
      <trkpt lat="48.71175" lon="7.30314">
        <ele>333.6</ele>
        <time>2020-05-10T14:03:41Z</time>
      </trkpt>
      <trkpt lat="48.71175" lon="7.30306">
        <ele>333.8</ele>
        <time>2020-05-10T14:03:43Z</time>
      </trkpt>
      <trkpt lat="48.71175" lon="7.30297">
        <ele>334</ele>
        <time>2020-05-10T14:03:45Z</time>
      </trkpt>
      <trkpt lat="48.71176" lon="7.30289">
        <ele>334.1</ele>
        <time>2020-05-10T14:03:47Z</time>
      </trkpt>
      <trkpt lat="48.71177" lon="7.30286">
        <ele>334.2</ele>
        <time>2020-05-10T14:03:48Z</time>
      </trkpt>
      <trkpt lat="48.71179" lon="7.30277">
        <ele>334.2</ele>
        <time>2020-05-10T14:03:50Z</time>
      </trkpt>
      <trkpt lat="48.71179" lon="7.30272">
        <ele>334.3</ele>
        <time>2020-05-10T14:03:51Z</time>
      </trkpt>
      <trkpt lat="48.71178" lon="7.30264">
        <ele>334.3</ele>
        <time>2020-05-10T14:03:53Z</time>
      </trkpt>
      <trkpt lat="48.71177" lon="7.30262">
        <ele>334.3</ele>
        <time>2020-05-10T14:03:54Z</time>
      </trkpt>
      <trkpt lat="48.71175" lon="7.3026">
        <ele>334.3</ele>
        <time>2020-05-10T14:03:56Z</time>
      </trkpt>
      <trkpt lat="48.71174" lon="7.30259">
        <ele>334.4</ele>
        <time>2020-05-10T14:03:58Z</time>
      </trkpt>
      <trkpt lat="48.71173" lon="7.30259">
        <ele>334.4</ele>
        <time>2020-05-10T14:03:59Z</time>
      </trkpt>
      <trkpt lat="48.71173" lon="7.30258">
        <ele>334.4</ele>
        <time>2020-05-10T14:04:01Z</time>
      </trkpt>
      <trkpt lat="48.71173" lon="7.30256">
        <ele>334.4</ele>
        <time>2020-05-10T14:04:03Z</time>
      </trkpt>
      <trkpt lat="48.71174" lon="7.30254">
        <ele>334.4</ele>
        <time>2020-05-10T14:04:04Z</time>
      </trkpt>
      <trkpt lat="48.71177" lon="7.3025">
        <ele>334.4</ele>
        <time>2020-05-10T14:04:06Z</time>
      </trkpt>
      <trkpt lat="48.71177" lon="7.30246">
        <ele>334.5</ele>
        <time>2020-05-10T14:04:08Z</time>
      </trkpt>
      <trkpt lat="48.71177" lon="7.30244">
        <ele>334.5</ele>
        <time>2020-05-10T14:04:09Z</time>
      </trkpt>
      <trkpt lat="48.71176" lon="7.30242">
        <ele>334.5</ele>
        <time>2020-05-10T14:04:11Z</time>
      </trkpt>
      <trkpt lat="48.71175" lon="7.30242">
        <ele>334.5</ele>
        <time>2020-05-10T14:04:13Z</time>
      </trkpt>
      <trkpt lat="48.71175" lon="7.30242">
        <ele>334.5</ele>
        <time>2020-05-10T14:04:15Z</time>
      </trkpt>
      <trkpt lat="48.71175" lon="7.30242">
        <ele>334.5</ele>
        <time>2020-05-10T14:04:16Z</time>
      </trkpt>
      <trkpt lat="48.71175" lon="7.30243">
        <ele>334.5</ele>
        <time>2020-05-10T14:04:17Z</time>
      </trkpt>
      <trkpt lat="48.71175" lon="7.30242">
        <ele>334.5</ele>
        <time>2020-05-10T14:04:19Z</time>
      </trkpt>
      <trkpt lat="48.71175" lon="7.30242">
        <ele>334.5</ele>
        <time>2020-05-10T14:04:20Z</time>
      </trkpt>
      <trkpt lat="48.71175" lon="7.30242">
        <ele>334.5</ele>
        <time>2020-05-10T14:04:21Z</time>
      </trkpt>
      <trkpt lat="48.71176" lon="7.3024">
        <ele>334.5</ele>
        <time>2020-05-10T14:04:23Z</time>
      </trkpt>
      <trkpt lat="48.71177" lon="7.30238">
        <ele>334.5</ele>
        <time>2020-05-10T14:04:24Z</time>
      </trkpt>
      <trkpt lat="48.71178" lon="7.30234">
        <ele>334.6</ele>
        <time>2020-05-10T14:04:26Z</time>
      </trkpt>
      <trkpt lat="48.71179" lon="7.30233">
        <ele>334.6</ele>
        <time>2020-05-10T14:04:27Z</time>
      </trkpt>
      <trkpt lat="48.7118" lon="7.30229">
        <ele>334.6</ele>
        <time>2020-05-10T14:04:29Z</time>
      </trkpt>
      <trkpt lat="48.7118" lon="7.30227">
        <ele>334.6</ele>
        <time>2020-05-10T14:04:30Z</time>
      </trkpt>
      <trkpt lat="48.7118" lon="7.30223">
        <ele>334.6</ele>
        <time>2020-05-10T14:04:32Z</time>
      </trkpt>
      <trkpt lat="48.71179" lon="7.30221">
        <ele>334.6</ele>
        <time>2020-05-10T14:04:33Z</time>
      </trkpt>
      <trkpt lat="48.71178" lon="7.30219">
        <ele>334.6</ele>
        <time>2020-05-10T14:04:34Z</time>
      </trkpt>
      <trkpt lat="48.71178" lon="7.30216">
        <ele>334.6</ele>
        <time>2020-05-10T14:04:35Z</time>
      </trkpt>
      <trkpt lat="48.71178" lon="7.30213">
        <ele>334.6</ele>
        <time>2020-05-10T14:04:37Z</time>
      </trkpt>
      <trkpt lat="48.71179" lon="7.30211">
        <ele>334.6</ele>
        <time>2020-05-10T14:04:38Z</time>
      </trkpt>
      <trkpt lat="48.7118" lon="7.30205">
        <ele>334.6</ele>
        <time>2020-05-10T14:04:40Z</time>
      </trkpt>
      <trkpt lat="48.7118" lon="7.30202">
        <ele>334.6</ele>
        <time>2020-05-10T14:04:41Z</time>
      </trkpt>
      <trkpt lat="48.7118" lon="7.30198">
        <ele>334.6</ele>
        <time>2020-05-10T14:04:43Z</time>
      </trkpt>
      <trkpt lat="48.71181" lon="7.30196">
        <ele>334.6</ele>
        <time>2020-05-10T14:04:44Z</time>
      </trkpt>
      <trkpt lat="48.71181" lon="7.30194">
        <ele>334.6</ele>
        <time>2020-05-10T14:04:46Z</time>
      </trkpt>
      <trkpt lat="48.71181" lon="7.30192">
        <ele>334.6</ele>
        <time>2020-05-10T14:04:47Z</time>
      </trkpt>
      <trkpt lat="48.71182" lon="7.30188">
        <ele>334.6</ele>
        <time>2020-05-10T14:04:49Z</time>
      </trkpt>
      <trkpt lat="48.71182" lon="7.30183">
        <ele>334.7</ele>
        <time>2020-05-10T14:04:51Z</time>
      </trkpt>
      <trkpt lat="48.71182" lon="7.30181">
        <ele>334.7</ele>
        <time>2020-05-10T14:04:53Z</time>
      </trkpt>
      <trkpt lat="48.71183" lon="7.30177">
        <ele>334.7</ele>
        <time>2020-05-10T14:04:55Z</time>
      </trkpt>
      <trkpt lat="48.71184" lon="7.30175">
        <ele>334.7</ele>
        <time>2020-05-10T14:04:57Z</time>
      </trkpt>
      <trkpt lat="48.71184" lon="7.30173">
        <ele>334.7</ele>
        <time>2020-05-10T14:04:58Z</time>
      </trkpt>
      <trkpt lat="48.71185" lon="7.30169">
        <ele>334.7</ele>
        <time>2020-05-10T14:05:00Z</time>
      </trkpt>
      <trkpt lat="48.71186" lon="7.30168">
        <ele>334.7</ele>
        <time>2020-05-10T14:05:01Z</time>
      </trkpt>
      <trkpt lat="48.71187" lon="7.30163">
        <ele>334.7</ele>
        <time>2020-05-10T14:05:03Z</time>
      </trkpt>
      <trkpt lat="48.71188" lon="7.30159">
        <ele>334.7</ele>
        <time>2020-05-10T14:05:05Z</time>
      </trkpt>
      <trkpt lat="48.71189" lon="7.30154">
        <ele>334.8</ele>
        <time>2020-05-10T14:05:07Z</time>
      </trkpt>
      <trkpt lat="48.7119" lon="7.30148">
        <ele>334.8</ele>
        <time>2020-05-10T14:05:09Z</time>
      </trkpt>
      <trkpt lat="48.71191" lon="7.30143">
        <ele>334.8</ele>
        <time>2020-05-10T14:05:11Z</time>
      </trkpt>
      <trkpt lat="48.71191" lon="7.30141">
        <ele>334.8</ele>
        <time>2020-05-10T14:05:12Z</time>
      </trkpt>
      <trkpt lat="48.71191" lon="7.30138">
        <ele>334.9</ele>
        <time>2020-05-10T14:05:13Z</time>
      </trkpt>
      <trkpt lat="48.71193" lon="7.30135">
        <ele>334.9</ele>
        <time>2020-05-10T14:05:15Z</time>
      </trkpt>
      <trkpt lat="48.71193" lon="7.30133">
        <ele>335</ele>
        <time>2020-05-10T14:05:16Z</time>
      </trkpt>
      <trkpt lat="48.71194" lon="7.30129">
        <ele>335</ele>
        <time>2020-05-10T14:05:18Z</time>
      </trkpt>
      <trkpt lat="48.71193" lon="7.30126">
        <ele>335.1</ele>
        <time>2020-05-10T14:05:20Z</time>
      </trkpt>
      <trkpt lat="48.71193" lon="7.30124">
        <ele>335.2</ele>
        <time>2020-05-10T14:05:21Z</time>
      </trkpt>
      <trkpt lat="48.71191" lon="7.30119">
        <ele>335.3</ele>
        <time>2020-05-10T14:05:23Z</time>
      </trkpt>
      <trkpt lat="48.7119" lon="7.30114">
        <ele>335.5</ele>
        <time>2020-05-10T14:05:25Z</time>
      </trkpt>
      <trkpt lat="48.7119" lon="7.30109">
        <ele>335.6</ele>
        <time>2020-05-10T14:05:27Z</time>
      </trkpt>
      <trkpt lat="48.7119" lon="7.30108">
        <ele>335.7</ele>
        <time>2020-05-10T14:05:28Z</time>
      </trkpt>
      <trkpt lat="48.7119" lon="7.30107">
        <ele>335.7</ele>
        <time>2020-05-10T14:05:29Z</time>
      </trkpt>
      <trkpt lat="48.7119" lon="7.30103">
        <ele>335.9</ele>
        <time>2020-05-10T14:05:31Z</time>
      </trkpt>
      <trkpt lat="48.71189" lon="7.30102">
        <ele>335.9</ele>
        <time>2020-05-10T14:05:32Z</time>
      </trkpt>
      <trkpt lat="48.71189" lon="7.301">
        <ele>336</ele>
        <time>2020-05-10T14:05:33Z</time>
      </trkpt>
      <trkpt lat="48.71188" lon="7.30095">
        <ele>336.2</ele>
        <time>2020-05-10T14:05:35Z</time>
      </trkpt>
      <trkpt lat="48.71188" lon="7.30092">
        <ele>336.3</ele>
        <time>2020-05-10T14:05:37Z</time>
      </trkpt>
      <trkpt lat="48.71188" lon="7.30091">
        <ele>336.3</ele>
        <time>2020-05-10T14:05:38Z</time>
      </trkpt>
      <trkpt lat="48.71189" lon="7.3009">
        <ele>336.3</ele>
        <time>2020-05-10T14:05:39Z</time>
      </trkpt>
      <trkpt lat="48.71189" lon="7.30086">
        <ele>336.4</ele>
        <time>2020-05-10T14:05:41Z</time>
      </trkpt>
      <trkpt lat="48.7119" lon="7.30083">
        <ele>336.5</ele>
        <time>2020-05-10T14:05:42Z</time>
      </trkpt>
      <trkpt lat="48.7119" lon="7.3008">
        <ele>336.6</ele>
        <time>2020-05-10T14:05:44Z</time>
      </trkpt>
      <trkpt lat="48.71191" lon="7.30077">
        <ele>336.6</ele>
        <time>2020-05-10T14:05:46Z</time>
      </trkpt>
      <trkpt lat="48.71191" lon="7.30075">
        <ele>336.7</ele>
        <time>2020-05-10T14:05:47Z</time>
      </trkpt>
      <trkpt lat="48.71191" lon="7.30071">
        <ele>336.7</ele>
        <time>2020-05-10T14:05:49Z</time>
      </trkpt>
      <trkpt lat="48.71191" lon="7.3007">
        <ele>336.7</ele>
        <time>2020-05-10T14:05:50Z</time>
      </trkpt>
      <trkpt lat="48.71192" lon="7.30069">
        <ele>336.7</ele>
        <time>2020-05-10T14:05:51Z</time>
      </trkpt>
      <trkpt lat="48.71192" lon="7.30067">
        <ele>336.7</ele>
        <time>2020-05-10T14:05:52Z</time>
      </trkpt>
      <trkpt lat="48.71192" lon="7.30063">
        <ele>336.8</ele>
        <time>2020-05-10T14:05:54Z</time>
      </trkpt>
      <trkpt lat="48.71192" lon="7.3006">
        <ele>336.8</ele>
        <time>2020-05-10T14:05:56Z</time>
      </trkpt>
      <trkpt lat="48.71193" lon="7.30057">
        <ele>336.8</ele>
        <time>2020-05-10T14:05:58Z</time>
      </trkpt>
      <trkpt lat="48.71193" lon="7.30055">
        <ele>336.8</ele>
        <time>2020-05-10T14:05:59Z</time>
      </trkpt>
      <trkpt lat="48.71194" lon="7.30051">
        <ele>336.8</ele>
        <time>2020-05-10T14:06:01Z</time>
      </trkpt>
      <trkpt lat="48.71193" lon="7.30049">
        <ele>336.8</ele>
        <time>2020-05-10T14:06:02Z</time>
      </trkpt>
      <trkpt lat="48.71193" lon="7.30047">
        <ele>336.8</ele>
        <time>2020-05-10T14:06:03Z</time>
      </trkpt>
      <trkpt lat="48.71192" lon="7.30045">
        <ele>336.9</ele>
        <time>2020-05-10T14:06:04Z</time>
      </trkpt>
      <trkpt lat="48.71193" lon="7.3004">
        <ele>336.9</ele>
        <time>2020-05-10T14:06:06Z</time>
      </trkpt>
      <trkpt lat="48.71193" lon="7.30039">
        <ele>336.9</ele>
        <time>2020-05-10T14:06:07Z</time>
      </trkpt>
      <trkpt lat="48.71193" lon="7.30036">
        <ele>336.9</ele>
        <time>2020-05-10T14:06:09Z</time>
      </trkpt>
      <trkpt lat="48.71194" lon="7.30032">
        <ele>336.9</ele>
        <time>2020-05-10T14:06:11Z</time>
      </trkpt>
      <trkpt lat="48.71196" lon="7.30031">
        <ele>337</ele>
        <time>2020-05-10T14:06:13Z</time>
      </trkpt>
      <trkpt lat="48.71197" lon="7.3003">
        <ele>337</ele>
        <time>2020-05-10T14:06:14Z</time>
      </trkpt>
      <trkpt lat="48.71198" lon="7.30029">
        <ele>337</ele>
        <time>2020-05-10T14:06:15Z</time>
      </trkpt>
      <trkpt lat="48.71198" lon="7.30026">
        <ele>337.1</ele>
        <time>2020-05-10T14:06:17Z</time>
      </trkpt>
      <trkpt lat="48.71198" lon="7.30023">
        <ele>337.1</ele>
        <time>2020-05-10T14:06:18Z</time>
      </trkpt>
      <trkpt lat="48.71197" lon="7.3002">
        <ele>337.2</ele>
        <time>2020-05-10T14:06:20Z</time>
      </trkpt>
      <trkpt lat="48.71197" lon="7.30018">
        <ele>337.3</ele>
        <time>2020-05-10T14:06:21Z</time>
      </trkpt>
      <trkpt lat="48.71197" lon="7.30015">
        <ele>337.4</ele>
        <time>2020-05-10T14:06:23Z</time>
      </trkpt>
      <trkpt lat="48.71197" lon="7.30013">
        <ele>337.4</ele>
        <time>2020-05-10T14:06:24Z</time>
      </trkpt>
      <trkpt lat="48.71197" lon="7.30009">
        <ele>337.5</ele>
        <time>2020-05-10T14:06:26Z</time>
      </trkpt>
      <trkpt lat="48.71198" lon="7.30008">
        <ele>337.6</ele>
        <time>2020-05-10T14:06:27Z</time>
      </trkpt>
      <trkpt lat="48.71198" lon="7.30007">
        <ele>337.6</ele>
        <time>2020-05-10T14:06:28Z</time>
      </trkpt>
      <trkpt lat="48.71198" lon="7.30004">
        <ele>337.7</ele>
        <time>2020-05-10T14:06:30Z</time>
      </trkpt>
      <trkpt lat="48.71198" lon="7.30002">
        <ele>337.8</ele>
        <time>2020-05-10T14:06:32Z</time>
      </trkpt>
      <trkpt lat="48.71198" lon="7.29998">
        <ele>337.9</ele>
        <time>2020-05-10T14:06:34Z</time>
      </trkpt>
      <trkpt lat="48.71197" lon="7.29995">
        <ele>338</ele>
        <time>2020-05-10T14:06:36Z</time>
      </trkpt>
      <trkpt lat="48.71197" lon="7.29993">
        <ele>338.1</ele>
        <time>2020-05-10T14:06:38Z</time>
      </trkpt>
      <trkpt lat="48.71196" lon="7.2999">
        <ele>338.1</ele>
        <time>2020-05-10T14:06:40Z</time>
      </trkpt>
      <trkpt lat="48.71196" lon="7.29987">
        <ele>338.2</ele>
        <time>2020-05-10T14:06:42Z</time>
      </trkpt>
      <trkpt lat="48.71196" lon="7.2998">
        <ele>338.3</ele>
        <time>2020-05-10T14:06:44Z</time>
      </trkpt>
      <trkpt lat="48.71196" lon="7.29978">
        <ele>338.3</ele>
        <time>2020-05-10T14:06:46Z</time>
      </trkpt>
      <trkpt lat="48.71196" lon="7.29975">
        <ele>338.7</ele>
        <time>2020-05-10T14:06:47Z</time>
      </trkpt>
      <trkpt lat="48.71196" lon="7.29971">
        <ele>339</ele>
        <time>2020-05-10T14:06:49Z</time>
      </trkpt>
      <trkpt lat="48.71197" lon="7.29967">
        <ele>339.3</ele>
        <time>2020-05-10T14:06:51Z</time>
      </trkpt>
      <trkpt lat="48.71197" lon="7.29966">
        <ele>339.3</ele>
        <time>2020-05-10T14:06:52Z</time>
      </trkpt>
      <trkpt lat="48.71197" lon="7.29965">
        <ele>339.3</ele>
        <time>2020-05-10T14:06:53Z</time>
      </trkpt>
      <trkpt lat="48.71197" lon="7.29962">
        <ele>339.6</ele>
        <time>2020-05-10T14:06:55Z</time>
      </trkpt>
      <trkpt lat="48.71198" lon="7.2996">
        <ele>341.4</ele>
        <time>2020-05-10T14:06:57Z</time>
      </trkpt>
      <trkpt lat="48.71199" lon="7.29958">
        <ele>341.4</ele>
        <time>2020-05-10T14:06:58Z</time>
      </trkpt>
      <trkpt lat="48.71199" lon="7.29958">
        <ele>341.4</ele>
        <time>2020-05-10T14:06:59Z</time>
      </trkpt>
      <trkpt lat="48.71199" lon="7.29957">
        <ele>341.4</ele>
        <time>2020-05-10T14:07:00Z</time>
      </trkpt>
      <trkpt lat="48.71199" lon="7.29956">
        <ele>341.5</ele>
        <time>2020-05-10T14:07:01Z</time>
      </trkpt>
      <trkpt lat="48.712" lon="7.29952">
        <ele>341.6</ele>
        <time>2020-05-10T14:07:03Z</time>
      </trkpt>
      <trkpt lat="48.71201" lon="7.29948">
        <ele>343.3</ele>
        <time>2020-05-10T14:07:05Z</time>
      </trkpt>
      <trkpt lat="48.71201" lon="7.29947">
        <ele>343.4</ele>
        <time>2020-05-10T14:07:06Z</time>
      </trkpt>
      <trkpt lat="48.71204" lon="7.29943">
        <ele>345</ele>
        <time>2020-05-10T14:07:08Z</time>
      </trkpt>
      <trkpt lat="48.71205" lon="7.29941">
        <ele>345</ele>
        <time>2020-05-10T14:07:10Z</time>
      </trkpt>
      <trkpt lat="48.71205" lon="7.2994">
        <ele>345</ele>
        <time>2020-05-10T14:07:11Z</time>
      </trkpt>
      <trkpt lat="48.71206" lon="7.29937">
        <ele>345.1</ele>
        <time>2020-05-10T14:07:13Z</time>
      </trkpt>
      <trkpt lat="48.71206" lon="7.29933">
        <ele>345.3</ele>
        <time>2020-05-10T14:07:15Z</time>
      </trkpt>
      <trkpt lat="48.71205" lon="7.29932">
        <ele>345.3</ele>
        <time>2020-05-10T14:07:16Z</time>
      </trkpt>
      <trkpt lat="48.71205" lon="7.29926">
        <ele>345.4</ele>
        <time>2020-05-10T14:07:18Z</time>
      </trkpt>
      <trkpt lat="48.71207" lon="7.29922">
        <ele>347</ele>
        <time>2020-05-10T14:07:20Z</time>
      </trkpt>
      <trkpt lat="48.71207" lon="7.2992">
        <ele>347.1</ele>
        <time>2020-05-10T14:07:21Z</time>
      </trkpt>
      <trkpt lat="48.71208" lon="7.29916">
        <ele>347.3</ele>
        <time>2020-05-10T14:07:23Z</time>
      </trkpt>
      <trkpt lat="48.71208" lon="7.29915">
        <ele>347.3</ele>
        <time>2020-05-10T14:07:24Z</time>
      </trkpt>
      <trkpt lat="48.71209" lon="7.29912">
        <ele>347.5</ele>
        <time>2020-05-10T14:07:25Z</time>
      </trkpt>
      <trkpt lat="48.7121" lon="7.29908">
        <ele>349</ele>
        <time>2020-05-10T14:07:27Z</time>
      </trkpt>
      <trkpt lat="48.7121" lon="7.29906">
        <ele>349</ele>
        <time>2020-05-10T14:07:28Z</time>
      </trkpt>
      <trkpt lat="48.71211" lon="7.29902">
        <ele>349.2</ele>
        <time>2020-05-10T14:07:30Z</time>
      </trkpt>
      <trkpt lat="48.71211" lon="7.299">
        <ele>349.2</ele>
        <time>2020-05-10T14:07:31Z</time>
      </trkpt>
      <trkpt lat="48.7121" lon="7.29896">
        <ele>349.3</ele>
        <time>2020-05-10T14:07:33Z</time>
      </trkpt>
      <trkpt lat="48.7121" lon="7.29894">
        <ele>349.5</ele>
        <time>2020-05-10T14:07:34Z</time>
      </trkpt>
      <trkpt lat="48.7121" lon="7.29892">
        <ele>349.5</ele>
        <time>2020-05-10T14:07:36Z</time>
      </trkpt>
      <trkpt lat="48.7121" lon="7.29891">
        <ele>349.7</ele>
        <time>2020-05-10T14:07:37Z</time>
      </trkpt>
      <trkpt lat="48.7121" lon="7.29888">
        <ele>349.7</ele>
        <time>2020-05-10T14:07:39Z</time>
      </trkpt>
      <trkpt lat="48.7121" lon="7.29887">
        <ele>349.7</ele>
        <time>2020-05-10T14:07:40Z</time>
      </trkpt>
      <trkpt lat="48.7121" lon="7.29884">
        <ele>349.8</ele>
        <time>2020-05-10T14:07:42Z</time>
      </trkpt>
      <trkpt lat="48.7121" lon="7.29882">
        <ele>349.9</ele>
        <time>2020-05-10T14:07:43Z</time>
      </trkpt>
      <trkpt lat="48.71211" lon="7.29879">
        <ele>350</ele>
        <time>2020-05-10T14:07:45Z</time>
      </trkpt>
      <trkpt lat="48.71212" lon="7.29874">
        <ele>350.1</ele>
        <time>2020-05-10T14:07:47Z</time>
      </trkpt>
      <trkpt lat="48.71212" lon="7.29872">
        <ele>350.1</ele>
        <time>2020-05-10T14:07:48Z</time>
      </trkpt>
      <trkpt lat="48.71212" lon="7.29869">
        <ele>350.1</ele>
        <time>2020-05-10T14:07:50Z</time>
      </trkpt>
      <trkpt lat="48.71212" lon="7.29865">
        <ele>351.6</ele>
        <time>2020-05-10T14:07:52Z</time>
      </trkpt>
      <trkpt lat="48.71212" lon="7.29863">
        <ele>351.6</ele>
        <time>2020-05-10T14:07:53Z</time>
      </trkpt>
      <trkpt lat="48.71213" lon="7.29861">
        <ele>351.7</ele>
        <time>2020-05-10T14:07:55Z</time>
      </trkpt>
      <trkpt lat="48.71213" lon="7.29857">
        <ele>351.7</ele>
        <time>2020-05-10T14:07:57Z</time>
      </trkpt>
      <trkpt lat="48.71213" lon="7.29855">
        <ele>351.7</ele>
        <time>2020-05-10T14:07:58Z</time>
      </trkpt>
      <trkpt lat="48.71214" lon="7.29852">
        <ele>351.7</ele>
        <time>2020-05-10T14:08:00Z</time>
      </trkpt>
      <trkpt lat="48.71214" lon="7.2985">
        <ele>351.7</ele>
        <time>2020-05-10T14:08:01Z</time>
      </trkpt>
      <trkpt lat="48.71215" lon="7.29845">
        <ele>353.4</ele>
        <time>2020-05-10T14:08:03Z</time>
      </trkpt>
      <trkpt lat="48.71216" lon="7.29842">
        <ele>353.5</ele>
        <time>2020-05-10T14:08:05Z</time>
      </trkpt>
      <trkpt lat="48.71217" lon="7.29839">
        <ele>353.6</ele>
        <time>2020-05-10T14:08:07Z</time>
      </trkpt>
      <trkpt lat="48.71217" lon="7.29838">
        <ele>353.7</ele>
        <time>2020-05-10T14:08:08Z</time>
      </trkpt>
      <trkpt lat="48.71218" lon="7.29836">
        <ele>355.3</ele>
        <time>2020-05-10T14:08:09Z</time>
      </trkpt>
      <trkpt lat="48.71218" lon="7.29833">
        <ele>355.5</ele>
        <time>2020-05-10T14:08:11Z</time>
      </trkpt>
      <trkpt lat="48.71218" lon="7.2983">
        <ele>355.6</ele>
        <time>2020-05-10T14:08:13Z</time>
      </trkpt>
      <trkpt lat="48.71219" lon="7.29826">
        <ele>355.7</ele>
        <time>2020-05-10T14:08:15Z</time>
      </trkpt>
      <trkpt lat="48.7122" lon="7.29824">
        <ele>355.7</ele>
        <time>2020-05-10T14:08:17Z</time>
      </trkpt>
      <trkpt lat="48.7122" lon="7.29822">
        <ele>357.4</ele>
        <time>2020-05-10T14:08:18Z</time>
      </trkpt>
      <trkpt lat="48.71222" lon="7.29819">
        <ele>357.4</ele>
        <time>2020-05-10T14:08:20Z</time>
      </trkpt>
      <trkpt lat="48.71222" lon="7.29819">
        <ele>357.5</ele>
        <time>2020-05-10T14:08:21Z</time>
      </trkpt>
      <trkpt lat="48.71223" lon="7.29818">
        <ele>359.2</ele>
        <time>2020-05-10T14:08:23Z</time>
      </trkpt>
      <trkpt lat="48.71223" lon="7.29815">
        <ele>359.2</ele>
        <time>2020-05-10T14:08:25Z</time>
      </trkpt>
      <trkpt lat="48.71223" lon="7.29812">
        <ele>357.4</ele>
        <time>2020-05-10T14:08:27Z</time>
      </trkpt>
      <trkpt lat="48.71222" lon="7.29807">
        <ele>357.3</ele>
        <time>2020-05-10T14:08:29Z</time>
      </trkpt>
      <trkpt lat="48.71222" lon="7.29805">
        <ele>357.2</ele>
        <time>2020-05-10T14:08:30Z</time>
      </trkpt>
      <trkpt lat="48.71222" lon="7.29803">
        <ele>357.2</ele>
        <time>2020-05-10T14:08:32Z</time>
      </trkpt>
      <trkpt lat="48.71223" lon="7.29801">
        <ele>357.1</ele>
        <time>2020-05-10T14:08:34Z</time>
      </trkpt>
      <trkpt lat="48.71223" lon="7.29797">
        <ele>357.1</ele>
        <time>2020-05-10T14:08:36Z</time>
      </trkpt>
      <trkpt lat="48.71223" lon="7.29795">
        <ele>357</ele>
        <time>2020-05-10T14:08:37Z</time>
      </trkpt>
      <trkpt lat="48.71223" lon="7.29793">
        <ele>357</ele>
        <time>2020-05-10T14:08:38Z</time>
      </trkpt>
      <trkpt lat="48.71223" lon="7.2979">
        <ele>358.8</ele>
        <time>2020-05-10T14:08:40Z</time>
      </trkpt>
      <trkpt lat="48.71224" lon="7.29787">
        <ele>358.7</ele>
        <time>2020-05-10T14:08:42Z</time>
      </trkpt>
      <trkpt lat="48.71224" lon="7.29786">
        <ele>358.8</ele>
        <time>2020-05-10T14:08:43Z</time>
      </trkpt>
      <trkpt lat="48.71224" lon="7.29782">
        <ele>358.7</ele>
        <time>2020-05-10T14:08:45Z</time>
      </trkpt>
      <trkpt lat="48.71225" lon="7.29778">
        <ele>358.8</ele>
        <time>2020-05-10T14:08:47Z</time>
      </trkpt>
      <trkpt lat="48.71225" lon="7.29776">
        <ele>358.8</ele>
        <time>2020-05-10T14:08:48Z</time>
      </trkpt>
      <trkpt lat="48.71225" lon="7.29773">
        <ele>358.8</ele>
        <time>2020-05-10T14:08:50Z</time>
      </trkpt>
      <trkpt lat="48.71225" lon="7.2977">
        <ele>358.9</ele>
        <time>2020-05-10T14:08:52Z</time>
      </trkpt>
      <trkpt lat="48.71226" lon="7.29767">
        <ele>358.9</ele>
        <time>2020-05-10T14:08:54Z</time>
      </trkpt>
      <trkpt lat="48.71227" lon="7.29764">
        <ele>360.9</ele>
        <time>2020-05-10T14:08:56Z</time>
      </trkpt>
      <trkpt lat="48.71228" lon="7.29762">
        <ele>361.1</ele>
        <time>2020-05-10T14:08:58Z</time>
      </trkpt>
      <trkpt lat="48.71228" lon="7.2976">
        <ele>361.1</ele>
        <time>2020-05-10T14:08:59Z</time>
      </trkpt>
      <trkpt lat="48.71228" lon="7.29759">
        <ele>361.2</ele>
        <time>2020-05-10T14:09:01Z</time>
      </trkpt>
      <trkpt lat="48.71229" lon="7.29757">
        <ele>363.2</ele>
        <time>2020-05-10T14:09:02Z</time>
      </trkpt>
      <trkpt lat="48.71229" lon="7.29754">
        <ele>363.2</ele>
        <time>2020-05-10T14:09:04Z</time>
      </trkpt>
      <trkpt lat="48.71229" lon="7.29753">
        <ele>363.5</ele>
        <time>2020-05-10T14:09:05Z</time>
      </trkpt>
      <trkpt lat="48.71228" lon="7.2975">
        <ele>361.8</ele>
        <time>2020-05-10T14:09:07Z</time>
      </trkpt>
      <trkpt lat="48.71228" lon="7.29748">
        <ele>362.1</ele>
        <time>2020-05-10T14:09:08Z</time>
      </trkpt>
      <trkpt lat="48.71228" lon="7.29745">
        <ele>362.4</ele>
        <time>2020-05-10T14:09:10Z</time>
      </trkpt>
      <trkpt lat="48.71228" lon="7.29744">
        <ele>362.5</ele>
        <time>2020-05-10T14:09:11Z</time>
      </trkpt>
      <trkpt lat="48.71229" lon="7.29741">
        <ele>364.6</ele>
        <time>2020-05-10T14:09:13Z</time>
      </trkpt>
      <trkpt lat="48.71229" lon="7.29739">
        <ele>364.6</ele>
        <time>2020-05-10T14:09:14Z</time>
      </trkpt>
      <trkpt lat="48.71229" lon="7.29737">
        <ele>364.6</ele>
        <time>2020-05-10T14:09:15Z</time>
      </trkpt>
      <trkpt lat="48.7123" lon="7.29733">
        <ele>365</ele>
        <time>2020-05-10T14:09:17Z</time>
      </trkpt>
      <trkpt lat="48.71231" lon="7.29731">
        <ele>365.3</ele>
        <time>2020-05-10T14:09:18Z</time>
      </trkpt>
      <trkpt lat="48.71231" lon="7.29726">
        <ele>365.7</ele>
        <time>2020-05-10T14:09:20Z</time>
      </trkpt>
      <trkpt lat="48.71233" lon="7.29721">
        <ele>367.6</ele>
        <time>2020-05-10T14:09:22Z</time>
      </trkpt>
      <trkpt lat="48.71234" lon="7.29719">
        <ele>367.9</ele>
        <time>2020-05-10T14:09:23Z</time>
      </trkpt>
      <trkpt lat="48.71236" lon="7.29716">
        <ele>369.5</ele>
        <time>2020-05-10T14:09:25Z</time>
      </trkpt>
      <trkpt lat="48.71237" lon="7.29715">
        <ele>370.9</ele>
        <time>2020-05-10T14:09:26Z</time>
      </trkpt>
      <trkpt lat="48.71239" lon="7.29713">
        <ele>371.3</ele>
        <time>2020-05-10T14:09:28Z</time>
      </trkpt>
      <trkpt lat="48.7124" lon="7.29711">
        <ele>371.6</ele>
        <time>2020-05-10T14:09:29Z</time>
      </trkpt>
      <trkpt lat="48.7124" lon="7.29709">
        <ele>371.7</ele>
        <time>2020-05-10T14:09:31Z</time>
      </trkpt>
      <trkpt lat="48.7124" lon="7.29706">
        <ele>372.1</ele>
        <time>2020-05-10T14:09:33Z</time>
      </trkpt>
      <trkpt lat="48.7124" lon="7.29704">
        <ele>372.1</ele>
        <time>2020-05-10T14:09:35Z</time>
      </trkpt>
      <trkpt lat="48.71241" lon="7.29702">
        <ele>374</ele>
        <time>2020-05-10T14:09:37Z</time>
      </trkpt>
      <trkpt lat="48.71241" lon="7.29702">
        <ele>374</ele>
        <time>2020-05-10T14:09:38Z</time>
      </trkpt>
      <trkpt lat="48.71241" lon="7.297">
        <ele>374</ele>
        <time>2020-05-10T14:09:40Z</time>
      </trkpt>
      <trkpt lat="48.71241" lon="7.29697">
        <ele>374.5</ele>
        <time>2020-05-10T14:09:42Z</time>
      </trkpt>
      <trkpt lat="48.71241" lon="7.29696">
        <ele>374.5</ele>
        <time>2020-05-10T14:09:44Z</time>
      </trkpt>
      <trkpt lat="48.71241" lon="7.29695">
        <ele>374.5</ele>
        <time>2020-05-10T14:09:46Z</time>
      </trkpt>
      <trkpt lat="48.71241" lon="7.29694">
        <ele>375</ele>
        <time>2020-05-10T14:09:47Z</time>
      </trkpt>
      <trkpt lat="48.7124" lon="7.29691">
        <ele>375</ele>
        <time>2020-05-10T14:09:49Z</time>
      </trkpt>
      <trkpt lat="48.71241" lon="7.29689">
        <ele>375.4</ele>
        <time>2020-05-10T14:09:50Z</time>
      </trkpt>
      <trkpt lat="48.71241" lon="7.29685">
        <ele>375.9</ele>
        <time>2020-05-10T14:09:52Z</time>
      </trkpt>
      <trkpt lat="48.71241" lon="7.29683">
        <ele>375.9</ele>
        <time>2020-05-10T14:09:53Z</time>
      </trkpt>
      <trkpt lat="48.71241" lon="7.29681">
        <ele>376.4</ele>
        <time>2020-05-10T14:09:54Z</time>
      </trkpt>
      <trkpt lat="48.71241" lon="7.29678">
        <ele>376.4</ele>
        <time>2020-05-10T14:09:56Z</time>
      </trkpt>
      <trkpt lat="48.71241" lon="7.29673">
        <ele>376.8</ele>
        <time>2020-05-10T14:09:58Z</time>
      </trkpt>
      <trkpt lat="48.71241" lon="7.29671">
        <ele>377.3</ele>
        <time>2020-05-10T14:09:59Z</time>
      </trkpt>
      <trkpt lat="48.71242" lon="7.29666">
        <ele>377.8</ele>
        <time>2020-05-10T14:10:01Z</time>
      </trkpt>
      <trkpt lat="48.71242" lon="7.29663">
        <ele>378.4</ele>
        <time>2020-05-10T14:10:02Z</time>
      </trkpt>
      <trkpt lat="48.71244" lon="7.29657">
        <ele>380.4</ele>
        <time>2020-05-10T14:10:04Z</time>
      </trkpt>
      <trkpt lat="48.71245" lon="7.29656">
        <ele>380.4</ele>
        <time>2020-05-10T14:10:05Z</time>
      </trkpt>
      <trkpt lat="48.71246" lon="7.29654">
        <ele>382.5</ele>
        <time>2020-05-10T14:10:07Z</time>
      </trkpt>
      <trkpt lat="48.71247" lon="7.29652">
        <ele>382.5</ele>
        <time>2020-05-10T14:10:09Z</time>
      </trkpt>
      <trkpt lat="48.71247" lon="7.29651">
        <ele>382.5</ele>
        <time>2020-05-10T14:10:10Z</time>
      </trkpt>
      <trkpt lat="48.71247" lon="7.29651">
        <ele>383.1</ele>
        <time>2020-05-10T14:10:11Z</time>
      </trkpt>
      <trkpt lat="48.71246" lon="7.29651">
        <ele>383.1</ele>
        <time>2020-05-10T14:10:13Z</time>
      </trkpt>
      <trkpt lat="48.71246" lon="7.2965">
        <ele>383.2</ele>
        <time>2020-05-10T14:10:14Z</time>
      </trkpt>
      <trkpt lat="48.71245" lon="7.2965">
        <ele>381.7</ele>
        <time>2020-05-10T14:10:16Z</time>
      </trkpt>
      <trkpt lat="48.71245" lon="7.2965">
        <ele>381.7</ele>
        <time>2020-05-10T14:10:18Z</time>
      </trkpt>
      <trkpt lat="48.71245" lon="7.2965">
        <ele>381.7</ele>
        <time>2020-05-10T14:10:20Z</time>
      </trkpt>
      <trkpt lat="48.71245" lon="7.29649">
        <ele>381.7</ele>
        <time>2020-05-10T14:10:21Z</time>
      </trkpt>
      <trkpt lat="48.71245" lon="7.2965">
        <ele>381.8</ele>
        <time>2020-05-10T14:10:22Z</time>
      </trkpt>
      <trkpt lat="48.71245" lon="7.2965">
        <ele>381.8</ele>
        <time>2020-05-10T14:10:23Z</time>
      </trkpt>
      <trkpt lat="48.71245" lon="7.29651">
        <ele>381.2</ele>
        <time>2020-05-10T14:10:25Z</time>
      </trkpt>
      <trkpt lat="48.71244" lon="7.29651">
        <ele>381.2</ele>
        <time>2020-05-10T14:10:27Z</time>
      </trkpt>
      <trkpt lat="48.71244" lon="7.29651">
        <ele>381.3</ele>
        <time>2020-05-10T14:10:28Z</time>
      </trkpt>
      <trkpt lat="48.71244" lon="7.29651">
        <ele>381.3</ele>
        <time>2020-05-10T14:10:29Z</time>
      </trkpt>
      <trkpt lat="48.71245" lon="7.29651">
        <ele>381.9</ele>
        <time>2020-05-10T14:10:31Z</time>
      </trkpt>
      <trkpt lat="48.71245" lon="7.2965">
        <ele>381.9</ele>
        <time>2020-05-10T14:10:32Z</time>
      </trkpt>
      <trkpt lat="48.71244" lon="7.2965">
        <ele>381.9</ele>
        <time>2020-05-10T14:10:34Z</time>
      </trkpt>
      <trkpt lat="48.71243" lon="7.29647">
        <ele>381.9</ele>
        <time>2020-05-10T14:10:41Z</time>
      </trkpt>
      <trkpt lat="48.71243" lon="7.29643">
        <ele>382.5</ele>
        <time>2020-05-10T14:10:43Z</time>
      </trkpt>
      <trkpt lat="48.71241" lon="7.2964">
        <ele>381.7</ele>
        <time>2020-05-10T14:10:45Z</time>
      </trkpt>
      <trkpt lat="48.7124" lon="7.29638">
        <ele>380.9</ele>
        <time>2020-05-10T14:10:46Z</time>
      </trkpt>
      <trkpt lat="48.71239" lon="7.29631">
        <ele>381.5</ele>
        <time>2020-05-10T14:10:48Z</time>
      </trkpt>
      <trkpt lat="48.71239" lon="7.29625">
        <ele>382.6</ele>
        <time>2020-05-10T14:10:49Z</time>
      </trkpt>
      <trkpt lat="48.71239" lon="7.2962">
        <ele>383.1</ele>
        <time>2020-05-10T14:10:50Z</time>
      </trkpt>
      <trkpt lat="48.71239" lon="7.29612">
        <ele>384.2</ele>
        <time>2020-05-10T14:10:52Z</time>
      </trkpt>
      <trkpt lat="48.71239" lon="7.29603">
        <ele>385.2</ele>
        <time>2020-05-10T14:10:54Z</time>
      </trkpt>
      <trkpt lat="48.71238" lon="7.296">
        <ele>385.2</ele>
        <time>2020-05-10T14:10:55Z</time>
      </trkpt>
      <trkpt lat="48.71237" lon="7.2959">
        <ele>385.6</ele>
        <time>2020-05-10T14:10:57Z</time>
      </trkpt>
      <trkpt lat="48.71237" lon="7.29585">
        <ele>386.2</ele>
        <time>2020-05-10T14:10:58Z</time>
      </trkpt>
      <trkpt lat="48.71236" lon="7.29581">
        <ele>386.9</ele>
        <time>2020-05-10T14:10:59Z</time>
      </trkpt>
      <trkpt lat="48.71236" lon="7.29571">
        <ele>388.3</ele>
        <time>2020-05-10T14:11:01Z</time>
      </trkpt>
      <trkpt lat="48.71235" lon="7.29567">
        <ele>389</ele>
        <time>2020-05-10T14:11:02Z</time>
      </trkpt>
      <trkpt lat="48.71233" lon="7.29561">
        <ele>389.3</ele>
        <time>2020-05-10T14:11:04Z</time>
      </trkpt>
      <trkpt lat="48.71232" lon="7.29555">
        <ele>388.8</ele>
        <time>2020-05-10T14:11:05Z</time>
      </trkpt>
      <trkpt lat="48.71231" lon="7.29553">
        <ele>388.8</ele>
        <time>2020-05-10T14:11:06Z</time>
      </trkpt>
      <trkpt lat="48.7123" lon="7.29544">
        <ele>390.2</ele>
        <time>2020-05-10T14:11:08Z</time>
      </trkpt>
      <trkpt lat="48.71229" lon="7.29538">
        <ele>391.6</ele>
        <time>2020-05-10T14:11:09Z</time>
      </trkpt>
      <trkpt lat="48.71229" lon="7.29531">
        <ele>391.9</ele>
        <time>2020-05-10T14:11:11Z</time>
      </trkpt>
      <trkpt lat="48.71228" lon="7.29523">
        <ele>392.7</ele>
        <time>2020-05-10T14:11:12Z</time>
      </trkpt>
      <trkpt lat="48.71226" lon="7.29515">
        <ele>393.2</ele>
        <time>2020-05-10T14:11:14Z</time>
      </trkpt>
      <trkpt lat="48.71223" lon="7.29511">
        <ele>392.9</ele>
        <time>2020-05-10T14:11:16Z</time>
      </trkpt>
      <trkpt lat="48.7122" lon="7.29507">
        <ele>392.6</ele>
        <time>2020-05-10T14:11:17Z</time>
      </trkpt>
      <trkpt lat="48.71217" lon="7.29498">
        <ele>393</ele>
        <time>2020-05-10T14:11:19Z</time>
      </trkpt>
      <trkpt lat="48.71214" lon="7.29491">
        <ele>394</ele>
        <time>2020-05-10T14:11:21Z</time>
      </trkpt>
      <trkpt lat="48.71211" lon="7.29486">
        <ele>394.1</ele>
        <time>2020-05-10T14:11:23Z</time>
      </trkpt>
      <trkpt lat="48.71208" lon="7.29484">
        <ele>393.4</ele>
        <time>2020-05-10T14:11:25Z</time>
      </trkpt>
      <trkpt lat="48.71206" lon="7.29483">
        <ele>393.7</ele>
        <time>2020-05-10T14:11:27Z</time>
      </trkpt>
      <trkpt lat="48.71205" lon="7.29483">
        <ele>393.7</ele>
        <time>2020-05-10T14:11:28Z</time>
      </trkpt>
      <trkpt lat="48.71202" lon="7.29483">
        <ele>393</ele>
        <time>2020-05-10T14:11:29Z</time>
      </trkpt>
      <trkpt lat="48.71197" lon="7.29488">
        <ele>389.4</ele>
        <time>2020-05-10T14:11:31Z</time>
      </trkpt>
      <trkpt lat="48.71194" lon="7.2949">
        <ele>388.7</ele>
        <time>2020-05-10T14:11:32Z</time>
      </trkpt>
      <trkpt lat="48.71186" lon="7.29493">
        <ele>384.8</ele>
        <time>2020-05-10T14:11:34Z</time>
      </trkpt>
      <trkpt lat="48.7118" lon="7.29489">
        <ele>385.6</ele>
        <time>2020-05-10T14:11:36Z</time>
      </trkpt>
      <trkpt lat="48.71176" lon="7.29493">
        <ele>383.3</ele>
        <time>2020-05-10T14:11:38Z</time>
      </trkpt>
      <trkpt lat="48.71171" lon="7.29494">
        <ele>382.4</ele>
        <time>2020-05-10T14:11:39Z</time>
      </trkpt>
      <trkpt lat="48.71164" lon="7.29496">
        <ele>381.5</ele>
        <time>2020-05-10T14:11:41Z</time>
      </trkpt>
      <trkpt lat="48.7116" lon="7.29492">
        <ele>382.7</ele>
        <time>2020-05-10T14:11:43Z</time>
      </trkpt>
      <trkpt lat="48.7116" lon="7.29492">
        <ele>382.7</ele>
        <time>2020-05-10T14:11:44Z</time>
      </trkpt>
      <trkpt lat="48.71157" lon="7.29493">
        <ele>380.7</ele>
        <time>2020-05-10T14:11:46Z</time>
      </trkpt>
      <trkpt lat="48.7115" lon="7.29496">
        <ele>380.3</ele>
        <time>2020-05-10T14:11:48Z</time>
      </trkpt>
      <trkpt lat="48.71146" lon="7.29498">
        <ele>378.8</ele>
        <time>2020-05-10T14:11:49Z</time>
      </trkpt>
      <trkpt lat="48.71142" lon="7.29499">
        <ele>378.6</ele>
        <time>2020-05-10T14:11:50Z</time>
      </trkpt>
      <trkpt lat="48.71137" lon="7.29499">
        <ele>378.2</ele>
        <time>2020-05-10T14:11:51Z</time>
      </trkpt>
      <trkpt lat="48.71127" lon="7.295">
        <ele>377.7</ele>
        <time>2020-05-10T14:11:53Z</time>
      </trkpt>
      <trkpt lat="48.7112" lon="7.29499">
        <ele>377.4</ele>
        <time>2020-05-10T14:11:55Z</time>
      </trkpt>
      <trkpt lat="48.71117" lon="7.295">
        <ele>377.3</ele>
        <time>2020-05-10T14:11:56Z</time>
      </trkpt>
      <trkpt lat="48.71114" lon="7.29502">
        <ele>376.1</ele>
        <time>2020-05-10T14:11:57Z</time>
      </trkpt>
      <trkpt lat="48.71106" lon="7.29504">
        <ele>375.5</ele>
        <time>2020-05-10T14:11:59Z</time>
      </trkpt>
      <trkpt lat="48.71098" lon="7.29507">
        <ele>373.8</ele>
        <time>2020-05-10T14:12:01Z</time>
      </trkpt>
      <trkpt lat="48.71094" lon="7.29509">
        <ele>373.5</ele>
        <time>2020-05-10T14:12:02Z</time>
      </trkpt>
      <trkpt lat="48.71086" lon="7.2951">
        <ele>371.2</ele>
        <time>2020-05-10T14:12:04Z</time>
      </trkpt>
      <trkpt lat="48.7108" lon="7.29509">
        <ele>370.1</ele>
        <time>2020-05-10T14:12:05Z</time>
      </trkpt>
      <trkpt lat="48.71069" lon="7.29508">
        <ele>369.3</ele>
        <time>2020-05-10T14:12:07Z</time>
      </trkpt>
      <trkpt lat="48.7106" lon="7.29508">
        <ele>367.6</ele>
        <time>2020-05-10T14:12:09Z</time>
      </trkpt>
      <trkpt lat="48.71052" lon="7.29504">
        <ele>366.7</ele>
        <time>2020-05-10T14:12:11Z</time>
      </trkpt>
      <trkpt lat="48.71037" lon="7.29495">
        <ele>365.4</ele>
        <time>2020-05-10T14:12:16Z</time>
      </trkpt>
      <trkpt lat="48.71034" lon="7.29491">
        <ele>366.5</ele>
        <time>2020-05-10T14:12:17Z</time>
      </trkpt>
      <trkpt lat="48.71034" lon="7.29492">
        <ele>366.5</ele>
        <time>2020-05-10T14:12:19Z</time>
      </trkpt>
      <trkpt lat="48.71036" lon="7.29492">
        <ele>366.5</ele>
        <time>2020-05-10T14:12:21Z</time>
      </trkpt>
      <trkpt lat="48.71036" lon="7.29493">
        <ele>364.6</ele>
        <time>2020-05-10T14:12:23Z</time>
      </trkpt>
      <trkpt lat="48.71036" lon="7.29494">
        <ele>364.6</ele>
        <time>2020-05-10T14:12:24Z</time>
      </trkpt>
      <trkpt lat="48.71036" lon="7.29494">
        <ele>364.6</ele>
        <time>2020-05-10T14:12:26Z</time>
      </trkpt>
      <trkpt lat="48.71036" lon="7.29494">
        <ele>365.5</ele>
        <time>2020-05-10T14:12:27Z</time>
      </trkpt>
      <trkpt lat="48.71036" lon="7.29494">
        <ele>365.5</ele>
        <time>2020-05-10T14:12:28Z</time>
      </trkpt>
      <trkpt lat="48.71036" lon="7.29494">
        <ele>364.7</ele>
        <time>2020-05-10T14:12:29Z</time>
      </trkpt>
      <trkpt lat="48.71036" lon="7.29494">
        <ele>364.7</ele>
        <time>2020-05-10T14:12:30Z</time>
      </trkpt>
      <trkpt lat="48.71035" lon="7.29492">
        <ele>366.7</ele>
        <time>2020-05-10T14:12:31Z</time>
      </trkpt>
      <trkpt lat="48.71034" lon="7.29489">
        <ele>366.7</ele>
        <time>2020-05-10T14:12:32Z</time>
      </trkpt>
      <trkpt lat="48.71034" lon="7.29488">
        <ele>367.9</ele>
        <time>2020-05-10T14:12:34Z</time>
      </trkpt>
      <trkpt lat="48.71033" lon="7.29487">
        <ele>367</ele>
        <time>2020-05-10T14:12:35Z</time>
      </trkpt>
      <trkpt lat="48.71032" lon="7.29483">
        <ele>368.3</ele>
        <time>2020-05-10T14:12:37Z</time>
      </trkpt>
      <trkpt lat="48.71032" lon="7.29482">
        <ele>368.3</ele>
        <time>2020-05-10T14:12:38Z</time>
      </trkpt>
      <trkpt lat="48.71031" lon="7.29481">
        <ele>368.3</ele>
        <time>2020-05-10T14:12:39Z</time>
      </trkpt>
      <trkpt lat="48.7103" lon="7.29477">
        <ele>368.7</ele>
        <time>2020-05-10T14:12:41Z</time>
      </trkpt>
      <trkpt lat="48.71029" lon="7.29474">
        <ele>369.9</ele>
        <time>2020-05-10T14:12:43Z</time>
      </trkpt>
      <trkpt lat="48.71027" lon="7.29471">
        <ele>369</ele>
        <time>2020-05-10T14:12:45Z</time>
      </trkpt>
      <trkpt lat="48.71027" lon="7.2947">
        <ele>370.1</ele>
        <time>2020-05-10T14:12:46Z</time>
      </trkpt>
      <trkpt lat="48.71026" lon="7.29468">
        <ele>370.2</ele>
        <time>2020-05-10T14:12:47Z</time>
      </trkpt>
      <trkpt lat="48.71026" lon="7.29466">
        <ele>371.2</ele>
        <time>2020-05-10T14:12:48Z</time>
      </trkpt>
      <trkpt lat="48.71026" lon="7.29464">
        <ele>371.3</ele>
        <time>2020-05-10T14:12:49Z</time>
      </trkpt>
      <trkpt lat="48.71025" lon="7.29462">
        <ele>372.3</ele>
        <time>2020-05-10T14:12:50Z</time>
      </trkpt>
      <trkpt lat="48.71024" lon="7.2946">
        <ele>371.4</ele>
        <time>2020-05-10T14:12:52Z</time>
      </trkpt>
      <trkpt lat="48.71023" lon="7.2946">
        <ele>371.4</ele>
        <time>2020-05-10T14:12:53Z</time>
      </trkpt>
      <trkpt lat="48.71019" lon="7.29457">
        <ele>371.5</ele>
        <time>2020-05-10T14:12:55Z</time>
      </trkpt>
      <trkpt lat="48.71018" lon="7.29455">
        <ele>370.6</ele>
        <time>2020-05-10T14:12:57Z</time>
      </trkpt>
      <trkpt lat="48.71016" lon="7.29452">
        <ele>370.9</ele>
        <time>2020-05-10T14:12:59Z</time>
      </trkpt>
      <trkpt lat="48.71014" lon="7.29447">
        <ele>372</ele>
        <time>2020-05-10T14:13:01Z</time>
      </trkpt>
      <trkpt lat="48.71014" lon="7.29445">
        <ele>372.1</ele>
        <time>2020-05-10T14:13:02Z</time>
      </trkpt>
      <trkpt lat="48.71014" lon="7.29442">
        <ele>373.3</ele>
        <time>2020-05-10T14:13:03Z</time>
      </trkpt>
      <trkpt lat="48.71014" lon="7.2944">
        <ele>374.5</ele>
        <time>2020-05-10T14:13:04Z</time>
      </trkpt>
      <trkpt lat="48.71012" lon="7.29437">
        <ele>373.7</ele>
        <time>2020-05-10T14:13:06Z</time>
      </trkpt>
      <trkpt lat="48.71012" lon="7.29436">
        <ele>375</ele>
        <time>2020-05-10T14:13:07Z</time>
      </trkpt>
      <trkpt lat="48.71011" lon="7.29434">
        <ele>375</ele>
        <time>2020-05-10T14:13:08Z</time>
      </trkpt>
      <trkpt lat="48.7101" lon="7.29433">
        <ele>374.2</ele>
        <time>2020-05-10T14:13:09Z</time>
      </trkpt>
      <trkpt lat="48.71007" lon="7.29429">
        <ele>374.6</ele>
        <time>2020-05-10T14:13:11Z</time>
      </trkpt>
      <trkpt lat="48.71005" lon="7.29426">
        <ele>374.8</ele>
        <time>2020-05-10T14:13:13Z</time>
      </trkpt>
      <trkpt lat="48.71003" lon="7.29423">
        <ele>375.9</ele>
        <time>2020-05-10T14:13:15Z</time>
      </trkpt>
      <trkpt lat="48.71002" lon="7.2942">
        <ele>374.9</ele>
        <time>2020-05-10T14:13:16Z</time>
      </trkpt>
      <trkpt lat="48.71001" lon="7.29419">
        <ele>375.9</ele>
        <time>2020-05-10T14:13:17Z</time>
      </trkpt>
      <trkpt lat="48.71001" lon="7.29417">
        <ele>376</ele>
        <time>2020-05-10T14:13:18Z</time>
      </trkpt>
      <trkpt lat="48.71" lon="7.29413">
        <ele>377</ele>
        <time>2020-05-10T14:13:20Z</time>
      </trkpt>
      <trkpt lat="48.70999" lon="7.2941">
        <ele>376.8</ele>
        <time>2020-05-10T14:13:22Z</time>
      </trkpt>
      <trkpt lat="48.70998" lon="7.29407">
        <ele>376.8</ele>
        <time>2020-05-10T14:13:24Z</time>
      </trkpt>
      <trkpt lat="48.70995" lon="7.29404">
        <ele>376.6</ele>
        <time>2020-05-10T14:13:26Z</time>
      </trkpt>
      <trkpt lat="48.70994" lon="7.29403">
        <ele>376.6</ele>
        <time>2020-05-10T14:13:27Z</time>
      </trkpt>
      <trkpt lat="48.70992" lon="7.294">
        <ele>376.4</ele>
        <time>2020-05-10T14:13:29Z</time>
      </trkpt>
      <trkpt lat="48.7099" lon="7.29397">
        <ele>376.4</ele>
        <time>2020-05-10T14:13:31Z</time>
      </trkpt>
      <trkpt lat="48.70989" lon="7.29393">
        <ele>377.4</ele>
        <time>2020-05-10T14:13:33Z</time>
      </trkpt>
      <trkpt lat="48.70988" lon="7.29389">
        <ele>377.4</ele>
        <time>2020-05-10T14:13:35Z</time>
      </trkpt>
      <trkpt lat="48.70988" lon="7.29387">
        <ele>377.4</ele>
        <time>2020-05-10T14:13:36Z</time>
      </trkpt>
      <trkpt lat="48.70987" lon="7.29384">
        <ele>378.4</ele>
        <time>2020-05-10T14:13:38Z</time>
      </trkpt>
      <trkpt lat="48.70986" lon="7.2938">
        <ele>379.4</ele>
        <time>2020-05-10T14:13:40Z</time>
      </trkpt>
      <trkpt lat="48.70985" lon="7.29378">
        <ele>378.3</ele>
        <time>2020-05-10T14:13:41Z</time>
      </trkpt>
      <trkpt lat="48.70984" lon="7.29375">
        <ele>379.1</ele>
        <time>2020-05-10T14:13:43Z</time>
      </trkpt>
      <trkpt lat="48.70982" lon="7.29372">
        <ele>378.7</ele>
        <time>2020-05-10T14:13:45Z</time>
      </trkpt>
      <trkpt lat="48.70981" lon="7.29368">
        <ele>379.4</ele>
        <time>2020-05-10T14:13:47Z</time>
      </trkpt>
      <trkpt lat="48.7098" lon="7.29366">
        <ele>379.5</ele>
        <time>2020-05-10T14:13:49Z</time>
      </trkpt>
      <trkpt lat="48.7098" lon="7.29365">
        <ele>379.5</ele>
        <time>2020-05-10T14:13:50Z</time>
      </trkpt>
      <trkpt lat="48.7098" lon="7.29364">
        <ele>379.5</ele>
        <time>2020-05-10T14:13:51Z</time>
      </trkpt>
      <trkpt lat="48.70978" lon="7.29361">
        <ele>379</ele>
        <time>2020-05-10T14:13:53Z</time>
      </trkpt>
      <trkpt lat="48.70975" lon="7.29355">
        <ele>378.4</ele>
        <time>2020-05-10T14:13:55Z</time>
      </trkpt>
      <trkpt lat="48.70973" lon="7.29351">
        <ele>377.9</ele>
        <time>2020-05-10T14:13:57Z</time>
      </trkpt>
      <trkpt lat="48.70972" lon="7.29348">
        <ele>378.7</ele>
        <time>2020-05-10T14:13:58Z</time>
      </trkpt>
      <trkpt lat="48.7097" lon="7.29344">
        <ele>378.3</ele>
        <time>2020-05-10T14:14:00Z</time>
      </trkpt>
      <trkpt lat="48.7097" lon="7.29342">
        <ele>379.2</ele>
        <time>2020-05-10T14:14:01Z</time>
      </trkpt>
      <trkpt lat="48.70968" lon="7.29336">
        <ele>380</ele>
        <time>2020-05-10T14:14:03Z</time>
      </trkpt>
      <trkpt lat="48.70967" lon="7.29333">
        <ele>379.7</ele>
        <time>2020-05-10T14:14:04Z</time>
      </trkpt>
      <trkpt lat="48.70966" lon="7.2933">
        <ele>379.7</ele>
        <time>2020-05-10T14:14:06Z</time>
      </trkpt>
      <trkpt lat="48.70965" lon="7.29328">
        <ele>379.3</ele>
        <time>2020-05-10T14:14:08Z</time>
      </trkpt>
      <trkpt lat="48.70964" lon="7.29326">
        <ele>379.3</ele>
        <time>2020-05-10T14:14:09Z</time>
      </trkpt>
      <trkpt lat="48.70964" lon="7.29324">
        <ele>380</ele>
        <time>2020-05-10T14:14:10Z</time>
      </trkpt>
      <trkpt lat="48.70963" lon="7.29321">
        <ele>380.1</ele>
        <time>2020-05-10T14:14:12Z</time>
      </trkpt>
      <trkpt lat="48.70963" lon="7.29319">
        <ele>380.7</ele>
        <time>2020-05-10T14:14:13Z</time>
      </trkpt>
      <trkpt lat="48.70962" lon="7.29314">
        <ele>380.4</ele>
        <time>2020-05-10T14:14:15Z</time>
      </trkpt>
      <trkpt lat="48.70962" lon="7.29313">
        <ele>380.4</ele>
        <time>2020-05-10T14:14:16Z</time>
      </trkpt>
      <trkpt lat="48.70961" lon="7.29309">
        <ele>381.1</ele>
        <time>2020-05-10T14:14:18Z</time>
      </trkpt>
      <trkpt lat="48.7096" lon="7.29306">
        <ele>380.8</ele>
        <time>2020-05-10T14:14:20Z</time>
      </trkpt>
      <trkpt lat="48.70958" lon="7.29303">
        <ele>381.6</ele>
        <time>2020-05-10T14:14:22Z</time>
      </trkpt>
      <trkpt lat="48.70958" lon="7.29302">
        <ele>381.6</ele>
        <time>2020-05-10T14:14:23Z</time>
      </trkpt>
      <trkpt lat="48.70958" lon="7.29301">
        <ele>381.6</ele>
        <time>2020-05-10T14:14:24Z</time>
      </trkpt>
      <trkpt lat="48.70957" lon="7.293">
        <ele>381.7</ele>
        <time>2020-05-10T14:14:25Z</time>
      </trkpt>
      <trkpt lat="48.70957" lon="7.29298">
        <ele>381.5</ele>
        <time>2020-05-10T14:14:27Z</time>
      </trkpt>
      <trkpt lat="48.70957" lon="7.29296">
        <ele>382.5</ele>
        <time>2020-05-10T14:14:28Z</time>
      </trkpt>
      <trkpt lat="48.70957" lon="7.29296">
        <ele>382.5</ele>
        <time>2020-05-10T14:14:30Z</time>
      </trkpt>
      <trkpt lat="48.70957" lon="7.29295">
        <ele>382.5</ele>
        <time>2020-05-10T14:14:31Z</time>
      </trkpt>
      <trkpt lat="48.70957" lon="7.29295">
        <ele>382.4</ele>
        <time>2020-05-10T14:14:33Z</time>
      </trkpt>
      <trkpt lat="48.70957" lon="7.29294">
        <ele>382.4</ele>
        <time>2020-05-10T14:14:35Z</time>
      </trkpt>
      <trkpt lat="48.70957" lon="7.29294">
        <ele>382.4</ele>
        <time>2020-05-10T14:14:37Z</time>
      </trkpt>
      <trkpt lat="48.70957" lon="7.29293">
        <ele>382.4</ele>
        <time>2020-05-10T14:14:38Z</time>
      </trkpt>
      <trkpt lat="48.70956" lon="7.29292">
        <ele>382.4</ele>
        <time>2020-05-10T14:14:40Z</time>
      </trkpt>
      <trkpt lat="48.70956" lon="7.29292">
        <ele>382.5</ele>
        <time>2020-05-10T14:14:42Z</time>
      </trkpt>
      <trkpt lat="48.70956" lon="7.29291">
        <ele>382.5</ele>
        <time>2020-05-10T14:14:43Z</time>
      </trkpt>
      <trkpt lat="48.70955" lon="7.29289">
        <ele>383.3</ele>
        <time>2020-05-10T14:14:45Z</time>
      </trkpt>
      <trkpt lat="48.70955" lon="7.29287">
        <ele>383.3</ele>
        <time>2020-05-10T14:14:46Z</time>
      </trkpt>
      <trkpt lat="48.70954" lon="7.29285">
        <ele>384.1</ele>
        <time>2020-05-10T14:14:47Z</time>
      </trkpt>
      <trkpt lat="48.70954" lon="7.29281">
        <ele>383.9</ele>
        <time>2020-05-10T14:14:49Z</time>
      </trkpt>
      <trkpt lat="48.70953" lon="7.29278">
        <ele>384</ele>
        <time>2020-05-10T14:14:50Z</time>
      </trkpt>
      <trkpt lat="48.70953" lon="7.29276">
        <ele>384.8</ele>
        <time>2020-05-10T14:14:51Z</time>
      </trkpt>
      <trkpt lat="48.70952" lon="7.29275">
        <ele>384.8</ele>
        <time>2020-05-10T14:14:52Z</time>
      </trkpt>
      <trkpt lat="48.7095" lon="7.29271">
        <ele>384.6</ele>
        <time>2020-05-10T14:14:54Z</time>
      </trkpt>
      <trkpt lat="48.7095" lon="7.2927">
        <ele>384.6</ele>
        <time>2020-05-10T14:14:55Z</time>
      </trkpt>
      <trkpt lat="48.70948" lon="7.29266">
        <ele>384.4</ele>
        <time>2020-05-10T14:14:57Z</time>
      </trkpt>
      <trkpt lat="48.70947" lon="7.29262">
        <ele>385.3</ele>
        <time>2020-05-10T14:14:59Z</time>
      </trkpt>
      <trkpt lat="48.70946" lon="7.29258">
        <ele>386.2</ele>
        <time>2020-05-10T14:15:01Z</time>
      </trkpt>
      <trkpt lat="48.70945" lon="7.29255">
        <ele>385.9</ele>
        <time>2020-05-10T14:15:03Z</time>
      </trkpt>
      <trkpt lat="48.70943" lon="7.29253">
        <ele>385.9</ele>
        <time>2020-05-10T14:15:05Z</time>
      </trkpt>
      <trkpt lat="48.70942" lon="7.29251">
        <ele>385.6</ele>
        <time>2020-05-10T14:15:06Z</time>
      </trkpt>
      <trkpt lat="48.70941" lon="7.29247">
        <ele>386.5</ele>
        <time>2020-05-10T14:15:08Z</time>
      </trkpt>
      <trkpt lat="48.7094" lon="7.29245">
        <ele>386.5</ele>
        <time>2020-05-10T14:15:09Z</time>
      </trkpt>
      <trkpt lat="48.7094" lon="7.2924">
        <ele>386.3</ele>
        <time>2020-05-10T14:15:11Z</time>
      </trkpt>
      <trkpt lat="48.70939" lon="7.29238">
        <ele>387.2</ele>
        <time>2020-05-10T14:15:12Z</time>
      </trkpt>
      <trkpt lat="48.70937" lon="7.29233">
        <ele>387</ele>
        <time>2020-05-10T14:15:14Z</time>
      </trkpt>
      <trkpt lat="48.70931" lon="7.29224">
        <ele>386.8</ele>
        <time>2020-05-10T14:15:16Z</time>
      </trkpt>
      <trkpt lat="48.70925" lon="7.29216">
        <ele>386.5</ele>
        <time>2020-05-10T14:15:18Z</time>
      </trkpt>
      <trkpt lat="48.70923" lon="7.29214">
        <ele>386.5</ele>
        <time>2020-05-10T14:15:19Z</time>
      </trkpt>
      <trkpt lat="48.70919" lon="7.29209">
        <ele>384.6</ele>
        <time>2020-05-10T14:15:21Z</time>
      </trkpt>
      <trkpt lat="48.70918" lon="7.29207">
        <ele>385.5</ele>
        <time>2020-05-10T14:15:22Z</time>
      </trkpt>
      <trkpt lat="48.70915" lon="7.29201">
        <ele>384.9</ele>
        <time>2020-05-10T14:15:24Z</time>
      </trkpt>
      <trkpt lat="48.70914" lon="7.29197">
        <ele>384.2</ele>
        <time>2020-05-10T14:15:25Z</time>
      </trkpt>
      <trkpt lat="48.70912" lon="7.29189">
        <ele>385.8</ele>
        <time>2020-05-10T14:15:27Z</time>
      </trkpt>
      <trkpt lat="48.7091" lon="7.29186">
        <ele>385.1</ele>
        <time>2020-05-10T14:15:28Z</time>
      </trkpt>
      <trkpt lat="48.70906" lon="7.29179">
        <ele>383.9</ele>
        <time>2020-05-10T14:15:30Z</time>
      </trkpt>
      <trkpt lat="48.70902" lon="7.29171">
        <ele>383.4</ele>
        <time>2020-05-10T14:15:32Z</time>
      </trkpt>
      <trkpt lat="48.70901" lon="7.29167">
        <ele>384.2</ele>
        <time>2020-05-10T14:15:33Z</time>
      </trkpt>
      <trkpt lat="48.70898" lon="7.29163">
        <ele>383.7</ele>
        <time>2020-05-10T14:15:35Z</time>
      </trkpt>
      <trkpt lat="48.70894" lon="7.29158">
        <ele>381.7</ele>
        <time>2020-05-10T14:15:37Z</time>
      </trkpt>
      <trkpt lat="48.70893" lon="7.29157">
        <ele>382.5</ele>
        <time>2020-05-10T14:15:38Z</time>
      </trkpt>
      <trkpt lat="48.70892" lon="7.29156">
        <ele>382.5</ele>
        <time>2020-05-10T14:15:40Z</time>
      </trkpt>
      <trkpt lat="48.70892" lon="7.29156">
        <ele>382.5</ele>
        <time>2020-05-10T14:15:42Z</time>
      </trkpt>
      <trkpt lat="48.70892" lon="7.29156">
        <ele>382.5</ele>
        <time>2020-05-10T14:15:43Z</time>
      </trkpt>
      <trkpt lat="48.70892" lon="7.29156">
        <ele>382.6</ele>
        <time>2020-05-10T14:15:44Z</time>
      </trkpt>
      <trkpt lat="48.7089" lon="7.29152">
        <ele>381.7</ele>
        <time>2020-05-10T14:15:46Z</time>
      </trkpt>
      <trkpt lat="48.70889" lon="7.29151">
        <ele>381.7</ele>
        <time>2020-05-10T14:15:47Z</time>
      </trkpt>
      <trkpt lat="48.70888" lon="7.29142">
        <ele>381.4</ele>
        <time>2020-05-10T14:15:49Z</time>
      </trkpt>
      <trkpt lat="48.70885" lon="7.2913">
        <ele>381.6</ele>
        <time>2020-05-10T14:15:51Z</time>
      </trkpt>
      <trkpt lat="48.70883" lon="7.29126">
        <ele>380.6</ele>
        <time>2020-05-10T14:15:52Z</time>
      </trkpt>
      <trkpt lat="48.70881" lon="7.29121">
        <ele>381.2</ele>
        <time>2020-05-10T14:15:53Z</time>
      </trkpt>
      <trkpt lat="48.70877" lon="7.29109">
        <ele>379.4</ele>
        <time>2020-05-10T14:15:55Z</time>
      </trkpt>
      <trkpt lat="48.70875" lon="7.29097">
        <ele>380.1</ele>
        <time>2020-05-10T14:15:57Z</time>
      </trkpt>
      <trkpt lat="48.70875" lon="7.29091">
        <ele>378.6</ele>
        <time>2020-05-10T14:15:58Z</time>
      </trkpt>
      <trkpt lat="48.70874" lon="7.2908">
        <ele>378.5</ele>
        <time>2020-05-10T14:16:00Z</time>
      </trkpt>
      <trkpt lat="48.70873" lon="7.29074">
        <ele>378.2</ele>
        <time>2020-05-10T14:16:01Z</time>
      </trkpt>
      <trkpt lat="48.70874" lon="7.29066">
        <ele>377.6</ele>
        <time>2020-05-10T14:16:02Z</time>
      </trkpt>
      <trkpt lat="48.70874" lon="7.29053">
        <ele>376.5</ele>
        <time>2020-05-10T14:16:04Z</time>
      </trkpt>
      <trkpt lat="48.70874" lon="7.29047">
        <ele>376.1</ele>
        <time>2020-05-10T14:16:05Z</time>
      </trkpt>
      <trkpt lat="48.70874" lon="7.2904">
        <ele>375.1</ele>
        <time>2020-05-10T14:16:06Z</time>
      </trkpt>
      <trkpt lat="48.70875" lon="7.29034">
        <ele>376.2</ele>
        <time>2020-05-10T14:16:07Z</time>
      </trkpt>
      <trkpt lat="48.70877" lon="7.29031">
        <ele>375.7</ele>
        <time>2020-05-10T14:16:08Z</time>
      </trkpt>
      <trkpt lat="48.7088" lon="7.29021">
        <ele>376.2</ele>
        <time>2020-05-10T14:16:10Z</time>
      </trkpt>
      <trkpt lat="48.70882" lon="7.2901">
        <ele>376.4</ele>
        <time>2020-05-10T14:16:12Z</time>
      </trkpt>
      <trkpt lat="48.70883" lon="7.29006">
        <ele>375.9</ele>
        <time>2020-05-10T14:16:13Z</time>
      </trkpt>
      <trkpt lat="48.70885" lon="7.28995">
        <ele>376.6</ele>
        <time>2020-05-10T14:16:15Z</time>
      </trkpt>
      <trkpt lat="48.70889" lon="7.28984">
        <ele>378.3</ele>
        <time>2020-05-10T14:16:17Z</time>
      </trkpt>
      <trkpt lat="48.70891" lon="7.28978">
        <ele>377.5</ele>
        <time>2020-05-10T14:16:18Z</time>
      </trkpt>
      <trkpt lat="48.70893" lon="7.28973">
        <ele>377.6</ele>
        <time>2020-05-10T14:16:19Z</time>
      </trkpt>
      <trkpt lat="48.70898" lon="7.28964">
        <ele>378.8</ele>
        <time>2020-05-10T14:16:21Z</time>
      </trkpt>
      <trkpt lat="48.70901" lon="7.2896">
        <ele>379.3</ele>
        <time>2020-05-10T14:16:22Z</time>
      </trkpt>
      <trkpt lat="48.70907" lon="7.28951">
        <ele>380</ele>
        <time>2020-05-10T14:16:24Z</time>
      </trkpt>
      <trkpt lat="48.7091" lon="7.28945">
        <ele>380.3</ele>
        <time>2020-05-10T14:16:25Z</time>
      </trkpt>
      <trkpt lat="48.70919" lon="7.28921">
        <ele>378</ele>
        <time>2020-05-10T14:16:29Z</time>
      </trkpt>
      <trkpt lat="48.70921" lon="7.28913">
        <ele>377.1</ele>
        <time>2020-05-10T14:16:30Z</time>
      </trkpt>
      <trkpt lat="48.70924" lon="7.28904">
        <ele>375.9</ele>
        <time>2020-05-10T14:16:31Z</time>
      </trkpt>
      <trkpt lat="48.70927" lon="7.28897">
        <ele>375.8</ele>
        <time>2020-05-10T14:16:32Z</time>
      </trkpt>
      <trkpt lat="48.70929" lon="7.2889">
        <ele>373.3</ele>
        <time>2020-05-10T14:16:33Z</time>
      </trkpt>
      <trkpt lat="48.70935" lon="7.2888">
        <ele>374.1</ele>
        <time>2020-05-10T14:16:35Z</time>
      </trkpt>
      <trkpt lat="48.70943" lon="7.28872">
        <ele>376</ele>
        <time>2020-05-10T14:16:37Z</time>
      </trkpt>
      <trkpt lat="48.7095" lon="7.28863">
        <ele>376.7</ele>
        <time>2020-05-10T14:16:39Z</time>
      </trkpt>
      <trkpt lat="48.70953" lon="7.2886">
        <ele>376.9</ele>
        <time>2020-05-10T14:16:40Z</time>
      </trkpt>
      <trkpt lat="48.70957" lon="7.28859">
        <ele>379.2</ele>
        <time>2020-05-10T14:16:41Z</time>
      </trkpt>
      <trkpt lat="48.70963" lon="7.28852">
        <ele>379.4</ele>
        <time>2020-05-10T14:16:43Z</time>
      </trkpt>
      <trkpt lat="48.70966" lon="7.28843">
        <ele>378.5</ele>
        <time>2020-05-10T14:16:44Z</time>
      </trkpt>
      <trkpt lat="48.70971" lon="7.28831">
        <ele>378.3</ele>
        <time>2020-05-10T14:16:46Z</time>
      </trkpt>
      <trkpt lat="48.70974" lon="7.28817">
        <ele>376.2</ele>
        <time>2020-05-10T14:16:48Z</time>
      </trkpt>
      <trkpt lat="48.70973" lon="7.2881">
        <ele>375.5</ele>
        <time>2020-05-10T14:16:49Z</time>
      </trkpt>
      <trkpt lat="48.70973" lon="7.28797">
        <ele>373.5</ele>
        <time>2020-05-10T14:16:51Z</time>
      </trkpt>
      <trkpt lat="48.70975" lon="7.2879">
        <ele>373.6</ele>
        <time>2020-05-10T14:16:52Z</time>
      </trkpt>
      <trkpt lat="48.70976" lon="7.28782">
        <ele>372.4</ele>
        <time>2020-05-10T14:16:53Z</time>
      </trkpt>
      <trkpt lat="48.70979" lon="7.28767">
        <ele>371.9</ele>
        <time>2020-05-10T14:16:55Z</time>
      </trkpt>
      <trkpt lat="48.70982" lon="7.28759">
        <ele>372.2</ele>
        <time>2020-05-10T14:16:57Z</time>
      </trkpt>
      <trkpt lat="48.70982" lon="7.28755">
        <ele>371.9</ele>
        <time>2020-05-10T14:16:58Z</time>
      </trkpt>
      <trkpt lat="48.70981" lon="7.2875">
        <ele>371.3</ele>
        <time>2020-05-10T14:16:59Z</time>
      </trkpt>
      <trkpt lat="48.7098" lon="7.28742">
        <ele>371.1</ele>
        <time>2020-05-10T14:17:01Z</time>
      </trkpt>
      <trkpt lat="48.7098" lon="7.28736">
        <ele>370.6</ele>
        <time>2020-05-10T14:17:02Z</time>
      </trkpt>
      <trkpt lat="48.70981" lon="7.28731">
        <ele>370.4</ele>
        <time>2020-05-10T14:17:04Z</time>
      </trkpt>
      <trkpt lat="48.70982" lon="7.2873">
        <ele>370.4</ele>
        <time>2020-05-10T14:17:06Z</time>
      </trkpt>
      <trkpt lat="48.70982" lon="7.28729">
        <ele>370.5</ele>
        <time>2020-05-10T14:17:08Z</time>
      </trkpt>
      <trkpt lat="48.70982" lon="7.28728">
        <ele>370.5</ele>
        <time>2020-05-10T14:17:09Z</time>
      </trkpt>
      <trkpt lat="48.70983" lon="7.28727">
        <ele>371.3</ele>
        <time>2020-05-10T14:17:11Z</time>
      </trkpt>
      <trkpt lat="48.70983" lon="7.28727">
        <ele>371.3</ele>
        <time>2020-05-10T14:17:12Z</time>
      </trkpt>
      <trkpt lat="48.70983" lon="7.28726">
        <ele>371.3</ele>
        <time>2020-05-10T14:17:14Z</time>
      </trkpt>
      <trkpt lat="48.70984" lon="7.28725">
        <ele>371.4</ele>
        <time>2020-05-10T14:17:16Z</time>
      </trkpt>
      <trkpt lat="48.70984" lon="7.28724">
        <ele>371.1</ele>
        <time>2020-05-10T14:17:18Z</time>
      </trkpt>
      <trkpt lat="48.70984" lon="7.28723">
        <ele>371.1</ele>
        <time>2020-05-10T14:17:20Z</time>
      </trkpt>
      <trkpt lat="48.70985" lon="7.28722">
        <ele>371.1</ele>
        <time>2020-05-10T14:17:21Z</time>
      </trkpt>
      <trkpt lat="48.70985" lon="7.28717">
        <ele>370.9</ele>
        <time>2020-05-10T14:17:23Z</time>
      </trkpt>
      <trkpt lat="48.70985" lon="7.28712">
        <ele>370.7</ele>
        <time>2020-05-10T14:17:25Z</time>
      </trkpt>
      <trkpt lat="48.70985" lon="7.28709">
        <ele>371.5</ele>
        <time>2020-05-10T14:17:26Z</time>
      </trkpt>
      <trkpt lat="48.70984" lon="7.28703">
        <ele>370.5</ele>
        <time>2020-05-10T14:17:28Z</time>
      </trkpt>
      <trkpt lat="48.70983" lon="7.28693">
        <ele>370.6</ele>
        <time>2020-05-10T14:17:30Z</time>
      </trkpt>
      <trkpt lat="48.70982" lon="7.28688">
        <ele>369.7</ele>
        <time>2020-05-10T14:17:31Z</time>
      </trkpt>
      <trkpt lat="48.70981" lon="7.28681">
        <ele>369.8</ele>
        <time>2020-05-10T14:17:33Z</time>
      </trkpt>
      <trkpt lat="48.7098" lon="7.28675">
        <ele>370</ele>
        <time>2020-05-10T14:17:35Z</time>
      </trkpt>
      <trkpt lat="48.70979" lon="7.2867">
        <ele>369</ele>
        <time>2020-05-10T14:17:36Z</time>
      </trkpt>
      <trkpt lat="48.70977" lon="7.28665">
        <ele>369.1</ele>
        <time>2020-05-10T14:17:38Z</time>
      </trkpt>
      <trkpt lat="48.70975" lon="7.28661">
        <ele>368</ele>
        <time>2020-05-10T14:17:40Z</time>
      </trkpt>
      <trkpt lat="48.70974" lon="7.28658">
        <ele>366.9</ele>
        <time>2020-05-10T14:17:42Z</time>
      </trkpt>
      <trkpt lat="48.70974" lon="7.28655">
        <ele>366.9</ele>
        <time>2020-05-10T14:17:44Z</time>
      </trkpt>
      <trkpt lat="48.70974" lon="7.28653">
        <ele>368.1</ele>
        <time>2020-05-10T14:17:46Z</time>
      </trkpt>
      <trkpt lat="48.70973" lon="7.28651">
        <ele>366.9</ele>
        <time>2020-05-10T14:17:48Z</time>
      </trkpt>
      <trkpt lat="48.70973" lon="7.28651">
        <ele>367</ele>
        <time>2020-05-10T14:17:50Z</time>
      </trkpt>
      <trkpt lat="48.70972" lon="7.2865">
        <ele>367</ele>
        <time>2020-05-10T14:17:51Z</time>
      </trkpt>
      <trkpt lat="48.70971" lon="7.28649">
        <ele>367</ele>
        <time>2020-05-10T14:17:53Z</time>
      </trkpt>
      <trkpt lat="48.70972" lon="7.28647">
        <ele>367.1</ele>
        <time>2020-05-10T14:17:55Z</time>
      </trkpt>
      <trkpt lat="48.70971" lon="7.28646">
        <ele>367.1</ele>
        <time>2020-05-10T14:17:56Z</time>
      </trkpt>
      <trkpt lat="48.70971" lon="7.28644">
        <ele>365.9</ele>
        <time>2020-05-10T14:17:57Z</time>
      </trkpt>
      <trkpt lat="48.7097" lon="7.28636">
        <ele>366.1</ele>
        <time>2020-05-10T14:17:59Z</time>
      </trkpt>
      <trkpt lat="48.7097" lon="7.28631">
        <ele>366.3</ele>
        <time>2020-05-10T14:18:01Z</time>
      </trkpt>
      <trkpt lat="48.70971" lon="7.28627">
        <ele>366.5</ele>
        <time>2020-05-10T14:18:02Z</time>
      </trkpt>
      <trkpt lat="48.70971" lon="7.28623">
        <ele>367.9</ele>
        <time>2020-05-10T14:18:04Z</time>
      </trkpt>
      <trkpt lat="48.70972" lon="7.28619">
        <ele>368.2</ele>
        <time>2020-05-10T14:18:06Z</time>
      </trkpt>
      <trkpt lat="48.70974" lon="7.28615">
        <ele>368.5</ele>
        <time>2020-05-10T14:18:08Z</time>
      </trkpt>
      <trkpt lat="48.70974" lon="7.28615">
        <ele>368.5</ele>
        <time>2020-05-10T14:18:09Z</time>
      </trkpt>
      <trkpt lat="48.70974" lon="7.28613">
        <ele>369.7</ele>
        <time>2020-05-10T14:18:11Z</time>
      </trkpt>
      <trkpt lat="48.70973" lon="7.2861">
        <ele>368.9</ele>
        <time>2020-05-10T14:18:13Z</time>
      </trkpt>
      <trkpt lat="48.70973" lon="7.28607">
        <ele>369.3</ele>
        <time>2020-05-10T14:18:15Z</time>
      </trkpt>
      <trkpt lat="48.70973" lon="7.28605">
        <ele>369.3</ele>
        <time>2020-05-10T14:18:17Z</time>
      </trkpt>
      <trkpt lat="48.70973" lon="7.28603">
        <ele>369.7</ele>
        <time>2020-05-10T14:18:19Z</time>
      </trkpt>
      <trkpt lat="48.70974" lon="7.28601">
        <ele>369.7</ele>
        <time>2020-05-10T14:18:20Z</time>
      </trkpt>
      <trkpt lat="48.70974" lon="7.28598">
        <ele>370.2</ele>
        <time>2020-05-10T14:18:21Z</time>
      </trkpt>
      <trkpt lat="48.70974" lon="7.28596">
        <ele>371.3</ele>
        <time>2020-05-10T14:18:22Z</time>
      </trkpt>
      <trkpt lat="48.70973" lon="7.28591">
        <ele>370.8</ele>
        <time>2020-05-10T14:18:24Z</time>
      </trkpt>
      <trkpt lat="48.70973" lon="7.28591">
        <ele>371.4</ele>
        <time>2020-05-10T14:18:25Z</time>
      </trkpt>
      <trkpt lat="48.7097" lon="7.28584">
        <ele>371.1</ele>
        <time>2020-05-10T14:18:27Z</time>
      </trkpt>
      <trkpt lat="48.70969" lon="7.28581">
        <ele>371.8</ele>
        <time>2020-05-10T14:18:29Z</time>
      </trkpt>
      <trkpt lat="48.70968" lon="7.28579">
        <ele>371.8</ele>
        <time>2020-05-10T14:18:30Z</time>
      </trkpt>
      <trkpt lat="48.70967" lon="7.28576">
        <ele>371.5</ele>
        <time>2020-05-10T14:18:31Z</time>
      </trkpt>
      <trkpt lat="48.70965" lon="7.28573">
        <ele>371.2</ele>
        <time>2020-05-10T14:18:32Z</time>
      </trkpt>
      <trkpt lat="48.70965" lon="7.28572">
        <ele>371.2</ele>
        <time>2020-05-10T14:18:33Z</time>
      </trkpt>
      <trkpt lat="48.70961" lon="7.28567">
        <ele>370.8</ele>
        <time>2020-05-10T14:18:35Z</time>
      </trkpt>
      <trkpt lat="48.70959" lon="7.28565">
        <ele>370.3</ele>
        <time>2020-05-10T14:18:36Z</time>
      </trkpt>
      <trkpt lat="48.70953" lon="7.28559">
        <ele>368.9</ele>
        <time>2020-05-10T14:18:38Z</time>
      </trkpt>
      <trkpt lat="48.70948" lon="7.28553">
        <ele>367.4</ele>
        <time>2020-05-10T14:18:40Z</time>
      </trkpt>
      <trkpt lat="48.70946" lon="7.2855">
        <ele>367.1</ele>
        <time>2020-05-10T14:18:41Z</time>
      </trkpt>
      <trkpt lat="48.70945" lon="7.28549">
        <ele>367.1</ele>
        <time>2020-05-10T14:18:42Z</time>
      </trkpt>
      <trkpt lat="48.7094" lon="7.28545">
        <ele>366.9</ele>
        <time>2020-05-10T14:18:44Z</time>
      </trkpt>
      <trkpt lat="48.70936" lon="7.28542">
        <ele>365.9</ele>
        <time>2020-05-10T14:18:45Z</time>
      </trkpt>
      <trkpt lat="48.70935" lon="7.28542">
        <ele>366</ele>
        <time>2020-05-10T14:18:46Z</time>
      </trkpt>
      <trkpt lat="48.70932" lon="7.28542">
        <ele>365.1</ele>
        <time>2020-05-10T14:18:47Z</time>
      </trkpt>
      <trkpt lat="48.70926" lon="7.28539">
        <ele>364.5</ele>
        <time>2020-05-10T14:18:49Z</time>
      </trkpt>
      <trkpt lat="48.70923" lon="7.28537">
        <ele>362.7</ele>
        <time>2020-05-10T14:18:50Z</time>
      </trkpt>
      <trkpt lat="48.70921" lon="7.28537">
        <ele>362.7</ele>
        <time>2020-05-10T14:18:51Z</time>
      </trkpt>
      <trkpt lat="48.70918" lon="7.28536">
        <ele>361.8</ele>
        <time>2020-05-10T14:18:52Z</time>
      </trkpt>
      <trkpt lat="48.70913" lon="7.28533">
        <ele>361.2</ele>
        <time>2020-05-10T14:18:54Z</time>
      </trkpt>
      <trkpt lat="48.70909" lon="7.28532">
        <ele>360.5</ele>
        <time>2020-05-10T14:18:55Z</time>
      </trkpt>
      <trkpt lat="48.70908" lon="7.28531">
        <ele>359.9</ele>
        <time>2020-05-10T14:18:56Z</time>
      </trkpt>
      <trkpt lat="48.70905" lon="7.2853">
        <ele>360.5</ele>
        <time>2020-05-10T14:18:58Z</time>
      </trkpt>
      <trkpt lat="48.709" lon="7.28529">
        <ele>359.6</ele>
        <time>2020-05-10T14:19:00Z</time>
      </trkpt>
      <trkpt lat="48.70896" lon="7.28527">
        <ele>359.2</ele>
        <time>2020-05-10T14:19:02Z</time>
      </trkpt>
      <trkpt lat="48.70894" lon="7.28526">
        <ele>360.1</ele>
        <time>2020-05-10T14:19:03Z</time>
      </trkpt>
      <trkpt lat="48.7089" lon="7.28525">
        <ele>359.9</ele>
        <time>2020-05-10T14:19:05Z</time>
      </trkpt>
      <trkpt lat="48.70887" lon="7.28522">
        <ele>360.9</ele>
        <time>2020-05-10T14:19:06Z</time>
      </trkpt>
      <trkpt lat="48.70881" lon="7.2852">
        <ele>360.7</ele>
        <time>2020-05-10T14:19:08Z</time>
      </trkpt>
      <trkpt lat="48.70877" lon="7.2852">
        <ele>360.7</ele>
        <time>2020-05-10T14:19:09Z</time>
      </trkpt>
      <trkpt lat="48.70868" lon="7.28521">
        <ele>361.1</ele>
        <time>2020-05-10T14:19:11Z</time>
      </trkpt>
      <trkpt lat="48.7086" lon="7.28523">
        <ele>360.4</ele>
        <time>2020-05-10T14:19:13Z</time>
      </trkpt>
      <trkpt lat="48.70853" lon="7.28525">
        <ele>360.9</ele>
        <time>2020-05-10T14:19:15Z</time>
      </trkpt>
      <trkpt lat="48.70849" lon="7.28526">
        <ele>361.5</ele>
        <time>2020-05-10T14:19:16Z</time>
      </trkpt>
      <trkpt lat="48.70844" lon="7.28528">
        <ele>360.6</ele>
        <time>2020-05-10T14:19:17Z</time>
      </trkpt>
      <trkpt lat="48.70837" lon="7.28531">
        <ele>361.6</ele>
        <time>2020-05-10T14:19:19Z</time>
      </trkpt>
      <trkpt lat="48.70833" lon="7.28532">
        <ele>360.5</ele>
        <time>2020-05-10T14:19:20Z</time>
      </trkpt>
      <trkpt lat="48.70827" lon="7.28535">
        <ele>361</ele>
        <time>2020-05-10T14:19:22Z</time>
      </trkpt>
      <trkpt lat="48.70824" lon="7.28535">
        <ele>361.4</ele>
        <time>2020-05-10T14:19:23Z</time>
      </trkpt>
      <trkpt lat="48.70817" lon="7.28536">
        <ele>360.3</ele>
        <time>2020-05-10T14:19:25Z</time>
      </trkpt>
      <trkpt lat="48.70811" lon="7.28537">
        <ele>360.5</ele>
        <time>2020-05-10T14:19:27Z</time>
      </trkpt>
      <trkpt lat="48.70808" lon="7.28538">
        <ele>360.6</ele>
        <time>2020-05-10T14:19:28Z</time>
      </trkpt>
      <trkpt lat="48.70803" lon="7.28539">
        <ele>360.8</ele>
        <time>2020-05-10T14:19:29Z</time>
      </trkpt>
      <trkpt lat="48.70799" lon="7.2854">
        <ele>359.6</ele>
        <time>2020-05-10T14:19:30Z</time>
      </trkpt>
      <trkpt lat="48.70794" lon="7.28543">
        <ele>359.8</ele>
        <time>2020-05-10T14:19:31Z</time>
      </trkpt>
      <trkpt lat="48.70789" lon="7.28545">
        <ele>359</ele>
        <time>2020-05-10T14:19:32Z</time>
      </trkpt>
      <trkpt lat="48.70784" lon="7.28547">
        <ele>359.2</ele>
        <time>2020-05-10T14:19:34Z</time>
      </trkpt>
      <trkpt lat="48.70783" lon="7.28548">
        <ele>358.4</ele>
        <time>2020-05-10T14:19:35Z</time>
      </trkpt>
      <trkpt lat="48.70776" lon="7.28551">
        <ele>358.8</ele>
        <time>2020-05-10T14:19:37Z</time>
      </trkpt>
      <trkpt lat="48.70772" lon="7.28552">
        <ele>359.3</ele>
        <time>2020-05-10T14:19:38Z</time>
      </trkpt>
      <trkpt lat="48.7077" lon="7.28552">
        <ele>359.6</ele>
        <time>2020-05-10T14:19:39Z</time>
      </trkpt>
      <trkpt lat="48.70762" lon="7.28554">
        <ele>359</ele>
        <time>2020-05-10T14:19:41Z</time>
      </trkpt>
      <trkpt lat="48.70753" lon="7.28556">
        <ele>359.6</ele>
        <time>2020-05-10T14:19:43Z</time>
      </trkpt>
      <trkpt lat="48.70748" lon="7.28555">
        <ele>359.8</ele>
        <time>2020-05-10T14:19:44Z</time>
      </trkpt>
      <trkpt lat="48.70744" lon="7.28555">
        <ele>360</ele>
        <time>2020-05-10T14:19:45Z</time>
      </trkpt>
      <trkpt lat="48.70739" lon="7.28556">
        <ele>360</ele>
        <time>2020-05-10T14:19:47Z</time>
      </trkpt>
      <trkpt lat="48.70735" lon="7.28556">
        <ele>360</ele>
        <time>2020-05-10T14:19:49Z</time>
      </trkpt>
      <trkpt lat="48.70733" lon="7.28555">
        <ele>359.9</ele>
        <time>2020-05-10T14:19:50Z</time>
      </trkpt>
      <trkpt lat="48.70728" lon="7.28553">
        <ele>359.6</ele>
        <time>2020-05-10T14:19:52Z</time>
      </trkpt>
      <trkpt lat="48.70725" lon="7.28553">
        <ele>359.4</ele>
        <time>2020-05-10T14:19:53Z</time>
      </trkpt>
      <trkpt lat="48.70721" lon="7.28552">
        <ele>359.9</ele>
        <time>2020-05-10T14:19:54Z</time>
      </trkpt>
      <trkpt lat="48.70713" lon="7.28549">
        <ele>358.8</ele>
        <time>2020-05-10T14:19:56Z</time>
      </trkpt>
      <trkpt lat="48.7071" lon="7.28546">
        <ele>359</ele>
        <time>2020-05-10T14:19:57Z</time>
      </trkpt>
      <trkpt lat="48.70704" lon="7.28542">
        <ele>358.8</ele>
        <time>2020-05-10T14:19:59Z</time>
      </trkpt>
      <trkpt lat="48.70699" lon="7.28538">
        <ele>358.3</ele>
        <time>2020-05-10T14:20:01Z</time>
      </trkpt>
      <trkpt lat="48.70694" lon="7.28532">
        <ele>358.3</ele>
        <time>2020-05-10T14:20:03Z</time>
      </trkpt>
      <trkpt lat="48.70693" lon="7.28529">
        <ele>358.1</ele>
        <time>2020-05-10T14:20:04Z</time>
      </trkpt>
      <trkpt lat="48.70688" lon="7.28522">
        <ele>358.4</ele>
        <time>2020-05-10T14:20:06Z</time>
      </trkpt>
      <trkpt lat="48.70686" lon="7.28519">
        <ele>357.6</ele>
        <time>2020-05-10T14:20:07Z</time>
      </trkpt>
      <trkpt lat="48.70681" lon="7.28513">
        <ele>357</ele>
        <time>2020-05-10T14:20:09Z</time>
      </trkpt>
      <trkpt lat="48.7068" lon="7.2851">
        <ele>357</ele>
        <time>2020-05-10T14:20:10Z</time>
      </trkpt>
      <trkpt lat="48.70678" lon="7.28503">
        <ele>357.1</ele>
        <time>2020-05-10T14:20:12Z</time>
      </trkpt>
      <trkpt lat="48.70678" lon="7.28497">
        <ele>357.7</ele>
        <time>2020-05-10T14:20:13Z</time>
      </trkpt>
      <trkpt lat="48.70677" lon="7.2849">
        <ele>358.8</ele>
        <time>2020-05-10T14:20:15Z</time>
      </trkpt>
      <trkpt lat="48.70677" lon="7.2849">
        <ele>358.8</ele>
        <time>2020-05-10T14:20:17Z</time>
      </trkpt>
      <trkpt lat="48.70677" lon="7.28492">
        <ele>358.8</ele>
        <time>2020-05-10T14:20:19Z</time>
      </trkpt>
      <trkpt lat="48.70677" lon="7.28492">
        <ele>358.3</ele>
        <time>2020-05-10T14:20:20Z</time>
      </trkpt>
      <trkpt lat="48.70676" lon="7.28493">
        <ele>357.3</ele>
        <time>2020-05-10T14:20:22Z</time>
      </trkpt>
      <trkpt lat="48.70676" lon="7.28493">
        <ele>357.4</ele>
        <time>2020-05-10T14:20:24Z</time>
      </trkpt>
      <trkpt lat="48.70676" lon="7.28493">
        <ele>357.4</ele>
        <time>2020-05-10T14:20:25Z</time>
      </trkpt>
      <trkpt lat="48.70676" lon="7.28493">
        <ele>357.4</ele>
        <time>2020-05-10T14:20:26Z</time>
      </trkpt>
      <trkpt lat="48.70676" lon="7.28493">
        <ele>357.4</ele>
        <time>2020-05-10T14:20:28Z</time>
      </trkpt>
      <trkpt lat="48.70676" lon="7.28493">
        <ele>357.4</ele>
        <time>2020-05-10T14:20:29Z</time>
      </trkpt>
      <trkpt lat="48.70676" lon="7.28493">
        <ele>357.5</ele>
        <time>2020-05-10T14:20:31Z</time>
      </trkpt>
      <trkpt lat="48.70672" lon="7.28486">
        <ele>357.4</ele>
        <time>2020-05-10T14:20:42Z</time>
      </trkpt>
      <trkpt lat="48.70671" lon="7.28483">
        <ele>357.9</ele>
        <time>2020-05-10T14:20:43Z</time>
      </trkpt>
      <trkpt lat="48.7067" lon="7.28476">
        <ele>357.3</ele>
        <time>2020-05-10T14:20:45Z</time>
      </trkpt>
      <trkpt lat="48.70667" lon="7.28468">
        <ele>356.9</ele>
        <time>2020-05-10T14:20:47Z</time>
      </trkpt>
      <trkpt lat="48.70665" lon="7.28466">
        <ele>356.1</ele>
        <time>2020-05-10T14:20:49Z</time>
      </trkpt>
      <trkpt lat="48.70665" lon="7.28467">
        <ele>355.8</ele>
        <time>2020-05-10T14:20:50Z</time>
      </trkpt>
      <trkpt lat="48.70665" lon="7.28467">
        <ele>355.8</ele>
        <time>2020-05-10T14:20:51Z</time>
      </trkpt>
      <trkpt lat="48.70664" lon="7.28467">
        <ele>355.8</ele>
        <time>2020-05-10T14:20:52Z</time>
      </trkpt>
      <trkpt lat="48.70664" lon="7.28465">
        <ele>356.2</ele>
        <time>2020-05-10T14:20:54Z</time>
      </trkpt>
      <trkpt lat="48.70665" lon="7.28464">
        <ele>356.2</ele>
        <time>2020-05-10T14:20:55Z</time>
      </trkpt>
      <trkpt lat="48.70666" lon="7.28463">
        <ele>357.5</ele>
        <time>2020-05-10T14:20:57Z</time>
      </trkpt>
      <trkpt lat="48.70666" lon="7.28463">
        <ele>357.5</ele>
        <time>2020-05-10T14:20:58Z</time>
      </trkpt>
      <trkpt lat="48.70666" lon="7.28463">
        <ele>357.5</ele>
        <time>2020-05-10T14:21:00Z</time>
      </trkpt>
      <trkpt lat="48.70665" lon="7.28461">
        <ele>356.7</ele>
        <time>2020-05-10T14:21:02Z</time>
      </trkpt>
      <trkpt lat="48.70664" lon="7.28459">
        <ele>356.7</ele>
        <time>2020-05-10T14:21:03Z</time>
      </trkpt>
      <trkpt lat="48.70662" lon="7.2845">
        <ele>356.4</ele>
        <time>2020-05-10T14:21:05Z</time>
      </trkpt>
      <trkpt lat="48.7066" lon="7.28443">
        <ele>357.1</ele>
        <time>2020-05-10T14:21:06Z</time>
      </trkpt>
      <trkpt lat="48.70656" lon="7.28428">
        <ele>355.5</ele>
        <time>2020-05-10T14:21:08Z</time>
      </trkpt>
      <trkpt lat="48.70654" lon="7.28422">
        <ele>355.7</ele>
        <time>2020-05-10T14:21:09Z</time>
      </trkpt>
      <trkpt lat="48.70649" lon="7.28409">
        <ele>353.4</ele>
        <time>2020-05-10T14:21:11Z</time>
      </trkpt>
      <trkpt lat="48.70645" lon="7.28395">
        <ele>351.3</ele>
        <time>2020-05-10T14:21:13Z</time>
      </trkpt>
      <trkpt lat="48.70644" lon="7.28389">
        <ele>351.5</ele>
        <time>2020-05-10T14:21:14Z</time>
      </trkpt>
      <trkpt lat="48.70645" lon="7.28377">
        <ele>351.8</ele>
        <time>2020-05-10T14:21:16Z</time>
      </trkpt>
      <trkpt lat="48.70643" lon="7.28363">
        <ele>351.5</ele>
        <time>2020-05-10T14:21:18Z</time>
      </trkpt>
      <trkpt lat="48.70641" lon="7.28356">
        <ele>350.1</ele>
        <time>2020-05-10T14:21:19Z</time>
      </trkpt>
      <trkpt lat="48.70639" lon="7.28341">
        <ele>348.1</ele>
        <time>2020-05-10T14:21:21Z</time>
      </trkpt>
      <trkpt lat="48.70641" lon="7.28325">
        <ele>348.3</ele>
        <time>2020-05-10T14:21:23Z</time>
      </trkpt>
      <trkpt lat="48.70642" lon="7.28305">
        <ele>349.1</ele>
        <time>2020-05-10T14:21:25Z</time>
      </trkpt>
      <trkpt lat="48.70643" lon="7.28286">
        <ele>350.3</ele>
        <time>2020-05-10T14:21:27Z</time>
      </trkpt>
      <trkpt lat="48.70643" lon="7.28278">
        <ele>350.8</ele>
        <time>2020-05-10T14:21:28Z</time>
      </trkpt>
      <trkpt lat="48.70642" lon="7.2827">
        <ele>351.2</ele>
        <time>2020-05-10T14:21:29Z</time>
      </trkpt>
      <trkpt lat="48.70644" lon="7.28255">
        <ele>352.1</ele>
        <time>2020-05-10T14:21:31Z</time>
      </trkpt>
      <trkpt lat="48.70647" lon="7.28237">
        <ele>352.9</ele>
        <time>2020-05-10T14:21:33Z</time>
      </trkpt>
      <trkpt lat="48.70649" lon="7.28219">
        <ele>353.6</ele>
        <time>2020-05-10T14:21:35Z</time>
      </trkpt>
      <trkpt lat="48.70654" lon="7.28206">
        <ele>354</ele>
        <time>2020-05-10T14:21:37Z</time>
      </trkpt>
      <trkpt lat="48.70661" lon="7.28197">
        <ele>354.3</ele>
        <time>2020-05-10T14:21:39Z</time>
      </trkpt>
      <trkpt lat="48.70666" lon="7.28189">
        <ele>354.6</ele>
        <time>2020-05-10T14:21:41Z</time>
      </trkpt>
      <trkpt lat="48.70668" lon="7.28186">
        <ele>354.7</ele>
        <time>2020-05-10T14:21:42Z</time>
      </trkpt>
      <trkpt lat="48.70674" lon="7.2818">
        <ele>355</ele>
        <time>2020-05-10T14:21:44Z</time>
      </trkpt>
      <trkpt lat="48.70677" lon="7.28174">
        <ele>355.2</ele>
        <time>2020-05-10T14:21:46Z</time>
      </trkpt>
      <trkpt lat="48.70678" lon="7.28169">
        <ele>355.4</ele>
        <time>2020-05-10T14:21:47Z</time>
      </trkpt>
      <trkpt lat="48.7068" lon="7.2816">
        <ele>355.7</ele>
        <time>2020-05-10T14:21:49Z</time>
      </trkpt>
      <trkpt lat="48.70681" lon="7.28155">
        <ele>355.8</ele>
        <time>2020-05-10T14:21:50Z</time>
      </trkpt>
      <trkpt lat="48.70684" lon="7.28148">
        <ele>356.1</ele>
        <time>2020-05-10T14:21:52Z</time>
      </trkpt>
      <trkpt lat="48.70688" lon="7.28139">
        <ele>356.4</ele>
        <time>2020-05-10T14:21:54Z</time>
      </trkpt>
      <trkpt lat="48.70692" lon="7.28133">
        <ele>356.7</ele>
        <time>2020-05-10T14:21:56Z</time>
      </trkpt>
      <trkpt lat="48.70695" lon="7.28124">
        <ele>357</ele>
        <time>2020-05-10T14:21:58Z</time>
      </trkpt>
      <trkpt lat="48.70699" lon="7.28113">
        <ele>357.4</ele>
        <time>2020-05-10T14:22:00Z</time>
      </trkpt>
      <trkpt lat="48.707" lon="7.28109">
        <ele>357.5</ele>
        <time>2020-05-10T14:22:01Z</time>
      </trkpt>
      <trkpt lat="48.70703" lon="7.28102">
        <ele>357.9</ele>
        <time>2020-05-10T14:22:03Z</time>
      </trkpt>
      <trkpt lat="48.70706" lon="7.28098">
        <ele>358.1</ele>
        <time>2020-05-10T14:22:04Z</time>
      </trkpt>
      <trkpt lat="48.70708" lon="7.28093">
        <ele>358.4</ele>
        <time>2020-05-10T14:22:05Z</time>
      </trkpt>
      <trkpt lat="48.70713" lon="7.28086">
        <ele>358.8</ele>
        <time>2020-05-10T14:22:07Z</time>
      </trkpt>
      <trkpt lat="48.70718" lon="7.28079">
        <ele>359.2</ele>
        <time>2020-05-10T14:22:09Z</time>
      </trkpt>
      <trkpt lat="48.70722" lon="7.28072">
        <ele>359.7</ele>
        <time>2020-05-10T14:22:11Z</time>
      </trkpt>
      <trkpt lat="48.70724" lon="7.28069">
        <ele>359.8</ele>
        <time>2020-05-10T14:22:12Z</time>
      </trkpt>
      <trkpt lat="48.70729" lon="7.28062">
        <ele>360.1</ele>
        <time>2020-05-10T14:22:14Z</time>
      </trkpt>
      <trkpt lat="48.70731" lon="7.2806">
        <ele>360.3</ele>
        <time>2020-05-10T14:22:15Z</time>
      </trkpt>
      <trkpt lat="48.70736" lon="7.28053">
        <ele>360.6</ele>
        <time>2020-05-10T14:22:17Z</time>
      </trkpt>
      <trkpt lat="48.70741" lon="7.28047">
        <ele>361</ele>
        <time>2020-05-10T14:22:19Z</time>
      </trkpt>
      <trkpt lat="48.70745" lon="7.28039">
        <ele>361.3</ele>
        <time>2020-05-10T14:22:21Z</time>
      </trkpt>
      <trkpt lat="48.70747" lon="7.28034">
        <ele>361.5</ele>
        <time>2020-05-10T14:22:22Z</time>
      </trkpt>
      <trkpt lat="48.70749" lon="7.28031">
        <ele>361.6</ele>
        <time>2020-05-10T14:22:23Z</time>
      </trkpt>
      <trkpt lat="48.70753" lon="7.28024">
        <ele>361.9</ele>
        <time>2020-05-10T14:22:25Z</time>
      </trkpt>
      <trkpt lat="48.70756" lon="7.28018">
        <ele>362.1</ele>
        <time>2020-05-10T14:22:27Z</time>
      </trkpt>
      <trkpt lat="48.70759" lon="7.28014">
        <ele>362.2</ele>
        <time>2020-05-10T14:22:29Z</time>
      </trkpt>
      <trkpt lat="48.70762" lon="7.28012">
        <ele>362.3</ele>
        <time>2020-05-10T14:22:30Z</time>
      </trkpt>
      <trkpt lat="48.70766" lon="7.28005">
        <ele>362.5</ele>
        <time>2020-05-10T14:22:32Z</time>
      </trkpt>
      <trkpt lat="48.70768" lon="7.28001">
        <ele>362.6</ele>
        <time>2020-05-10T14:22:33Z</time>
      </trkpt>
      <trkpt lat="48.70771" lon="7.27992">
        <ele>363</ele>
        <time>2020-05-10T14:22:35Z</time>
      </trkpt>
      <trkpt lat="48.70774" lon="7.27986">
        <ele>363.4</ele>
        <time>2020-05-10T14:22:37Z</time>
      </trkpt>
      <trkpt lat="48.7078" lon="7.27981">
        <ele>363.9</ele>
        <time>2020-05-10T14:22:39Z</time>
      </trkpt>
      <trkpt lat="48.70782" lon="7.27979">
        <ele>364.2</ele>
        <time>2020-05-10T14:22:40Z</time>
      </trkpt>
      <trkpt lat="48.70784" lon="7.27976">
        <ele>364.4</ele>
        <time>2020-05-10T14:22:41Z</time>
      </trkpt>
      <trkpt lat="48.70789" lon="7.2797">
        <ele>364.9</ele>
        <time>2020-05-10T14:22:43Z</time>
      </trkpt>
      <trkpt lat="48.70791" lon="7.27967">
        <ele>365.1</ele>
        <time>2020-05-10T14:22:44Z</time>
      </trkpt>
      <trkpt lat="48.70795" lon="7.2796">
        <ele>365.4</ele>
        <time>2020-05-10T14:22:46Z</time>
      </trkpt>
      <trkpt lat="48.70797" lon="7.27957">
        <ele>365.6</ele>
        <time>2020-05-10T14:22:47Z</time>
      </trkpt>
      <trkpt lat="48.70801" lon="7.27949">
        <ele>365.8</ele>
        <time>2020-05-10T14:22:49Z</time>
      </trkpt>
      <trkpt lat="48.70803" lon="7.27946">
        <ele>365.9</ele>
        <time>2020-05-10T14:22:50Z</time>
      </trkpt>
      <trkpt lat="48.70805" lon="7.27938">
        <ele>366</ele>
        <time>2020-05-10T14:22:52Z</time>
      </trkpt>
      <trkpt lat="48.7081" lon="7.27931">
        <ele>366.1</ele>
        <time>2020-05-10T14:22:54Z</time>
      </trkpt>
      <trkpt lat="48.70811" lon="7.27927">
        <ele>366.1</ele>
        <time>2020-05-10T14:22:55Z</time>
      </trkpt>
      <trkpt lat="48.70811" lon="7.27925">
        <ele>366.1</ele>
        <time>2020-05-10T14:22:56Z</time>
      </trkpt>
      <trkpt lat="48.70813" lon="7.27917">
        <ele>366.1</ele>
        <time>2020-05-10T14:22:58Z</time>
      </trkpt>
      <trkpt lat="48.70816" lon="7.27909">
        <ele>366.1</ele>
        <time>2020-05-10T14:23:00Z</time>
      </trkpt>
      <trkpt lat="48.70818" lon="7.27904">
        <ele>366.1</ele>
        <time>2020-05-10T14:23:01Z</time>
      </trkpt>
      <trkpt lat="48.70822" lon="7.27895">
        <ele>366.3</ele>
        <time>2020-05-10T14:23:03Z</time>
      </trkpt>
      <trkpt lat="48.70823" lon="7.27891">
        <ele>366.3</ele>
        <time>2020-05-10T14:23:04Z</time>
      </trkpt>
      <trkpt lat="48.70825" lon="7.27882">
        <ele>366.5</ele>
        <time>2020-05-10T14:23:06Z</time>
      </trkpt>
      <trkpt lat="48.70827" lon="7.27873">
        <ele>366.7</ele>
        <time>2020-05-10T14:23:08Z</time>
      </trkpt>
      <trkpt lat="48.70828" lon="7.27864">
        <ele>367</ele>
        <time>2020-05-10T14:23:10Z</time>
      </trkpt>
      <trkpt lat="48.7083" lon="7.27856">
        <ele>367.2</ele>
        <time>2020-05-10T14:23:12Z</time>
      </trkpt>
      <trkpt lat="48.70832" lon="7.27851">
        <ele>367.4</ele>
        <time>2020-05-10T14:23:13Z</time>
      </trkpt>
      <trkpt lat="48.70833" lon="7.27847">
        <ele>367.6</ele>
        <time>2020-05-10T14:23:14Z</time>
      </trkpt>
      <trkpt lat="48.70834" lon="7.27845">
        <ele>367.7</ele>
        <time>2020-05-10T14:23:15Z</time>
      </trkpt>
      <trkpt lat="48.70836" lon="7.27839">
        <ele>368</ele>
        <time>2020-05-10T14:23:17Z</time>
      </trkpt>
      <trkpt lat="48.70838" lon="7.27833">
        <ele>368.3</ele>
        <time>2020-05-10T14:23:19Z</time>
      </trkpt>
      <trkpt lat="48.7084" lon="7.27829">
        <ele>368.5</ele>
        <time>2020-05-10T14:23:20Z</time>
      </trkpt>
      <trkpt lat="48.70841" lon="7.27828">
        <ele>368.6</ele>
        <time>2020-05-10T14:23:21Z</time>
      </trkpt>
      <trkpt lat="48.70843" lon="7.2782">
        <ele>369</ele>
        <time>2020-05-10T14:23:23Z</time>
      </trkpt>
      <trkpt lat="48.70844" lon="7.27815">
        <ele>369.3</ele>
        <time>2020-05-10T14:23:24Z</time>
      </trkpt>
      <trkpt lat="48.70845" lon="7.27808">
        <ele>369.6</ele>
        <time>2020-05-10T14:23:26Z</time>
      </trkpt>
      <trkpt lat="48.70848" lon="7.27801">
        <ele>370</ele>
        <time>2020-05-10T14:23:28Z</time>
      </trkpt>
      <trkpt lat="48.7085" lon="7.27794">
        <ele>370.4</ele>
        <time>2020-05-10T14:23:30Z</time>
      </trkpt>
      <trkpt lat="48.70851" lon="7.27789">
        <ele>370.7</ele>
        <time>2020-05-10T14:23:31Z</time>
      </trkpt>
      <trkpt lat="48.70851" lon="7.27785">
        <ele>370.9</ele>
        <time>2020-05-10T14:23:32Z</time>
      </trkpt>
      <trkpt lat="48.70851" lon="7.27779">
        <ele>371.2</ele>
        <time>2020-05-10T14:23:34Z</time>
      </trkpt>
      <trkpt lat="48.70854" lon="7.27773">
        <ele>371.5</ele>
        <time>2020-05-10T14:23:36Z</time>
      </trkpt>
      <trkpt lat="48.70855" lon="7.27771">
        <ele>371.6</ele>
        <time>2020-05-10T14:23:37Z</time>
      </trkpt>
      <trkpt lat="48.70857" lon="7.27764">
        <ele>371.9</ele>
        <time>2020-05-10T14:23:39Z</time>
      </trkpt>
      <trkpt lat="48.70859" lon="7.27756">
        <ele>372.3</ele>
        <time>2020-05-10T14:23:41Z</time>
      </trkpt>
      <trkpt lat="48.7086" lon="7.27751">
        <ele>372.5</ele>
        <time>2020-05-10T14:23:42Z</time>
      </trkpt>
      <trkpt lat="48.70861" lon="7.27749">
        <ele>372.6</ele>
        <time>2020-05-10T14:23:43Z</time>
      </trkpt>
      <trkpt lat="48.70862" lon="7.27745">
        <ele>372.8</ele>
        <time>2020-05-10T14:23:44Z</time>
      </trkpt>
      <trkpt lat="48.70867" lon="7.27738">
        <ele>373.3</ele>
        <time>2020-05-10T14:23:46Z</time>
      </trkpt>
      <trkpt lat="48.70871" lon="7.27731">
        <ele>373.8</ele>
        <time>2020-05-10T14:23:48Z</time>
      </trkpt>
      <trkpt lat="48.70875" lon="7.27723">
        <ele>374.3</ele>
        <time>2020-05-10T14:23:50Z</time>
      </trkpt>
      <trkpt lat="48.70877" lon="7.2772">
        <ele>374.6</ele>
        <time>2020-05-10T14:23:51Z</time>
      </trkpt>
      <trkpt lat="48.70881" lon="7.27714">
        <ele>375.1</ele>
        <time>2020-05-10T14:23:53Z</time>
      </trkpt>
      <trkpt lat="48.70884" lon="7.27705">
        <ele>375.8</ele>
        <time>2020-05-10T14:23:55Z</time>
      </trkpt>
      <trkpt lat="48.70886" lon="7.27698">
        <ele>376.3</ele>
        <time>2020-05-10T14:23:57Z</time>
      </trkpt>
      <trkpt lat="48.70888" lon="7.27688">
        <ele>376.8</ele>
        <time>2020-05-10T14:23:59Z</time>
      </trkpt>
      <trkpt lat="48.70892" lon="7.2768">
        <ele>377.3</ele>
        <time>2020-05-10T14:24:01Z</time>
      </trkpt>
      <trkpt lat="48.70894" lon="7.27676">
        <ele>377.5</ele>
        <time>2020-05-10T14:24:02Z</time>
      </trkpt>
      <trkpt lat="48.70895" lon="7.27672">
        <ele>377.6</ele>
        <time>2020-05-10T14:24:03Z</time>
      </trkpt>
      <trkpt lat="48.70897" lon="7.27669">
        <ele>377.8</ele>
        <time>2020-05-10T14:24:04Z</time>
      </trkpt>
      <trkpt lat="48.70901" lon="7.27661">
        <ele>378.1</ele>
        <time>2020-05-10T14:24:06Z</time>
      </trkpt>
      <trkpt lat="48.70903" lon="7.27657">
        <ele>378.3</ele>
        <time>2020-05-10T14:24:07Z</time>
      </trkpt>
      <trkpt lat="48.70905" lon="7.27652">
        <ele>378.5</ele>
        <time>2020-05-10T14:24:08Z</time>
      </trkpt>
      <trkpt lat="48.70906" lon="7.27643">
        <ele>378.7</ele>
        <time>2020-05-10T14:24:10Z</time>
      </trkpt>
      <trkpt lat="48.70907" lon="7.27638">
        <ele>378.8</ele>
        <time>2020-05-10T14:24:11Z</time>
      </trkpt>
      <trkpt lat="48.70907" lon="7.27637">
        <ele>378.9</ele>
        <time>2020-05-10T14:24:12Z</time>
      </trkpt>
      <trkpt lat="48.7091" lon="7.2763">
        <ele>379</ele>
        <time>2020-05-10T14:24:14Z</time>
      </trkpt>
      <trkpt lat="48.70913" lon="7.27624">
        <ele>379.2</ele>
        <time>2020-05-10T14:24:16Z</time>
      </trkpt>
      <trkpt lat="48.70914" lon="7.27619">
        <ele>379.3</ele>
        <time>2020-05-10T14:24:17Z</time>
      </trkpt>
      <trkpt lat="48.70916" lon="7.27614">
        <ele>379.5</ele>
        <time>2020-05-10T14:24:18Z</time>
      </trkpt>
      <trkpt lat="48.70916" lon="7.27612">
        <ele>379.6</ele>
        <time>2020-05-10T14:24:19Z</time>
      </trkpt>
      <trkpt lat="48.70919" lon="7.27604">
        <ele>380</ele>
        <time>2020-05-10T14:24:21Z</time>
      </trkpt>
      <trkpt lat="48.70922" lon="7.27598">
        <ele>380.3</ele>
        <time>2020-05-10T14:24:23Z</time>
      </trkpt>
      <trkpt lat="48.70922" lon="7.27595">
        <ele>380.5</ele>
        <time>2020-05-10T14:24:24Z</time>
      </trkpt>
      <trkpt lat="48.70925" lon="7.27587">
        <ele>380.9</ele>
        <time>2020-05-10T14:24:26Z</time>
      </trkpt>
      <trkpt lat="48.70926" lon="7.27583">
        <ele>381.1</ele>
        <time>2020-05-10T14:24:27Z</time>
      </trkpt>
      <trkpt lat="48.70929" lon="7.27576">
        <ele>381.5</ele>
        <time>2020-05-10T14:24:29Z</time>
      </trkpt>
      <trkpt lat="48.7093" lon="7.27572">
        <ele>381.7</ele>
        <time>2020-05-10T14:24:30Z</time>
      </trkpt>
      <trkpt lat="48.70932" lon="7.27567">
        <ele>382</ele>
        <time>2020-05-10T14:24:32Z</time>
      </trkpt>
      <trkpt lat="48.70934" lon="7.27562">
        <ele>382.3</ele>
        <time>2020-05-10T14:24:33Z</time>
      </trkpt>
      <trkpt lat="48.70935" lon="7.27559">
        <ele>382.5</ele>
        <time>2020-05-10T14:24:34Z</time>
      </trkpt>
      <trkpt lat="48.70937" lon="7.27552">
        <ele>382.9</ele>
        <time>2020-05-10T14:24:36Z</time>
      </trkpt>
      <trkpt lat="48.70939" lon="7.27548">
        <ele>383.1</ele>
        <time>2020-05-10T14:24:37Z</time>
      </trkpt>
      <trkpt lat="48.70942" lon="7.2754">
        <ele>383.6</ele>
        <time>2020-05-10T14:24:39Z</time>
      </trkpt>
      <trkpt lat="48.70943" lon="7.27537">
        <ele>383.8</ele>
        <time>2020-05-10T14:24:40Z</time>
      </trkpt>
      <trkpt lat="48.70944" lon="7.27533">
        <ele>384</ele>
        <time>2020-05-10T14:24:41Z</time>
      </trkpt>
      <trkpt lat="48.70948" lon="7.27526">
        <ele>384.4</ele>
        <time>2020-05-10T14:24:43Z</time>
      </trkpt>
      <trkpt lat="48.70951" lon="7.27521">
        <ele>384.8</ele>
        <time>2020-05-10T14:24:45Z</time>
      </trkpt>
      <trkpt lat="48.70952" lon="7.27518">
        <ele>385</ele>
        <time>2020-05-10T14:24:46Z</time>
      </trkpt>
      <trkpt lat="48.70955" lon="7.27515">
        <ele>385.4</ele>
        <time>2020-05-10T14:24:48Z</time>
      </trkpt>
      <trkpt lat="48.70956" lon="7.27513">
        <ele>385.6</ele>
        <time>2020-05-10T14:24:49Z</time>
      </trkpt>
      <trkpt lat="48.70959" lon="7.27508">
        <ele>386.1</ele>
        <time>2020-05-10T14:24:51Z</time>
      </trkpt>
      <trkpt lat="48.7096" lon="7.27507">
        <ele>386.3</ele>
        <time>2020-05-10T14:24:52Z</time>
      </trkpt>
      <trkpt lat="48.70964" lon="7.27503">
        <ele>386.8</ele>
        <time>2020-05-10T14:24:54Z</time>
      </trkpt>
      <trkpt lat="48.70967" lon="7.27499">
        <ele>387.4</ele>
        <time>2020-05-10T14:24:56Z</time>
      </trkpt>
      <trkpt lat="48.70968" lon="7.27496">
        <ele>387.7</ele>
        <time>2020-05-10T14:24:57Z</time>
      </trkpt>
      <trkpt lat="48.7097" lon="7.27492">
        <ele>388.1</ele>
        <time>2020-05-10T14:24:59Z</time>
      </trkpt>
      <trkpt lat="48.7097" lon="7.2749">
        <ele>388.3</ele>
        <time>2020-05-10T14:25:00Z</time>
      </trkpt>
      <trkpt lat="48.70972" lon="7.27484">
        <ele>388.8</ele>
        <time>2020-05-10T14:25:02Z</time>
      </trkpt>
      <trkpt lat="48.70973" lon="7.27481">
        <ele>389.1</ele>
        <time>2020-05-10T14:25:03Z</time>
      </trkpt>
      <trkpt lat="48.70975" lon="7.27476">
        <ele>389.5</ele>
        <time>2020-05-10T14:25:05Z</time>
      </trkpt>
      <trkpt lat="48.70977" lon="7.27471">
        <ele>389.9</ele>
        <time>2020-05-10T14:25:07Z</time>
      </trkpt>
      <trkpt lat="48.70979" lon="7.27467">
        <ele>390.1</ele>
        <time>2020-05-10T14:25:08Z</time>
      </trkpt>
      <trkpt lat="48.7098" lon="7.27465">
        <ele>390.2</ele>
        <time>2020-05-10T14:25:09Z</time>
      </trkpt>
      <trkpt lat="48.70982" lon="7.27461">
        <ele>390.5</ele>
        <time>2020-05-10T14:25:11Z</time>
      </trkpt>
      <trkpt lat="48.70983" lon="7.27459">
        <ele>390.6</ele>
        <time>2020-05-10T14:25:12Z</time>
      </trkpt>
      <trkpt lat="48.70985" lon="7.27454">
        <ele>390.9</ele>
        <time>2020-05-10T14:25:14Z</time>
      </trkpt>
      <trkpt lat="48.70987" lon="7.2745">
        <ele>391.2</ele>
        <time>2020-05-10T14:25:15Z</time>
      </trkpt>
      <trkpt lat="48.70988" lon="7.27449">
        <ele>391.3</ele>
        <time>2020-05-10T14:25:16Z</time>
      </trkpt>
      <trkpt lat="48.70989" lon="7.27443">
        <ele>391.6</ele>
        <time>2020-05-10T14:25:18Z</time>
      </trkpt>
      <trkpt lat="48.7099" lon="7.27436">
        <ele>392</ele>
        <time>2020-05-10T14:25:20Z</time>
      </trkpt>
      <trkpt lat="48.70992" lon="7.27433">
        <ele>392.2</ele>
        <time>2020-05-10T14:25:21Z</time>
      </trkpt>
      <trkpt lat="48.70994" lon="7.27427">
        <ele>392.6</ele>
        <time>2020-05-10T14:25:23Z</time>
      </trkpt>
      <trkpt lat="48.70995" lon="7.27425">
        <ele>392.7</ele>
        <time>2020-05-10T14:25:24Z</time>
      </trkpt>
      <trkpt lat="48.70996" lon="7.27423">
        <ele>392.9</ele>
        <time>2020-05-10T14:25:25Z</time>
      </trkpt>
      <trkpt lat="48.70997" lon="7.2742">
        <ele>393</ele>
        <time>2020-05-10T14:25:26Z</time>
      </trkpt>
      <trkpt lat="48.70998" lon="7.27419">
        <ele>393.1</ele>
        <time>2020-05-10T14:25:27Z</time>
      </trkpt>
      <trkpt lat="48.71001" lon="7.27415">
        <ele>393.4</ele>
        <time>2020-05-10T14:25:29Z</time>
      </trkpt>
      <trkpt lat="48.71003" lon="7.27409">
        <ele>393.7</ele>
        <time>2020-05-10T14:25:31Z</time>
      </trkpt>
      <trkpt lat="48.71003" lon="7.27407">
        <ele>393.8</ele>
        <time>2020-05-10T14:25:32Z</time>
      </trkpt>
      <trkpt lat="48.71004" lon="7.27401">
        <ele>394.1</ele>
        <time>2020-05-10T14:25:34Z</time>
      </trkpt>
      <trkpt lat="48.71004" lon="7.27399">
        <ele>394.2</ele>
        <time>2020-05-10T14:25:35Z</time>
      </trkpt>
      <trkpt lat="48.71005" lon="7.27394">
        <ele>394.5</ele>
        <time>2020-05-10T14:25:37Z</time>
      </trkpt>
      <trkpt lat="48.71007" lon="7.27391">
        <ele>394.6</ele>
        <time>2020-05-10T14:25:38Z</time>
      </trkpt>
      <trkpt lat="48.71009" lon="7.27386">
        <ele>394.9</ele>
        <time>2020-05-10T14:25:40Z</time>
      </trkpt>
      <trkpt lat="48.71011" lon="7.27381">
        <ele>395.3</ele>
        <time>2020-05-10T14:25:42Z</time>
      </trkpt>
      <trkpt lat="48.71012" lon="7.27377">
        <ele>395.5</ele>
        <time>2020-05-10T14:25:43Z</time>
      </trkpt>
      <trkpt lat="48.71013" lon="7.27376">
        <ele>395.6</ele>
        <time>2020-05-10T14:25:44Z</time>
      </trkpt>
      <trkpt lat="48.71014" lon="7.2737">
        <ele>396.1</ele>
        <time>2020-05-10T14:25:46Z</time>
      </trkpt>
      <trkpt lat="48.71016" lon="7.27367">
        <ele>396.3</ele>
        <time>2020-05-10T14:25:47Z</time>
      </trkpt>
      <trkpt lat="48.71017" lon="7.2736">
        <ele>396.9</ele>
        <time>2020-05-10T14:25:49Z</time>
      </trkpt>
      <trkpt lat="48.71018" lon="7.27356">
        <ele>397.3</ele>
        <time>2020-05-10T14:25:50Z</time>
      </trkpt>
      <trkpt lat="48.71019" lon="7.27353">
        <ele>397.6</ele>
        <time>2020-05-10T14:25:51Z</time>
      </trkpt>
      <trkpt lat="48.7102" lon="7.27346">
        <ele>398.2</ele>
        <time>2020-05-10T14:25:53Z</time>
      </trkpt>
      <trkpt lat="48.71022" lon="7.27341">
        <ele>398.7</ele>
        <time>2020-05-10T14:25:54Z</time>
      </trkpt>
      <trkpt lat="48.71022" lon="7.27339">
        <ele>398.8</ele>
        <time>2020-05-10T14:25:55Z</time>
      </trkpt>
      <trkpt lat="48.71023" lon="7.27336">
        <ele>399.2</ele>
        <time>2020-05-10T14:25:57Z</time>
      </trkpt>
      <trkpt lat="48.71024" lon="7.27334">
        <ele>399.4</ele>
        <time>2020-05-10T14:25:58Z</time>
      </trkpt>
      <trkpt lat="48.71027" lon="7.27328">
        <ele>400</ele>
        <time>2020-05-10T14:26:00Z</time>
      </trkpt>
      <trkpt lat="48.71029" lon="7.27321">
        <ele>400.5</ele>
        <time>2020-05-10T14:26:02Z</time>
      </trkpt>
      <trkpt lat="48.71031" lon="7.27316">
        <ele>401</ele>
        <time>2020-05-10T14:26:03Z</time>
      </trkpt>
      <trkpt lat="48.71031" lon="7.27314">
        <ele>401.2</ele>
        <time>2020-05-10T14:26:04Z</time>
      </trkpt>
      <trkpt lat="48.71033" lon="7.27311">
        <ele>401.4</ele>
        <time>2020-05-10T14:26:05Z</time>
      </trkpt>
      <trkpt lat="48.71035" lon="7.27306">
        <ele>402</ele>
        <time>2020-05-10T14:26:07Z</time>
      </trkpt>
      <trkpt lat="48.71037" lon="7.27302">
        <ele>402.3</ele>
        <time>2020-05-10T14:26:08Z</time>
      </trkpt>
      <trkpt lat="48.71038" lon="7.27299">
        <ele>402.6</ele>
        <time>2020-05-10T14:26:09Z</time>
      </trkpt>
      <trkpt lat="48.7104" lon="7.27293">
        <ele>403.1</ele>
        <time>2020-05-10T14:26:11Z</time>
      </trkpt>
      <trkpt lat="48.71041" lon="7.2729">
        <ele>403.4</ele>
        <time>2020-05-10T14:26:12Z</time>
      </trkpt>
      <trkpt lat="48.71042" lon="7.27282">
        <ele>404</ele>
        <time>2020-05-10T14:26:14Z</time>
      </trkpt>
      <trkpt lat="48.71044" lon="7.27276">
        <ele>404.6</ele>
        <time>2020-05-10T14:26:16Z</time>
      </trkpt>
      <trkpt lat="48.71045" lon="7.27273">
        <ele>404.9</ele>
        <time>2020-05-10T14:26:17Z</time>
      </trkpt>
      <trkpt lat="48.71048" lon="7.27268">
        <ele>405.5</ele>
        <time>2020-05-10T14:26:19Z</time>
      </trkpt>
      <trkpt lat="48.71049" lon="7.27263">
        <ele>406</ele>
        <time>2020-05-10T14:26:20Z</time>
      </trkpt>
      <trkpt lat="48.7105" lon="7.27261">
        <ele>406.1</ele>
        <time>2020-05-10T14:26:21Z</time>
      </trkpt>
      <trkpt lat="48.71054" lon="7.27256">
        <ele>406.7</ele>
        <time>2020-05-10T14:26:23Z</time>
      </trkpt>
      <trkpt lat="48.71056" lon="7.27253">
        <ele>407</ele>
        <time>2020-05-10T14:26:24Z</time>
      </trkpt>
      <trkpt lat="48.71058" lon="7.27251">
        <ele>407.1</ele>
        <time>2020-05-10T14:26:25Z</time>
      </trkpt>
      <trkpt lat="48.7106" lon="7.27247">
        <ele>407.4</ele>
        <time>2020-05-10T14:26:27Z</time>
      </trkpt>
      <trkpt lat="48.71062" lon="7.27244">
        <ele>407.5</ele>
        <time>2020-05-10T14:26:28Z</time>
      </trkpt>
      <trkpt lat="48.71064" lon="7.27239">
        <ele>407.6</ele>
        <time>2020-05-10T14:26:30Z</time>
      </trkpt>
      <trkpt lat="48.71066" lon="7.27236">
        <ele>407.6</ele>
        <time>2020-05-10T14:26:31Z</time>
      </trkpt>
      <trkpt lat="48.71068" lon="7.2723">
        <ele>407.6</ele>
        <time>2020-05-10T14:26:33Z</time>
      </trkpt>
      <trkpt lat="48.71068" lon="7.27227">
        <ele>407.8</ele>
        <time>2020-05-10T14:26:34Z</time>
      </trkpt>
      <trkpt lat="48.7107" lon="7.27223">
        <ele>408.1</ele>
        <time>2020-05-10T14:26:36Z</time>
      </trkpt>
      <trkpt lat="48.7107" lon="7.2722">
        <ele>408.3</ele>
        <time>2020-05-10T14:26:37Z</time>
      </trkpt>
      <trkpt lat="48.71072" lon="7.27216">
        <ele>408.7</ele>
        <time>2020-05-10T14:26:39Z</time>
      </trkpt>
      <trkpt lat="48.71075" lon="7.27213">
        <ele>409.1</ele>
        <time>2020-05-10T14:26:41Z</time>
      </trkpt>
      <trkpt lat="48.71076" lon="7.27209">
        <ele>409.5</ele>
        <time>2020-05-10T14:26:42Z</time>
      </trkpt>
      <trkpt lat="48.71077" lon="7.27207">
        <ele>409.7</ele>
        <time>2020-05-10T14:26:43Z</time>
      </trkpt>
      <trkpt lat="48.71078" lon="7.27199">
        <ele>410.4</ele>
        <time>2020-05-10T14:26:45Z</time>
      </trkpt>
      <trkpt lat="48.71079" lon="7.27191">
        <ele>411.2</ele>
        <time>2020-05-10T14:26:47Z</time>
      </trkpt>
      <trkpt lat="48.71081" lon="7.27184">
        <ele>411.9</ele>
        <time>2020-05-10T14:26:49Z</time>
      </trkpt>
      <trkpt lat="48.71083" lon="7.27181">
        <ele>412.3</ele>
        <time>2020-05-10T14:26:50Z</time>
      </trkpt>
      <trkpt lat="48.71086" lon="7.27176">
        <ele>412.9</ele>
        <time>2020-05-10T14:26:52Z</time>
      </trkpt>
      <trkpt lat="48.71089" lon="7.2717">
        <ele>413.5</ele>
        <time>2020-05-10T14:26:54Z</time>
      </trkpt>
      <trkpt lat="48.71092" lon="7.27167">
        <ele>414.1</ele>
        <time>2020-05-10T14:26:56Z</time>
      </trkpt>
      <trkpt lat="48.71094" lon="7.27163">
        <ele>414.5</ele>
        <time>2020-05-10T14:26:57Z</time>
      </trkpt>
      <trkpt lat="48.71095" lon="7.27162">
        <ele>414.7</ele>
        <time>2020-05-10T14:26:58Z</time>
      </trkpt>
      <trkpt lat="48.71098" lon="7.27156">
        <ele>415.4</ele>
        <time>2020-05-10T14:27:00Z</time>
      </trkpt>
      <trkpt lat="48.71101" lon="7.27152">
        <ele>415.9</ele>
        <time>2020-05-10T14:27:01Z</time>
      </trkpt>
      <trkpt lat="48.71101" lon="7.2715">
        <ele>416.1</ele>
        <time>2020-05-10T14:27:02Z</time>
      </trkpt>
      <trkpt lat="48.71103" lon="7.27145">
        <ele>416.7</ele>
        <time>2020-05-10T14:27:04Z</time>
      </trkpt>
      <trkpt lat="48.71103" lon="7.27141">
        <ele>416.7</ele>
        <time>2020-05-10T14:27:06Z</time>
      </trkpt>
      <trkpt lat="48.71102" lon="7.27142">
        <ele>416.7</ele>
        <time>2020-05-10T14:27:08Z</time>
      </trkpt>
      <trkpt lat="48.71104" lon="7.27144">
        <ele>416.7</ele>
        <time>2020-05-10T14:27:12Z</time>
      </trkpt>
      <trkpt lat="48.71104" lon="7.27144">
        <ele>416.8</ele>
        <time>2020-05-10T14:27:13Z</time>
      </trkpt>
      <trkpt lat="48.71104" lon="7.27144">
        <ele>416.8</ele>
        <time>2020-05-10T14:27:14Z</time>
      </trkpt>
      <trkpt lat="48.71104" lon="7.27144">
        <ele>416.8</ele>
        <time>2020-05-10T14:27:16Z</time>
      </trkpt>
      <trkpt lat="48.71104" lon="7.27144">
        <ele>416.8</ele>
        <time>2020-05-10T14:27:17Z</time>
      </trkpt>
      <trkpt lat="48.71104" lon="7.27144">
        <ele>416.8</ele>
        <time>2020-05-10T14:27:19Z</time>
      </trkpt>
      <trkpt lat="48.71104" lon="7.27144">
        <ele>416.8</ele>
        <time>2020-05-10T14:27:21Z</time>
      </trkpt>
      <trkpt lat="48.71103" lon="7.27142">
        <ele>416.2</ele>
        <time>2020-05-10T14:27:23Z</time>
      </trkpt>
      <trkpt lat="48.71103" lon="7.27141">
        <ele>416.2</ele>
        <time>2020-05-10T14:27:24Z</time>
      </trkpt>
      <trkpt lat="48.711" lon="7.27135">
        <ele>415.9</ele>
        <time>2020-05-10T14:27:26Z</time>
      </trkpt>
      <trkpt lat="48.71099" lon="7.27128">
        <ele>416.1</ele>
        <time>2020-05-10T14:27:28Z</time>
      </trkpt>
      <trkpt lat="48.71098" lon="7.27126">
        <ele>415.6</ele>
        <time>2020-05-10T14:27:29Z</time>
      </trkpt>
      <trkpt lat="48.71096" lon="7.27121">
        <ele>415.8</ele>
        <time>2020-05-10T14:27:31Z</time>
      </trkpt>
      <trkpt lat="48.71095" lon="7.27118">
        <ele>415.4</ele>
        <time>2020-05-10T14:27:32Z</time>
      </trkpt>
      <trkpt lat="48.71094" lon="7.27111">
        <ele>415.6</ele>
        <time>2020-05-10T14:27:34Z</time>
      </trkpt>
      <trkpt lat="48.71093" lon="7.27109">
        <ele>415.1</ele>
        <time>2020-05-10T14:27:35Z</time>
      </trkpt>
      <trkpt lat="48.71091" lon="7.27108">
        <ele>415.1</ele>
        <time>2020-05-10T14:27:36Z</time>
      </trkpt>
      <trkpt lat="48.71088" lon="7.27103">
        <ele>414.7</ele>
        <time>2020-05-10T14:27:38Z</time>
      </trkpt>
      <trkpt lat="48.71085" lon="7.27096">
        <ele>414.7</ele>
        <time>2020-05-10T14:27:40Z</time>
      </trkpt>
      <trkpt lat="48.71083" lon="7.27091">
        <ele>414.3</ele>
        <time>2020-05-10T14:27:42Z</time>
      </trkpt>
      <trkpt lat="48.71082" lon="7.27088">
        <ele>414</ele>
        <time>2020-05-10T14:27:43Z</time>
      </trkpt>
      <trkpt lat="48.7108" lon="7.27082">
        <ele>414.3</ele>
        <time>2020-05-10T14:27:45Z</time>
      </trkpt>
      <trkpt lat="48.7108" lon="7.27076">
        <ele>414.9</ele>
        <time>2020-05-10T14:27:47Z</time>
      </trkpt>
      <trkpt lat="48.7108" lon="7.27072">
        <ele>414.9</ele>
        <time>2020-05-10T14:27:48Z</time>
      </trkpt>
      <trkpt lat="48.71079" lon="7.27067">
        <ele>415.5</ele>
        <time>2020-05-10T14:27:50Z</time>
      </trkpt>
      <trkpt lat="48.71078" lon="7.27065">
        <ele>414.9</ele>
        <time>2020-05-10T14:27:51Z</time>
      </trkpt>
      <trkpt lat="48.71077" lon="7.27062">
        <ele>415.2</ele>
        <time>2020-05-10T14:27:53Z</time>
      </trkpt>
      <trkpt lat="48.71075" lon="7.27057">
        <ele>415</ele>
        <time>2020-05-10T14:27:55Z</time>
      </trkpt>
      <trkpt lat="48.71074" lon="7.27052">
        <ele>415.4</ele>
        <time>2020-05-10T14:27:56Z</time>
      </trkpt>
      <trkpt lat="48.71074" lon="7.2705">
        <ele>415.4</ele>
        <time>2020-05-10T14:27:57Z</time>
      </trkpt>
      <trkpt lat="48.71073" lon="7.27045">
        <ele>416.2</ele>
        <time>2020-05-10T14:27:59Z</time>
      </trkpt>
      <trkpt lat="48.71073" lon="7.27043">
        <ele>415.6</ele>
        <time>2020-05-10T14:28:00Z</time>
      </trkpt>
      <trkpt lat="48.71072" lon="7.27037">
        <ele>416.4</ele>
        <time>2020-05-10T14:28:02Z</time>
      </trkpt>
      <trkpt lat="48.71071" lon="7.27034">
        <ele>416.4</ele>
        <time>2020-05-10T14:28:03Z</time>
      </trkpt>
      <trkpt lat="48.7107" lon="7.27029">
        <ele>416.2</ele>
        <time>2020-05-10T14:28:05Z</time>
      </trkpt>
      <trkpt lat="48.71069" lon="7.27026">
        <ele>416.7</ele>
        <time>2020-05-10T14:28:06Z</time>
      </trkpt>
      <trkpt lat="48.71069" lon="7.27024">
        <ele>417.2</ele>
        <time>2020-05-10T14:28:07Z</time>
      </trkpt>
      <trkpt lat="48.71068" lon="7.27023">
        <ele>417.2</ele>
        <time>2020-05-10T14:28:08Z</time>
      </trkpt>
      <trkpt lat="48.71067" lon="7.27018">
        <ele>417.7</ele>
        <time>2020-05-10T14:28:10Z</time>
      </trkpt>
      <trkpt lat="48.71066" lon="7.27011">
        <ele>418.4</ele>
        <time>2020-05-10T14:28:12Z</time>
      </trkpt>
      <trkpt lat="48.71064" lon="7.27005">
        <ele>418.6</ele>
        <time>2020-05-10T14:28:14Z</time>
      </trkpt>
      <trkpt lat="48.71062" lon="7.27">
        <ele>418.7</ele>
        <time>2020-05-10T14:28:16Z</time>
      </trkpt>
      <trkpt lat="48.7106" lon="7.26995">
        <ele>420</ele>
        <time>2020-05-10T14:28:18Z</time>
      </trkpt>
      <trkpt lat="48.71059" lon="7.26991">
        <ele>419.6</ele>
        <time>2020-05-10T14:28:19Z</time>
      </trkpt>
      <trkpt lat="48.71057" lon="7.26984">
        <ele>420.8</ele>
        <time>2020-05-10T14:28:21Z</time>
      </trkpt>
      <trkpt lat="48.71056" lon="7.26983">
        <ele>420.8</ele>
        <time>2020-05-10T14:28:22Z</time>
      </trkpt>
      <trkpt lat="48.71055" lon="7.2698">
        <ele>420.9</ele>
        <time>2020-05-10T14:28:23Z</time>
      </trkpt>
      <trkpt lat="48.71054" lon="7.26977">
        <ele>421.6</ele>
        <time>2020-05-10T14:28:24Z</time>
      </trkpt>
      <trkpt lat="48.71051" lon="7.26972">
        <ele>421.7</ele>
        <time>2020-05-10T14:28:26Z</time>
      </trkpt>
      <trkpt lat="48.71048" lon="7.26968">
        <ele>421.9</ele>
        <time>2020-05-10T14:28:28Z</time>
      </trkpt>
      <trkpt lat="48.71047" lon="7.26966">
        <ele>421.6</ele>
        <time>2020-05-10T14:28:29Z</time>
      </trkpt>
      <trkpt lat="48.71046" lon="7.26964">
        <ele>422.2</ele>
        <time>2020-05-10T14:28:30Z</time>
      </trkpt>
      <trkpt lat="48.71045" lon="7.26962">
        <ele>422.2</ele>
        <time>2020-05-10T14:28:31Z</time>
      </trkpt>
      <trkpt lat="48.71045" lon="7.26958">
        <ele>422.4</ele>
        <time>2020-05-10T14:28:33Z</time>
      </trkpt>
      <trkpt lat="48.71045" lon="7.26957">
        <ele>422.7</ele>
        <time>2020-05-10T14:28:35Z</time>
      </trkpt>
      <trkpt lat="48.71046" lon="7.26957">
        <ele>422.7</ele>
        <time>2020-05-10T14:28:37Z</time>
      </trkpt>
      <trkpt lat="48.71047" lon="7.26958">
        <ele>422.8</ele>
        <time>2020-05-10T14:28:39Z</time>
      </trkpt>
      <trkpt lat="48.71047" lon="7.26958">
        <ele>422.8</ele>
        <time>2020-05-10T14:28:40Z</time>
      </trkpt>
      <trkpt lat="48.71047" lon="7.26958">
        <ele>422.8</ele>
        <time>2020-05-10T14:28:41Z</time>
      </trkpt>
      <trkpt lat="48.71046" lon="7.26958">
        <ele>422.8</ele>
        <time>2020-05-10T14:28:43Z</time>
      </trkpt>
      <trkpt lat="48.71044" lon="7.26955">
        <ele>423</ele>
        <time>2020-05-10T14:28:45Z</time>
      </trkpt>
      <trkpt lat="48.71043" lon="7.26954">
        <ele>423</ele>
        <time>2020-05-10T14:28:46Z</time>
      </trkpt>
      <trkpt lat="48.7104" lon="7.26949">
        <ele>423.2</ele>
        <time>2020-05-10T14:28:48Z</time>
      </trkpt>
      <trkpt lat="48.71038" lon="7.26947">
        <ele>423.4</ele>
        <time>2020-05-10T14:28:49Z</time>
      </trkpt>
      <trkpt lat="48.71037" lon="7.26946">
        <ele>423.4</ele>
        <time>2020-05-10T14:28:50Z</time>
      </trkpt>
      <trkpt lat="48.71035" lon="7.26944">
        <ele>423.2</ele>
        <time>2020-05-10T14:28:52Z</time>
      </trkpt>
      <trkpt lat="48.71031" lon="7.26939">
        <ele>423.4</ele>
        <time>2020-05-10T14:28:54Z</time>
      </trkpt>
      <trkpt lat="48.71028" lon="7.26936">
        <ele>423.6</ele>
        <time>2020-05-10T14:28:55Z</time>
      </trkpt>
      <trkpt lat="48.71027" lon="7.26936">
        <ele>423.5</ele>
        <time>2020-05-10T14:28:56Z</time>
      </trkpt>
      <trkpt lat="48.71025" lon="7.26934">
        <ele>423.9</ele>
        <time>2020-05-10T14:28:57Z</time>
      </trkpt>
      <trkpt lat="48.7102" lon="7.26931">
        <ele>423.8</ele>
        <time>2020-05-10T14:28:59Z</time>
      </trkpt>
      <trkpt lat="48.71019" lon="7.26931">
        <ele>423.8</ele>
        <time>2020-05-10T14:29:00Z</time>
      </trkpt>
      <trkpt lat="48.71018" lon="7.26931">
        <ele>423.8</ele>
        <time>2020-05-10T14:29:01Z</time>
      </trkpt>
      <trkpt lat="48.71015" lon="7.26932">
        <ele>423.9</ele>
        <time>2020-05-10T14:29:03Z</time>
      </trkpt>
      <trkpt lat="48.71013" lon="7.26932">
        <ele>423.9</ele>
        <time>2020-05-10T14:29:04Z</time>
      </trkpt>
      <trkpt lat="48.71008" lon="7.26936">
        <ele>423.7</ele>
        <time>2020-05-10T14:29:06Z</time>
      </trkpt>
      <trkpt lat="48.71005" lon="7.26938">
        <ele>423.9</ele>
        <time>2020-05-10T14:29:07Z</time>
      </trkpt>
      <trkpt lat="48.71004" lon="7.26938">
        <ele>424.1</ele>
        <time>2020-05-10T14:29:08Z</time>
      </trkpt>
      <trkpt lat="48.71004" lon="7.26939">
        <ele>424.1</ele>
        <time>2020-05-10T14:29:09Z</time>
      </trkpt>
      <trkpt lat="48.71002" lon="7.26942">
        <ele>424</ele>
        <time>2020-05-10T14:29:11Z</time>
      </trkpt>
      <trkpt lat="48.70999" lon="7.26947">
        <ele>423.9</ele>
        <time>2020-05-10T14:29:13Z</time>
      </trkpt>
      <trkpt lat="48.70996" lon="7.26952">
        <ele>423.3</ele>
        <time>2020-05-10T14:29:15Z</time>
      </trkpt>
      <trkpt lat="48.70995" lon="7.26953">
        <ele>423.3</ele>
        <time>2020-05-10T14:29:16Z</time>
      </trkpt>
      <trkpt lat="48.70994" lon="7.26955">
        <ele>423.3</ele>
        <time>2020-05-10T14:29:17Z</time>
      </trkpt>
      <trkpt lat="48.70993" lon="7.26959">
        <ele>423.1</ele>
        <time>2020-05-10T14:29:18Z</time>
      </trkpt>
      <trkpt lat="48.7099" lon="7.26966">
        <ele>422.4</ele>
        <time>2020-05-10T14:29:20Z</time>
      </trkpt>
      <trkpt lat="48.70989" lon="7.26969">
        <ele>422.4</ele>
        <time>2020-05-10T14:29:21Z</time>
      </trkpt>
      <trkpt lat="48.70986" lon="7.26975">
        <ele>421.6</ele>
        <time>2020-05-10T14:29:23Z</time>
      </trkpt>
      <trkpt lat="48.70984" lon="7.26979">
        <ele>421.4</ele>
        <time>2020-05-10T14:29:24Z</time>
      </trkpt>
      <trkpt lat="48.70982" lon="7.26982">
        <ele>421.2</ele>
        <time>2020-05-10T14:29:25Z</time>
      </trkpt>
      <trkpt lat="48.70976" lon="7.26987">
        <ele>421.3</ele>
        <time>2020-05-10T14:29:27Z</time>
      </trkpt>
      <trkpt lat="48.70973" lon="7.26991">
        <ele>421.2</ele>
        <time>2020-05-10T14:29:28Z</time>
      </trkpt>
      <trkpt lat="48.70971" lon="7.26993">
        <ele>421.2</ele>
        <time>2020-05-10T14:29:29Z</time>
      </trkpt>
      <trkpt lat="48.70966" lon="7.27">
        <ele>420.9</ele>
        <time>2020-05-10T14:29:31Z</time>
      </trkpt>
      <trkpt lat="48.70963" lon="7.27004">
        <ele>420.8</ele>
        <time>2020-05-10T14:29:32Z</time>
      </trkpt>
      <trkpt lat="48.70959" lon="7.27011">
        <ele>421.2</ele>
        <time>2020-05-10T14:29:34Z</time>
      </trkpt>
      <trkpt lat="48.70956" lon="7.27015">
        <ele>421.2</ele>
        <time>2020-05-10T14:29:35Z</time>
      </trkpt>
      <trkpt lat="48.70953" lon="7.27021">
        <ele>420.4</ele>
        <time>2020-05-10T14:29:37Z</time>
      </trkpt>
      <trkpt lat="48.70952" lon="7.27025">
        <ele>419.7</ele>
        <time>2020-05-10T14:29:38Z</time>
      </trkpt>
      <trkpt lat="48.70951" lon="7.2703">
        <ele>419.7</ele>
        <time>2020-05-10T14:29:39Z</time>
      </trkpt>
      <trkpt lat="48.70948" lon="7.27035">
        <ele>419.8</ele>
        <time>2020-05-10T14:29:41Z</time>
      </trkpt>
      <trkpt lat="48.70945" lon="7.2704">
        <ele>419.9</ele>
        <time>2020-05-10T14:29:42Z</time>
      </trkpt>
      <trkpt lat="48.70941" lon="7.27046">
        <ele>420</ele>
        <time>2020-05-10T14:29:44Z</time>
      </trkpt>
      <trkpt lat="48.70938" lon="7.27048">
        <ele>420.1</ele>
        <time>2020-05-10T14:29:45Z</time>
      </trkpt>
      <trkpt lat="48.70933" lon="7.27053">
        <ele>420.8</ele>
        <time>2020-05-10T14:29:47Z</time>
      </trkpt>
      <trkpt lat="48.70931" lon="7.27056">
        <ele>420.6</ele>
        <time>2020-05-10T14:29:48Z</time>
      </trkpt>
      <trkpt lat="48.70929" lon="7.27059">
        <ele>419.9</ele>
        <time>2020-05-10T14:29:49Z</time>
      </trkpt>
      <trkpt lat="48.70925" lon="7.27065">
        <ele>420.2</ele>
        <time>2020-05-10T14:29:51Z</time>
      </trkpt>
      <trkpt lat="48.70922" lon="7.27069">
        <ele>420</ele>
        <time>2020-05-10T14:29:52Z</time>
      </trkpt>
      <trkpt lat="48.70918" lon="7.27076">
        <ele>419.7</ele>
        <time>2020-05-10T14:29:54Z</time>
      </trkpt>
      <trkpt lat="48.70915" lon="7.27079">
        <ele>419.3</ele>
        <time>2020-05-10T14:29:55Z</time>
      </trkpt>
      <trkpt lat="48.7091" lon="7.27087">
        <ele>418.3</ele>
        <time>2020-05-10T14:29:57Z</time>
      </trkpt>
      <trkpt lat="48.70906" lon="7.27092">
        <ele>418.2</ele>
        <time>2020-05-10T14:29:59Z</time>
      </trkpt>
      <trkpt lat="48.70902" lon="7.27099">
        <ele>416.5</ele>
        <time>2020-05-10T14:30:01Z</time>
      </trkpt>
      <trkpt lat="48.709" lon="7.27103">
        <ele>416</ele>
        <time>2020-05-10T14:30:02Z</time>
      </trkpt>
      <trkpt lat="48.70896" lon="7.2711">
        <ele>414.6</ele>
        <time>2020-05-10T14:30:04Z</time>
      </trkpt>
      <trkpt lat="48.70891" lon="7.27118">
        <ele>414.8</ele>
        <time>2020-05-10T14:30:06Z</time>
      </trkpt>
      <trkpt lat="48.70887" lon="7.27125">
        <ele>413.5</ele>
        <time>2020-05-10T14:30:08Z</time>
      </trkpt>
      <trkpt lat="48.70886" lon="7.27128">
        <ele>413.1</ele>
        <time>2020-05-10T14:30:09Z</time>
      </trkpt>
      <trkpt lat="48.70881" lon="7.27134">
        <ele>412.6</ele>
        <time>2020-05-10T14:30:11Z</time>
      </trkpt>
      <trkpt lat="48.70875" lon="7.27138">
        <ele>412.6</ele>
        <time>2020-05-10T14:30:13Z</time>
      </trkpt>
      <trkpt lat="48.70872" lon="7.27138">
        <ele>413.2</ele>
        <time>2020-05-10T14:30:14Z</time>
      </trkpt>
      <trkpt lat="48.7087" lon="7.27139">
        <ele>413.7</ele>
        <time>2020-05-10T14:30:15Z</time>
      </trkpt>
      <trkpt lat="48.70863" lon="7.27143">
        <ele>414.7</ele>
        <time>2020-05-10T14:30:17Z</time>
      </trkpt>
      <trkpt lat="48.70857" lon="7.27149">
        <ele>415.1</ele>
        <time>2020-05-10T14:30:19Z</time>
      </trkpt>
      <trkpt lat="48.70852" lon="7.27154">
        <ele>414.3</ele>
        <time>2020-05-10T14:30:21Z</time>
      </trkpt>
      <trkpt lat="48.70849" lon="7.27155">
        <ele>415</ele>
        <time>2020-05-10T14:30:22Z</time>
      </trkpt>
      <trkpt lat="48.70841" lon="7.27161">
        <ele>415.5</ele>
        <time>2020-05-10T14:30:25Z</time>
      </trkpt>
      <trkpt lat="48.70838" lon="7.27162">
        <ele>415.2</ele>
        <time>2020-05-10T14:30:26Z</time>
      </trkpt>
      <trkpt lat="48.70833" lon="7.27165">
        <ele>416.9</ele>
        <time>2020-05-10T14:30:28Z</time>
      </trkpt>
      <trkpt lat="48.7083" lon="7.27167">
        <ele>416.7</ele>
        <time>2020-05-10T14:30:29Z</time>
      </trkpt>
      <trkpt lat="48.70825" lon="7.2717">
        <ele>418.5</ele>
        <time>2020-05-10T14:30:31Z</time>
      </trkpt>
      <trkpt lat="48.7082" lon="7.27173">
        <ele>419</ele>
        <time>2020-05-10T14:30:33Z</time>
      </trkpt>
      <trkpt lat="48.70818" lon="7.27175">
        <ele>418.7</ele>
        <time>2020-05-10T14:30:34Z</time>
      </trkpt>
      <trkpt lat="48.70813" lon="7.27179">
        <ele>419.5</ele>
        <time>2020-05-10T14:30:36Z</time>
      </trkpt>
      <trkpt lat="48.70809" lon="7.27181">
        <ele>420.2</ele>
        <time>2020-05-10T14:30:37Z</time>
      </trkpt>
      <trkpt lat="48.70807" lon="7.27182">
        <ele>420.2</ele>
        <time>2020-05-10T14:30:38Z</time>
      </trkpt>
      <trkpt lat="48.70804" lon="7.27183">
        <ele>421.1</ele>
        <time>2020-05-10T14:30:39Z</time>
      </trkpt>
      <trkpt lat="48.70802" lon="7.27184">
        <ele>420.8</ele>
        <time>2020-05-10T14:30:40Z</time>
      </trkpt>
      <trkpt lat="48.70797" lon="7.27186">
        <ele>422.4</ele>
        <time>2020-05-10T14:30:42Z</time>
      </trkpt>
      <trkpt lat="48.70791" lon="7.27189">
        <ele>422.6</ele>
        <time>2020-05-10T14:30:44Z</time>
      </trkpt>
      <trkpt lat="48.70787" lon="7.27192">
        <ele>424</ele>
        <time>2020-05-10T14:30:46Z</time>
      </trkpt>
      <trkpt lat="48.70781" lon="7.27196">
        <ele>424.1</ele>
        <time>2020-05-10T14:30:48Z</time>
      </trkpt>
      <trkpt lat="48.70778" lon="7.27199">
        <ele>423.4</ele>
        <time>2020-05-10T14:30:49Z</time>
      </trkpt>
      <trkpt lat="48.70776" lon="7.272">
        <ele>423.4</ele>
        <time>2020-05-10T14:30:50Z</time>
      </trkpt>
      <trkpt lat="48.70771" lon="7.27205">
        <ele>422.1</ele>
        <time>2020-05-10T14:30:52Z</time>
      </trkpt>
      <trkpt lat="48.70768" lon="7.27208">
        <ele>422.7</ele>
        <time>2020-05-10T14:30:53Z</time>
      </trkpt>
      <trkpt lat="48.70768" lon="7.27209">
        <ele>422.7</ele>
        <time>2020-05-10T14:30:54Z</time>
      </trkpt>
      <trkpt lat="48.70762" lon="7.27211">
        <ele>422.3</ele>
        <time>2020-05-10T14:30:56Z</time>
      </trkpt>
      <trkpt lat="48.70758" lon="7.27213">
        <ele>423.1</ele>
        <time>2020-05-10T14:30:58Z</time>
      </trkpt>
      <trkpt lat="48.70751" lon="7.27212">
        <ele>423.7</ele>
        <time>2020-05-10T14:31:00Z</time>
      </trkpt>
      <trkpt lat="48.70746" lon="7.27209">
        <ele>425.5</ele>
        <time>2020-05-10T14:31:02Z</time>
      </trkpt>
      <trkpt lat="48.70742" lon="7.27207">
        <ele>425.6</ele>
        <time>2020-05-10T14:31:03Z</time>
      </trkpt>
      <trkpt lat="48.70736" lon="7.27203">
        <ele>427</ele>
        <time>2020-05-10T14:31:05Z</time>
      </trkpt>
      <trkpt lat="48.70734" lon="7.27202">
        <ele>427</ele>
        <time>2020-05-10T14:31:06Z</time>
      </trkpt>
      <trkpt lat="48.70727" lon="7.27199">
        <ele>428.1</ele>
        <time>2020-05-10T14:31:08Z</time>
      </trkpt>
      <trkpt lat="48.70725" lon="7.27198">
        <ele>427.9</ele>
        <time>2020-05-10T14:31:09Z</time>
      </trkpt>
      <trkpt lat="48.70719" lon="7.27196">
        <ele>429.1</ele>
        <time>2020-05-10T14:31:11Z</time>
      </trkpt>
      <trkpt lat="48.70714" lon="7.27192">
        <ele>430</ele>
        <time>2020-05-10T14:31:13Z</time>
      </trkpt>
      <trkpt lat="48.7071" lon="7.2719">
        <ele>429.4</ele>
        <time>2020-05-10T14:31:14Z</time>
      </trkpt>
      <trkpt lat="48.70707" lon="7.27189">
        <ele>429.1</ele>
        <time>2020-05-10T14:31:15Z</time>
      </trkpt>
      <trkpt lat="48.70701" lon="7.27184">
        <ele>429.8</ele>
        <time>2020-05-10T14:31:17Z</time>
      </trkpt>
      <trkpt lat="48.70696" lon="7.2718">
        <ele>430.4</ele>
        <time>2020-05-10T14:31:19Z</time>
      </trkpt>
      <trkpt lat="48.7069" lon="7.27179">
        <ele>430.8</ele>
        <time>2020-05-10T14:31:21Z</time>
      </trkpt>
      <trkpt lat="48.70685" lon="7.27178">
        <ele>430</ele>
        <time>2020-05-10T14:31:23Z</time>
      </trkpt>
      <trkpt lat="48.7068" lon="7.27177">
        <ele>429.6</ele>
        <time>2020-05-10T14:31:25Z</time>
      </trkpt>
      <trkpt lat="48.70677" lon="7.27175">
        <ele>429.2</ele>
        <time>2020-05-10T14:31:26Z</time>
      </trkpt>
      <trkpt lat="48.70671" lon="7.27172">
        <ele>429</ele>
        <time>2020-05-10T14:31:28Z</time>
      </trkpt>
      <trkpt lat="48.70668" lon="7.2717">
        <ele>429.7</ele>
        <time>2020-05-10T14:31:29Z</time>
      </trkpt>
      <trkpt lat="48.70662" lon="7.27167">
        <ele>428.6</ele>
        <time>2020-05-10T14:31:31Z</time>
      </trkpt>
      <trkpt lat="48.70657" lon="7.27164">
        <ele>429.2</ele>
        <time>2020-05-10T14:31:33Z</time>
      </trkpt>
      <trkpt lat="48.70655" lon="7.27163">
        <ele>428.6</ele>
        <time>2020-05-10T14:31:34Z</time>
      </trkpt>
      <trkpt lat="48.70649" lon="7.27161">
        <ele>428.7</ele>
        <time>2020-05-10T14:31:36Z</time>
      </trkpt>
      <trkpt lat="48.70644" lon="7.2716">
        <ele>427.7</ele>
        <time>2020-05-10T14:31:38Z</time>
      </trkpt>
      <trkpt lat="48.70642" lon="7.2716">
        <ele>427.1</ele>
        <time>2020-05-10T14:31:39Z</time>
      </trkpt>
      <trkpt lat="48.70636" lon="7.27159">
        <ele>426</ele>
        <time>2020-05-10T14:31:41Z</time>
      </trkpt>
      <trkpt lat="48.70633" lon="7.27155">
        <ele>426.7</ele>
        <time>2020-05-10T14:31:42Z</time>
      </trkpt>
      <trkpt lat="48.70632" lon="7.27153">
        <ele>428</ele>
        <time>2020-05-10T14:31:43Z</time>
      </trkpt>
      <trkpt lat="48.70628" lon="7.27148">
        <ele>428.4</ele>
        <time>2020-05-10T14:31:45Z</time>
      </trkpt>
      <trkpt lat="48.70625" lon="7.27146">
        <ele>427.9</ele>
        <time>2020-05-10T14:31:46Z</time>
      </trkpt>
      <trkpt lat="48.70623" lon="7.27144">
        <ele>429.3</ele>
        <time>2020-05-10T14:31:47Z</time>
      </trkpt>
      <trkpt lat="48.70617" lon="7.2714">
        <ele>429.6</ele>
        <time>2020-05-10T14:31:49Z</time>
      </trkpt>
      <trkpt lat="48.70613" lon="7.27136">
        <ele>428.5</ele>
        <time>2020-05-10T14:31:51Z</time>
      </trkpt>
      <trkpt lat="48.70609" lon="7.2713">
        <ele>430.4</ele>
        <time>2020-05-10T14:31:53Z</time>
      </trkpt>
      <trkpt lat="48.70605" lon="7.27125">
        <ele>430.3</ele>
        <time>2020-05-10T14:31:55Z</time>
      </trkpt>
      <trkpt lat="48.70601" lon="7.2712">
        <ele>430.8</ele>
        <time>2020-05-10T14:31:57Z</time>
      </trkpt>
      <trkpt lat="48.70598" lon="7.27117">
        <ele>431.3</ele>
        <time>2020-05-10T14:31:58Z</time>
      </trkpt>
      <trkpt lat="48.70597" lon="7.27116">
        <ele>430.8</ele>
        <time>2020-05-10T14:31:59Z</time>
      </trkpt>
      <trkpt lat="48.70591" lon="7.27113">
        <ele>430.9</ele>
        <time>2020-05-10T14:32:01Z</time>
      </trkpt>
      <trkpt lat="48.70587" lon="7.27109">
        <ele>431.6</ele>
        <time>2020-05-10T14:32:03Z</time>
      </trkpt>
      <trkpt lat="48.70582" lon="7.27105">
        <ele>431.9</ele>
        <time>2020-05-10T14:32:05Z</time>
      </trkpt>
      <trkpt lat="48.7058" lon="7.271">
        <ele>432.7</ele>
        <time>2020-05-10T14:32:07Z</time>
      </trkpt>
      <trkpt lat="48.7058" lon="7.27099">
        <ele>432.7</ele>
        <time>2020-05-10T14:32:08Z</time>
      </trkpt>
      <trkpt lat="48.7058" lon="7.27098">
        <ele>434.2</ele>
        <time>2020-05-10T14:32:09Z</time>
      </trkpt>
      <trkpt lat="48.70581" lon="7.27095">
        <ele>434.2</ele>
        <time>2020-05-10T14:32:11Z</time>
      </trkpt>
      <trkpt lat="48.70582" lon="7.27093">
        <ele>435.2</ele>
        <time>2020-05-10T14:32:12Z</time>
      </trkpt>
      <trkpt lat="48.70582" lon="7.27091">
        <ele>435.2</ele>
        <time>2020-05-10T14:32:14Z</time>
      </trkpt>
      <trkpt lat="48.70583" lon="7.2709">
        <ele>435.6</ele>
        <time>2020-05-10T14:32:15Z</time>
      </trkpt>
      <trkpt lat="48.70585" lon="7.27089">
        <ele>436.6</ele>
        <time>2020-05-10T14:32:17Z</time>
      </trkpt>
      <trkpt lat="48.70585" lon="7.27087">
        <ele>436.6</ele>
        <time>2020-05-10T14:32:19Z</time>
      </trkpt>
      <trkpt lat="48.70586" lon="7.27087">
        <ele>436.9</ele>
        <time>2020-05-10T14:32:20Z</time>
      </trkpt>
      <trkpt lat="48.70588" lon="7.27088">
        <ele>436.9</ele>
        <time>2020-05-10T14:32:21Z</time>
      </trkpt>
      <trkpt lat="48.70589" lon="7.27088">
        <ele>436.9</ele>
        <time>2020-05-10T14:32:23Z</time>
      </trkpt>
      <trkpt lat="48.7059" lon="7.27088">
        <ele>437.3</ele>
        <time>2020-05-10T14:32:24Z</time>
      </trkpt>
      <trkpt lat="48.70591" lon="7.27089">
        <ele>437.3</ele>
        <time>2020-05-10T14:32:25Z</time>
      </trkpt>
      <trkpt lat="48.70592" lon="7.27089">
        <ele>437.6</ele>
        <time>2020-05-10T14:32:26Z</time>
      </trkpt>
      <trkpt lat="48.70595" lon="7.27092">
        <ele>437.1</ele>
        <time>2020-05-10T14:32:28Z</time>
      </trkpt>
      <trkpt lat="48.70596" lon="7.27093">
        <ele>437.1</ele>
        <time>2020-05-10T14:32:29Z</time>
      </trkpt>
      <trkpt lat="48.706" lon="7.27095">
        <ele>436.6</ele>
        <time>2020-05-10T14:32:31Z</time>
      </trkpt>
      <trkpt lat="48.70601" lon="7.27096">
        <ele>437.1</ele>
        <time>2020-05-10T14:32:32Z</time>
      </trkpt>
      <trkpt lat="48.70604" lon="7.27097">
        <ele>437.6</ele>
        <time>2020-05-10T14:32:34Z</time>
      </trkpt>
      <trkpt lat="48.70607" lon="7.27098">
        <ele>437.2</ele>
        <time>2020-05-10T14:32:35Z</time>
      </trkpt>
      <trkpt lat="48.70608" lon="7.27098">
        <ele>437.2</ele>
        <time>2020-05-10T14:32:36Z</time>
      </trkpt>
      <trkpt lat="48.70609" lon="7.27098">
        <ele>437.7</ele>
        <time>2020-05-10T14:32:37Z</time>
      </trkpt>
      <trkpt lat="48.70614" lon="7.271">
        <ele>438.3</ele>
        <time>2020-05-10T14:32:39Z</time>
      </trkpt>
      <trkpt lat="48.70619" lon="7.27102">
        <ele>439.5</ele>
        <time>2020-05-10T14:32:41Z</time>
      </trkpt>
      <trkpt lat="48.70624" lon="7.27103">
        <ele>439.6</ele>
        <time>2020-05-10T14:32:43Z</time>
      </trkpt>
      <trkpt lat="48.70629" lon="7.27105">
        <ele>440.7</ele>
        <time>2020-05-10T14:32:45Z</time>
      </trkpt>
      <trkpt lat="48.70632" lon="7.27107">
        <ele>440.1</ele>
        <time>2020-05-10T14:32:46Z</time>
      </trkpt>
      <trkpt lat="48.70633" lon="7.27107">
        <ele>440.1</ele>
        <time>2020-05-10T14:32:47Z</time>
      </trkpt>
      <trkpt lat="48.70637" lon="7.27108">
        <ele>440.7</ele>
        <time>2020-05-10T14:32:49Z</time>
      </trkpt>
      <trkpt lat="48.70639" lon="7.27109">
        <ele>441.3</ele>
        <time>2020-05-10T14:32:50Z</time>
      </trkpt>
      <trkpt lat="48.70643" lon="7.2711">
        <ele>441.8</ele>
        <time>2020-05-10T14:32:52Z</time>
      </trkpt>
      <trkpt lat="48.70645" lon="7.2711">
        <ele>442.3</ele>
        <time>2020-05-10T14:32:53Z</time>
      </trkpt>
      <trkpt lat="48.7065" lon="7.27109">
        <ele>443.2</ele>
        <time>2020-05-10T14:32:55Z</time>
      </trkpt>
      <trkpt lat="48.70653" lon="7.27108">
        <ele>443.6</ele>
        <time>2020-05-10T14:32:56Z</time>
      </trkpt>
      <trkpt lat="48.70654" lon="7.27108">
        <ele>444</ele>
        <time>2020-05-10T14:32:57Z</time>
      </trkpt>
      <trkpt lat="48.70659" lon="7.27109">
        <ele>444.5</ele>
        <time>2020-05-10T14:32:59Z</time>
      </trkpt>
      <trkpt lat="48.70663" lon="7.2711">
        <ele>445.3</ele>
        <time>2020-05-10T14:33:01Z</time>
      </trkpt>
      <trkpt lat="48.70664" lon="7.27111">
        <ele>444.2</ele>
        <time>2020-05-10T14:33:02Z</time>
      </trkpt>
      <trkpt lat="48.70667" lon="7.27112">
        <ele>444.6</ele>
        <time>2020-05-10T14:33:04Z</time>
      </trkpt>
      <trkpt lat="48.70668" lon="7.27112">
        <ele>444.6</ele>
        <time>2020-05-10T14:33:05Z</time>
      </trkpt>
      <trkpt lat="48.70672" lon="7.27113">
        <ele>445.4</ele>
        <time>2020-05-10T14:33:07Z</time>
      </trkpt>
      <trkpt lat="48.70678" lon="7.27116">
        <ele>445.3</ele>
        <time>2020-05-10T14:33:09Z</time>
      </trkpt>
      <trkpt lat="48.7068" lon="7.27116">
        <ele>445.7</ele>
        <time>2020-05-10T14:33:10Z</time>
      </trkpt>
      <trkpt lat="48.70682" lon="7.27117">
        <ele>445.7</ele>
        <time>2020-05-10T14:33:12Z</time>
      </trkpt>
      <trkpt lat="48.70684" lon="7.27119">
        <ele>446</ele>
        <time>2020-05-10T14:33:13Z</time>
      </trkpt>
      <trkpt lat="48.70685" lon="7.27119">
        <ele>445.2</ele>
        <time>2020-05-10T14:33:14Z</time>
      </trkpt>
      <trkpt lat="48.70686" lon="7.2712">
        <ele>445.6</ele>
        <time>2020-05-10T14:33:15Z</time>
      </trkpt>
      <trkpt lat="48.7069" lon="7.2712">
        <ele>445.9</ele>
        <time>2020-05-10T14:33:17Z</time>
      </trkpt>
      <trkpt lat="48.70694" lon="7.2712">
        <ele>446.6</ele>
        <time>2020-05-10T14:33:18Z</time>
      </trkpt>
      <trkpt lat="48.70695" lon="7.27119">
        <ele>447.4</ele>
        <time>2020-05-10T14:33:19Z</time>
      </trkpt>
      <trkpt lat="48.70698" lon="7.27118">
        <ele>447.7</ele>
        <time>2020-05-10T14:33:21Z</time>
      </trkpt>
      <trkpt lat="48.70699" lon="7.27118">
        <ele>447.7</ele>
        <time>2020-05-10T14:33:22Z</time>
      </trkpt>
      <trkpt lat="48.70701" lon="7.27117">
        <ele>447.9</ele>
        <time>2020-05-10T14:33:23Z</time>
      </trkpt>
      <trkpt lat="48.70705" lon="7.27116">
        <ele>448.1</ele>
        <time>2020-05-10T14:33:25Z</time>
      </trkpt>
      <trkpt lat="48.70709" lon="7.27115">
        <ele>448.3</ele>
        <time>2020-05-10T14:33:26Z</time>
      </trkpt>
      <trkpt lat="48.7071" lon="7.27114">
        <ele>449</ele>
        <time>2020-05-10T14:33:27Z</time>
      </trkpt>
      <trkpt lat="48.70714" lon="7.27111">
        <ele>449.1</ele>
        <time>2020-05-10T14:33:29Z</time>
      </trkpt>
      <trkpt lat="48.70716" lon="7.2711">
        <ele>449.8</ele>
        <time>2020-05-10T14:33:30Z</time>
      </trkpt>
      <trkpt lat="48.70718" lon="7.27108">
        <ele>449.7</ele>
        <time>2020-05-10T14:33:32Z</time>
      </trkpt>
      <trkpt lat="48.7072" lon="7.27104">
        <ele>450.3</ele>
        <time>2020-05-10T14:33:34Z</time>
      </trkpt>
      <trkpt lat="48.7072" lon="7.27099">
        <ele>450.9</ele>
        <time>2020-05-10T14:33:36Z</time>
      </trkpt>
      <trkpt lat="48.70721" lon="7.27095">
        <ele>451.6</ele>
        <time>2020-05-10T14:33:37Z</time>
      </trkpt>
    </trkseg>
  </trk>
  <trk>
    <name><![CDATA[secteur Saverne - Dabo - Petite Pierre_30]]></name>
    <trkseg>
      <trkpt lat="48.72187" lon="7.31546">
        <ele>216.3</ele>
        <time>2020-05-10T13:45:40Z</time>
      </trkpt>
      <trkpt lat="48.72187" lon="7.31546">
        <ele>216.3</ele>
        <time>2020-05-10T13:45:40Z</time>
      </trkpt>
      <trkpt lat="48.72187" lon="7.31546">
        <ele>216.3</ele>
        <time>2020-05-10T13:45:40Z</time>
      </trkpt>
      <trkpt lat="48.72187" lon="7.31546">
        <ele>216.3</ele>
        <time>2020-05-10T13:45:40Z</time>
      </trkpt>
      <trkpt lat="48.72187" lon="7.31546">
        <ele>216.3</ele>
        <time>2020-05-10T13:45:40Z</time>
      </trkpt>
      <trkpt lat="48.72187" lon="7.31546">
        <ele>216.3</ele>
        <time>2020-05-10T13:45:40Z</time>
      </trkpt>
      <trkpt lat="48.72187" lon="7.31546">
        <ele>216.3</ele>
        <time>2020-05-10T13:45:40Z</time>
      </trkpt>
      <trkpt lat="48.72184" lon="7.31546">
        <ele>216.1</ele>
        <time>2020-05-10T13:45:42Z</time>
      </trkpt>
      <trkpt lat="48.72183" lon="7.31546">
        <ele>215.9</ele>
        <time>2020-05-10T13:45:43Z</time>
      </trkpt>
      <trkpt lat="48.72181" lon="7.31547">
        <ele>215.8</ele>
        <time>2020-05-10T13:45:45Z</time>
      </trkpt>
      <trkpt lat="48.7218" lon="7.31546">
        <ele>215.7</ele>
        <time>2020-05-10T13:45:47Z</time>
      </trkpt>
      <trkpt lat="48.72179" lon="7.31545">
        <ele>215.6</ele>
        <time>2020-05-10T13:45:48Z</time>
      </trkpt>
      <trkpt lat="48.72178" lon="7.31544">
        <ele>215.4</ele>
        <time>2020-05-10T13:45:50Z</time>
      </trkpt>
      <trkpt lat="48.72176" lon="7.31542">
        <ele>215.3</ele>
        <time>2020-05-10T13:45:52Z</time>
      </trkpt>
      <trkpt lat="48.72175" lon="7.31542">
        <ele>215.2</ele>
        <time>2020-05-10T13:45:53Z</time>
      </trkpt>
      <trkpt lat="48.72172" lon="7.3154">
        <ele>214.8</ele>
        <time>2020-05-10T13:45:55Z</time>
      </trkpt>
      <trkpt lat="48.72171" lon="7.31537">
        <ele>214</ele>
        <time>2020-05-10T13:45:57Z</time>
      </trkpt>
      <trkpt lat="48.72169" lon="7.31535">
        <ele>213.8</ele>
        <time>2020-05-10T13:45:59Z</time>
      </trkpt>
      <trkpt lat="48.72168" lon="7.31535">
        <ele>213.7</ele>
        <time>2020-05-10T13:46:00Z</time>
      </trkpt>
      <trkpt lat="48.72166" lon="7.31535">
        <ele>213.6</ele>
        <time>2020-05-10T13:46:02Z</time>
      </trkpt>
      <trkpt lat="48.72165" lon="7.31534">
        <ele>213.6</ele>
        <time>2020-05-10T13:46:03Z</time>
      </trkpt>
      <trkpt lat="48.72164" lon="7.31535">
        <ele>209.8</ele>
        <time>2020-05-10T13:46:04Z</time>
      </trkpt>
      <trkpt lat="48.72163" lon="7.31535">
        <ele>209.2</ele>
        <time>2020-05-10T13:46:05Z</time>
      </trkpt>
      <trkpt lat="48.7216" lon="7.31537">
        <ele>207.7</ele>
        <time>2020-05-10T13:46:07Z</time>
      </trkpt>
      <trkpt lat="48.72159" lon="7.31537">
        <ele>207.3</ele>
        <time>2020-05-10T13:46:08Z</time>
      </trkpt>
      <trkpt lat="48.72157" lon="7.3154">
        <ele>206.2</ele>
        <time>2020-05-10T13:46:10Z</time>
      </trkpt>
      <trkpt lat="48.72157" lon="7.31542">
        <ele>206.2</ele>
        <time>2020-05-10T13:46:11Z</time>
      </trkpt>
      <trkpt lat="48.72158" lon="7.31544">
        <ele>206.2</ele>
        <time>2020-05-10T13:46:13Z</time>
      </trkpt>
      <trkpt lat="48.72158" lon="7.31547">
        <ele>206.2</ele>
        <time>2020-05-10T13:46:14Z</time>
      </trkpt>
      <trkpt lat="48.72159" lon="7.31548">
        <ele>206.2</ele>
        <time>2020-05-10T13:46:15Z</time>
      </trkpt>
      <trkpt lat="48.7216" lon="7.31547">
        <ele>206.2</ele>
        <time>2020-05-10T13:46:17Z</time>
      </trkpt>
      <trkpt lat="48.72161" lon="7.31548">
        <ele>206.2</ele>
        <time>2020-05-10T13:46:18Z</time>
      </trkpt>
      <trkpt lat="48.72162" lon="7.31552">
        <ele>206.2</ele>
        <time>2020-05-10T13:46:20Z</time>
      </trkpt>
      <trkpt lat="48.72163" lon="7.31557">
        <ele>206.3</ele>
        <time>2020-05-10T13:46:21Z</time>
      </trkpt>
      <trkpt lat="48.72163" lon="7.31562">
        <ele>206.3</ele>
        <time>2020-05-10T13:46:22Z</time>
      </trkpt>
      <trkpt lat="48.72165" lon="7.31573">
        <ele>206.3</ele>
        <time>2020-05-10T13:46:24Z</time>
      </trkpt>
      <trkpt lat="48.72168" lon="7.31585">
        <ele>206.2</ele>
        <time>2020-05-10T13:46:26Z</time>
      </trkpt>
      <trkpt lat="48.72171" lon="7.31595">
        <ele>206.2</ele>
        <time>2020-05-10T13:46:28Z</time>
      </trkpt>
      <trkpt lat="48.72173" lon="7.316">
        <ele>206.2</ele>
        <time>2020-05-10T13:46:29Z</time>
      </trkpt>
      <trkpt lat="48.72176" lon="7.31605">
        <ele>206.2</ele>
        <time>2020-05-10T13:46:31Z</time>
      </trkpt>
      <trkpt lat="48.72178" lon="7.3161">
        <ele>206.2</ele>
        <time>2020-05-10T13:46:33Z</time>
      </trkpt>
      <trkpt lat="48.72178" lon="7.3161">
        <ele>206.2</ele>
        <time>2020-05-10T13:46:34Z</time>
      </trkpt>
      <trkpt lat="48.72177" lon="7.31612">
        <ele>206.2</ele>
        <time>2020-05-10T13:46:36Z</time>
      </trkpt>
      <trkpt lat="48.72175" lon="7.31612">
        <ele>206.2</ele>
        <time>2020-05-10T13:46:37Z</time>
      </trkpt>
      <trkpt lat="48.72173" lon="7.31611">
        <ele>207.2</ele>
        <time>2020-05-10T13:46:39Z</time>
      </trkpt>
      <trkpt lat="48.72172" lon="7.31611">
        <ele>207.1</ele>
        <time>2020-05-10T13:46:40Z</time>
      </trkpt>
      <trkpt lat="48.72171" lon="7.31611">
        <ele>207.1</ele>
        <time>2020-05-10T13:46:41Z</time>
      </trkpt>
      <trkpt lat="48.72171" lon="7.31611">
        <ele>207.1</ele>
        <time>2020-05-10T13:46:42Z</time>
      </trkpt>
      <trkpt lat="48.72168" lon="7.31612">
        <ele>207.1</ele>
        <time>2020-05-10T13:46:44Z</time>
      </trkpt>
      <trkpt lat="48.72166" lon="7.31613">
        <ele>207.1</ele>
        <time>2020-05-10T13:46:46Z</time>
      </trkpt>
      <trkpt lat="48.72164" lon="7.31614">
        <ele>207</ele>
        <time>2020-05-10T13:46:48Z</time>
      </trkpt>
      <trkpt lat="48.72162" lon="7.31614">
        <ele>199.5</ele>
        <time>2020-05-10T13:46:49Z</time>
      </trkpt>
      <trkpt lat="48.72159" lon="7.31614">
        <ele>199.6</ele>
        <time>2020-05-10T13:46:51Z</time>
      </trkpt>
      <trkpt lat="48.72157" lon="7.31613">
        <ele>199.6</ele>
        <time>2020-05-10T13:46:52Z</time>
      </trkpt>
      <trkpt lat="48.72155" lon="7.31612">
        <ele>199.6</ele>
        <time>2020-05-10T13:46:53Z</time>
      </trkpt>
      <trkpt lat="48.72154" lon="7.3161">
        <ele>199.6</ele>
        <time>2020-05-10T13:46:54Z</time>
      </trkpt>
      <trkpt lat="48.72153" lon="7.31608">
        <ele>199.6</ele>
        <time>2020-05-10T13:46:56Z</time>
      </trkpt>
      <trkpt lat="48.72153" lon="7.31601">
        <ele>199.7</ele>
        <time>2020-05-10T13:46:58Z</time>
      </trkpt>
      <trkpt lat="48.72152" lon="7.31597">
        <ele>199.7</ele>
        <time>2020-05-10T13:46:59Z</time>
      </trkpt>
      <trkpt lat="48.7215" lon="7.31585">
        <ele>199.7</ele>
        <time>2020-05-10T13:47:01Z</time>
      </trkpt>
      <trkpt lat="48.72148" lon="7.3158">
        <ele>199.8</ele>
        <time>2020-05-10T13:47:02Z</time>
      </trkpt>
      <trkpt lat="48.72145" lon="7.3157">
        <ele>199.8</ele>
        <time>2020-05-10T13:47:04Z</time>
      </trkpt>
      <trkpt lat="48.72141" lon="7.3156">
        <ele>199.9</ele>
        <time>2020-05-10T13:47:06Z</time>
      </trkpt>
      <trkpt lat="48.72134" lon="7.3155">
        <ele>199.8</ele>
        <time>2020-05-10T13:47:08Z</time>
      </trkpt>
      <trkpt lat="48.7213" lon="7.31544">
        <ele>199.8</ele>
        <time>2020-05-10T13:47:09Z</time>
      </trkpt>
      <trkpt lat="48.72123" lon="7.31526">
        <ele>199.6</ele>
        <time>2020-05-10T13:47:11Z</time>
      </trkpt>
      <trkpt lat="48.72119" lon="7.3151">
        <ele>199.6</ele>
        <time>2020-05-10T13:47:13Z</time>
      </trkpt>
      <trkpt lat="48.72118" lon="7.31496">
        <ele>199.6</ele>
        <time>2020-05-10T13:47:15Z</time>
      </trkpt>
      <trkpt lat="48.72116" lon="7.31491">
        <ele>199.6</ele>
        <time>2020-05-10T13:47:16Z</time>
      </trkpt>
      <trkpt lat="48.72114" lon="7.31489">
        <ele>199.6</ele>
        <time>2020-05-10T13:47:17Z</time>
      </trkpt>
      <trkpt lat="48.72108" lon="7.31489">
        <ele>199.7</ele>
        <time>2020-05-10T13:47:19Z</time>
      </trkpt>
      <trkpt lat="48.72101" lon="7.31489">
        <ele>199.8</ele>
        <time>2020-05-10T13:47:21Z</time>
      </trkpt>
      <trkpt lat="48.72097" lon="7.31489">
        <ele>199.9</ele>
        <time>2020-05-10T13:47:22Z</time>
      </trkpt>
      <trkpt lat="48.72089" lon="7.3149">
        <ele>200.2</ele>
        <time>2020-05-10T13:47:24Z</time>
      </trkpt>
      <trkpt lat="48.7208" lon="7.31492">
        <ele>200.5</ele>
        <time>2020-05-10T13:47:26Z</time>
      </trkpt>
      <trkpt lat="48.72076" lon="7.31492">
        <ele>200.6</ele>
        <time>2020-05-10T13:47:27Z</time>
      </trkpt>
      <trkpt lat="48.72073" lon="7.31492">
        <ele>200.7</ele>
        <time>2020-05-10T13:47:28Z</time>
      </trkpt>
      <trkpt lat="48.7207" lon="7.31491">
        <ele>200.8</ele>
        <time>2020-05-10T13:47:29Z</time>
      </trkpt>
      <trkpt lat="48.72065" lon="7.3149">
        <ele>201</ele>
        <time>2020-05-10T13:47:31Z</time>
      </trkpt>
      <trkpt lat="48.72064" lon="7.3149">
        <ele>201.3</ele>
        <time>2020-05-10T13:47:32Z</time>
      </trkpt>
      <trkpt lat="48.72064" lon="7.3149">
        <ele>201.3</ele>
        <time>2020-05-10T13:47:33Z</time>
      </trkpt>
      <trkpt lat="48.72065" lon="7.31491">
        <ele>201</ele>
        <time>2020-05-10T13:47:35Z</time>
      </trkpt>
      <trkpt lat="48.72062" lon="7.31489">
        <ele>201.3</ele>
        <time>2020-05-10T13:47:37Z</time>
      </trkpt>
      <trkpt lat="48.72061" lon="7.31486">
        <ele>201.3</ele>
        <time>2020-05-10T13:47:38Z</time>
      </trkpt>
      <trkpt lat="48.72059" lon="7.31477">
        <ele>201.3</ele>
        <time>2020-05-10T13:47:40Z</time>
      </trkpt>
      <trkpt lat="48.72055" lon="7.31466">
        <ele>201.7</ele>
        <time>2020-05-10T13:47:42Z</time>
      </trkpt>
      <trkpt lat="48.7205" lon="7.31461">
        <ele>201.9</ele>
        <time>2020-05-10T13:47:44Z</time>
      </trkpt>
      <trkpt lat="48.72048" lon="7.31462">
        <ele>202</ele>
        <time>2020-05-10T13:47:46Z</time>
      </trkpt>
      <trkpt lat="48.72048" lon="7.31463">
        <ele>202</ele>
        <time>2020-05-10T13:47:47Z</time>
      </trkpt>
      <trkpt lat="48.72046" lon="7.31462">
        <ele>202</ele>
        <time>2020-05-10T13:47:48Z</time>
      </trkpt>
      <trkpt lat="48.72044" lon="7.31459">
        <ele>202.2</ele>
        <time>2020-05-10T13:47:50Z</time>
      </trkpt>
      <trkpt lat="48.72042" lon="7.31457">
        <ele>202.2</ele>
        <time>2020-05-10T13:47:52Z</time>
      </trkpt>
      <trkpt lat="48.72042" lon="7.31456">
        <ele>202.3</ele>
        <time>2020-05-10T13:47:53Z</time>
      </trkpt>
      <trkpt lat="48.72039" lon="7.31454">
        <ele>202.4</ele>
        <time>2020-05-10T13:47:55Z</time>
      </trkpt>
      <trkpt lat="48.72037" lon="7.31452">
        <ele>202.4</ele>
        <time>2020-05-10T13:47:57Z</time>
      </trkpt>
      <trkpt lat="48.72037" lon="7.31451">
        <ele>202.5</ele>
        <time>2020-05-10T13:47:59Z</time>
      </trkpt>
      <trkpt lat="48.72036" lon="7.3145">
        <ele>202.5</ele>
        <time>2020-05-10T13:48:00Z</time>
      </trkpt>
      <trkpt lat="48.72035" lon="7.3145">
        <ele>202.5</ele>
        <time>2020-05-10T13:48:01Z</time>
      </trkpt>
      <trkpt lat="48.72034" lon="7.31449">
        <ele>202.5</ele>
        <time>2020-05-10T13:48:03Z</time>
      </trkpt>
      <trkpt lat="48.72033" lon="7.31449">
        <ele>202.6</ele>
        <time>2020-05-10T13:48:04Z</time>
      </trkpt>
      <trkpt lat="48.72033" lon="7.31449">
        <ele>202.6</ele>
        <time>2020-05-10T13:48:05Z</time>
      </trkpt>
      <trkpt lat="48.72033" lon="7.31449">
        <ele>202.6</ele>
        <time>2020-05-10T13:48:06Z</time>
      </trkpt>
      <trkpt lat="48.72032" lon="7.3145">
        <ele>202.6</ele>
        <time>2020-05-10T13:48:08Z</time>
      </trkpt>
      <trkpt lat="48.72032" lon="7.3145">
        <ele>202.6</ele>
        <time>2020-05-10T13:48:10Z</time>
      </trkpt>
      <trkpt lat="48.72031" lon="7.3145">
        <ele>202.6</ele>
        <time>2020-05-10T13:48:11Z</time>
      </trkpt>
      <trkpt lat="48.72031" lon="7.31449">
        <ele>202.6</ele>
        <time>2020-05-10T13:48:12Z</time>
      </trkpt>
      <trkpt lat="48.72031" lon="7.3145">
        <ele>202.6</ele>
        <time>2020-05-10T13:48:14Z</time>
      </trkpt>
      <trkpt lat="48.72031" lon="7.3145">
        <ele>202.6</ele>
        <time>2020-05-10T13:48:15Z</time>
      </trkpt>
      <trkpt lat="48.72031" lon="7.3145">
        <ele>202.6</ele>
        <time>2020-05-10T13:48:17Z</time>
      </trkpt>
      <trkpt lat="48.72031" lon="7.3145">
        <ele>202.7</ele>
        <time>2020-05-10T13:48:19Z</time>
      </trkpt>
      <trkpt lat="48.72031" lon="7.3145">
        <ele>202.7</ele>
        <time>2020-05-10T13:48:20Z</time>
      </trkpt>
      <trkpt lat="48.7203" lon="7.3145">
        <ele>202.7</ele>
        <time>2020-05-10T13:48:22Z</time>
      </trkpt>
      <trkpt lat="48.7203" lon="7.3145">
        <ele>202.7</ele>
        <time>2020-05-10T13:48:23Z</time>
      </trkpt>
      <trkpt lat="48.7203" lon="7.3145">
        <ele>202.8</ele>
        <time>2020-05-10T13:48:25Z</time>
      </trkpt>
      <trkpt lat="48.7203" lon="7.31449">
        <ele>202.8</ele>
        <time>2020-05-10T13:48:26Z</time>
      </trkpt>
      <trkpt lat="48.7203" lon="7.31449">
        <ele>202.8</ele>
        <time>2020-05-10T13:48:28Z</time>
      </trkpt>
      <trkpt lat="48.7203" lon="7.31448">
        <ele>202.8</ele>
        <time>2020-05-10T13:48:30Z</time>
      </trkpt>
      <trkpt lat="48.7203" lon="7.31448">
        <ele>202.8</ele>
        <time>2020-05-10T13:48:31Z</time>
      </trkpt>
      <trkpt lat="48.7203" lon="7.31448">
        <ele>202.8</ele>
        <time>2020-05-10T13:48:33Z</time>
      </trkpt>
      <trkpt lat="48.72025" lon="7.31446">
        <ele>203</ele>
        <time>2020-05-10T13:49:03Z</time>
      </trkpt>
      <trkpt lat="48.7202" lon="7.31443">
        <ele>203.1</ele>
        <time>2020-05-10T13:49:05Z</time>
      </trkpt>
      <trkpt lat="48.72014" lon="7.31437">
        <ele>203.5</ele>
        <time>2020-05-10T13:49:07Z</time>
      </trkpt>
      <trkpt lat="48.72006" lon="7.3143">
        <ele>203.9</ele>
        <time>2020-05-10T13:49:09Z</time>
      </trkpt>
      <trkpt lat="48.71998" lon="7.31427">
        <ele>204.2</ele>
        <time>2020-05-10T13:49:11Z</time>
      </trkpt>
      <trkpt lat="48.71993" lon="7.3142">
        <ele>204.2</ele>
        <time>2020-05-10T13:49:13Z</time>
      </trkpt>
      <trkpt lat="48.71989" lon="7.31415">
        <ele>204.2</ele>
        <time>2020-05-10T13:49:14Z</time>
      </trkpt>
      <trkpt lat="48.71981" lon="7.31406">
        <ele>204.3</ele>
        <time>2020-05-10T13:49:16Z</time>
      </trkpt>
      <trkpt lat="48.71973" lon="7.31397">
        <ele>204.3</ele>
        <time>2020-05-10T13:49:18Z</time>
      </trkpt>
      <trkpt lat="48.71965" lon="7.31388">
        <ele>204.3</ele>
        <time>2020-05-10T13:49:20Z</time>
      </trkpt>
      <trkpt lat="48.71955" lon="7.31382">
        <ele>204.3</ele>
        <time>2020-05-10T13:49:22Z</time>
      </trkpt>
      <trkpt lat="48.7195" lon="7.3138">
        <ele>204.3</ele>
        <time>2020-05-10T13:49:23Z</time>
      </trkpt>
      <trkpt lat="48.71941" lon="7.31379">
        <ele>204.3</ele>
        <time>2020-05-10T13:49:25Z</time>
      </trkpt>
      <trkpt lat="48.71937" lon="7.31379">
        <ele>204.3</ele>
        <time>2020-05-10T13:49:26Z</time>
      </trkpt>
      <trkpt lat="48.71928" lon="7.31382">
        <ele>204.3</ele>
        <time>2020-05-10T13:49:28Z</time>
      </trkpt>
      <trkpt lat="48.71924" lon="7.3139">
        <ele>204.3</ele>
        <time>2020-05-10T13:49:30Z</time>
      </trkpt>
      <trkpt lat="48.71917" lon="7.31398">
        <ele>204.4</ele>
        <time>2020-05-10T13:49:32Z</time>
      </trkpt>
      <trkpt lat="48.71908" lon="7.31404">
        <ele>204.4</ele>
        <time>2020-05-10T13:49:34Z</time>
      </trkpt>
      <trkpt lat="48.71902" lon="7.3141">
        <ele>204.4</ele>
        <time>2020-05-10T13:49:36Z</time>
      </trkpt>
      <trkpt lat="48.71899" lon="7.31413">
        <ele>204.4</ele>
        <time>2020-05-10T13:49:37Z</time>
      </trkpt>
      <trkpt lat="48.71895" lon="7.31421">
        <ele>204.4</ele>
        <time>2020-05-10T13:49:39Z</time>
      </trkpt>
      <trkpt lat="48.71893" lon="7.31425">
        <ele>204.4</ele>
        <time>2020-05-10T13:49:40Z</time>
      </trkpt>
      <trkpt lat="48.71886" lon="7.31437">
        <ele>204.5</ele>
        <time>2020-05-10T13:49:42Z</time>
      </trkpt>
      <trkpt lat="48.71882" lon="7.31445">
        <ele>204.6</ele>
        <time>2020-05-10T13:49:44Z</time>
      </trkpt>
      <trkpt lat="48.71879" lon="7.31452">
        <ele>204.7</ele>
        <time>2020-05-10T13:49:46Z</time>
      </trkpt>
      <trkpt lat="48.71879" lon="7.31452">
        <ele>204.7</ele>
        <time>2020-05-10T13:49:47Z</time>
      </trkpt>
      <trkpt lat="48.71878" lon="7.31451">
        <ele>204.7</ele>
        <time>2020-05-10T13:49:49Z</time>
      </trkpt>
      <trkpt lat="48.71877" lon="7.31451">
        <ele>204.7</ele>
        <time>2020-05-10T13:49:51Z</time>
      </trkpt>
      <trkpt lat="48.71877" lon="7.31451">
        <ele>204.7</ele>
        <time>2020-05-10T13:49:52Z</time>
      </trkpt>
      <trkpt lat="48.71877" lon="7.31451">
        <ele>204.7</ele>
        <time>2020-05-10T13:49:54Z</time>
      </trkpt>
      <trkpt lat="48.71877" lon="7.31452">
        <ele>204.7</ele>
        <time>2020-05-10T13:49:55Z</time>
      </trkpt>
      <trkpt lat="48.71877" lon="7.31452">
        <ele>204.7</ele>
        <time>2020-05-10T13:49:57Z</time>
      </trkpt>
      <trkpt lat="48.71877" lon="7.31453">
        <ele>204.7</ele>
        <time>2020-05-10T13:49:58Z</time>
      </trkpt>
      <trkpt lat="48.71876" lon="7.31453">
        <ele>204.7</ele>
        <time>2020-05-10T13:49:59Z</time>
      </trkpt>
      <trkpt lat="48.71876" lon="7.31453">
        <ele>204.7</ele>
        <time>2020-05-10T13:50:01Z</time>
      </trkpt>
      <trkpt lat="48.71879" lon="7.31457">
        <ele>204.8</ele>
        <time>2020-05-10T13:50:08Z</time>
      </trkpt>
      <trkpt lat="48.71879" lon="7.31457">
        <ele>204.8</ele>
        <time>2020-05-10T13:50:09Z</time>
      </trkpt>
      <trkpt lat="48.71879" lon="7.31457">
        <ele>204.8</ele>
        <time>2020-05-10T13:50:11Z</time>
      </trkpt>
      <trkpt lat="48.71879" lon="7.31457">
        <ele>204.8</ele>
        <time>2020-05-10T13:50:12Z</time>
      </trkpt>
      <trkpt lat="48.71879" lon="7.31457">
        <ele>204.8</ele>
        <time>2020-05-10T13:50:13Z</time>
      </trkpt>
      <trkpt lat="48.71879" lon="7.31457">
        <ele>204.8</ele>
        <time>2020-05-10T13:50:14Z</time>
      </trkpt>
      <trkpt lat="48.71879" lon="7.31458">
        <ele>204.8</ele>
        <time>2020-05-10T13:50:16Z</time>
      </trkpt>
      <trkpt lat="48.71879" lon="7.31458">
        <ele>204.8</ele>
        <time>2020-05-10T13:50:17Z</time>
      </trkpt>
      <trkpt lat="48.7188" lon="7.31458">
        <ele>204.8</ele>
        <time>2020-05-10T13:50:19Z</time>
      </trkpt>
      <trkpt lat="48.7188" lon="7.31461">
        <ele>204.9</ele>
        <time>2020-05-10T13:51:02Z</time>
      </trkpt>
      <trkpt lat="48.7188" lon="7.31463">
        <ele>204.9</ele>
        <time>2020-05-10T13:51:04Z</time>
      </trkpt>
      <trkpt lat="48.71874" lon="7.31463">
        <ele>205</ele>
        <time>2020-05-10T13:51:06Z</time>
      </trkpt>
      <trkpt lat="48.71869" lon="7.31463">
        <ele>205.1</ele>
        <time>2020-05-10T13:51:08Z</time>
      </trkpt>
      <trkpt lat="48.71861" lon="7.31459">
        <ele>205.1</ele>
        <time>2020-05-10T13:51:10Z</time>
      </trkpt>
      <trkpt lat="48.71857" lon="7.31445">
        <ele>210</ele>
        <time>2020-05-10T13:51:12Z</time>
      </trkpt>
      <trkpt lat="48.71858" lon="7.31439">
        <ele>211</ele>
        <time>2020-05-10T13:51:13Z</time>
      </trkpt>
      <trkpt lat="48.7186" lon="7.31425">
        <ele>212.9</ele>
        <time>2020-05-10T13:51:15Z</time>
      </trkpt>
      <trkpt lat="48.71861" lon="7.31419">
        <ele>213.7</ele>
        <time>2020-05-10T13:51:16Z</time>
      </trkpt>
      <trkpt lat="48.71862" lon="7.31407">
        <ele>215.4</ele>
        <time>2020-05-10T13:51:18Z</time>
      </trkpt>
      <trkpt lat="48.71865" lon="7.31396">
        <ele>217.1</ele>
        <time>2020-05-10T13:51:20Z</time>
      </trkpt>
      <trkpt lat="48.71866" lon="7.31386">
        <ele>218.6</ele>
        <time>2020-05-10T13:51:22Z</time>
      </trkpt>
      <trkpt lat="48.71866" lon="7.3138">
        <ele>219.5</ele>
        <time>2020-05-10T13:51:23Z</time>
      </trkpt>
      <trkpt lat="48.71869" lon="7.31371">
        <ele>221</ele>
        <time>2020-05-10T13:51:25Z</time>
      </trkpt>
      <trkpt lat="48.71871" lon="7.31362">
        <ele>222.6</ele>
        <time>2020-05-10T13:51:27Z</time>
      </trkpt>
      <trkpt lat="48.71872" lon="7.31356">
        <ele>222.7</ele>
        <time>2020-05-10T13:51:28Z</time>
      </trkpt>
      <trkpt lat="48.71874" lon="7.31351">
        <ele>222.8</ele>
        <time>2020-05-10T13:51:29Z</time>
      </trkpt>
      <trkpt lat="48.71877" lon="7.31342">
        <ele>223.1</ele>
        <time>2020-05-10T13:51:31Z</time>
      </trkpt>
      <trkpt lat="48.71878" lon="7.31337">
        <ele>223.3</ele>
        <time>2020-05-10T13:51:32Z</time>
      </trkpt>
      <trkpt lat="48.71879" lon="7.31333">
        <ele>223.4</ele>
        <time>2020-05-10T13:51:33Z</time>
      </trkpt>
      <trkpt lat="48.7188" lon="7.31325">
        <ele>223.8</ele>
        <time>2020-05-10T13:51:35Z</time>
      </trkpt>
      <trkpt lat="48.71881" lon="7.31321">
        <ele>224</ele>
        <time>2020-05-10T13:51:36Z</time>
      </trkpt>
      <trkpt lat="48.71884" lon="7.31314">
        <ele>224.4</ele>
        <time>2020-05-10T13:51:39Z</time>
      </trkpt>
      <trkpt lat="48.71886" lon="7.31311">
        <ele>224.7</ele>
        <time>2020-05-10T13:51:40Z</time>
      </trkpt>
      <trkpt lat="48.71887" lon="7.3131">
        <ele>224.8</ele>
        <time>2020-05-10T13:51:41Z</time>
      </trkpt>
      <trkpt lat="48.7189" lon="7.31304">
        <ele>225.1</ele>
        <time>2020-05-10T13:51:43Z</time>
      </trkpt>
      <trkpt lat="48.71892" lon="7.31298">
        <ele>225.6</ele>
        <time>2020-05-10T13:51:45Z</time>
      </trkpt>
      <trkpt lat="48.71895" lon="7.3129">
        <ele>226.1</ele>
        <time>2020-05-10T13:51:47Z</time>
      </trkpt>
      <trkpt lat="48.71896" lon="7.31288">
        <ele>226.2</ele>
        <time>2020-05-10T13:51:48Z</time>
      </trkpt>
      <trkpt lat="48.719" lon="7.31281">
        <ele>226.8</ele>
        <time>2020-05-10T13:51:50Z</time>
      </trkpt>
      <trkpt lat="48.71904" lon="7.31275">
        <ele>227.2</ele>
        <time>2020-05-10T13:51:52Z</time>
      </trkpt>
      <trkpt lat="48.71907" lon="7.31272">
        <ele>227.6</ele>
        <time>2020-05-10T13:51:53Z</time>
      </trkpt>
      <trkpt lat="48.71907" lon="7.31271">
        <ele>227.7</ele>
        <time>2020-05-10T13:51:54Z</time>
      </trkpt>
      <trkpt lat="48.71911" lon="7.31267">
        <ele>228.1</ele>
        <time>2020-05-10T13:51:56Z</time>
      </trkpt>
      <trkpt lat="48.71915" lon="7.31263">
        <ele>228.5</ele>
        <time>2020-05-10T13:51:58Z</time>
      </trkpt>
      <trkpt lat="48.71916" lon="7.3126">
        <ele>228.7</ele>
        <time>2020-05-10T13:51:59Z</time>
      </trkpt>
      <trkpt lat="48.71919" lon="7.31255">
        <ele>229</ele>
        <time>2020-05-10T13:52:01Z</time>
      </trkpt>
      <trkpt lat="48.71921" lon="7.31252">
        <ele>229.3</ele>
        <time>2020-05-10T13:52:02Z</time>
      </trkpt>
      <trkpt lat="48.71925" lon="7.31248">
        <ele>229.7</ele>
        <time>2020-05-10T13:52:04Z</time>
      </trkpt>
      <trkpt lat="48.71928" lon="7.31242">
        <ele>230.1</ele>
        <time>2020-05-10T13:52:06Z</time>
      </trkpt>
      <trkpt lat="48.71932" lon="7.31239">
        <ele>230.6</ele>
        <time>2020-05-10T13:52:08Z</time>
      </trkpt>
      <trkpt lat="48.71934" lon="7.31238">
        <ele>230.8</ele>
        <time>2020-05-10T13:52:09Z</time>
      </trkpt>
      <trkpt lat="48.71936" lon="7.31232">
        <ele>231.2</ele>
        <time>2020-05-10T13:52:11Z</time>
      </trkpt>
      <trkpt lat="48.71938" lon="7.31225">
        <ele>231.8</ele>
        <time>2020-05-10T13:52:13Z</time>
      </trkpt>
      <trkpt lat="48.71939" lon="7.31218">
        <ele>232.3</ele>
        <time>2020-05-10T13:52:15Z</time>
      </trkpt>
      <trkpt lat="48.7194" lon="7.31213">
        <ele>232.7</ele>
        <time>2020-05-10T13:52:16Z</time>
      </trkpt>
      <trkpt lat="48.71941" lon="7.31211">
        <ele>232.8</ele>
        <time>2020-05-10T13:52:17Z</time>
      </trkpt>
      <trkpt lat="48.71942" lon="7.31204">
        <ele>233.3</ele>
        <time>2020-05-10T13:52:19Z</time>
      </trkpt>
      <trkpt lat="48.71942" lon="7.31198">
        <ele>233.8</ele>
        <time>2020-05-10T13:52:21Z</time>
      </trkpt>
      <trkpt lat="48.71942" lon="7.31195">
        <ele>234</ele>
        <time>2020-05-10T13:52:22Z</time>
      </trkpt>
      <trkpt lat="48.71941" lon="7.31188">
        <ele>234.4</ele>
        <time>2020-05-10T13:52:24Z</time>
      </trkpt>
      <trkpt lat="48.7194" lon="7.31181">
        <ele>234.9</ele>
        <time>2020-05-10T13:52:26Z</time>
      </trkpt>
      <trkpt lat="48.71939" lon="7.31175">
        <ele>235.4</ele>
        <time>2020-05-10T13:52:28Z</time>
      </trkpt>
      <trkpt lat="48.71937" lon="7.3117">
        <ele>235.9</ele>
        <time>2020-05-10T13:52:30Z</time>
      </trkpt>
      <trkpt lat="48.71936" lon="7.31163">
        <ele>236.4</ele>
        <time>2020-05-10T13:52:32Z</time>
      </trkpt>
      <trkpt lat="48.71936" lon="7.3116">
        <ele>236.6</ele>
        <time>2020-05-10T13:52:33Z</time>
      </trkpt>
      <trkpt lat="48.71934" lon="7.31154">
        <ele>237.1</ele>
        <time>2020-05-10T13:52:35Z</time>
      </trkpt>
      <trkpt lat="48.71932" lon="7.31146">
        <ele>237.7</ele>
        <time>2020-05-10T13:52:37Z</time>
      </trkpt>
      <trkpt lat="48.71933" lon="7.31141">
        <ele>238.1</ele>
        <time>2020-05-10T13:52:39Z</time>
      </trkpt>
      <trkpt lat="48.71934" lon="7.31136">
        <ele>238.5</ele>
        <time>2020-05-10T13:52:41Z</time>
      </trkpt>
      <trkpt lat="48.71935" lon="7.3113">
        <ele>238.9</ele>
        <time>2020-05-10T13:52:43Z</time>
      </trkpt>
      <trkpt lat="48.71936" lon="7.31124">
        <ele>239.3</ele>
        <time>2020-05-10T13:52:45Z</time>
      </trkpt>
      <trkpt lat="48.71936" lon="7.31122">
        <ele>239.5</ele>
        <time>2020-05-10T13:52:46Z</time>
      </trkpt>
      <trkpt lat="48.71936" lon="7.31114">
        <ele>240.1</ele>
        <time>2020-05-10T13:52:48Z</time>
      </trkpt>
      <trkpt lat="48.71936" lon="7.31111">
        <ele>240.3</ele>
        <time>2020-05-10T13:52:49Z</time>
      </trkpt>
      <trkpt lat="48.71936" lon="7.31104">
        <ele>240.8</ele>
        <time>2020-05-10T13:52:51Z</time>
      </trkpt>
      <trkpt lat="48.71935" lon="7.31097">
        <ele>241.4</ele>
        <time>2020-05-10T13:52:53Z</time>
      </trkpt>
      <trkpt lat="48.71934" lon="7.3109">
        <ele>241.9</ele>
        <time>2020-05-10T13:52:55Z</time>
      </trkpt>
      <trkpt lat="48.71934" lon="7.31087">
        <ele>242.1</ele>
        <time>2020-05-10T13:52:56Z</time>
      </trkpt>
      <trkpt lat="48.71931" lon="7.31082">
        <ele>242.6</ele>
        <time>2020-05-10T13:52:58Z</time>
      </trkpt>
      <trkpt lat="48.7193" lon="7.31074">
        <ele>243.1</ele>
        <time>2020-05-10T13:53:00Z</time>
      </trkpt>
      <trkpt lat="48.7193" lon="7.31071">
        <ele>243.3</ele>
        <time>2020-05-10T13:53:01Z</time>
      </trkpt>
      <trkpt lat="48.71929" lon="7.31065">
        <ele>243.7</ele>
        <time>2020-05-10T13:53:03Z</time>
      </trkpt>
      <trkpt lat="48.71928" lon="7.31058">
        <ele>244.3</ele>
        <time>2020-05-10T13:53:05Z</time>
      </trkpt>
      <trkpt lat="48.71926" lon="7.31052">
        <ele>244.7</ele>
        <time>2020-05-10T13:53:07Z</time>
      </trkpt>
      <trkpt lat="48.71925" lon="7.31045">
        <ele>245.3</ele>
        <time>2020-05-10T13:53:09Z</time>
      </trkpt>
      <trkpt lat="48.71925" lon="7.3104">
        <ele>245.6</ele>
        <time>2020-05-10T13:53:10Z</time>
      </trkpt>
      <trkpt lat="48.71924" lon="7.31039">
        <ele>245.7</ele>
        <time>2020-05-10T13:53:11Z</time>
      </trkpt>
      <trkpt lat="48.71923" lon="7.31033">
        <ele>246.2</ele>
        <time>2020-05-10T13:53:13Z</time>
      </trkpt>
      <trkpt lat="48.71923" lon="7.31029">
        <ele>246.4</ele>
        <time>2020-05-10T13:53:14Z</time>
      </trkpt>
      <trkpt lat="48.71923" lon="7.31023">
        <ele>246.8</ele>
        <time>2020-05-10T13:53:16Z</time>
      </trkpt>
      <trkpt lat="48.71922" lon="7.31021">
        <ele>247</ele>
        <time>2020-05-10T13:53:17Z</time>
      </trkpt>
      <trkpt lat="48.7192" lon="7.31015">
        <ele>247.4</ele>
        <time>2020-05-10T13:53:19Z</time>
      </trkpt>
      <trkpt lat="48.71919" lon="7.31009">
        <ele>247.8</ele>
        <time>2020-05-10T13:53:21Z</time>
      </trkpt>
      <trkpt lat="48.71919" lon="7.31004">
        <ele>248.2</ele>
        <time>2020-05-10T13:53:23Z</time>
      </trkpt>
      <trkpt lat="48.7192" lon="7.31002">
        <ele>248.3</ele>
        <time>2020-05-10T13:53:24Z</time>
      </trkpt>
      <trkpt lat="48.7192" lon="7.30997">
        <ele>248.7</ele>
        <time>2020-05-10T13:53:26Z</time>
      </trkpt>
      <trkpt lat="48.71921" lon="7.3099">
        <ele>249.1</ele>
        <time>2020-05-10T13:53:28Z</time>
      </trkpt>
      <trkpt lat="48.71922" lon="7.30988">
        <ele>249.2</ele>
        <time>2020-05-10T13:53:29Z</time>
      </trkpt>
      <trkpt lat="48.71922" lon="7.30986">
        <ele>249.4</ele>
        <time>2020-05-10T13:53:30Z</time>
      </trkpt>
      <trkpt lat="48.71923" lon="7.30979">
        <ele>249.8</ele>
        <time>2020-05-10T13:53:32Z</time>
      </trkpt>
      <trkpt lat="48.71923" lon="7.30973">
        <ele>250.1</ele>
        <time>2020-05-10T13:53:34Z</time>
      </trkpt>
      <trkpt lat="48.71922" lon="7.30968">
        <ele>250.5</ele>
        <time>2020-05-10T13:53:35Z</time>
      </trkpt>
      <trkpt lat="48.71922" lon="7.30966">
        <ele>250.6</ele>
        <time>2020-05-10T13:53:36Z</time>
      </trkpt>
      <trkpt lat="48.7192" lon="7.3096">
        <ele>251</ele>
        <time>2020-05-10T13:53:38Z</time>
      </trkpt>
      <trkpt lat="48.71919" lon="7.30955">
        <ele>251.3</ele>
        <time>2020-05-10T13:53:39Z</time>
      </trkpt>
      <trkpt lat="48.71919" lon="7.30953">
        <ele>251.4</ele>
        <time>2020-05-10T13:53:40Z</time>
      </trkpt>
      <trkpt lat="48.71919" lon="7.30947">
        <ele>251.8</ele>
        <time>2020-05-10T13:53:42Z</time>
      </trkpt>
      <trkpt lat="48.7192" lon="7.30944">
        <ele>252</ele>
        <time>2020-05-10T13:53:43Z</time>
      </trkpt>
      <trkpt lat="48.7192" lon="7.30938">
        <ele>252.5</ele>
        <time>2020-05-10T13:53:45Z</time>
      </trkpt>
      <trkpt lat="48.71919" lon="7.30935">
        <ele>252.6</ele>
        <time>2020-05-10T13:53:46Z</time>
      </trkpt>
      <trkpt lat="48.71919" lon="7.30929">
        <ele>253</ele>
        <time>2020-05-10T13:53:48Z</time>
      </trkpt>
      <trkpt lat="48.71919" lon="7.30926">
        <ele>253.2</ele>
        <time>2020-05-10T13:53:49Z</time>
      </trkpt>
      <trkpt lat="48.71917" lon="7.30921">
        <ele>253.7</ele>
        <time>2020-05-10T13:53:51Z</time>
      </trkpt>
      <trkpt lat="48.71917" lon="7.30916">
        <ele>254</ele>
        <time>2020-05-10T13:53:52Z</time>
      </trkpt>
      <trkpt lat="48.71917" lon="7.30914">
        <ele>254.1</ele>
        <time>2020-05-10T13:53:53Z</time>
      </trkpt>
      <trkpt lat="48.71917" lon="7.30909">
        <ele>254.5</ele>
        <time>2020-05-10T13:53:54Z</time>
      </trkpt>
      <trkpt lat="48.71916" lon="7.30907">
        <ele>254.7</ele>
        <time>2020-05-10T13:53:55Z</time>
      </trkpt>
      <trkpt lat="48.71916" lon="7.30901">
        <ele>255.2</ele>
        <time>2020-05-10T13:53:57Z</time>
      </trkpt>
      <trkpt lat="48.71916" lon="7.30896">
        <ele>255.5</ele>
        <time>2020-05-10T13:53:58Z</time>
      </trkpt>
      <trkpt lat="48.71916" lon="7.30894">
        <ele>255.6</ele>
        <time>2020-05-10T13:53:59Z</time>
      </trkpt>
      <trkpt lat="48.71915" lon="7.30887">
        <ele>256.1</ele>
        <time>2020-05-10T13:54:01Z</time>
      </trkpt>
      <trkpt lat="48.71915" lon="7.30881">
        <ele>256.6</ele>
        <time>2020-05-10T13:54:03Z</time>
      </trkpt>
      <trkpt lat="48.71914" lon="7.30877">
        <ele>256.9</ele>
        <time>2020-05-10T13:54:04Z</time>
      </trkpt>
      <trkpt lat="48.71915" lon="7.30871">
        <ele>257.4</ele>
        <time>2020-05-10T13:54:06Z</time>
      </trkpt>
      <trkpt lat="48.71914" lon="7.30866">
        <ele>257.7</ele>
        <time>2020-05-10T13:54:08Z</time>
      </trkpt>
      <trkpt lat="48.71914" lon="7.30863">
        <ele>257.9</ele>
        <time>2020-05-10T13:54:09Z</time>
      </trkpt>
      <trkpt lat="48.71912" lon="7.30858">
        <ele>258.3</ele>
        <time>2020-05-10T13:54:11Z</time>
      </trkpt>
      <trkpt lat="48.71912" lon="7.30854">
        <ele>258.6</ele>
        <time>2020-05-10T13:54:12Z</time>
      </trkpt>
      <trkpt lat="48.71911" lon="7.30848">
        <ele>259</ele>
        <time>2020-05-10T13:54:14Z</time>
      </trkpt>
      <trkpt lat="48.71911" lon="7.30841">
        <ele>259.5</ele>
        <time>2020-05-10T13:54:16Z</time>
      </trkpt>
      <trkpt lat="48.71911" lon="7.30832">
        <ele>260</ele>
        <time>2020-05-10T13:54:18Z</time>
      </trkpt>
      <trkpt lat="48.71911" lon="7.3083">
        <ele>260.2</ele>
        <time>2020-05-10T13:54:19Z</time>
      </trkpt>
      <trkpt lat="48.7191" lon="7.30824">
        <ele>260.6</ele>
        <time>2020-05-10T13:54:21Z</time>
      </trkpt>
      <trkpt lat="48.71909" lon="7.30818">
        <ele>261</ele>
        <time>2020-05-10T13:54:23Z</time>
      </trkpt>
      <trkpt lat="48.71909" lon="7.30815">
        <ele>261.2</ele>
        <time>2020-05-10T13:54:24Z</time>
      </trkpt>
      <trkpt lat="48.71909" lon="7.30808">
        <ele>261.6</ele>
        <time>2020-05-10T13:54:26Z</time>
      </trkpt>
      <trkpt lat="48.71909" lon="7.30804">
        <ele>261.9</ele>
        <time>2020-05-10T13:54:28Z</time>
      </trkpt>
      <trkpt lat="48.71909" lon="7.30801">
        <ele>262</ele>
        <time>2020-05-10T13:54:29Z</time>
      </trkpt>
      <trkpt lat="48.71908" lon="7.30798">
        <ele>262.2</ele>
        <time>2020-05-10T13:54:30Z</time>
      </trkpt>
      <trkpt lat="48.71908" lon="7.30795">
        <ele>262.4</ele>
        <time>2020-05-10T13:54:31Z</time>
      </trkpt>
      <trkpt lat="48.71908" lon="7.30788">
        <ele>262.8</ele>
        <time>2020-05-10T13:54:33Z</time>
      </trkpt>
      <trkpt lat="48.71906" lon="7.30781">
        <ele>263.2</ele>
        <time>2020-05-10T13:54:35Z</time>
      </trkpt>
      <trkpt lat="48.71905" lon="7.30778">
        <ele>263.4</ele>
        <time>2020-05-10T13:54:36Z</time>
      </trkpt>
      <trkpt lat="48.71905" lon="7.30771">
        <ele>263.8</ele>
        <time>2020-05-10T13:54:38Z</time>
      </trkpt>
      <trkpt lat="48.71904" lon="7.30767">
        <ele>264</ele>
        <time>2020-05-10T13:54:39Z</time>
      </trkpt>
      <trkpt lat="48.71905" lon="7.30761">
        <ele>264.4</ele>
        <time>2020-05-10T13:54:41Z</time>
      </trkpt>
      <trkpt lat="48.71905" lon="7.30755">
        <ele>264.7</ele>
        <time>2020-05-10T13:54:43Z</time>
      </trkpt>
      <trkpt lat="48.71904" lon="7.3075">
        <ele>264.9</ele>
        <time>2020-05-10T13:54:45Z</time>
      </trkpt>
      <trkpt lat="48.71903" lon="7.30743">
        <ele>265.2</ele>
        <time>2020-05-10T13:54:47Z</time>
      </trkpt>
      <trkpt lat="48.71903" lon="7.3074">
        <ele>265.3</ele>
        <time>2020-05-10T13:54:48Z</time>
      </trkpt>
      <trkpt lat="48.71902" lon="7.30734">
        <ele>265.6</ele>
        <time>2020-05-10T13:54:50Z</time>
      </trkpt>
      <trkpt lat="48.71901" lon="7.30727">
        <ele>265.9</ele>
        <time>2020-05-10T13:54:52Z</time>
      </trkpt>
      <trkpt lat="48.719" lon="7.30723">
        <ele>266.1</ele>
        <time>2020-05-10T13:54:53Z</time>
      </trkpt>
      <trkpt lat="48.719" lon="7.30722">
        <ele>266.1</ele>
        <time>2020-05-10T13:54:54Z</time>
      </trkpt>
      <trkpt lat="48.719" lon="7.30717">
        <ele>266.3</ele>
        <time>2020-05-10T13:54:56Z</time>
      </trkpt>
      <trkpt lat="48.719" lon="7.30711">
        <ele>266.6</ele>
        <time>2020-05-10T13:54:58Z</time>
      </trkpt>
      <trkpt lat="48.719" lon="7.30707">
        <ele>266.7</ele>
        <time>2020-05-10T13:54:59Z</time>
      </trkpt>
      <trkpt lat="48.71899" lon="7.307">
        <ele>267</ele>
        <time>2020-05-10T13:55:01Z</time>
      </trkpt>
      <trkpt lat="48.71898" lon="7.30695">
        <ele>267.2</ele>
        <time>2020-05-10T13:55:02Z</time>
      </trkpt>
      <trkpt lat="48.71897" lon="7.30694">
        <ele>267.3</ele>
        <time>2020-05-10T13:55:03Z</time>
      </trkpt>
      <trkpt lat="48.71897" lon="7.30687">
        <ele>267.5</ele>
        <time>2020-05-10T13:55:05Z</time>
      </trkpt>
      <trkpt lat="48.71897" lon="7.30679">
        <ele>267.9</ele>
        <time>2020-05-10T13:55:07Z</time>
      </trkpt>
      <trkpt lat="48.71896" lon="7.30675">
        <ele>268</ele>
        <time>2020-05-10T13:55:08Z</time>
      </trkpt>
      <trkpt lat="48.71895" lon="7.30668">
        <ele>268.3</ele>
        <time>2020-05-10T13:55:10Z</time>
      </trkpt>
      <trkpt lat="48.71894" lon="7.30662">
        <ele>268.5</ele>
        <time>2020-05-10T13:55:12Z</time>
      </trkpt>
      <trkpt lat="48.71893" lon="7.30654">
        <ele>268.8</ele>
        <time>2020-05-10T13:55:14Z</time>
      </trkpt>
      <trkpt lat="48.71891" lon="7.30646">
        <ele>269</ele>
        <time>2020-05-10T13:55:16Z</time>
      </trkpt>
      <trkpt lat="48.71891" lon="7.30641">
        <ele>269.2</ele>
        <time>2020-05-10T13:55:17Z</time>
      </trkpt>
      <trkpt lat="48.71888" lon="7.30634">
        <ele>269.4</ele>
        <time>2020-05-10T13:55:19Z</time>
      </trkpt>
      <trkpt lat="48.71886" lon="7.30624">
        <ele>269.7</ele>
        <time>2020-05-10T13:55:21Z</time>
      </trkpt>
      <trkpt lat="48.71885" lon="7.30619">
        <ele>269.8</ele>
        <time>2020-05-10T13:55:22Z</time>
      </trkpt>
      <trkpt lat="48.71882" lon="7.3061">
        <ele>270.1</ele>
        <time>2020-05-10T13:55:24Z</time>
      </trkpt>
      <trkpt lat="48.71881" lon="7.306">
        <ele>270.4</ele>
        <time>2020-05-10T13:55:26Z</time>
      </trkpt>
      <trkpt lat="48.71879" lon="7.3059">
        <ele>270.6</ele>
        <time>2020-05-10T13:55:28Z</time>
      </trkpt>
      <trkpt lat="48.71877" lon="7.30582">
        <ele>270.7</ele>
        <time>2020-05-10T13:55:30Z</time>
      </trkpt>
      <trkpt lat="48.71876" lon="7.30578">
        <ele>270.8</ele>
        <time>2020-05-10T13:55:31Z</time>
      </trkpt>
      <trkpt lat="48.71875" lon="7.30573">
        <ele>270.9</ele>
        <time>2020-05-10T13:55:32Z</time>
      </trkpt>
      <trkpt lat="48.71872" lon="7.30565">
        <ele>271</ele>
        <time>2020-05-10T13:55:34Z</time>
      </trkpt>
      <trkpt lat="48.71869" lon="7.30554">
        <ele>271.2</ele>
        <time>2020-05-10T13:55:36Z</time>
      </trkpt>
      <trkpt lat="48.71864" lon="7.30544">
        <ele>271.4</ele>
        <time>2020-05-10T13:55:38Z</time>
      </trkpt>
      <trkpt lat="48.71862" lon="7.3054">
        <ele>271.5</ele>
        <time>2020-05-10T13:55:39Z</time>
      </trkpt>
      <trkpt lat="48.71859" lon="7.30533">
        <ele>271.6</ele>
        <time>2020-05-10T13:55:41Z</time>
      </trkpt>
      <trkpt lat="48.71858" lon="7.30528">
        <ele>271.7</ele>
        <time>2020-05-10T13:55:42Z</time>
      </trkpt>
      <trkpt lat="48.71857" lon="7.30523">
        <ele>271.7</ele>
        <time>2020-05-10T13:55:43Z</time>
      </trkpt>
      <trkpt lat="48.71855" lon="7.30513">
        <ele>271.9</ele>
        <time>2020-05-10T13:55:45Z</time>
      </trkpt>
      <trkpt lat="48.71852" lon="7.30502">
        <ele>272</ele>
        <time>2020-05-10T13:55:47Z</time>
      </trkpt>
      <trkpt lat="48.71848" lon="7.30493">
        <ele>272.2</ele>
        <time>2020-05-10T13:55:49Z</time>
      </trkpt>
      <trkpt lat="48.71846" lon="7.30488">
        <ele>272.3</ele>
        <time>2020-05-10T13:55:50Z</time>
      </trkpt>
      <trkpt lat="48.71843" lon="7.30477">
        <ele>272.4</ele>
        <time>2020-05-10T13:55:52Z</time>
      </trkpt>
      <trkpt lat="48.71841" lon="7.30466">
        <ele>272.6</ele>
        <time>2020-05-10T13:55:54Z</time>
      </trkpt>
      <trkpt lat="48.71839" lon="7.30454">
        <ele>272.7</ele>
        <time>2020-05-10T13:55:56Z</time>
      </trkpt>
      <trkpt lat="48.71839" lon="7.30448">
        <ele>272.8</ele>
        <time>2020-05-10T13:55:57Z</time>
      </trkpt>
      <trkpt lat="48.71839" lon="7.30442">
        <ele>272.9</ele>
        <time>2020-05-10T13:55:58Z</time>
      </trkpt>
      <trkpt lat="48.71842" lon="7.30429">
        <ele>273.1</ele>
        <time>2020-05-10T13:56:00Z</time>
      </trkpt>
      <trkpt lat="48.71846" lon="7.3042">
        <ele>273.3</ele>
        <time>2020-05-10T13:56:02Z</time>
      </trkpt>
      <trkpt lat="48.7185" lon="7.30411">
        <ele>273.4</ele>
        <time>2020-05-10T13:56:04Z</time>
      </trkpt>
      <trkpt lat="48.71855" lon="7.30401">
        <ele>273.7</ele>
        <time>2020-05-10T13:56:06Z</time>
      </trkpt>
    </trkseg>
  </trk>
  <trk>
    <name><![CDATA[secteur Saverne - Dabo - Petite Pierre_31]]></name>
    <trkseg>
      <trkpt lat="48.73795" lon="7.347">
        <ele>191.6</ele>
        <time>2020-08-14T14:08:44Z</time>
      </trkpt>
      <trkpt lat="48.73795" lon="7.347">
        <ele>191.6</ele>
        <time>2020-08-14T14:08:44Z</time>
      </trkpt>
      <trkpt lat="48.73795" lon="7.347">
        <ele>191.6</ele>
        <time>2020-08-14T14:08:44Z</time>
      </trkpt>
      <trkpt lat="48.73795" lon="7.347">
        <ele>191.6</ele>
        <time>2020-08-14T14:08:44Z</time>
      </trkpt>
      <trkpt lat="48.73795" lon="7.347">
        <ele>191.6</ele>
        <time>2020-08-14T14:08:44Z</time>
      </trkpt>
      <trkpt lat="48.73795" lon="7.347">
        <ele>191.6</ele>
        <time>2020-08-14T14:08:44Z</time>
      </trkpt>
      <trkpt lat="48.73795" lon="7.34693">
        <ele>186.8</ele>
        <time>2020-08-14T14:08:54Z</time>
      </trkpt>
      <trkpt lat="48.738" lon="7.34693">
        <ele>189.1</ele>
        <time>2020-08-14T14:09:12Z</time>
      </trkpt>
      <trkpt lat="48.73805" lon="7.34695">
        <ele>189.3</ele>
        <time>2020-08-14T14:09:14Z</time>
      </trkpt>
      <trkpt lat="48.7381" lon="7.34697">
        <ele>191.7</ele>
        <time>2020-08-14T14:09:16Z</time>
      </trkpt>
      <trkpt lat="48.73817" lon="7.34696">
        <ele>192.4</ele>
        <time>2020-08-14T14:09:18Z</time>
      </trkpt>
      <trkpt lat="48.73823" lon="7.34687">
        <ele>192.7</ele>
        <time>2020-08-14T14:09:20Z</time>
      </trkpt>
      <trkpt lat="48.73829" lon="7.34675">
        <ele>192.3</ele>
        <time>2020-08-14T14:09:22Z</time>
      </trkpt>
      <trkpt lat="48.73834" lon="7.34663">
        <ele>192.2</ele>
        <time>2020-08-14T14:09:24Z</time>
      </trkpt>
      <trkpt lat="48.73839" lon="7.34651">
        <ele>192.1</ele>
        <time>2020-08-14T14:09:26Z</time>
      </trkpt>
      <trkpt lat="48.73842" lon="7.34641">
        <ele>192.5</ele>
        <time>2020-08-14T14:09:28Z</time>
      </trkpt>
      <trkpt lat="48.73844" lon="7.34634">
        <ele>192.6</ele>
        <time>2020-08-14T14:09:30Z</time>
      </trkpt>
      <trkpt lat="48.73847" lon="7.34628">
        <ele>191.5</ele>
        <time>2020-08-14T14:09:48Z</time>
      </trkpt>
      <trkpt lat="48.7385" lon="7.34621">
        <ele>192.2</ele>
        <time>2020-08-14T14:09:52Z</time>
      </trkpt>
      <trkpt lat="48.73853" lon="7.34614">
        <ele>192.6</ele>
        <time>2020-08-14T14:09:55Z</time>
      </trkpt>
      <trkpt lat="48.73852" lon="7.34605">
        <ele>192</ele>
        <time>2020-08-14T14:09:58Z</time>
      </trkpt>
    </trkseg>
  </trk>
  <trk>
    <name><![CDATA[secteur Saverne - Dabo - Petite Pierre_32]]></name>
    <trkseg>
      <trkpt lat="48.73437" lon="7.33949">
        <ele>250.7</ele>
        <time>2020-08-14T14:13:39Z</time>
      </trkpt>
      <trkpt lat="48.73437" lon="7.33949">
        <ele>250.7</ele>
        <time>2020-08-14T14:13:39Z</time>
      </trkpt>
      <trkpt lat="48.73437" lon="7.33949">
        <ele>250.7</ele>
        <time>2020-08-14T14:13:39Z</time>
      </trkpt>
      <trkpt lat="48.73437" lon="7.33949">
        <ele>250.7</ele>
        <time>2020-08-14T14:13:39Z</time>
      </trkpt>
      <trkpt lat="48.73437" lon="7.33949">
        <ele>250.7</ele>
        <time>2020-08-14T14:13:39Z</time>
      </trkpt>
      <trkpt lat="48.73437" lon="7.33949">
        <ele>250.7</ele>
        <time>2020-08-14T14:13:39Z</time>
      </trkpt>
      <trkpt lat="48.73431" lon="7.33939">
        <ele>251.1</ele>
        <time>2020-08-14T14:13:41Z</time>
      </trkpt>
      <trkpt lat="48.73426" lon="7.33928">
        <ele>251.3</ele>
        <time>2020-08-14T14:13:43Z</time>
      </trkpt>
      <trkpt lat="48.73419" lon="7.33918">
        <ele>251.7</ele>
        <time>2020-08-14T14:13:45Z</time>
      </trkpt>
      <trkpt lat="48.73413" lon="7.33907">
        <ele>252.1</ele>
        <time>2020-08-14T14:13:47Z</time>
      </trkpt>
      <trkpt lat="48.73406" lon="7.33897">
        <ele>253</ele>
        <time>2020-08-14T14:13:49Z</time>
      </trkpt>
      <trkpt lat="48.734" lon="7.33885">
        <ele>253.2</ele>
        <time>2020-08-14T14:13:51Z</time>
      </trkpt>
      <trkpt lat="48.73397" lon="7.33873">
        <ele>253.6</ele>
        <time>2020-08-14T14:13:53Z</time>
      </trkpt>
      <trkpt lat="48.73392" lon="7.33861">
        <ele>253.9</ele>
        <time>2020-08-14T14:13:55Z</time>
      </trkpt>
      <trkpt lat="48.73386" lon="7.33852">
        <ele>254.4</ele>
        <time>2020-08-14T14:13:57Z</time>
      </trkpt>
      <trkpt lat="48.7338" lon="7.33842">
        <ele>255.4</ele>
        <time>2020-08-14T14:13:59Z</time>
      </trkpt>
      <trkpt lat="48.73375" lon="7.33832">
        <ele>257</ele>
        <time>2020-08-14T14:14:01Z</time>
      </trkpt>
      <trkpt lat="48.73369" lon="7.33822">
        <ele>258</ele>
        <time>2020-08-14T14:14:03Z</time>
      </trkpt>
      <trkpt lat="48.73364" lon="7.33812">
        <ele>258.6</ele>
        <time>2020-08-14T14:14:05Z</time>
      </trkpt>
      <trkpt lat="48.73361" lon="7.33799">
        <ele>258.6</ele>
        <time>2020-08-14T14:14:07Z</time>
      </trkpt>
      <trkpt lat="48.73358" lon="7.33788">
        <ele>259.2</ele>
        <time>2020-08-14T14:14:09Z</time>
      </trkpt>
      <trkpt lat="48.73355" lon="7.33778">
        <ele>259.7</ele>
        <time>2020-08-14T14:14:11Z</time>
      </trkpt>
      <trkpt lat="48.73353" lon="7.33767">
        <ele>260.4</ele>
        <time>2020-08-14T14:14:13Z</time>
      </trkpt>
      <trkpt lat="48.73353" lon="7.33753">
        <ele>260.1</ele>
        <time>2020-08-14T14:14:15Z</time>
      </trkpt>
      <trkpt lat="48.73354" lon="7.33739">
        <ele>260.4</ele>
        <time>2020-08-14T14:14:17Z</time>
      </trkpt>
      <trkpt lat="48.73357" lon="7.33728">
        <ele>259.4</ele>
        <time>2020-08-14T14:14:19Z</time>
      </trkpt>
      <trkpt lat="48.7336" lon="7.33717">
        <ele>259.6</ele>
        <time>2020-08-14T14:14:21Z</time>
      </trkpt>
      <trkpt lat="48.73363" lon="7.33706">
        <ele>259.9</ele>
        <time>2020-08-14T14:14:23Z</time>
      </trkpt>
      <trkpt lat="48.73365" lon="7.33693">
        <ele>258.2</ele>
        <time>2020-08-14T14:14:25Z</time>
      </trkpt>
      <trkpt lat="48.73368" lon="7.33677">
        <ele>259.5</ele>
        <time>2020-08-14T14:14:28Z</time>
      </trkpt>
      <trkpt lat="48.7337" lon="7.33667">
        <ele>260.5</ele>
        <time>2020-08-14T14:14:30Z</time>
      </trkpt>
      <trkpt lat="48.73371" lon="7.33657">
        <ele>262.2</ele>
        <time>2020-08-14T14:14:32Z</time>
      </trkpt>
      <trkpt lat="48.73372" lon="7.33647">
        <ele>263.8</ele>
        <time>2020-08-14T14:14:34Z</time>
      </trkpt>
      <trkpt lat="48.73373" lon="7.33636">
        <ele>265.2</ele>
        <time>2020-08-14T14:14:36Z</time>
      </trkpt>
      <trkpt lat="48.73375" lon="7.33624">
        <ele>266.5</ele>
        <time>2020-08-14T14:14:38Z</time>
      </trkpt>
      <trkpt lat="48.73377" lon="7.33612">
        <ele>267.9</ele>
        <time>2020-08-14T14:14:40Z</time>
      </trkpt>
      <trkpt lat="48.73379" lon="7.33599">
        <ele>268.8</ele>
        <time>2020-08-14T14:14:42Z</time>
      </trkpt>
      <trkpt lat="48.73381" lon="7.33586">
        <ele>269.1</ele>
        <time>2020-08-14T14:14:44Z</time>
      </trkpt>
      <trkpt lat="48.73383" lon="7.33574">
        <ele>271.4</ele>
        <time>2020-08-14T14:14:46Z</time>
      </trkpt>
      <trkpt lat="48.73384" lon="7.33562">
        <ele>272.2</ele>
        <time>2020-08-14T14:14:48Z</time>
      </trkpt>
      <trkpt lat="48.73386" lon="7.33551">
        <ele>272.2</ele>
        <time>2020-08-14T14:14:50Z</time>
      </trkpt>
      <trkpt lat="48.73388" lon="7.3354">
        <ele>273.1</ele>
        <time>2020-08-14T14:14:52Z</time>
      </trkpt>
      <trkpt lat="48.7339" lon="7.33529">
        <ele>273.1</ele>
        <time>2020-08-14T14:14:54Z</time>
      </trkpt>
      <trkpt lat="48.73391" lon="7.33516">
        <ele>274</ele>
        <time>2020-08-14T14:14:56Z</time>
      </trkpt>
      <trkpt lat="48.73393" lon="7.33505">
        <ele>274.2</ele>
        <time>2020-08-14T14:14:58Z</time>
      </trkpt>
      <trkpt lat="48.73395" lon="7.33495">
        <ele>274.7</ele>
        <time>2020-08-14T14:15:00Z</time>
      </trkpt>
      <trkpt lat="48.73395" lon="7.33484">
        <ele>275.3</ele>
        <time>2020-08-14T14:15:02Z</time>
      </trkpt>
      <trkpt lat="48.73396" lon="7.33471">
        <ele>275.6</ele>
        <time>2020-08-14T14:15:04Z</time>
      </trkpt>
      <trkpt lat="48.73396" lon="7.33458">
        <ele>275.7</ele>
        <time>2020-08-14T14:15:06Z</time>
      </trkpt>
      <trkpt lat="48.73397" lon="7.33444">
        <ele>275.9</ele>
        <time>2020-08-14T14:15:08Z</time>
      </trkpt>
      <trkpt lat="48.73399" lon="7.33431">
        <ele>275.9</ele>
        <time>2020-08-14T14:15:10Z</time>
      </trkpt>
      <trkpt lat="48.73402" lon="7.33419">
        <ele>276.4</ele>
        <time>2020-08-14T14:15:12Z</time>
      </trkpt>
      <trkpt lat="48.73404" lon="7.33406">
        <ele>277.1</ele>
        <time>2020-08-14T14:15:14Z</time>
      </trkpt>
      <trkpt lat="48.73405" lon="7.33393">
        <ele>273.7</ele>
        <time>2020-08-14T14:15:16Z</time>
      </trkpt>
      <trkpt lat="48.73406" lon="7.33381">
        <ele>275.2</ele>
        <time>2020-08-14T14:15:18Z</time>
      </trkpt>
      <trkpt lat="48.73407" lon="7.33369">
        <ele>277.5</ele>
        <time>2020-08-14T14:15:20Z</time>
      </trkpt>
      <trkpt lat="48.73408" lon="7.33358">
        <ele>278.5</ele>
        <time>2020-08-14T14:15:22Z</time>
      </trkpt>
      <trkpt lat="48.73408" lon="7.33347">
        <ele>280.6</ele>
        <time>2020-08-14T14:15:24Z</time>
      </trkpt>
      <trkpt lat="48.73408" lon="7.33336">
        <ele>282</ele>
        <time>2020-08-14T14:15:26Z</time>
      </trkpt>
      <trkpt lat="48.73409" lon="7.33324">
        <ele>283.6</ele>
        <time>2020-08-14T14:15:28Z</time>
      </trkpt>
      <trkpt lat="48.73408" lon="7.3331">
        <ele>284.2</ele>
        <time>2020-08-14T14:15:30Z</time>
      </trkpt>
      <trkpt lat="48.73409" lon="7.33295">
        <ele>284.1</ele>
        <time>2020-08-14T14:15:32Z</time>
      </trkpt>
      <trkpt lat="48.73409" lon="7.33281">
        <ele>284.6</ele>
        <time>2020-08-14T14:15:34Z</time>
      </trkpt>
      <trkpt lat="48.73408" lon="7.33266">
        <ele>285.1</ele>
        <time>2020-08-14T14:15:36Z</time>
      </trkpt>
      <trkpt lat="48.73406" lon="7.3325">
        <ele>286</ele>
        <time>2020-08-14T14:15:38Z</time>
      </trkpt>
      <trkpt lat="48.73405" lon="7.33235">
        <ele>287</ele>
        <time>2020-08-14T14:15:40Z</time>
      </trkpt>
      <trkpt lat="48.73403" lon="7.33221">
        <ele>287.7</ele>
        <time>2020-08-14T14:15:42Z</time>
      </trkpt>
      <trkpt lat="48.73402" lon="7.33204">
        <ele>287.7</ele>
        <time>2020-08-14T14:15:44Z</time>
      </trkpt>
      <trkpt lat="48.73399" lon="7.33182">
        <ele>288.5</ele>
        <time>2020-08-14T14:15:47Z</time>
      </trkpt>
      <trkpt lat="48.73397" lon="7.33166">
        <ele>288.8</ele>
        <time>2020-08-14T14:15:49Z</time>
      </trkpt>
      <trkpt lat="48.73395" lon="7.3315">
        <ele>288.5</ele>
        <time>2020-08-14T14:15:51Z</time>
      </trkpt>
      <trkpt lat="48.73392" lon="7.33134">
        <ele>288.7</ele>
        <time>2020-08-14T14:15:53Z</time>
      </trkpt>
      <trkpt lat="48.73392" lon="7.33122">
        <ele>287.2</ele>
        <time>2020-08-14T14:15:55Z</time>
      </trkpt>
      <trkpt lat="48.7339" lon="7.33107">
        <ele>287.3</ele>
        <time>2020-08-14T14:15:57Z</time>
      </trkpt>
      <trkpt lat="48.73387" lon="7.33092">
        <ele>288</ele>
        <time>2020-08-14T14:15:59Z</time>
      </trkpt>
      <trkpt lat="48.73384" lon="7.33078">
        <ele>287.4</ele>
        <time>2020-08-14T14:16:01Z</time>
      </trkpt>
      <trkpt lat="48.73382" lon="7.33062">
        <ele>282.8</ele>
        <time>2020-08-14T14:16:03Z</time>
      </trkpt>
      <trkpt lat="48.73379" lon="7.33048">
        <ele>280.3</ele>
        <time>2020-08-14T14:16:05Z</time>
      </trkpt>
      <trkpt lat="48.73375" lon="7.33032">
        <ele>280.9</ele>
        <time>2020-08-14T14:16:07Z</time>
      </trkpt>
      <trkpt lat="48.73371" lon="7.33016">
        <ele>282.5</ele>
        <time>2020-08-14T14:16:09Z</time>
      </trkpt>
      <trkpt lat="48.73365" lon="7.33001">
        <ele>284.1</ele>
        <time>2020-08-14T14:16:11Z</time>
      </trkpt>
      <trkpt lat="48.73362" lon="7.32986">
        <ele>285.6</ele>
        <time>2020-08-14T14:16:13Z</time>
      </trkpt>
      <trkpt lat="48.73357" lon="7.32971">
        <ele>286.7</ele>
        <time>2020-08-14T14:16:15Z</time>
      </trkpt>
      <trkpt lat="48.73351" lon="7.32958">
        <ele>287.4</ele>
        <time>2020-08-14T14:16:17Z</time>
      </trkpt>
      <trkpt lat="48.73344" lon="7.32942">
        <ele>288.1</ele>
        <time>2020-08-14T14:16:19Z</time>
      </trkpt>
      <trkpt lat="48.73336" lon="7.32926">
        <ele>289.4</ele>
        <time>2020-08-14T14:16:21Z</time>
      </trkpt>
      <trkpt lat="48.7333" lon="7.32912">
        <ele>290.3</ele>
        <time>2020-08-14T14:16:23Z</time>
      </trkpt>
      <trkpt lat="48.73323" lon="7.32899">
        <ele>291.2</ele>
        <time>2020-08-14T14:16:25Z</time>
      </trkpt>
      <trkpt lat="48.73317" lon="7.32883">
        <ele>291.9</ele>
        <time>2020-08-14T14:16:27Z</time>
      </trkpt>
      <trkpt lat="48.73313" lon="7.32867">
        <ele>292.2</ele>
        <time>2020-08-14T14:16:29Z</time>
      </trkpt>
      <trkpt lat="48.73307" lon="7.3285">
        <ele>292.2</ele>
        <time>2020-08-14T14:16:31Z</time>
      </trkpt>
      <trkpt lat="48.73297" lon="7.32839">
        <ele>292.7</ele>
        <time>2020-08-14T14:16:33Z</time>
      </trkpt>
      <trkpt lat="48.73285" lon="7.32832">
        <ele>293.1</ele>
        <time>2020-08-14T14:16:35Z</time>
      </trkpt>
      <trkpt lat="48.73273" lon="7.32825">
        <ele>293.2</ele>
        <time>2020-08-14T14:16:37Z</time>
      </trkpt>
      <trkpt lat="48.73263" lon="7.3282">
        <ele>291.5</ele>
        <time>2020-08-14T14:16:39Z</time>
      </trkpt>
      <trkpt lat="48.73253" lon="7.32812">
        <ele>290.7</ele>
        <time>2020-08-14T14:16:41Z</time>
      </trkpt>
      <trkpt lat="48.73243" lon="7.32803">
        <ele>291.5</ele>
        <time>2020-08-14T14:16:43Z</time>
      </trkpt>
      <trkpt lat="48.73232" lon="7.32794">
        <ele>291.7</ele>
        <time>2020-08-14T14:16:45Z</time>
      </trkpt>
      <trkpt lat="48.73222" lon="7.32783">
        <ele>292</ele>
        <time>2020-08-14T14:16:47Z</time>
      </trkpt>
      <trkpt lat="48.73213" lon="7.32772">
        <ele>292.5</ele>
        <time>2020-08-14T14:16:49Z</time>
      </trkpt>
      <trkpt lat="48.732" lon="7.32751">
        <ele>293.3</ele>
        <time>2020-08-14T14:16:52Z</time>
      </trkpt>
      <trkpt lat="48.73193" lon="7.32737">
        <ele>293.8</ele>
        <time>2020-08-14T14:16:54Z</time>
      </trkpt>
      <trkpt lat="48.73186" lon="7.32723">
        <ele>293.9</ele>
        <time>2020-08-14T14:16:56Z</time>
      </trkpt>
      <trkpt lat="48.73181" lon="7.32707">
        <ele>293.9</ele>
        <time>2020-08-14T14:16:58Z</time>
      </trkpt>
      <trkpt lat="48.73176" lon="7.3269">
        <ele>293.8</ele>
        <time>2020-08-14T14:17:00Z</time>
      </trkpt>
      <trkpt lat="48.73171" lon="7.32673">
        <ele>293.8</ele>
        <time>2020-08-14T14:17:02Z</time>
      </trkpt>
      <trkpt lat="48.73166" lon="7.32656">
        <ele>293.5</ele>
        <time>2020-08-14T14:17:04Z</time>
      </trkpt>
      <trkpt lat="48.73161" lon="7.32639">
        <ele>293.3</ele>
        <time>2020-08-14T14:17:06Z</time>
      </trkpt>
      <trkpt lat="48.73154" lon="7.32611">
        <ele>291.5</ele>
        <time>2020-08-14T14:17:09Z</time>
      </trkpt>
      <trkpt lat="48.7315" lon="7.32596">
        <ele>290.4</ele>
        <time>2020-08-14T14:17:11Z</time>
      </trkpt>
      <trkpt lat="48.73145" lon="7.3258">
        <ele>289.4</ele>
        <time>2020-08-14T14:17:13Z</time>
      </trkpt>
      <trkpt lat="48.73141" lon="7.32563">
        <ele>288.1</ele>
        <time>2020-08-14T14:17:15Z</time>
      </trkpt>
      <trkpt lat="48.73136" lon="7.32547">
        <ele>287.6</ele>
        <time>2020-08-14T14:17:17Z</time>
      </trkpt>
      <trkpt lat="48.7313" lon="7.32531">
        <ele>287.8</ele>
        <time>2020-08-14T14:17:19Z</time>
      </trkpt>
      <trkpt lat="48.73123" lon="7.32515">
        <ele>288.1</ele>
        <time>2020-08-14T14:17:21Z</time>
      </trkpt>
      <trkpt lat="48.73114" lon="7.32491">
        <ele>288</ele>
        <time>2020-08-14T14:17:24Z</time>
      </trkpt>
      <trkpt lat="48.73106" lon="7.32479">
        <ele>287.4</ele>
        <time>2020-08-14T14:17:26Z</time>
      </trkpt>
      <trkpt lat="48.73096" lon="7.32472">
        <ele>287.1</ele>
        <time>2020-08-14T14:17:28Z</time>
      </trkpt>
      <trkpt lat="48.73085" lon="7.3247">
        <ele>287.5</ele>
        <time>2020-08-14T14:17:30Z</time>
      </trkpt>
      <trkpt lat="48.73073" lon="7.32471">
        <ele>287.6</ele>
        <time>2020-08-14T14:17:32Z</time>
      </trkpt>
      <trkpt lat="48.73061" lon="7.32474">
        <ele>287.8</ele>
        <time>2020-08-14T14:17:34Z</time>
      </trkpt>
      <trkpt lat="48.7305" lon="7.32478">
        <ele>288.1</ele>
        <time>2020-08-14T14:17:36Z</time>
      </trkpt>
      <trkpt lat="48.73035" lon="7.3249">
        <ele>288.9</ele>
        <time>2020-08-14T14:17:39Z</time>
      </trkpt>
      <trkpt lat="48.73026" lon="7.32498">
        <ele>289.8</ele>
        <time>2020-08-14T14:17:41Z</time>
      </trkpt>
      <trkpt lat="48.73017" lon="7.32504">
        <ele>291.3</ele>
        <time>2020-08-14T14:17:43Z</time>
      </trkpt>
      <trkpt lat="48.73002" lon="7.32518">
        <ele>292.6</ele>
        <time>2020-08-14T14:17:46Z</time>
      </trkpt>
      <trkpt lat="48.7299" lon="7.32531">
        <ele>293</ele>
        <time>2020-08-14T14:17:48Z</time>
      </trkpt>
      <trkpt lat="48.72982" lon="7.32545">
        <ele>293.6</ele>
        <time>2020-08-14T14:17:50Z</time>
      </trkpt>
      <trkpt lat="48.72974" lon="7.3256">
        <ele>293.9</ele>
        <time>2020-08-14T14:17:52Z</time>
      </trkpt>
      <trkpt lat="48.7296" lon="7.3258">
        <ele>293.8</ele>
        <time>2020-08-14T14:17:55Z</time>
      </trkpt>
      <trkpt lat="48.7295" lon="7.32593">
        <ele>293.6</ele>
        <time>2020-08-14T14:17:57Z</time>
      </trkpt>
      <trkpt lat="48.72943" lon="7.32608">
        <ele>293.7</ele>
        <time>2020-08-14T14:17:59Z</time>
      </trkpt>
      <trkpt lat="48.72936" lon="7.32626">
        <ele>293.1</ele>
        <time>2020-08-14T14:18:01Z</time>
      </trkpt>
      <trkpt lat="48.72932" lon="7.3264">
        <ele>292.9</ele>
        <time>2020-08-14T14:18:03Z</time>
      </trkpt>
      <trkpt lat="48.72929" lon="7.32657">
        <ele>292.6</ele>
        <time>2020-08-14T14:18:05Z</time>
      </trkpt>
      <trkpt lat="48.72924" lon="7.32675">
        <ele>292.1</ele>
        <time>2020-08-14T14:18:07Z</time>
      </trkpt>
      <trkpt lat="48.72921" lon="7.32694">
        <ele>292.3</ele>
        <time>2020-08-14T14:18:09Z</time>
      </trkpt>
      <trkpt lat="48.72914" lon="7.32707">
        <ele>292.5</ele>
        <time>2020-08-14T14:18:11Z</time>
      </trkpt>
      <trkpt lat="48.72904" lon="7.32714">
        <ele>293.1</ele>
        <time>2020-08-14T14:18:13Z</time>
      </trkpt>
      <trkpt lat="48.72893" lon="7.32714">
        <ele>293</ele>
        <time>2020-08-14T14:18:15Z</time>
      </trkpt>
      <trkpt lat="48.72882" lon="7.32709">
        <ele>293.1</ele>
        <time>2020-08-14T14:18:17Z</time>
      </trkpt>
      <trkpt lat="48.72871" lon="7.32702">
        <ele>293.6</ele>
        <time>2020-08-14T14:18:19Z</time>
      </trkpt>
      <trkpt lat="48.72863" lon="7.32693">
        <ele>293.5</ele>
        <time>2020-08-14T14:18:21Z</time>
      </trkpt>
      <trkpt lat="48.72854" lon="7.32681">
        <ele>293.5</ele>
        <time>2020-08-14T14:18:23Z</time>
      </trkpt>
      <trkpt lat="48.72846" lon="7.32668">
        <ele>293.7</ele>
        <time>2020-08-14T14:18:25Z</time>
      </trkpt>
      <trkpt lat="48.72839" lon="7.32651">
        <ele>293</ele>
        <time>2020-08-14T14:18:27Z</time>
      </trkpt>
      <trkpt lat="48.72832" lon="7.32635">
        <ele>292.6</ele>
        <time>2020-08-14T14:18:29Z</time>
      </trkpt>
      <trkpt lat="48.72828" lon="7.32613">
        <ele>291.3</ele>
        <time>2020-08-14T14:18:32Z</time>
      </trkpt>
      <trkpt lat="48.72825" lon="7.32597">
        <ele>290.8</ele>
        <time>2020-08-14T14:18:34Z</time>
      </trkpt>
      <trkpt lat="48.72822" lon="7.32579">
        <ele>290.1</ele>
        <time>2020-08-14T14:18:36Z</time>
      </trkpt>
      <trkpt lat="48.72816" lon="7.32557">
        <ele>289.2</ele>
        <time>2020-08-14T14:18:38Z</time>
      </trkpt>
      <trkpt lat="48.72812" lon="7.32536">
        <ele>289.2</ele>
        <time>2020-08-14T14:18:40Z</time>
      </trkpt>
      <trkpt lat="48.72806" lon="7.32515">
        <ele>289.7</ele>
        <time>2020-08-14T14:18:42Z</time>
      </trkpt>
      <trkpt lat="48.72802" lon="7.32495">
        <ele>290.4</ele>
        <time>2020-08-14T14:18:44Z</time>
      </trkpt>
      <trkpt lat="48.72796" lon="7.32472">
        <ele>291.9</ele>
        <time>2020-08-14T14:18:46Z</time>
      </trkpt>
      <trkpt lat="48.7279" lon="7.32448">
        <ele>293.7</ele>
        <time>2020-08-14T14:18:48Z</time>
      </trkpt>
      <trkpt lat="48.72783" lon="7.32414">
        <ele>294.3</ele>
        <time>2020-08-14T14:18:51Z</time>
      </trkpt>
      <trkpt lat="48.72774" lon="7.32378">
        <ele>294.9</ele>
        <time>2020-08-14T14:18:54Z</time>
      </trkpt>
      <trkpt lat="48.72769" lon="7.32354">
        <ele>294.9</ele>
        <time>2020-08-14T14:18:56Z</time>
      </trkpt>
      <trkpt lat="48.72763" lon="7.32317">
        <ele>295.3</ele>
        <time>2020-08-14T14:18:59Z</time>
      </trkpt>
      <trkpt lat="48.72757" lon="7.32295">
        <ele>295.7</ele>
        <time>2020-08-14T14:19:01Z</time>
      </trkpt>
      <trkpt lat="48.72751" lon="7.32272">
        <ele>295.7</ele>
        <time>2020-08-14T14:19:03Z</time>
      </trkpt>
      <trkpt lat="48.72746" lon="7.3225">
        <ele>296</ele>
        <time>2020-08-14T14:19:05Z</time>
      </trkpt>
      <trkpt lat="48.72739" lon="7.32229">
        <ele>297.1</ele>
        <time>2020-08-14T14:19:07Z</time>
      </trkpt>
      <trkpt lat="48.72732" lon="7.32208">
        <ele>297.6</ele>
        <time>2020-08-14T14:19:09Z</time>
      </trkpt>
      <trkpt lat="48.72724" lon="7.32187">
        <ele>297.8</ele>
        <time>2020-08-14T14:19:11Z</time>
      </trkpt>
      <trkpt lat="48.72713" lon="7.32154">
        <ele>297.7</ele>
        <time>2020-08-14T14:19:14Z</time>
      </trkpt>
      <trkpt lat="48.72706" lon="7.32133">
        <ele>297.1</ele>
        <time>2020-08-14T14:19:16Z</time>
      </trkpt>
      <trkpt lat="48.72698" lon="7.32112">
        <ele>296</ele>
        <time>2020-08-14T14:19:18Z</time>
      </trkpt>
      <trkpt lat="48.7269" lon="7.32092">
        <ele>295.3</ele>
        <time>2020-08-14T14:19:20Z</time>
      </trkpt>
      <trkpt lat="48.72678" lon="7.32061">
        <ele>294.4</ele>
        <time>2020-08-14T14:19:23Z</time>
      </trkpt>
      <trkpt lat="48.72665" lon="7.32029">
        <ele>294.4</ele>
        <time>2020-08-14T14:19:26Z</time>
      </trkpt>
      <trkpt lat="48.72655" lon="7.32011">
        <ele>294.2</ele>
        <time>2020-08-14T14:19:28Z</time>
      </trkpt>
      <trkpt lat="48.72637" lon="7.31988">
        <ele>293.9</ele>
        <time>2020-08-14T14:19:31Z</time>
      </trkpt>
      <trkpt lat="48.72625" lon="7.31974">
        <ele>293.7</ele>
        <time>2020-08-14T14:19:33Z</time>
      </trkpt>
      <trkpt lat="48.72612" lon="7.31959">
        <ele>293.7</ele>
        <time>2020-08-14T14:19:35Z</time>
      </trkpt>
      <trkpt lat="48.72598" lon="7.31947">
        <ele>293.5</ele>
        <time>2020-08-14T14:19:37Z</time>
      </trkpt>
      <trkpt lat="48.72577" lon="7.31929">
        <ele>293.6</ele>
        <time>2020-08-14T14:19:40Z</time>
      </trkpt>
      <trkpt lat="48.72562" lon="7.31921">
        <ele>293.4</ele>
        <time>2020-08-14T14:19:42Z</time>
      </trkpt>
      <trkpt lat="48.72548" lon="7.31914">
        <ele>293.3</ele>
        <time>2020-08-14T14:19:44Z</time>
      </trkpt>
      <trkpt lat="48.7253" lon="7.31909">
        <ele>293.8</ele>
        <time>2020-08-14T14:19:46Z</time>
      </trkpt>
      <trkpt lat="48.72515" lon="7.31899">
        <ele>294.3</ele>
        <time>2020-08-14T14:19:48Z</time>
      </trkpt>
      <trkpt lat="48.72499" lon="7.31887">
        <ele>294.5</ele>
        <time>2020-08-14T14:19:50Z</time>
      </trkpt>
      <trkpt lat="48.72481" lon="7.31878">
        <ele>294.5</ele>
        <time>2020-08-14T14:19:52Z</time>
      </trkpt>
      <trkpt lat="48.7246" lon="7.31874">
        <ele>293.2</ele>
        <time>2020-08-14T14:19:55Z</time>
      </trkpt>
      <trkpt lat="48.72438" lon="7.31861">
        <ele>292.5</ele>
        <time>2020-08-14T14:19:58Z</time>
      </trkpt>
      <trkpt lat="48.72417" lon="7.31844">
        <ele>292.7</ele>
        <time>2020-08-14T14:20:01Z</time>
      </trkpt>
      <trkpt lat="48.72406" lon="7.3183">
        <ele>291.9</ele>
        <time>2020-08-14T14:20:03Z</time>
      </trkpt>
      <trkpt lat="48.72397" lon="7.31816">
        <ele>291.3</ele>
        <time>2020-08-14T14:20:05Z</time>
      </trkpt>
      <trkpt lat="48.72383" lon="7.31791">
        <ele>290.3</ele>
        <time>2020-08-14T14:20:08Z</time>
      </trkpt>
      <trkpt lat="48.72374" lon="7.31772">
        <ele>290.4</ele>
        <time>2020-08-14T14:20:10Z</time>
      </trkpt>
      <trkpt lat="48.72366" lon="7.31744">
        <ele>289.7</ele>
        <time>2020-08-14T14:20:13Z</time>
      </trkpt>
      <trkpt lat="48.72361" lon="7.31728">
        <ele>289.6</ele>
        <time>2020-08-14T14:20:15Z</time>
      </trkpt>
      <trkpt lat="48.72357" lon="7.31712">
        <ele>289.3</ele>
        <time>2020-08-14T14:20:17Z</time>
      </trkpt>
      <trkpt lat="48.72351" lon="7.31686">
        <ele>289</ele>
        <time>2020-08-14T14:20:20Z</time>
      </trkpt>
      <trkpt lat="48.72347" lon="7.31667">
        <ele>289.3</ele>
        <time>2020-08-14T14:20:22Z</time>
      </trkpt>
      <trkpt lat="48.72341" lon="7.31641">
        <ele>289.3</ele>
        <time>2020-08-14T14:20:25Z</time>
      </trkpt>
      <trkpt lat="48.72338" lon="7.31624">
        <ele>289.6</ele>
        <time>2020-08-14T14:20:27Z</time>
      </trkpt>
      <trkpt lat="48.72334" lon="7.31607">
        <ele>290.5</ele>
        <time>2020-08-14T14:20:29Z</time>
      </trkpt>
      <trkpt lat="48.72331" lon="7.3159">
        <ele>290.5</ele>
        <time>2020-08-14T14:20:31Z</time>
      </trkpt>
      <trkpt lat="48.72328" lon="7.31573">
        <ele>291</ele>
        <time>2020-08-14T14:20:33Z</time>
      </trkpt>
      <trkpt lat="48.72326" lon="7.31556">
        <ele>290.8</ele>
        <time>2020-08-14T14:20:35Z</time>
      </trkpt>
      <trkpt lat="48.72323" lon="7.31539">
        <ele>290.7</ele>
        <time>2020-08-14T14:20:37Z</time>
      </trkpt>
      <trkpt lat="48.7232" lon="7.31522">
        <ele>291.1</ele>
        <time>2020-08-14T14:20:39Z</time>
      </trkpt>
      <trkpt lat="48.72317" lon="7.31506">
        <ele>291.3</ele>
        <time>2020-08-14T14:20:41Z</time>
      </trkpt>
      <trkpt lat="48.72312" lon="7.3149">
        <ele>291.8</ele>
        <time>2020-08-14T14:20:43Z</time>
      </trkpt>
      <trkpt lat="48.72308" lon="7.31473">
        <ele>292.6</ele>
        <time>2020-08-14T14:20:45Z</time>
      </trkpt>
      <trkpt lat="48.72304" lon="7.31455">
        <ele>293.3</ele>
        <time>2020-08-14T14:20:47Z</time>
      </trkpt>
      <trkpt lat="48.723" lon="7.31439">
        <ele>293.6</ele>
        <time>2020-08-14T14:20:49Z</time>
      </trkpt>
      <trkpt lat="48.72295" lon="7.31422">
        <ele>294</ele>
        <time>2020-08-14T14:20:51Z</time>
      </trkpt>
      <trkpt lat="48.72288" lon="7.31397">
        <ele>293</ele>
        <time>2020-08-14T14:20:53Z</time>
      </trkpt>
      <trkpt lat="48.72286" lon="7.31388">
        <ele>292.8</ele>
        <time>2020-08-14T14:20:54Z</time>
      </trkpt>
      <trkpt lat="48.72278" lon="7.31362">
        <ele>292.9</ele>
        <time>2020-08-14T14:20:57Z</time>
      </trkpt>
      <trkpt lat="48.72274" lon="7.31339">
        <ele>293.4</ele>
        <time>2020-08-14T14:20:59Z</time>
      </trkpt>
      <trkpt lat="48.7227" lon="7.31318">
        <ele>293.3</ele>
        <time>2020-08-14T14:21:01Z</time>
      </trkpt>
      <trkpt lat="48.72265" lon="7.31295">
        <ele>293.9</ele>
        <time>2020-08-14T14:21:03Z</time>
      </trkpt>
      <trkpt lat="48.72263" lon="7.31273">
        <ele>295</ele>
        <time>2020-08-14T14:21:05Z</time>
      </trkpt>
      <trkpt lat="48.72261" lon="7.3125">
        <ele>297.1</ele>
        <time>2020-08-14T14:21:07Z</time>
      </trkpt>
      <trkpt lat="48.72261" lon="7.31213">
        <ele>299.7</ele>
        <time>2020-08-14T14:21:10Z</time>
      </trkpt>
      <trkpt lat="48.72263" lon="7.31191">
        <ele>300.8</ele>
        <time>2020-08-14T14:21:12Z</time>
      </trkpt>
      <trkpt lat="48.72269" lon="7.31159">
        <ele>301.6</ele>
        <time>2020-08-14T14:21:15Z</time>
      </trkpt>
      <trkpt lat="48.72276" lon="7.31137">
        <ele>302</ele>
        <time>2020-08-14T14:21:17Z</time>
      </trkpt>
      <trkpt lat="48.72285" lon="7.31117">
        <ele>301.1</ele>
        <time>2020-08-14T14:21:19Z</time>
      </trkpt>
      <trkpt lat="48.72294" lon="7.311">
        <ele>300.8</ele>
        <time>2020-08-14T14:21:21Z</time>
      </trkpt>
      <trkpt lat="48.72304" lon="7.31087">
        <ele>300.5</ele>
        <time>2020-08-14T14:21:23Z</time>
      </trkpt>
      <trkpt lat="48.72315" lon="7.3108">
        <ele>300</ele>
        <time>2020-08-14T14:21:25Z</time>
      </trkpt>
      <trkpt lat="48.72328" lon="7.31079">
        <ele>299.1</ele>
        <time>2020-08-14T14:21:27Z</time>
      </trkpt>
      <trkpt lat="48.72346" lon="7.31082">
        <ele>297.4</ele>
        <time>2020-08-14T14:21:30Z</time>
      </trkpt>
      <trkpt lat="48.72358" lon="7.31087">
        <ele>295.9</ele>
        <time>2020-08-14T14:21:32Z</time>
      </trkpt>
      <trkpt lat="48.72377" lon="7.31097">
        <ele>294.4</ele>
        <time>2020-08-14T14:21:35Z</time>
      </trkpt>
      <trkpt lat="48.72395" lon="7.31109">
        <ele>292.4</ele>
        <time>2020-08-14T14:21:38Z</time>
      </trkpt>
      <trkpt lat="48.72414" lon="7.3112">
        <ele>291.3</ele>
        <time>2020-08-14T14:21:41Z</time>
      </trkpt>
      <trkpt lat="48.72429" lon="7.3113">
        <ele>291.6</ele>
        <time>2020-08-14T14:21:43Z</time>
      </trkpt>
      <trkpt lat="48.72449" lon="7.31146">
        <ele>292.2</ele>
        <time>2020-08-14T14:21:46Z</time>
      </trkpt>
      <trkpt lat="48.72462" lon="7.31156">
        <ele>293.4</ele>
        <time>2020-08-14T14:21:48Z</time>
      </trkpt>
      <trkpt lat="48.72476" lon="7.31167">
        <ele>294.4</ele>
        <time>2020-08-14T14:21:50Z</time>
      </trkpt>
      <trkpt lat="48.725" lon="7.31184">
        <ele>295.8</ele>
        <time>2020-08-14T14:21:53Z</time>
      </trkpt>
      <trkpt lat="48.72514" lon="7.31195">
        <ele>297.2</ele>
        <time>2020-08-14T14:21:55Z</time>
      </trkpt>
      <trkpt lat="48.72529" lon="7.31207">
        <ele>297.9</ele>
        <time>2020-08-14T14:21:57Z</time>
      </trkpt>
      <trkpt lat="48.72543" lon="7.3122">
        <ele>298.7</ele>
        <time>2020-08-14T14:21:59Z</time>
      </trkpt>
      <trkpt lat="48.72556" lon="7.31234">
        <ele>299.1</ele>
        <time>2020-08-14T14:22:01Z</time>
      </trkpt>
      <trkpt lat="48.72569" lon="7.31247">
        <ele>299.7</ele>
        <time>2020-08-14T14:22:03Z</time>
      </trkpt>
      <trkpt lat="48.72588" lon="7.31263">
        <ele>300.3</ele>
        <time>2020-08-14T14:22:06Z</time>
      </trkpt>
      <trkpt lat="48.72601" lon="7.31274">
        <ele>300.7</ele>
        <time>2020-08-14T14:22:08Z</time>
      </trkpt>
      <trkpt lat="48.72614" lon="7.31284">
        <ele>301.7</ele>
        <time>2020-08-14T14:22:10Z</time>
      </trkpt>
      <trkpt lat="48.72628" lon="7.31294">
        <ele>302.3</ele>
        <time>2020-08-14T14:22:12Z</time>
      </trkpt>
      <trkpt lat="48.72642" lon="7.31303">
        <ele>302.9</ele>
        <time>2020-08-14T14:22:14Z</time>
      </trkpt>
      <trkpt lat="48.72663" lon="7.31317">
        <ele>303.2</ele>
        <time>2020-08-14T14:22:17Z</time>
      </trkpt>
      <trkpt lat="48.72677" lon="7.31327">
        <ele>303.1</ele>
        <time>2020-08-14T14:22:19Z</time>
      </trkpt>
      <trkpt lat="48.7269" lon="7.31335">
        <ele>303.9</ele>
        <time>2020-08-14T14:22:21Z</time>
      </trkpt>
      <trkpt lat="48.72703" lon="7.31342">
        <ele>304.5</ele>
        <time>2020-08-14T14:22:23Z</time>
      </trkpt>
      <trkpt lat="48.72717" lon="7.31349">
        <ele>305.3</ele>
        <time>2020-08-14T14:22:25Z</time>
      </trkpt>
      <trkpt lat="48.72733" lon="7.31357">
        <ele>306.3</ele>
        <time>2020-08-14T14:22:27Z</time>
      </trkpt>
      <trkpt lat="48.72746" lon="7.31358">
        <ele>306.4</ele>
        <time>2020-08-14T14:22:29Z</time>
      </trkpt>
      <trkpt lat="48.72752" lon="7.31351">
        <ele>306.5</ele>
        <time>2020-08-14T14:22:31Z</time>
      </trkpt>
      <trkpt lat="48.72754" lon="7.3134">
        <ele>306.6</ele>
        <time>2020-08-14T14:22:33Z</time>
      </trkpt>
      <trkpt lat="48.72752" lon="7.31326">
        <ele>306.6</ele>
        <time>2020-08-14T14:22:35Z</time>
      </trkpt>
      <trkpt lat="48.72747" lon="7.31311">
        <ele>306.2</ele>
        <time>2020-08-14T14:22:37Z</time>
      </trkpt>
      <trkpt lat="48.72743" lon="7.31294">
        <ele>305.8</ele>
        <time>2020-08-14T14:22:39Z</time>
      </trkpt>
      <trkpt lat="48.72737" lon="7.31278">
        <ele>305.1</ele>
        <time>2020-08-14T14:22:41Z</time>
      </trkpt>
      <trkpt lat="48.72731" lon="7.31261">
        <ele>304.9</ele>
        <time>2020-08-14T14:22:43Z</time>
      </trkpt>
      <trkpt lat="48.72727" lon="7.31243">
        <ele>304.7</ele>
        <time>2020-08-14T14:22:45Z</time>
      </trkpt>
      <trkpt lat="48.72721" lon="7.31227">
        <ele>304.9</ele>
        <time>2020-08-14T14:22:47Z</time>
      </trkpt>
      <trkpt lat="48.72715" lon="7.31209">
        <ele>305</ele>
        <time>2020-08-14T14:22:49Z</time>
      </trkpt>
      <trkpt lat="48.72709" lon="7.31192">
        <ele>305.4</ele>
        <time>2020-08-14T14:22:51Z</time>
      </trkpt>
      <trkpt lat="48.72702" lon="7.31174">
        <ele>305.8</ele>
        <time>2020-08-14T14:22:53Z</time>
      </trkpt>
      <trkpt lat="48.72697" lon="7.31157">
        <ele>305.1</ele>
        <time>2020-08-14T14:22:55Z</time>
      </trkpt>
      <trkpt lat="48.72693" lon="7.31138">
        <ele>304</ele>
        <time>2020-08-14T14:22:57Z</time>
      </trkpt>
      <trkpt lat="48.7269" lon="7.31119">
        <ele>303.5</ele>
        <time>2020-08-14T14:22:59Z</time>
      </trkpt>
      <trkpt lat="48.72685" lon="7.31101">
        <ele>303.5</ele>
        <time>2020-08-14T14:23:01Z</time>
      </trkpt>
      <trkpt lat="48.72679" lon="7.31083">
        <ele>304.1</ele>
        <time>2020-08-14T14:23:03Z</time>
      </trkpt>
      <trkpt lat="48.72673" lon="7.31067">
        <ele>304.2</ele>
        <time>2020-08-14T14:23:05Z</time>
      </trkpt>
      <trkpt lat="48.72667" lon="7.3105">
        <ele>304.2</ele>
        <time>2020-08-14T14:23:07Z</time>
      </trkpt>
      <trkpt lat="48.72662" lon="7.31033">
        <ele>304.1</ele>
        <time>2020-08-14T14:23:09Z</time>
      </trkpt>
      <trkpt lat="48.72658" lon="7.31017">
        <ele>303.5</ele>
        <time>2020-08-14T14:23:11Z</time>
      </trkpt>
      <trkpt lat="48.72653" lon="7.30999">
        <ele>303.7</ele>
        <time>2020-08-14T14:23:13Z</time>
      </trkpt>
      <trkpt lat="48.72647" lon="7.3098">
        <ele>304</ele>
        <time>2020-08-14T14:23:15Z</time>
      </trkpt>
      <trkpt lat="48.72642" lon="7.30962">
        <ele>304.3</ele>
        <time>2020-08-14T14:23:17Z</time>
      </trkpt>
      <trkpt lat="48.72632" lon="7.30937">
        <ele>305.3</ele>
        <time>2020-08-14T14:23:20Z</time>
      </trkpt>
      <trkpt lat="48.72625" lon="7.30919">
        <ele>306</ele>
        <time>2020-08-14T14:23:22Z</time>
      </trkpt>
      <trkpt lat="48.72619" lon="7.30905">
        <ele>306.3</ele>
        <time>2020-08-14T14:23:24Z</time>
      </trkpt>
      <trkpt lat="48.72611" lon="7.3089">
        <ele>306.3</ele>
        <time>2020-08-14T14:23:26Z</time>
      </trkpt>
      <trkpt lat="48.72603" lon="7.30876">
        <ele>306.8</ele>
        <time>2020-08-14T14:23:28Z</time>
      </trkpt>
      <trkpt lat="48.72595" lon="7.30862">
        <ele>307</ele>
        <time>2020-08-14T14:23:30Z</time>
      </trkpt>
      <trkpt lat="48.72583" lon="7.30842">
        <ele>307.3</ele>
        <time>2020-08-14T14:23:33Z</time>
      </trkpt>
      <trkpt lat="48.72576" lon="7.30827">
        <ele>307.1</ele>
        <time>2020-08-14T14:23:35Z</time>
      </trkpt>
      <trkpt lat="48.7257" lon="7.30811">
        <ele>307.3</ele>
        <time>2020-08-14T14:23:37Z</time>
      </trkpt>
      <trkpt lat="48.72566" lon="7.30795">
        <ele>307.2</ele>
        <time>2020-08-14T14:23:39Z</time>
      </trkpt>
      <trkpt lat="48.72562" lon="7.30777">
        <ele>306.9</ele>
        <time>2020-08-14T14:23:41Z</time>
      </trkpt>
      <trkpt lat="48.7256" lon="7.30758">
        <ele>307.8</ele>
        <time>2020-08-14T14:23:43Z</time>
      </trkpt>
      <trkpt lat="48.72559" lon="7.3074">
        <ele>308.2</ele>
        <time>2020-08-14T14:23:45Z</time>
      </trkpt>
      <trkpt lat="48.7256" lon="7.30722">
        <ele>307.7</ele>
        <time>2020-08-14T14:23:47Z</time>
      </trkpt>
      <trkpt lat="48.72562" lon="7.30704">
        <ele>308.8</ele>
        <time>2020-08-14T14:23:49Z</time>
      </trkpt>
      <trkpt lat="48.72565" lon="7.30686">
        <ele>309.2</ele>
        <time>2020-08-14T14:23:51Z</time>
      </trkpt>
      <trkpt lat="48.72569" lon="7.30668">
        <ele>309.9</ele>
        <time>2020-08-14T14:23:53Z</time>
      </trkpt>
      <trkpt lat="48.72575" lon="7.3065">
        <ele>310.4</ele>
        <time>2020-08-14T14:23:55Z</time>
      </trkpt>
      <trkpt lat="48.72581" lon="7.30632">
        <ele>310</ele>
        <time>2020-08-14T14:23:57Z</time>
      </trkpt>
      <trkpt lat="48.72588" lon="7.30614">
        <ele>310</ele>
        <time>2020-08-14T14:23:59Z</time>
      </trkpt>
      <trkpt lat="48.72596" lon="7.30596">
        <ele>310.2</ele>
        <time>2020-08-14T14:24:01Z</time>
      </trkpt>
      <trkpt lat="48.72602" lon="7.30577">
        <ele>311</ele>
        <time>2020-08-14T14:24:03Z</time>
      </trkpt>
      <trkpt lat="48.7261" lon="7.30559">
        <ele>311.7</ele>
        <time>2020-08-14T14:24:05Z</time>
      </trkpt>
      <trkpt lat="48.72619" lon="7.30542">
        <ele>312.6</ele>
        <time>2020-08-14T14:24:07Z</time>
      </trkpt>
      <trkpt lat="48.72628" lon="7.30526">
        <ele>314.1</ele>
        <time>2020-08-14T14:24:09Z</time>
      </trkpt>
      <trkpt lat="48.72639" lon="7.30511">
        <ele>316</ele>
        <time>2020-08-14T14:24:11Z</time>
      </trkpt>
      <trkpt lat="48.7265" lon="7.30497">
        <ele>304.1</ele>
        <time>2020-08-14T14:24:13Z</time>
      </trkpt>
      <trkpt lat="48.72662" lon="7.30483">
        <ele>304</ele>
        <time>2020-08-14T14:24:15Z</time>
      </trkpt>
      <trkpt lat="48.72673" lon="7.30472">
        <ele>303.7</ele>
        <time>2020-08-14T14:24:17Z</time>
      </trkpt>
      <trkpt lat="48.72687" lon="7.30465">
        <ele>303.9</ele>
        <time>2020-08-14T14:24:19Z</time>
      </trkpt>
      <trkpt lat="48.72701" lon="7.30463">
        <ele>304.6</ele>
        <time>2020-08-14T14:24:21Z</time>
      </trkpt>
      <trkpt lat="48.72715" lon="7.30465">
        <ele>305.9</ele>
        <time>2020-08-14T14:24:23Z</time>
      </trkpt>
      <trkpt lat="48.72728" lon="7.30468">
        <ele>306.5</ele>
        <time>2020-08-14T14:24:25Z</time>
      </trkpt>
      <trkpt lat="48.72741" lon="7.30475">
        <ele>307.4</ele>
        <time>2020-08-14T14:24:27Z</time>
      </trkpt>
      <trkpt lat="48.72754" lon="7.30483">
        <ele>308.4</ele>
        <time>2020-08-14T14:24:29Z</time>
      </trkpt>
      <trkpt lat="48.72766" lon="7.30493">
        <ele>309.5</ele>
        <time>2020-08-14T14:24:31Z</time>
      </trkpt>
      <trkpt lat="48.72776" lon="7.30503">
        <ele>310.5</ele>
        <time>2020-08-14T14:24:33Z</time>
      </trkpt>
      <trkpt lat="48.72787" lon="7.30516">
        <ele>312.1</ele>
        <time>2020-08-14T14:24:35Z</time>
      </trkpt>
      <trkpt lat="48.72797" lon="7.30528">
        <ele>313</ele>
        <time>2020-08-14T14:24:37Z</time>
      </trkpt>
      <trkpt lat="48.72806" lon="7.30541">
        <ele>312.5</ele>
        <time>2020-08-14T14:24:39Z</time>
      </trkpt>
      <trkpt lat="48.72816" lon="7.30555">
        <ele>312.5</ele>
        <time>2020-08-14T14:24:41Z</time>
      </trkpt>
      <trkpt lat="48.72828" lon="7.30568">
        <ele>313</ele>
        <time>2020-08-14T14:24:43Z</time>
      </trkpt>
      <trkpt lat="48.72836" lon="7.30582">
        <ele>312.4</ele>
        <time>2020-08-14T14:24:45Z</time>
      </trkpt>
      <trkpt lat="48.72846" lon="7.30597">
        <ele>311.7</ele>
        <time>2020-08-14T14:24:47Z</time>
      </trkpt>
      <trkpt lat="48.72857" lon="7.30613">
        <ele>298.4</ele>
        <time>2020-08-14T14:24:49Z</time>
      </trkpt>
      <trkpt lat="48.72872" lon="7.30637">
        <ele>297.7</ele>
        <time>2020-08-14T14:24:52Z</time>
      </trkpt>
      <trkpt lat="48.72882" lon="7.30651">
        <ele>299</ele>
        <time>2020-08-14T14:24:54Z</time>
      </trkpt>
      <trkpt lat="48.72895" lon="7.30672">
        <ele>301.3</ele>
        <time>2020-08-14T14:24:57Z</time>
      </trkpt>
      <trkpt lat="48.72907" lon="7.30688">
        <ele>305.1</ele>
        <time>2020-08-14T14:24:59Z</time>
      </trkpt>
      <trkpt lat="48.72918" lon="7.30703">
        <ele>307.6</ele>
        <time>2020-08-14T14:25:01Z</time>
      </trkpt>
      <trkpt lat="48.72927" lon="7.30718">
        <ele>309.6</ele>
        <time>2020-08-14T14:25:03Z</time>
      </trkpt>
      <trkpt lat="48.72937" lon="7.3073">
        <ele>310.8</ele>
        <time>2020-08-14T14:25:05Z</time>
      </trkpt>
      <trkpt lat="48.72952" lon="7.30747">
        <ele>311.4</ele>
        <time>2020-08-14T14:25:08Z</time>
      </trkpt>
      <trkpt lat="48.72963" lon="7.3076">
        <ele>311.9</ele>
        <time>2020-08-14T14:25:10Z</time>
      </trkpt>
      <trkpt lat="48.72975" lon="7.30774">
        <ele>312.4</ele>
        <time>2020-08-14T14:25:12Z</time>
      </trkpt>
      <trkpt lat="48.72989" lon="7.30789">
        <ele>312.8</ele>
        <time>2020-08-14T14:25:14Z</time>
      </trkpt>
      <trkpt lat="48.73005" lon="7.30802">
        <ele>313.4</ele>
        <time>2020-08-14T14:25:16Z</time>
      </trkpt>
      <trkpt lat="48.73021" lon="7.30814">
        <ele>313.9</ele>
        <time>2020-08-14T14:25:18Z</time>
      </trkpt>
      <trkpt lat="48.73045" lon="7.30827">
        <ele>314</ele>
        <time>2020-08-14T14:25:21Z</time>
      </trkpt>
      <trkpt lat="48.7306" lon="7.30833">
        <ele>314.1</ele>
        <time>2020-08-14T14:25:23Z</time>
      </trkpt>
      <trkpt lat="48.73083" lon="7.30843">
        <ele>313.7</ele>
        <time>2020-08-14T14:25:26Z</time>
      </trkpt>
      <trkpt lat="48.73096" lon="7.30846">
        <ele>313.4</ele>
        <time>2020-08-14T14:25:28Z</time>
      </trkpt>
      <trkpt lat="48.73108" lon="7.30841">
        <ele>313.4</ele>
        <time>2020-08-14T14:25:30Z</time>
      </trkpt>
      <trkpt lat="48.73114" lon="7.30828">
        <ele>313.1</ele>
        <time>2020-08-14T14:25:32Z</time>
      </trkpt>
      <trkpt lat="48.73116" lon="7.30812">
        <ele>313.2</ele>
        <time>2020-08-14T14:25:34Z</time>
      </trkpt>
      <trkpt lat="48.73115" lon="7.30796">
        <ele>313.1</ele>
        <time>2020-08-14T14:25:36Z</time>
      </trkpt>
      <trkpt lat="48.73113" lon="7.30779">
        <ele>313.2</ele>
        <time>2020-08-14T14:25:38Z</time>
      </trkpt>
      <trkpt lat="48.73109" lon="7.30755">
        <ele>313.4</ele>
        <time>2020-08-14T14:25:41Z</time>
      </trkpt>
      <trkpt lat="48.73106" lon="7.30738">
        <ele>314.1</ele>
        <time>2020-08-14T14:25:43Z</time>
      </trkpt>
      <trkpt lat="48.73104" lon="7.30722">
        <ele>314.3</ele>
        <time>2020-08-14T14:25:45Z</time>
      </trkpt>
      <trkpt lat="48.73101" lon="7.30698">
        <ele>314.7</ele>
        <time>2020-08-14T14:25:48Z</time>
      </trkpt>
      <trkpt lat="48.73099" lon="7.30683">
        <ele>314.9</ele>
        <time>2020-08-14T14:25:50Z</time>
      </trkpt>
      <trkpt lat="48.73098" lon="7.30665">
        <ele>314.7</ele>
        <time>2020-08-14T14:25:52Z</time>
      </trkpt>
      <trkpt lat="48.73096" lon="7.3065">
        <ele>314</ele>
        <time>2020-08-14T14:25:54Z</time>
      </trkpt>
      <trkpt lat="48.73093" lon="7.30634">
        <ele>314.8</ele>
        <time>2020-08-14T14:25:56Z</time>
      </trkpt>
      <trkpt lat="48.7309" lon="7.30618">
        <ele>314.9</ele>
        <time>2020-08-14T14:25:58Z</time>
      </trkpt>
      <trkpt lat="48.73088" lon="7.30604">
        <ele>315.6</ele>
        <time>2020-08-14T14:26:00Z</time>
      </trkpt>
      <trkpt lat="48.73088" lon="7.30587">
        <ele>316</ele>
        <time>2020-08-14T14:26:02Z</time>
      </trkpt>
      <trkpt lat="48.73088" lon="7.30574">
        <ele>314.9</ele>
        <time>2020-08-14T14:26:04Z</time>
      </trkpt>
      <trkpt lat="48.73088" lon="7.30567">
        <ele>314.6</ele>
        <time>2020-08-14T14:26:05Z</time>
      </trkpt>
      <trkpt lat="48.73086" lon="7.3056">
        <ele>314.5</ele>
        <time>2020-08-14T14:26:06Z</time>
      </trkpt>
      <trkpt lat="48.73082" lon="7.30535">
        <ele>314.6</ele>
        <time>2020-08-14T14:26:09Z</time>
      </trkpt>
      <trkpt lat="48.73079" lon="7.30517">
        <ele>314.4</ele>
        <time>2020-08-14T14:26:11Z</time>
      </trkpt>
      <trkpt lat="48.73075" lon="7.30502">
        <ele>314</ele>
        <time>2020-08-14T14:26:13Z</time>
      </trkpt>
      <trkpt lat="48.73072" lon="7.30488">
        <ele>313.7</ele>
        <time>2020-08-14T14:26:15Z</time>
      </trkpt>
      <trkpt lat="48.7307" lon="7.30472">
        <ele>314.2</ele>
        <time>2020-08-14T14:26:17Z</time>
      </trkpt>
      <trkpt lat="48.73068" lon="7.30457">
        <ele>314.6</ele>
        <time>2020-08-14T14:26:19Z</time>
      </trkpt>
      <trkpt lat="48.73066" lon="7.30442">
        <ele>315.3</ele>
        <time>2020-08-14T14:26:21Z</time>
      </trkpt>
      <trkpt lat="48.73064" lon="7.30426">
        <ele>315.8</ele>
        <time>2020-08-14T14:26:23Z</time>
      </trkpt>
      <trkpt lat="48.73063" lon="7.30411">
        <ele>316.1</ele>
        <time>2020-08-14T14:26:25Z</time>
      </trkpt>
      <trkpt lat="48.73061" lon="7.30392">
        <ele>299.9</ele>
        <time>2020-08-14T14:26:28Z</time>
      </trkpt>
      <trkpt lat="48.7306" lon="7.30377">
        <ele>300.5</ele>
        <time>2020-08-14T14:26:30Z</time>
      </trkpt>
      <trkpt lat="48.73058" lon="7.30363">
        <ele>302.5</ele>
        <time>2020-08-14T14:26:32Z</time>
      </trkpt>
      <trkpt lat="48.7306" lon="7.30348">
        <ele>303.7</ele>
        <time>2020-08-14T14:26:34Z</time>
      </trkpt>
      <trkpt lat="48.7306" lon="7.30328">
        <ele>307.4</ele>
        <time>2020-08-14T14:26:37Z</time>
      </trkpt>
      <trkpt lat="48.7306" lon="7.30312">
        <ele>310.7</ele>
        <time>2020-08-14T14:26:39Z</time>
      </trkpt>
      <trkpt lat="48.7306" lon="7.30297">
        <ele>313.9</ele>
        <time>2020-08-14T14:26:41Z</time>
      </trkpt>
      <trkpt lat="48.7306" lon="7.30273">
        <ele>316.5</ele>
        <time>2020-08-14T14:26:44Z</time>
      </trkpt>
      <trkpt lat="48.73061" lon="7.30257">
        <ele>319.2</ele>
        <time>2020-08-14T14:26:46Z</time>
      </trkpt>
      <trkpt lat="48.73062" lon="7.30242">
        <ele>321.7</ele>
        <time>2020-08-14T14:26:48Z</time>
      </trkpt>
      <trkpt lat="48.73066" lon="7.30225">
        <ele>323.2</ele>
        <time>2020-08-14T14:26:50Z</time>
      </trkpt>
      <trkpt lat="48.73072" lon="7.30212">
        <ele>324.2</ele>
        <time>2020-08-14T14:26:52Z</time>
      </trkpt>
      <trkpt lat="48.73081" lon="7.30203">
        <ele>324.3</ele>
        <time>2020-08-14T14:26:54Z</time>
      </trkpt>
      <trkpt lat="48.73091" lon="7.30196">
        <ele>324</ele>
        <time>2020-08-14T14:26:56Z</time>
      </trkpt>
      <trkpt lat="48.73105" lon="7.3019">
        <ele>324.7</ele>
        <time>2020-08-14T14:26:59Z</time>
      </trkpt>
      <trkpt lat="48.73117" lon="7.3019">
        <ele>324.3</ele>
        <time>2020-08-14T14:27:01Z</time>
      </trkpt>
      <trkpt lat="48.73128" lon="7.3019">
        <ele>323.4</ele>
        <time>2020-08-14T14:27:03Z</time>
      </trkpt>
      <trkpt lat="48.73139" lon="7.30191">
        <ele>323.4</ele>
        <time>2020-08-14T14:27:05Z</time>
      </trkpt>
      <trkpt lat="48.7315" lon="7.30196">
        <ele>323.1</ele>
        <time>2020-08-14T14:27:07Z</time>
      </trkpt>
      <trkpt lat="48.73161" lon="7.30201">
        <ele>323.8</ele>
        <time>2020-08-14T14:27:09Z</time>
      </trkpt>
      <trkpt lat="48.73176" lon="7.30208">
        <ele>323.6</ele>
        <time>2020-08-14T14:27:12Z</time>
      </trkpt>
      <trkpt lat="48.73187" lon="7.30216">
        <ele>323.3</ele>
        <time>2020-08-14T14:27:14Z</time>
      </trkpt>
      <trkpt lat="48.73206" lon="7.30225">
        <ele>324.7</ele>
        <time>2020-08-14T14:27:17Z</time>
      </trkpt>
      <trkpt lat="48.73217" lon="7.30231">
        <ele>325</ele>
        <time>2020-08-14T14:27:19Z</time>
      </trkpt>
      <trkpt lat="48.73238" lon="7.30248">
        <ele>324.5</ele>
        <time>2020-08-14T14:27:22Z</time>
      </trkpt>
      <trkpt lat="48.73258" lon="7.3026">
        <ele>324.9</ele>
        <time>2020-08-14T14:27:25Z</time>
      </trkpt>
      <trkpt lat="48.73272" lon="7.30269">
        <ele>325.3</ele>
        <time>2020-08-14T14:27:27Z</time>
      </trkpt>
      <trkpt lat="48.73284" lon="7.30276">
        <ele>326.2</ele>
        <time>2020-08-14T14:27:29Z</time>
      </trkpt>
      <trkpt lat="48.73304" lon="7.30284">
        <ele>327.7</ele>
        <time>2020-08-14T14:27:32Z</time>
      </trkpt>
      <trkpt lat="48.73319" lon="7.3029">
        <ele>328.5</ele>
        <time>2020-08-14T14:27:34Z</time>
      </trkpt>
      <trkpt lat="48.73339" lon="7.30298">
        <ele>329.8</ele>
        <time>2020-08-14T14:27:37Z</time>
      </trkpt>
      <trkpt lat="48.73353" lon="7.30303">
        <ele>330.8</ele>
        <time>2020-08-14T14:27:39Z</time>
      </trkpt>
      <trkpt lat="48.73375" lon="7.30309">
        <ele>332.6</ele>
        <time>2020-08-14T14:27:42Z</time>
      </trkpt>
      <trkpt lat="48.7339" lon="7.30313">
        <ele>333.2</ele>
        <time>2020-08-14T14:27:44Z</time>
      </trkpt>
      <trkpt lat="48.73404" lon="7.30318">
        <ele>332.2</ele>
        <time>2020-08-14T14:27:46Z</time>
      </trkpt>
      <trkpt lat="48.73427" lon="7.30323">
        <ele>317.1</ele>
        <time>2020-08-14T14:27:49Z</time>
      </trkpt>
      <trkpt lat="48.73441" lon="7.30326">
        <ele>316.8</ele>
        <time>2020-08-14T14:27:51Z</time>
      </trkpt>
      <trkpt lat="48.73456" lon="7.30326">
        <ele>317</ele>
        <time>2020-08-14T14:27:53Z</time>
      </trkpt>
      <trkpt lat="48.7347" lon="7.30322">
        <ele>318.9</ele>
        <time>2020-08-14T14:27:55Z</time>
      </trkpt>
      <trkpt lat="48.73484" lon="7.3032">
        <ele>320.4</ele>
        <time>2020-08-14T14:27:57Z</time>
      </trkpt>
      <trkpt lat="48.73499" lon="7.30316">
        <ele>320.9</ele>
        <time>2020-08-14T14:27:59Z</time>
      </trkpt>
      <trkpt lat="48.73513" lon="7.30312">
        <ele>321.2</ele>
        <time>2020-08-14T14:28:01Z</time>
      </trkpt>
      <trkpt lat="48.73522" lon="7.30301">
        <ele>306.4</ele>
        <time>2020-08-14T14:28:03Z</time>
      </trkpt>
      <trkpt lat="48.73526" lon="7.30284">
        <ele>308.4</ele>
        <time>2020-08-14T14:28:05Z</time>
      </trkpt>
      <trkpt lat="48.73528" lon="7.30266">
        <ele>309.8</ele>
        <time>2020-08-14T14:28:07Z</time>
      </trkpt>
      <trkpt lat="48.73529" lon="7.30247">
        <ele>312.2</ele>
        <time>2020-08-14T14:28:09Z</time>
      </trkpt>
      <trkpt lat="48.73529" lon="7.30225">
        <ele>314</ele>
        <time>2020-08-14T14:28:11Z</time>
      </trkpt>
      <trkpt lat="48.73527" lon="7.30201">
        <ele>317.2</ele>
        <time>2020-08-14T14:28:13Z</time>
      </trkpt>
      <trkpt lat="48.73528" lon="7.30176">
        <ele>320.7</ele>
        <time>2020-08-14T14:28:15Z</time>
      </trkpt>
      <trkpt lat="48.73532" lon="7.30153">
        <ele>316.9</ele>
        <time>2020-08-14T14:28:17Z</time>
      </trkpt>
      <trkpt lat="48.7354" lon="7.30134">
        <ele>317.7</ele>
        <time>2020-08-14T14:28:19Z</time>
      </trkpt>
      <trkpt lat="48.73553" lon="7.30107">
        <ele>315.9</ele>
        <time>2020-08-14T14:28:22Z</time>
      </trkpt>
      <trkpt lat="48.73566" lon="7.30081">
        <ele>317.3</ele>
        <time>2020-08-14T14:28:25Z</time>
      </trkpt>
      <trkpt lat="48.73574" lon="7.30064">
        <ele>319.4</ele>
        <time>2020-08-14T14:28:27Z</time>
      </trkpt>
      <trkpt lat="48.73576" lon="7.30044">
        <ele>322.9</ele>
        <time>2020-08-14T14:28:29Z</time>
      </trkpt>
      <trkpt lat="48.73573" lon="7.30027">
        <ele>326</ele>
        <time>2020-08-14T14:28:31Z</time>
      </trkpt>
      <trkpt lat="48.73568" lon="7.30012">
        <ele>327</ele>
        <time>2020-08-14T14:28:33Z</time>
      </trkpt>
      <trkpt lat="48.73554" lon="7.29989">
        <ele>329.1</ele>
        <time>2020-08-14T14:28:36Z</time>
      </trkpt>
      <trkpt lat="48.73544" lon="7.29974">
        <ele>329.5</ele>
        <time>2020-08-14T14:28:38Z</time>
      </trkpt>
      <trkpt lat="48.73529" lon="7.29958">
        <ele>329.8</ele>
        <time>2020-08-14T14:28:41Z</time>
      </trkpt>
      <trkpt lat="48.73517" lon="7.29947">
        <ele>330</ele>
        <time>2020-08-14T14:28:43Z</time>
      </trkpt>
      <trkpt lat="48.73505" lon="7.29935">
        <ele>329.9</ele>
        <time>2020-08-14T14:28:45Z</time>
      </trkpt>
      <trkpt lat="48.73493" lon="7.29925">
        <ele>329.4</ele>
        <time>2020-08-14T14:28:47Z</time>
      </trkpt>
      <trkpt lat="48.7348" lon="7.29915">
        <ele>329.1</ele>
        <time>2020-08-14T14:28:49Z</time>
      </trkpt>
      <trkpt lat="48.7346" lon="7.29897">
        <ele>328.6</ele>
        <time>2020-08-14T14:28:52Z</time>
      </trkpt>
      <trkpt lat="48.73443" lon="7.29876">
        <ele>328.3</ele>
        <time>2020-08-14T14:28:55Z</time>
      </trkpt>
      <trkpt lat="48.73431" lon="7.29865">
        <ele>328.1</ele>
        <time>2020-08-14T14:28:57Z</time>
      </trkpt>
      <trkpt lat="48.7342" lon="7.29852">
        <ele>328.1</ele>
        <time>2020-08-14T14:28:59Z</time>
      </trkpt>
      <trkpt lat="48.73409" lon="7.29838">
        <ele>328.1</ele>
        <time>2020-08-14T14:29:01Z</time>
      </trkpt>
      <trkpt lat="48.73398" lon="7.29825">
        <ele>327.8</ele>
        <time>2020-08-14T14:29:03Z</time>
      </trkpt>
      <trkpt lat="48.73384" lon="7.29801">
        <ele>327.8</ele>
        <time>2020-08-14T14:29:06Z</time>
      </trkpt>
      <trkpt lat="48.7337" lon="7.29779">
        <ele>328.9</ele>
        <time>2020-08-14T14:29:09Z</time>
      </trkpt>
      <trkpt lat="48.73361" lon="7.29761">
        <ele>328.8</ele>
        <time>2020-08-14T14:29:11Z</time>
      </trkpt>
      <trkpt lat="48.73353" lon="7.29744">
        <ele>328.3</ele>
        <time>2020-08-14T14:29:13Z</time>
      </trkpt>
      <trkpt lat="48.73345" lon="7.29728">
        <ele>328.9</ele>
        <time>2020-08-14T14:29:15Z</time>
      </trkpt>
      <trkpt lat="48.73338" lon="7.29708">
        <ele>328</ele>
        <time>2020-08-14T14:29:17Z</time>
      </trkpt>
      <trkpt lat="48.73332" lon="7.29688">
        <ele>327.6</ele>
        <time>2020-08-14T14:29:19Z</time>
      </trkpt>
      <trkpt lat="48.73325" lon="7.29668">
        <ele>327.5</ele>
        <time>2020-08-14T14:29:21Z</time>
      </trkpt>
      <trkpt lat="48.73319" lon="7.29652">
        <ele>326.7</ele>
        <time>2020-08-14T14:29:23Z</time>
      </trkpt>
      <trkpt lat="48.73313" lon="7.29635">
        <ele>326.1</ele>
        <time>2020-08-14T14:29:25Z</time>
      </trkpt>
      <trkpt lat="48.73306" lon="7.29617">
        <ele>326.1</ele>
        <time>2020-08-14T14:29:27Z</time>
      </trkpt>
      <trkpt lat="48.73297" lon="7.29598">
        <ele>325.8</ele>
        <time>2020-08-14T14:29:29Z</time>
      </trkpt>
      <trkpt lat="48.7329" lon="7.2958">
        <ele>326.4</ele>
        <time>2020-08-14T14:29:31Z</time>
      </trkpt>
      <trkpt lat="48.73283" lon="7.29563">
        <ele>326.5</ele>
        <time>2020-08-14T14:29:33Z</time>
      </trkpt>
      <trkpt lat="48.73277" lon="7.29545">
        <ele>326.6</ele>
        <time>2020-08-14T14:29:35Z</time>
      </trkpt>
      <trkpt lat="48.7327" lon="7.29528">
        <ele>326.8</ele>
        <time>2020-08-14T14:29:37Z</time>
      </trkpt>
      <trkpt lat="48.73263" lon="7.29511">
        <ele>326.5</ele>
        <time>2020-08-14T14:29:39Z</time>
      </trkpt>
      <trkpt lat="48.73255" lon="7.29494">
        <ele>326.3</ele>
        <time>2020-08-14T14:29:41Z</time>
      </trkpt>
      <trkpt lat="48.73247" lon="7.29477">
        <ele>325.4</ele>
        <time>2020-08-14T14:29:43Z</time>
      </trkpt>
      <trkpt lat="48.7324" lon="7.29462">
        <ele>325.8</ele>
        <time>2020-08-14T14:29:45Z</time>
      </trkpt>
      <trkpt lat="48.73235" lon="7.29442">
        <ele>325.4</ele>
        <time>2020-08-14T14:29:47Z</time>
      </trkpt>
      <trkpt lat="48.73232" lon="7.29422">
        <ele>325.9</ele>
        <time>2020-08-14T14:29:49Z</time>
      </trkpt>
      <trkpt lat="48.7323" lon="7.29406">
        <ele>324.3</ele>
        <time>2020-08-14T14:29:51Z</time>
      </trkpt>
      <trkpt lat="48.73227" lon="7.29386">
        <ele>322.7</ele>
        <time>2020-08-14T14:29:53Z</time>
      </trkpt>
      <trkpt lat="48.73224" lon="7.2937">
        <ele>322.1</ele>
        <time>2020-08-14T14:29:55Z</time>
      </trkpt>
      <trkpt lat="48.73222" lon="7.29355">
        <ele>321.1</ele>
        <time>2020-08-14T14:29:57Z</time>
      </trkpt>
      <trkpt lat="48.73221" lon="7.29343">
        <ele>319.2</ele>
        <time>2020-08-14T14:29:59Z</time>
      </trkpt>
      <trkpt lat="48.7322" lon="7.29327">
        <ele>316.2</ele>
        <time>2020-08-14T14:30:01Z</time>
      </trkpt>
      <trkpt lat="48.73218" lon="7.2931">
        <ele>313.7</ele>
        <time>2020-08-14T14:30:03Z</time>
      </trkpt>
      <trkpt lat="48.73216" lon="7.29291">
        <ele>310.8</ele>
        <time>2020-08-14T14:30:05Z</time>
      </trkpt>
      <trkpt lat="48.73213" lon="7.29274">
        <ele>308.5</ele>
        <time>2020-08-14T14:30:07Z</time>
      </trkpt>
      <trkpt lat="48.73212" lon="7.29256">
        <ele>306.1</ele>
        <time>2020-08-14T14:30:09Z</time>
      </trkpt>
      <trkpt lat="48.73211" lon="7.29238">
        <ele>304</ele>
        <time>2020-08-14T14:30:11Z</time>
      </trkpt>
      <trkpt lat="48.7321" lon="7.2922">
        <ele>302.2</ele>
        <time>2020-08-14T14:30:13Z</time>
      </trkpt>
      <trkpt lat="48.73208" lon="7.29201">
        <ele>300</ele>
        <time>2020-08-14T14:30:15Z</time>
      </trkpt>
      <trkpt lat="48.73208" lon="7.29186">
        <ele>298</ele>
        <time>2020-08-14T14:30:17Z</time>
      </trkpt>
      <trkpt lat="48.73207" lon="7.29171">
        <ele>296.3</ele>
        <time>2020-08-14T14:30:19Z</time>
      </trkpt>
      <trkpt lat="48.73207" lon="7.29156">
        <ele>294.6</ele>
        <time>2020-08-14T14:30:21Z</time>
      </trkpt>
      <trkpt lat="48.73207" lon="7.29143">
        <ele>293.1</ele>
        <time>2020-08-14T14:30:23Z</time>
      </trkpt>
      <trkpt lat="48.73209" lon="7.29131">
        <ele>291.1</ele>
        <time>2020-08-14T14:30:25Z</time>
      </trkpt>
      <trkpt lat="48.73211" lon="7.29118">
        <ele>288.9</ele>
        <time>2020-08-14T14:30:27Z</time>
      </trkpt>
      <trkpt lat="48.73211" lon="7.29107">
        <ele>287.2</ele>
        <time>2020-08-14T14:30:29Z</time>
      </trkpt>
      <trkpt lat="48.73211" lon="7.291">
        <ele>285.7</ele>
        <time>2020-08-14T14:30:31Z</time>
      </trkpt>
      <trkpt lat="48.73213" lon="7.29092">
        <ele>284.7</ele>
        <time>2020-08-14T14:30:33Z</time>
      </trkpt>
      <trkpt lat="48.73214" lon="7.29084">
        <ele>283.5</ele>
        <time>2020-08-14T14:30:35Z</time>
      </trkpt>
      <trkpt lat="48.73215" lon="7.29071">
        <ele>282.1</ele>
        <time>2020-08-14T14:30:37Z</time>
      </trkpt>
      <trkpt lat="48.73218" lon="7.29059">
        <ele>280.1</ele>
        <time>2020-08-14T14:30:39Z</time>
      </trkpt>
      <trkpt lat="48.7322" lon="7.29048">
        <ele>278.8</ele>
        <time>2020-08-14T14:30:41Z</time>
      </trkpt>
      <trkpt lat="48.7322" lon="7.29038">
        <ele>277.1</ele>
        <time>2020-08-14T14:30:44Z</time>
      </trkpt>
      <trkpt lat="48.73215" lon="7.29043">
        <ele>274.5</ele>
        <time>2020-08-14T14:30:49Z</time>
      </trkpt>
      <trkpt lat="48.73211" lon="7.29049">
        <ele>272.6</ele>
        <time>2020-08-14T14:30:53Z</time>
      </trkpt>
      <trkpt lat="48.73207" lon="7.29054">
        <ele>270.4</ele>
        <time>2020-08-14T14:30:57Z</time>
      </trkpt>
      <trkpt lat="48.73203" lon="7.29058">
        <ele>269</ele>
        <time>2020-08-14T14:31:00Z</time>
      </trkpt>
      <trkpt lat="48.73199" lon="7.29057">
        <ele>267.7</ele>
        <time>2020-08-14T14:31:05Z</time>
      </trkpt>
      <trkpt lat="48.73198" lon="7.29051">
        <ele>267.6</ele>
        <time>2020-08-14T14:31:07Z</time>
      </trkpt>
      <trkpt lat="48.73199" lon="7.29043">
        <ele>267.7</ele>
        <time>2020-08-14T14:31:09Z</time>
      </trkpt>
      <trkpt lat="48.732" lon="7.29036">
        <ele>267.5</ele>
        <time>2020-08-14T14:31:11Z</time>
      </trkpt>
      <trkpt lat="48.73201" lon="7.29028">
        <ele>267.3</ele>
        <time>2020-08-14T14:31:13Z</time>
      </trkpt>
      <trkpt lat="48.73203" lon="7.29014">
        <ele>266.1</ele>
        <time>2020-08-14T14:31:16Z</time>
      </trkpt>
      <trkpt lat="48.73204" lon="7.29005">
        <ele>265.2</ele>
        <time>2020-08-14T14:31:18Z</time>
      </trkpt>
      <trkpt lat="48.73207" lon="7.28989">
        <ele>263.5</ele>
        <time>2020-08-14T14:31:21Z</time>
      </trkpt>
      <trkpt lat="48.73209" lon="7.28979">
        <ele>262.2</ele>
        <time>2020-08-14T14:31:23Z</time>
      </trkpt>
      <trkpt lat="48.73211" lon="7.28963">
        <ele>261.1</ele>
        <time>2020-08-14T14:31:25Z</time>
      </trkpt>
      <trkpt lat="48.73214" lon="7.28947">
        <ele>259.6</ele>
        <time>2020-08-14T14:31:27Z</time>
      </trkpt>
      <trkpt lat="48.73215" lon="7.28935">
        <ele>258</ele>
        <time>2020-08-14T14:31:29Z</time>
      </trkpt>
      <trkpt lat="48.73214" lon="7.28924">
        <ele>255.4</ele>
        <time>2020-08-14T14:31:32Z</time>
      </trkpt>
      <trkpt lat="48.73215" lon="7.28915">
        <ele>252.9</ele>
        <time>2020-08-14T14:31:35Z</time>
      </trkpt>
      <trkpt lat="48.73216" lon="7.28906">
        <ele>251.9</ele>
        <time>2020-08-14T14:31:37Z</time>
      </trkpt>
      <trkpt lat="48.73218" lon="7.28896">
        <ele>250.5</ele>
        <time>2020-08-14T14:31:39Z</time>
      </trkpt>
      <trkpt lat="48.73222" lon="7.2888">
        <ele>249.2</ele>
        <time>2020-08-14T14:31:42Z</time>
      </trkpt>
      <trkpt lat="48.73224" lon="7.28866">
        <ele>248.2</ele>
        <time>2020-08-14T14:31:44Z</time>
      </trkpt>
      <trkpt lat="48.73226" lon="7.2885">
        <ele>247.1</ele>
        <time>2020-08-14T14:31:46Z</time>
      </trkpt>
      <trkpt lat="48.73229" lon="7.28833">
        <ele>246.2</ele>
        <time>2020-08-14T14:31:48Z</time>
      </trkpt>
      <trkpt lat="48.73233" lon="7.28819">
        <ele>244.8</ele>
        <time>2020-08-14T14:31:50Z</time>
      </trkpt>
      <trkpt lat="48.73238" lon="7.28808">
        <ele>242.8</ele>
        <time>2020-08-14T14:31:52Z</time>
      </trkpt>
      <trkpt lat="48.73243" lon="7.288">
        <ele>240.7</ele>
        <time>2020-08-14T14:31:54Z</time>
      </trkpt>
      <trkpt lat="48.73249" lon="7.28797">
        <ele>238.8</ele>
        <time>2020-08-14T14:31:56Z</time>
      </trkpt>
      <trkpt lat="48.73258" lon="7.28794">
        <ele>236.5</ele>
        <time>2020-08-14T14:31:58Z</time>
      </trkpt>
      <trkpt lat="48.73277" lon="7.28791">
        <ele>233.5</ele>
        <time>2020-08-14T14:32:01Z</time>
      </trkpt>
      <trkpt lat="48.73299" lon="7.28789">
        <ele>231.9</ele>
        <time>2020-08-14T14:32:04Z</time>
      </trkpt>
      <trkpt lat="48.7331" lon="7.28786">
        <ele>231.4</ele>
        <time>2020-08-14T14:32:06Z</time>
      </trkpt>
      <trkpt lat="48.7332" lon="7.28783">
        <ele>230.9</ele>
        <time>2020-08-14T14:32:08Z</time>
      </trkpt>
      <trkpt lat="48.73328" lon="7.28782">
        <ele>230</ele>
        <time>2020-08-14T14:32:10Z</time>
      </trkpt>
      <trkpt lat="48.73334" lon="7.2878">
        <ele>229.4</ele>
        <time>2020-08-14T14:32:13Z</time>
      </trkpt>
      <trkpt lat="48.73339" lon="7.28779">
        <ele>227.9</ele>
        <time>2020-08-14T14:32:18Z</time>
      </trkpt>
      <trkpt lat="48.73342" lon="7.28773">
        <ele>228.8</ele>
        <time>2020-08-14T14:32:29Z</time>
      </trkpt>
      <trkpt lat="48.73339" lon="7.28767">
        <ele>228.2</ele>
        <time>2020-08-14T14:32:33Z</time>
      </trkpt>
      <trkpt lat="48.73334" lon="7.28763">
        <ele>227.9</ele>
        <time>2020-08-14T14:32:35Z</time>
      </trkpt>
      <trkpt lat="48.73336" lon="7.28757">
        <ele>227.6</ele>
        <time>2020-08-14T14:32:39Z</time>
      </trkpt>
      <trkpt lat="48.73342" lon="7.28756">
        <ele>226.9</ele>
        <time>2020-08-14T14:32:42Z</time>
      </trkpt>
      <trkpt lat="48.73346" lon="7.28757">
        <ele>226.7</ele>
        <time>2020-08-14T14:32:44Z</time>
      </trkpt>
    </trkseg>
  </trk>
  <trk>
    <name><![CDATA[secteur Saverne - Dabo - Petite Pierre_33]]></name>
    <trkseg>
      <trkpt lat="48.75145" lon="7.33249">
        <ele>384.8</ele>
        <time>2020-05-22T11:09:51Z</time>
      </trkpt>
      <trkpt lat="48.75145" lon="7.33249">
        <ele>384.8</ele>
        <time>2020-05-22T11:09:51Z</time>
      </trkpt>
      <trkpt lat="48.75145" lon="7.33249">
        <ele>384.8</ele>
        <time>2020-05-22T11:09:51Z</time>
      </trkpt>
      <trkpt lat="48.75145" lon="7.33249">
        <ele>384.8</ele>
        <time>2020-05-22T11:09:51Z</time>
      </trkpt>
      <trkpt lat="48.75145" lon="7.33249">
        <ele>384.8</ele>
        <time>2020-05-22T11:09:51Z</time>
      </trkpt>
      <trkpt lat="48.75145" lon="7.33249">
        <ele>384.8</ele>
        <time>2020-05-22T11:09:51Z</time>
      </trkpt>
      <trkpt lat="48.75143" lon="7.33244">
        <ele>384.9</ele>
        <time>2020-05-22T11:09:52Z</time>
      </trkpt>
      <trkpt lat="48.7514" lon="7.33238">
        <ele>384.9</ele>
        <time>2020-05-22T11:09:54Z</time>
      </trkpt>
      <trkpt lat="48.75138" lon="7.33237">
        <ele>384.8</ele>
        <time>2020-05-22T11:09:55Z</time>
      </trkpt>
      <trkpt lat="48.75136" lon="7.33238">
        <ele>384.8</ele>
        <time>2020-05-22T11:09:56Z</time>
      </trkpt>
      <trkpt lat="48.75134" lon="7.33238">
        <ele>384.6</ele>
        <time>2020-05-22T11:09:58Z</time>
      </trkpt>
      <trkpt lat="48.7513" lon="7.33234">
        <ele>384.4</ele>
        <time>2020-05-22T11:10:00Z</time>
      </trkpt>
      <trkpt lat="48.75128" lon="7.33231">
        <ele>384.3</ele>
        <time>2020-05-22T11:10:01Z</time>
      </trkpt>
      <trkpt lat="48.75122" lon="7.33222">
        <ele>383.8</ele>
        <time>2020-05-22T11:10:03Z</time>
      </trkpt>
      <trkpt lat="48.75119" lon="7.33217">
        <ele>383.5</ele>
        <time>2020-05-22T11:10:04Z</time>
      </trkpt>
      <trkpt lat="48.75109" lon="7.33207">
        <ele>382.9</ele>
        <time>2020-05-22T11:10:06Z</time>
      </trkpt>
      <trkpt lat="48.75101" lon="7.33197">
        <ele>382.5</ele>
        <time>2020-05-22T11:10:08Z</time>
      </trkpt>
      <trkpt lat="48.75095" lon="7.33186">
        <ele>382.2</ele>
        <time>2020-05-22T11:10:10Z</time>
      </trkpt>
      <trkpt lat="48.7509" lon="7.33177">
        <ele>382</ele>
        <time>2020-05-22T11:10:12Z</time>
      </trkpt>
      <trkpt lat="48.75085" lon="7.33173">
        <ele>381.8</ele>
        <time>2020-05-22T11:10:13Z</time>
      </trkpt>
      <trkpt lat="48.75078" lon="7.33164">
        <ele>381.7</ele>
        <time>2020-05-22T11:10:15Z</time>
      </trkpt>
      <trkpt lat="48.75075" lon="7.33161">
        <ele>381.7</ele>
        <time>2020-05-22T11:10:16Z</time>
      </trkpt>
      <trkpt lat="48.75068" lon="7.33155">
        <ele>381.8</ele>
        <time>2020-05-22T11:10:18Z</time>
      </trkpt>
      <trkpt lat="48.75065" lon="7.33152">
        <ele>381.8</ele>
        <time>2020-05-22T11:10:19Z</time>
      </trkpt>
      <trkpt lat="48.7506" lon="7.33149">
        <ele>381.9</ele>
        <time>2020-05-22T11:10:21Z</time>
      </trkpt>
      <trkpt lat="48.75057" lon="7.33147">
        <ele>382</ele>
        <time>2020-05-22T11:10:22Z</time>
      </trkpt>
      <trkpt lat="48.75053" lon="7.33146">
        <ele>382.1</ele>
        <time>2020-05-22T11:10:24Z</time>
      </trkpt>
      <trkpt lat="48.75051" lon="7.33144">
        <ele>382.1</ele>
        <time>2020-05-22T11:10:25Z</time>
      </trkpt>
      <trkpt lat="48.75046" lon="7.33142">
        <ele>382.3</ele>
        <time>2020-05-22T11:10:27Z</time>
      </trkpt>
      <trkpt lat="48.75042" lon="7.3314">
        <ele>382.4</ele>
        <time>2020-05-22T11:10:28Z</time>
      </trkpt>
      <trkpt lat="48.75036" lon="7.33134">
        <ele>382.5</ele>
        <time>2020-05-22T11:10:30Z</time>
      </trkpt>
      <trkpt lat="48.75033" lon="7.33131">
        <ele>382.6</ele>
        <time>2020-05-22T11:10:31Z</time>
      </trkpt>
      <trkpt lat="48.75028" lon="7.33127">
        <ele>382.7</ele>
        <time>2020-05-22T11:10:33Z</time>
      </trkpt>
      <trkpt lat="48.7502" lon="7.33123">
        <ele>382.6</ele>
        <time>2020-05-22T11:10:35Z</time>
      </trkpt>
      <trkpt lat="48.7501" lon="7.33122">
        <ele>382.1</ele>
        <time>2020-05-22T11:10:37Z</time>
      </trkpt>
      <trkpt lat="48.74998" lon="7.33123">
        <ele>381.1</ele>
        <time>2020-05-22T11:10:39Z</time>
      </trkpt>
      <trkpt lat="48.74987" lon="7.33133">
        <ele>379.6</ele>
        <time>2020-05-22T11:10:41Z</time>
      </trkpt>
      <trkpt lat="48.74983" lon="7.33145">
        <ele>378.5</ele>
        <time>2020-05-22T11:10:43Z</time>
      </trkpt>
      <trkpt lat="48.7498" lon="7.33158">
        <ele>377.5</ele>
        <time>2020-05-22T11:10:45Z</time>
      </trkpt>
      <trkpt lat="48.74978" lon="7.33163">
        <ele>377</ele>
        <time>2020-05-22T11:10:46Z</time>
      </trkpt>
      <trkpt lat="48.74973" lon="7.33177">
        <ele>375.8</ele>
        <time>2020-05-22T11:10:48Z</time>
      </trkpt>
      <trkpt lat="48.74967" lon="7.33182">
        <ele>375.1</ele>
        <time>2020-05-22T11:10:49Z</time>
      </trkpt>
      <trkpt lat="48.74963" lon="7.3319">
        <ele>374.3</ele>
        <time>2020-05-22T11:10:50Z</time>
      </trkpt>
      <trkpt lat="48.74958" lon="7.33196">
        <ele>373.7</ele>
        <time>2020-05-22T11:10:51Z</time>
      </trkpt>
      <trkpt lat="48.74951" lon="7.33209">
        <ele>373</ele>
        <time>2020-05-22T11:10:53Z</time>
      </trkpt>
      <trkpt lat="48.74946" lon="7.33217">
        <ele>372.8</ele>
        <time>2020-05-22T11:10:55Z</time>
      </trkpt>
      <trkpt lat="48.74941" lon="7.33222">
        <ele>372.8</ele>
        <time>2020-05-22T11:10:57Z</time>
      </trkpt>
      <trkpt lat="48.74938" lon="7.33224">
        <ele>372.9</ele>
        <time>2020-05-22T11:10:58Z</time>
      </trkpt>
      <trkpt lat="48.74929" lon="7.33228">
        <ele>373.2</ele>
        <time>2020-05-22T11:11:00Z</time>
      </trkpt>
      <trkpt lat="48.74925" lon="7.3323">
        <ele>373.5</ele>
        <time>2020-05-22T11:11:01Z</time>
      </trkpt>
      <trkpt lat="48.74919" lon="7.33233">
        <ele>374</ele>
        <time>2020-05-22T11:11:03Z</time>
      </trkpt>
      <trkpt lat="48.74918" lon="7.33232">
        <ele>374.1</ele>
        <time>2020-05-22T11:11:05Z</time>
      </trkpt>
      <trkpt lat="48.74917" lon="7.33233">
        <ele>374.2</ele>
        <time>2020-05-22T11:11:06Z</time>
      </trkpt>
      <trkpt lat="48.74916" lon="7.33234">
        <ele>374.3</ele>
        <time>2020-05-22T11:11:08Z</time>
      </trkpt>
      <trkpt lat="48.74915" lon="7.33235">
        <ele>374.4</ele>
        <time>2020-05-22T11:11:10Z</time>
      </trkpt>
      <trkpt lat="48.74915" lon="7.33236">
        <ele>374.5</ele>
        <time>2020-05-22T11:11:11Z</time>
      </trkpt>
      <trkpt lat="48.74914" lon="7.33236">
        <ele>374.6</ele>
        <time>2020-05-22T11:11:13Z</time>
      </trkpt>
      <trkpt lat="48.74914" lon="7.33235">
        <ele>374.6</ele>
        <time>2020-05-22T11:11:14Z</time>
      </trkpt>
      <trkpt lat="48.74913" lon="7.33235">
        <ele>374.7</ele>
        <time>2020-05-22T11:11:15Z</time>
      </trkpt>
      <trkpt lat="48.74912" lon="7.33235">
        <ele>374.7</ele>
        <time>2020-05-22T11:11:17Z</time>
      </trkpt>
      <trkpt lat="48.74912" lon="7.33236">
        <ele>374.8</ele>
        <time>2020-05-22T11:11:19Z</time>
      </trkpt>
      <trkpt lat="48.74911" lon="7.33236">
        <ele>374.9</ele>
        <time>2020-05-22T11:11:20Z</time>
      </trkpt>
      <trkpt lat="48.74909" lon="7.33239">
        <ele>375.1</ele>
        <time>2020-05-22T11:11:22Z</time>
      </trkpt>
      <trkpt lat="48.74908" lon="7.3324">
        <ele>375.3</ele>
        <time>2020-05-22T11:11:23Z</time>
      </trkpt>
      <trkpt lat="48.74906" lon="7.3324">
        <ele>375.5</ele>
        <time>2020-05-22T11:11:25Z</time>
      </trkpt>
      <trkpt lat="48.74905" lon="7.33241">
        <ele>375.6</ele>
        <time>2020-05-22T11:11:26Z</time>
      </trkpt>
      <trkpt lat="48.74904" lon="7.3324">
        <ele>375.6</ele>
        <time>2020-05-22T11:11:27Z</time>
      </trkpt>
      <trkpt lat="48.74901" lon="7.33241">
        <ele>375.9</ele>
        <time>2020-05-22T11:11:29Z</time>
      </trkpt>
      <trkpt lat="48.74898" lon="7.33242">
        <ele>376.1</ele>
        <time>2020-05-22T11:11:31Z</time>
      </trkpt>
      <trkpt lat="48.74895" lon="7.33243">
        <ele>376.3</ele>
        <time>2020-05-22T11:11:33Z</time>
      </trkpt>
      <trkpt lat="48.74893" lon="7.33244">
        <ele>376.4</ele>
        <time>2020-05-22T11:11:34Z</time>
      </trkpt>
      <trkpt lat="48.74889" lon="7.33246">
        <ele>376.6</ele>
        <time>2020-05-22T11:11:36Z</time>
      </trkpt>
      <trkpt lat="48.74887" lon="7.33246">
        <ele>376.7</ele>
        <time>2020-05-22T11:11:37Z</time>
      </trkpt>
      <trkpt lat="48.74883" lon="7.3325">
        <ele>376.8</ele>
        <time>2020-05-22T11:11:39Z</time>
      </trkpt>
      <trkpt lat="48.74879" lon="7.33251">
        <ele>376.9</ele>
        <time>2020-05-22T11:11:41Z</time>
      </trkpt>
      <trkpt lat="48.74878" lon="7.33251">
        <ele>376.9</ele>
        <time>2020-05-22T11:11:43Z</time>
      </trkpt>
      <trkpt lat="48.74877" lon="7.33252">
        <ele>376.9</ele>
        <time>2020-05-22T11:11:44Z</time>
      </trkpt>
      <trkpt lat="48.74874" lon="7.33252">
        <ele>376.9</ele>
        <time>2020-05-22T11:11:46Z</time>
      </trkpt>
      <trkpt lat="48.74873" lon="7.33252">
        <ele>376.9</ele>
        <time>2020-05-22T11:11:47Z</time>
      </trkpt>
      <trkpt lat="48.74873" lon="7.33253">
        <ele>376.8</ele>
        <time>2020-05-22T11:11:49Z</time>
      </trkpt>
      <trkpt lat="48.74873" lon="7.33254">
        <ele>376.8</ele>
        <time>2020-05-22T11:11:50Z</time>
      </trkpt>
      <trkpt lat="48.74871" lon="7.33257">
        <ele>376.7</ele>
        <time>2020-05-22T11:11:52Z</time>
      </trkpt>
      <trkpt lat="48.74871" lon="7.33258">
        <ele>376.7</ele>
        <time>2020-05-22T11:11:53Z</time>
      </trkpt>
      <trkpt lat="48.74872" lon="7.3326">
        <ele>376.7</ele>
        <time>2020-05-22T11:11:55Z</time>
      </trkpt>
      <trkpt lat="48.74871" lon="7.33264">
        <ele>376.5</ele>
        <time>2020-05-22T11:11:57Z</time>
      </trkpt>
      <trkpt lat="48.74871" lon="7.33266">
        <ele>376.4</ele>
        <time>2020-05-22T11:11:58Z</time>
      </trkpt>
      <trkpt lat="48.7487" lon="7.33268">
        <ele>376.3</ele>
        <time>2020-05-22T11:12:00Z</time>
      </trkpt>
      <trkpt lat="48.7487" lon="7.33269">
        <ele>376.2</ele>
        <time>2020-05-22T11:12:02Z</time>
      </trkpt>
      <trkpt lat="48.74868" lon="7.33269">
        <ele>376.1</ele>
        <time>2020-05-22T11:12:04Z</time>
      </trkpt>
      <trkpt lat="48.74862" lon="7.3327">
        <ele>375.6</ele>
        <time>2020-05-22T11:12:06Z</time>
      </trkpt>
      <trkpt lat="48.74859" lon="7.33271">
        <ele>375.4</ele>
        <time>2020-05-22T11:12:07Z</time>
      </trkpt>
      <trkpt lat="48.74857" lon="7.33272">
        <ele>375.2</ele>
        <time>2020-05-22T11:12:09Z</time>
      </trkpt>
      <trkpt lat="48.74856" lon="7.33272">
        <ele>375.2</ele>
        <time>2020-05-22T11:12:10Z</time>
      </trkpt>
      <trkpt lat="48.74856" lon="7.33274">
        <ele>375.1</ele>
        <time>2020-05-22T11:12:12Z</time>
      </trkpt>
      <trkpt lat="48.74856" lon="7.33277">
        <ele>375</ele>
        <time>2020-05-22T11:12:14Z</time>
      </trkpt>
      <trkpt lat="48.74855" lon="7.33279">
        <ele>375</ele>
        <time>2020-05-22T11:12:16Z</time>
      </trkpt>
      <trkpt lat="48.74853" lon="7.33283">
        <ele>374.9</ele>
        <time>2020-05-22T11:12:18Z</time>
      </trkpt>
      <trkpt lat="48.74851" lon="7.33285">
        <ele>374.9</ele>
        <time>2020-05-22T11:12:19Z</time>
      </trkpt>
      <trkpt lat="48.74849" lon="7.33289">
        <ele>374.8</ele>
        <time>2020-05-22T11:12:21Z</time>
      </trkpt>
      <trkpt lat="48.74848" lon="7.3329">
        <ele>374.9</ele>
        <time>2020-05-22T11:12:22Z</time>
      </trkpt>
      <trkpt lat="48.74846" lon="7.33291">
        <ele>374.9</ele>
        <time>2020-05-22T11:12:23Z</time>
      </trkpt>
      <trkpt lat="48.74843" lon="7.33291">
        <ele>374.9</ele>
        <time>2020-05-22T11:12:24Z</time>
      </trkpt>
      <trkpt lat="48.74842" lon="7.33292">
        <ele>374.9</ele>
        <time>2020-05-22T11:12:25Z</time>
      </trkpt>
      <trkpt lat="48.74836" lon="7.33294">
        <ele>375.2</ele>
        <time>2020-05-22T11:12:27Z</time>
      </trkpt>
      <trkpt lat="48.74828" lon="7.33295">
        <ele>375.5</ele>
        <time>2020-05-22T11:12:29Z</time>
      </trkpt>
      <trkpt lat="48.74826" lon="7.33295">
        <ele>375.6</ele>
        <time>2020-05-22T11:12:30Z</time>
      </trkpt>
      <trkpt lat="48.74821" lon="7.33298">
        <ele>375.8</ele>
        <time>2020-05-22T11:12:32Z</time>
      </trkpt>
      <trkpt lat="48.74816" lon="7.33302">
        <ele>376</ele>
        <time>2020-05-22T11:12:34Z</time>
      </trkpt>
      <trkpt lat="48.74812" lon="7.33305">
        <ele>376</ele>
        <time>2020-05-22T11:12:36Z</time>
      </trkpt>
      <trkpt lat="48.7481" lon="7.33306">
        <ele>376.1</ele>
        <time>2020-05-22T11:12:37Z</time>
      </trkpt>
      <trkpt lat="48.74807" lon="7.33308">
        <ele>376</ele>
        <time>2020-05-22T11:12:39Z</time>
      </trkpt>
      <trkpt lat="48.74805" lon="7.33308">
        <ele>376</ele>
        <time>2020-05-22T11:12:40Z</time>
      </trkpt>
      <trkpt lat="48.74801" lon="7.33311">
        <ele>375.9</ele>
        <time>2020-05-22T11:12:42Z</time>
      </trkpt>
      <trkpt lat="48.74796" lon="7.33314">
        <ele>375.6</ele>
        <time>2020-05-22T11:12:44Z</time>
      </trkpt>
      <trkpt lat="48.74792" lon="7.33317">
        <ele>375.5</ele>
        <time>2020-05-22T11:12:45Z</time>
      </trkpt>
      <trkpt lat="48.74791" lon="7.33318">
        <ele>375.4</ele>
        <time>2020-05-22T11:12:46Z</time>
      </trkpt>
      <trkpt lat="48.74787" lon="7.33322">
        <ele>375.2</ele>
        <time>2020-05-22T11:12:47Z</time>
      </trkpt>
      <trkpt lat="48.74781" lon="7.33327">
        <ele>374.9</ele>
        <time>2020-05-22T11:12:49Z</time>
      </trkpt>
      <trkpt lat="48.7478" lon="7.33328">
        <ele>374.9</ele>
        <time>2020-05-22T11:12:50Z</time>
      </trkpt>
      <trkpt lat="48.74778" lon="7.3333">
        <ele>374.8</ele>
        <time>2020-05-22T11:12:51Z</time>
      </trkpt>
      <trkpt lat="48.74775" lon="7.33331">
        <ele>374.8</ele>
        <time>2020-05-22T11:12:53Z</time>
      </trkpt>
      <trkpt lat="48.7477" lon="7.33332">
        <ele>374.7</ele>
        <time>2020-05-22T11:12:55Z</time>
      </trkpt>
      <trkpt lat="48.74767" lon="7.33333">
        <ele>374.7</ele>
        <time>2020-05-22T11:12:56Z</time>
      </trkpt>
      <trkpt lat="48.74765" lon="7.33334">
        <ele>374.7</ele>
        <time>2020-05-22T11:12:57Z</time>
      </trkpt>
      <trkpt lat="48.74761" lon="7.33335">
        <ele>374.8</ele>
        <time>2020-05-22T11:12:59Z</time>
      </trkpt>
      <trkpt lat="48.74756" lon="7.33335">
        <ele>374.9</ele>
        <time>2020-05-22T11:13:01Z</time>
      </trkpt>
      <trkpt lat="48.74754" lon="7.33336">
        <ele>374.9</ele>
        <time>2020-05-22T11:13:02Z</time>
      </trkpt>
      <trkpt lat="48.7475" lon="7.33338">
        <ele>375</ele>
        <time>2020-05-22T11:13:04Z</time>
      </trkpt>
      <trkpt lat="48.74748" lon="7.33339">
        <ele>375.1</ele>
        <time>2020-05-22T11:13:05Z</time>
      </trkpt>
      <trkpt lat="48.74745" lon="7.33341">
        <ele>375.1</ele>
        <time>2020-05-22T11:13:07Z</time>
      </trkpt>
      <trkpt lat="48.74743" lon="7.33342">
        <ele>375.1</ele>
        <time>2020-05-22T11:13:08Z</time>
      </trkpt>
      <trkpt lat="48.74735" lon="7.33347">
        <ele>374.8</ele>
        <time>2020-05-22T11:13:10Z</time>
      </trkpt>
      <trkpt lat="48.7473" lon="7.33351">
        <ele>374.6</ele>
        <time>2020-05-22T11:13:11Z</time>
      </trkpt>
      <trkpt lat="48.74721" lon="7.33356">
        <ele>374.2</ele>
        <time>2020-05-22T11:13:13Z</time>
      </trkpt>
      <trkpt lat="48.74717" lon="7.3336">
        <ele>374.2</ele>
        <time>2020-05-22T11:13:15Z</time>
      </trkpt>
      <trkpt lat="48.74711" lon="7.33368">
        <ele>374.3</ele>
        <time>2020-05-22T11:13:17Z</time>
      </trkpt>
      <trkpt lat="48.74709" lon="7.33369">
        <ele>374.4</ele>
        <time>2020-05-22T11:13:18Z</time>
      </trkpt>
      <trkpt lat="48.74709" lon="7.33371">
        <ele>374.4</ele>
        <time>2020-05-22T11:13:19Z</time>
      </trkpt>
      <trkpt lat="48.74705" lon="7.33372">
        <ele>374.6</ele>
        <time>2020-05-22T11:13:21Z</time>
      </trkpt>
      <trkpt lat="48.74702" lon="7.33374">
        <ele>374.9</ele>
        <time>2020-05-22T11:13:22Z</time>
      </trkpt>
      <trkpt lat="48.74698" lon="7.33375">
        <ele>375.1</ele>
        <time>2020-05-22T11:13:23Z</time>
      </trkpt>
      <trkpt lat="48.74698" lon="7.33375">
        <ele>375.1</ele>
        <time>2020-05-22T11:13:24Z</time>
      </trkpt>
      <trkpt lat="48.74696" lon="7.33376">
        <ele>375.3</ele>
        <time>2020-05-22T11:13:26Z</time>
      </trkpt>
      <trkpt lat="48.74695" lon="7.33377">
        <ele>375.3</ele>
        <time>2020-05-22T11:13:27Z</time>
      </trkpt>
      <trkpt lat="48.74695" lon="7.33378">
        <ele>375.4</ele>
        <time>2020-05-22T11:13:28Z</time>
      </trkpt>
      <trkpt lat="48.74693" lon="7.33379">
        <ele>375.5</ele>
        <time>2020-05-22T11:13:30Z</time>
      </trkpt>
      <trkpt lat="48.74692" lon="7.33379">
        <ele>375.5</ele>
        <time>2020-05-22T11:13:31Z</time>
      </trkpt>
      <trkpt lat="48.7469" lon="7.33378">
        <ele>375.6</ele>
        <time>2020-05-22T11:13:33Z</time>
      </trkpt>
      <trkpt lat="48.74689" lon="7.33379">
        <ele>375.7</ele>
        <time>2020-05-22T11:13:34Z</time>
      </trkpt>
      <trkpt lat="48.74688" lon="7.3338">
        <ele>375.7</ele>
        <time>2020-05-22T11:13:36Z</time>
      </trkpt>
      <trkpt lat="48.74688" lon="7.3338">
        <ele>375.7</ele>
        <time>2020-05-22T11:13:38Z</time>
      </trkpt>
      <trkpt lat="48.74688" lon="7.3338">
        <ele>375.7</ele>
        <time>2020-05-22T11:13:39Z</time>
      </trkpt>
      <trkpt lat="48.74686" lon="7.33381">
        <ele>375.8</ele>
        <time>2020-05-22T11:13:40Z</time>
      </trkpt>
      <trkpt lat="48.74682" lon="7.33382">
        <ele>375.9</ele>
        <time>2020-05-22T11:13:42Z</time>
      </trkpt>
      <trkpt lat="48.74674" lon="7.33384">
        <ele>376</ele>
        <time>2020-05-22T11:13:44Z</time>
      </trkpt>
      <trkpt lat="48.74668" lon="7.33385">
        <ele>375.9</ele>
        <time>2020-05-22T11:13:46Z</time>
      </trkpt>
      <trkpt lat="48.74664" lon="7.33387">
        <ele>375.8</ele>
        <time>2020-05-22T11:13:48Z</time>
      </trkpt>
      <trkpt lat="48.74662" lon="7.33389">
        <ele>375.8</ele>
        <time>2020-05-22T11:13:49Z</time>
      </trkpt>
      <trkpt lat="48.74659" lon="7.33392">
        <ele>375.6</ele>
        <time>2020-05-22T11:13:51Z</time>
      </trkpt>
      <trkpt lat="48.74657" lon="7.33393">
        <ele>375.6</ele>
        <time>2020-05-22T11:13:52Z</time>
      </trkpt>
      <trkpt lat="48.74652" lon="7.33395">
        <ele>375.4</ele>
        <time>2020-05-22T11:13:54Z</time>
      </trkpt>
      <trkpt lat="48.74648" lon="7.33397">
        <ele>375.3</ele>
        <time>2020-05-22T11:13:55Z</time>
      </trkpt>
      <trkpt lat="48.74644" lon="7.33399">
        <ele>375.3</ele>
        <time>2020-05-22T11:13:57Z</time>
      </trkpt>
      <trkpt lat="48.74642" lon="7.334">
        <ele>375.3</ele>
        <time>2020-05-22T11:13:58Z</time>
      </trkpt>
      <trkpt lat="48.74638" lon="7.33404">
        <ele>375.4</ele>
        <time>2020-05-22T11:14:00Z</time>
      </trkpt>
      <trkpt lat="48.74636" lon="7.33406">
        <ele>375.5</ele>
        <time>2020-05-22T11:14:01Z</time>
      </trkpt>
      <trkpt lat="48.74631" lon="7.33411">
        <ele>375.6</ele>
        <time>2020-05-22T11:14:03Z</time>
      </trkpt>
      <trkpt lat="48.7463" lon="7.33413">
        <ele>375.7</ele>
        <time>2020-05-22T11:14:04Z</time>
      </trkpt>
      <trkpt lat="48.74628" lon="7.33415">
        <ele>375.7</ele>
        <time>2020-05-22T11:14:06Z</time>
      </trkpt>
      <trkpt lat="48.74627" lon="7.33416">
        <ele>375.7</ele>
        <time>2020-05-22T11:14:08Z</time>
      </trkpt>
      <trkpt lat="48.74625" lon="7.33417">
        <ele>375.7</ele>
        <time>2020-05-22T11:14:10Z</time>
      </trkpt>
      <trkpt lat="48.74624" lon="7.33419">
        <ele>375.7</ele>
        <time>2020-05-22T11:14:11Z</time>
      </trkpt>
      <trkpt lat="48.74618" lon="7.33425">
        <ele>375.5</ele>
        <time>2020-05-22T11:14:13Z</time>
      </trkpt>
      <trkpt lat="48.74614" lon="7.33428">
        <ele>375.1</ele>
        <time>2020-05-22T11:14:14Z</time>
      </trkpt>
      <trkpt lat="48.74611" lon="7.33432">
        <ele>374.7</ele>
        <time>2020-05-22T11:14:15Z</time>
      </trkpt>
      <trkpt lat="48.74607" lon="7.33437">
        <ele>374</ele>
        <time>2020-05-22T11:14:16Z</time>
      </trkpt>
      <trkpt lat="48.74603" lon="7.33443">
        <ele>372.8</ele>
        <time>2020-05-22T11:14:18Z</time>
      </trkpt>
      <trkpt lat="48.74601" lon="7.33447">
        <ele>372.2</ele>
        <time>2020-05-22T11:14:19Z</time>
      </trkpt>
      <trkpt lat="48.74595" lon="7.33456">
        <ele>370.9</ele>
        <time>2020-05-22T11:14:21Z</time>
      </trkpt>
      <trkpt lat="48.74593" lon="7.33462">
        <ele>370.3</ele>
        <time>2020-05-22T11:14:23Z</time>
      </trkpt>
      <trkpt lat="48.74592" lon="7.33466">
        <ele>369.9</ele>
        <time>2020-05-22T11:14:24Z</time>
      </trkpt>
      <trkpt lat="48.74589" lon="7.33474">
        <ele>369</ele>
        <time>2020-05-22T11:14:26Z</time>
      </trkpt>
      <trkpt lat="48.74587" lon="7.33477">
        <ele>368.6</ele>
        <time>2020-05-22T11:14:27Z</time>
      </trkpt>
      <trkpt lat="48.74586" lon="7.33479">
        <ele>368.4</ele>
        <time>2020-05-22T11:14:28Z</time>
      </trkpt>
      <trkpt lat="48.74585" lon="7.33481">
        <ele>368.2</ele>
        <time>2020-05-22T11:14:29Z</time>
      </trkpt>
      <trkpt lat="48.74585" lon="7.33485">
        <ele>367.9</ele>
        <time>2020-05-22T11:14:31Z</time>
      </trkpt>
      <trkpt lat="48.74586" lon="7.33489">
        <ele>367.6</ele>
        <time>2020-05-22T11:14:33Z</time>
      </trkpt>
      <trkpt lat="48.74584" lon="7.33498">
        <ele>367</ele>
        <time>2020-05-22T11:14:35Z</time>
      </trkpt>
      <trkpt lat="48.74583" lon="7.33504">
        <ele>366.6</ele>
        <time>2020-05-22T11:14:37Z</time>
      </trkpt>
      <trkpt lat="48.74581" lon="7.33514">
        <ele>365.8</ele>
        <time>2020-05-22T11:14:39Z</time>
      </trkpt>
      <trkpt lat="48.74575" lon="7.33525">
        <ele>364.6</ele>
        <time>2020-05-22T11:14:41Z</time>
      </trkpt>
      <trkpt lat="48.74571" lon="7.33529">
        <ele>364</ele>
        <time>2020-05-22T11:14:42Z</time>
      </trkpt>
      <trkpt lat="48.74566" lon="7.33536">
        <ele>363</ele>
        <time>2020-05-22T11:14:44Z</time>
      </trkpt>
      <trkpt lat="48.7456" lon="7.33547">
        <ele>361.7</ele>
        <time>2020-05-22T11:14:46Z</time>
      </trkpt>
      <trkpt lat="48.74558" lon="7.33557">
        <ele>360.5</ele>
        <time>2020-05-22T11:14:48Z</time>
      </trkpt>
      <trkpt lat="48.74555" lon="7.33565">
        <ele>359.5</ele>
        <time>2020-05-22T11:14:50Z</time>
      </trkpt>
      <trkpt lat="48.74553" lon="7.33568">
        <ele>358.9</ele>
        <time>2020-05-22T11:14:51Z</time>
      </trkpt>
      <trkpt lat="48.74549" lon="7.33574">
        <ele>357.9</ele>
        <time>2020-05-22T11:14:53Z</time>
      </trkpt>
      <trkpt lat="48.74548" lon="7.33577">
        <ele>357.4</ele>
        <time>2020-05-22T11:14:54Z</time>
      </trkpt>
      <trkpt lat="48.74546" lon="7.3358">
        <ele>356.9</ele>
        <time>2020-05-22T11:14:55Z</time>
      </trkpt>
      <trkpt lat="48.74539" lon="7.33592">
        <ele>354.9</ele>
        <time>2020-05-22T11:14:57Z</time>
      </trkpt>
      <trkpt lat="48.74537" lon="7.33598">
        <ele>354.1</ele>
        <time>2020-05-22T11:14:58Z</time>
      </trkpt>
      <trkpt lat="48.74535" lon="7.33602">
        <ele>353.6</ele>
        <time>2020-05-22T11:14:59Z</time>
      </trkpt>
      <trkpt lat="48.74534" lon="7.33608">
        <ele>353</ele>
        <time>2020-05-22T11:15:01Z</time>
      </trkpt>
      <trkpt lat="48.74531" lon="7.33619">
        <ele>352.1</ele>
        <time>2020-05-22T11:15:03Z</time>
      </trkpt>
      <trkpt lat="48.74529" lon="7.33627">
        <ele>351.7</ele>
        <time>2020-05-22T11:15:04Z</time>
      </trkpt>
      <trkpt lat="48.74527" lon="7.33637">
        <ele>351.2</ele>
        <time>2020-05-22T11:15:05Z</time>
      </trkpt>
      <trkpt lat="48.74525" lon="7.33651">
        <ele>350.6</ele>
        <time>2020-05-22T11:15:07Z</time>
      </trkpt>
      <trkpt lat="48.74524" lon="7.33657">
        <ele>350.3</ele>
        <time>2020-05-22T11:15:08Z</time>
      </trkpt>
      <trkpt lat="48.74521" lon="7.33664">
        <ele>349.8</ele>
        <time>2020-05-22T11:15:10Z</time>
      </trkpt>
      <trkpt lat="48.74519" lon="7.33666">
        <ele>349.7</ele>
        <time>2020-05-22T11:15:11Z</time>
      </trkpt>
      <trkpt lat="48.74518" lon="7.33677">
        <ele>349</ele>
        <time>2020-05-22T11:15:13Z</time>
      </trkpt>
      <trkpt lat="48.74517" lon="7.33684">
        <ele>348.6</ele>
        <time>2020-05-22T11:15:15Z</time>
      </trkpt>
      <trkpt lat="48.74518" lon="7.33686">
        <ele>348.4</ele>
        <time>2020-05-22T11:15:16Z</time>
      </trkpt>
      <trkpt lat="48.74518" lon="7.33688">
        <ele>348.3</ele>
        <time>2020-05-22T11:15:17Z</time>
      </trkpt>
      <trkpt lat="48.74519" lon="7.33691">
        <ele>348.1</ele>
        <time>2020-05-22T11:15:18Z</time>
      </trkpt>
      <trkpt lat="48.74519" lon="7.33693">
        <ele>348</ele>
        <time>2020-05-22T11:15:19Z</time>
      </trkpt>
      <trkpt lat="48.74519" lon="7.33694">
        <ele>347.9</ele>
        <time>2020-05-22T11:15:20Z</time>
      </trkpt>
      <trkpt lat="48.7452" lon="7.33699">
        <ele>347.6</ele>
        <time>2020-05-22T11:15:22Z</time>
      </trkpt>
      <trkpt lat="48.74521" lon="7.337">
        <ele>347.5</ele>
        <time>2020-05-22T11:15:23Z</time>
      </trkpt>
      <trkpt lat="48.7452" lon="7.33703">
        <ele>347.3</ele>
        <time>2020-05-22T11:15:25Z</time>
      </trkpt>
      <trkpt lat="48.74519" lon="7.33705">
        <ele>347.2</ele>
        <time>2020-05-22T11:15:27Z</time>
      </trkpt>
      <trkpt lat="48.74519" lon="7.33708">
        <ele>347</ele>
        <time>2020-05-22T11:15:29Z</time>
      </trkpt>
      <trkpt lat="48.74519" lon="7.33709">
        <ele>346.9</ele>
        <time>2020-05-22T11:15:30Z</time>
      </trkpt>
      <trkpt lat="48.74518" lon="7.33715">
        <ele>346.6</ele>
        <time>2020-05-22T11:15:32Z</time>
      </trkpt>
      <trkpt lat="48.74515" lon="7.33718">
        <ele>346.3</ele>
        <time>2020-05-22T11:15:34Z</time>
      </trkpt>
      <trkpt lat="48.74513" lon="7.3372">
        <ele>346.2</ele>
        <time>2020-05-22T11:15:35Z</time>
      </trkpt>
      <trkpt lat="48.74508" lon="7.33727">
        <ele>345.8</ele>
        <time>2020-05-22T11:15:37Z</time>
      </trkpt>
      <trkpt lat="48.74503" lon="7.33733">
        <ele>345.6</ele>
        <time>2020-05-22T11:15:39Z</time>
      </trkpt>
      <trkpt lat="48.74502" lon="7.33735">
        <ele>345.6</ele>
        <time>2020-05-22T11:15:40Z</time>
      </trkpt>
      <trkpt lat="48.74502" lon="7.33737">
        <ele>345.6</ele>
        <time>2020-05-22T11:15:41Z</time>
      </trkpt>
      <trkpt lat="48.74501" lon="7.33739">
        <ele>345.6</ele>
        <time>2020-05-22T11:15:43Z</time>
      </trkpt>
      <trkpt lat="48.745" lon="7.33741">
        <ele>345.6</ele>
        <time>2020-05-22T11:15:44Z</time>
      </trkpt>
      <trkpt lat="48.745" lon="7.33743">
        <ele>345.6</ele>
        <time>2020-05-22T11:15:45Z</time>
      </trkpt>
      <trkpt lat="48.74498" lon="7.33745">
        <ele>345.6</ele>
        <time>2020-05-22T11:15:47Z</time>
      </trkpt>
      <trkpt lat="48.74497" lon="7.33747">
        <ele>345.6</ele>
        <time>2020-05-22T11:15:49Z</time>
      </trkpt>
      <trkpt lat="48.74496" lon="7.33749">
        <ele>345.6</ele>
        <time>2020-05-22T11:15:50Z</time>
      </trkpt>
      <trkpt lat="48.74496" lon="7.33751">
        <ele>345.6</ele>
        <time>2020-05-22T11:15:52Z</time>
      </trkpt>
      <trkpt lat="48.74496" lon="7.33752">
        <ele>345.6</ele>
        <time>2020-05-22T11:15:53Z</time>
      </trkpt>
      <trkpt lat="48.74496" lon="7.33755">
        <ele>345.5</ele>
        <time>2020-05-22T11:15:55Z</time>
      </trkpt>
      <trkpt lat="48.74497" lon="7.33756">
        <ele>345.5</ele>
        <time>2020-05-22T11:15:56Z</time>
      </trkpt>
      <trkpt lat="48.74497" lon="7.33758">
        <ele>345.5</ele>
        <time>2020-05-22T11:15:58Z</time>
      </trkpt>
      <trkpt lat="48.74497" lon="7.33758">
        <ele>345.5</ele>
        <time>2020-05-22T11:15:59Z</time>
      </trkpt>
      <trkpt lat="48.74496" lon="7.33759">
        <ele>345.5</ele>
        <time>2020-05-22T11:16:00Z</time>
      </trkpt>
      <trkpt lat="48.74495" lon="7.3376">
        <ele>345.5</ele>
        <time>2020-05-22T11:16:01Z</time>
      </trkpt>
      <trkpt lat="48.74494" lon="7.33765">
        <ele>345.4</ele>
        <time>2020-05-22T11:16:03Z</time>
      </trkpt>
      <trkpt lat="48.74492" lon="7.33768">
        <ele>345.4</ele>
        <time>2020-05-22T11:16:04Z</time>
      </trkpt>
      <trkpt lat="48.74487" lon="7.33774">
        <ele>345.2</ele>
        <time>2020-05-22T11:16:06Z</time>
      </trkpt>
      <trkpt lat="48.74485" lon="7.33778">
        <ele>345.2</ele>
        <time>2020-05-22T11:16:07Z</time>
      </trkpt>
      <trkpt lat="48.74485" lon="7.33779">
        <ele>345.1</ele>
        <time>2020-05-22T11:16:08Z</time>
      </trkpt>
      <trkpt lat="48.74483" lon="7.33782">
        <ele>345.1</ele>
        <time>2020-05-22T11:16:09Z</time>
      </trkpt>
      <trkpt lat="48.74482" lon="7.33785">
        <ele>345</ele>
        <time>2020-05-22T11:16:11Z</time>
      </trkpt>
      <trkpt lat="48.74482" lon="7.33786">
        <ele>345</ele>
        <time>2020-05-22T11:16:12Z</time>
      </trkpt>
      <trkpt lat="48.74482" lon="7.33787">
        <ele>345</ele>
        <time>2020-05-22T11:16:13Z</time>
      </trkpt>
      <trkpt lat="48.74482" lon="7.33788">
        <ele>345</ele>
        <time>2020-05-22T11:16:14Z</time>
      </trkpt>
      <trkpt lat="48.74481" lon="7.33791">
        <ele>345</ele>
        <time>2020-05-22T11:16:16Z</time>
      </trkpt>
      <trkpt lat="48.7448" lon="7.33794">
        <ele>344.9</ele>
        <time>2020-05-22T11:16:18Z</time>
      </trkpt>
      <trkpt lat="48.74479" lon="7.33795">
        <ele>344.9</ele>
        <time>2020-05-22T11:16:19Z</time>
      </trkpt>
      <trkpt lat="48.74478" lon="7.33799">
        <ele>344.9</ele>
        <time>2020-05-22T11:16:21Z</time>
      </trkpt>
      <trkpt lat="48.74478" lon="7.33801">
        <ele>344.8</ele>
        <time>2020-05-22T11:16:22Z</time>
      </trkpt>
      <trkpt lat="48.74478" lon="7.33802">
        <ele>344.8</ele>
        <time>2020-05-22T11:16:24Z</time>
      </trkpt>
      <trkpt lat="48.74478" lon="7.33803">
        <ele>344.7</ele>
        <time>2020-05-22T11:16:25Z</time>
      </trkpt>
      <trkpt lat="48.74476" lon="7.33807">
        <ele>344.6</ele>
        <time>2020-05-22T11:16:27Z</time>
      </trkpt>
      <trkpt lat="48.74474" lon="7.33809">
        <ele>344.4</ele>
        <time>2020-05-22T11:16:28Z</time>
      </trkpt>
      <trkpt lat="48.7447" lon="7.33815">
        <ele>344.2</ele>
        <time>2020-05-22T11:16:30Z</time>
      </trkpt>
      <trkpt lat="48.74469" lon="7.33818">
        <ele>344</ele>
        <time>2020-05-22T11:16:31Z</time>
      </trkpt>
      <trkpt lat="48.74464" lon="7.33824">
        <ele>343.7</ele>
        <time>2020-05-22T11:16:33Z</time>
      </trkpt>
      <trkpt lat="48.74461" lon="7.33825">
        <ele>343.5</ele>
        <time>2020-05-22T11:16:34Z</time>
      </trkpt>
      <trkpt lat="48.74456" lon="7.33831">
        <ele>343</ele>
        <time>2020-05-22T11:16:36Z</time>
      </trkpt>
      <trkpt lat="48.74454" lon="7.33835">
        <ele>342.7</ele>
        <time>2020-05-22T11:16:37Z</time>
      </trkpt>
      <trkpt lat="48.74452" lon="7.33841">
        <ele>342.1</ele>
        <time>2020-05-22T11:16:39Z</time>
      </trkpt>
      <trkpt lat="48.7445" lon="7.33846">
        <ele>341.7</ele>
        <time>2020-05-22T11:16:40Z</time>
      </trkpt>
      <trkpt lat="48.7445" lon="7.33847">
        <ele>341.6</ele>
        <time>2020-05-22T11:16:41Z</time>
      </trkpt>
      <trkpt lat="48.74448" lon="7.33861">
        <ele>340.4</ele>
        <time>2020-05-22T11:16:43Z</time>
      </trkpt>
      <trkpt lat="48.7444" lon="7.33883">
        <ele>338.4</ele>
        <time>2020-05-22T11:16:45Z</time>
      </trkpt>
      <trkpt lat="48.74436" lon="7.33891">
        <ele>337.5</ele>
        <time>2020-05-22T11:16:46Z</time>
      </trkpt>
      <trkpt lat="48.74429" lon="7.33902">
        <ele>336.4</ele>
        <time>2020-05-22T11:16:48Z</time>
      </trkpt>
      <trkpt lat="48.7443" lon="7.33907">
        <ele>336</ele>
        <time>2020-05-22T11:16:49Z</time>
      </trkpt>
      <trkpt lat="48.74429" lon="7.33915">
        <ele>335.5</ele>
        <time>2020-05-22T11:16:50Z</time>
      </trkpt>
      <trkpt lat="48.74426" lon="7.33935">
        <ele>334.6</ele>
        <time>2020-05-22T11:16:52Z</time>
      </trkpt>
      <trkpt lat="48.74424" lon="7.3396">
        <ele>333.6</ele>
        <time>2020-05-22T11:16:54Z</time>
      </trkpt>
      <trkpt lat="48.74423" lon="7.33987">
        <ele>332.5</ele>
        <time>2020-05-22T11:16:56Z</time>
      </trkpt>
      <trkpt lat="48.74422" lon="7.34016">
        <ele>331.6</ele>
        <time>2020-05-22T11:16:58Z</time>
      </trkpt>
      <trkpt lat="48.74419" lon="7.3403">
        <ele>331.1</ele>
        <time>2020-05-22T11:16:59Z</time>
      </trkpt>
      <trkpt lat="48.74414" lon="7.34057">
        <ele>329.9</ele>
        <time>2020-05-22T11:17:01Z</time>
      </trkpt>
      <trkpt lat="48.74409" lon="7.34076">
        <ele>328.8</ele>
        <time>2020-05-22T11:17:03Z</time>
      </trkpt>
      <trkpt lat="48.74407" lon="7.34078">
        <ele>328.7</ele>
        <time>2020-05-22T11:17:05Z</time>
      </trkpt>
      <trkpt lat="48.74407" lon="7.34077">
        <ele>328.7</ele>
        <time>2020-05-22T11:17:06Z</time>
      </trkpt>
      <trkpt lat="48.74407" lon="7.34079">
        <ele>328.6</ele>
        <time>2020-05-22T11:17:07Z</time>
      </trkpt>
      <trkpt lat="48.74407" lon="7.3408">
        <ele>328.5</ele>
        <time>2020-05-22T11:17:08Z</time>
      </trkpt>
      <trkpt lat="48.74407" lon="7.34082">
        <ele>328.5</ele>
        <time>2020-05-22T11:17:10Z</time>
      </trkpt>
    </trkseg>
  </trk>
  <trk>
    <name><![CDATA[secteur Saverne - Dabo - Petite Pierre_34]]></name>
    <trkseg>
      <trkpt lat="48.76039" lon="7.34783">
        <ele>225.4</ele>
        <time>2020-05-22T10:38:06Z</time>
      </trkpt>
      <trkpt lat="48.76039" lon="7.34783">
        <ele>225.4</ele>
        <time>2020-05-22T10:38:06Z</time>
      </trkpt>
      <trkpt lat="48.76039" lon="7.34783">
        <ele>225.4</ele>
        <time>2020-05-22T10:38:06Z</time>
      </trkpt>
      <trkpt lat="48.76039" lon="7.34783">
        <ele>225.4</ele>
        <time>2020-05-22T10:38:06Z</time>
      </trkpt>
      <trkpt lat="48.76039" lon="7.34783">
        <ele>225.4</ele>
        <time>2020-05-22T10:38:06Z</time>
      </trkpt>
      <trkpt lat="48.76039" lon="7.34783">
        <ele>225.4</ele>
        <time>2020-05-22T10:38:06Z</time>
      </trkpt>
      <trkpt lat="48.76044" lon="7.34776">
        <ele>226</ele>
        <time>2020-05-22T10:38:08Z</time>
      </trkpt>
      <trkpt lat="48.76045" lon="7.34773">
        <ele>226.3</ele>
        <time>2020-05-22T10:38:09Z</time>
      </trkpt>
      <trkpt lat="48.76047" lon="7.34768">
        <ele>226.7</ele>
        <time>2020-05-22T10:38:11Z</time>
      </trkpt>
      <trkpt lat="48.76048" lon="7.34764">
        <ele>227.8</ele>
        <time>2020-05-22T10:38:12Z</time>
      </trkpt>
      <trkpt lat="48.76049" lon="7.34761">
        <ele>228</ele>
        <time>2020-05-22T10:38:13Z</time>
      </trkpt>
      <trkpt lat="48.76048" lon="7.34755">
        <ele>228.3</ele>
        <time>2020-05-22T10:38:15Z</time>
      </trkpt>
      <trkpt lat="48.76048" lon="7.3475">
        <ele>228.6</ele>
        <time>2020-05-22T10:38:16Z</time>
      </trkpt>
      <trkpt lat="48.76049" lon="7.34743">
        <ele>229.1</ele>
        <time>2020-05-22T10:38:18Z</time>
      </trkpt>
      <trkpt lat="48.7605" lon="7.34741">
        <ele>229.3</ele>
        <time>2020-05-22T10:38:19Z</time>
      </trkpt>
      <trkpt lat="48.76052" lon="7.34735">
        <ele>229.8</ele>
        <time>2020-05-22T10:38:21Z</time>
      </trkpt>
      <trkpt lat="48.76054" lon="7.3473">
        <ele>230.4</ele>
        <time>2020-05-22T10:38:23Z</time>
      </trkpt>
      <trkpt lat="48.76055" lon="7.34725">
        <ele>230.8</ele>
        <time>2020-05-22T10:38:25Z</time>
      </trkpt>
      <trkpt lat="48.76056" lon="7.34722">
        <ele>231.1</ele>
        <time>2020-05-22T10:38:26Z</time>
      </trkpt>
      <trkpt lat="48.76057" lon="7.34721">
        <ele>231.3</ele>
        <time>2020-05-22T10:38:27Z</time>
      </trkpt>
      <trkpt lat="48.76058" lon="7.34717">
        <ele>231.7</ele>
        <time>2020-05-22T10:38:28Z</time>
      </trkpt>
      <trkpt lat="48.76058" lon="7.34715">
        <ele>231.8</ele>
        <time>2020-05-22T10:38:29Z</time>
      </trkpt>
      <trkpt lat="48.7606" lon="7.3471">
        <ele>232.4</ele>
        <time>2020-05-22T10:38:31Z</time>
      </trkpt>
      <trkpt lat="48.76061" lon="7.34708">
        <ele>232.5</ele>
        <time>2020-05-22T10:38:32Z</time>
      </trkpt>
      <trkpt lat="48.76062" lon="7.34703">
        <ele>232.9</ele>
        <time>2020-05-22T10:38:34Z</time>
      </trkpt>
      <trkpt lat="48.76064" lon="7.347">
        <ele>233.3</ele>
        <time>2020-05-22T10:38:35Z</time>
      </trkpt>
      <trkpt lat="48.76064" lon="7.34699">
        <ele>233.4</ele>
        <time>2020-05-22T10:38:36Z</time>
      </trkpt>
      <trkpt lat="48.76066" lon="7.34693">
        <ele>233.8</ele>
        <time>2020-05-22T10:38:38Z</time>
      </trkpt>
      <trkpt lat="48.76067" lon="7.3469">
        <ele>233.9</ele>
        <time>2020-05-22T10:38:40Z</time>
      </trkpt>
      <trkpt lat="48.76067" lon="7.34688">
        <ele>234.1</ele>
        <time>2020-05-22T10:38:41Z</time>
      </trkpt>
      <trkpt lat="48.76067" lon="7.34686">
        <ele>234.2</ele>
        <time>2020-05-22T10:38:42Z</time>
      </trkpt>
      <trkpt lat="48.76069" lon="7.34681">
        <ele>234.5</ele>
        <time>2020-05-22T10:38:44Z</time>
      </trkpt>
      <trkpt lat="48.7607" lon="7.34679">
        <ele>234.7</ele>
        <time>2020-05-22T10:38:45Z</time>
      </trkpt>
      <trkpt lat="48.7607" lon="7.34677">
        <ele>234.8</ele>
        <time>2020-05-22T10:38:46Z</time>
      </trkpt>
      <trkpt lat="48.76071" lon="7.34672">
        <ele>235.1</ele>
        <time>2020-05-22T10:38:47Z</time>
      </trkpt>
      <trkpt lat="48.76071" lon="7.34671">
        <ele>235.2</ele>
        <time>2020-05-22T10:38:48Z</time>
      </trkpt>
      <trkpt lat="48.76071" lon="7.34666">
        <ele>235.5</ele>
        <time>2020-05-22T10:38:50Z</time>
      </trkpt>
      <trkpt lat="48.76072" lon="7.34664">
        <ele>235.7</ele>
        <time>2020-05-22T10:38:51Z</time>
      </trkpt>
      <trkpt lat="48.76073" lon="7.34661">
        <ele>235.9</ele>
        <time>2020-05-22T10:38:52Z</time>
      </trkpt>
      <trkpt lat="48.76074" lon="7.34659">
        <ele>236.1</ele>
        <time>2020-05-22T10:38:53Z</time>
      </trkpt>
      <trkpt lat="48.76075" lon="7.34652">
        <ele>236.5</ele>
        <time>2020-05-22T10:38:55Z</time>
      </trkpt>
      <trkpt lat="48.76075" lon="7.34646">
        <ele>236.9</ele>
        <time>2020-05-22T10:38:57Z</time>
      </trkpt>
      <trkpt lat="48.76076" lon="7.34645">
        <ele>237</ele>
        <time>2020-05-22T10:38:58Z</time>
      </trkpt>
      <trkpt lat="48.76077" lon="7.34643">
        <ele>237.2</ele>
        <time>2020-05-22T10:39:00Z</time>
      </trkpt>
      <trkpt lat="48.76077" lon="7.34643">
        <ele>237.2</ele>
        <time>2020-05-22T10:39:01Z</time>
      </trkpt>
      <trkpt lat="48.76077" lon="7.3464">
        <ele>237.4</ele>
        <time>2020-05-22T10:39:03Z</time>
      </trkpt>
      <trkpt lat="48.76075" lon="7.34635">
        <ele>237.8</ele>
        <time>2020-05-22T10:39:05Z</time>
      </trkpt>
      <trkpt lat="48.76076" lon="7.34631">
        <ele>238.1</ele>
        <time>2020-05-22T10:39:07Z</time>
      </trkpt>
      <trkpt lat="48.76079" lon="7.34626">
        <ele>238.6</ele>
        <time>2020-05-22T10:39:09Z</time>
      </trkpt>
      <trkpt lat="48.76081" lon="7.34622">
        <ele>239</ele>
        <time>2020-05-22T10:39:11Z</time>
      </trkpt>
      <trkpt lat="48.76081" lon="7.3462">
        <ele>239.1</ele>
        <time>2020-05-22T10:39:12Z</time>
      </trkpt>
      <trkpt lat="48.76082" lon="7.34619">
        <ele>239.2</ele>
        <time>2020-05-22T10:39:13Z</time>
      </trkpt>
      <trkpt lat="48.76082" lon="7.34616">
        <ele>239.5</ele>
        <time>2020-05-22T10:39:15Z</time>
      </trkpt>
      <trkpt lat="48.76083" lon="7.34613">
        <ele>239.7</ele>
        <time>2020-05-22T10:39:16Z</time>
      </trkpt>
      <trkpt lat="48.76085" lon="7.34609">
        <ele>240.1</ele>
        <time>2020-05-22T10:39:18Z</time>
      </trkpt>
      <trkpt lat="48.76087" lon="7.34607">
        <ele>240.4</ele>
        <time>2020-05-22T10:39:20Z</time>
      </trkpt>
      <trkpt lat="48.76092" lon="7.34606">
        <ele>240.9</ele>
        <time>2020-05-22T10:39:22Z</time>
      </trkpt>
      <trkpt lat="48.76095" lon="7.34605">
        <ele>241.2</ele>
        <time>2020-05-22T10:39:23Z</time>
      </trkpt>
      <trkpt lat="48.76096" lon="7.34604">
        <ele>241.3</ele>
        <time>2020-05-22T10:39:24Z</time>
      </trkpt>
      <trkpt lat="48.76096" lon="7.34602">
        <ele>241.4</ele>
        <time>2020-05-22T10:39:25Z</time>
      </trkpt>
      <trkpt lat="48.76097" lon="7.34597">
        <ele>241.7</ele>
        <time>2020-05-22T10:39:27Z</time>
      </trkpt>
      <trkpt lat="48.76098" lon="7.34596">
        <ele>241.8</ele>
        <time>2020-05-22T10:39:28Z</time>
      </trkpt>
      <trkpt lat="48.76099" lon="7.34591">
        <ele>242.1</ele>
        <time>2020-05-22T10:39:30Z</time>
      </trkpt>
      <trkpt lat="48.76099" lon="7.34585">
        <ele>242.4</ele>
        <time>2020-05-22T10:39:32Z</time>
      </trkpt>
      <trkpt lat="48.761" lon="7.34582">
        <ele>242.6</ele>
        <time>2020-05-22T10:39:33Z</time>
      </trkpt>
      <trkpt lat="48.76102" lon="7.34578">
        <ele>242.9</ele>
        <time>2020-05-22T10:39:35Z</time>
      </trkpt>
      <trkpt lat="48.76105" lon="7.34574">
        <ele>243.2</ele>
        <time>2020-05-22T10:39:37Z</time>
      </trkpt>
      <trkpt lat="48.76107" lon="7.34569">
        <ele>243.5</ele>
        <time>2020-05-22T10:39:39Z</time>
      </trkpt>
      <trkpt lat="48.76109" lon="7.34564">
        <ele>243.8</ele>
        <time>2020-05-22T10:39:40Z</time>
      </trkpt>
      <trkpt lat="48.76109" lon="7.34563">
        <ele>243.9</ele>
        <time>2020-05-22T10:39:41Z</time>
      </trkpt>
      <trkpt lat="48.76113" lon="7.34557">
        <ele>244.3</ele>
        <time>2020-05-22T10:39:43Z</time>
      </trkpt>
      <trkpt lat="48.76115" lon="7.34552">
        <ele>244.7</ele>
        <time>2020-05-22T10:39:45Z</time>
      </trkpt>
      <trkpt lat="48.76116" lon="7.34548">
        <ele>245</ele>
        <time>2020-05-22T10:39:47Z</time>
      </trkpt>
      <trkpt lat="48.76116" lon="7.34544">
        <ele>245.2</ele>
        <time>2020-05-22T10:39:49Z</time>
      </trkpt>
      <trkpt lat="48.76116" lon="7.34543">
        <ele>245.3</ele>
        <time>2020-05-22T10:39:50Z</time>
      </trkpt>
      <trkpt lat="48.76117" lon="7.3454">
        <ele>245.5</ele>
        <time>2020-05-22T10:39:52Z</time>
      </trkpt>
      <trkpt lat="48.7612" lon="7.34534">
        <ele>246.1</ele>
        <time>2020-05-22T10:39:54Z</time>
      </trkpt>
      <trkpt lat="48.76121" lon="7.34531">
        <ele>246.3</ele>
        <time>2020-05-22T10:39:55Z</time>
      </trkpt>
      <trkpt lat="48.7612" lon="7.34527">
        <ele>246.5</ele>
        <time>2020-05-22T10:39:57Z</time>
      </trkpt>
      <trkpt lat="48.7612" lon="7.34525">
        <ele>246.6</ele>
        <time>2020-05-22T10:39:58Z</time>
      </trkpt>
      <trkpt lat="48.76122" lon="7.34521">
        <ele>246.9</ele>
        <time>2020-05-22T10:40:00Z</time>
      </trkpt>
      <trkpt lat="48.76122" lon="7.34519">
        <ele>247.1</ele>
        <time>2020-05-22T10:40:01Z</time>
      </trkpt>
      <trkpt lat="48.76125" lon="7.34516">
        <ele>247.4</ele>
        <time>2020-05-22T10:40:03Z</time>
      </trkpt>
      <trkpt lat="48.76127" lon="7.34513">
        <ele>247.7</ele>
        <time>2020-05-22T10:40:05Z</time>
      </trkpt>
      <trkpt lat="48.76129" lon="7.34509">
        <ele>248</ele>
        <time>2020-05-22T10:40:07Z</time>
      </trkpt>
      <trkpt lat="48.76131" lon="7.34505">
        <ele>248.4</ele>
        <time>2020-05-22T10:40:09Z</time>
      </trkpt>
      <trkpt lat="48.76132" lon="7.34503">
        <ele>248.5</ele>
        <time>2020-05-22T10:40:10Z</time>
      </trkpt>
      <trkpt lat="48.76133" lon="7.34501">
        <ele>248.7</ele>
        <time>2020-05-22T10:40:11Z</time>
      </trkpt>
      <trkpt lat="48.76134" lon="7.345">
        <ele>248.8</ele>
        <time>2020-05-22T10:40:12Z</time>
      </trkpt>
      <trkpt lat="48.76134" lon="7.34498">
        <ele>248.9</ele>
        <time>2020-05-22T10:40:14Z</time>
      </trkpt>
      <trkpt lat="48.76135" lon="7.34497">
        <ele>249</ele>
        <time>2020-05-22T10:40:15Z</time>
      </trkpt>
      <trkpt lat="48.76136" lon="7.34496">
        <ele>249.2</ele>
        <time>2020-05-22T10:40:16Z</time>
      </trkpt>
      <trkpt lat="48.76139" lon="7.34491">
        <ele>249.6</ele>
        <time>2020-05-22T10:40:18Z</time>
      </trkpt>
      <trkpt lat="48.7614" lon="7.34484">
        <ele>250.1</ele>
        <time>2020-05-22T10:40:20Z</time>
      </trkpt>
      <trkpt lat="48.76141" lon="7.34481">
        <ele>250.3</ele>
        <time>2020-05-22T10:40:21Z</time>
      </trkpt>
      <trkpt lat="48.76145" lon="7.34477">
        <ele>250.6</ele>
        <time>2020-05-22T10:40:23Z</time>
      </trkpt>
      <trkpt lat="48.76146" lon="7.34476">
        <ele>250.8</ele>
        <time>2020-05-22T10:40:24Z</time>
      </trkpt>
      <trkpt lat="48.7615" lon="7.34471">
        <ele>251.3</ele>
        <time>2020-05-22T10:40:26Z</time>
      </trkpt>
      <trkpt lat="48.76151" lon="7.34468">
        <ele>251.5</ele>
        <time>2020-05-22T10:40:27Z</time>
      </trkpt>
      <trkpt lat="48.76152" lon="7.34467">
        <ele>251.6</ele>
        <time>2020-05-22T10:40:28Z</time>
      </trkpt>
      <trkpt lat="48.76153" lon="7.34466">
        <ele>251.7</ele>
        <time>2020-05-22T10:40:29Z</time>
      </trkpt>
      <trkpt lat="48.76155" lon="7.34463">
        <ele>251.9</ele>
        <time>2020-05-22T10:40:31Z</time>
      </trkpt>
      <trkpt lat="48.76157" lon="7.34458">
        <ele>252.2</ele>
        <time>2020-05-22T10:40:33Z</time>
      </trkpt>
      <trkpt lat="48.76157" lon="7.34457">
        <ele>252.3</ele>
        <time>2020-05-22T10:40:34Z</time>
      </trkpt>
      <trkpt lat="48.76157" lon="7.34453">
        <ele>252.5</ele>
        <time>2020-05-22T10:40:36Z</time>
      </trkpt>
      <trkpt lat="48.76157" lon="7.34449">
        <ele>252.8</ele>
        <time>2020-05-22T10:40:38Z</time>
      </trkpt>
      <trkpt lat="48.76156" lon="7.34446">
        <ele>252.9</ele>
        <time>2020-05-22T10:40:39Z</time>
      </trkpt>
      <trkpt lat="48.76157" lon="7.34441">
        <ele>253.2</ele>
        <time>2020-05-22T10:40:41Z</time>
      </trkpt>
      <trkpt lat="48.76157" lon="7.34433">
        <ele>253.6</ele>
        <time>2020-05-22T10:40:43Z</time>
      </trkpt>
      <trkpt lat="48.76158" lon="7.34431">
        <ele>253.8</ele>
        <time>2020-05-22T10:40:45Z</time>
      </trkpt>
      <trkpt lat="48.76158" lon="7.34428">
        <ele>253.9</ele>
        <time>2020-05-22T10:40:46Z</time>
      </trkpt>
      <trkpt lat="48.76158" lon="7.34426">
        <ele>254.1</ele>
        <time>2020-05-22T10:40:47Z</time>
      </trkpt>
      <trkpt lat="48.7616" lon="7.34421">
        <ele>254.4</ele>
        <time>2020-05-22T10:40:48Z</time>
      </trkpt>
      <trkpt lat="48.7616" lon="7.3442">
        <ele>254.4</ele>
        <time>2020-05-22T10:40:49Z</time>
      </trkpt>
      <trkpt lat="48.7616" lon="7.34416">
        <ele>254.7</ele>
        <time>2020-05-22T10:40:51Z</time>
      </trkpt>
      <trkpt lat="48.7616" lon="7.34412">
        <ele>254.9</ele>
        <time>2020-05-22T10:40:53Z</time>
      </trkpt>
      <trkpt lat="48.7616" lon="7.34407">
        <ele>255.2</ele>
        <time>2020-05-22T10:40:55Z</time>
      </trkpt>
      <trkpt lat="48.76161" lon="7.34402">
        <ele>255.5</ele>
        <time>2020-05-22T10:40:57Z</time>
      </trkpt>
      <trkpt lat="48.76163" lon="7.34396">
        <ele>255.8</ele>
        <time>2020-05-22T10:40:59Z</time>
      </trkpt>
      <trkpt lat="48.76164" lon="7.34393">
        <ele>256.1</ele>
        <time>2020-05-22T10:41:01Z</time>
      </trkpt>
      <trkpt lat="48.76165" lon="7.34391">
        <ele>256.3</ele>
        <time>2020-05-22T10:41:02Z</time>
      </trkpt>
      <trkpt lat="48.76168" lon="7.34386">
        <ele>256.6</ele>
        <time>2020-05-22T10:41:04Z</time>
      </trkpt>
      <trkpt lat="48.76169" lon="7.34383">
        <ele>256.8</ele>
        <time>2020-05-22T10:41:05Z</time>
      </trkpt>
      <trkpt lat="48.76168" lon="7.34381">
        <ele>256.9</ele>
        <time>2020-05-22T10:41:06Z</time>
      </trkpt>
      <trkpt lat="48.76167" lon="7.34378">
        <ele>257.1</ele>
        <time>2020-05-22T10:41:07Z</time>
      </trkpt>
      <trkpt lat="48.76167" lon="7.34374">
        <ele>257.4</ele>
        <time>2020-05-22T10:41:09Z</time>
      </trkpt>
      <trkpt lat="48.76167" lon="7.34372">
        <ele>257.5</ele>
        <time>2020-05-22T10:41:10Z</time>
      </trkpt>
      <trkpt lat="48.76167" lon="7.34369">
        <ele>257.7</ele>
        <time>2020-05-22T10:41:11Z</time>
      </trkpt>
      <trkpt lat="48.76167" lon="7.34363">
        <ele>258</ele>
        <time>2020-05-22T10:41:13Z</time>
      </trkpt>
      <trkpt lat="48.76169" lon="7.34358">
        <ele>258.4</ele>
        <time>2020-05-22T10:41:15Z</time>
      </trkpt>
      <trkpt lat="48.76169" lon="7.34356">
        <ele>258.6</ele>
        <time>2020-05-22T10:41:16Z</time>
      </trkpt>
      <trkpt lat="48.76168" lon="7.34353">
        <ele>258.8</ele>
        <time>2020-05-22T10:41:18Z</time>
      </trkpt>
      <trkpt lat="48.76168" lon="7.34351">
        <ele>258.9</ele>
        <time>2020-05-22T10:41:19Z</time>
      </trkpt>
      <trkpt lat="48.76167" lon="7.34349">
        <ele>259.1</ele>
        <time>2020-05-22T10:41:20Z</time>
      </trkpt>
      <trkpt lat="48.76166" lon="7.34344">
        <ele>259.4</ele>
        <time>2020-05-22T10:41:22Z</time>
      </trkpt>
      <trkpt lat="48.76166" lon="7.34343">
        <ele>259.5</ele>
        <time>2020-05-22T10:41:23Z</time>
      </trkpt>
      <trkpt lat="48.76165" lon="7.34338">
        <ele>259.8</ele>
        <time>2020-05-22T10:41:25Z</time>
      </trkpt>
      <trkpt lat="48.76165" lon="7.34336">
        <ele>260</ele>
        <time>2020-05-22T10:41:26Z</time>
      </trkpt>
      <trkpt lat="48.76165" lon="7.34333">
        <ele>260.2</ele>
        <time>2020-05-22T10:41:27Z</time>
      </trkpt>
      <trkpt lat="48.76165" lon="7.34331">
        <ele>260.3</ele>
        <time>2020-05-22T10:41:28Z</time>
      </trkpt>
      <trkpt lat="48.76165" lon="7.34325">
        <ele>260.9</ele>
        <time>2020-05-22T10:41:30Z</time>
      </trkpt>
      <trkpt lat="48.76165" lon="7.34322">
        <ele>261.2</ele>
        <time>2020-05-22T10:41:31Z</time>
      </trkpt>
      <trkpt lat="48.76165" lon="7.34317">
        <ele>261.8</ele>
        <time>2020-05-22T10:41:33Z</time>
      </trkpt>
      <trkpt lat="48.76164" lon="7.34315">
        <ele>262.1</ele>
        <time>2020-05-22T10:41:34Z</time>
      </trkpt>
      <trkpt lat="48.76163" lon="7.34309">
        <ele>262.6</ele>
        <time>2020-05-22T10:41:36Z</time>
      </trkpt>
      <trkpt lat="48.76162" lon="7.34307">
        <ele>262.9</ele>
        <time>2020-05-22T10:41:37Z</time>
      </trkpt>
      <trkpt lat="48.76163" lon="7.34305">
        <ele>263.1</ele>
        <time>2020-05-22T10:41:38Z</time>
      </trkpt>
      <trkpt lat="48.76164" lon="7.343">
        <ele>263.7</ele>
        <time>2020-05-22T10:41:39Z</time>
      </trkpt>
      <trkpt lat="48.76165" lon="7.34299">
        <ele>263.8</ele>
        <time>2020-05-22T10:41:40Z</time>
      </trkpt>
      <trkpt lat="48.76164" lon="7.34294">
        <ele>264.4</ele>
        <time>2020-05-22T10:41:42Z</time>
      </trkpt>
      <trkpt lat="48.76162" lon="7.34289">
        <ele>265.1</ele>
        <time>2020-05-22T10:41:44Z</time>
      </trkpt>
      <trkpt lat="48.76161" lon="7.34285">
        <ele>265.4</ele>
        <time>2020-05-22T10:41:45Z</time>
      </trkpt>
      <trkpt lat="48.76161" lon="7.34284">
        <ele>265.6</ele>
        <time>2020-05-22T10:41:46Z</time>
      </trkpt>
      <trkpt lat="48.7616" lon="7.34283">
        <ele>265.7</ele>
        <time>2020-05-22T10:41:47Z</time>
      </trkpt>
      <trkpt lat="48.76159" lon="7.34279">
        <ele>266.1</ele>
        <time>2020-05-22T10:41:49Z</time>
      </trkpt>
      <trkpt lat="48.76159" lon="7.34277">
        <ele>266.3</ele>
        <time>2020-05-22T10:41:50Z</time>
      </trkpt>
      <trkpt lat="48.76158" lon="7.3427">
        <ele>266.9</ele>
        <time>2020-05-22T10:41:52Z</time>
      </trkpt>
      <trkpt lat="48.76159" lon="7.34267">
        <ele>267.3</ele>
        <time>2020-05-22T10:41:53Z</time>
      </trkpt>
      <trkpt lat="48.7616" lon="7.34262">
        <ele>267.7</ele>
        <time>2020-05-22T10:41:55Z</time>
      </trkpt>
      <trkpt lat="48.76159" lon="7.34257">
        <ele>268.1</ele>
        <time>2020-05-22T10:41:56Z</time>
      </trkpt>
      <trkpt lat="48.76159" lon="7.34256">
        <ele>268.3</ele>
        <time>2020-05-22T10:41:57Z</time>
      </trkpt>
      <trkpt lat="48.76158" lon="7.34251">
        <ele>268.8</ele>
        <time>2020-05-22T10:41:58Z</time>
      </trkpt>
      <trkpt lat="48.76157" lon="7.34249">
        <ele>269</ele>
        <time>2020-05-22T10:41:59Z</time>
      </trkpt>
      <trkpt lat="48.76157" lon="7.34244">
        <ele>269.5</ele>
        <time>2020-05-22T10:42:01Z</time>
      </trkpt>
      <trkpt lat="48.76157" lon="7.34242">
        <ele>269.7</ele>
        <time>2020-05-22T10:42:02Z</time>
      </trkpt>
      <trkpt lat="48.76156" lon="7.34238">
        <ele>270.1</ele>
        <time>2020-05-22T10:42:03Z</time>
      </trkpt>
      <trkpt lat="48.76155" lon="7.34232">
        <ele>270.7</ele>
        <time>2020-05-22T10:42:05Z</time>
      </trkpt>
      <trkpt lat="48.76156" lon="7.34228">
        <ele>271.2</ele>
        <time>2020-05-22T10:42:07Z</time>
      </trkpt>
      <trkpt lat="48.76156" lon="7.34226">
        <ele>271.4</ele>
        <time>2020-05-22T10:42:08Z</time>
      </trkpt>
      <trkpt lat="48.76156" lon="7.34225">
        <ele>271.5</ele>
        <time>2020-05-22T10:42:09Z</time>
      </trkpt>
      <trkpt lat="48.76156" lon="7.34221">
        <ele>272</ele>
        <time>2020-05-22T10:42:11Z</time>
      </trkpt>
      <trkpt lat="48.76154" lon="7.34215">
        <ele>272.7</ele>
        <time>2020-05-22T10:42:13Z</time>
      </trkpt>
      <trkpt lat="48.76153" lon="7.3421">
        <ele>273.2</ele>
        <time>2020-05-22T10:42:14Z</time>
      </trkpt>
      <trkpt lat="48.76153" lon="7.34209">
        <ele>273.3</ele>
        <time>2020-05-22T10:42:15Z</time>
      </trkpt>
      <trkpt lat="48.76153" lon="7.34206">
        <ele>273.6</ele>
        <time>2020-05-22T10:42:16Z</time>
      </trkpt>
      <trkpt lat="48.76152" lon="7.342">
        <ele>274.2</ele>
        <time>2020-05-22T10:42:18Z</time>
      </trkpt>
      <trkpt lat="48.76151" lon="7.34196">
        <ele>274.6</ele>
        <time>2020-05-22T10:42:20Z</time>
      </trkpt>
      <trkpt lat="48.76151" lon="7.3419">
        <ele>275.2</ele>
        <time>2020-05-22T10:42:22Z</time>
      </trkpt>
      <trkpt lat="48.76151" lon="7.34185">
        <ele>275.5</ele>
        <time>2020-05-22T10:42:23Z</time>
      </trkpt>
      <trkpt lat="48.7615" lon="7.34184">
        <ele>275.7</ele>
        <time>2020-05-22T10:42:24Z</time>
      </trkpt>
      <trkpt lat="48.76151" lon="7.34176">
        <ele>276.3</ele>
        <time>2020-05-22T10:42:26Z</time>
      </trkpt>
      <trkpt lat="48.76152" lon="7.34173">
        <ele>276.6</ele>
        <time>2020-05-22T10:42:27Z</time>
      </trkpt>
      <trkpt lat="48.76152" lon="7.34172">
        <ele>276.7</ele>
        <time>2020-05-22T10:42:28Z</time>
      </trkpt>
      <trkpt lat="48.7615" lon="7.34168">
        <ele>277.2</ele>
        <time>2020-05-22T10:42:30Z</time>
      </trkpt>
      <trkpt lat="48.76147" lon="7.34163">
        <ele>277.7</ele>
        <time>2020-05-22T10:42:32Z</time>
      </trkpt>
      <trkpt lat="48.76145" lon="7.34159">
        <ele>278.2</ele>
        <time>2020-05-22T10:42:34Z</time>
      </trkpt>
      <trkpt lat="48.76144" lon="7.34154">
        <ele>278.6</ele>
        <time>2020-05-22T10:42:36Z</time>
      </trkpt>
      <trkpt lat="48.76143" lon="7.34152">
        <ele>278.8</ele>
        <time>2020-05-22T10:42:37Z</time>
      </trkpt>
      <trkpt lat="48.76143" lon="7.34149">
        <ele>279.1</ele>
        <time>2020-05-22T10:42:38Z</time>
      </trkpt>
      <trkpt lat="48.76142" lon="7.34143">
        <ele>279.6</ele>
        <time>2020-05-22T10:42:40Z</time>
      </trkpt>
      <trkpt lat="48.7614" lon="7.34137">
        <ele>280.1</ele>
        <time>2020-05-22T10:42:42Z</time>
      </trkpt>
      <trkpt lat="48.76139" lon="7.34133">
        <ele>280.6</ele>
        <time>2020-05-22T10:42:44Z</time>
      </trkpt>
      <trkpt lat="48.76138" lon="7.34131">
        <ele>280.7</ele>
        <time>2020-05-22T10:42:45Z</time>
      </trkpt>
      <trkpt lat="48.76136" lon="7.34126">
        <ele>281.2</ele>
        <time>2020-05-22T10:42:47Z</time>
      </trkpt>
      <trkpt lat="48.76135" lon="7.34122">
        <ele>281.6</ele>
        <time>2020-05-22T10:42:49Z</time>
      </trkpt>
      <trkpt lat="48.76134" lon="7.34121">
        <ele>281.7</ele>
        <time>2020-05-22T10:42:50Z</time>
      </trkpt>
      <trkpt lat="48.76134" lon="7.3412">
        <ele>281.8</ele>
        <time>2020-05-22T10:42:51Z</time>
      </trkpt>
      <trkpt lat="48.76132" lon="7.34116">
        <ele>282.3</ele>
        <time>2020-05-22T10:42:53Z</time>
      </trkpt>
      <trkpt lat="48.76131" lon="7.34111">
        <ele>282.7</ele>
        <time>2020-05-22T10:42:54Z</time>
      </trkpt>
      <trkpt lat="48.76131" lon="7.3411">
        <ele>282.8</ele>
        <time>2020-05-22T10:42:55Z</time>
      </trkpt>
      <trkpt lat="48.76129" lon="7.34105">
        <ele>283.3</ele>
        <time>2020-05-22T10:42:57Z</time>
      </trkpt>
      <trkpt lat="48.76128" lon="7.34099">
        <ele>283.8</ele>
        <time>2020-05-22T10:42:59Z</time>
      </trkpt>
      <trkpt lat="48.76128" lon="7.34096">
        <ele>284.1</ele>
        <time>2020-05-22T10:43:00Z</time>
      </trkpt>
      <trkpt lat="48.76128" lon="7.34094">
        <ele>284.3</ele>
        <time>2020-05-22T10:43:01Z</time>
      </trkpt>
      <trkpt lat="48.76127" lon="7.34089">
        <ele>284.8</ele>
        <time>2020-05-22T10:43:03Z</time>
      </trkpt>
      <trkpt lat="48.76125" lon="7.34085">
        <ele>285.2</ele>
        <time>2020-05-22T10:43:05Z</time>
      </trkpt>
      <trkpt lat="48.76124" lon="7.34083">
        <ele>285.4</ele>
        <time>2020-05-22T10:43:06Z</time>
      </trkpt>
      <trkpt lat="48.76122" lon="7.34078">
        <ele>285.9</ele>
        <time>2020-05-22T10:43:08Z</time>
      </trkpt>
      <trkpt lat="48.76121" lon="7.34076">
        <ele>286.1</ele>
        <time>2020-05-22T10:43:09Z</time>
      </trkpt>
      <trkpt lat="48.76119" lon="7.34071">
        <ele>286.6</ele>
        <time>2020-05-22T10:43:11Z</time>
      </trkpt>
      <trkpt lat="48.76118" lon="7.34067">
        <ele>286.9</ele>
        <time>2020-05-22T10:43:13Z</time>
      </trkpt>
      <trkpt lat="48.76118" lon="7.34063">
        <ele>287.3</ele>
        <time>2020-05-22T10:43:15Z</time>
      </trkpt>
      <trkpt lat="48.76116" lon="7.34059">
        <ele>287.7</ele>
        <time>2020-05-22T10:43:17Z</time>
      </trkpt>
      <trkpt lat="48.76115" lon="7.34057">
        <ele>287.9</ele>
        <time>2020-05-22T10:43:18Z</time>
      </trkpt>
      <trkpt lat="48.76114" lon="7.34053">
        <ele>288.2</ele>
        <time>2020-05-22T10:43:20Z</time>
      </trkpt>
      <trkpt lat="48.76113" lon="7.34049">
        <ele>288.6</ele>
        <time>2020-05-22T10:43:22Z</time>
      </trkpt>
      <trkpt lat="48.76112" lon="7.34048">
        <ele>288.7</ele>
        <time>2020-05-22T10:43:23Z</time>
      </trkpt>
      <trkpt lat="48.7611" lon="7.34046">
        <ele>289.1</ele>
        <time>2020-05-22T10:43:25Z</time>
      </trkpt>
      <trkpt lat="48.76107" lon="7.34042">
        <ele>289.6</ele>
        <time>2020-05-22T10:43:27Z</time>
      </trkpt>
      <trkpt lat="48.76107" lon="7.34042">
        <ele>289.8</ele>
        <time>2020-05-22T10:43:28Z</time>
      </trkpt>
      <trkpt lat="48.76105" lon="7.3404">
        <ele>290.1</ele>
        <time>2020-05-22T10:43:29Z</time>
      </trkpt>
      <trkpt lat="48.76102" lon="7.34036">
        <ele>290.7</ele>
        <time>2020-05-22T10:43:31Z</time>
      </trkpt>
      <trkpt lat="48.76101" lon="7.34035">
        <ele>290.9</ele>
        <time>2020-05-22T10:43:32Z</time>
      </trkpt>
      <trkpt lat="48.76099" lon="7.34031">
        <ele>291.5</ele>
        <time>2020-05-22T10:43:34Z</time>
      </trkpt>
      <trkpt lat="48.76098" lon="7.34029">
        <ele>291.7</ele>
        <time>2020-05-22T10:43:35Z</time>
      </trkpt>
      <trkpt lat="48.76097" lon="7.34025">
        <ele>292.1</ele>
        <time>2020-05-22T10:43:37Z</time>
      </trkpt>
      <trkpt lat="48.76097" lon="7.34023">
        <ele>292.3</ele>
        <time>2020-05-22T10:43:38Z</time>
      </trkpt>
      <trkpt lat="48.76095" lon="7.3402">
        <ele>292.8</ele>
        <time>2020-05-22T10:43:40Z</time>
      </trkpt>
      <trkpt lat="48.76093" lon="7.34018">
        <ele>293.1</ele>
        <time>2020-05-22T10:43:42Z</time>
      </trkpt>
      <trkpt lat="48.76093" lon="7.34016">
        <ele>293.2</ele>
        <time>2020-05-22T10:43:43Z</time>
      </trkpt>
      <trkpt lat="48.76093" lon="7.34012">
        <ele>293.6</ele>
        <time>2020-05-22T10:43:44Z</time>
      </trkpt>
      <trkpt lat="48.76093" lon="7.3401">
        <ele>293.7</ele>
        <time>2020-05-22T10:43:45Z</time>
      </trkpt>
      <trkpt lat="48.76092" lon="7.34005">
        <ele>294.2</ele>
        <time>2020-05-22T10:43:47Z</time>
      </trkpt>
      <trkpt lat="48.76091" lon="7.34003">
        <ele>294.4</ele>
        <time>2020-05-22T10:43:48Z</time>
      </trkpt>
      <trkpt lat="48.76091" lon="7.34001">
        <ele>294.6</ele>
        <time>2020-05-22T10:43:50Z</time>
      </trkpt>
      <trkpt lat="48.76092" lon="7.33998">
        <ele>294.9</ele>
        <time>2020-05-22T10:43:51Z</time>
      </trkpt>
      <trkpt lat="48.76094" lon="7.33994">
        <ele>295.3</ele>
        <time>2020-05-22T10:43:53Z</time>
      </trkpt>
      <trkpt lat="48.76095" lon="7.33989">
        <ele>295.9</ele>
        <time>2020-05-22T10:43:55Z</time>
      </trkpt>
      <trkpt lat="48.76095" lon="7.33985">
        <ele>296.2</ele>
        <time>2020-05-22T10:43:56Z</time>
      </trkpt>
      <trkpt lat="48.76094" lon="7.33983">
        <ele>296.4</ele>
        <time>2020-05-22T10:43:57Z</time>
      </trkpt>
      <trkpt lat="48.76094" lon="7.33982">
        <ele>296.5</ele>
        <time>2020-05-22T10:43:58Z</time>
      </trkpt>
      <trkpt lat="48.76093" lon="7.3398">
        <ele>296.7</ele>
        <time>2020-05-22T10:43:59Z</time>
      </trkpt>
      <trkpt lat="48.76091" lon="7.33976">
        <ele>297.1</ele>
        <time>2020-05-22T10:44:01Z</time>
      </trkpt>
      <trkpt lat="48.76091" lon="7.33973">
        <ele>297.3</ele>
        <time>2020-05-22T10:44:02Z</time>
      </trkpt>
      <trkpt lat="48.76091" lon="7.33971">
        <ele>297.6</ele>
        <time>2020-05-22T10:44:03Z</time>
      </trkpt>
      <trkpt lat="48.76091" lon="7.33967">
        <ele>297.9</ele>
        <time>2020-05-22T10:44:05Z</time>
      </trkpt>
      <trkpt lat="48.76092" lon="7.33962">
        <ele>298.3</ele>
        <time>2020-05-22T10:44:07Z</time>
      </trkpt>
      <trkpt lat="48.76091" lon="7.33958">
        <ele>298.7</ele>
        <time>2020-05-22T10:44:09Z</time>
      </trkpt>
      <trkpt lat="48.7609" lon="7.33953">
        <ele>299.1</ele>
        <time>2020-05-22T10:44:11Z</time>
      </trkpt>
      <trkpt lat="48.76089" lon="7.3395">
        <ele>299.4</ele>
        <time>2020-05-22T10:44:12Z</time>
      </trkpt>
      <trkpt lat="48.76088" lon="7.33943">
        <ele>300</ele>
        <time>2020-05-22T10:44:14Z</time>
      </trkpt>
      <trkpt lat="48.76086" lon="7.33938">
        <ele>300.5</ele>
        <time>2020-05-22T10:44:16Z</time>
      </trkpt>
      <trkpt lat="48.76085" lon="7.33935">
        <ele>300.7</ele>
        <time>2020-05-22T10:44:17Z</time>
      </trkpt>
      <trkpt lat="48.76084" lon="7.33931">
        <ele>301.1</ele>
        <time>2020-05-22T10:44:19Z</time>
      </trkpt>
      <trkpt lat="48.76084" lon="7.33927">
        <ele>301.4</ele>
        <time>2020-05-22T10:44:21Z</time>
      </trkpt>
      <trkpt lat="48.76084" lon="7.33924">
        <ele>301.7</ele>
        <time>2020-05-22T10:44:22Z</time>
      </trkpt>
      <trkpt lat="48.76083" lon="7.33919">
        <ele>302.1</ele>
        <time>2020-05-22T10:44:24Z</time>
      </trkpt>
      <trkpt lat="48.76084" lon="7.33914">
        <ele>302.6</ele>
        <time>2020-05-22T10:44:26Z</time>
      </trkpt>
      <trkpt lat="48.76084" lon="7.33911">
        <ele>302.9</ele>
        <time>2020-05-22T10:44:27Z</time>
      </trkpt>
      <trkpt lat="48.76084" lon="7.33908">
        <ele>303.2</ele>
        <time>2020-05-22T10:44:28Z</time>
      </trkpt>
      <trkpt lat="48.76084" lon="7.33907">
        <ele>303.4</ele>
        <time>2020-05-22T10:44:29Z</time>
      </trkpt>
      <trkpt lat="48.76083" lon="7.33905">
        <ele>303.6</ele>
        <time>2020-05-22T10:44:30Z</time>
      </trkpt>
      <trkpt lat="48.76082" lon="7.33901">
        <ele>304</ele>
        <time>2020-05-22T10:44:32Z</time>
      </trkpt>
      <trkpt lat="48.7608" lon="7.33896">
        <ele>304.7</ele>
        <time>2020-05-22T10:44:34Z</time>
      </trkpt>
      <trkpt lat="48.76078" lon="7.33892">
        <ele>305.1</ele>
        <time>2020-05-22T10:44:36Z</time>
      </trkpt>
      <trkpt lat="48.76078" lon="7.3389">
        <ele>305.2</ele>
        <time>2020-05-22T10:44:37Z</time>
      </trkpt>
      <trkpt lat="48.76077" lon="7.33888">
        <ele>305.5</ele>
        <time>2020-05-22T10:44:38Z</time>
      </trkpt>
      <trkpt lat="48.76076" lon="7.33886">
        <ele>305.7</ele>
        <time>2020-05-22T10:44:39Z</time>
      </trkpt>
      <trkpt lat="48.76075" lon="7.33881">
        <ele>306.1</ele>
        <time>2020-05-22T10:44:41Z</time>
      </trkpt>
      <trkpt lat="48.76074" lon="7.33879">
        <ele>306.3</ele>
        <time>2020-05-22T10:44:42Z</time>
      </trkpt>
      <trkpt lat="48.76074" lon="7.33874">
        <ele>306.6</ele>
        <time>2020-05-22T10:44:44Z</time>
      </trkpt>
      <trkpt lat="48.76073" lon="7.33871">
        <ele>306.9</ele>
        <time>2020-05-22T10:44:45Z</time>
      </trkpt>
      <trkpt lat="48.76073" lon="7.33868">
        <ele>307</ele>
        <time>2020-05-22T10:44:47Z</time>
      </trkpt>
      <trkpt lat="48.76073" lon="7.33866">
        <ele>307.2</ele>
        <time>2020-05-22T10:44:48Z</time>
      </trkpt>
      <trkpt lat="48.76072" lon="7.33864">
        <ele>307.4</ele>
        <time>2020-05-22T10:44:49Z</time>
      </trkpt>
      <trkpt lat="48.7607" lon="7.33859">
        <ele>307.9</ele>
        <time>2020-05-22T10:44:51Z</time>
      </trkpt>
      <trkpt lat="48.76068" lon="7.33856">
        <ele>308.2</ele>
        <time>2020-05-22T10:44:53Z</time>
      </trkpt>
      <trkpt lat="48.76067" lon="7.33853">
        <ele>308.4</ele>
        <time>2020-05-22T10:44:54Z</time>
      </trkpt>
      <trkpt lat="48.76067" lon="7.3385">
        <ele>308.7</ele>
        <time>2020-05-22T10:44:55Z</time>
      </trkpt>
      <trkpt lat="48.76066" lon="7.33846">
        <ele>309.2</ele>
        <time>2020-05-22T10:44:57Z</time>
      </trkpt>
      <trkpt lat="48.76065" lon="7.33843">
        <ele>309.4</ele>
        <time>2020-05-22T10:44:58Z</time>
      </trkpt>
      <trkpt lat="48.76066" lon="7.33838">
        <ele>309.9</ele>
        <time>2020-05-22T10:45:00Z</time>
      </trkpt>
      <trkpt lat="48.76066" lon="7.33836">
        <ele>310.1</ele>
        <time>2020-05-22T10:45:01Z</time>
      </trkpt>
      <trkpt lat="48.76063" lon="7.33831">
        <ele>310.7</ele>
        <time>2020-05-22T10:45:03Z</time>
      </trkpt>
      <trkpt lat="48.7606" lon="7.33827">
        <ele>311.2</ele>
        <time>2020-05-22T10:45:04Z</time>
      </trkpt>
      <trkpt lat="48.76059" lon="7.33825">
        <ele>311.4</ele>
        <time>2020-05-22T10:45:05Z</time>
      </trkpt>
      <trkpt lat="48.76058" lon="7.33819">
        <ele>312</ele>
        <time>2020-05-22T10:45:07Z</time>
      </trkpt>
      <trkpt lat="48.76058" lon="7.33817">
        <ele>312.1</ele>
        <time>2020-05-22T10:45:08Z</time>
      </trkpt>
      <trkpt lat="48.76053" lon="7.33806">
        <ele>334.3</ele>
      </trkpt>
      <trkpt lat="48.76054" lon="7.33835">
        <ele>335.7</ele>
      </trkpt>
      <trkpt lat="48.76052" lon="7.33895">
        <ele>338.6</ele>
      </trkpt>
      <trkpt lat="48.76057" lon="7.33934">
        <ele>338.5</ele>
      </trkpt>
      <trkpt lat="48.76058" lon="7.33947">
        <ele>339.1</ele>
      </trkpt>
      <trkpt lat="48.76057" lon="7.33972">
        <ele>339.2</ele>
      </trkpt>
      <trkpt lat="48.76057" lon="7.34017">
        <ele>338.8</ele>
      </trkpt>
      <trkpt lat="48.7606" lon="7.34071">
        <ele>338</ele>
      </trkpt>
      <trkpt lat="48.76064" lon="7.34147">
        <ele>337.6</ele>
      </trkpt>
      <trkpt lat="48.76068" lon="7.34201">
        <ele>332.6</ele>
      </trkpt>
      <trkpt lat="48.76067" lon="7.34239">
        <ele>325.5</ele>
      </trkpt>
      <trkpt lat="48.76062" lon="7.34293">
        <ele>322.7</ele>
      </trkpt>
      <trkpt lat="48.76048" lon="7.34341">
        <ele>316</ele>
      </trkpt>
      <trkpt lat="48.76016" lon="7.3441">
        <ele>319.8</ele>
      </trkpt>
      <trkpt lat="48.75992" lon="7.34445">
        <ele>328.3</ele>
      </trkpt>
      <trkpt lat="48.75967" lon="7.34483">
        <ele>327.1</ele>
      </trkpt>
      <trkpt lat="48.75942" lon="7.34518">
        <ele>319.4</ele>
      </trkpt>
    </trkseg>
  </trk>
  <trk>
    <name><![CDATA[secteur Saverne - Dabo - Petite Pierre_35]]></name>
    <trkseg>
      <trkpt lat="48.76014" lon="7.3483">
        <ele>222.3</ele>
        <time>2020-05-22T10:37:55Z</time>
      </trkpt>
      <trkpt lat="48.76014" lon="7.3483">
        <ele>222.3</ele>
        <time>2020-05-22T10:37:55Z</time>
      </trkpt>
      <trkpt lat="48.76014" lon="7.3483">
        <ele>222.3</ele>
        <time>2020-05-22T10:37:55Z</time>
      </trkpt>
      <trkpt lat="48.76014" lon="7.3483">
        <ele>222.3</ele>
        <time>2020-05-22T10:37:55Z</time>
      </trkpt>
      <trkpt lat="48.76014" lon="7.3483">
        <ele>222.3</ele>
        <time>2020-05-22T10:37:55Z</time>
      </trkpt>
      <trkpt lat="48.76014" lon="7.3483">
        <ele>222.3</ele>
        <time>2020-05-22T10:37:55Z</time>
      </trkpt>
      <trkpt lat="48.76021" lon="7.34821">
        <ele>222.9</ele>
        <time>2020-05-22T10:37:57Z</time>
      </trkpt>
      <trkpt lat="48.76026" lon="7.34811">
        <ele>223.4</ele>
        <time>2020-05-22T10:37:59Z</time>
      </trkpt>
      <trkpt lat="48.76029" lon="7.34802">
        <ele>223.9</ele>
        <time>2020-05-22T10:38:01Z</time>
      </trkpt>
      <trkpt lat="48.76032" lon="7.34793">
        <ele>224.4</ele>
        <time>2020-05-22T10:38:03Z</time>
      </trkpt>
      <trkpt lat="48.76034" lon="7.3479">
        <ele>224.7</ele>
        <time>2020-05-22T10:38:04Z</time>
      </trkpt>
      <trkpt lat="48.76037" lon="7.34787">
        <ele>225</ele>
        <time>2020-05-22T10:38:05Z</time>
      </trkpt>
      <trkpt lat="48.76039" lon="7.34783">
        <ele>225.4</ele>
        <time>2020-05-22T10:38:06Z</time>
      </trkpt>
    </trkseg>
  </trk>
  <trk>
    <name><![CDATA[secteur Saverne - Dabo - Petite Pierre_36]]></name>
    <trkseg>
      <trkpt lat="48.76015" lon="7.34831">
        <ele>222.5</ele>
        <time>2020-05-10T11:26:44Z</time>
      </trkpt>
      <trkpt lat="48.76015" lon="7.34831">
        <ele>222.5</ele>
        <time>2020-05-10T11:26:44Z</time>
      </trkpt>
      <trkpt lat="48.76015" lon="7.34831">
        <ele>222.5</ele>
        <time>2020-05-10T11:26:44Z</time>
      </trkpt>
      <trkpt lat="48.76015" lon="7.34831">
        <ele>222.5</ele>
        <time>2020-05-10T11:26:44Z</time>
      </trkpt>
      <trkpt lat="48.76015" lon="7.34831">
        <ele>222.5</ele>
        <time>2020-05-10T11:26:44Z</time>
      </trkpt>
      <trkpt lat="48.76026" lon="7.34825">
        <ele>224.3</ele>
        <time>2020-05-10T11:26:46Z</time>
      </trkpt>
      <trkpt lat="48.76031" lon="7.34819">
        <ele>225.3</ele>
        <time>2020-05-10T11:26:47Z</time>
      </trkpt>
      <trkpt lat="48.76039" lon="7.34808">
        <ele>227</ele>
        <time>2020-05-10T11:26:49Z</time>
      </trkpt>
      <trkpt lat="48.76046" lon="7.34798">
        <ele>228.6</ele>
        <time>2020-05-10T11:26:51Z</time>
      </trkpt>
      <trkpt lat="48.76048" lon="7.34791">
        <ele>229.4</ele>
        <time>2020-05-10T11:26:52Z</time>
      </trkpt>
      <trkpt lat="48.76055" lon="7.34778">
        <ele>231.1</ele>
        <time>2020-05-10T11:26:54Z</time>
      </trkpt>
      <trkpt lat="48.76055" lon="7.34769">
        <ele>232.1</ele>
        <time>2020-05-10T11:26:56Z</time>
      </trkpt>
      <trkpt lat="48.76054" lon="7.34762">
        <ele>232.8</ele>
        <time>2020-05-10T11:26:58Z</time>
      </trkpt>
      <trkpt lat="48.76053" lon="7.34757">
        <ele>233.3</ele>
        <time>2020-05-10T11:26:59Z</time>
      </trkpt>
      <trkpt lat="48.76052" lon="7.34751">
        <ele>233.9</ele>
        <time>2020-05-10T11:27:00Z</time>
      </trkpt>
      <trkpt lat="48.76053" lon="7.34741">
        <ele>234.4</ele>
        <time>2020-05-10T11:27:02Z</time>
      </trkpt>
      <trkpt lat="48.76056" lon="7.34729">
        <ele>234.7</ele>
        <time>2020-05-10T11:27:04Z</time>
      </trkpt>
      <trkpt lat="48.76062" lon="7.3472">
        <ele>235.1</ele>
        <time>2020-05-10T11:27:06Z</time>
      </trkpt>
      <trkpt lat="48.76065" lon="7.34716">
        <ele>235.3</ele>
        <time>2020-05-10T11:27:07Z</time>
      </trkpt>
      <trkpt lat="48.76072" lon="7.34708">
        <ele>235.7</ele>
        <time>2020-05-10T11:27:09Z</time>
      </trkpt>
      <trkpt lat="48.76076" lon="7.347">
        <ele>235.9</ele>
        <time>2020-05-10T11:27:10Z</time>
      </trkpt>
      <trkpt lat="48.76078" lon="7.3469">
        <ele>236.2</ele>
        <time>2020-05-10T11:27:12Z</time>
      </trkpt>
      <trkpt lat="48.76079" lon="7.34684">
        <ele>236.3</ele>
        <time>2020-05-10T11:27:13Z</time>
      </trkpt>
      <trkpt lat="48.76086" lon="7.34677">
        <ele>236.7</ele>
        <time>2020-05-10T11:27:15Z</time>
      </trkpt>
      <trkpt lat="48.7609" lon="7.34674">
        <ele>236.9</ele>
        <time>2020-05-10T11:27:16Z</time>
      </trkpt>
      <trkpt lat="48.76095" lon="7.34663">
        <ele>237.3</ele>
        <time>2020-05-10T11:27:18Z</time>
      </trkpt>
      <trkpt lat="48.761" lon="7.34653">
        <ele>237.7</ele>
        <time>2020-05-10T11:27:20Z</time>
      </trkpt>
      <trkpt lat="48.76106" lon="7.34643">
        <ele>238</ele>
        <time>2020-05-10T11:27:22Z</time>
      </trkpt>
      <trkpt lat="48.76111" lon="7.34633">
        <ele>238.4</ele>
        <time>2020-05-10T11:27:24Z</time>
      </trkpt>
      <trkpt lat="48.76115" lon="7.34627">
        <ele>238.6</ele>
        <time>2020-05-10T11:27:26Z</time>
      </trkpt>
      <trkpt lat="48.76118" lon="7.34619">
        <ele>238.8</ele>
        <time>2020-05-10T11:27:28Z</time>
      </trkpt>
      <trkpt lat="48.76124" lon="7.34612">
        <ele>239.2</ele>
        <time>2020-05-10T11:27:30Z</time>
      </trkpt>
      <trkpt lat="48.76127" lon="7.34606">
        <ele>239.3</ele>
        <time>2020-05-10T11:27:31Z</time>
      </trkpt>
      <trkpt lat="48.76129" lon="7.346">
        <ele>239.6</ele>
        <time>2020-05-10T11:27:32Z</time>
      </trkpt>
      <trkpt lat="48.76135" lon="7.34593">
        <ele>239.9</ele>
        <time>2020-05-10T11:27:34Z</time>
      </trkpt>
      <trkpt lat="48.7614" lon="7.34584">
        <ele>240.3</ele>
        <time>2020-05-10T11:27:36Z</time>
      </trkpt>
      <trkpt lat="48.76143" lon="7.34578">
        <ele>240.5</ele>
        <time>2020-05-10T11:27:38Z</time>
      </trkpt>
      <trkpt lat="48.76145" lon="7.34573">
        <ele>240.7</ele>
        <time>2020-05-10T11:27:39Z</time>
      </trkpt>
      <trkpt lat="48.76147" lon="7.34565">
        <ele>241</ele>
        <time>2020-05-10T11:27:41Z</time>
      </trkpt>
      <trkpt lat="48.76149" lon="7.34561">
        <ele>241.2</ele>
        <time>2020-05-10T11:27:42Z</time>
      </trkpt>
      <trkpt lat="48.76152" lon="7.3455">
        <ele>241.5</ele>
        <time>2020-05-10T11:27:44Z</time>
      </trkpt>
      <trkpt lat="48.76156" lon="7.34542">
        <ele>241.8</ele>
        <time>2020-05-10T11:27:46Z</time>
      </trkpt>
      <trkpt lat="48.76159" lon="7.34538">
        <ele>241.8</ele>
        <time>2020-05-10T11:27:47Z</time>
      </trkpt>
      <trkpt lat="48.76167" lon="7.34529">
        <ele>241.8</ele>
        <time>2020-05-10T11:27:49Z</time>
      </trkpt>
      <trkpt lat="48.7617" lon="7.34525">
        <ele>241.9</ele>
        <time>2020-05-10T11:27:50Z</time>
      </trkpt>
      <trkpt lat="48.76178" lon="7.34519">
        <ele>242</ele>
        <time>2020-05-10T11:27:52Z</time>
      </trkpt>
      <trkpt lat="48.76181" lon="7.34515">
        <ele>242.1</ele>
        <time>2020-05-10T11:27:53Z</time>
      </trkpt>
      <trkpt lat="48.76183" lon="7.34514">
        <ele>242.1</ele>
        <time>2020-05-10T11:27:54Z</time>
      </trkpt>
      <trkpt lat="48.76189" lon="7.34506">
        <ele>242.3</ele>
        <time>2020-05-10T11:27:56Z</time>
      </trkpt>
      <trkpt lat="48.76193" lon="7.34501">
        <ele>242.3</ele>
        <time>2020-05-10T11:27:57Z</time>
      </trkpt>
      <trkpt lat="48.76196" lon="7.34496">
        <ele>242.4</ele>
        <time>2020-05-10T11:27:58Z</time>
      </trkpt>
      <trkpt lat="48.76199" lon="7.34491">
        <ele>242.5</ele>
        <time>2020-05-10T11:27:59Z</time>
      </trkpt>
      <trkpt lat="48.76204" lon="7.34483">
        <ele>242.6</ele>
        <time>2020-05-10T11:28:01Z</time>
      </trkpt>
      <trkpt lat="48.76209" lon="7.34475">
        <ele>242.8</ele>
        <time>2020-05-10T11:28:03Z</time>
      </trkpt>
      <trkpt lat="48.76212" lon="7.34465">
        <ele>243</ele>
        <time>2020-05-10T11:28:05Z</time>
      </trkpt>
      <trkpt lat="48.76214" lon="7.3446">
        <ele>243.2</ele>
        <time>2020-05-10T11:28:06Z</time>
      </trkpt>
      <trkpt lat="48.76218" lon="7.34453">
        <ele>243.4</ele>
        <time>2020-05-10T11:28:08Z</time>
      </trkpt>
      <trkpt lat="48.76219" lon="7.34449">
        <ele>243.6</ele>
        <time>2020-05-10T11:28:09Z</time>
      </trkpt>
      <trkpt lat="48.76222" lon="7.34441">
        <ele>243.8</ele>
        <time>2020-05-10T11:28:11Z</time>
      </trkpt>
      <trkpt lat="48.76223" lon="7.34433">
        <ele>244.1</ele>
        <time>2020-05-10T11:28:12Z</time>
      </trkpt>
      <trkpt lat="48.76224" lon="7.34422">
        <ele>244.5</ele>
        <time>2020-05-10T11:28:14Z</time>
      </trkpt>
      <trkpt lat="48.76225" lon="7.34417">
        <ele>244.7</ele>
        <time>2020-05-10T11:28:15Z</time>
      </trkpt>
      <trkpt lat="48.76226" lon="7.34407">
        <ele>244.9</ele>
        <time>2020-05-10T11:28:17Z</time>
      </trkpt>
      <trkpt lat="48.76227" lon="7.34403">
        <ele>245.1</ele>
        <time>2020-05-10T11:28:18Z</time>
      </trkpt>
      <trkpt lat="48.7623" lon="7.34393">
        <ele>245.3</ele>
        <time>2020-05-10T11:28:20Z</time>
      </trkpt>
      <trkpt lat="48.76233" lon="7.34386">
        <ele>245.5</ele>
        <time>2020-05-10T11:28:22Z</time>
      </trkpt>
      <trkpt lat="48.76235" lon="7.34382">
        <ele>245.6</ele>
        <time>2020-05-10T11:28:23Z</time>
      </trkpt>
      <trkpt lat="48.7624" lon="7.34371">
        <ele>245.9</ele>
        <time>2020-05-10T11:28:25Z</time>
      </trkpt>
      <trkpt lat="48.76244" lon="7.3436">
        <ele>246.1</ele>
        <time>2020-05-10T11:28:27Z</time>
      </trkpt>
      <trkpt lat="48.76246" lon="7.3435">
        <ele>246.3</ele>
        <time>2020-05-10T11:28:29Z</time>
      </trkpt>
      <trkpt lat="48.76246" lon="7.34339">
        <ele>246.4</ele>
        <time>2020-05-10T11:28:31Z</time>
      </trkpt>
      <trkpt lat="48.76246" lon="7.34329">
        <ele>246.6</ele>
        <time>2020-05-10T11:28:33Z</time>
      </trkpt>
      <trkpt lat="48.7625" lon="7.34319">
        <ele>246.7</ele>
        <time>2020-05-10T11:28:35Z</time>
      </trkpt>
      <trkpt lat="48.76251" lon="7.34314">
        <ele>246.7</ele>
        <time>2020-05-10T11:28:36Z</time>
      </trkpt>
      <trkpt lat="48.76252" lon="7.34312">
        <ele>246.7</ele>
        <time>2020-05-10T11:28:37Z</time>
      </trkpt>
      <trkpt lat="48.76253" lon="7.34307">
        <ele>246.8</ele>
        <time>2020-05-10T11:28:38Z</time>
      </trkpt>
      <trkpt lat="48.76254" lon="7.34304">
        <ele>246.8</ele>
        <time>2020-05-10T11:28:39Z</time>
      </trkpt>
      <trkpt lat="48.76255" lon="7.34295">
        <ele>246.8</ele>
        <time>2020-05-10T11:28:41Z</time>
      </trkpt>
      <trkpt lat="48.76256" lon="7.34285">
        <ele>246.9</ele>
        <time>2020-05-10T11:28:43Z</time>
      </trkpt>
      <trkpt lat="48.76257" lon="7.3428">
        <ele>246.9</ele>
        <time>2020-05-10T11:28:44Z</time>
      </trkpt>
      <trkpt lat="48.7626" lon="7.34269">
        <ele>246.9</ele>
        <time>2020-05-10T11:28:46Z</time>
      </trkpt>
      <trkpt lat="48.76261" lon="7.34264">
        <ele>246.9</ele>
        <time>2020-05-10T11:28:47Z</time>
      </trkpt>
      <trkpt lat="48.76263" lon="7.34253">
        <ele>247</ele>
        <time>2020-05-10T11:28:49Z</time>
      </trkpt>
      <trkpt lat="48.76264" lon="7.34248">
        <ele>247</ele>
        <time>2020-05-10T11:28:50Z</time>
      </trkpt>
      <trkpt lat="48.76266" lon="7.34239">
        <ele>247</ele>
        <time>2020-05-10T11:28:51Z</time>
      </trkpt>
      <trkpt lat="48.76269" lon="7.34231">
        <ele>247</ele>
        <time>2020-05-10T11:28:53Z</time>
      </trkpt>
      <trkpt lat="48.76272" lon="7.34226">
        <ele>247</ele>
        <time>2020-05-10T11:28:54Z</time>
      </trkpt>
      <trkpt lat="48.76279" lon="7.34219">
        <ele>246.6</ele>
        <time>2020-05-10T11:28:56Z</time>
      </trkpt>
      <trkpt lat="48.76285" lon="7.34213">
        <ele>246.4</ele>
        <time>2020-05-10T11:28:58Z</time>
      </trkpt>
      <trkpt lat="48.76291" lon="7.34207">
        <ele>246.2</ele>
        <time>2020-05-10T11:29:00Z</time>
      </trkpt>
      <trkpt lat="48.76293" lon="7.34202">
        <ele>246.2</ele>
        <time>2020-05-10T11:29:01Z</time>
      </trkpt>
      <trkpt lat="48.76296" lon="7.34197">
        <ele>246.2</ele>
        <time>2020-05-10T11:29:03Z</time>
      </trkpt>
      <trkpt lat="48.76297" lon="7.34195">
        <ele>246.2</ele>
        <time>2020-05-10T11:29:04Z</time>
      </trkpt>
      <trkpt lat="48.76301" lon="7.3419">
        <ele>246.2</ele>
        <time>2020-05-10T11:29:06Z</time>
      </trkpt>
      <trkpt lat="48.76302" lon="7.34187">
        <ele>246.3</ele>
        <time>2020-05-10T11:29:08Z</time>
      </trkpt>
      <trkpt lat="48.76302" lon="7.34185">
        <ele>246.3</ele>
        <time>2020-05-10T11:29:09Z</time>
      </trkpt>
      <trkpt lat="48.76303" lon="7.34182">
        <ele>246.4</ele>
        <time>2020-05-10T11:29:10Z</time>
      </trkpt>
      <trkpt lat="48.76304" lon="7.3418">
        <ele>246.5</ele>
        <time>2020-05-10T11:29:11Z</time>
      </trkpt>
      <trkpt lat="48.76304" lon="7.34176">
        <ele>246.6</ele>
        <time>2020-05-10T11:29:12Z</time>
      </trkpt>
      <trkpt lat="48.76304" lon="7.34174">
        <ele>246.6</ele>
        <time>2020-05-10T11:29:13Z</time>
      </trkpt>
      <trkpt lat="48.76306" lon="7.34166">
        <ele>246.8</ele>
        <time>2020-05-10T11:29:15Z</time>
      </trkpt>
      <trkpt lat="48.76308" lon="7.34164">
        <ele>246.9</ele>
        <time>2020-05-10T11:29:17Z</time>
      </trkpt>
      <trkpt lat="48.76309" lon="7.34161">
        <ele>247</ele>
        <time>2020-05-10T11:29:19Z</time>
      </trkpt>
      <trkpt lat="48.76311" lon="7.34158">
        <ele>247</ele>
        <time>2020-05-10T11:29:21Z</time>
      </trkpt>
      <trkpt lat="48.76312" lon="7.34155">
        <ele>247.1</ele>
        <time>2020-05-10T11:29:22Z</time>
      </trkpt>
      <trkpt lat="48.76313" lon="7.34152">
        <ele>247.1</ele>
        <time>2020-05-10T11:29:23Z</time>
      </trkpt>
      <trkpt lat="48.76315" lon="7.34148">
        <ele>247.2</ele>
        <time>2020-05-10T11:29:24Z</time>
      </trkpt>
      <trkpt lat="48.76316" lon="7.34146">
        <ele>247.2</ele>
        <time>2020-05-10T11:29:25Z</time>
      </trkpt>
      <trkpt lat="48.76318" lon="7.34144">
        <ele>247.2</ele>
        <time>2020-05-10T11:29:26Z</time>
      </trkpt>
      <trkpt lat="48.7632" lon="7.34138">
        <ele>247.2</ele>
        <time>2020-05-10T11:29:28Z</time>
      </trkpt>
      <trkpt lat="48.76322" lon="7.3413">
        <ele>247.3</ele>
        <time>2020-05-10T11:29:30Z</time>
      </trkpt>
      <trkpt lat="48.76322" lon="7.34126">
        <ele>247.3</ele>
        <time>2020-05-10T11:29:31Z</time>
      </trkpt>
      <trkpt lat="48.76324" lon="7.34115">
        <ele>247.4</ele>
        <time>2020-05-10T11:29:33Z</time>
      </trkpt>
      <trkpt lat="48.76326" lon="7.34108">
        <ele>247.4</ele>
        <time>2020-05-10T11:29:35Z</time>
      </trkpt>
      <trkpt lat="48.76327" lon="7.34106">
        <ele>247.4</ele>
        <time>2020-05-10T11:29:36Z</time>
      </trkpt>
      <trkpt lat="48.7633" lon="7.34101">
        <ele>247.4</ele>
        <time>2020-05-10T11:29:38Z</time>
      </trkpt>
      <trkpt lat="48.76334" lon="7.34095">
        <ele>247.5</ele>
        <time>2020-05-10T11:29:40Z</time>
      </trkpt>
      <trkpt lat="48.76338" lon="7.34089">
        <ele>247.6</ele>
        <time>2020-05-10T11:29:42Z</time>
      </trkpt>
      <trkpt lat="48.76342" lon="7.34083">
        <ele>247.7</ele>
        <time>2020-05-10T11:29:44Z</time>
      </trkpt>
      <trkpt lat="48.76345" lon="7.34076">
        <ele>247.9</ele>
        <time>2020-05-10T11:29:46Z</time>
      </trkpt>
      <trkpt lat="48.76348" lon="7.34071">
        <ele>248</ele>
        <time>2020-05-10T11:29:48Z</time>
      </trkpt>
      <trkpt lat="48.7635" lon="7.34068">
        <ele>248</ele>
        <time>2020-05-10T11:29:49Z</time>
      </trkpt>
      <trkpt lat="48.76351" lon="7.34063">
        <ele>248.2</ele>
        <time>2020-05-10T11:29:51Z</time>
      </trkpt>
      <trkpt lat="48.76355" lon="7.34055">
        <ele>248.4</ele>
        <time>2020-05-10T11:29:53Z</time>
      </trkpt>
      <trkpt lat="48.76356" lon="7.34051">
        <ele>248.5</ele>
        <time>2020-05-10T11:29:54Z</time>
      </trkpt>
      <trkpt lat="48.76357" lon="7.34049">
        <ele>248.5</ele>
        <time>2020-05-10T11:29:55Z</time>
      </trkpt>
      <trkpt lat="48.76359" lon="7.34043">
        <ele>248.7</ele>
        <time>2020-05-10T11:29:57Z</time>
      </trkpt>
      <trkpt lat="48.76359" lon="7.34041">
        <ele>248.8</ele>
        <time>2020-05-10T11:29:58Z</time>
      </trkpt>
      <trkpt lat="48.76358" lon="7.34037">
        <ele>248.8</ele>
        <time>2020-05-10T11:30:00Z</time>
      </trkpt>
      <trkpt lat="48.76359" lon="7.34032">
        <ele>248.9</ele>
        <time>2020-05-10T11:30:01Z</time>
      </trkpt>
      <trkpt lat="48.76359" lon="7.34031">
        <ele>249</ele>
        <time>2020-05-10T11:30:02Z</time>
      </trkpt>
      <trkpt lat="48.76361" lon="7.34027">
        <ele>249</ele>
        <time>2020-05-10T11:30:03Z</time>
      </trkpt>
      <trkpt lat="48.76364" lon="7.34022">
        <ele>249.1</ele>
        <time>2020-05-10T11:30:05Z</time>
      </trkpt>
      <trkpt lat="48.76365" lon="7.34017">
        <ele>249.2</ele>
        <time>2020-05-10T11:30:06Z</time>
      </trkpt>
      <trkpt lat="48.76365" lon="7.34016">
        <ele>249.2</ele>
        <time>2020-05-10T11:30:07Z</time>
      </trkpt>
      <trkpt lat="48.76367" lon="7.34012">
        <ele>249.3</ele>
        <time>2020-05-10T11:30:09Z</time>
      </trkpt>
      <trkpt lat="48.76369" lon="7.3401">
        <ele>249.4</ele>
        <time>2020-05-10T11:30:10Z</time>
      </trkpt>
      <trkpt lat="48.76371" lon="7.34006">
        <ele>249.5</ele>
        <time>2020-05-10T11:30:12Z</time>
      </trkpt>
      <trkpt lat="48.76377" lon="7.34004">
        <ele>249.7</ele>
        <time>2020-05-10T11:30:14Z</time>
      </trkpt>
      <trkpt lat="48.76379" lon="7.34003">
        <ele>249.8</ele>
        <time>2020-05-10T11:30:15Z</time>
      </trkpt>
      <trkpt lat="48.76381" lon="7.34002">
        <ele>250</ele>
        <time>2020-05-10T11:30:16Z</time>
      </trkpt>
      <trkpt lat="48.76384" lon="7.33997">
        <ele>250.3</ele>
        <time>2020-05-10T11:30:18Z</time>
      </trkpt>
      <trkpt lat="48.76387" lon="7.3399">
        <ele>250.7</ele>
        <time>2020-05-10T11:30:20Z</time>
      </trkpt>
      <trkpt lat="48.76389" lon="7.33982">
        <ele>251.3</ele>
        <time>2020-05-10T11:30:22Z</time>
      </trkpt>
      <trkpt lat="48.76393" lon="7.33975">
        <ele>251.9</ele>
        <time>2020-05-10T11:30:24Z</time>
      </trkpt>
      <trkpt lat="48.76398" lon="7.3397">
        <ele>252.3</ele>
        <time>2020-05-10T11:30:26Z</time>
      </trkpt>
      <trkpt lat="48.764" lon="7.33964">
        <ele>252.6</ele>
        <time>2020-05-10T11:30:28Z</time>
      </trkpt>
      <trkpt lat="48.76402" lon="7.3396">
        <ele>252.8</ele>
        <time>2020-05-10T11:30:29Z</time>
      </trkpt>
      <trkpt lat="48.76404" lon="7.33953">
        <ele>253.1</ele>
        <time>2020-05-10T11:30:31Z</time>
      </trkpt>
      <trkpt lat="48.76406" lon="7.33946">
        <ele>253.4</ele>
        <time>2020-05-10T11:30:33Z</time>
      </trkpt>
      <trkpt lat="48.76408" lon="7.33943">
        <ele>253.5</ele>
        <time>2020-05-10T11:30:35Z</time>
      </trkpt>
      <trkpt lat="48.76411" lon="7.33937">
        <ele>253.8</ele>
        <time>2020-05-10T11:30:36Z</time>
      </trkpt>
      <trkpt lat="48.76412" lon="7.33935">
        <ele>253.9</ele>
        <time>2020-05-10T11:30:37Z</time>
      </trkpt>
      <trkpt lat="48.76414" lon="7.33934">
        <ele>254</ele>
        <time>2020-05-10T11:30:38Z</time>
      </trkpt>
      <trkpt lat="48.76418" lon="7.33932">
        <ele>254.2</ele>
        <time>2020-05-10T11:30:40Z</time>
      </trkpt>
      <trkpt lat="48.76421" lon="7.33928">
        <ele>254.5</ele>
        <time>2020-05-10T11:30:42Z</time>
      </trkpt>
      <trkpt lat="48.76425" lon="7.33926">
        <ele>254.7</ele>
        <time>2020-05-10T11:30:43Z</time>
      </trkpt>
      <trkpt lat="48.76426" lon="7.33925">
        <ele>254.8</ele>
        <time>2020-05-10T11:30:44Z</time>
      </trkpt>
      <trkpt lat="48.76429" lon="7.33922">
        <ele>255</ele>
        <time>2020-05-10T11:30:46Z</time>
      </trkpt>
      <trkpt lat="48.76429" lon="7.33921">
        <ele>255.1</ele>
        <time>2020-05-10T11:30:47Z</time>
      </trkpt>
      <trkpt lat="48.7643" lon="7.33917">
        <ele>255.2</ele>
        <time>2020-05-10T11:30:48Z</time>
      </trkpt>
      <trkpt lat="48.7643" lon="7.33913">
        <ele>255.3</ele>
        <time>2020-05-10T11:30:50Z</time>
      </trkpt>
      <trkpt lat="48.7643" lon="7.3391">
        <ele>255.5</ele>
        <time>2020-05-10T11:30:51Z</time>
      </trkpt>
      <trkpt lat="48.7643" lon="7.33905">
        <ele>255.6</ele>
        <time>2020-05-10T11:30:53Z</time>
      </trkpt>
      <trkpt lat="48.7643" lon="7.33903">
        <ele>255.7</ele>
        <time>2020-05-10T11:30:54Z</time>
      </trkpt>
      <trkpt lat="48.76433" lon="7.33898">
        <ele>255.9</ele>
        <time>2020-05-10T11:30:56Z</time>
      </trkpt>
      <trkpt lat="48.76435" lon="7.33895">
        <ele>256.1</ele>
        <time>2020-05-10T11:30:58Z</time>
      </trkpt>
      <trkpt lat="48.76436" lon="7.33893">
        <ele>256.2</ele>
        <time>2020-05-10T11:30:59Z</time>
      </trkpt>
      <trkpt lat="48.76438" lon="7.33891">
        <ele>256.3</ele>
        <time>2020-05-10T11:31:00Z</time>
      </trkpt>
      <trkpt lat="48.76441" lon="7.33889">
        <ele>256.5</ele>
        <time>2020-05-10T11:31:02Z</time>
      </trkpt>
      <trkpt lat="48.76443" lon="7.33887">
        <ele>256.6</ele>
        <time>2020-05-10T11:31:03Z</time>
      </trkpt>
      <trkpt lat="48.76447" lon="7.33883">
        <ele>256.9</ele>
        <time>2020-05-10T11:31:05Z</time>
      </trkpt>
      <trkpt lat="48.76451" lon="7.33882">
        <ele>257.1</ele>
        <time>2020-05-10T11:31:06Z</time>
      </trkpt>
      <trkpt lat="48.76452" lon="7.33882">
        <ele>257.2</ele>
        <time>2020-05-10T11:31:07Z</time>
      </trkpt>
      <trkpt lat="48.76457" lon="7.3388">
        <ele>257.4</ele>
        <time>2020-05-10T11:31:09Z</time>
      </trkpt>
      <trkpt lat="48.7646" lon="7.33879">
        <ele>257.6</ele>
        <time>2020-05-10T11:31:10Z</time>
      </trkpt>
      <trkpt lat="48.76464" lon="7.33877">
        <ele>257.9</ele>
        <time>2020-05-10T11:31:12Z</time>
      </trkpt>
      <trkpt lat="48.76467" lon="7.33874">
        <ele>258.1</ele>
        <time>2020-05-10T11:31:13Z</time>
      </trkpt>
      <trkpt lat="48.7647" lon="7.33871">
        <ele>258.3</ele>
        <time>2020-05-10T11:31:15Z</time>
      </trkpt>
      <trkpt lat="48.76474" lon="7.33868">
        <ele>258.5</ele>
        <time>2020-05-10T11:31:16Z</time>
      </trkpt>
      <trkpt lat="48.76479" lon="7.33865">
        <ele>258.7</ele>
        <time>2020-05-10T11:31:18Z</time>
      </trkpt>
      <trkpt lat="48.76481" lon="7.33864">
        <ele>258.7</ele>
        <time>2020-05-10T11:31:19Z</time>
      </trkpt>
      <trkpt lat="48.76483" lon="7.3386">
        <ele>258.8</ele>
        <time>2020-05-10T11:31:21Z</time>
      </trkpt>
      <trkpt lat="48.76487" lon="7.33858">
        <ele>258.8</ele>
        <time>2020-05-10T11:31:23Z</time>
      </trkpt>
      <trkpt lat="48.7649" lon="7.33858">
        <ele>258.8</ele>
        <time>2020-05-10T11:31:24Z</time>
      </trkpt>
      <trkpt lat="48.76493" lon="7.33857">
        <ele>258.8</ele>
        <time>2020-05-10T11:31:25Z</time>
      </trkpt>
      <trkpt lat="48.76495" lon="7.33857">
        <ele>258.7</ele>
        <time>2020-05-10T11:31:26Z</time>
      </trkpt>
      <trkpt lat="48.76499" lon="7.33854">
        <ele>258.6</ele>
        <time>2020-05-10T11:31:28Z</time>
      </trkpt>
      <trkpt lat="48.76503" lon="7.33852">
        <ele>259.1</ele>
        <time>2020-05-10T11:31:30Z</time>
      </trkpt>
      <trkpt lat="48.76507" lon="7.33848">
        <ele>258.3</ele>
        <time>2020-05-10T11:31:32Z</time>
      </trkpt>
      <trkpt lat="48.76508" lon="7.33847">
        <ele>259</ele>
        <time>2020-05-10T11:31:33Z</time>
      </trkpt>
      <trkpt lat="48.76509" lon="7.33846">
        <ele>259.3</ele>
        <time>2020-05-10T11:31:34Z</time>
      </trkpt>
      <trkpt lat="48.76512" lon="7.33842">
        <ele>260.2</ele>
        <time>2020-05-10T11:31:35Z</time>
      </trkpt>
      <trkpt lat="48.76513" lon="7.33841">
        <ele>259.5</ele>
        <time>2020-05-10T11:31:36Z</time>
      </trkpt>
      <trkpt lat="48.76515" lon="7.33838">
        <ele>261.5</ele>
        <time>2020-05-10T11:31:37Z</time>
      </trkpt>
      <trkpt lat="48.76517" lon="7.33835">
        <ele>262.4</ele>
        <time>2020-05-10T11:31:39Z</time>
      </trkpt>
      <trkpt lat="48.76523" lon="7.3383">
        <ele>261.8</ele>
        <time>2020-05-10T11:31:41Z</time>
      </trkpt>
      <trkpt lat="48.76527" lon="7.33825">
        <ele>261</ele>
        <time>2020-05-10T11:31:43Z</time>
      </trkpt>
      <trkpt lat="48.76531" lon="7.33819">
        <ele>261.4</ele>
        <time>2020-05-10T11:31:45Z</time>
      </trkpt>
      <trkpt lat="48.76535" lon="7.33815">
        <ele>261.7</ele>
        <time>2020-05-10T11:31:47Z</time>
      </trkpt>
      <trkpt lat="48.76538" lon="7.3381">
        <ele>262.1</ele>
        <time>2020-05-10T11:31:48Z</time>
      </trkpt>
      <trkpt lat="48.76539" lon="7.33808">
        <ele>262.6</ele>
        <time>2020-05-10T11:31:49Z</time>
      </trkpt>
      <trkpt lat="48.76544" lon="7.33803">
        <ele>263.2</ele>
        <time>2020-05-10T11:31:51Z</time>
      </trkpt>
      <trkpt lat="48.76545" lon="7.33799">
        <ele>263.8</ele>
        <time>2020-05-10T11:31:53Z</time>
      </trkpt>
      <trkpt lat="48.76545" lon="7.33795">
        <ele>265.6</ele>
        <time>2020-05-10T11:31:55Z</time>
      </trkpt>
      <trkpt lat="48.76545" lon="7.33794">
        <ele>266</ele>
        <time>2020-05-10T11:31:56Z</time>
      </trkpt>
      <trkpt lat="48.76545" lon="7.33792">
        <ele>267.8</ele>
        <time>2020-05-10T11:31:57Z</time>
      </trkpt>
      <trkpt lat="48.76547" lon="7.33787">
        <ele>268.4</ele>
        <time>2020-05-10T11:31:59Z</time>
      </trkpt>
      <trkpt lat="48.76551" lon="7.33783">
        <ele>268.9</ele>
        <time>2020-05-10T11:32:01Z</time>
      </trkpt>
      <trkpt lat="48.76552" lon="7.33781">
        <ele>269.2</ele>
        <time>2020-05-10T11:32:02Z</time>
      </trkpt>
      <trkpt lat="48.76555" lon="7.33778">
        <ele>269.5</ele>
        <time>2020-05-10T11:32:04Z</time>
      </trkpt>
      <trkpt lat="48.76558" lon="7.33776">
        <ele>268.5</ele>
        <time>2020-05-10T11:32:06Z</time>
      </trkpt>
      <trkpt lat="48.7656" lon="7.33775">
        <ele>268.7</ele>
        <time>2020-05-10T11:32:07Z</time>
      </trkpt>
      <trkpt lat="48.76563" lon="7.33772">
        <ele>267.6</ele>
        <time>2020-05-10T11:32:08Z</time>
      </trkpt>
      <trkpt lat="48.76564" lon="7.33771">
        <ele>266.7</ele>
        <time>2020-05-10T11:32:09Z</time>
      </trkpt>
      <trkpt lat="48.76566" lon="7.3377">
        <ele>268.2</ele>
        <time>2020-05-10T11:32:10Z</time>
      </trkpt>
      <trkpt lat="48.7657" lon="7.33768">
        <ele>266.1</ele>
        <time>2020-05-10T11:32:12Z</time>
      </trkpt>
      <trkpt lat="48.76573" lon="7.33764">
        <ele>266.5</ele>
        <time>2020-05-10T11:32:14Z</time>
      </trkpt>
      <trkpt lat="48.76575" lon="7.33761">
        <ele>268.2</ele>
        <time>2020-05-10T11:32:16Z</time>
      </trkpt>
      <trkpt lat="48.76577" lon="7.33758">
        <ele>268.7</ele>
        <time>2020-05-10T11:32:17Z</time>
      </trkpt>
      <trkpt lat="48.76579" lon="7.33756">
        <ele>267.7</ele>
        <time>2020-05-10T11:32:18Z</time>
      </trkpt>
      <trkpt lat="48.76582" lon="7.33754">
        <ele>268.1</ele>
        <time>2020-05-10T11:32:19Z</time>
      </trkpt>
      <trkpt lat="48.76585" lon="7.33752">
        <ele>267.1</ele>
        <time>2020-05-10T11:32:20Z</time>
      </trkpt>
      <trkpt lat="48.76589" lon="7.33749">
        <ele>267.6</ele>
        <time>2020-05-10T11:32:22Z</time>
      </trkpt>
      <trkpt lat="48.76592" lon="7.33747">
        <ele>266.7</ele>
        <time>2020-05-10T11:32:23Z</time>
      </trkpt>
      <trkpt lat="48.76593" lon="7.33746">
        <ele>265.9</ele>
        <time>2020-05-10T11:32:24Z</time>
      </trkpt>
      <trkpt lat="48.76597" lon="7.33743">
        <ele>266.5</ele>
        <time>2020-05-10T11:32:26Z</time>
      </trkpt>
      <trkpt lat="48.76601" lon="7.3374">
        <ele>266</ele>
        <time>2020-05-10T11:32:28Z</time>
      </trkpt>
      <trkpt lat="48.76605" lon="7.33737">
        <ele>265.2</ele>
        <time>2020-05-10T11:32:30Z</time>
      </trkpt>
      <trkpt lat="48.76609" lon="7.33734">
        <ele>265.7</ele>
        <time>2020-05-10T11:32:32Z</time>
      </trkpt>
      <trkpt lat="48.7661" lon="7.33734">
        <ele>264.9</ele>
        <time>2020-05-10T11:32:33Z</time>
      </trkpt>
      <trkpt lat="48.76611" lon="7.33733">
        <ele>265.2</ele>
        <time>2020-05-10T11:32:34Z</time>
      </trkpt>
      <trkpt lat="48.76612" lon="7.33732">
        <ele>265.8</ele>
        <time>2020-05-10T11:32:35Z</time>
      </trkpt>
      <trkpt lat="48.76618" lon="7.33726">
        <ele>266.3</ele>
        <time>2020-05-10T11:32:37Z</time>
      </trkpt>
      <trkpt lat="48.76622" lon="7.33726">
        <ele>264.7</ele>
        <time>2020-05-10T11:32:39Z</time>
      </trkpt>
      <trkpt lat="48.76626" lon="7.33725">
        <ele>264.2</ele>
        <time>2020-05-10T11:32:41Z</time>
      </trkpt>
      <trkpt lat="48.76628" lon="7.33724">
        <ele>263.7</ele>
        <time>2020-05-10T11:32:42Z</time>
      </trkpt>
      <trkpt lat="48.76632" lon="7.33723">
        <ele>263.8</ele>
        <time>2020-05-10T11:32:44Z</time>
      </trkpt>
      <trkpt lat="48.76634" lon="7.3372">
        <ele>264.2</ele>
        <time>2020-05-10T11:32:45Z</time>
      </trkpt>
      <trkpt lat="48.76638" lon="7.33714">
        <ele>265.4</ele>
        <time>2020-05-10T11:32:47Z</time>
      </trkpt>
      <trkpt lat="48.7664" lon="7.3371">
        <ele>267.1</ele>
        <time>2020-05-10T11:32:48Z</time>
      </trkpt>
      <trkpt lat="48.76642" lon="7.33706">
        <ele>267.9</ele>
        <time>2020-05-10T11:32:50Z</time>
      </trkpt>
      <trkpt lat="48.76645" lon="7.33702">
        <ele>268.9</ele>
        <time>2020-05-10T11:32:51Z</time>
      </trkpt>
      <trkpt lat="48.76649" lon="7.33697">
        <ele>269.4</ele>
        <time>2020-05-10T11:32:53Z</time>
      </trkpt>
      <trkpt lat="48.76653" lon="7.33694">
        <ele>269.2</ele>
        <time>2020-05-10T11:32:54Z</time>
      </trkpt>
      <trkpt lat="48.76654" lon="7.33694">
        <ele>269.5</ele>
        <time>2020-05-10T11:32:55Z</time>
      </trkpt>
      <trkpt lat="48.76658" lon="7.3369">
        <ele>270</ele>
        <time>2020-05-10T11:32:57Z</time>
      </trkpt>
      <trkpt lat="48.76661" lon="7.33687">
        <ele>270.9</ele>
        <time>2020-05-10T11:32:59Z</time>
      </trkpt>
      <trkpt lat="48.76665" lon="7.33683">
        <ele>271.8</ele>
        <time>2020-05-10T11:33:01Z</time>
      </trkpt>
      <trkpt lat="48.76669" lon="7.33679">
        <ele>271.9</ele>
        <time>2020-05-10T11:33:03Z</time>
      </trkpt>
      <trkpt lat="48.76671" lon="7.33675">
        <ele>273.3</ele>
        <time>2020-05-10T11:33:04Z</time>
      </trkpt>
      <trkpt lat="48.76671" lon="7.33674">
        <ele>273</ele>
        <time>2020-05-10T11:33:05Z</time>
      </trkpt>
      <trkpt lat="48.76673" lon="7.33671">
        <ele>274.3</ele>
        <time>2020-05-10T11:33:06Z</time>
      </trkpt>
      <trkpt lat="48.76674" lon="7.33668">
        <ele>275.1</ele>
        <time>2020-05-10T11:33:08Z</time>
      </trkpt>
      <trkpt lat="48.76677" lon="7.33664">
        <ele>274.8</ele>
        <time>2020-05-10T11:33:10Z</time>
      </trkpt>
      <trkpt lat="48.76681" lon="7.3366">
        <ele>275.6</ele>
        <time>2020-05-10T11:33:12Z</time>
      </trkpt>
      <trkpt lat="48.76683" lon="7.33657">
        <ele>276.3</ele>
        <time>2020-05-10T11:33:13Z</time>
      </trkpt>
      <trkpt lat="48.76684" lon="7.33656">
        <ele>276.6</ele>
        <time>2020-05-10T11:33:14Z</time>
      </trkpt>
      <trkpt lat="48.76686" lon="7.3365">
        <ele>278.2</ele>
        <time>2020-05-10T11:33:16Z</time>
      </trkpt>
      <trkpt lat="48.76687" lon="7.33647">
        <ele>278.5</ele>
        <time>2020-05-10T11:33:17Z</time>
      </trkpt>
      <trkpt lat="48.76691" lon="7.33644">
        <ele>279</ele>
        <time>2020-05-10T11:33:19Z</time>
      </trkpt>
      <trkpt lat="48.76693" lon="7.33641">
        <ele>279.4</ele>
        <time>2020-05-10T11:33:20Z</time>
      </trkpt>
      <trkpt lat="48.76696" lon="7.33636">
        <ele>279.7</ele>
        <time>2020-05-10T11:33:22Z</time>
      </trkpt>
      <trkpt lat="48.76699" lon="7.33631">
        <ele>280</ele>
        <time>2020-05-10T11:33:24Z</time>
      </trkpt>
      <trkpt lat="48.76701" lon="7.33627">
        <ele>280.3</ele>
        <time>2020-05-10T11:33:25Z</time>
      </trkpt>
      <trkpt lat="48.76704" lon="7.33621">
        <ele>280.7</ele>
        <time>2020-05-10T11:33:27Z</time>
      </trkpt>
      <trkpt lat="48.76705" lon="7.33617">
        <ele>281.2</ele>
        <time>2020-05-10T11:33:28Z</time>
      </trkpt>
      <trkpt lat="48.76706" lon="7.33616">
        <ele>282.3</ele>
        <time>2020-05-10T11:33:29Z</time>
      </trkpt>
      <trkpt lat="48.76708" lon="7.33609">
        <ele>283.4</ele>
        <time>2020-05-10T11:33:31Z</time>
      </trkpt>
      <trkpt lat="48.76709" lon="7.33603">
        <ele>284.7</ele>
        <time>2020-05-10T11:33:33Z</time>
      </trkpt>
      <trkpt lat="48.7671" lon="7.336">
        <ele>285</ele>
        <time>2020-05-10T11:33:34Z</time>
      </trkpt>
      <trkpt lat="48.76711" lon="7.33594">
        <ele>286.2</ele>
        <time>2020-05-10T11:33:36Z</time>
      </trkpt>
      <trkpt lat="48.76711" lon="7.33587">
        <ele>287.3</ele>
        <time>2020-05-10T11:33:38Z</time>
      </trkpt>
      <trkpt lat="48.76712" lon="7.33582">
        <ele>289.3</ele>
        <time>2020-05-10T11:33:40Z</time>
      </trkpt>
      <trkpt lat="48.76712" lon="7.33579">
        <ele>289.7</ele>
        <time>2020-05-10T11:33:41Z</time>
      </trkpt>
      <trkpt lat="48.76712" lon="7.33576">
        <ele>290.9</ele>
        <time>2020-05-10T11:33:42Z</time>
      </trkpt>
      <trkpt lat="48.76713" lon="7.33571">
        <ele>292.2</ele>
        <time>2020-05-10T11:33:44Z</time>
      </trkpt>
      <trkpt lat="48.76713" lon="7.33565">
        <ele>293.4</ele>
        <time>2020-05-10T11:33:46Z</time>
      </trkpt>
      <trkpt lat="48.76713" lon="7.33564">
        <ele>294.6</ele>
        <time>2020-05-10T11:33:47Z</time>
      </trkpt>
      <trkpt lat="48.76714" lon="7.33561">
        <ele>294.2</ele>
        <time>2020-05-10T11:33:48Z</time>
      </trkpt>
      <trkpt lat="48.76713" lon="7.33556">
        <ele>296.2</ele>
        <time>2020-05-10T11:33:50Z</time>
      </trkpt>
      <trkpt lat="48.7671" lon="7.33551">
        <ele>298.9</ele>
        <time>2020-05-10T11:33:52Z</time>
      </trkpt>
      <trkpt lat="48.76709" lon="7.33546">
        <ele>300.1</ele>
        <time>2020-05-10T11:33:54Z</time>
      </trkpt>
      <trkpt lat="48.76707" lon="7.3354">
        <ele>302</ele>
        <time>2020-05-10T11:33:56Z</time>
      </trkpt>
      <trkpt lat="48.76706" lon="7.33534">
        <ele>304.1</ele>
        <time>2020-05-10T11:33:58Z</time>
      </trkpt>
      <trkpt lat="48.76706" lon="7.33527">
        <ele>305.3</ele>
        <time>2020-05-10T11:34:00Z</time>
      </trkpt>
      <trkpt lat="48.76706" lon="7.3352">
        <ele>307.3</ele>
        <time>2020-05-10T11:34:02Z</time>
      </trkpt>
      <trkpt lat="48.76706" lon="7.33518">
        <ele>307.6</ele>
        <time>2020-05-10T11:34:03Z</time>
      </trkpt>
      <trkpt lat="48.76706" lon="7.33516">
        <ele>308.7</ele>
        <time>2020-05-10T11:34:04Z</time>
      </trkpt>
      <trkpt lat="48.76706" lon="7.33515">
        <ele>309</ele>
        <time>2020-05-10T11:34:05Z</time>
      </trkpt>
      <trkpt lat="48.76707" lon="7.33506">
        <ele>310.5</ele>
        <time>2020-05-10T11:34:07Z</time>
      </trkpt>
      <trkpt lat="48.76706" lon="7.33502">
        <ele>311.4</ele>
        <time>2020-05-10T11:34:08Z</time>
      </trkpt>
      <trkpt lat="48.76705" lon="7.33497">
        <ele>312.2</ele>
        <time>2020-05-10T11:34:10Z</time>
      </trkpt>
      <trkpt lat="48.76705" lon="7.33494">
        <ele>313</ele>
        <time>2020-05-10T11:34:12Z</time>
      </trkpt>
      <trkpt lat="48.76707" lon="7.33489">
        <ele>313.9</ele>
        <time>2020-05-10T11:34:14Z</time>
      </trkpt>
      <trkpt lat="48.76707" lon="7.33484">
        <ele>314.8</ele>
        <time>2020-05-10T11:34:16Z</time>
      </trkpt>
      <trkpt lat="48.76708" lon="7.33481">
        <ele>315</ele>
        <time>2020-05-10T11:34:17Z</time>
      </trkpt>
      <trkpt lat="48.76709" lon="7.3348">
        <ele>315.3</ele>
        <time>2020-05-10T11:34:18Z</time>
      </trkpt>
      <trkpt lat="48.76709" lon="7.33476">
        <ele>316.4</ele>
        <time>2020-05-10T11:34:20Z</time>
      </trkpt>
      <trkpt lat="48.76708" lon="7.33473">
        <ele>317.4</ele>
        <time>2020-05-10T11:34:22Z</time>
      </trkpt>
      <trkpt lat="48.76709" lon="7.3347">
        <ele>318.4</ele>
        <time>2020-05-10T11:34:24Z</time>
      </trkpt>
      <trkpt lat="48.76708" lon="7.33468">
        <ele>319.6</ele>
        <time>2020-05-10T11:34:26Z</time>
      </trkpt>
      <trkpt lat="48.76707" lon="7.33466">
        <ele>320.5</ele>
        <time>2020-05-10T11:34:27Z</time>
      </trkpt>
      <trkpt lat="48.76706" lon="7.33462">
        <ele>321.4</ele>
        <time>2020-05-10T11:34:29Z</time>
      </trkpt>
      <trkpt lat="48.76706" lon="7.33461">
        <ele>321.7</ele>
        <time>2020-05-10T11:34:30Z</time>
      </trkpt>
      <trkpt lat="48.76706" lon="7.3346">
        <ele>322.1</ele>
        <time>2020-05-10T11:34:31Z</time>
      </trkpt>
      <trkpt lat="48.76705" lon="7.3346">
        <ele>322.4</ele>
        <time>2020-05-10T11:34:33Z</time>
      </trkpt>
      <trkpt lat="48.76705" lon="7.33459">
        <ele>322.8</ele>
        <time>2020-05-10T11:34:34Z</time>
      </trkpt>
      <trkpt lat="48.76705" lon="7.33458">
        <ele>323.9</ele>
        <time>2020-05-10T11:34:35Z</time>
      </trkpt>
      <trkpt lat="48.76703" lon="7.33456">
        <ele>324.8</ele>
        <time>2020-05-10T11:34:37Z</time>
      </trkpt>
      <trkpt lat="48.76702" lon="7.33454">
        <ele>326</ele>
        <time>2020-05-10T11:34:39Z</time>
      </trkpt>
      <trkpt lat="48.76701" lon="7.3345">
        <ele>326.8</ele>
        <time>2020-05-10T11:34:41Z</time>
      </trkpt>
      <trkpt lat="48.767" lon="7.33445">
        <ele>327</ele>
        <time>2020-05-10T11:34:43Z</time>
      </trkpt>
      <trkpt lat="48.76699" lon="7.33442">
        <ele>327.1</ele>
        <time>2020-05-10T11:34:44Z</time>
      </trkpt>
      <trkpt lat="48.76699" lon="7.3344">
        <ele>327.2</ele>
        <time>2020-05-10T11:34:45Z</time>
      </trkpt>
      <trkpt lat="48.76699" lon="7.33434">
        <ele>327.5</ele>
        <time>2020-05-10T11:34:47Z</time>
      </trkpt>
      <trkpt lat="48.76697" lon="7.33428">
        <ele>327.8</ele>
        <time>2020-05-10T11:34:49Z</time>
      </trkpt>
      <trkpt lat="48.76699" lon="7.3342">
        <ele>328.2</ele>
        <time>2020-05-10T11:34:51Z</time>
      </trkpt>
      <trkpt lat="48.76699" lon="7.33414">
        <ele>328.5</ele>
        <time>2020-05-10T11:34:53Z</time>
      </trkpt>
      <trkpt lat="48.76699" lon="7.33406">
        <ele>328.9</ele>
        <time>2020-05-10T11:34:55Z</time>
      </trkpt>
      <trkpt lat="48.76699" lon="7.33398">
        <ele>329.2</ele>
        <time>2020-05-10T11:34:57Z</time>
      </trkpt>
      <trkpt lat="48.767" lon="7.33393">
        <ele>329.5</ele>
        <time>2020-05-10T11:34:58Z</time>
      </trkpt>
      <trkpt lat="48.767" lon="7.33391">
        <ele>329.6</ele>
        <time>2020-05-10T11:34:59Z</time>
      </trkpt>
      <trkpt lat="48.767" lon="7.33389">
        <ele>329.6</ele>
        <time>2020-05-10T11:35:00Z</time>
      </trkpt>
      <trkpt lat="48.76703" lon="7.33382">
        <ele>330.1</ele>
        <time>2020-05-10T11:35:02Z</time>
      </trkpt>
      <trkpt lat="48.76703" lon="7.33378">
        <ele>330.3</ele>
        <time>2020-05-10T11:35:03Z</time>
      </trkpt>
      <trkpt lat="48.76703" lon="7.33371">
        <ele>330.7</ele>
        <time>2020-05-10T11:35:05Z</time>
      </trkpt>
      <trkpt lat="48.76702" lon="7.33363">
        <ele>331.1</ele>
        <time>2020-05-10T11:35:07Z</time>
      </trkpt>
      <trkpt lat="48.76701" lon="7.3336">
        <ele>331.3</ele>
        <time>2020-05-10T11:35:08Z</time>
      </trkpt>
      <trkpt lat="48.76699" lon="7.33354">
        <ele>331.7</ele>
        <time>2020-05-10T11:35:10Z</time>
      </trkpt>
      <trkpt lat="48.76698" lon="7.33351">
        <ele>331.9</ele>
        <time>2020-05-10T11:35:11Z</time>
      </trkpt>
      <trkpt lat="48.76696" lon="7.33349">
        <ele>332.1</ele>
        <time>2020-05-10T11:35:13Z</time>
      </trkpt>
      <trkpt lat="48.76696" lon="7.33349">
        <ele>332.1</ele>
        <time>2020-05-10T11:35:14Z</time>
      </trkpt>
      <trkpt lat="48.76696" lon="7.33348">
        <ele>332.2</ele>
        <time>2020-05-10T11:35:15Z</time>
      </trkpt>
      <trkpt lat="48.76695" lon="7.33347">
        <ele>332.2</ele>
        <time>2020-05-10T11:35:16Z</time>
      </trkpt>
      <trkpt lat="48.76695" lon="7.33345">
        <ele>332.4</ele>
        <time>2020-05-10T11:35:18Z</time>
      </trkpt>
      <trkpt lat="48.76694" lon="7.33344">
        <ele>332.5</ele>
        <time>2020-05-10T11:35:19Z</time>
      </trkpt>
      <trkpt lat="48.76693" lon="7.33344">
        <ele>332.6</ele>
        <time>2020-05-10T11:35:21Z</time>
      </trkpt>
      <trkpt lat="48.76693" lon="7.33343">
        <ele>332.6</ele>
        <time>2020-05-10T11:35:22Z</time>
      </trkpt>
      <trkpt lat="48.76693" lon="7.33343">
        <ele>332.6</ele>
        <time>2020-05-10T11:35:23Z</time>
      </trkpt>
      <trkpt lat="48.76693" lon="7.33343">
        <ele>332.7</ele>
        <time>2020-05-10T11:35:24Z</time>
      </trkpt>
      <trkpt lat="48.76694" lon="7.33343">
        <ele>332.8</ele>
        <time>2020-05-10T11:35:26Z</time>
      </trkpt>
      <trkpt lat="48.76695" lon="7.33343">
        <ele>332.8</ele>
        <time>2020-05-10T11:35:27Z</time>
      </trkpt>
      <trkpt lat="48.76694" lon="7.33342">
        <ele>332.9</ele>
        <time>2020-05-10T11:35:29Z</time>
      </trkpt>
      <trkpt lat="48.76693" lon="7.3334">
        <ele>333.1</ele>
        <time>2020-05-10T11:35:30Z</time>
      </trkpt>
      <trkpt lat="48.76693" lon="7.33339">
        <ele>333.1</ele>
        <time>2020-05-10T11:35:31Z</time>
      </trkpt>
      <trkpt lat="48.76693" lon="7.33337">
        <ele>333.3</ele>
        <time>2020-05-10T11:35:32Z</time>
      </trkpt>
      <trkpt lat="48.76693" lon="7.33333">
        <ele>333.5</ele>
        <time>2020-05-10T11:35:34Z</time>
      </trkpt>
      <trkpt lat="48.76694" lon="7.33328">
        <ele>333.9</ele>
        <time>2020-05-10T11:35:35Z</time>
      </trkpt>
      <trkpt lat="48.76694" lon="7.33326">
        <ele>334</ele>
        <time>2020-05-10T11:35:36Z</time>
      </trkpt>
      <trkpt lat="48.76694" lon="7.33321">
        <ele>334.3</ele>
        <time>2020-05-10T11:35:38Z</time>
      </trkpt>
      <trkpt lat="48.76693" lon="7.33317">
        <ele>334.5</ele>
        <time>2020-05-10T11:35:39Z</time>
      </trkpt>
      <trkpt lat="48.76692" lon="7.33311">
        <ele>334.9</ele>
        <time>2020-05-10T11:35:41Z</time>
      </trkpt>
      <trkpt lat="48.76689" lon="7.33307">
        <ele>335.2</ele>
        <time>2020-05-10T11:35:42Z</time>
      </trkpt>
      <trkpt lat="48.76687" lon="7.333">
        <ele>335.7</ele>
        <time>2020-05-10T11:35:44Z</time>
      </trkpt>
      <trkpt lat="48.76686" lon="7.33294">
        <ele>336.1</ele>
        <time>2020-05-10T11:35:45Z</time>
      </trkpt>
      <trkpt lat="48.76686" lon="7.33292">
        <ele>336.2</ele>
        <time>2020-05-10T11:35:46Z</time>
      </trkpt>
      <trkpt lat="48.76686" lon="7.33286">
        <ele>336.5</ele>
        <time>2020-05-10T11:35:48Z</time>
      </trkpt>
      <trkpt lat="48.76686" lon="7.33283">
        <ele>336.8</ele>
        <time>2020-05-10T11:35:49Z</time>
      </trkpt>
      <trkpt lat="48.76684" lon="7.33277">
        <ele>337.2</ele>
        <time>2020-05-10T11:35:51Z</time>
      </trkpt>
      <trkpt lat="48.76683" lon="7.33275">
        <ele>337.3</ele>
        <time>2020-05-10T11:35:52Z</time>
      </trkpt>
      <trkpt lat="48.76683" lon="7.33268">
        <ele>337.7</ele>
        <time>2020-05-10T11:35:54Z</time>
      </trkpt>
      <trkpt lat="48.76683" lon="7.33265">
        <ele>337.9</ele>
        <time>2020-05-10T11:35:55Z</time>
      </trkpt>
      <trkpt lat="48.76685" lon="7.33259">
        <ele>338.2</ele>
        <time>2020-05-10T11:35:57Z</time>
      </trkpt>
      <trkpt lat="48.76685" lon="7.33258">
        <ele>338.4</ele>
        <time>2020-05-10T11:35:58Z</time>
      </trkpt>
      <trkpt lat="48.76685" lon="7.33254">
        <ele>338.5</ele>
        <time>2020-05-10T11:35:59Z</time>
      </trkpt>
      <trkpt lat="48.76683" lon="7.33248">
        <ele>338.9</ele>
        <time>2020-05-10T11:36:01Z</time>
      </trkpt>
      <trkpt lat="48.76681" lon="7.33244">
        <ele>339.2</ele>
        <time>2020-05-10T11:36:02Z</time>
      </trkpt>
      <trkpt lat="48.7668" lon="7.33241">
        <ele>339.4</ele>
        <time>2020-05-10T11:36:03Z</time>
      </trkpt>
      <trkpt lat="48.76678" lon="7.33238">
        <ele>339.6</ele>
        <time>2020-05-10T11:36:04Z</time>
      </trkpt>
      <trkpt lat="48.76676" lon="7.33232">
        <ele>340</ele>
        <time>2020-05-10T11:36:06Z</time>
      </trkpt>
      <trkpt lat="48.76675" lon="7.33227">
        <ele>340.2</ele>
        <time>2020-05-10T11:36:08Z</time>
      </trkpt>
      <trkpt lat="48.76675" lon="7.33225">
        <ele>340.4</ele>
        <time>2020-05-10T11:36:09Z</time>
      </trkpt>
      <trkpt lat="48.76673" lon="7.3322">
        <ele>340.6</ele>
        <time>2020-05-10T11:36:11Z</time>
      </trkpt>
      <trkpt lat="48.7667" lon="7.33214">
        <ele>341</ele>
        <time>2020-05-10T11:36:13Z</time>
      </trkpt>
      <trkpt lat="48.76668" lon="7.33209">
        <ele>341.3</ele>
        <time>2020-05-10T11:36:15Z</time>
      </trkpt>
      <trkpt lat="48.76667" lon="7.33204">
        <ele>341.6</ele>
        <time>2020-05-10T11:36:17Z</time>
      </trkpt>
      <trkpt lat="48.76668" lon="7.33199">
        <ele>341.9</ele>
        <time>2020-05-10T11:36:19Z</time>
      </trkpt>
      <trkpt lat="48.76669" lon="7.33191">
        <ele>342.3</ele>
        <time>2020-05-10T11:36:21Z</time>
      </trkpt>
      <trkpt lat="48.76669" lon="7.33189">
        <ele>342.5</ele>
        <time>2020-05-10T11:36:23Z</time>
      </trkpt>
      <trkpt lat="48.76669" lon="7.33187">
        <ele>342.6</ele>
        <time>2020-05-10T11:36:24Z</time>
      </trkpt>
      <trkpt lat="48.76669" lon="7.33181">
        <ele>342.9</ele>
        <time>2020-05-10T11:36:26Z</time>
      </trkpt>
      <trkpt lat="48.76669" lon="7.3318">
        <ele>343</ele>
        <time>2020-05-10T11:36:27Z</time>
      </trkpt>
      <trkpt lat="48.76667" lon="7.33175">
        <ele>343.3</ele>
        <time>2020-05-10T11:36:29Z</time>
      </trkpt>
      <trkpt lat="48.76666" lon="7.33172">
        <ele>343.5</ele>
        <time>2020-05-10T11:36:30Z</time>
      </trkpt>
      <trkpt lat="48.76665" lon="7.3317">
        <ele>343.6</ele>
        <time>2020-05-10T11:36:31Z</time>
      </trkpt>
      <trkpt lat="48.76664" lon="7.33165">
        <ele>343.9</ele>
        <time>2020-05-10T11:36:33Z</time>
      </trkpt>
      <trkpt lat="48.76663" lon="7.33162">
        <ele>344</ele>
        <time>2020-05-10T11:36:34Z</time>
      </trkpt>
      <trkpt lat="48.76662" lon="7.33156">
        <ele>344.3</ele>
        <time>2020-05-10T11:36:36Z</time>
      </trkpt>
      <trkpt lat="48.76661" lon="7.33151">
        <ele>344.6</ele>
        <time>2020-05-10T11:36:37Z</time>
      </trkpt>
      <trkpt lat="48.7666" lon="7.33149">
        <ele>344.7</ele>
        <time>2020-05-10T11:36:38Z</time>
      </trkpt>
      <trkpt lat="48.7666" lon="7.33146">
        <ele>344.8</ele>
        <time>2020-05-10T11:36:39Z</time>
      </trkpt>
      <trkpt lat="48.7666" lon="7.33139">
        <ele>345.1</ele>
        <time>2020-05-10T11:36:41Z</time>
      </trkpt>
      <trkpt lat="48.76661" lon="7.33136">
        <ele>345.3</ele>
        <time>2020-05-10T11:36:42Z</time>
      </trkpt>
      <trkpt lat="48.76664" lon="7.33131">
        <ele>345.6</ele>
        <time>2020-05-10T11:36:44Z</time>
      </trkpt>
      <trkpt lat="48.76664" lon="7.33126">
        <ele>345.9</ele>
        <time>2020-05-10T11:36:46Z</time>
      </trkpt>
      <trkpt lat="48.76664" lon="7.33122">
        <ele>346.1</ele>
        <time>2020-05-10T11:36:47Z</time>
      </trkpt>
      <trkpt lat="48.76664" lon="7.33117">
        <ele>346.4</ele>
        <time>2020-05-10T11:36:48Z</time>
      </trkpt>
      <trkpt lat="48.76664" lon="7.33114">
        <ele>346.5</ele>
        <time>2020-05-10T11:36:50Z</time>
      </trkpt>
      <trkpt lat="48.76661" lon="7.33107">
        <ele>346.9</ele>
        <time>2020-05-10T11:36:52Z</time>
      </trkpt>
      <trkpt lat="48.76658" lon="7.33103">
        <ele>347.2</ele>
        <time>2020-05-10T11:36:54Z</time>
      </trkpt>
      <trkpt lat="48.76655" lon="7.33097">
        <ele>347.6</ele>
        <time>2020-05-10T11:36:56Z</time>
      </trkpt>
      <trkpt lat="48.76653" lon="7.33092">
        <ele>347.9</ele>
        <time>2020-05-10T11:36:57Z</time>
      </trkpt>
      <trkpt lat="48.76651" lon="7.33089">
        <ele>348.2</ele>
        <time>2020-05-10T11:36:58Z</time>
      </trkpt>
      <trkpt lat="48.76649" lon="7.33086">
        <ele>348.4</ele>
        <time>2020-05-10T11:36:59Z</time>
      </trkpt>
      <trkpt lat="48.76649" lon="7.33081">
        <ele>348.6</ele>
        <time>2020-05-10T11:37:01Z</time>
      </trkpt>
      <trkpt lat="48.76648" lon="7.33079">
        <ele>348.7</ele>
        <time>2020-05-10T11:37:02Z</time>
      </trkpt>
      <trkpt lat="48.76649" lon="7.33076">
        <ele>348.9</ele>
        <time>2020-05-10T11:37:03Z</time>
      </trkpt>
      <trkpt lat="48.76649" lon="7.33069">
        <ele>349.3</ele>
        <time>2020-05-10T11:37:05Z</time>
      </trkpt>
      <trkpt lat="48.76649" lon="7.33066">
        <ele>349.5</ele>
        <time>2020-05-10T11:37:07Z</time>
      </trkpt>
      <trkpt lat="48.76648" lon="7.33063">
        <ele>349.6</ele>
        <time>2020-05-10T11:37:08Z</time>
      </trkpt>
      <trkpt lat="48.76648" lon="7.3306">
        <ele>349.8</ele>
        <time>2020-05-10T11:37:09Z</time>
      </trkpt>
      <trkpt lat="48.76647" lon="7.33053">
        <ele>350.2</ele>
        <time>2020-05-10T11:37:11Z</time>
      </trkpt>
      <trkpt lat="48.76646" lon="7.33045">
        <ele>350.6</ele>
        <time>2020-05-10T11:37:13Z</time>
      </trkpt>
      <trkpt lat="48.76643" lon="7.33038">
        <ele>351.1</ele>
        <time>2020-05-10T11:37:15Z</time>
      </trkpt>
      <trkpt lat="48.7664" lon="7.33032">
        <ele>351.5</ele>
        <time>2020-05-10T11:37:17Z</time>
      </trkpt>
      <trkpt lat="48.76639" lon="7.33028">
        <ele>351.7</ele>
        <time>2020-05-10T11:37:18Z</time>
      </trkpt>
      <trkpt lat="48.76638" lon="7.33026">
        <ele>351.8</ele>
        <time>2020-05-10T11:37:19Z</time>
      </trkpt>
      <trkpt lat="48.76637" lon="7.33019">
        <ele>352.2</ele>
        <time>2020-05-10T11:37:21Z</time>
      </trkpt>
      <trkpt lat="48.76636" lon="7.33013">
        <ele>352.5</ele>
        <time>2020-05-10T11:37:23Z</time>
      </trkpt>
      <trkpt lat="48.76635" lon="7.33009">
        <ele>352.7</ele>
        <time>2020-05-10T11:37:24Z</time>
      </trkpt>
      <trkpt lat="48.76632" lon="7.33002">
        <ele>353.1</ele>
        <time>2020-05-10T11:37:26Z</time>
      </trkpt>
      <trkpt lat="48.76631" lon="7.32998">
        <ele>353.3</ele>
        <time>2020-05-10T11:37:27Z</time>
      </trkpt>
      <trkpt lat="48.76629" lon="7.32992">
        <ele>353.6</ele>
        <time>2020-05-10T11:37:29Z</time>
      </trkpt>
      <trkpt lat="48.76629" lon="7.3299">
        <ele>353.7</ele>
        <time>2020-05-10T11:37:30Z</time>
      </trkpt>
      <trkpt lat="48.76626" lon="7.32983">
        <ele>354.2</ele>
        <time>2020-05-10T11:37:32Z</time>
      </trkpt>
      <trkpt lat="48.76626" lon="7.3298">
        <ele>354.3</ele>
        <time>2020-05-10T11:37:33Z</time>
      </trkpt>
      <trkpt lat="48.76626" lon="7.32975">
        <ele>354.5</ele>
        <time>2020-05-10T11:37:35Z</time>
      </trkpt>
      <trkpt lat="48.76626" lon="7.32972">
        <ele>354.7</ele>
        <time>2020-05-10T11:37:36Z</time>
      </trkpt>
      <trkpt lat="48.76626" lon="7.32965">
        <ele>355.1</ele>
        <time>2020-05-10T11:37:38Z</time>
      </trkpt>
      <trkpt lat="48.76625" lon="7.32961">
        <ele>355.3</ele>
        <time>2020-05-10T11:37:39Z</time>
      </trkpt>
      <trkpt lat="48.76624" lon="7.32954">
        <ele>355.7</ele>
        <time>2020-05-10T11:37:41Z</time>
      </trkpt>
      <trkpt lat="48.76624" lon="7.32952">
        <ele>355.9</ele>
        <time>2020-05-10T11:37:42Z</time>
      </trkpt>
      <trkpt lat="48.76624" lon="7.3295">
        <ele>356</ele>
        <time>2020-05-10T11:37:43Z</time>
      </trkpt>
      <trkpt lat="48.76624" lon="7.32942">
        <ele>356.5</ele>
        <time>2020-05-10T11:37:45Z</time>
      </trkpt>
      <trkpt lat="48.76624" lon="7.32938">
        <ele>356.7</ele>
        <time>2020-05-10T11:37:46Z</time>
      </trkpt>
      <trkpt lat="48.7662" lon="7.32934">
        <ele>357.2</ele>
        <time>2020-05-10T11:37:48Z</time>
      </trkpt>
      <trkpt lat="48.76616" lon="7.3293">
        <ele>357.6</ele>
        <time>2020-05-10T11:37:50Z</time>
      </trkpt>
      <trkpt lat="48.76615" lon="7.32924">
        <ele>358</ele>
        <time>2020-05-10T11:37:52Z</time>
      </trkpt>
      <trkpt lat="48.76611" lon="7.32917">
        <ele>358.5</ele>
        <time>2020-05-10T11:37:54Z</time>
      </trkpt>
      <trkpt lat="48.7661" lon="7.32915">
        <ele>358.7</ele>
        <time>2020-05-10T11:37:55Z</time>
      </trkpt>
      <trkpt lat="48.76607" lon="7.32909">
        <ele>359</ele>
        <time>2020-05-10T11:37:57Z</time>
      </trkpt>
      <trkpt lat="48.76606" lon="7.32904">
        <ele>359.3</ele>
        <time>2020-05-10T11:37:59Z</time>
      </trkpt>
      <trkpt lat="48.76604" lon="7.32899">
        <ele>359.6</ele>
        <time>2020-05-10T11:38:00Z</time>
      </trkpt>
      <trkpt lat="48.76603" lon="7.32895">
        <ele>359.8</ele>
        <time>2020-05-10T11:38:01Z</time>
      </trkpt>
      <trkpt lat="48.76603" lon="7.32893">
        <ele>359.8</ele>
        <time>2020-05-10T11:38:02Z</time>
      </trkpt>
      <trkpt lat="48.76604" lon="7.32888">
        <ele>359.9</ele>
        <time>2020-05-10T11:38:04Z</time>
      </trkpt>
      <trkpt lat="48.76604" lon="7.32885">
        <ele>360</ele>
        <time>2020-05-10T11:38:05Z</time>
      </trkpt>
      <trkpt lat="48.76603" lon="7.32883">
        <ele>360</ele>
        <time>2020-05-10T11:38:06Z</time>
      </trkpt>
      <trkpt lat="48.76602" lon="7.32876">
        <ele>360.2</ele>
        <time>2020-05-10T11:38:08Z</time>
      </trkpt>
      <trkpt lat="48.76601" lon="7.32873">
        <ele>360.2</ele>
        <time>2020-05-10T11:38:09Z</time>
      </trkpt>
      <trkpt lat="48.766" lon="7.32871">
        <ele>360.3</ele>
        <time>2020-05-10T11:38:10Z</time>
      </trkpt>
      <trkpt lat="48.766" lon="7.32867">
        <ele>360.4</ele>
        <time>2020-05-10T11:38:12Z</time>
      </trkpt>
      <trkpt lat="48.76601" lon="7.32865">
        <ele>360.4</ele>
        <time>2020-05-10T11:38:13Z</time>
      </trkpt>
      <trkpt lat="48.76601" lon="7.32859">
        <ele>360.5</ele>
        <time>2020-05-10T11:38:15Z</time>
      </trkpt>
      <trkpt lat="48.766" lon="7.32853">
        <ele>360.6</ele>
        <time>2020-05-10T11:38:17Z</time>
      </trkpt>
      <trkpt lat="48.76599" lon="7.32849">
        <ele>360.8</ele>
        <time>2020-05-10T11:38:18Z</time>
      </trkpt>
      <trkpt lat="48.76599" lon="7.32848">
        <ele>360.8</ele>
        <time>2020-05-10T11:38:19Z</time>
      </trkpt>
      <trkpt lat="48.76598" lon="7.32841">
        <ele>360.9</ele>
        <time>2020-05-10T11:38:21Z</time>
      </trkpt>
      <trkpt lat="48.76598" lon="7.32838">
        <ele>360.9</ele>
        <time>2020-05-10T11:38:23Z</time>
      </trkpt>
      <trkpt lat="48.76598" lon="7.32835">
        <ele>361</ele>
        <time>2020-05-10T11:38:24Z</time>
      </trkpt>
      <trkpt lat="48.76598" lon="7.32832">
        <ele>361</ele>
        <time>2020-05-10T11:38:25Z</time>
      </trkpt>
      <trkpt lat="48.76599" lon="7.32821">
        <ele>361.1</ele>
        <time>2020-05-10T11:38:27Z</time>
      </trkpt>
      <trkpt lat="48.766" lon="7.32814">
        <ele>361.2</ele>
        <time>2020-05-10T11:38:28Z</time>
      </trkpt>
      <trkpt lat="48.76601" lon="7.32807">
        <ele>361.2</ele>
        <time>2020-05-10T11:38:29Z</time>
      </trkpt>
      <trkpt lat="48.76601" lon="7.32801">
        <ele>361.3</ele>
        <time>2020-05-10T11:38:30Z</time>
      </trkpt>
      <trkpt lat="48.76602" lon="7.32792">
        <ele>361.3</ele>
        <time>2020-05-10T11:38:32Z</time>
      </trkpt>
      <trkpt lat="48.76602" lon="7.32786">
        <ele>361.4</ele>
        <time>2020-05-10T11:38:33Z</time>
      </trkpt>
      <trkpt lat="48.76603" lon="7.32783">
        <ele>361.4</ele>
        <time>2020-05-10T11:38:34Z</time>
      </trkpt>
      <trkpt lat="48.76605" lon="7.32772">
        <ele>361.4</ele>
        <time>2020-05-10T11:38:36Z</time>
      </trkpt>
      <trkpt lat="48.76607" lon="7.32768">
        <ele>361.5</ele>
        <time>2020-05-10T11:38:37Z</time>
      </trkpt>
      <trkpt lat="48.76612" lon="7.32753">
        <ele>361.6</ele>
        <time>2020-05-10T11:38:39Z</time>
      </trkpt>
      <trkpt lat="48.76618" lon="7.32741">
        <ele>361.7</ele>
        <time>2020-05-10T11:38:40Z</time>
      </trkpt>
      <trkpt lat="48.76632" lon="7.3273">
        <ele>362</ele>
        <time>2020-05-10T11:38:42Z</time>
      </trkpt>
      <trkpt lat="48.76639" lon="7.32729">
        <ele>362.2</ele>
        <time>2020-05-10T11:38:43Z</time>
      </trkpt>
      <trkpt lat="48.76643" lon="7.32727">
        <ele>362.4</ele>
        <time>2020-05-10T11:38:44Z</time>
      </trkpt>
      <trkpt lat="48.7665" lon="7.32732">
        <ele>362.6</ele>
        <time>2020-05-10T11:38:46Z</time>
      </trkpt>
      <trkpt lat="48.76657" lon="7.32737">
        <ele>362.9</ele>
        <time>2020-05-10T11:38:48Z</time>
      </trkpt>
      <trkpt lat="48.76664" lon="7.32741">
        <ele>363.1</ele>
        <time>2020-05-10T11:38:50Z</time>
      </trkpt>
      <trkpt lat="48.76667" lon="7.32745">
        <ele>363</ele>
        <time>2020-05-10T11:38:51Z</time>
      </trkpt>
      <trkpt lat="48.76668" lon="7.3275">
        <ele>363</ele>
        <time>2020-05-10T11:38:52Z</time>
      </trkpt>
      <trkpt lat="48.7667" lon="7.3276">
        <ele>362.9</ele>
        <time>2020-05-10T11:38:54Z</time>
      </trkpt>
      <trkpt lat="48.76671" lon="7.32764">
        <ele>362.9</ele>
        <time>2020-05-10T11:38:55Z</time>
      </trkpt>
      <trkpt lat="48.76674" lon="7.32769">
        <ele>362.9</ele>
        <time>2020-05-10T11:38:56Z</time>
      </trkpt>
      <trkpt lat="48.76675" lon="7.32771">
        <ele>362.9</ele>
        <time>2020-05-10T11:38:57Z</time>
      </trkpt>
      <trkpt lat="48.76677" lon="7.32776">
        <ele>362.9</ele>
        <time>2020-05-10T11:38:59Z</time>
      </trkpt>
      <trkpt lat="48.7668" lon="7.32779">
        <ele>363</ele>
        <time>2020-05-10T11:39:00Z</time>
      </trkpt>
      <trkpt lat="48.76685" lon="7.32786">
        <ele>363.1</ele>
        <time>2020-05-10T11:39:02Z</time>
      </trkpt>
      <trkpt lat="48.76686" lon="7.3279">
        <ele>363.2</ele>
        <time>2020-05-10T11:39:03Z</time>
      </trkpt>
      <trkpt lat="48.76688" lon="7.32796">
        <ele>363.3</ele>
        <time>2020-05-10T11:39:05Z</time>
      </trkpt>
      <trkpt lat="48.76691" lon="7.32799">
        <ele>363.3</ele>
        <time>2020-05-10T11:39:07Z</time>
      </trkpt>
      <trkpt lat="48.76693" lon="7.32804">
        <ele>363.4</ele>
        <time>2020-05-10T11:39:09Z</time>
      </trkpt>
      <trkpt lat="48.76693" lon="7.3281">
        <ele>363.5</ele>
        <time>2020-05-10T11:39:10Z</time>
      </trkpt>
      <trkpt lat="48.76694" lon="7.32812">
        <ele>363.5</ele>
        <time>2020-05-10T11:39:11Z</time>
      </trkpt>
      <trkpt lat="48.76695" lon="7.32816">
        <ele>363.6</ele>
        <time>2020-05-10T11:39:12Z</time>
      </trkpt>
      <trkpt lat="48.76696" lon="7.32817">
        <ele>363.6</ele>
        <time>2020-05-10T11:39:13Z</time>
      </trkpt>
      <trkpt lat="48.76697" lon="7.32821">
        <ele>363.6</ele>
        <time>2020-05-10T11:39:14Z</time>
      </trkpt>
      <trkpt lat="48.76699" lon="7.32828">
        <ele>363.6</ele>
        <time>2020-05-10T11:39:16Z</time>
      </trkpt>
      <trkpt lat="48.76701" lon="7.32832">
        <ele>363.6</ele>
        <time>2020-05-10T11:39:17Z</time>
      </trkpt>
      <trkpt lat="48.76703" lon="7.32839">
        <ele>363.6</ele>
        <time>2020-05-10T11:39:19Z</time>
      </trkpt>
      <trkpt lat="48.76703" lon="7.32843">
        <ele>363.5</ele>
        <time>2020-05-10T11:39:20Z</time>
      </trkpt>
      <trkpt lat="48.76705" lon="7.32851">
        <ele>363.4</ele>
        <time>2020-05-10T11:39:22Z</time>
      </trkpt>
      <trkpt lat="48.76709" lon="7.32859">
        <ele>363.3</ele>
        <time>2020-05-10T11:39:24Z</time>
      </trkpt>
      <trkpt lat="48.76712" lon="7.32863">
        <ele>363.2</ele>
        <time>2020-05-10T11:39:25Z</time>
      </trkpt>
      <trkpt lat="48.76715" lon="7.32868">
        <ele>363.1</ele>
        <time>2020-05-10T11:39:26Z</time>
      </trkpt>
      <trkpt lat="48.76718" lon="7.32875">
        <ele>362.9</ele>
        <time>2020-05-10T11:39:28Z</time>
      </trkpt>
      <trkpt lat="48.7672" lon="7.32881">
        <ele>362.8</ele>
        <time>2020-05-10T11:39:29Z</time>
      </trkpt>
      <trkpt lat="48.76722" lon="7.32888">
        <ele>362.7</ele>
        <time>2020-05-10T11:39:31Z</time>
      </trkpt>
      <trkpt lat="48.76724" lon="7.32895">
        <ele>362.6</ele>
        <time>2020-05-10T11:39:33Z</time>
      </trkpt>
      <trkpt lat="48.76725" lon="7.329">
        <ele>362.5</ele>
        <time>2020-05-10T11:39:34Z</time>
      </trkpt>
      <trkpt lat="48.76728" lon="7.3291">
        <ele>362.4</ele>
        <time>2020-05-10T11:39:36Z</time>
      </trkpt>
      <trkpt lat="48.76733" lon="7.32918">
        <ele>362.3</ele>
        <time>2020-05-10T11:39:38Z</time>
      </trkpt>
      <trkpt lat="48.76736" lon="7.32922">
        <ele>362.2</ele>
        <time>2020-05-10T11:39:39Z</time>
      </trkpt>
      <trkpt lat="48.7674" lon="7.32931">
        <ele>362.2</ele>
        <time>2020-05-10T11:39:41Z</time>
      </trkpt>
      <trkpt lat="48.76745" lon="7.32942">
        <ele>362.1</ele>
        <time>2020-05-10T11:39:43Z</time>
      </trkpt>
      <trkpt lat="48.76752" lon="7.32956">
        <ele>362</ele>
        <time>2020-05-10T11:39:45Z</time>
      </trkpt>
      <trkpt lat="48.76759" lon="7.3297">
        <ele>362</ele>
        <time>2020-05-10T11:39:47Z</time>
      </trkpt>
      <trkpt lat="48.7676" lon="7.32976">
        <ele>362</ele>
        <time>2020-05-10T11:39:48Z</time>
      </trkpt>
      <trkpt lat="48.76761" lon="7.32984">
        <ele>361.9</ele>
        <time>2020-05-10T11:39:50Z</time>
      </trkpt>
      <trkpt lat="48.76761" lon="7.32993">
        <ele>361.9</ele>
        <time>2020-05-10T11:39:52Z</time>
      </trkpt>
      <trkpt lat="48.76762" lon="7.32998">
        <ele>361.9</ele>
        <time>2020-05-10T11:39:53Z</time>
      </trkpt>
      <trkpt lat="48.76764" lon="7.33002">
        <ele>361.9</ele>
        <time>2020-05-10T11:39:54Z</time>
      </trkpt>
      <trkpt lat="48.76768" lon="7.33011">
        <ele>362</ele>
        <time>2020-05-10T11:39:56Z</time>
      </trkpt>
      <trkpt lat="48.76769" lon="7.33016">
        <ele>362</ele>
        <time>2020-05-10T11:39:57Z</time>
      </trkpt>
      <trkpt lat="48.7677" lon="7.33024">
        <ele>362</ele>
        <time>2020-05-10T11:39:59Z</time>
      </trkpt>
      <trkpt lat="48.76771" lon="7.33027">
        <ele>362.1</ele>
        <time>2020-05-10T11:40:00Z</time>
      </trkpt>
      <trkpt lat="48.76772" lon="7.33035">
        <ele>362.1</ele>
        <time>2020-05-10T11:40:02Z</time>
      </trkpt>
      <trkpt lat="48.76773" lon="7.33039">
        <ele>362.2</ele>
        <time>2020-05-10T11:40:03Z</time>
      </trkpt>
      <trkpt lat="48.76776" lon="7.33047">
        <ele>362.3</ele>
        <time>2020-05-10T11:40:05Z</time>
      </trkpt>
      <trkpt lat="48.76778" lon="7.33051">
        <ele>362.3</ele>
        <time>2020-05-10T11:40:06Z</time>
      </trkpt>
      <trkpt lat="48.76781" lon="7.33055">
        <ele>362.4</ele>
        <time>2020-05-10T11:40:08Z</time>
      </trkpt>
      <trkpt lat="48.76784" lon="7.33055">
        <ele>362.4</ele>
        <time>2020-05-10T11:40:09Z</time>
      </trkpt>
      <trkpt lat="48.76788" lon="7.33056">
        <ele>362.5</ele>
        <time>2020-05-10T11:40:11Z</time>
      </trkpt>
      <trkpt lat="48.76793" lon="7.33066">
        <ele>362.6</ele>
        <time>2020-05-10T11:40:13Z</time>
      </trkpt>
      <trkpt lat="48.76798" lon="7.33075">
        <ele>362.7</ele>
        <time>2020-05-10T11:40:15Z</time>
      </trkpt>
      <trkpt lat="48.76802" lon="7.33082">
        <ele>362.9</ele>
        <time>2020-05-10T11:40:17Z</time>
      </trkpt>
      <trkpt lat="48.76805" lon="7.3309">
        <ele>363</ele>
        <time>2020-05-10T11:40:19Z</time>
      </trkpt>
      <trkpt lat="48.76809" lon="7.33099">
        <ele>363.3</ele>
        <time>2020-05-10T11:40:21Z</time>
      </trkpt>
      <trkpt lat="48.76812" lon="7.33104">
        <ele>363.5</ele>
        <time>2020-05-10T11:40:23Z</time>
      </trkpt>
      <trkpt lat="48.76816" lon="7.33111">
        <ele>363.7</ele>
        <time>2020-05-10T11:40:25Z</time>
      </trkpt>
      <trkpt lat="48.76818" lon="7.33115">
        <ele>363.9</ele>
        <time>2020-05-10T11:40:26Z</time>
      </trkpt>
      <trkpt lat="48.76821" lon="7.33118">
        <ele>364</ele>
        <time>2020-05-10T11:40:27Z</time>
      </trkpt>
      <trkpt lat="48.76822" lon="7.3312">
        <ele>364.1</ele>
        <time>2020-05-10T11:40:28Z</time>
      </trkpt>
      <trkpt lat="48.76824" lon="7.33122">
        <ele>364.2</ele>
        <time>2020-05-10T11:40:29Z</time>
      </trkpt>
      <trkpt lat="48.76828" lon="7.33129">
        <ele>364.5</ele>
        <time>2020-05-10T11:40:31Z</time>
      </trkpt>
      <trkpt lat="48.76833" lon="7.33135">
        <ele>364.7</ele>
        <time>2020-05-10T11:40:33Z</time>
      </trkpt>
      <trkpt lat="48.76834" lon="7.33138">
        <ele>364.8</ele>
        <time>2020-05-10T11:40:34Z</time>
      </trkpt>
      <trkpt lat="48.76836" lon="7.33143">
        <ele>365</ele>
        <time>2020-05-10T11:40:36Z</time>
      </trkpt>
      <trkpt lat="48.76838" lon="7.33148">
        <ele>365.1</ele>
        <time>2020-05-10T11:40:38Z</time>
      </trkpt>
      <trkpt lat="48.76841" lon="7.33152">
        <ele>365.3</ele>
        <time>2020-05-10T11:40:40Z</time>
      </trkpt>
      <trkpt lat="48.76843" lon="7.33156">
        <ele>365.4</ele>
        <time>2020-05-10T11:40:41Z</time>
      </trkpt>
      <trkpt lat="48.76845" lon="7.3316">
        <ele>365.6</ele>
        <time>2020-05-10T11:40:43Z</time>
      </trkpt>
      <trkpt lat="48.76848" lon="7.33164">
        <ele>365.8</ele>
        <time>2020-05-10T11:40:44Z</time>
      </trkpt>
      <trkpt lat="48.7685" lon="7.33171">
        <ele>365.9</ele>
        <time>2020-05-10T11:40:46Z</time>
      </trkpt>
      <trkpt lat="48.76851" lon="7.33175">
        <ele>366.1</ele>
        <time>2020-05-10T11:40:47Z</time>
      </trkpt>
      <trkpt lat="48.76851" lon="7.33177">
        <ele>366.1</ele>
        <time>2020-05-10T11:40:48Z</time>
      </trkpt>
      <trkpt lat="48.76853" lon="7.33183">
        <ele>366.2</ele>
        <time>2020-05-10T11:40:50Z</time>
      </trkpt>
      <trkpt lat="48.76856" lon="7.33189">
        <ele>366.4</ele>
        <time>2020-05-10T11:40:52Z</time>
      </trkpt>
      <trkpt lat="48.76859" lon="7.33195">
        <ele>366.5</ele>
        <time>2020-05-10T11:40:54Z</time>
      </trkpt>
      <trkpt lat="48.76863" lon="7.33201">
        <ele>366.6</ele>
        <time>2020-05-10T11:40:56Z</time>
      </trkpt>
      <trkpt lat="48.76866" lon="7.33207">
        <ele>366.6</ele>
        <time>2020-05-10T11:40:58Z</time>
      </trkpt>
      <trkpt lat="48.76867" lon="7.33211">
        <ele>366.6</ele>
        <time>2020-05-10T11:40:59Z</time>
      </trkpt>
      <trkpt lat="48.76869" lon="7.33216">
        <ele>366.6</ele>
        <time>2020-05-10T11:41:01Z</time>
      </trkpt>
      <trkpt lat="48.76871" lon="7.33222">
        <ele>366.6</ele>
        <time>2020-05-10T11:41:02Z</time>
      </trkpt>
      <trkpt lat="48.76873" lon="7.33225">
        <ele>366.6</ele>
        <time>2020-05-10T11:41:03Z</time>
      </trkpt>
      <trkpt lat="48.76875" lon="7.33228">
        <ele>366.6</ele>
        <time>2020-05-10T11:41:04Z</time>
      </trkpt>
      <trkpt lat="48.76879" lon="7.33231">
        <ele>366.6</ele>
        <time>2020-05-10T11:41:06Z</time>
      </trkpt>
      <trkpt lat="48.76884" lon="7.33235">
        <ele>366.6</ele>
        <time>2020-05-10T11:41:08Z</time>
      </trkpt>
      <trkpt lat="48.76887" lon="7.33238">
        <ele>366.7</ele>
        <time>2020-05-10T11:41:09Z</time>
      </trkpt>
      <trkpt lat="48.76889" lon="7.33238">
        <ele>366.7</ele>
        <time>2020-05-10T11:41:10Z</time>
      </trkpt>
      <trkpt lat="48.76893" lon="7.33239">
        <ele>366.7</ele>
        <time>2020-05-10T11:41:12Z</time>
      </trkpt>
      <trkpt lat="48.76896" lon="7.33237">
        <ele>366.7</ele>
        <time>2020-05-10T11:41:14Z</time>
      </trkpt>
      <trkpt lat="48.76899" lon="7.33235">
        <ele>366.7</ele>
        <time>2020-05-10T11:41:15Z</time>
      </trkpt>
      <trkpt lat="48.76905" lon="7.33229">
        <ele>366.6</ele>
        <time>2020-05-10T11:41:17Z</time>
      </trkpt>
      <trkpt lat="48.76911" lon="7.33222">
        <ele>366.5</ele>
        <time>2020-05-10T11:41:19Z</time>
      </trkpt>
      <trkpt lat="48.76916" lon="7.33214">
        <ele>366.4</ele>
        <time>2020-05-10T11:41:21Z</time>
      </trkpt>
      <trkpt lat="48.76918" lon="7.3321">
        <ele>366.3</ele>
        <time>2020-05-10T11:41:22Z</time>
      </trkpt>
      <trkpt lat="48.76924" lon="7.33202">
        <ele>366.1</ele>
        <time>2020-05-10T11:41:24Z</time>
      </trkpt>
      <trkpt lat="48.7693" lon="7.33194">
        <ele>365.9</ele>
        <time>2020-05-10T11:41:26Z</time>
      </trkpt>
      <trkpt lat="48.76933" lon="7.33191">
        <ele>365.8</ele>
        <time>2020-05-10T11:41:27Z</time>
      </trkpt>
      <trkpt lat="48.76938" lon="7.33186">
        <ele>365.6</ele>
        <time>2020-05-10T11:41:29Z</time>
      </trkpt>
      <trkpt lat="48.76943" lon="7.33179">
        <ele>365.4</ele>
        <time>2020-05-10T11:41:31Z</time>
      </trkpt>
      <trkpt lat="48.7695" lon="7.33166">
        <ele>365</ele>
        <time>2020-05-10T11:41:33Z</time>
      </trkpt>
      <trkpt lat="48.76958" lon="7.33153">
        <ele>364.5</ele>
        <time>2020-05-10T11:41:35Z</time>
      </trkpt>
      <trkpt lat="48.76966" lon="7.33141">
        <ele>363.7</ele>
        <time>2020-05-10T11:41:37Z</time>
      </trkpt>
      <trkpt lat="48.76975" lon="7.33126">
        <ele>362.8</ele>
        <time>2020-05-10T11:41:39Z</time>
      </trkpt>
      <trkpt lat="48.7698" lon="7.33119">
        <ele>362.2</ele>
        <time>2020-05-10T11:41:40Z</time>
      </trkpt>
      <trkpt lat="48.7699" lon="7.33103">
        <ele>361.2</ele>
        <time>2020-05-10T11:41:42Z</time>
      </trkpt>
      <trkpt lat="48.76997" lon="7.3309">
        <ele>360.5</ele>
        <time>2020-05-10T11:41:43Z</time>
      </trkpt>
      <trkpt lat="48.77006" lon="7.33074">
        <ele>359.7</ele>
        <time>2020-05-10T11:41:45Z</time>
      </trkpt>
      <trkpt lat="48.77011" lon="7.33066">
        <ele>359.4</ele>
        <time>2020-05-10T11:41:46Z</time>
      </trkpt>
      <trkpt lat="48.77021" lon="7.33047">
        <ele>358.9</ele>
        <time>2020-05-10T11:41:48Z</time>
      </trkpt>
      <trkpt lat="48.77023" lon="7.33037">
        <ele>358.9</ele>
        <time>2020-05-10T11:41:49Z</time>
      </trkpt>
      <trkpt lat="48.77024" lon="7.33028">
        <ele>359</ele>
        <time>2020-05-10T11:41:50Z</time>
      </trkpt>
      <trkpt lat="48.77027" lon="7.33016">
        <ele>359.3</ele>
        <time>2020-05-10T11:41:52Z</time>
      </trkpt>
      <trkpt lat="48.7703" lon="7.33005">
        <ele>359.7</ele>
        <time>2020-05-10T11:41:54Z</time>
      </trkpt>
      <trkpt lat="48.77031" lon="7.32995">
        <ele>360</ele>
        <time>2020-05-10T11:41:56Z</time>
      </trkpt>
      <trkpt lat="48.77032" lon="7.32991">
        <ele>360.2</ele>
        <time>2020-05-10T11:41:57Z</time>
      </trkpt>
      <trkpt lat="48.77035" lon="7.32982">
        <ele>360.5</ele>
        <time>2020-05-10T11:41:59Z</time>
      </trkpt>
      <trkpt lat="48.77036" lon="7.32974">
        <ele>360.9</ele>
        <time>2020-05-10T11:42:01Z</time>
      </trkpt>
      <trkpt lat="48.77035" lon="7.32971">
        <ele>361</ele>
        <time>2020-05-10T11:42:02Z</time>
      </trkpt>
      <trkpt lat="48.77034" lon="7.32962">
        <ele>361.3</ele>
        <time>2020-05-10T11:42:04Z</time>
      </trkpt>
      <trkpt lat="48.77035" lon="7.32957">
        <ele>361.5</ele>
        <time>2020-05-10T11:42:05Z</time>
      </trkpt>
      <trkpt lat="48.77035" lon="7.32955">
        <ele>361.6</ele>
        <time>2020-05-10T11:42:06Z</time>
      </trkpt>
      <trkpt lat="48.77036" lon="7.32947">
        <ele>361.9</ele>
        <time>2020-05-10T11:42:08Z</time>
      </trkpt>
      <trkpt lat="48.77037" lon="7.32944">
        <ele>362</ele>
        <time>2020-05-10T11:42:09Z</time>
      </trkpt>
      <trkpt lat="48.77039" lon="7.32936">
        <ele>362.3</ele>
        <time>2020-05-10T11:42:11Z</time>
      </trkpt>
      <trkpt lat="48.77041" lon="7.32931">
        <ele>362.5</ele>
        <time>2020-05-10T11:42:12Z</time>
      </trkpt>
      <trkpt lat="48.77043" lon="7.32922">
        <ele>362.9</ele>
        <time>2020-05-10T11:42:14Z</time>
      </trkpt>
      <trkpt lat="48.77044" lon="7.32916">
        <ele>363.1</ele>
        <time>2020-05-10T11:42:16Z</time>
      </trkpt>
      <trkpt lat="48.77045" lon="7.32908">
        <ele>363.4</ele>
        <time>2020-05-10T11:42:18Z</time>
      </trkpt>
      <trkpt lat="48.77047" lon="7.32903">
        <ele>363.7</ele>
        <time>2020-05-10T11:42:19Z</time>
      </trkpt>
      <trkpt lat="48.77048" lon="7.32901">
        <ele>363.7</ele>
        <time>2020-05-10T11:42:20Z</time>
      </trkpt>
      <trkpt lat="48.7705" lon="7.32895">
        <ele>364</ele>
        <time>2020-05-10T11:42:22Z</time>
      </trkpt>
      <trkpt lat="48.77051" lon="7.32891">
        <ele>364.2</ele>
        <time>2020-05-10T11:42:23Z</time>
      </trkpt>
      <trkpt lat="48.77052" lon="7.32884">
        <ele>364.4</ele>
        <time>2020-05-10T11:42:25Z</time>
      </trkpt>
      <trkpt lat="48.77053" lon="7.3288">
        <ele>364.6</ele>
        <time>2020-05-10T11:42:26Z</time>
      </trkpt>
      <trkpt lat="48.77055" lon="7.32875">
        <ele>364.8</ele>
        <time>2020-05-10T11:42:28Z</time>
      </trkpt>
      <trkpt lat="48.77056" lon="7.32871">
        <ele>364.9</ele>
        <time>2020-05-10T11:42:29Z</time>
      </trkpt>
      <trkpt lat="48.77056" lon="7.32869">
        <ele>365</ele>
        <time>2020-05-10T11:42:30Z</time>
      </trkpt>
      <trkpt lat="48.77058" lon="7.32865">
        <ele>365.2</ele>
        <time>2020-05-10T11:42:31Z</time>
      </trkpt>
      <trkpt lat="48.77058" lon="7.32863">
        <ele>365.2</ele>
        <time>2020-05-10T11:42:32Z</time>
      </trkpt>
      <trkpt lat="48.77059" lon="7.3286">
        <ele>365.3</ele>
        <time>2020-05-10T11:42:33Z</time>
      </trkpt>
      <trkpt lat="48.77063" lon="7.32854">
        <ele>365.5</ele>
        <time>2020-05-10T11:42:35Z</time>
      </trkpt>
      <trkpt lat="48.77068" lon="7.32849">
        <ele>365.7</ele>
        <time>2020-05-10T11:42:37Z</time>
      </trkpt>
      <trkpt lat="48.7707" lon="7.32845">
        <ele>365.8</ele>
        <time>2020-05-10T11:42:38Z</time>
      </trkpt>
      <trkpt lat="48.77071" lon="7.32844">
        <ele>365.8</ele>
        <time>2020-05-10T11:42:39Z</time>
      </trkpt>
      <trkpt lat="48.77076" lon="7.32839">
        <ele>366</ele>
        <time>2020-05-10T11:42:41Z</time>
      </trkpt>
      <trkpt lat="48.77079" lon="7.32837">
        <ele>366.1</ele>
        <time>2020-05-10T11:42:43Z</time>
      </trkpt>
      <trkpt lat="48.77083" lon="7.32835">
        <ele>366.3</ele>
        <time>2020-05-10T11:42:44Z</time>
      </trkpt>
      <trkpt lat="48.77086" lon="7.32834">
        <ele>366.4</ele>
        <time>2020-05-10T11:42:45Z</time>
      </trkpt>
      <trkpt lat="48.77091" lon="7.32831">
        <ele>366.6</ele>
        <time>2020-05-10T11:42:47Z</time>
      </trkpt>
      <trkpt lat="48.77093" lon="7.3283">
        <ele>366.7</ele>
        <time>2020-05-10T11:42:48Z</time>
      </trkpt>
      <trkpt lat="48.77097" lon="7.32828">
        <ele>367</ele>
        <time>2020-05-10T11:42:50Z</time>
      </trkpt>
      <trkpt lat="48.77099" lon="7.32827">
        <ele>367.1</ele>
        <time>2020-05-10T11:42:51Z</time>
      </trkpt>
      <trkpt lat="48.77104" lon="7.32825">
        <ele>367.3</ele>
        <time>2020-05-10T11:42:53Z</time>
      </trkpt>
      <trkpt lat="48.77105" lon="7.32824">
        <ele>367.4</ele>
        <time>2020-05-10T11:42:54Z</time>
      </trkpt>
      <trkpt lat="48.77107" lon="7.32823">
        <ele>367.5</ele>
        <time>2020-05-10T11:42:56Z</time>
      </trkpt>
      <trkpt lat="48.77109" lon="7.32823">
        <ele>367.6</ele>
        <time>2020-05-10T11:42:57Z</time>
      </trkpt>
      <trkpt lat="48.77111" lon="7.32822">
        <ele>367.7</ele>
        <time>2020-05-10T11:42:58Z</time>
      </trkpt>
      <trkpt lat="48.77112" lon="7.32822">
        <ele>367.8</ele>
        <time>2020-05-10T11:42:59Z</time>
      </trkpt>
      <trkpt lat="48.77118" lon="7.3282">
        <ele>368</ele>
        <time>2020-05-10T11:43:01Z</time>
      </trkpt>
      <trkpt lat="48.77121" lon="7.3282">
        <ele>368.2</ele>
        <time>2020-05-10T11:43:02Z</time>
      </trkpt>
      <trkpt lat="48.77126" lon="7.3282">
        <ele>368.5</ele>
        <time>2020-05-10T11:43:04Z</time>
      </trkpt>
      <trkpt lat="48.77131" lon="7.32819">
        <ele>368.8</ele>
        <time>2020-05-10T11:43:06Z</time>
      </trkpt>
      <trkpt lat="48.77135" lon="7.32819">
        <ele>369</ele>
        <time>2020-05-10T11:43:07Z</time>
      </trkpt>
      <trkpt lat="48.77136" lon="7.32819">
        <ele>369</ele>
        <time>2020-05-10T11:43:08Z</time>
      </trkpt>
      <trkpt lat="48.77137" lon="7.32819">
        <ele>369.1</ele>
        <time>2020-05-10T11:43:09Z</time>
      </trkpt>
      <trkpt lat="48.77142" lon="7.32818">
        <ele>369.4</ele>
        <time>2020-05-10T11:43:11Z</time>
      </trkpt>
      <trkpt lat="48.77143" lon="7.32818">
        <ele>369.5</ele>
        <time>2020-05-10T11:43:12Z</time>
      </trkpt>
      <trkpt lat="48.77146" lon="7.32817">
        <ele>369.7</ele>
        <time>2020-05-10T11:43:14Z</time>
      </trkpt>
      <trkpt lat="48.7715" lon="7.32816">
        <ele>369.9</ele>
        <time>2020-05-10T11:43:15Z</time>
      </trkpt>
      <trkpt lat="48.77151" lon="7.32815">
        <ele>370</ele>
        <time>2020-05-10T11:43:16Z</time>
      </trkpt>
      <trkpt lat="48.77158" lon="7.32813">
        <ele>370.4</ele>
        <time>2020-05-10T11:43:18Z</time>
      </trkpt>
      <trkpt lat="48.77163" lon="7.32811">
        <ele>370.7</ele>
        <time>2020-05-10T11:43:20Z</time>
      </trkpt>
      <trkpt lat="48.77166" lon="7.32809">
        <ele>370.9</ele>
        <time>2020-05-10T11:43:21Z</time>
      </trkpt>
      <trkpt lat="48.77168" lon="7.32807">
        <ele>371.1</ele>
        <time>2020-05-10T11:43:22Z</time>
      </trkpt>
      <trkpt lat="48.77172" lon="7.32804">
        <ele>371.4</ele>
        <time>2020-05-10T11:43:24Z</time>
      </trkpt>
      <trkpt lat="48.77175" lon="7.32802">
        <ele>371.6</ele>
        <time>2020-05-10T11:43:26Z</time>
      </trkpt>
      <trkpt lat="48.77176" lon="7.32802">
        <ele>371.7</ele>
        <time>2020-05-10T11:43:27Z</time>
      </trkpt>
      <trkpt lat="48.7718" lon="7.32798">
        <ele>372</ele>
        <time>2020-05-10T11:43:29Z</time>
      </trkpt>
      <trkpt lat="48.77183" lon="7.32796">
        <ele>372.2</ele>
        <time>2020-05-10T11:43:30Z</time>
      </trkpt>
      <trkpt lat="48.77187" lon="7.32792">
        <ele>372.5</ele>
        <time>2020-05-10T11:43:32Z</time>
      </trkpt>
      <trkpt lat="48.77192" lon="7.32788">
        <ele>372.8</ele>
        <time>2020-05-10T11:43:34Z</time>
      </trkpt>
      <trkpt lat="48.77198" lon="7.32784">
        <ele>373.3</ele>
        <time>2020-05-10T11:43:36Z</time>
      </trkpt>
      <trkpt lat="48.77201" lon="7.32783">
        <ele>373.5</ele>
        <time>2020-05-10T11:43:37Z</time>
      </trkpt>
      <trkpt lat="48.77206" lon="7.32779">
        <ele>373.9</ele>
        <time>2020-05-10T11:43:39Z</time>
      </trkpt>
      <trkpt lat="48.77209" lon="7.32777">
        <ele>374.1</ele>
        <time>2020-05-10T11:43:41Z</time>
      </trkpt>
      <trkpt lat="48.77214" lon="7.32773">
        <ele>374.5</ele>
        <time>2020-05-10T11:43:43Z</time>
      </trkpt>
      <trkpt lat="48.77217" lon="7.32769">
        <ele>374.7</ele>
        <time>2020-05-10T11:43:44Z</time>
      </trkpt>
      <trkpt lat="48.77218" lon="7.32768">
        <ele>374.8</ele>
        <time>2020-05-10T11:43:45Z</time>
      </trkpt>
      <trkpt lat="48.7722" lon="7.32765">
        <ele>375</ele>
        <time>2020-05-10T11:43:46Z</time>
      </trkpt>
      <trkpt lat="48.77226" lon="7.3276">
        <ele>375.4</ele>
        <time>2020-05-10T11:43:48Z</time>
      </trkpt>
      <trkpt lat="48.77229" lon="7.32758">
        <ele>375.6</ele>
        <time>2020-05-10T11:43:49Z</time>
      </trkpt>
      <trkpt lat="48.77232" lon="7.32756">
        <ele>375.7</ele>
        <time>2020-05-10T11:43:50Z</time>
      </trkpt>
      <trkpt lat="48.77236" lon="7.32751">
        <ele>376</ele>
        <time>2020-05-10T11:43:52Z</time>
      </trkpt>
      <trkpt lat="48.77238" lon="7.32745">
        <ele>376.2</ele>
        <time>2020-05-10T11:43:54Z</time>
      </trkpt>
      <trkpt lat="48.77241" lon="7.3274">
        <ele>376.4</ele>
        <time>2020-05-10T11:43:56Z</time>
      </trkpt>
      <trkpt lat="48.77243" lon="7.32733">
        <ele>376.6</ele>
        <time>2020-05-10T11:43:58Z</time>
      </trkpt>
      <trkpt lat="48.77246" lon="7.32727">
        <ele>376.8</ele>
        <time>2020-05-10T11:44:00Z</time>
      </trkpt>
      <trkpt lat="48.77248" lon="7.32721">
        <ele>376.9</ele>
        <time>2020-05-10T11:44:02Z</time>
      </trkpt>
      <trkpt lat="48.7725" lon="7.32718">
        <ele>376.9</ele>
        <time>2020-05-10T11:44:03Z</time>
      </trkpt>
      <trkpt lat="48.77251" lon="7.32714">
        <ele>377</ele>
        <time>2020-05-10T11:44:05Z</time>
      </trkpt>
      <trkpt lat="48.77253" lon="7.32711">
        <ele>377</ele>
        <time>2020-05-10T11:44:07Z</time>
      </trkpt>
      <trkpt lat="48.77255" lon="7.32706">
        <ele>377.1</ele>
        <time>2020-05-10T11:44:09Z</time>
      </trkpt>
      <trkpt lat="48.7726" lon="7.32703">
        <ele>377.1</ele>
        <time>2020-05-10T11:44:11Z</time>
      </trkpt>
      <trkpt lat="48.77265" lon="7.32698">
        <ele>377.1</ele>
        <time>2020-05-10T11:44:13Z</time>
      </trkpt>
      <trkpt lat="48.77268" lon="7.32689">
        <ele>377.1</ele>
        <time>2020-05-10T11:44:15Z</time>
      </trkpt>
      <trkpt lat="48.77272" lon="7.32678">
        <ele>377.1</ele>
        <time>2020-05-10T11:44:17Z</time>
      </trkpt>
      <trkpt lat="48.77281" lon="7.32673">
        <ele>377.1</ele>
        <time>2020-05-10T11:44:19Z</time>
      </trkpt>
      <trkpt lat="48.77292" lon="7.32677">
        <ele>376.8</ele>
        <time>2020-05-10T11:44:21Z</time>
      </trkpt>
      <trkpt lat="48.77305" lon="7.3268">
        <ele>376.4</ele>
        <time>2020-05-10T11:44:23Z</time>
      </trkpt>
      <trkpt lat="48.77317" lon="7.32682">
        <ele>376</ele>
        <time>2020-05-10T11:44:25Z</time>
      </trkpt>
      <trkpt lat="48.77323" lon="7.32683">
        <ele>375.8</ele>
        <time>2020-05-10T11:44:26Z</time>
      </trkpt>
      <trkpt lat="48.77335" lon="7.32683">
        <ele>375.6</ele>
        <time>2020-05-10T11:44:28Z</time>
      </trkpt>
      <trkpt lat="48.77341" lon="7.32684">
        <ele>375.5</ele>
        <time>2020-05-10T11:44:29Z</time>
      </trkpt>
      <trkpt lat="48.77348" lon="7.32685">
        <ele>375.8</ele>
        <time>2020-05-10T11:44:31Z</time>
      </trkpt>
      <trkpt lat="48.77355" lon="7.32687">
        <ele>375.9</ele>
        <time>2020-05-10T11:44:33Z</time>
      </trkpt>
      <trkpt lat="48.7736" lon="7.32688">
        <ele>376</ele>
        <time>2020-05-10T11:44:35Z</time>
      </trkpt>
      <trkpt lat="48.77366" lon="7.32688">
        <ele>376</ele>
        <time>2020-05-10T11:44:37Z</time>
      </trkpt>
      <trkpt lat="48.77374" lon="7.32686">
        <ele>376.1</ele>
        <time>2020-05-10T11:44:39Z</time>
      </trkpt>
      <trkpt lat="48.77384" lon="7.32681">
        <ele>376.3</ele>
        <time>2020-05-10T11:44:41Z</time>
      </trkpt>
      <trkpt lat="48.77389" lon="7.32678">
        <ele>376.3</ele>
        <time>2020-05-10T11:44:42Z</time>
      </trkpt>
      <trkpt lat="48.77395" lon="7.32668">
        <ele>376.5</ele>
        <time>2020-05-10T11:44:44Z</time>
      </trkpt>
      <trkpt lat="48.77397" lon="7.3266">
        <ele>376.7</ele>
        <time>2020-05-10T11:44:45Z</time>
      </trkpt>
      <trkpt lat="48.77401" lon="7.32653">
        <ele>376.8</ele>
        <time>2020-05-10T11:44:47Z</time>
      </trkpt>
      <trkpt lat="48.77405" lon="7.32644">
        <ele>376.8</ele>
        <time>2020-05-10T11:44:49Z</time>
      </trkpt>
      <trkpt lat="48.77409" lon="7.32638">
        <ele>376.7</ele>
        <time>2020-05-10T11:44:50Z</time>
      </trkpt>
      <trkpt lat="48.77413" lon="7.3263">
        <ele>376.4</ele>
        <time>2020-05-10T11:44:51Z</time>
      </trkpt>
      <trkpt lat="48.77421" lon="7.32616">
        <ele>375.7</ele>
        <time>2020-05-10T11:44:53Z</time>
      </trkpt>
      <trkpt lat="48.77431" lon="7.3261">
        <ele>374.8</ele>
        <time>2020-05-10T11:44:55Z</time>
      </trkpt>
      <trkpt lat="48.77442" lon="7.326">
        <ele>373.8</ele>
        <time>2020-05-10T11:44:57Z</time>
      </trkpt>
      <trkpt lat="48.77452" lon="7.32593">
        <ele>372.8</ele>
        <time>2020-05-10T11:44:59Z</time>
      </trkpt>
      <trkpt lat="48.77459" lon="7.32584">
        <ele>372.1</ele>
        <time>2020-05-10T11:45:01Z</time>
      </trkpt>
      <trkpt lat="48.77466" lon="7.32572">
        <ele>371.3</ele>
        <time>2020-05-10T11:45:03Z</time>
      </trkpt>
      <trkpt lat="48.7747" lon="7.32568">
        <ele>371</ele>
        <time>2020-05-10T11:45:04Z</time>
      </trkpt>
      <trkpt lat="48.7748" lon="7.32562">
        <ele>370.4</ele>
        <time>2020-05-10T11:45:06Z</time>
      </trkpt>
      <trkpt lat="48.77486" lon="7.3256">
        <ele>370.3</ele>
        <time>2020-05-10T11:45:07Z</time>
      </trkpt>
      <trkpt lat="48.77491" lon="7.32558">
        <ele>370.2</ele>
        <time>2020-05-10T11:45:08Z</time>
      </trkpt>
      <trkpt lat="48.77497" lon="7.32557">
        <ele>370</ele>
        <time>2020-05-10T11:45:09Z</time>
      </trkpt>
      <trkpt lat="48.77503" lon="7.32557">
        <ele>369.7</ele>
        <time>2020-05-10T11:45:10Z</time>
      </trkpt>
      <trkpt lat="48.77508" lon="7.32556">
        <ele>369.5</ele>
        <time>2020-05-10T11:45:11Z</time>
      </trkpt>
      <trkpt lat="48.77519" lon="7.3255">
        <ele>369</ele>
        <time>2020-05-10T11:45:13Z</time>
      </trkpt>
      <trkpt lat="48.7753" lon="7.32544">
        <ele>368.5</ele>
        <time>2020-05-10T11:45:15Z</time>
      </trkpt>
      <trkpt lat="48.77541" lon="7.32541">
        <ele>368</ele>
        <time>2020-05-10T11:45:17Z</time>
      </trkpt>
      <trkpt lat="48.77552" lon="7.32539">
        <ele>367.5</ele>
        <time>2020-05-10T11:45:19Z</time>
      </trkpt>
      <trkpt lat="48.7756" lon="7.32537">
        <ele>367</ele>
        <time>2020-05-10T11:45:21Z</time>
      </trkpt>
      <trkpt lat="48.7757" lon="7.32537">
        <ele>366.2</ele>
        <time>2020-05-10T11:45:23Z</time>
      </trkpt>
      <trkpt lat="48.77576" lon="7.32537">
        <ele>365.6</ele>
        <time>2020-05-10T11:45:24Z</time>
      </trkpt>
      <trkpt lat="48.77586" lon="7.32533">
        <ele>364.5</ele>
        <time>2020-05-10T11:45:26Z</time>
      </trkpt>
      <trkpt lat="48.77597" lon="7.32532">
        <ele>363.6</ele>
        <time>2020-05-10T11:45:28Z</time>
      </trkpt>
      <trkpt lat="48.77604" lon="7.32532">
        <ele>363.2</ele>
        <time>2020-05-10T11:45:29Z</time>
      </trkpt>
      <trkpt lat="48.77617" lon="7.32535">
        <ele>362.7</ele>
        <time>2020-05-10T11:45:31Z</time>
      </trkpt>
      <trkpt lat="48.77623" lon="7.32538">
        <ele>362.6</ele>
        <time>2020-05-10T11:45:32Z</time>
      </trkpt>
      <trkpt lat="48.77629" lon="7.3254">
        <ele>362.5</ele>
        <time>2020-05-10T11:45:33Z</time>
      </trkpt>
      <trkpt lat="48.7764" lon="7.32546">
        <ele>362.4</ele>
        <time>2020-05-10T11:45:35Z</time>
      </trkpt>
      <trkpt lat="48.77648" lon="7.32552">
        <ele>362.2</ele>
        <time>2020-05-10T11:45:37Z</time>
      </trkpt>
      <trkpt lat="48.77658" lon="7.32559">
        <ele>362.1</ele>
        <time>2020-05-10T11:45:39Z</time>
      </trkpt>
      <trkpt lat="48.77669" lon="7.32567">
        <ele>361.9</ele>
        <time>2020-05-10T11:45:41Z</time>
      </trkpt>
      <trkpt lat="48.77674" lon="7.32572">
        <ele>361.8</ele>
        <time>2020-05-10T11:45:42Z</time>
      </trkpt>
      <trkpt lat="48.77679" lon="7.32576">
        <ele>361.8</ele>
        <time>2020-05-10T11:45:43Z</time>
      </trkpt>
      <trkpt lat="48.77687" lon="7.3258">
        <ele>361.7</ele>
        <time>2020-05-10T11:45:45Z</time>
      </trkpt>
      <trkpt lat="48.77688" lon="7.32577">
        <ele>361.7</ele>
        <time>2020-05-10T11:45:46Z</time>
      </trkpt>
      <trkpt lat="48.77695" lon="7.32573">
        <ele>361.6</ele>
        <time>2020-05-10T11:45:48Z</time>
      </trkpt>
      <trkpt lat="48.77699" lon="7.32577">
        <ele>361.3</ele>
        <time>2020-05-10T11:45:49Z</time>
      </trkpt>
      <trkpt lat="48.77712" lon="7.32586">
        <ele>360.6</ele>
        <time>2020-05-10T11:45:51Z</time>
      </trkpt>
      <trkpt lat="48.77718" lon="7.32589">
        <ele>360.3</ele>
        <time>2020-05-10T11:45:52Z</time>
      </trkpt>
      <trkpt lat="48.77723" lon="7.32591">
        <ele>360.1</ele>
        <time>2020-05-10T11:45:53Z</time>
      </trkpt>
      <trkpt lat="48.77736" lon="7.32594">
        <ele>359.5</ele>
        <time>2020-05-10T11:45:55Z</time>
      </trkpt>
      <trkpt lat="48.77749" lon="7.32595">
        <ele>359</ele>
        <time>2020-05-10T11:45:57Z</time>
      </trkpt>
      <trkpt lat="48.77762" lon="7.32598">
        <ele>358.4</ele>
        <time>2020-05-10T11:45:59Z</time>
      </trkpt>
      <trkpt lat="48.77774" lon="7.32598">
        <ele>357.9</ele>
        <time>2020-05-10T11:46:01Z</time>
      </trkpt>
      <trkpt lat="48.77784" lon="7.32598">
        <ele>357.5</ele>
        <time>2020-05-10T11:46:03Z</time>
      </trkpt>
      <trkpt lat="48.77789" lon="7.32596">
        <ele>357.3</ele>
        <time>2020-05-10T11:46:04Z</time>
      </trkpt>
      <trkpt lat="48.77794" lon="7.32594">
        <ele>357.1</ele>
        <time>2020-05-10T11:46:05Z</time>
      </trkpt>
      <trkpt lat="48.77802" lon="7.32593">
        <ele>356.9</ele>
        <time>2020-05-10T11:46:07Z</time>
      </trkpt>
      <trkpt lat="48.77806" lon="7.32595">
        <ele>356.6</ele>
        <time>2020-05-10T11:46:08Z</time>
      </trkpt>
      <trkpt lat="48.77815" lon="7.32598">
        <ele>355.8</ele>
        <time>2020-05-10T11:46:10Z</time>
      </trkpt>
      <trkpt lat="48.77828" lon="7.32598">
        <ele>354.4</ele>
        <time>2020-05-10T11:46:12Z</time>
      </trkpt>
      <trkpt lat="48.77835" lon="7.32599">
        <ele>353.6</ele>
        <time>2020-05-10T11:46:13Z</time>
      </trkpt>
      <trkpt lat="48.77845" lon="7.326">
        <ele>352.2</ele>
        <time>2020-05-10T11:46:15Z</time>
      </trkpt>
      <trkpt lat="48.77857" lon="7.32599">
        <ele>350.4</ele>
        <time>2020-05-10T11:46:17Z</time>
      </trkpt>
      <trkpt lat="48.77867" lon="7.32601">
        <ele>348.7</ele>
        <time>2020-05-10T11:46:19Z</time>
      </trkpt>
      <trkpt lat="48.7787" lon="7.32601">
        <ele>348.2</ele>
        <time>2020-05-10T11:46:20Z</time>
      </trkpt>
      <trkpt lat="48.77875" lon="7.326">
        <ele>347.6</ele>
        <time>2020-05-10T11:46:22Z</time>
      </trkpt>
      <trkpt lat="48.77878" lon="7.32601">
        <ele>347</ele>
        <time>2020-05-10T11:46:23Z</time>
      </trkpt>
      <trkpt lat="48.77884" lon="7.32601">
        <ele>346.2</ele>
        <time>2020-05-10T11:46:24Z</time>
      </trkpt>
      <trkpt lat="48.77889" lon="7.32601">
        <ele>345.5</ele>
        <time>2020-05-10T11:46:25Z</time>
      </trkpt>
      <trkpt lat="48.77893" lon="7.32602">
        <ele>344.9</ele>
        <time>2020-05-10T11:46:26Z</time>
      </trkpt>
      <trkpt lat="48.77902" lon="7.32605">
        <ele>343.7</ele>
        <time>2020-05-10T11:46:28Z</time>
      </trkpt>
      <trkpt lat="48.77911" lon="7.32607">
        <ele>342.4</ele>
        <time>2020-05-10T11:46:30Z</time>
      </trkpt>
      <trkpt lat="48.77918" lon="7.3261">
        <ele>341.5</ele>
        <time>2020-05-10T11:46:31Z</time>
      </trkpt>
      <trkpt lat="48.77931" lon="7.32615">
        <ele>340</ele>
        <time>2020-05-10T11:46:33Z</time>
      </trkpt>
      <trkpt lat="48.77942" lon="7.32623">
        <ele>339.1</ele>
        <time>2020-05-10T11:46:35Z</time>
      </trkpt>
      <trkpt lat="48.77946" lon="7.32631">
        <ele>338.8</ele>
        <time>2020-05-10T11:46:37Z</time>
      </trkpt>
      <trkpt lat="48.7795" lon="7.32635">
        <ele>338.6</ele>
        <time>2020-05-10T11:46:38Z</time>
      </trkpt>
      <trkpt lat="48.77959" lon="7.32642">
        <ele>337.8</ele>
        <time>2020-05-10T11:46:40Z</time>
      </trkpt>
      <trkpt lat="48.77966" lon="7.3265">
        <ele>337.1</ele>
        <time>2020-05-10T11:46:42Z</time>
      </trkpt>
      <trkpt lat="48.77972" lon="7.32654">
        <ele>336.6</ele>
        <time>2020-05-10T11:46:44Z</time>
      </trkpt>
      <trkpt lat="48.77974" lon="7.32656">
        <ele>336.3</ele>
        <time>2020-05-10T11:46:45Z</time>
      </trkpt>
      <trkpt lat="48.77981" lon="7.32672">
        <ele>335.5</ele>
        <time>2020-05-10T11:46:47Z</time>
      </trkpt>
      <trkpt lat="48.77988" lon="7.32686">
        <ele>335.1</ele>
        <time>2020-05-10T11:46:49Z</time>
      </trkpt>
      <trkpt lat="48.77992" lon="7.32699">
        <ele>334.9</ele>
        <time>2020-05-10T11:46:51Z</time>
      </trkpt>
      <trkpt lat="48.77994" lon="7.32703">
        <ele>334.8</ele>
        <time>2020-05-10T11:46:52Z</time>
      </trkpt>
      <trkpt lat="48.77995" lon="7.32704">
        <ele>334.8</ele>
        <time>2020-05-10T11:46:53Z</time>
      </trkpt>
      <trkpt lat="48.77997" lon="7.32707">
        <ele>334.8</ele>
        <time>2020-05-10T11:46:55Z</time>
      </trkpt>
      <trkpt lat="48.77999" lon="7.32708">
        <ele>334.9</ele>
        <time>2020-05-10T11:46:57Z</time>
      </trkpt>
      <trkpt lat="48.77999" lon="7.3271">
        <ele>334.9</ele>
        <time>2020-05-10T11:46:58Z</time>
      </trkpt>
      <trkpt lat="48.78" lon="7.32711">
        <ele>334.9</ele>
        <time>2020-05-10T11:46:59Z</time>
      </trkpt>
      <trkpt lat="48.78" lon="7.32714">
        <ele>335</ele>
        <time>2020-05-10T11:47:01Z</time>
      </trkpt>
      <trkpt lat="48.78" lon="7.32717">
        <ele>335</ele>
        <time>2020-05-10T11:47:03Z</time>
      </trkpt>
      <trkpt lat="48.77999" lon="7.32718">
        <ele>335</ele>
        <time>2020-05-10T11:47:04Z</time>
      </trkpt>
      <trkpt lat="48.77999" lon="7.32721">
        <ele>335</ele>
        <time>2020-05-10T11:47:05Z</time>
      </trkpt>
      <trkpt lat="48.77999" lon="7.32723">
        <ele>335</ele>
        <time>2020-05-10T11:47:07Z</time>
      </trkpt>
      <trkpt lat="48.77998" lon="7.32725">
        <ele>335.1</ele>
        <time>2020-05-10T11:47:09Z</time>
      </trkpt>
      <trkpt lat="48.77997" lon="7.32727">
        <ele>335.1</ele>
        <time>2020-05-10T11:47:10Z</time>
      </trkpt>
      <trkpt lat="48.77996" lon="7.3273">
        <ele>335.1</ele>
        <time>2020-05-10T11:47:12Z</time>
      </trkpt>
      <trkpt lat="48.77995" lon="7.32731">
        <ele>335.1</ele>
        <time>2020-05-10T11:47:13Z</time>
      </trkpt>
      <trkpt lat="48.77995" lon="7.32732">
        <ele>335.1</ele>
        <time>2020-05-10T11:47:14Z</time>
      </trkpt>
      <trkpt lat="48.77994" lon="7.32734">
        <ele>335.1</ele>
        <time>2020-05-10T11:47:15Z</time>
      </trkpt>
      <trkpt lat="48.77993" lon="7.32737">
        <ele>335.1</ele>
        <time>2020-05-10T11:47:17Z</time>
      </trkpt>
      <trkpt lat="48.77993" lon="7.32738">
        <ele>335.1</ele>
        <time>2020-05-10T11:47:18Z</time>
      </trkpt>
      <trkpt lat="48.77993" lon="7.3274">
        <ele>335.1</ele>
        <time>2020-05-10T11:47:19Z</time>
      </trkpt>
      <trkpt lat="48.77993" lon="7.32743">
        <ele>335.1</ele>
        <time>2020-05-10T11:47:21Z</time>
      </trkpt>
      <trkpt lat="48.77994" lon="7.32745">
        <ele>335.1</ele>
        <time>2020-05-10T11:47:23Z</time>
      </trkpt>
      <trkpt lat="48.77993" lon="7.32748">
        <ele>335.1</ele>
        <time>2020-05-10T11:47:25Z</time>
      </trkpt>
      <trkpt lat="48.77993" lon="7.32749">
        <ele>335.1</ele>
        <time>2020-05-10T11:47:26Z</time>
      </trkpt>
      <trkpt lat="48.77993" lon="7.3275">
        <ele>335.1</ele>
        <time>2020-05-10T11:47:27Z</time>
      </trkpt>
      <trkpt lat="48.77994" lon="7.32753">
        <ele>335.1</ele>
        <time>2020-05-10T11:47:29Z</time>
      </trkpt>
      <trkpt lat="48.77994" lon="7.32756">
        <ele>335.1</ele>
        <time>2020-05-10T11:47:31Z</time>
      </trkpt>
      <trkpt lat="48.77994" lon="7.32757">
        <ele>335.1</ele>
        <time>2020-05-10T11:47:32Z</time>
      </trkpt>
      <trkpt lat="48.77996" lon="7.3276">
        <ele>335.1</ele>
        <time>2020-05-10T11:47:34Z</time>
      </trkpt>
      <trkpt lat="48.77996" lon="7.32761">
        <ele>335.1</ele>
        <time>2020-05-10T11:47:35Z</time>
      </trkpt>
      <trkpt lat="48.77997" lon="7.32762">
        <ele>335.1</ele>
        <time>2020-05-10T11:47:36Z</time>
      </trkpt>
      <trkpt lat="48.77998" lon="7.32764">
        <ele>335.1</ele>
        <time>2020-05-10T11:47:38Z</time>
      </trkpt>
      <trkpt lat="48.78" lon="7.32767">
        <ele>335.1</ele>
        <time>2020-05-10T11:47:40Z</time>
      </trkpt>
      <trkpt lat="48.78" lon="7.32769">
        <ele>335.1</ele>
        <time>2020-05-10T11:47:41Z</time>
      </trkpt>
      <trkpt lat="48.78001" lon="7.32771">
        <ele>335.1</ele>
        <time>2020-05-10T11:47:42Z</time>
      </trkpt>
      <trkpt lat="48.78001" lon="7.32772">
        <ele>335.1</ele>
        <time>2020-05-10T11:47:43Z</time>
      </trkpt>
      <trkpt lat="48.78001" lon="7.32773">
        <ele>335.2</ele>
        <time>2020-05-10T11:47:44Z</time>
      </trkpt>
      <trkpt lat="48.78001" lon="7.32776">
        <ele>335.2</ele>
        <time>2020-05-10T11:47:46Z</time>
      </trkpt>
      <trkpt lat="48.78002" lon="7.32781">
        <ele>335.2</ele>
        <time>2020-05-10T11:47:48Z</time>
      </trkpt>
      <trkpt lat="48.78003" lon="7.32783">
        <ele>335.2</ele>
        <time>2020-05-10T11:47:50Z</time>
      </trkpt>
      <trkpt lat="48.78004" lon="7.32785">
        <ele>335.2</ele>
        <time>2020-05-10T11:47:52Z</time>
      </trkpt>
      <trkpt lat="48.78005" lon="7.32786">
        <ele>335.3</ele>
        <time>2020-05-10T11:47:54Z</time>
      </trkpt>
      <trkpt lat="48.78006" lon="7.32787">
        <ele>335.3</ele>
        <time>2020-05-10T11:47:55Z</time>
      </trkpt>
      <trkpt lat="48.78006" lon="7.32788">
        <ele>335.8</ele>
        <time>2020-05-10T11:47:57Z</time>
      </trkpt>
      <trkpt lat="48.78007" lon="7.3279">
        <ele>335.9</ele>
        <time>2020-05-10T11:47:58Z</time>
      </trkpt>
      <trkpt lat="48.78009" lon="7.32796">
        <ele>336.3</ele>
        <time>2020-05-10T11:48:00Z</time>
      </trkpt>
      <trkpt lat="48.78011" lon="7.32797">
        <ele>336.4</ele>
        <time>2020-05-10T11:48:01Z</time>
      </trkpt>
      <trkpt lat="48.78013" lon="7.32799">
        <ele>336.6</ele>
        <time>2020-05-10T11:48:03Z</time>
      </trkpt>
      <trkpt lat="48.78014" lon="7.32802">
        <ele>336.8</ele>
        <time>2020-05-10T11:48:05Z</time>
      </trkpt>
      <trkpt lat="48.78014" lon="7.32802">
        <ele>336.9</ele>
        <time>2020-05-10T11:48:06Z</time>
      </trkpt>
      <trkpt lat="48.78015" lon="7.32803">
        <ele>336.9</ele>
        <time>2020-05-10T11:48:07Z</time>
      </trkpt>
      <trkpt lat="48.78015" lon="7.32803">
        <ele>336.9</ele>
        <time>2020-05-10T11:48:08Z</time>
      </trkpt>
      <trkpt lat="48.78018" lon="7.32808">
        <ele>337.3</ele>
        <time>2020-05-10T11:48:10Z</time>
      </trkpt>
      <trkpt lat="48.7802" lon="7.32812">
        <ele>337.5</ele>
        <time>2020-05-10T11:48:12Z</time>
      </trkpt>
      <trkpt lat="48.7802" lon="7.32814">
        <ele>337.6</ele>
        <time>2020-05-10T11:48:13Z</time>
      </trkpt>
      <trkpt lat="48.78021" lon="7.32817">
        <ele>337.8</ele>
        <time>2020-05-10T11:48:15Z</time>
      </trkpt>
      <trkpt lat="48.78022" lon="7.32818">
        <ele>337.8</ele>
        <time>2020-05-10T11:48:17Z</time>
      </trkpt>
      <trkpt lat="48.78022" lon="7.3282">
        <ele>337.9</ele>
        <time>2020-05-10T11:48:19Z</time>
      </trkpt>
      <trkpt lat="48.78023" lon="7.3282">
        <ele>338</ele>
        <time>2020-05-10T11:48:20Z</time>
      </trkpt>
      <trkpt lat="48.78023" lon="7.32821">
        <ele>338</ele>
        <time>2020-05-10T11:48:21Z</time>
      </trkpt>
      <trkpt lat="48.78026" lon="7.32823">
        <ele>338.2</ele>
        <time>2020-05-10T11:48:23Z</time>
      </trkpt>
      <trkpt lat="48.78031" lon="7.32829">
        <ele>338.4</ele>
        <time>2020-05-10T11:48:25Z</time>
      </trkpt>
      <trkpt lat="48.78038" lon="7.32836">
        <ele>338.7</ele>
        <time>2020-05-10T11:48:27Z</time>
      </trkpt>
      <trkpt lat="48.78042" lon="7.3284">
        <ele>338.8</ele>
        <time>2020-05-10T11:48:28Z</time>
      </trkpt>
      <trkpt lat="48.78048" lon="7.32846">
        <ele>338.9</ele>
        <time>2020-05-10T11:48:30Z</time>
      </trkpt>
      <trkpt lat="48.78054" lon="7.3285">
        <ele>338.9</ele>
        <time>2020-05-10T11:48:32Z</time>
      </trkpt>
      <trkpt lat="48.7806" lon="7.32855">
        <ele>338.9</ele>
        <time>2020-05-10T11:48:34Z</time>
      </trkpt>
      <trkpt lat="48.78065" lon="7.32859">
        <ele>338.8</ele>
        <time>2020-05-10T11:48:36Z</time>
      </trkpt>
      <trkpt lat="48.78068" lon="7.32861">
        <ele>338.8</ele>
        <time>2020-05-10T11:48:37Z</time>
      </trkpt>
      <trkpt lat="48.78076" lon="7.32865">
        <ele>338.7</ele>
        <time>2020-05-10T11:48:39Z</time>
      </trkpt>
      <trkpt lat="48.7808" lon="7.32867">
        <ele>338.7</ele>
        <time>2020-05-10T11:48:40Z</time>
      </trkpt>
      <trkpt lat="48.78085" lon="7.32868">
        <ele>338.6</ele>
        <time>2020-05-10T11:48:41Z</time>
      </trkpt>
      <trkpt lat="48.78089" lon="7.3287">
        <ele>338.6</ele>
        <time>2020-05-10T11:48:42Z</time>
      </trkpt>
      <trkpt lat="48.78095" lon="7.32873">
        <ele>338.6</ele>
        <time>2020-05-10T11:48:43Z</time>
      </trkpt>
      <trkpt lat="48.78103" lon="7.32877">
        <ele>338.6</ele>
        <time>2020-05-10T11:48:45Z</time>
      </trkpt>
      <trkpt lat="48.78113" lon="7.32881">
        <ele>338.6</ele>
        <time>2020-05-10T11:48:47Z</time>
      </trkpt>
      <trkpt lat="48.78122" lon="7.32883">
        <ele>338.7</ele>
        <time>2020-05-10T11:48:49Z</time>
      </trkpt>
      <trkpt lat="48.78131" lon="7.32889">
        <ele>338.8</ele>
        <time>2020-05-10T11:48:51Z</time>
      </trkpt>
      <trkpt lat="48.78136" lon="7.32895">
        <ele>338.9</ele>
        <time>2020-05-10T11:48:52Z</time>
      </trkpt>
      <trkpt lat="48.78146" lon="7.32896">
        <ele>339.2</ele>
        <time>2020-05-10T11:48:54Z</time>
      </trkpt>
      <trkpt lat="48.7815" lon="7.32898">
        <ele>339.3</ele>
        <time>2020-05-10T11:48:55Z</time>
      </trkpt>
      <trkpt lat="48.78155" lon="7.32901">
        <ele>339.5</ele>
        <time>2020-05-10T11:48:56Z</time>
      </trkpt>
      <trkpt lat="48.7816" lon="7.32903">
        <ele>339.6</ele>
        <time>2020-05-10T11:48:57Z</time>
      </trkpt>
      <trkpt lat="48.78171" lon="7.32906">
        <ele>340</ele>
        <time>2020-05-10T11:48:59Z</time>
      </trkpt>
      <trkpt lat="48.78179" lon="7.32908">
        <ele>340.3</ele>
        <time>2020-05-10T11:49:01Z</time>
      </trkpt>
      <trkpt lat="48.78186" lon="7.32916">
        <ele>340.7</ele>
        <time>2020-05-10T11:49:03Z</time>
      </trkpt>
      <trkpt lat="48.78193" lon="7.32922">
        <ele>341.1</ele>
        <time>2020-05-10T11:49:05Z</time>
      </trkpt>
      <trkpt lat="48.78202" lon="7.32928">
        <ele>341.5</ele>
        <time>2020-05-10T11:49:07Z</time>
      </trkpt>
      <trkpt lat="48.78207" lon="7.32932">
        <ele>341.8</ele>
        <time>2020-05-10T11:49:09Z</time>
      </trkpt>
      <trkpt lat="48.78209" lon="7.32933">
        <ele>341.9</ele>
        <time>2020-05-10T11:49:10Z</time>
      </trkpt>
      <trkpt lat="48.78213" lon="7.32936">
        <ele>342.1</ele>
        <time>2020-05-10T11:49:12Z</time>
      </trkpt>
      <trkpt lat="48.78213" lon="7.32937">
        <ele>342.1</ele>
        <time>2020-05-10T11:49:13Z</time>
      </trkpt>
      <trkpt lat="48.78217" lon="7.32942">
        <ele>342.3</ele>
        <time>2020-05-10T11:49:15Z</time>
      </trkpt>
      <trkpt lat="48.78223" lon="7.32947">
        <ele>342.2</ele>
        <time>2020-05-10T11:49:17Z</time>
      </trkpt>
      <trkpt lat="48.78227" lon="7.32951">
        <ele>342.1</ele>
        <time>2020-05-10T11:49:18Z</time>
      </trkpt>
      <trkpt lat="48.78234" lon="7.32961">
        <ele>342</ele>
        <time>2020-05-10T11:49:20Z</time>
      </trkpt>
      <trkpt lat="48.78237" lon="7.32965">
        <ele>341.9</ele>
        <time>2020-05-10T11:49:21Z</time>
      </trkpt>
      <trkpt lat="48.78245" lon="7.32973">
        <ele>341.9</ele>
        <time>2020-05-10T11:49:23Z</time>
      </trkpt>
      <trkpt lat="48.78251" lon="7.3298">
        <ele>341.8</ele>
        <time>2020-05-10T11:49:25Z</time>
      </trkpt>
      <trkpt lat="48.78254" lon="7.32984">
        <ele>341.8</ele>
        <time>2020-05-10T11:49:26Z</time>
      </trkpt>
      <trkpt lat="48.78259" lon="7.32992">
        <ele>341.7</ele>
        <time>2020-05-10T11:49:28Z</time>
      </trkpt>
      <trkpt lat="48.78262" lon="7.32997">
        <ele>341.7</ele>
        <time>2020-05-10T11:49:29Z</time>
      </trkpt>
      <trkpt lat="48.78266" lon="7.33002">
        <ele>341.6</ele>
        <time>2020-05-10T11:49:31Z</time>
      </trkpt>
      <trkpt lat="48.7827" lon="7.33008">
        <ele>341.6</ele>
        <time>2020-05-10T11:49:33Z</time>
      </trkpt>
      <trkpt lat="48.78273" lon="7.33012">
        <ele>341.5</ele>
        <time>2020-05-10T11:49:34Z</time>
      </trkpt>
      <trkpt lat="48.78274" lon="7.33016">
        <ele>341.5</ele>
        <time>2020-05-10T11:49:35Z</time>
      </trkpt>
      <trkpt lat="48.78276" lon="7.33021">
        <ele>341.5</ele>
        <time>2020-05-10T11:49:36Z</time>
      </trkpt>
      <trkpt lat="48.78279" lon="7.33031">
        <ele>341.4</ele>
        <time>2020-05-10T11:49:38Z</time>
      </trkpt>
      <trkpt lat="48.78281" lon="7.33035">
        <ele>341.4</ele>
        <time>2020-05-10T11:49:39Z</time>
      </trkpt>
      <trkpt lat="48.78286" lon="7.33044">
        <ele>341.4</ele>
        <time>2020-05-10T11:49:41Z</time>
      </trkpt>
      <trkpt lat="48.78288" lon="7.33048">
        <ele>341.4</ele>
        <time>2020-05-10T11:49:42Z</time>
      </trkpt>
      <trkpt lat="48.78293" lon="7.33055">
        <ele>341.4</ele>
        <time>2020-05-10T11:49:44Z</time>
      </trkpt>
      <trkpt lat="48.78305" lon="7.33062">
        <ele>341.4</ele>
        <time>2020-05-10T11:49:46Z</time>
      </trkpt>
      <trkpt lat="48.78311" lon="7.3307">
        <ele>341.4</ele>
        <time>2020-05-10T11:49:48Z</time>
      </trkpt>
      <trkpt lat="48.78313" lon="7.33075">
        <ele>341.5</ele>
        <time>2020-05-10T11:49:49Z</time>
      </trkpt>
      <trkpt lat="48.78316" lon="7.3308">
        <ele>341.6</ele>
        <time>2020-05-10T11:49:50Z</time>
      </trkpt>
      <trkpt lat="48.78318" lon="7.33089">
        <ele>341.7</ele>
        <time>2020-05-10T11:49:52Z</time>
      </trkpt>
      <trkpt lat="48.7832" lon="7.33096">
        <ele>341.9</ele>
        <time>2020-05-10T11:49:54Z</time>
      </trkpt>
      <trkpt lat="48.78323" lon="7.33103">
        <ele>342</ele>
        <time>2020-05-10T11:49:56Z</time>
      </trkpt>
      <trkpt lat="48.78325" lon="7.33108">
        <ele>342.2</ele>
        <time>2020-05-10T11:49:57Z</time>
      </trkpt>
      <trkpt lat="48.78326" lon="7.33109">
        <ele>342.2</ele>
        <time>2020-05-10T11:49:58Z</time>
      </trkpt>
      <trkpt lat="48.78328" lon="7.33113">
        <ele>342.4</ele>
        <time>2020-05-10T11:50:00Z</time>
      </trkpt>
      <trkpt lat="48.7833" lon="7.33116">
        <ele>342.5</ele>
        <time>2020-05-10T11:50:01Z</time>
      </trkpt>
      <trkpt lat="48.78335" lon="7.33122">
        <ele>342.8</ele>
        <time>2020-05-10T11:50:03Z</time>
      </trkpt>
      <trkpt lat="48.78337" lon="7.33126">
        <ele>343</ele>
        <time>2020-05-10T11:50:04Z</time>
      </trkpt>
      <trkpt lat="48.78339" lon="7.33129">
        <ele>343.2</ele>
        <time>2020-05-10T11:50:05Z</time>
      </trkpt>
      <trkpt lat="48.78343" lon="7.33136">
        <ele>343.6</ele>
        <time>2020-05-10T11:50:07Z</time>
      </trkpt>
      <trkpt lat="48.78346" lon="7.33141">
        <ele>343.9</ele>
        <time>2020-05-10T11:50:08Z</time>
      </trkpt>
      <trkpt lat="48.78347" lon="7.33147">
        <ele>344.2</ele>
        <time>2020-05-10T11:50:10Z</time>
      </trkpt>
      <trkpt lat="48.78349" lon="7.3315">
        <ele>344.3</ele>
        <time>2020-05-10T11:50:11Z</time>
      </trkpt>
      <trkpt lat="48.78351" lon="7.33158">
        <ele>344.6</ele>
        <time>2020-05-10T11:50:13Z</time>
      </trkpt>
      <trkpt lat="48.78353" lon="7.33166">
        <ele>344.9</ele>
        <time>2020-05-10T11:50:15Z</time>
      </trkpt>
      <trkpt lat="48.78354" lon="7.3317">
        <ele>345.1</ele>
        <time>2020-05-10T11:50:16Z</time>
      </trkpt>
      <trkpt lat="48.78356" lon="7.33178">
        <ele>345.3</ele>
        <time>2020-05-10T11:50:18Z</time>
      </trkpt>
      <trkpt lat="48.78357" lon="7.33189">
        <ele>345.5</ele>
        <time>2020-05-10T11:50:20Z</time>
      </trkpt>
      <trkpt lat="48.7836" lon="7.332">
        <ele>345.6</ele>
        <time>2020-05-10T11:50:22Z</time>
      </trkpt>
      <trkpt lat="48.78362" lon="7.33211">
        <ele>345.8</ele>
        <time>2020-05-10T11:50:24Z</time>
      </trkpt>
      <trkpt lat="48.78362" lon="7.33216">
        <ele>345.9</ele>
        <time>2020-05-10T11:50:25Z</time>
      </trkpt>
      <trkpt lat="48.78363" lon="7.33223">
        <ele>346.1</ele>
        <time>2020-05-10T11:50:27Z</time>
      </trkpt>
      <trkpt lat="48.78363" lon="7.33228">
        <ele>346.3</ele>
        <time>2020-05-10T11:50:28Z</time>
      </trkpt>
      <trkpt lat="48.78364" lon="7.33231">
        <ele>346.4</ele>
        <time>2020-05-10T11:50:29Z</time>
      </trkpt>
      <trkpt lat="48.78364" lon="7.33235">
        <ele>346.6</ele>
        <time>2020-05-10T11:50:30Z</time>
      </trkpt>
      <trkpt lat="48.78364" lon="7.33243">
        <ele>347</ele>
        <time>2020-05-10T11:50:32Z</time>
      </trkpt>
      <trkpt lat="48.78363" lon="7.33251">
        <ele>347.4</ele>
        <time>2020-05-10T11:50:34Z</time>
      </trkpt>
      <trkpt lat="48.78361" lon="7.3326">
        <ele>348</ele>
        <time>2020-05-10T11:50:36Z</time>
      </trkpt>
      <trkpt lat="48.78359" lon="7.33265">
        <ele>348.4</ele>
        <time>2020-05-10T11:50:38Z</time>
      </trkpt>
      <trkpt lat="48.78356" lon="7.33269">
        <ele>348.9</ele>
        <time>2020-05-10T11:50:40Z</time>
      </trkpt>
      <trkpt lat="48.78355" lon="7.33269">
        <ele>349</ele>
        <time>2020-05-10T11:50:41Z</time>
      </trkpt>
      <trkpt lat="48.78351" lon="7.33269">
        <ele>349.6</ele>
        <time>2020-05-10T11:50:43Z</time>
      </trkpt>
      <trkpt lat="48.78348" lon="7.33268">
        <ele>350</ele>
        <time>2020-05-10T11:50:44Z</time>
      </trkpt>
      <trkpt lat="48.78345" lon="7.33268">
        <ele>350.5</ele>
        <time>2020-05-10T11:50:46Z</time>
      </trkpt>
      <trkpt lat="48.78343" lon="7.33267">
        <ele>350.8</ele>
        <time>2020-05-10T11:50:47Z</time>
      </trkpt>
      <trkpt lat="48.78339" lon="7.33265">
        <ele>351.4</ele>
        <time>2020-05-10T11:50:49Z</time>
      </trkpt>
      <trkpt lat="48.78336" lon="7.33262">
        <ele>352</ele>
        <time>2020-05-10T11:50:51Z</time>
      </trkpt>
      <trkpt lat="48.78334" lon="7.33259">
        <ele>352.4</ele>
        <time>2020-05-10T11:50:52Z</time>
      </trkpt>
      <trkpt lat="48.78329" lon="7.33257">
        <ele>353.2</ele>
        <time>2020-05-10T11:50:54Z</time>
      </trkpt>
      <trkpt lat="48.78327" lon="7.33257">
        <ele>353.4</ele>
        <time>2020-05-10T11:50:56Z</time>
      </trkpt>
      <trkpt lat="48.78325" lon="7.33256">
        <ele>353.7</ele>
        <time>2020-05-10T11:50:58Z</time>
      </trkpt>
      <trkpt lat="48.78324" lon="7.33256">
        <ele>353.9</ele>
        <time>2020-05-10T11:50:59Z</time>
      </trkpt>
      <trkpt lat="48.78323" lon="7.33256">
        <ele>354.1</ele>
        <time>2020-05-10T11:51:00Z</time>
      </trkpt>
      <trkpt lat="48.78317" lon="7.33255">
        <ele>354.8</ele>
        <time>2020-05-10T11:51:03Z</time>
      </trkpt>
      <trkpt lat="48.78314" lon="7.33256">
        <ele>355.2</ele>
        <time>2020-05-10T11:51:04Z</time>
      </trkpt>
      <trkpt lat="48.78313" lon="7.33256">
        <ele>355.4</ele>
        <time>2020-05-10T11:51:05Z</time>
      </trkpt>
      <trkpt lat="48.78309" lon="7.33257">
        <ele>356</ele>
        <time>2020-05-10T11:51:07Z</time>
      </trkpt>
      <trkpt lat="48.78303" lon="7.33256">
        <ele>356.6</ele>
        <time>2020-05-10T11:51:09Z</time>
      </trkpt>
      <trkpt lat="48.78299" lon="7.33255">
        <ele>357</ele>
        <time>2020-05-10T11:51:10Z</time>
      </trkpt>
      <trkpt lat="48.78298" lon="7.33255">
        <ele>357.1</ele>
        <time>2020-05-10T11:51:11Z</time>
      </trkpt>
      <trkpt lat="48.78296" lon="7.33254">
        <ele>357.3</ele>
        <time>2020-05-10T11:51:12Z</time>
      </trkpt>
      <trkpt lat="48.78292" lon="7.33253">
        <ele>357.6</ele>
        <time>2020-05-10T11:51:14Z</time>
      </trkpt>
      <trkpt lat="48.7829" lon="7.33253">
        <ele>357.7</ele>
        <time>2020-05-10T11:51:15Z</time>
      </trkpt>
      <trkpt lat="48.78285" lon="7.33255">
        <ele>358.2</ele>
        <time>2020-05-10T11:51:17Z</time>
      </trkpt>
      <trkpt lat="48.78282" lon="7.33259">
        <ele>358.4</ele>
        <time>2020-05-10T11:51:18Z</time>
      </trkpt>
      <trkpt lat="48.78281" lon="7.3326">
        <ele>358.4</ele>
        <time>2020-05-10T11:51:19Z</time>
      </trkpt>
      <trkpt lat="48.78278" lon="7.33265">
        <ele>358.6</ele>
        <time>2020-05-10T11:51:21Z</time>
      </trkpt>
      <trkpt lat="48.78275" lon="7.33269">
        <ele>358.8</ele>
        <time>2020-05-10T11:51:23Z</time>
      </trkpt>
      <trkpt lat="48.78273" lon="7.33273">
        <ele>359</ele>
        <time>2020-05-10T11:51:24Z</time>
      </trkpt>
      <trkpt lat="48.78272" lon="7.33274">
        <ele>359</ele>
        <time>2020-05-10T11:51:25Z</time>
      </trkpt>
      <trkpt lat="48.78267" lon="7.3328">
        <ele>359.4</ele>
        <time>2020-05-10T11:51:27Z</time>
      </trkpt>
      <trkpt lat="48.78263" lon="7.33284">
        <ele>359.7</ele>
        <time>2020-05-10T11:51:29Z</time>
      </trkpt>
      <trkpt lat="48.7826" lon="7.33285">
        <ele>359.8</ele>
        <time>2020-05-10T11:51:30Z</time>
      </trkpt>
      <trkpt lat="48.78259" lon="7.33286">
        <ele>359.9</ele>
        <time>2020-05-10T11:51:31Z</time>
      </trkpt>
      <trkpt lat="48.78254" lon="7.33289">
        <ele>360.2</ele>
        <time>2020-05-10T11:51:33Z</time>
      </trkpt>
      <trkpt lat="48.7825" lon="7.33289">
        <ele>360.4</ele>
        <time>2020-05-10T11:51:35Z</time>
      </trkpt>
      <trkpt lat="48.78247" lon="7.3329">
        <ele>360.6</ele>
        <time>2020-05-10T11:51:36Z</time>
      </trkpt>
      <trkpt lat="48.78246" lon="7.3329">
        <ele>360.6</ele>
        <time>2020-05-10T11:51:37Z</time>
      </trkpt>
      <trkpt lat="48.78241" lon="7.33291">
        <ele>360.9</ele>
        <time>2020-05-10T11:51:39Z</time>
      </trkpt>
      <trkpt lat="48.78237" lon="7.33292">
        <ele>361.2</ele>
        <time>2020-05-10T11:51:41Z</time>
      </trkpt>
      <trkpt lat="48.78233" lon="7.33293">
        <ele>361.4</ele>
        <time>2020-05-10T11:51:42Z</time>
      </trkpt>
      <trkpt lat="48.78232" lon="7.33293">
        <ele>361.4</ele>
        <time>2020-05-10T11:51:43Z</time>
      </trkpt>
      <trkpt lat="48.78228" lon="7.33294">
        <ele>361.6</ele>
        <time>2020-05-10T11:51:44Z</time>
      </trkpt>
      <trkpt lat="48.78222" lon="7.33294">
        <ele>362</ele>
        <time>2020-05-10T11:51:46Z</time>
      </trkpt>
      <trkpt lat="48.78219" lon="7.33295">
        <ele>362.1</ele>
        <time>2020-05-10T11:51:47Z</time>
      </trkpt>
      <trkpt lat="48.78212" lon="7.33294">
        <ele>362.5</ele>
        <time>2020-05-10T11:51:49Z</time>
      </trkpt>
      <trkpt lat="48.78206" lon="7.33293">
        <ele>362.8</ele>
        <time>2020-05-10T11:51:51Z</time>
      </trkpt>
      <trkpt lat="48.782" lon="7.33292">
        <ele>363.1</ele>
        <time>2020-05-10T11:51:53Z</time>
      </trkpt>
      <trkpt lat="48.78194" lon="7.3329">
        <ele>363.3</ele>
        <time>2020-05-10T11:51:55Z</time>
      </trkpt>
      <trkpt lat="48.78191" lon="7.33289">
        <ele>363.5</ele>
        <time>2020-05-10T11:51:56Z</time>
      </trkpt>
      <trkpt lat="48.78184" lon="7.33287">
        <ele>363.8</ele>
        <time>2020-05-10T11:51:58Z</time>
      </trkpt>
      <trkpt lat="48.78182" lon="7.33286">
        <ele>363.9</ele>
        <time>2020-05-10T11:51:59Z</time>
      </trkpt>
      <trkpt lat="48.78177" lon="7.33282">
        <ele>364.2</ele>
        <time>2020-05-10T11:52:01Z</time>
      </trkpt>
      <trkpt lat="48.78174" lon="7.3328">
        <ele>364.3</ele>
        <time>2020-05-10T11:52:02Z</time>
      </trkpt>
      <trkpt lat="48.7817" lon="7.33278">
        <ele>364.5</ele>
        <time>2020-05-10T11:52:03Z</time>
      </trkpt>
      <trkpt lat="48.78169" lon="7.33278">
        <ele>364.5</ele>
        <time>2020-05-10T11:52:04Z</time>
      </trkpt>
      <trkpt lat="48.78167" lon="7.33276">
        <ele>364.6</ele>
        <time>2020-05-10T11:52:05Z</time>
      </trkpt>
      <trkpt lat="48.78164" lon="7.33275">
        <ele>364.8</ele>
        <time>2020-05-10T11:52:06Z</time>
      </trkpt>
      <trkpt lat="48.78159" lon="7.33272">
        <ele>365</ele>
        <time>2020-05-10T11:52:08Z</time>
      </trkpt>
      <trkpt lat="48.78157" lon="7.33272">
        <ele>365.1</ele>
        <time>2020-05-10T11:52:09Z</time>
      </trkpt>
      <trkpt lat="48.78152" lon="7.33272">
        <ele>365.3</ele>
        <time>2020-05-10T11:52:11Z</time>
      </trkpt>
      <trkpt lat="48.78148" lon="7.33271">
        <ele>365.4</ele>
        <time>2020-05-10T11:52:12Z</time>
      </trkpt>
      <trkpt lat="48.78145" lon="7.33271">
        <ele>365.5</ele>
        <time>2020-05-10T11:52:13Z</time>
      </trkpt>
      <trkpt lat="48.7814" lon="7.33269">
        <ele>365.7</ele>
        <time>2020-05-10T11:52:15Z</time>
      </trkpt>
      <trkpt lat="48.78137" lon="7.33267">
        <ele>365.8</ele>
        <time>2020-05-10T11:52:16Z</time>
      </trkpt>
      <trkpt lat="48.7813" lon="7.33263">
        <ele>366</ele>
        <time>2020-05-10T11:52:18Z</time>
      </trkpt>
      <trkpt lat="48.78128" lon="7.33262">
        <ele>366.1</ele>
        <time>2020-05-10T11:52:19Z</time>
      </trkpt>
      <trkpt lat="48.78122" lon="7.3326">
        <ele>366.2</ele>
        <time>2020-05-10T11:52:21Z</time>
      </trkpt>
      <trkpt lat="48.78119" lon="7.33259">
        <ele>366.3</ele>
        <time>2020-05-10T11:52:22Z</time>
      </trkpt>
      <trkpt lat="48.78115" lon="7.33259">
        <ele>366.3</ele>
        <time>2020-05-10T11:52:23Z</time>
      </trkpt>
      <trkpt lat="48.78113" lon="7.3326">
        <ele>366.4</ele>
        <time>2020-05-10T11:52:24Z</time>
      </trkpt>
      <trkpt lat="48.78111" lon="7.33261">
        <ele>366.4</ele>
        <time>2020-05-10T11:52:25Z</time>
      </trkpt>
      <trkpt lat="48.78108" lon="7.33261">
        <ele>366.5</ele>
        <time>2020-05-10T11:52:26Z</time>
      </trkpt>
      <trkpt lat="48.78103" lon="7.33259">
        <ele>366.6</ele>
        <time>2020-05-10T11:52:28Z</time>
      </trkpt>
      <trkpt lat="48.78101" lon="7.33258">
        <ele>366.7</ele>
        <time>2020-05-10T11:52:29Z</time>
      </trkpt>
      <trkpt lat="48.78097" lon="7.33258">
        <ele>366.8</ele>
        <time>2020-05-10T11:52:31Z</time>
      </trkpt>
      <trkpt lat="48.7809" lon="7.33257">
        <ele>366.9</ele>
        <time>2020-05-10T11:52:33Z</time>
      </trkpt>
      <trkpt lat="48.78086" lon="7.33256">
        <ele>367</ele>
        <time>2020-05-10T11:52:34Z</time>
      </trkpt>
      <trkpt lat="48.78079" lon="7.33255">
        <ele>367</ele>
        <time>2020-05-10T11:52:36Z</time>
      </trkpt>
      <trkpt lat="48.78075" lon="7.33255">
        <ele>367.1</ele>
        <time>2020-05-10T11:52:37Z</time>
      </trkpt>
      <trkpt lat="48.78066" lon="7.33254">
        <ele>367.1</ele>
        <time>2020-05-10T11:52:39Z</time>
      </trkpt>
      <trkpt lat="48.78056" lon="7.33255">
        <ele>367.2</ele>
        <time>2020-05-10T11:52:41Z</time>
      </trkpt>
      <trkpt lat="48.78047" lon="7.33257">
        <ele>367.2</ele>
        <time>2020-05-10T11:52:43Z</time>
      </trkpt>
      <trkpt lat="48.78044" lon="7.33258">
        <ele>367.2</ele>
        <time>2020-05-10T11:52:44Z</time>
      </trkpt>
      <trkpt lat="48.78037" lon="7.3326">
        <ele>367.2</ele>
        <time>2020-05-10T11:52:46Z</time>
      </trkpt>
      <trkpt lat="48.78032" lon="7.33263">
        <ele>367.2</ele>
        <time>2020-05-10T11:52:47Z</time>
      </trkpt>
      <trkpt lat="48.78028" lon="7.33265">
        <ele>367.2</ele>
        <time>2020-05-10T11:52:48Z</time>
      </trkpt>
      <trkpt lat="48.78021" lon="7.3327">
        <ele>367.2</ele>
        <time>2020-05-10T11:52:50Z</time>
      </trkpt>
      <trkpt lat="48.78017" lon="7.33273">
        <ele>367.2</ele>
        <time>2020-05-10T11:52:51Z</time>
      </trkpt>
      <trkpt lat="48.78013" lon="7.33276">
        <ele>367.2</ele>
        <time>2020-05-10T11:52:52Z</time>
      </trkpt>
      <trkpt lat="48.78005" lon="7.33281">
        <ele>367.2</ele>
        <time>2020-05-10T11:52:54Z</time>
      </trkpt>
      <trkpt lat="48.78001" lon="7.33284">
        <ele>367.2</ele>
        <time>2020-05-10T11:52:55Z</time>
      </trkpt>
      <trkpt lat="48.77991" lon="7.33292">
        <ele>367.2</ele>
        <time>2020-05-10T11:52:57Z</time>
      </trkpt>
      <trkpt lat="48.77986" lon="7.33297">
        <ele>367.2</ele>
        <time>2020-05-10T11:52:58Z</time>
      </trkpt>
      <trkpt lat="48.77982" lon="7.33301">
        <ele>367.3</ele>
        <time>2020-05-10T11:52:59Z</time>
      </trkpt>
      <trkpt lat="48.77977" lon="7.33312">
        <ele>367.3</ele>
        <time>2020-05-10T11:53:01Z</time>
      </trkpt>
      <trkpt lat="48.7797" lon="7.33323">
        <ele>367.4</ele>
        <time>2020-05-10T11:53:03Z</time>
      </trkpt>
      <trkpt lat="48.77968" lon="7.33328">
        <ele>367.4</ele>
        <time>2020-05-10T11:53:04Z</time>
      </trkpt>
      <trkpt lat="48.77963" lon="7.33338">
        <ele>367.5</ele>
        <time>2020-05-10T11:53:06Z</time>
      </trkpt>
      <trkpt lat="48.77959" lon="7.33349">
        <ele>367.6</ele>
        <time>2020-05-10T11:53:08Z</time>
      </trkpt>
      <trkpt lat="48.77954" lon="7.33359">
        <ele>367.7</ele>
        <time>2020-05-10T11:53:10Z</time>
      </trkpt>
      <trkpt lat="48.77948" lon="7.33371">
        <ele>368</ele>
        <time>2020-05-10T11:53:12Z</time>
      </trkpt>
      <trkpt lat="48.77946" lon="7.33378">
        <ele>368.2</ele>
        <time>2020-05-10T11:53:13Z</time>
      </trkpt>
      <trkpt lat="48.77942" lon="7.33389">
        <ele>368.5</ele>
        <time>2020-05-10T11:53:15Z</time>
      </trkpt>
      <trkpt lat="48.77938" lon="7.334">
        <ele>368.8</ele>
        <time>2020-05-10T11:53:17Z</time>
      </trkpt>
      <trkpt lat="48.77934" lon="7.33408">
        <ele>369.1</ele>
        <time>2020-05-10T11:53:19Z</time>
      </trkpt>
      <trkpt lat="48.77931" lon="7.33413">
        <ele>369.3</ele>
        <time>2020-05-10T11:53:20Z</time>
      </trkpt>
      <trkpt lat="48.7793" lon="7.33418">
        <ele>369.5</ele>
        <time>2020-05-10T11:53:21Z</time>
      </trkpt>
      <trkpt lat="48.77927" lon="7.33426">
        <ele>369.8</ele>
        <time>2020-05-10T11:53:23Z</time>
      </trkpt>
      <trkpt lat="48.77925" lon="7.3343">
        <ele>369.9</ele>
        <time>2020-05-10T11:53:24Z</time>
      </trkpt>
      <trkpt lat="48.77924" lon="7.33434">
        <ele>370.1</ele>
        <time>2020-05-10T11:53:25Z</time>
      </trkpt>
      <trkpt lat="48.77921" lon="7.33441">
        <ele>370.4</ele>
        <time>2020-05-10T11:53:27Z</time>
      </trkpt>
      <trkpt lat="48.77919" lon="7.33444">
        <ele>370.6</ele>
        <time>2020-05-10T11:53:28Z</time>
      </trkpt>
      <trkpt lat="48.77917" lon="7.33448">
        <ele>370.8</ele>
        <time>2020-05-10T11:53:29Z</time>
      </trkpt>
      <trkpt lat="48.77916" lon="7.3346">
        <ele>371.2</ele>
        <time>2020-05-10T11:53:31Z</time>
      </trkpt>
      <trkpt lat="48.77917" lon="7.33465">
        <ele>371.4</ele>
        <time>2020-05-10T11:53:32Z</time>
      </trkpt>
      <trkpt lat="48.77917" lon="7.33471">
        <ele>371.6</ele>
        <time>2020-05-10T11:53:33Z</time>
      </trkpt>
      <trkpt lat="48.77916" lon="7.33481">
        <ele>372</ele>
        <time>2020-05-10T11:53:35Z</time>
      </trkpt>
      <trkpt lat="48.77915" lon="7.33491">
        <ele>372.3</ele>
        <time>2020-05-10T11:53:37Z</time>
      </trkpt>
      <trkpt lat="48.77914" lon="7.33501">
        <ele>372.7</ele>
        <time>2020-05-10T11:53:39Z</time>
      </trkpt>
      <trkpt lat="48.77913" lon="7.33506">
        <ele>372.9</ele>
        <time>2020-05-10T11:53:40Z</time>
      </trkpt>
      <trkpt lat="48.77911" lon="7.33514">
        <ele>373.2</ele>
        <time>2020-05-10T11:53:42Z</time>
      </trkpt>
      <trkpt lat="48.77909" lon="7.33519">
        <ele>373.4</ele>
        <time>2020-05-10T11:53:43Z</time>
      </trkpt>
      <trkpt lat="48.77908" lon="7.33523">
        <ele>373.5</ele>
        <time>2020-05-10T11:53:44Z</time>
      </trkpt>
      <trkpt lat="48.77907" lon="7.33528">
        <ele>373.7</ele>
        <time>2020-05-10T11:53:45Z</time>
      </trkpt>
      <trkpt lat="48.77901" lon="7.33536">
        <ele>374.1</ele>
        <time>2020-05-10T11:53:47Z</time>
      </trkpt>
      <trkpt lat="48.77898" lon="7.33544">
        <ele>374.5</ele>
        <time>2020-05-10T11:53:49Z</time>
      </trkpt>
      <trkpt lat="48.77893" lon="7.33554">
        <ele>374.9</ele>
        <time>2020-05-10T11:53:51Z</time>
      </trkpt>
      <trkpt lat="48.77889" lon="7.33562">
        <ele>375.1</ele>
        <time>2020-05-10T11:53:53Z</time>
      </trkpt>
      <trkpt lat="48.77884" lon="7.3357">
        <ele>375.4</ele>
        <time>2020-05-10T11:53:55Z</time>
      </trkpt>
      <trkpt lat="48.77882" lon="7.33572">
        <ele>375.6</ele>
        <time>2020-05-10T11:53:56Z</time>
      </trkpt>
      <trkpt lat="48.77877" lon="7.33578">
        <ele>375.8</ele>
        <time>2020-05-10T11:53:58Z</time>
      </trkpt>
      <trkpt lat="48.77874" lon="7.33582">
        <ele>376</ele>
        <time>2020-05-10T11:53:59Z</time>
      </trkpt>
      <trkpt lat="48.77869" lon="7.33587">
        <ele>376.2</ele>
        <time>2020-05-10T11:54:01Z</time>
      </trkpt>
      <trkpt lat="48.77866" lon="7.3359">
        <ele>376.3</ele>
        <time>2020-05-10T11:54:02Z</time>
      </trkpt>
      <trkpt lat="48.77861" lon="7.33594">
        <ele>376.5</ele>
        <time>2020-05-10T11:54:04Z</time>
      </trkpt>
      <trkpt lat="48.77858" lon="7.33598">
        <ele>376.6</ele>
        <time>2020-05-10T11:54:05Z</time>
      </trkpt>
      <trkpt lat="48.77857" lon="7.33599">
        <ele>376.7</ele>
        <time>2020-05-10T11:54:06Z</time>
      </trkpt>
      <trkpt lat="48.77851" lon="7.33603">
        <ele>376.9</ele>
        <time>2020-05-10T11:54:08Z</time>
      </trkpt>
      <trkpt lat="48.77847" lon="7.33607">
        <ele>377.1</ele>
        <time>2020-05-10T11:54:10Z</time>
      </trkpt>
      <trkpt lat="48.77842" lon="7.33612">
        <ele>377.3</ele>
        <time>2020-05-10T11:54:12Z</time>
      </trkpt>
      <trkpt lat="48.7784" lon="7.33615">
        <ele>377.3</ele>
        <time>2020-05-10T11:54:13Z</time>
      </trkpt>
      <trkpt lat="48.77835" lon="7.33621">
        <ele>377.6</ele>
        <time>2020-05-10T11:54:15Z</time>
      </trkpt>
      <trkpt lat="48.77832" lon="7.33623">
        <ele>377.6</ele>
        <time>2020-05-10T11:54:16Z</time>
      </trkpt>
      <trkpt lat="48.77828" lon="7.33624">
        <ele>377.8</ele>
        <time>2020-05-10T11:54:17Z</time>
      </trkpt>
      <trkpt lat="48.77826" lon="7.33625">
        <ele>377.9</ele>
        <time>2020-05-10T11:54:18Z</time>
      </trkpt>
      <trkpt lat="48.77819" lon="7.33628">
        <ele>378.1</ele>
        <time>2020-05-10T11:54:20Z</time>
      </trkpt>
      <trkpt lat="48.77813" lon="7.3363">
        <ele>378.3</ele>
        <time>2020-05-10T11:54:22Z</time>
      </trkpt>
      <trkpt lat="48.7781" lon="7.33631">
        <ele>378.3</ele>
        <time>2020-05-10T11:54:23Z</time>
      </trkpt>
      <trkpt lat="48.77804" lon="7.33635">
        <ele>378.5</ele>
        <time>2020-05-10T11:54:25Z</time>
      </trkpt>
      <trkpt lat="48.77797" lon="7.3364">
        <ele>378.8</ele>
        <time>2020-05-10T11:54:27Z</time>
      </trkpt>
      <trkpt lat="48.77792" lon="7.33646">
        <ele>379</ele>
        <time>2020-05-10T11:54:29Z</time>
      </trkpt>
      <trkpt lat="48.77786" lon="7.33652">
        <ele>379.2</ele>
        <time>2020-05-10T11:54:31Z</time>
      </trkpt>
      <trkpt lat="48.7778" lon="7.33658">
        <ele>379.4</ele>
        <time>2020-05-10T11:54:33Z</time>
      </trkpt>
      <trkpt lat="48.77776" lon="7.33661">
        <ele>379.5</ele>
        <time>2020-05-10T11:54:35Z</time>
      </trkpt>
      <trkpt lat="48.77772" lon="7.33664">
        <ele>379.7</ele>
        <time>2020-05-10T11:54:36Z</time>
      </trkpt>
      <trkpt lat="48.77764" lon="7.33666">
        <ele>379.9</ele>
        <time>2020-05-10T11:54:38Z</time>
      </trkpt>
      <trkpt lat="48.77761" lon="7.33667">
        <ele>380</ele>
        <time>2020-05-10T11:54:39Z</time>
      </trkpt>
      <trkpt lat="48.77753" lon="7.3367">
        <ele>380.3</ele>
        <time>2020-05-10T11:54:41Z</time>
      </trkpt>
      <trkpt lat="48.77747" lon="7.33675">
        <ele>380.5</ele>
        <time>2020-05-10T11:54:43Z</time>
      </trkpt>
      <trkpt lat="48.7774" lon="7.33681">
        <ele>380.7</ele>
        <time>2020-05-10T11:54:45Z</time>
      </trkpt>
      <trkpt lat="48.77735" lon="7.33687">
        <ele>380.9</ele>
        <time>2020-05-10T11:54:47Z</time>
      </trkpt>
      <trkpt lat="48.7773" lon="7.33695">
        <ele>381.2</ele>
        <time>2020-05-10T11:54:49Z</time>
      </trkpt>
      <trkpt lat="48.77728" lon="7.337">
        <ele>381.4</ele>
        <time>2020-05-10T11:54:50Z</time>
      </trkpt>
      <trkpt lat="48.77726" lon="7.33705">
        <ele>381.5</ele>
        <time>2020-05-10T11:54:51Z</time>
      </trkpt>
      <trkpt lat="48.77723" lon="7.33717">
        <ele>381.8</ele>
        <time>2020-05-10T11:54:53Z</time>
      </trkpt>
      <trkpt lat="48.77721" lon="7.33723">
        <ele>382</ele>
        <time>2020-05-10T11:54:54Z</time>
      </trkpt>
      <trkpt lat="48.77718" lon="7.33729">
        <ele>382.1</ele>
        <time>2020-05-10T11:54:55Z</time>
      </trkpt>
      <trkpt lat="48.77714" lon="7.33739">
        <ele>382.3</ele>
        <time>2020-05-10T11:54:57Z</time>
      </trkpt>
      <trkpt lat="48.77712" lon="7.33743">
        <ele>382.4</ele>
        <time>2020-05-10T11:54:58Z</time>
      </trkpt>
      <trkpt lat="48.77711" lon="7.33748">
        <ele>382.5</ele>
        <time>2020-05-10T11:54:59Z</time>
      </trkpt>
      <trkpt lat="48.7771" lon="7.33753">
        <ele>382.6</ele>
        <time>2020-05-10T11:55:00Z</time>
      </trkpt>
      <trkpt lat="48.77709" lon="7.33759">
        <ele>382.7</ele>
        <time>2020-05-10T11:55:01Z</time>
      </trkpt>
      <trkpt lat="48.77708" lon="7.33771">
        <ele>383</ele>
        <time>2020-05-10T11:55:03Z</time>
      </trkpt>
      <trkpt lat="48.77708" lon="7.33777">
        <ele>383.1</ele>
        <time>2020-05-10T11:55:04Z</time>
      </trkpt>
      <trkpt lat="48.77707" lon="7.33788">
        <ele>383.3</ele>
        <time>2020-05-10T11:55:06Z</time>
      </trkpt>
      <trkpt lat="48.77707" lon="7.33793">
        <ele>383.4</ele>
        <time>2020-05-10T11:55:07Z</time>
      </trkpt>
      <trkpt lat="48.77706" lon="7.33798">
        <ele>383.5</ele>
        <time>2020-05-10T11:55:08Z</time>
      </trkpt>
      <trkpt lat="48.77702" lon="7.33808">
        <ele>383.7</ele>
        <time>2020-05-10T11:55:10Z</time>
      </trkpt>
      <trkpt lat="48.777" lon="7.33813">
        <ele>383.8</ele>
        <time>2020-05-10T11:55:11Z</time>
      </trkpt>
      <trkpt lat="48.77697" lon="7.33823">
        <ele>384</ele>
        <time>2020-05-10T11:55:13Z</time>
      </trkpt>
      <trkpt lat="48.77694" lon="7.33833">
        <ele>384.1</ele>
        <time>2020-05-10T11:55:15Z</time>
      </trkpt>
      <trkpt lat="48.77693" lon="7.33839">
        <ele>384.2</ele>
        <time>2020-05-10T11:55:16Z</time>
      </trkpt>
      <trkpt lat="48.77691" lon="7.33849">
        <ele>384.4</ele>
        <time>2020-05-10T11:55:18Z</time>
      </trkpt>
      <trkpt lat="48.77689" lon="7.33854">
        <ele>384.5</ele>
        <time>2020-05-10T11:55:19Z</time>
      </trkpt>
      <trkpt lat="48.77687" lon="7.33865">
        <ele>384.7</ele>
        <time>2020-05-10T11:55:21Z</time>
      </trkpt>
      <trkpt lat="48.77687" lon="7.33877">
        <ele>384.9</ele>
        <time>2020-05-10T11:55:23Z</time>
      </trkpt>
      <trkpt lat="48.77686" lon="7.33883">
        <ele>385</ele>
        <time>2020-05-10T11:55:24Z</time>
      </trkpt>
      <trkpt lat="48.77687" lon="7.33896">
        <ele>385.3</ele>
        <time>2020-05-10T11:55:26Z</time>
      </trkpt>
      <trkpt lat="48.77689" lon="7.33907">
        <ele>385.5</ele>
        <time>2020-05-10T11:55:28Z</time>
      </trkpt>
      <trkpt lat="48.7769" lon="7.33914">
        <ele>385.6</ele>
        <time>2020-05-10T11:55:29Z</time>
      </trkpt>
      <trkpt lat="48.77691" lon="7.33919">
        <ele>385.7</ele>
        <time>2020-05-10T11:55:30Z</time>
      </trkpt>
      <trkpt lat="48.77693" lon="7.3393">
        <ele>385.9</ele>
        <time>2020-05-10T11:55:32Z</time>
      </trkpt>
      <trkpt lat="48.77694" lon="7.33935">
        <ele>385.9</ele>
        <time>2020-05-10T11:55:33Z</time>
      </trkpt>
      <trkpt lat="48.77693" lon="7.33944">
        <ele>386.1</ele>
        <time>2020-05-10T11:55:35Z</time>
      </trkpt>
      <trkpt lat="48.77692" lon="7.33947">
        <ele>386.1</ele>
        <time>2020-05-10T11:55:36Z</time>
      </trkpt>
      <trkpt lat="48.77692" lon="7.33957">
        <ele>386.3</ele>
        <time>2020-05-10T11:55:38Z</time>
      </trkpt>
      <trkpt lat="48.77693" lon="7.33967">
        <ele>386.4</ele>
        <time>2020-05-10T11:55:40Z</time>
      </trkpt>
      <trkpt lat="48.77694" lon="7.33973">
        <ele>386.5</ele>
        <time>2020-05-10T11:55:41Z</time>
      </trkpt>
      <trkpt lat="48.77696" lon="7.33985">
        <ele>386.8</ele>
        <time>2020-05-10T11:55:43Z</time>
      </trkpt>
      <trkpt lat="48.77698" lon="7.33997">
        <ele>387</ele>
        <time>2020-05-10T11:55:45Z</time>
      </trkpt>
      <trkpt lat="48.77699" lon="7.34002">
        <ele>387.1</ele>
        <time>2020-05-10T11:55:46Z</time>
      </trkpt>
      <trkpt lat="48.77702" lon="7.34015">
        <ele>387.3</ele>
        <time>2020-05-10T11:55:48Z</time>
      </trkpt>
      <trkpt lat="48.77704" lon="7.34026">
        <ele>387.5</ele>
        <time>2020-05-10T11:55:50Z</time>
      </trkpt>
      <trkpt lat="48.77705" lon="7.34032">
        <ele>387.6</ele>
        <time>2020-05-10T11:55:51Z</time>
      </trkpt>
      <trkpt lat="48.77707" lon="7.34038">
        <ele>387.7</ele>
        <time>2020-05-10T11:55:52Z</time>
      </trkpt>
      <trkpt lat="48.77709" lon="7.34049">
        <ele>387.8</ele>
        <time>2020-05-10T11:55:54Z</time>
      </trkpt>
      <trkpt lat="48.7771" lon="7.34054">
        <ele>387.9</ele>
        <time>2020-05-10T11:55:55Z</time>
      </trkpt>
      <trkpt lat="48.7771" lon="7.3406">
        <ele>388</ele>
        <time>2020-05-10T11:55:56Z</time>
      </trkpt>
      <trkpt lat="48.7771" lon="7.34071">
        <ele>388.2</ele>
        <time>2020-05-10T11:55:58Z</time>
      </trkpt>
      <trkpt lat="48.7771" lon="7.34075">
        <ele>388.3</ele>
        <time>2020-05-10T11:55:59Z</time>
      </trkpt>
      <trkpt lat="48.77711" lon="7.34086">
        <ele>388.5</ele>
        <time>2020-05-10T11:56:01Z</time>
      </trkpt>
      <trkpt lat="48.77711" lon="7.34091">
        <ele>388.6</ele>
        <time>2020-05-10T11:56:02Z</time>
      </trkpt>
      <trkpt lat="48.77713" lon="7.34102">
        <ele>388.9</ele>
        <time>2020-05-10T11:56:04Z</time>
      </trkpt>
      <trkpt lat="48.77714" lon="7.34111">
        <ele>389.1</ele>
        <time>2020-05-10T11:56:06Z</time>
      </trkpt>
      <trkpt lat="48.77716" lon="7.34116">
        <ele>389.1</ele>
        <time>2020-05-10T11:56:07Z</time>
      </trkpt>
      <trkpt lat="48.77718" lon="7.34124">
        <ele>389.3</ele>
        <time>2020-05-10T11:56:09Z</time>
      </trkpt>
      <trkpt lat="48.77719" lon="7.34129">
        <ele>389.4</ele>
        <time>2020-05-10T11:56:10Z</time>
      </trkpt>
      <trkpt lat="48.7772" lon="7.34142">
        <ele>389.6</ele>
        <time>2020-05-10T11:56:12Z</time>
      </trkpt>
      <trkpt lat="48.77722" lon="7.3415">
        <ele>389.8</ele>
        <time>2020-05-10T11:56:14Z</time>
      </trkpt>
      <trkpt lat="48.77722" lon="7.34156">
        <ele>389.9</ele>
        <time>2020-05-10T11:56:15Z</time>
      </trkpt>
      <trkpt lat="48.77723" lon="7.34167">
        <ele>390</ele>
        <time>2020-05-10T11:56:17Z</time>
      </trkpt>
      <trkpt lat="48.77724" lon="7.34174">
        <ele>390.1</ele>
        <time>2020-05-10T11:56:18Z</time>
      </trkpt>
      <trkpt lat="48.77724" lon="7.3418">
        <ele>390.1</ele>
        <time>2020-05-10T11:56:19Z</time>
      </trkpt>
      <trkpt lat="48.77725" lon="7.34192">
        <ele>390.3</ele>
        <time>2020-05-10T11:56:21Z</time>
      </trkpt>
      <trkpt lat="48.77725" lon="7.34204">
        <ele>390.4</ele>
        <time>2020-05-10T11:56:23Z</time>
      </trkpt>
      <trkpt lat="48.77725" lon="7.3421">
        <ele>390.5</ele>
        <time>2020-05-10T11:56:24Z</time>
      </trkpt>
      <trkpt lat="48.77725" lon="7.34216">
        <ele>390.6</ele>
        <time>2020-05-10T11:56:25Z</time>
      </trkpt>
      <trkpt lat="48.77725" lon="7.34228">
        <ele>390.8</ele>
        <time>2020-05-10T11:56:27Z</time>
      </trkpt>
      <trkpt lat="48.77724" lon="7.34234">
        <ele>390.9</ele>
        <time>2020-05-10T11:56:28Z</time>
      </trkpt>
      <trkpt lat="48.77723" lon="7.34246">
        <ele>391.2</ele>
        <time>2020-05-10T11:56:30Z</time>
      </trkpt>
      <trkpt lat="48.77722" lon="7.34252">
        <ele>391.3</ele>
        <time>2020-05-10T11:56:31Z</time>
      </trkpt>
      <trkpt lat="48.77722" lon="7.34264">
        <ele>391.6</ele>
        <time>2020-05-10T11:56:33Z</time>
      </trkpt>
      <trkpt lat="48.77722" lon="7.3427">
        <ele>391.7</ele>
        <time>2020-05-10T11:56:34Z</time>
      </trkpt>
      <trkpt lat="48.77722" lon="7.3428">
        <ele>392</ele>
        <time>2020-05-10T11:56:36Z</time>
      </trkpt>
      <trkpt lat="48.77722" lon="7.34286">
        <ele>392.1</ele>
        <time>2020-05-10T11:56:37Z</time>
      </trkpt>
      <trkpt lat="48.7772" lon="7.34296">
        <ele>392.3</ele>
        <time>2020-05-10T11:56:39Z</time>
      </trkpt>
      <trkpt lat="48.77719" lon="7.34306">
        <ele>392.5</ele>
        <time>2020-05-10T11:56:41Z</time>
      </trkpt>
      <trkpt lat="48.77718" lon="7.34316">
        <ele>392.7</ele>
        <time>2020-05-10T11:56:43Z</time>
      </trkpt>
      <trkpt lat="48.77717" lon="7.34324">
        <ele>392.9</ele>
        <time>2020-05-10T11:56:45Z</time>
      </trkpt>
      <trkpt lat="48.77716" lon="7.34329">
        <ele>393</ele>
        <time>2020-05-10T11:56:46Z</time>
      </trkpt>
      <trkpt lat="48.77716" lon="7.3434">
        <ele>393.2</ele>
        <time>2020-05-10T11:56:48Z</time>
      </trkpt>
      <trkpt lat="48.77716" lon="7.34346">
        <ele>393.3</ele>
        <time>2020-05-10T11:56:49Z</time>
      </trkpt>
      <trkpt lat="48.77716" lon="7.34358">
        <ele>393.6</ele>
        <time>2020-05-10T11:56:51Z</time>
      </trkpt>
      <trkpt lat="48.77716" lon="7.34363">
        <ele>393.7</ele>
        <time>2020-05-10T11:56:52Z</time>
      </trkpt>
      <trkpt lat="48.77715" lon="7.34373">
        <ele>394</ele>
        <time>2020-05-10T11:56:54Z</time>
      </trkpt>
      <trkpt lat="48.77714" lon="7.3438">
        <ele>394.1</ele>
        <time>2020-05-10T11:56:55Z</time>
      </trkpt>
      <trkpt lat="48.77712" lon="7.34385">
        <ele>394.3</ele>
        <time>2020-05-10T11:56:56Z</time>
      </trkpt>
      <trkpt lat="48.77711" lon="7.3439">
        <ele>394.4</ele>
        <time>2020-05-10T11:56:57Z</time>
      </trkpt>
      <trkpt lat="48.7771" lon="7.34395">
        <ele>394.5</ele>
        <time>2020-05-10T11:56:58Z</time>
      </trkpt>
      <trkpt lat="48.77709" lon="7.34405">
        <ele>394.8</ele>
        <time>2020-05-10T11:57:00Z</time>
      </trkpt>
      <trkpt lat="48.77708" lon="7.34409">
        <ele>394.9</ele>
        <time>2020-05-10T11:57:01Z</time>
      </trkpt>
      <trkpt lat="48.77707" lon="7.34414">
        <ele>395.1</ele>
        <time>2020-05-10T11:57:02Z</time>
      </trkpt>
      <trkpt lat="48.77706" lon="7.34424">
        <ele>395.4</ele>
        <time>2020-05-10T11:57:04Z</time>
      </trkpt>
      <trkpt lat="48.77706" lon="7.34435">
        <ele>395.7</ele>
        <time>2020-05-10T11:57:06Z</time>
      </trkpt>
      <trkpt lat="48.77705" lon="7.34444">
        <ele>395.9</ele>
        <time>2020-05-10T11:57:08Z</time>
      </trkpt>
      <trkpt lat="48.77705" lon="7.34453">
        <ele>396.2</ele>
        <time>2020-05-10T11:57:10Z</time>
      </trkpt>
      <trkpt lat="48.77704" lon="7.34459">
        <ele>396.3</ele>
        <time>2020-05-10T11:57:11Z</time>
      </trkpt>
      <trkpt lat="48.77704" lon="7.34467">
        <ele>396.5</ele>
        <time>2020-05-10T11:57:13Z</time>
      </trkpt>
      <trkpt lat="48.77704" lon="7.34471">
        <ele>396.6</ele>
        <time>2020-05-10T11:57:14Z</time>
      </trkpt>
      <trkpt lat="48.77704" lon="7.34478">
        <ele>396.8</ele>
        <time>2020-05-10T11:57:16Z</time>
      </trkpt>
      <trkpt lat="48.77704" lon="7.34482">
        <ele>396.9</ele>
        <time>2020-05-10T11:57:17Z</time>
      </trkpt>
      <trkpt lat="48.77704" lon="7.3449">
        <ele>397</ele>
        <time>2020-05-10T11:57:19Z</time>
      </trkpt>
      <trkpt lat="48.77704" lon="7.34493">
        <ele>397.1</ele>
        <time>2020-05-10T11:57:20Z</time>
      </trkpt>
      <trkpt lat="48.77704" lon="7.34501">
        <ele>397.2</ele>
        <time>2020-05-10T11:57:22Z</time>
      </trkpt>
      <trkpt lat="48.77704" lon="7.34513">
        <ele>397.5</ele>
        <time>2020-05-10T11:57:24Z</time>
      </trkpt>
      <trkpt lat="48.77704" lon="7.34518">
        <ele>397.6</ele>
        <time>2020-05-10T11:57:25Z</time>
      </trkpt>
      <trkpt lat="48.77703" lon="7.34524">
        <ele>397.7</ele>
        <time>2020-05-10T11:57:26Z</time>
      </trkpt>
      <trkpt lat="48.77702" lon="7.34537">
        <ele>397.9</ele>
        <time>2020-05-10T11:57:28Z</time>
      </trkpt>
      <trkpt lat="48.77701" lon="7.34544">
        <ele>398</ele>
        <time>2020-05-10T11:57:29Z</time>
      </trkpt>
      <trkpt lat="48.77701" lon="7.34549">
        <ele>398.1</ele>
        <time>2020-05-10T11:57:30Z</time>
      </trkpt>
      <trkpt lat="48.777" lon="7.34559">
        <ele>398.3</ele>
        <time>2020-05-10T11:57:32Z</time>
      </trkpt>
      <trkpt lat="48.77699" lon="7.34565">
        <ele>398.4</ele>
        <time>2020-05-10T11:57:33Z</time>
      </trkpt>
      <trkpt lat="48.77698" lon="7.34575">
        <ele>398.6</ele>
        <time>2020-05-10T11:57:35Z</time>
      </trkpt>
      <trkpt lat="48.77696" lon="7.34585">
        <ele>398.8</ele>
        <time>2020-05-10T11:57:37Z</time>
      </trkpt>
      <trkpt lat="48.77695" lon="7.3459">
        <ele>398.8</ele>
        <time>2020-05-10T11:57:38Z</time>
      </trkpt>
      <trkpt lat="48.77693" lon="7.34599">
        <ele>399</ele>
        <time>2020-05-10T11:57:40Z</time>
      </trkpt>
      <trkpt lat="48.77693" lon="7.34605">
        <ele>399.1</ele>
        <time>2020-05-10T11:57:41Z</time>
      </trkpt>
      <trkpt lat="48.77692" lon="7.3461">
        <ele>399.2</ele>
        <time>2020-05-10T11:57:42Z</time>
      </trkpt>
      <trkpt lat="48.77691" lon="7.34615">
        <ele>399.3</ele>
        <time>2020-05-10T11:57:43Z</time>
      </trkpt>
      <trkpt lat="48.7769" lon="7.34624">
        <ele>399.5</ele>
        <time>2020-05-10T11:57:45Z</time>
      </trkpt>
      <trkpt lat="48.77688" lon="7.34634">
        <ele>399.6</ele>
        <time>2020-05-10T11:57:47Z</time>
      </trkpt>
      <trkpt lat="48.77687" lon="7.34638">
        <ele>399.7</ele>
        <time>2020-05-10T11:57:48Z</time>
      </trkpt>
      <trkpt lat="48.77686" lon="7.34642">
        <ele>399.8</ele>
        <time>2020-05-10T11:57:49Z</time>
      </trkpt>
      <trkpt lat="48.77682" lon="7.34649">
        <ele>400</ele>
        <time>2020-05-10T11:57:51Z</time>
      </trkpt>
      <trkpt lat="48.77677" lon="7.34656">
        <ele>400.1</ele>
        <time>2020-05-10T11:57:53Z</time>
      </trkpt>
      <trkpt lat="48.77674" lon="7.3466">
        <ele>400.3</ele>
        <time>2020-05-10T11:57:54Z</time>
      </trkpt>
      <trkpt lat="48.77671" lon="7.34664">
        <ele>400.4</ele>
        <time>2020-05-10T11:57:55Z</time>
      </trkpt>
      <trkpt lat="48.77668" lon="7.34672">
        <ele>400.6</ele>
        <time>2020-05-10T11:57:56Z</time>
      </trkpt>
      <trkpt lat="48.77666" lon="7.34679">
        <ele>400.7</ele>
        <time>2020-05-10T11:57:58Z</time>
      </trkpt>
      <trkpt lat="48.77666" lon="7.34681">
        <ele>400.8</ele>
        <time>2020-05-10T11:57:59Z</time>
      </trkpt>
      <trkpt lat="48.77664" lon="7.34689">
        <ele>400.9</ele>
        <time>2020-05-10T11:58:01Z</time>
      </trkpt>
      <trkpt lat="48.77664" lon="7.34706">
        <ele>401.3</ele>
        <time>2020-05-10T11:58:03Z</time>
      </trkpt>
      <trkpt lat="48.77666" lon="7.34713">
        <ele>401.4</ele>
        <time>2020-05-10T11:58:04Z</time>
      </trkpt>
      <trkpt lat="48.77668" lon="7.34721">
        <ele>401.6</ele>
        <time>2020-05-10T11:58:05Z</time>
      </trkpt>
      <trkpt lat="48.77671" lon="7.34735">
        <ele>401.9</ele>
        <time>2020-05-10T11:58:07Z</time>
      </trkpt>
      <trkpt lat="48.77673" lon="7.34742">
        <ele>402</ele>
        <time>2020-05-10T11:58:08Z</time>
      </trkpt>
      <trkpt lat="48.77676" lon="7.34754">
        <ele>402.3</ele>
        <time>2020-05-10T11:58:10Z</time>
      </trkpt>
      <trkpt lat="48.77678" lon="7.34761">
        <ele>402.4</ele>
        <time>2020-05-10T11:58:11Z</time>
      </trkpt>
      <trkpt lat="48.77681" lon="7.34772">
        <ele>402.7</ele>
        <time>2020-05-10T11:58:13Z</time>
      </trkpt>
      <trkpt lat="48.77682" lon="7.34777">
        <ele>402.9</ele>
        <time>2020-05-10T11:58:14Z</time>
      </trkpt>
      <trkpt lat="48.77684" lon="7.34788">
        <ele>403.1</ele>
        <time>2020-05-10T11:58:16Z</time>
      </trkpt>
      <trkpt lat="48.77684" lon="7.34799">
        <ele>403.4</ele>
        <time>2020-05-10T11:58:18Z</time>
      </trkpt>
      <trkpt lat="48.77684" lon="7.34803">
        <ele>403.6</ele>
        <time>2020-05-10T11:58:19Z</time>
      </trkpt>
      <trkpt lat="48.77685" lon="7.34813">
        <ele>403.8</ele>
        <time>2020-05-10T11:58:21Z</time>
      </trkpt>
      <trkpt lat="48.77685" lon="7.34818">
        <ele>404</ele>
        <time>2020-05-10T11:58:22Z</time>
      </trkpt>
      <trkpt lat="48.77686" lon="7.34822">
        <ele>404.1</ele>
        <time>2020-05-10T11:58:23Z</time>
      </trkpt>
      <trkpt lat="48.77688" lon="7.34827">
        <ele>404.2</ele>
        <time>2020-05-10T11:58:24Z</time>
      </trkpt>
      <trkpt lat="48.77689" lon="7.34831">
        <ele>404.4</ele>
        <time>2020-05-10T11:58:25Z</time>
      </trkpt>
      <trkpt lat="48.7769" lon="7.34841">
        <ele>404.6</ele>
        <time>2020-05-10T11:58:27Z</time>
      </trkpt>
      <trkpt lat="48.77689" lon="7.34846">
        <ele>404.8</ele>
        <time>2020-05-10T11:58:28Z</time>
      </trkpt>
      <trkpt lat="48.77689" lon="7.34855">
        <ele>405</ele>
        <time>2020-05-10T11:58:30Z</time>
      </trkpt>
      <trkpt lat="48.7769" lon="7.34865">
        <ele>405.2</ele>
        <time>2020-05-10T11:58:32Z</time>
      </trkpt>
      <trkpt lat="48.77691" lon="7.34871">
        <ele>405.4</ele>
        <time>2020-05-10T11:58:33Z</time>
      </trkpt>
      <trkpt lat="48.77692" lon="7.34875">
        <ele>405.5</ele>
        <time>2020-05-10T11:58:34Z</time>
      </trkpt>
      <trkpt lat="48.77695" lon="7.34884">
        <ele>405.8</ele>
        <time>2020-05-10T11:58:36Z</time>
      </trkpt>
      <trkpt lat="48.77698" lon="7.34891">
        <ele>406</ele>
        <time>2020-05-10T11:58:38Z</time>
      </trkpt>
      <trkpt lat="48.77699" lon="7.34896">
        <ele>406.1</ele>
        <time>2020-05-10T11:58:39Z</time>
      </trkpt>
      <trkpt lat="48.777" lon="7.34907">
        <ele>406.4</ele>
        <time>2020-05-10T11:58:41Z</time>
      </trkpt>
      <trkpt lat="48.777" lon="7.34916">
        <ele>406.7</ele>
        <time>2020-05-10T11:58:43Z</time>
      </trkpt>
      <trkpt lat="48.77702" lon="7.34923">
        <ele>406.9</ele>
        <time>2020-05-10T11:58:44Z</time>
      </trkpt>
      <trkpt lat="48.77705" lon="7.34932">
        <ele>407.2</ele>
        <time>2020-05-10T11:58:46Z</time>
      </trkpt>
      <trkpt lat="48.77707" lon="7.34939">
        <ele>407.5</ele>
        <time>2020-05-10T11:58:48Z</time>
      </trkpt>
      <trkpt lat="48.7771" lon="7.34948">
        <ele>407.8</ele>
        <time>2020-05-10T11:58:50Z</time>
      </trkpt>
      <trkpt lat="48.77711" lon="7.34953">
        <ele>408</ele>
        <time>2020-05-10T11:58:51Z</time>
      </trkpt>
      <trkpt lat="48.77713" lon="7.34962">
        <ele>408.3</ele>
        <time>2020-05-10T11:58:53Z</time>
      </trkpt>
      <trkpt lat="48.77713" lon="7.34972">
        <ele>408.7</ele>
        <time>2020-05-10T11:58:55Z</time>
      </trkpt>
      <trkpt lat="48.77714" lon="7.34981">
        <ele>409</ele>
        <time>2020-05-10T11:58:57Z</time>
      </trkpt>
      <trkpt lat="48.77714" lon="7.34984">
        <ele>409.1</ele>
        <time>2020-05-10T11:58:58Z</time>
      </trkpt>
      <trkpt lat="48.77715" lon="7.34993">
        <ele>409.4</ele>
        <time>2020-05-10T11:59:00Z</time>
      </trkpt>
      <trkpt lat="48.77715" lon="7.34999">
        <ele>409.7</ele>
        <time>2020-05-10T11:59:02Z</time>
      </trkpt>
      <trkpt lat="48.77714" lon="7.35009">
        <ele>410.1</ele>
        <time>2020-05-10T11:59:04Z</time>
      </trkpt>
      <trkpt lat="48.77713" lon="7.35016">
        <ele>410.4</ele>
        <time>2020-05-10T11:59:06Z</time>
      </trkpt>
      <trkpt lat="48.77711" lon="7.35025">
        <ele>410.7</ele>
        <time>2020-05-10T11:59:08Z</time>
      </trkpt>
      <trkpt lat="48.7771" lon="7.35029">
        <ele>410.8</ele>
        <time>2020-05-10T11:59:09Z</time>
      </trkpt>
      <trkpt lat="48.77712" lon="7.35038">
        <ele>411.1</ele>
        <time>2020-05-10T11:59:11Z</time>
      </trkpt>
      <trkpt lat="48.77718" lon="7.35046">
        <ele>405.1</ele>
        <time>2020-05-10T11:59:13Z</time>
      </trkpt>
      <trkpt lat="48.77722" lon="7.3505">
        <ele>406.4</ele>
        <time>2020-05-10T11:59:14Z</time>
      </trkpt>
      <trkpt lat="48.77727" lon="7.35054">
        <ele>407.8</ele>
        <time>2020-05-10T11:59:15Z</time>
      </trkpt>
      <trkpt lat="48.77731" lon="7.35057">
        <ele>411.3</ele>
        <time>2020-05-10T11:59:16Z</time>
      </trkpt>
      <trkpt lat="48.7774" lon="7.35066">
        <ele>411.3</ele>
        <time>2020-05-10T11:59:18Z</time>
      </trkpt>
      <trkpt lat="48.77745" lon="7.35073">
        <ele>411.3</ele>
        <time>2020-05-10T11:59:19Z</time>
      </trkpt>
      <trkpt lat="48.77751" lon="7.35083">
        <ele>410.9</ele>
        <time>2020-05-10T11:59:21Z</time>
      </trkpt>
      <trkpt lat="48.77753" lon="7.35087">
        <ele>410.9</ele>
        <time>2020-05-10T11:59:22Z</time>
      </trkpt>
      <trkpt lat="48.77755" lon="7.35089">
        <ele>410.8</ele>
        <time>2020-05-10T11:59:23Z</time>
      </trkpt>
      <trkpt lat="48.77761" lon="7.35096">
        <ele>410.8</ele>
        <time>2020-05-10T11:59:25Z</time>
      </trkpt>
      <trkpt lat="48.77768" lon="7.351">
        <ele>410.8</ele>
        <time>2020-05-10T11:59:27Z</time>
      </trkpt>
      <trkpt lat="48.77774" lon="7.35106">
        <ele>410.8</ele>
        <time>2020-05-10T11:59:29Z</time>
      </trkpt>
      <trkpt lat="48.77778" lon="7.35109">
        <ele>410.8</ele>
        <time>2020-05-10T11:59:30Z</time>
      </trkpt>
      <trkpt lat="48.77785" lon="7.35113">
        <ele>410.9</ele>
        <time>2020-05-10T11:59:32Z</time>
      </trkpt>
      <trkpt lat="48.77789" lon="7.35117">
        <ele>410.9</ele>
        <time>2020-05-10T11:59:33Z</time>
      </trkpt>
      <trkpt lat="48.77795" lon="7.35126">
        <ele>410.9</ele>
        <time>2020-05-10T11:59:35Z</time>
      </trkpt>
      <trkpt lat="48.77798" lon="7.3513">
        <ele>410.9</ele>
        <time>2020-05-10T11:59:36Z</time>
      </trkpt>
      <trkpt lat="48.77804" lon="7.35139">
        <ele>410.8</ele>
        <time>2020-05-10T11:59:38Z</time>
      </trkpt>
      <trkpt lat="48.77806" lon="7.35143">
        <ele>410.8</ele>
        <time>2020-05-10T11:59:39Z</time>
      </trkpt>
      <trkpt lat="48.7781" lon="7.35151">
        <ele>410.8</ele>
        <time>2020-05-10T11:59:41Z</time>
      </trkpt>
      <trkpt lat="48.77815" lon="7.3516">
        <ele>410.8</ele>
        <time>2020-05-10T11:59:43Z</time>
      </trkpt>
      <trkpt lat="48.77816" lon="7.35164">
        <ele>410.8</ele>
        <time>2020-05-10T11:59:44Z</time>
      </trkpt>
      <trkpt lat="48.77823" lon="7.35173">
        <ele>410.8</ele>
        <time>2020-05-10T11:59:46Z</time>
      </trkpt>
      <trkpt lat="48.77825" lon="7.35179">
        <ele>410.8</ele>
        <time>2020-05-10T11:59:47Z</time>
      </trkpt>
      <trkpt lat="48.7783" lon="7.35191">
        <ele>410.7</ele>
        <time>2020-05-10T11:59:49Z</time>
      </trkpt>
      <trkpt lat="48.77832" lon="7.35196">
        <ele>410.7</ele>
        <time>2020-05-10T11:59:50Z</time>
      </trkpt>
      <trkpt lat="48.77834" lon="7.35201">
        <ele>410.7</ele>
        <time>2020-05-10T11:59:51Z</time>
      </trkpt>
      <trkpt lat="48.77838" lon="7.35208">
        <ele>410.7</ele>
        <time>2020-05-10T11:59:53Z</time>
      </trkpt>
      <trkpt lat="48.77844" lon="7.35215">
        <ele>410.6</ele>
        <time>2020-05-10T11:59:55Z</time>
      </trkpt>
      <trkpt lat="48.77847" lon="7.3522">
        <ele>410.5</ele>
        <time>2020-05-10T11:59:56Z</time>
      </trkpt>
      <trkpt lat="48.77848" lon="7.35222">
        <ele>410.5</ele>
        <time>2020-05-10T11:59:57Z</time>
      </trkpt>
      <trkpt lat="48.7785" lon="7.35228">
        <ele>410.4</ele>
        <time>2020-05-10T11:59:58Z</time>
      </trkpt>
      <trkpt lat="48.77855" lon="7.35236">
        <ele>410.3</ele>
        <time>2020-05-10T12:00:00Z</time>
      </trkpt>
      <trkpt lat="48.77858" lon="7.3524">
        <ele>410.3</ele>
        <time>2020-05-10T12:00:01Z</time>
      </trkpt>
      <trkpt lat="48.77864" lon="7.35248">
        <ele>410.2</ele>
        <time>2020-05-10T12:00:03Z</time>
      </trkpt>
      <trkpt lat="48.77869" lon="7.35258">
        <ele>410</ele>
        <time>2020-05-10T12:00:05Z</time>
      </trkpt>
      <trkpt lat="48.7787" lon="7.35263">
        <ele>410</ele>
        <time>2020-05-10T12:00:06Z</time>
      </trkpt>
      <trkpt lat="48.77877" lon="7.35273">
        <ele>409.7</ele>
        <time>2020-05-10T12:00:08Z</time>
      </trkpt>
      <trkpt lat="48.77882" lon="7.35284">
        <ele>409.4</ele>
        <time>2020-05-10T12:00:10Z</time>
      </trkpt>
      <trkpt lat="48.77885" lon="7.35288">
        <ele>409.3</ele>
        <time>2020-05-10T12:00:11Z</time>
      </trkpt>
      <trkpt lat="48.77891" lon="7.35297">
        <ele>409.1</ele>
        <time>2020-05-10T12:00:13Z</time>
      </trkpt>
      <trkpt lat="48.77894" lon="7.35307">
        <ele>408.9</ele>
        <time>2020-05-10T12:00:15Z</time>
      </trkpt>
      <trkpt lat="48.77897" lon="7.35314">
        <ele>408.7</ele>
        <time>2020-05-10T12:00:16Z</time>
      </trkpt>
      <trkpt lat="48.77902" lon="7.35322">
        <ele>408.5</ele>
        <time>2020-05-10T12:00:18Z</time>
      </trkpt>
      <trkpt lat="48.77907" lon="7.35335">
        <ele>408.3</ele>
        <time>2020-05-10T12:00:20Z</time>
      </trkpt>
      <trkpt lat="48.7791" lon="7.35343">
        <ele>408.1</ele>
        <time>2020-05-10T12:00:21Z</time>
      </trkpt>
      <trkpt lat="48.77915" lon="7.35356">
        <ele>407.9</ele>
        <time>2020-05-10T12:00:23Z</time>
      </trkpt>
      <trkpt lat="48.77921" lon="7.35366">
        <ele>407.6</ele>
        <time>2020-05-10T12:00:25Z</time>
      </trkpt>
      <trkpt lat="48.77924" lon="7.35378">
        <ele>407.5</ele>
        <time>2020-05-10T12:00:27Z</time>
      </trkpt>
      <trkpt lat="48.77927" lon="7.35384">
        <ele>407.4</ele>
        <time>2020-05-10T12:00:28Z</time>
      </trkpt>
      <trkpt lat="48.77928" lon="7.3539">
        <ele>407.3</ele>
        <time>2020-05-10T12:00:29Z</time>
      </trkpt>
      <trkpt lat="48.77932" lon="7.35404">
        <ele>407.1</ele>
        <time>2020-05-10T12:00:31Z</time>
      </trkpt>
      <trkpt lat="48.77933" lon="7.35418">
        <ele>407</ele>
        <time>2020-05-10T12:00:33Z</time>
      </trkpt>
      <trkpt lat="48.77936" lon="7.35429">
        <ele>406.9</ele>
        <time>2020-05-10T12:00:35Z</time>
      </trkpt>
      <trkpt lat="48.77936" lon="7.35443">
        <ele>406.8</ele>
        <time>2020-05-10T12:00:37Z</time>
      </trkpt>
      <trkpt lat="48.77937" lon="7.3545">
        <ele>406.7</ele>
        <time>2020-05-10T12:00:38Z</time>
      </trkpt>
      <trkpt lat="48.77938" lon="7.35459">
        <ele>406.6</ele>
        <time>2020-05-10T12:00:39Z</time>
      </trkpt>
      <trkpt lat="48.77939" lon="7.35467">
        <ele>406.4</ele>
        <time>2020-05-10T12:00:40Z</time>
      </trkpt>
      <trkpt lat="48.77944" lon="7.35477">
        <ele>406.3</ele>
        <time>2020-05-10T12:00:42Z</time>
      </trkpt>
      <trkpt lat="48.7795" lon="7.35492">
        <ele>405.9</ele>
        <time>2020-05-10T12:00:44Z</time>
      </trkpt>
      <trkpt lat="48.77956" lon="7.35508">
        <ele>405.6</ele>
        <time>2020-05-10T12:00:46Z</time>
      </trkpt>
      <trkpt lat="48.77961" lon="7.35523">
        <ele>405.3</ele>
        <time>2020-05-10T12:00:48Z</time>
      </trkpt>
      <trkpt lat="48.77963" lon="7.3553">
        <ele>405.1</ele>
        <time>2020-05-10T12:00:49Z</time>
      </trkpt>
      <trkpt lat="48.77969" lon="7.35544">
        <ele>404.9</ele>
        <time>2020-05-10T12:00:51Z</time>
      </trkpt>
      <trkpt lat="48.77971" lon="7.35551">
        <ele>404.8</ele>
        <time>2020-05-10T12:00:52Z</time>
      </trkpt>
      <trkpt lat="48.77971" lon="7.3556">
        <ele>404.7</ele>
        <time>2020-05-10T12:00:53Z</time>
      </trkpt>
      <trkpt lat="48.77974" lon="7.35576">
        <ele>404.5</ele>
        <time>2020-05-10T12:00:55Z</time>
      </trkpt>
      <trkpt lat="48.77976" lon="7.35593">
        <ele>404.2</ele>
        <time>2020-05-10T12:00:57Z</time>
      </trkpt>
      <trkpt lat="48.77978" lon="7.35608">
        <ele>404</ele>
        <time>2020-05-10T12:00:59Z</time>
      </trkpt>
      <trkpt lat="48.77979" lon="7.35617">
        <ele>403.9</ele>
        <time>2020-05-10T12:01:00Z</time>
      </trkpt>
      <trkpt lat="48.77983" lon="7.35633">
        <ele>403.6</ele>
        <time>2020-05-10T12:01:02Z</time>
      </trkpt>
      <trkpt lat="48.77986" lon="7.35648">
        <ele>403.4</ele>
        <time>2020-05-10T12:01:04Z</time>
      </trkpt>
      <trkpt lat="48.77989" lon="7.35669">
        <ele>403</ele>
        <time>2020-05-10T12:01:06Z</time>
      </trkpt>
      <trkpt lat="48.77995" lon="7.35687">
        <ele>402.7</ele>
        <time>2020-05-10T12:01:08Z</time>
      </trkpt>
      <trkpt lat="48.77999" lon="7.35703">
        <ele>402.3</ele>
        <time>2020-05-10T12:01:10Z</time>
      </trkpt>
      <trkpt lat="48.78002" lon="7.3571">
        <ele>402.2</ele>
        <time>2020-05-10T12:01:11Z</time>
      </trkpt>
      <trkpt lat="48.78008" lon="7.35725">
        <ele>401.8</ele>
        <time>2020-05-10T12:01:13Z</time>
      </trkpt>
      <trkpt lat="48.78017" lon="7.35741">
        <ele>401.3</ele>
        <time>2020-05-10T12:01:15Z</time>
      </trkpt>
      <trkpt lat="48.78026" lon="7.35756">
        <ele>400.8</ele>
        <time>2020-05-10T12:01:17Z</time>
      </trkpt>
      <trkpt lat="48.7803" lon="7.35774">
        <ele>400.3</ele>
        <time>2020-05-10T12:01:19Z</time>
      </trkpt>
      <trkpt lat="48.78032" lon="7.35782">
        <ele>400.1</ele>
        <time>2020-05-10T12:01:20Z</time>
      </trkpt>
      <trkpt lat="48.78034" lon="7.35792">
        <ele>399.8</ele>
        <time>2020-05-10T12:01:21Z</time>
      </trkpt>
      <trkpt lat="48.78037" lon="7.35812">
        <ele>399.3</ele>
        <time>2020-05-10T12:01:23Z</time>
      </trkpt>
      <trkpt lat="48.78038" lon="7.35823">
        <ele>399.1</ele>
        <time>2020-05-10T12:01:24Z</time>
      </trkpt>
      <trkpt lat="48.78039" lon="7.35835">
        <ele>398.8</ele>
        <time>2020-05-10T12:01:25Z</time>
      </trkpt>
      <trkpt lat="48.7804" lon="7.35846">
        <ele>398.5</ele>
        <time>2020-05-10T12:01:26Z</time>
      </trkpt>
      <trkpt lat="48.7804" lon="7.35857">
        <ele>398.3</ele>
        <time>2020-05-10T12:01:27Z</time>
      </trkpt>
      <trkpt lat="48.78041" lon="7.35868">
        <ele>398</ele>
        <time>2020-05-10T12:01:28Z</time>
      </trkpt>
      <trkpt lat="48.78043" lon="7.3589">
        <ele>397.5</ele>
        <time>2020-05-10T12:01:30Z</time>
      </trkpt>
      <trkpt lat="48.78044" lon="7.359">
        <ele>397.2</ele>
        <time>2020-05-10T12:01:31Z</time>
      </trkpt>
      <trkpt lat="48.78045" lon="7.3592">
        <ele>396.6</ele>
        <time>2020-05-10T12:01:33Z</time>
      </trkpt>
      <trkpt lat="48.78048" lon="7.35929">
        <ele>396.3</ele>
        <time>2020-05-10T12:01:34Z</time>
      </trkpt>
      <trkpt lat="48.78052" lon="7.35951">
        <ele>395.7</ele>
        <time>2020-05-10T12:01:36Z</time>
      </trkpt>
      <trkpt lat="48.78057" lon="7.35973">
        <ele>395.2</ele>
        <time>2020-05-10T12:01:38Z</time>
      </trkpt>
      <trkpt lat="48.7806" lon="7.35984">
        <ele>395.2</ele>
        <time>2020-05-10T12:01:39Z</time>
      </trkpt>
      <trkpt lat="48.78063" lon="7.35993">
        <ele>395.2</ele>
        <time>2020-05-10T12:01:40Z</time>
      </trkpt>
      <trkpt lat="48.78065" lon="7.36013">
        <ele>395.4</ele>
        <time>2020-05-10T12:01:42Z</time>
      </trkpt>
      <trkpt lat="48.78066" lon="7.36023">
        <ele>395.5</ele>
        <time>2020-05-10T12:01:43Z</time>
      </trkpt>
      <trkpt lat="48.78071" lon="7.36042">
        <ele>395.8</ele>
        <time>2020-05-10T12:01:45Z</time>
      </trkpt>
      <trkpt lat="48.78073" lon="7.36051">
        <ele>395.9</ele>
        <time>2020-05-10T12:01:46Z</time>
      </trkpt>
      <trkpt lat="48.78076" lon="7.3606">
        <ele>396</ele>
        <time>2020-05-10T12:01:47Z</time>
      </trkpt>
      <trkpt lat="48.78081" lon="7.36072">
        <ele>396.2</ele>
        <time>2020-05-10T12:01:49Z</time>
      </trkpt>
      <trkpt lat="48.78085" lon="7.36088">
        <ele>396.4</ele>
        <time>2020-05-10T12:01:51Z</time>
      </trkpt>
      <trkpt lat="48.78086" lon="7.36096">
        <ele>396.4</ele>
        <time>2020-05-10T12:01:52Z</time>
      </trkpt>
      <trkpt lat="48.78081" lon="7.36104">
        <ele>396.4</ele>
        <time>2020-05-10T12:01:54Z</time>
      </trkpt>
      <trkpt lat="48.78078" lon="7.36104">
        <ele>396.4</ele>
        <time>2020-05-10T12:01:55Z</time>
      </trkpt>
      <trkpt lat="48.78075" lon="7.36102">
        <ele>396.3</ele>
        <time>2020-05-10T12:01:56Z</time>
      </trkpt>
      <trkpt lat="48.78068" lon="7.361">
        <ele>396.2</ele>
        <time>2020-05-10T12:01:58Z</time>
      </trkpt>
      <trkpt lat="48.78064" lon="7.361">
        <ele>396.1</ele>
        <time>2020-05-10T12:01:59Z</time>
      </trkpt>
      <trkpt lat="48.78056" lon="7.36107">
        <ele>395.7</ele>
        <time>2020-05-10T12:02:01Z</time>
      </trkpt>
      <trkpt lat="48.78048" lon="7.36111">
        <ele>395.2</ele>
        <time>2020-05-10T12:02:03Z</time>
      </trkpt>
      <trkpt lat="48.78039" lon="7.3612">
        <ele>394.4</ele>
        <time>2020-05-10T12:02:05Z</time>
      </trkpt>
      <trkpt lat="48.78031" lon="7.36128">
        <ele>393.7</ele>
        <time>2020-05-10T12:02:07Z</time>
      </trkpt>
      <trkpt lat="48.78027" lon="7.36134">
        <ele>393.2</ele>
        <time>2020-05-10T12:02:08Z</time>
      </trkpt>
      <trkpt lat="48.78022" lon="7.36141">
        <ele>392.7</ele>
        <time>2020-05-10T12:02:09Z</time>
      </trkpt>
      <trkpt lat="48.7802" lon="7.36162">
        <ele>391.5</ele>
        <time>2020-05-10T12:02:11Z</time>
      </trkpt>
      <trkpt lat="48.78021" lon="7.36182">
        <ele>390.5</ele>
        <time>2020-05-10T12:02:13Z</time>
      </trkpt>
      <trkpt lat="48.78021" lon="7.36193">
        <ele>390.1</ele>
        <time>2020-05-10T12:02:14Z</time>
      </trkpt>
      <trkpt lat="48.78021" lon="7.36216">
        <ele>389.5</ele>
        <time>2020-05-10T12:02:16Z</time>
      </trkpt>
      <trkpt lat="48.78021" lon="7.36226">
        <ele>389.7</ele>
        <time>2020-05-10T12:02:17Z</time>
      </trkpt>
      <trkpt lat="48.7802" lon="7.36241">
        <ele>389.8</ele>
        <time>2020-05-10T12:02:19Z</time>
      </trkpt>
      <trkpt lat="48.78022" lon="7.3625">
        <ele>389.9</ele>
        <time>2020-05-10T12:02:20Z</time>
      </trkpt>
      <trkpt lat="48.78026" lon="7.36264">
        <ele>390.1</ele>
        <time>2020-05-10T12:02:22Z</time>
      </trkpt>
      <trkpt lat="48.78028" lon="7.36273">
        <ele>390.3</ele>
        <time>2020-05-10T12:02:23Z</time>
      </trkpt>
      <trkpt lat="48.78032" lon="7.3629">
        <ele>390.7</ele>
        <time>2020-05-10T12:02:25Z</time>
      </trkpt>
      <trkpt lat="48.78036" lon="7.36305">
        <ele>391.3</ele>
        <time>2020-05-10T12:02:27Z</time>
      </trkpt>
      <trkpt lat="48.78038" lon="7.36312">
        <ele>391.5</ele>
        <time>2020-05-10T12:02:28Z</time>
      </trkpt>
      <trkpt lat="48.78039" lon="7.36319">
        <ele>391.8</ele>
        <time>2020-05-10T12:02:29Z</time>
      </trkpt>
      <trkpt lat="48.78043" lon="7.3633">
        <ele>392.1</ele>
        <time>2020-05-10T12:02:31Z</time>
      </trkpt>
      <trkpt lat="48.78045" lon="7.36345">
        <ele>392.5</ele>
        <time>2020-05-10T12:02:33Z</time>
      </trkpt>
      <trkpt lat="48.78047" lon="7.3636">
        <ele>392.8</ele>
        <time>2020-05-10T12:02:35Z</time>
      </trkpt>
      <trkpt lat="48.78049" lon="7.36375">
        <ele>393.1</ele>
        <time>2020-05-10T12:02:37Z</time>
      </trkpt>
      <trkpt lat="48.78049" lon="7.36383">
        <ele>393.3</ele>
        <time>2020-05-10T12:02:38Z</time>
      </trkpt>
      <trkpt lat="48.78052" lon="7.36397">
        <ele>393.6</ele>
        <time>2020-05-10T12:02:40Z</time>
      </trkpt>
      <trkpt lat="48.78053" lon="7.36413">
        <ele>394.1</ele>
        <time>2020-05-10T12:02:42Z</time>
      </trkpt>
      <trkpt lat="48.78056" lon="7.36426">
        <ele>394.7</ele>
        <time>2020-05-10T12:02:44Z</time>
      </trkpt>
      <trkpt lat="48.78057" lon="7.36432">
        <ele>394.9</ele>
        <time>2020-05-10T12:02:45Z</time>
      </trkpt>
      <trkpt lat="48.78058" lon="7.36446">
        <ele>395.5</ele>
        <time>2020-05-10T12:02:47Z</time>
      </trkpt>
      <trkpt lat="48.78061" lon="7.3646">
        <ele>396</ele>
        <time>2020-05-10T12:02:49Z</time>
      </trkpt>
      <trkpt lat="48.78066" lon="7.36469">
        <ele>396.4</ele>
        <time>2020-05-10T12:02:51Z</time>
      </trkpt>
      <trkpt lat="48.78066" lon="7.36473">
        <ele>396.5</ele>
        <time>2020-05-10T12:02:52Z</time>
      </trkpt>
      <trkpt lat="48.78068" lon="7.36485">
        <ele>396.8</ele>
        <time>2020-05-10T12:02:54Z</time>
      </trkpt>
      <trkpt lat="48.78068" lon="7.36491">
        <ele>396.7</ele>
        <time>2020-05-10T12:02:55Z</time>
      </trkpt>
      <trkpt lat="48.78067" lon="7.36498">
        <ele>396.6</ele>
        <time>2020-05-10T12:02:56Z</time>
      </trkpt>
      <trkpt lat="48.78066" lon="7.36513">
        <ele>396.2</ele>
        <time>2020-05-10T12:02:58Z</time>
      </trkpt>
      <trkpt lat="48.78066" lon="7.36521">
        <ele>395.9</ele>
        <time>2020-05-10T12:02:59Z</time>
      </trkpt>
      <trkpt lat="48.78065" lon="7.36534">
        <ele>395.5</ele>
        <time>2020-05-10T12:03:00Z</time>
      </trkpt>
      <trkpt lat="48.78066" lon="7.36549">
        <ele>395.1</ele>
        <time>2020-05-10T12:03:02Z</time>
      </trkpt>
      <trkpt lat="48.78066" lon="7.36566">
        <ele>394.7</ele>
        <time>2020-05-10T12:03:04Z</time>
      </trkpt>
      <trkpt lat="48.78069" lon="7.3658">
        <ele>394.5</ele>
        <time>2020-05-10T12:03:06Z</time>
      </trkpt>
      <trkpt lat="48.7807" lon="7.36599">
        <ele>394.3</ele>
        <time>2020-05-10T12:03:08Z</time>
      </trkpt>
      <trkpt lat="48.78069" lon="7.36609">
        <ele>394.1</ele>
        <time>2020-05-10T12:03:09Z</time>
      </trkpt>
      <trkpt lat="48.78065" lon="7.36625">
        <ele>393.7</ele>
        <time>2020-05-10T12:03:11Z</time>
      </trkpt>
      <trkpt lat="48.78064" lon="7.36631">
        <ele>393.5</ele>
        <time>2020-05-10T12:03:12Z</time>
      </trkpt>
      <trkpt lat="48.7806" lon="7.36637">
        <ele>393.3</ele>
        <time>2020-05-10T12:03:13Z</time>
      </trkpt>
      <trkpt lat="48.78054" lon="7.36648">
        <ele>392.8</ele>
        <time>2020-05-10T12:03:15Z</time>
      </trkpt>
      <trkpt lat="48.7805" lon="7.36667">
        <ele>392.2</ele>
        <time>2020-05-10T12:03:17Z</time>
      </trkpt>
      <trkpt lat="48.78047" lon="7.36688">
        <ele>391.6</ele>
        <time>2020-05-10T12:03:19Z</time>
      </trkpt>
      <trkpt lat="48.78044" lon="7.36696">
        <ele>391.4</ele>
        <time>2020-05-10T12:03:20Z</time>
      </trkpt>
      <trkpt lat="48.78042" lon="7.36704">
        <ele>391.2</ele>
        <time>2020-05-10T12:03:21Z</time>
      </trkpt>
      <trkpt lat="48.78041" lon="7.36713">
        <ele>391</ele>
        <time>2020-05-10T12:03:22Z</time>
      </trkpt>
      <trkpt lat="48.7804" lon="7.36729">
        <ele>390.8</ele>
        <time>2020-05-10T12:03:24Z</time>
      </trkpt>
      <trkpt lat="48.78037" lon="7.36747">
        <ele>390.7</ele>
        <time>2020-05-10T12:03:26Z</time>
      </trkpt>
      <trkpt lat="48.78037" lon="7.36764">
        <ele>390.7</ele>
        <time>2020-05-10T12:03:28Z</time>
      </trkpt>
      <trkpt lat="48.78037" lon="7.36771">
        <ele>390.7</ele>
        <time>2020-05-10T12:03:29Z</time>
      </trkpt>
      <trkpt lat="48.78039" lon="7.3678">
        <ele>390.7</ele>
        <time>2020-05-10T12:03:30Z</time>
      </trkpt>
      <trkpt lat="48.7804" lon="7.36795">
        <ele>390.8</ele>
        <time>2020-05-10T12:03:32Z</time>
      </trkpt>
      <trkpt lat="48.78041" lon="7.36801">
        <ele>390.8</ele>
        <time>2020-05-10T12:03:33Z</time>
      </trkpt>
      <trkpt lat="48.78042" lon="7.36806">
        <ele>390.8</ele>
        <time>2020-05-10T12:03:34Z</time>
      </trkpt>
      <trkpt lat="48.78042" lon="7.36822">
        <ele>390.8</ele>
        <time>2020-05-10T12:03:36Z</time>
      </trkpt>
      <trkpt lat="48.78043" lon="7.36829">
        <ele>390.8</ele>
        <time>2020-05-10T12:03:37Z</time>
      </trkpt>
      <trkpt lat="48.78046" lon="7.36842">
        <ele>390.8</ele>
        <time>2020-05-10T12:03:39Z</time>
      </trkpt>
      <trkpt lat="48.78048" lon="7.36849">
        <ele>390.8</ele>
        <time>2020-05-10T12:03:40Z</time>
      </trkpt>
      <trkpt lat="48.78049" lon="7.36855">
        <ele>390.7</ele>
        <time>2020-05-10T12:03:41Z</time>
      </trkpt>
      <trkpt lat="48.7805" lon="7.3686">
        <ele>390.7</ele>
        <time>2020-05-10T12:03:42Z</time>
      </trkpt>
      <trkpt lat="48.78051" lon="7.36872">
        <ele>390.7</ele>
        <time>2020-05-10T12:03:44Z</time>
      </trkpt>
      <trkpt lat="48.78052" lon="7.36885">
        <ele>390.6</ele>
        <time>2020-05-10T12:03:46Z</time>
      </trkpt>
      <trkpt lat="48.78053" lon="7.36889">
        <ele>390.5</ele>
        <time>2020-05-10T12:03:47Z</time>
      </trkpt>
      <trkpt lat="48.78054" lon="7.36893">
        <ele>390.5</ele>
        <time>2020-05-10T12:03:49Z</time>
      </trkpt>
      <trkpt lat="48.78055" lon="7.36898">
        <ele>390.4</ele>
        <time>2020-05-10T12:03:50Z</time>
      </trkpt>
      <trkpt lat="48.78056" lon="7.36904">
        <ele>390.3</ele>
        <time>2020-05-10T12:03:51Z</time>
      </trkpt>
      <trkpt lat="48.78057" lon="7.36909">
        <ele>390.2</ele>
        <time>2020-05-10T12:03:52Z</time>
      </trkpt>
      <trkpt lat="48.78059" lon="7.36933">
        <ele>389.2</ele>
        <time>2020-05-10T12:03:54Z</time>
      </trkpt>
      <trkpt lat="48.78059" lon="7.36945">
        <ele>386.4</ele>
        <time>2020-05-10T12:03:55Z</time>
      </trkpt>
      <trkpt lat="48.78058" lon="7.36951">
        <ele>386.4</ele>
        <time>2020-05-10T12:03:56Z</time>
      </trkpt>
      <trkpt lat="48.7806" lon="7.36959">
        <ele>386.4</ele>
        <time>2020-05-10T12:03:58Z</time>
      </trkpt>
      <trkpt lat="48.78062" lon="7.36966">
        <ele>386.4</ele>
        <time>2020-05-10T12:04:00Z</time>
      </trkpt>
      <trkpt lat="48.78065" lon="7.3697">
        <ele>386.3</ele>
        <time>2020-05-10T12:04:01Z</time>
      </trkpt>
      <trkpt lat="48.78068" lon="7.36973">
        <ele>386.3</ele>
        <time>2020-05-10T12:04:03Z</time>
      </trkpt>
      <trkpt lat="48.78075" lon="7.36979">
        <ele>386.1</ele>
        <time>2020-05-10T12:04:05Z</time>
      </trkpt>
      <trkpt lat="48.78079" lon="7.3699">
        <ele>385.7</ele>
        <time>2020-05-10T12:04:07Z</time>
      </trkpt>
      <trkpt lat="48.7808" lon="7.36992">
        <ele>385.6</ele>
        <time>2020-05-10T12:04:08Z</time>
      </trkpt>
      <trkpt lat="48.7808" lon="7.36992">
        <ele>385.6</ele>
        <time>2020-05-10T12:04:10Z</time>
      </trkpt>
      <trkpt lat="48.7808" lon="7.36994">
        <ele>385.5</ele>
        <time>2020-05-10T12:04:12Z</time>
      </trkpt>
      <trkpt lat="48.7808" lon="7.36995">
        <ele>385.5</ele>
        <time>2020-05-10T12:04:13Z</time>
      </trkpt>
      <trkpt lat="48.78081" lon="7.36996">
        <ele>385.4</ele>
        <time>2020-05-10T12:04:14Z</time>
      </trkpt>
      <trkpt lat="48.78082" lon="7.36998">
        <ele>385.3</ele>
        <time>2020-05-10T12:04:16Z</time>
      </trkpt>
      <trkpt lat="48.78082" lon="7.36999">
        <ele>385.2</ele>
        <time>2020-05-10T12:04:18Z</time>
      </trkpt>
      <trkpt lat="48.78082" lon="7.37">
        <ele>385.1</ele>
        <time>2020-05-10T12:04:19Z</time>
      </trkpt>
      <trkpt lat="48.78082" lon="7.37001">
        <ele>385.1</ele>
        <time>2020-05-10T12:04:20Z</time>
      </trkpt>
      <trkpt lat="48.78082" lon="7.37002">
        <ele>385</ele>
        <time>2020-05-10T12:04:21Z</time>
      </trkpt>
      <trkpt lat="48.78083" lon="7.37002">
        <ele>385</ele>
        <time>2020-05-10T12:04:22Z</time>
      </trkpt>
      <trkpt lat="48.78083" lon="7.37004">
        <ele>384.8</ele>
        <time>2020-05-10T12:04:24Z</time>
      </trkpt>
      <trkpt lat="48.78083" lon="7.37004">
        <ele>384.8</ele>
        <time>2020-05-10T12:04:25Z</time>
      </trkpt>
      <trkpt lat="48.78083" lon="7.37005">
        <ele>384.8</ele>
        <time>2020-05-10T12:04:26Z</time>
      </trkpt>
      <trkpt lat="48.78082" lon="7.37006">
        <ele>384.7</ele>
        <time>2020-05-10T12:04:28Z</time>
      </trkpt>
      <trkpt lat="48.78082" lon="7.37009">
        <ele>384.5</ele>
        <time>2020-05-10T12:04:30Z</time>
      </trkpt>
      <trkpt lat="48.78082" lon="7.3701">
        <ele>384.4</ele>
        <time>2020-05-10T12:04:31Z</time>
      </trkpt>
      <trkpt lat="48.78083" lon="7.3701">
        <ele>384.4</ele>
        <time>2020-05-10T12:04:32Z</time>
      </trkpt>
      <trkpt lat="48.78082" lon="7.37011">
        <ele>384.3</ele>
        <time>2020-05-10T12:04:34Z</time>
      </trkpt>
      <trkpt lat="48.78083" lon="7.37013">
        <ele>384.2</ele>
        <time>2020-05-10T12:04:36Z</time>
      </trkpt>
      <trkpt lat="48.78085" lon="7.3702">
        <ele>383.5</ele>
        <time>2020-05-10T12:04:38Z</time>
      </trkpt>
      <trkpt lat="48.78086" lon="7.37025">
        <ele>383</ele>
        <time>2020-05-10T12:04:39Z</time>
      </trkpt>
      <trkpt lat="48.7809" lon="7.37034">
        <ele>382.1</ele>
        <time>2020-05-10T12:04:41Z</time>
      </trkpt>
      <trkpt lat="48.78091" lon="7.37035">
        <ele>381.9</ele>
        <time>2020-05-10T12:04:42Z</time>
      </trkpt>
      <trkpt lat="48.78091" lon="7.37038">
        <ele>381.7</ele>
        <time>2020-05-10T12:04:43Z</time>
      </trkpt>
      <trkpt lat="48.78092" lon="7.37041">
        <ele>381.4</ele>
        <time>2020-05-10T12:04:45Z</time>
      </trkpt>
      <trkpt lat="48.78095" lon="7.37045">
        <ele>380.9</ele>
        <time>2020-05-10T12:04:47Z</time>
      </trkpt>
      <trkpt lat="48.78097" lon="7.37048">
        <ele>380.6</ele>
        <time>2020-05-10T12:04:49Z</time>
      </trkpt>
      <trkpt lat="48.78099" lon="7.37054">
        <ele>379.9</ele>
        <time>2020-05-10T12:04:51Z</time>
      </trkpt>
      <trkpt lat="48.78099" lon="7.37057">
        <ele>379.7</ele>
        <time>2020-05-10T12:04:53Z</time>
      </trkpt>
      <trkpt lat="48.78099" lon="7.37058">
        <ele>379.6</ele>
        <time>2020-05-10T12:04:55Z</time>
      </trkpt>
      <trkpt lat="48.78099" lon="7.37059">
        <ele>379.5</ele>
        <time>2020-05-10T12:04:57Z</time>
      </trkpt>
      <trkpt lat="48.78099" lon="7.37061">
        <ele>379.3</ele>
        <time>2020-05-10T12:04:58Z</time>
      </trkpt>
      <trkpt lat="48.78098" lon="7.37062">
        <ele>379.1</ele>
        <time>2020-05-10T12:04:59Z</time>
      </trkpt>
      <trkpt lat="48.78096" lon="7.37063">
        <ele>378.9</ele>
        <time>2020-05-10T12:05:01Z</time>
      </trkpt>
      <trkpt lat="48.78095" lon="7.37064">
        <ele>378.7</ele>
        <time>2020-05-10T12:05:02Z</time>
      </trkpt>
      <trkpt lat="48.78094" lon="7.37063">
        <ele>378.6</ele>
        <time>2020-05-10T12:05:04Z</time>
      </trkpt>
      <trkpt lat="48.78092" lon="7.37063">
        <ele>378.3</ele>
        <time>2020-05-10T12:05:06Z</time>
      </trkpt>
      <trkpt lat="48.7809" lon="7.37062">
        <ele>378</ele>
        <time>2020-05-10T12:05:08Z</time>
      </trkpt>
      <trkpt lat="48.78089" lon="7.37062">
        <ele>377.8</ele>
        <time>2020-05-10T12:05:09Z</time>
      </trkpt>
      <trkpt lat="48.78088" lon="7.37062">
        <ele>377.7</ele>
        <time>2020-05-10T12:05:10Z</time>
      </trkpt>
      <trkpt lat="48.78087" lon="7.37062">
        <ele>377.6</ele>
        <time>2020-05-10T12:05:12Z</time>
      </trkpt>
      <trkpt lat="48.78087" lon="7.37063">
        <ele>377.4</ele>
        <time>2020-05-10T12:05:14Z</time>
      </trkpt>
      <trkpt lat="48.78087" lon="7.37064">
        <ele>377.4</ele>
        <time>2020-05-10T12:05:15Z</time>
      </trkpt>
      <trkpt lat="48.78088" lon="7.37065">
        <ele>377.2</ele>
        <time>2020-05-10T12:05:17Z</time>
      </trkpt>
      <trkpt lat="48.78088" lon="7.37065">
        <ele>377.2</ele>
        <time>2020-05-10T12:05:18Z</time>
      </trkpt>
      <trkpt lat="48.78088" lon="7.37064">
        <ele>377.2</ele>
        <time>2020-05-10T12:05:19Z</time>
      </trkpt>
      <trkpt lat="48.78089" lon="7.37065">
        <ele>377</ele>
        <time>2020-05-10T12:05:21Z</time>
      </trkpt>
      <trkpt lat="48.78091" lon="7.37066">
        <ele>376.8</ele>
        <time>2020-05-10T12:05:22Z</time>
      </trkpt>
      <trkpt lat="48.78094" lon="7.37074">
        <ele>374.5</ele>
        <time>2020-05-10T12:05:24Z</time>
      </trkpt>
      <trkpt lat="48.78095" lon="7.37078">
        <ele>374.5</ele>
        <time>2020-05-10T12:05:25Z</time>
      </trkpt>
      <trkpt lat="48.781" lon="7.37083">
        <ele>374.4</ele>
        <time>2020-05-10T12:05:27Z</time>
      </trkpt>
      <trkpt lat="48.78102" lon="7.37084">
        <ele>374.4</ele>
        <time>2020-05-10T12:05:28Z</time>
      </trkpt>
      <trkpt lat="48.78107" lon="7.37084">
        <ele>374.3</ele>
        <time>2020-05-10T12:05:30Z</time>
      </trkpt>
      <trkpt lat="48.78111" lon="7.37086">
        <ele>374.4</ele>
        <time>2020-05-10T12:05:31Z</time>
      </trkpt>
      <trkpt lat="48.78113" lon="7.37088">
        <ele>374.4</ele>
        <time>2020-05-10T12:05:32Z</time>
      </trkpt>
      <trkpt lat="48.78118" lon="7.37092">
        <ele>374.4</ele>
        <time>2020-05-10T12:05:34Z</time>
      </trkpt>
      <trkpt lat="48.78121" lon="7.37098">
        <ele>374.3</ele>
        <time>2020-05-10T12:05:36Z</time>
      </trkpt>
      <trkpt lat="48.78123" lon="7.37101">
        <ele>374.3</ele>
        <time>2020-05-10T12:05:37Z</time>
      </trkpt>
      <trkpt lat="48.78126" lon="7.37105">
        <ele>374.1</ele>
        <time>2020-05-10T12:05:39Z</time>
      </trkpt>
      <trkpt lat="48.7813" lon="7.3711">
        <ele>374</ele>
        <time>2020-05-10T12:05:41Z</time>
      </trkpt>
      <trkpt lat="48.78132" lon="7.37112">
        <ele>375</ele>
        <time>2020-05-10T12:05:42Z</time>
      </trkpt>
      <trkpt lat="48.78139" lon="7.37115">
        <ele>375.5</ele>
        <time>2020-05-10T12:05:44Z</time>
      </trkpt>
      <trkpt lat="48.78145" lon="7.37119">
        <ele>376.3</ele>
        <time>2020-05-10T12:05:46Z</time>
      </trkpt>
      <trkpt lat="48.78149" lon="7.3712">
        <ele>377.4</ele>
        <time>2020-05-10T12:05:47Z</time>
      </trkpt>
      <trkpt lat="48.78154" lon="7.37123">
        <ele>378.6</ele>
        <time>2020-05-10T12:05:49Z</time>
      </trkpt>
      <trkpt lat="48.78159" lon="7.37125">
        <ele>378.8</ele>
        <time>2020-05-10T12:05:51Z</time>
      </trkpt>
      <trkpt lat="48.7816" lon="7.37126">
        <ele>379.8</ele>
        <time>2020-05-10T12:05:52Z</time>
      </trkpt>
      <trkpt lat="48.78165" lon="7.37127">
        <ele>381.1</ele>
        <time>2020-05-10T12:05:54Z</time>
      </trkpt>
      <trkpt lat="48.78169" lon="7.37125">
        <ele>382.1</ele>
        <time>2020-05-10T12:05:56Z</time>
      </trkpt>
      <trkpt lat="48.78171" lon="7.37123">
        <ele>383.1</ele>
        <time>2020-05-10T12:05:57Z</time>
      </trkpt>
      <trkpt lat="48.78175" lon="7.37122">
        <ele>384.9</ele>
        <time>2020-05-10T12:05:58Z</time>
      </trkpt>
      <trkpt lat="48.7818" lon="7.37123">
        <ele>385.3</ele>
        <time>2020-05-10T12:06:00Z</time>
      </trkpt>
      <trkpt lat="48.78182" lon="7.37124">
        <ele>386.2</ele>
        <time>2020-05-10T12:06:01Z</time>
      </trkpt>
      <trkpt lat="48.78186" lon="7.37124">
        <ele>387.2</ele>
        <time>2020-05-10T12:06:03Z</time>
      </trkpt>
      <trkpt lat="48.78189" lon="7.37126">
        <ele>388.2</ele>
        <time>2020-05-10T12:06:04Z</time>
      </trkpt>
      <trkpt lat="48.7819" lon="7.37126">
        <ele>389</ele>
        <time>2020-05-10T12:06:05Z</time>
      </trkpt>
      <trkpt lat="48.78193" lon="7.37128">
        <ele>389.4</ele>
        <time>2020-05-10T12:06:06Z</time>
      </trkpt>
      <trkpt lat="48.78194" lon="7.37128">
        <ele>390.1</ele>
        <time>2020-05-10T12:06:07Z</time>
      </trkpt>
      <trkpt lat="48.78198" lon="7.37129">
        <ele>391.1</ele>
        <time>2020-05-10T12:06:09Z</time>
      </trkpt>
      <trkpt lat="48.78202" lon="7.3713">
        <ele>392.5</ele>
        <time>2020-05-10T12:06:11Z</time>
      </trkpt>
      <trkpt lat="48.78205" lon="7.37131">
        <ele>392.6</ele>
        <time>2020-05-10T12:06:12Z</time>
      </trkpt>
      <trkpt lat="48.78208" lon="7.37131">
        <ele>392.8</ele>
        <time>2020-05-10T12:06:14Z</time>
      </trkpt>
      <trkpt lat="48.78212" lon="7.37133">
        <ele>393.1</ele>
        <time>2020-05-10T12:06:16Z</time>
      </trkpt>
      <trkpt lat="48.78216" lon="7.37134">
        <ele>393.3</ele>
        <time>2020-05-10T12:06:17Z</time>
      </trkpt>
      <trkpt lat="48.78217" lon="7.37134">
        <ele>393.4</ele>
        <time>2020-05-10T12:06:18Z</time>
      </trkpt>
      <trkpt lat="48.78222" lon="7.37134">
        <ele>393.7</ele>
        <time>2020-05-10T12:06:20Z</time>
      </trkpt>
      <trkpt lat="48.78223" lon="7.37134">
        <ele>393.8</ele>
        <time>2020-05-10T12:06:21Z</time>
      </trkpt>
      <trkpt lat="48.78228" lon="7.37133">
        <ele>394.1</ele>
        <time>2020-05-10T12:06:23Z</time>
      </trkpt>
      <trkpt lat="48.78232" lon="7.37132">
        <ele>394.3</ele>
        <time>2020-05-10T12:06:25Z</time>
      </trkpt>
      <trkpt lat="48.78234" lon="7.37132">
        <ele>394.4</ele>
        <time>2020-05-10T12:06:26Z</time>
      </trkpt>
      <trkpt lat="48.78235" lon="7.37133">
        <ele>394.4</ele>
        <time>2020-05-10T12:06:27Z</time>
      </trkpt>
      <trkpt lat="48.7824" lon="7.37133">
        <ele>394.7</ele>
        <time>2020-05-10T12:06:29Z</time>
      </trkpt>
      <trkpt lat="48.78242" lon="7.37132">
        <ele>394.7</ele>
        <time>2020-05-10T12:06:30Z</time>
      </trkpt>
      <trkpt lat="48.78246" lon="7.37132">
        <ele>394.9</ele>
        <time>2020-05-10T12:06:32Z</time>
      </trkpt>
      <trkpt lat="48.78247" lon="7.37131">
        <ele>394.9</ele>
        <time>2020-05-10T12:06:33Z</time>
      </trkpt>
      <trkpt lat="48.7825" lon="7.37129">
        <ele>395.1</ele>
        <time>2020-05-10T12:06:35Z</time>
      </trkpt>
      <trkpt lat="48.78252" lon="7.37128">
        <ele>395.1</ele>
        <time>2020-05-10T12:06:36Z</time>
      </trkpt>
      <trkpt lat="48.78254" lon="7.37127">
        <ele>395.2</ele>
        <time>2020-05-10T12:06:37Z</time>
      </trkpt>
      <trkpt lat="48.78256" lon="7.37127">
        <ele>395.2</ele>
        <time>2020-05-10T12:06:38Z</time>
      </trkpt>
      <trkpt lat="48.7826" lon="7.37128">
        <ele>395.3</ele>
        <time>2020-05-10T12:06:40Z</time>
      </trkpt>
      <trkpt lat="48.78262" lon="7.37128">
        <ele>395.4</ele>
        <time>2020-05-10T12:06:41Z</time>
      </trkpt>
      <trkpt lat="48.78264" lon="7.37128">
        <ele>395.4</ele>
        <time>2020-05-10T12:06:42Z</time>
      </trkpt>
      <trkpt lat="48.78268" lon="7.37127">
        <ele>395.5</ele>
        <time>2020-05-10T12:06:44Z</time>
      </trkpt>
      <trkpt lat="48.7827" lon="7.37126">
        <ele>395.5</ele>
        <time>2020-05-10T12:06:45Z</time>
      </trkpt>
      <trkpt lat="48.78271" lon="7.37125">
        <ele>395.5</ele>
        <time>2020-05-10T12:06:46Z</time>
      </trkpt>
      <trkpt lat="48.78274" lon="7.37124">
        <ele>395.6</ele>
        <time>2020-05-10T12:06:48Z</time>
      </trkpt>
      <trkpt lat="48.78277" lon="7.37123">
        <ele>395.6</ele>
        <time>2020-05-10T12:06:50Z</time>
      </trkpt>
      <trkpt lat="48.78279" lon="7.37121">
        <ele>395.6</ele>
        <time>2020-05-10T12:06:51Z</time>
      </trkpt>
      <trkpt lat="48.7828" lon="7.3712">
        <ele>395.7</ele>
        <time>2020-05-10T12:06:53Z</time>
      </trkpt>
      <trkpt lat="48.78282" lon="7.37117">
        <ele>395.7</ele>
        <time>2020-05-10T12:06:55Z</time>
      </trkpt>
      <trkpt lat="48.78285" lon="7.37115">
        <ele>395.7</ele>
        <time>2020-05-10T12:06:57Z</time>
      </trkpt>
      <trkpt lat="48.78288" lon="7.37113">
        <ele>395.8</ele>
        <time>2020-05-10T12:06:59Z</time>
      </trkpt>
      <trkpt lat="48.78291" lon="7.37112">
        <ele>395.8</ele>
        <time>2020-05-10T12:07:00Z</time>
      </trkpt>
      <trkpt lat="48.78294" lon="7.37111">
        <ele>395.9</ele>
        <time>2020-05-10T12:07:01Z</time>
      </trkpt>
      <trkpt lat="48.78294" lon="7.37111">
        <ele>395.9</ele>
        <time>2020-05-10T12:07:02Z</time>
      </trkpt>
      <trkpt lat="48.78297" lon="7.37111">
        <ele>395.9</ele>
        <time>2020-05-10T12:07:04Z</time>
      </trkpt>
      <trkpt lat="48.78302" lon="7.3711">
        <ele>395.9</ele>
        <time>2020-05-10T12:07:06Z</time>
      </trkpt>
      <trkpt lat="48.78305" lon="7.37109">
        <ele>396</ele>
        <time>2020-05-10T12:07:07Z</time>
      </trkpt>
      <trkpt lat="48.78309" lon="7.37107">
        <ele>396</ele>
        <time>2020-05-10T12:07:09Z</time>
      </trkpt>
      <trkpt lat="48.78312" lon="7.37105">
        <ele>395.9</ele>
        <time>2020-05-10T12:07:11Z</time>
      </trkpt>
      <trkpt lat="48.78314" lon="7.37104">
        <ele>395.9</ele>
        <time>2020-05-10T12:07:12Z</time>
      </trkpt>
      <trkpt lat="48.78318" lon="7.371">
        <ele>395.9</ele>
        <time>2020-05-10T12:07:14Z</time>
      </trkpt>
      <trkpt lat="48.7832" lon="7.37099">
        <ele>395.9</ele>
        <time>2020-05-10T12:07:15Z</time>
      </trkpt>
      <trkpt lat="48.78321" lon="7.371">
        <ele>395.8</ele>
        <time>2020-05-10T12:07:17Z</time>
      </trkpt>
      <trkpt lat="48.78324" lon="7.371">
        <ele>395.8</ele>
        <time>2020-05-10T12:07:19Z</time>
      </trkpt>
      <trkpt lat="48.78327" lon="7.37102">
        <ele>395.8</ele>
        <time>2020-05-10T12:07:21Z</time>
      </trkpt>
      <trkpt lat="48.78328" lon="7.37102">
        <ele>395.7</ele>
        <time>2020-05-10T12:07:22Z</time>
      </trkpt>
      <trkpt lat="48.7833" lon="7.37102">
        <ele>395.7</ele>
        <time>2020-05-10T12:07:24Z</time>
      </trkpt>
      <trkpt lat="48.78332" lon="7.37102">
        <ele>395.7</ele>
        <time>2020-05-10T12:07:25Z</time>
      </trkpt>
      <trkpt lat="48.78335" lon="7.37101">
        <ele>395.6</ele>
        <time>2020-05-10T12:07:27Z</time>
      </trkpt>
      <trkpt lat="48.78339" lon="7.37101">
        <ele>395.6</ele>
        <time>2020-05-10T12:07:29Z</time>
      </trkpt>
      <trkpt lat="48.7834" lon="7.37102">
        <ele>395.5</ele>
        <time>2020-05-10T12:07:30Z</time>
      </trkpt>
      <trkpt lat="48.78343" lon="7.37102">
        <ele>395.5</ele>
        <time>2020-05-10T12:07:32Z</time>
      </trkpt>
      <trkpt lat="48.78344" lon="7.37103">
        <ele>395.5</ele>
        <time>2020-05-10T12:07:33Z</time>
      </trkpt>
      <trkpt lat="48.78346" lon="7.37103">
        <ele>395.4</ele>
        <time>2020-05-10T12:07:35Z</time>
      </trkpt>
      <trkpt lat="48.78348" lon="7.37103">
        <ele>395.4</ele>
        <time>2020-05-10T12:07:37Z</time>
      </trkpt>
      <trkpt lat="48.78349" lon="7.37103">
        <ele>395.4</ele>
        <time>2020-05-10T12:07:38Z</time>
      </trkpt>
      <trkpt lat="48.7835" lon="7.37103">
        <ele>395.4</ele>
        <time>2020-05-10T12:07:39Z</time>
      </trkpt>
      <trkpt lat="48.7835" lon="7.37102">
        <ele>395.4</ele>
        <time>2020-05-10T12:07:40Z</time>
      </trkpt>
      <trkpt lat="48.78351" lon="7.37102">
        <ele>395.4</ele>
        <time>2020-05-10T12:07:41Z</time>
      </trkpt>
      <trkpt lat="48.78352" lon="7.371">
        <ele>395.3</ele>
        <time>2020-05-10T12:07:43Z</time>
      </trkpt>
      <trkpt lat="48.78353" lon="7.371">
        <ele>395.3</ele>
        <time>2020-05-10T12:07:45Z</time>
      </trkpt>
      <trkpt lat="48.78354" lon="7.37101">
        <ele>395.4</ele>
        <time>2020-05-10T12:07:47Z</time>
      </trkpt>
      <trkpt lat="48.78354" lon="7.37101">
        <ele>395.4</ele>
        <time>2020-05-10T12:07:49Z</time>
      </trkpt>
      <trkpt lat="48.78354" lon="7.37102">
        <ele>395.4</ele>
        <time>2020-05-10T12:07:51Z</time>
      </trkpt>
      <trkpt lat="48.78354" lon="7.37102">
        <ele>395.4</ele>
        <time>2020-05-10T12:07:53Z</time>
      </trkpt>
      <trkpt lat="48.78354" lon="7.37102">
        <ele>395.4</ele>
        <time>2020-05-10T12:07:54Z</time>
      </trkpt>
      <trkpt lat="48.78355" lon="7.37102">
        <ele>395.4</ele>
        <time>2020-05-10T12:07:56Z</time>
      </trkpt>
      <trkpt lat="48.78355" lon="7.37103">
        <ele>395.5</ele>
        <time>2020-05-10T12:07:58Z</time>
      </trkpt>
      <trkpt lat="48.78355" lon="7.37103">
        <ele>395.5</ele>
        <time>2020-05-10T12:08:00Z</time>
      </trkpt>
      <trkpt lat="48.78355" lon="7.37103">
        <ele>395.5</ele>
        <time>2020-05-10T12:08:00Z</time>
      </trkpt>
      <trkpt lat="48.78356" lon="7.37102">
        <ele>395.6</ele>
        <time>2020-05-10T12:08:02Z</time>
      </trkpt>
      <trkpt lat="48.78357" lon="7.37101">
        <ele>395.6</ele>
        <time>2020-05-10T12:08:04Z</time>
      </trkpt>
      <trkpt lat="48.78357" lon="7.371">
        <ele>395.7</ele>
        <time>2020-05-10T12:08:05Z</time>
      </trkpt>
      <trkpt lat="48.78358" lon="7.371">
        <ele>395.7</ele>
        <time>2020-05-10T12:08:07Z</time>
      </trkpt>
      <trkpt lat="48.78359" lon="7.37099">
        <ele>395.8</ele>
        <time>2020-05-10T12:08:09Z</time>
      </trkpt>
      <trkpt lat="48.78359" lon="7.37098">
        <ele>395.9</ele>
        <time>2020-05-10T12:08:11Z</time>
      </trkpt>
      <trkpt lat="48.7836" lon="7.37097">
        <ele>395.9</ele>
        <time>2020-05-10T12:08:12Z</time>
      </trkpt>
      <trkpt lat="48.78361" lon="7.37097">
        <ele>396</ele>
        <time>2020-05-10T12:08:13Z</time>
      </trkpt>
      <trkpt lat="48.78361" lon="7.37096">
        <ele>396</ele>
        <time>2020-05-10T12:08:15Z</time>
      </trkpt>
      <trkpt lat="48.78362" lon="7.37095">
        <ele>396.1</ele>
        <time>2020-05-10T12:08:16Z</time>
      </trkpt>
      <trkpt lat="48.78362" lon="7.37094">
        <ele>396.1</ele>
        <time>2020-05-10T12:08:18Z</time>
      </trkpt>
      <trkpt lat="48.78363" lon="7.37094">
        <ele>396.2</ele>
        <time>2020-05-10T12:08:19Z</time>
      </trkpt>
      <trkpt lat="48.78364" lon="7.37093">
        <ele>396.2</ele>
        <time>2020-05-10T12:08:21Z</time>
      </trkpt>
      <trkpt lat="48.78364" lon="7.37092">
        <ele>396.3</ele>
        <time>2020-05-10T12:08:22Z</time>
      </trkpt>
      <trkpt lat="48.78365" lon="7.37092">
        <ele>396.4</ele>
        <time>2020-05-10T12:08:23Z</time>
      </trkpt>
      <trkpt lat="48.78367" lon="7.37091">
        <ele>396.5</ele>
        <time>2020-05-10T12:08:25Z</time>
      </trkpt>
      <trkpt lat="48.78368" lon="7.3709">
        <ele>396.6</ele>
        <time>2020-05-10T12:08:26Z</time>
      </trkpt>
      <trkpt lat="48.78371" lon="7.37083">
        <ele>396.6</ele>
        <time>2020-05-10T12:08:28Z</time>
      </trkpt>
      <trkpt lat="48.78372" lon="7.37075">
        <ele>396.8</ele>
        <time>2020-05-10T12:08:30Z</time>
      </trkpt>
      <trkpt lat="48.78374" lon="7.37069">
        <ele>397</ele>
        <time>2020-05-10T12:08:32Z</time>
      </trkpt>
      <trkpt lat="48.78376" lon="7.37062">
        <ele>397.3</ele>
        <time>2020-05-10T12:08:34Z</time>
      </trkpt>
      <trkpt lat="48.78376" lon="7.37059">
        <ele>397.5</ele>
        <time>2020-05-10T12:08:36Z</time>
      </trkpt>
      <trkpt lat="48.78376" lon="7.37056">
        <ele>397.6</ele>
        <time>2020-05-10T12:08:38Z</time>
      </trkpt>
      <trkpt lat="48.78376" lon="7.37053">
        <ele>397.7</ele>
        <time>2020-05-10T12:08:39Z</time>
      </trkpt>
      <trkpt lat="48.78378" lon="7.37047">
        <ele>398.1</ele>
        <time>2020-05-10T12:08:41Z</time>
      </trkpt>
      <trkpt lat="48.78381" lon="7.37044">
        <ele>398.4</ele>
        <time>2020-05-10T12:08:43Z</time>
      </trkpt>
      <trkpt lat="48.78385" lon="7.37039">
        <ele>398.8</ele>
        <time>2020-05-10T12:08:45Z</time>
      </trkpt>
      <trkpt lat="48.78388" lon="7.37034">
        <ele>399.1</ele>
        <time>2020-05-10T12:08:47Z</time>
      </trkpt>
      <trkpt lat="48.78389" lon="7.37032">
        <ele>399.2</ele>
        <time>2020-05-10T12:08:49Z</time>
      </trkpt>
      <trkpt lat="48.7839" lon="7.3703">
        <ele>399.3</ele>
        <time>2020-05-10T12:08:50Z</time>
      </trkpt>
      <trkpt lat="48.78391" lon="7.37029">
        <ele>399.4</ele>
        <time>2020-05-10T12:08:51Z</time>
      </trkpt>
      <trkpt lat="48.78392" lon="7.37028">
        <ele>399.4</ele>
        <time>2020-05-10T12:08:52Z</time>
      </trkpt>
      <trkpt lat="48.78395" lon="7.37026">
        <ele>399.5</ele>
        <time>2020-05-10T12:08:54Z</time>
      </trkpt>
      <trkpt lat="48.78398" lon="7.37027">
        <ele>399.6</ele>
        <time>2020-05-10T12:08:55Z</time>
      </trkpt>
      <trkpt lat="48.78399" lon="7.37029">
        <ele>399.7</ele>
        <time>2020-05-10T12:08:56Z</time>
      </trkpt>
      <trkpt lat="48.78404" lon="7.3703">
        <ele>399.8</ele>
        <time>2020-05-10T12:08:58Z</time>
      </trkpt>
      <trkpt lat="48.78406" lon="7.37029">
        <ele>399.8</ele>
        <time>2020-05-10T12:08:59Z</time>
      </trkpt>
      <trkpt lat="48.78408" lon="7.37027">
        <ele>399.8</ele>
        <time>2020-05-10T12:09:01Z</time>
      </trkpt>
      <trkpt lat="48.78411" lon="7.37026">
        <ele>399.8</ele>
        <time>2020-05-10T12:09:02Z</time>
      </trkpt>
      <trkpt lat="48.78412" lon="7.37025">
        <ele>399.8</ele>
        <time>2020-05-10T12:09:03Z</time>
      </trkpt>
      <trkpt lat="48.78415" lon="7.37026">
        <ele>399.8</ele>
        <time>2020-05-10T12:09:05Z</time>
      </trkpt>
      <trkpt lat="48.7842" lon="7.37029">
        <ele>399.9</ele>
        <time>2020-05-10T12:09:07Z</time>
      </trkpt>
      <trkpt lat="48.78424" lon="7.37031">
        <ele>399.9</ele>
        <time>2020-05-10T12:09:09Z</time>
      </trkpt>
      <trkpt lat="48.78427" lon="7.37032">
        <ele>399.9</ele>
        <time>2020-05-10T12:09:10Z</time>
      </trkpt>
      <trkpt lat="48.78428" lon="7.37033">
        <ele>399.9</ele>
        <time>2020-05-10T12:09:11Z</time>
      </trkpt>
      <trkpt lat="48.78434" lon="7.37035">
        <ele>400</ele>
        <time>2020-05-10T12:09:13Z</time>
      </trkpt>
      <trkpt lat="48.7844" lon="7.37038">
        <ele>400.1</ele>
        <time>2020-05-10T12:09:15Z</time>
      </trkpt>
      <trkpt lat="48.78444" lon="7.37038">
        <ele>400.1</ele>
        <time>2020-05-10T12:09:17Z</time>
      </trkpt>
      <trkpt lat="48.78447" lon="7.37037">
        <ele>400.2</ele>
        <time>2020-05-10T12:09:18Z</time>
      </trkpt>
      <trkpt lat="48.78448" lon="7.37037">
        <ele>400.2</ele>
        <time>2020-05-10T12:09:19Z</time>
      </trkpt>
      <trkpt lat="48.78453" lon="7.37037">
        <ele>400.3</ele>
        <time>2020-05-10T12:09:21Z</time>
      </trkpt>
      <trkpt lat="48.78458" lon="7.37037">
        <ele>400.5</ele>
        <time>2020-05-10T12:09:23Z</time>
      </trkpt>
      <trkpt lat="48.7846" lon="7.37038">
        <ele>400.5</ele>
        <time>2020-05-10T12:09:24Z</time>
      </trkpt>
      <trkpt lat="48.78461" lon="7.37039">
        <ele>400.6</ele>
        <time>2020-05-10T12:09:25Z</time>
      </trkpt>
      <trkpt lat="48.78467" lon="7.37042">
        <ele>400.7</ele>
        <time>2020-05-10T12:09:27Z</time>
      </trkpt>
      <trkpt lat="48.7847" lon="7.37043">
        <ele>400.8</ele>
        <time>2020-05-10T12:09:28Z</time>
      </trkpt>
      <trkpt lat="48.78474" lon="7.37044">
        <ele>400.9</ele>
        <time>2020-05-10T12:09:30Z</time>
      </trkpt>
      <trkpt lat="48.78476" lon="7.37045">
        <ele>401</ele>
        <time>2020-05-10T12:09:31Z</time>
      </trkpt>
      <trkpt lat="48.78482" lon="7.3705">
        <ele>401.1</ele>
        <time>2020-05-10T12:09:33Z</time>
      </trkpt>
      <trkpt lat="48.78487" lon="7.37058">
        <ele>401.4</ele>
        <time>2020-05-10T12:09:35Z</time>
      </trkpt>
      <trkpt lat="48.78488" lon="7.3706">
        <ele>401.5</ele>
        <time>2020-05-10T12:09:36Z</time>
      </trkpt>
      <trkpt lat="48.78492" lon="7.37064">
        <ele>401.7</ele>
        <time>2020-05-10T12:09:38Z</time>
      </trkpt>
      <trkpt lat="48.78497" lon="7.37067">
        <ele>402.2</ele>
        <time>2020-05-10T12:09:40Z</time>
      </trkpt>
      <trkpt lat="48.785" lon="7.37069">
        <ele>402.4</ele>
        <time>2020-05-10T12:09:41Z</time>
      </trkpt>
      <trkpt lat="48.78502" lon="7.37071">
        <ele>402.6</ele>
        <time>2020-05-10T12:09:42Z</time>
      </trkpt>
      <trkpt lat="48.78505" lon="7.37073">
        <ele>402.9</ele>
        <time>2020-05-10T12:09:43Z</time>
      </trkpt>
      <trkpt lat="48.78506" lon="7.37073">
        <ele>403</ele>
        <time>2020-05-10T12:09:44Z</time>
      </trkpt>
      <trkpt lat="48.78511" lon="7.37076">
        <ele>403.5</ele>
        <time>2020-05-10T12:09:46Z</time>
      </trkpt>
      <trkpt lat="48.78516" lon="7.37078">
        <ele>403.9</ele>
        <time>2020-05-10T12:09:48Z</time>
      </trkpt>
      <trkpt lat="48.78519" lon="7.37078">
        <ele>404.2</ele>
        <time>2020-05-10T12:09:49Z</time>
      </trkpt>
      <trkpt lat="48.78524" lon="7.37079">
        <ele>404.7</ele>
        <time>2020-05-10T12:09:51Z</time>
      </trkpt>
      <trkpt lat="48.78527" lon="7.3708">
        <ele>404.9</ele>
        <time>2020-05-10T12:09:52Z</time>
      </trkpt>
      <trkpt lat="48.78529" lon="7.37082">
        <ele>405.1</ele>
        <time>2020-05-10T12:09:53Z</time>
      </trkpt>
      <trkpt lat="48.78532" lon="7.37088">
        <ele>405.4</ele>
        <time>2020-05-10T12:09:55Z</time>
      </trkpt>
      <trkpt lat="48.78534" lon="7.37091">
        <ele>405.5</ele>
        <time>2020-05-10T12:09:56Z</time>
      </trkpt>
      <trkpt lat="48.78536" lon="7.37096">
        <ele>405.7</ele>
        <time>2020-05-10T12:09:57Z</time>
      </trkpt>
      <trkpt lat="48.78538" lon="7.371">
        <ele>405.9</ele>
        <time>2020-05-10T12:09:58Z</time>
      </trkpt>
      <trkpt lat="48.78539" lon="7.37102">
        <ele>406</ele>
        <time>2020-05-10T12:09:59Z</time>
      </trkpt>
      <trkpt lat="48.78542" lon="7.37107">
        <ele>406.2</ele>
        <time>2020-05-10T12:10:01Z</time>
      </trkpt>
      <trkpt lat="48.78547" lon="7.37112">
        <ele>406.4</ele>
        <time>2020-05-10T12:10:03Z</time>
      </trkpt>
      <trkpt lat="48.78551" lon="7.37116">
        <ele>406.7</ele>
        <time>2020-05-10T12:10:05Z</time>
      </trkpt>
      <trkpt lat="48.78554" lon="7.37119">
        <ele>406.8</ele>
        <time>2020-05-10T12:10:06Z</time>
      </trkpt>
      <trkpt lat="48.7856" lon="7.37124">
        <ele>407.1</ele>
        <time>2020-05-10T12:10:08Z</time>
      </trkpt>
      <trkpt lat="48.78565" lon="7.37131">
        <ele>407.4</ele>
        <time>2020-05-10T12:10:10Z</time>
      </trkpt>
      <trkpt lat="48.78569" lon="7.37138">
        <ele>407.7</ele>
        <time>2020-05-10T12:10:12Z</time>
      </trkpt>
      <trkpt lat="48.78572" lon="7.37141">
        <ele>407.8</ele>
        <time>2020-05-10T12:10:13Z</time>
      </trkpt>
      <trkpt lat="48.78578" lon="7.37146">
        <ele>408</ele>
        <time>2020-05-10T12:10:15Z</time>
      </trkpt>
      <trkpt lat="48.78583" lon="7.37151">
        <ele>408.2</ele>
        <time>2020-05-10T12:10:17Z</time>
      </trkpt>
      <trkpt lat="48.78588" lon="7.37156">
        <ele>408.4</ele>
        <time>2020-05-10T12:10:19Z</time>
      </trkpt>
      <trkpt lat="48.78593" lon="7.37161">
        <ele>408.7</ele>
        <time>2020-05-10T12:10:21Z</time>
      </trkpt>
      <trkpt lat="48.78597" lon="7.37164">
        <ele>408.8</ele>
        <time>2020-05-10T12:10:23Z</time>
      </trkpt>
      <trkpt lat="48.78603" lon="7.37167">
        <ele>409.1</ele>
        <time>2020-05-10T12:10:25Z</time>
      </trkpt>
      <trkpt lat="48.78606" lon="7.3717">
        <ele>409.2</ele>
        <time>2020-05-10T12:10:26Z</time>
      </trkpt>
      <trkpt lat="48.78612" lon="7.37176">
        <ele>409.5</ele>
        <time>2020-05-10T12:10:28Z</time>
      </trkpt>
      <trkpt lat="48.78622" lon="7.37189">
        <ele>409.7</ele>
        <time>2020-05-10T12:10:30Z</time>
      </trkpt>
      <trkpt lat="48.78627" lon="7.37194">
        <ele>409.8</ele>
        <time>2020-05-10T12:10:31Z</time>
      </trkpt>
      <trkpt lat="48.78635" lon="7.37203">
        <ele>409.5</ele>
        <time>2020-05-10T12:10:33Z</time>
      </trkpt>
      <trkpt lat="48.78644" lon="7.3721">
        <ele>409.3</ele>
        <time>2020-05-10T12:10:35Z</time>
      </trkpt>
      <trkpt lat="48.78649" lon="7.37213">
        <ele>409.2</ele>
        <time>2020-05-10T12:10:36Z</time>
      </trkpt>
      <trkpt lat="48.78658" lon="7.37221">
        <ele>409.1</ele>
        <time>2020-05-10T12:10:38Z</time>
      </trkpt>
      <trkpt lat="48.78666" lon="7.37225">
        <ele>409.1</ele>
        <time>2020-05-10T12:10:40Z</time>
      </trkpt>
      <trkpt lat="48.7867" lon="7.37227">
        <ele>409.2</ele>
        <time>2020-05-10T12:10:41Z</time>
      </trkpt>
      <trkpt lat="48.78677" lon="7.37232">
        <ele>409.3</ele>
        <time>2020-05-10T12:10:43Z</time>
      </trkpt>
      <trkpt lat="48.7868" lon="7.37234">
        <ele>409.3</ele>
        <time>2020-05-10T12:10:44Z</time>
      </trkpt>
      <trkpt lat="48.78684" lon="7.37235">
        <ele>409.4</ele>
        <time>2020-05-10T12:10:45Z</time>
      </trkpt>
      <trkpt lat="48.78688" lon="7.37235">
        <ele>409.4</ele>
        <time>2020-05-10T12:10:47Z</time>
      </trkpt>
      <trkpt lat="48.78692" lon="7.37237">
        <ele>409.4</ele>
        <time>2020-05-10T12:10:48Z</time>
      </trkpt>
      <trkpt lat="48.78695" lon="7.3724">
        <ele>409.5</ele>
        <time>2020-05-10T12:10:49Z</time>
      </trkpt>
      <trkpt lat="48.78704" lon="7.37247">
        <ele>409.3</ele>
        <time>2020-05-10T12:10:51Z</time>
      </trkpt>
      <trkpt lat="48.78709" lon="7.37252">
        <ele>409.2</ele>
        <time>2020-05-10T12:10:52Z</time>
      </trkpt>
      <trkpt lat="48.78718" lon="7.37255">
        <ele>409</ele>
        <time>2020-05-10T12:10:54Z</time>
      </trkpt>
      <trkpt lat="48.78723" lon="7.37258">
        <ele>408.9</ele>
        <time>2020-05-10T12:10:55Z</time>
      </trkpt>
      <trkpt lat="48.78731" lon="7.37263">
        <ele>408.7</ele>
        <time>2020-05-10T12:10:57Z</time>
      </trkpt>
      <trkpt lat="48.78742" lon="7.37265">
        <ele>408.6</ele>
        <time>2020-05-10T12:10:59Z</time>
      </trkpt>
      <trkpt lat="48.78751" lon="7.37267">
        <ele>408.4</ele>
        <time>2020-05-10T12:11:01Z</time>
      </trkpt>
      <trkpt lat="48.7876" lon="7.37271">
        <ele>408.1</ele>
        <time>2020-05-10T12:11:03Z</time>
      </trkpt>
      <trkpt lat="48.78767" lon="7.37269">
        <ele>407.9</ele>
        <time>2020-05-10T12:11:05Z</time>
      </trkpt>
      <trkpt lat="48.78771" lon="7.3727">
        <ele>407.7</ele>
        <time>2020-05-10T12:11:06Z</time>
      </trkpt>
      <trkpt lat="48.78781" lon="7.37277">
        <ele>407.3</ele>
        <time>2020-05-10T12:11:08Z</time>
      </trkpt>
      <trkpt lat="48.78786" lon="7.37279">
        <ele>407</ele>
        <time>2020-05-10T12:11:09Z</time>
      </trkpt>
      <trkpt lat="48.78795" lon="7.37277">
        <ele>406.6</ele>
        <time>2020-05-10T12:11:11Z</time>
      </trkpt>
      <trkpt lat="48.78799" lon="7.37276">
        <ele>406.3</ele>
        <time>2020-05-10T12:11:12Z</time>
      </trkpt>
      <trkpt lat="48.78803" lon="7.37273">
        <ele>406.1</ele>
        <time>2020-05-10T12:11:13Z</time>
      </trkpt>
      <trkpt lat="48.78808" lon="7.37269">
        <ele>405.7</ele>
        <time>2020-05-10T12:11:14Z</time>
      </trkpt>
      <trkpt lat="48.78819" lon="7.37258">
        <ele>405.1</ele>
        <time>2020-05-10T12:11:16Z</time>
      </trkpt>
      <trkpt lat="48.78823" lon="7.37253">
        <ele>404.9</ele>
        <time>2020-05-10T12:11:17Z</time>
      </trkpt>
      <trkpt lat="48.78834" lon="7.37247">
        <ele>403.8</ele>
        <time>2020-05-10T12:11:19Z</time>
      </trkpt>
      <trkpt lat="48.78844" lon="7.37247">
        <ele>403.1</ele>
        <time>2020-05-10T12:11:21Z</time>
      </trkpt>
      <trkpt lat="48.78853" lon="7.37253">
        <ele>402.4</ele>
        <time>2020-05-10T12:11:23Z</time>
      </trkpt>
      <trkpt lat="48.78859" lon="7.37257">
        <ele>401.8</ele>
        <time>2020-05-10T12:11:25Z</time>
      </trkpt>
      <trkpt lat="48.78867" lon="7.37262">
        <ele>401.1</ele>
        <time>2020-05-10T12:11:27Z</time>
      </trkpt>
      <trkpt lat="48.78871" lon="7.37262">
        <ele>400.8</ele>
        <time>2020-05-10T12:11:29Z</time>
      </trkpt>
      <trkpt lat="48.78874" lon="7.37263">
        <ele>400.5</ele>
        <time>2020-05-10T12:11:31Z</time>
      </trkpt>
      <trkpt lat="48.78876" lon="7.37264">
        <ele>400.3</ele>
        <time>2020-05-10T12:11:32Z</time>
      </trkpt>
      <trkpt lat="48.78883" lon="7.37267">
        <ele>399.6</ele>
        <time>2020-05-10T12:11:34Z</time>
      </trkpt>
      <trkpt lat="48.78886" lon="7.3727">
        <ele>399.1</ele>
        <time>2020-05-10T12:11:35Z</time>
      </trkpt>
      <trkpt lat="48.7889" lon="7.37273">
        <ele>398.5</ele>
        <time>2020-05-10T12:11:37Z</time>
      </trkpt>
      <trkpt lat="48.78897" lon="7.37277">
        <ele>397.6</ele>
        <time>2020-05-10T12:11:39Z</time>
      </trkpt>
      <trkpt lat="48.78901" lon="7.37281">
        <ele>396.5</ele>
        <time>2020-05-10T12:11:41Z</time>
      </trkpt>
      <trkpt lat="48.78903" lon="7.37282">
        <ele>396.5</ele>
        <time>2020-05-10T12:11:42Z</time>
      </trkpt>
      <trkpt lat="48.78904" lon="7.37285">
        <ele>396.5</ele>
        <time>2020-05-10T12:11:44Z</time>
      </trkpt>
      <trkpt lat="48.78907" lon="7.37287">
        <ele>396.4</ele>
        <time>2020-05-10T12:11:46Z</time>
      </trkpt>
      <trkpt lat="48.78908" lon="7.37286">
        <ele>396.4</ele>
        <time>2020-05-10T12:11:47Z</time>
      </trkpt>
      <trkpt lat="48.78912" lon="7.37291">
        <ele>395.3</ele>
        <time>2020-05-10T12:11:49Z</time>
      </trkpt>
      <trkpt lat="48.78913" lon="7.37292">
        <ele>395</ele>
        <time>2020-05-10T12:11:50Z</time>
      </trkpt>
      <trkpt lat="48.78915" lon="7.37293">
        <ele>394.7</ele>
        <time>2020-05-10T12:11:51Z</time>
      </trkpt>
      <trkpt lat="48.78918" lon="7.37295">
        <ele>394.3</ele>
        <time>2020-05-10T12:11:52Z</time>
      </trkpt>
      <trkpt lat="48.78924" lon="7.37305">
        <ele>392.9</ele>
        <time>2020-05-10T12:11:54Z</time>
      </trkpt>
      <trkpt lat="48.78928" lon="7.37312">
        <ele>392.1</ele>
        <time>2020-05-10T12:11:55Z</time>
      </trkpt>
      <trkpt lat="48.78935" lon="7.37325">
        <ele>391.1</ele>
        <time>2020-05-10T12:11:57Z</time>
      </trkpt>
      <trkpt lat="48.78942" lon="7.37331">
        <ele>390.6</ele>
        <time>2020-05-10T12:11:58Z</time>
      </trkpt>
      <trkpt lat="48.78953" lon="7.37342">
        <ele>390</ele>
        <time>2020-05-10T12:12:00Z</time>
      </trkpt>
      <trkpt lat="48.78957" lon="7.37353">
        <ele>389.5</ele>
        <time>2020-05-10T12:12:02Z</time>
      </trkpt>
      <trkpt lat="48.78959" lon="7.37357">
        <ele>389.2</ele>
        <time>2020-05-10T12:12:03Z</time>
      </trkpt>
      <trkpt lat="48.78964" lon="7.37362">
        <ele>388.5</ele>
        <time>2020-05-10T12:12:05Z</time>
      </trkpt>
      <trkpt lat="48.78969" lon="7.37363">
        <ele>387.6</ele>
        <time>2020-05-10T12:12:07Z</time>
      </trkpt>
      <trkpt lat="48.78973" lon="7.37365">
        <ele>387</ele>
        <time>2020-05-10T12:12:08Z</time>
      </trkpt>
      <trkpt lat="48.78976" lon="7.37368">
        <ele>386.2</ele>
        <time>2020-05-10T12:12:10Z</time>
      </trkpt>
      <trkpt lat="48.78979" lon="7.37371">
        <ele>385.4</ele>
        <time>2020-05-10T12:12:12Z</time>
      </trkpt>
      <trkpt lat="48.78983" lon="7.37375">
        <ele>384.3</ele>
        <time>2020-05-10T12:12:14Z</time>
      </trkpt>
      <trkpt lat="48.78987" lon="7.37378">
        <ele>383.3</ele>
        <time>2020-05-10T12:12:16Z</time>
      </trkpt>
      <trkpt lat="48.78989" lon="7.37379">
        <ele>382.9</ele>
        <time>2020-05-10T12:12:17Z</time>
      </trkpt>
      <trkpt lat="48.78991" lon="7.37382">
        <ele>382.3</ele>
        <time>2020-05-10T12:12:19Z</time>
      </trkpt>
      <trkpt lat="48.78993" lon="7.37386">
        <ele>381.5</ele>
        <time>2020-05-10T12:12:21Z</time>
      </trkpt>
      <trkpt lat="48.78994" lon="7.37388">
        <ele>381.1</ele>
        <time>2020-05-10T12:12:22Z</time>
      </trkpt>
      <trkpt lat="48.78995" lon="7.37388">
        <ele>380.9</ele>
        <time>2020-05-10T12:12:23Z</time>
      </trkpt>
      <trkpt lat="48.78996" lon="7.3739">
        <ele>380.5</ele>
        <time>2020-05-10T12:12:25Z</time>
      </trkpt>
      <trkpt lat="48.78997" lon="7.37391">
        <ele>380.3</ele>
        <time>2020-05-10T12:12:26Z</time>
      </trkpt>
      <trkpt lat="48.79" lon="7.37393">
        <ele>379.5</ele>
        <time>2020-05-10T12:12:28Z</time>
      </trkpt>
      <trkpt lat="48.79003" lon="7.37394">
        <ele>378.9</ele>
        <time>2020-05-10T12:12:30Z</time>
      </trkpt>
      <trkpt lat="48.79005" lon="7.37394">
        <ele>378.4</ele>
        <time>2020-05-10T12:12:32Z</time>
      </trkpt>
      <trkpt lat="48.79006" lon="7.37394">
        <ele>378.1</ele>
        <time>2020-05-10T12:12:33Z</time>
      </trkpt>
      <trkpt lat="48.79009" lon="7.37395">
        <ele>377.5</ele>
        <time>2020-05-10T12:12:35Z</time>
      </trkpt>
      <trkpt lat="48.7901" lon="7.37398">
        <ele>376.9</ele>
        <time>2020-05-10T12:12:37Z</time>
      </trkpt>
      <trkpt lat="48.79014" lon="7.37408">
        <ele>375.4</ele>
        <time>2020-05-10T12:12:39Z</time>
      </trkpt>
      <trkpt lat="48.79024" lon="7.37417">
        <ele>373.2</ele>
        <time>2020-05-10T12:12:41Z</time>
      </trkpt>
      <trkpt lat="48.7903" lon="7.3742">
        <ele>372.1</ele>
        <time>2020-05-10T12:12:42Z</time>
      </trkpt>
      <trkpt lat="48.79044" lon="7.37422">
        <ele>370.9</ele>
        <time>2020-05-10T12:12:44Z</time>
      </trkpt>
      <trkpt lat="48.79056" lon="7.37428">
        <ele>370.7</ele>
        <time>2020-05-10T12:12:46Z</time>
      </trkpt>
      <trkpt lat="48.7906" lon="7.3743">
        <ele>370.6</ele>
        <time>2020-05-10T12:12:47Z</time>
      </trkpt>
      <trkpt lat="48.79064" lon="7.37432">
        <ele>370.5</ele>
        <time>2020-05-10T12:12:48Z</time>
      </trkpt>
      <trkpt lat="48.7907" lon="7.37434">
        <ele>370.4</ele>
        <time>2020-05-10T12:12:50Z</time>
      </trkpt>
      <trkpt lat="48.79075" lon="7.37434">
        <ele>370.9</ele>
        <time>2020-05-10T12:12:52Z</time>
      </trkpt>
      <trkpt lat="48.79078" lon="7.37434">
        <ele>371.3</ele>
        <time>2020-05-10T12:12:53Z</time>
      </trkpt>
      <trkpt lat="48.7908" lon="7.37435">
        <ele>371.4</ele>
        <time>2020-05-10T12:12:54Z</time>
      </trkpt>
      <trkpt lat="48.79087" lon="7.37437">
        <ele>372.3</ele>
        <time>2020-05-10T12:12:56Z</time>
      </trkpt>
      <trkpt lat="48.7909" lon="7.37437">
        <ele>372.6</ele>
        <time>2020-05-10T12:12:57Z</time>
      </trkpt>
      <trkpt lat="48.79095" lon="7.37439">
        <ele>373.2</ele>
        <time>2020-05-10T12:12:59Z</time>
      </trkpt>
      <trkpt lat="48.79099" lon="7.3744">
        <ele>373.7</ele>
        <time>2020-05-10T12:13:01Z</time>
      </trkpt>
      <trkpt lat="48.79101" lon="7.37442">
        <ele>374</ele>
        <time>2020-05-10T12:13:02Z</time>
      </trkpt>
      <trkpt lat="48.79106" lon="7.37444">
        <ele>374.6</ele>
        <time>2020-05-10T12:13:04Z</time>
      </trkpt>
      <trkpt lat="48.7911" lon="7.37444">
        <ele>375.2</ele>
        <time>2020-05-10T12:13:06Z</time>
      </trkpt>
      <trkpt lat="48.79116" lon="7.37444">
        <ele>376.2</ele>
        <time>2020-05-10T12:13:08Z</time>
      </trkpt>
      <trkpt lat="48.7912" lon="7.37444">
        <ele>376.8</ele>
        <time>2020-05-10T12:13:10Z</time>
      </trkpt>
      <trkpt lat="48.79123" lon="7.37445">
        <ele>377.5</ele>
        <time>2020-05-10T12:13:12Z</time>
      </trkpt>
      <trkpt lat="48.79126" lon="7.37446">
        <ele>378</ele>
        <time>2020-05-10T12:13:13Z</time>
      </trkpt>
      <trkpt lat="48.79131" lon="7.37449">
        <ele>379</ele>
        <time>2020-05-10T12:13:15Z</time>
      </trkpt>
      <trkpt lat="48.79134" lon="7.37452">
        <ele>379.8</ele>
        <time>2020-05-10T12:13:17Z</time>
      </trkpt>
      <trkpt lat="48.79138" lon="7.37458">
        <ele>380.2</ele>
        <time>2020-05-10T12:13:19Z</time>
      </trkpt>
      <trkpt lat="48.79139" lon="7.3746">
        <ele>380.4</ele>
        <time>2020-05-10T12:13:20Z</time>
      </trkpt>
      <trkpt lat="48.79144" lon="7.37467">
        <ele>381.1</ele>
        <time>2020-05-10T12:13:22Z</time>
      </trkpt>
      <trkpt lat="48.79147" lon="7.37469">
        <ele>381.4</ele>
        <time>2020-05-10T12:13:23Z</time>
      </trkpt>
      <trkpt lat="48.7915" lon="7.37471">
        <ele>382</ele>
        <time>2020-05-10T12:13:25Z</time>
      </trkpt>
      <trkpt lat="48.79151" lon="7.37472">
        <ele>382.1</ele>
        <time>2020-05-10T12:13:26Z</time>
      </trkpt>
      <trkpt lat="48.79154" lon="7.37475">
        <ele>382.6</ele>
        <time>2020-05-10T12:13:28Z</time>
      </trkpt>
      <trkpt lat="48.79155" lon="7.37476">
        <ele>382.7</ele>
        <time>2020-05-10T12:13:29Z</time>
      </trkpt>
      <trkpt lat="48.79157" lon="7.37478">
        <ele>383.1</ele>
        <time>2020-05-10T12:13:31Z</time>
      </trkpt>
      <trkpt lat="48.7916" lon="7.3748">
        <ele>383.6</ele>
        <time>2020-05-10T12:13:32Z</time>
      </trkpt>
      <trkpt lat="48.79161" lon="7.37481">
        <ele>383.7</ele>
        <time>2020-05-10T12:13:33Z</time>
      </trkpt>
      <trkpt lat="48.79165" lon="7.37483">
        <ele>384.2</ele>
        <time>2020-05-10T12:13:35Z</time>
      </trkpt>
      <trkpt lat="48.79166" lon="7.37484">
        <ele>384.4</ele>
        <time>2020-05-10T12:13:36Z</time>
      </trkpt>
      <trkpt lat="48.79167" lon="7.37484">
        <ele>384.6</ele>
        <time>2020-05-10T12:13:37Z</time>
      </trkpt>
      <trkpt lat="48.79168" lon="7.37484">
        <ele>384.7</ele>
        <time>2020-05-10T12:13:38Z</time>
      </trkpt>
      <trkpt lat="48.79172" lon="7.37485">
        <ele>385.1</ele>
        <time>2020-05-10T12:13:40Z</time>
      </trkpt>
      <trkpt lat="48.79175" lon="7.37485">
        <ele>385.5</ele>
        <time>2020-05-10T12:13:41Z</time>
      </trkpt>
      <trkpt lat="48.79176" lon="7.37485">
        <ele>385.6</ele>
        <time>2020-05-10T12:13:42Z</time>
      </trkpt>
      <trkpt lat="48.7918" lon="7.37486">
        <ele>386.1</ele>
        <time>2020-05-10T12:13:44Z</time>
      </trkpt>
      <trkpt lat="48.79182" lon="7.37487">
        <ele>386.4</ele>
        <time>2020-05-10T12:13:45Z</time>
      </trkpt>
      <trkpt lat="48.79187" lon="7.37491">
        <ele>387.2</ele>
        <time>2020-05-10T12:13:47Z</time>
      </trkpt>
      <trkpt lat="48.79191" lon="7.37493">
        <ele>387.7</ele>
        <time>2020-05-10T12:13:48Z</time>
      </trkpt>
      <trkpt lat="48.79192" lon="7.37493">
        <ele>387.9</ele>
        <time>2020-05-10T12:13:49Z</time>
      </trkpt>
      <trkpt lat="48.79195" lon="7.37496">
        <ele>388.4</ele>
        <time>2020-05-10T12:13:51Z</time>
      </trkpt>
      <trkpt lat="48.79198" lon="7.37502">
        <ele>389.2</ele>
        <time>2020-05-10T12:13:53Z</time>
      </trkpt>
      <trkpt lat="48.79201" lon="7.37504">
        <ele>389.6</ele>
        <time>2020-05-10T12:13:55Z</time>
      </trkpt>
      <trkpt lat="48.79202" lon="7.37505">
        <ele>389.7</ele>
        <time>2020-05-10T12:13:56Z</time>
      </trkpt>
      <trkpt lat="48.79203" lon="7.37506">
        <ele>390</ele>
        <time>2020-05-10T12:13:57Z</time>
      </trkpt>
      <trkpt lat="48.79208" lon="7.37509">
        <ele>390.7</ele>
        <time>2020-05-10T12:13:59Z</time>
      </trkpt>
      <trkpt lat="48.79209" lon="7.3751">
        <ele>390.9</ele>
        <time>2020-05-10T12:14:00Z</time>
      </trkpt>
      <trkpt lat="48.79213" lon="7.37512">
        <ele>391.5</ele>
        <time>2020-05-10T12:14:02Z</time>
      </trkpt>
      <trkpt lat="48.79216" lon="7.37514">
        <ele>392</ele>
        <time>2020-05-10T12:14:04Z</time>
      </trkpt>
      <trkpt lat="48.7922" lon="7.37513">
        <ele>392.5</ele>
        <time>2020-05-10T12:14:06Z</time>
      </trkpt>
      <trkpt lat="48.79223" lon="7.37512">
        <ele>393</ele>
        <time>2020-05-10T12:14:08Z</time>
      </trkpt>
      <trkpt lat="48.79225" lon="7.37513">
        <ele>393.2</ele>
        <time>2020-05-10T12:14:09Z</time>
      </trkpt>
      <trkpt lat="48.79229" lon="7.37516">
        <ele>393.8</ele>
        <time>2020-05-10T12:14:11Z</time>
      </trkpt>
      <trkpt lat="48.79232" lon="7.3752">
        <ele>394.2</ele>
        <time>2020-05-10T12:14:13Z</time>
      </trkpt>
      <trkpt lat="48.79235" lon="7.37524">
        <ele>394.5</ele>
        <time>2020-05-10T12:14:15Z</time>
      </trkpt>
      <trkpt lat="48.79238" lon="7.3753">
        <ele>394.9</ele>
        <time>2020-05-10T12:14:17Z</time>
      </trkpt>
      <trkpt lat="48.7924" lon="7.37533">
        <ele>395.1</ele>
        <time>2020-05-10T12:14:19Z</time>
      </trkpt>
      <trkpt lat="48.79241" lon="7.37533">
        <ele>395.2</ele>
        <time>2020-05-10T12:14:20Z</time>
      </trkpt>
      <trkpt lat="48.79247" lon="7.37532">
        <ele>395.5</ele>
        <time>2020-05-10T12:14:22Z</time>
      </trkpt>
      <trkpt lat="48.79251" lon="7.37531">
        <ele>395.7</ele>
        <time>2020-05-10T12:14:24Z</time>
      </trkpt>
      <trkpt lat="48.79257" lon="7.3753">
        <ele>395.9</ele>
        <time>2020-05-10T12:14:26Z</time>
      </trkpt>
      <trkpt lat="48.7926" lon="7.37529">
        <ele>395.9</ele>
        <time>2020-05-10T12:14:27Z</time>
      </trkpt>
      <trkpt lat="48.79262" lon="7.37527">
        <ele>396</ele>
        <time>2020-05-10T12:14:28Z</time>
      </trkpt>
      <trkpt lat="48.79268" lon="7.37526">
        <ele>396.2</ele>
        <time>2020-05-10T12:14:30Z</time>
      </trkpt>
      <trkpt lat="48.79271" lon="7.37527">
        <ele>396.3</ele>
        <time>2020-05-10T12:14:31Z</time>
      </trkpt>
      <trkpt lat="48.79274" lon="7.37527">
        <ele>396.4</ele>
        <time>2020-05-10T12:14:33Z</time>
      </trkpt>
      <trkpt lat="48.79276" lon="7.37527">
        <ele>396.5</ele>
        <time>2020-05-10T12:14:34Z</time>
      </trkpt>
      <trkpt lat="48.79281" lon="7.37529">
        <ele>396.7</ele>
        <time>2020-05-10T12:14:36Z</time>
      </trkpt>
      <trkpt lat="48.79285" lon="7.37532">
        <ele>396.8</ele>
        <time>2020-05-10T12:14:37Z</time>
      </trkpt>
      <trkpt lat="48.79286" lon="7.37533">
        <ele>396.9</ele>
        <time>2020-05-10T12:14:38Z</time>
      </trkpt>
      <trkpt lat="48.79291" lon="7.37537">
        <ele>397.1</ele>
        <time>2020-05-10T12:14:40Z</time>
      </trkpt>
      <trkpt lat="48.79292" lon="7.37537">
        <ele>397.2</ele>
        <time>2020-05-10T12:14:41Z</time>
      </trkpt>
      <trkpt lat="48.79297" lon="7.37539">
        <ele>397.4</ele>
        <time>2020-05-10T12:14:43Z</time>
      </trkpt>
      <trkpt lat="48.79302" lon="7.37541">
        <ele>397.5</ele>
        <time>2020-05-10T12:14:45Z</time>
      </trkpt>
      <trkpt lat="48.79304" lon="7.37541">
        <ele>397.6</ele>
        <time>2020-05-10T12:14:46Z</time>
      </trkpt>
      <trkpt lat="48.79307" lon="7.37542">
        <ele>397.6</ele>
        <time>2020-05-10T12:14:47Z</time>
      </trkpt>
      <trkpt lat="48.79311" lon="7.37544">
        <ele>397.7</ele>
        <time>2020-05-10T12:14:49Z</time>
      </trkpt>
      <trkpt lat="48.79314" lon="7.37545">
        <ele>397.8</ele>
        <time>2020-05-10T12:14:50Z</time>
      </trkpt>
      <trkpt lat="48.79319" lon="7.37545">
        <ele>398</ele>
        <time>2020-05-10T12:14:52Z</time>
      </trkpt>
      <trkpt lat="48.79325" lon="7.37544">
        <ele>398</ele>
        <time>2020-05-10T12:14:54Z</time>
      </trkpt>
      <trkpt lat="48.7933" lon="7.37539">
        <ele>398.1</ele>
        <time>2020-05-10T12:14:56Z</time>
      </trkpt>
      <trkpt lat="48.79333" lon="7.37537">
        <ele>398.1</ele>
        <time>2020-05-10T12:14:57Z</time>
      </trkpt>
      <trkpt lat="48.79338" lon="7.37531">
        <ele>398.1</ele>
        <time>2020-05-10T12:14:59Z</time>
      </trkpt>
      <trkpt lat="48.79343" lon="7.37526">
        <ele>398</ele>
        <time>2020-05-10T12:15:01Z</time>
      </trkpt>
      <trkpt lat="48.79346" lon="7.37523">
        <ele>398</ele>
        <time>2020-05-10T12:15:02Z</time>
      </trkpt>
      <trkpt lat="48.79349" lon="7.37521">
        <ele>398</ele>
        <time>2020-05-10T12:15:04Z</time>
      </trkpt>
      <trkpt lat="48.79352" lon="7.3752">
        <ele>398</ele>
        <time>2020-05-10T12:15:05Z</time>
      </trkpt>
      <trkpt lat="48.7936" lon="7.37521">
        <ele>397.6</ele>
        <time>2020-05-10T12:15:07Z</time>
      </trkpt>
      <trkpt lat="48.79363" lon="7.37527">
        <ele>397.1</ele>
        <time>2020-05-10T12:15:08Z</time>
      </trkpt>
      <trkpt lat="48.79368" lon="7.37533">
        <ele>396.4</ele>
        <time>2020-05-10T12:15:09Z</time>
      </trkpt>
      <trkpt lat="48.79377" lon="7.37542">
        <ele>395.5</ele>
        <time>2020-05-10T12:15:11Z</time>
      </trkpt>
      <trkpt lat="48.79382" lon="7.37545">
        <ele>395.2</ele>
        <time>2020-05-10T12:15:12Z</time>
      </trkpt>
      <trkpt lat="48.79387" lon="7.37549">
        <ele>394.9</ele>
        <time>2020-05-10T12:15:13Z</time>
      </trkpt>
      <trkpt lat="48.79396" lon="7.37558">
        <ele>394.2</ele>
        <time>2020-05-10T12:15:15Z</time>
      </trkpt>
      <trkpt lat="48.79399" lon="7.37563">
        <ele>394.1</ele>
        <time>2020-05-10T12:15:16Z</time>
      </trkpt>
      <trkpt lat="48.79403" lon="7.3757">
        <ele>394</ele>
        <time>2020-05-10T12:15:17Z</time>
      </trkpt>
      <trkpt lat="48.79407" lon="7.37579">
        <ele>394</ele>
        <time>2020-05-10T12:15:18Z</time>
      </trkpt>
      <trkpt lat="48.7941" lon="7.37588">
        <ele>394.2</ele>
        <time>2020-05-10T12:15:19Z</time>
      </trkpt>
      <trkpt lat="48.79412" lon="7.37596">
        <ele>394.3</ele>
        <time>2020-05-10T12:15:21Z</time>
      </trkpt>
      <trkpt lat="48.79416" lon="7.376">
        <ele>394.5</ele>
        <time>2020-05-10T12:15:23Z</time>
      </trkpt>
      <trkpt lat="48.79418" lon="7.37602">
        <ele>394.6</ele>
        <time>2020-05-10T12:15:24Z</time>
      </trkpt>
      <trkpt lat="48.79423" lon="7.37608">
        <ele>394.8</ele>
        <time>2020-05-10T12:15:26Z</time>
      </trkpt>
      <trkpt lat="48.79429" lon="7.37616">
        <ele>395</ele>
        <time>2020-05-10T12:15:28Z</time>
      </trkpt>
      <trkpt lat="48.79432" lon="7.37621">
        <ele>395.2</ele>
        <time>2020-05-10T12:15:29Z</time>
      </trkpt>
      <trkpt lat="48.79437" lon="7.37629">
        <ele>395.4</ele>
        <time>2020-05-10T12:15:31Z</time>
      </trkpt>
      <trkpt lat="48.7944" lon="7.37634">
        <ele>395.5</ele>
        <time>2020-05-10T12:15:33Z</time>
      </trkpt>
      <trkpt lat="48.79444" lon="7.37633">
        <ele>395.4</ele>
        <time>2020-05-10T12:15:35Z</time>
      </trkpt>
      <trkpt lat="48.79449" lon="7.37637">
        <ele>395.3</ele>
        <time>2020-05-10T12:15:37Z</time>
      </trkpt>
      <trkpt lat="48.79457" lon="7.37643">
        <ele>395</ele>
        <time>2020-05-10T12:15:39Z</time>
      </trkpt>
      <trkpt lat="48.79463" lon="7.37646">
        <ele>394.8</ele>
        <time>2020-05-10T12:15:41Z</time>
      </trkpt>
      <trkpt lat="48.79467" lon="7.37651">
        <ele>394.6</ele>
        <time>2020-05-10T12:15:42Z</time>
      </trkpt>
      <trkpt lat="48.79469" lon="7.37654">
        <ele>394.4</ele>
        <time>2020-05-10T12:15:43Z</time>
      </trkpt>
      <trkpt lat="48.79476" lon="7.37664">
        <ele>393.8</ele>
        <time>2020-05-10T12:15:45Z</time>
      </trkpt>
      <trkpt lat="48.79481" lon="7.37672">
        <ele>393.2</ele>
        <time>2020-05-10T12:15:47Z</time>
      </trkpt>
      <trkpt lat="48.79483" lon="7.37677">
        <ele>392.9</ele>
        <time>2020-05-10T12:15:48Z</time>
      </trkpt>
      <trkpt lat="48.79486" lon="7.37681">
        <ele>392.5</ele>
        <time>2020-05-10T12:15:49Z</time>
      </trkpt>
      <trkpt lat="48.79492" lon="7.37685">
        <ele>391.7</ele>
        <time>2020-05-10T12:15:51Z</time>
      </trkpt>
      <trkpt lat="48.795" lon="7.3769">
        <ele>390.7</ele>
        <time>2020-05-10T12:15:53Z</time>
      </trkpt>
      <trkpt lat="48.79504" lon="7.37692">
        <ele>390.1</ele>
        <time>2020-05-10T12:15:54Z</time>
      </trkpt>
      <trkpt lat="48.79515" lon="7.37706">
        <ele>387.8</ele>
        <time>2020-05-10T12:15:56Z</time>
      </trkpt>
      <trkpt lat="48.79521" lon="7.37721">
        <ele>385.8</ele>
        <time>2020-05-10T12:15:58Z</time>
      </trkpt>
      <trkpt lat="48.79524" lon="7.37729">
        <ele>385.5</ele>
        <time>2020-05-10T12:15:59Z</time>
      </trkpt>
      <trkpt lat="48.79526" lon="7.37736">
        <ele>385.5</ele>
        <time>2020-05-10T12:16:00Z</time>
      </trkpt>
      <trkpt lat="48.7953" lon="7.37742">
        <ele>382.7</ele>
        <time>2020-05-10T12:16:01Z</time>
      </trkpt>
      <trkpt lat="48.79534" lon="7.37753">
        <ele>381.4</ele>
        <time>2020-05-10T12:16:03Z</time>
      </trkpt>
      <trkpt lat="48.79535" lon="7.37759">
        <ele>380.7</ele>
        <time>2020-05-10T12:16:04Z</time>
      </trkpt>
      <trkpt lat="48.79538" lon="7.37765">
        <ele>380</ele>
        <time>2020-05-10T12:16:06Z</time>
      </trkpt>
      <trkpt lat="48.7954" lon="7.37767">
        <ele>379.7</ele>
        <time>2020-05-10T12:16:07Z</time>
      </trkpt>
      <trkpt lat="48.79542" lon="7.37769">
        <ele>379.5</ele>
        <time>2020-05-10T12:16:08Z</time>
      </trkpt>
      <trkpt lat="48.79547" lon="7.37775">
        <ele>378.8</ele>
        <time>2020-05-10T12:16:10Z</time>
      </trkpt>
      <trkpt lat="48.7955" lon="7.37778">
        <ele>378.2</ele>
        <time>2020-05-10T12:16:11Z</time>
      </trkpt>
      <trkpt lat="48.79553" lon="7.37782">
        <ele>377.5</ele>
        <time>2020-05-10T12:16:13Z</time>
      </trkpt>
      <trkpt lat="48.79556" lon="7.37784">
        <ele>377</ele>
        <time>2020-05-10T12:16:14Z</time>
      </trkpt>
      <trkpt lat="48.7956" lon="7.37791">
        <ele>375.8</ele>
        <time>2020-05-10T12:16:16Z</time>
      </trkpt>
      <trkpt lat="48.79562" lon="7.37792">
        <ele>375.5</ele>
        <time>2020-05-10T12:16:17Z</time>
      </trkpt>
      <trkpt lat="48.79564" lon="7.37798">
        <ele>374.5</ele>
        <time>2020-05-10T12:16:19Z</time>
      </trkpt>
      <trkpt lat="48.79569" lon="7.37803">
        <ele>373.2</ele>
        <time>2020-05-10T12:16:21Z</time>
      </trkpt>
      <trkpt lat="48.79576" lon="7.3781">
        <ele>371.4</ele>
        <time>2020-05-10T12:16:23Z</time>
      </trkpt>
      <trkpt lat="48.79581" lon="7.3782">
        <ele>369.7</ele>
        <time>2020-05-10T12:16:25Z</time>
      </trkpt>
      <trkpt lat="48.79586" lon="7.3783">
        <ele>368.3</ele>
        <time>2020-05-10T12:16:27Z</time>
      </trkpt>
      <trkpt lat="48.79589" lon="7.37834">
        <ele>367.6</ele>
        <time>2020-05-10T12:16:28Z</time>
      </trkpt>
      <trkpt lat="48.79597" lon="7.3784">
        <ele>366.2</ele>
        <time>2020-05-10T12:16:30Z</time>
      </trkpt>
      <trkpt lat="48.79603" lon="7.37849">
        <ele>364.7</ele>
        <time>2020-05-10T12:16:32Z</time>
      </trkpt>
      <trkpt lat="48.79608" lon="7.37851">
        <ele>364</ele>
        <time>2020-05-10T12:16:34Z</time>
      </trkpt>
      <trkpt lat="48.7961" lon="7.37853">
        <ele>363.5</ele>
        <time>2020-05-10T12:16:35Z</time>
      </trkpt>
      <trkpt lat="48.79611" lon="7.37854">
        <ele>363.3</ele>
        <time>2020-05-10T12:16:36Z</time>
      </trkpt>
      <trkpt lat="48.79612" lon="7.37856">
        <ele>363</ele>
        <time>2020-05-10T12:16:37Z</time>
      </trkpt>
      <trkpt lat="48.79616" lon="7.37859">
        <ele>362.2</ele>
        <time>2020-05-10T12:16:39Z</time>
      </trkpt>
      <trkpt lat="48.79619" lon="7.37866">
        <ele>361.1</ele>
        <time>2020-05-10T12:16:41Z</time>
      </trkpt>
      <trkpt lat="48.79625" lon="7.37871">
        <ele>359.6</ele>
        <time>2020-05-10T12:16:43Z</time>
      </trkpt>
      <trkpt lat="48.79628" lon="7.37874">
        <ele>358.8</ele>
        <time>2020-05-10T12:16:44Z</time>
      </trkpt>
      <trkpt lat="48.79629" lon="7.37875">
        <ele>358.5</ele>
        <time>2020-05-10T12:16:45Z</time>
      </trkpt>
      <trkpt lat="48.79634" lon="7.37881">
        <ele>357</ele>
        <time>2020-05-10T12:16:47Z</time>
      </trkpt>
      <trkpt lat="48.79639" lon="7.37885">
        <ele>355.6</ele>
        <time>2020-05-10T12:16:49Z</time>
      </trkpt>
      <trkpt lat="48.79642" lon="7.37888">
        <ele>354.8</ele>
        <time>2020-05-10T12:16:50Z</time>
      </trkpt>
      <trkpt lat="48.79646" lon="7.37892">
        <ele>353.8</ele>
        <time>2020-05-10T12:16:52Z</time>
      </trkpt>
      <trkpt lat="48.79648" lon="7.37895">
        <ele>353.1</ele>
        <time>2020-05-10T12:16:53Z</time>
      </trkpt>
      <trkpt lat="48.79653" lon="7.37903">
        <ele>351.8</ele>
        <time>2020-05-10T12:16:55Z</time>
      </trkpt>
      <trkpt lat="48.79655" lon="7.37912">
        <ele>350.6</ele>
        <time>2020-05-10T12:16:57Z</time>
      </trkpt>
      <trkpt lat="48.79656" lon="7.37917">
        <ele>349.9</ele>
        <time>2020-05-10T12:16:58Z</time>
      </trkpt>
      <trkpt lat="48.79656" lon="7.37918">
        <ele>349.7</ele>
        <time>2020-05-10T12:16:59Z</time>
      </trkpt>
      <trkpt lat="48.79657" lon="7.37925">
        <ele>348.9</ele>
        <time>2020-05-10T12:17:01Z</time>
      </trkpt>
      <trkpt lat="48.79659" lon="7.37928">
        <ele>348.4</ele>
        <time>2020-05-10T12:17:02Z</time>
      </trkpt>
      <trkpt lat="48.7966" lon="7.37931">
        <ele>347.9</ele>
        <time>2020-05-10T12:17:03Z</time>
      </trkpt>
      <trkpt lat="48.79662" lon="7.37935">
        <ele>347.3</ele>
        <time>2020-05-10T12:17:05Z</time>
      </trkpt>
      <trkpt lat="48.79665" lon="7.37943">
        <ele>346.3</ele>
        <time>2020-05-10T12:17:07Z</time>
      </trkpt>
      <trkpt lat="48.79667" lon="7.37948">
        <ele>345.6</ele>
        <time>2020-05-10T12:17:08Z</time>
      </trkpt>
      <trkpt lat="48.7967" lon="7.37952">
        <ele>344.9</ele>
        <time>2020-05-10T12:17:09Z</time>
      </trkpt>
      <trkpt lat="48.79673" lon="7.37957">
        <ele>344.1</ele>
        <time>2020-05-10T12:17:11Z</time>
      </trkpt>
      <trkpt lat="48.79677" lon="7.37961">
        <ele>343.4</ele>
        <time>2020-05-10T12:17:12Z</time>
      </trkpt>
      <trkpt lat="48.79681" lon="7.37962">
        <ele>342.7</ele>
        <time>2020-05-10T12:17:14Z</time>
      </trkpt>
      <trkpt lat="48.79683" lon="7.37964">
        <ele>342.3</ele>
        <time>2020-05-10T12:17:15Z</time>
      </trkpt>
      <trkpt lat="48.79687" lon="7.37966">
        <ele>341.7</ele>
        <time>2020-05-10T12:17:17Z</time>
      </trkpt>
      <trkpt lat="48.7969" lon="7.37967">
        <ele>341.1</ele>
        <time>2020-05-10T12:17:19Z</time>
      </trkpt>
      <trkpt lat="48.79693" lon="7.37967">
        <ele>340.7</ele>
        <time>2020-05-10T12:17:20Z</time>
      </trkpt>
      <trkpt lat="48.79698" lon="7.37971">
        <ele>339.6</ele>
        <time>2020-05-10T12:17:22Z</time>
      </trkpt>
      <trkpt lat="48.797" lon="7.37975">
        <ele>338.9</ele>
        <time>2020-05-10T12:17:23Z</time>
      </trkpt>
      <trkpt lat="48.79703" lon="7.3798">
        <ele>338.1</ele>
        <time>2020-05-10T12:17:24Z</time>
      </trkpt>
      <trkpt lat="48.79705" lon="7.37985">
        <ele>337.4</ele>
        <time>2020-05-10T12:17:25Z</time>
      </trkpt>
      <trkpt lat="48.79708" lon="7.37993">
        <ele>336.3</ele>
        <time>2020-05-10T12:17:26Z</time>
      </trkpt>
      <trkpt lat="48.79713" lon="7.38001">
        <ele>335.4</ele>
        <time>2020-05-10T12:17:27Z</time>
      </trkpt>
      <trkpt lat="48.79716" lon="7.38009">
        <ele>334.3</ele>
        <time>2020-05-10T12:17:28Z</time>
      </trkpt>
      <trkpt lat="48.79724" lon="7.38028">
        <ele>331.4</ele>
        <time>2020-05-10T12:17:30Z</time>
      </trkpt>
      <trkpt lat="48.7973" lon="7.38038">
        <ele>329.8</ele>
        <time>2020-05-10T12:17:31Z</time>
      </trkpt>
      <trkpt lat="48.79736" lon="7.38046">
        <ele>328.6</ele>
        <time>2020-05-10T12:17:32Z</time>
      </trkpt>
      <trkpt lat="48.79746" lon="7.38059">
        <ele>326.9</ele>
        <time>2020-05-10T12:17:34Z</time>
      </trkpt>
      <trkpt lat="48.79752" lon="7.3807">
        <ele>326.1</ele>
        <time>2020-05-10T12:17:36Z</time>
      </trkpt>
      <trkpt lat="48.79753" lon="7.38075">
        <ele>325.7</ele>
        <time>2020-05-10T12:17:37Z</time>
      </trkpt>
      <trkpt lat="48.79755" lon="7.3808">
        <ele>325.3</ele>
        <time>2020-05-10T12:17:38Z</time>
      </trkpt>
      <trkpt lat="48.79759" lon="7.38087">
        <ele>324.6</ele>
        <time>2020-05-10T12:17:40Z</time>
      </trkpt>
      <trkpt lat="48.79763" lon="7.38093">
        <ele>324</ele>
        <time>2020-05-10T12:17:42Z</time>
      </trkpt>
      <trkpt lat="48.79765" lon="7.38097">
        <ele>323.5</ele>
        <time>2020-05-10T12:17:43Z</time>
      </trkpt>
      <trkpt lat="48.79769" lon="7.38108">
        <ele>322.2</ele>
        <time>2020-05-10T12:17:45Z</time>
      </trkpt>
      <trkpt lat="48.79772" lon="7.38117">
        <ele>321.2</ele>
        <time>2020-05-10T12:17:47Z</time>
      </trkpt>
      <trkpt lat="48.79773" lon="7.38121">
        <ele>320.8</ele>
        <time>2020-05-10T12:17:48Z</time>
      </trkpt>
      <trkpt lat="48.79776" lon="7.38128">
        <ele>319.9</ele>
        <time>2020-05-10T12:17:50Z</time>
      </trkpt>
      <trkpt lat="48.79778" lon="7.38133">
        <ele>319.3</ele>
        <time>2020-05-10T12:17:51Z</time>
      </trkpt>
      <trkpt lat="48.79782" lon="7.38137">
        <ele>318.6</ele>
        <time>2020-05-10T12:17:53Z</time>
      </trkpt>
      <trkpt lat="48.79783" lon="7.38141">
        <ele>318.3</ele>
        <time>2020-05-10T12:17:54Z</time>
      </trkpt>
      <trkpt lat="48.79784" lon="7.38142">
        <ele>318.2</ele>
        <time>2020-05-10T12:17:55Z</time>
      </trkpt>
      <trkpt lat="48.79786" lon="7.38148">
        <ele>317.8</ele>
        <time>2020-05-10T12:17:57Z</time>
      </trkpt>
      <trkpt lat="48.79786" lon="7.38151">
        <ele>317.7</ele>
        <time>2020-05-10T12:17:58Z</time>
      </trkpt>
      <trkpt lat="48.79787" lon="7.38153">
        <ele>317.5</ele>
        <time>2020-05-10T12:17:59Z</time>
      </trkpt>
      <trkpt lat="48.79789" lon="7.38157">
        <ele>317.2</ele>
        <time>2020-05-10T12:18:01Z</time>
      </trkpt>
      <trkpt lat="48.79791" lon="7.38161">
        <ele>316.8</ele>
        <time>2020-05-10T12:18:03Z</time>
      </trkpt>
      <trkpt lat="48.79794" lon="7.38165">
        <ele>316.3</ele>
        <time>2020-05-10T12:18:05Z</time>
      </trkpt>
      <trkpt lat="48.79797" lon="7.38169">
        <ele>315.8</ele>
        <time>2020-05-10T12:18:07Z</time>
      </trkpt>
      <trkpt lat="48.79798" lon="7.3817">
        <ele>315.6</ele>
        <time>2020-05-10T12:18:08Z</time>
      </trkpt>
      <trkpt lat="48.79802" lon="7.38174">
        <ele>314.9</ele>
        <time>2020-05-10T12:18:10Z</time>
      </trkpt>
      <trkpt lat="48.79803" lon="7.38175">
        <ele>314.8</ele>
        <time>2020-05-10T12:18:11Z</time>
      </trkpt>
      <trkpt lat="48.79804" lon="7.38175">
        <ele>314.6</ele>
        <time>2020-05-10T12:18:12Z</time>
      </trkpt>
      <trkpt lat="48.79806" lon="7.38177">
        <ele>314.3</ele>
        <time>2020-05-10T12:18:14Z</time>
      </trkpt>
      <trkpt lat="48.79806" lon="7.38177">
        <ele>314.3</ele>
        <time>2020-05-10T12:18:15Z</time>
      </trkpt>
      <trkpt lat="48.79806" lon="7.38178">
        <ele>314.2</ele>
        <time>2020-05-10T12:18:17Z</time>
      </trkpt>
      <trkpt lat="48.79806" lon="7.38178">
        <ele>314.1</ele>
        <time>2020-05-10T12:18:18Z</time>
      </trkpt>
      <trkpt lat="48.79806" lon="7.38179">
        <ele>314.1</ele>
        <time>2020-05-10T12:18:20Z</time>
      </trkpt>
      <trkpt lat="48.79806" lon="7.38179">
        <ele>314.1</ele>
        <time>2020-05-10T12:18:21Z</time>
      </trkpt>
      <trkpt lat="48.79806" lon="7.38179">
        <ele>314</ele>
        <time>2020-05-10T12:18:22Z</time>
      </trkpt>
      <trkpt lat="48.79806" lon="7.38178">
        <ele>314</ele>
        <time>2020-05-10T12:18:24Z</time>
      </trkpt>
      <trkpt lat="48.79806" lon="7.38178">
        <ele>313.9</ele>
        <time>2020-05-10T12:18:25Z</time>
      </trkpt>
      <trkpt lat="48.79804" lon="7.38176">
        <ele>313.6</ele>
        <time>2020-05-10T12:18:27Z</time>
      </trkpt>
      <trkpt lat="48.79803" lon="7.38176">
        <ele>313.4</ele>
        <time>2020-05-10T12:18:28Z</time>
      </trkpt>
      <trkpt lat="48.79802" lon="7.38176">
        <ele>313.3</ele>
        <time>2020-05-10T12:18:30Z</time>
      </trkpt>
      <trkpt lat="48.79802" lon="7.38176">
        <ele>313.2</ele>
        <time>2020-05-10T12:18:31Z</time>
      </trkpt>
      <trkpt lat="48.79802" lon="7.38176">
        <ele>313.2</ele>
        <time>2020-05-10T12:18:32Z</time>
      </trkpt>
      <trkpt lat="48.79802" lon="7.38177">
        <ele>313.2</ele>
        <time>2020-05-10T12:18:33Z</time>
      </trkpt>
      <trkpt lat="48.79802" lon="7.38179">
        <ele>312.9</ele>
        <time>2020-05-10T12:18:34Z</time>
      </trkpt>
      <trkpt lat="48.79801" lon="7.38185">
        <ele>312.3</ele>
        <time>2020-05-10T12:18:36Z</time>
      </trkpt>
      <trkpt lat="48.79802" lon="7.38191">
        <ele>311.8</ele>
        <time>2020-05-10T12:18:37Z</time>
      </trkpt>
      <trkpt lat="48.79802" lon="7.38192">
        <ele>311.6</ele>
        <time>2020-05-10T12:18:38Z</time>
      </trkpt>
      <trkpt lat="48.79806" lon="7.38198">
        <ele>310.9</ele>
        <time>2020-05-10T12:18:40Z</time>
      </trkpt>
      <trkpt lat="48.79808" lon="7.38202">
        <ele>310.3</ele>
        <time>2020-05-10T12:18:42Z</time>
      </trkpt>
      <trkpt lat="48.79809" lon="7.38204">
        <ele>310</ele>
        <time>2020-05-10T12:18:43Z</time>
      </trkpt>
      <trkpt lat="48.7981" lon="7.38205">
        <ele>309.9</ele>
        <time>2020-05-10T12:18:44Z</time>
      </trkpt>
      <trkpt lat="48.79813" lon="7.38209">
        <ele>309.3</ele>
        <time>2020-05-10T12:18:46Z</time>
      </trkpt>
      <trkpt lat="48.79815" lon="7.38211">
        <ele>308.9</ele>
        <time>2020-05-10T12:18:47Z</time>
      </trkpt>
      <trkpt lat="48.79819" lon="7.38219">
        <ele>307.9</ele>
        <time>2020-05-10T12:18:49Z</time>
      </trkpt>
      <trkpt lat="48.79822" lon="7.38224">
        <ele>307.1</ele>
        <time>2020-05-10T12:18:51Z</time>
      </trkpt>
      <trkpt lat="48.79823" lon="7.38226">
        <ele>306.8</ele>
        <time>2020-05-10T12:18:52Z</time>
      </trkpt>
      <trkpt lat="48.79826" lon="7.38232">
        <ele>306.1</ele>
        <time>2020-05-10T12:18:54Z</time>
      </trkpt>
      <trkpt lat="48.79827" lon="7.38239">
        <ele>305.2</ele>
        <time>2020-05-10T12:18:56Z</time>
      </trkpt>
      <trkpt lat="48.79827" lon="7.38244">
        <ele>304.8</ele>
        <time>2020-05-10T12:18:57Z</time>
      </trkpt>
      <trkpt lat="48.79828" lon="7.38249">
        <ele>304.1</ele>
        <time>2020-05-10T12:18:58Z</time>
      </trkpt>
      <trkpt lat="48.79829" lon="7.38251">
        <ele>303.9</ele>
        <time>2020-05-10T12:18:59Z</time>
      </trkpt>
      <trkpt lat="48.7983" lon="7.38253">
        <ele>303.6</ele>
        <time>2020-05-10T12:19:00Z</time>
      </trkpt>
      <trkpt lat="48.79833" lon="7.38257">
        <ele>303</ele>
        <time>2020-05-10T12:19:02Z</time>
      </trkpt>
      <trkpt lat="48.79835" lon="7.3826">
        <ele>302.7</ele>
        <time>2020-05-10T12:19:03Z</time>
      </trkpt>
      <trkpt lat="48.79836" lon="7.38262">
        <ele>302.4</ele>
        <time>2020-05-10T12:19:05Z</time>
      </trkpt>
      <trkpt lat="48.79836" lon="7.38262">
        <ele>302.4</ele>
        <time>2020-05-10T12:19:06Z</time>
      </trkpt>
      <trkpt lat="48.79837" lon="7.38263">
        <ele>302.2</ele>
        <time>2020-05-10T12:19:08Z</time>
      </trkpt>
      <trkpt lat="48.79838" lon="7.38263">
        <ele>302.1</ele>
        <time>2020-05-10T12:19:10Z</time>
      </trkpt>
      <trkpt lat="48.79838" lon="7.38263">
        <ele>302.1</ele>
        <time>2020-05-10T12:19:11Z</time>
      </trkpt>
      <trkpt lat="48.79839" lon="7.38263">
        <ele>302</ele>
        <time>2020-05-10T12:19:13Z</time>
      </trkpt>
      <trkpt lat="48.79839" lon="7.38264">
        <ele>301.9</ele>
        <time>2020-05-10T12:19:14Z</time>
      </trkpt>
      <trkpt lat="48.79839" lon="7.38264">
        <ele>301.9</ele>
        <time>2020-05-10T12:19:15Z</time>
      </trkpt>
      <trkpt lat="48.7984" lon="7.38266">
        <ele>301.7</ele>
        <time>2020-05-10T12:19:17Z</time>
      </trkpt>
      <trkpt lat="48.79841" lon="7.38268">
        <ele>301.6</ele>
        <time>2020-05-10T12:19:19Z</time>
      </trkpt>
      <trkpt lat="48.79841" lon="7.38268">
        <ele>301.6</ele>
        <time>2020-05-10T12:19:20Z</time>
      </trkpt>
      <trkpt lat="48.79841" lon="7.38268">
        <ele>301.5</ele>
        <time>2020-05-10T12:19:22Z</time>
      </trkpt>
      <trkpt lat="48.79842" lon="7.38268">
        <ele>301.4</ele>
        <time>2020-05-10T12:19:23Z</time>
      </trkpt>
      <trkpt lat="48.79844" lon="7.38268">
        <ele>300.9</ele>
        <time>2020-05-10T12:19:25Z</time>
      </trkpt>
      <trkpt lat="48.79845" lon="7.38268">
        <ele>300.8</ele>
        <time>2020-05-10T12:19:26Z</time>
      </trkpt>
      <trkpt lat="48.79846" lon="7.38268">
        <ele>300.7</ele>
        <time>2020-05-10T12:19:27Z</time>
      </trkpt>
      <trkpt lat="48.79847" lon="7.38268">
        <ele>300.7</ele>
        <time>2020-05-10T12:19:28Z</time>
      </trkpt>
      <trkpt lat="48.79847" lon="7.38268">
        <ele>300.6</ele>
        <time>2020-05-10T12:19:29Z</time>
      </trkpt>
      <trkpt lat="48.79848" lon="7.38268">
        <ele>300.6</ele>
        <time>2020-05-10T12:19:30Z</time>
      </trkpt>
      <trkpt lat="48.79849" lon="7.38268">
        <ele>300.5</ele>
        <time>2020-05-10T12:19:31Z</time>
      </trkpt>
      <trkpt lat="48.7985" lon="7.38268">
        <ele>300.5</ele>
        <time>2020-05-10T12:19:33Z</time>
      </trkpt>
      <trkpt lat="48.79851" lon="7.38269">
        <ele>300.4</ele>
        <time>2020-05-10T12:19:35Z</time>
      </trkpt>
      <trkpt lat="48.79851" lon="7.38269">
        <ele>300.4</ele>
        <time>2020-05-10T12:19:36Z</time>
      </trkpt>
      <trkpt lat="48.79851" lon="7.3827">
        <ele>300.4</ele>
        <time>2020-05-10T12:19:37Z</time>
      </trkpt>
      <trkpt lat="48.79852" lon="7.38271">
        <ele>300.3</ele>
        <time>2020-05-10T12:19:39Z</time>
      </trkpt>
      <trkpt lat="48.79852" lon="7.38271">
        <ele>300.3</ele>
        <time>2020-05-10T12:19:41Z</time>
      </trkpt>
      <trkpt lat="48.79853" lon="7.3827">
        <ele>300.3</ele>
        <time>2020-05-10T12:19:43Z</time>
      </trkpt>
      <trkpt lat="48.79854" lon="7.38271">
        <ele>298.7</ele>
        <time>2020-05-10T12:19:45Z</time>
      </trkpt>
      <trkpt lat="48.79858" lon="7.38275">
        <ele>298</ele>
        <time>2020-05-10T12:19:47Z</time>
      </trkpt>
      <trkpt lat="48.7986" lon="7.38278">
        <ele>297.6</ele>
        <time>2020-05-10T12:19:48Z</time>
      </trkpt>
      <trkpt lat="48.79862" lon="7.38283">
        <ele>297.1</ele>
        <time>2020-05-10T12:19:50Z</time>
      </trkpt>
      <trkpt lat="48.79864" lon="7.38286">
        <ele>296.7</ele>
        <time>2020-05-10T12:19:51Z</time>
      </trkpt>
      <trkpt lat="48.79866" lon="7.3829">
        <ele>296.3</ele>
        <time>2020-05-10T12:19:53Z</time>
      </trkpt>
      <trkpt lat="48.79866" lon="7.38291">
        <ele>296.2</ele>
        <time>2020-05-10T12:19:54Z</time>
      </trkpt>
      <trkpt lat="48.79871" lon="7.38291">
        <ele>295.6</ele>
        <time>2020-05-10T12:19:56Z</time>
      </trkpt>
      <trkpt lat="48.79872" lon="7.38291">
        <ele>295.5</ele>
        <time>2020-05-10T12:19:57Z</time>
      </trkpt>
      <trkpt lat="48.79873" lon="7.3829">
        <ele>295.5</ele>
        <time>2020-05-10T12:19:58Z</time>
      </trkpt>
      <trkpt lat="48.79878" lon="7.38285">
        <ele>295</ele>
        <time>2020-05-10T12:20:00Z</time>
      </trkpt>
      <trkpt lat="48.79881" lon="7.38285">
        <ele>294.7</ele>
        <time>2020-05-10T12:20:01Z</time>
      </trkpt>
      <trkpt lat="48.79884" lon="7.38289">
        <ele>294.2</ele>
        <time>2020-05-10T12:20:03Z</time>
      </trkpt>
      <trkpt lat="48.79886" lon="7.38291">
        <ele>293.9</ele>
        <time>2020-05-10T12:20:04Z</time>
      </trkpt>
      <trkpt lat="48.7989" lon="7.38293">
        <ele>293.5</ele>
        <time>2020-05-10T12:20:06Z</time>
      </trkpt>
      <trkpt lat="48.79893" lon="7.38294">
        <ele>293.1</ele>
        <time>2020-05-10T12:20:08Z</time>
      </trkpt>
      <trkpt lat="48.79896" lon="7.38295">
        <ele>292.8</ele>
        <time>2020-05-10T12:20:09Z</time>
      </trkpt>
      <trkpt lat="48.799" lon="7.38296">
        <ele>292</ele>
        <time>2020-05-10T12:20:11Z</time>
      </trkpt>
      <trkpt lat="48.79904" lon="7.38299">
        <ele>291.5</ele>
        <time>2020-05-10T12:20:13Z</time>
      </trkpt>
      <trkpt lat="48.79908" lon="7.38301">
        <ele>290.9</ele>
        <time>2020-05-10T12:20:15Z</time>
      </trkpt>
      <trkpt lat="48.79913" lon="7.38305">
        <ele>289.9</ele>
        <time>2020-05-10T12:20:17Z</time>
      </trkpt>
      <trkpt lat="48.79915" lon="7.38306">
        <ele>289.6</ele>
        <time>2020-05-10T12:20:18Z</time>
      </trkpt>
      <trkpt lat="48.79918" lon="7.38308">
        <ele>289.1</ele>
        <time>2020-05-10T12:20:20Z</time>
      </trkpt>
      <trkpt lat="48.7992" lon="7.38309">
        <ele>288.9</ele>
        <time>2020-05-10T12:20:21Z</time>
      </trkpt>
      <trkpt lat="48.79922" lon="7.38312">
        <ele>288.5</ele>
        <time>2020-05-10T12:20:23Z</time>
      </trkpt>
      <trkpt lat="48.79923" lon="7.38316">
        <ele>288.1</ele>
        <time>2020-05-10T12:20:24Z</time>
      </trkpt>
      <trkpt lat="48.79924" lon="7.38318">
        <ele>287.9</ele>
        <time>2020-05-10T12:20:25Z</time>
      </trkpt>
      <trkpt lat="48.79926" lon="7.38322">
        <ele>287.4</ele>
        <time>2020-05-10T12:20:26Z</time>
      </trkpt>
      <trkpt lat="48.79927" lon="7.38328">
        <ele>287.4</ele>
        <time>2020-05-10T12:20:28Z</time>
      </trkpt>
      <trkpt lat="48.79926" lon="7.38331">
        <ele>287.5</ele>
        <time>2020-05-10T12:20:29Z</time>
      </trkpt>
      <trkpt lat="48.79926" lon="7.38332">
        <ele>287.5</ele>
        <time>2020-05-10T12:20:30Z</time>
      </trkpt>
      <trkpt lat="48.79925" lon="7.38334">
        <ele>287.5</ele>
        <time>2020-05-10T12:20:31Z</time>
      </trkpt>
      <trkpt lat="48.79926" lon="7.3834">
        <ele>287.6</ele>
        <time>2020-05-10T12:20:32Z</time>
      </trkpt>
      <trkpt lat="48.79926" lon="7.38342">
        <ele>287.6</ele>
        <time>2020-05-10T12:20:33Z</time>
      </trkpt>
      <trkpt lat="48.79925" lon="7.38347">
        <ele>287.7</ele>
        <time>2020-05-10T12:20:35Z</time>
      </trkpt>
      <trkpt lat="48.79925" lon="7.3835">
        <ele>287.7</ele>
        <time>2020-05-10T12:20:36Z</time>
      </trkpt>
      <trkpt lat="48.79924" lon="7.38354">
        <ele>287.8</ele>
        <time>2020-05-10T12:20:38Z</time>
      </trkpt>
      <trkpt lat="48.79923" lon="7.38361">
        <ele>287.9</ele>
        <time>2020-05-10T12:20:40Z</time>
      </trkpt>
      <trkpt lat="48.79922" lon="7.38368">
        <ele>288</ele>
        <time>2020-05-10T12:20:42Z</time>
      </trkpt>
      <trkpt lat="48.79921" lon="7.38375">
        <ele>288</ele>
        <time>2020-05-10T12:20:44Z</time>
      </trkpt>
      <trkpt lat="48.79919" lon="7.38382">
        <ele>288.1</ele>
        <time>2020-05-10T12:20:46Z</time>
      </trkpt>
      <trkpt lat="48.79916" lon="7.38389">
        <ele>288.1</ele>
        <time>2020-05-10T12:20:48Z</time>
      </trkpt>
      <trkpt lat="48.79915" lon="7.38392">
        <ele>288.1</ele>
        <time>2020-05-10T12:20:49Z</time>
      </trkpt>
      <trkpt lat="48.79911" lon="7.38397">
        <ele>288.4</ele>
        <time>2020-05-10T12:20:51Z</time>
      </trkpt>
      <trkpt lat="48.79907" lon="7.38398">
        <ele>288.7</ele>
        <time>2020-05-10T12:20:52Z</time>
      </trkpt>
      <trkpt lat="48.79904" lon="7.38397">
        <ele>288.9</ele>
        <time>2020-05-10T12:20:53Z</time>
      </trkpt>
      <trkpt lat="48.79901" lon="7.38396">
        <ele>289.2</ele>
        <time>2020-05-10T12:20:55Z</time>
      </trkpt>
      <trkpt lat="48.79898" lon="7.38394">
        <ele>289.5</ele>
        <time>2020-05-10T12:20:56Z</time>
      </trkpt>
      <trkpt lat="48.79898" lon="7.38393">
        <ele>289.5</ele>
        <time>2020-05-10T12:20:58Z</time>
      </trkpt>
      <trkpt lat="48.79898" lon="7.38393">
        <ele>289.5</ele>
        <time>2020-05-10T12:21:00Z</time>
      </trkpt>
      <trkpt lat="48.79898" lon="7.38393">
        <ele>289.6</ele>
        <time>2020-05-10T12:21:02Z</time>
      </trkpt>
      <trkpt lat="48.79897" lon="7.38393">
        <ele>289.6</ele>
        <time>2020-05-10T12:21:04Z</time>
      </trkpt>
      <trkpt lat="48.79897" lon="7.38393">
        <ele>289.6</ele>
        <time>2020-05-10T12:21:05Z</time>
      </trkpt>
      <trkpt lat="48.79897" lon="7.38392">
        <ele>289.6</ele>
        <time>2020-05-10T12:21:06Z</time>
      </trkpt>
      <trkpt lat="48.79897" lon="7.38392">
        <ele>289.7</ele>
        <time>2020-05-10T12:21:08Z</time>
      </trkpt>
      <trkpt lat="48.79896" lon="7.38392">
        <ele>289.7</ele>
        <time>2020-05-10T12:21:09Z</time>
      </trkpt>
      <trkpt lat="48.79896" lon="7.38392">
        <ele>289.7</ele>
        <time>2020-05-10T12:21:10Z</time>
      </trkpt>
      <trkpt lat="48.79896" lon="7.38392">
        <ele>289.8</ele>
        <time>2020-05-10T12:21:11Z</time>
      </trkpt>
      <trkpt lat="48.79895" lon="7.38391">
        <ele>289.8</ele>
        <time>2020-05-10T12:21:15Z</time>
      </trkpt>
      <trkpt lat="48.79895" lon="7.38391">
        <ele>289.8</ele>
        <time>2020-05-10T12:21:29Z</time>
      </trkpt>
      <trkpt lat="48.79895" lon="7.38391">
        <ele>289.9</ele>
        <time>2020-05-10T12:21:31Z</time>
      </trkpt>
      <trkpt lat="48.79895" lon="7.38391">
        <ele>289.9</ele>
        <time>2020-05-10T12:21:32Z</time>
      </trkpt>
      <trkpt lat="48.79894" lon="7.38389">
        <ele>290</ele>
        <time>2020-05-10T12:21:33Z</time>
      </trkpt>
      <trkpt lat="48.79892" lon="7.38387">
        <ele>290.3</ele>
        <time>2020-05-10T12:21:35Z</time>
      </trkpt>
      <trkpt lat="48.79888" lon="7.38384">
        <ele>290.7</ele>
        <time>2020-05-10T12:21:37Z</time>
      </trkpt>
      <trkpt lat="48.79886" lon="7.38381">
        <ele>291</ele>
        <time>2020-05-10T12:21:39Z</time>
      </trkpt>
      <trkpt lat="48.79886" lon="7.3838">
        <ele>291</ele>
        <time>2020-05-10T12:21:40Z</time>
      </trkpt>
      <trkpt lat="48.79884" lon="7.38376">
        <ele>291.4</ele>
        <time>2020-05-10T12:21:42Z</time>
      </trkpt>
      <trkpt lat="48.79881" lon="7.3837">
        <ele>291.8</ele>
        <time>2020-05-10T12:21:44Z</time>
      </trkpt>
      <trkpt lat="48.79879" lon="7.38366">
        <ele>292.2</ele>
        <time>2020-05-10T12:21:45Z</time>
      </trkpt>
      <trkpt lat="48.79878" lon="7.38365">
        <ele>292.3</ele>
        <time>2020-05-10T12:21:46Z</time>
      </trkpt>
      <trkpt lat="48.79876" lon="7.38363">
        <ele>292.4</ele>
        <time>2020-05-10T12:21:47Z</time>
      </trkpt>
      <trkpt lat="48.79872" lon="7.38358">
        <ele>293</ele>
        <time>2020-05-10T12:21:49Z</time>
      </trkpt>
      <trkpt lat="48.7987" lon="7.38356">
        <ele>293.3</ele>
        <time>2020-05-10T12:21:50Z</time>
      </trkpt>
      <trkpt lat="48.79868" lon="7.38354">
        <ele>293.4</ele>
        <time>2020-05-10T12:21:51Z</time>
      </trkpt>
      <trkpt lat="48.79863" lon="7.38348">
        <ele>294</ele>
        <time>2020-05-10T12:21:53Z</time>
      </trkpt>
      <trkpt lat="48.79861" lon="7.38346">
        <ele>294.3</ele>
        <time>2020-05-10T12:21:54Z</time>
      </trkpt>
      <trkpt lat="48.79859" lon="7.38343">
        <ele>294.6</ele>
        <time>2020-05-10T12:21:55Z</time>
      </trkpt>
      <trkpt lat="48.79854" lon="7.38338">
        <ele>295.2</ele>
        <time>2020-05-10T12:21:57Z</time>
      </trkpt>
      <trkpt lat="48.79852" lon="7.38337">
        <ele>295.4</ele>
        <time>2020-05-10T12:21:58Z</time>
      </trkpt>
      <trkpt lat="48.79849" lon="7.38333">
        <ele>295.8</ele>
        <time>2020-05-10T12:22:00Z</time>
      </trkpt>
      <trkpt lat="48.79845" lon="7.38329">
        <ele>296.3</ele>
        <time>2020-05-10T12:22:02Z</time>
      </trkpt>
      <trkpt lat="48.79842" lon="7.38325">
        <ele>296.7</ele>
        <time>2020-05-10T12:22:03Z</time>
      </trkpt>
      <trkpt lat="48.79841" lon="7.38324">
        <ele>296.8</ele>
        <time>2020-05-10T12:22:04Z</time>
      </trkpt>
      <trkpt lat="48.79837" lon="7.38318">
        <ele>297.3</ele>
        <time>2020-05-10T12:22:06Z</time>
      </trkpt>
      <trkpt lat="48.79833" lon="7.38311">
        <ele>298</ele>
        <time>2020-05-10T12:22:08Z</time>
      </trkpt>
      <trkpt lat="48.7983" lon="7.38307">
        <ele>298.3</ele>
        <time>2020-05-10T12:22:09Z</time>
      </trkpt>
      <trkpt lat="48.79829" lon="7.38305">
        <ele>298.5</ele>
        <time>2020-05-10T12:22:10Z</time>
      </trkpt>
      <trkpt lat="48.79825" lon="7.383">
        <ele>299</ele>
        <time>2020-05-10T12:22:12Z</time>
      </trkpt>
      <trkpt lat="48.79822" lon="7.38297">
        <ele>299.3</ele>
        <time>2020-05-10T12:22:13Z</time>
      </trkpt>
      <trkpt lat="48.79819" lon="7.38291">
        <ele>299.8</ele>
        <time>2020-05-10T12:22:15Z</time>
      </trkpt>
      <trkpt lat="48.79817" lon="7.38287">
        <ele>300.1</ele>
        <time>2020-05-10T12:22:16Z</time>
      </trkpt>
      <trkpt lat="48.79816" lon="7.38284">
        <ele>300.3</ele>
        <time>2020-05-10T12:22:17Z</time>
      </trkpt>
      <trkpt lat="48.79812" lon="7.38277">
        <ele>300.9</ele>
        <time>2020-05-10T12:22:19Z</time>
      </trkpt>
      <trkpt lat="48.79809" lon="7.38274">
        <ele>301.3</ele>
        <time>2020-05-10T12:22:20Z</time>
      </trkpt>
      <trkpt lat="48.79808" lon="7.38272">
        <ele>301.4</ele>
        <time>2020-05-10T12:22:21Z</time>
      </trkpt>
      <trkpt lat="48.79805" lon="7.38269">
        <ele>301.7</ele>
        <time>2020-05-10T12:22:22Z</time>
      </trkpt>
      <trkpt lat="48.79803" lon="7.38265">
        <ele>302.1</ele>
        <time>2020-05-10T12:22:23Z</time>
      </trkpt>
      <trkpt lat="48.79802" lon="7.38264">
        <ele>302.2</ele>
        <time>2020-05-10T12:22:24Z</time>
      </trkpt>
      <trkpt lat="48.79798" lon="7.38259">
        <ele>302.7</ele>
        <time>2020-05-10T12:22:26Z</time>
      </trkpt>
      <trkpt lat="48.79794" lon="7.38255">
        <ele>303.2</ele>
        <time>2020-05-10T12:22:28Z</time>
      </trkpt>
      <trkpt lat="48.79791" lon="7.38251">
        <ele>303.6</ele>
        <time>2020-05-10T12:22:30Z</time>
      </trkpt>
      <trkpt lat="48.7979" lon="7.38249">
        <ele>303.8</ele>
        <time>2020-05-10T12:22:31Z</time>
      </trkpt>
      <trkpt lat="48.79787" lon="7.38245">
        <ele>304.1</ele>
        <time>2020-05-10T12:22:33Z</time>
      </trkpt>
      <trkpt lat="48.79786" lon="7.38242">
        <ele>304.4</ele>
        <time>2020-05-10T12:22:34Z</time>
      </trkpt>
      <trkpt lat="48.79782" lon="7.38235">
        <ele>304.9</ele>
        <time>2020-05-10T12:22:36Z</time>
      </trkpt>
      <trkpt lat="48.7978" lon="7.38232">
        <ele>305.2</ele>
        <time>2020-05-10T12:22:37Z</time>
      </trkpt>
      <trkpt lat="48.79777" lon="7.38225">
        <ele>305.8</ele>
        <time>2020-05-10T12:22:39Z</time>
      </trkpt>
      <trkpt lat="48.79775" lon="7.38221">
        <ele>306.1</ele>
        <time>2020-05-10T12:22:40Z</time>
      </trkpt>
      <trkpt lat="48.79771" lon="7.38215">
        <ele>306.6</ele>
        <time>2020-05-10T12:22:42Z</time>
      </trkpt>
      <trkpt lat="48.79769" lon="7.38212">
        <ele>306.9</ele>
        <time>2020-05-10T12:22:43Z</time>
      </trkpt>
      <trkpt lat="48.79766" lon="7.38209">
        <ele>307.2</ele>
        <time>2020-05-10T12:22:44Z</time>
      </trkpt>
      <trkpt lat="48.79762" lon="7.38204">
        <ele>307.6</ele>
        <time>2020-05-10T12:22:46Z</time>
      </trkpt>
      <trkpt lat="48.79761" lon="7.38201">
        <ele>307.8</ele>
        <time>2020-05-10T12:22:47Z</time>
      </trkpt>
      <trkpt lat="48.79756" lon="7.38195">
        <ele>308.3</ele>
        <time>2020-05-10T12:22:49Z</time>
      </trkpt>
      <trkpt lat="48.79754" lon="7.38193">
        <ele>308.6</ele>
        <time>2020-05-10T12:22:50Z</time>
      </trkpt>
      <trkpt lat="48.79752" lon="7.38191">
        <ele>308.8</ele>
        <time>2020-05-10T12:22:51Z</time>
      </trkpt>
      <trkpt lat="48.79748" lon="7.38188">
        <ele>309.1</ele>
        <time>2020-05-10T12:22:53Z</time>
      </trkpt>
      <trkpt lat="48.79744" lon="7.38185">
        <ele>309.5</ele>
        <time>2020-05-10T12:22:54Z</time>
      </trkpt>
      <trkpt lat="48.7974" lon="7.3818">
        <ele>309.9</ele>
        <time>2020-05-10T12:22:56Z</time>
      </trkpt>
      <trkpt lat="48.79737" lon="7.38177">
        <ele>310.2</ele>
        <time>2020-05-10T12:22:57Z</time>
      </trkpt>
      <trkpt lat="48.79736" lon="7.38176">
        <ele>310.3</ele>
        <time>2020-05-10T12:22:58Z</time>
      </trkpt>
      <trkpt lat="48.79734" lon="7.38174">
        <ele>310.4</ele>
        <time>2020-05-10T12:22:59Z</time>
      </trkpt>
      <trkpt lat="48.7973" lon="7.38168">
        <ele>310.8</ele>
        <time>2020-05-10T12:23:01Z</time>
      </trkpt>
      <trkpt lat="48.79726" lon="7.38162">
        <ele>311.2</ele>
        <time>2020-05-10T12:23:03Z</time>
      </trkpt>
      <trkpt lat="48.79724" lon="7.38159">
        <ele>311.4</ele>
        <time>2020-05-10T12:23:04Z</time>
      </trkpt>
      <trkpt lat="48.79722" lon="7.38154">
        <ele>311.6</ele>
        <time>2020-05-10T12:23:05Z</time>
      </trkpt>
      <trkpt lat="48.79721" lon="7.38152">
        <ele>311.7</ele>
        <time>2020-05-10T12:23:06Z</time>
      </trkpt>
      <trkpt lat="48.79719" lon="7.38149">
        <ele>311.8</ele>
        <time>2020-05-10T12:23:07Z</time>
      </trkpt>
      <trkpt lat="48.79714" lon="7.38143">
        <ele>312.1</ele>
        <time>2020-05-10T12:23:09Z</time>
      </trkpt>
      <trkpt lat="48.79712" lon="7.38141">
        <ele>312.3</ele>
        <time>2020-05-10T12:23:10Z</time>
      </trkpt>
      <trkpt lat="48.79708" lon="7.38137">
        <ele>312.5</ele>
        <time>2020-05-10T12:23:12Z</time>
      </trkpt>
      <trkpt lat="48.79706" lon="7.38133">
        <ele>312.6</ele>
        <time>2020-05-10T12:23:13Z</time>
      </trkpt>
      <trkpt lat="48.79704" lon="7.3813">
        <ele>312.8</ele>
        <time>2020-05-10T12:23:14Z</time>
      </trkpt>
      <trkpt lat="48.79699" lon="7.38124">
        <ele>313</ele>
        <time>2020-05-10T12:23:16Z</time>
      </trkpt>
      <trkpt lat="48.79695" lon="7.38116">
        <ele>313.3</ele>
        <time>2020-05-10T12:23:18Z</time>
      </trkpt>
      <trkpt lat="48.79692" lon="7.38112">
        <ele>313.4</ele>
        <time>2020-05-10T12:23:19Z</time>
      </trkpt>
      <trkpt lat="48.7969" lon="7.38109">
        <ele>313.5</ele>
        <time>2020-05-10T12:23:20Z</time>
      </trkpt>
      <trkpt lat="48.79686" lon="7.38105">
        <ele>313.7</ele>
        <time>2020-05-10T12:23:22Z</time>
      </trkpt>
      <trkpt lat="48.79681" lon="7.38099">
        <ele>314</ele>
        <time>2020-05-10T12:23:24Z</time>
      </trkpt>
      <trkpt lat="48.79676" lon="7.38094">
        <ele>314.2</ele>
        <time>2020-05-10T12:23:26Z</time>
      </trkpt>
      <trkpt lat="48.79674" lon="7.38091">
        <ele>314.3</ele>
        <time>2020-05-10T12:23:27Z</time>
      </trkpt>
      <trkpt lat="48.79671" lon="7.38088">
        <ele>314.4</ele>
        <time>2020-05-10T12:23:28Z</time>
      </trkpt>
      <trkpt lat="48.79665" lon="7.38081">
        <ele>314.7</ele>
        <time>2020-05-10T12:23:30Z</time>
      </trkpt>
      <trkpt lat="48.79659" lon="7.38075">
        <ele>314.9</ele>
        <time>2020-05-10T12:23:32Z</time>
      </trkpt>
      <trkpt lat="48.79654" lon="7.38071">
        <ele>315</ele>
        <time>2020-05-10T12:23:33Z</time>
      </trkpt>
      <trkpt lat="48.79646" lon="7.38067">
        <ele>315.2</ele>
        <time>2020-05-10T12:23:35Z</time>
      </trkpt>
      <trkpt lat="48.79638" lon="7.38062">
        <ele>315.4</ele>
        <time>2020-05-10T12:23:37Z</time>
      </trkpt>
      <trkpt lat="48.7963" lon="7.38056">
        <ele>315.6</ele>
        <time>2020-05-10T12:23:39Z</time>
      </trkpt>
      <trkpt lat="48.79625" lon="7.38052">
        <ele>315.7</ele>
        <time>2020-05-10T12:23:40Z</time>
      </trkpt>
      <trkpt lat="48.79616" lon="7.38044">
        <ele>315.9</ele>
        <time>2020-05-10T12:23:42Z</time>
      </trkpt>
      <trkpt lat="48.79608" lon="7.38036">
        <ele>316.1</ele>
        <time>2020-05-10T12:23:44Z</time>
      </trkpt>
      <trkpt lat="48.79603" lon="7.38033">
        <ele>316.2</ele>
        <time>2020-05-10T12:23:45Z</time>
      </trkpt>
      <trkpt lat="48.79599" lon="7.3803">
        <ele>316.3</ele>
        <time>2020-05-10T12:23:46Z</time>
      </trkpt>
      <trkpt lat="48.79589" lon="7.38023">
        <ele>316.6</ele>
        <time>2020-05-10T12:23:48Z</time>
      </trkpt>
      <trkpt lat="48.79585" lon="7.3802">
        <ele>316.7</ele>
        <time>2020-05-10T12:23:49Z</time>
      </trkpt>
      <trkpt lat="48.79576" lon="7.38014">
        <ele>317</ele>
        <time>2020-05-10T12:23:51Z</time>
      </trkpt>
      <trkpt lat="48.7957" lon="7.38011">
        <ele>317.1</ele>
        <time>2020-05-10T12:23:52Z</time>
      </trkpt>
      <trkpt lat="48.79559" lon="7.38003">
        <ele>317.5</ele>
        <time>2020-05-10T12:23:54Z</time>
      </trkpt>
      <trkpt lat="48.7955" lon="7.37997">
        <ele>317.7</ele>
        <time>2020-05-10T12:23:56Z</time>
      </trkpt>
      <trkpt lat="48.7954" lon="7.3799">
        <ele>318</ele>
        <time>2020-05-10T12:23:58Z</time>
      </trkpt>
      <trkpt lat="48.79535" lon="7.37987">
        <ele>318.1</ele>
        <time>2020-05-10T12:23:59Z</time>
      </trkpt>
      <trkpt lat="48.79531" lon="7.37984">
        <ele>318.2</ele>
        <time>2020-05-10T12:24:00Z</time>
      </trkpt>
      <trkpt lat="48.79526" lon="7.37981">
        <ele>318.3</ele>
        <time>2020-05-10T12:24:01Z</time>
      </trkpt>
      <trkpt lat="48.79515" lon="7.37975">
        <ele>318.6</ele>
        <time>2020-05-10T12:24:03Z</time>
      </trkpt>
      <trkpt lat="48.79505" lon="7.37966">
        <ele>318.9</ele>
        <time>2020-05-10T12:24:05Z</time>
      </trkpt>
      <trkpt lat="48.79499" lon="7.37962">
        <ele>319</ele>
        <time>2020-05-10T12:24:06Z</time>
      </trkpt>
      <trkpt lat="48.79489" lon="7.37961">
        <ele>319.3</ele>
        <time>2020-05-10T12:24:08Z</time>
      </trkpt>
      <trkpt lat="48.79484" lon="7.37959">
        <ele>319.4</ele>
        <time>2020-05-10T12:24:09Z</time>
      </trkpt>
      <trkpt lat="48.79478" lon="7.37957">
        <ele>319.6</ele>
        <time>2020-05-10T12:24:10Z</time>
      </trkpt>
      <trkpt lat="48.79469" lon="7.37952">
        <ele>319.8</ele>
        <time>2020-05-10T12:24:12Z</time>
      </trkpt>
      <trkpt lat="48.79465" lon="7.37948">
        <ele>320</ele>
        <time>2020-05-10T12:24:13Z</time>
      </trkpt>
      <trkpt lat="48.7946" lon="7.37945">
        <ele>320.1</ele>
        <time>2020-05-10T12:24:14Z</time>
      </trkpt>
      <trkpt lat="48.7945" lon="7.37941">
        <ele>320.4</ele>
        <time>2020-05-10T12:24:16Z</time>
      </trkpt>
      <trkpt lat="48.79439" lon="7.37934">
        <ele>320.7</ele>
        <time>2020-05-10T12:24:18Z</time>
      </trkpt>
      <trkpt lat="48.79427" lon="7.37927">
        <ele>321</ele>
        <time>2020-05-10T12:24:20Z</time>
      </trkpt>
      <trkpt lat="48.79422" lon="7.37924">
        <ele>321.2</ele>
        <time>2020-05-10T12:24:21Z</time>
      </trkpt>
      <trkpt lat="48.79411" lon="7.37918">
        <ele>321.5</ele>
        <time>2020-05-10T12:24:23Z</time>
      </trkpt>
      <trkpt lat="48.79404" lon="7.37915">
        <ele>321.7</ele>
        <time>2020-05-10T12:24:24Z</time>
      </trkpt>
      <trkpt lat="48.79393" lon="7.37908">
        <ele>322.1</ele>
        <time>2020-05-10T12:24:26Z</time>
      </trkpt>
      <trkpt lat="48.79387" lon="7.37905">
        <ele>322.2</ele>
        <time>2020-05-10T12:24:27Z</time>
      </trkpt>
      <trkpt lat="48.79379" lon="7.379">
        <ele>322.5</ele>
        <time>2020-05-10T12:24:29Z</time>
      </trkpt>
      <trkpt lat="48.79369" lon="7.37895">
        <ele>322.8</ele>
        <time>2020-05-10T12:24:31Z</time>
      </trkpt>
      <trkpt lat="48.79364" lon="7.37891">
        <ele>322.9</ele>
        <time>2020-05-10T12:24:32Z</time>
      </trkpt>
      <trkpt lat="48.79358" lon="7.37887">
        <ele>323.1</ele>
        <time>2020-05-10T12:24:33Z</time>
      </trkpt>
      <trkpt lat="48.79352" lon="7.37884">
        <ele>323.2</ele>
        <time>2020-05-10T12:24:34Z</time>
      </trkpt>
      <trkpt lat="48.79342" lon="7.37877">
        <ele>323.5</ele>
        <time>2020-05-10T12:24:36Z</time>
      </trkpt>
      <trkpt lat="48.79336" lon="7.37872">
        <ele>323.6</ele>
        <time>2020-05-10T12:24:37Z</time>
      </trkpt>
      <trkpt lat="48.79331" lon="7.3787">
        <ele>323.7</ele>
        <time>2020-05-10T12:24:38Z</time>
      </trkpt>
      <trkpt lat="48.7932" lon="7.37866">
        <ele>324.1</ele>
        <time>2020-05-10T12:24:40Z</time>
      </trkpt>
      <trkpt lat="48.79308" lon="7.37857">
        <ele>324.4</ele>
        <time>2020-05-10T12:24:42Z</time>
      </trkpt>
      <trkpt lat="48.79303" lon="7.37852">
        <ele>324.6</ele>
        <time>2020-05-10T12:24:43Z</time>
      </trkpt>
      <trkpt lat="48.79295" lon="7.37843">
        <ele>324.9</ele>
        <time>2020-05-10T12:24:45Z</time>
      </trkpt>
      <trkpt lat="48.7929" lon="7.37838">
        <ele>325</ele>
        <time>2020-05-10T12:24:46Z</time>
      </trkpt>
      <trkpt lat="48.79279" lon="7.37828">
        <ele>325.3</ele>
        <time>2020-05-10T12:24:48Z</time>
      </trkpt>
      <trkpt lat="48.79273" lon="7.37824">
        <ele>325.4</ele>
        <time>2020-05-10T12:24:49Z</time>
      </trkpt>
      <trkpt lat="48.79267" lon="7.3782">
        <ele>325.6</ele>
        <time>2020-05-10T12:24:50Z</time>
      </trkpt>
      <trkpt lat="48.79255" lon="7.37813">
        <ele>325.9</ele>
        <time>2020-05-10T12:24:52Z</time>
      </trkpt>
      <trkpt lat="48.7925" lon="7.37809">
        <ele>326</ele>
        <time>2020-05-10T12:24:53Z</time>
      </trkpt>
      <trkpt lat="48.79245" lon="7.37806">
        <ele>326.2</ele>
        <time>2020-05-10T12:24:54Z</time>
      </trkpt>
      <trkpt lat="48.79236" lon="7.378">
        <ele>326.4</ele>
        <time>2020-05-10T12:24:56Z</time>
      </trkpt>
      <trkpt lat="48.79231" lon="7.37797">
        <ele>326.5</ele>
        <time>2020-05-10T12:24:57Z</time>
      </trkpt>
      <trkpt lat="48.79219" lon="7.37789">
        <ele>326.7</ele>
        <time>2020-05-10T12:24:59Z</time>
      </trkpt>
      <trkpt lat="48.79206" lon="7.37784">
        <ele>326.9</ele>
        <time>2020-05-10T12:25:01Z</time>
      </trkpt>
      <trkpt lat="48.792" lon="7.37781">
        <ele>327</ele>
        <time>2020-05-10T12:25:02Z</time>
      </trkpt>
      <trkpt lat="48.79196" lon="7.37777">
        <ele>327.1</ele>
        <time>2020-05-10T12:25:03Z</time>
      </trkpt>
      <trkpt lat="48.79192" lon="7.37772">
        <ele>327.2</ele>
        <time>2020-05-10T12:25:04Z</time>
      </trkpt>
      <trkpt lat="48.79187" lon="7.37767">
        <ele>327.3</ele>
        <time>2020-05-10T12:25:05Z</time>
      </trkpt>
      <trkpt lat="48.79179" lon="7.37758">
        <ele>327.6</ele>
        <time>2020-05-10T12:25:07Z</time>
      </trkpt>
      <trkpt lat="48.79167" lon="7.37747">
        <ele>327.9</ele>
        <time>2020-05-10T12:25:09Z</time>
      </trkpt>
      <trkpt lat="48.7916" lon="7.37743">
        <ele>328.1</ele>
        <time>2020-05-10T12:25:10Z</time>
      </trkpt>
      <trkpt lat="48.79148" lon="7.37733">
        <ele>328.5</ele>
        <time>2020-05-10T12:25:12Z</time>
      </trkpt>
      <trkpt lat="48.79142" lon="7.37728">
        <ele>328.7</ele>
        <time>2020-05-10T12:25:13Z</time>
      </trkpt>
      <trkpt lat="48.79137" lon="7.37725">
        <ele>328.8</ele>
        <time>2020-05-10T12:25:14Z</time>
      </trkpt>
      <trkpt lat="48.79126" lon="7.37721">
        <ele>329.1</ele>
        <time>2020-05-10T12:25:16Z</time>
      </trkpt>
      <trkpt lat="48.79121" lon="7.37718">
        <ele>329.2</ele>
        <time>2020-05-10T12:25:17Z</time>
      </trkpt>
      <trkpt lat="48.79115" lon="7.37716">
        <ele>329.4</ele>
        <time>2020-05-10T12:25:18Z</time>
      </trkpt>
      <trkpt lat="48.79109" lon="7.37715">
        <ele>329.6</ele>
        <time>2020-05-10T12:25:19Z</time>
      </trkpt>
      <trkpt lat="48.79103" lon="7.37711">
        <ele>329.7</ele>
        <time>2020-05-10T12:25:20Z</time>
      </trkpt>
      <trkpt lat="48.79098" lon="7.37707">
        <ele>329.9</ele>
        <time>2020-05-10T12:25:21Z</time>
      </trkpt>
      <trkpt lat="48.79087" lon="7.37699">
        <ele>330.4</ele>
        <time>2020-05-10T12:25:23Z</time>
      </trkpt>
      <trkpt lat="48.79082" lon="7.37695">
        <ele>330.6</ele>
        <time>2020-05-10T12:25:24Z</time>
      </trkpt>
      <trkpt lat="48.79072" lon="7.37693">
        <ele>330.2</ele>
        <time>2020-05-10T12:25:26Z</time>
      </trkpt>
      <trkpt lat="48.79061" lon="7.37688">
        <ele>329.9</ele>
        <time>2020-05-10T12:25:28Z</time>
      </trkpt>
      <trkpt lat="48.79049" lon="7.37687">
        <ele>329.7</ele>
        <time>2020-05-10T12:25:30Z</time>
      </trkpt>
      <trkpt lat="48.79042" lon="7.37686">
        <ele>329.5</ele>
        <time>2020-05-10T12:25:31Z</time>
      </trkpt>
      <trkpt lat="48.79036" lon="7.37683">
        <ele>329.4</ele>
        <time>2020-05-10T12:25:32Z</time>
      </trkpt>
      <trkpt lat="48.79026" lon="7.37676">
        <ele>329.2</ele>
        <time>2020-05-10T12:25:34Z</time>
      </trkpt>
      <trkpt lat="48.79019" lon="7.37678">
        <ele>329.1</ele>
        <time>2020-05-10T12:25:35Z</time>
      </trkpt>
      <trkpt lat="48.79008" lon="7.37676">
        <ele>328.9</ele>
        <time>2020-05-10T12:25:37Z</time>
      </trkpt>
      <trkpt lat="48.79002" lon="7.37675">
        <ele>328.8</ele>
        <time>2020-05-10T12:25:38Z</time>
      </trkpt>
      <trkpt lat="48.78996" lon="7.37672">
        <ele>328.7</ele>
        <time>2020-05-10T12:25:39Z</time>
      </trkpt>
      <trkpt lat="48.78986" lon="7.37668">
        <ele>328.5</ele>
        <time>2020-05-10T12:25:41Z</time>
      </trkpt>
      <trkpt lat="48.78981" lon="7.37664">
        <ele>328.4</ele>
        <time>2020-05-10T12:25:42Z</time>
      </trkpt>
      <trkpt lat="48.78975" lon="7.37662">
        <ele>328.3</ele>
        <time>2020-05-10T12:25:43Z</time>
      </trkpt>
      <trkpt lat="48.78965" lon="7.37656">
        <ele>328</ele>
        <time>2020-05-10T12:25:45Z</time>
      </trkpt>
      <trkpt lat="48.7896" lon="7.37652">
        <ele>327.9</ele>
        <time>2020-05-10T12:25:46Z</time>
      </trkpt>
      <trkpt lat="48.78948" lon="7.37648">
        <ele>327.6</ele>
        <time>2020-05-10T12:25:48Z</time>
      </trkpt>
      <trkpt lat="48.78942" lon="7.37645">
        <ele>327.5</ele>
        <time>2020-05-10T12:25:49Z</time>
      </trkpt>
      <trkpt lat="48.78932" lon="7.37642">
        <ele>327.3</ele>
        <time>2020-05-10T12:25:51Z</time>
      </trkpt>
      <trkpt lat="48.78927" lon="7.37639">
        <ele>327.2</ele>
        <time>2020-05-10T12:25:52Z</time>
      </trkpt>
      <trkpt lat="48.78921" lon="7.37637">
        <ele>327.1</ele>
        <time>2020-05-10T12:25:53Z</time>
      </trkpt>
      <trkpt lat="48.78909" lon="7.37635">
        <ele>327</ele>
        <time>2020-05-10T12:25:55Z</time>
      </trkpt>
      <trkpt lat="48.78902" lon="7.37635">
        <ele>326.9</ele>
        <time>2020-05-10T12:25:56Z</time>
      </trkpt>
      <trkpt lat="48.78895" lon="7.37634">
        <ele>326.8</ele>
        <time>2020-05-10T12:25:57Z</time>
      </trkpt>
      <trkpt lat="48.78884" lon="7.37628">
        <ele>326.5</ele>
        <time>2020-05-10T12:25:59Z</time>
      </trkpt>
      <trkpt lat="48.78879" lon="7.37626">
        <ele>326.4</ele>
        <time>2020-05-10T12:26:00Z</time>
      </trkpt>
      <trkpt lat="48.78874" lon="7.37623">
        <ele>326.3</ele>
        <time>2020-05-10T12:26:01Z</time>
      </trkpt>
      <trkpt lat="48.78869" lon="7.37621">
        <ele>326.2</ele>
        <time>2020-05-10T12:26:02Z</time>
      </trkpt>
      <trkpt lat="48.78858" lon="7.37613">
        <ele>326</ele>
        <time>2020-05-10T12:26:04Z</time>
      </trkpt>
      <trkpt lat="48.78848" lon="7.37606">
        <ele>325.9</ele>
        <time>2020-05-10T12:26:06Z</time>
      </trkpt>
      <trkpt lat="48.78842" lon="7.37603">
        <ele>325.8</ele>
        <time>2020-05-10T12:26:07Z</time>
      </trkpt>
      <trkpt lat="48.78836" lon="7.376">
        <ele>325.7</ele>
        <time>2020-05-10T12:26:08Z</time>
      </trkpt>
      <trkpt lat="48.78825" lon="7.37595">
        <ele>325.6</ele>
        <time>2020-05-10T12:26:10Z</time>
      </trkpt>
      <trkpt lat="48.78815" lon="7.37591">
        <ele>325.5</ele>
        <time>2020-05-10T12:26:12Z</time>
      </trkpt>
      <trkpt lat="48.78809" lon="7.37588">
        <ele>325.4</ele>
        <time>2020-05-10T12:26:13Z</time>
      </trkpt>
      <trkpt lat="48.78803" lon="7.37586">
        <ele>325.4</ele>
        <time>2020-05-10T12:26:14Z</time>
      </trkpt>
      <trkpt lat="48.78791" lon="7.3758">
        <ele>325.4</ele>
        <time>2020-05-10T12:26:16Z</time>
      </trkpt>
      <trkpt lat="48.78781" lon="7.37576">
        <ele>325.4</ele>
        <time>2020-05-10T12:26:18Z</time>
      </trkpt>
      <trkpt lat="48.78772" lon="7.37568">
        <ele>325.4</ele>
        <time>2020-05-10T12:26:20Z</time>
      </trkpt>
      <trkpt lat="48.78765" lon="7.37563">
        <ele>325.4</ele>
        <time>2020-05-10T12:26:21Z</time>
      </trkpt>
      <trkpt lat="48.78757" lon="7.37558">
        <ele>325</ele>
        <time>2020-05-10T12:26:23Z</time>
      </trkpt>
      <trkpt lat="48.78754" lon="7.37556">
        <ele>324.1</ele>
        <time>2020-05-10T12:26:24Z</time>
      </trkpt>
      <trkpt lat="48.78743" lon="7.37555">
        <ele>321.5</ele>
        <time>2020-05-10T12:26:26Z</time>
      </trkpt>
      <trkpt lat="48.78732" lon="7.37559">
        <ele>319.2</ele>
        <time>2020-05-10T12:26:28Z</time>
      </trkpt>
      <trkpt lat="48.78729" lon="7.37556">
        <ele>319.2</ele>
        <time>2020-05-10T12:26:29Z</time>
      </trkpt>
      <trkpt lat="48.78725" lon="7.37553">
        <ele>319.2</ele>
        <time>2020-05-10T12:26:30Z</time>
      </trkpt>
      <trkpt lat="48.78723" lon="7.3755">
        <ele>319.2</ele>
        <time>2020-05-10T12:26:31Z</time>
      </trkpt>
      <trkpt lat="48.78719" lon="7.37546">
        <ele>319.3</ele>
        <time>2020-05-10T12:26:33Z</time>
      </trkpt>
      <trkpt lat="48.78716" lon="7.37545">
        <ele>319.4</ele>
        <time>2020-05-10T12:26:34Z</time>
      </trkpt>
      <trkpt lat="48.78712" lon="7.37543">
        <ele>319.6</ele>
        <time>2020-05-10T12:26:36Z</time>
      </trkpt>
      <trkpt lat="48.78708" lon="7.37543">
        <ele>319.9</ele>
        <time>2020-05-10T12:26:38Z</time>
      </trkpt>
      <trkpt lat="48.78704" lon="7.37541">
        <ele>320.1</ele>
        <time>2020-05-10T12:26:40Z</time>
      </trkpt>
      <trkpt lat="48.78702" lon="7.3754">
        <ele>320.2</ele>
        <time>2020-05-10T12:26:41Z</time>
      </trkpt>
      <trkpt lat="48.78698" lon="7.37539">
        <ele>320.4</ele>
        <time>2020-05-10T12:26:43Z</time>
      </trkpt>
      <trkpt lat="48.78696" lon="7.37539">
        <ele>320.5</ele>
        <time>2020-05-10T12:26:44Z</time>
      </trkpt>
      <trkpt lat="48.78694" lon="7.37539">
        <ele>320.6</ele>
        <time>2020-05-10T12:26:45Z</time>
      </trkpt>
      <trkpt lat="48.78693" lon="7.37537">
        <ele>320.7</ele>
        <time>2020-05-10T12:26:46Z</time>
      </trkpt>
      <trkpt lat="48.7869" lon="7.37534">
        <ele>320.8</ele>
        <time>2020-05-10T12:26:48Z</time>
      </trkpt>
      <trkpt lat="48.78689" lon="7.37533">
        <ele>320.9</ele>
        <time>2020-05-10T12:26:49Z</time>
      </trkpt>
      <trkpt lat="48.78685" lon="7.37531">
        <ele>321</ele>
        <time>2020-05-10T12:26:51Z</time>
      </trkpt>
      <trkpt lat="48.78683" lon="7.3753">
        <ele>321.2</ele>
        <time>2020-05-10T12:26:53Z</time>
      </trkpt>
      <trkpt lat="48.78682" lon="7.37529">
        <ele>321.2</ele>
        <time>2020-05-10T12:26:54Z</time>
      </trkpt>
      <trkpt lat="48.78678" lon="7.37526">
        <ele>321.4</ele>
        <time>2020-05-10T12:26:56Z</time>
      </trkpt>
      <trkpt lat="48.78675" lon="7.37522">
        <ele>321.5</ele>
        <time>2020-05-10T12:26:58Z</time>
      </trkpt>
      <trkpt lat="48.7867" lon="7.3752">
        <ele>321.8</ele>
        <time>2020-05-10T12:27:00Z</time>
      </trkpt>
      <trkpt lat="48.78666" lon="7.37519">
        <ele>321.9</ele>
        <time>2020-05-10T12:27:01Z</time>
      </trkpt>
      <trkpt lat="48.78665" lon="7.37519">
        <ele>321.9</ele>
        <time>2020-05-10T12:27:02Z</time>
      </trkpt>
      <trkpt lat="48.78662" lon="7.37516">
        <ele>322.1</ele>
        <time>2020-05-10T12:27:04Z</time>
      </trkpt>
      <trkpt lat="48.78659" lon="7.37514">
        <ele>322.3</ele>
        <time>2020-05-10T12:27:06Z</time>
      </trkpt>
      <trkpt lat="48.78656" lon="7.37513">
        <ele>322.4</ele>
        <time>2020-05-10T12:27:08Z</time>
      </trkpt>
      <trkpt lat="48.78654" lon="7.37512">
        <ele>322.5</ele>
        <time>2020-05-10T12:27:09Z</time>
      </trkpt>
      <trkpt lat="48.78651" lon="7.3751">
        <ele>322.6</ele>
        <time>2020-05-10T12:27:11Z</time>
      </trkpt>
      <trkpt lat="48.78647" lon="7.37508">
        <ele>322.7</ele>
        <time>2020-05-10T12:27:13Z</time>
      </trkpt>
      <trkpt lat="48.78643" lon="7.37505">
        <ele>322.7</ele>
        <time>2020-05-10T12:27:15Z</time>
      </trkpt>
      <trkpt lat="48.78639" lon="7.37504">
        <ele>322.8</ele>
        <time>2020-05-10T12:27:16Z</time>
      </trkpt>
      <trkpt lat="48.78637" lon="7.37503">
        <ele>322.8</ele>
        <time>2020-05-10T12:27:17Z</time>
      </trkpt>
      <trkpt lat="48.78634" lon="7.37502">
        <ele>322.8</ele>
        <time>2020-05-10T12:27:19Z</time>
      </trkpt>
      <trkpt lat="48.78633" lon="7.37502">
        <ele>322.7</ele>
        <time>2020-05-10T12:27:21Z</time>
      </trkpt>
      <trkpt lat="48.78632" lon="7.37501">
        <ele>322.7</ele>
        <time>2020-05-10T12:27:23Z</time>
      </trkpt>
      <trkpt lat="48.78631" lon="7.37501">
        <ele>322.7</ele>
        <time>2020-05-10T12:27:25Z</time>
      </trkpt>
      <trkpt lat="48.78631" lon="7.37501">
        <ele>322.7</ele>
        <time>2020-05-10T12:27:26Z</time>
      </trkpt>
      <trkpt lat="48.78631" lon="7.37501">
        <ele>322.7</ele>
        <time>2020-05-10T12:27:28Z</time>
      </trkpt>
      <trkpt lat="48.78631" lon="7.37501">
        <ele>322.7</ele>
        <time>2020-05-10T12:27:29Z</time>
      </trkpt>
      <trkpt lat="48.78631" lon="7.375">
        <ele>322.7</ele>
        <time>2020-05-10T12:27:31Z</time>
      </trkpt>
      <trkpt lat="48.78631" lon="7.375">
        <ele>322.7</ele>
        <time>2020-05-10T12:27:32Z</time>
      </trkpt>
      <trkpt lat="48.78631" lon="7.37499">
        <ele>322.7</ele>
        <time>2020-05-10T12:27:33Z</time>
      </trkpt>
      <trkpt lat="48.78628" lon="7.37495">
        <ele>322.6</ele>
        <time>2020-05-10T12:27:35Z</time>
      </trkpt>
      <trkpt lat="48.78625" lon="7.37493">
        <ele>322.6</ele>
        <time>2020-05-10T12:27:36Z</time>
      </trkpt>
      <trkpt lat="48.7862" lon="7.37488">
        <ele>322.6</ele>
        <time>2020-05-10T12:27:38Z</time>
      </trkpt>
      <trkpt lat="48.78618" lon="7.37486">
        <ele>322.6</ele>
        <time>2020-05-10T12:27:39Z</time>
      </trkpt>
      <trkpt lat="48.78613" lon="7.37481">
        <ele>322.6</ele>
        <time>2020-05-10T12:27:41Z</time>
      </trkpt>
      <trkpt lat="48.78608" lon="7.37475">
        <ele>322.5</ele>
        <time>2020-05-10T12:27:43Z</time>
      </trkpt>
      <trkpt lat="48.78604" lon="7.37469">
        <ele>322.5</ele>
        <time>2020-05-10T12:27:45Z</time>
      </trkpt>
      <trkpt lat="48.78602" lon="7.37467">
        <ele>322.5</ele>
        <time>2020-05-10T12:27:46Z</time>
      </trkpt>
      <trkpt lat="48.78599" lon="7.37464">
        <ele>322.5</ele>
        <time>2020-05-10T12:27:47Z</time>
      </trkpt>
      <trkpt lat="48.78595" lon="7.37461">
        <ele>322.4</ele>
        <time>2020-05-10T12:27:48Z</time>
      </trkpt>
      <trkpt lat="48.78592" lon="7.3746">
        <ele>322.4</ele>
        <time>2020-05-10T12:27:49Z</time>
      </trkpt>
      <trkpt lat="48.78585" lon="7.37456">
        <ele>322.4</ele>
        <time>2020-05-10T12:27:51Z</time>
      </trkpt>
      <trkpt lat="48.78578" lon="7.37452">
        <ele>322.3</ele>
        <time>2020-05-10T12:27:53Z</time>
      </trkpt>
      <trkpt lat="48.78574" lon="7.37449">
        <ele>322.2</ele>
        <time>2020-05-10T12:27:54Z</time>
      </trkpt>
      <trkpt lat="48.78566" lon="7.37447">
        <ele>322.1</ele>
        <time>2020-05-10T12:27:56Z</time>
      </trkpt>
      <trkpt lat="48.78562" lon="7.37446">
        <ele>322</ele>
        <time>2020-05-10T12:27:57Z</time>
      </trkpt>
      <trkpt lat="48.78557" lon="7.37443">
        <ele>322</ele>
        <time>2020-05-10T12:27:58Z</time>
      </trkpt>
      <trkpt lat="48.78549" lon="7.37437">
        <ele>321.8</ele>
        <time>2020-05-10T12:27:59Z</time>
      </trkpt>
      <trkpt lat="48.78542" lon="7.37432">
        <ele>321.7</ele>
        <time>2020-05-10T12:28:01Z</time>
      </trkpt>
      <trkpt lat="48.78534" lon="7.37429">
        <ele>321.5</ele>
        <time>2020-05-10T12:28:03Z</time>
      </trkpt>
      <trkpt lat="48.78525" lon="7.37427">
        <ele>321.3</ele>
        <time>2020-05-10T12:28:05Z</time>
      </trkpt>
      <trkpt lat="48.78522" lon="7.37424">
        <ele>321.3</ele>
        <time>2020-05-10T12:28:06Z</time>
      </trkpt>
      <trkpt lat="48.78515" lon="7.37419">
        <ele>321.1</ele>
        <time>2020-05-10T12:28:08Z</time>
      </trkpt>
      <trkpt lat="48.78508" lon="7.37416">
        <ele>321</ele>
        <time>2020-05-10T12:28:10Z</time>
      </trkpt>
      <trkpt lat="48.78503" lon="7.37413">
        <ele>320.9</ele>
        <time>2020-05-10T12:28:11Z</time>
      </trkpt>
      <trkpt lat="48.78493" lon="7.37409">
        <ele>320.8</ele>
        <time>2020-05-10T12:28:13Z</time>
      </trkpt>
      <trkpt lat="48.78489" lon="7.37406">
        <ele>320.7</ele>
        <time>2020-05-10T12:28:14Z</time>
      </trkpt>
      <trkpt lat="48.78481" lon="7.37403">
        <ele>320.5</ele>
        <time>2020-05-10T12:28:16Z</time>
      </trkpt>
      <trkpt lat="48.78468" lon="7.37399">
        <ele>320.3</ele>
        <time>2020-05-10T12:28:18Z</time>
      </trkpt>
      <trkpt lat="48.7846" lon="7.37395">
        <ele>320.3</ele>
        <time>2020-05-10T12:28:20Z</time>
      </trkpt>
      <trkpt lat="48.78452" lon="7.3739">
        <ele>320.3</ele>
        <time>2020-05-10T12:28:22Z</time>
      </trkpt>
      <trkpt lat="48.78445" lon="7.37378">
        <ele>320.3</ele>
        <time>2020-05-10T12:28:24Z</time>
      </trkpt>
      <trkpt lat="48.78441" lon="7.37373">
        <ele>320.3</ele>
        <time>2020-05-10T12:28:25Z</time>
      </trkpt>
      <trkpt lat="48.78435" lon="7.37371">
        <ele>320.3</ele>
        <time>2020-05-10T12:28:26Z</time>
      </trkpt>
      <trkpt lat="48.78426" lon="7.37366">
        <ele>320.4</ele>
        <time>2020-05-10T12:28:28Z</time>
      </trkpt>
      <trkpt lat="48.78417" lon="7.37363">
        <ele>320.4</ele>
        <time>2020-05-10T12:28:30Z</time>
      </trkpt>
      <trkpt lat="48.78412" lon="7.37363">
        <ele>320.4</ele>
        <time>2020-05-10T12:28:31Z</time>
      </trkpt>
      <trkpt lat="48.78401" lon="7.37363">
        <ele>320.3</ele>
        <time>2020-05-10T12:28:33Z</time>
      </trkpt>
      <trkpt lat="48.78396" lon="7.37362">
        <ele>320.3</ele>
        <time>2020-05-10T12:28:34Z</time>
      </trkpt>
      <trkpt lat="48.78388" lon="7.37356">
        <ele>320.2</ele>
        <time>2020-05-10T12:28:36Z</time>
      </trkpt>
      <trkpt lat="48.78383" lon="7.37354">
        <ele>320.1</ele>
        <time>2020-05-10T12:28:37Z</time>
      </trkpt>
      <trkpt lat="48.78379" lon="7.37351">
        <ele>320</ele>
        <time>2020-05-10T12:28:38Z</time>
      </trkpt>
      <trkpt lat="48.78369" lon="7.37346">
        <ele>319.9</ele>
        <time>2020-05-10T12:28:40Z</time>
      </trkpt>
      <trkpt lat="48.78365" lon="7.37346">
        <ele>319.8</ele>
        <time>2020-05-10T12:28:42Z</time>
      </trkpt>
      <trkpt lat="48.78362" lon="7.37346">
        <ele>319.8</ele>
        <time>2020-05-10T12:28:43Z</time>
      </trkpt>
      <trkpt lat="48.78361" lon="7.37346">
        <ele>319.7</ele>
        <time>2020-05-10T12:28:44Z</time>
      </trkpt>
      <trkpt lat="48.78357" lon="7.37343">
        <ele>319.7</ele>
        <time>2020-05-10T12:28:45Z</time>
      </trkpt>
      <trkpt lat="48.78356" lon="7.37342">
        <ele>319.7</ele>
        <time>2020-05-10T12:28:46Z</time>
      </trkpt>
      <trkpt lat="48.78348" lon="7.37336">
        <ele>319.6</ele>
        <time>2020-05-10T12:28:48Z</time>
      </trkpt>
      <trkpt lat="48.78342" lon="7.37334">
        <ele>319.5</ele>
        <time>2020-05-10T12:28:49Z</time>
      </trkpt>
      <trkpt lat="48.78329" lon="7.37332">
        <ele>319.2</ele>
        <time>2020-05-10T12:28:51Z</time>
      </trkpt>
      <trkpt lat="48.78317" lon="7.3733">
        <ele>318.9</ele>
        <time>2020-05-10T12:28:53Z</time>
      </trkpt>
      <trkpt lat="48.78308" lon="7.37324">
        <ele>318.6</ele>
        <time>2020-05-10T12:28:55Z</time>
      </trkpt>
      <trkpt lat="48.78302" lon="7.37323">
        <ele>318.5</ele>
        <time>2020-05-10T12:28:56Z</time>
      </trkpt>
      <trkpt lat="48.78295" lon="7.3732">
        <ele>318.3</ele>
        <time>2020-05-10T12:28:57Z</time>
      </trkpt>
      <trkpt lat="48.78286" lon="7.37322">
        <ele>318</ele>
        <time>2020-05-10T12:28:59Z</time>
      </trkpt>
      <trkpt lat="48.78281" lon="7.37324">
        <ele>317.8</ele>
        <time>2020-05-10T12:29:00Z</time>
      </trkpt>
      <trkpt lat="48.78271" lon="7.37323">
        <ele>317.5</ele>
        <time>2020-05-10T12:29:02Z</time>
      </trkpt>
      <trkpt lat="48.78265" lon="7.37321">
        <ele>317.4</ele>
        <time>2020-05-10T12:29:03Z</time>
      </trkpt>
      <trkpt lat="48.78252" lon="7.37322">
        <ele>317.1</ele>
        <time>2020-05-10T12:29:05Z</time>
      </trkpt>
      <trkpt lat="48.7824" lon="7.37319">
        <ele>316.8</ele>
        <time>2020-05-10T12:29:07Z</time>
      </trkpt>
      <trkpt lat="48.78235" lon="7.37317">
        <ele>316.6</ele>
        <time>2020-05-10T12:29:08Z</time>
      </trkpt>
      <trkpt lat="48.78225" lon="7.37314">
        <ele>316.4</ele>
        <time>2020-05-10T12:29:10Z</time>
      </trkpt>
      <trkpt lat="48.78215" lon="7.37313">
        <ele>316.1</ele>
        <time>2020-05-10T12:29:12Z</time>
      </trkpt>
      <trkpt lat="48.78209" lon="7.37311">
        <ele>316</ele>
        <time>2020-05-10T12:29:13Z</time>
      </trkpt>
      <trkpt lat="48.78202" lon="7.37311">
        <ele>315.8</ele>
        <time>2020-05-10T12:29:14Z</time>
      </trkpt>
      <trkpt lat="48.78195" lon="7.37313">
        <ele>315.5</ele>
        <time>2020-05-10T12:29:15Z</time>
      </trkpt>
      <trkpt lat="48.78181" lon="7.37313">
        <ele>315.1</ele>
        <time>2020-05-10T12:29:17Z</time>
      </trkpt>
      <trkpt lat="48.78175" lon="7.37312">
        <ele>315</ele>
        <time>2020-05-10T12:29:18Z</time>
      </trkpt>
      <trkpt lat="48.78165" lon="7.37307">
        <ele>314.8</ele>
        <time>2020-05-10T12:29:20Z</time>
      </trkpt>
      <trkpt lat="48.78153" lon="7.37306">
        <ele>314.6</ele>
        <time>2020-05-10T12:29:22Z</time>
      </trkpt>
      <trkpt lat="48.78148" lon="7.37306">
        <ele>314.6</ele>
        <time>2020-05-10T12:29:23Z</time>
      </trkpt>
      <trkpt lat="48.78137" lon="7.37302">
        <ele>314.4</ele>
        <time>2020-05-10T12:29:25Z</time>
      </trkpt>
      <trkpt lat="48.78126" lon="7.37303">
        <ele>314.3</ele>
        <time>2020-05-10T12:29:27Z</time>
      </trkpt>
      <trkpt lat="48.78119" lon="7.37303">
        <ele>314.2</ele>
        <time>2020-05-10T12:29:28Z</time>
      </trkpt>
      <trkpt lat="48.78114" lon="7.37302">
        <ele>314.1</ele>
        <time>2020-05-10T12:29:29Z</time>
      </trkpt>
      <trkpt lat="48.7811" lon="7.37298">
        <ele>314</ele>
        <time>2020-05-10T12:29:30Z</time>
      </trkpt>
      <trkpt lat="48.78105" lon="7.37294">
        <ele>313.9</ele>
        <time>2020-05-10T12:29:31Z</time>
      </trkpt>
      <trkpt lat="48.78093" lon="7.37287">
        <ele>313.6</ele>
        <time>2020-05-10T12:29:33Z</time>
      </trkpt>
      <trkpt lat="48.78081" lon="7.3728">
        <ele>313.4</ele>
        <time>2020-05-10T12:29:35Z</time>
      </trkpt>
      <trkpt lat="48.78076" lon="7.37277">
        <ele>313.4</ele>
        <time>2020-05-10T12:29:36Z</time>
      </trkpt>
      <trkpt lat="48.7807" lon="7.37273">
        <ele>313.3</ele>
        <time>2020-05-10T12:29:37Z</time>
      </trkpt>
      <trkpt lat="48.78063" lon="7.37271">
        <ele>313.3</ele>
        <time>2020-05-10T12:29:38Z</time>
      </trkpt>
      <trkpt lat="48.78052" lon="7.37263">
        <ele>313</ele>
        <time>2020-05-10T12:29:40Z</time>
      </trkpt>
      <trkpt lat="48.78046" lon="7.37259">
        <ele>312.9</ele>
        <time>2020-05-10T12:29:41Z</time>
      </trkpt>
      <trkpt lat="48.78035" lon="7.37249">
        <ele>312.4</ele>
        <time>2020-05-10T12:29:43Z</time>
      </trkpt>
      <trkpt lat="48.78028" lon="7.37246">
        <ele>312.2</ele>
        <time>2020-05-10T12:29:44Z</time>
      </trkpt>
      <trkpt lat="48.78014" lon="7.37238">
        <ele>311.7</ele>
        <time>2020-05-10T12:29:46Z</time>
      </trkpt>
      <trkpt lat="48.78004" lon="7.37228">
        <ele>311.5</ele>
        <time>2020-05-10T12:29:48Z</time>
      </trkpt>
      <trkpt lat="48.77999" lon="7.37225">
        <ele>311.3</ele>
        <time>2020-05-10T12:29:49Z</time>
      </trkpt>
      <trkpt lat="48.77988" lon="7.37215">
        <ele>311.1</ele>
        <time>2020-05-10T12:29:51Z</time>
      </trkpt>
      <trkpt lat="48.77983" lon="7.37209">
        <ele>311</ele>
        <time>2020-05-10T12:29:52Z</time>
      </trkpt>
      <trkpt lat="48.77973" lon="7.37198">
        <ele>310.8</ele>
        <time>2020-05-10T12:29:54Z</time>
      </trkpt>
      <trkpt lat="48.77968" lon="7.37192">
        <ele>310.7</ele>
        <time>2020-05-10T12:29:55Z</time>
      </trkpt>
      <trkpt lat="48.77964" lon="7.37185">
        <ele>310.6</ele>
        <time>2020-05-10T12:29:56Z</time>
      </trkpt>
      <trkpt lat="48.77956" lon="7.37172">
        <ele>310.5</ele>
        <time>2020-05-10T12:29:58Z</time>
      </trkpt>
      <trkpt lat="48.77951" lon="7.37165">
        <ele>310.4</ele>
        <time>2020-05-10T12:29:59Z</time>
      </trkpt>
      <trkpt lat="48.7794" lon="7.37162">
        <ele>310.3</ele>
        <time>2020-05-10T12:30:01Z</time>
      </trkpt>
      <trkpt lat="48.77934" lon="7.37141">
        <ele>310.2</ele>
        <time>2020-05-10T12:30:03Z</time>
      </trkpt>
      <trkpt lat="48.7793" lon="7.37131">
        <ele>310</ele>
        <time>2020-05-10T12:30:04Z</time>
      </trkpt>
      <trkpt lat="48.77927" lon="7.37123">
        <ele>309.8</ele>
        <time>2020-05-10T12:30:05Z</time>
      </trkpt>
      <trkpt lat="48.77921" lon="7.37107">
        <ele>309.4</ele>
        <time>2020-05-10T12:30:07Z</time>
      </trkpt>
      <trkpt lat="48.77913" lon="7.37093">
        <ele>308.9</ele>
        <time>2020-05-10T12:30:09Z</time>
      </trkpt>
      <trkpt lat="48.7791" lon="7.37086">
        <ele>308.6</ele>
        <time>2020-05-10T12:30:10Z</time>
      </trkpt>
      <trkpt lat="48.77909" lon="7.3708">
        <ele>308.4</ele>
        <time>2020-05-10T12:30:11Z</time>
      </trkpt>
      <trkpt lat="48.77906" lon="7.37071">
        <ele>308</ele>
        <time>2020-05-10T12:30:13Z</time>
      </trkpt>
      <trkpt lat="48.77904" lon="7.37069">
        <ele>307.8</ele>
        <time>2020-05-10T12:30:14Z</time>
      </trkpt>
      <trkpt lat="48.77896" lon="7.37067">
        <ele>307.3</ele>
        <time>2020-05-10T12:30:16Z</time>
      </trkpt>
      <trkpt lat="48.77892" lon="7.37067">
        <ele>307.1</ele>
        <time>2020-05-10T12:30:17Z</time>
      </trkpt>
      <trkpt lat="48.77891" lon="7.37067">
        <ele>307</ele>
        <time>2020-05-10T12:30:19Z</time>
      </trkpt>
      <trkpt lat="48.77891" lon="7.37067">
        <ele>307</ele>
        <time>2020-05-10T12:30:20Z</time>
      </trkpt>
      <trkpt lat="48.77891" lon="7.37067">
        <ele>307</ele>
        <time>2020-05-10T12:30:21Z</time>
      </trkpt>
      <trkpt lat="48.77891" lon="7.37066">
        <ele>307</ele>
        <time>2020-05-10T12:30:23Z</time>
      </trkpt>
      <trkpt lat="48.77891" lon="7.37066">
        <ele>306.9</ele>
        <time>2020-05-10T12:30:24Z</time>
      </trkpt>
      <trkpt lat="48.77891" lon="7.37066">
        <ele>306.9</ele>
        <time>2020-05-10T12:30:26Z</time>
      </trkpt>
      <trkpt lat="48.77891" lon="7.37066">
        <ele>306.9</ele>
        <time>2020-05-10T12:30:28Z</time>
      </trkpt>
      <trkpt lat="48.77891" lon="7.37066">
        <ele>306.9</ele>
        <time>2020-05-10T12:30:29Z</time>
      </trkpt>
      <trkpt lat="48.77891" lon="7.37066">
        <ele>306.5</ele>
        <time>2020-05-10T12:30:31Z</time>
      </trkpt>
      <trkpt lat="48.77886" lon="7.37068">
        <ele>306</ele>
        <time>2020-05-10T12:30:37Z</time>
      </trkpt>
      <trkpt lat="48.77881" lon="7.37067">
        <ele>305.6</ele>
        <time>2020-05-10T12:30:38Z</time>
      </trkpt>
      <trkpt lat="48.77878" lon="7.37066">
        <ele>305.6</ele>
        <time>2020-05-10T12:30:39Z</time>
      </trkpt>
      <trkpt lat="48.77876" lon="7.37063">
        <ele>305.6</ele>
        <time>2020-05-10T12:30:41Z</time>
      </trkpt>
      <trkpt lat="48.77876" lon="7.37062">
        <ele>305.6</ele>
        <time>2020-05-10T12:30:43Z</time>
      </trkpt>
      <trkpt lat="48.77877" lon="7.37062">
        <ele>305.6</ele>
        <time>2020-05-10T12:30:44Z</time>
      </trkpt>
      <trkpt lat="48.77877" lon="7.37062">
        <ele>305.6</ele>
        <time>2020-05-10T12:30:46Z</time>
      </trkpt>
      <trkpt lat="48.77878" lon="7.37062">
        <ele>305.6</ele>
        <time>2020-05-10T12:30:47Z</time>
      </trkpt>
      <trkpt lat="48.77878" lon="7.37062">
        <ele>305.6</ele>
        <time>2020-05-10T12:30:49Z</time>
      </trkpt>
      <trkpt lat="48.77878" lon="7.37062">
        <ele>305.6</ele>
        <time>2020-05-10T12:30:51Z</time>
      </trkpt>
      <trkpt lat="48.77878" lon="7.37062">
        <ele>305.6</ele>
        <time>2020-05-10T12:30:52Z</time>
      </trkpt>
      <trkpt lat="48.77878" lon="7.37062">
        <ele>305.6</ele>
        <time>2020-05-10T12:30:53Z</time>
      </trkpt>
      <trkpt lat="48.77879" lon="7.37064">
        <ele>305.7</ele>
        <time>2020-05-10T12:30:55Z</time>
      </trkpt>
      <trkpt lat="48.7788" lon="7.37065">
        <ele>305.7</ele>
        <time>2020-05-10T12:30:57Z</time>
      </trkpt>
      <trkpt lat="48.77882" lon="7.37067">
        <ele>305.7</ele>
        <time>2020-05-10T12:30:59Z</time>
      </trkpt>
      <trkpt lat="48.77882" lon="7.37069">
        <ele>305.7</ele>
        <time>2020-05-10T12:31:00Z</time>
      </trkpt>
      <trkpt lat="48.77884" lon="7.37069">
        <ele>307</ele>
        <time>2020-05-10T12:31:02Z</time>
      </trkpt>
      <trkpt lat="48.77887" lon="7.37069">
        <ele>307.1</ele>
        <time>2020-05-10T12:31:04Z</time>
      </trkpt>
      <trkpt lat="48.7789" lon="7.37068">
        <ele>307.3</ele>
        <time>2020-05-10T12:31:06Z</time>
      </trkpt>
      <trkpt lat="48.77891" lon="7.37067">
        <ele>307.3</ele>
        <time>2020-05-10T12:31:07Z</time>
      </trkpt>
      <trkpt lat="48.77892" lon="7.37063">
        <ele>307.5</ele>
        <time>2020-05-10T12:31:09Z</time>
      </trkpt>
      <trkpt lat="48.77892" lon="7.37059">
        <ele>307.6</ele>
        <time>2020-05-10T12:31:11Z</time>
      </trkpt>
      <trkpt lat="48.77891" lon="7.3706">
        <ele>307.7</ele>
        <time>2020-05-10T12:31:13Z</time>
      </trkpt>
      <trkpt lat="48.7789" lon="7.3706">
        <ele>307.7</ele>
        <time>2020-05-10T12:31:14Z</time>
      </trkpt>
      <trkpt lat="48.77891" lon="7.37059">
        <ele>307.8</ele>
        <time>2020-05-10T12:31:16Z</time>
      </trkpt>
      <trkpt lat="48.77891" lon="7.37058">
        <ele>307.8</ele>
        <time>2020-05-10T12:31:17Z</time>
      </trkpt>
      <trkpt lat="48.77891" lon="7.37058">
        <ele>307.8</ele>
        <time>2020-05-10T12:31:18Z</time>
      </trkpt>
      <trkpt lat="48.77891" lon="7.37057">
        <ele>307.9</ele>
        <time>2020-05-10T12:31:20Z</time>
      </trkpt>
      <trkpt lat="48.77892" lon="7.37054">
        <ele>308</ele>
        <time>2020-05-10T12:31:22Z</time>
      </trkpt>
      <trkpt lat="48.77891" lon="7.37053">
        <ele>308.1</ele>
        <time>2020-05-10T12:31:23Z</time>
      </trkpt>
      <trkpt lat="48.77891" lon="7.37052">
        <ele>308.2</ele>
        <time>2020-05-10T12:31:24Z</time>
      </trkpt>
      <trkpt lat="48.77889" lon="7.37049">
        <ele>308.3</ele>
        <time>2020-05-10T12:31:26Z</time>
      </trkpt>
      <trkpt lat="48.77889" lon="7.37046">
        <ele>308.5</ele>
        <time>2020-05-10T12:31:27Z</time>
      </trkpt>
      <trkpt lat="48.77889" lon="7.37046">
        <ele>308.5</ele>
        <time>2020-05-10T12:31:28Z</time>
      </trkpt>
      <trkpt lat="48.77889" lon="7.37045">
        <ele>308.5</ele>
        <time>2020-05-10T12:31:30Z</time>
      </trkpt>
      <trkpt lat="48.77888" lon="7.37044">
        <ele>308.6</ele>
        <time>2020-05-10T12:31:32Z</time>
      </trkpt>
      <trkpt lat="48.77888" lon="7.37043">
        <ele>308.6</ele>
        <time>2020-05-10T12:31:33Z</time>
      </trkpt>
      <trkpt lat="48.77888" lon="7.37042">
        <ele>308.7</ele>
        <time>2020-05-10T12:31:34Z</time>
      </trkpt>
      <trkpt lat="48.77888" lon="7.37041">
        <ele>308.7</ele>
        <time>2020-05-10T12:31:35Z</time>
      </trkpt>
      <trkpt lat="48.77888" lon="7.3704">
        <ele>308.8</ele>
        <time>2020-05-10T12:31:37Z</time>
      </trkpt>
      <trkpt lat="48.77887" lon="7.37039">
        <ele>308.8</ele>
        <time>2020-05-10T12:31:38Z</time>
      </trkpt>
      <trkpt lat="48.77887" lon="7.37038">
        <ele>308.9</ele>
        <time>2020-05-10T12:31:39Z</time>
      </trkpt>
      <trkpt lat="48.77887" lon="7.37037">
        <ele>308.9</ele>
        <time>2020-05-10T12:31:40Z</time>
      </trkpt>
      <trkpt lat="48.77887" lon="7.3703">
        <ele>309.3</ele>
        <time>2020-05-10T12:31:42Z</time>
      </trkpt>
      <trkpt lat="48.77884" lon="7.37021">
        <ele>309.7</ele>
        <time>2020-05-10T12:31:44Z</time>
      </trkpt>
      <trkpt lat="48.77882" lon="7.37012">
        <ele>310.2</ele>
        <time>2020-05-10T12:31:46Z</time>
      </trkpt>
      <trkpt lat="48.77882" lon="7.37004">
        <ele>310.6</ele>
        <time>2020-05-10T12:31:48Z</time>
      </trkpt>
      <trkpt lat="48.77882" lon="7.36999">
        <ele>310.7</ele>
        <time>2020-05-10T12:31:49Z</time>
      </trkpt>
      <trkpt lat="48.77882" lon="7.36995">
        <ele>310.9</ele>
        <time>2020-05-10T12:31:50Z</time>
      </trkpt>
      <trkpt lat="48.77882" lon="7.36986">
        <ele>311.6</ele>
        <time>2020-05-10T12:31:52Z</time>
      </trkpt>
      <trkpt lat="48.77883" lon="7.36982">
        <ele>311.7</ele>
        <time>2020-05-10T12:31:53Z</time>
      </trkpt>
      <trkpt lat="48.77883" lon="7.3698">
        <ele>311.8</ele>
        <time>2020-05-10T12:31:54Z</time>
      </trkpt>
      <trkpt lat="48.77884" lon="7.36976">
        <ele>312</ele>
        <time>2020-05-10T12:31:55Z</time>
      </trkpt>
      <trkpt lat="48.77885" lon="7.36965">
        <ele>312.4</ele>
        <time>2020-05-10T12:31:57Z</time>
      </trkpt>
      <trkpt lat="48.77886" lon="7.36959">
        <ele>312.7</ele>
        <time>2020-05-10T12:31:58Z</time>
      </trkpt>
      <trkpt lat="48.77886" lon="7.36951">
        <ele>313.2</ele>
        <time>2020-05-10T12:32:00Z</time>
      </trkpt>
      <trkpt lat="48.77886" lon="7.36949">
        <ele>313.3</ele>
        <time>2020-05-10T12:32:01Z</time>
      </trkpt>
      <trkpt lat="48.77886" lon="7.36946">
        <ele>313.5</ele>
        <time>2020-05-10T12:32:02Z</time>
      </trkpt>
      <trkpt lat="48.77887" lon="7.36938">
        <ele>314</ele>
        <time>2020-05-10T12:32:04Z</time>
      </trkpt>
      <trkpt lat="48.77888" lon="7.36931">
        <ele>314.4</ele>
        <time>2020-05-10T12:32:06Z</time>
      </trkpt>
      <trkpt lat="48.77889" lon="7.36926">
        <ele>314.7</ele>
        <time>2020-05-10T12:32:07Z</time>
      </trkpt>
      <trkpt lat="48.77889" lon="7.36925">
        <ele>314.7</ele>
        <time>2020-05-10T12:32:08Z</time>
      </trkpt>
      <trkpt lat="48.77889" lon="7.36922">
        <ele>314.9</ele>
        <time>2020-05-10T12:32:09Z</time>
      </trkpt>
      <trkpt lat="48.77889" lon="7.36916">
        <ele>315.2</ele>
        <time>2020-05-10T12:32:11Z</time>
      </trkpt>
      <trkpt lat="48.7789" lon="7.36909">
        <ele>315.6</ele>
        <time>2020-05-10T12:32:13Z</time>
      </trkpt>
      <trkpt lat="48.7789" lon="7.36905">
        <ele>315.8</ele>
        <time>2020-05-10T12:32:14Z</time>
      </trkpt>
      <trkpt lat="48.7789" lon="7.36897">
        <ele>316.2</ele>
        <time>2020-05-10T12:32:16Z</time>
      </trkpt>
      <trkpt lat="48.77891" lon="7.36888">
        <ele>316.6</ele>
        <time>2020-05-10T12:32:18Z</time>
      </trkpt>
      <trkpt lat="48.77891" lon="7.36884">
        <ele>316.9</ele>
        <time>2020-05-10T12:32:19Z</time>
      </trkpt>
      <trkpt lat="48.77891" lon="7.36877">
        <ele>317.2</ele>
        <time>2020-05-10T12:32:21Z</time>
      </trkpt>
      <trkpt lat="48.7789" lon="7.36874">
        <ele>317.4</ele>
        <time>2020-05-10T12:32:22Z</time>
      </trkpt>
      <trkpt lat="48.77891" lon="7.36864">
        <ele>317.9</ele>
        <time>2020-05-10T12:32:24Z</time>
      </trkpt>
      <trkpt lat="48.77893" lon="7.36859">
        <ele>318.2</ele>
        <time>2020-05-10T12:32:25Z</time>
      </trkpt>
      <trkpt lat="48.77893" lon="7.36857">
        <ele>318.2</ele>
        <time>2020-05-10T12:32:26Z</time>
      </trkpt>
      <trkpt lat="48.77893" lon="7.36855">
        <ele>318.4</ele>
        <time>2020-05-10T12:32:27Z</time>
      </trkpt>
      <trkpt lat="48.77893" lon="7.36845">
        <ele>318.8</ele>
        <time>2020-05-10T12:32:29Z</time>
      </trkpt>
      <trkpt lat="48.77893" lon="7.3684">
        <ele>319.1</ele>
        <time>2020-05-10T12:32:30Z</time>
      </trkpt>
      <trkpt lat="48.77895" lon="7.3683">
        <ele>319.5</ele>
        <time>2020-05-10T12:32:32Z</time>
      </trkpt>
      <trkpt lat="48.77896" lon="7.36823">
        <ele>319.9</ele>
        <time>2020-05-10T12:32:33Z</time>
      </trkpt>
      <trkpt lat="48.77896" lon="7.3682">
        <ele>320</ele>
        <time>2020-05-10T12:32:34Z</time>
      </trkpt>
      <trkpt lat="48.77897" lon="7.3681">
        <ele>320.5</ele>
        <time>2020-05-10T12:32:36Z</time>
      </trkpt>
      <trkpt lat="48.77899" lon="7.36806">
        <ele>320.7</ele>
        <time>2020-05-10T12:32:37Z</time>
      </trkpt>
      <trkpt lat="48.77899" lon="7.36802">
        <ele>320.9</ele>
        <time>2020-05-10T12:32:38Z</time>
      </trkpt>
      <trkpt lat="48.779" lon="7.36795">
        <ele>321.2</ele>
        <time>2020-05-10T12:32:40Z</time>
      </trkpt>
      <trkpt lat="48.779" lon="7.36791">
        <ele>321.4</ele>
        <time>2020-05-10T12:32:41Z</time>
      </trkpt>
      <trkpt lat="48.77901" lon="7.36781">
        <ele>322</ele>
        <time>2020-05-10T12:32:43Z</time>
      </trkpt>
      <trkpt lat="48.77901" lon="7.36777">
        <ele>322.1</ele>
        <time>2020-05-10T12:32:44Z</time>
      </trkpt>
      <trkpt lat="48.77901" lon="7.36771">
        <ele>322.5</ele>
        <time>2020-05-10T12:32:46Z</time>
      </trkpt>
      <trkpt lat="48.77899" lon="7.36764">
        <ele>322.8</ele>
        <time>2020-05-10T12:32:48Z</time>
      </trkpt>
      <trkpt lat="48.77897" lon="7.36754">
        <ele>323.4</ele>
        <time>2020-05-10T12:32:50Z</time>
      </trkpt>
      <trkpt lat="48.77897" lon="7.36747">
        <ele>323.7</ele>
        <time>2020-05-10T12:32:51Z</time>
      </trkpt>
      <trkpt lat="48.77897" lon="7.3674">
        <ele>324</ele>
        <time>2020-05-10T12:32:52Z</time>
      </trkpt>
      <trkpt lat="48.77897" lon="7.36734">
        <ele>324.2</ele>
        <time>2020-05-10T12:32:53Z</time>
      </trkpt>
      <trkpt lat="48.77899" lon="7.36726">
        <ele>324.6</ele>
        <time>2020-05-10T12:32:55Z</time>
      </trkpt>
      <trkpt lat="48.77901" lon="7.36716">
        <ele>325.1</ele>
        <time>2020-05-10T12:32:57Z</time>
      </trkpt>
      <trkpt lat="48.77902" lon="7.36711">
        <ele>325.3</ele>
        <time>2020-05-10T12:32:58Z</time>
      </trkpt>
      <trkpt lat="48.77902" lon="7.36709">
        <ele>325.4</ele>
        <time>2020-05-10T12:32:59Z</time>
      </trkpt>
      <trkpt lat="48.77901" lon="7.36705">
        <ele>325.6</ele>
        <time>2020-05-10T12:33:00Z</time>
      </trkpt>
      <trkpt lat="48.77901" lon="7.36694">
        <ele>326</ele>
        <time>2020-05-10T12:33:02Z</time>
      </trkpt>
      <trkpt lat="48.77902" lon="7.3669">
        <ele>326.2</ele>
        <time>2020-05-10T12:33:03Z</time>
      </trkpt>
      <trkpt lat="48.77902" lon="7.36682">
        <ele>326.6</ele>
        <time>2020-05-10T12:33:05Z</time>
      </trkpt>
      <trkpt lat="48.77904" lon="7.36677">
        <ele>326.8</ele>
        <time>2020-05-10T12:33:06Z</time>
      </trkpt>
      <trkpt lat="48.77906" lon="7.36668">
        <ele>327.2</ele>
        <time>2020-05-10T12:33:08Z</time>
      </trkpt>
      <trkpt lat="48.77907" lon="7.3666">
        <ele>327.5</ele>
        <time>2020-05-10T12:33:10Z</time>
      </trkpt>
      <trkpt lat="48.77907" lon="7.36652">
        <ele>327.8</ele>
        <time>2020-05-10T12:33:12Z</time>
      </trkpt>
      <trkpt lat="48.77908" lon="7.36648">
        <ele>328</ele>
        <time>2020-05-10T12:33:13Z</time>
      </trkpt>
      <trkpt lat="48.77909" lon="7.36636">
        <ele>328.4</ele>
        <time>2020-05-10T12:33:15Z</time>
      </trkpt>
      <trkpt lat="48.77909" lon="7.3663">
        <ele>328.7</ele>
        <time>2020-05-10T12:33:16Z</time>
      </trkpt>
      <trkpt lat="48.7791" lon="7.36625">
        <ele>328.8</ele>
        <time>2020-05-10T12:33:17Z</time>
      </trkpt>
      <trkpt lat="48.77911" lon="7.36615">
        <ele>329.3</ele>
        <time>2020-05-10T12:33:19Z</time>
      </trkpt>
      <trkpt lat="48.7791" lon="7.36606">
        <ele>329.7</ele>
        <time>2020-05-10T12:33:21Z</time>
      </trkpt>
      <trkpt lat="48.7791" lon="7.36598">
        <ele>330</ele>
        <time>2020-05-10T12:33:23Z</time>
      </trkpt>
      <trkpt lat="48.77911" lon="7.36592">
        <ele>330.3</ele>
        <time>2020-05-10T12:33:24Z</time>
      </trkpt>
      <trkpt lat="48.77911" lon="7.36589">
        <ele>330.4</ele>
        <time>2020-05-10T12:33:25Z</time>
      </trkpt>
      <trkpt lat="48.77914" lon="7.36581">
        <ele>330.8</ele>
        <time>2020-05-10T12:33:27Z</time>
      </trkpt>
      <trkpt lat="48.77915" lon="7.36572">
        <ele>331.2</ele>
        <time>2020-05-10T12:33:29Z</time>
      </trkpt>
      <trkpt lat="48.77915" lon="7.36567">
        <ele>331.4</ele>
        <time>2020-05-10T12:33:30Z</time>
      </trkpt>
      <trkpt lat="48.77916" lon="7.36559">
        <ele>331.8</ele>
        <time>2020-05-10T12:33:32Z</time>
      </trkpt>
      <trkpt lat="48.77916" lon="7.36555">
        <ele>331.9</ele>
        <time>2020-05-10T12:33:33Z</time>
      </trkpt>
      <trkpt lat="48.77917" lon="7.36545">
        <ele>332.4</ele>
        <time>2020-05-10T12:33:35Z</time>
      </trkpt>
      <trkpt lat="48.77917" lon="7.36535">
        <ele>332.7</ele>
        <time>2020-05-10T12:33:37Z</time>
      </trkpt>
      <trkpt lat="48.77917" lon="7.36528">
        <ele>333.1</ele>
        <time>2020-05-10T12:33:39Z</time>
      </trkpt>
      <trkpt lat="48.77918" lon="7.36525">
        <ele>333.2</ele>
        <time>2020-05-10T12:33:40Z</time>
      </trkpt>
      <trkpt lat="48.77918" lon="7.36518">
        <ele>333.5</ele>
        <time>2020-05-10T12:33:42Z</time>
      </trkpt>
      <trkpt lat="48.77919" lon="7.36514">
        <ele>333.6</ele>
        <time>2020-05-10T12:33:43Z</time>
      </trkpt>
      <trkpt lat="48.77919" lon="7.3651">
        <ele>333.8</ele>
        <time>2020-05-10T12:33:44Z</time>
      </trkpt>
      <trkpt lat="48.77919" lon="7.36501">
        <ele>334.2</ele>
        <time>2020-05-10T12:33:46Z</time>
      </trkpt>
      <trkpt lat="48.77918" lon="7.36497">
        <ele>334.4</ele>
        <time>2020-05-10T12:33:47Z</time>
      </trkpt>
      <trkpt lat="48.77917" lon="7.36493">
        <ele>334.6</ele>
        <time>2020-05-10T12:33:49Z</time>
      </trkpt>
      <trkpt lat="48.77917" lon="7.36486">
        <ele>334.9</ele>
        <time>2020-05-10T12:33:51Z</time>
      </trkpt>
      <trkpt lat="48.77916" lon="7.36473">
        <ele>335.4</ele>
        <time>2020-05-10T12:33:53Z</time>
      </trkpt>
      <trkpt lat="48.77915" lon="7.36468">
        <ele>335.6</ele>
        <time>2020-05-10T12:33:54Z</time>
      </trkpt>
      <trkpt lat="48.77915" lon="7.36464">
        <ele>335.8</ele>
        <time>2020-05-10T12:33:55Z</time>
      </trkpt>
      <trkpt lat="48.77916" lon="7.36456">
        <ele>336</ele>
        <time>2020-05-10T12:33:57Z</time>
      </trkpt>
      <trkpt lat="48.77917" lon="7.36451">
        <ele>336.2</ele>
        <time>2020-05-10T12:33:58Z</time>
      </trkpt>
      <trkpt lat="48.77918" lon="7.36443">
        <ele>336.5</ele>
        <time>2020-05-10T12:34:00Z</time>
      </trkpt>
      <trkpt lat="48.7792" lon="7.36437">
        <ele>336.7</ele>
        <time>2020-05-10T12:34:01Z</time>
      </trkpt>
      <trkpt lat="48.77918" lon="7.36429">
        <ele>336.9</ele>
        <time>2020-05-10T12:34:03Z</time>
      </trkpt>
      <trkpt lat="48.77917" lon="7.36426">
        <ele>337</ele>
        <time>2020-05-10T12:34:04Z</time>
      </trkpt>
      <trkpt lat="48.77916" lon="7.36423">
        <ele>337.1</ele>
        <time>2020-05-10T12:34:05Z</time>
      </trkpt>
      <trkpt lat="48.77915" lon="7.3642">
        <ele>337.2</ele>
        <time>2020-05-10T12:34:06Z</time>
      </trkpt>
      <trkpt lat="48.77913" lon="7.36409">
        <ele>337.5</ele>
        <time>2020-05-10T12:34:08Z</time>
      </trkpt>
      <trkpt lat="48.77912" lon="7.36399">
        <ele>337.8</ele>
        <time>2020-05-10T12:34:10Z</time>
      </trkpt>
      <trkpt lat="48.77911" lon="7.36393">
        <ele>337.9</ele>
        <time>2020-05-10T12:34:11Z</time>
      </trkpt>
      <trkpt lat="48.77909" lon="7.36384">
        <ele>338.1</ele>
        <time>2020-05-10T12:34:13Z</time>
      </trkpt>
      <trkpt lat="48.77907" lon="7.36377">
        <ele>338.3</ele>
        <time>2020-05-10T12:34:15Z</time>
      </trkpt>
      <trkpt lat="48.77906" lon="7.36371">
        <ele>338.4</ele>
        <time>2020-05-10T12:34:16Z</time>
      </trkpt>
      <trkpt lat="48.77906" lon="7.36361">
        <ele>338.7</ele>
        <time>2020-05-10T12:34:18Z</time>
      </trkpt>
      <trkpt lat="48.77906" lon="7.36355">
        <ele>338.8</ele>
        <time>2020-05-10T12:34:19Z</time>
      </trkpt>
      <trkpt lat="48.77906" lon="7.36352">
        <ele>338.9</ele>
        <time>2020-05-10T12:34:20Z</time>
      </trkpt>
      <trkpt lat="48.77904" lon="7.36342">
        <ele>339.1</ele>
        <time>2020-05-10T12:34:22Z</time>
      </trkpt>
      <trkpt lat="48.77903" lon="7.36337">
        <ele>339.2</ele>
        <time>2020-05-10T12:34:23Z</time>
      </trkpt>
      <trkpt lat="48.77902" lon="7.36325">
        <ele>339.5</ele>
        <time>2020-05-10T12:34:25Z</time>
      </trkpt>
      <trkpt lat="48.779" lon="7.36314">
        <ele>339.8</ele>
        <time>2020-05-10T12:34:27Z</time>
      </trkpt>
      <trkpt lat="48.77898" lon="7.36305">
        <ele>340</ele>
        <time>2020-05-10T12:34:29Z</time>
      </trkpt>
      <trkpt lat="48.77897" lon="7.363">
        <ele>340.1</ele>
        <time>2020-05-10T12:34:30Z</time>
      </trkpt>
      <trkpt lat="48.77895" lon="7.36288">
        <ele>340.4</ele>
        <time>2020-05-10T12:34:32Z</time>
      </trkpt>
      <trkpt lat="48.77894" lon="7.36283">
        <ele>340.5</ele>
        <time>2020-05-10T12:34:33Z</time>
      </trkpt>
      <trkpt lat="48.77892" lon="7.36278">
        <ele>340.6</ele>
        <time>2020-05-10T12:34:34Z</time>
      </trkpt>
      <trkpt lat="48.77891" lon="7.36273">
        <ele>340.7</ele>
        <time>2020-05-10T12:34:35Z</time>
      </trkpt>
      <trkpt lat="48.7789" lon="7.36262">
        <ele>340.8</ele>
        <time>2020-05-10T12:34:37Z</time>
      </trkpt>
      <trkpt lat="48.77888" lon="7.3625">
        <ele>341</ele>
        <time>2020-05-10T12:34:39Z</time>
      </trkpt>
      <trkpt lat="48.77886" lon="7.36245">
        <ele>341</ele>
        <time>2020-05-10T12:34:40Z</time>
      </trkpt>
      <trkpt lat="48.77884" lon="7.3624">
        <ele>341.1</ele>
        <time>2020-05-10T12:34:41Z</time>
      </trkpt>
      <trkpt lat="48.77882" lon="7.36228">
        <ele>341.2</ele>
        <time>2020-05-10T12:34:43Z</time>
      </trkpt>
      <trkpt lat="48.77879" lon="7.36214">
        <ele>341.3</ele>
        <time>2020-05-10T12:34:45Z</time>
      </trkpt>
      <trkpt lat="48.77878" lon="7.36208">
        <ele>341.5</ele>
        <time>2020-05-10T12:34:46Z</time>
      </trkpt>
      <trkpt lat="48.77875" lon="7.36195">
        <ele>341.6</ele>
        <time>2020-05-10T12:34:48Z</time>
      </trkpt>
      <trkpt lat="48.77872" lon="7.36182">
        <ele>341.7</ele>
        <time>2020-05-10T12:34:50Z</time>
      </trkpt>
      <trkpt lat="48.77872" lon="7.36176">
        <ele>341.8</ele>
        <time>2020-05-10T12:34:51Z</time>
      </trkpt>
      <trkpt lat="48.7787" lon="7.36165">
        <ele>341.9</ele>
        <time>2020-05-10T12:34:53Z</time>
      </trkpt>
      <trkpt lat="48.77866" lon="7.36151">
        <ele>342</ele>
        <time>2020-05-10T12:34:55Z</time>
      </trkpt>
      <trkpt lat="48.77864" lon="7.36137">
        <ele>342.2</ele>
        <time>2020-05-10T12:34:57Z</time>
      </trkpt>
      <trkpt lat="48.77862" lon="7.3613">
        <ele>342.3</ele>
        <time>2020-05-10T12:34:58Z</time>
      </trkpt>
      <trkpt lat="48.7786" lon="7.36124">
        <ele>342.3</ele>
        <time>2020-05-10T12:34:59Z</time>
      </trkpt>
      <trkpt lat="48.77858" lon="7.36119">
        <ele>342.4</ele>
        <time>2020-05-10T12:35:00Z</time>
      </trkpt>
      <trkpt lat="48.77858" lon="7.36114">
        <ele>342.5</ele>
        <time>2020-05-10T12:35:01Z</time>
      </trkpt>
      <trkpt lat="48.77856" lon="7.36102">
        <ele>342.7</ele>
        <time>2020-05-10T12:35:03Z</time>
      </trkpt>
      <trkpt lat="48.77855" lon="7.36095">
        <ele>342.8</ele>
        <time>2020-05-10T12:35:04Z</time>
      </trkpt>
      <trkpt lat="48.77854" lon="7.36083">
        <ele>343.1</ele>
        <time>2020-05-10T12:35:06Z</time>
      </trkpt>
      <trkpt lat="48.77853" lon="7.36069">
        <ele>343.5</ele>
        <time>2020-05-10T12:35:08Z</time>
      </trkpt>
      <trkpt lat="48.77852" lon="7.36063">
        <ele>343.6</ele>
        <time>2020-05-10T12:35:09Z</time>
      </trkpt>
      <trkpt lat="48.77852" lon="7.36057">
        <ele>343.8</ele>
        <time>2020-05-10T12:35:10Z</time>
      </trkpt>
      <trkpt lat="48.77851" lon="7.3605">
        <ele>344</ele>
        <time>2020-05-10T12:35:11Z</time>
      </trkpt>
      <trkpt lat="48.7785" lon="7.36038">
        <ele>344.3</ele>
        <time>2020-05-10T12:35:13Z</time>
      </trkpt>
      <trkpt lat="48.77847" lon="7.36025">
        <ele>344.8</ele>
        <time>2020-05-10T12:35:15Z</time>
      </trkpt>
      <trkpt lat="48.77846" lon="7.3602">
        <ele>345</ele>
        <time>2020-05-10T12:35:16Z</time>
      </trkpt>
      <trkpt lat="48.77844" lon="7.36007">
        <ele>345.4</ele>
        <time>2020-05-10T12:35:18Z</time>
      </trkpt>
      <trkpt lat="48.77842" lon="7.36002">
        <ele>345.6</ele>
        <time>2020-05-10T12:35:19Z</time>
      </trkpt>
      <trkpt lat="48.77841" lon="7.35996">
        <ele>345.7</ele>
        <time>2020-05-10T12:35:20Z</time>
      </trkpt>
      <trkpt lat="48.77841" lon="7.35991">
        <ele>345.9</ele>
        <time>2020-05-10T12:35:21Z</time>
      </trkpt>
      <trkpt lat="48.7784" lon="7.35979">
        <ele>346.1</ele>
        <time>2020-05-10T12:35:23Z</time>
      </trkpt>
      <trkpt lat="48.77838" lon="7.35973">
        <ele>346.3</ele>
        <time>2020-05-10T12:35:24Z</time>
      </trkpt>
      <trkpt lat="48.77837" lon="7.35967">
        <ele>346.4</ele>
        <time>2020-05-10T12:35:25Z</time>
      </trkpt>
      <trkpt lat="48.77836" lon="7.35955">
        <ele>346.5</ele>
        <time>2020-05-10T12:35:27Z</time>
      </trkpt>
      <trkpt lat="48.77834" lon="7.35941">
        <ele>346.5</ele>
        <time>2020-05-10T12:35:29Z</time>
      </trkpt>
      <trkpt lat="48.77832" lon="7.35934">
        <ele>346.5</ele>
        <time>2020-05-10T12:35:30Z</time>
      </trkpt>
      <trkpt lat="48.7783" lon="7.35927">
        <ele>346.6</ele>
        <time>2020-05-10T12:35:31Z</time>
      </trkpt>
      <trkpt lat="48.77827" lon="7.35913">
        <ele>346.6</ele>
        <time>2020-05-10T12:35:33Z</time>
      </trkpt>
      <trkpt lat="48.77827" lon="7.35907">
        <ele>346.5</ele>
        <time>2020-05-10T12:35:34Z</time>
      </trkpt>
      <trkpt lat="48.77827" lon="7.359">
        <ele>346.5</ele>
        <time>2020-05-10T12:35:35Z</time>
      </trkpt>
      <trkpt lat="48.77826" lon="7.35891">
        <ele>346.5</ele>
        <time>2020-05-10T12:35:36Z</time>
      </trkpt>
      <trkpt lat="48.77823" lon="7.35877">
        <ele>346.4</ele>
        <time>2020-05-10T12:35:38Z</time>
      </trkpt>
      <trkpt lat="48.77823" lon="7.3587">
        <ele>346.3</ele>
        <time>2020-05-10T12:35:39Z</time>
      </trkpt>
      <trkpt lat="48.77821" lon="7.3586">
        <ele>346.2</ele>
        <time>2020-05-10T12:35:40Z</time>
      </trkpt>
      <trkpt lat="48.77818" lon="7.35843">
        <ele>346.2</ele>
        <time>2020-05-10T12:35:42Z</time>
      </trkpt>
      <trkpt lat="48.77813" lon="7.35827">
        <ele>346.2</ele>
        <time>2020-05-10T12:35:44Z</time>
      </trkpt>
      <trkpt lat="48.77809" lon="7.35811">
        <ele>346.2</ele>
        <time>2020-05-10T12:35:46Z</time>
      </trkpt>
      <trkpt lat="48.77802" lon="7.35795">
        <ele>346.2</ele>
        <time>2020-05-10T12:35:48Z</time>
      </trkpt>
      <trkpt lat="48.77797" lon="7.35781">
        <ele>346.1</ele>
        <time>2020-05-10T12:35:50Z</time>
      </trkpt>
      <trkpt lat="48.77793" lon="7.35766">
        <ele>346.1</ele>
        <time>2020-05-10T12:35:52Z</time>
      </trkpt>
      <trkpt lat="48.77789" lon="7.35757">
        <ele>346.1</ele>
        <time>2020-05-10T12:35:53Z</time>
      </trkpt>
      <trkpt lat="48.77784" lon="7.35742">
        <ele>346.2</ele>
        <time>2020-05-10T12:35:55Z</time>
      </trkpt>
      <trkpt lat="48.77782" lon="7.35733">
        <ele>346.3</ele>
        <time>2020-05-10T12:35:56Z</time>
      </trkpt>
      <trkpt lat="48.77781" lon="7.35724">
        <ele>346.5</ele>
        <time>2020-05-10T12:35:57Z</time>
      </trkpt>
      <trkpt lat="48.77778" lon="7.35708">
        <ele>346.9</ele>
        <time>2020-05-10T12:35:59Z</time>
      </trkpt>
      <trkpt lat="48.77777" lon="7.35701">
        <ele>347.1</ele>
        <time>2020-05-10T12:36:00Z</time>
      </trkpt>
      <trkpt lat="48.77775" lon="7.35694">
        <ele>347.3</ele>
        <time>2020-05-10T12:36:01Z</time>
      </trkpt>
      <trkpt lat="48.77772" lon="7.35681">
        <ele>347.8</ele>
        <time>2020-05-10T12:36:03Z</time>
      </trkpt>
      <trkpt lat="48.77769" lon="7.35675">
        <ele>348</ele>
        <time>2020-05-10T12:36:04Z</time>
      </trkpt>
      <trkpt lat="48.77768" lon="7.35659">
        <ele>348.5</ele>
        <time>2020-05-10T12:36:06Z</time>
      </trkpt>
      <trkpt lat="48.77766" lon="7.35651">
        <ele>348.8</ele>
        <time>2020-05-10T12:36:07Z</time>
      </trkpt>
      <trkpt lat="48.77764" lon="7.35641">
        <ele>349</ele>
        <time>2020-05-10T12:36:09Z</time>
      </trkpt>
      <trkpt lat="48.77763" lon="7.35629">
        <ele>349.3</ele>
        <time>2020-05-10T12:36:11Z</time>
      </trkpt>
      <trkpt lat="48.77762" lon="7.35622">
        <ele>349.4</ele>
        <time>2020-05-10T12:36:12Z</time>
      </trkpt>
      <trkpt lat="48.77761" lon="7.35616">
        <ele>349.6</ele>
        <time>2020-05-10T12:36:13Z</time>
      </trkpt>
      <trkpt lat="48.77756" lon="7.35601">
        <ele>349.9</ele>
        <time>2020-05-10T12:36:15Z</time>
      </trkpt>
      <trkpt lat="48.77753" lon="7.35595">
        <ele>350.1</ele>
        <time>2020-05-10T12:36:16Z</time>
      </trkpt>
      <trkpt lat="48.77748" lon="7.35585">
        <ele>350.6</ele>
        <time>2020-05-10T12:36:18Z</time>
      </trkpt>
      <trkpt lat="48.77745" lon="7.35579">
        <ele>350.7</ele>
        <time>2020-05-10T12:36:19Z</time>
      </trkpt>
      <trkpt lat="48.77738" lon="7.35571">
        <ele>351.1</ele>
        <time>2020-05-10T12:36:21Z</time>
      </trkpt>
      <trkpt lat="48.77733" lon="7.35571">
        <ele>351.4</ele>
        <time>2020-05-10T12:36:22Z</time>
      </trkpt>
      <trkpt lat="48.77726" lon="7.35568">
        <ele>351.9</ele>
        <time>2020-05-10T12:36:24Z</time>
      </trkpt>
      <trkpt lat="48.77724" lon="7.35563">
        <ele>352.3</ele>
        <time>2020-05-10T12:36:25Z</time>
      </trkpt>
      <trkpt lat="48.77721" lon="7.35553">
        <ele>353.3</ele>
        <time>2020-05-10T12:36:27Z</time>
      </trkpt>
      <trkpt lat="48.7772" lon="7.3555">
        <ele>353.8</ele>
        <time>2020-05-10T12:36:28Z</time>
      </trkpt>
      <trkpt lat="48.77719" lon="7.35549">
        <ele>353.8</ele>
        <time>2020-05-10T12:36:29Z</time>
      </trkpt>
      <trkpt lat="48.7772" lon="7.35549">
        <ele>353.8</ele>
        <time>2020-05-10T12:36:30Z</time>
      </trkpt>
      <trkpt lat="48.77719" lon="7.35548">
        <ele>354.4</ele>
        <time>2020-05-10T12:36:32Z</time>
      </trkpt>
      <trkpt lat="48.77719" lon="7.35546">
        <ele>354.4</ele>
        <time>2020-05-10T12:36:33Z</time>
      </trkpt>
      <trkpt lat="48.77718" lon="7.35545">
        <ele>354.4</ele>
        <time>2020-05-10T12:36:35Z</time>
      </trkpt>
      <trkpt lat="48.77718" lon="7.35544">
        <ele>354.4</ele>
        <time>2020-05-10T12:36:37Z</time>
      </trkpt>
      <trkpt lat="48.77716" lon="7.35546">
        <ele>354.3</ele>
        <time>2020-05-10T12:36:39Z</time>
      </trkpt>
      <trkpt lat="48.77716" lon="7.35546">
        <ele>354.3</ele>
        <time>2020-05-10T12:36:40Z</time>
      </trkpt>
      <trkpt lat="48.77715" lon="7.35547">
        <ele>354.3</ele>
        <time>2020-05-10T12:36:41Z</time>
      </trkpt>
      <trkpt lat="48.77715" lon="7.35547">
        <ele>354.3</ele>
        <time>2020-05-10T12:36:43Z</time>
      </trkpt>
      <trkpt lat="48.77715" lon="7.35547">
        <ele>354.3</ele>
        <time>2020-05-10T12:36:44Z</time>
      </trkpt>
      <trkpt lat="48.77715" lon="7.35546">
        <ele>354.3</ele>
        <time>2020-05-10T12:36:46Z</time>
      </trkpt>
      <trkpt lat="48.77714" lon="7.35546">
        <ele>354.3</ele>
        <time>2020-05-10T12:36:47Z</time>
      </trkpt>
      <trkpt lat="48.77713" lon="7.35545">
        <ele>354.3</ele>
        <time>2020-05-10T12:36:49Z</time>
      </trkpt>
      <trkpt lat="48.77713" lon="7.35545">
        <ele>354.3</ele>
        <time>2020-05-10T12:36:50Z</time>
      </trkpt>
      <trkpt lat="48.77712" lon="7.35545">
        <ele>354.3</ele>
        <time>2020-05-10T12:36:52Z</time>
      </trkpt>
      <trkpt lat="48.77711" lon="7.35546">
        <ele>354.4</ele>
        <time>2020-05-10T12:39:22Z</time>
      </trkpt>
      <trkpt lat="48.77711" lon="7.35546">
        <ele>354.4</ele>
        <time>2020-05-10T12:39:24Z</time>
      </trkpt>
      <trkpt lat="48.77711" lon="7.35546">
        <ele>354.4</ele>
        <time>2020-05-10T12:39:25Z</time>
      </trkpt>
      <trkpt lat="48.77711" lon="7.35546">
        <ele>354.4</ele>
        <time>2020-05-10T12:39:27Z</time>
      </trkpt>
      <trkpt lat="48.77711" lon="7.35546">
        <ele>354.4</ele>
        <time>2020-05-10T12:39:29Z</time>
      </trkpt>
      <trkpt lat="48.7771" lon="7.35546">
        <ele>354.4</ele>
        <time>2020-05-10T12:39:31Z</time>
      </trkpt>
      <trkpt lat="48.7771" lon="7.35544">
        <ele>354.4</ele>
        <time>2020-05-10T12:39:33Z</time>
      </trkpt>
      <trkpt lat="48.77707" lon="7.35538">
        <ele>356</ele>
        <time>2020-05-10T12:39:45Z</time>
      </trkpt>
      <trkpt lat="48.77707" lon="7.35537">
        <ele>355.9</ele>
        <time>2020-05-10T12:39:46Z</time>
      </trkpt>
      <trkpt lat="48.77707" lon="7.35534">
        <ele>356.7</ele>
        <time>2020-05-10T12:39:48Z</time>
      </trkpt>
      <trkpt lat="48.77707" lon="7.35531">
        <ele>356.7</ele>
        <time>2020-05-10T12:39:50Z</time>
      </trkpt>
      <trkpt lat="48.77707" lon="7.3553">
        <ele>357.5</ele>
        <time>2020-05-10T12:39:51Z</time>
      </trkpt>
      <trkpt lat="48.77706" lon="7.35531">
        <ele>356.9</ele>
        <time>2020-05-10T12:39:53Z</time>
      </trkpt>
      <trkpt lat="48.77706" lon="7.35531">
        <ele>356.9</ele>
        <time>2020-05-10T12:39:54Z</time>
      </trkpt>
      <trkpt lat="48.77705" lon="7.35532">
        <ele>356.9</ele>
        <time>2020-05-10T12:39:55Z</time>
      </trkpt>
      <trkpt lat="48.77705" lon="7.35533">
        <ele>356.9</ele>
        <time>2020-05-10T12:39:57Z</time>
      </trkpt>
      <trkpt lat="48.77703" lon="7.35536">
        <ele>356.5</ele>
        <time>2020-05-10T12:39:59Z</time>
      </trkpt>
      <trkpt lat="48.77702" lon="7.35536">
        <ele>356.4</ele>
        <time>2020-05-10T12:40:00Z</time>
      </trkpt>
      <trkpt lat="48.77702" lon="7.35537">
        <ele>356.4</ele>
        <time>2020-05-10T12:40:01Z</time>
      </trkpt>
      <trkpt lat="48.777" lon="7.35539">
        <ele>356.8</ele>
        <time>2020-05-10T12:40:03Z</time>
      </trkpt>
      <trkpt lat="48.777" lon="7.35539">
        <ele>356.1</ele>
        <time>2020-05-10T12:40:04Z</time>
      </trkpt>
      <trkpt lat="48.77699" lon="7.3554">
        <ele>356.1</ele>
        <time>2020-05-10T12:40:05Z</time>
      </trkpt>
      <trkpt lat="48.77698" lon="7.35541">
        <ele>356.5</ele>
        <time>2020-05-10T12:40:07Z</time>
      </trkpt>
      <trkpt lat="48.77696" lon="7.35542">
        <ele>356.5</ele>
        <time>2020-05-10T12:40:08Z</time>
      </trkpt>
      <trkpt lat="48.77694" lon="7.35545">
        <ele>356.3</ele>
        <time>2020-05-10T12:40:10Z</time>
      </trkpt>
      <trkpt lat="48.77693" lon="7.35546">
        <ele>356.3</ele>
        <time>2020-05-10T12:40:11Z</time>
      </trkpt>
      <trkpt lat="48.77692" lon="7.35548">
        <ele>356.3</ele>
        <time>2020-05-10T12:40:13Z</time>
      </trkpt>
      <trkpt lat="48.7769" lon="7.35549">
        <ele>356.3</ele>
        <time>2020-05-10T12:40:15Z</time>
      </trkpt>
      <trkpt lat="48.77689" lon="7.3555">
        <ele>357</ele>
        <time>2020-05-10T12:40:16Z</time>
      </trkpt>
      <trkpt lat="48.77688" lon="7.35547">
        <ele>357.7</ele>
        <time>2020-05-10T12:40:18Z</time>
      </trkpt>
      <trkpt lat="48.77689" lon="7.35544">
        <ele>357.6</ele>
        <time>2020-05-10T12:40:20Z</time>
      </trkpt>
      <trkpt lat="48.77689" lon="7.35543">
        <ele>358.4</ele>
        <time>2020-05-10T12:40:21Z</time>
      </trkpt>
      <trkpt lat="48.77692" lon="7.35537">
        <ele>358.4</ele>
        <time>2020-05-10T12:40:23Z</time>
      </trkpt>
      <trkpt lat="48.77694" lon="7.35533">
        <ele>358.6</ele>
        <time>2020-05-10T12:40:25Z</time>
      </trkpt>
      <trkpt lat="48.77695" lon="7.35531">
        <ele>358.6</ele>
        <time>2020-05-10T12:40:27Z</time>
      </trkpt>
      <trkpt lat="48.77696" lon="7.35527">
        <ele>358.8</ele>
        <time>2020-05-10T12:40:29Z</time>
      </trkpt>
      <trkpt lat="48.77696" lon="7.35523">
        <ele>359.6</ele>
        <time>2020-05-10T12:40:31Z</time>
      </trkpt>
      <trkpt lat="48.77697" lon="7.35522">
        <ele>359.6</ele>
        <time>2020-05-10T12:40:32Z</time>
      </trkpt>
      <trkpt lat="48.77697" lon="7.35518">
        <ele>360.4</ele>
        <time>2020-05-10T12:40:34Z</time>
      </trkpt>
      <trkpt lat="48.77697" lon="7.35515">
        <ele>361.2</ele>
        <time>2020-05-10T12:40:36Z</time>
      </trkpt>
      <trkpt lat="48.77698" lon="7.35513">
        <ele>361.2</ele>
        <time>2020-05-10T12:40:37Z</time>
      </trkpt>
      <trkpt lat="48.77699" lon="7.35511">
        <ele>361.6</ele>
        <time>2020-05-10T12:40:39Z</time>
      </trkpt>
      <trkpt lat="48.77699" lon="7.3551">
        <ele>361.6</ele>
        <time>2020-05-10T12:40:41Z</time>
      </trkpt>
      <trkpt lat="48.77699" lon="7.35507">
        <ele>362.5</ele>
        <time>2020-05-10T12:40:43Z</time>
      </trkpt>
      <trkpt lat="48.777" lon="7.35503">
        <ele>363.4</ele>
        <time>2020-05-10T12:40:45Z</time>
      </trkpt>
      <trkpt lat="48.77701" lon="7.35499">
        <ele>364.1</ele>
        <time>2020-05-10T12:40:47Z</time>
      </trkpt>
      <trkpt lat="48.77702" lon="7.35497">
        <ele>364.1</ele>
        <time>2020-05-10T12:40:49Z</time>
      </trkpt>
      <trkpt lat="48.77702" lon="7.35495">
        <ele>365.2</ele>
        <time>2020-05-10T12:40:51Z</time>
      </trkpt>
      <trkpt lat="48.77703" lon="7.35492">
        <ele>365.1</ele>
        <time>2020-05-10T12:40:53Z</time>
      </trkpt>
      <trkpt lat="48.77703" lon="7.35492">
        <ele>366.2</ele>
        <time>2020-05-10T12:40:54Z</time>
      </trkpt>
      <trkpt lat="48.77704" lon="7.35491">
        <ele>366</ele>
        <time>2020-05-10T12:40:55Z</time>
      </trkpt>
      <trkpt lat="48.77704" lon="7.3549">
        <ele>366</ele>
        <time>2020-05-10T12:40:56Z</time>
      </trkpt>
      <trkpt lat="48.77705" lon="7.35488">
        <ele>366</ele>
        <time>2020-05-10T12:40:57Z</time>
      </trkpt>
      <trkpt lat="48.77706" lon="7.35484">
        <ele>367.1</ele>
        <time>2020-05-10T12:40:59Z</time>
      </trkpt>
      <trkpt lat="48.77707" lon="7.35481">
        <ele>368.1</ele>
        <time>2020-05-10T12:41:01Z</time>
      </trkpt>
      <trkpt lat="48.77708" lon="7.35477">
        <ele>369.2</ele>
        <time>2020-05-10T12:41:03Z</time>
      </trkpt>
      <trkpt lat="48.77707" lon="7.35475">
        <ele>370.5</ele>
        <time>2020-05-10T12:41:05Z</time>
      </trkpt>
      <trkpt lat="48.77707" lon="7.35473">
        <ele>370.5</ele>
        <time>2020-05-10T12:41:06Z</time>
      </trkpt>
      <trkpt lat="48.77706" lon="7.35473">
        <ele>370.6</ele>
        <time>2020-05-10T12:41:08Z</time>
      </trkpt>
      <trkpt lat="48.77705" lon="7.35473">
        <ele>370.6</ele>
        <time>2020-05-10T12:41:09Z</time>
      </trkpt>
      <trkpt lat="48.77704" lon="7.35474">
        <ele>370.6</ele>
        <time>2020-05-10T12:41:10Z</time>
      </trkpt>
      <trkpt lat="48.77702" lon="7.35475">
        <ele>369.5</ele>
        <time>2020-05-10T12:41:12Z</time>
      </trkpt>
      <trkpt lat="48.777" lon="7.35478">
        <ele>369.7</ele>
        <time>2020-05-10T12:41:14Z</time>
      </trkpt>
      <trkpt lat="48.777" lon="7.35479">
        <ele>368.5</ele>
        <time>2020-05-10T12:41:15Z</time>
      </trkpt>
      <trkpt lat="48.77697" lon="7.35483">
        <ele>367.8</ele>
        <time>2020-05-10T12:41:17Z</time>
      </trkpt>
      <trkpt lat="48.77695" lon="7.35484">
        <ele>368.2</ele>
        <time>2020-05-10T12:41:18Z</time>
      </trkpt>
      <trkpt lat="48.77694" lon="7.35484">
        <ele>368.2</ele>
        <time>2020-05-10T12:41:19Z</time>
      </trkpt>
      <trkpt lat="48.77692" lon="7.35484">
        <ele>368.7</ele>
        <time>2020-05-10T12:41:21Z</time>
      </trkpt>
      <trkpt lat="48.77691" lon="7.35484">
        <ele>368.7</ele>
        <time>2020-05-10T12:41:23Z</time>
      </trkpt>
      <trkpt lat="48.77689" lon="7.35485">
        <ele>369.3</ele>
        <time>2020-05-10T12:41:25Z</time>
      </trkpt>
      <trkpt lat="48.77688" lon="7.35485">
        <ele>369.3</ele>
        <time>2020-05-10T12:41:26Z</time>
      </trkpt>
      <trkpt lat="48.77687" lon="7.35486">
        <ele>369.3</ele>
        <time>2020-05-10T12:41:28Z</time>
      </trkpt>
      <trkpt lat="48.77687" lon="7.35486">
        <ele>369.3</ele>
        <time>2020-05-10T12:41:29Z</time>
      </trkpt>
      <trkpt lat="48.77687" lon="7.35486">
        <ele>369.3</ele>
        <time>2020-05-10T12:41:30Z</time>
      </trkpt>
      <trkpt lat="48.77685" lon="7.35487">
        <ele>369.9</ele>
        <time>2020-05-10T12:41:32Z</time>
      </trkpt>
      <trkpt lat="48.77684" lon="7.35487">
        <ele>369.9</ele>
        <time>2020-05-10T12:41:33Z</time>
      </trkpt>
      <trkpt lat="48.77683" lon="7.35488">
        <ele>369.6</ele>
        <time>2020-05-10T12:41:35Z</time>
      </trkpt>
      <trkpt lat="48.77682" lon="7.35489">
        <ele>369.6</ele>
        <time>2020-05-10T12:41:37Z</time>
      </trkpt>
      <trkpt lat="48.77682" lon="7.3549">
        <ele>369.6</ele>
        <time>2020-05-10T12:41:38Z</time>
      </trkpt>
      <trkpt lat="48.77681" lon="7.35491">
        <ele>369.6</ele>
        <time>2020-05-10T12:41:39Z</time>
      </trkpt>
      <trkpt lat="48.77679" lon="7.35491">
        <ele>370.4</ele>
        <time>2020-05-10T12:41:41Z</time>
      </trkpt>
      <trkpt lat="48.77678" lon="7.3549">
        <ele>371.2</ele>
        <time>2020-05-10T12:41:42Z</time>
      </trkpt>
      <trkpt lat="48.77677" lon="7.3549">
        <ele>371.2</ele>
        <time>2020-05-10T12:41:44Z</time>
      </trkpt>
      <trkpt lat="48.77677" lon="7.35488">
        <ele>371.2</ele>
        <time>2020-05-10T12:41:45Z</time>
      </trkpt>
      <trkpt lat="48.77678" lon="7.35486">
        <ele>372.2</ele>
        <time>2020-05-10T12:41:47Z</time>
      </trkpt>
      <trkpt lat="48.77678" lon="7.35485">
        <ele>372.2</ele>
        <time>2020-05-10T12:41:48Z</time>
      </trkpt>
      <trkpt lat="48.77679" lon="7.35483">
        <ele>372.4</ele>
        <time>2020-05-10T12:41:49Z</time>
      </trkpt>
      <trkpt lat="48.77679" lon="7.35479">
        <ele>373.5</ele>
        <time>2020-05-10T12:41:51Z</time>
      </trkpt>
      <trkpt lat="48.7768" lon="7.35475">
        <ele>373.5</ele>
        <time>2020-05-10T12:41:52Z</time>
      </trkpt>
      <trkpt lat="48.7768" lon="7.35475">
        <ele>373.5</ele>
        <time>2020-05-10T12:41:53Z</time>
      </trkpt>
      <trkpt lat="48.7768" lon="7.35473">
        <ele>374.7</ele>
        <time>2020-05-10T12:41:55Z</time>
      </trkpt>
      <trkpt lat="48.77681" lon="7.35471">
        <ele>374</ele>
        <time>2020-05-10T12:41:57Z</time>
      </trkpt>
      <trkpt lat="48.77682" lon="7.35471">
        <ele>374</ele>
        <time>2020-05-10T12:41:58Z</time>
      </trkpt>
      <trkpt lat="48.77681" lon="7.3547">
        <ele>376</ele>
        <time>2020-05-10T12:42:00Z</time>
      </trkpt>
      <trkpt lat="48.7768" lon="7.35469">
        <ele>376</ele>
        <time>2020-05-10T12:42:01Z</time>
      </trkpt>
      <trkpt lat="48.7768" lon="7.35467">
        <ele>376</ele>
        <time>2020-05-10T12:42:02Z</time>
      </trkpt>
      <trkpt lat="48.7768" lon="7.35464">
        <ele>377.5</ele>
        <time>2020-05-10T12:42:04Z</time>
      </trkpt>
      <trkpt lat="48.7768" lon="7.3546">
        <ele>379</ele>
        <time>2020-05-10T12:42:06Z</time>
      </trkpt>
      <trkpt lat="48.77681" lon="7.35457">
        <ele>379.8</ele>
        <time>2020-05-10T12:42:08Z</time>
      </trkpt>
      <trkpt lat="48.77682" lon="7.35455">
        <ele>379.8</ele>
        <time>2020-05-10T12:42:09Z</time>
      </trkpt>
      <trkpt lat="48.77682" lon="7.35454">
        <ele>379.8</ele>
        <time>2020-05-10T12:42:10Z</time>
      </trkpt>
      <trkpt lat="48.77682" lon="7.35451">
        <ele>381.4</ele>
        <time>2020-05-10T12:42:12Z</time>
      </trkpt>
      <trkpt lat="48.77681" lon="7.35449">
        <ele>383.7</ele>
        <time>2020-05-10T12:42:14Z</time>
      </trkpt>
      <trkpt lat="48.77678" lon="7.3545">
        <ele>382.7</ele>
        <time>2020-05-10T12:42:16Z</time>
      </trkpt>
      <trkpt lat="48.77676" lon="7.35451">
        <ele>382.7</ele>
        <time>2020-05-10T12:42:18Z</time>
      </trkpt>
      <trkpt lat="48.77675" lon="7.35452">
        <ele>383.5</ele>
        <time>2020-05-10T12:42:19Z</time>
      </trkpt>
      <trkpt lat="48.77674" lon="7.35453">
        <ele>383.5</ele>
        <time>2020-05-10T12:42:20Z</time>
      </trkpt>
      <trkpt lat="48.77674" lon="7.35453">
        <ele>383.4</ele>
        <time>2020-05-10T12:42:22Z</time>
      </trkpt>
      <trkpt lat="48.77672" lon="7.35453">
        <ele>382.7</ele>
        <time>2020-05-10T12:42:24Z</time>
      </trkpt>
      <trkpt lat="48.77671" lon="7.35454">
        <ele>382.6</ele>
        <time>2020-05-10T12:42:26Z</time>
      </trkpt>
      <trkpt lat="48.77669" lon="7.35456">
        <ele>382.4</ele>
        <time>2020-05-10T12:42:28Z</time>
      </trkpt>
      <trkpt lat="48.77667" lon="7.35458">
        <ele>382.2</ele>
        <time>2020-05-10T12:42:30Z</time>
      </trkpt>
      <trkpt lat="48.77667" lon="7.35459">
        <ele>382.1</ele>
        <time>2020-05-10T12:42:31Z</time>
      </trkpt>
      <trkpt lat="48.77666" lon="7.35459">
        <ele>382.1</ele>
        <time>2020-05-10T12:42:32Z</time>
      </trkpt>
      <trkpt lat="48.77666" lon="7.35461">
        <ele>382</ele>
        <time>2020-05-10T12:42:34Z</time>
      </trkpt>
      <trkpt lat="48.77666" lon="7.35463">
        <ele>381.9</ele>
        <time>2020-05-10T12:42:35Z</time>
      </trkpt>
      <trkpt lat="48.77665" lon="7.35463">
        <ele>381.8</ele>
        <time>2020-05-10T12:42:36Z</time>
      </trkpt>
      <trkpt lat="48.77664" lon="7.35464">
        <ele>381.7</ele>
        <time>2020-05-10T12:42:37Z</time>
      </trkpt>
      <trkpt lat="48.77661" lon="7.35466">
        <ele>381.4</ele>
        <time>2020-05-10T12:42:39Z</time>
      </trkpt>
      <trkpt lat="48.7766" lon="7.35466">
        <ele>381.3</ele>
        <time>2020-05-10T12:42:40Z</time>
      </trkpt>
      <trkpt lat="48.77659" lon="7.35467">
        <ele>381.3</ele>
        <time>2020-05-10T12:42:42Z</time>
      </trkpt>
      <trkpt lat="48.77659" lon="7.35467">
        <ele>381.2</ele>
        <time>2020-05-10T12:42:43Z</time>
      </trkpt>
      <trkpt lat="48.77657" lon="7.35468">
        <ele>381</ele>
        <time>2020-05-10T12:42:45Z</time>
      </trkpt>
      <trkpt lat="48.77656" lon="7.3547">
        <ele>380.8</ele>
        <time>2020-05-10T12:42:47Z</time>
      </trkpt>
      <trkpt lat="48.77655" lon="7.35473">
        <ele>380.6</ele>
        <time>2020-05-10T12:42:49Z</time>
      </trkpt>
      <trkpt lat="48.77655" lon="7.35474">
        <ele>380.5</ele>
        <time>2020-05-10T12:42:50Z</time>
      </trkpt>
      <trkpt lat="48.77653" lon="7.35479">
        <ele>380.1</ele>
        <time>2020-05-10T12:42:52Z</time>
      </trkpt>
      <trkpt lat="48.77651" lon="7.35482">
        <ele>379.8</ele>
        <time>2020-05-10T12:42:54Z</time>
      </trkpt>
      <trkpt lat="48.77648" lon="7.35487">
        <ele>379.3</ele>
        <time>2020-05-10T12:42:56Z</time>
      </trkpt>
      <trkpt lat="48.77646" lon="7.3549">
        <ele>378.9</ele>
        <time>2020-05-10T12:42:57Z</time>
      </trkpt>
      <trkpt lat="48.77645" lon="7.35495">
        <ele>378.5</ele>
        <time>2020-05-10T12:42:59Z</time>
      </trkpt>
      <trkpt lat="48.77643" lon="7.355">
        <ele>378.1</ele>
        <time>2020-05-10T12:43:01Z</time>
      </trkpt>
      <trkpt lat="48.77641" lon="7.35503">
        <ele>377.7</ele>
        <time>2020-05-10T12:43:02Z</time>
      </trkpt>
      <trkpt lat="48.7764" lon="7.35504">
        <ele>377.6</ele>
        <time>2020-05-10T12:43:03Z</time>
      </trkpt>
      <trkpt lat="48.77638" lon="7.35507">
        <ele>377.4</ele>
        <time>2020-05-10T12:43:05Z</time>
      </trkpt>
      <trkpt lat="48.77638" lon="7.35509">
        <ele>377.2</ele>
        <time>2020-05-10T12:43:07Z</time>
      </trkpt>
      <trkpt lat="48.77637" lon="7.35509">
        <ele>377.2</ele>
        <time>2020-05-10T12:43:08Z</time>
      </trkpt>
      <trkpt lat="48.77638" lon="7.35509">
        <ele>377.2</ele>
        <time>2020-05-10T12:43:10Z</time>
      </trkpt>
      <trkpt lat="48.77638" lon="7.35509">
        <ele>377.1</ele>
        <time>2020-05-10T12:43:12Z</time>
      </trkpt>
      <trkpt lat="48.77638" lon="7.35509">
        <ele>377.1</ele>
        <time>2020-05-10T12:43:13Z</time>
      </trkpt>
      <trkpt lat="48.77637" lon="7.35511">
        <ele>377</ele>
        <time>2020-05-10T12:43:15Z</time>
      </trkpt>
      <trkpt lat="48.77636" lon="7.35512">
        <ele>376.8</ele>
        <time>2020-05-10T12:43:17Z</time>
      </trkpt>
      <trkpt lat="48.77636" lon="7.35512">
        <ele>376.8</ele>
        <time>2020-05-10T12:43:18Z</time>
      </trkpt>
      <trkpt lat="48.77635" lon="7.35512">
        <ele>376.8</ele>
        <time>2020-05-10T12:43:19Z</time>
      </trkpt>
      <trkpt lat="48.77635" lon="7.35512">
        <ele>376.7</ele>
        <time>2020-05-10T12:43:21Z</time>
      </trkpt>
      <trkpt lat="48.77635" lon="7.35512">
        <ele>376.7</ele>
        <time>2020-05-10T12:43:22Z</time>
      </trkpt>
      <trkpt lat="48.77635" lon="7.35513">
        <ele>376.7</ele>
        <time>2020-05-10T12:43:23Z</time>
      </trkpt>
      <trkpt lat="48.77632" lon="7.35516">
        <ele>376.3</ele>
        <time>2020-05-10T12:43:25Z</time>
      </trkpt>
      <trkpt lat="48.7763" lon="7.35518">
        <ele>376</ele>
        <time>2020-05-10T12:43:27Z</time>
      </trkpt>
      <trkpt lat="48.77628" lon="7.35523">
        <ele>375.6</ele>
        <time>2020-05-10T12:43:29Z</time>
      </trkpt>
      <trkpt lat="48.77627" lon="7.35525">
        <ele>375.5</ele>
        <time>2020-05-10T12:43:30Z</time>
      </trkpt>
      <trkpt lat="48.77625" lon="7.35529">
        <ele>375.1</ele>
        <time>2020-05-10T12:43:32Z</time>
      </trkpt>
      <trkpt lat="48.77623" lon="7.35531">
        <ele>374.8</ele>
        <time>2020-05-10T12:43:33Z</time>
      </trkpt>
      <trkpt lat="48.77622" lon="7.35532">
        <ele>374.7</ele>
        <time>2020-05-10T12:43:34Z</time>
      </trkpt>
      <trkpt lat="48.7762" lon="7.35537">
        <ele>374.3</ele>
        <time>2020-05-10T12:43:36Z</time>
      </trkpt>
      <trkpt lat="48.77618" lon="7.35542">
        <ele>373.8</ele>
        <time>2020-05-10T12:43:38Z</time>
      </trkpt>
      <trkpt lat="48.77614" lon="7.35549">
        <ele>373.2</ele>
        <time>2020-05-10T12:43:40Z</time>
      </trkpt>
      <trkpt lat="48.77612" lon="7.35553">
        <ele>372.7</ele>
        <time>2020-05-10T12:43:42Z</time>
      </trkpt>
      <trkpt lat="48.7761" lon="7.35556">
        <ele>372.3</ele>
        <time>2020-05-10T12:43:43Z</time>
      </trkpt>
      <trkpt lat="48.7761" lon="7.35558">
        <ele>372.1</ele>
        <time>2020-05-10T12:43:44Z</time>
      </trkpt>
      <trkpt lat="48.77608" lon="7.35562">
        <ele>371.6</ele>
        <time>2020-05-10T12:43:46Z</time>
      </trkpt>
      <trkpt lat="48.77607" lon="7.35565">
        <ele>371.3</ele>
        <time>2020-05-10T12:43:47Z</time>
      </trkpt>
      <trkpt lat="48.77605" lon="7.35568">
        <ele>370.9</ele>
        <time>2020-05-10T12:43:49Z</time>
      </trkpt>
      <trkpt lat="48.77605" lon="7.3557">
        <ele>370.8</ele>
        <time>2020-05-10T12:43:50Z</time>
      </trkpt>
      <trkpt lat="48.77603" lon="7.35576">
        <ele>370.6</ele>
        <time>2020-05-10T12:43:52Z</time>
      </trkpt>
      <trkpt lat="48.77603" lon="7.35578">
        <ele>370.6</ele>
        <time>2020-05-10T12:43:53Z</time>
      </trkpt>
      <trkpt lat="48.77601" lon="7.35584">
        <ele>370.4</ele>
        <time>2020-05-10T12:43:55Z</time>
      </trkpt>
      <trkpt lat="48.77601" lon="7.35587">
        <ele>370.3</ele>
        <time>2020-05-10T12:43:56Z</time>
      </trkpt>
      <trkpt lat="48.77601" lon="7.3559">
        <ele>370.2</ele>
        <time>2020-05-10T12:43:58Z</time>
      </trkpt>
      <trkpt lat="48.77601" lon="7.35593">
        <ele>370.2</ele>
        <time>2020-05-10T12:43:59Z</time>
      </trkpt>
      <trkpt lat="48.77602" lon="7.35598">
        <ele>370</ele>
        <time>2020-05-10T12:44:01Z</time>
      </trkpt>
      <trkpt lat="48.77602" lon="7.35604">
        <ele>369.9</ele>
        <time>2020-05-10T12:44:03Z</time>
      </trkpt>
      <trkpt lat="48.776" lon="7.35609">
        <ele>369.7</ele>
        <time>2020-05-10T12:44:05Z</time>
      </trkpt>
      <trkpt lat="48.77598" lon="7.35613">
        <ele>369.5</ele>
        <time>2020-05-10T12:44:06Z</time>
      </trkpt>
      <trkpt lat="48.77594" lon="7.35619">
        <ele>369.3</ele>
        <time>2020-05-10T12:44:08Z</time>
      </trkpt>
      <trkpt lat="48.77589" lon="7.35629">
        <ele>369</ele>
        <time>2020-05-10T12:44:10Z</time>
      </trkpt>
      <trkpt lat="48.77587" lon="7.35634">
        <ele>368.8</ele>
        <time>2020-05-10T12:44:11Z</time>
      </trkpt>
      <trkpt lat="48.77586" lon="7.3564">
        <ele>368.7</ele>
        <time>2020-05-10T12:44:12Z</time>
      </trkpt>
      <trkpt lat="48.77585" lon="7.35646">
        <ele>368.6</ele>
        <time>2020-05-10T12:44:13Z</time>
      </trkpt>
      <trkpt lat="48.77583" lon="7.35659">
        <ele>368.5</ele>
        <time>2020-05-10T12:44:15Z</time>
      </trkpt>
      <trkpt lat="48.77583" lon="7.35666">
        <ele>368.5</ele>
        <time>2020-05-10T12:44:16Z</time>
      </trkpt>
      <trkpt lat="48.77583" lon="7.35678">
        <ele>368.4</ele>
        <time>2020-05-10T12:44:18Z</time>
      </trkpt>
      <trkpt lat="48.77583" lon="7.35692">
        <ele>368.4</ele>
        <time>2020-05-10T12:44:20Z</time>
      </trkpt>
      <trkpt lat="48.77582" lon="7.35704">
        <ele>368.3</ele>
        <time>2020-05-10T12:44:22Z</time>
      </trkpt>
      <trkpt lat="48.77581" lon="7.35712">
        <ele>368.2</ele>
        <time>2020-05-10T12:44:24Z</time>
      </trkpt>
      <trkpt lat="48.77581" lon="7.35723">
        <ele>368.1</ele>
        <time>2020-05-10T12:44:26Z</time>
      </trkpt>
      <trkpt lat="48.77581" lon="7.35728">
        <ele>368.1</ele>
        <time>2020-05-10T12:44:27Z</time>
      </trkpt>
      <trkpt lat="48.7758" lon="7.35742">
        <ele>367.9</ele>
        <time>2020-05-10T12:44:29Z</time>
      </trkpt>
      <trkpt lat="48.77579" lon="7.35755">
        <ele>367.8</ele>
        <time>2020-05-10T12:44:31Z</time>
      </trkpt>
      <trkpt lat="48.77579" lon="7.35761">
        <ele>367.7</ele>
        <time>2020-05-10T12:44:32Z</time>
      </trkpt>
      <trkpt lat="48.77578" lon="7.35771">
        <ele>367.5</ele>
        <time>2020-05-10T12:44:34Z</time>
      </trkpt>
      <trkpt lat="48.77576" lon="7.35784">
        <ele>367.4</ele>
        <time>2020-05-10T12:44:36Z</time>
      </trkpt>
      <trkpt lat="48.77575" lon="7.35797">
        <ele>367.3</ele>
        <time>2020-05-10T12:44:38Z</time>
      </trkpt>
      <trkpt lat="48.77574" lon="7.35808">
        <ele>367.1</ele>
        <time>2020-05-10T12:44:40Z</time>
      </trkpt>
      <trkpt lat="48.77571" lon="7.35821">
        <ele>366.9</ele>
        <time>2020-05-10T12:44:42Z</time>
      </trkpt>
      <trkpt lat="48.77566" lon="7.35833">
        <ele>366.8</ele>
        <time>2020-05-10T12:44:44Z</time>
      </trkpt>
      <trkpt lat="48.77566" lon="7.35844">
        <ele>366.6</ele>
        <time>2020-05-10T12:44:46Z</time>
      </trkpt>
      <trkpt lat="48.77564" lon="7.35854">
        <ele>366.4</ele>
        <time>2020-05-10T12:44:48Z</time>
      </trkpt>
      <trkpt lat="48.77563" lon="7.3586">
        <ele>366.4</ele>
        <time>2020-05-10T12:44:49Z</time>
      </trkpt>
      <trkpt lat="48.77562" lon="7.35866">
        <ele>366.3</ele>
        <time>2020-05-10T12:44:50Z</time>
      </trkpt>
      <trkpt lat="48.7756" lon="7.35878">
        <ele>366.2</ele>
        <time>2020-05-10T12:44:52Z</time>
      </trkpt>
      <trkpt lat="48.77557" lon="7.3589">
        <ele>366.2</ele>
        <time>2020-05-10T12:44:54Z</time>
      </trkpt>
      <trkpt lat="48.77555" lon="7.35896">
        <ele>366.2</ele>
        <time>2020-05-10T12:44:55Z</time>
      </trkpt>
      <trkpt lat="48.77554" lon="7.35903">
        <ele>366.3</ele>
        <time>2020-05-10T12:44:56Z</time>
      </trkpt>
      <trkpt lat="48.77551" lon="7.35913">
        <ele>366.4</ele>
        <time>2020-05-10T12:44:58Z</time>
      </trkpt>
      <trkpt lat="48.77547" lon="7.35926">
        <ele>366.5</ele>
        <time>2020-05-10T12:45:00Z</time>
      </trkpt>
      <trkpt lat="48.77543" lon="7.35938">
        <ele>366.4</ele>
        <time>2020-05-10T12:45:02Z</time>
      </trkpt>
      <trkpt lat="48.77541" lon="7.35951">
        <ele>366.3</ele>
        <time>2020-05-10T12:45:04Z</time>
      </trkpt>
      <trkpt lat="48.77539" lon="7.35968">
        <ele>366.1</ele>
        <time>2020-05-10T12:45:06Z</time>
      </trkpt>
      <trkpt lat="48.77539" lon="7.35979">
        <ele>366</ele>
        <time>2020-05-10T12:45:07Z</time>
      </trkpt>
      <trkpt lat="48.77542" lon="7.35992">
        <ele>365.9</ele>
        <time>2020-05-10T12:45:09Z</time>
      </trkpt>
      <trkpt lat="48.77542" lon="7.36004">
        <ele>365.8</ele>
        <time>2020-05-10T12:45:11Z</time>
      </trkpt>
      <trkpt lat="48.77542" lon="7.36013">
        <ele>365.8</ele>
        <time>2020-05-10T12:45:13Z</time>
      </trkpt>
      <trkpt lat="48.77542" lon="7.36021">
        <ele>365.8</ele>
        <time>2020-05-10T12:45:14Z</time>
      </trkpt>
      <trkpt lat="48.77544" lon="7.36028">
        <ele>365.8</ele>
        <time>2020-05-10T12:45:15Z</time>
      </trkpt>
      <trkpt lat="48.77545" lon="7.36044">
        <ele>365.8</ele>
        <time>2020-05-10T12:45:17Z</time>
      </trkpt>
      <trkpt lat="48.77544" lon="7.36059">
        <ele>365.8</ele>
        <time>2020-05-10T12:45:19Z</time>
      </trkpt>
      <trkpt lat="48.77543" lon="7.36073">
        <ele>366</ele>
        <time>2020-05-10T12:45:21Z</time>
      </trkpt>
      <trkpt lat="48.77542" lon="7.36083">
        <ele>366.3</ele>
        <time>2020-05-10T12:45:23Z</time>
      </trkpt>
      <trkpt lat="48.77539" lon="7.36094">
        <ele>366.6</ele>
        <time>2020-05-10T12:45:25Z</time>
      </trkpt>
      <trkpt lat="48.7754" lon="7.36099">
        <ele>366.8</ele>
        <time>2020-05-10T12:45:26Z</time>
      </trkpt>
      <trkpt lat="48.77539" lon="7.36107">
        <ele>367</ele>
        <time>2020-05-10T12:45:28Z</time>
      </trkpt>
      <trkpt lat="48.77539" lon="7.36111">
        <ele>367.1</ele>
        <time>2020-05-10T12:45:29Z</time>
      </trkpt>
      <trkpt lat="48.7754" lon="7.3612">
        <ele>367.3</ele>
        <time>2020-05-10T12:45:31Z</time>
      </trkpt>
      <trkpt lat="48.77539" lon="7.36124">
        <ele>367.4</ele>
        <time>2020-05-10T12:45:32Z</time>
      </trkpt>
      <trkpt lat="48.77538" lon="7.36129">
        <ele>367.5</ele>
        <time>2020-05-10T12:45:33Z</time>
      </trkpt>
      <trkpt lat="48.77537" lon="7.36133">
        <ele>367.6</ele>
        <time>2020-05-10T12:45:34Z</time>
      </trkpt>
      <trkpt lat="48.77536" lon="7.36141">
        <ele>367.7</ele>
        <time>2020-05-10T12:45:36Z</time>
      </trkpt>
      <trkpt lat="48.77535" lon="7.36149">
        <ele>367.8</ele>
        <time>2020-05-10T12:45:38Z</time>
      </trkpt>
      <trkpt lat="48.77535" lon="7.36153">
        <ele>367.8</ele>
        <time>2020-05-10T12:45:39Z</time>
      </trkpt>
      <trkpt lat="48.77535" lon="7.36158">
        <ele>367.9</ele>
        <time>2020-05-10T12:45:40Z</time>
      </trkpt>
      <trkpt lat="48.77534" lon="7.36167">
        <ele>367.9</ele>
        <time>2020-05-10T12:45:42Z</time>
      </trkpt>
      <trkpt lat="48.77532" lon="7.36176">
        <ele>367.9</ele>
        <time>2020-05-10T12:45:44Z</time>
      </trkpt>
      <trkpt lat="48.7753" lon="7.36186">
        <ele>367.8</ele>
        <time>2020-05-10T12:45:46Z</time>
      </trkpt>
      <trkpt lat="48.77529" lon="7.3619">
        <ele>367.8</ele>
        <time>2020-05-10T12:45:47Z</time>
      </trkpt>
      <trkpt lat="48.77526" lon="7.36194">
        <ele>370.4</ele>
        <time>2020-05-10T12:45:49Z</time>
      </trkpt>
      <trkpt lat="48.77524" lon="7.36196">
        <ele>371</ele>
        <time>2020-05-10T12:45:50Z</time>
      </trkpt>
      <trkpt lat="48.77523" lon="7.36197">
        <ele>371.4</ele>
        <time>2020-05-10T12:45:51Z</time>
      </trkpt>
      <trkpt lat="48.77522" lon="7.36198">
        <ele>371.7</ele>
        <time>2020-05-10T12:45:52Z</time>
      </trkpt>
      <trkpt lat="48.77519" lon="7.36196">
        <ele>372.8</ele>
        <time>2020-05-10T12:45:54Z</time>
      </trkpt>
      <trkpt lat="48.77516" lon="7.36192">
        <ele>374.3</ele>
        <time>2020-05-10T12:45:56Z</time>
      </trkpt>
      <trkpt lat="48.77514" lon="7.3619">
        <ele>375.2</ele>
        <time>2020-05-10T12:45:57Z</time>
      </trkpt>
      <trkpt lat="48.77508" lon="7.36189">
        <ele>377.1</ele>
        <time>2020-05-10T12:45:59Z</time>
      </trkpt>
      <trkpt lat="48.77502" lon="7.36192">
        <ele>378.2</ele>
        <time>2020-05-10T12:46:01Z</time>
      </trkpt>
      <trkpt lat="48.77494" lon="7.36193">
        <ele>380.4</ele>
        <time>2020-05-10T12:46:03Z</time>
      </trkpt>
      <trkpt lat="48.77487" lon="7.3619">
        <ele>381.6</ele>
        <time>2020-05-10T12:46:05Z</time>
      </trkpt>
      <trkpt lat="48.77484" lon="7.36187">
        <ele>382.1</ele>
        <time>2020-05-10T12:46:06Z</time>
      </trkpt>
      <trkpt lat="48.77479" lon="7.36182">
        <ele>383.2</ele>
        <time>2020-05-10T12:46:08Z</time>
      </trkpt>
      <trkpt lat="48.77474" lon="7.36179">
        <ele>383.5</ele>
        <time>2020-05-10T12:46:10Z</time>
      </trkpt>
      <trkpt lat="48.77471" lon="7.36176">
        <ele>383.7</ele>
        <time>2020-05-10T12:46:11Z</time>
      </trkpt>
      <trkpt lat="48.77465" lon="7.36168">
        <ele>384.2</ele>
        <time>2020-05-10T12:46:13Z</time>
      </trkpt>
      <trkpt lat="48.7746" lon="7.36161">
        <ele>384.5</ele>
        <time>2020-05-10T12:46:15Z</time>
      </trkpt>
      <trkpt lat="48.77457" lon="7.36153">
        <ele>384.9</ele>
        <time>2020-05-10T12:46:17Z</time>
      </trkpt>
      <trkpt lat="48.77454" lon="7.36147">
        <ele>385.1</ele>
        <time>2020-05-10T12:46:18Z</time>
      </trkpt>
      <trkpt lat="48.77449" lon="7.36136">
        <ele>385.5</ele>
        <time>2020-05-10T12:46:20Z</time>
      </trkpt>
      <trkpt lat="48.77444" lon="7.36126">
        <ele>385.8</ele>
        <time>2020-05-10T12:46:22Z</time>
      </trkpt>
      <trkpt lat="48.77437" lon="7.36117">
        <ele>386.1</ele>
        <time>2020-05-10T12:46:24Z</time>
      </trkpt>
      <trkpt lat="48.77429" lon="7.36106">
        <ele>386.5</ele>
        <time>2020-05-10T12:46:26Z</time>
      </trkpt>
      <trkpt lat="48.77426" lon="7.361">
        <ele>386.7</ele>
        <time>2020-05-10T12:46:27Z</time>
      </trkpt>
      <trkpt lat="48.7742" lon="7.36087">
        <ele>387.1</ele>
        <time>2020-05-10T12:46:29Z</time>
      </trkpt>
      <trkpt lat="48.77417" lon="7.36082">
        <ele>387.2</ele>
        <time>2020-05-10T12:46:30Z</time>
      </trkpt>
      <trkpt lat="48.77414" lon="7.36074">
        <ele>387.4</ele>
        <time>2020-05-10T12:46:32Z</time>
      </trkpt>
      <trkpt lat="48.7741" lon="7.36062">
        <ele>387.8</ele>
        <time>2020-05-10T12:46:34Z</time>
      </trkpt>
      <trkpt lat="48.77403" lon="7.36049">
        <ele>388.1</ele>
        <time>2020-05-10T12:46:36Z</time>
      </trkpt>
      <trkpt lat="48.77394" lon="7.36039">
        <ele>388.5</ele>
        <time>2020-05-10T12:46:38Z</time>
      </trkpt>
      <trkpt lat="48.7739" lon="7.36031">
        <ele>388.7</ele>
        <time>2020-05-10T12:46:39Z</time>
      </trkpt>
      <trkpt lat="48.77385" lon="7.3602">
        <ele>388.9</ele>
        <time>2020-05-10T12:46:41Z</time>
      </trkpt>
      <trkpt lat="48.77382" lon="7.36017">
        <ele>388.9</ele>
        <time>2020-05-10T12:46:42Z</time>
      </trkpt>
      <trkpt lat="48.77381" lon="7.36017">
        <ele>388.9</ele>
        <time>2020-05-10T12:46:43Z</time>
      </trkpt>
      <trkpt lat="48.7738" lon="7.36016">
        <ele>388.9</ele>
        <time>2020-05-10T12:46:45Z</time>
      </trkpt>
      <trkpt lat="48.77381" lon="7.36014">
        <ele>388.9</ele>
        <time>2020-05-10T12:46:47Z</time>
      </trkpt>
      <trkpt lat="48.77382" lon="7.36012">
        <ele>388.9</ele>
        <time>2020-05-10T12:46:49Z</time>
      </trkpt>
      <trkpt lat="48.77382" lon="7.36012">
        <ele>388.9</ele>
        <time>2020-05-10T12:46:50Z</time>
      </trkpt>
      <trkpt lat="48.77382" lon="7.36013">
        <ele>388.9</ele>
        <time>2020-05-10T12:46:52Z</time>
      </trkpt>
      <trkpt lat="48.77382" lon="7.36013">
        <ele>388.9</ele>
        <time>2020-05-10T12:46:54Z</time>
      </trkpt>
      <trkpt lat="48.77382" lon="7.36013">
        <ele>388.9</ele>
        <time>2020-05-10T12:46:56Z</time>
      </trkpt>
      <trkpt lat="48.77382" lon="7.36013">
        <ele>388.9</ele>
        <time>2020-05-10T12:46:57Z</time>
      </trkpt>
      <trkpt lat="48.77382" lon="7.36011">
        <ele>388.9</ele>
        <time>2020-05-10T12:46:58Z</time>
      </trkpt>
      <trkpt lat="48.77379" lon="7.36007">
        <ele>388.9</ele>
        <time>2020-05-10T12:47:00Z</time>
      </trkpt>
      <trkpt lat="48.77376" lon="7.36003">
        <ele>389</ele>
        <time>2020-05-10T12:47:01Z</time>
      </trkpt>
      <trkpt lat="48.77371" lon="7.35994">
        <ele>389</ele>
        <time>2020-05-10T12:47:03Z</time>
      </trkpt>
      <trkpt lat="48.77367" lon="7.35991">
        <ele>389</ele>
        <time>2020-05-10T12:47:04Z</time>
      </trkpt>
      <trkpt lat="48.77359" lon="7.35981">
        <ele>389</ele>
        <time>2020-05-10T12:47:06Z</time>
      </trkpt>
      <trkpt lat="48.77355" lon="7.35975">
        <ele>389</ele>
        <time>2020-05-10T12:47:07Z</time>
      </trkpt>
      <trkpt lat="48.77345" lon="7.35964">
        <ele>389.1</ele>
        <time>2020-05-10T12:47:09Z</time>
      </trkpt>
      <trkpt lat="48.77334" lon="7.35948">
        <ele>388.9</ele>
        <time>2020-05-10T12:47:11Z</time>
      </trkpt>
      <trkpt lat="48.7733" lon="7.35941">
        <ele>388.1</ele>
        <time>2020-05-10T12:47:12Z</time>
      </trkpt>
      <trkpt lat="48.77328" lon="7.35935">
        <ele>387.5</ele>
        <time>2020-05-10T12:47:13Z</time>
      </trkpt>
      <trkpt lat="48.77322" lon="7.35919">
        <ele>385.7</ele>
        <time>2020-05-10T12:47:15Z</time>
      </trkpt>
      <trkpt lat="48.77314" lon="7.35904">
        <ele>383.9</ele>
        <time>2020-05-10T12:47:17Z</time>
      </trkpt>
      <trkpt lat="48.7731" lon="7.35899">
        <ele>383.1</ele>
        <time>2020-05-10T12:47:18Z</time>
      </trkpt>
      <trkpt lat="48.773" lon="7.35886">
        <ele>381.2</ele>
        <time>2020-05-10T12:47:20Z</time>
      </trkpt>
      <trkpt lat="48.77292" lon="7.35877">
        <ele>378.1</ele>
        <time>2020-05-10T12:47:22Z</time>
      </trkpt>
      <trkpt lat="48.77287" lon="7.35865">
        <ele>377.4</ele>
        <time>2020-05-10T12:47:24Z</time>
      </trkpt>
      <trkpt lat="48.77284" lon="7.35855">
        <ele>376.9</ele>
        <time>2020-05-10T12:47:26Z</time>
      </trkpt>
      <trkpt lat="48.77281" lon="7.35848">
        <ele>376.4</ele>
        <time>2020-05-10T12:47:27Z</time>
      </trkpt>
      <trkpt lat="48.77276" lon="7.35834">
        <ele>375.6</ele>
        <time>2020-05-10T12:47:29Z</time>
      </trkpt>
      <trkpt lat="48.77273" lon="7.3583">
        <ele>375.2</ele>
        <time>2020-05-10T12:47:30Z</time>
      </trkpt>
      <trkpt lat="48.77268" lon="7.35818">
        <ele>374.4</ele>
        <time>2020-05-10T12:47:32Z</time>
      </trkpt>
      <trkpt lat="48.7726" lon="7.35803">
        <ele>373.3</ele>
        <time>2020-05-10T12:47:34Z</time>
      </trkpt>
      <trkpt lat="48.77256" lon="7.35798">
        <ele>372.9</ele>
        <time>2020-05-10T12:47:35Z</time>
      </trkpt>
      <trkpt lat="48.77249" lon="7.35788">
        <ele>372</ele>
        <time>2020-05-10T12:47:37Z</time>
      </trkpt>
      <trkpt lat="48.7724" lon="7.35774">
        <ele>370.9</ele>
        <time>2020-05-10T12:47:39Z</time>
      </trkpt>
      <trkpt lat="48.77238" lon="7.35768">
        <ele>370.5</ele>
        <time>2020-05-10T12:47:41Z</time>
      </trkpt>
      <trkpt lat="48.77237" lon="7.35766">
        <ele>370.4</ele>
        <time>2020-05-10T12:47:42Z</time>
      </trkpt>
      <trkpt lat="48.77232" lon="7.3576">
        <ele>369.8</ele>
        <time>2020-05-10T12:47:44Z</time>
      </trkpt>
      <trkpt lat="48.7723" lon="7.35755">
        <ele>369.4</ele>
        <time>2020-05-10T12:47:45Z</time>
      </trkpt>
      <trkpt lat="48.77229" lon="7.35748">
        <ele>369</ele>
        <time>2020-05-10T12:47:46Z</time>
      </trkpt>
      <trkpt lat="48.77226" lon="7.35743">
        <ele>368.6</ele>
        <time>2020-05-10T12:47:48Z</time>
      </trkpt>
      <trkpt lat="48.77221" lon="7.35738">
        <ele>368.1</ele>
        <time>2020-05-10T12:47:50Z</time>
      </trkpt>
      <trkpt lat="48.77215" lon="7.35731">
        <ele>367.4</ele>
        <time>2020-05-10T12:47:52Z</time>
      </trkpt>
      <trkpt lat="48.77212" lon="7.35729">
        <ele>367.1</ele>
        <time>2020-05-10T12:47:53Z</time>
      </trkpt>
      <trkpt lat="48.77204" lon="7.35724">
        <ele>366.2</ele>
        <time>2020-05-10T12:47:55Z</time>
      </trkpt>
      <trkpt lat="48.77193" lon="7.35716">
        <ele>365</ele>
        <time>2020-05-10T12:47:57Z</time>
      </trkpt>
      <trkpt lat="48.77185" lon="7.35707">
        <ele>364</ele>
        <time>2020-05-10T12:47:59Z</time>
      </trkpt>
      <trkpt lat="48.77181" lon="7.357">
        <ele>363.5</ele>
        <time>2020-05-10T12:48:00Z</time>
      </trkpt>
      <trkpt lat="48.77173" lon="7.35688">
        <ele>362.6</ele>
        <time>2020-05-10T12:48:02Z</time>
      </trkpt>
      <trkpt lat="48.77166" lon="7.35678">
        <ele>361.9</ele>
        <time>2020-05-10T12:48:04Z</time>
      </trkpt>
      <trkpt lat="48.77161" lon="7.35669">
        <ele>361.3</ele>
        <time>2020-05-10T12:48:05Z</time>
      </trkpt>
      <trkpt lat="48.77159" lon="7.35665">
        <ele>361</ele>
        <time>2020-05-10T12:48:06Z</time>
      </trkpt>
      <trkpt lat="48.77152" lon="7.35656">
        <ele>360.3</ele>
        <time>2020-05-10T12:48:08Z</time>
      </trkpt>
      <trkpt lat="48.7715" lon="7.3565">
        <ele>359.8</ele>
        <time>2020-05-10T12:48:09Z</time>
      </trkpt>
      <trkpt lat="48.77145" lon="7.35642">
        <ele>359.2</ele>
        <time>2020-05-10T12:48:11Z</time>
      </trkpt>
      <trkpt lat="48.77141" lon="7.35635">
        <ele>358.6</ele>
        <time>2020-05-10T12:48:13Z</time>
      </trkpt>
      <trkpt lat="48.77139" lon="7.35624">
        <ele>358</ele>
        <time>2020-05-10T12:48:15Z</time>
      </trkpt>
      <trkpt lat="48.77138" lon="7.3562">
        <ele>357.7</ele>
        <time>2020-05-10T12:48:16Z</time>
      </trkpt>
      <trkpt lat="48.77138" lon="7.35615">
        <ele>357.5</ele>
        <time>2020-05-10T12:48:17Z</time>
      </trkpt>
      <trkpt lat="48.77136" lon="7.35609">
        <ele>357.1</ele>
        <time>2020-05-10T12:48:18Z</time>
      </trkpt>
      <trkpt lat="48.77133" lon="7.35602">
        <ele>356.7</ele>
        <time>2020-05-10T12:48:19Z</time>
      </trkpt>
      <trkpt lat="48.77129" lon="7.35589">
        <ele>356</ele>
        <time>2020-05-10T12:48:21Z</time>
      </trkpt>
      <trkpt lat="48.77129" lon="7.35584">
        <ele>355.8</ele>
        <time>2020-05-10T12:48:22Z</time>
      </trkpt>
      <trkpt lat="48.77131" lon="7.35578">
        <ele>355.5</ele>
        <time>2020-05-10T12:48:23Z</time>
      </trkpt>
      <trkpt lat="48.7713" lon="7.35572">
        <ele>355.3</ele>
        <time>2020-05-10T12:48:24Z</time>
      </trkpt>
      <trkpt lat="48.77131" lon="7.3556">
        <ele>354.9</ele>
        <time>2020-05-10T12:48:26Z</time>
      </trkpt>
      <trkpt lat="48.7713" lon="7.35543">
        <ele>354.4</ele>
        <time>2020-05-10T12:48:28Z</time>
      </trkpt>
      <trkpt lat="48.77129" lon="7.35529">
        <ele>354.1</ele>
        <time>2020-05-10T12:48:30Z</time>
      </trkpt>
      <trkpt lat="48.7713" lon="7.35517">
        <ele>353.8</ele>
        <time>2020-05-10T12:48:32Z</time>
      </trkpt>
      <trkpt lat="48.77132" lon="7.355">
        <ele>353.3</ele>
        <time>2020-05-10T12:48:34Z</time>
      </trkpt>
      <trkpt lat="48.77133" lon="7.35491">
        <ele>353.2</ele>
        <time>2020-05-10T12:48:35Z</time>
      </trkpt>
      <trkpt lat="48.77133" lon="7.35473">
        <ele>352.9</ele>
        <time>2020-05-10T12:48:37Z</time>
      </trkpt>
      <trkpt lat="48.77133" lon="7.35459">
        <ele>352.7</ele>
        <time>2020-05-10T12:48:39Z</time>
      </trkpt>
      <trkpt lat="48.77133" lon="7.35454">
        <ele>352.6</ele>
        <time>2020-05-10T12:48:40Z</time>
      </trkpt>
      <trkpt lat="48.77132" lon="7.35445">
        <ele>352.4</ele>
        <time>2020-05-10T12:48:42Z</time>
      </trkpt>
      <trkpt lat="48.77132" lon="7.35443">
        <ele>352.4</ele>
        <time>2020-05-10T12:48:43Z</time>
      </trkpt>
      <trkpt lat="48.77132" lon="7.35442">
        <ele>352.4</ele>
        <time>2020-05-10T12:48:44Z</time>
      </trkpt>
      <trkpt lat="48.77131" lon="7.35439">
        <ele>352.3</ele>
        <time>2020-05-10T12:48:46Z</time>
      </trkpt>
      <trkpt lat="48.77131" lon="7.35437">
        <ele>352.3</ele>
        <time>2020-05-10T12:48:47Z</time>
      </trkpt>
      <trkpt lat="48.77132" lon="7.35434">
        <ele>352.2</ele>
        <time>2020-05-10T12:48:49Z</time>
      </trkpt>
      <trkpt lat="48.77132" lon="7.35433">
        <ele>352.2</ele>
        <time>2020-05-10T12:48:50Z</time>
      </trkpt>
      <trkpt lat="48.77133" lon="7.35431">
        <ele>352.1</ele>
        <time>2020-05-10T12:48:52Z</time>
      </trkpt>
      <trkpt lat="48.77135" lon="7.35426">
        <ele>352</ele>
        <time>2020-05-10T12:48:54Z</time>
      </trkpt>
      <trkpt lat="48.77134" lon="7.35411">
        <ele>351.7</ele>
        <time>2020-05-10T12:48:56Z</time>
      </trkpt>
      <trkpt lat="48.77135" lon="7.35407">
        <ele>351.5</ele>
        <time>2020-05-10T12:48:57Z</time>
      </trkpt>
      <trkpt lat="48.77137" lon="7.35403">
        <ele>351.4</ele>
        <time>2020-05-10T12:48:58Z</time>
      </trkpt>
      <trkpt lat="48.77137" lon="7.35401">
        <ele>351.3</ele>
        <time>2020-05-10T12:48:59Z</time>
      </trkpt>
      <trkpt lat="48.77139" lon="7.35397">
        <ele>351.2</ele>
        <time>2020-05-10T12:49:00Z</time>
      </trkpt>
      <trkpt lat="48.7714" lon="7.35386">
        <ele>350.9</ele>
        <time>2020-05-10T12:49:02Z</time>
      </trkpt>
      <trkpt lat="48.7714" lon="7.3538">
        <ele>350.7</ele>
        <time>2020-05-10T12:49:03Z</time>
      </trkpt>
      <trkpt lat="48.7714" lon="7.35372">
        <ele>350.6</ele>
        <time>2020-05-10T12:49:04Z</time>
      </trkpt>
      <trkpt lat="48.77143" lon="7.35357">
        <ele>350.1</ele>
        <time>2020-05-10T12:49:06Z</time>
      </trkpt>
      <trkpt lat="48.77144" lon="7.35352">
        <ele>350.3</ele>
        <time>2020-05-10T12:49:07Z</time>
      </trkpt>
      <trkpt lat="48.77146" lon="7.35349">
        <ele>350.4</ele>
        <time>2020-05-10T12:49:08Z</time>
      </trkpt>
      <trkpt lat="48.77146" lon="7.35341">
        <ele>350.7</ele>
        <time>2020-05-10T12:49:10Z</time>
      </trkpt>
      <trkpt lat="48.77144" lon="7.35337">
        <ele>350.9</ele>
        <time>2020-05-10T12:49:11Z</time>
      </trkpt>
      <trkpt lat="48.77143" lon="7.35324">
        <ele>351.3</ele>
        <time>2020-05-10T12:49:13Z</time>
      </trkpt>
      <trkpt lat="48.77143" lon="7.35323">
        <ele>351.4</ele>
        <time>2020-05-10T12:49:14Z</time>
      </trkpt>
      <trkpt lat="48.77142" lon="7.35325">
        <ele>351.5</ele>
        <time>2020-05-10T12:49:16Z</time>
      </trkpt>
      <trkpt lat="48.77142" lon="7.35324">
        <ele>351.5</ele>
        <time>2020-05-10T12:49:18Z</time>
      </trkpt>
      <trkpt lat="48.77141" lon="7.35323">
        <ele>351.5</ele>
        <time>2020-05-10T12:49:21Z</time>
      </trkpt>
      <trkpt lat="48.77141" lon="7.35323">
        <ele>351.6</ele>
        <time>2020-05-10T12:49:22Z</time>
      </trkpt>
      <trkpt lat="48.77141" lon="7.35322">
        <ele>351.6</ele>
        <time>2020-05-10T12:49:24Z</time>
      </trkpt>
      <trkpt lat="48.77141" lon="7.35321">
        <ele>351.6</ele>
        <time>2020-05-10T12:49:25Z</time>
      </trkpt>
      <trkpt lat="48.77142" lon="7.3532">
        <ele>351.7</ele>
        <time>2020-05-10T12:49:26Z</time>
      </trkpt>
      <trkpt lat="48.77142" lon="7.35319">
        <ele>351.7</ele>
        <time>2020-05-10T12:49:27Z</time>
      </trkpt>
      <trkpt lat="48.77144" lon="7.35316">
        <ele>352.8</ele>
        <time>2020-05-10T12:49:29Z</time>
      </trkpt>
      <trkpt lat="48.77145" lon="7.35315">
        <ele>353.2</ele>
        <time>2020-05-10T12:49:30Z</time>
      </trkpt>
      <trkpt lat="48.77147" lon="7.35312">
        <ele>354.2</ele>
        <time>2020-05-10T12:49:32Z</time>
      </trkpt>
      <trkpt lat="48.77149" lon="7.35309">
        <ele>354.7</ele>
        <time>2020-05-10T12:49:34Z</time>
      </trkpt>
      <trkpt lat="48.7715" lon="7.35306">
        <ele>356</ele>
        <time>2020-05-10T12:49:36Z</time>
      </trkpt>
      <trkpt lat="48.7715" lon="7.35306">
        <ele>356.1</ele>
        <time>2020-05-10T12:49:37Z</time>
      </trkpt>
      <trkpt lat="48.77151" lon="7.35304">
        <ele>356.2</ele>
        <time>2020-05-10T12:49:39Z</time>
      </trkpt>
      <trkpt lat="48.77152" lon="7.35303">
        <ele>356.3</ele>
        <time>2020-05-10T12:49:40Z</time>
      </trkpt>
      <trkpt lat="48.77153" lon="7.35301">
        <ele>357.6</ele>
        <time>2020-05-10T12:49:42Z</time>
      </trkpt>
      <trkpt lat="48.77154" lon="7.35299">
        <ele>357.7</ele>
        <time>2020-05-10T12:49:44Z</time>
      </trkpt>
      <trkpt lat="48.77155" lon="7.35297">
        <ele>358.2</ele>
        <time>2020-05-10T12:49:46Z</time>
      </trkpt>
      <trkpt lat="48.77155" lon="7.35297">
        <ele>359</ele>
        <time>2020-05-10T12:49:48Z</time>
      </trkpt>
      <trkpt lat="48.77155" lon="7.35296">
        <ele>359.1</ele>
        <time>2020-05-10T12:49:50Z</time>
      </trkpt>
      <trkpt lat="48.77155" lon="7.35293">
        <ele>359.6</ele>
        <time>2020-05-10T12:49:52Z</time>
      </trkpt>
      <trkpt lat="48.77155" lon="7.35291">
        <ele>359.7</ele>
        <time>2020-05-10T12:49:53Z</time>
      </trkpt>
      <trkpt lat="48.77155" lon="7.35285">
        <ele>360.7</ele>
        <time>2020-05-10T12:49:55Z</time>
      </trkpt>
      <trkpt lat="48.77155" lon="7.35283">
        <ele>360.8</ele>
        <time>2020-05-10T12:49:56Z</time>
      </trkpt>
      <trkpt lat="48.77155" lon="7.3528">
        <ele>360.7</ele>
        <time>2020-05-10T12:49:57Z</time>
      </trkpt>
      <trkpt lat="48.77155" lon="7.35277">
        <ele>360.8</ele>
        <time>2020-05-10T12:49:59Z</time>
      </trkpt>
      <trkpt lat="48.77154" lon="7.35276">
        <ele>361.5</ele>
        <time>2020-05-10T12:50:01Z</time>
      </trkpt>
      <trkpt lat="48.77154" lon="7.35275">
        <ele>361.6</ele>
        <time>2020-05-10T12:50:02Z</time>
      </trkpt>
      <trkpt lat="48.77154" lon="7.35274">
        <ele>361.6</ele>
        <time>2020-05-10T12:50:04Z</time>
      </trkpt>
      <trkpt lat="48.77155" lon="7.35271">
        <ele>362.3</ele>
        <time>2020-05-10T12:50:06Z</time>
      </trkpt>
      <trkpt lat="48.77155" lon="7.35269">
        <ele>362.4</ele>
        <time>2020-05-10T12:50:07Z</time>
      </trkpt>
      <trkpt lat="48.77155" lon="7.35267">
        <ele>363.1</ele>
        <time>2020-05-10T12:50:08Z</time>
      </trkpt>
      <trkpt lat="48.77154" lon="7.35264">
        <ele>363.8</ele>
        <time>2020-05-10T12:50:10Z</time>
      </trkpt>
      <trkpt lat="48.77154" lon="7.35263">
        <ele>363.9</ele>
        <time>2020-05-10T12:50:11Z</time>
      </trkpt>
      <trkpt lat="48.77153" lon="7.3526">
        <ele>364</ele>
        <time>2020-05-10T12:50:13Z</time>
      </trkpt>
      <trkpt lat="48.77153" lon="7.35258">
        <ele>364.7</ele>
        <time>2020-05-10T12:50:15Z</time>
      </trkpt>
      <trkpt lat="48.77153" lon="7.35257">
        <ele>364.8</ele>
        <time>2020-05-10T12:50:16Z</time>
      </trkpt>
      <trkpt lat="48.77153" lon="7.35255">
        <ele>365.5</ele>
        <time>2020-05-10T12:50:18Z</time>
      </trkpt>
      <trkpt lat="48.77153" lon="7.35254">
        <ele>365.6</ele>
        <time>2020-05-10T12:50:19Z</time>
      </trkpt>
      <trkpt lat="48.77154" lon="7.35253">
        <ele>365.7</ele>
        <time>2020-05-10T12:50:20Z</time>
      </trkpt>
      <trkpt lat="48.77154" lon="7.3525">
        <ele>366.4</ele>
        <time>2020-05-10T12:50:22Z</time>
      </trkpt>
      <trkpt lat="48.77154" lon="7.35248">
        <ele>366.5</ele>
        <time>2020-05-10T12:50:23Z</time>
      </trkpt>
      <trkpt lat="48.77153" lon="7.35246">
        <ele>367.2</ele>
        <time>2020-05-10T12:50:25Z</time>
      </trkpt>
      <trkpt lat="48.77153" lon="7.35243">
        <ele>367.3</ele>
        <time>2020-05-10T12:50:27Z</time>
      </trkpt>
      <trkpt lat="48.77152" lon="7.35242">
        <ele>367.5</ele>
        <time>2020-05-10T12:50:28Z</time>
      </trkpt>
      <trkpt lat="48.7715" lon="7.35238">
        <ele>368.2</ele>
        <time>2020-05-10T12:50:30Z</time>
      </trkpt>
      <trkpt lat="48.77149" lon="7.35237">
        <ele>368.3</ele>
        <time>2020-05-10T12:50:31Z</time>
      </trkpt>
      <trkpt lat="48.77148" lon="7.35236">
        <ele>367.8</ele>
        <time>2020-05-10T12:50:33Z</time>
      </trkpt>
      <trkpt lat="48.77147" lon="7.35235">
        <ele>367.9</ele>
        <time>2020-05-10T12:50:35Z</time>
      </trkpt>
      <trkpt lat="48.77146" lon="7.35234">
        <ele>368.1</ele>
        <time>2020-05-10T12:50:36Z</time>
      </trkpt>
      <trkpt lat="48.77146" lon="7.35232">
        <ele>368.2</ele>
        <time>2020-05-10T12:50:38Z</time>
      </trkpt>
      <trkpt lat="48.77145" lon="7.35231">
        <ele>368.3</ele>
        <time>2020-05-10T12:50:39Z</time>
      </trkpt>
      <trkpt lat="48.77146" lon="7.35229">
        <ele>369.2</ele>
        <time>2020-05-10T12:50:41Z</time>
      </trkpt>
      <trkpt lat="48.77146" lon="7.35228">
        <ele>369.2</ele>
        <time>2020-05-10T12:50:42Z</time>
      </trkpt>
      <trkpt lat="48.77146" lon="7.35227">
        <ele>369.3</ele>
        <time>2020-05-10T12:50:44Z</time>
      </trkpt>
      <trkpt lat="48.77146" lon="7.35227">
        <ele>369.4</ele>
        <time>2020-05-10T12:50:45Z</time>
      </trkpt>
      <trkpt lat="48.77145" lon="7.35227">
        <ele>369.5</ele>
        <time>2020-05-10T12:50:46Z</time>
      </trkpt>
      <trkpt lat="48.77145" lon="7.35225">
        <ele>370.4</ele>
        <time>2020-05-10T12:50:48Z</time>
      </trkpt>
      <trkpt lat="48.77146" lon="7.35223">
        <ele>370.4</ele>
        <time>2020-05-10T12:50:50Z</time>
      </trkpt>
      <trkpt lat="48.77147" lon="7.35221">
        <ele>371.8</ele>
        <time>2020-05-10T12:50:52Z</time>
      </trkpt>
      <trkpt lat="48.77147" lon="7.35219">
        <ele>371.9</ele>
        <time>2020-05-10T12:50:54Z</time>
      </trkpt>
      <trkpt lat="48.77148" lon="7.35217">
        <ele>372</ele>
        <time>2020-05-10T12:50:56Z</time>
      </trkpt>
      <trkpt lat="48.77149" lon="7.35217">
        <ele>372.8</ele>
        <time>2020-05-10T12:50:57Z</time>
      </trkpt>
      <trkpt lat="48.77149" lon="7.35216">
        <ele>372.9</ele>
        <time>2020-05-10T12:50:58Z</time>
      </trkpt>
      <trkpt lat="48.7715" lon="7.35216">
        <ele>373.5</ele>
        <time>2020-05-10T12:50:59Z</time>
      </trkpt>
      <trkpt lat="48.77151" lon="7.35216">
        <ele>373.6</ele>
        <time>2020-05-10T12:51:01Z</time>
      </trkpt>
      <trkpt lat="48.77152" lon="7.35216">
        <ele>373.7</ele>
        <time>2020-05-10T12:51:03Z</time>
      </trkpt>
      <trkpt lat="48.77152" lon="7.35216">
        <ele>374.2</ele>
        <time>2020-05-10T12:51:04Z</time>
      </trkpt>
      <trkpt lat="48.77153" lon="7.35216">
        <ele>374.3</ele>
        <time>2020-05-10T12:51:06Z</time>
      </trkpt>
      <trkpt lat="48.77154" lon="7.35215">
        <ele>374.4</ele>
        <time>2020-05-10T12:51:08Z</time>
      </trkpt>
      <trkpt lat="48.77155" lon="7.35213">
        <ele>374.5</ele>
        <time>2020-05-10T12:51:10Z</time>
      </trkpt>
      <trkpt lat="48.77155" lon="7.35213">
        <ele>374.6</ele>
        <time>2020-05-10T12:51:11Z</time>
      </trkpt>
      <trkpt lat="48.77155" lon="7.35213">
        <ele>375.9</ele>
        <time>2020-05-10T12:51:13Z</time>
      </trkpt>
      <trkpt lat="48.77156" lon="7.35213">
        <ele>376</ele>
        <time>2020-05-10T12:51:14Z</time>
      </trkpt>
      <trkpt lat="48.77156" lon="7.35212">
        <ele>376.1</ele>
        <time>2020-05-10T12:51:15Z</time>
      </trkpt>
      <trkpt lat="48.77158" lon="7.35212">
        <ele>376.2</ele>
        <time>2020-05-10T12:51:16Z</time>
      </trkpt>
      <trkpt lat="48.77159" lon="7.35211">
        <ele>376.8</ele>
        <time>2020-05-10T12:51:18Z</time>
      </trkpt>
      <trkpt lat="48.77159" lon="7.35211">
        <ele>376.8</ele>
        <time>2020-05-10T12:51:19Z</time>
      </trkpt>
      <trkpt lat="48.7716" lon="7.35209">
        <ele>376.9</ele>
        <time>2020-05-10T12:51:21Z</time>
      </trkpt>
      <trkpt lat="48.77162" lon="7.35207">
        <ele>378.3</ele>
        <time>2020-05-10T12:51:23Z</time>
      </trkpt>
      <trkpt lat="48.77163" lon="7.35206">
        <ele>378.4</ele>
        <time>2020-05-10T12:51:24Z</time>
      </trkpt>
      <trkpt lat="48.77165" lon="7.35204">
        <ele>379.1</ele>
        <time>2020-05-10T12:51:26Z</time>
      </trkpt>
      <trkpt lat="48.77166" lon="7.35203">
        <ele>380</ele>
        <time>2020-05-10T12:51:28Z</time>
      </trkpt>
      <trkpt lat="48.77166" lon="7.35203">
        <ele>380.1</ele>
        <time>2020-05-10T12:51:29Z</time>
      </trkpt>
      <trkpt lat="48.77166" lon="7.35201">
        <ele>380.2</ele>
        <time>2020-05-10T12:51:31Z</time>
      </trkpt>
      <trkpt lat="48.77166" lon="7.35202">
        <ele>380.9</ele>
        <time>2020-05-10T12:51:33Z</time>
      </trkpt>
      <trkpt lat="48.77166" lon="7.35204">
        <ele>380.4</ele>
        <time>2020-05-10T12:51:34Z</time>
      </trkpt>
      <trkpt lat="48.77166" lon="7.35202">
        <ele>380.4</ele>
        <time>2020-05-10T12:51:36Z</time>
      </trkpt>
      <trkpt lat="48.77165" lon="7.35197">
        <ele>381.4</ele>
        <time>2020-05-10T12:51:38Z</time>
      </trkpt>
      <trkpt lat="48.77166" lon="7.35194">
        <ele>382.4</ele>
        <time>2020-05-10T12:51:40Z</time>
      </trkpt>
      <trkpt lat="48.77166" lon="7.35193">
        <ele>382.5</ele>
        <time>2020-05-10T12:51:41Z</time>
      </trkpt>
      <trkpt lat="48.77167" lon="7.3519">
        <ele>384.1</ele>
        <time>2020-05-10T12:51:43Z</time>
      </trkpt>
      <trkpt lat="48.77167" lon="7.35186">
        <ele>385.1</ele>
        <time>2020-05-10T12:51:45Z</time>
      </trkpt>
      <trkpt lat="48.77167" lon="7.35185">
        <ele>385.2</ele>
        <time>2020-05-10T12:51:46Z</time>
      </trkpt>
      <trkpt lat="48.77167" lon="7.35183">
        <ele>385.3</ele>
        <time>2020-05-10T12:51:47Z</time>
      </trkpt>
      <trkpt lat="48.77167" lon="7.35181">
        <ele>386.3</ele>
        <time>2020-05-10T12:51:49Z</time>
      </trkpt>
      <trkpt lat="48.77167" lon="7.35178">
        <ele>387.2</ele>
        <time>2020-05-10T12:51:50Z</time>
      </trkpt>
      <trkpt lat="48.77166" lon="7.35178">
        <ele>386.7</ele>
        <time>2020-05-10T12:51:52Z</time>
      </trkpt>
      <trkpt lat="48.77165" lon="7.35177">
        <ele>386.8</ele>
        <time>2020-05-10T12:51:53Z</time>
      </trkpt>
      <trkpt lat="48.77165" lon="7.35177">
        <ele>386.9</ele>
        <time>2020-05-10T12:51:54Z</time>
      </trkpt>
      <trkpt lat="48.77164" lon="7.35175">
        <ele>387</ele>
        <time>2020-05-10T12:51:56Z</time>
      </trkpt>
      <trkpt lat="48.77164" lon="7.35174">
        <ele>387.9</ele>
        <time>2020-05-10T12:51:57Z</time>
      </trkpt>
      <trkpt lat="48.77163" lon="7.35173">
        <ele>387.5</ele>
        <time>2020-05-10T12:51:58Z</time>
      </trkpt>
      <trkpt lat="48.77163" lon="7.35173">
        <ele>387.6</ele>
        <time>2020-05-10T12:51:59Z</time>
      </trkpt>
      <trkpt lat="48.77162" lon="7.35171">
        <ele>387.6</ele>
        <time>2020-05-10T12:52:01Z</time>
      </trkpt>
      <trkpt lat="48.77161" lon="7.35171">
        <ele>387.7</ele>
        <time>2020-05-10T12:52:03Z</time>
      </trkpt>
      <trkpt lat="48.7716" lon="7.35172">
        <ele>387.4</ele>
        <time>2020-05-10T12:52:05Z</time>
      </trkpt>
      <trkpt lat="48.7716" lon="7.35172">
        <ele>387.5</ele>
        <time>2020-05-10T12:52:06Z</time>
      </trkpt>
      <trkpt lat="48.7716" lon="7.35172">
        <ele>387.5</ele>
        <time>2020-05-10T12:52:07Z</time>
      </trkpt>
      <trkpt lat="48.7716" lon="7.35172">
        <ele>387.6</ele>
        <time>2020-05-10T12:52:08Z</time>
      </trkpt>
      <trkpt lat="48.77159" lon="7.35169">
        <ele>388.5</ele>
        <time>2020-05-10T12:52:10Z</time>
      </trkpt>
      <trkpt lat="48.77158" lon="7.35168">
        <ele>388.6</ele>
        <time>2020-05-10T12:52:11Z</time>
      </trkpt>
      <trkpt lat="48.77157" lon="7.35166">
        <ele>388.2</ele>
        <time>2020-05-10T12:52:13Z</time>
      </trkpt>
      <trkpt lat="48.77157" lon="7.35165">
        <ele>389</ele>
        <time>2020-05-10T12:52:14Z</time>
      </trkpt>
      <trkpt lat="48.77156" lon="7.35165">
        <ele>389.1</ele>
        <time>2020-05-10T12:52:16Z</time>
      </trkpt>
      <trkpt lat="48.77154" lon="7.35164">
        <ele>388.8</ele>
        <time>2020-05-10T12:52:18Z</time>
      </trkpt>
      <trkpt lat="48.77153" lon="7.35164">
        <ele>388.9</ele>
        <time>2020-05-10T12:52:20Z</time>
      </trkpt>
      <trkpt lat="48.77151" lon="7.35163">
        <ele>388.6</ele>
        <time>2020-05-10T12:52:22Z</time>
      </trkpt>
      <trkpt lat="48.7715" lon="7.35163">
        <ele>388.7</ele>
        <time>2020-05-10T12:52:23Z</time>
      </trkpt>
      <trkpt lat="48.77149" lon="7.35161">
        <ele>389.1</ele>
        <time>2020-05-10T12:52:25Z</time>
      </trkpt>
      <trkpt lat="48.77148" lon="7.35161">
        <ele>389.2</ele>
        <time>2020-05-10T12:52:27Z</time>
      </trkpt>
      <trkpt lat="48.77147" lon="7.35161">
        <ele>389.3</ele>
        <time>2020-05-10T12:52:28Z</time>
      </trkpt>
      <trkpt lat="48.77146" lon="7.35162">
        <ele>388.3</ele>
        <time>2020-05-10T12:52:29Z</time>
      </trkpt>
      <trkpt lat="48.77145" lon="7.35163">
        <ele>388.4</ele>
        <time>2020-05-10T12:52:31Z</time>
      </trkpt>
      <trkpt lat="48.77143" lon="7.35163">
        <ele>388.1</ele>
        <time>2020-05-10T12:52:33Z</time>
      </trkpt>
      <trkpt lat="48.77141" lon="7.35165">
        <ele>388.2</ele>
        <time>2020-05-10T12:52:35Z</time>
      </trkpt>
      <trkpt lat="48.7714" lon="7.35166">
        <ele>387.2</ele>
        <time>2020-05-10T12:52:36Z</time>
      </trkpt>
      <trkpt lat="48.77138" lon="7.35166">
        <ele>387.3</ele>
        <time>2020-05-10T12:52:38Z</time>
      </trkpt>
      <trkpt lat="48.77137" lon="7.35167">
        <ele>387.1</ele>
        <time>2020-05-10T12:52:39Z</time>
      </trkpt>
      <trkpt lat="48.77136" lon="7.35166">
        <ele>387.2</ele>
        <time>2020-05-10T12:52:40Z</time>
      </trkpt>
      <trkpt lat="48.77135" lon="7.35166">
        <ele>386.9</ele>
        <time>2020-05-10T12:52:42Z</time>
      </trkpt>
      <trkpt lat="48.77134" lon="7.35166">
        <ele>387</ele>
        <time>2020-05-10T12:52:43Z</time>
      </trkpt>
      <trkpt lat="48.77133" lon="7.35165">
        <ele>387.8</ele>
        <time>2020-05-10T12:52:45Z</time>
      </trkpt>
      <trkpt lat="48.77132" lon="7.35165">
        <ele>387.7</ele>
        <time>2020-05-10T12:52:47Z</time>
      </trkpt>
      <trkpt lat="48.77131" lon="7.35167">
        <ele>387</ele>
        <time>2020-05-10T12:52:49Z</time>
      </trkpt>
      <trkpt lat="48.7713" lon="7.35167">
        <ele>387.1</ele>
        <time>2020-05-10T12:52:50Z</time>
      </trkpt>
      <trkpt lat="48.7713" lon="7.35168">
        <ele>387.2</ele>
        <time>2020-05-10T12:52:51Z</time>
      </trkpt>
      <trkpt lat="48.7713" lon="7.35168">
        <ele>387.3</ele>
        <time>2020-05-10T12:52:52Z</time>
      </trkpt>
      <trkpt lat="48.77128" lon="7.3517">
        <ele>387.2</ele>
        <time>2020-05-10T12:52:54Z</time>
      </trkpt>
      <trkpt lat="48.77127" lon="7.35169">
        <ele>387.3</ele>
        <time>2020-05-10T12:52:55Z</time>
      </trkpt>
      <trkpt lat="48.77125" lon="7.35169">
        <ele>387.2</ele>
        <time>2020-05-10T12:52:57Z</time>
      </trkpt>
      <trkpt lat="48.77123" lon="7.35168">
        <ele>387.2</ele>
        <time>2020-05-10T12:52:58Z</time>
      </trkpt>
      <trkpt lat="48.77121" lon="7.35167">
        <ele>387.3</ele>
        <time>2020-05-10T12:53:00Z</time>
      </trkpt>
      <trkpt lat="48.77119" lon="7.35167">
        <ele>387.3</ele>
        <time>2020-05-10T12:53:02Z</time>
      </trkpt>
      <trkpt lat="48.77118" lon="7.35166">
        <ele>387.3</ele>
        <time>2020-05-10T12:53:03Z</time>
      </trkpt>
      <trkpt lat="48.77116" lon="7.35166">
        <ele>387.4</ele>
        <time>2020-05-10T12:53:04Z</time>
      </trkpt>
      <trkpt lat="48.77115" lon="7.35166">
        <ele>388.2</ele>
        <time>2020-05-10T12:53:06Z</time>
      </trkpt>
      <trkpt lat="48.77114" lon="7.35165">
        <ele>388.3</ele>
        <time>2020-05-10T12:53:07Z</time>
      </trkpt>
      <trkpt lat="48.77112" lon="7.35164">
        <ele>388.3</ele>
        <time>2020-05-10T12:53:09Z</time>
      </trkpt>
      <trkpt lat="48.77111" lon="7.35163">
        <ele>388.4</ele>
        <time>2020-05-10T12:53:11Z</time>
      </trkpt>
      <trkpt lat="48.7711" lon="7.35162">
        <ele>388.5</ele>
        <time>2020-05-10T12:53:12Z</time>
      </trkpt>
      <trkpt lat="48.7711" lon="7.35161">
        <ele>389.3</ele>
        <time>2020-05-10T12:53:14Z</time>
      </trkpt>
      <trkpt lat="48.7711" lon="7.3516">
        <ele>389.4</ele>
        <time>2020-05-10T12:53:16Z</time>
      </trkpt>
      <trkpt lat="48.7711" lon="7.35159">
        <ele>389.5</ele>
        <time>2020-05-10T12:53:17Z</time>
      </trkpt>
      <trkpt lat="48.77109" lon="7.35157">
        <ele>389.6</ele>
        <time>2020-05-10T12:53:18Z</time>
      </trkpt>
      <trkpt lat="48.77108" lon="7.35156">
        <ele>390.4</ele>
        <time>2020-05-10T12:53:20Z</time>
      </trkpt>
      <trkpt lat="48.77108" lon="7.35153">
        <ele>390.5</ele>
        <time>2020-05-10T12:53:22Z</time>
      </trkpt>
      <trkpt lat="48.77107" lon="7.35152">
        <ele>391.4</ele>
        <time>2020-05-10T12:53:23Z</time>
      </trkpt>
      <trkpt lat="48.77107" lon="7.3515">
        <ele>391.4</ele>
        <time>2020-05-10T12:53:24Z</time>
      </trkpt>
      <trkpt lat="48.77107" lon="7.35148">
        <ele>392.5</ele>
        <time>2020-05-10T12:53:26Z</time>
      </trkpt>
      <trkpt lat="48.77107" lon="7.35147">
        <ele>392.6</ele>
        <time>2020-05-10T12:53:27Z</time>
      </trkpt>
      <trkpt lat="48.77106" lon="7.35144">
        <ele>393.6</ele>
        <time>2020-05-10T12:53:29Z</time>
      </trkpt>
      <trkpt lat="48.77105" lon="7.35142">
        <ele>393.6</ele>
        <time>2020-05-10T12:53:30Z</time>
      </trkpt>
      <trkpt lat="48.77104" lon="7.3514">
        <ele>393.7</ele>
        <time>2020-05-10T12:53:32Z</time>
      </trkpt>
      <trkpt lat="48.77103" lon="7.35137">
        <ele>394.9</ele>
        <time>2020-05-10T12:53:34Z</time>
      </trkpt>
      <trkpt lat="48.77103" lon="7.35135">
        <ele>395.9</ele>
        <time>2020-05-10T12:53:36Z</time>
      </trkpt>
      <trkpt lat="48.77102" lon="7.35134">
        <ele>396</ele>
        <time>2020-05-10T12:53:37Z</time>
      </trkpt>
      <trkpt lat="48.77101" lon="7.35132">
        <ele>396.3</ele>
        <time>2020-05-10T12:53:39Z</time>
      </trkpt>
      <trkpt lat="48.77097" lon="7.35131">
        <ele>397.5</ele>
        <time>2020-05-10T12:53:41Z</time>
      </trkpt>
      <trkpt lat="48.77096" lon="7.35131">
        <ele>397.4</ele>
        <time>2020-05-10T12:53:42Z</time>
      </trkpt>
      <trkpt lat="48.77094" lon="7.35131">
        <ele>397.4</ele>
        <time>2020-05-10T12:53:43Z</time>
      </trkpt>
      <trkpt lat="48.77089" lon="7.35128">
        <ele>397.3</ele>
        <time>2020-05-10T12:53:45Z</time>
      </trkpt>
      <trkpt lat="48.77085" lon="7.35127">
        <ele>397.2</ele>
        <time>2020-05-10T12:53:46Z</time>
      </trkpt>
      <trkpt lat="48.77081" lon="7.35126">
        <ele>397.1</ele>
        <time>2020-05-10T12:53:47Z</time>
      </trkpt>
      <trkpt lat="48.77077" lon="7.35125">
        <ele>397</ele>
        <time>2020-05-10T12:53:48Z</time>
      </trkpt>
      <trkpt lat="48.77067" lon="7.35124">
        <ele>396.8</ele>
        <time>2020-05-10T12:53:50Z</time>
      </trkpt>
      <trkpt lat="48.77062" lon="7.35126">
        <ele>396.7</ele>
        <time>2020-05-10T12:53:51Z</time>
      </trkpt>
      <trkpt lat="48.77057" lon="7.35127">
        <ele>396.6</ele>
        <time>2020-05-10T12:53:52Z</time>
      </trkpt>
      <trkpt lat="48.77048" lon="7.35124">
        <ele>396.5</ele>
        <time>2020-05-10T12:53:54Z</time>
      </trkpt>
      <trkpt lat="48.77038" lon="7.35124">
        <ele>396.4</ele>
        <time>2020-05-10T12:53:56Z</time>
      </trkpt>
      <trkpt lat="48.77034" lon="7.35125">
        <ele>396.4</ele>
        <time>2020-05-10T12:53:57Z</time>
      </trkpt>
      <trkpt lat="48.77027" lon="7.35122">
        <ele>396.4</ele>
        <time>2020-05-10T12:53:59Z</time>
      </trkpt>
      <trkpt lat="48.77024" lon="7.35119">
        <ele>396.4</ele>
        <time>2020-05-10T12:54:00Z</time>
      </trkpt>
      <trkpt lat="48.77021" lon="7.35117">
        <ele>396.4</ele>
        <time>2020-05-10T12:54:01Z</time>
      </trkpt>
      <trkpt lat="48.77013" lon="7.3511">
        <ele>396.3</ele>
        <time>2020-05-10T12:54:03Z</time>
      </trkpt>
      <trkpt lat="48.7701" lon="7.35106">
        <ele>396.3</ele>
        <time>2020-05-10T12:54:04Z</time>
      </trkpt>
      <trkpt lat="48.77007" lon="7.35101">
        <ele>396.2</ele>
        <time>2020-05-10T12:54:05Z</time>
      </trkpt>
      <trkpt lat="48.77003" lon="7.35097">
        <ele>396.1</ele>
        <time>2020-05-10T12:54:06Z</time>
      </trkpt>
      <trkpt lat="48.76997" lon="7.35088">
        <ele>395.9</ele>
        <time>2020-05-10T12:54:08Z</time>
      </trkpt>
      <trkpt lat="48.76995" lon="7.35082">
        <ele>395.8</ele>
        <time>2020-05-10T12:54:09Z</time>
      </trkpt>
      <trkpt lat="48.76991" lon="7.35079">
        <ele>395.6</ele>
        <time>2020-05-10T12:54:10Z</time>
      </trkpt>
      <trkpt lat="48.76987" lon="7.35076">
        <ele>395.5</ele>
        <time>2020-05-10T12:54:11Z</time>
      </trkpt>
      <trkpt lat="48.76979" lon="7.35068">
        <ele>395.3</ele>
        <time>2020-05-10T12:54:13Z</time>
      </trkpt>
      <trkpt lat="48.76973" lon="7.35056">
        <ele>395</ele>
        <time>2020-05-10T12:54:15Z</time>
      </trkpt>
      <trkpt lat="48.76968" lon="7.35052">
        <ele>395</ele>
        <time>2020-05-10T12:54:16Z</time>
      </trkpt>
      <trkpt lat="48.76958" lon="7.35043">
        <ele>394.5</ele>
        <time>2020-05-10T12:54:18Z</time>
      </trkpt>
      <trkpt lat="48.76954" lon="7.35036">
        <ele>393.9</ele>
        <time>2020-05-10T12:54:19Z</time>
      </trkpt>
      <trkpt lat="48.76945" lon="7.35026">
        <ele>392.9</ele>
        <time>2020-05-10T12:54:21Z</time>
      </trkpt>
      <trkpt lat="48.76941" lon="7.3502">
        <ele>392.3</ele>
        <time>2020-05-10T12:54:22Z</time>
      </trkpt>
      <trkpt lat="48.76936" lon="7.35015">
        <ele>391.7</ele>
        <time>2020-05-10T12:54:23Z</time>
      </trkpt>
      <trkpt lat="48.76926" lon="7.35002">
        <ele>390.3</ele>
        <time>2020-05-10T12:54:25Z</time>
      </trkpt>
      <trkpt lat="48.76916" lon="7.34992">
        <ele>389</ele>
        <time>2020-05-10T12:54:27Z</time>
      </trkpt>
      <trkpt lat="48.7691" lon="7.34987">
        <ele>388.4</ele>
        <time>2020-05-10T12:54:28Z</time>
      </trkpt>
      <trkpt lat="48.76901" lon="7.34976">
        <ele>387.2</ele>
        <time>2020-05-10T12:54:30Z</time>
      </trkpt>
      <trkpt lat="48.76891" lon="7.34965">
        <ele>386</ele>
        <time>2020-05-10T12:54:32Z</time>
      </trkpt>
      <trkpt lat="48.7688" lon="7.34956">
        <ele>384.9</ele>
        <time>2020-05-10T12:54:34Z</time>
      </trkpt>
      <trkpt lat="48.76875" lon="7.34951">
        <ele>384.3</ele>
        <time>2020-05-10T12:54:35Z</time>
      </trkpt>
      <trkpt lat="48.76865" lon="7.34939">
        <ele>383.1</ele>
        <time>2020-05-10T12:54:37Z</time>
      </trkpt>
      <trkpt lat="48.76859" lon="7.34932">
        <ele>382.6</ele>
        <time>2020-05-10T12:54:38Z</time>
      </trkpt>
      <trkpt lat="48.76854" lon="7.34928">
        <ele>382.1</ele>
        <time>2020-05-10T12:54:39Z</time>
      </trkpt>
      <trkpt lat="48.76842" lon="7.34924">
        <ele>381.3</ele>
        <time>2020-05-10T12:54:41Z</time>
      </trkpt>
      <trkpt lat="48.76836" lon="7.34922">
        <ele>380.8</ele>
        <time>2020-05-10T12:54:42Z</time>
      </trkpt>
      <trkpt lat="48.76826" lon="7.34918">
        <ele>380</ele>
        <time>2020-05-10T12:54:44Z</time>
      </trkpt>
      <trkpt lat="48.76815" lon="7.34911">
        <ele>379.5</ele>
        <time>2020-05-10T12:54:46Z</time>
      </trkpt>
      <trkpt lat="48.7681" lon="7.34908">
        <ele>379.2</ele>
        <time>2020-05-10T12:54:47Z</time>
      </trkpt>
      <trkpt lat="48.76799" lon="7.34903">
        <ele>378.7</ele>
        <time>2020-05-10T12:54:49Z</time>
      </trkpt>
      <trkpt lat="48.76789" lon="7.34899">
        <ele>378.4</ele>
        <time>2020-05-10T12:54:50Z</time>
      </trkpt>
      <trkpt lat="48.76783" lon="7.34895">
        <ele>378.3</ele>
        <time>2020-05-10T12:54:52Z</time>
      </trkpt>
      <trkpt lat="48.76778" lon="7.34892">
        <ele>378.2</ele>
        <time>2020-05-10T12:54:53Z</time>
      </trkpt>
      <trkpt lat="48.7677" lon="7.34884">
        <ele>378.2</ele>
        <time>2020-05-10T12:54:55Z</time>
      </trkpt>
      <trkpt lat="48.76761" lon="7.34878">
        <ele>378.1</ele>
        <time>2020-05-10T12:54:57Z</time>
      </trkpt>
      <trkpt lat="48.76757" lon="7.34874">
        <ele>378</ele>
        <time>2020-05-10T12:54:58Z</time>
      </trkpt>
      <trkpt lat="48.76751" lon="7.34873">
        <ele>378</ele>
        <time>2020-05-10T12:54:59Z</time>
      </trkpt>
      <trkpt lat="48.76744" lon="7.34866">
        <ele>378.1</ele>
        <time>2020-05-10T12:55:01Z</time>
      </trkpt>
      <trkpt lat="48.76741" lon="7.34862">
        <ele>378.2</ele>
        <time>2020-05-10T12:55:02Z</time>
      </trkpt>
      <trkpt lat="48.76736" lon="7.34854">
        <ele>378.4</ele>
        <time>2020-05-10T12:55:04Z</time>
      </trkpt>
      <trkpt lat="48.76735" lon="7.34852">
        <ele>378.5</ele>
        <time>2020-05-10T12:55:06Z</time>
      </trkpt>
      <trkpt lat="48.76735" lon="7.34852">
        <ele>378.5</ele>
        <time>2020-05-10T12:55:07Z</time>
      </trkpt>
      <trkpt lat="48.76734" lon="7.34851">
        <ele>378.6</ele>
        <time>2020-05-10T12:55:09Z</time>
      </trkpt>
      <trkpt lat="48.76733" lon="7.3485">
        <ele>378.6</ele>
        <time>2020-05-10T12:55:10Z</time>
      </trkpt>
      <trkpt lat="48.7673" lon="7.34848">
        <ele>378.8</ele>
        <time>2020-05-10T12:55:12Z</time>
      </trkpt>
      <trkpt lat="48.76725" lon="7.34839">
        <ele>379.2</ele>
        <time>2020-05-10T12:55:14Z</time>
      </trkpt>
      <trkpt lat="48.76723" lon="7.34835">
        <ele>379.4</ele>
        <time>2020-05-10T12:55:15Z</time>
      </trkpt>
      <trkpt lat="48.76719" lon="7.34827">
        <ele>379.8</ele>
        <time>2020-05-10T12:55:17Z</time>
      </trkpt>
      <trkpt lat="48.76717" lon="7.34823">
        <ele>380</ele>
        <time>2020-05-10T12:55:18Z</time>
      </trkpt>
      <trkpt lat="48.76711" lon="7.34814">
        <ele>380.4</ele>
        <time>2020-05-10T12:55:20Z</time>
      </trkpt>
      <trkpt lat="48.76706" lon="7.34805">
        <ele>380.8</ele>
        <time>2020-05-10T12:55:22Z</time>
      </trkpt>
      <trkpt lat="48.76702" lon="7.34797">
        <ele>381.2</ele>
        <time>2020-05-10T12:55:24Z</time>
      </trkpt>
      <trkpt lat="48.76697" lon="7.3479">
        <ele>381.5</ele>
        <time>2020-05-10T12:55:26Z</time>
      </trkpt>
      <trkpt lat="48.76695" lon="7.34786">
        <ele>381.6</ele>
        <time>2020-05-10T12:55:27Z</time>
      </trkpt>
      <trkpt lat="48.76691" lon="7.34778">
        <ele>381.9</ele>
        <time>2020-05-10T12:55:29Z</time>
      </trkpt>
      <trkpt lat="48.76687" lon="7.34769">
        <ele>382.2</ele>
        <time>2020-05-10T12:55:30Z</time>
      </trkpt>
      <trkpt lat="48.76684" lon="7.34764">
        <ele>382.3</ele>
        <time>2020-05-10T12:55:32Z</time>
      </trkpt>
      <trkpt lat="48.76681" lon="7.34755">
        <ele>382.5</ele>
        <time>2020-05-10T12:55:34Z</time>
      </trkpt>
      <trkpt lat="48.76679" lon="7.3475">
        <ele>382.6</ele>
        <time>2020-05-10T12:55:35Z</time>
      </trkpt>
      <trkpt lat="48.76677" lon="7.34738">
        <ele>382.7</ele>
        <time>2020-05-10T12:55:37Z</time>
      </trkpt>
      <trkpt lat="48.76675" lon="7.34732">
        <ele>382.8</ele>
        <time>2020-05-10T12:55:38Z</time>
      </trkpt>
      <trkpt lat="48.76673" lon="7.34721">
        <ele>382.9</ele>
        <time>2020-05-10T12:55:40Z</time>
      </trkpt>
      <trkpt lat="48.76671" lon="7.34716">
        <ele>382.9</ele>
        <time>2020-05-10T12:55:41Z</time>
      </trkpt>
      <trkpt lat="48.76668" lon="7.34706">
        <ele>383</ele>
        <time>2020-05-10T12:55:43Z</time>
      </trkpt>
      <trkpt lat="48.76665" lon="7.34695">
        <ele>383</ele>
        <time>2020-05-10T12:55:45Z</time>
      </trkpt>
      <trkpt lat="48.76663" lon="7.3469">
        <ele>383</ele>
        <time>2020-05-10T12:55:46Z</time>
      </trkpt>
      <trkpt lat="48.7666" lon="7.34679">
        <ele>383.1</ele>
        <time>2020-05-10T12:55:48Z</time>
      </trkpt>
      <trkpt lat="48.76659" lon="7.34675">
        <ele>383.1</ele>
        <time>2020-05-10T12:55:49Z</time>
      </trkpt>
      <trkpt lat="48.76656" lon="7.34662">
        <ele>383.2</ele>
        <time>2020-05-10T12:55:51Z</time>
      </trkpt>
      <trkpt lat="48.76654" lon="7.34655">
        <ele>383.3</ele>
        <time>2020-05-10T12:55:52Z</time>
      </trkpt>
      <trkpt lat="48.7665" lon="7.34641">
        <ele>383.4</ele>
        <time>2020-05-10T12:55:54Z</time>
      </trkpt>
      <trkpt lat="48.76648" lon="7.34635">
        <ele>383.4</ele>
        <time>2020-05-10T12:55:55Z</time>
      </trkpt>
      <trkpt lat="48.76643" lon="7.34624">
        <ele>383.6</ele>
        <time>2020-05-10T12:55:57Z</time>
      </trkpt>
      <trkpt lat="48.76642" lon="7.34617">
        <ele>383.7</ele>
        <time>2020-05-10T12:55:58Z</time>
      </trkpt>
      <trkpt lat="48.76638" lon="7.34603">
        <ele>384</ele>
        <time>2020-05-10T12:56:00Z</time>
      </trkpt>
      <trkpt lat="48.76635" lon="7.34587">
        <ele>384.4</ele>
        <time>2020-05-10T12:56:02Z</time>
      </trkpt>
      <trkpt lat="48.76632" lon="7.34573">
        <ele>384.8</ele>
        <time>2020-05-10T12:56:04Z</time>
      </trkpt>
      <trkpt lat="48.76629" lon="7.3456">
        <ele>385.1</ele>
        <time>2020-05-10T12:56:06Z</time>
      </trkpt>
      <trkpt lat="48.76631" lon="7.34544">
        <ele>385.5</ele>
        <time>2020-05-10T12:56:08Z</time>
      </trkpt>
      <trkpt lat="48.76632" lon="7.34528">
        <ele>385.8</ele>
        <time>2020-05-10T12:56:10Z</time>
      </trkpt>
      <trkpt lat="48.76633" lon="7.34522">
        <ele>385.8</ele>
        <time>2020-05-10T12:56:11Z</time>
      </trkpt>
      <trkpt lat="48.76634" lon="7.34516">
        <ele>385.9</ele>
        <time>2020-05-10T12:56:12Z</time>
      </trkpt>
      <trkpt lat="48.76635" lon="7.34501">
        <ele>385.9</ele>
        <time>2020-05-10T12:56:14Z</time>
      </trkpt>
      <trkpt lat="48.76636" lon="7.34493">
        <ele>385.9</ele>
        <time>2020-05-10T12:56:15Z</time>
      </trkpt>
      <trkpt lat="48.76637" lon="7.34484">
        <ele>385.9</ele>
        <time>2020-05-10T12:56:16Z</time>
      </trkpt>
      <trkpt lat="48.76639" lon="7.34467">
        <ele>385.9</ele>
        <time>2020-05-10T12:56:18Z</time>
      </trkpt>
      <trkpt lat="48.76641" lon="7.34459">
        <ele>385.9</ele>
        <time>2020-05-10T12:56:19Z</time>
      </trkpt>
      <trkpt lat="48.76644" lon="7.3445">
        <ele>386</ele>
        <time>2020-05-10T12:56:20Z</time>
      </trkpt>
      <trkpt lat="48.76651" lon="7.34436">
        <ele>386.1</ele>
        <time>2020-05-10T12:56:22Z</time>
      </trkpt>
      <trkpt lat="48.76659" lon="7.34422">
        <ele>386.4</ele>
        <time>2020-05-10T12:56:24Z</time>
      </trkpt>
      <trkpt lat="48.76664" lon="7.34412">
        <ele>386.5</ele>
        <time>2020-05-10T12:56:26Z</time>
      </trkpt>
      <trkpt lat="48.76671" lon="7.34403">
        <ele>386.7</ele>
        <time>2020-05-10T12:56:28Z</time>
      </trkpt>
      <trkpt lat="48.76679" lon="7.34395">
        <ele>386.8</ele>
        <time>2020-05-10T12:56:30Z</time>
      </trkpt>
      <trkpt lat="48.76688" lon="7.34384">
        <ele>386.9</ele>
        <time>2020-05-10T12:56:32Z</time>
      </trkpt>
      <trkpt lat="48.76692" lon="7.34378">
        <ele>386.9</ele>
        <time>2020-05-10T12:56:33Z</time>
      </trkpt>
      <trkpt lat="48.76696" lon="7.34372">
        <ele>387</ele>
        <time>2020-05-10T12:56:34Z</time>
      </trkpt>
      <trkpt lat="48.76702" lon="7.34359">
        <ele>386.9</ele>
        <time>2020-05-10T12:56:36Z</time>
      </trkpt>
      <trkpt lat="48.76706" lon="7.34353">
        <ele>386.9</ele>
        <time>2020-05-10T12:56:37Z</time>
      </trkpt>
      <trkpt lat="48.76717" lon="7.3434">
        <ele>386.9</ele>
        <time>2020-05-10T12:56:39Z</time>
      </trkpt>
      <trkpt lat="48.76722" lon="7.34333">
        <ele>386.9</ele>
        <time>2020-05-10T12:56:40Z</time>
      </trkpt>
      <trkpt lat="48.76728" lon="7.34327">
        <ele>387</ele>
        <time>2020-05-10T12:56:41Z</time>
      </trkpt>
      <trkpt lat="48.76733" lon="7.34321">
        <ele>387</ele>
        <time>2020-05-10T12:56:42Z</time>
      </trkpt>
      <trkpt lat="48.76742" lon="7.34306">
        <ele>387.3</ele>
        <time>2020-05-10T12:56:44Z</time>
      </trkpt>
      <trkpt lat="48.76747" lon="7.34301">
        <ele>387.4</ele>
        <time>2020-05-10T12:56:45Z</time>
      </trkpt>
      <trkpt lat="48.76752" lon="7.34296">
        <ele>387.6</ele>
        <time>2020-05-10T12:56:46Z</time>
      </trkpt>
      <trkpt lat="48.76762" lon="7.34285">
        <ele>388</ele>
        <time>2020-05-10T12:56:48Z</time>
      </trkpt>
      <trkpt lat="48.76766" lon="7.3428">
        <ele>388.2</ele>
        <time>2020-05-10T12:56:49Z</time>
      </trkpt>
      <trkpt lat="48.76771" lon="7.34275">
        <ele>388.4</ele>
        <time>2020-05-10T12:56:50Z</time>
      </trkpt>
      <trkpt lat="48.76779" lon="7.34264">
        <ele>388.9</ele>
        <time>2020-05-10T12:56:52Z</time>
      </trkpt>
      <trkpt lat="48.76787" lon="7.34255">
        <ele>389.3</ele>
        <time>2020-05-10T12:56:54Z</time>
      </trkpt>
      <trkpt lat="48.7679" lon="7.34252">
        <ele>389.5</ele>
        <time>2020-05-10T12:56:55Z</time>
      </trkpt>
      <trkpt lat="48.76795" lon="7.34243">
        <ele>390</ele>
        <time>2020-05-10T12:56:57Z</time>
      </trkpt>
      <trkpt lat="48.76801" lon="7.34232">
        <ele>390.6</ele>
        <time>2020-05-10T12:56:59Z</time>
      </trkpt>
      <trkpt lat="48.7681" lon="7.34225">
        <ele>391.2</ele>
        <time>2020-05-10T12:57:01Z</time>
      </trkpt>
      <trkpt lat="48.76818" lon="7.34222">
        <ele>391.9</ele>
        <time>2020-05-10T12:57:03Z</time>
      </trkpt>
      <trkpt lat="48.76828" lon="7.34221">
        <ele>392.5</ele>
        <time>2020-05-10T12:57:05Z</time>
      </trkpt>
      <trkpt lat="48.76832" lon="7.34222">
        <ele>392.8</ele>
        <time>2020-05-10T12:57:06Z</time>
      </trkpt>
      <trkpt lat="48.76842" lon="7.34226">
        <ele>393.3</ele>
        <time>2020-05-10T12:57:08Z</time>
      </trkpt>
      <trkpt lat="48.76847" lon="7.34228">
        <ele>393.5</ele>
        <time>2020-05-10T12:57:09Z</time>
      </trkpt>
      <trkpt lat="48.76856" lon="7.34232">
        <ele>393.9</ele>
        <time>2020-05-10T12:57:11Z</time>
      </trkpt>
      <trkpt lat="48.76861" lon="7.34236">
        <ele>394.1</ele>
        <time>2020-05-10T12:57:12Z</time>
      </trkpt>
      <trkpt lat="48.76869" lon="7.34242">
        <ele>394.3</ele>
        <time>2020-05-10T12:57:14Z</time>
      </trkpt>
      <trkpt lat="48.76877" lon="7.3425">
        <ele>394.5</ele>
        <time>2020-05-10T12:57:16Z</time>
      </trkpt>
      <trkpt lat="48.76884" lon="7.34256">
        <ele>394.7</ele>
        <time>2020-05-10T12:57:18Z</time>
      </trkpt>
      <trkpt lat="48.76892" lon="7.34259">
        <ele>394.9</ele>
        <time>2020-05-10T12:57:20Z</time>
      </trkpt>
      <trkpt lat="48.76896" lon="7.3426">
        <ele>394.9</ele>
        <time>2020-05-10T12:57:21Z</time>
      </trkpt>
      <trkpt lat="48.76904" lon="7.34263">
        <ele>395</ele>
        <time>2020-05-10T12:57:23Z</time>
      </trkpt>
      <trkpt lat="48.76915" lon="7.34273">
        <ele>395.1</ele>
        <time>2020-05-10T12:57:25Z</time>
      </trkpt>
      <trkpt lat="48.76925" lon="7.34279">
        <ele>395.2</ele>
        <time>2020-05-10T12:57:27Z</time>
      </trkpt>
      <trkpt lat="48.76932" lon="7.34283">
        <ele>395.3</ele>
        <time>2020-05-10T12:57:28Z</time>
      </trkpt>
      <trkpt lat="48.76944" lon="7.3429">
        <ele>395.5</ele>
        <time>2020-05-10T12:57:30Z</time>
      </trkpt>
      <trkpt lat="48.76949" lon="7.34294">
        <ele>395.6</ele>
        <time>2020-05-10T12:57:31Z</time>
      </trkpt>
      <trkpt lat="48.76954" lon="7.34295">
        <ele>395.7</ele>
        <time>2020-05-10T12:57:32Z</time>
      </trkpt>
      <trkpt lat="48.76963" lon="7.34303">
        <ele>396</ele>
        <time>2020-05-10T12:57:34Z</time>
      </trkpt>
      <trkpt lat="48.76971" lon="7.34311">
        <ele>396.3</ele>
        <time>2020-05-10T12:57:36Z</time>
      </trkpt>
      <trkpt lat="48.76974" lon="7.34314">
        <ele>396.5</ele>
        <time>2020-05-10T12:57:37Z</time>
      </trkpt>
      <trkpt lat="48.76979" lon="7.34317">
        <ele>396.6</ele>
        <time>2020-05-10T12:57:38Z</time>
      </trkpt>
      <trkpt lat="48.76983" lon="7.34319">
        <ele>396.7</ele>
        <time>2020-05-10T12:57:39Z</time>
      </trkpt>
      <trkpt lat="48.76991" lon="7.34326">
        <ele>397</ele>
        <time>2020-05-10T12:57:41Z</time>
      </trkpt>
      <trkpt lat="48.76995" lon="7.34327">
        <ele>397.1</ele>
        <time>2020-05-10T12:57:42Z</time>
      </trkpt>
      <trkpt lat="48.77002" lon="7.34328">
        <ele>397.3</ele>
        <time>2020-05-10T12:57:44Z</time>
      </trkpt>
      <trkpt lat="48.77012" lon="7.34331">
        <ele>397.6</ele>
        <time>2020-05-10T12:57:46Z</time>
      </trkpt>
      <trkpt lat="48.77022" lon="7.34336">
        <ele>398</ele>
        <time>2020-05-10T12:57:48Z</time>
      </trkpt>
      <trkpt lat="48.77027" lon="7.34339">
        <ele>398.2</ele>
        <time>2020-05-10T12:57:49Z</time>
      </trkpt>
      <trkpt lat="48.77037" lon="7.34343">
        <ele>398.7</ele>
        <time>2020-05-10T12:57:51Z</time>
      </trkpt>
      <trkpt lat="48.77043" lon="7.34343">
        <ele>398.9</ele>
        <time>2020-05-10T12:57:52Z</time>
      </trkpt>
      <trkpt lat="48.77052" lon="7.34345">
        <ele>399.3</ele>
        <time>2020-05-10T12:57:54Z</time>
      </trkpt>
      <trkpt lat="48.77061" lon="7.34349">
        <ele>399.6</ele>
        <time>2020-05-10T12:57:56Z</time>
      </trkpt>
      <trkpt lat="48.77071" lon="7.34351">
        <ele>399.8</ele>
        <time>2020-05-10T12:57:58Z</time>
      </trkpt>
      <trkpt lat="48.77078" lon="7.34351">
        <ele>400</ele>
        <time>2020-05-10T12:58:00Z</time>
      </trkpt>
      <trkpt lat="48.77083" lon="7.34354">
        <ele>400.1</ele>
        <time>2020-05-10T12:58:01Z</time>
      </trkpt>
      <trkpt lat="48.77092" lon="7.34358">
        <ele>400.3</ele>
        <time>2020-05-10T12:58:03Z</time>
      </trkpt>
      <trkpt lat="48.77097" lon="7.34359">
        <ele>400.4</ele>
        <time>2020-05-10T12:58:04Z</time>
      </trkpt>
      <trkpt lat="48.77105" lon="7.34362">
        <ele>400.5</ele>
        <time>2020-05-10T12:58:06Z</time>
      </trkpt>
      <trkpt lat="48.7711" lon="7.34365">
        <ele>400.6</ele>
        <time>2020-05-10T12:58:08Z</time>
      </trkpt>
      <trkpt lat="48.77113" lon="7.34366">
        <ele>400.7</ele>
        <time>2020-05-10T12:58:09Z</time>
      </trkpt>
      <trkpt lat="48.77122" lon="7.34371">
        <ele>400.8</ele>
        <time>2020-05-10T12:58:11Z</time>
      </trkpt>
      <trkpt lat="48.77126" lon="7.34372">
        <ele>400.8</ele>
        <time>2020-05-10T12:58:12Z</time>
      </trkpt>
      <trkpt lat="48.77138" lon="7.34369">
        <ele>401</ele>
        <time>2020-05-10T12:58:14Z</time>
      </trkpt>
      <trkpt lat="48.77144" lon="7.34368">
        <ele>401</ele>
        <time>2020-05-10T12:58:15Z</time>
      </trkpt>
      <trkpt lat="48.77151" lon="7.34368">
        <ele>401.1</ele>
        <time>2020-05-10T12:58:16Z</time>
      </trkpt>
      <trkpt lat="48.77163" lon="7.34374">
        <ele>401.2</ele>
        <time>2020-05-10T12:58:18Z</time>
      </trkpt>
      <trkpt lat="48.77175" lon="7.34378">
        <ele>401.4</ele>
        <time>2020-05-10T12:58:20Z</time>
      </trkpt>
      <trkpt lat="48.77187" lon="7.34383">
        <ele>401.5</ele>
        <time>2020-05-10T12:58:22Z</time>
      </trkpt>
      <trkpt lat="48.77194" lon="7.34385">
        <ele>401.5</ele>
        <time>2020-05-10T12:58:23Z</time>
      </trkpt>
      <trkpt lat="48.77203" lon="7.34388">
        <ele>401.6</ele>
        <time>2020-05-10T12:58:25Z</time>
      </trkpt>
      <trkpt lat="48.77209" lon="7.34391">
        <ele>401.6</ele>
        <time>2020-05-10T12:58:26Z</time>
      </trkpt>
      <trkpt lat="48.77221" lon="7.34397">
        <ele>401.6</ele>
        <time>2020-05-10T12:58:28Z</time>
      </trkpt>
      <trkpt lat="48.77227" lon="7.34398">
        <ele>401.7</ele>
        <time>2020-05-10T12:58:29Z</time>
      </trkpt>
      <trkpt lat="48.77239" lon="7.34402">
        <ele>401.8</ele>
        <time>2020-05-10T12:58:31Z</time>
      </trkpt>
      <trkpt lat="48.7725" lon="7.34406">
        <ele>402</ele>
        <time>2020-05-10T12:58:33Z</time>
      </trkpt>
      <trkpt lat="48.77262" lon="7.34403">
        <ele>402.3</ele>
        <time>2020-05-10T12:58:35Z</time>
      </trkpt>
      <trkpt lat="48.77271" lon="7.34396">
        <ele>402.6</ele>
        <time>2020-05-10T12:58:37Z</time>
      </trkpt>
      <trkpt lat="48.77279" lon="7.34384">
        <ele>402.9</ele>
        <time>2020-05-10T12:58:39Z</time>
      </trkpt>
      <trkpt lat="48.77285" lon="7.34374">
        <ele>402.9</ele>
        <time>2020-05-10T12:58:41Z</time>
      </trkpt>
      <trkpt lat="48.77287" lon="7.34368">
        <ele>403</ele>
        <time>2020-05-10T12:58:42Z</time>
      </trkpt>
      <trkpt lat="48.7729" lon="7.34362">
        <ele>403</ele>
        <time>2020-05-10T12:58:43Z</time>
      </trkpt>
      <trkpt lat="48.77293" lon="7.34351">
        <ele>403</ele>
        <time>2020-05-10T12:58:45Z</time>
      </trkpt>
      <trkpt lat="48.77295" lon="7.34336">
        <ele>402.9</ele>
        <time>2020-05-10T12:58:47Z</time>
      </trkpt>
      <trkpt lat="48.77295" lon="7.34328">
        <ele>402.8</ele>
        <time>2020-05-10T12:58:48Z</time>
      </trkpt>
      <trkpt lat="48.77296" lon="7.34319">
        <ele>402.7</ele>
        <time>2020-05-10T12:58:49Z</time>
      </trkpt>
      <trkpt lat="48.77295" lon="7.34312">
        <ele>402.5</ele>
        <time>2020-05-10T12:58:50Z</time>
      </trkpt>
      <trkpt lat="48.77296" lon="7.343">
        <ele>402.1</ele>
        <time>2020-05-10T12:58:51Z</time>
      </trkpt>
      <trkpt lat="48.77295" lon="7.34291">
        <ele>401.7</ele>
        <time>2020-05-10T12:58:53Z</time>
      </trkpt>
      <trkpt lat="48.77291" lon="7.34271">
        <ele>401</ele>
        <time>2020-05-10T12:58:55Z</time>
      </trkpt>
      <trkpt lat="48.7729" lon="7.34262">
        <ele>400.7</ele>
        <time>2020-05-10T12:58:56Z</time>
      </trkpt>
      <trkpt lat="48.77286" lon="7.34253">
        <ele>400.4</ele>
        <time>2020-05-10T12:58:57Z</time>
      </trkpt>
      <trkpt lat="48.77281" lon="7.34233">
        <ele>399.9</ele>
        <time>2020-05-10T12:58:59Z</time>
      </trkpt>
      <trkpt lat="48.77275" lon="7.34215">
        <ele>399.5</ele>
        <time>2020-05-10T12:59:01Z</time>
      </trkpt>
      <trkpt lat="48.77273" lon="7.34206">
        <ele>399.2</ele>
        <time>2020-05-10T12:59:02Z</time>
      </trkpt>
      <trkpt lat="48.77269" lon="7.34186">
        <ele>398.8</ele>
        <time>2020-05-10T12:59:04Z</time>
      </trkpt>
      <trkpt lat="48.77264" lon="7.34168">
        <ele>398.3</ele>
        <time>2020-05-10T12:59:06Z</time>
      </trkpt>
      <trkpt lat="48.77257" lon="7.34151">
        <ele>398</ele>
        <time>2020-05-10T12:59:08Z</time>
      </trkpt>
      <trkpt lat="48.77255" lon="7.34143">
        <ele>397.8</ele>
        <time>2020-05-10T12:59:09Z</time>
      </trkpt>
      <trkpt lat="48.77248" lon="7.34125">
        <ele>397.5</ele>
        <time>2020-05-10T12:59:11Z</time>
      </trkpt>
      <trkpt lat="48.77244" lon="7.34116">
        <ele>397.4</ele>
        <time>2020-05-10T12:59:12Z</time>
      </trkpt>
      <trkpt lat="48.77242" lon="7.34107">
        <ele>397.3</ele>
        <time>2020-05-10T12:59:13Z</time>
      </trkpt>
      <trkpt lat="48.77237" lon="7.34091">
        <ele>397.2</ele>
        <time>2020-05-10T12:59:15Z</time>
      </trkpt>
      <trkpt lat="48.77235" lon="7.34083">
        <ele>397.2</ele>
        <time>2020-05-10T12:59:16Z</time>
      </trkpt>
      <trkpt lat="48.7723" lon="7.34066">
        <ele>397.3</ele>
        <time>2020-05-10T12:59:18Z</time>
      </trkpt>
      <trkpt lat="48.77228" lon="7.34059">
        <ele>397.4</ele>
        <time>2020-05-10T12:59:19Z</time>
      </trkpt>
      <trkpt lat="48.77223" lon="7.34043">
        <ele>397.4</ele>
        <time>2020-05-10T12:59:21Z</time>
      </trkpt>
      <trkpt lat="48.77222" lon="7.34035">
        <ele>397.4</ele>
        <time>2020-05-10T12:59:22Z</time>
      </trkpt>
      <trkpt lat="48.7722" lon="7.34018">
        <ele>397.4</ele>
        <time>2020-05-10T12:59:24Z</time>
      </trkpt>
      <trkpt lat="48.77218" lon="7.34002">
        <ele>397.8</ele>
        <time>2020-05-10T12:59:26Z</time>
      </trkpt>
      <trkpt lat="48.77219" lon="7.3399">
        <ele>398.3</ele>
        <time>2020-05-10T12:59:28Z</time>
      </trkpt>
      <trkpt lat="48.77222" lon="7.33973">
        <ele>398.8</ele>
        <time>2020-05-10T12:59:30Z</time>
      </trkpt>
      <trkpt lat="48.77224" lon="7.33956">
        <ele>399.2</ele>
        <time>2020-05-10T12:59:32Z</time>
      </trkpt>
      <trkpt lat="48.77226" lon="7.3395">
        <ele>399.3</ele>
        <time>2020-05-10T12:59:33Z</time>
      </trkpt>
      <trkpt lat="48.77229" lon="7.33935">
        <ele>399.5</ele>
        <time>2020-05-10T12:59:35Z</time>
      </trkpt>
      <trkpt lat="48.7723" lon="7.33925">
        <ele>399.6</ele>
        <time>2020-05-10T12:59:36Z</time>
      </trkpt>
      <trkpt lat="48.77234" lon="7.33907">
        <ele>399.8</ele>
        <time>2020-05-10T12:59:38Z</time>
      </trkpt>
      <trkpt lat="48.77237" lon="7.33901">
        <ele>400</ele>
        <time>2020-05-10T12:59:39Z</time>
      </trkpt>
      <trkpt lat="48.7724" lon="7.33894">
        <ele>399.8</ele>
        <time>2020-05-10T12:59:40Z</time>
      </trkpt>
      <trkpt lat="48.77246" lon="7.33878">
        <ele>399.1</ele>
        <time>2020-05-10T12:59:42Z</time>
      </trkpt>
      <trkpt lat="48.77255" lon="7.33862">
        <ele>398.2</ele>
        <time>2020-05-10T12:59:44Z</time>
      </trkpt>
      <trkpt lat="48.77261" lon="7.33854">
        <ele>397.7</ele>
        <time>2020-05-10T12:59:45Z</time>
      </trkpt>
      <trkpt lat="48.77266" lon="7.33846">
        <ele>397.2</ele>
        <time>2020-05-10T12:59:46Z</time>
      </trkpt>
      <trkpt lat="48.77276" lon="7.33826">
        <ele>395.8</ele>
        <time>2020-05-10T12:59:48Z</time>
      </trkpt>
      <trkpt lat="48.77285" lon="7.33808">
        <ele>394.4</ele>
        <time>2020-05-10T12:59:50Z</time>
      </trkpt>
      <trkpt lat="48.77293" lon="7.33788">
        <ele>392.8</ele>
        <time>2020-05-10T12:59:52Z</time>
      </trkpt>
      <trkpt lat="48.77299" lon="7.3376">
        <ele>390.8</ele>
        <time>2020-05-10T12:59:54Z</time>
      </trkpt>
      <trkpt lat="48.77302" lon="7.33731">
        <ele>389.2</ele>
        <time>2020-05-10T12:59:56Z</time>
      </trkpt>
      <trkpt lat="48.77301" lon="7.33717">
        <ele>388.5</ele>
        <time>2020-05-10T12:59:57Z</time>
      </trkpt>
      <trkpt lat="48.77299" lon="7.3369">
        <ele>387.3</ele>
        <time>2020-05-10T12:59:59Z</time>
      </trkpt>
      <trkpt lat="48.7729" lon="7.33658">
        <ele>386</ele>
        <time>2020-05-10T13:00:01Z</time>
      </trkpt>
      <trkpt lat="48.77286" lon="7.33644">
        <ele>385.6</ele>
        <time>2020-05-10T13:00:02Z</time>
      </trkpt>
      <trkpt lat="48.77282" lon="7.33631">
        <ele>385.3</ele>
        <time>2020-05-10T13:00:03Z</time>
      </trkpt>
      <trkpt lat="48.77277" lon="7.33619">
        <ele>385.1</ele>
        <time>2020-05-10T13:00:04Z</time>
      </trkpt>
      <trkpt lat="48.77269" lon="7.33598">
        <ele>384.8</ele>
        <time>2020-05-10T13:00:06Z</time>
      </trkpt>
      <trkpt lat="48.77261" lon="7.33579">
        <ele>384.7</ele>
        <time>2020-05-10T13:00:08Z</time>
      </trkpt>
      <trkpt lat="48.77253" lon="7.3356">
        <ele>384.7</ele>
        <time>2020-05-10T13:00:10Z</time>
      </trkpt>
      <trkpt lat="48.77247" lon="7.33543">
        <ele>384.7</ele>
        <time>2020-05-10T13:00:12Z</time>
      </trkpt>
      <trkpt lat="48.7724" lon="7.33524">
        <ele>384.7</ele>
        <time>2020-05-10T13:00:14Z</time>
      </trkpt>
      <trkpt lat="48.77236" lon="7.33506">
        <ele>384.5</ele>
        <time>2020-05-10T13:00:16Z</time>
      </trkpt>
      <trkpt lat="48.77236" lon="7.33489">
        <ele>384.1</ele>
        <time>2020-05-10T13:00:18Z</time>
      </trkpt>
      <trkpt lat="48.77236" lon="7.33479">
        <ele>383.7</ele>
        <time>2020-05-10T13:00:19Z</time>
      </trkpt>
      <trkpt lat="48.7724" lon="7.33458">
        <ele>382.8</ele>
        <time>2020-05-10T13:00:21Z</time>
      </trkpt>
      <trkpt lat="48.77247" lon="7.33445">
        <ele>382.1</ele>
        <time>2020-05-10T13:00:23Z</time>
      </trkpt>
      <trkpt lat="48.77249" lon="7.33436">
        <ele>381.7</ele>
        <time>2020-05-10T13:00:24Z</time>
      </trkpt>
      <trkpt lat="48.77254" lon="7.33425">
        <ele>381.1</ele>
        <time>2020-05-10T13:00:26Z</time>
      </trkpt>
      <trkpt lat="48.77257" lon="7.3342">
        <ele>380.9</ele>
        <time>2020-05-10T13:00:28Z</time>
      </trkpt>
      <trkpt lat="48.77257" lon="7.33415">
        <ele>380.8</ele>
        <time>2020-05-10T13:00:29Z</time>
      </trkpt>
      <trkpt lat="48.77256" lon="7.33408">
        <ele>380.6</ele>
        <time>2020-05-10T13:00:30Z</time>
      </trkpt>
      <trkpt lat="48.77261" lon="7.33394">
        <ele>380.4</ele>
        <time>2020-05-10T13:00:32Z</time>
      </trkpt>
      <trkpt lat="48.77266" lon="7.33377">
        <ele>380.3</ele>
        <time>2020-05-10T13:00:34Z</time>
      </trkpt>
      <trkpt lat="48.77268" lon="7.33366">
        <ele>380.2</ele>
        <time>2020-05-10T13:00:35Z</time>
      </trkpt>
      <trkpt lat="48.77265" lon="7.33358">
        <ele>380.1</ele>
        <time>2020-05-10T13:00:37Z</time>
      </trkpt>
      <trkpt lat="48.77262" lon="7.33354">
        <ele>380</ele>
        <time>2020-05-10T13:00:39Z</time>
      </trkpt>
      <trkpt lat="48.77262" lon="7.33342">
        <ele>379.1</ele>
        <time>2020-05-10T13:00:41Z</time>
      </trkpt>
      <trkpt lat="48.77262" lon="7.33336">
        <ele>378.1</ele>
        <time>2020-05-10T13:00:43Z</time>
      </trkpt>
      <trkpt lat="48.77263" lon="7.33327">
        <ele>378.2</ele>
        <time>2020-05-10T13:00:45Z</time>
      </trkpt>
      <trkpt lat="48.77264" lon="7.33323">
        <ele>377.8</ele>
        <time>2020-05-10T13:00:46Z</time>
      </trkpt>
      <trkpt lat="48.77262" lon="7.33314">
        <ele>375.9</ele>
        <time>2020-05-10T13:00:48Z</time>
      </trkpt>
      <trkpt lat="48.77263" lon="7.33309">
        <ele>376.5</ele>
        <time>2020-05-10T13:00:49Z</time>
      </trkpt>
      <trkpt lat="48.77264" lon="7.33305">
        <ele>376.1</ele>
        <time>2020-05-10T13:00:50Z</time>
      </trkpt>
      <trkpt lat="48.77264" lon="7.33295">
        <ele>375.1</ele>
        <time>2020-05-10T13:00:52Z</time>
      </trkpt>
      <trkpt lat="48.77265" lon="7.3329">
        <ele>374.5</ele>
        <time>2020-05-10T13:00:53Z</time>
      </trkpt>
      <trkpt lat="48.77265" lon="7.33284">
        <ele>374.6</ele>
        <time>2020-05-10T13:00:55Z</time>
      </trkpt>
      <trkpt lat="48.77266" lon="7.3328">
        <ele>374</ele>
        <time>2020-05-10T13:00:56Z</time>
      </trkpt>
      <trkpt lat="48.77266" lon="7.33274">
        <ele>373.5</ele>
        <time>2020-05-10T13:00:58Z</time>
      </trkpt>
      <trkpt lat="48.77268" lon="7.33266">
        <ele>373.7</ele>
        <time>2020-05-10T13:01:00Z</time>
      </trkpt>
      <trkpt lat="48.77269" lon="7.33261">
        <ele>373.2</ele>
        <time>2020-05-10T13:01:01Z</time>
      </trkpt>
      <trkpt lat="48.77269" lon="7.33255">
        <ele>372.4</ele>
        <time>2020-05-10T13:01:02Z</time>
      </trkpt>
      <trkpt lat="48.77271" lon="7.33247">
        <ele>372.8</ele>
        <time>2020-05-10T13:01:04Z</time>
      </trkpt>
      <trkpt lat="48.77272" lon="7.33242">
        <ele>372.5</ele>
        <time>2020-05-10T13:01:05Z</time>
      </trkpt>
      <trkpt lat="48.77273" lon="7.3324">
        <ele>372.6</ele>
        <time>2020-05-10T13:01:06Z</time>
      </trkpt>
      <trkpt lat="48.77275" lon="7.33236">
        <ele>373.3</ele>
        <time>2020-05-10T13:01:07Z</time>
      </trkpt>
      <trkpt lat="48.77275" lon="7.33234">
        <ele>373.1</ele>
        <time>2020-05-10T13:01:08Z</time>
      </trkpt>
      <trkpt lat="48.77276" lon="7.33223">
        <ele>372.6</ele>
        <time>2020-05-10T13:01:10Z</time>
      </trkpt>
      <trkpt lat="48.77275" lon="7.33219">
        <ele>372.4</ele>
        <time>2020-05-10T13:01:11Z</time>
      </trkpt>
      <trkpt lat="48.77274" lon="7.3321">
        <ele>371.8</ele>
        <time>2020-05-10T13:01:13Z</time>
      </trkpt>
      <trkpt lat="48.77274" lon="7.33205">
        <ele>371.6</ele>
        <time>2020-05-10T13:01:14Z</time>
      </trkpt>
      <trkpt lat="48.77274" lon="7.33199">
        <ele>369.9</ele>
        <time>2020-05-10T13:01:15Z</time>
      </trkpt>
      <trkpt lat="48.77275" lon="7.33193">
        <ele>370.7</ele>
        <time>2020-05-10T13:01:17Z</time>
      </trkpt>
      <trkpt lat="48.77275" lon="7.3319">
        <ele>370.5</ele>
        <time>2020-05-10T13:01:18Z</time>
      </trkpt>
      <trkpt lat="48.77275" lon="7.3318">
        <ele>369.9</ele>
        <time>2020-05-10T13:01:20Z</time>
      </trkpt>
      <trkpt lat="48.77275" lon="7.33167">
        <ele>369</ele>
        <time>2020-05-10T13:01:22Z</time>
      </trkpt>
      <trkpt lat="48.77275" lon="7.3316">
        <ele>368.4</ele>
        <time>2020-05-10T13:01:23Z</time>
      </trkpt>
      <trkpt lat="48.77275" lon="7.33153">
        <ele>367.8</ele>
        <time>2020-05-10T13:01:24Z</time>
      </trkpt>
      <trkpt lat="48.77275" lon="7.33143">
        <ele>367.3</ele>
        <time>2020-05-10T13:01:26Z</time>
      </trkpt>
      <trkpt lat="48.77275" lon="7.33141">
        <ele>367.3</ele>
        <time>2020-05-10T13:01:27Z</time>
      </trkpt>
      <trkpt lat="48.77276" lon="7.33139">
        <ele>367.1</ele>
        <time>2020-05-10T13:01:28Z</time>
      </trkpt>
      <trkpt lat="48.77278" lon="7.33132">
        <ele>367.9</ele>
        <time>2020-05-10T13:01:30Z</time>
      </trkpt>
      <trkpt lat="48.77279" lon="7.33129">
        <ele>368.8</ele>
        <time>2020-05-10T13:01:31Z</time>
      </trkpt>
      <trkpt lat="48.77281" lon="7.33122">
        <ele>368.2</ele>
        <time>2020-05-10T13:01:33Z</time>
      </trkpt>
      <trkpt lat="48.77282" lon="7.33118">
        <ele>369</ele>
        <time>2020-05-10T13:01:34Z</time>
      </trkpt>
      <trkpt lat="48.77285" lon="7.33112">
        <ele>368.7</ele>
        <time>2020-05-10T13:01:36Z</time>
      </trkpt>
      <trkpt lat="48.77288" lon="7.33106">
        <ele>369.6</ele>
        <time>2020-05-10T13:01:38Z</time>
      </trkpt>
      <trkpt lat="48.7729" lon="7.33101">
        <ele>370.2</ele>
        <time>2020-05-10T13:01:39Z</time>
      </trkpt>
      <trkpt lat="48.77291" lon="7.33097">
        <ele>371</ele>
        <time>2020-05-10T13:01:40Z</time>
      </trkpt>
      <trkpt lat="48.77294" lon="7.33087">
        <ele>371.8</ele>
        <time>2020-05-10T13:01:42Z</time>
      </trkpt>
      <trkpt lat="48.77294" lon="7.33082">
        <ele>371.7</ele>
        <time>2020-05-10T13:01:43Z</time>
      </trkpt>
      <trkpt lat="48.77294" lon="7.3308">
        <ele>371.7</ele>
        <time>2020-05-10T13:01:44Z</time>
      </trkpt>
      <trkpt lat="48.77296" lon="7.33071">
        <ele>371.3</ele>
        <time>2020-05-10T13:01:46Z</time>
      </trkpt>
      <trkpt lat="48.77295" lon="7.33066">
        <ele>371.1</ele>
        <time>2020-05-10T13:01:47Z</time>
      </trkpt>
      <trkpt lat="48.77296" lon="7.33061">
        <ele>370.9</ele>
        <time>2020-05-10T13:01:49Z</time>
      </trkpt>
      <trkpt lat="48.77296" lon="7.33059">
        <ele>371</ele>
        <time>2020-05-10T13:01:50Z</time>
      </trkpt>
      <trkpt lat="48.77297" lon="7.33054">
        <ele>371.5</ele>
        <time>2020-05-10T13:01:52Z</time>
      </trkpt>
      <trkpt lat="48.77298" lon="7.33049">
        <ele>371.3</ele>
        <time>2020-05-10T13:01:53Z</time>
      </trkpt>
      <trkpt lat="48.77299" lon="7.33047">
        <ele>371.3</ele>
        <time>2020-05-10T13:01:54Z</time>
      </trkpt>
      <trkpt lat="48.77301" lon="7.33044">
        <ele>372.1</ele>
        <time>2020-05-10T13:01:56Z</time>
      </trkpt>
      <trkpt lat="48.77301" lon="7.33043">
        <ele>372.2</ele>
        <time>2020-05-10T13:01:57Z</time>
      </trkpt>
      <trkpt lat="48.77302" lon="7.33038">
        <ele>372</ele>
        <time>2020-05-10T13:01:59Z</time>
      </trkpt>
      <trkpt lat="48.77303" lon="7.33032">
        <ele>372.9</ele>
        <time>2020-05-10T13:02:01Z</time>
      </trkpt>
      <trkpt lat="48.77303" lon="7.3303">
        <ele>373</ele>
        <time>2020-05-10T13:02:02Z</time>
      </trkpt>
      <trkpt lat="48.77303" lon="7.33022">
        <ele>372.9</ele>
        <time>2020-05-10T13:02:04Z</time>
      </trkpt>
      <trkpt lat="48.77303" lon="7.33017">
        <ele>372.8</ele>
        <time>2020-05-10T13:02:06Z</time>
      </trkpt>
      <trkpt lat="48.77303" lon="7.33012">
        <ele>372.7</ele>
        <time>2020-05-10T13:02:07Z</time>
      </trkpt>
      <trkpt lat="48.77304" lon="7.3301">
        <ele>372.6</ele>
        <time>2020-05-10T13:02:08Z</time>
      </trkpt>
      <trkpt lat="48.77306" lon="7.33003">
        <ele>373.6</ele>
        <time>2020-05-10T13:02:10Z</time>
      </trkpt>
      <trkpt lat="48.77308" lon="7.33">
        <ele>374.5</ele>
        <time>2020-05-10T13:02:11Z</time>
      </trkpt>
      <trkpt lat="48.77309" lon="7.32998">
        <ele>374.3</ele>
        <time>2020-05-10T13:02:12Z</time>
      </trkpt>
      <trkpt lat="48.7731" lon="7.32993">
        <ele>374.1</ele>
        <time>2020-05-10T13:02:14Z</time>
      </trkpt>
      <trkpt lat="48.7731" lon="7.32989">
        <ele>374</ele>
        <time>2020-05-10T13:02:15Z</time>
      </trkpt>
      <trkpt lat="48.77311" lon="7.32983">
        <ele>374.8</ele>
        <time>2020-05-10T13:02:17Z</time>
      </trkpt>
      <trkpt lat="48.77312" lon="7.32979">
        <ele>374.7</ele>
        <time>2020-05-10T13:02:18Z</time>
      </trkpt>
      <trkpt lat="48.77313" lon="7.32978">
        <ele>374.8</ele>
        <time>2020-05-10T13:02:19Z</time>
      </trkpt>
      <trkpt lat="48.77315" lon="7.32972">
        <ele>375.5</ele>
        <time>2020-05-10T13:02:21Z</time>
      </trkpt>
      <trkpt lat="48.77314" lon="7.32966">
        <ele>375.5</ele>
        <time>2020-05-10T13:02:23Z</time>
      </trkpt>
      <trkpt lat="48.77314" lon="7.3296">
        <ele>375.5</ele>
        <time>2020-05-10T13:02:25Z</time>
      </trkpt>
      <trkpt lat="48.77314" lon="7.32958">
        <ele>375.5</ele>
        <time>2020-05-10T13:02:26Z</time>
      </trkpt>
      <trkpt lat="48.77314" lon="7.32955">
        <ele>375.5</ele>
        <time>2020-05-10T13:02:28Z</time>
      </trkpt>
      <trkpt lat="48.77316" lon="7.3295">
        <ele>375.4</ele>
        <time>2020-05-10T13:02:30Z</time>
      </trkpt>
      <trkpt lat="48.77317" lon="7.32946">
        <ele>376.1</ele>
        <time>2020-05-10T13:02:32Z</time>
      </trkpt>
      <trkpt lat="48.77319" lon="7.32944">
        <ele>376.1</ele>
        <time>2020-05-10T13:02:34Z</time>
      </trkpt>
      <trkpt lat="48.7732" lon="7.32942">
        <ele>376.8</ele>
        <time>2020-05-10T13:02:35Z</time>
      </trkpt>
      <trkpt lat="48.77321" lon="7.32937">
        <ele>376.7</ele>
        <time>2020-05-10T13:02:37Z</time>
      </trkpt>
      <trkpt lat="48.77322" lon="7.32931">
        <ele>377.4</ele>
        <time>2020-05-10T13:02:39Z</time>
      </trkpt>
      <trkpt lat="48.77324" lon="7.32924">
        <ele>377.2</ele>
        <time>2020-05-10T13:02:41Z</time>
      </trkpt>
      <trkpt lat="48.77325" lon="7.32921">
        <ele>377.9</ele>
        <time>2020-05-10T13:02:42Z</time>
      </trkpt>
      <trkpt lat="48.77326" lon="7.32919">
        <ele>377.9</ele>
        <time>2020-05-10T13:02:43Z</time>
      </trkpt>
      <trkpt lat="48.77326" lon="7.32918">
        <ele>377.9</ele>
        <time>2020-05-10T13:02:44Z</time>
      </trkpt>
      <trkpt lat="48.77327" lon="7.32914">
        <ele>377.8</ele>
        <time>2020-05-10T13:02:46Z</time>
      </trkpt>
      <trkpt lat="48.77329" lon="7.3291">
        <ele>378.5</ele>
        <time>2020-05-10T13:02:48Z</time>
      </trkpt>
      <trkpt lat="48.77331" lon="7.32904">
        <ele>379.1</ele>
        <time>2020-05-10T13:02:50Z</time>
      </trkpt>
      <trkpt lat="48.77333" lon="7.32899">
        <ele>379.7</ele>
        <time>2020-05-10T13:02:52Z</time>
      </trkpt>
      <trkpt lat="48.77337" lon="7.32894">
        <ele>380.4</ele>
        <time>2020-05-10T13:02:54Z</time>
      </trkpt>
      <trkpt lat="48.77339" lon="7.3289">
        <ele>381</ele>
        <time>2020-05-10T13:02:55Z</time>
      </trkpt>
      <trkpt lat="48.7734" lon="7.32885">
        <ele>381</ele>
        <time>2020-05-10T13:02:57Z</time>
      </trkpt>
      <trkpt lat="48.77341" lon="7.32881">
        <ele>381</ele>
        <time>2020-05-10T13:02:59Z</time>
      </trkpt>
      <trkpt lat="48.77341" lon="7.32881">
        <ele>381.1</ele>
        <time>2020-05-10T13:03:00Z</time>
      </trkpt>
      <trkpt lat="48.77341" lon="7.32877">
        <ele>381.1</ele>
        <time>2020-05-10T13:03:02Z</time>
      </trkpt>
      <trkpt lat="48.77341" lon="7.32875">
        <ele>381.1</ele>
        <time>2020-05-10T13:03:03Z</time>
      </trkpt>
      <trkpt lat="48.77343" lon="7.3287">
        <ele>381.7</ele>
        <time>2020-05-10T13:03:05Z</time>
      </trkpt>
      <trkpt lat="48.77346" lon="7.32865">
        <ele>382.1</ele>
        <time>2020-05-10T13:03:07Z</time>
      </trkpt>
      <trkpt lat="48.77347" lon="7.32861">
        <ele>382.1</ele>
        <time>2020-05-10T13:03:08Z</time>
      </trkpt>
      <trkpt lat="48.77347" lon="7.32859">
        <ele>382</ele>
        <time>2020-05-10T13:03:10Z</time>
      </trkpt>
      <trkpt lat="48.77348" lon="7.32857">
        <ele>381.9</ele>
        <time>2020-05-10T13:03:11Z</time>
      </trkpt>
      <trkpt lat="48.77348" lon="7.32855">
        <ele>381.8</ele>
        <time>2020-05-10T13:03:12Z</time>
      </trkpt>
      <trkpt lat="48.77347" lon="7.32853">
        <ele>381.7</ele>
        <time>2020-05-10T13:03:14Z</time>
      </trkpt>
      <trkpt lat="48.77346" lon="7.3285">
        <ele>381.5</ele>
        <time>2020-05-10T13:03:16Z</time>
      </trkpt>
      <trkpt lat="48.77346" lon="7.32847">
        <ele>381.4</ele>
        <time>2020-05-10T13:03:17Z</time>
      </trkpt>
      <trkpt lat="48.77346" lon="7.32845">
        <ele>381.3</ele>
        <time>2020-05-10T13:03:19Z</time>
      </trkpt>
      <trkpt lat="48.77345" lon="7.32844">
        <ele>381.2</ele>
        <time>2020-05-10T13:03:20Z</time>
      </trkpt>
      <trkpt lat="48.77345" lon="7.32842">
        <ele>381.2</ele>
        <time>2020-05-10T13:03:21Z</time>
      </trkpt>
      <trkpt lat="48.77345" lon="7.32841">
        <ele>381.1</ele>
        <time>2020-05-10T13:03:22Z</time>
      </trkpt>
      <trkpt lat="48.77345" lon="7.32838">
        <ele>381</ele>
        <time>2020-05-10T13:03:24Z</time>
      </trkpt>
      <trkpt lat="48.77344" lon="7.32837">
        <ele>380.9</ele>
        <time>2020-05-10T13:03:25Z</time>
      </trkpt>
      <trkpt lat="48.77344" lon="7.32836">
        <ele>380.9</ele>
        <time>2020-05-10T13:03:26Z</time>
      </trkpt>
      <trkpt lat="48.77344" lon="7.32833">
        <ele>380.8</ele>
        <time>2020-05-10T13:03:28Z</time>
      </trkpt>
      <trkpt lat="48.77345" lon="7.3283">
        <ele>380.7</ele>
        <time>2020-05-10T13:03:29Z</time>
      </trkpt>
      <trkpt lat="48.77346" lon="7.32827">
        <ele>380.6</ele>
        <time>2020-05-10T13:03:31Z</time>
      </trkpt>
      <trkpt lat="48.77347" lon="7.32825">
        <ele>380.5</ele>
        <time>2020-05-10T13:03:33Z</time>
      </trkpt>
      <trkpt lat="48.77349" lon="7.32821">
        <ele>380.3</ele>
        <time>2020-05-10T13:03:35Z</time>
      </trkpt>
      <trkpt lat="48.7735" lon="7.3282">
        <ele>380.3</ele>
        <time>2020-05-10T13:03:36Z</time>
      </trkpt>
      <trkpt lat="48.77351" lon="7.32818">
        <ele>380.2</ele>
        <time>2020-05-10T13:03:38Z</time>
      </trkpt>
      <trkpt lat="48.77351" lon="7.32817">
        <ele>380.2</ele>
        <time>2020-05-10T13:03:39Z</time>
      </trkpt>
      <trkpt lat="48.77348" lon="7.32815">
        <ele>380.1</ele>
        <time>2020-05-10T13:03:41Z</time>
      </trkpt>
      <trkpt lat="48.77347" lon="7.32811">
        <ele>379.9</ele>
        <time>2020-05-10T13:03:43Z</time>
      </trkpt>
      <trkpt lat="48.77348" lon="7.32803">
        <ele>379.8</ele>
        <time>2020-05-10T13:03:45Z</time>
      </trkpt>
      <trkpt lat="48.77349" lon="7.32799">
        <ele>379.7</ele>
        <time>2020-05-10T13:03:46Z</time>
      </trkpt>
      <trkpt lat="48.77351" lon="7.32792">
        <ele>379.5</ele>
        <time>2020-05-10T13:03:48Z</time>
      </trkpt>
      <trkpt lat="48.77353" lon="7.32785">
        <ele>379.3</ele>
        <time>2020-05-10T13:03:50Z</time>
      </trkpt>
      <trkpt lat="48.77353" lon="7.32778">
        <ele>379.2</ele>
        <time>2020-05-10T13:03:52Z</time>
      </trkpt>
      <trkpt lat="48.77354" lon="7.32772">
        <ele>379.1</ele>
        <time>2020-05-10T13:03:53Z</time>
      </trkpt>
      <trkpt lat="48.77354" lon="7.32763">
        <ele>378.8</ele>
        <time>2020-05-10T13:03:55Z</time>
      </trkpt>
      <trkpt lat="48.77354" lon="7.32752">
        <ele>378.6</ele>
        <time>2020-05-10T13:03:57Z</time>
      </trkpt>
      <trkpt lat="48.77353" lon="7.32744">
        <ele>378.3</ele>
        <time>2020-05-10T13:03:59Z</time>
      </trkpt>
      <trkpt lat="48.77351" lon="7.32735">
        <ele>378</ele>
        <time>2020-05-10T13:04:01Z</time>
      </trkpt>
      <trkpt lat="48.77351" lon="7.3273">
        <ele>377.8</ele>
        <time>2020-05-10T13:04:02Z</time>
      </trkpt>
      <trkpt lat="48.7735" lon="7.3272">
        <ele>377.3</ele>
        <time>2020-05-10T13:04:04Z</time>
      </trkpt>
      <trkpt lat="48.7735" lon="7.32709">
        <ele>376.9</ele>
        <time>2020-05-10T13:04:06Z</time>
      </trkpt>
      <trkpt lat="48.7735" lon="7.327">
        <ele>376.5</ele>
        <time>2020-05-10T13:04:08Z</time>
      </trkpt>
      <trkpt lat="48.77351" lon="7.32693">
        <ele>376.2</ele>
        <time>2020-05-10T13:04:10Z</time>
      </trkpt>
      <trkpt lat="48.7735" lon="7.32685">
        <ele>375.9</ele>
        <time>2020-05-10T13:04:12Z</time>
      </trkpt>
      <trkpt lat="48.77347" lon="7.32678">
        <ele>375.7</ele>
        <time>2020-05-10T13:04:14Z</time>
      </trkpt>
      <trkpt lat="48.77343" lon="7.32676">
        <ele>375.6</ele>
        <time>2020-05-10T13:04:15Z</time>
      </trkpt>
      <trkpt lat="48.77339" lon="7.32676">
        <ele>375.5</ele>
        <time>2020-05-10T13:04:16Z</time>
      </trkpt>
      <trkpt lat="48.77331" lon="7.32675">
        <ele>375.7</ele>
        <time>2020-05-10T13:04:18Z</time>
      </trkpt>
      <trkpt lat="48.77323" lon="7.32674">
        <ele>375.8</ele>
        <time>2020-05-10T13:04:20Z</time>
      </trkpt>
      <trkpt lat="48.77317" lon="7.32673">
        <ele>375.9</ele>
        <time>2020-05-10T13:04:22Z</time>
      </trkpt>
      <trkpt lat="48.77313" lon="7.32673">
        <ele>376</ele>
        <time>2020-05-10T13:04:23Z</time>
      </trkpt>
      <trkpt lat="48.77312" lon="7.32673">
        <ele>376.1</ele>
        <time>2020-05-10T13:04:24Z</time>
      </trkpt>
      <trkpt lat="48.77306" lon="7.32673">
        <ele>376.3</ele>
        <time>2020-05-10T13:04:26Z</time>
      </trkpt>
      <trkpt lat="48.77304" lon="7.32673">
        <ele>376.4</ele>
        <time>2020-05-10T13:04:27Z</time>
      </trkpt>
      <trkpt lat="48.77298" lon="7.32672">
        <ele>376.6</ele>
        <time>2020-05-10T13:04:29Z</time>
      </trkpt>
      <trkpt lat="48.77295" lon="7.32671">
        <ele>376.7</ele>
        <time>2020-05-10T13:04:30Z</time>
      </trkpt>
      <trkpt lat="48.77289" lon="7.32671">
        <ele>376.8</ele>
        <time>2020-05-10T13:04:32Z</time>
      </trkpt>
      <trkpt lat="48.77287" lon="7.32671">
        <ele>376.9</ele>
        <time>2020-05-10T13:04:33Z</time>
      </trkpt>
      <trkpt lat="48.77282" lon="7.32671">
        <ele>377</ele>
        <time>2020-05-10T13:04:35Z</time>
      </trkpt>
      <trkpt lat="48.77278" lon="7.32671">
        <ele>377.1</ele>
        <time>2020-05-10T13:04:36Z</time>
      </trkpt>
      <trkpt lat="48.77277" lon="7.32672">
        <ele>377.1</ele>
        <time>2020-05-10T13:04:37Z</time>
      </trkpt>
      <trkpt lat="48.77274" lon="7.32675">
        <ele>377.1</ele>
        <time>2020-05-10T13:04:39Z</time>
      </trkpt>
      <trkpt lat="48.77272" lon="7.3268">
        <ele>377.1</ele>
        <time>2020-05-10T13:04:41Z</time>
      </trkpt>
      <trkpt lat="48.77271" lon="7.32682">
        <ele>377.1</ele>
        <time>2020-05-10T13:04:42Z</time>
      </trkpt>
      <trkpt lat="48.7727" lon="7.32687">
        <ele>377.1</ele>
        <time>2020-05-10T13:04:44Z</time>
      </trkpt>
      <trkpt lat="48.77268" lon="7.32691">
        <ele>377.1</ele>
        <time>2020-05-10T13:04:46Z</time>
      </trkpt>
      <trkpt lat="48.77267" lon="7.32694">
        <ele>377.1</ele>
        <time>2020-05-10T13:04:47Z</time>
      </trkpt>
      <trkpt lat="48.77264" lon="7.32698">
        <ele>377.1</ele>
        <time>2020-05-10T13:04:49Z</time>
      </trkpt>
      <trkpt lat="48.7726" lon="7.32701">
        <ele>377.1</ele>
        <time>2020-05-10T13:04:51Z</time>
      </trkpt>
      <trkpt lat="48.77256" lon="7.32703">
        <ele>377.1</ele>
        <time>2020-05-10T13:04:53Z</time>
      </trkpt>
      <trkpt lat="48.77253" lon="7.32707">
        <ele>377.1</ele>
        <time>2020-05-10T13:04:55Z</time>
      </trkpt>
      <trkpt lat="48.77251" lon="7.3271">
        <ele>377.6</ele>
        <time>2020-05-10T13:04:57Z</time>
      </trkpt>
      <trkpt lat="48.77246" lon="7.32713">
        <ele>378.2</ele>
        <time>2020-05-10T13:04:59Z</time>
      </trkpt>
      <trkpt lat="48.77243" lon="7.32714">
        <ele>378.6</ele>
        <time>2020-05-10T13:05:00Z</time>
      </trkpt>
      <trkpt lat="48.7724" lon="7.32716">
        <ele>379</ele>
        <time>2020-05-10T13:05:01Z</time>
      </trkpt>
      <trkpt lat="48.77235" lon="7.3272">
        <ele>379.8</ele>
        <time>2020-05-10T13:05:03Z</time>
      </trkpt>
      <trkpt lat="48.77232" lon="7.32722">
        <ele>380.3</ele>
        <time>2020-05-10T13:05:04Z</time>
      </trkpt>
      <trkpt lat="48.77227" lon="7.32725">
        <ele>381</ele>
        <time>2020-05-10T13:05:06Z</time>
      </trkpt>
      <trkpt lat="48.77224" lon="7.32726">
        <ele>381.5</ele>
        <time>2020-05-10T13:05:07Z</time>
      </trkpt>
      <trkpt lat="48.77219" lon="7.32727">
        <ele>382.2</ele>
        <time>2020-05-10T13:05:09Z</time>
      </trkpt>
      <trkpt lat="48.77211" lon="7.32728">
        <ele>383.3</ele>
        <time>2020-05-10T13:05:11Z</time>
      </trkpt>
      <trkpt lat="48.77209" lon="7.32729">
        <ele>383.7</ele>
        <time>2020-05-10T13:05:12Z</time>
      </trkpt>
      <trkpt lat="48.77206" lon="7.3273">
        <ele>384.1</ele>
        <time>2020-05-10T13:05:13Z</time>
      </trkpt>
      <trkpt lat="48.77201" lon="7.32731">
        <ele>384.8</ele>
        <time>2020-05-10T13:05:15Z</time>
      </trkpt>
      <trkpt lat="48.77197" lon="7.32731">
        <ele>385.3</ele>
        <time>2020-05-10T13:05:17Z</time>
      </trkpt>
      <trkpt lat="48.77192" lon="7.32732">
        <ele>386</ele>
        <time>2020-05-10T13:05:19Z</time>
      </trkpt>
      <trkpt lat="48.7719" lon="7.32733">
        <ele>386.3</ele>
        <time>2020-05-10T13:05:20Z</time>
      </trkpt>
      <trkpt lat="48.77185" lon="7.32735">
        <ele>386.9</ele>
        <time>2020-05-10T13:05:22Z</time>
      </trkpt>
      <trkpt lat="48.77182" lon="7.32735">
        <ele>387.2</ele>
        <time>2020-05-10T13:05:23Z</time>
      </trkpt>
      <trkpt lat="48.77178" lon="7.32733">
        <ele>387.8</ele>
        <time>2020-05-10T13:05:25Z</time>
      </trkpt>
      <trkpt lat="48.77173" lon="7.32733">
        <ele>388.4</ele>
        <time>2020-05-10T13:05:27Z</time>
      </trkpt>
      <trkpt lat="48.77168" lon="7.32732">
        <ele>388.9</ele>
        <time>2020-05-10T13:05:29Z</time>
      </trkpt>
      <trkpt lat="48.77164" lon="7.32729">
        <ele>389.4</ele>
        <time>2020-05-10T13:05:31Z</time>
      </trkpt>
      <trkpt lat="48.77162" lon="7.32727">
        <ele>389.8</ele>
        <time>2020-05-10T13:05:32Z</time>
      </trkpt>
      <trkpt lat="48.77161" lon="7.32726">
        <ele>389.9</ele>
        <time>2020-05-10T13:05:33Z</time>
      </trkpt>
      <trkpt lat="48.77158" lon="7.32723">
        <ele>390.4</ele>
        <time>2020-05-10T13:05:34Z</time>
      </trkpt>
      <trkpt lat="48.77157" lon="7.32721">
        <ele>390.7</ele>
        <time>2020-05-10T13:05:35Z</time>
      </trkpt>
      <trkpt lat="48.77154" lon="7.32715">
        <ele>391.1</ele>
        <time>2020-05-10T13:05:37Z</time>
      </trkpt>
      <trkpt lat="48.77153" lon="7.32712">
        <ele>391.2</ele>
        <time>2020-05-10T13:05:38Z</time>
      </trkpt>
      <trkpt lat="48.77151" lon="7.32707">
        <ele>391.6</ele>
        <time>2020-05-10T13:05:40Z</time>
      </trkpt>
      <trkpt lat="48.77149" lon="7.32701">
        <ele>391.8</ele>
        <time>2020-05-10T13:05:42Z</time>
      </trkpt>
      <trkpt lat="48.77148" lon="7.32696">
        <ele>392.2</ele>
        <time>2020-05-10T13:05:44Z</time>
      </trkpt>
      <trkpt lat="48.77145" lon="7.3269">
        <ele>392.7</ele>
        <time>2020-05-10T13:05:46Z</time>
      </trkpt>
      <trkpt lat="48.77142" lon="7.32683">
        <ele>393.3</ele>
        <time>2020-05-10T13:05:48Z</time>
      </trkpt>
      <trkpt lat="48.7714" lon="7.32677">
        <ele>393.9</ele>
        <time>2020-05-10T13:05:50Z</time>
      </trkpt>
      <trkpt lat="48.77139" lon="7.32674">
        <ele>393.9</ele>
        <time>2020-05-10T13:05:51Z</time>
      </trkpt>
      <trkpt lat="48.77137" lon="7.32667">
        <ele>394.4</ele>
        <time>2020-05-10T13:05:53Z</time>
      </trkpt>
      <trkpt lat="48.77135" lon="7.32662">
        <ele>394.7</ele>
        <time>2020-05-10T13:05:55Z</time>
      </trkpt>
      <trkpt lat="48.77134" lon="7.3266">
        <ele>394.7</ele>
        <time>2020-05-10T13:05:56Z</time>
      </trkpt>
      <trkpt lat="48.77133" lon="7.32658">
        <ele>394.6</ele>
        <time>2020-05-10T13:05:57Z</time>
      </trkpt>
      <trkpt lat="48.77131" lon="7.32654">
        <ele>395</ele>
        <time>2020-05-10T13:05:59Z</time>
      </trkpt>
      <trkpt lat="48.77131" lon="7.32653">
        <ele>395</ele>
        <time>2020-05-10T13:06:00Z</time>
      </trkpt>
      <trkpt lat="48.77129" lon="7.32649">
        <ele>395.3</ele>
        <time>2020-05-10T13:06:02Z</time>
      </trkpt>
      <trkpt lat="48.77128" lon="7.32647">
        <ele>395.3</ele>
        <time>2020-05-10T13:06:03Z</time>
      </trkpt>
      <trkpt lat="48.77125" lon="7.32643">
        <ele>395.7</ele>
        <time>2020-05-10T13:06:05Z</time>
      </trkpt>
      <trkpt lat="48.77124" lon="7.32641">
        <ele>395.8</ele>
        <time>2020-05-10T13:06:06Z</time>
      </trkpt>
      <trkpt lat="48.77123" lon="7.32637">
        <ele>396.3</ele>
        <time>2020-05-10T13:06:08Z</time>
      </trkpt>
      <trkpt lat="48.77122" lon="7.32634">
        <ele>396.2</ele>
        <time>2020-05-10T13:06:09Z</time>
      </trkpt>
      <trkpt lat="48.77119" lon="7.32631">
        <ele>396.7</ele>
        <time>2020-05-10T13:06:11Z</time>
      </trkpt>
      <trkpt lat="48.77116" lon="7.32627">
        <ele>397.3</ele>
        <time>2020-05-10T13:06:13Z</time>
      </trkpt>
      <trkpt lat="48.77114" lon="7.32625">
        <ele>397.8</ele>
        <time>2020-05-10T13:06:14Z</time>
      </trkpt>
      <trkpt lat="48.7711" lon="7.32621">
        <ele>398.4</ele>
        <time>2020-05-10T13:06:16Z</time>
      </trkpt>
      <trkpt lat="48.77108" lon="7.32618">
        <ele>399.1</ele>
        <time>2020-05-10T13:06:17Z</time>
      </trkpt>
      <trkpt lat="48.77104" lon="7.32612">
        <ele>399.8</ele>
        <time>2020-05-10T13:06:19Z</time>
      </trkpt>
      <trkpt lat="48.77102" lon="7.32605">
        <ele>400.4</ele>
        <time>2020-05-10T13:06:21Z</time>
      </trkpt>
      <trkpt lat="48.77101" lon="7.32602">
        <ele>401.1</ele>
        <time>2020-05-10T13:06:22Z</time>
      </trkpt>
      <trkpt lat="48.771" lon="7.32601">
        <ele>401</ele>
        <time>2020-05-10T13:06:23Z</time>
      </trkpt>
      <trkpt lat="48.77099" lon="7.32599">
        <ele>401</ele>
        <time>2020-05-10T13:06:24Z</time>
      </trkpt>
      <trkpt lat="48.77098" lon="7.32597">
        <ele>401.6</ele>
        <time>2020-05-10T13:06:25Z</time>
      </trkpt>
      <trkpt lat="48.77095" lon="7.32592">
        <ele>402.2</ele>
        <time>2020-05-10T13:06:27Z</time>
      </trkpt>
      <trkpt lat="48.77092" lon="7.32588">
        <ele>402.8</ele>
        <time>2020-05-10T13:06:29Z</time>
      </trkpt>
      <trkpt lat="48.77089" lon="7.32584">
        <ele>403.4</ele>
        <time>2020-05-10T13:06:30Z</time>
      </trkpt>
      <trkpt lat="48.77088" lon="7.32583">
        <ele>403.4</ele>
        <time>2020-05-10T13:06:31Z</time>
      </trkpt>
      <trkpt lat="48.77085" lon="7.3258">
        <ele>404</ele>
        <time>2020-05-10T13:06:33Z</time>
      </trkpt>
      <trkpt lat="48.77082" lon="7.32578">
        <ele>404.8</ele>
        <time>2020-05-10T13:06:34Z</time>
      </trkpt>
      <trkpt lat="48.77078" lon="7.32573">
        <ele>406.3</ele>
        <time>2020-05-10T13:06:36Z</time>
      </trkpt>
      <trkpt lat="48.77077" lon="7.32571">
        <ele>406.3</ele>
        <time>2020-05-10T13:06:37Z</time>
      </trkpt>
      <trkpt lat="48.77073" lon="7.32568">
        <ele>407.2</ele>
        <time>2020-05-10T13:06:39Z</time>
      </trkpt>
      <trkpt lat="48.77071" lon="7.32565">
        <ele>408</ele>
        <time>2020-05-10T13:06:40Z</time>
      </trkpt>
      <trkpt lat="48.77069" lon="7.32561">
        <ele>408.7</ele>
        <time>2020-05-10T13:06:41Z</time>
      </trkpt>
      <trkpt lat="48.77064" lon="7.3256">
        <ele>410.6</ele>
        <time>2020-05-10T13:06:43Z</time>
      </trkpt>
      <trkpt lat="48.77059" lon="7.32556">
        <ele>411.3</ele>
        <time>2020-05-10T13:06:45Z</time>
      </trkpt>
      <trkpt lat="48.77055" lon="7.32552">
        <ele>412.7</ele>
        <time>2020-05-10T13:06:47Z</time>
      </trkpt>
      <trkpt lat="48.77051" lon="7.32547">
        <ele>413.2</ele>
        <time>2020-05-10T13:06:49Z</time>
      </trkpt>
      <trkpt lat="48.77047" lon="7.3254">
        <ele>414.2</ele>
        <time>2020-05-10T13:06:51Z</time>
      </trkpt>
      <trkpt lat="48.77044" lon="7.32534">
        <ele>414.4</ele>
        <time>2020-05-10T13:06:53Z</time>
      </trkpt>
      <trkpt lat="48.77042" lon="7.32531">
        <ele>414.9</ele>
        <time>2020-05-10T13:06:54Z</time>
      </trkpt>
      <trkpt lat="48.7704" lon="7.32529">
        <ele>414.6</ele>
        <time>2020-05-10T13:06:55Z</time>
      </trkpt>
      <trkpt lat="48.77036" lon="7.32524">
        <ele>414.9</ele>
        <time>2020-05-10T13:06:57Z</time>
      </trkpt>
      <trkpt lat="48.77035" lon="7.32521">
        <ele>415.2</ele>
        <time>2020-05-10T13:06:58Z</time>
      </trkpt>
      <trkpt lat="48.77031" lon="7.32516">
        <ele>415.3</ele>
        <time>2020-05-10T13:07:00Z</time>
      </trkpt>
      <trkpt lat="48.7703" lon="7.32513">
        <ele>415.4</ele>
        <time>2020-05-10T13:07:01Z</time>
      </trkpt>
      <trkpt lat="48.77028" lon="7.32508">
        <ele>414.9</ele>
        <time>2020-05-10T13:07:03Z</time>
      </trkpt>
      <trkpt lat="48.77027" lon="7.32505">
        <ele>414.8</ele>
        <time>2020-05-10T13:07:04Z</time>
      </trkpt>
      <trkpt lat="48.77024" lon="7.325">
        <ele>414.7</ele>
        <time>2020-05-10T13:07:06Z</time>
      </trkpt>
      <trkpt lat="48.7702" lon="7.32496">
        <ele>414.5</ele>
        <time>2020-05-10T13:07:08Z</time>
      </trkpt>
      <trkpt lat="48.77018" lon="7.32494">
        <ele>414.7</ele>
        <time>2020-05-10T13:07:09Z</time>
      </trkpt>
      <trkpt lat="48.77013" lon="7.32486">
        <ele>414.4</ele>
        <time>2020-05-10T13:07:11Z</time>
      </trkpt>
      <trkpt lat="48.77011" lon="7.32482">
        <ele>413.9</ele>
        <time>2020-05-10T13:07:12Z</time>
      </trkpt>
      <trkpt lat="48.77008" lon="7.32476">
        <ele>413.8</ele>
        <time>2020-05-10T13:07:14Z</time>
      </trkpt>
      <trkpt lat="48.77006" lon="7.32473">
        <ele>413.8</ele>
        <time>2020-05-10T13:07:15Z</time>
      </trkpt>
      <trkpt lat="48.77002" lon="7.3247">
        <ele>414.1</ele>
        <time>2020-05-10T13:07:17Z</time>
      </trkpt>
      <trkpt lat="48.76999" lon="7.32466">
        <ele>414.1</ele>
        <time>2020-05-10T13:07:18Z</time>
      </trkpt>
      <trkpt lat="48.76998" lon="7.32465">
        <ele>414.1</ele>
        <time>2020-05-10T13:07:19Z</time>
      </trkpt>
      <trkpt lat="48.76995" lon="7.3246">
        <ele>414.1</ele>
        <time>2020-05-10T13:07:21Z</time>
      </trkpt>
      <trkpt lat="48.76992" lon="7.32458">
        <ele>414.2</ele>
        <time>2020-05-10T13:07:22Z</time>
      </trkpt>
      <trkpt lat="48.7699" lon="7.32454">
        <ele>414</ele>
        <time>2020-05-10T13:07:23Z</time>
      </trkpt>
      <trkpt lat="48.76988" lon="7.32447">
        <ele>413.5</ele>
        <time>2020-05-10T13:07:25Z</time>
      </trkpt>
      <trkpt lat="48.76988" lon="7.32442">
        <ele>413.1</ele>
        <time>2020-05-10T13:07:27Z</time>
      </trkpt>
      <trkpt lat="48.76987" lon="7.32434">
        <ele>412.5</ele>
        <time>2020-05-10T13:07:29Z</time>
      </trkpt>
      <trkpt lat="48.76985" lon="7.32429">
        <ele>412.3</ele>
        <time>2020-05-10T13:07:30Z</time>
      </trkpt>
      <trkpt lat="48.76983" lon="7.32424">
        <ele>412</ele>
        <time>2020-05-10T13:07:31Z</time>
      </trkpt>
      <trkpt lat="48.76979" lon="7.32419">
        <ele>411.9</ele>
        <time>2020-05-10T13:07:33Z</time>
      </trkpt>
      <trkpt lat="48.76975" lon="7.32415">
        <ele>411.8</ele>
        <time>2020-05-10T13:07:35Z</time>
      </trkpt>
      <trkpt lat="48.76971" lon="7.32413">
        <ele>411.9</ele>
        <time>2020-05-10T13:07:37Z</time>
      </trkpt>
      <trkpt lat="48.7697" lon="7.32412">
        <ele>411.8</ele>
        <time>2020-05-10T13:07:38Z</time>
      </trkpt>
      <trkpt lat="48.76968" lon="7.32411">
        <ele>411.9</ele>
        <time>2020-05-10T13:07:39Z</time>
      </trkpt>
      <trkpt lat="48.76963" lon="7.32407">
        <ele>411.8</ele>
        <time>2020-05-10T13:07:41Z</time>
      </trkpt>
      <trkpt lat="48.7696" lon="7.32405">
        <ele>411.8</ele>
        <time>2020-05-10T13:07:43Z</time>
      </trkpt>
      <trkpt lat="48.76955" lon="7.32402">
        <ele>411.7</ele>
        <time>2020-05-10T13:07:45Z</time>
      </trkpt>
      <trkpt lat="48.76951" lon="7.32398">
        <ele>411.8</ele>
        <time>2020-05-10T13:07:47Z</time>
      </trkpt>
      <trkpt lat="48.76948" lon="7.32395">
        <ele>411.7</ele>
        <time>2020-05-10T13:07:48Z</time>
      </trkpt>
      <trkpt lat="48.76947" lon="7.32394">
        <ele>411.7</ele>
        <time>2020-05-10T13:07:49Z</time>
      </trkpt>
      <trkpt lat="48.76944" lon="7.32392">
        <ele>411.6</ele>
        <time>2020-05-10T13:07:50Z</time>
      </trkpt>
      <trkpt lat="48.7694" lon="7.32388">
        <ele>411.5</ele>
        <time>2020-05-10T13:07:52Z</time>
      </trkpt>
      <trkpt lat="48.76936" lon="7.32384">
        <ele>411.5</ele>
        <time>2020-05-10T13:07:54Z</time>
      </trkpt>
      <trkpt lat="48.76933" lon="7.3238">
        <ele>411.5</ele>
        <time>2020-05-10T13:07:55Z</time>
      </trkpt>
      <trkpt lat="48.76933" lon="7.32379">
        <ele>411.4</ele>
        <time>2020-05-10T13:07:56Z</time>
      </trkpt>
      <trkpt lat="48.7693" lon="7.32373">
        <ele>411.3</ele>
        <time>2020-05-10T13:07:58Z</time>
      </trkpt>
      <trkpt lat="48.76926" lon="7.32368">
        <ele>411.1</ele>
        <time>2020-05-10T13:08:00Z</time>
      </trkpt>
      <trkpt lat="48.76923" lon="7.32363">
        <ele>411</ele>
        <time>2020-05-10T13:08:02Z</time>
      </trkpt>
      <trkpt lat="48.76918" lon="7.32356">
        <ele>410.7</ele>
        <time>2020-05-10T13:08:04Z</time>
      </trkpt>
      <trkpt lat="48.76914" lon="7.3235">
        <ele>410.5</ele>
        <time>2020-05-10T13:08:06Z</time>
      </trkpt>
      <trkpt lat="48.76913" lon="7.32348">
        <ele>410.4</ele>
        <time>2020-05-10T13:08:07Z</time>
      </trkpt>
      <trkpt lat="48.76908" lon="7.32343">
        <ele>410.2</ele>
        <time>2020-05-10T13:08:09Z</time>
      </trkpt>
      <trkpt lat="48.76904" lon="7.3234">
        <ele>410</ele>
        <time>2020-05-10T13:08:10Z</time>
      </trkpt>
      <trkpt lat="48.769" lon="7.32336">
        <ele>409.7</ele>
        <time>2020-05-10T13:08:12Z</time>
      </trkpt>
      <trkpt lat="48.76897" lon="7.3233">
        <ele>409.4</ele>
        <time>2020-05-10T13:08:14Z</time>
      </trkpt>
      <trkpt lat="48.76893" lon="7.32323">
        <ele>409.1</ele>
        <time>2020-05-10T13:08:16Z</time>
      </trkpt>
      <trkpt lat="48.76889" lon="7.32317">
        <ele>408.8</ele>
        <time>2020-05-10T13:08:18Z</time>
      </trkpt>
      <trkpt lat="48.76884" lon="7.32311">
        <ele>408.4</ele>
        <time>2020-05-10T13:08:20Z</time>
      </trkpt>
      <trkpt lat="48.76879" lon="7.32303">
        <ele>408.1</ele>
        <time>2020-05-10T13:08:22Z</time>
      </trkpt>
      <trkpt lat="48.76873" lon="7.32296">
        <ele>407.8</ele>
        <time>2020-05-10T13:08:24Z</time>
      </trkpt>
      <trkpt lat="48.76871" lon="7.32293">
        <ele>407.7</ele>
        <time>2020-05-10T13:08:25Z</time>
      </trkpt>
      <trkpt lat="48.76868" lon="7.32286">
        <ele>407.5</ele>
        <time>2020-05-10T13:08:27Z</time>
      </trkpt>
      <trkpt lat="48.76866" lon="7.32282">
        <ele>407.4</ele>
        <time>2020-05-10T13:08:28Z</time>
      </trkpt>
      <trkpt lat="48.76863" lon="7.32273">
        <ele>407.2</ele>
        <time>2020-05-10T13:08:30Z</time>
      </trkpt>
      <trkpt lat="48.76862" lon="7.32268">
        <ele>407</ele>
        <time>2020-05-10T13:08:31Z</time>
      </trkpt>
      <trkpt lat="48.76861" lon="7.32264">
        <ele>406.9</ele>
        <time>2020-05-10T13:08:32Z</time>
      </trkpt>
      <trkpt lat="48.7686" lon="7.3226">
        <ele>406.8</ele>
        <time>2020-05-10T13:08:33Z</time>
      </trkpt>
      <trkpt lat="48.76858" lon="7.32254">
        <ele>406.6</ele>
        <time>2020-05-10T13:08:34Z</time>
      </trkpt>
      <trkpt lat="48.76857" lon="7.32252">
        <ele>406.5</ele>
        <time>2020-05-10T13:08:35Z</time>
      </trkpt>
      <trkpt lat="48.76853" lon="7.32243">
        <ele>406.2</ele>
        <time>2020-05-10T13:08:37Z</time>
      </trkpt>
      <trkpt lat="48.76849" lon="7.32235">
        <ele>405.9</ele>
        <time>2020-05-10T13:08:39Z</time>
      </trkpt>
      <trkpt lat="48.76847" lon="7.32231">
        <ele>405.8</ele>
        <time>2020-05-10T13:08:40Z</time>
      </trkpt>
      <trkpt lat="48.76843" lon="7.32222">
        <ele>405.5</ele>
        <time>2020-05-10T13:08:42Z</time>
      </trkpt>
      <trkpt lat="48.7684" lon="7.32219">
        <ele>405.4</ele>
        <time>2020-05-10T13:08:43Z</time>
      </trkpt>
      <trkpt lat="48.76837" lon="7.32215">
        <ele>405.2</ele>
        <time>2020-05-10T13:08:44Z</time>
      </trkpt>
      <trkpt lat="48.76832" lon="7.32208">
        <ele>404.9</ele>
        <time>2020-05-10T13:08:46Z</time>
      </trkpt>
      <trkpt lat="48.76826" lon="7.32199">
        <ele>404.5</ele>
        <time>2020-05-10T13:08:48Z</time>
      </trkpt>
      <trkpt lat="48.7682" lon="7.3219">
        <ele>404</ele>
        <time>2020-05-10T13:08:50Z</time>
      </trkpt>
      <trkpt lat="48.76816" lon="7.32186">
        <ele>403.7</ele>
        <time>2020-05-10T13:08:51Z</time>
      </trkpt>
      <trkpt lat="48.7681" lon="7.32179">
        <ele>403.3</ele>
        <time>2020-05-10T13:08:53Z</time>
      </trkpt>
      <trkpt lat="48.76806" lon="7.32176">
        <ele>403.1</ele>
        <time>2020-05-10T13:08:54Z</time>
      </trkpt>
      <trkpt lat="48.76803" lon="7.32173">
        <ele>402.9</ele>
        <time>2020-05-10T13:08:55Z</time>
      </trkpt>
      <trkpt lat="48.76795" lon="7.32167">
        <ele>402.5</ele>
        <time>2020-05-10T13:08:57Z</time>
      </trkpt>
      <trkpt lat="48.76787" lon="7.32163">
        <ele>402.2</ele>
        <time>2020-05-10T13:08:59Z</time>
      </trkpt>
      <trkpt lat="48.76779" lon="7.32159">
        <ele>401.8</ele>
        <time>2020-05-10T13:09:01Z</time>
      </trkpt>
      <trkpt lat="48.76774" lon="7.32154">
        <ele>401.6</ele>
        <time>2020-05-10T13:09:03Z</time>
      </trkpt>
      <trkpt lat="48.76764" lon="7.32148">
        <ele>401</ele>
        <time>2020-05-10T13:09:05Z</time>
      </trkpt>
      <trkpt lat="48.76756" lon="7.3214">
        <ele>400.5</ele>
        <time>2020-05-10T13:09:07Z</time>
      </trkpt>
      <trkpt lat="48.76749" lon="7.32135">
        <ele>400</ele>
        <time>2020-05-10T13:09:09Z</time>
      </trkpt>
      <trkpt lat="48.76744" lon="7.32131">
        <ele>399.8</ele>
        <time>2020-05-10T13:09:10Z</time>
      </trkpt>
      <trkpt lat="48.76733" lon="7.32123">
        <ele>399.5</ele>
        <time>2020-05-10T13:09:12Z</time>
      </trkpt>
      <trkpt lat="48.76726" lon="7.32119">
        <ele>399.6</ele>
        <time>2020-05-10T13:09:13Z</time>
      </trkpt>
      <trkpt lat="48.76714" lon="7.32112">
        <ele>399.3</ele>
        <time>2020-05-10T13:09:15Z</time>
      </trkpt>
      <trkpt lat="48.76704" lon="7.32104">
        <ele>399.1</ele>
        <time>2020-05-10T13:09:17Z</time>
      </trkpt>
      <trkpt lat="48.76693" lon="7.32097">
        <ele>399</ele>
        <time>2020-05-10T13:09:19Z</time>
      </trkpt>
      <trkpt lat="48.76684" lon="7.3209">
        <ele>398.8</ele>
        <time>2020-05-10T13:09:21Z</time>
      </trkpt>
      <trkpt lat="48.76679" lon="7.32089">
        <ele>398.8</ele>
        <time>2020-05-10T13:09:22Z</time>
      </trkpt>
      <trkpt lat="48.76677" lon="7.32088">
        <ele>398.7</ele>
        <time>2020-05-10T13:09:23Z</time>
      </trkpt>
      <trkpt lat="48.76671" lon="7.32087">
        <ele>398.7</ele>
        <time>2020-05-10T13:09:24Z</time>
      </trkpt>
      <trkpt lat="48.76662" lon="7.3208">
        <ele>398.6</ele>
        <time>2020-05-10T13:09:26Z</time>
      </trkpt>
      <trkpt lat="48.76657" lon="7.32075">
        <ele>398.5</ele>
        <time>2020-05-10T13:09:27Z</time>
      </trkpt>
      <trkpt lat="48.76647" lon="7.32067">
        <ele>398.3</ele>
        <time>2020-05-10T13:09:29Z</time>
      </trkpt>
      <trkpt lat="48.76638" lon="7.32059">
        <ele>398.1</ele>
        <time>2020-05-10T13:09:31Z</time>
      </trkpt>
      <trkpt lat="48.76634" lon="7.32057">
        <ele>398.1</ele>
        <time>2020-05-10T13:09:32Z</time>
      </trkpt>
      <trkpt lat="48.76627" lon="7.32054">
        <ele>398</ele>
        <time>2020-05-10T13:09:34Z</time>
      </trkpt>
      <trkpt lat="48.76622" lon="7.32052">
        <ele>398</ele>
        <time>2020-05-10T13:09:35Z</time>
      </trkpt>
      <trkpt lat="48.76616" lon="7.32047">
        <ele>397.9</ele>
        <time>2020-05-10T13:09:37Z</time>
      </trkpt>
      <trkpt lat="48.76613" lon="7.32044">
        <ele>397.9</ele>
        <time>2020-05-10T13:09:38Z</time>
      </trkpt>
      <trkpt lat="48.76609" lon="7.32042">
        <ele>397.8</ele>
        <time>2020-05-10T13:09:39Z</time>
      </trkpt>
      <trkpt lat="48.76604" lon="7.32038">
        <ele>397.8</ele>
        <time>2020-05-10T13:09:41Z</time>
      </trkpt>
      <trkpt lat="48.76601" lon="7.32032">
        <ele>397.7</ele>
        <time>2020-05-10T13:09:43Z</time>
      </trkpt>
      <trkpt lat="48.76595" lon="7.32028">
        <ele>397.6</ele>
        <time>2020-05-10T13:09:45Z</time>
      </trkpt>
      <trkpt lat="48.76587" lon="7.32026">
        <ele>397.6</ele>
        <time>2020-05-10T13:09:47Z</time>
      </trkpt>
      <trkpt lat="48.76579" lon="7.32027">
        <ele>397.5</ele>
        <time>2020-05-10T13:09:49Z</time>
      </trkpt>
      <trkpt lat="48.76569" lon="7.32026">
        <ele>397.4</ele>
        <time>2020-05-10T13:09:51Z</time>
      </trkpt>
      <trkpt lat="48.76564" lon="7.32028">
        <ele>397.4</ele>
        <time>2020-05-10T13:09:52Z</time>
      </trkpt>
      <trkpt lat="48.76555" lon="7.3203">
        <ele>397.3</ele>
        <time>2020-05-10T13:09:54Z</time>
      </trkpt>
      <trkpt lat="48.76548" lon="7.32022">
        <ele>397.3</ele>
        <time>2020-05-10T13:09:56Z</time>
      </trkpt>
      <trkpt lat="48.76546" lon="7.32016">
        <ele>395.9</ele>
        <time>2020-05-10T13:09:57Z</time>
      </trkpt>
      <trkpt lat="48.76544" lon="7.31997">
        <ele>392.9</ele>
        <time>2020-05-10T13:09:59Z</time>
      </trkpt>
      <trkpt lat="48.76545" lon="7.31985">
        <ele>391</ele>
        <time>2020-05-10T13:10:00Z</time>
      </trkpt>
      <trkpt lat="48.76543" lon="7.31973">
        <ele>390.8</ele>
        <time>2020-05-10T13:10:01Z</time>
      </trkpt>
      <trkpt lat="48.76536" lon="7.31958">
        <ele>391.3</ele>
        <time>2020-05-10T13:10:02Z</time>
      </trkpt>
      <trkpt lat="48.76529" lon="7.31945">
        <ele>391.9</ele>
        <time>2020-05-10T13:10:04Z</time>
      </trkpt>
      <trkpt lat="48.76519" lon="7.31932">
        <ele>392.9</ele>
        <time>2020-05-10T13:10:06Z</time>
      </trkpt>
      <trkpt lat="48.76511" lon="7.31917">
        <ele>393.8</ele>
        <time>2020-05-10T13:10:08Z</time>
      </trkpt>
      <trkpt lat="48.76507" lon="7.3191">
        <ele>394.3</ele>
        <time>2020-05-10T13:10:09Z</time>
      </trkpt>
      <trkpt lat="48.765" lon="7.31899">
        <ele>395.2</ele>
        <time>2020-05-10T13:10:11Z</time>
      </trkpt>
      <trkpt lat="48.76496" lon="7.31891">
        <ele>395.6</ele>
        <time>2020-05-10T13:10:12Z</time>
      </trkpt>
      <trkpt lat="48.76489" lon="7.31874">
        <ele>396.4</ele>
        <time>2020-05-10T13:10:14Z</time>
      </trkpt>
      <trkpt lat="48.76485" lon="7.31867">
        <ele>396.6</ele>
        <time>2020-05-10T13:10:15Z</time>
      </trkpt>
      <trkpt lat="48.76478" lon="7.31854">
        <ele>396.8</ele>
        <time>2020-05-10T13:10:17Z</time>
      </trkpt>
      <trkpt lat="48.76473" lon="7.31849">
        <ele>396.8</ele>
        <time>2020-05-10T13:10:18Z</time>
      </trkpt>
      <trkpt lat="48.76463" lon="7.31842">
        <ele>397.2</ele>
        <time>2020-05-10T13:10:20Z</time>
      </trkpt>
      <trkpt lat="48.76459" lon="7.31838">
        <ele>397.3</ele>
        <time>2020-05-10T13:10:21Z</time>
      </trkpt>
      <trkpt lat="48.7645" lon="7.31829">
        <ele>397.7</ele>
        <time>2020-05-10T13:10:23Z</time>
      </trkpt>
      <trkpt lat="48.76446" lon="7.31823">
        <ele>397.8</ele>
        <time>2020-05-10T13:10:24Z</time>
      </trkpt>
      <trkpt lat="48.76443" lon="7.31818">
        <ele>397.9</ele>
        <time>2020-05-10T13:10:25Z</time>
      </trkpt>
      <trkpt lat="48.76435" lon="7.31811">
        <ele>398.1</ele>
        <time>2020-05-10T13:10:27Z</time>
      </trkpt>
      <trkpt lat="48.76428" lon="7.31802">
        <ele>398.3</ele>
        <time>2020-05-10T13:10:29Z</time>
      </trkpt>
      <trkpt lat="48.76425" lon="7.31797">
        <ele>398.3</ele>
        <time>2020-05-10T13:10:30Z</time>
      </trkpt>
      <trkpt lat="48.76418" lon="7.31789">
        <ele>398.4</ele>
        <time>2020-05-10T13:10:32Z</time>
      </trkpt>
      <trkpt lat="48.76415" lon="7.31784">
        <ele>398.5</ele>
        <time>2020-05-10T13:10:33Z</time>
      </trkpt>
      <trkpt lat="48.76412" lon="7.3178">
        <ele>398.6</ele>
        <time>2020-05-10T13:10:34Z</time>
      </trkpt>
      <trkpt lat="48.76406" lon="7.3177">
        <ele>398.7</ele>
        <time>2020-05-10T13:10:36Z</time>
      </trkpt>
      <trkpt lat="48.76402" lon="7.31765">
        <ele>398.8</ele>
        <time>2020-05-10T13:10:37Z</time>
      </trkpt>
      <trkpt lat="48.76393" lon="7.31757">
        <ele>399</ele>
        <time>2020-05-10T13:10:39Z</time>
      </trkpt>
      <trkpt lat="48.76385" lon="7.31749">
        <ele>399.2</ele>
        <time>2020-05-10T13:10:41Z</time>
      </trkpt>
      <trkpt lat="48.76381" lon="7.31744">
        <ele>399.4</ele>
        <time>2020-05-10T13:10:42Z</time>
      </trkpt>
      <trkpt lat="48.76375" lon="7.31735">
        <ele>399.6</ele>
        <time>2020-05-10T13:10:44Z</time>
      </trkpt>
      <trkpt lat="48.76372" lon="7.31731">
        <ele>399.8</ele>
        <time>2020-05-10T13:10:45Z</time>
      </trkpt>
      <trkpt lat="48.76365" lon="7.31724">
        <ele>400.1</ele>
        <time>2020-05-10T13:10:47Z</time>
      </trkpt>
      <trkpt lat="48.76361" lon="7.31719">
        <ele>400.3</ele>
        <time>2020-05-10T13:10:48Z</time>
      </trkpt>
      <trkpt lat="48.76359" lon="7.31715">
        <ele>400.4</ele>
        <time>2020-05-10T13:10:49Z</time>
      </trkpt>
      <trkpt lat="48.7635" lon="7.31713">
        <ele>400.9</ele>
        <time>2020-05-10T13:10:51Z</time>
      </trkpt>
      <trkpt lat="48.76345" lon="7.31711">
        <ele>401.1</ele>
        <time>2020-05-10T13:10:52Z</time>
      </trkpt>
      <trkpt lat="48.76341" lon="7.31711">
        <ele>401.3</ele>
        <time>2020-05-10T13:10:53Z</time>
      </trkpt>
      <trkpt lat="48.76334" lon="7.31708">
        <ele>401.6</ele>
        <time>2020-05-10T13:10:55Z</time>
      </trkpt>
      <trkpt lat="48.76331" lon="7.31699">
        <ele>401.9</ele>
        <time>2020-05-10T13:10:57Z</time>
      </trkpt>
      <trkpt lat="48.76327" lon="7.31695">
        <ele>402.1</ele>
        <time>2020-05-10T13:10:58Z</time>
      </trkpt>
      <trkpt lat="48.76323" lon="7.31691">
        <ele>402.3</ele>
        <time>2020-05-10T13:10:59Z</time>
      </trkpt>
      <trkpt lat="48.76317" lon="7.31685">
        <ele>402.6</ele>
        <time>2020-05-10T13:11:01Z</time>
      </trkpt>
      <trkpt lat="48.76313" lon="7.31682">
        <ele>402.8</ele>
        <time>2020-05-10T13:11:02Z</time>
      </trkpt>
      <trkpt lat="48.76303" lon="7.31679">
        <ele>403.1</ele>
        <time>2020-05-10T13:11:04Z</time>
      </trkpt>
      <trkpt lat="48.76294" lon="7.31675">
        <ele>403.4</ele>
        <time>2020-05-10T13:11:06Z</time>
      </trkpt>
      <trkpt lat="48.76285" lon="7.31672">
        <ele>403.7</ele>
        <time>2020-05-10T13:11:08Z</time>
      </trkpt>
      <trkpt lat="48.76281" lon="7.31669">
        <ele>403.8</ele>
        <time>2020-05-10T13:11:09Z</time>
      </trkpt>
      <trkpt lat="48.76272" lon="7.31665">
        <ele>404.1</ele>
        <time>2020-05-10T13:11:11Z</time>
      </trkpt>
      <trkpt lat="48.76267" lon="7.31663">
        <ele>404.2</ele>
        <time>2020-05-10T13:11:12Z</time>
      </trkpt>
      <trkpt lat="48.76257" lon="7.3166">
        <ele>404.5</ele>
        <time>2020-05-10T13:11:14Z</time>
      </trkpt>
      <trkpt lat="48.76253" lon="7.31658">
        <ele>404.7</ele>
        <time>2020-05-10T13:11:15Z</time>
      </trkpt>
      <trkpt lat="48.76245" lon="7.31654">
        <ele>405</ele>
        <time>2020-05-10T13:11:17Z</time>
      </trkpt>
      <trkpt lat="48.7624" lon="7.31653">
        <ele>405.1</ele>
        <time>2020-05-10T13:11:18Z</time>
      </trkpt>
      <trkpt lat="48.76232" lon="7.31648">
        <ele>405.4</ele>
        <time>2020-05-10T13:11:20Z</time>
      </trkpt>
      <trkpt lat="48.76228" lon="7.31646">
        <ele>405.6</ele>
        <time>2020-05-10T13:11:21Z</time>
      </trkpt>
      <trkpt lat="48.76225" lon="7.31645">
        <ele>405.7</ele>
        <time>2020-05-10T13:11:22Z</time>
      </trkpt>
      <trkpt lat="48.76216" lon="7.31644">
        <ele>406.1</ele>
        <time>2020-05-10T13:11:24Z</time>
      </trkpt>
      <trkpt lat="48.76207" lon="7.31643">
        <ele>406.5</ele>
        <time>2020-05-10T13:11:26Z</time>
      </trkpt>
      <trkpt lat="48.76202" lon="7.31643">
        <ele>406.7</ele>
        <time>2020-05-10T13:11:27Z</time>
      </trkpt>
      <trkpt lat="48.76198" lon="7.31641">
        <ele>406.9</ele>
        <time>2020-05-10T13:11:28Z</time>
      </trkpt>
      <trkpt lat="48.76192" lon="7.31637">
        <ele>407.1</ele>
        <time>2020-05-10T13:11:30Z</time>
      </trkpt>
      <trkpt lat="48.76184" lon="7.31635">
        <ele>407.5</ele>
        <time>2020-05-10T13:11:32Z</time>
      </trkpt>
      <trkpt lat="48.7618" lon="7.31634">
        <ele>407.6</ele>
        <time>2020-05-10T13:11:33Z</time>
      </trkpt>
      <trkpt lat="48.76177" lon="7.31633">
        <ele>407.8</ele>
        <time>2020-05-10T13:11:34Z</time>
      </trkpt>
      <trkpt lat="48.76169" lon="7.3163">
        <ele>408.1</ele>
        <time>2020-05-10T13:11:36Z</time>
      </trkpt>
      <trkpt lat="48.76164" lon="7.31629">
        <ele>408.3</ele>
        <time>2020-05-10T13:11:37Z</time>
      </trkpt>
      <trkpt lat="48.76157" lon="7.31626">
        <ele>408.5</ele>
        <time>2020-05-10T13:11:39Z</time>
      </trkpt>
      <trkpt lat="48.76153" lon="7.31625">
        <ele>408.6</ele>
        <time>2020-05-10T13:11:40Z</time>
      </trkpt>
      <trkpt lat="48.7615" lon="7.31623">
        <ele>408.7</ele>
        <time>2020-05-10T13:11:41Z</time>
      </trkpt>
      <trkpt lat="48.76147" lon="7.31621">
        <ele>408.8</ele>
        <time>2020-05-10T13:11:42Z</time>
      </trkpt>
      <trkpt lat="48.7614" lon="7.31618">
        <ele>408.9</ele>
        <time>2020-05-10T13:11:44Z</time>
      </trkpt>
      <trkpt lat="48.76135" lon="7.31616">
        <ele>409</ele>
        <time>2020-05-10T13:11:45Z</time>
      </trkpt>
      <trkpt lat="48.76128" lon="7.31615">
        <ele>409.1</ele>
        <time>2020-05-10T13:11:47Z</time>
      </trkpt>
      <trkpt lat="48.76121" lon="7.3161">
        <ele>409.2</ele>
        <time>2020-05-10T13:11:49Z</time>
      </trkpt>
      <trkpt lat="48.76117" lon="7.3161">
        <ele>409.2</ele>
        <time>2020-05-10T13:11:50Z</time>
      </trkpt>
      <trkpt lat="48.76113" lon="7.31609">
        <ele>409.2</ele>
        <time>2020-05-10T13:11:51Z</time>
      </trkpt>
      <trkpt lat="48.76106" lon="7.31606">
        <ele>409.2</ele>
        <time>2020-05-10T13:11:53Z</time>
      </trkpt>
      <trkpt lat="48.76097" lon="7.316">
        <ele>409.2</ele>
        <time>2020-05-10T13:11:55Z</time>
      </trkpt>
      <trkpt lat="48.76092" lon="7.31598">
        <ele>409.2</ele>
        <time>2020-05-10T13:11:56Z</time>
      </trkpt>
      <trkpt lat="48.76079" lon="7.31599">
        <ele>409.1</ele>
        <time>2020-05-10T13:11:58Z</time>
      </trkpt>
      <trkpt lat="48.76074" lon="7.31598">
        <ele>409.1</ele>
        <time>2020-05-10T13:11:59Z</time>
      </trkpt>
      <trkpt lat="48.76065" lon="7.31593">
        <ele>409.1</ele>
        <time>2020-05-10T13:12:01Z</time>
      </trkpt>
      <trkpt lat="48.76061" lon="7.31589">
        <ele>409.1</ele>
        <time>2020-05-10T13:12:02Z</time>
      </trkpt>
      <trkpt lat="48.76053" lon="7.31583">
        <ele>409.1</ele>
        <time>2020-05-10T13:12:04Z</time>
      </trkpt>
      <trkpt lat="48.76048" lon="7.31579">
        <ele>409.2</ele>
        <time>2020-05-10T13:12:05Z</time>
      </trkpt>
      <trkpt lat="48.7604" lon="7.31569">
        <ele>409.4</ele>
        <time>2020-05-10T13:12:07Z</time>
      </trkpt>
      <trkpt lat="48.76037" lon="7.31564">
        <ele>409.5</ele>
        <time>2020-05-10T13:12:08Z</time>
      </trkpt>
      <trkpt lat="48.76035" lon="7.3156">
        <ele>409.3</ele>
        <time>2020-05-10T13:12:09Z</time>
      </trkpt>
      <trkpt lat="48.76033" lon="7.31556">
        <ele>409.4</ele>
        <time>2020-05-10T13:12:10Z</time>
      </trkpt>
      <trkpt lat="48.76032" lon="7.31552">
        <ele>409.2</ele>
        <time>2020-05-10T13:12:11Z</time>
      </trkpt>
      <trkpt lat="48.76032" lon="7.31546">
        <ele>409.3</ele>
        <time>2020-05-10T13:12:13Z</time>
      </trkpt>
      <trkpt lat="48.76032" lon="7.31544">
        <ele>409.1</ele>
        <time>2020-05-10T13:12:15Z</time>
      </trkpt>
      <trkpt lat="48.76031" lon="7.31545">
        <ele>409.4</ele>
        <time>2020-05-10T13:12:17Z</time>
      </trkpt>
      <trkpt lat="48.76031" lon="7.31545">
        <ele>409.5</ele>
        <time>2020-05-10T13:12:18Z</time>
      </trkpt>
      <trkpt lat="48.7603" lon="7.31545">
        <ele>409.6</ele>
        <time>2020-05-10T13:12:20Z</time>
      </trkpt>
      <trkpt lat="48.7603" lon="7.31546">
        <ele>409.7</ele>
        <time>2020-05-10T13:12:21Z</time>
      </trkpt>
      <trkpt lat="48.7603" lon="7.31546">
        <ele>409.8</ele>
        <time>2020-05-10T13:12:22Z</time>
      </trkpt>
      <trkpt lat="48.7603" lon="7.31545">
        <ele>409.8</ele>
        <time>2020-05-10T13:12:24Z</time>
      </trkpt>
      <trkpt lat="48.7603" lon="7.31545">
        <ele>409.9</ele>
        <time>2020-05-10T13:12:25Z</time>
      </trkpt>
      <trkpt lat="48.76029" lon="7.31546">
        <ele>410</ele>
        <time>2020-05-10T13:12:27Z</time>
      </trkpt>
      <trkpt lat="48.76029" lon="7.31546">
        <ele>410.3</ele>
        <time>2020-05-10T13:12:28Z</time>
      </trkpt>
      <trkpt lat="48.76029" lon="7.31546">
        <ele>410.4</ele>
        <time>2020-05-10T13:12:30Z</time>
      </trkpt>
      <trkpt lat="48.76029" lon="7.31546">
        <ele>410.5</ele>
        <time>2020-05-10T13:12:31Z</time>
      </trkpt>
      <trkpt lat="48.76029" lon="7.31546">
        <ele>410.6</ele>
        <time>2020-05-10T13:12:32Z</time>
      </trkpt>
      <trkpt lat="48.76028" lon="7.31541">
        <ele>410.4</ele>
        <time>2020-05-10T13:13:30Z</time>
      </trkpt>
      <trkpt lat="48.76028" lon="7.31535">
        <ele>410.2</ele>
        <time>2020-05-10T13:13:32Z</time>
      </trkpt>
      <trkpt lat="48.76027" lon="7.31531">
        <ele>409.9</ele>
        <time>2020-05-10T13:13:33Z</time>
      </trkpt>
      <trkpt lat="48.76029" lon="7.31522">
        <ele>409</ele>
        <time>2020-05-10T13:13:35Z</time>
      </trkpt>
      <trkpt lat="48.7603" lon="7.31515">
        <ele>408.5</ele>
        <time>2020-05-10T13:13:37Z</time>
      </trkpt>
      <trkpt lat="48.76028" lon="7.31503">
        <ele>407.9</ele>
        <time>2020-05-10T13:13:39Z</time>
      </trkpt>
      <trkpt lat="48.76027" lon="7.31493">
        <ele>407.4</ele>
        <time>2020-05-10T13:13:41Z</time>
      </trkpt>
      <trkpt lat="48.76025" lon="7.31483">
        <ele>407</ele>
        <time>2020-05-10T13:13:43Z</time>
      </trkpt>
      <trkpt lat="48.76023" lon="7.31473">
        <ele>407</ele>
        <time>2020-05-10T13:13:44Z</time>
      </trkpt>
      <trkpt lat="48.76019" lon="7.31465">
        <ele>407.1</ele>
        <time>2020-05-10T13:13:46Z</time>
      </trkpt>
      <trkpt lat="48.76015" lon="7.31461">
        <ele>407.2</ele>
        <time>2020-05-10T13:13:48Z</time>
      </trkpt>
      <trkpt lat="48.76012" lon="7.31458">
        <ele>407.8</ele>
        <time>2020-05-10T13:13:50Z</time>
      </trkpt>
      <trkpt lat="48.76012" lon="7.31457">
        <ele>407.7</ele>
        <time>2020-05-10T13:13:52Z</time>
      </trkpt>
      <trkpt lat="48.76014" lon="7.31456">
        <ele>407.6</ele>
        <time>2020-05-10T13:13:54Z</time>
      </trkpt>
      <trkpt lat="48.76014" lon="7.31455">
        <ele>407.7</ele>
        <time>2020-05-10T13:13:55Z</time>
      </trkpt>
      <trkpt lat="48.76014" lon="7.31454">
        <ele>407.7</ele>
        <time>2020-05-10T13:13:56Z</time>
      </trkpt>
      <trkpt lat="48.76014" lon="7.31454">
        <ele>407.8</ele>
        <time>2020-05-10T13:13:58Z</time>
      </trkpt>
      <trkpt lat="48.76014" lon="7.31454">
        <ele>407.9</ele>
        <time>2020-05-10T13:13:59Z</time>
      </trkpt>
      <trkpt lat="48.76014" lon="7.31454">
        <ele>408</ele>
        <time>2020-05-10T13:14:01Z</time>
      </trkpt>
      <trkpt lat="48.76014" lon="7.31452">
        <ele>407.9</ele>
        <time>2020-05-10T13:14:02Z</time>
      </trkpt>
      <trkpt lat="48.76013" lon="7.31451">
        <ele>408</ele>
        <time>2020-05-10T13:14:03Z</time>
      </trkpt>
      <trkpt lat="48.76013" lon="7.31448">
        <ele>407.9</ele>
        <time>2020-05-10T13:14:04Z</time>
      </trkpt>
      <trkpt lat="48.76012" lon="7.31441">
        <ele>408.1</ele>
        <time>2020-05-10T13:14:06Z</time>
      </trkpt>
      <trkpt lat="48.76011" lon="7.31436">
        <ele>407.9</ele>
        <time>2020-05-10T13:14:07Z</time>
      </trkpt>
      <trkpt lat="48.76009" lon="7.3143">
        <ele>407.8</ele>
        <time>2020-05-10T13:14:08Z</time>
      </trkpt>
      <trkpt lat="48.76008" lon="7.31416">
        <ele>407.7</ele>
        <time>2020-05-10T13:14:10Z</time>
      </trkpt>
      <trkpt lat="48.76009" lon="7.31409">
        <ele>407.4</ele>
        <time>2020-05-10T13:14:11Z</time>
      </trkpt>
      <trkpt lat="48.76016" lon="7.31392">
        <ele>405.5</ele>
        <time>2020-05-10T13:14:13Z</time>
      </trkpt>
      <trkpt lat="48.76026" lon="7.31374">
        <ele>403.3</ele>
        <time>2020-05-10T13:14:15Z</time>
      </trkpt>
      <trkpt lat="48.76031" lon="7.31355">
        <ele>402</ele>
        <time>2020-05-10T13:14:17Z</time>
      </trkpt>
      <trkpt lat="48.76036" lon="7.31324">
        <ele>400.3</ele>
        <time>2020-05-10T13:14:19Z</time>
      </trkpt>
      <trkpt lat="48.76037" lon="7.31294">
        <ele>399</ele>
        <time>2020-05-10T13:14:21Z</time>
      </trkpt>
      <trkpt lat="48.76034" lon="7.31256">
        <ele>397</ele>
        <time>2020-05-10T13:14:23Z</time>
      </trkpt>
      <trkpt lat="48.76023" lon="7.31223">
        <ele>396.4</ele>
        <time>2020-05-10T13:14:25Z</time>
      </trkpt>
      <trkpt lat="48.76012" lon="7.31198">
        <ele>395.3</ele>
        <time>2020-05-10T13:14:27Z</time>
      </trkpt>
      <trkpt lat="48.76002" lon="7.31169">
        <ele>394.7</ele>
        <time>2020-05-10T13:14:29Z</time>
      </trkpt>
      <trkpt lat="48.75992" lon="7.31145">
        <ele>393.8</ele>
        <time>2020-05-10T13:14:31Z</time>
      </trkpt>
      <trkpt lat="48.75981" lon="7.31119">
        <ele>392.4</ele>
        <time>2020-05-10T13:14:33Z</time>
      </trkpt>
      <trkpt lat="48.75971" lon="7.31095">
        <ele>391.6</ele>
        <time>2020-05-10T13:14:35Z</time>
      </trkpt>
      <trkpt lat="48.75958" lon="7.31073">
        <ele>392</ele>
        <time>2020-05-10T13:14:37Z</time>
      </trkpt>
      <trkpt lat="48.75948" lon="7.3105">
        <ele>391.5</ele>
        <time>2020-05-10T13:14:39Z</time>
      </trkpt>
      <trkpt lat="48.75939" lon="7.31025">
        <ele>390.4</ele>
        <time>2020-05-10T13:14:41Z</time>
      </trkpt>
      <trkpt lat="48.75927" lon="7.31004">
        <ele>390.7</ele>
        <time>2020-05-10T13:14:43Z</time>
      </trkpt>
      <trkpt lat="48.75915" lon="7.30983">
        <ele>390.3</ele>
        <time>2020-05-10T13:14:45Z</time>
      </trkpt>
      <trkpt lat="48.75904" lon="7.30967">
        <ele>389.9</ele>
        <time>2020-05-10T13:14:47Z</time>
      </trkpt>
      <trkpt lat="48.759" lon="7.30958">
        <ele>389.5</ele>
        <time>2020-05-10T13:14:48Z</time>
      </trkpt>
      <trkpt lat="48.75894" lon="7.30949">
        <ele>389</ele>
        <time>2020-05-10T13:14:49Z</time>
      </trkpt>
      <trkpt lat="48.75883" lon="7.30931">
        <ele>387.8</ele>
        <time>2020-05-10T13:14:51Z</time>
      </trkpt>
      <trkpt lat="48.75872" lon="7.30915">
        <ele>386.9</ele>
        <time>2020-05-10T13:14:53Z</time>
      </trkpt>
      <trkpt lat="48.75863" lon="7.30901">
        <ele>386.3</ele>
        <time>2020-05-10T13:14:55Z</time>
      </trkpt>
      <trkpt lat="48.75851" lon="7.30886">
        <ele>385.3</ele>
        <time>2020-05-10T13:14:57Z</time>
      </trkpt>
      <trkpt lat="48.75837" lon="7.30865">
        <ele>383.5</ele>
        <time>2020-05-10T13:14:59Z</time>
      </trkpt>
      <trkpt lat="48.75825" lon="7.30842">
        <ele>382.3</ele>
        <time>2020-05-10T13:15:01Z</time>
      </trkpt>
      <trkpt lat="48.75813" lon="7.30824">
        <ele>380.9</ele>
        <time>2020-05-10T13:15:03Z</time>
      </trkpt>
      <trkpt lat="48.75801" lon="7.30806">
        <ele>379.4</ele>
        <time>2020-05-10T13:15:05Z</time>
      </trkpt>
      <trkpt lat="48.75796" lon="7.30794">
        <ele>378.8</ele>
        <time>2020-05-10T13:15:06Z</time>
      </trkpt>
      <trkpt lat="48.75789" lon="7.30785">
        <ele>378.4</ele>
        <time>2020-05-10T13:15:07Z</time>
      </trkpt>
      <trkpt lat="48.75777" lon="7.30771">
        <ele>377.9</ele>
        <time>2020-05-10T13:15:09Z</time>
      </trkpt>
      <trkpt lat="48.75766" lon="7.30755">
        <ele>377.3</ele>
        <time>2020-05-10T13:15:11Z</time>
      </trkpt>
      <trkpt lat="48.75757" lon="7.30735">
        <ele>376.3</ele>
        <time>2020-05-10T13:15:13Z</time>
      </trkpt>
      <trkpt lat="48.75744" lon="7.30716">
        <ele>375.1</ele>
        <time>2020-05-10T13:15:15Z</time>
      </trkpt>
      <trkpt lat="48.7573" lon="7.30699">
        <ele>374.2</ele>
        <time>2020-05-10T13:15:17Z</time>
      </trkpt>
      <trkpt lat="48.75717" lon="7.30683">
        <ele>373.9</ele>
        <time>2020-05-10T13:15:19Z</time>
      </trkpt>
      <trkpt lat="48.75711" lon="7.30676">
        <ele>373.9</ele>
        <time>2020-05-10T13:15:20Z</time>
      </trkpt>
      <trkpt lat="48.75705" lon="7.30671">
        <ele>374.1</ele>
        <time>2020-05-10T13:15:21Z</time>
      </trkpt>
      <trkpt lat="48.75692" lon="7.30656">
        <ele>374.4</ele>
        <time>2020-05-10T13:15:23Z</time>
      </trkpt>
      <trkpt lat="48.75686" lon="7.30651">
        <ele>374.6</ele>
        <time>2020-05-10T13:15:24Z</time>
      </trkpt>
      <trkpt lat="48.75681" lon="7.30646">
        <ele>374.8</ele>
        <time>2020-05-10T13:15:25Z</time>
      </trkpt>
      <trkpt lat="48.75677" lon="7.30641">
        <ele>375.1</ele>
        <time>2020-05-10T13:15:26Z</time>
      </trkpt>
      <trkpt lat="48.75666" lon="7.30631">
        <ele>375.5</ele>
        <time>2020-05-10T13:15:28Z</time>
      </trkpt>
      <trkpt lat="48.75663" lon="7.30625">
        <ele>375.6</ele>
        <time>2020-05-10T13:15:29Z</time>
      </trkpt>
      <trkpt lat="48.75654" lon="7.30613">
        <ele>375.8</ele>
        <time>2020-05-10T13:15:31Z</time>
      </trkpt>
      <trkpt lat="48.75643" lon="7.30601">
        <ele>376</ele>
        <time>2020-05-10T13:15:33Z</time>
      </trkpt>
      <trkpt lat="48.75635" lon="7.30589">
        <ele>376.2</ele>
        <time>2020-05-10T13:15:35Z</time>
      </trkpt>
      <trkpt lat="48.75624" lon="7.30575">
        <ele>376.2</ele>
        <time>2020-05-10T13:15:37Z</time>
      </trkpt>
      <trkpt lat="48.75613" lon="7.30564">
        <ele>376.5</ele>
        <time>2020-05-10T13:15:39Z</time>
      </trkpt>
      <trkpt lat="48.75606" lon="7.30553">
        <ele>376.7</ele>
        <time>2020-05-10T13:15:41Z</time>
      </trkpt>
      <trkpt lat="48.75602" lon="7.3054">
        <ele>377</ele>
        <time>2020-05-10T13:15:43Z</time>
      </trkpt>
      <trkpt lat="48.75594" lon="7.30528">
        <ele>377.4</ele>
        <time>2020-05-10T13:15:45Z</time>
      </trkpt>
      <trkpt lat="48.75588" lon="7.30518">
        <ele>377.5</ele>
        <time>2020-05-10T13:15:47Z</time>
      </trkpt>
      <trkpt lat="48.75581" lon="7.3051">
        <ele>377.6</ele>
        <time>2020-05-10T13:15:49Z</time>
      </trkpt>
      <trkpt lat="48.75577" lon="7.30507">
        <ele>377.6</ele>
        <time>2020-05-10T13:15:50Z</time>
      </trkpt>
      <trkpt lat="48.75568" lon="7.30499">
        <ele>377.7</ele>
        <time>2020-05-10T13:15:52Z</time>
      </trkpt>
      <trkpt lat="48.7556" lon="7.3049">
        <ele>377.5</ele>
        <time>2020-05-10T13:15:54Z</time>
      </trkpt>
      <trkpt lat="48.75553" lon="7.30481">
        <ele>377.3</ele>
        <time>2020-05-10T13:15:56Z</time>
      </trkpt>
      <trkpt lat="48.75551" lon="7.30474">
        <ele>377.2</ele>
        <time>2020-05-10T13:15:57Z</time>
      </trkpt>
      <trkpt lat="48.75549" lon="7.30469">
        <ele>377.2</ele>
        <time>2020-05-10T13:15:58Z</time>
      </trkpt>
      <trkpt lat="48.75548" lon="7.30461">
        <ele>377.2</ele>
        <time>2020-05-10T13:15:59Z</time>
      </trkpt>
      <trkpt lat="48.75545" lon="7.30452">
        <ele>377.2</ele>
        <time>2020-05-10T13:16:00Z</time>
      </trkpt>
      <trkpt lat="48.75537" lon="7.30442">
        <ele>377.3</ele>
        <time>2020-05-10T13:16:02Z</time>
      </trkpt>
      <trkpt lat="48.75533" lon="7.30436">
        <ele>377.3</ele>
        <time>2020-05-10T13:16:03Z</time>
      </trkpt>
      <trkpt lat="48.75528" lon="7.30424">
        <ele>377.2</ele>
        <time>2020-05-10T13:16:05Z</time>
      </trkpt>
      <trkpt lat="48.75524" lon="7.30412">
        <ele>377.1</ele>
        <time>2020-05-10T13:16:07Z</time>
      </trkpt>
      <trkpt lat="48.75521" lon="7.30407">
        <ele>377</ele>
        <time>2020-05-10T13:16:08Z</time>
      </trkpt>
      <trkpt lat="48.75516" lon="7.30399">
        <ele>376.9</ele>
        <time>2020-05-10T13:16:09Z</time>
      </trkpt>
      <trkpt lat="48.75512" lon="7.30384">
        <ele>376.6</ele>
        <time>2020-05-10T13:16:11Z</time>
      </trkpt>
      <trkpt lat="48.75508" lon="7.3037">
        <ele>376.2</ele>
        <time>2020-05-10T13:16:13Z</time>
      </trkpt>
      <trkpt lat="48.75505" lon="7.30364">
        <ele>376.1</ele>
        <time>2020-05-10T13:16:14Z</time>
      </trkpt>
      <trkpt lat="48.75502" lon="7.30357">
        <ele>375.9</ele>
        <time>2020-05-10T13:16:15Z</time>
      </trkpt>
      <trkpt lat="48.75496" lon="7.30341">
        <ele>375.7</ele>
        <time>2020-05-10T13:16:17Z</time>
      </trkpt>
      <trkpt lat="48.75494" lon="7.30334">
        <ele>375.6</ele>
        <time>2020-05-10T13:16:18Z</time>
      </trkpt>
      <trkpt lat="48.75492" lon="7.30327">
        <ele>375.4</ele>
        <time>2020-05-10T13:16:19Z</time>
      </trkpt>
      <trkpt lat="48.75488" lon="7.30316">
        <ele>375.3</ele>
        <time>2020-05-10T13:16:21Z</time>
      </trkpt>
      <trkpt lat="48.75483" lon="7.30297">
        <ele>374.9</ele>
        <time>2020-05-10T13:16:23Z</time>
      </trkpt>
      <trkpt lat="48.75481" lon="7.3029">
        <ele>374.9</ele>
        <time>2020-05-10T13:16:24Z</time>
      </trkpt>
      <trkpt lat="48.75477" lon="7.30283">
        <ele>374.8</ele>
        <time>2020-05-10T13:16:25Z</time>
      </trkpt>
      <trkpt lat="48.75472" lon="7.30271">
        <ele>374.8</ele>
        <time>2020-05-10T13:16:27Z</time>
      </trkpt>
      <trkpt lat="48.75467" lon="7.30256">
        <ele>374.8</ele>
        <time>2020-05-10T13:16:28Z</time>
      </trkpt>
      <trkpt lat="48.7546" lon="7.30236">
        <ele>374.8</ele>
        <time>2020-05-10T13:16:30Z</time>
      </trkpt>
      <trkpt lat="48.75457" lon="7.30227">
        <ele>374.8</ele>
        <time>2020-05-10T13:16:31Z</time>
      </trkpt>
      <trkpt lat="48.75452" lon="7.30213">
        <ele>374.9</ele>
        <time>2020-05-10T13:16:33Z</time>
      </trkpt>
      <trkpt lat="48.75449" lon="7.30206">
        <ele>374.9</ele>
        <time>2020-05-10T13:16:34Z</time>
      </trkpt>
      <trkpt lat="48.75445" lon="7.30199">
        <ele>374.9</ele>
        <time>2020-05-10T13:16:35Z</time>
      </trkpt>
      <trkpt lat="48.7544" lon="7.30189">
        <ele>375.1</ele>
        <time>2020-05-10T13:16:37Z</time>
      </trkpt>
      <trkpt lat="48.75436" lon="7.30173">
        <ele>375.3</ele>
        <time>2020-05-10T13:16:39Z</time>
      </trkpt>
      <trkpt lat="48.75432" lon="7.30157">
        <ele>375.3</ele>
        <time>2020-05-10T13:16:41Z</time>
      </trkpt>
      <trkpt lat="48.75424" lon="7.30141">
        <ele>375.3</ele>
        <time>2020-05-10T13:16:43Z</time>
      </trkpt>
      <trkpt lat="48.75415" lon="7.30126">
        <ele>375.1</ele>
        <time>2020-05-10T13:16:45Z</time>
      </trkpt>
      <trkpt lat="48.75412" lon="7.30121">
        <ele>375</ele>
        <time>2020-05-10T13:16:46Z</time>
      </trkpt>
      <trkpt lat="48.75407" lon="7.30116">
        <ele>374.9</ele>
        <time>2020-05-10T13:16:47Z</time>
      </trkpt>
      <trkpt lat="48.75396" lon="7.30105">
        <ele>374.6</ele>
        <time>2020-05-10T13:16:49Z</time>
      </trkpt>
      <trkpt lat="48.75388" lon="7.30096">
        <ele>374.4</ele>
        <time>2020-05-10T13:16:51Z</time>
      </trkpt>
      <trkpt lat="48.75379" lon="7.30088">
        <ele>374.2</ele>
        <time>2020-05-10T13:16:53Z</time>
      </trkpt>
      <trkpt lat="48.75375" lon="7.30083">
        <ele>374.2</ele>
        <time>2020-05-10T13:16:54Z</time>
      </trkpt>
      <trkpt lat="48.75371" lon="7.30078">
        <ele>374.3</ele>
        <time>2020-05-10T13:16:55Z</time>
      </trkpt>
      <trkpt lat="48.75363" lon="7.30064">
        <ele>374.4</ele>
        <time>2020-05-10T13:16:57Z</time>
      </trkpt>
      <trkpt lat="48.7536" lon="7.30056">
        <ele>374.4</ele>
        <time>2020-05-10T13:16:58Z</time>
      </trkpt>
      <trkpt lat="48.75354" lon="7.30044">
        <ele>374.3</ele>
        <time>2020-05-10T13:17:00Z</time>
      </trkpt>
      <trkpt lat="48.75349" lon="7.3003">
        <ele>374.2</ele>
        <time>2020-05-10T13:17:02Z</time>
      </trkpt>
      <trkpt lat="48.75347" lon="7.30021">
        <ele>374.1</ele>
        <time>2020-05-10T13:17:03Z</time>
      </trkpt>
      <trkpt lat="48.75341" lon="7.30001">
        <ele>373.8</ele>
        <time>2020-05-10T13:17:05Z</time>
      </trkpt>
      <trkpt lat="48.75333" lon="7.29984">
        <ele>373.5</ele>
        <time>2020-05-10T13:17:07Z</time>
      </trkpt>
      <trkpt lat="48.75326" lon="7.2997">
        <ele>373.3</ele>
        <time>2020-05-10T13:17:08Z</time>
      </trkpt>
      <trkpt lat="48.75322" lon="7.29957">
        <ele>373.2</ele>
        <time>2020-05-10T13:17:10Z</time>
      </trkpt>
      <trkpt lat="48.75315" lon="7.29944">
        <ele>373</ele>
        <time>2020-05-10T13:17:12Z</time>
      </trkpt>
      <trkpt lat="48.75312" lon="7.29931">
        <ele>372.8</ele>
        <time>2020-05-10T13:17:14Z</time>
      </trkpt>
      <trkpt lat="48.75304" lon="7.29911">
        <ele>372.7</ele>
        <time>2020-05-10T13:17:16Z</time>
      </trkpt>
      <trkpt lat="48.75299" lon="7.299">
        <ele>372.6</ele>
        <time>2020-05-10T13:17:17Z</time>
      </trkpt>
      <trkpt lat="48.7529" lon="7.29882">
        <ele>372.4</ele>
        <time>2020-05-10T13:17:19Z</time>
      </trkpt>
      <trkpt lat="48.75286" lon="7.29873">
        <ele>372.3</ele>
        <time>2020-05-10T13:17:20Z</time>
      </trkpt>
      <trkpt lat="48.75278" lon="7.29856">
        <ele>372.1</ele>
        <time>2020-05-10T13:17:22Z</time>
      </trkpt>
      <trkpt lat="48.75274" lon="7.29848">
        <ele>372</ele>
        <time>2020-05-10T13:17:23Z</time>
      </trkpt>
      <trkpt lat="48.75264" lon="7.29832">
        <ele>371.7</ele>
        <time>2020-05-10T13:17:25Z</time>
      </trkpt>
      <trkpt lat="48.7525" lon="7.29816">
        <ele>371</ele>
        <time>2020-05-10T13:17:27Z</time>
      </trkpt>
      <trkpt lat="48.75245" lon="7.29806">
        <ele>370.5</ele>
        <time>2020-05-10T13:17:28Z</time>
      </trkpt>
      <trkpt lat="48.75236" lon="7.29789">
        <ele>369.9</ele>
        <time>2020-05-10T13:17:30Z</time>
      </trkpt>
      <trkpt lat="48.75225" lon="7.2977">
        <ele>369.5</ele>
        <time>2020-05-10T13:17:32Z</time>
      </trkpt>
      <trkpt lat="48.75222" lon="7.29764">
        <ele>369.5</ele>
        <time>2020-05-10T13:17:33Z</time>
      </trkpt>
      <trkpt lat="48.75218" lon="7.29755">
        <ele>369.4</ele>
        <time>2020-05-10T13:17:34Z</time>
      </trkpt>
      <trkpt lat="48.75205" lon="7.2974">
        <ele>369.5</ele>
        <time>2020-05-10T13:17:36Z</time>
      </trkpt>
      <trkpt lat="48.75193" lon="7.29729">
        <ele>369.5</ele>
        <time>2020-05-10T13:17:38Z</time>
      </trkpt>
      <trkpt lat="48.75186" lon="7.29721">
        <ele>369.5</ele>
        <time>2020-05-10T13:17:39Z</time>
      </trkpt>
      <trkpt lat="48.75173" lon="7.29704">
        <ele>369.5</ele>
        <time>2020-05-10T13:17:41Z</time>
      </trkpt>
      <trkpt lat="48.75167" lon="7.29697">
        <ele>369.4</ele>
        <time>2020-05-10T13:17:42Z</time>
      </trkpt>
      <trkpt lat="48.75154" lon="7.29685">
        <ele>369.2</ele>
        <time>2020-05-10T13:17:44Z</time>
      </trkpt>
      <trkpt lat="48.75147" lon="7.2968">
        <ele>369.1</ele>
        <time>2020-05-10T13:17:45Z</time>
      </trkpt>
      <trkpt lat="48.75135" lon="7.2967">
        <ele>368.9</ele>
        <time>2020-05-10T13:17:47Z</time>
      </trkpt>
      <trkpt lat="48.75128" lon="7.29665">
        <ele>368.9</ele>
        <time>2020-05-10T13:17:48Z</time>
      </trkpt>
      <trkpt lat="48.75121" lon="7.29659">
        <ele>369</ele>
        <time>2020-05-10T13:17:49Z</time>
      </trkpt>
      <trkpt lat="48.75107" lon="7.29647">
        <ele>369.3</ele>
        <time>2020-05-10T13:17:51Z</time>
      </trkpt>
      <trkpt lat="48.751" lon="7.29642">
        <ele>369.4</ele>
        <time>2020-05-10T13:17:52Z</time>
      </trkpt>
      <trkpt lat="48.75088" lon="7.29632">
        <ele>369.4</ele>
        <time>2020-05-10T13:17:54Z</time>
      </trkpt>
      <trkpt lat="48.75082" lon="7.29625">
        <ele>369.3</ele>
        <time>2020-05-10T13:17:55Z</time>
      </trkpt>
      <trkpt lat="48.75069" lon="7.29617">
        <ele>369.1</ele>
        <time>2020-05-10T13:17:57Z</time>
      </trkpt>
      <trkpt lat="48.75057" lon="7.29607">
        <ele>368.8</ele>
        <time>2020-05-10T13:17:59Z</time>
      </trkpt>
      <trkpt lat="48.75049" lon="7.29604">
        <ele>368.8</ele>
        <time>2020-05-10T13:18:00Z</time>
      </trkpt>
      <trkpt lat="48.7504" lon="7.296">
        <ele>368.8</ele>
        <time>2020-05-10T13:18:01Z</time>
      </trkpt>
      <trkpt lat="48.75033" lon="7.29596">
        <ele>368.8</ele>
        <time>2020-05-10T13:18:02Z</time>
      </trkpt>
      <trkpt lat="48.75026" lon="7.29594">
        <ele>368.8</ele>
        <time>2020-05-10T13:18:03Z</time>
      </trkpt>
      <trkpt lat="48.75012" lon="7.29585">
        <ele>368.8</ele>
        <time>2020-05-10T13:18:05Z</time>
      </trkpt>
      <trkpt lat="48.75006" lon="7.29581">
        <ele>368.8</ele>
        <time>2020-05-10T13:18:06Z</time>
      </trkpt>
      <trkpt lat="48.74992" lon="7.29573">
        <ele>369.2</ele>
        <time>2020-05-10T13:18:08Z</time>
      </trkpt>
      <trkpt lat="48.74986" lon="7.2957">
        <ele>369.4</ele>
        <time>2020-05-10T13:18:09Z</time>
      </trkpt>
      <trkpt lat="48.74973" lon="7.29568">
        <ele>369.8</ele>
        <time>2020-05-10T13:18:11Z</time>
      </trkpt>
      <trkpt lat="48.74967" lon="7.2957">
        <ele>369.9</ele>
        <time>2020-05-10T13:18:12Z</time>
      </trkpt>
      <trkpt lat="48.74959" lon="7.29577">
        <ele>370.2</ele>
        <time>2020-05-10T13:18:14Z</time>
      </trkpt>
      <trkpt lat="48.74954" lon="7.29585">
        <ele>370.5</ele>
        <time>2020-05-10T13:18:16Z</time>
      </trkpt>
      <trkpt lat="48.74952" lon="7.2959">
        <ele>370.6</ele>
        <time>2020-05-10T13:18:17Z</time>
      </trkpt>
      <trkpt lat="48.74949" lon="7.29596">
        <ele>370.9</ele>
        <time>2020-05-10T13:18:18Z</time>
      </trkpt>
      <trkpt lat="48.74945" lon="7.29607">
        <ele>371.5</ele>
        <time>2020-05-10T13:18:20Z</time>
      </trkpt>
      <trkpt lat="48.74943" lon="7.2961">
        <ele>371.8</ele>
        <time>2020-05-10T13:18:21Z</time>
      </trkpt>
      <trkpt lat="48.7494" lon="7.29616">
        <ele>372.2</ele>
        <time>2020-05-10T13:18:23Z</time>
      </trkpt>
      <trkpt lat="48.74939" lon="7.29619">
        <ele>372.4</ele>
        <time>2020-05-10T13:18:24Z</time>
      </trkpt>
      <trkpt lat="48.74939" lon="7.2962">
        <ele>372.5</ele>
        <time>2020-05-10T13:18:25Z</time>
      </trkpt>
      <trkpt lat="48.74938" lon="7.29627">
        <ele>373</ele>
        <time>2020-05-10T13:18:27Z</time>
      </trkpt>
      <trkpt lat="48.74937" lon="7.2963">
        <ele>373.1</ele>
        <time>2020-05-10T13:18:28Z</time>
      </trkpt>
      <trkpt lat="48.74937" lon="7.29632">
        <ele>373.2</ele>
        <time>2020-05-10T13:18:29Z</time>
      </trkpt>
      <trkpt lat="48.74937" lon="7.29639">
        <ele>373.7</ele>
        <time>2020-05-10T13:18:31Z</time>
      </trkpt>
      <trkpt lat="48.74936" lon="7.29643">
        <ele>373.9</ele>
        <time>2020-05-10T13:18:32Z</time>
      </trkpt>
      <trkpt lat="48.74937" lon="7.29648">
        <ele>374.2</ele>
        <time>2020-05-10T13:18:33Z</time>
      </trkpt>
      <trkpt lat="48.74937" lon="7.29659">
        <ele>374.8</ele>
        <time>2020-05-10T13:18:35Z</time>
      </trkpt>
      <trkpt lat="48.74937" lon="7.29663">
        <ele>375.1</ele>
        <time>2020-05-10T13:18:36Z</time>
      </trkpt>
      <trkpt lat="48.74939" lon="7.29671">
        <ele>375.6</ele>
        <time>2020-05-10T13:18:38Z</time>
      </trkpt>
      <trkpt lat="48.7494" lon="7.29674">
        <ele>375.8</ele>
        <time>2020-05-10T13:18:39Z</time>
      </trkpt>
      <trkpt lat="48.74941" lon="7.29676">
        <ele>376</ele>
        <time>2020-05-10T13:18:41Z</time>
      </trkpt>
      <trkpt lat="48.74945" lon="7.29682">
        <ele>376.5</ele>
        <time>2020-05-10T13:18:43Z</time>
      </trkpt>
      <trkpt lat="48.7495" lon="7.29686">
        <ele>377</ele>
        <time>2020-05-10T13:18:45Z</time>
      </trkpt>
      <trkpt lat="48.74953" lon="7.29687">
        <ele>377.5</ele>
        <time>2020-05-10T13:18:46Z</time>
      </trkpt>
      <trkpt lat="48.74958" lon="7.29688">
        <ele>378.1</ele>
        <time>2020-05-10T13:18:48Z</time>
      </trkpt>
      <trkpt lat="48.74961" lon="7.29688">
        <ele>378.5</ele>
        <time>2020-05-10T13:18:49Z</time>
      </trkpt>
      <trkpt lat="48.74967" lon="7.29688">
        <ele>379.4</ele>
        <time>2020-05-10T13:18:51Z</time>
      </trkpt>
      <trkpt lat="48.74971" lon="7.29688">
        <ele>379.9</ele>
        <time>2020-05-10T13:18:53Z</time>
      </trkpt>
      <trkpt lat="48.74975" lon="7.29686">
        <ele>380.3</ele>
        <time>2020-05-10T13:18:55Z</time>
      </trkpt>
      <trkpt lat="48.74975" lon="7.29686">
        <ele>380.4</ele>
        <time>2020-05-10T13:18:56Z</time>
      </trkpt>
      <trkpt lat="48.74978" lon="7.29684">
        <ele>380.7</ele>
        <time>2020-05-10T13:18:58Z</time>
      </trkpt>
      <trkpt lat="48.74982" lon="7.29681">
        <ele>381.1</ele>
        <time>2020-05-10T13:19:00Z</time>
      </trkpt>
      <trkpt lat="48.74984" lon="7.29681">
        <ele>381.2</ele>
        <time>2020-05-10T13:19:01Z</time>
      </trkpt>
      <trkpt lat="48.74989" lon="7.29676">
        <ele>381.7</ele>
        <time>2020-05-10T13:19:03Z</time>
      </trkpt>
      <trkpt lat="48.74994" lon="7.29673">
        <ele>382</ele>
        <time>2020-05-10T13:19:05Z</time>
      </trkpt>
      <trkpt lat="48.74996" lon="7.29672">
        <ele>382.2</ele>
        <time>2020-05-10T13:19:06Z</time>
      </trkpt>
      <trkpt lat="48.75001" lon="7.29672">
        <ele>382.5</ele>
        <time>2020-05-10T13:19:08Z</time>
      </trkpt>
      <trkpt lat="48.75003" lon="7.29671">
        <ele>382.7</ele>
        <time>2020-05-10T13:19:09Z</time>
      </trkpt>
      <trkpt lat="48.75007" lon="7.2967">
        <ele>383</ele>
        <time>2020-05-10T13:19:11Z</time>
      </trkpt>
      <trkpt lat="48.75011" lon="7.29671">
        <ele>383.3</ele>
        <time>2020-05-10T13:19:13Z</time>
      </trkpt>
      <trkpt lat="48.75014" lon="7.29673">
        <ele>383.7</ele>
        <time>2020-05-10T13:19:15Z</time>
      </trkpt>
      <trkpt lat="48.75018" lon="7.29676">
        <ele>384.1</ele>
        <time>2020-05-10T13:19:17Z</time>
      </trkpt>
      <trkpt lat="48.75022" lon="7.2968">
        <ele>384.6</ele>
        <time>2020-05-10T13:19:19Z</time>
      </trkpt>
      <trkpt lat="48.75025" lon="7.2968">
        <ele>384.8</ele>
        <time>2020-05-10T13:19:20Z</time>
      </trkpt>
      <trkpt lat="48.75029" lon="7.29683">
        <ele>385.3</ele>
        <time>2020-05-10T13:19:22Z</time>
      </trkpt>
      <trkpt lat="48.75032" lon="7.29686">
        <ele>385.7</ele>
        <time>2020-05-10T13:19:24Z</time>
      </trkpt>
      <trkpt lat="48.75034" lon="7.29692">
        <ele>386.1</ele>
        <time>2020-05-10T13:19:26Z</time>
      </trkpt>
      <trkpt lat="48.75036" lon="7.29696">
        <ele>386.4</ele>
        <time>2020-05-10T13:19:27Z</time>
      </trkpt>
      <trkpt lat="48.75037" lon="7.29697">
        <ele>386.5</ele>
        <time>2020-05-10T13:19:28Z</time>
      </trkpt>
      <trkpt lat="48.75039" lon="7.29701">
        <ele>386.9</ele>
        <time>2020-05-10T13:19:29Z</time>
      </trkpt>
      <trkpt lat="48.7504" lon="7.29702">
        <ele>387</ele>
        <time>2020-05-10T13:19:30Z</time>
      </trkpt>
      <trkpt lat="48.75042" lon="7.29708">
        <ele>387.5</ele>
        <time>2020-05-10T13:19:32Z</time>
      </trkpt>
      <trkpt lat="48.75043" lon="7.2971">
        <ele>387.7</ele>
        <time>2020-05-10T13:19:33Z</time>
      </trkpt>
      <trkpt lat="48.75045" lon="7.29714">
        <ele>388.2</ele>
        <time>2020-05-10T13:19:35Z</time>
      </trkpt>
      <trkpt lat="48.75047" lon="7.29721">
        <ele>388.8</ele>
        <time>2020-05-10T13:19:37Z</time>
      </trkpt>
      <trkpt lat="48.75049" lon="7.29725">
        <ele>389.3</ele>
        <time>2020-05-10T13:19:39Z</time>
      </trkpt>
      <trkpt lat="48.7505" lon="7.29729">
        <ele>389.7</ele>
        <time>2020-05-10T13:19:40Z</time>
      </trkpt>
      <trkpt lat="48.7505" lon="7.29733">
        <ele>390</ele>
        <time>2020-05-10T13:19:41Z</time>
      </trkpt>
      <trkpt lat="48.7505" lon="7.29737">
        <ele>390.4</ele>
        <time>2020-05-10T13:19:43Z</time>
      </trkpt>
      <trkpt lat="48.7505" lon="7.29739">
        <ele>390.6</ele>
        <time>2020-05-10T13:19:44Z</time>
      </trkpt>
      <trkpt lat="48.75051" lon="7.29744">
        <ele>391</ele>
        <time>2020-05-10T13:19:46Z</time>
      </trkpt>
      <trkpt lat="48.75051" lon="7.2975">
        <ele>391.4</ele>
        <time>2020-05-10T13:19:48Z</time>
      </trkpt>
      <trkpt lat="48.75052" lon="7.29753">
        <ele>391.7</ele>
        <time>2020-05-10T13:19:49Z</time>
      </trkpt>
      <trkpt lat="48.75052" lon="7.29758">
        <ele>392.1</ele>
        <time>2020-05-10T13:19:51Z</time>
      </trkpt>
      <trkpt lat="48.75053" lon="7.29763">
        <ele>392.4</ele>
        <time>2020-05-10T13:19:52Z</time>
      </trkpt>
      <trkpt lat="48.75054" lon="7.29765">
        <ele>392.5</ele>
        <time>2020-05-10T13:19:53Z</time>
      </trkpt>
      <trkpt lat="48.75055" lon="7.2977">
        <ele>392.9</ele>
        <time>2020-05-10T13:19:55Z</time>
      </trkpt>
      <trkpt lat="48.75056" lon="7.29777">
        <ele>393.3</ele>
        <time>2020-05-10T13:19:57Z</time>
      </trkpt>
      <trkpt lat="48.75057" lon="7.29782">
        <ele>393.6</ele>
        <time>2020-05-10T13:19:58Z</time>
      </trkpt>
      <trkpt lat="48.75057" lon="7.29783">
        <ele>393.7</ele>
        <time>2020-05-10T13:19:59Z</time>
      </trkpt>
      <trkpt lat="48.75058" lon="7.2979">
        <ele>394.1</ele>
        <time>2020-05-10T13:20:01Z</time>
      </trkpt>
      <trkpt lat="48.75058" lon="7.29793">
        <ele>394.3</ele>
        <time>2020-05-10T13:20:02Z</time>
      </trkpt>
      <trkpt lat="48.75059" lon="7.29796">
        <ele>394.5</ele>
        <time>2020-05-10T13:20:04Z</time>
      </trkpt>
      <trkpt lat="48.75059" lon="7.29798">
        <ele>394.6</ele>
        <time>2020-05-10T13:20:05Z</time>
      </trkpt>
      <trkpt lat="48.7506" lon="7.29804">
        <ele>395</ele>
        <time>2020-05-10T13:20:07Z</time>
      </trkpt>
      <trkpt lat="48.75061" lon="7.29809">
        <ele>395.4</ele>
        <time>2020-05-10T13:20:09Z</time>
      </trkpt>
      <trkpt lat="48.75062" lon="7.29812">
        <ele>395.7</ele>
        <time>2020-05-10T13:20:10Z</time>
      </trkpt>
      <trkpt lat="48.75062" lon="7.29816">
        <ele>396</ele>
        <time>2020-05-10T13:20:12Z</time>
      </trkpt>
      <trkpt lat="48.75063" lon="7.29821">
        <ele>396.4</ele>
        <time>2020-05-10T13:20:13Z</time>
      </trkpt>
      <trkpt lat="48.75064" lon="7.29822">
        <ele>396.5</ele>
        <time>2020-05-10T13:20:14Z</time>
      </trkpt>
      <trkpt lat="48.75064" lon="7.29828">
        <ele>397</ele>
        <time>2020-05-10T13:20:16Z</time>
      </trkpt>
      <trkpt lat="48.75063" lon="7.29831">
        <ele>397.3</ele>
        <time>2020-05-10T13:20:17Z</time>
      </trkpt>
      <trkpt lat="48.75064" lon="7.29837">
        <ele>397.7</ele>
        <time>2020-05-10T13:20:19Z</time>
      </trkpt>
      <trkpt lat="48.75065" lon="7.29843">
        <ele>398.3</ele>
        <time>2020-05-10T13:20:21Z</time>
      </trkpt>
      <trkpt lat="48.75065" lon="7.29844">
        <ele>398.4</ele>
        <time>2020-05-10T13:20:22Z</time>
      </trkpt>
      <trkpt lat="48.75067" lon="7.29849">
        <ele>398.8</ele>
        <time>2020-05-10T13:20:24Z</time>
      </trkpt>
      <trkpt lat="48.75067" lon="7.29852">
        <ele>399.1</ele>
        <time>2020-05-10T13:20:25Z</time>
      </trkpt>
      <trkpt lat="48.75068" lon="7.29856">
        <ele>399.5</ele>
        <time>2020-05-10T13:20:27Z</time>
      </trkpt>
      <trkpt lat="48.75068" lon="7.29858">
        <ele>399.6</ele>
        <time>2020-05-10T13:20:28Z</time>
      </trkpt>
      <trkpt lat="48.75069" lon="7.29862">
        <ele>399.9</ele>
        <time>2020-05-10T13:20:30Z</time>
      </trkpt>
      <trkpt lat="48.75069" lon="7.29865">
        <ele>400.1</ele>
        <time>2020-05-10T13:20:31Z</time>
      </trkpt>
      <trkpt lat="48.75069" lon="7.29869">
        <ele>400.4</ele>
        <time>2020-05-10T13:20:33Z</time>
      </trkpt>
      <trkpt lat="48.75071" lon="7.29874">
        <ele>400.7</ele>
        <time>2020-05-10T13:20:35Z</time>
      </trkpt>
      <trkpt lat="48.75072" lon="7.29877">
        <ele>400.8</ele>
        <time>2020-05-10T13:20:36Z</time>
      </trkpt>
      <trkpt lat="48.75073" lon="7.29882">
        <ele>401.1</ele>
        <time>2020-05-10T13:20:38Z</time>
      </trkpt>
      <trkpt lat="48.75073" lon="7.29884">
        <ele>401.2</ele>
        <time>2020-05-10T13:20:39Z</time>
      </trkpt>
      <trkpt lat="48.75073" lon="7.29886">
        <ele>401.2</ele>
        <time>2020-05-10T13:20:40Z</time>
      </trkpt>
      <trkpt lat="48.75073" lon="7.29889">
        <ele>401.4</ele>
        <time>2020-05-10T13:20:42Z</time>
      </trkpt>
      <trkpt lat="48.75072" lon="7.29893">
        <ele>401.6</ele>
        <time>2020-05-10T13:20:44Z</time>
      </trkpt>
      <trkpt lat="48.75073" lon="7.29899">
        <ele>401.9</ele>
        <time>2020-05-10T13:20:46Z</time>
      </trkpt>
      <trkpt lat="48.75073" lon="7.29905">
        <ele>402.1</ele>
        <time>2020-05-10T13:20:48Z</time>
      </trkpt>
      <trkpt lat="48.75073" lon="7.2991">
        <ele>402.3</ele>
        <time>2020-05-10T13:20:49Z</time>
      </trkpt>
      <trkpt lat="48.75074" lon="7.29911">
        <ele>402.4</ele>
        <time>2020-05-10T13:20:50Z</time>
      </trkpt>
      <trkpt lat="48.75074" lon="7.29919">
        <ele>402.7</ele>
        <time>2020-05-10T13:20:52Z</time>
      </trkpt>
      <trkpt lat="48.75075" lon="7.29925">
        <ele>403</ele>
        <time>2020-05-10T13:20:54Z</time>
      </trkpt>
      <trkpt lat="48.75075" lon="7.29928">
        <ele>403.2</ele>
        <time>2020-05-10T13:20:55Z</time>
      </trkpt>
      <trkpt lat="48.75074" lon="7.29935">
        <ele>403.5</ele>
        <time>2020-05-10T13:20:57Z</time>
      </trkpt>
      <trkpt lat="48.75073" lon="7.2994">
        <ele>403.8</ele>
        <time>2020-05-10T13:20:58Z</time>
      </trkpt>
      <trkpt lat="48.75073" lon="7.29942">
        <ele>403.9</ele>
        <time>2020-05-10T13:20:59Z</time>
      </trkpt>
      <trkpt lat="48.75074" lon="7.29947">
        <ele>404.3</ele>
        <time>2020-05-10T13:21:01Z</time>
      </trkpt>
      <trkpt lat="48.75074" lon="7.2995">
        <ele>404.4</ele>
        <time>2020-05-10T13:21:02Z</time>
      </trkpt>
      <trkpt lat="48.75074" lon="7.29952">
        <ele>404.6</ele>
        <time>2020-05-10T13:21:03Z</time>
      </trkpt>
      <trkpt lat="48.75073" lon="7.29954">
        <ele>404.7</ele>
        <time>2020-05-10T13:21:04Z</time>
      </trkpt>
      <trkpt lat="48.75072" lon="7.29959">
        <ele>405.1</ele>
        <time>2020-05-10T13:21:06Z</time>
      </trkpt>
      <trkpt lat="48.75071" lon="7.29963">
        <ele>405.4</ele>
        <time>2020-05-10T13:21:07Z</time>
      </trkpt>
      <trkpt lat="48.75071" lon="7.29965">
        <ele>405.5</ele>
        <time>2020-05-10T13:21:08Z</time>
      </trkpt>
      <trkpt lat="48.75071" lon="7.29967">
        <ele>405.7</ele>
        <time>2020-05-10T13:21:09Z</time>
      </trkpt>
      <trkpt lat="48.75071" lon="7.29972">
        <ele>406</ele>
        <time>2020-05-10T13:21:11Z</time>
      </trkpt>
      <trkpt lat="48.75071" lon="7.29978">
        <ele>406.4</ele>
        <time>2020-05-10T13:21:13Z</time>
      </trkpt>
      <trkpt lat="48.75071" lon="7.29981">
        <ele>406.5</ele>
        <time>2020-05-10T13:21:14Z</time>
      </trkpt>
      <trkpt lat="48.75071" lon="7.29988">
        <ele>406.9</ele>
        <time>2020-05-10T13:21:16Z</time>
      </trkpt>
      <trkpt lat="48.75072" lon="7.2999">
        <ele>407.1</ele>
        <time>2020-05-10T13:21:17Z</time>
      </trkpt>
      <trkpt lat="48.75071" lon="7.29997">
        <ele>407.4</ele>
        <time>2020-05-10T13:21:19Z</time>
      </trkpt>
      <trkpt lat="48.75071" lon="7.3">
        <ele>407.5</ele>
        <time>2020-05-10T13:21:20Z</time>
      </trkpt>
      <trkpt lat="48.75071" lon="7.30006">
        <ele>407.9</ele>
        <time>2020-05-10T13:21:22Z</time>
      </trkpt>
      <trkpt lat="48.75072" lon="7.30012">
        <ele>408.2</ele>
        <time>2020-05-10T13:21:24Z</time>
      </trkpt>
      <trkpt lat="48.75072" lon="7.30014">
        <ele>408.4</ele>
        <time>2020-05-10T13:21:25Z</time>
      </trkpt>
      <trkpt lat="48.75072" lon="7.3002">
        <ele>408.8</ele>
        <time>2020-05-10T13:21:27Z</time>
      </trkpt>
      <trkpt lat="48.75072" lon="7.30022">
        <ele>408.9</ele>
        <time>2020-05-10T13:21:28Z</time>
      </trkpt>
      <trkpt lat="48.75071" lon="7.30025">
        <ele>409</ele>
        <time>2020-05-10T13:21:29Z</time>
      </trkpt>
      <trkpt lat="48.75071" lon="7.30027">
        <ele>409.1</ele>
        <time>2020-05-10T13:21:30Z</time>
      </trkpt>
      <trkpt lat="48.7507" lon="7.30034">
        <ele>409.5</ele>
        <time>2020-05-10T13:21:32Z</time>
      </trkpt>
      <trkpt lat="48.7507" lon="7.3004">
        <ele>409.7</ele>
        <time>2020-05-10T13:21:34Z</time>
      </trkpt>
      <trkpt lat="48.75069" lon="7.30042">
        <ele>409.8</ele>
        <time>2020-05-10T13:21:35Z</time>
      </trkpt>
      <trkpt lat="48.75068" lon="7.30048">
        <ele>410</ele>
        <time>2020-05-10T13:21:37Z</time>
      </trkpt>
      <trkpt lat="48.75067" lon="7.30053">
        <ele>410.1</ele>
        <time>2020-05-10T13:21:39Z</time>
      </trkpt>
      <trkpt lat="48.75067" lon="7.30055">
        <ele>410.2</ele>
        <time>2020-05-10T13:21:40Z</time>
      </trkpt>
      <trkpt lat="48.75067" lon="7.3006">
        <ele>410.3</ele>
        <time>2020-05-10T13:21:42Z</time>
      </trkpt>
      <trkpt lat="48.75066" lon="7.30065">
        <ele>410.5</ele>
        <time>2020-05-10T13:21:43Z</time>
      </trkpt>
      <trkpt lat="48.75065" lon="7.30069">
        <ele>410.7</ele>
        <time>2020-05-10T13:21:44Z</time>
      </trkpt>
      <trkpt lat="48.75065" lon="7.30071">
        <ele>410.9</ele>
        <time>2020-05-10T13:21:45Z</time>
      </trkpt>
      <trkpt lat="48.75064" lon="7.30078">
        <ele>411.3</ele>
        <time>2020-05-10T13:21:47Z</time>
      </trkpt>
      <trkpt lat="48.75064" lon="7.3008">
        <ele>411.5</ele>
        <time>2020-05-10T13:21:48Z</time>
      </trkpt>
      <trkpt lat="48.75064" lon="7.30082">
        <ele>411.7</ele>
        <time>2020-05-10T13:21:49Z</time>
      </trkpt>
      <trkpt lat="48.75064" lon="7.30087">
        <ele>412</ele>
        <time>2020-05-10T13:21:50Z</time>
      </trkpt>
      <trkpt lat="48.75064" lon="7.30091">
        <ele>412.3</ele>
        <time>2020-05-10T13:21:52Z</time>
      </trkpt>
      <trkpt lat="48.75062" lon="7.30097">
        <ele>412.8</ele>
        <time>2020-05-10T13:21:54Z</time>
      </trkpt>
      <trkpt lat="48.75061" lon="7.30102">
        <ele>413.2</ele>
        <time>2020-05-10T13:21:55Z</time>
      </trkpt>
      <trkpt lat="48.75061" lon="7.30103">
        <ele>413.3</ele>
        <time>2020-05-10T13:21:56Z</time>
      </trkpt>
      <trkpt lat="48.7506" lon="7.30109">
        <ele>413.7</ele>
        <time>2020-05-10T13:21:58Z</time>
      </trkpt>
      <trkpt lat="48.7506" lon="7.30113">
        <ele>414</ele>
        <time>2020-05-10T13:22:00Z</time>
      </trkpt>
      <trkpt lat="48.7506" lon="7.3012">
        <ele>414.5</ele>
        <time>2020-05-10T13:22:02Z</time>
      </trkpt>
      <trkpt lat="48.7506" lon="7.30125">
        <ele>414.8</ele>
        <time>2020-05-10T13:22:04Z</time>
      </trkpt>
      <trkpt lat="48.7506" lon="7.30131">
        <ele>415.1</ele>
        <time>2020-05-10T13:22:06Z</time>
      </trkpt>
      <trkpt lat="48.75061" lon="7.30137">
        <ele>415.3</ele>
        <time>2020-05-10T13:22:08Z</time>
      </trkpt>
      <trkpt lat="48.75061" lon="7.30139">
        <ele>415.4</ele>
        <time>2020-05-10T13:22:09Z</time>
      </trkpt>
      <trkpt lat="48.75061" lon="7.30141">
        <ele>415.5</ele>
        <time>2020-05-10T13:22:10Z</time>
      </trkpt>
      <trkpt lat="48.75062" lon="7.3015">
        <ele>415.7</ele>
        <time>2020-05-10T13:22:12Z</time>
      </trkpt>
      <trkpt lat="48.75061" lon="7.30155">
        <ele>415.8</ele>
        <time>2020-05-10T13:22:14Z</time>
      </trkpt>
      <trkpt lat="48.7506" lon="7.30157">
        <ele>415.8</ele>
        <time>2020-05-10T13:22:15Z</time>
      </trkpt>
      <trkpt lat="48.75058" lon="7.30162">
        <ele>416</ele>
        <time>2020-05-10T13:22:17Z</time>
      </trkpt>
      <trkpt lat="48.75058" lon="7.30169">
        <ele>416.2</ele>
        <time>2020-05-10T13:22:19Z</time>
      </trkpt>
      <trkpt lat="48.75058" lon="7.30171">
        <ele>416.3</ele>
        <time>2020-05-10T13:22:20Z</time>
      </trkpt>
      <trkpt lat="48.75058" lon="7.30173">
        <ele>416.3</ele>
        <time>2020-05-10T13:22:21Z</time>
      </trkpt>
      <trkpt lat="48.75058" lon="7.30178">
        <ele>416.5</ele>
        <time>2020-05-10T13:22:22Z</time>
      </trkpt>
      <trkpt lat="48.75058" lon="7.30183">
        <ele>416.6</ele>
        <time>2020-05-10T13:22:24Z</time>
      </trkpt>
      <trkpt lat="48.75057" lon="7.30185">
        <ele>416.7</ele>
        <time>2020-05-10T13:22:25Z</time>
      </trkpt>
      <trkpt lat="48.75056" lon="7.30187">
        <ele>416.8</ele>
        <time>2020-05-10T13:22:26Z</time>
      </trkpt>
      <trkpt lat="48.75056" lon="7.30191">
        <ele>416.9</ele>
        <time>2020-05-10T13:22:28Z</time>
      </trkpt>
      <trkpt lat="48.75056" lon="7.30195">
        <ele>417</ele>
        <time>2020-05-10T13:22:29Z</time>
      </trkpt>
      <trkpt lat="48.75056" lon="7.30202">
        <ele>417.3</ele>
        <time>2020-05-10T13:22:31Z</time>
      </trkpt>
      <trkpt lat="48.75057" lon="7.3021">
        <ele>417.6</ele>
        <time>2020-05-10T13:22:33Z</time>
      </trkpt>
      <trkpt lat="48.75058" lon="7.30215">
        <ele>417.8</ele>
        <time>2020-05-10T13:22:35Z</time>
      </trkpt>
      <trkpt lat="48.75058" lon="7.30217">
        <ele>417.8</ele>
        <time>2020-05-10T13:22:36Z</time>
      </trkpt>
      <trkpt lat="48.75058" lon="7.30225">
        <ele>418</ele>
        <time>2020-05-10T13:22:38Z</time>
      </trkpt>
      <trkpt lat="48.75057" lon="7.30233">
        <ele>418.1</ele>
        <time>2020-05-10T13:22:40Z</time>
      </trkpt>
      <trkpt lat="48.75057" lon="7.3024">
        <ele>418.2</ele>
        <time>2020-05-10T13:22:42Z</time>
      </trkpt>
      <trkpt lat="48.75057" lon="7.30245">
        <ele>418.3</ele>
        <time>2020-05-10T13:22:43Z</time>
      </trkpt>
      <trkpt lat="48.75057" lon="7.30247">
        <ele>418.3</ele>
        <time>2020-05-10T13:22:44Z</time>
      </trkpt>
      <trkpt lat="48.75055" lon="7.30255">
        <ele>418.5</ele>
        <time>2020-05-10T13:22:46Z</time>
      </trkpt>
      <trkpt lat="48.75055" lon="7.3026">
        <ele>418.7</ele>
        <time>2020-05-10T13:22:47Z</time>
      </trkpt>
      <trkpt lat="48.75054" lon="7.30264">
        <ele>418.9</ele>
        <time>2020-05-10T13:22:48Z</time>
      </trkpt>
      <trkpt lat="48.75053" lon="7.30269">
        <ele>419</ele>
        <time>2020-05-10T13:22:50Z</time>
      </trkpt>
      <trkpt lat="48.75051" lon="7.30276">
        <ele>419.3</ele>
        <time>2020-05-10T13:22:52Z</time>
      </trkpt>
      <trkpt lat="48.7505" lon="7.30284">
        <ele>419.6</ele>
        <time>2020-05-10T13:22:54Z</time>
      </trkpt>
      <trkpt lat="48.75048" lon="7.3029">
        <ele>419.8</ele>
        <time>2020-05-10T13:22:56Z</time>
      </trkpt>
      <trkpt lat="48.75047" lon="7.30299">
        <ele>420.2</ele>
        <time>2020-05-10T13:22:58Z</time>
      </trkpt>
      <trkpt lat="48.75047" lon="7.30307">
        <ele>420.5</ele>
        <time>2020-05-10T13:23:00Z</time>
      </trkpt>
      <trkpt lat="48.75047" lon="7.30313">
        <ele>420.7</ele>
        <time>2020-05-10T13:23:01Z</time>
      </trkpt>
      <trkpt lat="48.75045" lon="7.30322">
        <ele>421.1</ele>
        <time>2020-05-10T13:23:03Z</time>
      </trkpt>
      <trkpt lat="48.75045" lon="7.30331">
        <ele>421.4</ele>
        <time>2020-05-10T13:23:05Z</time>
      </trkpt>
      <trkpt lat="48.75045" lon="7.30337">
        <ele>421.6</ele>
        <time>2020-05-10T13:23:06Z</time>
      </trkpt>
      <trkpt lat="48.75045" lon="7.30338">
        <ele>421.6</ele>
        <time>2020-05-10T13:23:07Z</time>
      </trkpt>
      <trkpt lat="48.75045" lon="7.30346">
        <ele>421.9</ele>
        <time>2020-05-10T13:23:09Z</time>
      </trkpt>
      <trkpt lat="48.75044" lon="7.3035">
        <ele>422.1</ele>
        <time>2020-05-10T13:23:10Z</time>
      </trkpt>
      <trkpt lat="48.75043" lon="7.30359">
        <ele>422.5</ele>
        <time>2020-05-10T13:23:12Z</time>
      </trkpt>
      <trkpt lat="48.75043" lon="7.30362">
        <ele>422.6</ele>
        <time>2020-05-10T13:23:13Z</time>
      </trkpt>
      <trkpt lat="48.75043" lon="7.30369">
        <ele>422.9</ele>
        <time>2020-05-10T13:23:15Z</time>
      </trkpt>
      <trkpt lat="48.75042" lon="7.30373">
        <ele>423.1</ele>
        <time>2020-05-10T13:23:16Z</time>
      </trkpt>
      <trkpt lat="48.75042" lon="7.30381">
        <ele>423.5</ele>
        <time>2020-05-10T13:23:18Z</time>
      </trkpt>
      <trkpt lat="48.75042" lon="7.30386">
        <ele>423.7</ele>
        <time>2020-05-10T13:23:19Z</time>
      </trkpt>
      <trkpt lat="48.75041" lon="7.30389">
        <ele>423.8</ele>
        <time>2020-05-10T13:23:20Z</time>
      </trkpt>
      <trkpt lat="48.75039" lon="7.30394">
        <ele>424</ele>
        <time>2020-05-10T13:23:21Z</time>
      </trkpt>
      <trkpt lat="48.75039" lon="7.30396">
        <ele>424.1</ele>
        <time>2020-05-10T13:23:22Z</time>
      </trkpt>
      <trkpt lat="48.75037" lon="7.30403">
        <ele>424.4</ele>
        <time>2020-05-10T13:23:24Z</time>
      </trkpt>
      <trkpt lat="48.75037" lon="7.30409">
        <ele>424.6</ele>
        <time>2020-05-10T13:23:26Z</time>
      </trkpt>
      <trkpt lat="48.75037" lon="7.30412">
        <ele>424.8</ele>
        <time>2020-05-10T13:23:27Z</time>
      </trkpt>
      <trkpt lat="48.75037" lon="7.30418">
        <ele>425</ele>
        <time>2020-05-10T13:23:29Z</time>
      </trkpt>
      <trkpt lat="48.75037" lon="7.30422">
        <ele>425.2</ele>
        <time>2020-05-10T13:23:30Z</time>
      </trkpt>
      <trkpt lat="48.75037" lon="7.30429">
        <ele>425.4</ele>
        <time>2020-05-10T13:23:32Z</time>
      </trkpt>
      <trkpt lat="48.75036" lon="7.30434">
        <ele>425.5</ele>
        <time>2020-05-10T13:23:33Z</time>
      </trkpt>
      <trkpt lat="48.75035" lon="7.30437">
        <ele>425.6</ele>
        <time>2020-05-10T13:23:34Z</time>
      </trkpt>
      <trkpt lat="48.75033" lon="7.30444">
        <ele>425.8</ele>
        <time>2020-05-10T13:23:36Z</time>
      </trkpt>
      <trkpt lat="48.75032" lon="7.30449">
        <ele>426</ele>
        <time>2020-05-10T13:23:37Z</time>
      </trkpt>
      <trkpt lat="48.75032" lon="7.30451">
        <ele>426.1</ele>
        <time>2020-05-10T13:23:38Z</time>
      </trkpt>
      <trkpt lat="48.75031" lon="7.30455">
        <ele>426.2</ele>
        <time>2020-05-10T13:23:39Z</time>
      </trkpt>
      <trkpt lat="48.75029" lon="7.30464">
        <ele>426.5</ele>
        <time>2020-05-10T13:23:41Z</time>
      </trkpt>
      <trkpt lat="48.75029" lon="7.30469">
        <ele>426.7</ele>
        <time>2020-05-10T13:23:42Z</time>
      </trkpt>
      <trkpt lat="48.75029" lon="7.30473">
        <ele>426.8</ele>
        <time>2020-05-10T13:23:43Z</time>
      </trkpt>
      <trkpt lat="48.75029" lon="7.30483">
        <ele>427</ele>
        <time>2020-05-10T13:23:45Z</time>
      </trkpt>
      <trkpt lat="48.75029" lon="7.30488">
        <ele>427.1</ele>
        <time>2020-05-10T13:23:46Z</time>
      </trkpt>
      <trkpt lat="48.75029" lon="7.30492">
        <ele>427.1</ele>
        <time>2020-05-10T13:23:47Z</time>
      </trkpt>
      <trkpt lat="48.75027" lon="7.305">
        <ele>427.2</ele>
        <time>2020-05-10T13:23:49Z</time>
      </trkpt>
      <trkpt lat="48.75024" lon="7.30508">
        <ele>427.3</ele>
        <time>2020-05-10T13:23:51Z</time>
      </trkpt>
      <trkpt lat="48.75023" lon="7.30515">
        <ele>427.3</ele>
        <time>2020-05-10T13:23:52Z</time>
      </trkpt>
      <trkpt lat="48.75024" lon="7.30521">
        <ele>427.4</ele>
        <time>2020-05-10T13:23:54Z</time>
      </trkpt>
      <trkpt lat="48.75025" lon="7.30529">
        <ele>427.4</ele>
        <time>2020-05-10T13:23:56Z</time>
      </trkpt>
      <trkpt lat="48.75025" lon="7.30535">
        <ele>427.5</ele>
        <time>2020-05-10T13:23:57Z</time>
      </trkpt>
      <trkpt lat="48.75025" lon="7.3055">
        <ele>427.6</ele>
        <time>2020-05-10T13:23:59Z</time>
      </trkpt>
      <trkpt lat="48.75024" lon="7.30564">
        <ele>427.6</ele>
        <time>2020-05-10T13:24:01Z</time>
      </trkpt>
      <trkpt lat="48.75024" lon="7.30571">
        <ele>427.7</ele>
        <time>2020-05-10T13:24:02Z</time>
      </trkpt>
      <trkpt lat="48.75024" lon="7.30585">
        <ele>427.8</ele>
        <time>2020-05-10T13:24:04Z</time>
      </trkpt>
      <trkpt lat="48.75024" lon="7.3059">
        <ele>427.8</ele>
        <time>2020-05-10T13:24:05Z</time>
      </trkpt>
      <trkpt lat="48.75023" lon="7.30597">
        <ele>427.8</ele>
        <time>2020-05-10T13:24:06Z</time>
      </trkpt>
      <trkpt lat="48.75021" lon="7.30608">
        <ele>427.8</ele>
        <time>2020-05-10T13:24:08Z</time>
      </trkpt>
      <trkpt lat="48.75017" lon="7.30613">
        <ele>427.8</ele>
        <time>2020-05-10T13:24:09Z</time>
      </trkpt>
      <trkpt lat="48.75006" lon="7.30613">
        <ele>426.5</ele>
        <time>2020-05-10T13:24:11Z</time>
      </trkpt>
      <trkpt lat="48.75001" lon="7.30613">
        <ele>426.1</ele>
        <time>2020-05-10T13:24:12Z</time>
      </trkpt>
      <trkpt lat="48.74996" lon="7.30612">
        <ele>425.7</ele>
        <time>2020-05-10T13:24:13Z</time>
      </trkpt>
      <trkpt lat="48.74991" lon="7.30613">
        <ele>425.3</ele>
        <time>2020-05-10T13:24:14Z</time>
      </trkpt>
      <trkpt lat="48.74983" lon="7.3061">
        <ele>424.8</ele>
        <time>2020-05-10T13:24:16Z</time>
      </trkpt>
      <trkpt lat="48.74977" lon="7.30606">
        <ele>424.3</ele>
        <time>2020-05-10T13:24:18Z</time>
      </trkpt>
      <trkpt lat="48.74971" lon="7.30604">
        <ele>423.8</ele>
        <time>2020-05-10T13:24:20Z</time>
      </trkpt>
      <trkpt lat="48.74966" lon="7.30604">
        <ele>423.4</ele>
        <time>2020-05-10T13:24:21Z</time>
      </trkpt>
      <trkpt lat="48.74955" lon="7.30601">
        <ele>422.6</ele>
        <time>2020-05-10T13:24:23Z</time>
      </trkpt>
      <trkpt lat="48.74949" lon="7.306">
        <ele>422.2</ele>
        <time>2020-05-10T13:24:24Z</time>
      </trkpt>
      <trkpt lat="48.74943" lon="7.30599">
        <ele>421.9</ele>
        <time>2020-05-10T13:24:25Z</time>
      </trkpt>
      <trkpt lat="48.74938" lon="7.30597">
        <ele>421.6</ele>
        <time>2020-05-10T13:24:26Z</time>
      </trkpt>
      <trkpt lat="48.74933" lon="7.30596">
        <ele>421.4</ele>
        <time>2020-05-10T13:24:27Z</time>
      </trkpt>
      <trkpt lat="48.7492" lon="7.30596">
        <ele>420.9</ele>
        <time>2020-05-10T13:24:29Z</time>
      </trkpt>
      <trkpt lat="48.74914" lon="7.30594">
        <ele>420.8</ele>
        <time>2020-05-10T13:24:30Z</time>
      </trkpt>
      <trkpt lat="48.74908" lon="7.30594">
        <ele>420.7</ele>
        <time>2020-05-10T13:24:31Z</time>
      </trkpt>
      <trkpt lat="48.74894" lon="7.30592">
        <ele>420.5</ele>
        <time>2020-05-10T13:24:33Z</time>
      </trkpt>
      <trkpt lat="48.74891" lon="7.3059">
        <ele>420.4</ele>
        <time>2020-05-10T13:24:34Z</time>
      </trkpt>
      <trkpt lat="48.74885" lon="7.30594">
        <ele>420.4</ele>
        <time>2020-05-10T13:24:36Z</time>
      </trkpt>
      <trkpt lat="48.74878" lon="7.30591">
        <ele>420.3</ele>
        <time>2020-05-10T13:24:38Z</time>
      </trkpt>
      <trkpt lat="48.74867" lon="7.30586">
        <ele>420.1</ele>
        <time>2020-05-10T13:24:40Z</time>
      </trkpt>
      <trkpt lat="48.74855" lon="7.30584">
        <ele>420</ele>
        <time>2020-05-10T13:24:42Z</time>
      </trkpt>
      <trkpt lat="48.74849" lon="7.30584">
        <ele>419.9</ele>
        <time>2020-05-10T13:24:43Z</time>
      </trkpt>
      <trkpt lat="48.74839" lon="7.30583">
        <ele>419.9</ele>
        <time>2020-05-10T13:24:45Z</time>
      </trkpt>
      <trkpt lat="48.74833" lon="7.30581">
        <ele>419.9</ele>
        <time>2020-05-10T13:24:46Z</time>
      </trkpt>
      <trkpt lat="48.74827" lon="7.3058">
        <ele>419.9</ele>
        <time>2020-05-10T13:24:47Z</time>
      </trkpt>
      <trkpt lat="48.74817" lon="7.30577">
        <ele>419.8</ele>
        <time>2020-05-10T13:24:49Z</time>
      </trkpt>
      <trkpt lat="48.74808" lon="7.30576">
        <ele>419.7</ele>
        <time>2020-05-10T13:24:51Z</time>
      </trkpt>
      <trkpt lat="48.74798" lon="7.30576">
        <ele>419.5</ele>
        <time>2020-05-10T13:24:53Z</time>
      </trkpt>
      <trkpt lat="48.74793" lon="7.30575">
        <ele>419.4</ele>
        <time>2020-05-10T13:24:54Z</time>
      </trkpt>
      <trkpt lat="48.74782" lon="7.30571">
        <ele>419.8</ele>
        <time>2020-05-10T13:24:56Z</time>
      </trkpt>
      <trkpt lat="48.74777" lon="7.3057">
        <ele>420</ele>
        <time>2020-05-10T13:24:57Z</time>
      </trkpt>
      <trkpt lat="48.74772" lon="7.3057">
        <ele>420.2</ele>
        <time>2020-05-10T13:24:58Z</time>
      </trkpt>
      <trkpt lat="48.7476" lon="7.30568">
        <ele>420.8</ele>
        <time>2020-05-10T13:25:00Z</time>
      </trkpt>
      <trkpt lat="48.74753" lon="7.30568">
        <ele>421.1</ele>
        <time>2020-05-10T13:25:01Z</time>
      </trkpt>
      <trkpt lat="48.74741" lon="7.30568">
        <ele>421.7</ele>
        <time>2020-05-10T13:25:03Z</time>
      </trkpt>
      <trkpt lat="48.74733" lon="7.30567">
        <ele>422</ele>
        <time>2020-05-10T13:25:05Z</time>
      </trkpt>
      <trkpt lat="48.74725" lon="7.30561">
        <ele>422.3</ele>
        <time>2020-05-10T13:25:07Z</time>
      </trkpt>
      <trkpt lat="48.74721" lon="7.30559">
        <ele>422.4</ele>
        <time>2020-05-10T13:25:08Z</time>
      </trkpt>
      <trkpt lat="48.74713" lon="7.30556">
        <ele>422.7</ele>
        <time>2020-05-10T13:25:10Z</time>
      </trkpt>
      <trkpt lat="48.74708" lon="7.30554">
        <ele>422.8</ele>
        <time>2020-05-10T13:25:11Z</time>
      </trkpt>
      <trkpt lat="48.74697" lon="7.30548">
        <ele>423</ele>
        <time>2020-05-10T13:25:13Z</time>
      </trkpt>
      <trkpt lat="48.74691" lon="7.30544">
        <ele>423.2</ele>
        <time>2020-05-10T13:25:14Z</time>
      </trkpt>
      <trkpt lat="48.7468" lon="7.30537">
        <ele>423.4</ele>
        <time>2020-05-10T13:25:16Z</time>
      </trkpt>
      <trkpt lat="48.74667" lon="7.30528">
        <ele>423.7</ele>
        <time>2020-05-10T13:25:18Z</time>
      </trkpt>
      <trkpt lat="48.74654" lon="7.3052">
        <ele>423.9</ele>
        <time>2020-05-10T13:25:20Z</time>
      </trkpt>
      <trkpt lat="48.74643" lon="7.3051">
        <ele>424.1</ele>
        <time>2020-05-10T13:25:22Z</time>
      </trkpt>
      <trkpt lat="48.74631" lon="7.30498">
        <ele>424.2</ele>
        <time>2020-05-10T13:25:24Z</time>
      </trkpt>
      <trkpt lat="48.74619" lon="7.30488">
        <ele>424.7</ele>
        <time>2020-05-10T13:25:26Z</time>
      </trkpt>
      <trkpt lat="48.74614" lon="7.30482">
        <ele>424.9</ele>
        <time>2020-05-10T13:25:27Z</time>
      </trkpt>
      <trkpt lat="48.74602" lon="7.30473">
        <ele>425.4</ele>
        <time>2020-05-10T13:25:29Z</time>
      </trkpt>
      <trkpt lat="48.74595" lon="7.30469">
        <ele>425.6</ele>
        <time>2020-05-10T13:25:30Z</time>
      </trkpt>
      <trkpt lat="48.74582" lon="7.30461">
        <ele>426.1</ele>
        <time>2020-05-10T13:25:32Z</time>
      </trkpt>
      <trkpt lat="48.7457" lon="7.30454">
        <ele>426.6</ele>
        <time>2020-05-10T13:25:34Z</time>
      </trkpt>
      <trkpt lat="48.74563" lon="7.30447">
        <ele>426.8</ele>
        <time>2020-05-10T13:25:35Z</time>
      </trkpt>
      <trkpt lat="48.74554" lon="7.30439">
        <ele>427.3</ele>
        <time>2020-05-10T13:25:37Z</time>
      </trkpt>
      <trkpt lat="48.74547" lon="7.30435">
        <ele>427.6</ele>
        <time>2020-05-10T13:25:38Z</time>
      </trkpt>
      <trkpt lat="48.74541" lon="7.30431">
        <ele>427.8</ele>
        <time>2020-05-10T13:25:39Z</time>
      </trkpt>
      <trkpt lat="48.74527" lon="7.30424">
        <ele>428.5</ele>
        <time>2020-05-10T13:25:41Z</time>
      </trkpt>
      <trkpt lat="48.74512" lon="7.3042">
        <ele>429.2</ele>
        <time>2020-05-10T13:25:43Z</time>
      </trkpt>
      <trkpt lat="48.74506" lon="7.30417">
        <ele>429.5</ele>
        <time>2020-05-10T13:25:44Z</time>
      </trkpt>
      <trkpt lat="48.74493" lon="7.30411">
        <ele>430.1</ele>
        <time>2020-05-10T13:25:46Z</time>
      </trkpt>
      <trkpt lat="48.74478" lon="7.30409">
        <ele>430.9</ele>
        <time>2020-05-10T13:25:48Z</time>
      </trkpt>
      <trkpt lat="48.74469" lon="7.30409">
        <ele>431.5</ele>
        <time>2020-05-10T13:25:49Z</time>
      </trkpt>
      <trkpt lat="48.74456" lon="7.30415">
        <ele>432.4</ele>
        <time>2020-05-10T13:25:51Z</time>
      </trkpt>
      <trkpt lat="48.74449" lon="7.30418">
        <ele>432.8</ele>
        <time>2020-05-10T13:25:52Z</time>
      </trkpt>
      <trkpt lat="48.74439" lon="7.30423">
        <ele>432.7</ele>
        <time>2020-05-10T13:25:53Z</time>
      </trkpt>
      <trkpt lat="48.74432" lon="7.30428">
        <ele>432.8</ele>
        <time>2020-05-10T13:25:55Z</time>
      </trkpt>
      <trkpt lat="48.74423" lon="7.30438">
        <ele>433.1</ele>
        <time>2020-05-10T13:25:57Z</time>
      </trkpt>
      <trkpt lat="48.74413" lon="7.30451">
        <ele>433.7</ele>
        <time>2020-05-10T13:25:59Z</time>
      </trkpt>
      <trkpt lat="48.74405" lon="7.30461">
        <ele>434.1</ele>
        <time>2020-05-10T13:26:01Z</time>
      </trkpt>
      <trkpt lat="48.74398" lon="7.30474">
        <ele>434.5</ele>
        <time>2020-05-10T13:26:03Z</time>
      </trkpt>
      <trkpt lat="48.74394" lon="7.3048">
        <ele>434.7</ele>
        <time>2020-05-10T13:26:04Z</time>
      </trkpt>
      <trkpt lat="48.74387" lon="7.30494">
        <ele>435.3</ele>
        <time>2020-05-10T13:26:06Z</time>
      </trkpt>
      <trkpt lat="48.74379" lon="7.30507">
        <ele>435.9</ele>
        <time>2020-05-10T13:26:08Z</time>
      </trkpt>
      <trkpt lat="48.74372" lon="7.30517">
        <ele>436.3</ele>
        <time>2020-05-10T13:26:10Z</time>
      </trkpt>
      <trkpt lat="48.74368" lon="7.30521">
        <ele>436.6</ele>
        <time>2020-05-10T13:26:11Z</time>
      </trkpt>
      <trkpt lat="48.74361" lon="7.3053">
        <ele>437</ele>
        <time>2020-05-10T13:26:13Z</time>
      </trkpt>
      <trkpt lat="48.74359" lon="7.30536">
        <ele>437.3</ele>
        <time>2020-05-10T13:26:14Z</time>
      </trkpt>
      <trkpt lat="48.74353" lon="7.30544">
        <ele>437.6</ele>
        <time>2020-05-10T13:26:16Z</time>
      </trkpt>
      <trkpt lat="48.74352" lon="7.30548">
        <ele>437.8</ele>
        <time>2020-05-10T13:26:17Z</time>
      </trkpt>
      <trkpt lat="48.74349" lon="7.30555">
        <ele>438</ele>
        <time>2020-05-10T13:26:19Z</time>
      </trkpt>
      <trkpt lat="48.74347" lon="7.30562">
        <ele>438.3</ele>
        <time>2020-05-10T13:26:21Z</time>
      </trkpt>
      <trkpt lat="48.74344" lon="7.3057">
        <ele>438.6</ele>
        <time>2020-05-10T13:26:23Z</time>
      </trkpt>
      <trkpt lat="48.74342" lon="7.30575">
        <ele>438.8</ele>
        <time>2020-05-10T13:26:24Z</time>
      </trkpt>
      <trkpt lat="48.74341" lon="7.30577">
        <ele>438.9</ele>
        <time>2020-05-10T13:26:25Z</time>
      </trkpt>
      <trkpt lat="48.74338" lon="7.30584">
        <ele>439.2</ele>
        <time>2020-05-10T13:26:27Z</time>
      </trkpt>
      <trkpt lat="48.74336" lon="7.30587">
        <ele>439.3</ele>
        <time>2020-05-10T13:26:28Z</time>
      </trkpt>
      <trkpt lat="48.74332" lon="7.30593">
        <ele>439.6</ele>
        <time>2020-05-10T13:26:30Z</time>
      </trkpt>
      <trkpt lat="48.74329" lon="7.30597">
        <ele>439.9</ele>
        <time>2020-05-10T13:26:32Z</time>
      </trkpt>
      <trkpt lat="48.74327" lon="7.30599">
        <ele>440</ele>
        <time>2020-05-10T13:26:33Z</time>
      </trkpt>
      <trkpt lat="48.74325" lon="7.30604">
        <ele>440.2</ele>
        <time>2020-05-10T13:26:35Z</time>
      </trkpt>
      <trkpt lat="48.74323" lon="7.30607">
        <ele>440.3</ele>
        <time>2020-05-10T13:26:36Z</time>
      </trkpt>
      <trkpt lat="48.74322" lon="7.30609">
        <ele>440.4</ele>
        <time>2020-05-10T13:26:37Z</time>
      </trkpt>
      <trkpt lat="48.74319" lon="7.30612">
        <ele>440.6</ele>
        <time>2020-05-10T13:26:39Z</time>
      </trkpt>
      <trkpt lat="48.74316" lon="7.30615">
        <ele>440.8</ele>
        <time>2020-05-10T13:26:41Z</time>
      </trkpt>
      <trkpt lat="48.74315" lon="7.30616">
        <ele>440.8</ele>
        <time>2020-05-10T13:26:42Z</time>
      </trkpt>
      <trkpt lat="48.74313" lon="7.3062">
        <ele>440.9</ele>
        <time>2020-05-10T13:26:44Z</time>
      </trkpt>
      <trkpt lat="48.7431" lon="7.30624">
        <ele>441.1</ele>
        <time>2020-05-10T13:26:45Z</time>
      </trkpt>
      <trkpt lat="48.74309" lon="7.30625">
        <ele>441.2</ele>
        <time>2020-05-10T13:26:46Z</time>
      </trkpt>
      <trkpt lat="48.74304" lon="7.30631">
        <ele>441.5</ele>
        <time>2020-05-10T13:26:48Z</time>
      </trkpt>
      <trkpt lat="48.74301" lon="7.30634">
        <ele>441.6</ele>
        <time>2020-05-10T13:26:49Z</time>
      </trkpt>
      <trkpt lat="48.74296" lon="7.30639">
        <ele>441.9</ele>
        <time>2020-05-10T13:26:51Z</time>
      </trkpt>
      <trkpt lat="48.74293" lon="7.30645">
        <ele>442.1</ele>
        <time>2020-05-10T13:26:53Z</time>
      </trkpt>
      <trkpt lat="48.74291" lon="7.30649">
        <ele>442.3</ele>
        <time>2020-05-10T13:26:54Z</time>
      </trkpt>
      <trkpt lat="48.74287" lon="7.30653">
        <ele>442.5</ele>
        <time>2020-05-10T13:26:56Z</time>
      </trkpt>
      <trkpt lat="48.74284" lon="7.30656">
        <ele>442.7</ele>
        <time>2020-05-10T13:26:57Z</time>
      </trkpt>
      <trkpt lat="48.74279" lon="7.30662">
        <ele>442.9</ele>
        <time>2020-05-10T13:26:59Z</time>
      </trkpt>
      <trkpt lat="48.74277" lon="7.30664">
        <ele>443</ele>
        <time>2020-05-10T13:27:00Z</time>
      </trkpt>
      <trkpt lat="48.74274" lon="7.30667">
        <ele>443.2</ele>
        <time>2020-05-10T13:27:02Z</time>
      </trkpt>
      <trkpt lat="48.74271" lon="7.3067">
        <ele>443.3</ele>
        <time>2020-05-10T13:27:03Z</time>
      </trkpt>
      <trkpt lat="48.74265" lon="7.30676">
        <ele>443.6</ele>
        <time>2020-05-10T13:27:05Z</time>
      </trkpt>
      <trkpt lat="48.74262" lon="7.30679">
        <ele>443.8</ele>
        <time>2020-05-10T13:27:06Z</time>
      </trkpt>
      <trkpt lat="48.74259" lon="7.30682">
        <ele>443.9</ele>
        <time>2020-05-10T13:27:07Z</time>
      </trkpt>
      <trkpt lat="48.74254" lon="7.30689">
        <ele>444.2</ele>
        <time>2020-05-10T13:27:09Z</time>
      </trkpt>
      <trkpt lat="48.74249" lon="7.30698">
        <ele>444.6</ele>
        <time>2020-05-10T13:27:11Z</time>
      </trkpt>
      <trkpt lat="48.74246" lon="7.307">
        <ele>444.8</ele>
        <time>2020-05-10T13:27:12Z</time>
      </trkpt>
      <trkpt lat="48.74245" lon="7.30701">
        <ele>444.8</ele>
        <time>2020-05-10T13:27:13Z</time>
      </trkpt>
      <trkpt lat="48.74244" lon="7.30702">
        <ele>444.9</ele>
        <time>2020-05-10T13:27:14Z</time>
      </trkpt>
      <trkpt lat="48.74242" lon="7.30703">
        <ele>445</ele>
        <time>2020-05-10T13:27:15Z</time>
      </trkpt>
      <trkpt lat="48.74239" lon="7.30705">
        <ele>445.2</ele>
        <time>2020-05-10T13:27:16Z</time>
      </trkpt>
      <trkpt lat="48.74233" lon="7.30709">
        <ele>445.5</ele>
        <time>2020-05-10T13:27:18Z</time>
      </trkpt>
      <trkpt lat="48.74228" lon="7.30713">
        <ele>445.8</ele>
        <time>2020-05-10T13:27:20Z</time>
      </trkpt>
      <trkpt lat="48.74224" lon="7.30715">
        <ele>446</ele>
        <time>2020-05-10T13:27:21Z</time>
      </trkpt>
      <trkpt lat="48.74223" lon="7.30716">
        <ele>446.1</ele>
        <time>2020-05-10T13:27:22Z</time>
      </trkpt>
      <trkpt lat="48.74217" lon="7.30718">
        <ele>446.4</ele>
        <time>2020-05-10T13:27:24Z</time>
      </trkpt>
      <trkpt lat="48.74211" lon="7.3072">
        <ele>446.8</ele>
        <time>2020-05-10T13:27:26Z</time>
      </trkpt>
      <trkpt lat="48.74207" lon="7.30722">
        <ele>447</ele>
        <time>2020-05-10T13:27:27Z</time>
      </trkpt>
      <trkpt lat="48.74201" lon="7.30726">
        <ele>447.3</ele>
        <time>2020-05-10T13:27:29Z</time>
      </trkpt>
      <trkpt lat="48.74195" lon="7.30733">
        <ele>447.7</ele>
        <time>2020-05-10T13:27:31Z</time>
      </trkpt>
      <trkpt lat="48.74192" lon="7.30736">
        <ele>447.8</ele>
        <time>2020-05-10T13:27:32Z</time>
      </trkpt>
      <trkpt lat="48.7419" lon="7.30738">
        <ele>447.9</ele>
        <time>2020-05-10T13:27:33Z</time>
      </trkpt>
      <trkpt lat="48.74186" lon="7.30741">
        <ele>448.1</ele>
        <time>2020-05-10T13:27:34Z</time>
      </trkpt>
      <trkpt lat="48.74182" lon="7.30745">
        <ele>448.2</ele>
        <time>2020-05-10T13:27:35Z</time>
      </trkpt>
      <trkpt lat="48.74176" lon="7.30751">
        <ele>448.4</ele>
        <time>2020-05-10T13:27:37Z</time>
      </trkpt>
      <trkpt lat="48.74173" lon="7.30755">
        <ele>448.4</ele>
        <time>2020-05-10T13:27:38Z</time>
      </trkpt>
      <trkpt lat="48.74167" lon="7.30761">
        <ele>448.5</ele>
        <time>2020-05-10T13:27:40Z</time>
      </trkpt>
      <trkpt lat="48.7416" lon="7.30767">
        <ele>448.6</ele>
        <time>2020-05-10T13:27:42Z</time>
      </trkpt>
      <trkpt lat="48.74153" lon="7.30773">
        <ele>448.7</ele>
        <time>2020-05-10T13:27:44Z</time>
      </trkpt>
      <trkpt lat="48.74145" lon="7.30779">
        <ele>448.7</ele>
        <time>2020-05-10T13:27:46Z</time>
      </trkpt>
      <trkpt lat="48.74138" lon="7.30787">
        <ele>448.8</ele>
        <time>2020-05-10T13:27:48Z</time>
      </trkpt>
      <trkpt lat="48.74134" lon="7.30789">
        <ele>448.8</ele>
        <time>2020-05-10T13:27:49Z</time>
      </trkpt>
      <trkpt lat="48.74126" lon="7.30796">
        <ele>448.8</ele>
        <time>2020-05-10T13:27:51Z</time>
      </trkpt>
      <trkpt lat="48.74122" lon="7.308">
        <ele>448.8</ele>
        <time>2020-05-10T13:27:52Z</time>
      </trkpt>
      <trkpt lat="48.74119" lon="7.30803">
        <ele>448.7</ele>
        <time>2020-05-10T13:27:53Z</time>
      </trkpt>
      <trkpt lat="48.7411" lon="7.30807">
        <ele>448.6</ele>
        <time>2020-05-10T13:27:55Z</time>
      </trkpt>
      <trkpt lat="48.74105" lon="7.3081">
        <ele>448.5</ele>
        <time>2020-05-10T13:27:56Z</time>
      </trkpt>
      <trkpt lat="48.74095" lon="7.30814">
        <ele>448.3</ele>
        <time>2020-05-10T13:27:58Z</time>
      </trkpt>
      <trkpt lat="48.7409" lon="7.30815">
        <ele>448.1</ele>
        <time>2020-05-10T13:27:59Z</time>
      </trkpt>
      <trkpt lat="48.74085" lon="7.30816">
        <ele>448</ele>
        <time>2020-05-10T13:28:00Z</time>
      </trkpt>
      <trkpt lat="48.74081" lon="7.30817">
        <ele>447.8</ele>
        <time>2020-05-10T13:28:01Z</time>
      </trkpt>
      <trkpt lat="48.74071" lon="7.30818">
        <ele>447.5</ele>
        <time>2020-05-10T13:28:03Z</time>
      </trkpt>
      <trkpt lat="48.74058" lon="7.30819">
        <ele>447</ele>
        <time>2020-05-10T13:28:05Z</time>
      </trkpt>
      <trkpt lat="48.74052" lon="7.30821">
        <ele>446.7</ele>
        <time>2020-05-10T13:28:06Z</time>
      </trkpt>
      <trkpt lat="48.7404" lon="7.3082">
        <ele>446.2</ele>
        <time>2020-05-10T13:28:08Z</time>
      </trkpt>
      <trkpt lat="48.74034" lon="7.3082">
        <ele>446</ele>
        <time>2020-05-10T13:28:09Z</time>
      </trkpt>
      <trkpt lat="48.74021" lon="7.30821">
        <ele>445.5</ele>
        <time>2020-05-10T13:28:11Z</time>
      </trkpt>
      <trkpt lat="48.74014" lon="7.3082">
        <ele>445.3</ele>
        <time>2020-05-10T13:28:12Z</time>
      </trkpt>
      <trkpt lat="48.74006" lon="7.30821">
        <ele>445</ele>
        <time>2020-05-10T13:28:13Z</time>
      </trkpt>
      <trkpt lat="48.73997" lon="7.30822">
        <ele>444.7</ele>
        <time>2020-05-10T13:28:14Z</time>
      </trkpt>
      <trkpt lat="48.73989" lon="7.30823">
        <ele>444.4</ele>
        <time>2020-05-10T13:28:15Z</time>
      </trkpt>
      <trkpt lat="48.73982" lon="7.30825">
        <ele>444.2</ele>
        <time>2020-05-10T13:28:16Z</time>
      </trkpt>
      <trkpt lat="48.73965" lon="7.30826">
        <ele>443.9</ele>
        <time>2020-05-10T13:28:18Z</time>
      </trkpt>
      <trkpt lat="48.73957" lon="7.30825">
        <ele>443.7</ele>
        <time>2020-05-10T13:28:19Z</time>
      </trkpt>
      <trkpt lat="48.73944" lon="7.30826">
        <ele>443.5</ele>
        <time>2020-05-10T13:28:21Z</time>
      </trkpt>
      <trkpt lat="48.73936" lon="7.30827">
        <ele>443.4</ele>
        <time>2020-05-10T13:28:22Z</time>
      </trkpt>
      <trkpt lat="48.73929" lon="7.30828">
        <ele>443.3</ele>
        <time>2020-05-10T13:28:23Z</time>
      </trkpt>
      <trkpt lat="48.73923" lon="7.30828">
        <ele>443.3</ele>
        <time>2020-05-10T13:28:24Z</time>
      </trkpt>
      <trkpt lat="48.73909" lon="7.30828">
        <ele>443.5</ele>
        <time>2020-05-10T13:28:26Z</time>
      </trkpt>
      <trkpt lat="48.73902" lon="7.30829">
        <ele>443.7</ele>
        <time>2020-05-10T13:28:27Z</time>
      </trkpt>
      <trkpt lat="48.73896" lon="7.3083">
        <ele>443.9</ele>
        <time>2020-05-10T13:28:28Z</time>
      </trkpt>
      <trkpt lat="48.73883" lon="7.30829">
        <ele>444.3</ele>
        <time>2020-05-10T13:28:30Z</time>
      </trkpt>
      <trkpt lat="48.73877" lon="7.30825">
        <ele>444.5</ele>
        <time>2020-05-10T13:28:31Z</time>
      </trkpt>
      <trkpt lat="48.73864" lon="7.30817">
        <ele>445.1</ele>
        <time>2020-05-10T13:28:33Z</time>
      </trkpt>
      <trkpt lat="48.73857" lon="7.30813">
        <ele>445.3</ele>
        <time>2020-05-10T13:28:34Z</time>
      </trkpt>
      <trkpt lat="48.73843" lon="7.30808">
        <ele>445.8</ele>
        <time>2020-05-10T13:28:36Z</time>
      </trkpt>
      <trkpt lat="48.73836" lon="7.30805">
        <ele>446</ele>
        <time>2020-05-10T13:28:37Z</time>
      </trkpt>
      <trkpt lat="48.73822" lon="7.30799">
        <ele>446.4</ele>
        <time>2020-05-10T13:28:39Z</time>
      </trkpt>
      <trkpt lat="48.73816" lon="7.30796">
        <ele>446.6</ele>
        <time>2020-05-10T13:28:40Z</time>
      </trkpt>
      <trkpt lat="48.7381" lon="7.30794">
        <ele>446.7</ele>
        <time>2020-05-10T13:28:41Z</time>
      </trkpt>
      <trkpt lat="48.73804" lon="7.30791">
        <ele>446.8</ele>
        <time>2020-05-10T13:28:42Z</time>
      </trkpt>
      <trkpt lat="48.73793" lon="7.30787">
        <ele>446.8</ele>
        <time>2020-05-10T13:28:44Z</time>
      </trkpt>
      <trkpt lat="48.73788" lon="7.30784">
        <ele>446.9</ele>
        <time>2020-05-10T13:28:45Z</time>
      </trkpt>
      <trkpt lat="48.73776" lon="7.30777">
        <ele>447</ele>
        <time>2020-05-10T13:28:47Z</time>
      </trkpt>
      <trkpt lat="48.73765" lon="7.30771">
        <ele>447.1</ele>
        <time>2020-05-10T13:28:49Z</time>
      </trkpt>
      <trkpt lat="48.73755" lon="7.30761">
        <ele>446.9</ele>
        <time>2020-05-10T13:28:51Z</time>
      </trkpt>
      <trkpt lat="48.73749" lon="7.30756">
        <ele>446.8</ele>
        <time>2020-05-10T13:28:52Z</time>
      </trkpt>
      <trkpt lat="48.73734" lon="7.30752">
        <ele>446.4</ele>
        <time>2020-05-10T13:28:54Z</time>
      </trkpt>
      <trkpt lat="48.73727" lon="7.30751">
        <ele>446.2</ele>
        <time>2020-05-10T13:28:55Z</time>
      </trkpt>
      <trkpt lat="48.73711" lon="7.30741">
        <ele>444.5</ele>
        <time>2020-05-10T13:28:57Z</time>
      </trkpt>
      <trkpt lat="48.73702" lon="7.30734">
        <ele>443.7</ele>
        <time>2020-05-10T13:28:59Z</time>
      </trkpt>
      <trkpt lat="48.7369" lon="7.30726">
        <ele>442.5</ele>
        <time>2020-05-10T13:29:00Z</time>
      </trkpt>
      <trkpt lat="48.73675" lon="7.30717">
        <ele>441.6</ele>
        <time>2020-05-10T13:29:02Z</time>
      </trkpt>
      <trkpt lat="48.73669" lon="7.30715">
        <ele>440.8</ele>
        <time>2020-05-10T13:29:03Z</time>
      </trkpt>
      <trkpt lat="48.73657" lon="7.30712">
        <ele>439.7</ele>
        <time>2020-05-10T13:29:05Z</time>
      </trkpt>
      <trkpt lat="48.73652" lon="7.3071">
        <ele>438.6</ele>
        <time>2020-05-10T13:29:06Z</time>
      </trkpt>
      <trkpt lat="48.7364" lon="7.30703">
        <ele>436</ele>
        <time>2020-05-10T13:29:08Z</time>
      </trkpt>
      <trkpt lat="48.73634" lon="7.307">
        <ele>434.2</ele>
        <time>2020-05-10T13:29:09Z</time>
      </trkpt>
      <trkpt lat="48.7362" lon="7.30694">
        <ele>430.5</ele>
        <time>2020-05-10T13:29:11Z</time>
      </trkpt>
      <trkpt lat="48.73607" lon="7.30689">
        <ele>427</ele>
        <time>2020-05-10T13:29:13Z</time>
      </trkpt>
      <trkpt lat="48.73592" lon="7.30689">
        <ele>423.6</ele>
        <time>2020-05-10T13:29:15Z</time>
      </trkpt>
      <trkpt lat="48.73578" lon="7.30688">
        <ele>420.7</ele>
        <time>2020-05-10T13:29:17Z</time>
      </trkpt>
      <trkpt lat="48.73571" lon="7.30687">
        <ele>419.8</ele>
        <time>2020-05-10T13:29:18Z</time>
      </trkpt>
      <trkpt lat="48.7356" lon="7.30687">
        <ele>418.4</ele>
        <time>2020-05-10T13:29:20Z</time>
      </trkpt>
      <trkpt lat="48.73544" lon="7.30685">
        <ele>416</ele>
        <time>2020-05-10T13:29:22Z</time>
      </trkpt>
      <trkpt lat="48.7353" lon="7.30685">
        <ele>414.5</ele>
        <time>2020-05-10T13:29:24Z</time>
      </trkpt>
      <trkpt lat="48.73523" lon="7.30686">
        <ele>414.4</ele>
        <time>2020-05-10T13:29:25Z</time>
      </trkpt>
      <trkpt lat="48.73516" lon="7.30687">
        <ele>413.6</ele>
        <time>2020-05-10T13:29:26Z</time>
      </trkpt>
      <trkpt lat="48.73506" lon="7.30687">
        <ele>412.9</ele>
        <time>2020-05-10T13:29:28Z</time>
      </trkpt>
      <trkpt lat="48.735" lon="7.30688">
        <ele>412.4</ele>
        <time>2020-05-10T13:29:29Z</time>
      </trkpt>
      <trkpt lat="48.73494" lon="7.30692">
        <ele>412.4</ele>
        <time>2020-05-10T13:29:30Z</time>
      </trkpt>
      <trkpt lat="48.73487" lon="7.30695">
        <ele>412.6</ele>
        <time>2020-05-10T13:29:31Z</time>
      </trkpt>
      <trkpt lat="48.73475" lon="7.30692">
        <ele>411.4</ele>
        <time>2020-05-10T13:29:33Z</time>
      </trkpt>
      <trkpt lat="48.73465" lon="7.30684">
        <ele>409.8</ele>
        <time>2020-05-10T13:29:35Z</time>
      </trkpt>
      <trkpt lat="48.73455" lon="7.30681">
        <ele>409.1</ele>
        <time>2020-05-10T13:29:37Z</time>
      </trkpt>
      <trkpt lat="48.7345" lon="7.3068">
        <ele>408.9</ele>
        <time>2020-05-10T13:29:39Z</time>
      </trkpt>
      <trkpt lat="48.73442" lon="7.30677">
        <ele>408.6</ele>
        <time>2020-05-10T13:29:40Z</time>
      </trkpt>
      <trkpt lat="48.7343" lon="7.30673">
        <ele>408</ele>
        <time>2020-05-10T13:29:42Z</time>
      </trkpt>
      <trkpt lat="48.73425" lon="7.30671">
        <ele>407.6</ele>
        <time>2020-05-10T13:29:43Z</time>
      </trkpt>
      <trkpt lat="48.73416" lon="7.30666">
        <ele>406.9</ele>
        <time>2020-05-10T13:29:45Z</time>
      </trkpt>
      <trkpt lat="48.73412" lon="7.30664">
        <ele>406.8</ele>
        <time>2020-05-10T13:29:46Z</time>
      </trkpt>
      <trkpt lat="48.73408" lon="7.30662">
        <ele>406.3</ele>
        <time>2020-05-10T13:29:47Z</time>
      </trkpt>
      <trkpt lat="48.73404" lon="7.30661">
        <ele>406.2</ele>
        <time>2020-05-10T13:29:48Z</time>
      </trkpt>
      <trkpt lat="48.73395" lon="7.30657">
        <ele>405.9</ele>
        <time>2020-05-10T13:29:50Z</time>
      </trkpt>
      <trkpt lat="48.73391" lon="7.30653">
        <ele>405.8</ele>
        <time>2020-05-10T13:29:51Z</time>
      </trkpt>
      <trkpt lat="48.73381" lon="7.30642">
        <ele>405.4</ele>
        <time>2020-05-10T13:29:53Z</time>
      </trkpt>
      <trkpt lat="48.73375" lon="7.30637">
        <ele>404.8</ele>
        <time>2020-05-10T13:29:54Z</time>
      </trkpt>
      <trkpt lat="48.73366" lon="7.30625">
        <ele>403.7</ele>
        <time>2020-05-10T13:29:56Z</time>
      </trkpt>
      <trkpt lat="48.73357" lon="7.30615">
        <ele>403.3</ele>
        <time>2020-05-10T13:29:58Z</time>
      </trkpt>
      <trkpt lat="48.73347" lon="7.30606">
        <ele>403</ele>
        <time>2020-05-10T13:30:00Z</time>
      </trkpt>
      <trkpt lat="48.73339" lon="7.30602">
        <ele>403</ele>
        <time>2020-05-10T13:30:02Z</time>
      </trkpt>
      <trkpt lat="48.73331" lon="7.30593">
        <ele>402.7</ele>
        <time>2020-05-10T13:30:04Z</time>
      </trkpt>
      <trkpt lat="48.73325" lon="7.30588">
        <ele>402.5</ele>
        <time>2020-05-10T13:30:06Z</time>
      </trkpt>
      <trkpt lat="48.73318" lon="7.3058">
        <ele>402.3</ele>
        <time>2020-05-10T13:30:08Z</time>
      </trkpt>
      <trkpt lat="48.73315" lon="7.30575">
        <ele>402.2</ele>
        <time>2020-05-10T13:30:09Z</time>
      </trkpt>
      <trkpt lat="48.73312" lon="7.30572">
        <ele>402.4</ele>
        <time>2020-05-10T13:30:10Z</time>
      </trkpt>
      <trkpt lat="48.73308" lon="7.30568">
        <ele>402.3</ele>
        <time>2020-05-10T13:30:11Z</time>
      </trkpt>
      <trkpt lat="48.73304" lon="7.3056">
        <ele>402.1</ele>
        <time>2020-05-10T13:30:13Z</time>
      </trkpt>
      <trkpt lat="48.73298" lon="7.30554">
        <ele>402.4</ele>
        <time>2020-05-10T13:30:15Z</time>
      </trkpt>
      <trkpt lat="48.73292" lon="7.30549">
        <ele>402.8</ele>
        <time>2020-05-10T13:30:17Z</time>
      </trkpt>
      <trkpt lat="48.73292" lon="7.30549">
        <ele>402.8</ele>
        <time>2020-05-10T13:30:18Z</time>
      </trkpt>
      <trkpt lat="48.73293" lon="7.30549">
        <ele>402.9</ele>
        <time>2020-05-10T13:30:20Z</time>
      </trkpt>
      <trkpt lat="48.73293" lon="7.30548">
        <ele>402.5</ele>
        <time>2020-05-10T13:30:22Z</time>
      </trkpt>
      <trkpt lat="48.73292" lon="7.30547">
        <ele>402.6</ele>
        <time>2020-05-10T13:30:24Z</time>
      </trkpt>
      <trkpt lat="48.7329" lon="7.30547">
        <ele>402.6</ele>
        <time>2020-05-10T13:30:26Z</time>
      </trkpt>
      <trkpt lat="48.73289" lon="7.30546">
        <ele>403</ele>
        <time>2020-05-10T13:30:28Z</time>
      </trkpt>
      <trkpt lat="48.73289" lon="7.30546">
        <ele>403.1</ele>
        <time>2020-05-10T13:30:29Z</time>
      </trkpt>
      <trkpt lat="48.73289" lon="7.30548">
        <ele>403.1</ele>
        <time>2020-05-10T13:30:31Z</time>
      </trkpt>
      <trkpt lat="48.7329" lon="7.30548">
        <ele>403.5</ele>
        <time>2020-05-10T13:30:32Z</time>
      </trkpt>
      <trkpt lat="48.7329" lon="7.30548">
        <ele>403.1</ele>
        <time>2020-05-10T13:30:34Z</time>
      </trkpt>
      <trkpt lat="48.73292" lon="7.30549">
        <ele>403.1</ele>
        <time>2020-05-10T13:30:36Z</time>
      </trkpt>
      <trkpt lat="48.73293" lon="7.3055">
        <ele>402.8</ele>
        <time>2020-05-10T13:30:38Z</time>
      </trkpt>
      <trkpt lat="48.73293" lon="7.30551">
        <ele>402.8</ele>
        <time>2020-05-10T13:30:39Z</time>
      </trkpt>
      <trkpt lat="48.73294" lon="7.30552">
        <ele>402.9</ele>
        <time>2020-05-10T13:30:41Z</time>
      </trkpt>
      <trkpt lat="48.73295" lon="7.30552">
        <ele>402.9</ele>
        <time>2020-05-10T13:30:43Z</time>
      </trkpt>
      <trkpt lat="48.73295" lon="7.30551">
        <ele>402.9</ele>
        <time>2020-05-10T13:30:45Z</time>
      </trkpt>
      <trkpt lat="48.73295" lon="7.30551">
        <ele>403</ele>
        <time>2020-05-10T13:30:46Z</time>
      </trkpt>
      <trkpt lat="48.73294" lon="7.3055">
        <ele>403</ele>
        <time>2020-05-10T13:30:47Z</time>
      </trkpt>
      <trkpt lat="48.73294" lon="7.3055">
        <ele>403</ele>
        <time>2020-05-10T13:30:48Z</time>
      </trkpt>
      <trkpt lat="48.73294" lon="7.30549">
        <ele>403</ele>
        <time>2020-05-10T13:30:50Z</time>
      </trkpt>
      <trkpt lat="48.73294" lon="7.30549">
        <ele>403.1</ele>
        <time>2020-05-10T13:30:52Z</time>
      </trkpt>
      <trkpt lat="48.73293" lon="7.30549">
        <ele>403.1</ele>
        <time>2020-05-10T13:30:53Z</time>
      </trkpt>
      <trkpt lat="48.73293" lon="7.30548">
        <ele>403.1</ele>
        <time>2020-05-10T13:30:55Z</time>
      </trkpt>
      <trkpt lat="48.73293" lon="7.30548">
        <ele>402.8</ele>
        <time>2020-05-10T13:30:56Z</time>
      </trkpt>
      <trkpt lat="48.73293" lon="7.30548">
        <ele>402.8</ele>
        <time>2020-05-10T13:30:57Z</time>
      </trkpt>
      <trkpt lat="48.73289" lon="7.30542">
        <ele>403.3</ele>
        <time>2020-05-10T13:30:59Z</time>
      </trkpt>
      <trkpt lat="48.73288" lon="7.3054">
        <ele>403.3</ele>
        <time>2020-05-10T13:31:00Z</time>
      </trkpt>
      <trkpt lat="48.73286" lon="7.30538">
        <ele>403.3</ele>
        <time>2020-05-10T13:31:01Z</time>
      </trkpt>
      <trkpt lat="48.73282" lon="7.30534">
        <ele>403.3</ele>
        <time>2020-05-10T13:31:03Z</time>
      </trkpt>
      <trkpt lat="48.73279" lon="7.30531">
        <ele>403.7</ele>
        <time>2020-05-10T13:31:04Z</time>
      </trkpt>
      <trkpt lat="48.73274" lon="7.30529">
        <ele>404</ele>
        <time>2020-05-10T13:31:05Z</time>
      </trkpt>
      <trkpt lat="48.7327" lon="7.30527">
        <ele>404.6</ele>
        <time>2020-05-10T13:31:06Z</time>
      </trkpt>
      <trkpt lat="48.73259" lon="7.3053">
        <ele>405.3</ele>
        <time>2020-05-10T13:31:08Z</time>
      </trkpt>
      <trkpt lat="48.73251" lon="7.30532">
        <ele>405.8</ele>
        <time>2020-05-10T13:31:10Z</time>
      </trkpt>
      <trkpt lat="48.73248" lon="7.30537">
        <ele>406.1</ele>
        <time>2020-05-10T13:31:11Z</time>
      </trkpt>
      <trkpt lat="48.73247" lon="7.30542">
        <ele>406.3</ele>
        <time>2020-05-10T13:31:12Z</time>
      </trkpt>
      <trkpt lat="48.73245" lon="7.30548">
        <ele>406.6</ele>
        <time>2020-05-10T13:31:13Z</time>
      </trkpt>
      <trkpt lat="48.73244" lon="7.30553">
        <ele>406.9</ele>
        <time>2020-05-10T13:31:14Z</time>
      </trkpt>
      <trkpt lat="48.73244" lon="7.30559">
        <ele>407.2</ele>
        <time>2020-05-10T13:31:15Z</time>
      </trkpt>
      <trkpt lat="48.73244" lon="7.30571">
        <ele>407.6</ele>
        <time>2020-05-10T13:31:17Z</time>
      </trkpt>
      <trkpt lat="48.73244" lon="7.30584">
        <ele>407.6</ele>
        <time>2020-05-10T13:31:19Z</time>
      </trkpt>
      <trkpt lat="48.73245" lon="7.3059">
        <ele>407.7</ele>
        <time>2020-05-10T13:31:20Z</time>
      </trkpt>
      <trkpt lat="48.73246" lon="7.30599">
        <ele>407.3</ele>
        <time>2020-05-10T13:31:22Z</time>
      </trkpt>
      <trkpt lat="48.73245" lon="7.30604">
        <ele>406.8</ele>
        <time>2020-05-10T13:31:23Z</time>
      </trkpt>
      <trkpt lat="48.73248" lon="7.30618">
        <ele>406.1</ele>
        <time>2020-05-10T13:31:25Z</time>
      </trkpt>
      <trkpt lat="48.73249" lon="7.30625">
        <ele>405.4</ele>
        <time>2020-05-10T13:31:26Z</time>
      </trkpt>
      <trkpt lat="48.73252" lon="7.3064">
        <ele>404.8</ele>
        <time>2020-05-10T13:31:28Z</time>
      </trkpt>
      <trkpt lat="48.73256" lon="7.30654">
        <ele>404.6</ele>
        <time>2020-05-10T13:31:30Z</time>
      </trkpt>
      <trkpt lat="48.73257" lon="7.30661">
        <ele>404.2</ele>
        <time>2020-05-10T13:31:31Z</time>
      </trkpt>
      <trkpt lat="48.73259" lon="7.30672">
        <ele>404.2</ele>
        <time>2020-05-10T13:31:33Z</time>
      </trkpt>
      <trkpt lat="48.73263" lon="7.30685">
        <ele>403.6</ele>
        <time>2020-05-10T13:31:35Z</time>
      </trkpt>
      <trkpt lat="48.73264" lon="7.30691">
        <ele>403.4</ele>
        <time>2020-05-10T13:31:36Z</time>
      </trkpt>
      <trkpt lat="48.73265" lon="7.30696">
        <ele>403.5</ele>
        <time>2020-05-10T13:31:37Z</time>
      </trkpt>
      <trkpt lat="48.73266" lon="7.30701">
        <ele>403.2</ele>
        <time>2020-05-10T13:31:38Z</time>
      </trkpt>
      <trkpt lat="48.73267" lon="7.30706">
        <ele>403</ele>
        <time>2020-05-10T13:31:39Z</time>
      </trkpt>
      <trkpt lat="48.73271" lon="7.30719">
        <ele>403.6</ele>
        <time>2020-05-10T13:31:41Z</time>
      </trkpt>
      <trkpt lat="48.73272" lon="7.30726">
        <ele>403.5</ele>
        <time>2020-05-10T13:31:42Z</time>
      </trkpt>
      <trkpt lat="48.73277" lon="7.30737">
        <ele>404.6</ele>
        <time>2020-05-10T13:31:44Z</time>
      </trkpt>
      <trkpt lat="48.73281" lon="7.30748">
        <ele>405.1</ele>
        <time>2020-05-10T13:31:46Z</time>
      </trkpt>
      <trkpt lat="48.73284" lon="7.30762">
        <ele>405.7</ele>
        <time>2020-05-10T13:31:48Z</time>
      </trkpt>
      <trkpt lat="48.7329" lon="7.30774">
        <ele>405.9</ele>
        <time>2020-05-10T13:31:50Z</time>
      </trkpt>
      <trkpt lat="48.73293" lon="7.30779">
        <ele>406.4</ele>
        <time>2020-05-10T13:31:51Z</time>
      </trkpt>
      <trkpt lat="48.73299" lon="7.30783">
        <ele>406.8</ele>
        <time>2020-05-10T13:31:53Z</time>
      </trkpt>
      <trkpt lat="48.73301" lon="7.30785">
        <ele>407.1</ele>
        <time>2020-05-10T13:31:54Z</time>
      </trkpt>
      <trkpt lat="48.73306" lon="7.30788">
        <ele>407.4</ele>
        <time>2020-05-10T13:31:56Z</time>
      </trkpt>
      <trkpt lat="48.73313" lon="7.30793">
        <ele>408</ele>
        <time>2020-05-10T13:31:58Z</time>
      </trkpt>
      <trkpt lat="48.73316" lon="7.30797">
        <ele>408.3</ele>
        <time>2020-05-10T13:31:59Z</time>
      </trkpt>
      <trkpt lat="48.73319" lon="7.30807">
        <ele>408.6</ele>
        <time>2020-05-10T13:32:01Z</time>
      </trkpt>
      <trkpt lat="48.73321" lon="7.30811">
        <ele>408.8</ele>
        <time>2020-05-10T13:32:02Z</time>
      </trkpt>
      <trkpt lat="48.73323" lon="7.30815">
        <ele>409</ele>
        <time>2020-05-10T13:32:03Z</time>
      </trkpt>
      <trkpt lat="48.73325" lon="7.3082">
        <ele>409.2</ele>
        <time>2020-05-10T13:32:04Z</time>
      </trkpt>
      <trkpt lat="48.73332" lon="7.30835">
        <ele>409.6</ele>
        <time>2020-05-10T13:32:06Z</time>
      </trkpt>
      <trkpt lat="48.73336" lon="7.30843">
        <ele>409.8</ele>
        <time>2020-05-10T13:32:07Z</time>
      </trkpt>
      <trkpt lat="48.73341" lon="7.30859">
        <ele>409.9</ele>
        <time>2020-05-10T13:32:09Z</time>
      </trkpt>
      <trkpt lat="48.73343" lon="7.3087">
        <ele>410</ele>
        <time>2020-05-10T13:32:11Z</time>
      </trkpt>
      <trkpt lat="48.73346" lon="7.30875">
        <ele>410.1</ele>
        <time>2020-05-10T13:32:12Z</time>
      </trkpt>
      <trkpt lat="48.7335" lon="7.30884">
        <ele>410.3</ele>
        <time>2020-05-10T13:32:14Z</time>
      </trkpt>
      <trkpt lat="48.73351" lon="7.30889">
        <ele>410.4</ele>
        <time>2020-05-10T13:32:15Z</time>
      </trkpt>
      <trkpt lat="48.73354" lon="7.30902">
        <ele>410.8</ele>
        <time>2020-05-10T13:32:17Z</time>
      </trkpt>
      <trkpt lat="48.73355" lon="7.30908">
        <ele>411.2</ele>
        <time>2020-05-10T13:32:18Z</time>
      </trkpt>
      <trkpt lat="48.73355" lon="7.30917">
        <ele>411.7</ele>
        <time>2020-05-10T13:32:20Z</time>
      </trkpt>
      <trkpt lat="48.73354" lon="7.3092">
        <ele>411.7</ele>
        <time>2020-05-10T13:32:22Z</time>
      </trkpt>
      <trkpt lat="48.73346" lon="7.30933">
        <ele>412.2</ele>
        <time>2020-05-10T13:32:24Z</time>
      </trkpt>
      <trkpt lat="48.73342" lon="7.30943">
        <ele>412.8</ele>
        <time>2020-05-10T13:32:26Z</time>
      </trkpt>
      <trkpt lat="48.73335" lon="7.30953">
        <ele>412.3</ele>
        <time>2020-05-10T13:32:28Z</time>
      </trkpt>
      <trkpt lat="48.73329" lon="7.30964">
        <ele>412</ele>
        <time>2020-05-10T13:32:30Z</time>
      </trkpt>
      <trkpt lat="48.73328" lon="7.30968">
        <ele>412.2</ele>
        <time>2020-05-10T13:32:31Z</time>
      </trkpt>
      <trkpt lat="48.73322" lon="7.3097">
        <ele>411.6</ele>
        <time>2020-05-10T13:32:33Z</time>
      </trkpt>
      <trkpt lat="48.73321" lon="7.30972">
        <ele>411.6</ele>
        <time>2020-05-10T13:32:34Z</time>
      </trkpt>
      <trkpt lat="48.73322" lon="7.30973">
        <ele>411.8</ele>
        <time>2020-05-10T13:32:35Z</time>
      </trkpt>
      <trkpt lat="48.73323" lon="7.30974">
        <ele>411.8</ele>
        <time>2020-05-10T13:32:36Z</time>
      </trkpt>
      <trkpt lat="48.73323" lon="7.30974">
        <ele>411.8</ele>
        <time>2020-05-10T13:32:37Z</time>
      </trkpt>
      <trkpt lat="48.73321" lon="7.30975">
        <ele>411.9</ele>
        <time>2020-05-10T13:32:39Z</time>
      </trkpt>
      <trkpt lat="48.73321" lon="7.30975">
        <ele>411.4</ele>
        <time>2020-05-10T13:32:40Z</time>
      </trkpt>
      <trkpt lat="48.7332" lon="7.30975">
        <ele>411.5</ele>
        <time>2020-05-10T13:32:41Z</time>
      </trkpt>
      <trkpt lat="48.7332" lon="7.30976">
        <ele>411.5</ele>
        <time>2020-05-10T13:32:42Z</time>
      </trkpt>
      <trkpt lat="48.73319" lon="7.30977">
        <ele>411.5</ele>
        <time>2020-05-10T13:32:44Z</time>
      </trkpt>
      <trkpt lat="48.73319" lon="7.30978">
        <ele>411.7</ele>
        <time>2020-05-10T13:32:45Z</time>
      </trkpt>
      <trkpt lat="48.73318" lon="7.3098">
        <ele>411.2</ele>
        <time>2020-05-10T13:32:46Z</time>
      </trkpt>
      <trkpt lat="48.73312" lon="7.30986">
        <ele>410.3</ele>
        <time>2020-05-10T13:32:48Z</time>
      </trkpt>
      <trkpt lat="48.7331" lon="7.30989">
        <ele>410.3</ele>
        <time>2020-05-10T13:32:49Z</time>
      </trkpt>
      <trkpt lat="48.73306" lon="7.30994">
        <ele>409.5</ele>
        <time>2020-05-10T13:32:51Z</time>
      </trkpt>
      <trkpt lat="48.73304" lon="7.30996">
        <ele>408.9</ele>
        <time>2020-05-10T13:32:52Z</time>
      </trkpt>
      <trkpt lat="48.733" lon="7.30999">
        <ele>408.6</ele>
        <time>2020-05-10T13:32:54Z</time>
      </trkpt>
      <trkpt lat="48.73299" lon="7.31002">
        <ele>408.7</ele>
        <time>2020-05-10T13:32:55Z</time>
      </trkpt>
      <trkpt lat="48.73296" lon="7.31009">
        <ele>408.7</ele>
        <time>2020-05-10T13:32:57Z</time>
      </trkpt>
      <trkpt lat="48.73293" lon="7.31013">
        <ele>408.6</ele>
        <time>2020-05-10T13:32:59Z</time>
      </trkpt>
      <trkpt lat="48.7329" lon="7.31017">
        <ele>408.4</ele>
        <time>2020-05-10T13:33:00Z</time>
      </trkpt>
      <trkpt lat="48.73287" lon="7.31024">
        <ele>408.2</ele>
        <time>2020-05-10T13:33:01Z</time>
      </trkpt>
      <trkpt lat="48.73285" lon="7.3103">
        <ele>408.3</ele>
        <time>2020-05-10T13:33:02Z</time>
      </trkpt>
      <trkpt lat="48.7328" lon="7.3104">
        <ele>408.1</ele>
        <time>2020-05-10T13:33:04Z</time>
      </trkpt>
      <trkpt lat="48.73274" lon="7.31047">
        <ele>407.9</ele>
        <time>2020-05-10T13:33:06Z</time>
      </trkpt>
      <trkpt lat="48.73266" lon="7.31053">
        <ele>406.9</ele>
        <time>2020-05-10T13:33:08Z</time>
      </trkpt>
      <trkpt lat="48.73262" lon="7.31054">
        <ele>407</ele>
        <time>2020-05-10T13:33:09Z</time>
      </trkpt>
      <trkpt lat="48.73256" lon="7.31056">
        <ele>406</ele>
        <time>2020-05-10T13:33:11Z</time>
      </trkpt>
      <trkpt lat="48.73248" lon="7.31062">
        <ele>404.6</ele>
        <time>2020-05-10T13:33:13Z</time>
      </trkpt>
      <trkpt lat="48.73243" lon="7.31066">
        <ele>403.9</ele>
        <time>2020-05-10T13:33:15Z</time>
      </trkpt>
      <trkpt lat="48.73241" lon="7.31067">
        <ele>403.3</ele>
        <time>2020-05-10T13:33:17Z</time>
      </trkpt>
      <trkpt lat="48.73232" lon="7.3107">
        <ele>401.7</ele>
        <time>2020-05-10T13:33:19Z</time>
      </trkpt>
      <trkpt lat="48.73228" lon="7.31071">
        <ele>400.6</ele>
        <time>2020-05-10T13:33:20Z</time>
      </trkpt>
      <trkpt lat="48.7322" lon="7.31072">
        <ele>398.4</ele>
        <time>2020-05-10T13:33:21Z</time>
      </trkpt>
      <trkpt lat="48.73214" lon="7.31072">
        <ele>396.5</ele>
        <time>2020-05-10T13:33:22Z</time>
      </trkpt>
      <trkpt lat="48.73208" lon="7.31072">
        <ele>394.4</ele>
        <time>2020-05-10T13:33:24Z</time>
      </trkpt>
      <trkpt lat="48.73204" lon="7.31072">
        <ele>393.4</ele>
        <time>2020-05-10T13:33:25Z</time>
      </trkpt>
      <trkpt lat="48.73203" lon="7.31073">
        <ele>393</ele>
        <time>2020-05-10T13:33:27Z</time>
      </trkpt>
      <trkpt lat="48.73203" lon="7.31073">
        <ele>392.7</ele>
        <time>2020-05-10T13:33:29Z</time>
      </trkpt>
      <trkpt lat="48.732" lon="7.31072">
        <ele>391.9</ele>
        <time>2020-05-10T13:33:31Z</time>
      </trkpt>
      <trkpt lat="48.732" lon="7.31071">
        <ele>391.7</ele>
        <time>2020-05-10T13:33:32Z</time>
      </trkpt>
      <trkpt lat="48.73199" lon="7.3107">
        <ele>391.2</ele>
        <time>2020-05-10T13:33:34Z</time>
      </trkpt>
      <trkpt lat="48.73198" lon="7.31068">
        <ele>390.8</ele>
        <time>2020-05-10T13:33:35Z</time>
      </trkpt>
      <trkpt lat="48.73191" lon="7.31064">
        <ele>388.2</ele>
        <time>2020-05-10T13:33:37Z</time>
      </trkpt>
      <trkpt lat="48.73186" lon="7.31064">
        <ele>386.7</ele>
        <time>2020-05-10T13:33:38Z</time>
      </trkpt>
      <trkpt lat="48.73182" lon="7.31061">
        <ele>385.3</ele>
        <time>2020-05-10T13:33:39Z</time>
      </trkpt>
      <trkpt lat="48.73175" lon="7.31055">
        <ele>382.7</ele>
        <time>2020-05-10T13:33:41Z</time>
      </trkpt>
      <trkpt lat="48.73171" lon="7.31052">
        <ele>381.5</ele>
        <time>2020-05-10T13:33:42Z</time>
      </trkpt>
      <trkpt lat="48.73167" lon="7.31047">
        <ele>379.8</ele>
        <time>2020-05-10T13:33:44Z</time>
      </trkpt>
      <trkpt lat="48.73165" lon="7.31046">
        <ele>379.2</ele>
        <time>2020-05-10T13:33:45Z</time>
      </trkpt>
      <trkpt lat="48.7316" lon="7.31042">
        <ele>377.4</ele>
        <time>2020-05-10T13:33:47Z</time>
      </trkpt>
      <trkpt lat="48.73152" lon="7.31038">
        <ele>375</ele>
        <time>2020-05-10T13:33:49Z</time>
      </trkpt>
      <trkpt lat="48.73145" lon="7.31034">
        <ele>373</ele>
        <time>2020-05-10T13:33:51Z</time>
      </trkpt>
      <trkpt lat="48.73143" lon="7.31032">
        <ele>372.2</ele>
        <time>2020-05-10T13:33:52Z</time>
      </trkpt>
      <trkpt lat="48.73139" lon="7.31029">
        <ele>371</ele>
        <time>2020-05-10T13:33:54Z</time>
      </trkpt>
      <trkpt lat="48.73135" lon="7.31026">
        <ele>369.9</ele>
        <time>2020-05-10T13:33:55Z</time>
      </trkpt>
      <trkpt lat="48.73133" lon="7.31025">
        <ele>369.5</ele>
        <time>2020-05-10T13:33:56Z</time>
      </trkpt>
      <trkpt lat="48.73127" lon="7.31017">
        <ele>367.3</ele>
        <time>2020-05-10T13:33:58Z</time>
      </trkpt>
      <trkpt lat="48.73124" lon="7.31012">
        <ele>366.2</ele>
        <time>2020-05-10T13:33:59Z</time>
      </trkpt>
      <trkpt lat="48.73122" lon="7.31011">
        <ele>365.7</ele>
        <time>2020-05-10T13:34:00Z</time>
      </trkpt>
      <trkpt lat="48.7312" lon="7.31008">
        <ele>364.9</ele>
        <time>2020-05-10T13:34:01Z</time>
      </trkpt>
      <trkpt lat="48.73115" lon="7.31006">
        <ele>363.7</ele>
        <time>2020-05-10T13:34:03Z</time>
      </trkpt>
      <trkpt lat="48.73108" lon="7.31003">
        <ele>361.9</ele>
        <time>2020-05-10T13:34:04Z</time>
      </trkpt>
      <trkpt lat="48.73104" lon="7.31001">
        <ele>361.1</ele>
        <time>2020-05-10T13:34:05Z</time>
      </trkpt>
      <trkpt lat="48.73097" lon="7.30994">
        <ele>359.8</ele>
        <time>2020-05-10T13:34:07Z</time>
      </trkpt>
      <trkpt lat="48.73094" lon="7.30991">
        <ele>359.5</ele>
        <time>2020-05-10T13:34:08Z</time>
      </trkpt>
      <trkpt lat="48.73087" lon="7.30987">
        <ele>358.8</ele>
        <time>2020-05-10T13:34:10Z</time>
      </trkpt>
      <trkpt lat="48.73085" lon="7.30987">
        <ele>358.5</ele>
        <time>2020-05-10T13:34:11Z</time>
      </trkpt>
      <trkpt lat="48.73083" lon="7.30987">
        <ele>358.3</ele>
        <time>2020-05-10T13:34:13Z</time>
      </trkpt>
      <trkpt lat="48.73083" lon="7.30987">
        <ele>358.3</ele>
        <time>2020-05-10T13:34:14Z</time>
      </trkpt>
      <trkpt lat="48.73083" lon="7.30987">
        <ele>358.2</ele>
        <time>2020-05-10T13:34:16Z</time>
      </trkpt>
      <trkpt lat="48.73082" lon="7.30986">
        <ele>358.1</ele>
        <time>2020-05-10T13:34:17Z</time>
      </trkpt>
      <trkpt lat="48.73081" lon="7.30985">
        <ele>357.9</ele>
        <time>2020-05-10T13:34:19Z</time>
      </trkpt>
      <trkpt lat="48.7308" lon="7.30985">
        <ele>357.8</ele>
        <time>2020-05-10T13:34:21Z</time>
      </trkpt>
      <trkpt lat="48.73081" lon="7.30986">
        <ele>357.7</ele>
        <time>2020-05-10T13:34:23Z</time>
      </trkpt>
      <trkpt lat="48.73083" lon="7.30986">
        <ele>357.5</ele>
        <time>2020-05-10T13:34:24Z</time>
      </trkpt>
      <trkpt lat="48.73085" lon="7.30985">
        <ele>357.2</ele>
        <time>2020-05-10T13:34:26Z</time>
      </trkpt>
      <trkpt lat="48.73085" lon="7.30985">
        <ele>357</ele>
        <time>2020-05-10T13:34:27Z</time>
      </trkpt>
      <trkpt lat="48.73086" lon="7.30984">
        <ele>356.9</ele>
        <time>2020-05-10T13:34:28Z</time>
      </trkpt>
      <trkpt lat="48.73087" lon="7.30984">
        <ele>356.8</ele>
        <time>2020-05-10T13:34:29Z</time>
      </trkpt>
      <trkpt lat="48.73087" lon="7.30984">
        <ele>356.8</ele>
        <time>2020-05-10T13:34:31Z</time>
      </trkpt>
      <trkpt lat="48.73086" lon="7.3098">
        <ele>356.3</ele>
        <time>2020-05-10T13:34:33Z</time>
      </trkpt>
      <trkpt lat="48.73084" lon="7.30977">
        <ele>355.9</ele>
        <time>2020-05-10T13:34:34Z</time>
      </trkpt>
      <trkpt lat="48.73081" lon="7.30975">
        <ele>355.4</ele>
        <time>2020-05-10T13:34:35Z</time>
      </trkpt>
      <trkpt lat="48.73075" lon="7.30968">
        <ele>354.1</ele>
        <time>2020-05-10T13:34:37Z</time>
      </trkpt>
      <trkpt lat="48.73064" lon="7.30959">
        <ele>351.9</ele>
        <time>2020-05-10T13:34:39Z</time>
      </trkpt>
      <trkpt lat="48.73055" lon="7.30951">
        <ele>350.1</ele>
        <time>2020-05-10T13:34:41Z</time>
      </trkpt>
      <trkpt lat="48.73049" lon="7.30938">
        <ele>348.3</ele>
        <time>2020-05-10T13:34:43Z</time>
      </trkpt>
      <trkpt lat="48.73045" lon="7.30932">
        <ele>347.4</ele>
        <time>2020-05-10T13:34:44Z</time>
      </trkpt>
      <trkpt lat="48.73039" lon="7.30926">
        <ele>346.2</ele>
        <time>2020-05-10T13:34:46Z</time>
      </trkpt>
      <trkpt lat="48.73033" lon="7.30919">
        <ele>344.9</ele>
        <time>2020-05-10T13:34:48Z</time>
      </trkpt>
      <trkpt lat="48.7303" lon="7.30915">
        <ele>344.3</ele>
        <time>2020-05-10T13:34:49Z</time>
      </trkpt>
      <trkpt lat="48.73026" lon="7.30911">
        <ele>343.5</ele>
        <time>2020-05-10T13:34:50Z</time>
      </trkpt>
      <trkpt lat="48.7302" lon="7.30903">
        <ele>342.4</ele>
        <time>2020-05-10T13:34:52Z</time>
      </trkpt>
      <trkpt lat="48.73019" lon="7.309">
        <ele>342</ele>
        <time>2020-05-10T13:34:53Z</time>
      </trkpt>
      <trkpt lat="48.73013" lon="7.30893">
        <ele>341.3</ele>
        <time>2020-05-10T13:34:56Z</time>
      </trkpt>
      <trkpt lat="48.73009" lon="7.30884">
        <ele>341</ele>
        <time>2020-05-10T13:34:57Z</time>
      </trkpt>
      <trkpt lat="48.73006" lon="7.30875">
        <ele>340.4</ele>
        <time>2020-05-10T13:34:59Z</time>
      </trkpt>
      <trkpt lat="48.73003" lon="7.30869">
        <ele>339.9</ele>
        <time>2020-05-10T13:35:01Z</time>
      </trkpt>
      <trkpt lat="48.73" lon="7.30865">
        <ele>339.4</ele>
        <time>2020-05-10T13:35:02Z</time>
      </trkpt>
      <trkpt lat="48.72998" lon="7.30863">
        <ele>339.1</ele>
        <time>2020-05-10T13:35:03Z</time>
      </trkpt>
      <trkpt lat="48.72995" lon="7.30858">
        <ele>338.5</ele>
        <time>2020-05-10T13:35:05Z</time>
      </trkpt>
      <trkpt lat="48.72991" lon="7.3085">
        <ele>337.6</ele>
        <time>2020-05-10T13:35:06Z</time>
      </trkpt>
      <trkpt lat="48.7299" lon="7.30845">
        <ele>337.2</ele>
        <time>2020-05-10T13:35:07Z</time>
      </trkpt>
      <trkpt lat="48.72985" lon="7.30834">
        <ele>336.2</ele>
        <time>2020-05-10T13:35:09Z</time>
      </trkpt>
      <trkpt lat="48.72977" lon="7.3082">
        <ele>334.8</ele>
        <time>2020-05-10T13:35:11Z</time>
      </trkpt>
      <trkpt lat="48.72975" lon="7.30816">
        <ele>334.4</ele>
        <time>2020-05-10T13:35:12Z</time>
      </trkpt>
      <trkpt lat="48.72974" lon="7.30814">
        <ele>334.2</ele>
        <time>2020-05-10T13:35:13Z</time>
      </trkpt>
      <trkpt lat="48.72972" lon="7.30807">
        <ele>333.5</ele>
        <time>2020-05-10T13:35:15Z</time>
      </trkpt>
      <trkpt lat="48.72968" lon="7.30798">
        <ele>332.6</ele>
        <time>2020-05-10T13:35:17Z</time>
      </trkpt>
      <trkpt lat="48.72966" lon="7.30794">
        <ele>332.1</ele>
        <time>2020-05-10T13:35:18Z</time>
      </trkpt>
      <trkpt lat="48.72963" lon="7.30786">
        <ele>331.2</ele>
        <time>2020-05-10T13:35:20Z</time>
      </trkpt>
      <trkpt lat="48.72962" lon="7.30781">
        <ele>330.7</ele>
        <time>2020-05-10T13:35:21Z</time>
      </trkpt>
      <trkpt lat="48.7296" lon="7.30777">
        <ele>330.3</ele>
        <time>2020-05-10T13:35:22Z</time>
      </trkpt>
      <trkpt lat="48.72957" lon="7.3077">
        <ele>329.6</ele>
        <time>2020-05-10T13:35:24Z</time>
      </trkpt>
      <trkpt lat="48.72953" lon="7.30754">
        <ele>328.2</ele>
        <time>2020-05-10T13:35:26Z</time>
      </trkpt>
      <trkpt lat="48.72949" lon="7.30749">
        <ele>327.8</ele>
        <time>2020-05-10T13:35:27Z</time>
      </trkpt>
      <trkpt lat="48.72947" lon="7.30745">
        <ele>327.4</ele>
        <time>2020-05-10T13:35:28Z</time>
      </trkpt>
      <trkpt lat="48.72944" lon="7.30733">
        <ele>325.9</ele>
        <time>2020-05-10T13:35:30Z</time>
      </trkpt>
      <trkpt lat="48.72942" lon="7.30722">
        <ele>324.3</ele>
        <time>2020-05-10T13:35:32Z</time>
      </trkpt>
      <trkpt lat="48.7294" lon="7.30718">
        <ele>323.6</ele>
        <time>2020-05-10T13:35:33Z</time>
      </trkpt>
      <trkpt lat="48.72939" lon="7.30717">
        <ele>323.4</ele>
        <time>2020-05-10T13:35:34Z</time>
      </trkpt>
      <trkpt lat="48.72937" lon="7.30714">
        <ele>322.7</ele>
        <time>2020-05-10T13:35:36Z</time>
      </trkpt>
      <trkpt lat="48.72934" lon="7.30709">
        <ele>321.5</ele>
        <time>2020-05-10T13:35:38Z</time>
      </trkpt>
      <trkpt lat="48.72932" lon="7.30706">
        <ele>320.8</ele>
        <time>2020-05-10T13:35:39Z</time>
      </trkpt>
      <trkpt lat="48.7293" lon="7.30703">
        <ele>320</ele>
        <time>2020-05-10T13:35:40Z</time>
      </trkpt>
      <trkpt lat="48.72926" lon="7.30695">
        <ele>318.4</ele>
        <time>2020-05-10T13:35:42Z</time>
      </trkpt>
      <trkpt lat="48.72925" lon="7.30691">
        <ele>317.6</ele>
        <time>2020-05-10T13:35:43Z</time>
      </trkpt>
      <trkpt lat="48.72923" lon="7.30682">
        <ele>316.2</ele>
        <time>2020-05-10T13:35:44Z</time>
      </trkpt>
      <trkpt lat="48.72921" lon="7.30668">
        <ele>313.9</ele>
        <time>2020-05-10T13:35:46Z</time>
      </trkpt>
      <trkpt lat="48.72914" lon="7.30655">
        <ele>311.7</ele>
        <time>2020-05-10T13:35:48Z</time>
      </trkpt>
      <trkpt lat="48.72912" lon="7.30651">
        <ele>311</ele>
        <time>2020-05-10T13:35:49Z</time>
      </trkpt>
      <trkpt lat="48.72906" lon="7.30641">
        <ele>309.4</ele>
        <time>2020-05-10T13:35:51Z</time>
      </trkpt>
      <trkpt lat="48.72902" lon="7.30625">
        <ele>307.3</ele>
        <time>2020-05-10T13:35:53Z</time>
      </trkpt>
      <trkpt lat="48.72899" lon="7.30619">
        <ele>306.3</ele>
        <time>2020-05-10T13:35:54Z</time>
      </trkpt>
      <trkpt lat="48.72892" lon="7.3061">
        <ele>304.6</ele>
        <time>2020-05-10T13:35:56Z</time>
      </trkpt>
      <trkpt lat="48.72889" lon="7.30603">
        <ele>303.5</ele>
        <time>2020-05-10T13:35:57Z</time>
      </trkpt>
      <trkpt lat="48.72887" lon="7.30597">
        <ele>302.5</ele>
        <time>2020-05-10T13:35:58Z</time>
      </trkpt>
      <trkpt lat="48.72885" lon="7.30592">
        <ele>301.7</ele>
        <time>2020-05-10T13:35:59Z</time>
      </trkpt>
      <trkpt lat="48.72881" lon="7.30579">
        <ele>299.5</ele>
        <time>2020-05-10T13:36:01Z</time>
      </trkpt>
      <trkpt lat="48.72879" lon="7.30576">
        <ele>298.8</ele>
        <time>2020-05-10T13:36:02Z</time>
      </trkpt>
      <trkpt lat="48.72876" lon="7.30564">
        <ele>296.8</ele>
        <time>2020-05-10T13:36:04Z</time>
      </trkpt>
      <trkpt lat="48.72872" lon="7.30551">
        <ele>294.3</ele>
        <time>2020-05-10T13:36:06Z</time>
      </trkpt>
      <trkpt lat="48.72868" lon="7.30544">
        <ele>292.8</ele>
        <time>2020-05-10T13:36:08Z</time>
      </trkpt>
      <trkpt lat="48.72867" lon="7.30531">
        <ele>290.7</ele>
        <time>2020-05-10T13:36:10Z</time>
      </trkpt>
      <trkpt lat="48.72864" lon="7.30524">
        <ele>289.1</ele>
        <time>2020-05-10T13:36:12Z</time>
      </trkpt>
      <trkpt lat="48.72861" lon="7.30514">
        <ele>287.3</ele>
        <time>2020-05-10T13:36:14Z</time>
      </trkpt>
      <trkpt lat="48.72859" lon="7.30503">
        <ele>285.3</ele>
        <time>2020-05-10T13:36:16Z</time>
      </trkpt>
      <trkpt lat="48.72855" lon="7.30493">
        <ele>283.5</ele>
        <time>2020-05-10T13:36:18Z</time>
      </trkpt>
      <trkpt lat="48.72853" lon="7.30487">
        <ele>282.4</ele>
        <time>2020-05-10T13:36:19Z</time>
      </trkpt>
      <trkpt lat="48.72846" lon="7.30475">
        <ele>280.2</ele>
        <time>2020-05-10T13:36:22Z</time>
      </trkpt>
      <trkpt lat="48.72841" lon="7.30462">
        <ele>278.3</ele>
        <time>2020-05-10T13:36:23Z</time>
      </trkpt>
      <trkpt lat="48.72835" lon="7.30452">
        <ele>276.8</ele>
        <time>2020-05-10T13:36:25Z</time>
      </trkpt>
      <trkpt lat="48.72825" lon="7.3044">
        <ele>274.6</ele>
        <time>2020-05-10T13:36:27Z</time>
      </trkpt>
      <trkpt lat="48.7282" lon="7.30429">
        <ele>273.2</ele>
        <time>2020-05-10T13:36:28Z</time>
      </trkpt>
      <trkpt lat="48.72813" lon="7.30413">
        <ele>271.1</ele>
        <time>2020-05-10T13:36:30Z</time>
      </trkpt>
      <trkpt lat="48.72807" lon="7.30402">
        <ele>269.7</ele>
        <time>2020-05-10T13:36:31Z</time>
      </trkpt>
      <trkpt lat="48.72802" lon="7.3039">
        <ele>268.3</ele>
        <time>2020-05-10T13:36:32Z</time>
      </trkpt>
      <trkpt lat="48.72793" lon="7.30373">
        <ele>266.1</ele>
        <time>2020-05-10T13:36:34Z</time>
      </trkpt>
      <trkpt lat="48.72786" lon="7.30366">
        <ele>264.8</ele>
        <time>2020-05-10T13:36:36Z</time>
      </trkpt>
      <trkpt lat="48.72778" lon="7.30353">
        <ele>262.7</ele>
        <time>2020-05-10T13:36:38Z</time>
      </trkpt>
      <trkpt lat="48.72773" lon="7.30342">
        <ele>261.2</ele>
        <time>2020-05-10T13:36:39Z</time>
      </trkpt>
      <trkpt lat="48.72764" lon="7.30321">
        <ele>258.4</ele>
        <time>2020-05-10T13:36:41Z</time>
      </trkpt>
      <trkpt lat="48.72761" lon="7.30303">
        <ele>256.3</ele>
        <time>2020-05-10T13:36:43Z</time>
      </trkpt>
      <trkpt lat="48.72759" lon="7.30295">
        <ele>255.4</ele>
        <time>2020-05-10T13:36:44Z</time>
      </trkpt>
      <trkpt lat="48.72755" lon="7.30287">
        <ele>254.2</ele>
        <time>2020-05-10T13:36:45Z</time>
      </trkpt>
      <trkpt lat="48.72748" lon="7.30276">
        <ele>252.9</ele>
        <time>2020-05-10T13:36:46Z</time>
      </trkpt>
      <trkpt lat="48.72743" lon="7.30263">
        <ele>251.6</ele>
        <time>2020-05-10T13:36:48Z</time>
      </trkpt>
      <trkpt lat="48.72739" lon="7.30256">
        <ele>250.9</ele>
        <time>2020-05-10T13:36:49Z</time>
      </trkpt>
      <trkpt lat="48.72737" lon="7.30253">
        <ele>250.5</ele>
        <time>2020-05-10T13:36:50Z</time>
      </trkpt>
      <trkpt lat="48.72736" lon="7.30249">
        <ele>250.2</ele>
        <time>2020-05-10T13:36:52Z</time>
      </trkpt>
      <trkpt lat="48.72736" lon="7.30247">
        <ele>250</ele>
        <time>2020-05-10T13:36:53Z</time>
      </trkpt>
      <trkpt lat="48.72733" lon="7.30238">
        <ele>249.3</ele>
        <time>2020-05-10T13:36:55Z</time>
      </trkpt>
      <trkpt lat="48.7273" lon="7.30234">
        <ele>249</ele>
        <time>2020-05-10T13:36:56Z</time>
      </trkpt>
      <trkpt lat="48.72723" lon="7.30226">
        <ele>247.9</ele>
        <time>2020-05-10T13:36:58Z</time>
      </trkpt>
      <trkpt lat="48.72719" lon="7.30221">
        <ele>247.2</ele>
        <time>2020-05-10T13:36:59Z</time>
      </trkpt>
      <trkpt lat="48.72712" lon="7.30212">
        <ele>245.8</ele>
        <time>2020-05-10T13:37:01Z</time>
      </trkpt>
      <trkpt lat="48.72708" lon="7.30202">
        <ele>244.6</ele>
        <time>2020-05-10T13:37:03Z</time>
      </trkpt>
      <trkpt lat="48.72708" lon="7.30198">
        <ele>244.1</ele>
        <time>2020-05-10T13:37:04Z</time>
      </trkpt>
      <trkpt lat="48.72707" lon="7.3019">
        <ele>243.5</ele>
        <time>2020-05-10T13:37:06Z</time>
      </trkpt>
      <trkpt lat="48.72706" lon="7.30185">
        <ele>243.3</ele>
        <time>2020-05-10T13:37:07Z</time>
      </trkpt>
      <trkpt lat="48.72706" lon="7.30175">
        <ele>242.8</ele>
        <time>2020-05-10T13:37:09Z</time>
      </trkpt>
      <trkpt lat="48.72705" lon="7.30167">
        <ele>242.5</ele>
        <time>2020-05-10T13:37:10Z</time>
      </trkpt>
      <trkpt lat="48.72704" lon="7.30157">
        <ele>241.8</ele>
        <time>2020-05-10T13:37:12Z</time>
      </trkpt>
      <trkpt lat="48.72704" lon="7.30151">
        <ele>241.7</ele>
        <time>2020-05-10T13:37:13Z</time>
      </trkpt>
      <trkpt lat="48.72705" lon="7.3014">
        <ele>240.7</ele>
        <time>2020-05-10T13:37:15Z</time>
      </trkpt>
      <trkpt lat="48.72703" lon="7.30129">
        <ele>240</ele>
        <time>2020-05-10T13:37:17Z</time>
      </trkpt>
      <trkpt lat="48.72703" lon="7.30118">
        <ele>238.5</ele>
        <time>2020-05-10T13:37:19Z</time>
      </trkpt>
      <trkpt lat="48.72703" lon="7.30113">
        <ele>238.2</ele>
        <time>2020-05-10T13:37:20Z</time>
      </trkpt>
      <trkpt lat="48.72704" lon="7.30105">
        <ele>237.2</ele>
        <time>2020-05-10T13:37:22Z</time>
      </trkpt>
      <trkpt lat="48.72704" lon="7.30099">
        <ele>236.9</ele>
        <time>2020-05-10T13:37:23Z</time>
      </trkpt>
      <trkpt lat="48.72704" lon="7.30097">
        <ele>236.6</ele>
        <time>2020-05-10T13:37:24Z</time>
      </trkpt>
      <trkpt lat="48.72704" lon="7.30086">
        <ele>235.7</ele>
        <time>2020-05-10T13:37:26Z</time>
      </trkpt>
      <trkpt lat="48.72704" lon="7.30083">
        <ele>235.5</ele>
        <time>2020-05-10T13:37:27Z</time>
      </trkpt>
      <trkpt lat="48.72704" lon="7.3008">
        <ele>235.3</ele>
        <time>2020-05-10T13:37:29Z</time>
      </trkpt>
      <trkpt lat="48.72704" lon="7.30079">
        <ele>235.7</ele>
        <time>2020-05-10T13:37:31Z</time>
      </trkpt>
      <trkpt lat="48.72704" lon="7.30079">
        <ele>236</ele>
        <time>2020-05-10T13:37:32Z</time>
      </trkpt>
      <trkpt lat="48.72705" lon="7.30078">
        <ele>236.4</ele>
        <time>2020-05-10T13:37:33Z</time>
      </trkpt>
      <trkpt lat="48.72705" lon="7.30078">
        <ele>236.7</ele>
        <time>2020-05-10T13:37:35Z</time>
      </trkpt>
      <trkpt lat="48.72706" lon="7.30078">
        <ele>237.1</ele>
        <time>2020-05-10T13:37:37Z</time>
      </trkpt>
      <trkpt lat="48.72706" lon="7.30076">
        <ele>237.4</ele>
        <time>2020-05-10T13:37:38Z</time>
      </trkpt>
      <trkpt lat="48.72707" lon="7.30075">
        <ele>237.3</ele>
        <time>2020-05-10T13:37:40Z</time>
      </trkpt>
      <trkpt lat="48.72707" lon="7.30072">
        <ele>237.6</ele>
        <time>2020-05-10T13:37:42Z</time>
      </trkpt>
    </trkseg>
  </trk>
  <trk>
    <name><![CDATA[secteur Saverne - Dabo - Petite Pierre_37]]></name>
    <trkseg>
      <trkpt lat="48.74208" lon="7.36277">
        <ele>198.2</ele>
        <time>2020-05-26T18:26:26Z</time>
      </trkpt>
      <trkpt lat="48.74208" lon="7.36277">
        <ele>198.2</ele>
        <time>2020-05-26T18:26:26Z</time>
      </trkpt>
      <trkpt lat="48.74208" lon="7.36277">
        <ele>198.2</ele>
        <time>2020-05-26T18:26:26Z</time>
      </trkpt>
      <trkpt lat="48.74208" lon="7.36277">
        <ele>198.2</ele>
        <time>2020-05-26T18:26:26Z</time>
      </trkpt>
      <trkpt lat="48.74208" lon="7.36277">
        <ele>198.2</ele>
        <time>2020-05-26T18:26:26Z</time>
      </trkpt>
      <trkpt lat="48.74206" lon="7.3627">
        <ele>198.3</ele>
        <time>2020-05-26T18:26:24Z</time>
      </trkpt>
      <trkpt lat="48.74201" lon="7.36263">
        <ele>199.2</ele>
        <time>2020-05-26T18:26:21Z</time>
      </trkpt>
      <trkpt lat="48.74195" lon="7.36253">
        <ele>200.4</ele>
        <time>2020-05-26T18:26:19Z</time>
      </trkpt>
      <trkpt lat="48.74191" lon="7.36246">
        <ele>201</ele>
        <time>2020-05-26T18:26:16Z</time>
      </trkpt>
      <trkpt lat="48.74187" lon="7.36241">
        <ele>201.3</ele>
        <time>2020-05-26T18:26:15Z</time>
      </trkpt>
      <trkpt lat="48.74178" lon="7.36234">
        <ele>202.5</ele>
        <time>2020-05-26T18:26:13Z</time>
      </trkpt>
      <trkpt lat="48.74167" lon="7.36231">
        <ele>203.9</ele>
        <time>2020-05-26T18:26:11Z</time>
      </trkpt>
      <trkpt lat="48.74158" lon="7.36231">
        <ele>205.4</ele>
        <time>2020-05-26T18:26:09Z</time>
      </trkpt>
      <trkpt lat="48.7415" lon="7.36237">
        <ele>207</ele>
        <time>2020-05-26T18:26:07Z</time>
      </trkpt>
      <trkpt lat="48.74136" lon="7.36257">
        <ele>207.2</ele>
        <time>2020-05-26T18:26:05Z</time>
      </trkpt>
      <trkpt lat="48.74131" lon="7.36267">
        <ele>208.4</ele>
        <time>2020-05-26T18:26:02Z</time>
      </trkpt>
      <trkpt lat="48.74123" lon="7.36283">
        <ele>207.6</ele>
        <time>2020-05-26T18:26:00Z</time>
      </trkpt>
      <trkpt lat="48.7412" lon="7.3629">
        <ele>208.1</ele>
        <time>2020-05-26T18:25:59Z</time>
      </trkpt>
      <trkpt lat="48.74114" lon="7.36305">
        <ele>208.1</ele>
        <time>2020-05-26T18:25:57Z</time>
      </trkpt>
      <trkpt lat="48.74108" lon="7.36318">
        <ele>208.8</ele>
        <time>2020-05-26T18:25:55Z</time>
      </trkpt>
      <trkpt lat="48.74101" lon="7.36329">
        <ele>208.5</ele>
        <time>2020-05-26T18:25:53Z</time>
      </trkpt>
      <trkpt lat="48.74095" lon="7.36339">
        <ele>208</ele>
        <time>2020-05-26T18:25:51Z</time>
      </trkpt>
      <trkpt lat="48.7409" lon="7.36346">
        <ele>207.3</ele>
        <time>2020-05-26T18:25:49Z</time>
      </trkpt>
      <trkpt lat="48.74087" lon="7.3635">
        <ele>206.2</ele>
        <time>2020-05-26T18:25:47Z</time>
      </trkpt>
      <trkpt lat="48.74081" lon="7.3635">
        <ele>205.4</ele>
        <time>2020-05-26T18:25:45Z</time>
      </trkpt>
      <trkpt lat="48.74074" lon="7.36344">
        <ele>204.7</ele>
        <time>2020-05-26T18:25:43Z</time>
      </trkpt>
      <trkpt lat="48.74066" lon="7.36335">
        <ele>204.2</ele>
        <time>2020-05-26T18:25:41Z</time>
      </trkpt>
      <trkpt lat="48.74057" lon="7.36327">
        <ele>204.5</ele>
        <time>2020-05-26T18:25:39Z</time>
      </trkpt>
      <trkpt lat="48.74048" lon="7.36317">
        <ele>204.8</ele>
        <time>2020-05-26T18:25:37Z</time>
      </trkpt>
      <trkpt lat="48.7404" lon="7.36308">
        <ele>205.2</ele>
        <time>2020-05-26T18:25:35Z</time>
      </trkpt>
      <trkpt lat="48.74033" lon="7.36299">
        <ele>205.7</ele>
        <time>2020-05-26T18:25:33Z</time>
      </trkpt>
      <trkpt lat="48.74024" lon="7.3629">
        <ele>205.6</ele>
        <time>2020-05-26T18:25:31Z</time>
      </trkpt>
      <trkpt lat="48.74015" lon="7.36281">
        <ele>205.7</ele>
        <time>2020-05-26T18:25:29Z</time>
      </trkpt>
      <trkpt lat="48.74006" lon="7.36274">
        <ele>209.2</ele>
        <time>2020-05-26T18:25:27Z</time>
      </trkpt>
      <trkpt lat="48.73997" lon="7.36268">
        <ele>209.5</ele>
        <time>2020-05-26T18:25:25Z</time>
      </trkpt>
      <trkpt lat="48.73988" lon="7.36261">
        <ele>209.8</ele>
        <time>2020-05-26T18:25:23Z</time>
      </trkpt>
      <trkpt lat="48.73981" lon="7.36254">
        <ele>210.1</ele>
        <time>2020-05-26T18:25:21Z</time>
      </trkpt>
      <trkpt lat="48.73973" lon="7.36247">
        <ele>210.2</ele>
        <time>2020-05-26T18:25:19Z</time>
      </trkpt>
      <trkpt lat="48.73966" lon="7.36234">
        <ele>210</ele>
        <time>2020-05-26T18:25:17Z</time>
      </trkpt>
      <trkpt lat="48.73963" lon="7.36226">
        <ele>209.7</ele>
        <time>2020-05-26T18:25:13Z</time>
      </trkpt>
      <trkpt lat="48.73958" lon="7.3622">
        <ele>208.7</ele>
        <time>2020-05-26T18:25:11Z</time>
      </trkpt>
      <trkpt lat="48.73952" lon="7.36215">
        <ele>208.3</ele>
        <time>2020-05-26T18:25:09Z</time>
      </trkpt>
      <trkpt lat="48.73946" lon="7.36206">
        <ele>208</ele>
        <time>2020-05-26T18:25:07Z</time>
      </trkpt>
      <trkpt lat="48.73942" lon="7.36192">
        <ele>208.1</ele>
        <time>2020-05-26T18:25:05Z</time>
      </trkpt>
      <trkpt lat="48.73941" lon="7.36175">
        <ele>208.2</ele>
        <time>2020-05-26T18:25:03Z</time>
      </trkpt>
      <trkpt lat="48.7394" lon="7.36159">
        <ele>208.4</ele>
        <time>2020-05-26T18:25:01Z</time>
      </trkpt>
      <trkpt lat="48.73937" lon="7.36142">
        <ele>209.1</ele>
        <time>2020-05-26T18:24:59Z</time>
      </trkpt>
      <trkpt lat="48.73934" lon="7.36126">
        <ele>209.9</ele>
        <time>2020-05-26T18:24:57Z</time>
      </trkpt>
      <trkpt lat="48.73933" lon="7.36111">
        <ele>210.4</ele>
        <time>2020-05-26T18:24:55Z</time>
      </trkpt>
      <trkpt lat="48.73932" lon="7.36097">
        <ele>211.5</ele>
        <time>2020-05-26T18:24:53Z</time>
      </trkpt>
      <trkpt lat="48.73932" lon="7.36086">
        <ele>212</ele>
        <time>2020-05-26T18:24:51Z</time>
      </trkpt>
      <trkpt lat="48.7393" lon="7.36078">
        <ele>212.9</ele>
        <time>2020-05-26T18:24:49Z</time>
      </trkpt>
      <trkpt lat="48.73924" lon="7.36068">
        <ele>214.6</ele>
        <time>2020-05-26T18:24:47Z</time>
      </trkpt>
      <trkpt lat="48.73913" lon="7.36055">
        <ele>215.7</ele>
        <time>2020-05-26T18:24:45Z</time>
      </trkpt>
      <trkpt lat="48.73899" lon="7.3604">
        <ele>216.6</ele>
        <time>2020-05-26T18:24:43Z</time>
      </trkpt>
      <trkpt lat="48.73884" lon="7.36024">
        <ele>217.6</ele>
        <time>2020-05-26T18:24:41Z</time>
      </trkpt>
      <trkpt lat="48.7387" lon="7.36006">
        <ele>218.6</ele>
        <time>2020-05-26T18:24:39Z</time>
      </trkpt>
      <trkpt lat="48.73855" lon="7.3599">
        <ele>219.2</ele>
        <time>2020-05-26T18:24:37Z</time>
      </trkpt>
      <trkpt lat="48.73841" lon="7.35972">
        <ele>220.2</ele>
        <time>2020-05-26T18:24:35Z</time>
      </trkpt>
      <trkpt lat="48.73829" lon="7.35956">
        <ele>221.5</ele>
        <time>2020-05-26T18:24:33Z</time>
      </trkpt>
      <trkpt lat="48.73806" lon="7.35918">
        <ele>224.6</ele>
        <time>2020-05-26T18:24:31Z</time>
      </trkpt>
      <trkpt lat="48.73794" lon="7.35892">
        <ele>226.4</ele>
        <time>2020-05-26T18:24:27Z</time>
      </trkpt>
      <trkpt lat="48.73787" lon="7.3587">
        <ele>227.3</ele>
        <time>2020-05-26T18:24:25Z</time>
      </trkpt>
      <trkpt lat="48.73781" lon="7.35847">
        <ele>228.4</ele>
        <time>2020-05-26T18:24:23Z</time>
      </trkpt>
      <trkpt lat="48.73777" lon="7.35823">
        <ele>229</ele>
        <time>2020-05-26T18:24:21Z</time>
      </trkpt>
      <trkpt lat="48.73772" lon="7.35801">
        <ele>230</ele>
        <time>2020-05-26T18:24:19Z</time>
      </trkpt>
      <trkpt lat="48.73763" lon="7.35783">
        <ele>230.8</ele>
        <time>2020-05-26T18:24:17Z</time>
      </trkpt>
      <trkpt lat="48.7375" lon="7.35775">
        <ele>231.5</ele>
        <time>2020-05-26T18:24:15Z</time>
      </trkpt>
      <trkpt lat="48.73736" lon="7.35776">
        <ele>232.8</ele>
        <time>2020-05-26T18:24:13Z</time>
      </trkpt>
      <trkpt lat="48.73722" lon="7.35785">
        <ele>234.3</ele>
        <time>2020-05-26T18:24:11Z</time>
      </trkpt>
      <trkpt lat="48.73708" lon="7.358">
        <ele>235.4</ele>
        <time>2020-05-26T18:24:09Z</time>
      </trkpt>
      <trkpt lat="48.73695" lon="7.35816">
        <ele>236.6</ele>
        <time>2020-05-26T18:24:07Z</time>
      </trkpt>
      <trkpt lat="48.73681" lon="7.35831">
        <ele>238</ele>
        <time>2020-05-26T18:24:05Z</time>
      </trkpt>
      <trkpt lat="48.73666" lon="7.35845">
        <ele>239.2</ele>
        <time>2020-05-26T18:24:03Z</time>
      </trkpt>
      <trkpt lat="48.73651" lon="7.35856">
        <ele>240.7</ele>
        <time>2020-05-26T18:24:01Z</time>
      </trkpt>
      <trkpt lat="48.73634" lon="7.35862">
        <ele>241.7</ele>
        <time>2020-05-26T18:23:59Z</time>
      </trkpt>
      <trkpt lat="48.73617" lon="7.35865">
        <ele>242.6</ele>
        <time>2020-05-26T18:23:57Z</time>
      </trkpt>
      <trkpt lat="48.73601" lon="7.35863">
        <ele>244</ele>
        <time>2020-05-26T18:23:55Z</time>
      </trkpt>
      <trkpt lat="48.73586" lon="7.35854">
        <ele>244.6</ele>
        <time>2020-05-26T18:23:53Z</time>
      </trkpt>
      <trkpt lat="48.73574" lon="7.35841">
        <ele>245</ele>
        <time>2020-05-26T18:23:51Z</time>
      </trkpt>
      <trkpt lat="48.73562" lon="7.35827">
        <ele>245.1</ele>
        <time>2020-05-26T18:23:49Z</time>
      </trkpt>
      <trkpt lat="48.73551" lon="7.35811">
        <ele>245.4</ele>
        <time>2020-05-26T18:23:47Z</time>
      </trkpt>
      <trkpt lat="48.7354" lon="7.35794">
        <ele>246.3</ele>
        <time>2020-05-26T18:23:45Z</time>
      </trkpt>
      <trkpt lat="48.7353" lon="7.35778">
        <ele>246.7</ele>
        <time>2020-05-26T18:23:43Z</time>
      </trkpt>
      <trkpt lat="48.73521" lon="7.35761">
        <ele>246.7</ele>
        <time>2020-05-26T18:23:41Z</time>
      </trkpt>
      <trkpt lat="48.73512" lon="7.35743">
        <ele>246.9</ele>
        <time>2020-05-26T18:23:39Z</time>
      </trkpt>
      <trkpt lat="48.73505" lon="7.35725">
        <ele>246.9</ele>
        <time>2020-05-26T18:23:37Z</time>
      </trkpt>
      <trkpt lat="48.73499" lon="7.35707">
        <ele>247.1</ele>
        <time>2020-05-26T18:23:35Z</time>
      </trkpt>
      <trkpt lat="48.73492" lon="7.35688">
        <ele>246.9</ele>
        <time>2020-05-26T18:23:33Z</time>
      </trkpt>
      <trkpt lat="48.73485" lon="7.3567">
        <ele>247.4</ele>
        <time>2020-05-26T18:23:31Z</time>
      </trkpt>
      <trkpt lat="48.73478" lon="7.35651">
        <ele>248.1</ele>
        <time>2020-05-26T18:23:29Z</time>
      </trkpt>
      <trkpt lat="48.73472" lon="7.35632">
        <ele>249</ele>
        <time>2020-05-26T18:23:27Z</time>
      </trkpt>
      <trkpt lat="48.73466" lon="7.35613">
        <ele>249.5</ele>
        <time>2020-05-26T18:23:25Z</time>
      </trkpt>
      <trkpt lat="48.73458" lon="7.35594">
        <ele>249.8</ele>
        <time>2020-05-26T18:23:23Z</time>
      </trkpt>
      <trkpt lat="48.73452" lon="7.35574">
        <ele>250.2</ele>
        <time>2020-05-26T18:23:21Z</time>
      </trkpt>
      <trkpt lat="48.73446" lon="7.35556">
        <ele>250.3</ele>
        <time>2020-05-26T18:23:19Z</time>
      </trkpt>
      <trkpt lat="48.7344" lon="7.35537">
        <ele>250.5</ele>
        <time>2020-05-26T18:23:17Z</time>
      </trkpt>
      <trkpt lat="48.73434" lon="7.35519">
        <ele>250.2</ele>
        <time>2020-05-26T18:23:15Z</time>
      </trkpt>
      <trkpt lat="48.73428" lon="7.355">
        <ele>250.3</ele>
        <time>2020-05-26T18:23:13Z</time>
      </trkpt>
      <trkpt lat="48.73422" lon="7.35481">
        <ele>250.6</ele>
        <time>2020-05-26T18:23:11Z</time>
      </trkpt>
      <trkpt lat="48.73416" lon="7.35461">
        <ele>250.9</ele>
        <time>2020-05-26T18:23:09Z</time>
      </trkpt>
      <trkpt lat="48.7341" lon="7.35441">
        <ele>251.1</ele>
        <time>2020-05-26T18:23:07Z</time>
      </trkpt>
      <trkpt lat="48.73403" lon="7.35421">
        <ele>251.1</ele>
        <time>2020-05-26T18:23:05Z</time>
      </trkpt>
      <trkpt lat="48.73397" lon="7.35401">
        <ele>251.3</ele>
        <time>2020-05-26T18:23:03Z</time>
      </trkpt>
      <trkpt lat="48.73392" lon="7.3538">
        <ele>251.3</ele>
        <time>2020-05-26T18:23:01Z</time>
      </trkpt>
      <trkpt lat="48.73387" lon="7.3536">
        <ele>251.6</ele>
        <time>2020-05-26T18:22:59Z</time>
      </trkpt>
      <trkpt lat="48.73382" lon="7.35338">
        <ele>252</ele>
        <time>2020-05-26T18:22:57Z</time>
      </trkpt>
      <trkpt lat="48.73378" lon="7.35315">
        <ele>252.7</ele>
        <time>2020-05-26T18:22:55Z</time>
      </trkpt>
      <trkpt lat="48.73373" lon="7.35292">
        <ele>253.6</ele>
        <time>2020-05-26T18:22:53Z</time>
      </trkpt>
      <trkpt lat="48.7337" lon="7.35267">
        <ele>254.7</ele>
        <time>2020-05-26T18:22:51Z</time>
      </trkpt>
      <trkpt lat="48.73368" lon="7.35241">
        <ele>255.7</ele>
        <time>2020-05-26T18:22:49Z</time>
      </trkpt>
      <trkpt lat="48.73367" lon="7.35215">
        <ele>257.4</ele>
        <time>2020-05-26T18:22:47Z</time>
      </trkpt>
      <trkpt lat="48.73367" lon="7.35187">
        <ele>258.9</ele>
        <time>2020-05-26T18:22:45Z</time>
      </trkpt>
      <trkpt lat="48.73367" lon="7.35157">
        <ele>260.4</ele>
        <time>2020-05-26T18:22:43Z</time>
      </trkpt>
      <trkpt lat="48.73366" lon="7.35125">
        <ele>261.9</ele>
        <time>2020-05-26T18:22:41Z</time>
      </trkpt>
      <trkpt lat="48.73365" lon="7.35092">
        <ele>263.6</ele>
        <time>2020-05-26T18:22:39Z</time>
      </trkpt>
      <trkpt lat="48.73365" lon="7.35059">
        <ele>265.6</ele>
        <time>2020-05-26T18:22:37Z</time>
      </trkpt>
      <trkpt lat="48.73366" lon="7.35028">
        <ele>267.9</ele>
        <time>2020-05-26T18:22:35Z</time>
      </trkpt>
      <trkpt lat="48.73368" lon="7.34996">
        <ele>269.8</ele>
        <time>2020-05-26T18:22:33Z</time>
      </trkpt>
      <trkpt lat="48.7337" lon="7.34967">
        <ele>271.2</ele>
        <time>2020-05-26T18:22:31Z</time>
      </trkpt>
      <trkpt lat="48.73376" lon="7.3494">
        <ele>272.9</ele>
        <time>2020-05-26T18:22:29Z</time>
      </trkpt>
      <trkpt lat="48.73384" lon="7.34917">
        <ele>274.3</ele>
        <time>2020-05-26T18:22:27Z</time>
      </trkpt>
      <trkpt lat="48.7339" lon="7.34896">
        <ele>275.6</ele>
        <time>2020-05-26T18:22:25Z</time>
      </trkpt>
      <trkpt lat="48.73395" lon="7.34874">
        <ele>276.8</ele>
        <time>2020-05-26T18:22:23Z</time>
      </trkpt>
      <trkpt lat="48.73395" lon="7.34853">
        <ele>277.3</ele>
        <time>2020-05-26T18:22:21Z</time>
      </trkpt>
      <trkpt lat="48.73391" lon="7.34834">
        <ele>277.1</ele>
        <time>2020-05-26T18:22:19Z</time>
      </trkpt>
      <trkpt lat="48.73384" lon="7.34819">
        <ele>277</ele>
        <time>2020-05-26T18:22:17Z</time>
      </trkpt>
      <trkpt lat="48.73374" lon="7.34806">
        <ele>276.6</ele>
        <time>2020-05-26T18:22:15Z</time>
      </trkpt>
      <trkpt lat="48.73364" lon="7.34797">
        <ele>276.8</ele>
        <time>2020-05-26T18:22:13Z</time>
      </trkpt>
      <trkpt lat="48.73356" lon="7.34792">
        <ele>276.7</ele>
        <time>2020-05-26T18:22:11Z</time>
      </trkpt>
      <trkpt lat="48.73348" lon="7.34789">
        <ele>276.6</ele>
        <time>2020-05-26T18:22:09Z</time>
      </trkpt>
      <trkpt lat="48.73342" lon="7.34786">
        <ele>289.2</ele>
        <time>2020-05-26T18:22:07Z</time>
      </trkpt>
      <trkpt lat="48.73334" lon="7.34781">
        <ele>289.1</ele>
        <time>2020-05-26T18:22:05Z</time>
      </trkpt>
      <trkpt lat="48.73324" lon="7.3477">
        <ele>289.5</ele>
        <time>2020-05-26T18:22:03Z</time>
      </trkpt>
      <trkpt lat="48.73315" lon="7.34757">
        <ele>290.5</ele>
        <time>2020-05-26T18:22:01Z</time>
      </trkpt>
      <trkpt lat="48.73306" lon="7.34746">
        <ele>292.1</ele>
        <time>2020-05-26T18:21:59Z</time>
      </trkpt>
      <trkpt lat="48.73298" lon="7.34735">
        <ele>293.3</ele>
        <time>2020-05-26T18:21:57Z</time>
      </trkpt>
      <trkpt lat="48.73293" lon="7.34727">
        <ele>294.8</ele>
        <time>2020-05-26T18:21:55Z</time>
      </trkpt>
      <trkpt lat="48.73287" lon="7.34719">
        <ele>296.1</ele>
        <time>2020-05-26T18:21:53Z</time>
      </trkpt>
      <trkpt lat="48.73281" lon="7.34716">
        <ele>297.5</ele>
        <time>2020-05-26T18:21:51Z</time>
      </trkpt>
      <trkpt lat="48.73273" lon="7.3471">
        <ele>299.3</ele>
        <time>2020-05-26T18:21:49Z</time>
      </trkpt>
      <trkpt lat="48.73267" lon="7.34703">
        <ele>301</ele>
        <time>2020-05-26T18:21:47Z</time>
      </trkpt>
      <trkpt lat="48.73259" lon="7.34695">
        <ele>303.3</ele>
        <time>2020-05-26T18:21:45Z</time>
      </trkpt>
      <trkpt lat="48.73247" lon="7.34687">
        <ele>304.7</ele>
        <time>2020-05-26T18:21:43Z</time>
      </trkpt>
      <trkpt lat="48.73236" lon="7.34682">
        <ele>306.5</ele>
        <time>2020-05-26T18:21:41Z</time>
      </trkpt>
      <trkpt lat="48.73226" lon="7.34675">
        <ele>308.1</ele>
        <time>2020-05-26T18:21:39Z</time>
      </trkpt>
      <trkpt lat="48.73217" lon="7.34664">
        <ele>309.1</ele>
        <time>2020-05-26T18:21:37Z</time>
      </trkpt>
      <trkpt lat="48.73208" lon="7.34656">
        <ele>311</ele>
        <time>2020-05-26T18:21:35Z</time>
      </trkpt>
      <trkpt lat="48.73202" lon="7.34648">
        <ele>312.9</ele>
        <time>2020-05-26T18:21:33Z</time>
      </trkpt>
      <trkpt lat="48.73197" lon="7.34641">
        <ele>314.9</ele>
        <time>2020-05-26T18:21:31Z</time>
      </trkpt>
      <trkpt lat="48.73192" lon="7.34633">
        <ele>315.6</ele>
        <time>2020-05-26T18:21:29Z</time>
      </trkpt>
      <trkpt lat="48.73187" lon="7.34627">
        <ele>315.7</ele>
        <time>2020-05-26T18:21:27Z</time>
      </trkpt>
      <trkpt lat="48.7318" lon="7.34623">
        <ele>316.3</ele>
        <time>2020-05-26T18:21:25Z</time>
      </trkpt>
      <trkpt lat="48.73169" lon="7.34621">
        <ele>316.6</ele>
        <time>2020-05-26T18:21:23Z</time>
      </trkpt>
      <trkpt lat="48.73158" lon="7.34616">
        <ele>316.3</ele>
        <time>2020-05-26T18:21:21Z</time>
      </trkpt>
      <trkpt lat="48.73147" lon="7.34609">
        <ele>316.3</ele>
        <time>2020-05-26T18:21:19Z</time>
      </trkpt>
      <trkpt lat="48.73138" lon="7.34604">
        <ele>315.5</ele>
        <time>2020-05-26T18:21:17Z</time>
      </trkpt>
      <trkpt lat="48.73131" lon="7.34599">
        <ele>314.4</ele>
        <time>2020-05-26T18:21:15Z</time>
      </trkpt>
      <trkpt lat="48.73124" lon="7.34593">
        <ele>312.4</ele>
        <time>2020-05-26T18:21:13Z</time>
      </trkpt>
      <trkpt lat="48.73118" lon="7.34587">
        <ele>310.9</ele>
        <time>2020-05-26T18:21:11Z</time>
      </trkpt>
      <trkpt lat="48.73111" lon="7.34581">
        <ele>310.5</ele>
        <time>2020-05-26T18:21:09Z</time>
      </trkpt>
      <trkpt lat="48.73105" lon="7.34576">
        <ele>309.4</ele>
        <time>2020-05-26T18:21:07Z</time>
      </trkpt>
      <trkpt lat="48.73099" lon="7.34569">
        <ele>307.3</ele>
        <time>2020-05-26T18:21:05Z</time>
      </trkpt>
      <trkpt lat="48.73091" lon="7.34559">
        <ele>309.2</ele>
        <time>2020-05-26T18:21:03Z</time>
      </trkpt>
      <trkpt lat="48.73081" lon="7.34548">
        <ele>309.6</ele>
        <time>2020-05-26T18:21:01Z</time>
      </trkpt>
      <trkpt lat="48.73068" lon="7.34534">
        <ele>334.1</ele>
        <time>2020-05-26T18:20:59Z</time>
      </trkpt>
      <trkpt lat="48.73059" lon="7.3452">
        <ele>335.1</ele>
        <time>2020-05-26T18:20:57Z</time>
      </trkpt>
      <trkpt lat="48.73052" lon="7.34505">
        <ele>336.3</ele>
        <time>2020-05-26T18:20:55Z</time>
      </trkpt>
      <trkpt lat="48.73046" lon="7.34494">
        <ele>337.7</ele>
        <time>2020-05-26T18:20:53Z</time>
      </trkpt>
      <trkpt lat="48.73037" lon="7.34483">
        <ele>337.2</ele>
        <time>2020-05-26T18:20:51Z</time>
      </trkpt>
      <trkpt lat="48.73031" lon="7.34477">
        <ele>337.4</ele>
        <time>2020-05-26T18:20:49Z</time>
      </trkpt>
      <trkpt lat="48.73025" lon="7.34472">
        <ele>336.3</ele>
        <time>2020-05-26T18:20:47Z</time>
      </trkpt>
      <trkpt lat="48.73019" lon="7.34467">
        <ele>336</ele>
        <time>2020-05-26T18:20:45Z</time>
      </trkpt>
      <trkpt lat="48.73012" lon="7.3446">
        <ele>335.8</ele>
        <time>2020-05-26T18:20:43Z</time>
      </trkpt>
      <trkpt lat="48.73004" lon="7.34452">
        <ele>335.5</ele>
        <time>2020-05-26T18:20:41Z</time>
      </trkpt>
      <trkpt lat="48.72994" lon="7.34448">
        <ele>336.1</ele>
        <time>2020-05-26T18:20:39Z</time>
      </trkpt>
      <trkpt lat="48.72984" lon="7.34448">
        <ele>336.5</ele>
        <time>2020-05-26T18:20:37Z</time>
      </trkpt>
      <trkpt lat="48.72973" lon="7.34451">
        <ele>336.2</ele>
        <time>2020-05-26T18:20:35Z</time>
      </trkpt>
      <trkpt lat="48.72965" lon="7.34453">
        <ele>337.1</ele>
        <time>2020-05-26T18:20:33Z</time>
      </trkpt>
      <trkpt lat="48.72958" lon="7.34453">
        <ele>337.5</ele>
        <time>2020-05-26T18:20:31Z</time>
      </trkpt>
      <trkpt lat="48.7295" lon="7.34452">
        <ele>341.2</ele>
        <time>2020-05-26T18:20:29Z</time>
      </trkpt>
      <trkpt lat="48.7294" lon="7.34446">
        <ele>344.4</ele>
        <time>2020-05-26T18:20:27Z</time>
      </trkpt>
      <trkpt lat="48.72931" lon="7.34439">
        <ele>361.8</ele>
        <time>2020-05-26T18:20:25Z</time>
      </trkpt>
      <trkpt lat="48.72921" lon="7.34429">
        <ele>365.1</ele>
        <time>2020-05-26T18:20:23Z</time>
      </trkpt>
      <trkpt lat="48.72907" lon="7.34419">
        <ele>368.3</ele>
        <time>2020-05-26T18:20:21Z</time>
      </trkpt>
      <trkpt lat="48.72895" lon="7.3441">
        <ele>371.8</ele>
        <time>2020-05-26T18:20:19Z</time>
      </trkpt>
      <trkpt lat="48.72882" lon="7.34401">
        <ele>374.4</ele>
        <time>2020-05-26T18:20:17Z</time>
      </trkpt>
      <trkpt lat="48.72869" lon="7.34396">
        <ele>377.1</ele>
        <time>2020-05-26T18:20:15Z</time>
      </trkpt>
      <trkpt lat="48.72858" lon="7.34388">
        <ele>380.1</ele>
        <time>2020-05-26T18:20:13Z</time>
      </trkpt>
      <trkpt lat="48.72846" lon="7.34377">
        <ele>381.6</ele>
        <time>2020-05-26T18:20:11Z</time>
      </trkpt>
      <trkpt lat="48.72832" lon="7.34365">
        <ele>374.5</ele>
        <time>2020-05-26T18:20:09Z</time>
      </trkpt>
      <trkpt lat="48.72819" lon="7.34355">
        <ele>375.9</ele>
        <time>2020-05-26T18:20:07Z</time>
      </trkpt>
      <trkpt lat="48.72807" lon="7.34346">
        <ele>377.5</ele>
        <time>2020-05-26T18:20:05Z</time>
      </trkpt>
      <trkpt lat="48.72795" lon="7.34338">
        <ele>379.8</ele>
        <time>2020-05-26T18:20:03Z</time>
      </trkpt>
      <trkpt lat="48.72785" lon="7.34329">
        <ele>381.6</ele>
        <time>2020-05-26T18:20:01Z</time>
      </trkpt>
      <trkpt lat="48.72776" lon="7.34321">
        <ele>383.5</ele>
        <time>2020-05-26T18:19:59Z</time>
      </trkpt>
      <trkpt lat="48.72769" lon="7.3431">
        <ele>384.7</ele>
        <time>2020-05-26T18:19:57Z</time>
      </trkpt>
      <trkpt lat="48.72763" lon="7.34301">
        <ele>387.5</ele>
        <time>2020-05-26T18:19:55Z</time>
      </trkpt>
      <trkpt lat="48.72757" lon="7.3429">
        <ele>388.9</ele>
        <time>2020-05-26T18:19:53Z</time>
      </trkpt>
      <trkpt lat="48.72752" lon="7.34278">
        <ele>390.6</ele>
        <time>2020-05-26T18:19:51Z</time>
      </trkpt>
      <trkpt lat="48.72745" lon="7.34266">
        <ele>392.1</ele>
        <time>2020-05-26T18:19:49Z</time>
      </trkpt>
      <trkpt lat="48.72738" lon="7.34255">
        <ele>392.4</ele>
        <time>2020-05-26T18:19:47Z</time>
      </trkpt>
      <trkpt lat="48.72732" lon="7.34248">
        <ele>393.7</ele>
        <time>2020-05-26T18:19:45Z</time>
      </trkpt>
      <trkpt lat="48.72726" lon="7.34239">
        <ele>394.2</ele>
        <time>2020-05-26T18:19:43Z</time>
      </trkpt>
      <trkpt lat="48.72717" lon="7.34225">
        <ele>395.2</ele>
        <time>2020-05-26T18:19:41Z</time>
      </trkpt>
      <trkpt lat="48.72708" lon="7.34211">
        <ele>396.9</ele>
        <time>2020-05-26T18:19:39Z</time>
      </trkpt>
      <trkpt lat="48.727" lon="7.34198">
        <ele>399.6</ele>
        <time>2020-05-26T18:19:37Z</time>
      </trkpt>
      <trkpt lat="48.72692" lon="7.34184">
        <ele>401.6</ele>
        <time>2020-05-26T18:19:35Z</time>
      </trkpt>
      <trkpt lat="48.72686" lon="7.34172">
        <ele>404.2</ele>
        <time>2020-05-26T18:19:33Z</time>
      </trkpt>
      <trkpt lat="48.72681" lon="7.34156">
        <ele>405.5</ele>
        <time>2020-05-26T18:19:31Z</time>
      </trkpt>
      <trkpt lat="48.72677" lon="7.34141">
        <ele>407.3</ele>
        <time>2020-05-26T18:19:29Z</time>
      </trkpt>
      <trkpt lat="48.72673" lon="7.34128">
        <ele>408.5</ele>
        <time>2020-05-26T18:19:27Z</time>
      </trkpt>
      <trkpt lat="48.72671" lon="7.34117">
        <ele>409.2</ele>
        <time>2020-05-26T18:19:25Z</time>
      </trkpt>
      <trkpt lat="48.7267" lon="7.34106">
        <ele>410.5</ele>
        <time>2020-05-26T18:19:23Z</time>
      </trkpt>
      <trkpt lat="48.72664" lon="7.34093">
        <ele>411.7</ele>
        <time>2020-05-26T18:19:21Z</time>
      </trkpt>
      <trkpt lat="48.72656" lon="7.3408">
        <ele>412.7</ele>
        <time>2020-05-26T18:19:19Z</time>
      </trkpt>
      <trkpt lat="48.72647" lon="7.34069">
        <ele>414.5</ele>
        <time>2020-05-26T18:19:17Z</time>
      </trkpt>
      <trkpt lat="48.72638" lon="7.34059">
        <ele>415.9</ele>
        <time>2020-05-26T18:19:15Z</time>
      </trkpt>
      <trkpt lat="48.72628" lon="7.34049">
        <ele>416.6</ele>
        <time>2020-05-26T18:19:13Z</time>
      </trkpt>
      <trkpt lat="48.72618" lon="7.34038">
        <ele>417.6</ele>
        <time>2020-05-26T18:19:11Z</time>
      </trkpt>
      <trkpt lat="48.72608" lon="7.34026">
        <ele>418.6</ele>
        <time>2020-05-26T18:19:09Z</time>
      </trkpt>
      <trkpt lat="48.72597" lon="7.34012">
        <ele>418.5</ele>
        <time>2020-05-26T18:19:07Z</time>
      </trkpt>
      <trkpt lat="48.72587" lon="7.34">
        <ele>418.9</ele>
        <time>2020-05-26T18:19:05Z</time>
      </trkpt>
      <trkpt lat="48.72577" lon="7.33987">
        <ele>420</ele>
        <time>2020-05-26T18:19:03Z</time>
      </trkpt>
      <trkpt lat="48.72567" lon="7.33976">
        <ele>421.1</ele>
        <time>2020-05-26T18:19:01Z</time>
      </trkpt>
      <trkpt lat="48.72556" lon="7.33967">
        <ele>422.8</ele>
        <time>2020-05-26T18:18:59Z</time>
      </trkpt>
      <trkpt lat="48.72546" lon="7.33955">
        <ele>423.5</ele>
        <time>2020-05-26T18:18:57Z</time>
      </trkpt>
      <trkpt lat="48.72536" lon="7.33942">
        <ele>424.2</ele>
        <time>2020-05-26T18:18:55Z</time>
      </trkpt>
      <trkpt lat="48.72527" lon="7.3393">
        <ele>425.2</ele>
        <time>2020-05-26T18:18:53Z</time>
      </trkpt>
      <trkpt lat="48.72519" lon="7.33918">
        <ele>426.1</ele>
        <time>2020-05-26T18:18:51Z</time>
      </trkpt>
      <trkpt lat="48.72509" lon="7.33906">
        <ele>426.5</ele>
        <time>2020-05-26T18:18:49Z</time>
      </trkpt>
      <trkpt lat="48.725" lon="7.33894">
        <ele>427.8</ele>
        <time>2020-05-26T18:18:47Z</time>
      </trkpt>
      <trkpt lat="48.72491" lon="7.33883">
        <ele>428.2</ele>
        <time>2020-05-26T18:18:45Z</time>
      </trkpt>
      <trkpt lat="48.72481" lon="7.33873">
        <ele>429.2</ele>
        <time>2020-05-26T18:18:43Z</time>
      </trkpt>
      <trkpt lat="48.72472" lon="7.33863">
        <ele>430.4</ele>
        <time>2020-05-26T18:18:41Z</time>
      </trkpt>
      <trkpt lat="48.72464" lon="7.33853">
        <ele>431.7</ele>
        <time>2020-05-26T18:18:39Z</time>
      </trkpt>
      <trkpt lat="48.72456" lon="7.33847">
        <ele>432.8</ele>
        <time>2020-05-26T18:18:37Z</time>
      </trkpt>
      <trkpt lat="48.72447" lon="7.33838">
        <ele>432.6</ele>
        <time>2020-05-26T18:18:35Z</time>
      </trkpt>
      <trkpt lat="48.72439" lon="7.33831">
        <ele>433</ele>
        <time>2020-05-26T18:18:33Z</time>
      </trkpt>
      <trkpt lat="48.72431" lon="7.33821">
        <ele>432.7</ele>
        <time>2020-05-26T18:18:31Z</time>
      </trkpt>
      <trkpt lat="48.72424" lon="7.3381">
        <ele>433.6</ele>
        <time>2020-05-26T18:18:29Z</time>
      </trkpt>
      <trkpt lat="48.72416" lon="7.33803">
        <ele>433.7</ele>
        <time>2020-05-26T18:18:27Z</time>
      </trkpt>
      <trkpt lat="48.72408" lon="7.33793">
        <ele>433.3</ele>
        <time>2020-05-26T18:18:25Z</time>
      </trkpt>
      <trkpt lat="48.724" lon="7.33785">
        <ele>433.1</ele>
        <time>2020-05-26T18:18:23Z</time>
      </trkpt>
      <trkpt lat="48.72393" lon="7.33776">
        <ele>433.8</ele>
        <time>2020-05-26T18:18:21Z</time>
      </trkpt>
      <trkpt lat="48.72386" lon="7.33767">
        <ele>434.1</ele>
        <time>2020-05-26T18:18:19Z</time>
      </trkpt>
      <trkpt lat="48.72379" lon="7.33758">
        <ele>434.4</ele>
        <time>2020-05-26T18:18:17Z</time>
      </trkpt>
      <trkpt lat="48.72371" lon="7.33746">
        <ele>434.6</ele>
        <time>2020-05-26T18:18:15Z</time>
      </trkpt>
      <trkpt lat="48.72364" lon="7.33734">
        <ele>434.5</ele>
        <time>2020-05-26T18:18:13Z</time>
      </trkpt>
      <trkpt lat="48.72357" lon="7.33721">
        <ele>434</ele>
        <time>2020-05-26T18:18:11Z</time>
      </trkpt>
      <trkpt lat="48.7235" lon="7.33709">
        <ele>433.8</ele>
        <time>2020-05-26T18:18:09Z</time>
      </trkpt>
      <trkpt lat="48.72342" lon="7.33698">
        <ele>433.3</ele>
        <time>2020-05-26T18:18:07Z</time>
      </trkpt>
      <trkpt lat="48.72337" lon="7.33689">
        <ele>433.8</ele>
        <time>2020-05-26T18:18:05Z</time>
      </trkpt>
      <trkpt lat="48.7233" lon="7.3368">
        <ele>434.1</ele>
        <time>2020-05-26T18:18:03Z</time>
      </trkpt>
      <trkpt lat="48.72324" lon="7.33673">
        <ele>434.2</ele>
        <time>2020-05-26T18:18:01Z</time>
      </trkpt>
      <trkpt lat="48.72316" lon="7.33667">
        <ele>434</ele>
        <time>2020-05-26T18:17:59Z</time>
      </trkpt>
      <trkpt lat="48.7231" lon="7.33664">
        <ele>433.8</ele>
        <time>2020-05-26T18:17:57Z</time>
      </trkpt>
      <trkpt lat="48.72304" lon="7.33661">
        <ele>433.6</ele>
        <time>2020-05-26T18:17:55Z</time>
      </trkpt>
      <trkpt lat="48.72299" lon="7.33659">
        <ele>432.8</ele>
        <time>2020-05-26T18:17:53Z</time>
      </trkpt>
      <trkpt lat="48.72294" lon="7.33657">
        <ele>432.5</ele>
        <time>2020-05-26T18:17:51Z</time>
      </trkpt>
      <trkpt lat="48.72287" lon="7.33652">
        <ele>432.1</ele>
        <time>2020-05-26T18:17:49Z</time>
      </trkpt>
      <trkpt lat="48.72281" lon="7.33649">
        <ele>431.4</ele>
        <time>2020-05-26T18:17:47Z</time>
      </trkpt>
      <trkpt lat="48.72275" lon="7.33646">
        <ele>432.2</ele>
        <time>2020-05-26T18:17:45Z</time>
      </trkpt>
      <trkpt lat="48.72269" lon="7.33642">
        <ele>434.2</ele>
        <time>2020-05-26T18:17:42Z</time>
      </trkpt>
      <trkpt lat="48.72264" lon="7.3364">
        <ele>434.3</ele>
        <time>2020-05-26T18:17:35Z</time>
      </trkpt>
      <trkpt lat="48.7226" lon="7.33634">
        <ele>431.9</ele>
        <time>2020-05-26T18:17:29Z</time>
      </trkpt>
      <trkpt lat="48.72258" lon="7.33628">
        <ele>430.6</ele>
        <time>2020-05-26T18:17:26Z</time>
      </trkpt>
      <trkpt lat="48.72255" lon="7.33623">
        <ele>429.9</ele>
        <time>2020-05-26T18:17:24Z</time>
      </trkpt>
      <trkpt lat="48.72251" lon="7.33618">
        <ele>428.9</ele>
        <time>2020-05-26T18:17:22Z</time>
      </trkpt>
      <trkpt lat="48.72244" lon="7.33613">
        <ele>428.7</ele>
        <time>2020-05-26T18:17:20Z</time>
      </trkpt>
      <trkpt lat="48.72238" lon="7.33607">
        <ele>428.5</ele>
        <time>2020-05-26T18:17:18Z</time>
      </trkpt>
      <trkpt lat="48.72231" lon="7.33605">
        <ele>428.3</ele>
        <time>2020-05-26T18:17:16Z</time>
      </trkpt>
      <trkpt lat="48.72222" lon="7.33602">
        <ele>427.3</ele>
        <time>2020-05-26T18:17:14Z</time>
      </trkpt>
      <trkpt lat="48.72214" lon="7.33603">
        <ele>427.9</ele>
        <time>2020-05-26T18:17:12Z</time>
      </trkpt>
      <trkpt lat="48.72207" lon="7.336">
        <ele>428</ele>
        <time>2020-05-26T18:17:10Z</time>
      </trkpt>
      <trkpt lat="48.72199" lon="7.33598">
        <ele>427.7</ele>
        <time>2020-05-26T18:17:08Z</time>
      </trkpt>
      <trkpt lat="48.7219" lon="7.33593">
        <ele>428</ele>
        <time>2020-05-26T18:17:06Z</time>
      </trkpt>
      <trkpt lat="48.72181" lon="7.3359">
        <ele>427.9</ele>
        <time>2020-05-26T18:17:04Z</time>
      </trkpt>
      <trkpt lat="48.72172" lon="7.33585">
        <ele>427.6</ele>
        <time>2020-05-26T18:17:02Z</time>
      </trkpt>
      <trkpt lat="48.72163" lon="7.33578">
        <ele>427.9</ele>
        <time>2020-05-26T18:17:00Z</time>
      </trkpt>
      <trkpt lat="48.72151" lon="7.33568">
        <ele>428.3</ele>
        <time>2020-05-26T18:16:58Z</time>
      </trkpt>
      <trkpt lat="48.72138" lon="7.33557">
        <ele>429.4</ele>
        <time>2020-05-26T18:16:56Z</time>
      </trkpt>
      <trkpt lat="48.72128" lon="7.33545">
        <ele>430.3</ele>
        <time>2020-05-26T18:16:54Z</time>
      </trkpt>
      <trkpt lat="48.72119" lon="7.33531">
        <ele>431.3</ele>
        <time>2020-05-26T18:16:52Z</time>
      </trkpt>
      <trkpt lat="48.72107" lon="7.33517">
        <ele>432</ele>
        <time>2020-05-26T18:16:50Z</time>
      </trkpt>
      <trkpt lat="48.72094" lon="7.33508">
        <ele>432.6</ele>
        <time>2020-05-26T18:16:48Z</time>
      </trkpt>
      <trkpt lat="48.7208" lon="7.33502">
        <ele>432.6</ele>
        <time>2020-05-26T18:16:46Z</time>
      </trkpt>
      <trkpt lat="48.72068" lon="7.33498">
        <ele>432.7</ele>
        <time>2020-05-26T18:16:44Z</time>
      </trkpt>
      <trkpt lat="48.72058" lon="7.33494">
        <ele>432.4</ele>
        <time>2020-05-26T18:16:42Z</time>
      </trkpt>
      <trkpt lat="48.7205" lon="7.33489">
        <ele>432.1</ele>
        <time>2020-05-26T18:16:40Z</time>
      </trkpt>
      <trkpt lat="48.72041" lon="7.33483">
        <ele>431.8</ele>
        <time>2020-05-26T18:16:38Z</time>
      </trkpt>
      <trkpt lat="48.72032" lon="7.3347">
        <ele>431.9</ele>
        <time>2020-05-26T18:16:36Z</time>
      </trkpt>
      <trkpt lat="48.72025" lon="7.33456">
        <ele>432.2</ele>
        <time>2020-05-26T18:16:34Z</time>
      </trkpt>
      <trkpt lat="48.72016" lon="7.33443">
        <ele>433</ele>
        <time>2020-05-26T18:16:32Z</time>
      </trkpt>
      <trkpt lat="48.72006" lon="7.33434">
        <ele>433.5</ele>
        <time>2020-05-26T18:16:30Z</time>
      </trkpt>
      <trkpt lat="48.71994" lon="7.33426">
        <ele>434.2</ele>
        <time>2020-05-26T18:16:28Z</time>
      </trkpt>
      <trkpt lat="48.71984" lon="7.33416">
        <ele>434.1</ele>
        <time>2020-05-26T18:16:26Z</time>
      </trkpt>
      <trkpt lat="48.71974" lon="7.33408">
        <ele>434.1</ele>
        <time>2020-05-26T18:16:24Z</time>
      </trkpt>
      <trkpt lat="48.71965" lon="7.33401">
        <ele>433.9</ele>
        <time>2020-05-26T18:16:22Z</time>
      </trkpt>
      <trkpt lat="48.71957" lon="7.334">
        <ele>433.2</ele>
        <time>2020-05-26T18:16:20Z</time>
      </trkpt>
      <trkpt lat="48.7195" lon="7.334">
        <ele>432.1</ele>
        <time>2020-05-26T18:16:18Z</time>
      </trkpt>
      <trkpt lat="48.71943" lon="7.33398">
        <ele>431</ele>
        <time>2020-05-26T18:16:16Z</time>
      </trkpt>
      <trkpt lat="48.71936" lon="7.33394">
        <ele>430.1</ele>
        <time>2020-05-26T18:16:14Z</time>
      </trkpt>
      <trkpt lat="48.71929" lon="7.33391">
        <ele>429.1</ele>
        <time>2020-05-26T18:16:12Z</time>
      </trkpt>
      <trkpt lat="48.71924" lon="7.33389">
        <ele>427.1</ele>
        <time>2020-05-26T18:16:10Z</time>
      </trkpt>
      <trkpt lat="48.71918" lon="7.33387">
        <ele>425.9</ele>
        <time>2020-05-26T18:16:08Z</time>
      </trkpt>
      <trkpt lat="48.71912" lon="7.33383">
        <ele>425.4</ele>
        <time>2020-05-26T18:16:06Z</time>
      </trkpt>
      <trkpt lat="48.71906" lon="7.3338">
        <ele>425.7</ele>
        <time>2020-05-26T18:16:04Z</time>
      </trkpt>
      <trkpt lat="48.71899" lon="7.33377">
        <ele>425.7</ele>
        <time>2020-05-26T18:16:02Z</time>
      </trkpt>
      <trkpt lat="48.71891" lon="7.33372">
        <ele>426.3</ele>
        <time>2020-05-26T18:16:00Z</time>
      </trkpt>
      <trkpt lat="48.71881" lon="7.33365">
        <ele>427.1</ele>
        <time>2020-05-26T18:15:58Z</time>
      </trkpt>
      <trkpt lat="48.71872" lon="7.33362">
        <ele>429.8</ele>
        <time>2020-05-26T18:15:56Z</time>
      </trkpt>
      <trkpt lat="48.71863" lon="7.33359">
        <ele>432.8</ele>
        <time>2020-05-26T18:15:54Z</time>
      </trkpt>
      <trkpt lat="48.71854" lon="7.33354">
        <ele>435.3</ele>
        <time>2020-05-26T18:15:52Z</time>
      </trkpt>
      <trkpt lat="48.71845" lon="7.33349">
        <ele>437.5</ele>
        <time>2020-05-26T18:15:50Z</time>
      </trkpt>
      <trkpt lat="48.71837" lon="7.33343">
        <ele>439</ele>
        <time>2020-05-26T18:15:48Z</time>
      </trkpt>
      <trkpt lat="48.71828" lon="7.33336">
        <ele>438.8</ele>
        <time>2020-05-26T18:15:46Z</time>
      </trkpt>
      <trkpt lat="48.71819" lon="7.33328">
        <ele>432</ele>
        <time>2020-05-26T18:15:44Z</time>
      </trkpt>
      <trkpt lat="48.71811" lon="7.33317">
        <ele>431.8</ele>
        <time>2020-05-26T18:15:42Z</time>
      </trkpt>
      <trkpt lat="48.718" lon="7.33308">
        <ele>432.5</ele>
        <time>2020-05-26T18:15:40Z</time>
      </trkpt>
      <trkpt lat="48.7179" lon="7.33302">
        <ele>433.4</ele>
        <time>2020-05-26T18:15:38Z</time>
      </trkpt>
      <trkpt lat="48.7178" lon="7.33296">
        <ele>435.5</ele>
        <time>2020-05-26T18:15:36Z</time>
      </trkpt>
      <trkpt lat="48.71768" lon="7.3329">
        <ele>437</ele>
        <time>2020-05-26T18:15:34Z</time>
      </trkpt>
      <trkpt lat="48.71758" lon="7.33278">
        <ele>436.7</ele>
        <time>2020-05-26T18:15:32Z</time>
      </trkpt>
      <trkpt lat="48.71751" lon="7.3327">
        <ele>436.6</ele>
        <time>2020-05-26T18:15:30Z</time>
      </trkpt>
      <trkpt lat="48.71746" lon="7.33264">
        <ele>436.6</ele>
        <time>2020-05-26T18:15:28Z</time>
      </trkpt>
      <trkpt lat="48.71743" lon="7.33259">
        <ele>436.2</ele>
        <time>2020-05-26T18:15:26Z</time>
      </trkpt>
      <trkpt lat="48.71739" lon="7.33253">
        <ele>435.1</ele>
        <time>2020-05-26T18:15:23Z</time>
      </trkpt>
      <trkpt lat="48.71736" lon="7.33247">
        <ele>435.6</ele>
        <time>2020-05-26T18:15:16Z</time>
      </trkpt>
      <trkpt lat="48.71731" lon="7.33244">
        <ele>437</ele>
        <time>2020-05-26T18:15:13Z</time>
      </trkpt>
      <trkpt lat="48.71725" lon="7.33243">
        <ele>437</ele>
        <time>2020-05-26T18:15:11Z</time>
      </trkpt>
      <trkpt lat="48.71717" lon="7.33242">
        <ele>438.1</ele>
        <time>2020-05-26T18:15:09Z</time>
      </trkpt>
      <trkpt lat="48.71709" lon="7.33239">
        <ele>438.8</ele>
        <time>2020-05-26T18:15:07Z</time>
      </trkpt>
      <trkpt lat="48.71699" lon="7.33236">
        <ele>439.6</ele>
        <time>2020-05-26T18:15:05Z</time>
      </trkpt>
      <trkpt lat="48.7169" lon="7.33232">
        <ele>440.1</ele>
        <time>2020-05-26T18:15:03Z</time>
      </trkpt>
      <trkpt lat="48.71679" lon="7.3323">
        <ele>440.1</ele>
        <time>2020-05-26T18:15:01Z</time>
      </trkpt>
      <trkpt lat="48.71668" lon="7.33228">
        <ele>440.4</ele>
        <time>2020-05-26T18:14:59Z</time>
      </trkpt>
      <trkpt lat="48.71655" lon="7.33226">
        <ele>441.1</ele>
        <time>2020-05-26T18:14:57Z</time>
      </trkpt>
      <trkpt lat="48.71642" lon="7.33225">
        <ele>442</ele>
        <time>2020-05-26T18:14:55Z</time>
      </trkpt>
      <trkpt lat="48.71631" lon="7.33224">
        <ele>442.7</ele>
        <time>2020-05-26T18:14:53Z</time>
      </trkpt>
      <trkpt lat="48.71622" lon="7.33225">
        <ele>443.9</ele>
        <time>2020-05-26T18:14:51Z</time>
      </trkpt>
      <trkpt lat="48.71616" lon="7.33226">
        <ele>444.7</ele>
        <time>2020-05-26T18:14:49Z</time>
      </trkpt>
      <trkpt lat="48.71609" lon="7.33223">
        <ele>445.7</ele>
        <time>2020-05-26T18:14:47Z</time>
      </trkpt>
      <trkpt lat="48.716" lon="7.3322">
        <ele>447</ele>
        <time>2020-05-26T18:14:45Z</time>
      </trkpt>
      <trkpt lat="48.71592" lon="7.33218">
        <ele>448.5</ele>
        <time>2020-05-26T18:14:43Z</time>
      </trkpt>
      <trkpt lat="48.71584" lon="7.33216">
        <ele>450.9</ele>
        <time>2020-05-26T18:14:41Z</time>
      </trkpt>
      <trkpt lat="48.71577" lon="7.33216">
        <ele>453.7</ele>
        <time>2020-05-26T18:14:39Z</time>
      </trkpt>
      <trkpt lat="48.71569" lon="7.33217">
        <ele>455.7</ele>
        <time>2020-05-26T18:14:37Z</time>
      </trkpt>
      <trkpt lat="48.71563" lon="7.33218">
        <ele>457.2</ele>
        <time>2020-05-26T18:14:35Z</time>
      </trkpt>
      <trkpt lat="48.71558" lon="7.33217">
        <ele>458.7</ele>
        <time>2020-05-26T18:14:33Z</time>
      </trkpt>
      <trkpt lat="48.71553" lon="7.33213">
        <ele>459.9</ele>
        <time>2020-05-26T18:14:31Z</time>
      </trkpt>
      <trkpt lat="48.71549" lon="7.33209">
        <ele>460.7</ele>
        <time>2020-05-26T18:14:29Z</time>
      </trkpt>
      <trkpt lat="48.71543" lon="7.33211">
        <ele>461.9</ele>
        <time>2020-05-26T18:14:26Z</time>
      </trkpt>
      <trkpt lat="48.71539" lon="7.33216">
        <ele>462.4</ele>
        <time>2020-05-26T18:14:24Z</time>
      </trkpt>
      <trkpt lat="48.71535" lon="7.33222">
        <ele>462.2</ele>
        <time>2020-05-26T18:14:20Z</time>
      </trkpt>
      <trkpt lat="48.71529" lon="7.33225">
        <ele>461.7</ele>
        <time>2020-05-26T18:14:18Z</time>
      </trkpt>
      <trkpt lat="48.7152" lon="7.33226">
        <ele>461.7</ele>
        <time>2020-05-26T18:14:16Z</time>
      </trkpt>
      <trkpt lat="48.7151" lon="7.33226">
        <ele>461.8</ele>
        <time>2020-05-26T18:14:14Z</time>
      </trkpt>
      <trkpt lat="48.71504" lon="7.33225">
        <ele>462</ele>
        <time>2020-05-26T18:14:12Z</time>
      </trkpt>
      <trkpt lat="48.71498" lon="7.33225">
        <ele>461.9</ele>
        <time>2020-05-26T18:14:10Z</time>
      </trkpt>
      <trkpt lat="48.71491" lon="7.33226">
        <ele>461.5</ele>
        <time>2020-05-26T18:14:08Z</time>
      </trkpt>
      <trkpt lat="48.71485" lon="7.33226">
        <ele>461.9</ele>
        <time>2020-05-26T18:14:06Z</time>
      </trkpt>
      <trkpt lat="48.71479" lon="7.33227">
        <ele>461.2</ele>
        <time>2020-05-26T18:14:03Z</time>
      </trkpt>
      <trkpt lat="48.71474" lon="7.33229">
        <ele>460.4</ele>
        <time>2020-05-26T18:14:00Z</time>
      </trkpt>
      <trkpt lat="48.71468" lon="7.33232">
        <ele>458.8</ele>
        <time>2020-05-26T18:13:55Z</time>
      </trkpt>
      <trkpt lat="48.71464" lon="7.33235">
        <ele>456.6</ele>
        <time>2020-05-26T18:13:49Z</time>
      </trkpt>
      <trkpt lat="48.71459" lon="7.33236">
        <ele>455.6</ele>
        <time>2020-05-26T18:13:43Z</time>
      </trkpt>
      <trkpt lat="48.71454" lon="7.33239">
        <ele>455.3</ele>
        <time>2020-05-26T18:13:38Z</time>
      </trkpt>
      <trkpt lat="48.7145" lon="7.33244">
        <ele>454.4</ele>
        <time>2020-05-26T18:13:32Z</time>
      </trkpt>
      <trkpt lat="48.71446" lon="7.33246">
        <ele>453.8</ele>
        <time>2020-05-26T18:13:29Z</time>
      </trkpt>
      <trkpt lat="48.7144" lon="7.33248">
        <ele>453.2</ele>
        <time>2020-05-26T18:13:26Z</time>
      </trkpt>
      <trkpt lat="48.71435" lon="7.3325">
        <ele>452.6</ele>
        <time>2020-05-26T18:13:23Z</time>
      </trkpt>
      <trkpt lat="48.71429" lon="7.33252">
        <ele>452.1</ele>
        <time>2020-05-26T18:13:20Z</time>
      </trkpt>
      <trkpt lat="48.71425" lon="7.33252">
        <ele>451.1</ele>
        <time>2020-05-26T18:13:17Z</time>
      </trkpt>
      <trkpt lat="48.7142" lon="7.33249">
        <ele>452.3</ele>
        <time>2020-05-26T18:13:09Z</time>
      </trkpt>
      <trkpt lat="48.71415" lon="7.33248">
        <ele>450.5</ele>
        <time>2020-05-26T18:13:05Z</time>
      </trkpt>
      <trkpt lat="48.7141" lon="7.33246">
        <ele>448.9</ele>
        <time>2020-05-26T18:13:01Z</time>
      </trkpt>
      <trkpt lat="48.71405" lon="7.33245">
        <ele>447.8</ele>
        <time>2020-05-26T18:12:58Z</time>
      </trkpt>
      <trkpt lat="48.71399" lon="7.33244">
        <ele>445.7</ele>
        <time>2020-05-26T18:12:54Z</time>
      </trkpt>
      <trkpt lat="48.71395" lon="7.33243">
        <ele>444.1</ele>
        <time>2020-05-26T18:12:49Z</time>
      </trkpt>
      <trkpt lat="48.71391" lon="7.33238">
        <ele>443.2</ele>
        <time>2020-05-26T18:12:37Z</time>
      </trkpt>
      <trkpt lat="48.71387" lon="7.33232">
        <ele>443.2</ele>
        <time>2020-05-26T18:12:32Z</time>
      </trkpt>
      <trkpt lat="48.71383" lon="7.33228">
        <ele>441.3</ele>
        <time>2020-05-26T18:12:28Z</time>
      </trkpt>
      <trkpt lat="48.71378" lon="7.33225">
        <ele>439.1</ele>
        <time>2020-05-26T18:12:24Z</time>
      </trkpt>
      <trkpt lat="48.71372" lon="7.33222">
        <ele>436.9</ele>
        <time>2020-05-26T18:12:20Z</time>
      </trkpt>
      <trkpt lat="48.71367" lon="7.33219">
        <ele>435.2</ele>
        <time>2020-05-26T18:12:17Z</time>
      </trkpt>
      <trkpt lat="48.71362" lon="7.33213">
        <ele>434</ele>
        <time>2020-05-26T18:12:14Z</time>
      </trkpt>
      <trkpt lat="48.71357" lon="7.33208">
        <ele>433</ele>
        <time>2020-05-26T18:12:10Z</time>
      </trkpt>
      <trkpt lat="48.71353" lon="7.33205">
        <ele>432.5</ele>
        <time>2020-05-26T18:12:07Z</time>
      </trkpt>
      <trkpt lat="48.71348" lon="7.33204">
        <ele>433.3</ele>
        <time>2020-05-26T18:12:03Z</time>
      </trkpt>
      <trkpt lat="48.71344" lon="7.33205">
        <ele>432.5</ele>
        <time>2020-05-26T18:11:59Z</time>
      </trkpt>
      <trkpt lat="48.71338" lon="7.33205">
        <ele>431.6</ele>
        <time>2020-05-26T18:11:56Z</time>
      </trkpt>
      <trkpt lat="48.71333" lon="7.33203">
        <ele>431.1</ele>
        <time>2020-05-26T18:11:53Z</time>
      </trkpt>
      <trkpt lat="48.71327" lon="7.33202">
        <ele>431.6</ele>
        <time>2020-05-26T18:11:50Z</time>
      </trkpt>
      <trkpt lat="48.71321" lon="7.332">
        <ele>432</ele>
        <time>2020-05-26T18:11:47Z</time>
      </trkpt>
      <trkpt lat="48.71315" lon="7.33198">
        <ele>432</ele>
        <time>2020-05-26T18:11:44Z</time>
      </trkpt>
      <trkpt lat="48.71309" lon="7.33196">
        <ele>431.4</ele>
        <time>2020-05-26T18:11:41Z</time>
      </trkpt>
      <trkpt lat="48.71304" lon="7.33194">
        <ele>430.2</ele>
        <time>2020-05-26T18:11:38Z</time>
      </trkpt>
      <trkpt lat="48.71299" lon="7.33193">
        <ele>429.5</ele>
        <time>2020-05-26T18:11:35Z</time>
      </trkpt>
      <trkpt lat="48.71294" lon="7.33192">
        <ele>429.2</ele>
        <time>2020-05-26T18:11:32Z</time>
      </trkpt>
      <trkpt lat="48.71289" lon="7.33192">
        <ele>428.4</ele>
        <time>2020-05-26T18:11:29Z</time>
      </trkpt>
      <trkpt lat="48.71284" lon="7.33191">
        <ele>426.7</ele>
        <time>2020-05-26T18:11:26Z</time>
      </trkpt>
      <trkpt lat="48.71279" lon="7.33192">
        <ele>426.3</ele>
        <time>2020-05-26T18:11:23Z</time>
      </trkpt>
      <trkpt lat="48.71272" lon="7.33194">
        <ele>426.3</ele>
        <time>2020-05-26T18:11:20Z</time>
      </trkpt>
      <trkpt lat="48.71267" lon="7.33194">
        <ele>425.6</ele>
        <time>2020-05-26T18:11:18Z</time>
      </trkpt>
      <trkpt lat="48.71262" lon="7.33194">
        <ele>424.7</ele>
        <time>2020-05-26T18:11:16Z</time>
      </trkpt>
      <trkpt lat="48.71256" lon="7.33193">
        <ele>424.7</ele>
        <time>2020-05-26T18:11:14Z</time>
      </trkpt>
      <trkpt lat="48.7125" lon="7.33192">
        <ele>424</ele>
        <time>2020-05-26T18:11:12Z</time>
      </trkpt>
      <trkpt lat="48.71244" lon="7.33191">
        <ele>423.6</ele>
        <time>2020-05-26T18:11:10Z</time>
      </trkpt>
      <trkpt lat="48.71237" lon="7.33189">
        <ele>423.6</ele>
        <time>2020-05-26T18:11:08Z</time>
      </trkpt>
      <trkpt lat="48.71231" lon="7.33186">
        <ele>423.7</ele>
        <time>2020-05-26T18:11:06Z</time>
      </trkpt>
      <trkpt lat="48.71225" lon="7.33183">
        <ele>424</ele>
        <time>2020-05-26T18:11:04Z</time>
      </trkpt>
      <trkpt lat="48.7122" lon="7.33179">
        <ele>424.1</ele>
        <time>2020-05-26T18:11:02Z</time>
      </trkpt>
      <trkpt lat="48.71215" lon="7.33175">
        <ele>424.6</ele>
        <time>2020-05-26T18:11:00Z</time>
      </trkpt>
      <trkpt lat="48.7121" lon="7.33172">
        <ele>424.6</ele>
        <time>2020-05-26T18:10:58Z</time>
      </trkpt>
      <trkpt lat="48.71204" lon="7.33169">
        <ele>424.5</ele>
        <time>2020-05-26T18:10:55Z</time>
      </trkpt>
      <trkpt lat="48.712" lon="7.33164">
        <ele>424.6</ele>
        <time>2020-05-26T18:10:52Z</time>
      </trkpt>
      <trkpt lat="48.71194" lon="7.33162">
        <ele>424.8</ele>
        <time>2020-05-26T18:10:47Z</time>
      </trkpt>
      <trkpt lat="48.71189" lon="7.33162">
        <ele>423.8</ele>
        <time>2020-05-26T18:10:45Z</time>
      </trkpt>
      <trkpt lat="48.71181" lon="7.33162">
        <ele>423.8</ele>
        <time>2020-05-26T18:10:43Z</time>
      </trkpt>
      <trkpt lat="48.71169" lon="7.33162">
        <ele>423.7</ele>
        <time>2020-05-26T18:10:41Z</time>
      </trkpt>
      <trkpt lat="48.71157" lon="7.33165">
        <ele>423.8</ele>
        <time>2020-05-26T18:10:39Z</time>
      </trkpt>
      <trkpt lat="48.71144" lon="7.33169">
        <ele>424.7</ele>
        <time>2020-05-26T18:10:37Z</time>
      </trkpt>
      <trkpt lat="48.71131" lon="7.33177">
        <ele>425.4</ele>
        <time>2020-05-26T18:10:35Z</time>
      </trkpt>
      <trkpt lat="48.71114" lon="7.33187">
        <ele>425.4</ele>
        <time>2020-05-26T18:10:33Z</time>
      </trkpt>
      <trkpt lat="48.71101" lon="7.33194">
        <ele>426.1</ele>
        <time>2020-05-26T18:10:31Z</time>
      </trkpt>
      <trkpt lat="48.71087" lon="7.33201">
        <ele>427.1</ele>
        <time>2020-05-26T18:10:29Z</time>
      </trkpt>
      <trkpt lat="48.71072" lon="7.33208">
        <ele>428</ele>
        <time>2020-05-26T18:10:27Z</time>
      </trkpt>
      <trkpt lat="48.71059" lon="7.33216">
        <ele>430.6</ele>
        <time>2020-05-26T18:10:25Z</time>
      </trkpt>
      <trkpt lat="48.71047" lon="7.33219">
        <ele>431.7</ele>
        <time>2020-05-26T18:10:23Z</time>
      </trkpt>
      <trkpt lat="48.71034" lon="7.33223">
        <ele>434.8</ele>
        <time>2020-05-26T18:10:21Z</time>
      </trkpt>
      <trkpt lat="48.7102" lon="7.33227">
        <ele>434.4</ele>
        <time>2020-05-26T18:10:19Z</time>
      </trkpt>
      <trkpt lat="48.71005" lon="7.33228">
        <ele>435.2</ele>
        <time>2020-05-26T18:10:17Z</time>
      </trkpt>
      <trkpt lat="48.70991" lon="7.33225">
        <ele>436.1</ele>
        <time>2020-05-26T18:10:15Z</time>
      </trkpt>
      <trkpt lat="48.70977" lon="7.33219">
        <ele>437.2</ele>
        <time>2020-05-26T18:10:13Z</time>
      </trkpt>
      <trkpt lat="48.70966" lon="7.33216">
        <ele>438.3</ele>
        <time>2020-05-26T18:10:11Z</time>
      </trkpt>
      <trkpt lat="48.70957" lon="7.33212">
        <ele>439.5</ele>
        <time>2020-05-26T18:10:09Z</time>
      </trkpt>
      <trkpt lat="48.70946" lon="7.33208">
        <ele>440.7</ele>
        <time>2020-05-26T18:10:07Z</time>
      </trkpt>
      <trkpt lat="48.70934" lon="7.33203">
        <ele>442.2</ele>
        <time>2020-05-26T18:10:05Z</time>
      </trkpt>
      <trkpt lat="48.70922" lon="7.33197">
        <ele>442.8</ele>
        <time>2020-05-26T18:10:03Z</time>
      </trkpt>
      <trkpt lat="48.70911" lon="7.33191">
        <ele>442.8</ele>
        <time>2020-05-26T18:10:01Z</time>
      </trkpt>
      <trkpt lat="48.709" lon="7.33185">
        <ele>440</ele>
        <time>2020-05-26T18:09:59Z</time>
      </trkpt>
      <trkpt lat="48.70887" lon="7.33179">
        <ele>440.7</ele>
        <time>2020-05-26T18:09:57Z</time>
      </trkpt>
      <trkpt lat="48.70876" lon="7.33172">
        <ele>441.6</ele>
        <time>2020-05-26T18:09:55Z</time>
      </trkpt>
      <trkpt lat="48.70866" lon="7.33164">
        <ele>442.4</ele>
        <time>2020-05-26T18:09:53Z</time>
      </trkpt>
      <trkpt lat="48.70853" lon="7.33158">
        <ele>443.9</ele>
        <time>2020-05-26T18:09:51Z</time>
      </trkpt>
      <trkpt lat="48.7084" lon="7.33153">
        <ele>445.6</ele>
        <time>2020-05-26T18:09:49Z</time>
      </trkpt>
      <trkpt lat="48.70828" lon="7.33147">
        <ele>447.1</ele>
        <time>2020-05-26T18:09:47Z</time>
      </trkpt>
      <trkpt lat="48.70815" lon="7.33139">
        <ele>449.3</ele>
        <time>2020-05-26T18:09:45Z</time>
      </trkpt>
      <trkpt lat="48.70802" lon="7.33131">
        <ele>449.1</ele>
        <time>2020-05-26T18:09:43Z</time>
      </trkpt>
      <trkpt lat="48.70792" lon="7.33119">
        <ele>448.7</ele>
        <time>2020-05-26T18:09:41Z</time>
      </trkpt>
      <trkpt lat="48.70782" lon="7.33102">
        <ele>444.8</ele>
        <time>2020-05-26T18:09:39Z</time>
      </trkpt>
      <trkpt lat="48.70771" lon="7.33089">
        <ele>445.6</ele>
        <time>2020-05-26T18:09:37Z</time>
      </trkpt>
      <trkpt lat="48.7076" lon="7.33075">
        <ele>445.6</ele>
        <time>2020-05-26T18:09:35Z</time>
      </trkpt>
      <trkpt lat="48.70749" lon="7.3306">
        <ele>446</ele>
        <time>2020-05-26T18:09:33Z</time>
      </trkpt>
      <trkpt lat="48.70738" lon="7.33046">
        <ele>445.1</ele>
        <time>2020-05-26T18:09:31Z</time>
      </trkpt>
      <trkpt lat="48.70729" lon="7.33033">
        <ele>444.6</ele>
        <time>2020-05-26T18:09:29Z</time>
      </trkpt>
      <trkpt lat="48.70721" lon="7.33021">
        <ele>437.9</ele>
        <time>2020-05-26T18:09:27Z</time>
      </trkpt>
      <trkpt lat="48.70709" lon="7.33008">
        <ele>438</ele>
        <time>2020-05-26T18:09:25Z</time>
      </trkpt>
      <trkpt lat="48.70697" lon="7.32997">
        <ele>437.9</ele>
        <time>2020-05-26T18:09:23Z</time>
      </trkpt>
      <trkpt lat="48.70686" lon="7.32985">
        <ele>437.6</ele>
        <time>2020-05-26T18:09:21Z</time>
      </trkpt>
      <trkpt lat="48.70675" lon="7.32976">
        <ele>437.7</ele>
        <time>2020-05-26T18:09:19Z</time>
      </trkpt>
      <trkpt lat="48.70663" lon="7.32971">
        <ele>438.4</ele>
        <time>2020-05-26T18:09:17Z</time>
      </trkpt>
      <trkpt lat="48.70652" lon="7.32965">
        <ele>438</ele>
        <time>2020-05-26T18:09:15Z</time>
      </trkpt>
      <trkpt lat="48.70641" lon="7.32958">
        <ele>437.1</ele>
        <time>2020-05-26T18:09:13Z</time>
      </trkpt>
      <trkpt lat="48.70631" lon="7.32958">
        <ele>435.4</ele>
        <time>2020-05-26T18:09:11Z</time>
      </trkpt>
      <trkpt lat="48.70621" lon="7.32955">
        <ele>432.5</ele>
        <time>2020-05-26T18:09:09Z</time>
      </trkpt>
      <trkpt lat="48.70612" lon="7.32952">
        <ele>425.2</ele>
        <time>2020-05-26T18:09:07Z</time>
      </trkpt>
      <trkpt lat="48.70603" lon="7.3295">
        <ele>420.2</ele>
        <time>2020-05-26T18:09:05Z</time>
      </trkpt>
      <trkpt lat="48.70596" lon="7.32948">
        <ele>406.3</ele>
        <time>2020-05-26T18:09:02Z</time>
      </trkpt>
      <trkpt lat="48.70591" lon="7.32948">
        <ele>442</ele>
        <time>2020-05-26T18:08:54Z</time>
      </trkpt>
      <trkpt lat="48.70586" lon="7.32949">
        <ele>443.1</ele>
        <time>2020-05-26T18:08:46Z</time>
      </trkpt>
      <trkpt lat="48.70581" lon="7.3295">
        <ele>442.7</ele>
        <time>2020-05-26T18:08:42Z</time>
      </trkpt>
      <trkpt lat="48.70575" lon="7.32948">
        <ele>441.5</ele>
        <time>2020-05-26T18:08:39Z</time>
      </trkpt>
      <trkpt lat="48.7057" lon="7.32945">
        <ele>441.6</ele>
        <time>2020-05-26T18:08:37Z</time>
      </trkpt>
      <trkpt lat="48.70563" lon="7.32943">
        <ele>440.5</ele>
        <time>2020-05-26T18:08:35Z</time>
      </trkpt>
      <trkpt lat="48.70557" lon="7.32941">
        <ele>439.5</ele>
        <time>2020-05-26T18:08:33Z</time>
      </trkpt>
      <trkpt lat="48.70552" lon="7.32939">
        <ele>439.1</ele>
        <time>2020-05-26T18:08:31Z</time>
      </trkpt>
      <trkpt lat="48.70547" lon="7.32938">
        <ele>439</ele>
        <time>2020-05-26T18:08:29Z</time>
      </trkpt>
      <trkpt lat="48.70542" lon="7.32937">
        <ele>438.8</ele>
        <time>2020-05-26T18:08:27Z</time>
      </trkpt>
      <trkpt lat="48.70535" lon="7.32936">
        <ele>439.2</ele>
        <time>2020-05-26T18:08:24Z</time>
      </trkpt>
      <trkpt lat="48.70531" lon="7.32934">
        <ele>439.8</ele>
        <time>2020-05-26T18:08:22Z</time>
      </trkpt>
      <trkpt lat="48.70525" lon="7.32931">
        <ele>439.1</ele>
        <time>2020-05-26T18:08:19Z</time>
      </trkpt>
      <trkpt lat="48.7052" lon="7.32928">
        <ele>437.7</ele>
        <time>2020-05-26T18:08:17Z</time>
      </trkpt>
      <trkpt lat="48.70514" lon="7.32925">
        <ele>435.9</ele>
        <time>2020-05-26T18:08:15Z</time>
      </trkpt>
      <trkpt lat="48.70507" lon="7.32923">
        <ele>435.8</ele>
        <time>2020-05-26T18:08:13Z</time>
      </trkpt>
      <trkpt lat="48.70499" lon="7.32922">
        <ele>435.9</ele>
        <time>2020-05-26T18:08:11Z</time>
      </trkpt>
      <trkpt lat="48.70492" lon="7.32921">
        <ele>436.5</ele>
        <time>2020-05-26T18:08:09Z</time>
      </trkpt>
      <trkpt lat="48.70485" lon="7.3292">
        <ele>437.6</ele>
        <time>2020-05-26T18:08:07Z</time>
      </trkpt>
      <trkpt lat="48.7048" lon="7.32919">
        <ele>438.5</ele>
        <time>2020-05-26T18:08:05Z</time>
      </trkpt>
      <trkpt lat="48.70475" lon="7.32919">
        <ele>438.7</ele>
        <time>2020-05-26T18:08:03Z</time>
      </trkpt>
      <trkpt lat="48.70469" lon="7.32917">
        <ele>439.1</ele>
        <time>2020-05-26T18:08:01Z</time>
      </trkpt>
      <trkpt lat="48.70463" lon="7.32915">
        <ele>439.6</ele>
        <time>2020-05-26T18:07:59Z</time>
      </trkpt>
      <trkpt lat="48.70457" lon="7.32912">
        <ele>439.4</ele>
        <time>2020-05-26T18:07:57Z</time>
      </trkpt>
      <trkpt lat="48.70451" lon="7.32909">
        <ele>439.3</ele>
        <time>2020-05-26T18:07:55Z</time>
      </trkpt>
      <trkpt lat="48.70445" lon="7.32906">
        <ele>438.7</ele>
        <time>2020-05-26T18:07:53Z</time>
      </trkpt>
      <trkpt lat="48.70439" lon="7.32904">
        <ele>431.5</ele>
        <time>2020-05-26T18:07:51Z</time>
      </trkpt>
      <trkpt lat="48.70433" lon="7.32902">
        <ele>432.7</ele>
        <time>2020-05-26T18:07:49Z</time>
      </trkpt>
      <trkpt lat="48.70427" lon="7.329">
        <ele>433.7</ele>
        <time>2020-05-26T18:07:47Z</time>
      </trkpt>
      <trkpt lat="48.7042" lon="7.32899">
        <ele>434.9</ele>
        <time>2020-05-26T18:07:45Z</time>
      </trkpt>
      <trkpt lat="48.70413" lon="7.32897">
        <ele>437.9</ele>
        <time>2020-05-26T18:07:43Z</time>
      </trkpt>
      <trkpt lat="48.70407" lon="7.32897">
        <ele>440.7</ele>
        <time>2020-05-26T18:07:41Z</time>
      </trkpt>
      <trkpt lat="48.704" lon="7.32896">
        <ele>447.3</ele>
        <time>2020-05-26T18:07:39Z</time>
      </trkpt>
      <trkpt lat="48.70392" lon="7.32894">
        <ele>449.1</ele>
        <time>2020-05-26T18:07:37Z</time>
      </trkpt>
      <trkpt lat="48.70384" lon="7.32892">
        <ele>446.4</ele>
        <time>2020-05-26T18:07:35Z</time>
      </trkpt>
      <trkpt lat="48.70378" lon="7.3289">
        <ele>447.6</ele>
        <time>2020-05-26T18:07:33Z</time>
      </trkpt>
      <trkpt lat="48.70372" lon="7.32891">
        <ele>447.9</ele>
        <time>2020-05-26T18:07:31Z</time>
      </trkpt>
      <trkpt lat="48.70366" lon="7.32891">
        <ele>446.9</ele>
        <time>2020-05-26T18:07:29Z</time>
      </trkpt>
      <trkpt lat="48.70361" lon="7.32891">
        <ele>444.2</ele>
        <time>2020-05-26T18:07:27Z</time>
      </trkpt>
      <trkpt lat="48.70356" lon="7.3289">
        <ele>445.9</ele>
        <time>2020-05-26T18:07:25Z</time>
      </trkpt>
      <trkpt lat="48.7035" lon="7.3289">
        <ele>446.5</ele>
        <time>2020-05-26T18:07:23Z</time>
      </trkpt>
      <trkpt lat="48.70345" lon="7.3289">
        <ele>446.3</ele>
        <time>2020-05-26T18:07:21Z</time>
      </trkpt>
      <trkpt lat="48.70339" lon="7.3289">
        <ele>441.2</ele>
        <time>2020-05-26T18:07:19Z</time>
      </trkpt>
      <trkpt lat="48.70335" lon="7.32891">
        <ele>439.8</ele>
        <time>2020-05-26T18:07:17Z</time>
      </trkpt>
      <trkpt lat="48.7033" lon="7.32891">
        <ele>436.5</ele>
        <time>2020-05-26T18:07:15Z</time>
      </trkpt>
      <trkpt lat="48.70324" lon="7.32891">
        <ele>425.8</ele>
        <time>2020-05-26T18:07:13Z</time>
      </trkpt>
      <trkpt lat="48.70318" lon="7.3289">
        <ele>425.5</ele>
        <time>2020-05-26T18:07:11Z</time>
      </trkpt>
      <trkpt lat="48.70313" lon="7.32889">
        <ele>426</ele>
        <time>2020-05-26T18:07:09Z</time>
      </trkpt>
      <trkpt lat="48.70308" lon="7.32888">
        <ele>426.8</ele>
        <time>2020-05-26T18:07:07Z</time>
      </trkpt>
      <trkpt lat="48.70303" lon="7.32887">
        <ele>426.2</ele>
        <time>2020-05-26T18:07:05Z</time>
      </trkpt>
      <trkpt lat="48.70297" lon="7.32886">
        <ele>426</ele>
        <time>2020-05-26T18:07:02Z</time>
      </trkpt>
      <trkpt lat="48.70292" lon="7.32885">
        <ele>426.1</ele>
        <time>2020-05-26T18:07:00Z</time>
      </trkpt>
      <trkpt lat="48.70287" lon="7.32885">
        <ele>426.2</ele>
        <time>2020-05-26T18:06:58Z</time>
      </trkpt>
      <trkpt lat="48.70281" lon="7.32885">
        <ele>426.5</ele>
        <time>2020-05-26T18:06:55Z</time>
      </trkpt>
      <trkpt lat="48.70276" lon="7.32887">
        <ele>427</ele>
        <time>2020-05-26T18:06:53Z</time>
      </trkpt>
      <trkpt lat="48.70271" lon="7.3289">
        <ele>427.7</ele>
        <time>2020-05-26T18:06:51Z</time>
      </trkpt>
      <trkpt lat="48.70265" lon="7.32893">
        <ele>429</ele>
        <time>2020-05-26T18:06:49Z</time>
      </trkpt>
      <trkpt lat="48.70259" lon="7.32895">
        <ele>430.6</ele>
        <time>2020-05-26T18:06:46Z</time>
      </trkpt>
      <trkpt lat="48.70254" lon="7.32896">
        <ele>430.9</ele>
        <time>2020-05-26T18:06:44Z</time>
      </trkpt>
      <trkpt lat="48.7025" lon="7.32897">
        <ele>431.5</ele>
        <time>2020-05-26T18:06:42Z</time>
      </trkpt>
      <trkpt lat="48.70245" lon="7.32899">
        <ele>431.6</ele>
        <time>2020-05-26T18:06:40Z</time>
      </trkpt>
      <trkpt lat="48.7024" lon="7.32901">
        <ele>430.8</ele>
        <time>2020-05-26T18:06:38Z</time>
      </trkpt>
      <trkpt lat="48.70234" lon="7.32903">
        <ele>428.7</ele>
        <time>2020-05-26T18:06:36Z</time>
      </trkpt>
      <trkpt lat="48.70229" lon="7.32905">
        <ele>419.3</ele>
        <time>2020-05-26T18:06:34Z</time>
      </trkpt>
      <trkpt lat="48.70224" lon="7.32906">
        <ele>417.4</ele>
        <time>2020-05-26T18:06:32Z</time>
      </trkpt>
      <trkpt lat="48.70219" lon="7.32907">
        <ele>415.5</ele>
        <time>2020-05-26T18:06:30Z</time>
      </trkpt>
      <trkpt lat="48.70212" lon="7.32907">
        <ele>411.6</ele>
        <time>2020-05-26T18:06:27Z</time>
      </trkpt>
      <trkpt lat="48.70206" lon="7.32907">
        <ele>406.2</ele>
        <time>2020-05-26T18:06:24Z</time>
      </trkpt>
      <trkpt lat="48.70199" lon="7.32907">
        <ele>399.7</ele>
        <time>2020-05-26T18:06:21Z</time>
      </trkpt>
      <trkpt lat="48.70193" lon="7.32909">
        <ele>393.9</ele>
        <time>2020-05-26T18:06:18Z</time>
      </trkpt>
      <trkpt lat="48.70187" lon="7.32911">
        <ele>390.3</ele>
        <time>2020-05-26T18:06:15Z</time>
      </trkpt>
      <trkpt lat="48.70183" lon="7.32912">
        <ele>386.4</ele>
        <time>2020-05-26T18:06:13Z</time>
      </trkpt>
      <trkpt lat="48.70178" lon="7.32913">
        <ele>382.9</ele>
        <time>2020-05-26T18:06:11Z</time>
      </trkpt>
      <trkpt lat="48.70173" lon="7.32914">
        <ele>383</ele>
        <time>2020-05-26T18:06:09Z</time>
      </trkpt>
      <trkpt lat="48.70168" lon="7.32915">
        <ele>385.1</ele>
        <time>2020-05-26T18:06:07Z</time>
      </trkpt>
      <trkpt lat="48.70163" lon="7.32917">
        <ele>424.3</ele>
        <time>2020-05-26T18:06:05Z</time>
      </trkpt>
      <trkpt lat="48.70158" lon="7.32918">
        <ele>423.2</ele>
        <time>2020-05-26T18:06:03Z</time>
      </trkpt>
      <trkpt lat="48.70153" lon="7.32919">
        <ele>423</ele>
        <time>2020-05-26T18:06:01Z</time>
      </trkpt>
      <trkpt lat="48.70147" lon="7.32921">
        <ele>415.9</ele>
        <time>2020-05-26T18:05:59Z</time>
      </trkpt>
      <trkpt lat="48.70141" lon="7.32922">
        <ele>416</ele>
        <time>2020-05-26T18:05:57Z</time>
      </trkpt>
      <trkpt lat="48.70135" lon="7.32923">
        <ele>416.5</ele>
        <time>2020-05-26T18:05:55Z</time>
      </trkpt>
      <trkpt lat="48.70129" lon="7.32925">
        <ele>416.8</ele>
        <time>2020-05-26T18:05:53Z</time>
      </trkpt>
      <trkpt lat="48.70125" lon="7.32926">
        <ele>416.2</ele>
        <time>2020-05-26T18:05:51Z</time>
      </trkpt>
      <trkpt lat="48.70119" lon="7.32927">
        <ele>416</ele>
        <time>2020-05-26T18:05:48Z</time>
      </trkpt>
      <trkpt lat="48.70114" lon="7.3293">
        <ele>416.1</ele>
        <time>2020-05-26T18:05:45Z</time>
      </trkpt>
      <trkpt lat="48.70109" lon="7.32931">
        <ele>416.5</ele>
        <time>2020-05-26T18:05:43Z</time>
      </trkpt>
      <trkpt lat="48.70104" lon="7.32933">
        <ele>416.9</ele>
        <time>2020-05-26T18:05:41Z</time>
      </trkpt>
      <trkpt lat="48.70098" lon="7.32935">
        <ele>417.4</ele>
        <time>2020-05-26T18:05:39Z</time>
      </trkpt>
      <trkpt lat="48.70092" lon="7.32937">
        <ele>417.7</ele>
        <time>2020-05-26T18:05:37Z</time>
      </trkpt>
      <trkpt lat="48.70086" lon="7.32938">
        <ele>418.2</ele>
        <time>2020-05-26T18:05:35Z</time>
      </trkpt>
      <trkpt lat="48.70082" lon="7.32939">
        <ele>418.4</ele>
        <time>2020-05-26T18:05:33Z</time>
      </trkpt>
      <trkpt lat="48.70075" lon="7.32941">
        <ele>417.8</ele>
        <time>2020-05-26T18:05:31Z</time>
      </trkpt>
      <trkpt lat="48.70069" lon="7.32944">
        <ele>417.4</ele>
        <time>2020-05-26T18:05:29Z</time>
      </trkpt>
      <trkpt lat="48.70063" lon="7.32947">
        <ele>417.5</ele>
        <time>2020-05-26T18:05:27Z</time>
      </trkpt>
      <trkpt lat="48.70056" lon="7.32951">
        <ele>417.5</ele>
        <time>2020-05-26T18:05:25Z</time>
      </trkpt>
      <trkpt lat="48.7005" lon="7.32956">
        <ele>418.3</ele>
        <time>2020-05-26T18:05:23Z</time>
      </trkpt>
      <trkpt lat="48.70044" lon="7.3296">
        <ele>418.2</ele>
        <time>2020-05-26T18:05:21Z</time>
      </trkpt>
      <trkpt lat="48.70036" lon="7.32964">
        <ele>417.3</ele>
        <time>2020-05-26T18:05:18Z</time>
      </trkpt>
      <trkpt lat="48.70031" lon="7.32966">
        <ele>415.8</ele>
        <time>2020-05-26T18:05:15Z</time>
      </trkpt>
      <trkpt lat="48.70025" lon="7.3297">
        <ele>415</ele>
        <time>2020-05-26T18:05:13Z</time>
      </trkpt>
      <trkpt lat="48.70019" lon="7.32973">
        <ele>414.7</ele>
        <time>2020-05-26T18:05:11Z</time>
      </trkpt>
      <trkpt lat="48.70012" lon="7.32977">
        <ele>414.9</ele>
        <time>2020-05-26T18:05:09Z</time>
      </trkpt>
      <trkpt lat="48.70007" lon="7.32981">
        <ele>414.7</ele>
        <time>2020-05-26T18:05:07Z</time>
      </trkpt>
      <trkpt lat="48.70001" lon="7.32984">
        <ele>414.8</ele>
        <time>2020-05-26T18:05:05Z</time>
      </trkpt>
      <trkpt lat="48.69996" lon="7.32987">
        <ele>414.4</ele>
        <time>2020-05-26T18:05:03Z</time>
      </trkpt>
      <trkpt lat="48.6999" lon="7.3299">
        <ele>414.5</ele>
        <time>2020-05-26T18:05:01Z</time>
      </trkpt>
      <trkpt lat="48.69983" lon="7.32991">
        <ele>414.3</ele>
        <time>2020-05-26T18:04:59Z</time>
      </trkpt>
      <trkpt lat="48.69975" lon="7.32989">
        <ele>414.9</ele>
        <time>2020-05-26T18:04:57Z</time>
      </trkpt>
      <trkpt lat="48.69969" lon="7.32988">
        <ele>414.9</ele>
        <time>2020-05-26T18:04:55Z</time>
      </trkpt>
      <trkpt lat="48.69962" lon="7.32987">
        <ele>414.8</ele>
        <time>2020-05-26T18:04:53Z</time>
      </trkpt>
      <trkpt lat="48.69957" lon="7.32987">
        <ele>414.7</ele>
        <time>2020-05-26T18:04:51Z</time>
      </trkpt>
      <trkpt lat="48.69951" lon="7.32987">
        <ele>414.6</ele>
        <time>2020-05-26T18:04:49Z</time>
      </trkpt>
      <trkpt lat="48.69945" lon="7.32987">
        <ele>415</ele>
        <time>2020-05-26T18:04:47Z</time>
      </trkpt>
      <trkpt lat="48.69938" lon="7.32985">
        <ele>415.7</ele>
        <time>2020-05-26T18:04:45Z</time>
      </trkpt>
      <trkpt lat="48.69931" lon="7.32985">
        <ele>416.2</ele>
        <time>2020-05-26T18:04:43Z</time>
      </trkpt>
      <trkpt lat="48.69925" lon="7.32985">
        <ele>416.7</ele>
        <time>2020-05-26T18:04:41Z</time>
      </trkpt>
      <trkpt lat="48.69919" lon="7.32985">
        <ele>416.9</ele>
        <time>2020-05-26T18:04:39Z</time>
      </trkpt>
      <trkpt lat="48.69913" lon="7.32985">
        <ele>417.9</ele>
        <time>2020-05-26T18:04:37Z</time>
      </trkpt>
      <trkpt lat="48.69907" lon="7.32985">
        <ele>418.3</ele>
        <time>2020-05-26T18:04:35Z</time>
      </trkpt>
      <trkpt lat="48.699" lon="7.32983">
        <ele>419.1</ele>
        <time>2020-05-26T18:04:33Z</time>
      </trkpt>
      <trkpt lat="48.69893" lon="7.32981">
        <ele>419.2</ele>
        <time>2020-05-26T18:04:31Z</time>
      </trkpt>
      <trkpt lat="48.69886" lon="7.3298">
        <ele>418.4</ele>
        <time>2020-05-26T18:04:29Z</time>
      </trkpt>
      <trkpt lat="48.69879" lon="7.32978">
        <ele>417.2</ele>
        <time>2020-05-26T18:04:27Z</time>
      </trkpt>
      <trkpt lat="48.69872" lon="7.32975">
        <ele>404.3</ele>
        <time>2020-05-26T18:04:25Z</time>
      </trkpt>
      <trkpt lat="48.69865" lon="7.32972">
        <ele>403.9</ele>
        <time>2020-05-26T18:04:23Z</time>
      </trkpt>
      <trkpt lat="48.69859" lon="7.32968">
        <ele>403.4</ele>
        <time>2020-05-26T18:04:21Z</time>
      </trkpt>
      <trkpt lat="48.69854" lon="7.32965">
        <ele>403.1</ele>
        <time>2020-05-26T18:04:19Z</time>
      </trkpt>
      <trkpt lat="48.69849" lon="7.32961">
        <ele>402.9</ele>
        <time>2020-05-26T18:04:17Z</time>
      </trkpt>
      <trkpt lat="48.69845" lon="7.32957">
        <ele>402.8</ele>
        <time>2020-05-26T18:04:15Z</time>
      </trkpt>
      <trkpt lat="48.6984" lon="7.32951">
        <ele>401.9</ele>
        <time>2020-05-26T18:04:12Z</time>
      </trkpt>
      <trkpt lat="48.69837" lon="7.32946">
        <ele>401.8</ele>
        <time>2020-05-26T18:04:10Z</time>
      </trkpt>
      <trkpt lat="48.69832" lon="7.3294">
        <ele>401.5</ele>
        <time>2020-05-26T18:04:08Z</time>
      </trkpt>
      <trkpt lat="48.69827" lon="7.32934">
        <ele>401.2</ele>
        <time>2020-05-26T18:04:06Z</time>
      </trkpt>
      <trkpt lat="48.69823" lon="7.32929">
        <ele>400.6</ele>
        <time>2020-05-26T18:04:04Z</time>
      </trkpt>
      <trkpt lat="48.69819" lon="7.32923">
        <ele>399.2</ele>
        <time>2020-05-26T18:04:02Z</time>
      </trkpt>
      <trkpt lat="48.69813" lon="7.32915">
        <ele>398.2</ele>
        <time>2020-05-26T18:04:00Z</time>
      </trkpt>
      <trkpt lat="48.69809" lon="7.32907">
        <ele>397.2</ele>
        <time>2020-05-26T18:03:58Z</time>
      </trkpt>
      <trkpt lat="48.69805" lon="7.32899">
        <ele>396.7</ele>
        <time>2020-05-26T18:03:56Z</time>
      </trkpt>
      <trkpt lat="48.698" lon="7.32891">
        <ele>395.8</ele>
        <time>2020-05-26T18:03:54Z</time>
      </trkpt>
      <trkpt lat="48.69795" lon="7.32883">
        <ele>394.5</ele>
        <time>2020-05-26T18:03:52Z</time>
      </trkpt>
      <trkpt lat="48.69792" lon="7.32874">
        <ele>393.1</ele>
        <time>2020-05-26T18:03:50Z</time>
      </trkpt>
      <trkpt lat="48.69789" lon="7.32867">
        <ele>392.8</ele>
        <time>2020-05-26T18:03:48Z</time>
      </trkpt>
      <trkpt lat="48.69786" lon="7.3286">
        <ele>392.6</ele>
        <time>2020-05-26T18:03:46Z</time>
      </trkpt>
      <trkpt lat="48.69782" lon="7.32853">
        <ele>391.7</ele>
        <time>2020-05-26T18:03:43Z</time>
      </trkpt>
      <trkpt lat="48.69779" lon="7.32847">
        <ele>391.1</ele>
        <time>2020-05-26T18:03:41Z</time>
      </trkpt>
      <trkpt lat="48.69776" lon="7.3284">
        <ele>391</ele>
        <time>2020-05-26T18:03:39Z</time>
      </trkpt>
      <trkpt lat="48.69772" lon="7.32834">
        <ele>391.5</ele>
        <time>2020-05-26T18:03:37Z</time>
      </trkpt>
      <trkpt lat="48.69768" lon="7.32828">
        <ele>392.7</ele>
        <time>2020-05-26T18:03:35Z</time>
      </trkpt>
      <trkpt lat="48.69764" lon="7.32822">
        <ele>393.8</ele>
        <time>2020-05-26T18:03:33Z</time>
      </trkpt>
      <trkpt lat="48.69759" lon="7.32817">
        <ele>394.9</ele>
        <time>2020-05-26T18:03:31Z</time>
      </trkpt>
      <trkpt lat="48.69755" lon="7.32812">
        <ele>396.4</ele>
        <time>2020-05-26T18:03:29Z</time>
      </trkpt>
      <trkpt lat="48.69752" lon="7.32805">
        <ele>398.4</ele>
        <time>2020-05-26T18:03:27Z</time>
      </trkpt>
      <trkpt lat="48.69749" lon="7.32798">
        <ele>401.4</ele>
        <time>2020-05-26T18:03:24Z</time>
      </trkpt>
      <trkpt lat="48.69744" lon="7.32793">
        <ele>404.7</ele>
        <time>2020-05-26T18:03:21Z</time>
      </trkpt>
      <trkpt lat="48.6974" lon="7.3279">
        <ele>406.4</ele>
        <time>2020-05-26T18:03:19Z</time>
      </trkpt>
      <trkpt lat="48.69736" lon="7.32784">
        <ele>410.7</ele>
        <time>2020-05-26T18:03:16Z</time>
      </trkpt>
      <trkpt lat="48.69732" lon="7.32777">
        <ele>414.4</ele>
        <time>2020-05-26T18:03:13Z</time>
      </trkpt>
      <trkpt lat="48.69729" lon="7.3277">
        <ele>408.8</ele>
        <time>2020-05-26T18:03:11Z</time>
      </trkpt>
      <trkpt lat="48.69726" lon="7.3276">
        <ele>408.5</ele>
        <time>2020-05-26T18:03:09Z</time>
      </trkpt>
      <trkpt lat="48.69723" lon="7.32751">
        <ele>403.9</ele>
        <time>2020-05-26T18:03:07Z</time>
      </trkpt>
      <trkpt lat="48.69721" lon="7.32741">
        <ele>396</ele>
        <time>2020-05-26T18:03:05Z</time>
      </trkpt>
      <trkpt lat="48.69717" lon="7.32731">
        <ele>383</ele>
        <time>2020-05-26T18:03:03Z</time>
      </trkpt>
      <trkpt lat="48.69713" lon="7.32725">
        <ele>382.8</ele>
        <time>2020-05-26T18:03:01Z</time>
      </trkpt>
      <trkpt lat="48.69709" lon="7.32719">
        <ele>382.6</ele>
        <time>2020-05-26T18:02:58Z</time>
      </trkpt>
      <trkpt lat="48.69706" lon="7.32713">
        <ele>382.6</ele>
        <time>2020-05-26T18:02:55Z</time>
      </trkpt>
      <trkpt lat="48.69702" lon="7.32705">
        <ele>383</ele>
        <time>2020-05-26T18:02:52Z</time>
      </trkpt>
      <trkpt lat="48.69698" lon="7.32699">
        <ele>384.3</ele>
        <time>2020-05-26T18:02:49Z</time>
      </trkpt>
      <trkpt lat="48.69695" lon="7.32691">
        <ele>385</ele>
        <time>2020-05-26T18:02:46Z</time>
      </trkpt>
      <trkpt lat="48.69692" lon="7.32686">
        <ele>385</ele>
        <time>2020-05-26T18:02:44Z</time>
      </trkpt>
      <trkpt lat="48.69689" lon="7.32679">
        <ele>385.7</ele>
        <time>2020-05-26T18:02:42Z</time>
      </trkpt>
      <trkpt lat="48.69685" lon="7.32673">
        <ele>385.1</ele>
        <time>2020-05-26T18:02:40Z</time>
      </trkpt>
      <trkpt lat="48.6968" lon="7.32666">
        <ele>384.9</ele>
        <time>2020-05-26T18:02:38Z</time>
      </trkpt>
      <trkpt lat="48.69675" lon="7.32664">
        <ele>385.7</ele>
        <time>2020-05-26T18:02:34Z</time>
      </trkpt>
      <trkpt lat="48.69679" lon="7.32668">
        <ele>386.4</ele>
        <time>2020-05-26T18:02:31Z</time>
      </trkpt>
      <trkpt lat="48.69685" lon="7.32664">
        <ele>386.2</ele>
        <time>2020-05-26T18:02:29Z</time>
      </trkpt>
      <trkpt lat="48.69694" lon="7.3266">
        <ele>386.2</ele>
        <time>2020-05-26T18:02:27Z</time>
      </trkpt>
      <trkpt lat="48.69703" lon="7.32659">
        <ele>386.4</ele>
        <time>2020-05-26T18:02:25Z</time>
      </trkpt>
      <trkpt lat="48.69713" lon="7.32657">
        <ele>386.1</ele>
        <time>2020-05-26T18:02:23Z</time>
      </trkpt>
      <trkpt lat="48.69721" lon="7.32654">
        <ele>385.7</ele>
        <time>2020-05-26T18:02:21Z</time>
      </trkpt>
      <trkpt lat="48.69726" lon="7.32658">
        <ele>385.8</ele>
        <time>2020-05-26T18:02:15Z</time>
      </trkpt>
      <trkpt lat="48.69721" lon="7.32656">
        <ele>386.5</ele>
        <time>2020-05-26T18:02:12Z</time>
      </trkpt>
      <trkpt lat="48.69715" lon="7.32656">
        <ele>386.3</ele>
        <time>2020-05-26T18:02:09Z</time>
      </trkpt>
      <trkpt lat="48.69709" lon="7.32654">
        <ele>385.8</ele>
        <time>2020-05-26T18:02:06Z</time>
      </trkpt>
      <trkpt lat="48.69704" lon="7.32652">
        <ele>385.2</ele>
        <time>2020-05-26T18:02:03Z</time>
      </trkpt>
      <trkpt lat="48.69699" lon="7.32651">
        <ele>385.6</ele>
        <time>2020-05-26T18:02:00Z</time>
      </trkpt>
      <trkpt lat="48.69694" lon="7.32652">
        <ele>386.5</ele>
        <time>2020-05-26T18:01:56Z</time>
      </trkpt>
      <trkpt lat="48.6969" lon="7.32651">
        <ele>383.3</ele>
        <time>2020-05-26T18:01:42Z</time>
      </trkpt>
      <trkpt lat="48.69685" lon="7.32652">
        <ele>383</ele>
        <time>2020-05-26T18:01:39Z</time>
      </trkpt>
      <trkpt lat="48.6968" lon="7.32652">
        <ele>383.2</ele>
        <time>2020-05-26T18:01:37Z</time>
      </trkpt>
      <trkpt lat="48.69674" lon="7.3265">
        <ele>382.8</ele>
        <time>2020-05-26T18:01:35Z</time>
      </trkpt>
      <trkpt lat="48.69667" lon="7.32646">
        <ele>383.4</ele>
        <time>2020-05-26T18:01:33Z</time>
      </trkpt>
      <trkpt lat="48.69658" lon="7.32641">
        <ele>383.6</ele>
        <time>2020-05-26T18:01:31Z</time>
      </trkpt>
      <trkpt lat="48.69647" lon="7.32639">
        <ele>384.4</ele>
        <time>2020-05-26T18:01:29Z</time>
      </trkpt>
      <trkpt lat="48.69637" lon="7.3264">
        <ele>385</ele>
        <time>2020-05-26T18:01:27Z</time>
      </trkpt>
      <trkpt lat="48.69628" lon="7.32643">
        <ele>385</ele>
        <time>2020-05-26T18:01:25Z</time>
      </trkpt>
      <trkpt lat="48.69619" lon="7.32647">
        <ele>384.8</ele>
        <time>2020-05-26T18:01:23Z</time>
      </trkpt>
      <trkpt lat="48.69612" lon="7.32648">
        <ele>384.9</ele>
        <time>2020-05-26T18:01:21Z</time>
      </trkpt>
      <trkpt lat="48.69607" lon="7.32647">
        <ele>384.9</ele>
        <time>2020-05-26T18:01:08Z</time>
      </trkpt>
      <trkpt lat="48.69605" lon="7.3264">
        <ele>386.2</ele>
        <time>2020-05-26T18:00:58Z</time>
      </trkpt>
      <trkpt lat="48.696" lon="7.3263">
        <ele>387.1</ele>
        <time>2020-05-26T18:00:55Z</time>
      </trkpt>
      <trkpt lat="48.69597" lon="7.32619">
        <ele>387.8</ele>
        <time>2020-05-26T18:00:53Z</time>
      </trkpt>
      <trkpt lat="48.69588" lon="7.32611">
        <ele>388.6</ele>
        <time>2020-05-26T18:00:50Z</time>
      </trkpt>
      <trkpt lat="48.69581" lon="7.32612">
        <ele>389.2</ele>
        <time>2020-05-26T18:00:48Z</time>
      </trkpt>
      <trkpt lat="48.69574" lon="7.32613">
        <ele>390</ele>
        <time>2020-05-26T18:00:46Z</time>
      </trkpt>
      <trkpt lat="48.69567" lon="7.32615">
        <ele>389.8</ele>
        <time>2020-05-26T18:00:44Z</time>
      </trkpt>
      <trkpt lat="48.6956" lon="7.32619">
        <ele>390.2</ele>
        <time>2020-05-26T18:00:42Z</time>
      </trkpt>
      <trkpt lat="48.69553" lon="7.32624">
        <ele>390.2</ele>
        <time>2020-05-26T18:00:40Z</time>
      </trkpt>
      <trkpt lat="48.69545" lon="7.32629">
        <ele>391.1</ele>
        <time>2020-05-26T18:00:38Z</time>
      </trkpt>
      <trkpt lat="48.69537" lon="7.32633">
        <ele>391.4</ele>
        <time>2020-05-26T18:00:36Z</time>
      </trkpt>
      <trkpt lat="48.69529" lon="7.32635">
        <ele>392.3</ele>
        <time>2020-05-26T18:00:34Z</time>
      </trkpt>
      <trkpt lat="48.69519" lon="7.32634">
        <ele>392.3</ele>
        <time>2020-05-26T18:00:32Z</time>
      </trkpt>
      <trkpt lat="48.6951" lon="7.32628">
        <ele>392.5</ele>
        <time>2020-05-26T18:00:30Z</time>
      </trkpt>
      <trkpt lat="48.69502" lon="7.32624">
        <ele>392.6</ele>
        <time>2020-05-26T18:00:28Z</time>
      </trkpt>
      <trkpt lat="48.69495" lon="7.32622">
        <ele>392.9</ele>
        <time>2020-05-26T18:00:26Z</time>
      </trkpt>
      <trkpt lat="48.69488" lon="7.3262">
        <ele>393.2</ele>
        <time>2020-05-26T18:00:24Z</time>
      </trkpt>
      <trkpt lat="48.69483" lon="7.32616">
        <ele>394.3</ele>
        <time>2020-05-26T18:00:22Z</time>
      </trkpt>
      <trkpt lat="48.69477" lon="7.32611">
        <ele>395.6</ele>
        <time>2020-05-26T18:00:19Z</time>
      </trkpt>
      <trkpt lat="48.69472" lon="7.32608">
        <ele>396.2</ele>
        <time>2020-05-26T17:59:57Z</time>
      </trkpt>
      <trkpt lat="48.69469" lon="7.32603">
        <ele>397.3</ele>
        <time>2020-05-26T17:59:50Z</time>
      </trkpt>
      <trkpt lat="48.69465" lon="7.32598">
        <ele>397.7</ele>
        <time>2020-05-26T17:59:48Z</time>
      </trkpt>
      <trkpt lat="48.69458" lon="7.32586">
        <ele>398.9</ele>
        <time>2020-05-26T17:59:46Z</time>
      </trkpt>
      <trkpt lat="48.69449" lon="7.32574">
        <ele>400.6</ele>
        <time>2020-05-26T17:59:44Z</time>
      </trkpt>
      <trkpt lat="48.69438" lon="7.32564">
        <ele>401.6</ele>
        <time>2020-05-26T17:59:42Z</time>
      </trkpt>
      <trkpt lat="48.69428" lon="7.32556">
        <ele>402.7</ele>
        <time>2020-05-26T17:59:40Z</time>
      </trkpt>
      <trkpt lat="48.69418" lon="7.32548">
        <ele>403.3</ele>
        <time>2020-05-26T17:59:38Z</time>
      </trkpt>
      <trkpt lat="48.69409" lon="7.3254">
        <ele>404.1</ele>
        <time>2020-05-26T17:59:36Z</time>
      </trkpt>
      <trkpt lat="48.694" lon="7.32532">
        <ele>406.5</ele>
        <time>2020-05-26T17:59:34Z</time>
      </trkpt>
      <trkpt lat="48.69393" lon="7.32528">
        <ele>408.5</ele>
        <time>2020-05-26T17:59:32Z</time>
      </trkpt>
      <trkpt lat="48.69387" lon="7.32522">
        <ele>410.1</ele>
        <time>2020-05-26T17:59:30Z</time>
      </trkpt>
      <trkpt lat="48.69381" lon="7.32519">
        <ele>411.8</ele>
        <time>2020-05-26T17:59:28Z</time>
      </trkpt>
      <trkpt lat="48.69373" lon="7.32515">
        <ele>413.4</ele>
        <time>2020-05-26T17:59:26Z</time>
      </trkpt>
      <trkpt lat="48.69365" lon="7.3251">
        <ele>414.7</ele>
        <time>2020-05-26T17:59:24Z</time>
      </trkpt>
      <trkpt lat="48.69357" lon="7.32505">
        <ele>416</ele>
        <time>2020-05-26T17:59:22Z</time>
      </trkpt>
      <trkpt lat="48.6935" lon="7.32503">
        <ele>417.5</ele>
        <time>2020-05-26T17:59:20Z</time>
      </trkpt>
      <trkpt lat="48.69345" lon="7.32497">
        <ele>419.8</ele>
        <time>2020-05-26T17:59:18Z</time>
      </trkpt>
      <trkpt lat="48.69341" lon="7.3249">
        <ele>421.9</ele>
        <time>2020-05-26T17:59:16Z</time>
      </trkpt>
      <trkpt lat="48.69335" lon="7.32481">
        <ele>423.5</ele>
        <time>2020-05-26T17:59:14Z</time>
      </trkpt>
      <trkpt lat="48.6933" lon="7.3247">
        <ele>424.9</ele>
        <time>2020-05-26T17:59:12Z</time>
      </trkpt>
      <trkpt lat="48.69326" lon="7.3246">
        <ele>426.7</ele>
        <time>2020-05-26T17:59:10Z</time>
      </trkpt>
      <trkpt lat="48.69322" lon="7.32454">
        <ele>428.4</ele>
        <time>2020-05-26T17:59:08Z</time>
      </trkpt>
      <trkpt lat="48.69318" lon="7.32446">
        <ele>430.5</ele>
        <time>2020-05-26T17:59:06Z</time>
      </trkpt>
      <trkpt lat="48.69314" lon="7.32436">
        <ele>432.1</ele>
        <time>2020-05-26T17:59:04Z</time>
      </trkpt>
      <trkpt lat="48.6931" lon="7.32424">
        <ele>434.2</ele>
        <time>2020-05-26T17:59:02Z</time>
      </trkpt>
      <trkpt lat="48.69302" lon="7.32415">
        <ele>435.7</ele>
        <time>2020-05-26T17:59:00Z</time>
      </trkpt>
      <trkpt lat="48.69293" lon="7.32405">
        <ele>437.5</ele>
        <time>2020-05-26T17:58:58Z</time>
      </trkpt>
      <trkpt lat="48.69286" lon="7.32393">
        <ele>439</ele>
        <time>2020-05-26T17:58:56Z</time>
      </trkpt>
      <trkpt lat="48.6928" lon="7.32381">
        <ele>439.7</ele>
        <time>2020-05-26T17:58:54Z</time>
      </trkpt>
      <trkpt lat="48.69274" lon="7.3237">
        <ele>440.3</ele>
        <time>2020-05-26T17:58:52Z</time>
      </trkpt>
      <trkpt lat="48.69269" lon="7.32353">
        <ele>440.5</ele>
        <time>2020-05-26T17:58:50Z</time>
      </trkpt>
      <trkpt lat="48.69262" lon="7.32336">
        <ele>440.5</ele>
        <time>2020-05-26T17:58:48Z</time>
      </trkpt>
      <trkpt lat="48.69254" lon="7.32322">
        <ele>440.9</ele>
        <time>2020-05-26T17:58:46Z</time>
      </trkpt>
      <trkpt lat="48.69246" lon="7.32311">
        <ele>441.2</ele>
        <time>2020-05-26T17:58:44Z</time>
      </trkpt>
      <trkpt lat="48.69237" lon="7.32302">
        <ele>441.3</ele>
        <time>2020-05-26T17:58:42Z</time>
      </trkpt>
      <trkpt lat="48.69229" lon="7.32294">
        <ele>441.9</ele>
        <time>2020-05-26T17:58:40Z</time>
      </trkpt>
      <trkpt lat="48.6922" lon="7.32284">
        <ele>441.9</ele>
        <time>2020-05-26T17:58:38Z</time>
      </trkpt>
      <trkpt lat="48.6921" lon="7.32272">
        <ele>440.9</ele>
        <time>2020-05-26T17:58:36Z</time>
      </trkpt>
      <trkpt lat="48.69204" lon="7.32255">
        <ele>438.7</ele>
        <time>2020-05-26T17:58:34Z</time>
      </trkpt>
      <trkpt lat="48.69197" lon="7.32239">
        <ele>433.1</ele>
        <time>2020-05-26T17:58:32Z</time>
      </trkpt>
      <trkpt lat="48.69189" lon="7.32225">
        <ele>427.1</ele>
        <time>2020-05-26T17:58:30Z</time>
      </trkpt>
      <trkpt lat="48.69183" lon="7.3221">
        <ele>413.3</ele>
        <time>2020-05-26T17:58:28Z</time>
      </trkpt>
      <trkpt lat="48.69179" lon="7.32193">
        <ele>408.2</ele>
        <time>2020-05-26T17:58:26Z</time>
      </trkpt>
      <trkpt lat="48.69174" lon="7.32177">
        <ele>403</ele>
        <time>2020-05-26T17:58:24Z</time>
      </trkpt>
      <trkpt lat="48.69171" lon="7.32163">
        <ele>402.4</ele>
        <time>2020-05-26T17:58:22Z</time>
      </trkpt>
      <trkpt lat="48.69169" lon="7.3215">
        <ele>398.9</ele>
        <time>2020-05-26T17:58:20Z</time>
      </trkpt>
      <trkpt lat="48.69165" lon="7.32132">
        <ele>427.6</ele>
        <time>2020-05-26T17:58:18Z</time>
      </trkpt>
      <trkpt lat="48.69161" lon="7.32119">
        <ele>421.3</ele>
        <time>2020-05-26T17:58:16Z</time>
      </trkpt>
      <trkpt lat="48.69159" lon="7.32107">
        <ele>414.6</ele>
        <time>2020-05-26T17:58:14Z</time>
      </trkpt>
      <trkpt lat="48.69156" lon="7.32092">
        <ele>405.1</ele>
        <time>2020-05-26T17:58:12Z</time>
      </trkpt>
      <trkpt lat="48.69154" lon="7.32075">
        <ele>400.4</ele>
        <time>2020-05-26T17:58:10Z</time>
      </trkpt>
      <trkpt lat="48.69148" lon="7.32062">
        <ele>393.5</ele>
        <time>2020-05-26T17:58:08Z</time>
      </trkpt>
      <trkpt lat="48.69145" lon="7.3205">
        <ele>389.6</ele>
        <time>2020-05-26T17:58:06Z</time>
      </trkpt>
      <trkpt lat="48.69142" lon="7.3204">
        <ele>403.4</ele>
        <time>2020-05-26T17:58:04Z</time>
      </trkpt>
      <trkpt lat="48.69139" lon="7.3203">
        <ele>400.9</ele>
        <time>2020-05-26T17:58:02Z</time>
      </trkpt>
      <trkpt lat="48.69135" lon="7.32022">
        <ele>393.6</ele>
        <time>2020-05-26T17:58:00Z</time>
      </trkpt>
      <trkpt lat="48.6913" lon="7.32014">
        <ele>416.4</ele>
        <time>2020-05-26T17:57:58Z</time>
      </trkpt>
      <trkpt lat="48.69124" lon="7.32005">
        <ele>407.9</ele>
        <time>2020-05-26T17:57:56Z</time>
      </trkpt>
      <trkpt lat="48.69119" lon="7.31997">
        <ele>402.3</ele>
        <time>2020-05-26T17:57:54Z</time>
      </trkpt>
      <trkpt lat="48.69114" lon="7.31992">
        <ele>398</ele>
        <time>2020-05-26T17:57:52Z</time>
      </trkpt>
      <trkpt lat="48.6911" lon="7.3199">
        <ele>411.1</ele>
        <time>2020-05-26T17:57:50Z</time>
      </trkpt>
      <trkpt lat="48.69104" lon="7.31989">
        <ele>405.8</ele>
        <time>2020-05-26T17:57:48Z</time>
      </trkpt>
      <trkpt lat="48.69096" lon="7.31988">
        <ele>428.2</ele>
        <time>2020-05-26T17:57:46Z</time>
      </trkpt>
      <trkpt lat="48.69086" lon="7.31987">
        <ele>431</ele>
        <time>2020-05-26T17:57:44Z</time>
      </trkpt>
      <trkpt lat="48.69072" lon="7.31988">
        <ele>477.8</ele>
        <time>2020-05-26T17:57:42Z</time>
      </trkpt>
      <trkpt lat="48.69061" lon="7.31986">
        <ele>479</ele>
        <time>2020-05-26T17:57:40Z</time>
      </trkpt>
      <trkpt lat="48.69051" lon="7.31984">
        <ele>480.6</ele>
        <time>2020-05-26T17:57:38Z</time>
      </trkpt>
      <trkpt lat="48.69041" lon="7.31978">
        <ele>481.5</ele>
        <time>2020-05-26T17:57:36Z</time>
      </trkpt>
      <trkpt lat="48.69034" lon="7.31975">
        <ele>482</ele>
        <time>2020-05-26T17:57:34Z</time>
      </trkpt>
      <trkpt lat="48.69028" lon="7.31972">
        <ele>482.2</ele>
        <time>2020-05-26T17:57:32Z</time>
      </trkpt>
      <trkpt lat="48.69023" lon="7.31967">
        <ele>479.4</ele>
        <time>2020-05-26T17:57:21Z</time>
      </trkpt>
      <trkpt lat="48.69019" lon="7.31964">
        <ele>479.5</ele>
        <time>2020-05-26T17:57:18Z</time>
      </trkpt>
      <trkpt lat="48.69012" lon="7.31962">
        <ele>480.7</ele>
        <time>2020-05-26T17:57:16Z</time>
      </trkpt>
      <trkpt lat="48.69002" lon="7.31961">
        <ele>481.7</ele>
        <time>2020-05-26T17:57:14Z</time>
      </trkpt>
      <trkpt lat="48.68994" lon="7.31958">
        <ele>482.8</ele>
        <time>2020-05-26T17:57:12Z</time>
      </trkpt>
      <trkpt lat="48.68987" lon="7.31955">
        <ele>482.6</ele>
        <time>2020-05-26T17:57:10Z</time>
      </trkpt>
      <trkpt lat="48.6898" lon="7.31952">
        <ele>482.4</ele>
        <time>2020-05-26T17:57:08Z</time>
      </trkpt>
      <trkpt lat="48.68971" lon="7.31947">
        <ele>482.1</ele>
        <time>2020-05-26T17:57:06Z</time>
      </trkpt>
      <trkpt lat="48.68964" lon="7.31943">
        <ele>482.3</ele>
        <time>2020-05-26T17:57:04Z</time>
      </trkpt>
      <trkpt lat="48.68954" lon="7.31939">
        <ele>482.8</ele>
        <time>2020-05-26T17:57:01Z</time>
      </trkpt>
      <trkpt lat="48.68948" lon="7.31936">
        <ele>481.9</ele>
        <time>2020-05-26T17:56:59Z</time>
      </trkpt>
      <trkpt lat="48.68944" lon="7.31934">
        <ele>480.3</ele>
        <time>2020-05-26T17:56:57Z</time>
      </trkpt>
      <trkpt lat="48.68938" lon="7.31933">
        <ele>479</ele>
        <time>2020-05-26T17:56:55Z</time>
      </trkpt>
      <trkpt lat="48.68932" lon="7.3193">
        <ele>478</ele>
        <time>2020-05-26T17:56:53Z</time>
      </trkpt>
      <trkpt lat="48.68926" lon="7.31928">
        <ele>477.2</ele>
        <time>2020-05-26T17:56:51Z</time>
      </trkpt>
      <trkpt lat="48.68919" lon="7.31927">
        <ele>476.9</ele>
        <time>2020-05-26T17:56:49Z</time>
      </trkpt>
      <trkpt lat="48.68914" lon="7.31925">
        <ele>476.8</ele>
        <time>2020-05-26T17:56:47Z</time>
      </trkpt>
      <trkpt lat="48.68908" lon="7.31923">
        <ele>477.4</ele>
        <time>2020-05-26T17:56:45Z</time>
      </trkpt>
      <trkpt lat="48.68904" lon="7.31919">
        <ele>476.5</ele>
        <time>2020-05-26T17:56:43Z</time>
      </trkpt>
      <trkpt lat="48.68898" lon="7.31914">
        <ele>476.1</ele>
        <time>2020-05-26T17:56:40Z</time>
      </trkpt>
      <trkpt lat="48.68893" lon="7.31912">
        <ele>478.3</ele>
        <time>2020-05-26T17:56:38Z</time>
      </trkpt>
      <trkpt lat="48.68888" lon="7.31909">
        <ele>477.8</ele>
        <time>2020-05-26T17:56:36Z</time>
      </trkpt>
      <trkpt lat="48.68884" lon="7.31906">
        <ele>476.7</ele>
        <time>2020-05-26T17:56:34Z</time>
      </trkpt>
      <trkpt lat="48.68878" lon="7.31903">
        <ele>475.8</ele>
        <time>2020-05-26T17:56:32Z</time>
      </trkpt>
      <trkpt lat="48.68873" lon="7.319">
        <ele>474.3</ele>
        <time>2020-05-26T17:56:30Z</time>
      </trkpt>
      <trkpt lat="48.68869" lon="7.31897">
        <ele>473.1</ele>
        <time>2020-05-26T17:56:28Z</time>
      </trkpt>
      <trkpt lat="48.68864" lon="7.31893">
        <ele>472.3</ele>
        <time>2020-05-26T17:56:26Z</time>
      </trkpt>
      <trkpt lat="48.6886" lon="7.3189">
        <ele>473</ele>
        <time>2020-05-26T17:56:24Z</time>
      </trkpt>
      <trkpt lat="48.68856" lon="7.31886">
        <ele>472.4</ele>
        <time>2020-05-26T17:56:22Z</time>
      </trkpt>
      <trkpt lat="48.68852" lon="7.31881">
        <ele>471.6</ele>
        <time>2020-05-26T17:56:20Z</time>
      </trkpt>
      <trkpt lat="48.68847" lon="7.31877">
        <ele>470.7</ele>
        <time>2020-05-26T17:56:18Z</time>
      </trkpt>
      <trkpt lat="48.68842" lon="7.31871">
        <ele>469.5</ele>
        <time>2020-05-26T17:56:15Z</time>
      </trkpt>
      <trkpt lat="48.68839" lon="7.31866">
        <ele>469.6</ele>
        <time>2020-05-26T17:56:13Z</time>
      </trkpt>
      <trkpt lat="48.68833" lon="7.3186">
        <ele>468.8</ele>
        <time>2020-05-26T17:56:10Z</time>
      </trkpt>
      <trkpt lat="48.6883" lon="7.31857">
        <ele>469.4</ele>
        <time>2020-05-26T17:56:08Z</time>
      </trkpt>
      <trkpt lat="48.68824" lon="7.31852">
        <ele>468.7</ele>
        <time>2020-05-26T17:56:05Z</time>
      </trkpt>
      <trkpt lat="48.6882" lon="7.31847">
        <ele>467.8</ele>
        <time>2020-05-26T17:56:03Z</time>
      </trkpt>
      <trkpt lat="48.68815" lon="7.31842">
        <ele>466.7</ele>
        <time>2020-05-26T17:56:01Z</time>
      </trkpt>
      <trkpt lat="48.68811" lon="7.31837">
        <ele>466.3</ele>
        <time>2020-05-26T17:55:59Z</time>
      </trkpt>
      <trkpt lat="48.68808" lon="7.31832">
        <ele>466</ele>
        <time>2020-05-26T17:55:57Z</time>
      </trkpt>
      <trkpt lat="48.68805" lon="7.31827">
        <ele>465.5</ele>
        <time>2020-05-26T17:55:55Z</time>
      </trkpt>
      <trkpt lat="48.68802" lon="7.31821">
        <ele>464.6</ele>
        <time>2020-05-26T17:55:53Z</time>
      </trkpt>
      <trkpt lat="48.68797" lon="7.31814">
        <ele>463.6</ele>
        <time>2020-05-26T17:55:51Z</time>
      </trkpt>
      <trkpt lat="48.68792" lon="7.31807">
        <ele>462.8</ele>
        <time>2020-05-26T17:55:49Z</time>
      </trkpt>
      <trkpt lat="48.68788" lon="7.31799">
        <ele>462.5</ele>
        <time>2020-05-26T17:55:47Z</time>
      </trkpt>
      <trkpt lat="48.68784" lon="7.31793">
        <ele>462</ele>
        <time>2020-05-26T17:55:45Z</time>
      </trkpt>
      <trkpt lat="48.6878" lon="7.31786">
        <ele>461.9</ele>
        <time>2020-05-26T17:55:43Z</time>
      </trkpt>
      <trkpt lat="48.68777" lon="7.3178">
        <ele>462.1</ele>
        <time>2020-05-26T17:55:41Z</time>
      </trkpt>
      <trkpt lat="48.68773" lon="7.31773">
        <ele>462.7</ele>
        <time>2020-05-26T17:55:39Z</time>
      </trkpt>
      <trkpt lat="48.6877" lon="7.31767">
        <ele>462.7</ele>
        <time>2020-05-26T17:55:37Z</time>
      </trkpt>
      <trkpt lat="48.68766" lon="7.3176">
        <ele>463</ele>
        <time>2020-05-26T17:55:35Z</time>
      </trkpt>
      <trkpt lat="48.68762" lon="7.31753">
        <ele>463.7</ele>
        <time>2020-05-26T17:55:33Z</time>
      </trkpt>
      <trkpt lat="48.68758" lon="7.31746">
        <ele>463.9</ele>
        <time>2020-05-26T17:55:31Z</time>
      </trkpt>
      <trkpt lat="48.68754" lon="7.31739">
        <ele>464</ele>
        <time>2020-05-26T17:55:29Z</time>
      </trkpt>
      <trkpt lat="48.6875" lon="7.31733">
        <ele>464.5</ele>
        <time>2020-05-26T17:55:27Z</time>
      </trkpt>
      <trkpt lat="48.68745" lon="7.31726">
        <ele>464.9</ele>
        <time>2020-05-26T17:55:25Z</time>
      </trkpt>
      <trkpt lat="48.6874" lon="7.3172">
        <ele>464.8</ele>
        <time>2020-05-26T17:55:23Z</time>
      </trkpt>
      <trkpt lat="48.68735" lon="7.31715">
        <ele>464</ele>
        <time>2020-05-26T17:55:21Z</time>
      </trkpt>
      <trkpt lat="48.68729" lon="7.31709">
        <ele>463.5</ele>
        <time>2020-05-26T17:55:19Z</time>
      </trkpt>
      <trkpt lat="48.68725" lon="7.31701">
        <ele>462.6</ele>
        <time>2020-05-26T17:55:17Z</time>
      </trkpt>
      <trkpt lat="48.6872" lon="7.31693">
        <ele>461.9</ele>
        <time>2020-05-26T17:55:15Z</time>
      </trkpt>
      <trkpt lat="48.68715" lon="7.31687">
        <ele>461.7</ele>
        <time>2020-05-26T17:55:13Z</time>
      </trkpt>
      <trkpt lat="48.68711" lon="7.31679">
        <ele>462.2</ele>
        <time>2020-05-26T17:55:11Z</time>
      </trkpt>
      <trkpt lat="48.68708" lon="7.31671">
        <ele>461.8</ele>
        <time>2020-05-26T17:55:09Z</time>
      </trkpt>
      <trkpt lat="48.68703" lon="7.31664">
        <ele>460.7</ele>
        <time>2020-05-26T17:55:07Z</time>
      </trkpt>
      <trkpt lat="48.68698" lon="7.31655">
        <ele>460.5</ele>
        <time>2020-05-26T17:55:05Z</time>
      </trkpt>
      <trkpt lat="48.68692" lon="7.31645">
        <ele>460.4</ele>
        <time>2020-05-26T17:55:03Z</time>
      </trkpt>
      <trkpt lat="48.68686" lon="7.31635">
        <ele>461.4</ele>
        <time>2020-05-26T17:55:01Z</time>
      </trkpt>
      <trkpt lat="48.68679" lon="7.31626">
        <ele>461.8</ele>
        <time>2020-05-26T17:54:59Z</time>
      </trkpt>
      <trkpt lat="48.6867" lon="7.31615">
        <ele>463.5</ele>
        <time>2020-05-26T17:54:57Z</time>
      </trkpt>
      <trkpt lat="48.68663" lon="7.31609">
        <ele>463.6</ele>
        <time>2020-05-26T17:54:55Z</time>
      </trkpt>
      <trkpt lat="48.68658" lon="7.31604">
        <ele>464</ele>
        <time>2020-05-26T17:54:53Z</time>
      </trkpt>
      <trkpt lat="48.68653" lon="7.316">
        <ele>464.4</ele>
        <time>2020-05-26T17:54:51Z</time>
      </trkpt>
      <trkpt lat="48.68648" lon="7.31596">
        <ele>464.6</ele>
        <time>2020-05-26T17:54:49Z</time>
      </trkpt>
      <trkpt lat="48.68642" lon="7.31591">
        <ele>464.8</ele>
        <time>2020-05-26T17:54:47Z</time>
      </trkpt>
      <trkpt lat="48.68635" lon="7.31586">
        <ele>464.3</ele>
        <time>2020-05-26T17:54:44Z</time>
      </trkpt>
      <trkpt lat="48.6863" lon="7.31583">
        <ele>464.8</ele>
        <time>2020-05-26T17:54:40Z</time>
      </trkpt>
      <trkpt lat="48.68626" lon="7.31579">
        <ele>462</ele>
        <time>2020-05-26T17:53:35Z</time>
      </trkpt>
      <trkpt lat="48.68624" lon="7.31573">
        <ele>458.6</ele>
        <time>2020-05-26T17:53:29Z</time>
      </trkpt>
      <trkpt lat="48.68618" lon="7.31568">
        <ele>459.1</ele>
        <time>2020-05-26T17:53:27Z</time>
      </trkpt>
      <trkpt lat="48.68608" lon="7.31563">
        <ele>460.1</ele>
        <time>2020-05-26T17:53:25Z</time>
      </trkpt>
      <trkpt lat="48.68596" lon="7.31558">
        <ele>459.9</ele>
        <time>2020-05-26T17:53:23Z</time>
      </trkpt>
      <trkpt lat="48.68583" lon="7.31551">
        <ele>459.9</ele>
        <time>2020-05-26T17:53:21Z</time>
      </trkpt>
      <trkpt lat="48.68568" lon="7.31543">
        <ele>460</ele>
        <time>2020-05-26T17:53:19Z</time>
      </trkpt>
      <trkpt lat="48.68553" lon="7.31538">
        <ele>460.8</ele>
        <time>2020-05-26T17:53:17Z</time>
      </trkpt>
      <trkpt lat="48.68537" lon="7.31533">
        <ele>461.5</ele>
        <time>2020-05-26T17:53:15Z</time>
      </trkpt>
      <trkpt lat="48.68525" lon="7.31529">
        <ele>461.6</ele>
        <time>2020-05-26T17:53:13Z</time>
      </trkpt>
      <trkpt lat="48.68514" lon="7.31526">
        <ele>463.1</ele>
        <time>2020-05-26T17:53:11Z</time>
      </trkpt>
      <trkpt lat="48.68505" lon="7.31523">
        <ele>464.6</ele>
        <time>2020-05-26T17:53:09Z</time>
      </trkpt>
      <trkpt lat="48.68493" lon="7.3152">
        <ele>464.2</ele>
        <time>2020-05-26T17:53:07Z</time>
      </trkpt>
      <trkpt lat="48.68482" lon="7.31518">
        <ele>465</ele>
        <time>2020-05-26T17:53:05Z</time>
      </trkpt>
      <trkpt lat="48.68473" lon="7.31516">
        <ele>465.2</ele>
        <time>2020-05-26T17:53:03Z</time>
      </trkpt>
      <trkpt lat="48.68462" lon="7.31512">
        <ele>465.6</ele>
        <time>2020-05-26T17:53:01Z</time>
      </trkpt>
      <trkpt lat="48.68453" lon="7.31505">
        <ele>466.5</ele>
        <time>2020-05-26T17:52:59Z</time>
      </trkpt>
      <trkpt lat="48.68444" lon="7.31499">
        <ele>467.9</ele>
        <time>2020-05-26T17:52:57Z</time>
      </trkpt>
      <trkpt lat="48.68436" lon="7.31492">
        <ele>469.4</ele>
        <time>2020-05-26T17:52:55Z</time>
      </trkpt>
      <trkpt lat="48.68427" lon="7.31487">
        <ele>470.4</ele>
        <time>2020-05-26T17:52:53Z</time>
      </trkpt>
      <trkpt lat="48.68418" lon="7.31482">
        <ele>471.7</ele>
        <time>2020-05-26T17:52:51Z</time>
      </trkpt>
      <trkpt lat="48.68408" lon="7.31476">
        <ele>472.7</ele>
        <time>2020-05-26T17:52:49Z</time>
      </trkpt>
      <trkpt lat="48.68399" lon="7.31467">
        <ele>473.3</ele>
        <time>2020-05-26T17:52:47Z</time>
      </trkpt>
      <trkpt lat="48.68392" lon="7.3146">
        <ele>473.1</ele>
        <time>2020-05-26T17:52:45Z</time>
      </trkpt>
      <trkpt lat="48.68383" lon="7.31452">
        <ele>473.3</ele>
        <time>2020-05-26T17:52:43Z</time>
      </trkpt>
      <trkpt lat="48.68372" lon="7.31442">
        <ele>473.1</ele>
        <time>2020-05-26T17:52:41Z</time>
      </trkpt>
      <trkpt lat="48.68363" lon="7.31434">
        <ele>473.3</ele>
        <time>2020-05-26T17:52:39Z</time>
      </trkpt>
      <trkpt lat="48.68356" lon="7.31426">
        <ele>473.8</ele>
        <time>2020-05-26T17:52:37Z</time>
      </trkpt>
      <trkpt lat="48.68347" lon="7.31415">
        <ele>474</ele>
        <time>2020-05-26T17:52:35Z</time>
      </trkpt>
      <trkpt lat="48.68338" lon="7.31405">
        <ele>474.4</ele>
        <time>2020-05-26T17:52:33Z</time>
      </trkpt>
      <trkpt lat="48.68329" lon="7.31398">
        <ele>474.6</ele>
        <time>2020-05-26T17:52:31Z</time>
      </trkpt>
      <trkpt lat="48.6832" lon="7.3139">
        <ele>474.3</ele>
        <time>2020-05-26T17:52:29Z</time>
      </trkpt>
      <trkpt lat="48.68311" lon="7.31384">
        <ele>474.4</ele>
        <time>2020-05-26T17:52:27Z</time>
      </trkpt>
      <trkpt lat="48.68302" lon="7.31379">
        <ele>474.8</ele>
        <time>2020-05-26T17:52:25Z</time>
      </trkpt>
      <trkpt lat="48.68294" lon="7.31371">
        <ele>475.6</ele>
        <time>2020-05-26T17:52:23Z</time>
      </trkpt>
      <trkpt lat="48.68287" lon="7.31362">
        <ele>475.4</ele>
        <time>2020-05-26T17:52:21Z</time>
      </trkpt>
      <trkpt lat="48.68281" lon="7.31357">
        <ele>475.8</ele>
        <time>2020-05-26T17:52:19Z</time>
      </trkpt>
      <trkpt lat="48.68277" lon="7.31351">
        <ele>475.8</ele>
        <time>2020-05-26T17:52:17Z</time>
      </trkpt>
      <trkpt lat="48.68273" lon="7.31345">
        <ele>476.5</ele>
        <time>2020-05-26T17:52:14Z</time>
      </trkpt>
      <trkpt lat="48.68269" lon="7.3134">
        <ele>479.6</ele>
        <time>2020-05-26T17:52:07Z</time>
      </trkpt>
      <trkpt lat="48.68265" lon="7.31335">
        <ele>479.8</ele>
        <time>2020-05-26T17:52:05Z</time>
      </trkpt>
      <trkpt lat="48.6826" lon="7.31329">
        <ele>479.5</ele>
        <time>2020-05-26T17:52:03Z</time>
      </trkpt>
      <trkpt lat="48.68254" lon="7.31324">
        <ele>479.4</ele>
        <time>2020-05-26T17:52:01Z</time>
      </trkpt>
      <trkpt lat="48.68245" lon="7.31319">
        <ele>480</ele>
        <time>2020-05-26T17:51:59Z</time>
      </trkpt>
      <trkpt lat="48.68236" lon="7.31311">
        <ele>478.8</ele>
        <time>2020-05-26T17:51:56Z</time>
      </trkpt>
      <trkpt lat="48.6823" lon="7.31303">
        <ele>477.9</ele>
        <time>2020-05-26T17:51:54Z</time>
      </trkpt>
      <trkpt lat="48.68222" lon="7.31286">
        <ele>476.6</ele>
        <time>2020-05-26T17:51:51Z</time>
      </trkpt>
      <trkpt lat="48.68219" lon="7.31278">
        <ele>474.8</ele>
        <time>2020-05-26T17:51:49Z</time>
      </trkpt>
      <trkpt lat="48.68214" lon="7.31269">
        <ele>473.7</ele>
        <time>2020-05-26T17:51:47Z</time>
      </trkpt>
      <trkpt lat="48.68208" lon="7.31255">
        <ele>471.6</ele>
        <time>2020-05-26T17:51:44Z</time>
      </trkpt>
      <trkpt lat="48.68204" lon="7.31244">
        <ele>472.3</ele>
        <time>2020-05-26T17:51:42Z</time>
      </trkpt>
      <trkpt lat="48.68199" lon="7.31233">
        <ele>472.3</ele>
        <time>2020-05-26T17:51:40Z</time>
      </trkpt>
      <trkpt lat="48.68189" lon="7.31217">
        <ele>471.2</ele>
        <time>2020-05-26T17:51:37Z</time>
      </trkpt>
      <trkpt lat="48.68184" lon="7.31208">
        <ele>470.6</ele>
        <time>2020-05-26T17:51:35Z</time>
      </trkpt>
      <trkpt lat="48.68177" lon="7.31201">
        <ele>470.7</ele>
        <time>2020-05-26T17:51:33Z</time>
      </trkpt>
      <trkpt lat="48.68172" lon="7.31192">
        <ele>471.5</ele>
        <time>2020-05-26T17:51:31Z</time>
      </trkpt>
      <trkpt lat="48.68168" lon="7.31184">
        <ele>471.5</ele>
        <time>2020-05-26T17:51:29Z</time>
      </trkpt>
      <trkpt lat="48.68161" lon="7.31175">
        <ele>471.3</ele>
        <time>2020-05-26T17:51:27Z</time>
      </trkpt>
      <trkpt lat="48.68157" lon="7.31168">
        <ele>471.4</ele>
        <time>2020-05-26T17:51:24Z</time>
      </trkpt>
      <trkpt lat="48.68156" lon="7.31162">
        <ele>474.4</ele>
        <time>2020-05-26T17:51:02Z</time>
      </trkpt>
      <trkpt lat="48.68152" lon="7.31157">
        <ele>474.4</ele>
        <time>2020-05-26T17:50:57Z</time>
      </trkpt>
      <trkpt lat="48.68147" lon="7.31156">
        <ele>474.5</ele>
        <time>2020-05-26T17:50:54Z</time>
      </trkpt>
      <trkpt lat="48.68142" lon="7.31157">
        <ele>475.3</ele>
        <time>2020-05-26T17:50:52Z</time>
      </trkpt>
      <trkpt lat="48.68133" lon="7.31154">
        <ele>476.3</ele>
        <time>2020-05-26T17:50:49Z</time>
      </trkpt>
      <trkpt lat="48.68125" lon="7.31139">
        <ele>477.4</ele>
        <time>2020-05-26T17:50:46Z</time>
      </trkpt>
      <trkpt lat="48.68119" lon="7.31129">
        <ele>478.1</ele>
        <time>2020-05-26T17:50:44Z</time>
      </trkpt>
      <trkpt lat="48.68111" lon="7.3112">
        <ele>478.5</ele>
        <time>2020-05-26T17:50:42Z</time>
      </trkpt>
      <trkpt lat="48.68103" lon="7.31113">
        <ele>479</ele>
        <time>2020-05-26T17:50:40Z</time>
      </trkpt>
      <trkpt lat="48.68095" lon="7.31107">
        <ele>478.8</ele>
        <time>2020-05-26T17:50:38Z</time>
      </trkpt>
      <trkpt lat="48.68088" lon="7.31099">
        <ele>478.7</ele>
        <time>2020-05-26T17:50:36Z</time>
      </trkpt>
      <trkpt lat="48.68078" lon="7.31089">
        <ele>478.1</ele>
        <time>2020-05-26T17:50:34Z</time>
      </trkpt>
      <trkpt lat="48.6807" lon="7.31077">
        <ele>477.9</ele>
        <time>2020-05-26T17:50:32Z</time>
      </trkpt>
      <trkpt lat="48.68061" lon="7.31066">
        <ele>478.2</ele>
        <time>2020-05-26T17:50:30Z</time>
      </trkpt>
      <trkpt lat="48.68053" lon="7.31055">
        <ele>479.2</ele>
        <time>2020-05-26T17:50:28Z</time>
      </trkpt>
      <trkpt lat="48.68046" lon="7.31044">
        <ele>480.8</ele>
        <time>2020-05-26T17:50:26Z</time>
      </trkpt>
      <trkpt lat="48.68041" lon="7.31029">
        <ele>481</ele>
        <time>2020-05-26T17:50:24Z</time>
      </trkpt>
      <trkpt lat="48.68036" lon="7.3101">
        <ele>481</ele>
        <time>2020-05-26T17:50:22Z</time>
      </trkpt>
      <trkpt lat="48.68032" lon="7.30994">
        <ele>480.8</ele>
        <time>2020-05-26T17:50:20Z</time>
      </trkpt>
      <trkpt lat="48.68031" lon="7.30978">
        <ele>481.7</ele>
        <time>2020-05-26T17:50:18Z</time>
      </trkpt>
      <trkpt lat="48.68031" lon="7.30963">
        <ele>482.1</ele>
        <time>2020-05-26T17:50:16Z</time>
      </trkpt>
      <trkpt lat="48.68031" lon="7.30948">
        <ele>482.6</ele>
        <time>2020-05-26T17:50:14Z</time>
      </trkpt>
      <trkpt lat="48.68033" lon="7.30932">
        <ele>483.1</ele>
        <time>2020-05-26T17:50:12Z</time>
      </trkpt>
      <trkpt lat="48.68037" lon="7.30914">
        <ele>483.7</ele>
        <time>2020-05-26T17:50:10Z</time>
      </trkpt>
      <trkpt lat="48.68043" lon="7.30897">
        <ele>484.8</ele>
        <time>2020-05-26T17:50:08Z</time>
      </trkpt>
      <trkpt lat="48.68048" lon="7.30881">
        <ele>485</ele>
        <time>2020-05-26T17:50:06Z</time>
      </trkpt>
      <trkpt lat="48.68053" lon="7.30868">
        <ele>485.3</ele>
        <time>2020-05-26T17:50:04Z</time>
      </trkpt>
      <trkpt lat="48.68059" lon="7.30856">
        <ele>485.7</ele>
        <time>2020-05-26T17:50:02Z</time>
      </trkpt>
      <trkpt lat="48.68066" lon="7.30834">
        <ele>487.2</ele>
        <time>2020-05-26T17:49:59Z</time>
      </trkpt>
      <trkpt lat="48.68071" lon="7.3082">
        <ele>488.2</ele>
        <time>2020-05-26T17:49:57Z</time>
      </trkpt>
      <trkpt lat="48.68074" lon="7.30804">
        <ele>489.3</ele>
        <time>2020-05-26T17:49:55Z</time>
      </trkpt>
      <trkpt lat="48.68075" lon="7.30789">
        <ele>490.1</ele>
        <time>2020-05-26T17:49:53Z</time>
      </trkpt>
      <trkpt lat="48.68076" lon="7.30773">
        <ele>490.7</ele>
        <time>2020-05-26T17:49:51Z</time>
      </trkpt>
      <trkpt lat="48.68076" lon="7.30757">
        <ele>490.9</ele>
        <time>2020-05-26T17:49:49Z</time>
      </trkpt>
      <trkpt lat="48.68073" lon="7.30739">
        <ele>491.2</ele>
        <time>2020-05-26T17:49:47Z</time>
      </trkpt>
      <trkpt lat="48.68071" lon="7.30726">
        <ele>490.9</ele>
        <time>2020-05-26T17:49:45Z</time>
      </trkpt>
      <trkpt lat="48.68069" lon="7.30713">
        <ele>490.5</ele>
        <time>2020-05-26T17:49:43Z</time>
      </trkpt>
      <trkpt lat="48.68066" lon="7.30698">
        <ele>490.6</ele>
        <time>2020-05-26T17:49:41Z</time>
      </trkpt>
      <trkpt lat="48.68063" lon="7.30684">
        <ele>490.7</ele>
        <time>2020-05-26T17:49:39Z</time>
      </trkpt>
      <trkpt lat="48.6806" lon="7.30673">
        <ele>491.2</ele>
        <time>2020-05-26T17:49:37Z</time>
      </trkpt>
      <trkpt lat="48.68059" lon="7.30662">
        <ele>491.9</ele>
        <time>2020-05-26T17:49:35Z</time>
      </trkpt>
      <trkpt lat="48.68058" lon="7.30653">
        <ele>492.6</ele>
        <time>2020-05-26T17:49:33Z</time>
      </trkpt>
      <trkpt lat="48.68053" lon="7.30636">
        <ele>493.2</ele>
        <time>2020-05-26T17:49:30Z</time>
      </trkpt>
      <trkpt lat="48.68045" lon="7.30614">
        <ele>493.4</ele>
        <time>2020-05-26T17:49:27Z</time>
      </trkpt>
      <trkpt lat="48.68039" lon="7.30598">
        <ele>493.5</ele>
        <time>2020-05-26T17:49:25Z</time>
      </trkpt>
      <trkpt lat="48.68032" lon="7.30574">
        <ele>493.6</ele>
        <time>2020-05-26T17:49:22Z</time>
      </trkpt>
      <trkpt lat="48.68026" lon="7.30558">
        <ele>493.4</ele>
        <time>2020-05-26T17:49:20Z</time>
      </trkpt>
      <trkpt lat="48.6802" lon="7.30535">
        <ele>493.1</ele>
        <time>2020-05-26T17:49:17Z</time>
      </trkpt>
      <trkpt lat="48.68015" lon="7.30523">
        <ele>493</ele>
        <time>2020-05-26T17:49:15Z</time>
      </trkpt>
      <trkpt lat="48.6801" lon="7.3051">
        <ele>493</ele>
        <time>2020-05-26T17:49:13Z</time>
      </trkpt>
      <trkpt lat="48.68005" lon="7.30497">
        <ele>493</ele>
        <time>2020-05-26T17:49:11Z</time>
      </trkpt>
      <trkpt lat="48.67999" lon="7.30483">
        <ele>493</ele>
        <time>2020-05-26T17:49:09Z</time>
      </trkpt>
      <trkpt lat="48.67994" lon="7.3047">
        <ele>493.2</ele>
        <time>2020-05-26T17:49:07Z</time>
      </trkpt>
      <trkpt lat="48.67989" lon="7.30456">
        <ele>492.9</ele>
        <time>2020-05-26T17:49:05Z</time>
      </trkpt>
      <trkpt lat="48.6798" lon="7.30436">
        <ele>493</ele>
        <time>2020-05-26T17:49:02Z</time>
      </trkpt>
      <trkpt lat="48.67975" lon="7.30426">
        <ele>493.7</ele>
        <time>2020-05-26T17:49:00Z</time>
      </trkpt>
      <trkpt lat="48.67971" lon="7.30417">
        <ele>494.6</ele>
        <time>2020-05-26T17:48:58Z</time>
      </trkpt>
      <trkpt lat="48.67967" lon="7.30408">
        <ele>495</ele>
        <time>2020-05-26T17:48:56Z</time>
      </trkpt>
      <trkpt lat="48.67963" lon="7.30399">
        <ele>494.9</ele>
        <time>2020-05-26T17:48:54Z</time>
      </trkpt>
      <trkpt lat="48.67959" lon="7.30392">
        <ele>495</ele>
        <time>2020-05-26T17:48:52Z</time>
      </trkpt>
      <trkpt lat="48.67955" lon="7.30385">
        <ele>494.8</ele>
        <time>2020-05-26T17:48:50Z</time>
      </trkpt>
      <trkpt lat="48.6795" lon="7.30375">
        <ele>495</ele>
        <time>2020-05-26T17:48:47Z</time>
      </trkpt>
      <trkpt lat="48.67946" lon="7.30367">
        <ele>494.9</ele>
        <time>2020-05-26T17:48:45Z</time>
      </trkpt>
      <trkpt lat="48.67943" lon="7.30359">
        <ele>495</ele>
        <time>2020-05-26T17:48:43Z</time>
      </trkpt>
      <trkpt lat="48.6794" lon="7.30351">
        <ele>494.6</ele>
        <time>2020-05-26T17:48:41Z</time>
      </trkpt>
      <trkpt lat="48.67938" lon="7.30343">
        <ele>494.4</ele>
        <time>2020-05-26T17:48:39Z</time>
      </trkpt>
      <trkpt lat="48.67936" lon="7.30334">
        <ele>493.9</ele>
        <time>2020-05-26T17:48:37Z</time>
      </trkpt>
      <trkpt lat="48.67932" lon="7.30325">
        <ele>493.7</ele>
        <time>2020-05-26T17:48:35Z</time>
      </trkpt>
      <trkpt lat="48.67929" lon="7.30317">
        <ele>493.4</ele>
        <time>2020-05-26T17:48:33Z</time>
      </trkpt>
      <trkpt lat="48.67925" lon="7.3031">
        <ele>493</ele>
        <time>2020-05-26T17:48:31Z</time>
      </trkpt>
      <trkpt lat="48.67921" lon="7.30302">
        <ele>492.7</ele>
        <time>2020-05-26T17:48:29Z</time>
      </trkpt>
      <trkpt lat="48.67915" lon="7.30289">
        <ele>492.3</ele>
        <time>2020-05-26T17:48:26Z</time>
      </trkpt>
      <trkpt lat="48.6791" lon="7.30279">
        <ele>491.5</ele>
        <time>2020-05-26T17:48:23Z</time>
      </trkpt>
      <trkpt lat="48.67907" lon="7.30273">
        <ele>491.1</ele>
        <time>2020-05-26T17:48:21Z</time>
      </trkpt>
      <trkpt lat="48.67904" lon="7.30267">
        <ele>490.5</ele>
        <time>2020-05-26T17:48:19Z</time>
      </trkpt>
      <trkpt lat="48.679" lon="7.3026">
        <ele>490.7</ele>
        <time>2020-05-26T17:48:17Z</time>
      </trkpt>
      <trkpt lat="48.67893" lon="7.3025">
        <ele>490.4</ele>
        <time>2020-05-26T17:48:14Z</time>
      </trkpt>
      <trkpt lat="48.67888" lon="7.30243">
        <ele>490.3</ele>
        <time>2020-05-26T17:48:12Z</time>
      </trkpt>
      <trkpt lat="48.67884" lon="7.30235">
        <ele>490.1</ele>
        <time>2020-05-26T17:48:10Z</time>
      </trkpt>
      <trkpt lat="48.67876" lon="7.30224">
        <ele>490.3</ele>
        <time>2020-05-26T17:48:07Z</time>
      </trkpt>
      <trkpt lat="48.67871" lon="7.30217">
        <ele>490.1</ele>
        <time>2020-05-26T17:48:05Z</time>
      </trkpt>
      <trkpt lat="48.67863" lon="7.30204">
        <ele>490.1</ele>
        <time>2020-05-26T17:48:02Z</time>
      </trkpt>
      <trkpt lat="48.6786" lon="7.30194">
        <ele>489.8</ele>
        <time>2020-05-26T17:48:00Z</time>
      </trkpt>
      <trkpt lat="48.67856" lon="7.30185">
        <ele>489.9</ele>
        <time>2020-05-26T17:47:58Z</time>
      </trkpt>
      <trkpt lat="48.67851" lon="7.30177">
        <ele>489.8</ele>
        <time>2020-05-26T17:47:56Z</time>
      </trkpt>
      <trkpt lat="48.67847" lon="7.30169">
        <ele>489.6</ele>
        <time>2020-05-26T17:47:54Z</time>
      </trkpt>
      <trkpt lat="48.67843" lon="7.30161">
        <ele>489.2</ele>
        <time>2020-05-26T17:47:52Z</time>
      </trkpt>
      <trkpt lat="48.67842" lon="7.30155">
        <ele>488.7</ele>
        <time>2020-05-26T17:47:49Z</time>
      </trkpt>
      <trkpt lat="48.67841" lon="7.30147">
        <ele>486.5</ele>
        <time>2020-05-26T17:47:43Z</time>
      </trkpt>
      <trkpt lat="48.67841" lon="7.3014">
        <ele>484.3</ele>
        <time>2020-05-26T17:47:38Z</time>
      </trkpt>
      <trkpt lat="48.67837" lon="7.3014">
        <ele>487.5</ele>
        <time>2020-05-26T17:47:14Z</time>
      </trkpt>
      <trkpt lat="48.67835" lon="7.30134">
        <ele>486.9</ele>
        <time>2020-05-26T17:47:10Z</time>
      </trkpt>
      <trkpt lat="48.67834" lon="7.30125">
        <ele>489.9</ele>
        <time>2020-05-26T17:46:41Z</time>
      </trkpt>
      <trkpt lat="48.67831" lon="7.30118">
        <ele>489.7</ele>
        <time>2020-05-26T17:46:37Z</time>
      </trkpt>
      <trkpt lat="48.67827" lon="7.3011">
        <ele>489</ele>
        <time>2020-05-26T17:46:35Z</time>
      </trkpt>
      <trkpt lat="48.67822" lon="7.30101">
        <ele>489</ele>
        <time>2020-05-26T17:46:33Z</time>
      </trkpt>
      <trkpt lat="48.67817" lon="7.30082">
        <ele>489.5</ele>
        <time>2020-05-26T17:46:30Z</time>
      </trkpt>
      <trkpt lat="48.67811" lon="7.30062">
        <ele>489.7</ele>
        <time>2020-05-26T17:46:27Z</time>
      </trkpt>
      <trkpt lat="48.67806" lon="7.30046">
        <ele>490.2</ele>
        <time>2020-05-26T17:46:25Z</time>
      </trkpt>
      <trkpt lat="48.67802" lon="7.30031">
        <ele>490.5</ele>
        <time>2020-05-26T17:46:23Z</time>
      </trkpt>
      <trkpt lat="48.67798" lon="7.30015">
        <ele>490.8</ele>
        <time>2020-05-26T17:46:21Z</time>
      </trkpt>
      <trkpt lat="48.67795" lon="7.30001">
        <ele>491</ele>
        <time>2020-05-26T17:46:19Z</time>
      </trkpt>
      <trkpt lat="48.67792" lon="7.29987">
        <ele>491.4</ele>
        <time>2020-05-26T17:46:17Z</time>
      </trkpt>
      <trkpt lat="48.67788" lon="7.29974">
        <ele>492</ele>
        <time>2020-05-26T17:46:15Z</time>
      </trkpt>
      <trkpt lat="48.67783" lon="7.29963">
        <ele>493.2</ele>
        <time>2020-05-26T17:46:13Z</time>
      </trkpt>
      <trkpt lat="48.67778" lon="7.29954">
        <ele>494.6</ele>
        <time>2020-05-26T17:46:11Z</time>
      </trkpt>
      <trkpt lat="48.67772" lon="7.29944">
        <ele>495.7</ele>
        <time>2020-05-26T17:46:09Z</time>
      </trkpt>
      <trkpt lat="48.67767" lon="7.29935">
        <ele>496.5</ele>
        <time>2020-05-26T17:46:07Z</time>
      </trkpt>
      <trkpt lat="48.67761" lon="7.29927">
        <ele>496.8</ele>
        <time>2020-05-26T17:46:05Z</time>
      </trkpt>
      <trkpt lat="48.67754" lon="7.2992">
        <ele>497.2</ele>
        <time>2020-05-26T17:46:03Z</time>
      </trkpt>
      <trkpt lat="48.67748" lon="7.29914">
        <ele>497.3</ele>
        <time>2020-05-26T17:46:01Z</time>
      </trkpt>
      <trkpt lat="48.67742" lon="7.29907">
        <ele>497.3</ele>
        <time>2020-05-26T17:45:59Z</time>
      </trkpt>
      <trkpt lat="48.67736" lon="7.29899">
        <ele>496.4</ele>
        <time>2020-05-26T17:45:57Z</time>
      </trkpt>
      <trkpt lat="48.67731" lon="7.29891">
        <ele>496</ele>
        <time>2020-05-26T17:45:55Z</time>
      </trkpt>
      <trkpt lat="48.67726" lon="7.29884">
        <ele>495.1</ele>
        <time>2020-05-26T17:45:53Z</time>
      </trkpt>
      <trkpt lat="48.67722" lon="7.29878">
        <ele>494.8</ele>
        <time>2020-05-26T17:45:51Z</time>
      </trkpt>
      <trkpt lat="48.67717" lon="7.29873">
        <ele>494.3</ele>
        <time>2020-05-26T17:45:49Z</time>
      </trkpt>
      <trkpt lat="48.67711" lon="7.2986">
        <ele>494.9</ele>
        <time>2020-05-26T17:45:46Z</time>
      </trkpt>
      <trkpt lat="48.67705" lon="7.29848">
        <ele>499.3</ele>
        <time>2020-05-26T17:45:44Z</time>
      </trkpt>
      <trkpt lat="48.67701" lon="7.29836">
        <ele>498.7</ele>
        <time>2020-05-26T17:45:42Z</time>
      </trkpt>
      <trkpt lat="48.67697" lon="7.29826">
        <ele>498.8</ele>
        <time>2020-05-26T17:45:40Z</time>
      </trkpt>
      <trkpt lat="48.67693" lon="7.29817">
        <ele>499</ele>
        <time>2020-05-26T17:45:38Z</time>
      </trkpt>
      <trkpt lat="48.67689" lon="7.29807">
        <ele>499.2</ele>
        <time>2020-05-26T17:45:36Z</time>
      </trkpt>
      <trkpt lat="48.67685" lon="7.29796">
        <ele>499.7</ele>
        <time>2020-05-26T17:45:34Z</time>
      </trkpt>
      <trkpt lat="48.6768" lon="7.29785">
        <ele>500.5</ele>
        <time>2020-05-26T17:45:32Z</time>
      </trkpt>
      <trkpt lat="48.67676" lon="7.29774">
        <ele>500.2</ele>
        <time>2020-05-26T17:45:30Z</time>
      </trkpt>
      <trkpt lat="48.67672" lon="7.29762">
        <ele>500</ele>
        <time>2020-05-26T17:45:28Z</time>
      </trkpt>
      <trkpt lat="48.67669" lon="7.29749">
        <ele>499.4</ele>
        <time>2020-05-26T17:45:26Z</time>
      </trkpt>
      <trkpt lat="48.67666" lon="7.29734">
        <ele>497.5</ele>
        <time>2020-05-26T17:45:24Z</time>
      </trkpt>
      <trkpt lat="48.67665" lon="7.2972">
        <ele>496.1</ele>
        <time>2020-05-26T17:45:22Z</time>
      </trkpt>
      <trkpt lat="48.67663" lon="7.29698">
        <ele>494.2</ele>
        <time>2020-05-26T17:45:19Z</time>
      </trkpt>
      <trkpt lat="48.67664" lon="7.29683">
        <ele>489.8</ele>
        <time>2020-05-26T17:45:16Z</time>
      </trkpt>
      <trkpt lat="48.67664" lon="7.29672">
        <ele>485.8</ele>
        <time>2020-05-26T17:45:14Z</time>
      </trkpt>
      <trkpt lat="48.67666" lon="7.29664">
        <ele>482.9</ele>
        <time>2020-05-26T17:45:12Z</time>
      </trkpt>
      <trkpt lat="48.67665" lon="7.29654">
        <ele>484.2</ele>
        <time>2020-05-26T17:45:10Z</time>
      </trkpt>
      <trkpt lat="48.67665" lon="7.29644">
        <ele>502.1</ele>
        <time>2020-05-26T17:45:08Z</time>
      </trkpt>
      <trkpt lat="48.67666" lon="7.29634">
        <ele>502.3</ele>
        <time>2020-05-26T17:45:06Z</time>
      </trkpt>
      <trkpt lat="48.67668" lon="7.29624">
        <ele>503.5</ele>
        <time>2020-05-26T17:45:04Z</time>
      </trkpt>
      <trkpt lat="48.67669" lon="7.29612">
        <ele>504.4</ele>
        <time>2020-05-26T17:45:02Z</time>
      </trkpt>
      <trkpt lat="48.6767" lon="7.29599">
        <ele>504.6</ele>
        <time>2020-05-26T17:45:00Z</time>
      </trkpt>
      <trkpt lat="48.67676" lon="7.29589">
        <ele>504.6</ele>
        <time>2020-05-26T17:44:58Z</time>
      </trkpt>
      <trkpt lat="48.67679" lon="7.29578">
        <ele>504</ele>
        <time>2020-05-26T17:44:56Z</time>
      </trkpt>
      <trkpt lat="48.67682" lon="7.29566">
        <ele>502.1</ele>
        <time>2020-05-26T17:44:54Z</time>
      </trkpt>
      <trkpt lat="48.67685" lon="7.29556">
        <ele>500.4</ele>
        <time>2020-05-26T17:44:52Z</time>
      </trkpt>
      <trkpt lat="48.67689" lon="7.29545">
        <ele>498.5</ele>
        <time>2020-05-26T17:44:50Z</time>
      </trkpt>
      <trkpt lat="48.67694" lon="7.29533">
        <ele>496.7</ele>
        <time>2020-05-26T17:44:48Z</time>
      </trkpt>
      <trkpt lat="48.67697" lon="7.29521">
        <ele>494.7</ele>
        <time>2020-05-26T17:44:46Z</time>
      </trkpt>
      <trkpt lat="48.67702" lon="7.29511">
        <ele>494.2</ele>
        <time>2020-05-26T17:44:44Z</time>
      </trkpt>
      <trkpt lat="48.67706" lon="7.29501">
        <ele>494.5</ele>
        <time>2020-05-26T17:44:42Z</time>
      </trkpt>
      <trkpt lat="48.67712" lon="7.29484">
        <ele>494.8</ele>
        <time>2020-05-26T17:44:39Z</time>
      </trkpt>
      <trkpt lat="48.67719" lon="7.29468">
        <ele>493.9</ele>
        <time>2020-05-26T17:44:36Z</time>
      </trkpt>
      <trkpt lat="48.67724" lon="7.29459">
        <ele>493.2</ele>
        <time>2020-05-26T17:44:34Z</time>
      </trkpt>
      <trkpt lat="48.67729" lon="7.29451">
        <ele>492.5</ele>
        <time>2020-05-26T17:44:32Z</time>
      </trkpt>
      <trkpt lat="48.67734" lon="7.29443">
        <ele>491.7</ele>
        <time>2020-05-26T17:44:30Z</time>
      </trkpt>
      <trkpt lat="48.67739" lon="7.29434">
        <ele>491.7</ele>
        <time>2020-05-26T17:44:28Z</time>
      </trkpt>
      <trkpt lat="48.67744" lon="7.29425">
        <ele>491.6</ele>
        <time>2020-05-26T17:44:26Z</time>
      </trkpt>
      <trkpt lat="48.67754" lon="7.29416">
        <ele>492</ele>
        <time>2020-05-26T17:44:23Z</time>
      </trkpt>
      <trkpt lat="48.6776" lon="7.29409">
        <ele>491.7</ele>
        <time>2020-05-26T17:44:21Z</time>
      </trkpt>
      <trkpt lat="48.67768" lon="7.29402">
        <ele>490.6</ele>
        <time>2020-05-26T17:44:19Z</time>
      </trkpt>
      <trkpt lat="48.67775" lon="7.29394">
        <ele>489.3</ele>
        <time>2020-05-26T17:44:17Z</time>
      </trkpt>
      <trkpt lat="48.67781" lon="7.29387">
        <ele>488.4</ele>
        <time>2020-05-26T17:44:15Z</time>
      </trkpt>
      <trkpt lat="48.67788" lon="7.29381">
        <ele>487.7</ele>
        <time>2020-05-26T17:44:13Z</time>
      </trkpt>
      <trkpt lat="48.67796" lon="7.29372">
        <ele>486.7</ele>
        <time>2020-05-26T17:44:10Z</time>
      </trkpt>
      <trkpt lat="48.67803" lon="7.29367">
        <ele>486.8</ele>
        <time>2020-05-26T17:44:08Z</time>
      </trkpt>
      <trkpt lat="48.6781" lon="7.29362">
        <ele>485.9</ele>
        <time>2020-05-26T17:44:06Z</time>
      </trkpt>
      <trkpt lat="48.67821" lon="7.29355">
        <ele>485.3</ele>
        <time>2020-05-26T17:44:03Z</time>
      </trkpt>
      <trkpt lat="48.67828" lon="7.29349">
        <ele>485.2</ele>
        <time>2020-05-26T17:44:01Z</time>
      </trkpt>
      <trkpt lat="48.67835" lon="7.29342">
        <ele>484.9</ele>
        <time>2020-05-26T17:43:59Z</time>
      </trkpt>
      <trkpt lat="48.67841" lon="7.29335">
        <ele>485</ele>
        <time>2020-05-26T17:43:57Z</time>
      </trkpt>
      <trkpt lat="48.67848" lon="7.29329">
        <ele>484.8</ele>
        <time>2020-05-26T17:43:55Z</time>
      </trkpt>
      <trkpt lat="48.67856" lon="7.2932">
        <ele>485</ele>
        <time>2020-05-26T17:43:53Z</time>
      </trkpt>
      <trkpt lat="48.67864" lon="7.29311">
        <ele>485.3</ele>
        <time>2020-05-26T17:43:51Z</time>
      </trkpt>
      <trkpt lat="48.6787" lon="7.29303">
        <ele>489.2</ele>
        <time>2020-05-26T17:43:49Z</time>
      </trkpt>
      <trkpt lat="48.67876" lon="7.29296">
        <ele>488.5</ele>
        <time>2020-05-26T17:43:47Z</time>
      </trkpt>
      <trkpt lat="48.67883" lon="7.29288">
        <ele>487.9</ele>
        <time>2020-05-26T17:43:45Z</time>
      </trkpt>
      <trkpt lat="48.6789" lon="7.29281">
        <ele>488.5</ele>
        <time>2020-05-26T17:43:43Z</time>
      </trkpt>
      <trkpt lat="48.67897" lon="7.29272">
        <ele>487.5</ele>
        <time>2020-05-26T17:43:41Z</time>
      </trkpt>
      <trkpt lat="48.67905" lon="7.29263">
        <ele>487</ele>
        <time>2020-05-26T17:43:39Z</time>
      </trkpt>
      <trkpt lat="48.67911" lon="7.29254">
        <ele>487.1</ele>
        <time>2020-05-26T17:43:37Z</time>
      </trkpt>
      <trkpt lat="48.67916" lon="7.29247">
        <ele>487.3</ele>
        <time>2020-05-26T17:43:35Z</time>
      </trkpt>
      <trkpt lat="48.67924" lon="7.2924">
        <ele>487.3</ele>
        <time>2020-05-26T17:43:33Z</time>
      </trkpt>
      <trkpt lat="48.67933" lon="7.29234">
        <ele>487.5</ele>
        <time>2020-05-26T17:43:31Z</time>
      </trkpt>
      <trkpt lat="48.67941" lon="7.29227">
        <ele>486.9</ele>
        <time>2020-05-26T17:43:29Z</time>
      </trkpt>
      <trkpt lat="48.67947" lon="7.2922">
        <ele>485.2</ele>
        <time>2020-05-26T17:43:27Z</time>
      </trkpt>
      <trkpt lat="48.67953" lon="7.29212">
        <ele>485.1</ele>
        <time>2020-05-26T17:43:25Z</time>
      </trkpt>
      <trkpt lat="48.67961" lon="7.29202">
        <ele>485.5</ele>
        <time>2020-05-26T17:43:23Z</time>
      </trkpt>
      <trkpt lat="48.67967" lon="7.29194">
        <ele>486.1</ele>
        <time>2020-05-26T17:43:21Z</time>
      </trkpt>
      <trkpt lat="48.67973" lon="7.29184">
        <ele>487.4</ele>
        <time>2020-05-26T17:43:19Z</time>
      </trkpt>
      <trkpt lat="48.67979" lon="7.29174">
        <ele>487.2</ele>
        <time>2020-05-26T17:43:17Z</time>
      </trkpt>
      <trkpt lat="48.67985" lon="7.29164">
        <ele>486.6</ele>
        <time>2020-05-26T17:43:15Z</time>
      </trkpt>
      <trkpt lat="48.67991" lon="7.29155">
        <ele>486.4</ele>
        <time>2020-05-26T17:43:13Z</time>
      </trkpt>
      <trkpt lat="48.67996" lon="7.29145">
        <ele>485.4</ele>
        <time>2020-05-26T17:43:11Z</time>
      </trkpt>
      <trkpt lat="48.68002" lon="7.29135">
        <ele>484.6</ele>
        <time>2020-05-26T17:43:09Z</time>
      </trkpt>
      <trkpt lat="48.68007" lon="7.29126">
        <ele>483.8</ele>
        <time>2020-05-26T17:43:07Z</time>
      </trkpt>
      <trkpt lat="48.68013" lon="7.29119">
        <ele>483.1</ele>
        <time>2020-05-26T17:43:05Z</time>
      </trkpt>
      <trkpt lat="48.68018" lon="7.29114">
        <ele>483.5</ele>
        <time>2020-05-26T17:43:03Z</time>
      </trkpt>
      <trkpt lat="48.68025" lon="7.29108">
        <ele>483.8</ele>
        <time>2020-05-26T17:43:01Z</time>
      </trkpt>
      <trkpt lat="48.68031" lon="7.29103">
        <ele>483.5</ele>
        <time>2020-05-26T17:42:59Z</time>
      </trkpt>
      <trkpt lat="48.68038" lon="7.29099">
        <ele>484.8</ele>
        <time>2020-05-26T17:42:57Z</time>
      </trkpt>
      <trkpt lat="48.68045" lon="7.29094">
        <ele>485.9</ele>
        <time>2020-05-26T17:42:55Z</time>
      </trkpt>
      <trkpt lat="48.68052" lon="7.29088">
        <ele>486</ele>
        <time>2020-05-26T17:42:53Z</time>
      </trkpt>
      <trkpt lat="48.68059" lon="7.29081">
        <ele>486</ele>
        <time>2020-05-26T17:42:51Z</time>
      </trkpt>
      <trkpt lat="48.68064" lon="7.29074">
        <ele>485.2</ele>
        <time>2020-05-26T17:42:49Z</time>
      </trkpt>
      <trkpt lat="48.68071" lon="7.29066">
        <ele>484.9</ele>
        <time>2020-05-26T17:42:47Z</time>
      </trkpt>
      <trkpt lat="48.6808" lon="7.29058">
        <ele>484.7</ele>
        <time>2020-05-26T17:42:45Z</time>
      </trkpt>
      <trkpt lat="48.68088" lon="7.2905">
        <ele>484.4</ele>
        <time>2020-05-26T17:42:43Z</time>
      </trkpt>
      <trkpt lat="48.68094" lon="7.29042">
        <ele>484</ele>
        <time>2020-05-26T17:42:41Z</time>
      </trkpt>
      <trkpt lat="48.68103" lon="7.29026">
        <ele>483.5</ele>
        <time>2020-05-26T17:42:38Z</time>
      </trkpt>
      <trkpt lat="48.68109" lon="7.29017">
        <ele>483.4</ele>
        <time>2020-05-26T17:42:36Z</time>
      </trkpt>
      <trkpt lat="48.68115" lon="7.29009">
        <ele>483.4</ele>
        <time>2020-05-26T17:42:34Z</time>
      </trkpt>
      <trkpt lat="48.6812" lon="7.29002">
        <ele>483.7</ele>
        <time>2020-05-26T17:42:32Z</time>
      </trkpt>
      <trkpt lat="48.68125" lon="7.28993">
        <ele>483.1</ele>
        <time>2020-05-26T17:42:30Z</time>
      </trkpt>
      <trkpt lat="48.68133" lon="7.28978">
        <ele>482.2</ele>
        <time>2020-05-26T17:42:27Z</time>
      </trkpt>
      <trkpt lat="48.6814" lon="7.28963">
        <ele>480.9</ele>
        <time>2020-05-26T17:42:24Z</time>
      </trkpt>
      <trkpt lat="48.68145" lon="7.28953">
        <ele>480.1</ele>
        <time>2020-05-26T17:42:22Z</time>
      </trkpt>
      <trkpt lat="48.68151" lon="7.28938">
        <ele>479.2</ele>
        <time>2020-05-26T17:42:19Z</time>
      </trkpt>
      <trkpt lat="48.68154" lon="7.28927">
        <ele>478.8</ele>
        <time>2020-05-26T17:42:17Z</time>
      </trkpt>
      <trkpt lat="48.68157" lon="7.28916">
        <ele>478.8</ele>
        <time>2020-05-26T17:42:15Z</time>
      </trkpt>
      <trkpt lat="48.68159" lon="7.28907">
        <ele>478.9</ele>
        <time>2020-05-26T17:42:13Z</time>
      </trkpt>
      <trkpt lat="48.68162" lon="7.28897">
        <ele>479</ele>
        <time>2020-05-26T17:42:11Z</time>
      </trkpt>
      <trkpt lat="48.68163" lon="7.28889">
        <ele>479.2</ele>
        <time>2020-05-26T17:42:09Z</time>
      </trkpt>
      <trkpt lat="48.68164" lon="7.2888">
        <ele>479.3</ele>
        <time>2020-05-26T17:42:07Z</time>
      </trkpt>
      <trkpt lat="48.68166" lon="7.28871">
        <ele>479.4</ele>
        <time>2020-05-26T17:42:05Z</time>
      </trkpt>
      <trkpt lat="48.68167" lon="7.28863">
        <ele>478.8</ele>
        <time>2020-05-26T17:42:03Z</time>
      </trkpt>
      <trkpt lat="48.68168" lon="7.28854">
        <ele>478.6</ele>
        <time>2020-05-26T17:42:01Z</time>
      </trkpt>
      <trkpt lat="48.6817" lon="7.28844">
        <ele>478.3</ele>
        <time>2020-05-26T17:41:59Z</time>
      </trkpt>
      <trkpt lat="48.68171" lon="7.28834">
        <ele>478</ele>
        <time>2020-05-26T17:41:57Z</time>
      </trkpt>
      <trkpt lat="48.68171" lon="7.28824">
        <ele>477.7</ele>
        <time>2020-05-26T17:41:55Z</time>
      </trkpt>
      <trkpt lat="48.68171" lon="7.28814">
        <ele>478</ele>
        <time>2020-05-26T17:41:53Z</time>
      </trkpt>
      <trkpt lat="48.68172" lon="7.28805">
        <ele>477.3</ele>
        <time>2020-05-26T17:41:51Z</time>
      </trkpt>
      <trkpt lat="48.68172" lon="7.28794">
        <ele>476.3</ele>
        <time>2020-05-26T17:41:48Z</time>
      </trkpt>
      <trkpt lat="48.68172" lon="7.28786">
        <ele>475.6</ele>
        <time>2020-05-26T17:41:46Z</time>
      </trkpt>
      <trkpt lat="48.68172" lon="7.28778">
        <ele>473.9</ele>
        <time>2020-05-26T17:41:43Z</time>
      </trkpt>
      <trkpt lat="48.68172" lon="7.28771">
        <ele>472.7</ele>
        <time>2020-05-26T17:41:40Z</time>
      </trkpt>
      <trkpt lat="48.68173" lon="7.28764">
        <ele>472.5</ele>
        <time>2020-05-26T17:41:37Z</time>
      </trkpt>
      <trkpt lat="48.68175" lon="7.28758">
        <ele>472.9</ele>
        <time>2020-05-26T17:41:35Z</time>
      </trkpt>
      <trkpt lat="48.68179" lon="7.28751">
        <ele>472.8</ele>
        <time>2020-05-26T17:41:33Z</time>
      </trkpt>
      <trkpt lat="48.68183" lon="7.28744">
        <ele>472.5</ele>
        <time>2020-05-26T17:41:31Z</time>
      </trkpt>
      <trkpt lat="48.68188" lon="7.28738">
        <ele>472.1</ele>
        <time>2020-05-26T17:41:29Z</time>
      </trkpt>
      <trkpt lat="48.68194" lon="7.28728">
        <ele>471.5</ele>
        <time>2020-05-26T17:41:26Z</time>
      </trkpt>
      <trkpt lat="48.68197" lon="7.28723">
        <ele>471</ele>
        <time>2020-05-26T17:41:24Z</time>
      </trkpt>
      <trkpt lat="48.682" lon="7.28716">
        <ele>470.9</ele>
        <time>2020-05-26T17:41:22Z</time>
      </trkpt>
      <trkpt lat="48.68204" lon="7.28709">
        <ele>470.3</ele>
        <time>2020-05-26T17:41:20Z</time>
      </trkpt>
      <trkpt lat="48.68209" lon="7.28702">
        <ele>468.9</ele>
        <time>2020-05-26T17:41:18Z</time>
      </trkpt>
      <trkpt lat="48.68213" lon="7.28697">
        <ele>468.6</ele>
        <time>2020-05-26T17:41:16Z</time>
      </trkpt>
      <trkpt lat="48.68218" lon="7.28692">
        <ele>468.6</ele>
        <time>2020-05-26T17:41:14Z</time>
      </trkpt>
      <trkpt lat="48.68223" lon="7.28687">
        <ele>469.4</ele>
        <time>2020-05-26T17:41:12Z</time>
      </trkpt>
      <trkpt lat="48.68229" lon="7.28685">
        <ele>470.2</ele>
        <time>2020-05-26T17:41:10Z</time>
      </trkpt>
      <trkpt lat="48.68235" lon="7.28684">
        <ele>470.7</ele>
        <time>2020-05-26T17:41:08Z</time>
      </trkpt>
      <trkpt lat="48.68241" lon="7.28686">
        <ele>472.1</ele>
        <time>2020-05-26T17:41:06Z</time>
      </trkpt>
      <trkpt lat="48.68247" lon="7.28687">
        <ele>473.3</ele>
        <time>2020-05-26T17:41:04Z</time>
      </trkpt>
      <trkpt lat="48.68254" lon="7.28689">
        <ele>473.9</ele>
        <time>2020-05-26T17:41:02Z</time>
      </trkpt>
      <trkpt lat="48.68259" lon="7.28688">
        <ele>472.6</ele>
        <time>2020-05-26T17:41:00Z</time>
      </trkpt>
      <trkpt lat="48.68265" lon="7.28686">
        <ele>471.6</ele>
        <time>2020-05-26T17:40:58Z</time>
      </trkpt>
      <trkpt lat="48.6827" lon="7.28684">
        <ele>470.9</ele>
        <time>2020-05-26T17:40:56Z</time>
      </trkpt>
      <trkpt lat="48.68276" lon="7.28683">
        <ele>469.8</ele>
        <time>2020-05-26T17:40:54Z</time>
      </trkpt>
      <trkpt lat="48.68282" lon="7.28681">
        <ele>469</ele>
        <time>2020-05-26T17:40:52Z</time>
      </trkpt>
      <trkpt lat="48.68287" lon="7.28678">
        <ele>467.9</ele>
        <time>2020-05-26T17:40:50Z</time>
      </trkpt>
      <trkpt lat="48.68292" lon="7.28675">
        <ele>467.1</ele>
        <time>2020-05-26T17:40:48Z</time>
      </trkpt>
      <trkpt lat="48.68297" lon="7.28673">
        <ele>466.5</ele>
        <time>2020-05-26T17:40:46Z</time>
      </trkpt>
      <trkpt lat="48.68303" lon="7.28671">
        <ele>466</ele>
        <time>2020-05-26T17:40:44Z</time>
      </trkpt>
      <trkpt lat="48.68309" lon="7.28669">
        <ele>466</ele>
        <time>2020-05-26T17:40:42Z</time>
      </trkpt>
      <trkpt lat="48.68314" lon="7.28664">
        <ele>464.5</ele>
        <time>2020-05-26T17:40:40Z</time>
      </trkpt>
      <trkpt lat="48.68322" lon="7.28659">
        <ele>462.7</ele>
        <time>2020-05-26T17:40:37Z</time>
      </trkpt>
      <trkpt lat="48.68332" lon="7.28654">
        <ele>462.1</ele>
        <time>2020-05-26T17:40:34Z</time>
      </trkpt>
      <trkpt lat="48.68336" lon="7.28649">
        <ele>461</ele>
        <time>2020-05-26T17:40:32Z</time>
      </trkpt>
      <trkpt lat="48.68341" lon="7.28644">
        <ele>460.3</ele>
        <time>2020-05-26T17:40:30Z</time>
      </trkpt>
      <trkpt lat="48.68345" lon="7.2864">
        <ele>460.3</ele>
        <time>2020-05-26T17:40:28Z</time>
      </trkpt>
      <trkpt lat="48.68353" lon="7.28635">
        <ele>460.6</ele>
        <time>2020-05-26T17:40:25Z</time>
      </trkpt>
      <trkpt lat="48.68358" lon="7.28631">
        <ele>460.8</ele>
        <time>2020-05-26T17:40:23Z</time>
      </trkpt>
      <trkpt lat="48.68364" lon="7.28625">
        <ele>460.6</ele>
        <time>2020-05-26T17:40:20Z</time>
      </trkpt>
      <trkpt lat="48.68371" lon="7.28619">
        <ele>459.8</ele>
        <time>2020-05-26T17:40:17Z</time>
      </trkpt>
      <trkpt lat="48.68376" lon="7.28615">
        <ele>459.4</ele>
        <time>2020-05-26T17:40:15Z</time>
      </trkpt>
      <trkpt lat="48.68382" lon="7.28612">
        <ele>459.1</ele>
        <time>2020-05-26T17:40:13Z</time>
      </trkpt>
      <trkpt lat="48.68387" lon="7.28609">
        <ele>458.8</ele>
        <time>2020-05-26T17:40:11Z</time>
      </trkpt>
      <trkpt lat="48.68395" lon="7.28603">
        <ele>458.6</ele>
        <time>2020-05-26T17:40:08Z</time>
      </trkpt>
      <trkpt lat="48.68402" lon="7.28598">
        <ele>458.3</ele>
        <time>2020-05-26T17:40:05Z</time>
      </trkpt>
      <trkpt lat="48.68406" lon="7.28595">
        <ele>458.2</ele>
        <time>2020-05-26T17:40:03Z</time>
      </trkpt>
      <trkpt lat="48.68412" lon="7.28592">
        <ele>457.4</ele>
        <time>2020-05-26T17:40:01Z</time>
      </trkpt>
      <trkpt lat="48.68417" lon="7.28587">
        <ele>457.2</ele>
        <time>2020-05-26T17:39:59Z</time>
      </trkpt>
      <trkpt lat="48.68423" lon="7.28582">
        <ele>456.5</ele>
        <time>2020-05-26T17:39:57Z</time>
      </trkpt>
      <trkpt lat="48.68428" lon="7.28579">
        <ele>457.1</ele>
        <time>2020-05-26T17:39:55Z</time>
      </trkpt>
      <trkpt lat="48.68433" lon="7.28574">
        <ele>457.4</ele>
        <time>2020-05-26T17:39:53Z</time>
      </trkpt>
      <trkpt lat="48.68438" lon="7.28569">
        <ele>456.5</ele>
        <time>2020-05-26T17:39:51Z</time>
      </trkpt>
      <trkpt lat="48.68443" lon="7.28563">
        <ele>457</ele>
        <time>2020-05-26T17:39:49Z</time>
      </trkpt>
      <trkpt lat="48.68448" lon="7.28558">
        <ele>457</ele>
        <time>2020-05-26T17:39:47Z</time>
      </trkpt>
      <trkpt lat="48.68452" lon="7.28552">
        <ele>457.1</ele>
        <time>2020-05-26T17:39:45Z</time>
      </trkpt>
      <trkpt lat="48.68457" lon="7.28546">
        <ele>456.8</ele>
        <time>2020-05-26T17:39:43Z</time>
      </trkpt>
      <trkpt lat="48.68462" lon="7.28541">
        <ele>456.6</ele>
        <time>2020-05-26T17:39:41Z</time>
      </trkpt>
      <trkpt lat="48.68468" lon="7.28531">
        <ele>456.6</ele>
        <time>2020-05-26T17:39:38Z</time>
      </trkpt>
      <trkpt lat="48.68472" lon="7.28526">
        <ele>456.6</ele>
        <time>2020-05-26T17:39:36Z</time>
      </trkpt>
      <trkpt lat="48.68476" lon="7.28521">
        <ele>459.4</ele>
        <time>2020-05-26T17:39:34Z</time>
      </trkpt>
      <trkpt lat="48.6848" lon="7.28516">
        <ele>459.4</ele>
        <time>2020-05-26T17:39:32Z</time>
      </trkpt>
      <trkpt lat="48.68484" lon="7.28509">
        <ele>459.7</ele>
        <time>2020-05-26T17:39:30Z</time>
      </trkpt>
      <trkpt lat="48.68489" lon="7.28501">
        <ele>459.9</ele>
        <time>2020-05-26T17:39:28Z</time>
      </trkpt>
      <trkpt lat="48.68493" lon="7.28493">
        <ele>459.2</ele>
        <time>2020-05-26T17:39:26Z</time>
      </trkpt>
      <trkpt lat="48.68498" lon="7.28486">
        <ele>458.4</ele>
        <time>2020-05-26T17:39:24Z</time>
      </trkpt>
      <trkpt lat="48.68505" lon="7.28478">
        <ele>457.2</ele>
        <time>2020-05-26T17:39:21Z</time>
      </trkpt>
      <trkpt lat="48.68511" lon="7.28473">
        <ele>457</ele>
        <time>2020-05-26T17:39:19Z</time>
      </trkpt>
      <trkpt lat="48.68517" lon="7.28467">
        <ele>457.1</ele>
        <time>2020-05-26T17:39:17Z</time>
      </trkpt>
      <trkpt lat="48.68522" lon="7.28462">
        <ele>456.7</ele>
        <time>2020-05-26T17:39:15Z</time>
      </trkpt>
      <trkpt lat="48.68526" lon="7.28458">
        <ele>456.6</ele>
        <time>2020-05-26T17:39:13Z</time>
      </trkpt>
      <trkpt lat="48.6853" lon="7.28453">
        <ele>456.2</ele>
        <time>2020-05-26T17:39:11Z</time>
      </trkpt>
      <trkpt lat="48.68534" lon="7.28449">
        <ele>456.4</ele>
        <time>2020-05-26T17:39:09Z</time>
      </trkpt>
      <trkpt lat="48.68538" lon="7.28446">
        <ele>456.5</ele>
        <time>2020-05-26T17:39:07Z</time>
      </trkpt>
      <trkpt lat="48.68543" lon="7.28443">
        <ele>456.3</ele>
        <time>2020-05-26T17:39:05Z</time>
      </trkpt>
      <trkpt lat="48.68548" lon="7.28438">
        <ele>456.3</ele>
        <time>2020-05-26T17:39:03Z</time>
      </trkpt>
      <trkpt lat="48.68553" lon="7.28434">
        <ele>456.8</ele>
        <time>2020-05-26T17:39:01Z</time>
      </trkpt>
      <trkpt lat="48.68558" lon="7.28428">
        <ele>457.1</ele>
        <time>2020-05-26T17:38:58Z</time>
      </trkpt>
      <trkpt lat="48.68562" lon="7.28424">
        <ele>456.9</ele>
        <time>2020-05-26T17:38:56Z</time>
      </trkpt>
      <trkpt lat="48.68567" lon="7.2842">
        <ele>456.5</ele>
        <time>2020-05-26T17:38:54Z</time>
      </trkpt>
      <trkpt lat="48.68571" lon="7.28416">
        <ele>456</ele>
        <time>2020-05-26T17:38:52Z</time>
      </trkpt>
      <trkpt lat="48.68576" lon="7.28412">
        <ele>455.3</ele>
        <time>2020-05-26T17:38:50Z</time>
      </trkpt>
      <trkpt lat="48.68581" lon="7.28407">
        <ele>455.4</ele>
        <time>2020-05-26T17:38:48Z</time>
      </trkpt>
      <trkpt lat="48.68585" lon="7.28401">
        <ele>454.8</ele>
        <time>2020-05-26T17:38:46Z</time>
      </trkpt>
      <trkpt lat="48.68592" lon="7.28393">
        <ele>453.8</ele>
        <time>2020-05-26T17:38:43Z</time>
      </trkpt>
      <trkpt lat="48.68598" lon="7.28389">
        <ele>452.6</ele>
        <time>2020-05-26T17:38:41Z</time>
      </trkpt>
      <trkpt lat="48.68603" lon="7.28385">
        <ele>451.7</ele>
        <time>2020-05-26T17:38:39Z</time>
      </trkpt>
      <trkpt lat="48.6861" lon="7.28378">
        <ele>450.7</ele>
        <time>2020-05-26T17:38:36Z</time>
      </trkpt>
      <trkpt lat="48.68616" lon="7.28376">
        <ele>450.7</ele>
        <time>2020-05-26T17:38:34Z</time>
      </trkpt>
      <trkpt lat="48.68621" lon="7.28376">
        <ele>450.4</ele>
        <time>2020-05-26T17:38:32Z</time>
      </trkpt>
      <trkpt lat="48.68627" lon="7.28378">
        <ele>449.9</ele>
        <time>2020-05-26T17:38:30Z</time>
      </trkpt>
      <trkpt lat="48.68632" lon="7.2838">
        <ele>449.3</ele>
        <time>2020-05-26T17:38:28Z</time>
      </trkpt>
      <trkpt lat="48.68639" lon="7.28383">
        <ele>449.3</ele>
        <time>2020-05-26T17:38:26Z</time>
      </trkpt>
      <trkpt lat="48.68645" lon="7.28386">
        <ele>448.9</ele>
        <time>2020-05-26T17:38:24Z</time>
      </trkpt>
      <trkpt lat="48.6865" lon="7.2839">
        <ele>448.7</ele>
        <time>2020-05-26T17:38:22Z</time>
      </trkpt>
      <trkpt lat="48.68654" lon="7.28395">
        <ele>448.2</ele>
        <time>2020-05-26T17:38:20Z</time>
      </trkpt>
      <trkpt lat="48.68661" lon="7.28399">
        <ele>447.8</ele>
        <time>2020-05-26T17:38:18Z</time>
      </trkpt>
      <trkpt lat="48.68665" lon="7.28403">
        <ele>446.9</ele>
        <time>2020-05-26T17:38:16Z</time>
      </trkpt>
      <trkpt lat="48.6867" lon="7.28408">
        <ele>446.6</ele>
        <time>2020-05-26T17:38:14Z</time>
      </trkpt>
      <trkpt lat="48.68674" lon="7.28414">
        <ele>446.1</ele>
        <time>2020-05-26T17:38:12Z</time>
      </trkpt>
      <trkpt lat="48.68678" lon="7.28421">
        <ele>445.2</ele>
        <time>2020-05-26T17:38:10Z</time>
      </trkpt>
      <trkpt lat="48.6868" lon="7.28427">
        <ele>444.5</ele>
        <time>2020-05-26T17:38:08Z</time>
      </trkpt>
      <trkpt lat="48.68683" lon="7.28434">
        <ele>444.9</ele>
        <time>2020-05-26T17:38:06Z</time>
      </trkpt>
      <trkpt lat="48.68686" lon="7.28442">
        <ele>444.7</ele>
        <time>2020-05-26T17:38:04Z</time>
      </trkpt>
      <trkpt lat="48.68689" lon="7.2845">
        <ele>444.8</ele>
        <time>2020-05-26T17:38:02Z</time>
      </trkpt>
      <trkpt lat="48.68691" lon="7.28457">
        <ele>445.5</ele>
        <time>2020-05-26T17:38:00Z</time>
      </trkpt>
      <trkpt lat="48.68694" lon="7.28464">
        <ele>446.6</ele>
        <time>2020-05-26T17:37:58Z</time>
      </trkpt>
      <trkpt lat="48.68698" lon="7.28472">
        <ele>447.4</ele>
        <time>2020-05-26T17:37:55Z</time>
      </trkpt>
      <trkpt lat="48.687" lon="7.28479">
        <ele>447.4</ele>
        <time>2020-05-26T17:37:53Z</time>
      </trkpt>
      <trkpt lat="48.68702" lon="7.28486">
        <ele>447.4</ele>
        <time>2020-05-26T17:37:51Z</time>
      </trkpt>
      <trkpt lat="48.68705" lon="7.28496">
        <ele>448.6</ele>
        <time>2020-05-26T17:37:48Z</time>
      </trkpt>
      <trkpt lat="48.68707" lon="7.28503">
        <ele>448.7</ele>
        <time>2020-05-26T17:37:46Z</time>
      </trkpt>
      <trkpt lat="48.68709" lon="7.2851">
        <ele>448.9</ele>
        <time>2020-05-26T17:37:44Z</time>
      </trkpt>
      <trkpt lat="48.68713" lon="7.2852">
        <ele>448.2</ele>
        <time>2020-05-26T17:37:41Z</time>
      </trkpt>
      <trkpt lat="48.68716" lon="7.28528">
        <ele>448</ele>
        <time>2020-05-26T17:37:39Z</time>
      </trkpt>
      <trkpt lat="48.68718" lon="7.28535">
        <ele>447.4</ele>
        <time>2020-05-26T17:37:37Z</time>
      </trkpt>
      <trkpt lat="48.68721" lon="7.28543">
        <ele>446.6</ele>
        <time>2020-05-26T17:37:35Z</time>
      </trkpt>
      <trkpt lat="48.68724" lon="7.28551">
        <ele>445.5</ele>
        <time>2020-05-26T17:37:33Z</time>
      </trkpt>
      <trkpt lat="48.68726" lon="7.28558">
        <ele>444.7</ele>
        <time>2020-05-26T17:37:31Z</time>
      </trkpt>
      <trkpt lat="48.68727" lon="7.28566">
        <ele>442.9</ele>
        <time>2020-05-26T17:37:29Z</time>
      </trkpt>
      <trkpt lat="48.68729" lon="7.28575">
        <ele>441.8</ele>
        <time>2020-05-26T17:37:27Z</time>
      </trkpt>
      <trkpt lat="48.68731" lon="7.28584">
        <ele>440.5</ele>
        <time>2020-05-26T17:37:25Z</time>
      </trkpt>
      <trkpt lat="48.68731" lon="7.28592">
        <ele>439.6</ele>
        <time>2020-05-26T17:37:23Z</time>
      </trkpt>
      <trkpt lat="48.68732" lon="7.28601">
        <ele>439.3</ele>
        <time>2020-05-26T17:37:21Z</time>
      </trkpt>
      <trkpt lat="48.68732" lon="7.2861">
        <ele>439.1</ele>
        <time>2020-05-26T17:37:19Z</time>
      </trkpt>
      <trkpt lat="48.68734" lon="7.28619">
        <ele>438.5</ele>
        <time>2020-05-26T17:37:17Z</time>
      </trkpt>
      <trkpt lat="48.68736" lon="7.28628">
        <ele>437.8</ele>
        <time>2020-05-26T17:37:15Z</time>
      </trkpt>
      <trkpt lat="48.68739" lon="7.28635">
        <ele>436.5</ele>
        <time>2020-05-26T17:37:13Z</time>
      </trkpt>
      <trkpt lat="48.68742" lon="7.28642">
        <ele>435.4</ele>
        <time>2020-05-26T17:37:11Z</time>
      </trkpt>
      <trkpt lat="48.68744" lon="7.2865">
        <ele>434.4</ele>
        <time>2020-05-26T17:37:09Z</time>
      </trkpt>
      <trkpt lat="48.68748" lon="7.28658">
        <ele>434.3</ele>
        <time>2020-05-26T17:37:07Z</time>
      </trkpt>
      <trkpt lat="48.68751" lon="7.28665">
        <ele>433.8</ele>
        <time>2020-05-26T17:37:05Z</time>
      </trkpt>
      <trkpt lat="48.68755" lon="7.28673">
        <ele>433.2</ele>
        <time>2020-05-26T17:37:03Z</time>
      </trkpt>
      <trkpt lat="48.68762" lon="7.28685">
        <ele>432.8</ele>
        <time>2020-05-26T17:37:00Z</time>
      </trkpt>
      <trkpt lat="48.68764" lon="7.28693">
        <ele>432.3</ele>
        <time>2020-05-26T17:36:58Z</time>
      </trkpt>
      <trkpt lat="48.68765" lon="7.287">
        <ele>432.3</ele>
        <time>2020-05-26T17:36:56Z</time>
      </trkpt>
      <trkpt lat="48.68767" lon="7.28706">
        <ele>432.1</ele>
        <time>2020-05-26T17:36:54Z</time>
      </trkpt>
      <trkpt lat="48.68771" lon="7.28713">
        <ele>431.2</ele>
        <time>2020-05-26T17:36:52Z</time>
      </trkpt>
      <trkpt lat="48.68776" lon="7.28719">
        <ele>430</ele>
        <time>2020-05-26T17:36:50Z</time>
      </trkpt>
      <trkpt lat="48.68781" lon="7.28725">
        <ele>429.3</ele>
        <time>2020-05-26T17:36:48Z</time>
      </trkpt>
      <trkpt lat="48.68785" lon="7.28734">
        <ele>428.7</ele>
        <time>2020-05-26T17:36:46Z</time>
      </trkpt>
      <trkpt lat="48.68789" lon="7.28745">
        <ele>427.7</ele>
        <time>2020-05-26T17:36:43Z</time>
      </trkpt>
      <trkpt lat="48.68792" lon="7.28752">
        <ele>427</ele>
        <time>2020-05-26T17:36:41Z</time>
      </trkpt>
      <trkpt lat="48.68795" lon="7.28759">
        <ele>426.3</ele>
        <time>2020-05-26T17:36:39Z</time>
      </trkpt>
      <trkpt lat="48.68799" lon="7.28765">
        <ele>425.7</ele>
        <time>2020-05-26T17:36:37Z</time>
      </trkpt>
      <trkpt lat="48.68802" lon="7.28773">
        <ele>425</ele>
        <time>2020-05-26T17:36:35Z</time>
      </trkpt>
      <trkpt lat="48.68806" lon="7.2878">
        <ele>425.2</ele>
        <time>2020-05-26T17:36:33Z</time>
      </trkpt>
      <trkpt lat="48.68809" lon="7.28786">
        <ele>424.7</ele>
        <time>2020-05-26T17:36:31Z</time>
      </trkpt>
      <trkpt lat="48.68813" lon="7.28793">
        <ele>424.5</ele>
        <time>2020-05-26T17:36:29Z</time>
      </trkpt>
      <trkpt lat="48.68817" lon="7.28801">
        <ele>424.6</ele>
        <time>2020-05-26T17:36:27Z</time>
      </trkpt>
      <trkpt lat="48.68822" lon="7.28807">
        <ele>425</ele>
        <time>2020-05-26T17:36:25Z</time>
      </trkpt>
      <trkpt lat="48.68828" lon="7.28814">
        <ele>425.1</ele>
        <time>2020-05-26T17:36:23Z</time>
      </trkpt>
      <trkpt lat="48.68834" lon="7.28822">
        <ele>425.9</ele>
        <time>2020-05-26T17:36:21Z</time>
      </trkpt>
      <trkpt lat="48.68839" lon="7.2883">
        <ele>426.9</ele>
        <time>2020-05-26T17:36:19Z</time>
      </trkpt>
      <trkpt lat="48.68844" lon="7.28838">
        <ele>428</ele>
        <time>2020-05-26T17:36:17Z</time>
      </trkpt>
      <trkpt lat="48.68848" lon="7.28844">
        <ele>429.1</ele>
        <time>2020-05-26T17:36:15Z</time>
      </trkpt>
      <trkpt lat="48.68855" lon="7.2885">
        <ele>430.5</ele>
        <time>2020-05-26T17:36:12Z</time>
      </trkpt>
      <trkpt lat="48.6886" lon="7.28855">
        <ele>431</ele>
        <time>2020-05-26T17:36:10Z</time>
      </trkpt>
      <trkpt lat="48.68864" lon="7.28861">
        <ele>431.5</ele>
        <time>2020-05-26T17:36:08Z</time>
      </trkpt>
      <trkpt lat="48.68868" lon="7.28868">
        <ele>432.4</ele>
        <time>2020-05-26T17:36:06Z</time>
      </trkpt>
      <trkpt lat="48.68872" lon="7.28874">
        <ele>432.6</ele>
        <time>2020-05-26T17:36:04Z</time>
      </trkpt>
      <trkpt lat="48.68877" lon="7.28879">
        <ele>432.7</ele>
        <time>2020-05-26T17:36:02Z</time>
      </trkpt>
      <trkpt lat="48.68883" lon="7.28886">
        <ele>433.1</ele>
        <time>2020-05-26T17:36:00Z</time>
      </trkpt>
      <trkpt lat="48.68888" lon="7.28891">
        <ele>434.4</ele>
        <time>2020-05-26T17:35:58Z</time>
      </trkpt>
      <trkpt lat="48.68893" lon="7.28896">
        <ele>434.7</ele>
        <time>2020-05-26T17:35:56Z</time>
      </trkpt>
      <trkpt lat="48.68897" lon="7.28901">
        <ele>435</ele>
        <time>2020-05-26T17:35:54Z</time>
      </trkpt>
      <trkpt lat="48.68904" lon="7.28908">
        <ele>435.1</ele>
        <time>2020-05-26T17:35:51Z</time>
      </trkpt>
      <trkpt lat="48.68912" lon="7.28913">
        <ele>434.7</ele>
        <time>2020-05-26T17:35:48Z</time>
      </trkpt>
      <trkpt lat="48.68919" lon="7.28914">
        <ele>434.3</ele>
        <time>2020-05-26T17:35:46Z</time>
      </trkpt>
      <trkpt lat="48.68926" lon="7.28914">
        <ele>433.7</ele>
        <time>2020-05-26T17:35:44Z</time>
      </trkpt>
      <trkpt lat="48.68932" lon="7.28913">
        <ele>433</ele>
        <time>2020-05-26T17:35:42Z</time>
      </trkpt>
      <trkpt lat="48.68941" lon="7.28912">
        <ele>431.5</ele>
        <time>2020-05-26T17:35:39Z</time>
      </trkpt>
      <trkpt lat="48.68947" lon="7.28912">
        <ele>429.9</ele>
        <time>2020-05-26T17:35:37Z</time>
      </trkpt>
      <trkpt lat="48.68954" lon="7.28913">
        <ele>429.5</ele>
        <time>2020-05-26T17:35:35Z</time>
      </trkpt>
      <trkpt lat="48.68959" lon="7.28916">
        <ele>428.8</ele>
        <time>2020-05-26T17:35:33Z</time>
      </trkpt>
      <trkpt lat="48.68963" lon="7.2892">
        <ele>427.9</ele>
        <time>2020-05-26T17:35:31Z</time>
      </trkpt>
      <trkpt lat="48.68968" lon="7.28921">
        <ele>427.2</ele>
        <time>2020-05-26T17:35:29Z</time>
      </trkpt>
      <trkpt lat="48.68973" lon="7.28923">
        <ele>426.5</ele>
        <time>2020-05-26T17:35:27Z</time>
      </trkpt>
      <trkpt lat="48.68977" lon="7.28925">
        <ele>424.9</ele>
        <time>2020-05-26T17:35:25Z</time>
      </trkpt>
      <trkpt lat="48.68982" lon="7.28927">
        <ele>424.3</ele>
        <time>2020-05-26T17:35:23Z</time>
      </trkpt>
      <trkpt lat="48.68988" lon="7.28927">
        <ele>423.6</ele>
        <time>2020-05-26T17:35:21Z</time>
      </trkpt>
      <trkpt lat="48.68993" lon="7.28928">
        <ele>422.7</ele>
        <time>2020-05-26T17:35:19Z</time>
      </trkpt>
      <trkpt lat="48.68999" lon="7.28928">
        <ele>421.8</ele>
        <time>2020-05-26T17:35:17Z</time>
      </trkpt>
      <trkpt lat="48.69004" lon="7.2893">
        <ele>420.9</ele>
        <time>2020-05-26T17:35:15Z</time>
      </trkpt>
      <trkpt lat="48.6901" lon="7.28932">
        <ele>420.5</ele>
        <time>2020-05-26T17:35:13Z</time>
      </trkpt>
      <trkpt lat="48.69016" lon="7.28933">
        <ele>419.8</ele>
        <time>2020-05-26T17:35:11Z</time>
      </trkpt>
      <trkpt lat="48.69021" lon="7.28935">
        <ele>419.1</ele>
        <time>2020-05-26T17:35:09Z</time>
      </trkpt>
      <trkpt lat="48.69027" lon="7.28936">
        <ele>418.1</ele>
        <time>2020-05-26T17:35:07Z</time>
      </trkpt>
      <trkpt lat="48.69032" lon="7.28936">
        <ele>417.9</ele>
        <time>2020-05-26T17:35:05Z</time>
      </trkpt>
      <trkpt lat="48.69038" lon="7.28936">
        <ele>417.9</ele>
        <time>2020-05-26T17:35:03Z</time>
      </trkpt>
      <trkpt lat="48.69043" lon="7.28937">
        <ele>417</ele>
        <time>2020-05-26T17:35:01Z</time>
      </trkpt>
      <trkpt lat="48.69049" lon="7.28938">
        <ele>416.8</ele>
        <time>2020-05-26T17:34:59Z</time>
      </trkpt>
      <trkpt lat="48.69054" lon="7.2894">
        <ele>416.5</ele>
        <time>2020-05-26T17:34:57Z</time>
      </trkpt>
      <trkpt lat="48.6906" lon="7.28941">
        <ele>415.9</ele>
        <time>2020-05-26T17:34:55Z</time>
      </trkpt>
      <trkpt lat="48.69065" lon="7.28941">
        <ele>415.8</ele>
        <time>2020-05-26T17:34:53Z</time>
      </trkpt>
      <trkpt lat="48.69071" lon="7.28941">
        <ele>415.7</ele>
        <time>2020-05-26T17:34:51Z</time>
      </trkpt>
      <trkpt lat="48.69078" lon="7.2894">
        <ele>415.1</ele>
        <time>2020-05-26T17:34:49Z</time>
      </trkpt>
      <trkpt lat="48.69084" lon="7.2894">
        <ele>415.9</ele>
        <time>2020-05-26T17:34:47Z</time>
      </trkpt>
      <trkpt lat="48.69091" lon="7.28942">
        <ele>415.5</ele>
        <time>2020-05-26T17:34:45Z</time>
      </trkpt>
      <trkpt lat="48.69097" lon="7.28943">
        <ele>416</ele>
        <time>2020-05-26T17:34:43Z</time>
      </trkpt>
      <trkpt lat="48.69102" lon="7.28944">
        <ele>416.8</ele>
        <time>2020-05-26T17:34:41Z</time>
      </trkpt>
      <trkpt lat="48.69108" lon="7.28944">
        <ele>417.3</ele>
        <time>2020-05-26T17:34:39Z</time>
      </trkpt>
      <trkpt lat="48.69114" lon="7.28944">
        <ele>418</ele>
        <time>2020-05-26T17:34:37Z</time>
      </trkpt>
      <trkpt lat="48.69119" lon="7.28943">
        <ele>418.8</ele>
        <time>2020-05-26T17:34:35Z</time>
      </trkpt>
      <trkpt lat="48.69125" lon="7.28942">
        <ele>418.5</ele>
        <time>2020-05-26T17:34:33Z</time>
      </trkpt>
      <trkpt lat="48.6913" lon="7.28941">
        <ele>418.9</ele>
        <time>2020-05-26T17:34:31Z</time>
      </trkpt>
      <trkpt lat="48.69136" lon="7.28939">
        <ele>418.6</ele>
        <time>2020-05-26T17:34:29Z</time>
      </trkpt>
      <trkpt lat="48.69142" lon="7.28938">
        <ele>418.6</ele>
        <time>2020-05-26T17:34:27Z</time>
      </trkpt>
      <trkpt lat="48.69147" lon="7.28935">
        <ele>417.7</ele>
        <time>2020-05-26T17:34:25Z</time>
      </trkpt>
      <trkpt lat="48.69151" lon="7.2893">
        <ele>417.2</ele>
        <time>2020-05-26T17:34:23Z</time>
      </trkpt>
      <trkpt lat="48.69155" lon="7.28924">
        <ele>416.1</ele>
        <time>2020-05-26T17:34:21Z</time>
      </trkpt>
      <trkpt lat="48.69158" lon="7.28917">
        <ele>415.9</ele>
        <time>2020-05-26T17:34:19Z</time>
      </trkpt>
      <trkpt lat="48.69162" lon="7.2891">
        <ele>415.5</ele>
        <time>2020-05-26T17:34:17Z</time>
      </trkpt>
      <trkpt lat="48.69165" lon="7.28903">
        <ele>415.1</ele>
        <time>2020-05-26T17:34:15Z</time>
      </trkpt>
      <trkpt lat="48.69167" lon="7.28895">
        <ele>414.8</ele>
        <time>2020-05-26T17:34:13Z</time>
      </trkpt>
      <trkpt lat="48.6917" lon="7.28887">
        <ele>415.4</ele>
        <time>2020-05-26T17:34:11Z</time>
      </trkpt>
      <trkpt lat="48.69171" lon="7.28878">
        <ele>415.9</ele>
        <time>2020-05-26T17:34:09Z</time>
      </trkpt>
      <trkpt lat="48.69173" lon="7.28869">
        <ele>415.6</ele>
        <time>2020-05-26T17:34:07Z</time>
      </trkpt>
      <trkpt lat="48.69174" lon="7.28861">
        <ele>415.7</ele>
        <time>2020-05-26T17:34:05Z</time>
      </trkpt>
      <trkpt lat="48.69174" lon="7.28853">
        <ele>415.8</ele>
        <time>2020-05-26T17:34:03Z</time>
      </trkpt>
      <trkpt lat="48.69174" lon="7.28844">
        <ele>415.5</ele>
        <time>2020-05-26T17:34:01Z</time>
      </trkpt>
      <trkpt lat="48.69173" lon="7.28835">
        <ele>415.7</ele>
        <time>2020-05-26T17:33:59Z</time>
      </trkpt>
      <trkpt lat="48.69172" lon="7.28826">
        <ele>415.5</ele>
        <time>2020-05-26T17:33:57Z</time>
      </trkpt>
      <trkpt lat="48.69172" lon="7.28818">
        <ele>415.7</ele>
        <time>2020-05-26T17:33:55Z</time>
      </trkpt>
      <trkpt lat="48.69171" lon="7.28809">
        <ele>416.1</ele>
        <time>2020-05-26T17:33:53Z</time>
      </trkpt>
      <trkpt lat="48.69171" lon="7.28801">
        <ele>416.9</ele>
        <time>2020-05-26T17:33:51Z</time>
      </trkpt>
      <trkpt lat="48.6917" lon="7.28793">
        <ele>416.9</ele>
        <time>2020-05-26T17:33:49Z</time>
      </trkpt>
      <trkpt lat="48.69169" lon="7.28786">
        <ele>415.7</ele>
        <time>2020-05-26T17:33:47Z</time>
      </trkpt>
      <trkpt lat="48.69169" lon="7.28779">
        <ele>416.4</ele>
        <time>2020-05-26T17:33:45Z</time>
      </trkpt>
      <trkpt lat="48.6917" lon="7.28772">
        <ele>415.8</ele>
        <time>2020-05-26T17:33:43Z</time>
      </trkpt>
      <trkpt lat="48.6917" lon="7.28764">
        <ele>415.3</ele>
        <time>2020-05-26T17:33:41Z</time>
      </trkpt>
      <trkpt lat="48.69169" lon="7.28756">
        <ele>414.4</ele>
        <time>2020-05-26T17:33:39Z</time>
      </trkpt>
      <trkpt lat="48.69167" lon="7.28747">
        <ele>413.8</ele>
        <time>2020-05-26T17:33:37Z</time>
      </trkpt>
      <trkpt lat="48.69166" lon="7.28739">
        <ele>412.6</ele>
        <time>2020-05-26T17:33:35Z</time>
      </trkpt>
      <trkpt lat="48.69164" lon="7.28732">
        <ele>412.3</ele>
        <time>2020-05-26T17:33:33Z</time>
      </trkpt>
      <trkpt lat="48.69164" lon="7.28724">
        <ele>413</ele>
        <time>2020-05-26T17:33:31Z</time>
      </trkpt>
      <trkpt lat="48.69163" lon="7.28716">
        <ele>412.4</ele>
        <time>2020-05-26T17:33:29Z</time>
      </trkpt>
      <trkpt lat="48.69162" lon="7.28706">
        <ele>411.9</ele>
        <time>2020-05-26T17:33:27Z</time>
      </trkpt>
      <trkpt lat="48.69161" lon="7.28696">
        <ele>412.7</ele>
        <time>2020-05-26T17:33:25Z</time>
      </trkpt>
      <trkpt lat="48.6916" lon="7.28687">
        <ele>413.2</ele>
        <time>2020-05-26T17:33:23Z</time>
      </trkpt>
      <trkpt lat="48.6916" lon="7.28678">
        <ele>413.8</ele>
        <time>2020-05-26T17:33:21Z</time>
      </trkpt>
      <trkpt lat="48.69159" lon="7.2867">
        <ele>414</ele>
        <time>2020-05-26T17:33:19Z</time>
      </trkpt>
      <trkpt lat="48.69158" lon="7.28661">
        <ele>413.6</ele>
        <time>2020-05-26T17:33:17Z</time>
      </trkpt>
      <trkpt lat="48.69157" lon="7.28652">
        <ele>412.4</ele>
        <time>2020-05-26T17:33:15Z</time>
      </trkpt>
      <trkpt lat="48.69156" lon="7.28644">
        <ele>411.5</ele>
        <time>2020-05-26T17:33:13Z</time>
      </trkpt>
      <trkpt lat="48.69156" lon="7.28636">
        <ele>411.2</ele>
        <time>2020-05-26T17:33:11Z</time>
      </trkpt>
      <trkpt lat="48.69154" lon="7.28629">
        <ele>410.9</ele>
        <time>2020-05-26T17:33:09Z</time>
      </trkpt>
      <trkpt lat="48.69153" lon="7.28622">
        <ele>408.7</ele>
        <time>2020-05-26T17:33:07Z</time>
      </trkpt>
      <trkpt lat="48.69152" lon="7.28612">
        <ele>405.6</ele>
        <time>2020-05-26T17:33:04Z</time>
      </trkpt>
      <trkpt lat="48.69152" lon="7.28604">
        <ele>404.3</ele>
        <time>2020-05-26T17:33:02Z</time>
      </trkpt>
      <trkpt lat="48.69151" lon="7.28596">
        <ele>403.2</ele>
        <time>2020-05-26T17:33:00Z</time>
      </trkpt>
      <trkpt lat="48.69152" lon="7.28587">
        <ele>402.3</ele>
        <time>2020-05-26T17:32:58Z</time>
      </trkpt>
      <trkpt lat="48.69154" lon="7.28579">
        <ele>402.7</ele>
        <time>2020-05-26T17:32:56Z</time>
      </trkpt>
      <trkpt lat="48.69156" lon="7.28571">
        <ele>403.4</ele>
        <time>2020-05-26T17:32:54Z</time>
      </trkpt>
      <trkpt lat="48.69157" lon="7.28563">
        <ele>403.5</ele>
        <time>2020-05-26T17:32:52Z</time>
      </trkpt>
      <trkpt lat="48.69158" lon="7.28555">
        <ele>403.6</ele>
        <time>2020-05-26T17:32:50Z</time>
      </trkpt>
      <trkpt lat="48.69159" lon="7.28544">
        <ele>403.8</ele>
        <time>2020-05-26T17:32:47Z</time>
      </trkpt>
      <trkpt lat="48.6916" lon="7.28536">
        <ele>404.6</ele>
        <time>2020-05-26T17:32:45Z</time>
      </trkpt>
      <trkpt lat="48.69161" lon="7.28529">
        <ele>405.3</ele>
        <time>2020-05-26T17:32:43Z</time>
      </trkpt>
      <trkpt lat="48.69163" lon="7.28523">
        <ele>405.6</ele>
        <time>2020-05-26T17:32:41Z</time>
      </trkpt>
      <trkpt lat="48.69164" lon="7.28515">
        <ele>406.2</ele>
        <time>2020-05-26T17:32:39Z</time>
      </trkpt>
      <trkpt lat="48.69165" lon="7.28507">
        <ele>405.6</ele>
        <time>2020-05-26T17:32:37Z</time>
      </trkpt>
      <trkpt lat="48.69165" lon="7.285">
        <ele>405.5</ele>
        <time>2020-05-26T17:32:35Z</time>
      </trkpt>
      <trkpt lat="48.69165" lon="7.28492">
        <ele>405.2</ele>
        <time>2020-05-26T17:32:33Z</time>
      </trkpt>
      <trkpt lat="48.69164" lon="7.28484">
        <ele>404.4</ele>
        <time>2020-05-26T17:32:31Z</time>
      </trkpt>
      <trkpt lat="48.69165" lon="7.28476">
        <ele>404.4</ele>
        <time>2020-05-26T17:32:29Z</time>
      </trkpt>
      <trkpt lat="48.69166" lon="7.28467">
        <ele>403</ele>
        <time>2020-05-26T17:32:27Z</time>
      </trkpt>
      <trkpt lat="48.69166" lon="7.28458">
        <ele>403</ele>
        <time>2020-05-26T17:32:25Z</time>
      </trkpt>
      <trkpt lat="48.69167" lon="7.28449">
        <ele>402.7</ele>
        <time>2020-05-26T17:32:23Z</time>
      </trkpt>
      <trkpt lat="48.69168" lon="7.2844">
        <ele>402.7</ele>
        <time>2020-05-26T17:32:21Z</time>
      </trkpt>
      <trkpt lat="48.6917" lon="7.28431">
        <ele>403.5</ele>
        <time>2020-05-26T17:32:19Z</time>
      </trkpt>
      <trkpt lat="48.69171" lon="7.28423">
        <ele>403.4</ele>
        <time>2020-05-26T17:32:17Z</time>
      </trkpt>
      <trkpt lat="48.69174" lon="7.28414">
        <ele>403</ele>
        <time>2020-05-26T17:32:15Z</time>
      </trkpt>
      <trkpt lat="48.69177" lon="7.28408">
        <ele>402.2</ele>
        <time>2020-05-26T17:32:13Z</time>
      </trkpt>
      <trkpt lat="48.69184" lon="7.28401">
        <ele>401.1</ele>
        <time>2020-05-26T17:32:10Z</time>
      </trkpt>
      <trkpt lat="48.69189" lon="7.28395">
        <ele>400.9</ele>
        <time>2020-05-26T17:32:08Z</time>
      </trkpt>
      <trkpt lat="48.69194" lon="7.2839">
        <ele>399.6</ele>
        <time>2020-05-26T17:32:06Z</time>
      </trkpt>
      <trkpt lat="48.69199" lon="7.28386">
        <ele>398.7</ele>
        <time>2020-05-26T17:32:04Z</time>
      </trkpt>
      <trkpt lat="48.69204" lon="7.28384">
        <ele>399</ele>
        <time>2020-05-26T17:32:02Z</time>
      </trkpt>
      <trkpt lat="48.69211" lon="7.28382">
        <ele>399.6</ele>
        <time>2020-05-26T17:31:59Z</time>
      </trkpt>
      <trkpt lat="48.69217" lon="7.28381">
        <ele>399.5</ele>
        <time>2020-05-26T17:31:57Z</time>
      </trkpt>
      <trkpt lat="48.69225" lon="7.28381">
        <ele>399.1</ele>
        <time>2020-05-26T17:31:54Z</time>
      </trkpt>
      <trkpt lat="48.6923" lon="7.28381">
        <ele>398.9</ele>
        <time>2020-05-26T17:31:52Z</time>
      </trkpt>
      <trkpt lat="48.69237" lon="7.28379">
        <ele>398.3</ele>
        <time>2020-05-26T17:31:49Z</time>
      </trkpt>
      <trkpt lat="48.69243" lon="7.28379">
        <ele>398</ele>
        <time>2020-05-26T17:31:46Z</time>
      </trkpt>
      <trkpt lat="48.69248" lon="7.28379">
        <ele>398.1</ele>
        <time>2020-05-26T17:31:44Z</time>
      </trkpt>
      <trkpt lat="48.69253" lon="7.2838">
        <ele>398.8</ele>
        <time>2020-05-26T17:31:42Z</time>
      </trkpt>
      <trkpt lat="48.69258" lon="7.2838">
        <ele>398.8</ele>
        <time>2020-05-26T17:31:40Z</time>
      </trkpt>
      <trkpt lat="48.69263" lon="7.28381">
        <ele>397.8</ele>
        <time>2020-05-26T17:31:38Z</time>
      </trkpt>
      <trkpt lat="48.69268" lon="7.28382">
        <ele>397.6</ele>
        <time>2020-05-26T17:31:36Z</time>
      </trkpt>
      <trkpt lat="48.69273" lon="7.28384">
        <ele>397.3</ele>
        <time>2020-05-26T17:31:34Z</time>
      </trkpt>
      <trkpt lat="48.69279" lon="7.28386">
        <ele>397.1</ele>
        <time>2020-05-26T17:31:32Z</time>
      </trkpt>
      <trkpt lat="48.69284" lon="7.28389">
        <ele>397.1</ele>
        <time>2020-05-26T17:31:30Z</time>
      </trkpt>
      <trkpt lat="48.69289" lon="7.28391">
        <ele>396.7</ele>
        <time>2020-05-26T17:31:28Z</time>
      </trkpt>
      <trkpt lat="48.69295" lon="7.28393">
        <ele>396.8</ele>
        <time>2020-05-26T17:31:26Z</time>
      </trkpt>
      <trkpt lat="48.69301" lon="7.28394">
        <ele>396.1</ele>
        <time>2020-05-26T17:31:24Z</time>
      </trkpt>
      <trkpt lat="48.69306" lon="7.28395">
        <ele>395</ele>
        <time>2020-05-26T17:31:22Z</time>
      </trkpt>
      <trkpt lat="48.69311" lon="7.28396">
        <ele>394.5</ele>
        <time>2020-05-26T17:31:20Z</time>
      </trkpt>
      <trkpt lat="48.69317" lon="7.28398">
        <ele>393.8</ele>
        <time>2020-05-26T17:31:18Z</time>
      </trkpt>
      <trkpt lat="48.69322" lon="7.284">
        <ele>393.2</ele>
        <time>2020-05-26T17:31:16Z</time>
      </trkpt>
      <trkpt lat="48.69327" lon="7.28403">
        <ele>393.1</ele>
        <time>2020-05-26T17:31:14Z</time>
      </trkpt>
      <trkpt lat="48.69331" lon="7.28407">
        <ele>392.8</ele>
        <time>2020-05-26T17:31:12Z</time>
      </trkpt>
      <trkpt lat="48.69336" lon="7.2841">
        <ele>392.6</ele>
        <time>2020-05-26T17:31:10Z</time>
      </trkpt>
      <trkpt lat="48.69344" lon="7.28416">
        <ele>392.4</ele>
        <time>2020-05-26T17:31:07Z</time>
      </trkpt>
      <trkpt lat="48.69349" lon="7.2842">
        <ele>392.5</ele>
        <time>2020-05-26T17:31:05Z</time>
      </trkpt>
      <trkpt lat="48.69354" lon="7.28424">
        <ele>392.8</ele>
        <time>2020-05-26T17:31:03Z</time>
      </trkpt>
      <trkpt lat="48.69359" lon="7.28429">
        <ele>393.3</ele>
        <time>2020-05-26T17:31:01Z</time>
      </trkpt>
      <trkpt lat="48.69363" lon="7.28435">
        <ele>394</ele>
        <time>2020-05-26T17:30:59Z</time>
      </trkpt>
      <trkpt lat="48.69368" lon="7.2844">
        <ele>394.1</ele>
        <time>2020-05-26T17:30:57Z</time>
      </trkpt>
      <trkpt lat="48.69372" lon="7.28443">
        <ele>394.5</ele>
        <time>2020-05-26T17:30:55Z</time>
      </trkpt>
      <trkpt lat="48.69376" lon="7.28447">
        <ele>394.3</ele>
        <time>2020-05-26T17:30:53Z</time>
      </trkpt>
      <trkpt lat="48.6938" lon="7.28451">
        <ele>394.9</ele>
        <time>2020-05-26T17:30:51Z</time>
      </trkpt>
      <trkpt lat="48.69384" lon="7.28455">
        <ele>395.1</ele>
        <time>2020-05-26T17:30:49Z</time>
      </trkpt>
      <trkpt lat="48.69388" lon="7.28459">
        <ele>395.6</ele>
        <time>2020-05-26T17:30:47Z</time>
      </trkpt>
      <trkpt lat="48.69393" lon="7.28463">
        <ele>395.4</ele>
        <time>2020-05-26T17:30:45Z</time>
      </trkpt>
      <trkpt lat="48.69399" lon="7.28468">
        <ele>394.1</ele>
        <time>2020-05-26T17:30:42Z</time>
      </trkpt>
      <trkpt lat="48.69403" lon="7.28472">
        <ele>393.5</ele>
        <time>2020-05-26T17:30:40Z</time>
      </trkpt>
      <trkpt lat="48.69409" lon="7.28479">
        <ele>393.1</ele>
        <time>2020-05-26T17:30:37Z</time>
      </trkpt>
      <trkpt lat="48.69414" lon="7.28484">
        <ele>393.3</ele>
        <time>2020-05-26T17:30:35Z</time>
      </trkpt>
      <trkpt lat="48.69419" lon="7.2849">
        <ele>393.8</ele>
        <time>2020-05-26T17:30:33Z</time>
      </trkpt>
      <trkpt lat="48.69425" lon="7.28494">
        <ele>394.1</ele>
        <time>2020-05-26T17:30:31Z</time>
      </trkpt>
      <trkpt lat="48.69432" lon="7.28499">
        <ele>392.9</ele>
        <time>2020-05-26T17:30:28Z</time>
      </trkpt>
      <trkpt lat="48.69436" lon="7.28503">
        <ele>392.3</ele>
        <time>2020-05-26T17:30:26Z</time>
      </trkpt>
      <trkpt lat="48.6944" lon="7.28507">
        <ele>391.5</ele>
        <time>2020-05-26T17:30:24Z</time>
      </trkpt>
      <trkpt lat="48.69444" lon="7.28512">
        <ele>390.7</ele>
        <time>2020-05-26T17:30:22Z</time>
      </trkpt>
      <trkpt lat="48.69448" lon="7.28518">
        <ele>391.2</ele>
        <time>2020-05-26T17:30:19Z</time>
      </trkpt>
      <trkpt lat="48.69453" lon="7.28522">
        <ele>393.3</ele>
        <time>2020-05-26T17:30:17Z</time>
      </trkpt>
      <trkpt lat="48.69457" lon="7.28525">
        <ele>393.1</ele>
        <time>2020-05-26T17:30:15Z</time>
      </trkpt>
      <trkpt lat="48.69462" lon="7.28529">
        <ele>393</ele>
        <time>2020-05-26T17:30:13Z</time>
      </trkpt>
      <trkpt lat="48.69469" lon="7.28535">
        <ele>393.1</ele>
        <time>2020-05-26T17:30:10Z</time>
      </trkpt>
      <trkpt lat="48.69473" lon="7.28539">
        <ele>393.3</ele>
        <time>2020-05-26T17:30:08Z</time>
      </trkpt>
      <trkpt lat="48.69478" lon="7.28544">
        <ele>392.9</ele>
        <time>2020-05-26T17:30:05Z</time>
      </trkpt>
      <trkpt lat="48.69484" lon="7.28548">
        <ele>391.4</ele>
        <time>2020-05-26T17:30:02Z</time>
      </trkpt>
      <trkpt lat="48.6949" lon="7.28554">
        <ele>391</ele>
        <time>2020-05-26T17:29:59Z</time>
      </trkpt>
      <trkpt lat="48.69496" lon="7.28558">
        <ele>390.8</ele>
        <time>2020-05-26T17:29:56Z</time>
      </trkpt>
      <trkpt lat="48.695" lon="7.28561">
        <ele>390.4</ele>
        <time>2020-05-26T17:29:54Z</time>
      </trkpt>
      <trkpt lat="48.69506" lon="7.28565">
        <ele>389.3</ele>
        <time>2020-05-26T17:29:51Z</time>
      </trkpt>
      <trkpt lat="48.69511" lon="7.2857">
        <ele>388.9</ele>
        <time>2020-05-26T17:29:48Z</time>
      </trkpt>
      <trkpt lat="48.69517" lon="7.28576">
        <ele>388.6</ele>
        <time>2020-05-26T17:29:45Z</time>
      </trkpt>
      <trkpt lat="48.69522" lon="7.2858">
        <ele>387.9</ele>
        <time>2020-05-26T17:29:42Z</time>
      </trkpt>
      <trkpt lat="48.69528" lon="7.28585">
        <ele>386.9</ele>
        <time>2020-05-26T17:29:39Z</time>
      </trkpt>
      <trkpt lat="48.69534" lon="7.28588">
        <ele>385.5</ele>
        <time>2020-05-26T17:29:36Z</time>
      </trkpt>
      <trkpt lat="48.69541" lon="7.28592">
        <ele>383.6</ele>
        <time>2020-05-26T17:29:33Z</time>
      </trkpt>
      <trkpt lat="48.69545" lon="7.28595">
        <ele>385.3</ele>
        <time>2020-05-26T17:29:31Z</time>
      </trkpt>
      <trkpt lat="48.6955" lon="7.286">
        <ele>384.8</ele>
        <time>2020-05-26T17:29:28Z</time>
      </trkpt>
      <trkpt lat="48.69555" lon="7.28601">
        <ele>384.2</ele>
        <time>2020-05-26T17:29:25Z</time>
      </trkpt>
      <trkpt lat="48.69561" lon="7.28603">
        <ele>385.8</ele>
        <time>2020-05-26T17:29:22Z</time>
      </trkpt>
      <trkpt lat="48.69567" lon="7.28607">
        <ele>385.1</ele>
        <time>2020-05-26T17:29:19Z</time>
      </trkpt>
      <trkpt lat="48.69573" lon="7.28611">
        <ele>384.5</ele>
        <time>2020-05-26T17:29:16Z</time>
      </trkpt>
      <trkpt lat="48.69577" lon="7.28613">
        <ele>384.2</ele>
        <time>2020-05-26T17:29:14Z</time>
      </trkpt>
      <trkpt lat="48.69582" lon="7.28615">
        <ele>383.9</ele>
        <time>2020-05-26T17:29:12Z</time>
      </trkpt>
      <trkpt lat="48.69587" lon="7.28617">
        <ele>383.5</ele>
        <time>2020-05-26T17:29:10Z</time>
      </trkpt>
      <trkpt lat="48.69592" lon="7.28619">
        <ele>383</ele>
        <time>2020-05-26T17:29:08Z</time>
      </trkpt>
      <trkpt lat="48.69597" lon="7.28622">
        <ele>382.7</ele>
        <time>2020-05-26T17:29:06Z</time>
      </trkpt>
      <trkpt lat="48.69603" lon="7.28625">
        <ele>381.4</ele>
        <time>2020-05-26T17:29:03Z</time>
      </trkpt>
      <trkpt lat="48.69608" lon="7.28627">
        <ele>379.2</ele>
        <time>2020-05-26T17:29:00Z</time>
      </trkpt>
      <trkpt lat="48.69613" lon="7.28629">
        <ele>378</ele>
        <time>2020-05-26T17:28:58Z</time>
      </trkpt>
      <trkpt lat="48.69619" lon="7.28632">
        <ele>377.6</ele>
        <time>2020-05-26T17:28:56Z</time>
      </trkpt>
      <trkpt lat="48.69625" lon="7.28635">
        <ele>376.4</ele>
        <time>2020-05-26T17:28:53Z</time>
      </trkpt>
      <trkpt lat="48.69629" lon="7.28639">
        <ele>375.8</ele>
        <time>2020-05-26T17:28:51Z</time>
      </trkpt>
      <trkpt lat="48.69633" lon="7.28644">
        <ele>375.8</ele>
        <time>2020-05-26T17:28:49Z</time>
      </trkpt>
      <trkpt lat="48.69637" lon="7.28648">
        <ele>376.8</ele>
        <time>2020-05-26T17:28:47Z</time>
      </trkpt>
      <trkpt lat="48.69642" lon="7.28654">
        <ele>376.1</ele>
        <time>2020-05-26T17:28:45Z</time>
      </trkpt>
      <trkpt lat="48.69647" lon="7.28662">
        <ele>374.7</ele>
        <time>2020-05-26T17:28:42Z</time>
      </trkpt>
      <trkpt lat="48.6965" lon="7.28668">
        <ele>373.2</ele>
        <time>2020-05-26T17:28:39Z</time>
      </trkpt>
      <trkpt lat="48.69654" lon="7.28673">
        <ele>372.2</ele>
        <time>2020-05-26T17:28:36Z</time>
      </trkpt>
      <trkpt lat="48.69658" lon="7.2868">
        <ele>371.8</ele>
        <time>2020-05-26T17:28:33Z</time>
      </trkpt>
      <trkpt lat="48.69659" lon="7.28688">
        <ele>371.2</ele>
        <time>2020-05-26T17:28:30Z</time>
      </trkpt>
      <trkpt lat="48.69661" lon="7.28697">
        <ele>371.2</ele>
        <time>2020-05-26T17:28:27Z</time>
      </trkpt>
      <trkpt lat="48.69663" lon="7.28706">
        <ele>371.1</ele>
        <time>2020-05-26T17:28:24Z</time>
      </trkpt>
      <trkpt lat="48.69665" lon="7.28713">
        <ele>370.7</ele>
        <time>2020-05-26T17:28:22Z</time>
      </trkpt>
      <trkpt lat="48.69667" lon="7.28719">
        <ele>370.1</ele>
        <time>2020-05-26T17:28:20Z</time>
      </trkpt>
      <trkpt lat="48.69671" lon="7.28727">
        <ele>369.3</ele>
        <time>2020-05-26T17:28:17Z</time>
      </trkpt>
      <trkpt lat="48.69674" lon="7.28733">
        <ele>368.2</ele>
        <time>2020-05-26T17:28:15Z</time>
      </trkpt>
      <trkpt lat="48.69678" lon="7.28741">
        <ele>368.1</ele>
        <time>2020-05-26T17:28:12Z</time>
      </trkpt>
      <trkpt lat="48.69682" lon="7.28749">
        <ele>367.8</ele>
        <time>2020-05-26T17:28:09Z</time>
      </trkpt>
      <trkpt lat="48.69685" lon="7.28756">
        <ele>367</ele>
        <time>2020-05-26T17:28:06Z</time>
      </trkpt>
      <trkpt lat="48.69688" lon="7.28764">
        <ele>366</ele>
        <time>2020-05-26T17:28:03Z</time>
      </trkpt>
      <trkpt lat="48.69691" lon="7.28769">
        <ele>365.5</ele>
        <time>2020-05-26T17:28:01Z</time>
      </trkpt>
      <trkpt lat="48.69694" lon="7.28775">
        <ele>365.5</ele>
        <time>2020-05-26T17:27:59Z</time>
      </trkpt>
      <trkpt lat="48.69699" lon="7.28785">
        <ele>366.4</ele>
        <time>2020-05-26T17:27:56Z</time>
      </trkpt>
      <trkpt lat="48.69702" lon="7.28791">
        <ele>367.4</ele>
        <time>2020-05-26T17:27:54Z</time>
      </trkpt>
      <trkpt lat="48.69705" lon="7.28798">
        <ele>368.1</ele>
        <time>2020-05-26T17:27:52Z</time>
      </trkpt>
      <trkpt lat="48.69709" lon="7.28805">
        <ele>368.8</ele>
        <time>2020-05-26T17:27:50Z</time>
      </trkpt>
      <trkpt lat="48.69712" lon="7.28811">
        <ele>369.7</ele>
        <time>2020-05-26T17:27:48Z</time>
      </trkpt>
      <trkpt lat="48.69715" lon="7.28818">
        <ele>370.8</ele>
        <time>2020-05-26T17:27:46Z</time>
      </trkpt>
      <trkpt lat="48.69718" lon="7.28825">
        <ele>372.4</ele>
        <time>2020-05-26T17:27:44Z</time>
      </trkpt>
      <trkpt lat="48.69722" lon="7.2883">
        <ele>372.9</ele>
        <time>2020-05-26T17:27:42Z</time>
      </trkpt>
      <trkpt lat="48.69729" lon="7.28839">
        <ele>374.3</ele>
        <time>2020-05-26T17:27:39Z</time>
      </trkpt>
      <trkpt lat="48.69733" lon="7.28845">
        <ele>373.5</ele>
        <time>2020-05-26T17:27:37Z</time>
      </trkpt>
      <trkpt lat="48.69738" lon="7.2885">
        <ele>371.8</ele>
        <time>2020-05-26T17:27:34Z</time>
      </trkpt>
      <trkpt lat="48.69745" lon="7.28854">
        <ele>369.1</ele>
        <time>2020-05-26T17:27:31Z</time>
      </trkpt>
      <trkpt lat="48.6975" lon="7.28858">
        <ele>368.1</ele>
        <time>2020-05-26T17:27:29Z</time>
      </trkpt>
      <trkpt lat="48.69755" lon="7.28862">
        <ele>367</ele>
        <time>2020-05-26T17:27:27Z</time>
      </trkpt>
      <trkpt lat="48.69762" lon="7.28868">
        <ele>365</ele>
        <time>2020-05-26T17:27:24Z</time>
      </trkpt>
      <trkpt lat="48.69767" lon="7.28871">
        <ele>363.7</ele>
        <time>2020-05-26T17:27:22Z</time>
      </trkpt>
      <trkpt lat="48.69772" lon="7.28874">
        <ele>362.3</ele>
        <time>2020-05-26T17:27:20Z</time>
      </trkpt>
      <trkpt lat="48.69776" lon="7.28876">
        <ele>360.7</ele>
        <time>2020-05-26T17:27:18Z</time>
      </trkpt>
      <trkpt lat="48.69783" lon="7.28882">
        <ele>359.7</ele>
        <time>2020-05-26T17:27:15Z</time>
      </trkpt>
      <trkpt lat="48.69788" lon="7.28886">
        <ele>359.4</ele>
        <time>2020-05-26T17:27:13Z</time>
      </trkpt>
      <trkpt lat="48.69794" lon="7.2889">
        <ele>359.6</ele>
        <time>2020-05-26T17:27:11Z</time>
      </trkpt>
      <trkpt lat="48.69801" lon="7.28894">
        <ele>359.2</ele>
        <time>2020-05-26T17:27:08Z</time>
      </trkpt>
      <trkpt lat="48.69805" lon="7.28896">
        <ele>358.9</ele>
        <time>2020-05-26T17:27:06Z</time>
      </trkpt>
      <trkpt lat="48.69812" lon="7.28903">
        <ele>358.4</ele>
        <time>2020-05-26T17:27:03Z</time>
      </trkpt>
      <trkpt lat="48.69817" lon="7.28907">
        <ele>357.4</ele>
        <time>2020-05-26T17:27:01Z</time>
      </trkpt>
      <trkpt lat="48.6982" lon="7.28912">
        <ele>355.8</ele>
        <time>2020-05-26T17:26:59Z</time>
      </trkpt>
      <trkpt lat="48.69824" lon="7.28917">
        <ele>355.5</ele>
        <time>2020-05-26T17:26:56Z</time>
      </trkpt>
      <trkpt lat="48.69829" lon="7.28923">
        <ele>354.6</ele>
        <time>2020-05-26T17:26:53Z</time>
      </trkpt>
      <trkpt lat="48.69833" lon="7.28929">
        <ele>354</ele>
        <time>2020-05-26T17:26:51Z</time>
      </trkpt>
      <trkpt lat="48.69838" lon="7.28933">
        <ele>353.7</ele>
        <time>2020-05-26T17:26:49Z</time>
      </trkpt>
      <trkpt lat="48.69844" lon="7.28939">
        <ele>353.2</ele>
        <time>2020-05-26T17:26:46Z</time>
      </trkpt>
      <trkpt lat="48.69848" lon="7.28943">
        <ele>352.9</ele>
        <time>2020-05-26T17:26:44Z</time>
      </trkpt>
      <trkpt lat="48.69853" lon="7.28947">
        <ele>352.8</ele>
        <time>2020-05-26T17:26:42Z</time>
      </trkpt>
      <trkpt lat="48.69858" lon="7.28951">
        <ele>351.9</ele>
        <time>2020-05-26T17:26:40Z</time>
      </trkpt>
      <trkpt lat="48.69862" lon="7.28956">
        <ele>350.8</ele>
        <time>2020-05-26T17:26:37Z</time>
      </trkpt>
      <trkpt lat="48.69868" lon="7.28961">
        <ele>350.1</ele>
        <time>2020-05-26T17:26:34Z</time>
      </trkpt>
      <trkpt lat="48.69872" lon="7.28964">
        <ele>349.7</ele>
        <time>2020-05-26T17:26:32Z</time>
      </trkpt>
      <trkpt lat="48.69877" lon="7.28968">
        <ele>350.4</ele>
        <time>2020-05-26T17:26:30Z</time>
      </trkpt>
      <trkpt lat="48.69881" lon="7.28973">
        <ele>351</ele>
        <time>2020-05-26T17:26:28Z</time>
      </trkpt>
      <trkpt lat="48.69885" lon="7.28977">
        <ele>351.4</ele>
        <time>2020-05-26T17:26:26Z</time>
      </trkpt>
      <trkpt lat="48.6989" lon="7.28979">
        <ele>350.5</ele>
        <time>2020-05-26T17:26:24Z</time>
      </trkpt>
      <trkpt lat="48.69895" lon="7.28981">
        <ele>349.2</ele>
        <time>2020-05-26T17:26:22Z</time>
      </trkpt>
      <trkpt lat="48.699" lon="7.28984">
        <ele>347.8</ele>
        <time>2020-05-26T17:26:20Z</time>
      </trkpt>
      <trkpt lat="48.69905" lon="7.28988">
        <ele>347.7</ele>
        <time>2020-05-26T17:26:18Z</time>
      </trkpt>
      <trkpt lat="48.6991" lon="7.28991">
        <ele>348.1</ele>
        <time>2020-05-26T17:26:16Z</time>
      </trkpt>
      <trkpt lat="48.69915" lon="7.28995">
        <ele>350.4</ele>
        <time>2020-05-26T17:26:14Z</time>
      </trkpt>
      <trkpt lat="48.69923" lon="7.28998">
        <ele>350.7</ele>
        <time>2020-05-26T17:26:11Z</time>
      </trkpt>
      <trkpt lat="48.69928" lon="7.28998">
        <ele>350.7</ele>
        <time>2020-05-26T17:26:09Z</time>
      </trkpt>
      <trkpt lat="48.69933" lon="7.28998">
        <ele>349.8</ele>
        <time>2020-05-26T17:26:07Z</time>
      </trkpt>
      <trkpt lat="48.69939" lon="7.28999">
        <ele>349.5</ele>
        <time>2020-05-26T17:26:05Z</time>
      </trkpt>
      <trkpt lat="48.69943" lon="7.29002">
        <ele>349.6</ele>
        <time>2020-05-26T17:26:03Z</time>
      </trkpt>
      <trkpt lat="48.69947" lon="7.29006">
        <ele>351.7</ele>
        <time>2020-05-26T17:26:01Z</time>
      </trkpt>
      <trkpt lat="48.69952" lon="7.29008">
        <ele>352.1</ele>
        <time>2020-05-26T17:25:59Z</time>
      </trkpt>
      <trkpt lat="48.69958" lon="7.29009">
        <ele>352.2</ele>
        <time>2020-05-26T17:25:57Z</time>
      </trkpt>
      <trkpt lat="48.69965" lon="7.2901">
        <ele>351.4</ele>
        <time>2020-05-26T17:25:55Z</time>
      </trkpt>
      <trkpt lat="48.6997" lon="7.29012">
        <ele>350.7</ele>
        <time>2020-05-26T17:25:53Z</time>
      </trkpt>
      <trkpt lat="48.69975" lon="7.29016">
        <ele>351.2</ele>
        <time>2020-05-26T17:25:51Z</time>
      </trkpt>
      <trkpt lat="48.69979" lon="7.29019">
        <ele>351.8</ele>
        <time>2020-05-26T17:25:49Z</time>
      </trkpt>
      <trkpt lat="48.69985" lon="7.29022">
        <ele>350.4</ele>
        <time>2020-05-26T17:25:46Z</time>
      </trkpt>
      <trkpt lat="48.69991" lon="7.29024">
        <ele>349.3</ele>
        <time>2020-05-26T17:25:43Z</time>
      </trkpt>
      <trkpt lat="48.69995" lon="7.29026">
        <ele>347</ele>
        <time>2020-05-26T17:25:40Z</time>
      </trkpt>
      <trkpt lat="48.7" lon="7.29028">
        <ele>345.7</ele>
        <time>2020-05-26T17:25:37Z</time>
      </trkpt>
      <trkpt lat="48.70005" lon="7.29032">
        <ele>343.3</ele>
        <time>2020-05-26T17:25:33Z</time>
      </trkpt>
      <trkpt lat="48.70011" lon="7.29033">
        <ele>338.4</ele>
        <time>2020-05-26T17:25:29Z</time>
      </trkpt>
      <trkpt lat="48.70016" lon="7.29034">
        <ele>332.5</ele>
        <time>2020-05-26T17:25:26Z</time>
      </trkpt>
      <trkpt lat="48.70022" lon="7.29035">
        <ele>325.1</ele>
        <time>2020-05-26T17:25:22Z</time>
      </trkpt>
      <trkpt lat="48.70026" lon="7.29038">
        <ele>319.2</ele>
        <time>2020-05-26T17:25:19Z</time>
      </trkpt>
      <trkpt lat="48.70031" lon="7.2904">
        <ele>314.6</ele>
        <time>2020-05-26T17:25:16Z</time>
      </trkpt>
      <trkpt lat="48.70037" lon="7.29043">
        <ele>311.5</ele>
        <time>2020-05-26T17:25:13Z</time>
      </trkpt>
      <trkpt lat="48.70041" lon="7.29046">
        <ele>317.6</ele>
        <time>2020-05-26T17:25:10Z</time>
      </trkpt>
      <trkpt lat="48.70046" lon="7.29047">
        <ele>351.7</ele>
        <time>2020-05-26T17:25:07Z</time>
      </trkpt>
      <trkpt lat="48.70052" lon="7.29048">
        <ele>351.7</ele>
        <time>2020-05-26T17:25:04Z</time>
      </trkpt>
      <trkpt lat="48.70057" lon="7.29049">
        <ele>351.4</ele>
        <time>2020-05-26T17:25:01Z</time>
      </trkpt>
      <trkpt lat="48.70063" lon="7.2905">
        <ele>351.5</ele>
        <time>2020-05-26T17:24:58Z</time>
      </trkpt>
      <trkpt lat="48.70069" lon="7.29051">
        <ele>351.4</ele>
        <time>2020-05-26T17:24:55Z</time>
      </trkpt>
      <trkpt lat="48.70074" lon="7.29052">
        <ele>350.9</ele>
        <time>2020-05-26T17:24:52Z</time>
      </trkpt>
      <trkpt lat="48.7008" lon="7.29054">
        <ele>349.8</ele>
        <time>2020-05-26T17:24:49Z</time>
      </trkpt>
      <trkpt lat="48.70085" lon="7.29057">
        <ele>350.5</ele>
        <time>2020-05-26T17:24:46Z</time>
      </trkpt>
      <trkpt lat="48.70091" lon="7.2906">
        <ele>349.5</ele>
        <time>2020-05-26T17:24:43Z</time>
      </trkpt>
      <trkpt lat="48.70095" lon="7.29062">
        <ele>347.5</ele>
        <time>2020-05-26T17:24:40Z</time>
      </trkpt>
      <trkpt lat="48.701" lon="7.29064">
        <ele>345.3</ele>
        <time>2020-05-26T17:24:37Z</time>
      </trkpt>
      <trkpt lat="48.70106" lon="7.29066">
        <ele>343</ele>
        <time>2020-05-26T17:24:33Z</time>
      </trkpt>
      <trkpt lat="48.70111" lon="7.29067">
        <ele>341.8</ele>
        <time>2020-05-26T17:24:30Z</time>
      </trkpt>
      <trkpt lat="48.70116" lon="7.29069">
        <ele>341.1</ele>
        <time>2020-05-26T17:24:27Z</time>
      </trkpt>
      <trkpt lat="48.70121" lon="7.29073">
        <ele>340.9</ele>
        <time>2020-05-26T17:24:24Z</time>
      </trkpt>
      <trkpt lat="48.70126" lon="7.29076">
        <ele>340.7</ele>
        <time>2020-05-26T17:24:21Z</time>
      </trkpt>
      <trkpt lat="48.70131" lon="7.29081">
        <ele>340.8</ele>
        <time>2020-05-26T17:24:18Z</time>
      </trkpt>
      <trkpt lat="48.70136" lon="7.29084">
        <ele>340.5</ele>
        <time>2020-05-26T17:24:15Z</time>
      </trkpt>
      <trkpt lat="48.70141" lon="7.29086">
        <ele>338.9</ele>
        <time>2020-05-26T17:24:12Z</time>
      </trkpt>
      <trkpt lat="48.70147" lon="7.29086">
        <ele>336.9</ele>
        <time>2020-05-26T17:24:09Z</time>
      </trkpt>
      <trkpt lat="48.70152" lon="7.29087">
        <ele>334.9</ele>
        <time>2020-05-26T17:24:06Z</time>
      </trkpt>
      <trkpt lat="48.70158" lon="7.29087">
        <ele>333.9</ele>
        <time>2020-05-26T17:24:03Z</time>
      </trkpt>
      <trkpt lat="48.70163" lon="7.29089">
        <ele>332.3</ele>
        <time>2020-05-26T17:24:00Z</time>
      </trkpt>
      <trkpt lat="48.70168" lon="7.29091">
        <ele>331.2</ele>
        <time>2020-05-26T17:23:57Z</time>
      </trkpt>
      <trkpt lat="48.70173" lon="7.29092">
        <ele>331.8</ele>
        <time>2020-05-26T17:23:54Z</time>
      </trkpt>
      <trkpt lat="48.70178" lon="7.29095">
        <ele>334.1</ele>
        <time>2020-05-26T17:23:51Z</time>
      </trkpt>
      <trkpt lat="48.70183" lon="7.29098">
        <ele>335.2</ele>
        <time>2020-05-26T17:23:48Z</time>
      </trkpt>
      <trkpt lat="48.70189" lon="7.29099">
        <ele>335.9</ele>
        <time>2020-05-26T17:23:45Z</time>
      </trkpt>
      <trkpt lat="48.70194" lon="7.29099">
        <ele>335.4</ele>
        <time>2020-05-26T17:23:43Z</time>
      </trkpt>
      <trkpt lat="48.70199" lon="7.291">
        <ele>334.7</ele>
        <time>2020-05-26T17:23:40Z</time>
      </trkpt>
      <trkpt lat="48.70204" lon="7.291">
        <ele>333.8</ele>
        <time>2020-05-26T17:23:37Z</time>
      </trkpt>
      <trkpt lat="48.70209" lon="7.29101">
        <ele>334.9</ele>
        <time>2020-05-26T17:23:34Z</time>
      </trkpt>
      <trkpt lat="48.70214" lon="7.29101">
        <ele>336.1</ele>
        <time>2020-05-26T17:23:31Z</time>
      </trkpt>
      <trkpt lat="48.70219" lon="7.29102">
        <ele>336.5</ele>
        <time>2020-05-26T17:23:28Z</time>
      </trkpt>
      <trkpt lat="48.70223" lon="7.29104">
        <ele>335.9</ele>
        <time>2020-05-26T17:23:25Z</time>
      </trkpt>
      <trkpt lat="48.70228" lon="7.29106">
        <ele>331.3</ele>
        <time>2020-05-26T17:23:21Z</time>
      </trkpt>
      <trkpt lat="48.70234" lon="7.29107">
        <ele>330.4</ele>
        <time>2020-05-26T17:23:17Z</time>
      </trkpt>
      <trkpt lat="48.7024" lon="7.29109">
        <ele>330.4</ele>
        <time>2020-05-26T17:23:13Z</time>
      </trkpt>
      <trkpt lat="48.70245" lon="7.29111">
        <ele>330.5</ele>
        <time>2020-05-26T17:23:10Z</time>
      </trkpt>
      <trkpt lat="48.7025" lon="7.29113">
        <ele>329.5</ele>
        <time>2020-05-26T17:23:07Z</time>
      </trkpt>
      <trkpt lat="48.70255" lon="7.29117">
        <ele>328.6</ele>
        <time>2020-05-26T17:23:04Z</time>
      </trkpt>
      <trkpt lat="48.70261" lon="7.2912">
        <ele>327.2</ele>
        <time>2020-05-26T17:23:01Z</time>
      </trkpt>
      <trkpt lat="48.70266" lon="7.29122">
        <ele>325.9</ele>
        <time>2020-05-26T17:22:58Z</time>
      </trkpt>
      <trkpt lat="48.70272" lon="7.29122">
        <ele>324.5</ele>
        <time>2020-05-26T17:22:55Z</time>
      </trkpt>
      <trkpt lat="48.70277" lon="7.29123">
        <ele>325</ele>
        <time>2020-05-26T17:22:52Z</time>
      </trkpt>
      <trkpt lat="48.70283" lon="7.29123">
        <ele>325.1</ele>
        <time>2020-05-26T17:22:49Z</time>
      </trkpt>
      <trkpt lat="48.70289" lon="7.29124">
        <ele>325.8</ele>
        <time>2020-05-26T17:22:46Z</time>
      </trkpt>
      <trkpt lat="48.70295" lon="7.29124">
        <ele>326.1</ele>
        <time>2020-05-26T17:22:43Z</time>
      </trkpt>
      <trkpt lat="48.70301" lon="7.29122">
        <ele>325.5</ele>
        <time>2020-05-26T17:22:40Z</time>
      </trkpt>
      <trkpt lat="48.70307" lon="7.29118">
        <ele>322</ele>
        <time>2020-05-26T17:22:37Z</time>
      </trkpt>
      <trkpt lat="48.70311" lon="7.29114">
        <ele>322</ele>
        <time>2020-05-26T17:22:35Z</time>
      </trkpt>
      <trkpt lat="48.70316" lon="7.2911">
        <ele>322</ele>
        <time>2020-05-26T17:22:33Z</time>
      </trkpt>
      <trkpt lat="48.7032" lon="7.29105">
        <ele>320.3</ele>
        <time>2020-05-26T17:22:31Z</time>
      </trkpt>
      <trkpt lat="48.70324" lon="7.29099">
        <ele>319.8</ele>
        <time>2020-05-26T17:22:29Z</time>
      </trkpt>
      <trkpt lat="48.70327" lon="7.29094">
        <ele>318.6</ele>
        <time>2020-05-26T17:22:27Z</time>
      </trkpt>
      <trkpt lat="48.7033" lon="7.29089">
        <ele>317.7</ele>
        <time>2020-05-26T17:22:25Z</time>
      </trkpt>
      <trkpt lat="48.70334" lon="7.29083">
        <ele>316.3</ele>
        <time>2020-05-26T17:22:23Z</time>
      </trkpt>
      <trkpt lat="48.70338" lon="7.29076">
        <ele>316.8</ele>
        <time>2020-05-26T17:22:21Z</time>
      </trkpt>
      <trkpt lat="48.70342" lon="7.29069">
        <ele>318.6</ele>
        <time>2020-05-26T17:22:19Z</time>
      </trkpt>
      <trkpt lat="48.70348" lon="7.29062">
        <ele>319</ele>
        <time>2020-05-26T17:22:17Z</time>
      </trkpt>
      <trkpt lat="48.70352" lon="7.29051">
        <ele>319.6</ele>
        <time>2020-05-26T17:22:15Z</time>
      </trkpt>
      <trkpt lat="48.70355" lon="7.29038">
        <ele>325.4</ele>
        <time>2020-05-26T17:17:25Z</time>
      </trkpt>
      <trkpt lat="48.70356" lon="7.29045">
        <ele>325.6</ele>
        <time>2020-05-26T17:17:13Z</time>
      </trkpt>
      <trkpt lat="48.7036" lon="7.29048">
        <ele>308.1</ele>
        <time>2020-05-26T17:17:05Z</time>
      </trkpt>
      <trkpt lat="48.70365" lon="7.29049">
        <ele>308.1</ele>
        <time>2020-05-26T17:17:02Z</time>
      </trkpt>
      <trkpt lat="48.70371" lon="7.29046">
        <ele>307.5</ele>
        <time>2020-05-26T17:16:59Z</time>
      </trkpt>
      <trkpt lat="48.70376" lon="7.29043">
        <ele>307.5</ele>
        <time>2020-05-26T17:16:57Z</time>
      </trkpt>
      <trkpt lat="48.70381" lon="7.29041">
        <ele>307.5</ele>
        <time>2020-05-26T17:16:55Z</time>
      </trkpt>
      <trkpt lat="48.70386" lon="7.29037">
        <ele>307.5</ele>
        <time>2020-05-26T17:16:52Z</time>
      </trkpt>
      <trkpt lat="48.70391" lon="7.29034">
        <ele>307.1</ele>
        <time>2020-05-26T17:16:49Z</time>
      </trkpt>
      <trkpt lat="48.70395" lon="7.29029">
        <ele>306.4</ele>
        <time>2020-05-26T17:16:45Z</time>
      </trkpt>
      <trkpt lat="48.70399" lon="7.29022">
        <ele>305.6</ele>
        <time>2020-05-26T17:16:42Z</time>
      </trkpt>
      <trkpt lat="48.70402" lon="7.29015">
        <ele>305.6</ele>
        <time>2020-05-26T17:16:39Z</time>
      </trkpt>
      <trkpt lat="48.70404" lon="7.29007">
        <ele>305.5</ele>
        <time>2020-05-26T17:16:36Z</time>
      </trkpt>
      <trkpt lat="48.70405" lon="7.28999">
        <ele>304.3</ele>
        <time>2020-05-26T17:16:33Z</time>
      </trkpt>
      <trkpt lat="48.70407" lon="7.28991">
        <ele>303</ele>
        <time>2020-05-26T17:16:30Z</time>
      </trkpt>
      <trkpt lat="48.70409" lon="7.28982">
        <ele>301.1</ele>
        <time>2020-05-26T17:16:27Z</time>
      </trkpt>
      <trkpt lat="48.7041" lon="7.28974">
        <ele>299.9</ele>
        <time>2020-05-26T17:16:24Z</time>
      </trkpt>
      <trkpt lat="48.70411" lon="7.28967">
        <ele>299.3</ele>
        <time>2020-05-26T17:16:21Z</time>
      </trkpt>
      <trkpt lat="48.70413" lon="7.2896">
        <ele>299.2</ele>
        <time>2020-05-26T17:16:18Z</time>
      </trkpt>
      <trkpt lat="48.70414" lon="7.28953">
        <ele>298.6</ele>
        <time>2020-05-26T17:16:15Z</time>
      </trkpt>
      <trkpt lat="48.70415" lon="7.28945">
        <ele>299.2</ele>
        <time>2020-05-26T17:16:12Z</time>
      </trkpt>
      <trkpt lat="48.70416" lon="7.28936">
        <ele>299.2</ele>
        <time>2020-05-26T17:16:09Z</time>
      </trkpt>
      <trkpt lat="48.70416" lon="7.28929">
        <ele>299.2</ele>
        <time>2020-05-26T17:16:06Z</time>
      </trkpt>
      <trkpt lat="48.70416" lon="7.28919">
        <ele>298.4</ele>
        <time>2020-05-26T17:16:03Z</time>
      </trkpt>
      <trkpt lat="48.70415" lon="7.28912">
        <ele>297.9</ele>
        <time>2020-05-26T17:16:01Z</time>
      </trkpt>
      <trkpt lat="48.70413" lon="7.28905">
        <ele>296.6</ele>
        <time>2020-05-26T17:15:59Z</time>
      </trkpt>
      <trkpt lat="48.70413" lon="7.28895">
        <ele>296.9</ele>
        <time>2020-05-26T17:15:56Z</time>
      </trkpt>
      <trkpt lat="48.70413" lon="7.28887">
        <ele>297.7</ele>
        <time>2020-05-26T17:15:53Z</time>
      </trkpt>
      <trkpt lat="48.70413" lon="7.28879">
        <ele>299.2</ele>
        <time>2020-05-26T17:15:50Z</time>
      </trkpt>
      <trkpt lat="48.70415" lon="7.28871">
        <ele>299.6</ele>
        <time>2020-05-26T17:15:47Z</time>
      </trkpt>
      <trkpt lat="48.70417" lon="7.28862">
        <ele>300.7</ele>
        <time>2020-05-26T17:15:44Z</time>
      </trkpt>
      <trkpt lat="48.70417" lon="7.28852">
        <ele>301.5</ele>
        <time>2020-05-26T17:15:41Z</time>
      </trkpt>
      <trkpt lat="48.70417" lon="7.28842">
        <ele>300.5</ele>
        <time>2020-05-26T17:15:38Z</time>
      </trkpt>
      <trkpt lat="48.70417" lon="7.28833">
        <ele>299.2</ele>
        <time>2020-05-26T17:15:35Z</time>
      </trkpt>
      <trkpt lat="48.70418" lon="7.28826">
        <ele>298</ele>
        <time>2020-05-26T17:15:33Z</time>
      </trkpt>
      <trkpt lat="48.7042" lon="7.28818">
        <ele>296.5</ele>
        <time>2020-05-26T17:15:31Z</time>
      </trkpt>
      <trkpt lat="48.7042" lon="7.2881">
        <ele>295.7</ele>
        <time>2020-05-26T17:15:29Z</time>
      </trkpt>
      <trkpt lat="48.7042" lon="7.28803">
        <ele>294.1</ele>
        <time>2020-05-26T17:15:27Z</time>
      </trkpt>
      <trkpt lat="48.70421" lon="7.28796">
        <ele>292.3</ele>
        <time>2020-05-26T17:15:25Z</time>
      </trkpt>
      <trkpt lat="48.70421" lon="7.28786">
        <ele>289.7</ele>
        <time>2020-05-26T17:15:22Z</time>
      </trkpt>
      <trkpt lat="48.70421" lon="7.28777">
        <ele>287.4</ele>
        <time>2020-05-26T17:15:19Z</time>
      </trkpt>
      <trkpt lat="48.70422" lon="7.28768">
        <ele>286.8</ele>
        <time>2020-05-26T17:15:16Z</time>
      </trkpt>
      <trkpt lat="48.70421" lon="7.28759">
        <ele>286.5</ele>
        <time>2020-05-26T17:15:13Z</time>
      </trkpt>
      <trkpt lat="48.70421" lon="7.2875">
        <ele>286.1</ele>
        <time>2020-05-26T17:15:10Z</time>
      </trkpt>
      <trkpt lat="48.7042" lon="7.28742">
        <ele>286.1</ele>
        <time>2020-05-26T17:15:08Z</time>
      </trkpt>
      <trkpt lat="48.7042" lon="7.28735">
        <ele>286</ele>
        <time>2020-05-26T17:15:06Z</time>
      </trkpt>
      <trkpt lat="48.7042" lon="7.28725">
        <ele>284.3</ele>
        <time>2020-05-26T17:15:03Z</time>
      </trkpt>
      <trkpt lat="48.7042" lon="7.28716">
        <ele>283.6</ele>
        <time>2020-05-26T17:15:00Z</time>
      </trkpt>
      <trkpt lat="48.70419" lon="7.28708">
        <ele>282.2</ele>
        <time>2020-05-26T17:14:58Z</time>
      </trkpt>
      <trkpt lat="48.70418" lon="7.28701">
        <ele>281.3</ele>
        <time>2020-05-26T17:14:56Z</time>
      </trkpt>
      <trkpt lat="48.70417" lon="7.28693">
        <ele>280.3</ele>
        <time>2020-05-26T17:14:53Z</time>
      </trkpt>
      <trkpt lat="48.70416" lon="7.28685">
        <ele>280.1</ele>
        <time>2020-05-26T17:14:50Z</time>
      </trkpt>
      <trkpt lat="48.70415" lon="7.28677">
        <ele>281.6</ele>
        <time>2020-05-26T17:14:47Z</time>
      </trkpt>
      <trkpt lat="48.70416" lon="7.28668">
        <ele>282.7</ele>
        <time>2020-05-26T17:14:44Z</time>
      </trkpt>
      <trkpt lat="48.70416" lon="7.2866">
        <ele>283.2</ele>
        <time>2020-05-26T17:14:41Z</time>
      </trkpt>
      <trkpt lat="48.70416" lon="7.28652">
        <ele>283.4</ele>
        <time>2020-05-26T17:14:38Z</time>
      </trkpt>
      <trkpt lat="48.70416" lon="7.28643">
        <ele>282.8</ele>
        <time>2020-05-26T17:14:35Z</time>
      </trkpt>
      <trkpt lat="48.70416" lon="7.28636">
        <ele>282.7</ele>
        <time>2020-05-26T17:14:33Z</time>
      </trkpt>
      <trkpt lat="48.70415" lon="7.28629">
        <ele>282.8</ele>
        <time>2020-05-26T17:14:31Z</time>
      </trkpt>
      <trkpt lat="48.70415" lon="7.28622">
        <ele>282.5</ele>
        <time>2020-05-26T17:14:29Z</time>
      </trkpt>
      <trkpt lat="48.70414" lon="7.28614">
        <ele>282.7</ele>
        <time>2020-05-26T17:14:27Z</time>
      </trkpt>
      <trkpt lat="48.70414" lon="7.28607">
        <ele>283.3</ele>
        <time>2020-05-26T17:14:25Z</time>
      </trkpt>
      <trkpt lat="48.70413" lon="7.28597">
        <ele>282.1</ele>
        <time>2020-05-26T17:14:22Z</time>
      </trkpt>
      <trkpt lat="48.70412" lon="7.28588">
        <ele>281.4</ele>
        <time>2020-05-26T17:14:19Z</time>
      </trkpt>
      <trkpt lat="48.7041" lon="7.28581">
        <ele>281</ele>
        <time>2020-05-26T17:14:17Z</time>
      </trkpt>
      <trkpt lat="48.70409" lon="7.28571">
        <ele>281.4</ele>
        <time>2020-05-26T17:14:14Z</time>
      </trkpt>
      <trkpt lat="48.70407" lon="7.28562">
        <ele>282.3</ele>
        <time>2020-05-26T17:14:11Z</time>
      </trkpt>
      <trkpt lat="48.70406" lon="7.28555">
        <ele>282.6</ele>
        <time>2020-05-26T17:14:09Z</time>
      </trkpt>
      <trkpt lat="48.70405" lon="7.28548">
        <ele>282.8</ele>
        <time>2020-05-26T17:14:07Z</time>
      </trkpt>
      <trkpt lat="48.70404" lon="7.28542">
        <ele>283</ele>
        <time>2020-05-26T17:14:05Z</time>
      </trkpt>
      <trkpt lat="48.70402" lon="7.28535">
        <ele>282.8</ele>
        <time>2020-05-26T17:14:03Z</time>
      </trkpt>
      <trkpt lat="48.70401" lon="7.28527">
        <ele>282.2</ele>
        <time>2020-05-26T17:14:01Z</time>
      </trkpt>
      <trkpt lat="48.70399" lon="7.28518">
        <ele>282.9</ele>
        <time>2020-05-26T17:13:58Z</time>
      </trkpt>
      <trkpt lat="48.70397" lon="7.28511">
        <ele>282.8</ele>
        <time>2020-05-26T17:13:56Z</time>
      </trkpt>
      <trkpt lat="48.70396" lon="7.28502">
        <ele>283</ele>
        <time>2020-05-26T17:13:54Z</time>
      </trkpt>
      <trkpt lat="48.70394" lon="7.28495">
        <ele>283.2</ele>
        <time>2020-05-26T17:13:52Z</time>
      </trkpt>
      <trkpt lat="48.70392" lon="7.28488">
        <ele>283.3</ele>
        <time>2020-05-26T17:13:50Z</time>
      </trkpt>
      <trkpt lat="48.7039" lon="7.28479">
        <ele>283.2</ele>
        <time>2020-05-26T17:13:47Z</time>
      </trkpt>
      <trkpt lat="48.7039" lon="7.28471">
        <ele>282.4</ele>
        <time>2020-05-26T17:13:44Z</time>
      </trkpt>
      <trkpt lat="48.70392" lon="7.28461">
        <ele>283.2</ele>
        <time>2020-05-26T17:13:41Z</time>
      </trkpt>
      <trkpt lat="48.70392" lon="7.28454">
        <ele>283.6</ele>
        <time>2020-05-26T17:13:39Z</time>
      </trkpt>
      <trkpt lat="48.70392" lon="7.28445">
        <ele>282.6</ele>
        <time>2020-05-26T17:13:36Z</time>
      </trkpt>
      <trkpt lat="48.70391" lon="7.28435">
        <ele>281.5</ele>
        <time>2020-05-26T17:13:33Z</time>
      </trkpt>
      <trkpt lat="48.70391" lon="7.28426">
        <ele>280.5</ele>
        <time>2020-05-26T17:13:30Z</time>
      </trkpt>
      <trkpt lat="48.7039" lon="7.28418">
        <ele>278.9</ele>
        <time>2020-05-26T17:13:27Z</time>
      </trkpt>
      <trkpt lat="48.70389" lon="7.28409">
        <ele>276.6</ele>
        <time>2020-05-26T17:13:24Z</time>
      </trkpt>
      <trkpt lat="48.70389" lon="7.28401">
        <ele>274.7</ele>
        <time>2020-05-26T17:13:20Z</time>
      </trkpt>
      <trkpt lat="48.70392" lon="7.28408">
        <ele>273.4</ele>
        <time>2020-05-26T17:13:13Z</time>
      </trkpt>
      <trkpt lat="48.70395" lon="7.28402">
        <ele>274.1</ele>
        <time>2020-05-26T17:13:01Z</time>
      </trkpt>
      <trkpt lat="48.70395" lon="7.28395">
        <ele>275.7</ele>
        <time>2020-05-26T17:12:56Z</time>
      </trkpt>
      <trkpt lat="48.70396" lon="7.28387">
        <ele>276.4</ele>
        <time>2020-05-26T17:12:54Z</time>
      </trkpt>
      <trkpt lat="48.70395" lon="7.28379">
        <ele>276.9</ele>
        <time>2020-05-26T17:12:52Z</time>
      </trkpt>
      <trkpt lat="48.70394" lon="7.2837">
        <ele>277.5</ele>
        <time>2020-05-26T17:12:50Z</time>
      </trkpt>
      <trkpt lat="48.70393" lon="7.28358">
        <ele>278.4</ele>
        <time>2020-05-26T17:12:48Z</time>
      </trkpt>
      <trkpt lat="48.7039" lon="7.28346">
        <ele>278.4</ele>
        <time>2020-05-26T17:12:46Z</time>
      </trkpt>
      <trkpt lat="48.70388" lon="7.28335">
        <ele>278.4</ele>
        <time>2020-05-26T17:12:44Z</time>
      </trkpt>
      <trkpt lat="48.70384" lon="7.28322">
        <ele>277</ele>
        <time>2020-05-26T17:12:42Z</time>
      </trkpt>
      <trkpt lat="48.70381" lon="7.2831">
        <ele>275.9</ele>
        <time>2020-05-26T17:12:40Z</time>
      </trkpt>
      <trkpt lat="48.70379" lon="7.28297">
        <ele>274.9</ele>
        <time>2020-05-26T17:12:38Z</time>
      </trkpt>
      <trkpt lat="48.70377" lon="7.28287">
        <ele>275.4</ele>
        <time>2020-05-26T17:12:35Z</time>
      </trkpt>
      <trkpt lat="48.70376" lon="7.2828">
        <ele>278.9</ele>
        <time>2020-05-26T17:11:44Z</time>
      </trkpt>
      <trkpt lat="48.70377" lon="7.28273">
        <ele>279.2</ele>
        <time>2020-05-26T17:11:42Z</time>
      </trkpt>
      <trkpt lat="48.70376" lon="7.28265">
        <ele>279.6</ele>
        <time>2020-05-26T17:11:40Z</time>
      </trkpt>
      <trkpt lat="48.70373" lon="7.28248">
        <ele>279.8</ele>
        <time>2020-05-26T17:11:38Z</time>
      </trkpt>
      <trkpt lat="48.70368" lon="7.28231">
        <ele>280.5</ele>
        <time>2020-05-26T17:11:36Z</time>
      </trkpt>
      <trkpt lat="48.70363" lon="7.28204">
        <ele>281.6</ele>
        <time>2020-05-26T17:11:33Z</time>
      </trkpt>
      <trkpt lat="48.70356" lon="7.28183">
        <ele>282.2</ele>
        <time>2020-05-26T17:11:30Z</time>
      </trkpt>
      <trkpt lat="48.70353" lon="7.28173">
        <ele>282.3</ele>
        <time>2020-05-26T17:11:28Z</time>
      </trkpt>
      <trkpt lat="48.7035" lon="7.28162">
        <ele>282</ele>
        <time>2020-05-26T17:11:26Z</time>
      </trkpt>
      <trkpt lat="48.70348" lon="7.28152">
        <ele>282.4</ele>
        <time>2020-05-26T17:11:24Z</time>
      </trkpt>
      <trkpt lat="48.70346" lon="7.28141">
        <ele>282.6</ele>
        <time>2020-05-26T17:11:22Z</time>
      </trkpt>
      <trkpt lat="48.70344" lon="7.28129">
        <ele>283.3</ele>
        <time>2020-05-26T17:11:20Z</time>
      </trkpt>
      <trkpt lat="48.70339" lon="7.28113">
        <ele>283.7</ele>
        <time>2020-05-26T17:11:18Z</time>
      </trkpt>
      <trkpt lat="48.70334" lon="7.28099">
        <ele>283.3</ele>
        <time>2020-05-26T17:11:16Z</time>
      </trkpt>
      <trkpt lat="48.70332" lon="7.2809">
        <ele>283.2</ele>
        <time>2020-05-26T17:11:14Z</time>
      </trkpt>
      <trkpt lat="48.70329" lon="7.28083">
        <ele>284.3</ele>
        <time>2020-05-26T17:11:11Z</time>
      </trkpt>
      <trkpt lat="48.70327" lon="7.28076">
        <ele>283.7</ele>
        <time>2020-05-26T17:11:09Z</time>
      </trkpt>
      <trkpt lat="48.70324" lon="7.28066">
        <ele>284</ele>
        <time>2020-05-26T17:11:07Z</time>
      </trkpt>
      <trkpt lat="48.7032" lon="7.28052">
        <ele>283.2</ele>
        <time>2020-05-26T17:11:05Z</time>
      </trkpt>
      <trkpt lat="48.70315" lon="7.2804">
        <ele>284.3</ele>
        <time>2020-05-26T17:11:03Z</time>
      </trkpt>
      <trkpt lat="48.70311" lon="7.2803">
        <ele>285.3</ele>
        <time>2020-05-26T17:11:01Z</time>
      </trkpt>
      <trkpt lat="48.70308" lon="7.2802">
        <ele>286</ele>
        <time>2020-05-26T17:10:59Z</time>
      </trkpt>
      <trkpt lat="48.70306" lon="7.28009">
        <ele>287.2</ele>
        <time>2020-05-26T17:10:57Z</time>
      </trkpt>
      <trkpt lat="48.70302" lon="7.27998">
        <ele>287.9</ele>
        <time>2020-05-26T17:10:55Z</time>
      </trkpt>
      <trkpt lat="48.70295" lon="7.27984">
        <ele>289.3</ele>
        <time>2020-05-26T17:10:53Z</time>
      </trkpt>
      <trkpt lat="48.70287" lon="7.27966">
        <ele>292</ele>
        <time>2020-05-26T17:10:50Z</time>
      </trkpt>
      <trkpt lat="48.70283" lon="7.27956">
        <ele>293.9</ele>
        <time>2020-05-26T17:10:48Z</time>
      </trkpt>
      <trkpt lat="48.70278" lon="7.2794">
        <ele>294.1</ele>
        <time>2020-05-26T17:10:46Z</time>
      </trkpt>
      <trkpt lat="48.70272" lon="7.27925">
        <ele>295.3</ele>
        <time>2020-05-26T17:10:44Z</time>
      </trkpt>
      <trkpt lat="48.70267" lon="7.27908">
        <ele>297.6</ele>
        <time>2020-05-26T17:10:42Z</time>
      </trkpt>
      <trkpt lat="48.70261" lon="7.27893">
        <ele>300</ele>
        <time>2020-05-26T17:10:40Z</time>
      </trkpt>
      <trkpt lat="48.70252" lon="7.27876">
        <ele>301.2</ele>
        <time>2020-05-26T17:10:38Z</time>
      </trkpt>
      <trkpt lat="48.70245" lon="7.2786">
        <ele>303.1</ele>
        <time>2020-05-26T17:10:36Z</time>
      </trkpt>
      <trkpt lat="48.70237" lon="7.27841">
        <ele>304.2</ele>
        <time>2020-05-26T17:10:34Z</time>
      </trkpt>
      <trkpt lat="48.70227" lon="7.27823">
        <ele>305.2</ele>
        <time>2020-05-26T17:10:32Z</time>
      </trkpt>
      <trkpt lat="48.70219" lon="7.27809">
        <ele>305.3</ele>
        <time>2020-05-26T17:10:30Z</time>
      </trkpt>
      <trkpt lat="48.70207" lon="7.2779">
        <ele>306.8</ele>
        <time>2020-05-26T17:10:28Z</time>
      </trkpt>
      <trkpt lat="48.702" lon="7.27771">
        <ele>307.1</ele>
        <time>2020-05-26T17:10:26Z</time>
      </trkpt>
      <trkpt lat="48.70193" lon="7.27754">
        <ele>307.1</ele>
        <time>2020-05-26T17:10:24Z</time>
      </trkpt>
      <trkpt lat="48.70189" lon="7.27738">
        <ele>307.5</ele>
        <time>2020-05-26T17:10:22Z</time>
      </trkpt>
      <trkpt lat="48.70184" lon="7.27723">
        <ele>307.5</ele>
        <time>2020-05-26T17:10:20Z</time>
      </trkpt>
      <trkpt lat="48.70179" lon="7.27712">
        <ele>307</ele>
        <time>2020-05-26T17:10:18Z</time>
      </trkpt>
      <trkpt lat="48.70171" lon="7.27701">
        <ele>306.9</ele>
        <time>2020-05-26T17:10:16Z</time>
      </trkpt>
      <trkpt lat="48.70163" lon="7.27686">
        <ele>306.9</ele>
        <time>2020-05-26T17:10:14Z</time>
      </trkpt>
      <trkpt lat="48.70155" lon="7.27671">
        <ele>307.6</ele>
        <time>2020-05-26T17:10:12Z</time>
      </trkpt>
      <trkpt lat="48.7015" lon="7.27655">
        <ele>308.6</ele>
        <time>2020-05-26T17:10:10Z</time>
      </trkpt>
      <trkpt lat="48.70145" lon="7.27636">
        <ele>309.7</ele>
        <time>2020-05-26T17:10:08Z</time>
      </trkpt>
      <trkpt lat="48.70139" lon="7.27623">
        <ele>310.7</ele>
        <time>2020-05-26T17:10:06Z</time>
      </trkpt>
      <trkpt lat="48.70136" lon="7.27616">
        <ele>311.5</ele>
        <time>2020-05-26T17:10:04Z</time>
      </trkpt>
      <trkpt lat="48.70132" lon="7.2761">
        <ele>313</ele>
        <time>2020-05-26T17:09:57Z</time>
      </trkpt>
      <trkpt lat="48.70128" lon="7.27605">
        <ele>314.7</ele>
        <time>2020-05-26T17:09:52Z</time>
      </trkpt>
      <trkpt lat="48.70122" lon="7.27597">
        <ele>316</ele>
        <time>2020-05-26T17:09:49Z</time>
      </trkpt>
      <trkpt lat="48.70117" lon="7.27586">
        <ele>316.7</ele>
        <time>2020-05-26T17:09:47Z</time>
      </trkpt>
      <trkpt lat="48.70112" lon="7.27575">
        <ele>319.1</ele>
        <time>2020-05-26T17:09:45Z</time>
      </trkpt>
      <trkpt lat="48.70107" lon="7.27565">
        <ele>320.2</ele>
        <time>2020-05-26T17:09:43Z</time>
      </trkpt>
      <trkpt lat="48.70099" lon="7.27552">
        <ele>319.8</ele>
        <time>2020-05-26T17:09:41Z</time>
      </trkpt>
      <trkpt lat="48.7009" lon="7.27535">
        <ele>319.8</ele>
        <time>2020-05-26T17:09:39Z</time>
      </trkpt>
      <trkpt lat="48.70082" lon="7.27519">
        <ele>320.3</ele>
        <time>2020-05-26T17:09:37Z</time>
      </trkpt>
      <trkpt lat="48.70076" lon="7.27504">
        <ele>321.1</ele>
        <time>2020-05-26T17:09:35Z</time>
      </trkpt>
      <trkpt lat="48.7007" lon="7.27489">
        <ele>322</ele>
        <time>2020-05-26T17:09:33Z</time>
      </trkpt>
      <trkpt lat="48.70065" lon="7.27473">
        <ele>323.7</ele>
        <time>2020-05-26T17:09:31Z</time>
      </trkpt>
      <trkpt lat="48.7006" lon="7.27455">
        <ele>324.7</ele>
        <time>2020-05-26T17:09:29Z</time>
      </trkpt>
      <trkpt lat="48.70052" lon="7.27429">
        <ele>326.5</ele>
        <time>2020-05-26T17:09:26Z</time>
      </trkpt>
      <trkpt lat="48.70042" lon="7.27406">
        <ele>328.1</ele>
        <time>2020-05-26T17:09:23Z</time>
      </trkpt>
      <trkpt lat="48.70037" lon="7.27387">
        <ele>329.7</ele>
        <time>2020-05-26T17:09:21Z</time>
      </trkpt>
      <trkpt lat="48.70032" lon="7.27368">
        <ele>330.8</ele>
        <time>2020-05-26T17:09:19Z</time>
      </trkpt>
      <trkpt lat="48.70029" lon="7.27354">
        <ele>331.4</ele>
        <time>2020-05-26T17:09:17Z</time>
      </trkpt>
      <trkpt lat="48.70024" lon="7.27342">
        <ele>331.4</ele>
        <time>2020-05-26T17:09:15Z</time>
      </trkpt>
      <trkpt lat="48.7002" lon="7.27331">
        <ele>332.4</ele>
        <time>2020-05-26T17:09:13Z</time>
      </trkpt>
      <trkpt lat="48.70017" lon="7.2732">
        <ele>333.9</ele>
        <time>2020-05-26T17:09:11Z</time>
      </trkpt>
      <trkpt lat="48.70016" lon="7.27305">
        <ele>335.6</ele>
        <time>2020-05-26T17:09:09Z</time>
      </trkpt>
      <trkpt lat="48.70013" lon="7.27286">
        <ele>337</ele>
        <time>2020-05-26T17:09:07Z</time>
      </trkpt>
      <trkpt lat="48.70011" lon="7.27269">
        <ele>338.1</ele>
        <time>2020-05-26T17:09:05Z</time>
      </trkpt>
      <trkpt lat="48.70009" lon="7.27249">
        <ele>339.7</ele>
        <time>2020-05-26T17:09:03Z</time>
      </trkpt>
      <trkpt lat="48.70006" lon="7.27227">
        <ele>341</ele>
        <time>2020-05-26T17:09:01Z</time>
      </trkpt>
      <trkpt lat="48.70001" lon="7.27208">
        <ele>342</ele>
        <time>2020-05-26T17:08:59Z</time>
      </trkpt>
      <trkpt lat="48.7" lon="7.27196">
        <ele>344</ele>
        <time>2020-05-26T17:08:57Z</time>
      </trkpt>
      <trkpt lat="48.69999" lon="7.27185">
        <ele>344.7</ele>
        <time>2020-05-26T17:08:55Z</time>
      </trkpt>
      <trkpt lat="48.69999" lon="7.27172">
        <ele>346.8</ele>
        <time>2020-05-26T17:08:53Z</time>
      </trkpt>
      <trkpt lat="48.7" lon="7.27161">
        <ele>348.2</ele>
        <time>2020-05-26T17:08:51Z</time>
      </trkpt>
      <trkpt lat="48.7" lon="7.27149">
        <ele>348.3</ele>
        <time>2020-05-26T17:08:49Z</time>
      </trkpt>
      <trkpt lat="48.69999" lon="7.27137">
        <ele>349</ele>
        <time>2020-05-26T17:08:47Z</time>
      </trkpt>
      <trkpt lat="48.69997" lon="7.27126">
        <ele>349.8</ele>
        <time>2020-05-26T17:08:45Z</time>
      </trkpt>
      <trkpt lat="48.69997" lon="7.27115">
        <ele>350.1</ele>
        <time>2020-05-26T17:08:43Z</time>
      </trkpt>
      <trkpt lat="48.69998" lon="7.27103">
        <ele>350.4</ele>
        <time>2020-05-26T17:08:41Z</time>
      </trkpt>
      <trkpt lat="48.69998" lon="7.27087">
        <ele>351.1</ele>
        <time>2020-05-26T17:08:39Z</time>
      </trkpt>
      <trkpt lat="48.69998" lon="7.27072">
        <ele>351.2</ele>
        <time>2020-05-26T17:08:37Z</time>
      </trkpt>
      <trkpt lat="48.7" lon="7.27064">
        <ele>350.8</ele>
        <time>2020-05-26T17:08:35Z</time>
      </trkpt>
      <trkpt lat="48.70001" lon="7.27052">
        <ele>350.5</ele>
        <time>2020-05-26T17:08:33Z</time>
      </trkpt>
      <trkpt lat="48.70001" lon="7.27042">
        <ele>350.3</ele>
        <time>2020-05-26T17:08:31Z</time>
      </trkpt>
      <trkpt lat="48.7" lon="7.27033">
        <ele>349.4</ele>
        <time>2020-05-26T17:08:29Z</time>
      </trkpt>
      <trkpt lat="48.69998" lon="7.27022">
        <ele>348.6</ele>
        <time>2020-05-26T17:08:27Z</time>
      </trkpt>
      <trkpt lat="48.69996" lon="7.27008">
        <ele>347.7</ele>
        <time>2020-05-26T17:08:25Z</time>
      </trkpt>
      <trkpt lat="48.69992" lon="7.26993">
        <ele>346.3</ele>
        <time>2020-05-26T17:08:23Z</time>
      </trkpt>
      <trkpt lat="48.69988" lon="7.26982">
        <ele>344.5</ele>
        <time>2020-05-26T17:08:21Z</time>
      </trkpt>
      <trkpt lat="48.69983" lon="7.26971">
        <ele>342.4</ele>
        <time>2020-05-26T17:08:19Z</time>
      </trkpt>
      <trkpt lat="48.69979" lon="7.26956">
        <ele>340.3</ele>
        <time>2020-05-26T17:08:17Z</time>
      </trkpt>
      <trkpt lat="48.69976" lon="7.26942">
        <ele>338.4</ele>
        <time>2020-05-26T17:08:15Z</time>
      </trkpt>
      <trkpt lat="48.69973" lon="7.26933">
        <ele>338.6</ele>
        <time>2020-05-26T17:08:13Z</time>
      </trkpt>
      <trkpt lat="48.69968" lon="7.26926">
        <ele>337.9</ele>
        <time>2020-05-26T17:08:10Z</time>
      </trkpt>
      <trkpt lat="48.69963" lon="7.26925">
        <ele>337.9</ele>
        <time>2020-05-26T17:08:08Z</time>
      </trkpt>
      <trkpt lat="48.69955" lon="7.26929">
        <ele>338</ele>
        <time>2020-05-26T17:08:06Z</time>
      </trkpt>
      <trkpt lat="48.69946" lon="7.26938">
        <ele>338.6</ele>
        <time>2020-05-26T17:08:04Z</time>
      </trkpt>
      <trkpt lat="48.69936" lon="7.26948">
        <ele>339.4</ele>
        <time>2020-05-26T17:08:02Z</time>
      </trkpt>
      <trkpt lat="48.69928" lon="7.26953">
        <ele>340.3</ele>
        <time>2020-05-26T17:08:00Z</time>
      </trkpt>
      <trkpt lat="48.69921" lon="7.2696">
        <ele>342</ele>
        <time>2020-05-26T17:07:58Z</time>
      </trkpt>
      <trkpt lat="48.69914" lon="7.26968">
        <ele>343</ele>
        <time>2020-05-26T17:07:56Z</time>
      </trkpt>
      <trkpt lat="48.69907" lon="7.26977">
        <ele>343.8</ele>
        <time>2020-05-26T17:07:54Z</time>
      </trkpt>
      <trkpt lat="48.69899" lon="7.26987">
        <ele>344.9</ele>
        <time>2020-05-26T17:07:52Z</time>
      </trkpt>
      <trkpt lat="48.69888" lon="7.26998">
        <ele>346.7</ele>
        <time>2020-05-26T17:07:50Z</time>
      </trkpt>
      <trkpt lat="48.69877" lon="7.27007">
        <ele>348.6</ele>
        <time>2020-05-26T17:07:48Z</time>
      </trkpt>
      <trkpt lat="48.69868" lon="7.27016">
        <ele>350.8</ele>
        <time>2020-05-26T17:07:46Z</time>
      </trkpt>
      <trkpt lat="48.6986" lon="7.27026">
        <ele>352.9</ele>
        <time>2020-05-26T17:07:44Z</time>
      </trkpt>
      <trkpt lat="48.69853" lon="7.27036">
        <ele>355.2</ele>
        <time>2020-05-26T17:07:42Z</time>
      </trkpt>
      <trkpt lat="48.69844" lon="7.27054">
        <ele>359</ele>
        <time>2020-05-26T17:07:39Z</time>
      </trkpt>
      <trkpt lat="48.69833" lon="7.27071">
        <ele>364.6</ele>
        <time>2020-05-26T17:07:36Z</time>
      </trkpt>
      <trkpt lat="48.69827" lon="7.27081">
        <ele>364.5</ele>
        <time>2020-05-26T17:07:34Z</time>
      </trkpt>
      <trkpt lat="48.69822" lon="7.27092">
        <ele>355</ele>
        <time>2020-05-26T17:07:32Z</time>
      </trkpt>
      <trkpt lat="48.69819" lon="7.27107">
        <ele>355.2</ele>
        <time>2020-05-26T17:07:30Z</time>
      </trkpt>
      <trkpt lat="48.69816" lon="7.27122">
        <ele>355.1</ele>
        <time>2020-05-26T17:07:28Z</time>
      </trkpt>
      <trkpt lat="48.69811" lon="7.27137">
        <ele>355.7</ele>
        <time>2020-05-26T17:07:26Z</time>
      </trkpt>
      <trkpt lat="48.69805" lon="7.27156">
        <ele>356.8</ele>
        <time>2020-05-26T17:07:24Z</time>
      </trkpt>
      <trkpt lat="48.69798" lon="7.27167">
        <ele>357.8</ele>
        <time>2020-05-26T17:07:22Z</time>
      </trkpt>
      <trkpt lat="48.6979" lon="7.27179">
        <ele>359.1</ele>
        <time>2020-05-26T17:07:20Z</time>
      </trkpt>
      <trkpt lat="48.69784" lon="7.27193">
        <ele>360.5</ele>
        <time>2020-05-26T17:07:18Z</time>
      </trkpt>
      <trkpt lat="48.69778" lon="7.27209">
        <ele>362.7</ele>
        <time>2020-05-26T17:07:16Z</time>
      </trkpt>
      <trkpt lat="48.69771" lon="7.27224">
        <ele>363.9</ele>
        <time>2020-05-26T17:07:14Z</time>
      </trkpt>
      <trkpt lat="48.69765" lon="7.2723">
        <ele>364.8</ele>
        <time>2020-05-26T17:07:12Z</time>
      </trkpt>
      <trkpt lat="48.6976" lon="7.27232">
        <ele>365.2</ele>
        <time>2020-05-26T17:07:10Z</time>
      </trkpt>
      <trkpt lat="48.69755" lon="7.27233">
        <ele>365.1</ele>
        <time>2020-05-26T17:07:08Z</time>
      </trkpt>
      <trkpt lat="48.6975" lon="7.27231">
        <ele>365.2</ele>
        <time>2020-05-26T17:07:06Z</time>
      </trkpt>
      <trkpt lat="48.69745" lon="7.27227">
        <ele>366.7</ele>
        <time>2020-05-26T17:07:04Z</time>
      </trkpt>
      <trkpt lat="48.69739" lon="7.2722">
        <ele>368.1</ele>
        <time>2020-05-26T17:07:02Z</time>
      </trkpt>
      <trkpt lat="48.69727" lon="7.27208">
        <ele>371.7</ele>
        <time>2020-05-26T17:06:59Z</time>
      </trkpt>
      <trkpt lat="48.69718" lon="7.27196">
        <ele>372.9</ele>
        <time>2020-05-26T17:06:57Z</time>
      </trkpt>
      <trkpt lat="48.69707" lon="7.27182">
        <ele>374</ele>
        <time>2020-05-26T17:06:55Z</time>
      </trkpt>
      <trkpt lat="48.69695" lon="7.27169">
        <ele>374.7</ele>
        <time>2020-05-26T17:06:53Z</time>
      </trkpt>
      <trkpt lat="48.69686" lon="7.27156">
        <ele>375.7</ele>
        <time>2020-05-26T17:06:51Z</time>
      </trkpt>
      <trkpt lat="48.69675" lon="7.27146">
        <ele>376.8</ele>
        <time>2020-05-26T17:06:49Z</time>
      </trkpt>
      <trkpt lat="48.69661" lon="7.27136">
        <ele>378.5</ele>
        <time>2020-05-26T17:06:47Z</time>
      </trkpt>
      <trkpt lat="48.69648" lon="7.27128">
        <ele>380.7</ele>
        <time>2020-05-26T17:06:45Z</time>
      </trkpt>
      <trkpt lat="48.69635" lon="7.2712">
        <ele>381.5</ele>
        <time>2020-05-26T17:06:43Z</time>
      </trkpt>
      <trkpt lat="48.69629" lon="7.27113">
        <ele>383.4</ele>
        <time>2020-05-26T17:06:41Z</time>
      </trkpt>
      <trkpt lat="48.69623" lon="7.27109">
        <ele>384.7</ele>
        <time>2020-05-26T17:06:39Z</time>
      </trkpt>
      <trkpt lat="48.69618" lon="7.27105">
        <ele>386.3</ele>
        <time>2020-05-26T17:06:37Z</time>
      </trkpt>
      <trkpt lat="48.69613" lon="7.27099">
        <ele>388.1</ele>
        <time>2020-05-26T17:06:33Z</time>
      </trkpt>
      <trkpt lat="48.69611" lon="7.27093">
        <ele>390.6</ele>
        <time>2020-05-26T17:05:58Z</time>
      </trkpt>
      <trkpt lat="48.69609" lon="7.27086">
        <ele>380.4</ele>
        <time>2020-05-26T17:05:25Z</time>
      </trkpt>
      <trkpt lat="48.69605" lon="7.27083">
        <ele>380.6</ele>
        <time>2020-05-26T17:05:22Z</time>
      </trkpt>
      <trkpt lat="48.69598" lon="7.27076">
        <ele>381.7</ele>
        <time>2020-05-26T17:05:20Z</time>
      </trkpt>
      <trkpt lat="48.69588" lon="7.27063">
        <ele>381</ele>
        <time>2020-05-26T17:05:17Z</time>
      </trkpt>
      <trkpt lat="48.69584" lon="7.27058">
        <ele>380.7</ele>
        <time>2020-05-26T17:05:15Z</time>
      </trkpt>
      <trkpt lat="48.69578" lon="7.27051">
        <ele>380.7</ele>
        <time>2020-05-26T17:05:13Z</time>
      </trkpt>
      <trkpt lat="48.69563" lon="7.27043">
        <ele>380.9</ele>
        <time>2020-05-26T17:05:10Z</time>
      </trkpt>
      <trkpt lat="48.69556" lon="7.27032">
        <ele>380.3</ele>
        <time>2020-05-26T17:05:07Z</time>
      </trkpt>
      <trkpt lat="48.69554" lon="7.27025">
        <ele>380.2</ele>
        <time>2020-05-26T17:05:05Z</time>
      </trkpt>
      <trkpt lat="48.69551" lon="7.27018">
        <ele>380.4</ele>
        <time>2020-05-26T17:05:02Z</time>
      </trkpt>
      <trkpt lat="48.69551" lon="7.27011">
        <ele>378.3</ele>
        <time>2020-05-26T17:04:47Z</time>
      </trkpt>
      <trkpt lat="48.69548" lon="7.27005">
        <ele>378.9</ele>
        <time>2020-05-26T17:04:44Z</time>
      </trkpt>
      <trkpt lat="48.69537" lon="7.26987">
        <ele>379.5</ele>
        <time>2020-05-26T17:04:41Z</time>
      </trkpt>
      <trkpt lat="48.6953" lon="7.26971">
        <ele>379.9</ele>
        <time>2020-05-26T17:04:39Z</time>
      </trkpt>
      <trkpt lat="48.69524" lon="7.26955">
        <ele>380.5</ele>
        <time>2020-05-26T17:04:37Z</time>
      </trkpt>
      <trkpt lat="48.6952" lon="7.26937">
        <ele>380.7</ele>
        <time>2020-05-26T17:04:35Z</time>
      </trkpt>
      <trkpt lat="48.69514" lon="7.26914">
        <ele>380.1</ele>
        <time>2020-05-26T17:04:32Z</time>
      </trkpt>
      <trkpt lat="48.69513" lon="7.26898">
        <ele>380.5</ele>
        <time>2020-05-26T17:04:30Z</time>
      </trkpt>
      <trkpt lat="48.69515" lon="7.26883">
        <ele>381.2</ele>
        <time>2020-05-26T17:04:28Z</time>
      </trkpt>
      <trkpt lat="48.69515" lon="7.26868">
        <ele>380.8</ele>
        <time>2020-05-26T17:04:26Z</time>
      </trkpt>
      <trkpt lat="48.6952" lon="7.26854">
        <ele>381.4</ele>
        <time>2020-05-26T17:04:24Z</time>
      </trkpt>
      <trkpt lat="48.69523" lon="7.26841">
        <ele>382.7</ele>
        <time>2020-05-26T17:04:22Z</time>
      </trkpt>
      <trkpt lat="48.69531" lon="7.26821">
        <ele>385.2</ele>
        <time>2020-05-26T17:04:19Z</time>
      </trkpt>
      <trkpt lat="48.69537" lon="7.26809">
        <ele>386.7</ele>
        <time>2020-05-26T17:04:17Z</time>
      </trkpt>
      <trkpt lat="48.6954" lon="7.26796">
        <ele>387.5</ele>
        <time>2020-05-26T17:04:15Z</time>
      </trkpt>
      <trkpt lat="48.69543" lon="7.26788">
        <ele>386.9</ele>
        <time>2020-05-26T17:04:13Z</time>
      </trkpt>
      <trkpt lat="48.69545" lon="7.2678">
        <ele>388.1</ele>
        <time>2020-05-26T17:04:11Z</time>
      </trkpt>
      <trkpt lat="48.69548" lon="7.26774">
        <ele>388</ele>
        <time>2020-05-26T17:04:09Z</time>
      </trkpt>
      <trkpt lat="48.6955" lon="7.26766">
        <ele>388.2</ele>
        <time>2020-05-26T17:04:07Z</time>
      </trkpt>
      <trkpt lat="48.69552" lon="7.26759">
        <ele>388.1</ele>
        <time>2020-05-26T17:04:05Z</time>
      </trkpt>
      <trkpt lat="48.69555" lon="7.26753">
        <ele>388.4</ele>
        <time>2020-05-26T17:04:02Z</time>
      </trkpt>
      <trkpt lat="48.6956" lon="7.2675">
        <ele>390.6</ele>
        <time>2020-05-26T17:03:56Z</time>
      </trkpt>
      <trkpt lat="48.69566" lon="7.2675">
        <ele>393.5</ele>
        <time>2020-05-26T17:03:48Z</time>
      </trkpt>
      <trkpt lat="48.6957" lon="7.26751">
        <ele>395.5</ele>
        <time>2020-05-26T17:03:34Z</time>
      </trkpt>
      <trkpt lat="48.69571" lon="7.26744">
        <ele>396.3</ele>
        <time>2020-05-26T17:03:28Z</time>
      </trkpt>
      <trkpt lat="48.69575" lon="7.26737">
        <ele>395.8</ele>
        <time>2020-05-26T17:03:26Z</time>
      </trkpt>
      <trkpt lat="48.69579" lon="7.26731">
        <ele>395.6</ele>
        <time>2020-05-26T17:03:24Z</time>
      </trkpt>
      <trkpt lat="48.69582" lon="7.26723">
        <ele>395</ele>
        <time>2020-05-26T17:03:22Z</time>
      </trkpt>
      <trkpt lat="48.69585" lon="7.26715">
        <ele>394.5</ele>
        <time>2020-05-26T17:03:19Z</time>
      </trkpt>
      <trkpt lat="48.69585" lon="7.26707">
        <ele>394</ele>
        <time>2020-05-26T17:03:17Z</time>
      </trkpt>
      <trkpt lat="48.69591" lon="7.26692">
        <ele>394</ele>
        <time>2020-05-26T17:03:14Z</time>
      </trkpt>
      <trkpt lat="48.69597" lon="7.26673">
        <ele>393.3</ele>
        <time>2020-05-26T17:03:11Z</time>
      </trkpt>
      <trkpt lat="48.69602" lon="7.26658">
        <ele>393.1</ele>
        <time>2020-05-26T17:03:09Z</time>
      </trkpt>
      <trkpt lat="48.69607" lon="7.26638">
        <ele>392.6</ele>
        <time>2020-05-26T17:03:06Z</time>
      </trkpt>
      <trkpt lat="48.69607" lon="7.26628">
        <ele>392.4</ele>
        <time>2020-05-26T17:03:04Z</time>
      </trkpt>
      <trkpt lat="48.69606" lon="7.26616">
        <ele>392.5</ele>
        <time>2020-05-26T17:03:02Z</time>
      </trkpt>
      <trkpt lat="48.69607" lon="7.26603">
        <ele>393</ele>
        <time>2020-05-26T17:03:00Z</time>
      </trkpt>
      <trkpt lat="48.69609" lon="7.26588">
        <ele>393.7</ele>
        <time>2020-05-26T17:02:58Z</time>
      </trkpt>
      <trkpt lat="48.69611" lon="7.26574">
        <ele>394.3</ele>
        <time>2020-05-26T17:02:56Z</time>
      </trkpt>
      <trkpt lat="48.69612" lon="7.26558">
        <ele>396</ele>
        <time>2020-05-26T17:02:54Z</time>
      </trkpt>
      <trkpt lat="48.69613" lon="7.26543">
        <ele>397.8</ele>
        <time>2020-05-26T17:02:52Z</time>
      </trkpt>
      <trkpt lat="48.69615" lon="7.26527">
        <ele>399.7</ele>
        <time>2020-05-26T17:02:50Z</time>
      </trkpt>
      <trkpt lat="48.69615" lon="7.26513">
        <ele>400.7</ele>
        <time>2020-05-26T17:02:48Z</time>
      </trkpt>
      <trkpt lat="48.69613" lon="7.26498">
        <ele>401.2</ele>
        <time>2020-05-26T17:02:46Z</time>
      </trkpt>
      <trkpt lat="48.69612" lon="7.26483">
        <ele>400.9</ele>
        <time>2020-05-26T17:02:44Z</time>
      </trkpt>
      <trkpt lat="48.69611" lon="7.26467">
        <ele>401</ele>
        <time>2020-05-26T17:02:42Z</time>
      </trkpt>
      <trkpt lat="48.69612" lon="7.2645">
        <ele>401.6</ele>
        <time>2020-05-26T17:02:40Z</time>
      </trkpt>
      <trkpt lat="48.69615" lon="7.26433">
        <ele>402</ele>
        <time>2020-05-26T17:02:38Z</time>
      </trkpt>
      <trkpt lat="48.69617" lon="7.26417">
        <ele>403.6</ele>
        <time>2020-05-26T17:02:36Z</time>
      </trkpt>
      <trkpt lat="48.69615" lon="7.26393">
        <ele>403.7</ele>
        <time>2020-05-26T17:02:33Z</time>
      </trkpt>
      <trkpt lat="48.69608" lon="7.26382">
        <ele>402.9</ele>
        <time>2020-05-26T17:02:31Z</time>
      </trkpt>
      <trkpt lat="48.69602" lon="7.26368">
        <ele>402.3</ele>
        <time>2020-05-26T17:02:29Z</time>
      </trkpt>
      <trkpt lat="48.69598" lon="7.26354">
        <ele>401.5</ele>
        <time>2020-05-26T17:02:27Z</time>
      </trkpt>
      <trkpt lat="48.69592" lon="7.2634">
        <ele>401.5</ele>
        <time>2020-05-26T17:02:25Z</time>
      </trkpt>
      <trkpt lat="48.69589" lon="7.26326">
        <ele>401.2</ele>
        <time>2020-05-26T17:02:23Z</time>
      </trkpt>
      <trkpt lat="48.69583" lon="7.26315">
        <ele>401.2</ele>
        <time>2020-05-26T17:02:21Z</time>
      </trkpt>
      <trkpt lat="48.69575" lon="7.26306">
        <ele>401.2</ele>
        <time>2020-05-26T17:02:19Z</time>
      </trkpt>
      <trkpt lat="48.6957" lon="7.26299">
        <ele>400.9</ele>
        <time>2020-05-26T17:02:17Z</time>
      </trkpt>
      <trkpt lat="48.69566" lon="7.26295">
        <ele>400.7</ele>
        <time>2020-05-26T17:02:15Z</time>
      </trkpt>
      <trkpt lat="48.6956" lon="7.26288">
        <ele>400.8</ele>
        <time>2020-05-26T17:02:12Z</time>
      </trkpt>
      <trkpt lat="48.69556" lon="7.26282">
        <ele>400.9</ele>
        <time>2020-05-26T17:02:10Z</time>
      </trkpt>
      <trkpt lat="48.69552" lon="7.26274">
        <ele>398.9</ele>
        <time>2020-05-26T17:02:07Z</time>
      </trkpt>
      <trkpt lat="48.69547" lon="7.26272">
        <ele>397.9</ele>
        <time>2020-05-26T17:02:04Z</time>
      </trkpt>
      <trkpt lat="48.69543" lon="7.26274">
        <ele>398.2</ele>
        <time>2020-05-26T17:02:02Z</time>
      </trkpt>
      <trkpt lat="48.69537" lon="7.26279">
        <ele>398.9</ele>
        <time>2020-05-26T17:02:00Z</time>
      </trkpt>
      <trkpt lat="48.69531" lon="7.26286">
        <ele>399.3</ele>
        <time>2020-05-26T17:01:58Z</time>
      </trkpt>
      <trkpt lat="48.69526" lon="7.26293">
        <ele>399.8</ele>
        <time>2020-05-26T17:01:56Z</time>
      </trkpt>
      <trkpt lat="48.69522" lon="7.26302">
        <ele>400.8</ele>
        <time>2020-05-26T17:01:54Z</time>
      </trkpt>
      <trkpt lat="48.69519" lon="7.26309">
        <ele>402.1</ele>
        <time>2020-05-26T17:01:52Z</time>
      </trkpt>
      <trkpt lat="48.69514" lon="7.26315">
        <ele>403.5</ele>
        <time>2020-05-26T17:01:50Z</time>
      </trkpt>
      <trkpt lat="48.69509" lon="7.26324">
        <ele>404</ele>
        <time>2020-05-26T17:01:48Z</time>
      </trkpt>
      <trkpt lat="48.69502" lon="7.26333">
        <ele>405.2</ele>
        <time>2020-05-26T17:01:46Z</time>
      </trkpt>
      <trkpt lat="48.69492" lon="7.26345">
        <ele>406.3</ele>
        <time>2020-05-26T17:01:43Z</time>
      </trkpt>
      <trkpt lat="48.69486" lon="7.26352">
        <ele>404.2</ele>
        <time>2020-05-26T17:01:41Z</time>
      </trkpt>
      <trkpt lat="48.69479" lon="7.2636">
        <ele>404.8</ele>
        <time>2020-05-26T17:01:39Z</time>
      </trkpt>
      <trkpt lat="48.69472" lon="7.26367">
        <ele>404.7</ele>
        <time>2020-05-26T17:01:37Z</time>
      </trkpt>
      <trkpt lat="48.69466" lon="7.26372">
        <ele>405.6</ele>
        <time>2020-05-26T17:01:35Z</time>
      </trkpt>
      <trkpt lat="48.69462" lon="7.26374">
        <ele>405.6</ele>
        <time>2020-05-26T17:01:33Z</time>
      </trkpt>
      <trkpt lat="48.69456" lon="7.26378">
        <ele>406.2</ele>
        <time>2020-05-26T17:01:31Z</time>
      </trkpt>
      <trkpt lat="48.69449" lon="7.26382">
        <ele>407.2</ele>
        <time>2020-05-26T17:01:29Z</time>
      </trkpt>
      <trkpt lat="48.69442" lon="7.26388">
        <ele>408.7</ele>
        <time>2020-05-26T17:01:27Z</time>
      </trkpt>
      <trkpt lat="48.69434" lon="7.26393">
        <ele>410.4</ele>
        <time>2020-05-26T17:01:25Z</time>
      </trkpt>
      <trkpt lat="48.69427" lon="7.26399">
        <ele>411.7</ele>
        <time>2020-05-26T17:01:23Z</time>
      </trkpt>
      <trkpt lat="48.69419" lon="7.26406">
        <ele>412.7</ele>
        <time>2020-05-26T17:01:21Z</time>
      </trkpt>
      <trkpt lat="48.69413" lon="7.2641">
        <ele>413.8</ele>
        <time>2020-05-26T17:01:19Z</time>
      </trkpt>
      <trkpt lat="48.69407" lon="7.26416">
        <ele>414.3</ele>
        <time>2020-05-26T17:01:17Z</time>
      </trkpt>
      <trkpt lat="48.69401" lon="7.26419">
        <ele>415.5</ele>
        <time>2020-05-26T17:01:15Z</time>
      </trkpt>
      <trkpt lat="48.69395" lon="7.26424">
        <ele>416.7</ele>
        <time>2020-05-26T17:01:13Z</time>
      </trkpt>
      <trkpt lat="48.69388" lon="7.26432">
        <ele>418.5</ele>
        <time>2020-05-26T17:01:11Z</time>
      </trkpt>
      <trkpt lat="48.69381" lon="7.26439">
        <ele>420.3</ele>
        <time>2020-05-26T17:01:09Z</time>
      </trkpt>
      <trkpt lat="48.69373" lon="7.26446">
        <ele>422.9</ele>
        <time>2020-05-26T17:01:07Z</time>
      </trkpt>
      <trkpt lat="48.69364" lon="7.26453">
        <ele>424.7</ele>
        <time>2020-05-26T17:01:05Z</time>
      </trkpt>
      <trkpt lat="48.69356" lon="7.26458">
        <ele>426.6</ele>
        <time>2020-05-26T17:01:03Z</time>
      </trkpt>
      <trkpt lat="48.69347" lon="7.26461">
        <ele>427.4</ele>
        <time>2020-05-26T17:01:01Z</time>
      </trkpt>
      <trkpt lat="48.69339" lon="7.26461">
        <ele>428.9</ele>
        <time>2020-05-26T17:00:59Z</time>
      </trkpt>
      <trkpt lat="48.69333" lon="7.26458">
        <ele>430.3</ele>
        <time>2020-05-26T17:00:57Z</time>
      </trkpt>
      <trkpt lat="48.69325" lon="7.2645">
        <ele>431.1</ele>
        <time>2020-05-26T17:00:54Z</time>
      </trkpt>
      <trkpt lat="48.6932" lon="7.26442">
        <ele>431.5</ele>
        <time>2020-05-26T17:00:52Z</time>
      </trkpt>
      <trkpt lat="48.69318" lon="7.26435">
        <ele>432.3</ele>
        <time>2020-05-26T17:00:50Z</time>
      </trkpt>
      <trkpt lat="48.69315" lon="7.26427">
        <ele>432.9</ele>
        <time>2020-05-26T17:00:48Z</time>
      </trkpt>
      <trkpt lat="48.69311" lon="7.26419">
        <ele>433.5</ele>
        <time>2020-05-26T17:00:46Z</time>
      </trkpt>
      <trkpt lat="48.69302" lon="7.26401">
        <ele>434.3</ele>
        <time>2020-05-26T17:00:43Z</time>
      </trkpt>
      <trkpt lat="48.69296" lon="7.26384">
        <ele>435.7</ele>
        <time>2020-05-26T17:00:40Z</time>
      </trkpt>
      <trkpt lat="48.69293" lon="7.26373">
        <ele>436.4</ele>
        <time>2020-05-26T17:00:38Z</time>
      </trkpt>
      <trkpt lat="48.6929" lon="7.26362">
        <ele>437.1</ele>
        <time>2020-05-26T17:00:36Z</time>
      </trkpt>
      <trkpt lat="48.69285" lon="7.2634">
        <ele>437.8</ele>
        <time>2020-05-26T17:00:33Z</time>
      </trkpt>
      <trkpt lat="48.69283" lon="7.26323">
        <ele>438.6</ele>
        <time>2020-05-26T17:00:31Z</time>
      </trkpt>
      <trkpt lat="48.69281" lon="7.26306">
        <ele>438.6</ele>
        <time>2020-05-26T17:00:29Z</time>
      </trkpt>
      <trkpt lat="48.69278" lon="7.26293">
        <ele>439.5</ele>
        <time>2020-05-26T17:00:27Z</time>
      </trkpt>
      <trkpt lat="48.69277" lon="7.26284">
        <ele>439.3</ele>
        <time>2020-05-26T17:00:25Z</time>
      </trkpt>
      <trkpt lat="48.69273" lon="7.2628">
        <ele>441.7</ele>
        <time>2020-05-26T16:59:51Z</time>
      </trkpt>
      <trkpt lat="48.6927" lon="7.26275">
        <ele>443</ele>
        <time>2020-05-26T16:59:46Z</time>
      </trkpt>
      <trkpt lat="48.69267" lon="7.26266">
        <ele>443.7</ele>
        <time>2020-05-26T16:59:44Z</time>
      </trkpt>
      <trkpt lat="48.69264" lon="7.26249">
        <ele>444.6</ele>
        <time>2020-05-26T16:59:42Z</time>
      </trkpt>
      <trkpt lat="48.6926" lon="7.26235">
        <ele>445.1</ele>
        <time>2020-05-26T16:59:40Z</time>
      </trkpt>
      <trkpt lat="48.69259" lon="7.26226">
        <ele>445</ele>
        <time>2020-05-26T16:59:38Z</time>
      </trkpt>
      <trkpt lat="48.69257" lon="7.26215">
        <ele>445.7</ele>
        <time>2020-05-26T16:59:36Z</time>
      </trkpt>
      <trkpt lat="48.69256" lon="7.26201">
        <ele>446.6</ele>
        <time>2020-05-26T16:59:34Z</time>
      </trkpt>
      <trkpt lat="48.69255" lon="7.26187">
        <ele>447.2</ele>
        <time>2020-05-26T16:59:32Z</time>
      </trkpt>
      <trkpt lat="48.69256" lon="7.26173">
        <ele>448.1</ele>
        <time>2020-05-26T16:59:30Z</time>
      </trkpt>
      <trkpt lat="48.69256" lon="7.2616">
        <ele>449.4</ele>
        <time>2020-05-26T16:59:28Z</time>
      </trkpt>
      <trkpt lat="48.69253" lon="7.26147">
        <ele>450.3</ele>
        <time>2020-05-26T16:59:26Z</time>
      </trkpt>
      <trkpt lat="48.6925" lon="7.26133">
        <ele>451.3</ele>
        <time>2020-05-26T16:59:24Z</time>
      </trkpt>
      <trkpt lat="48.69247" lon="7.2612">
        <ele>452.3</ele>
        <time>2020-05-26T16:59:22Z</time>
      </trkpt>
      <trkpt lat="48.69246" lon="7.26108">
        <ele>453.2</ele>
        <time>2020-05-26T16:59:20Z</time>
      </trkpt>
      <trkpt lat="48.69244" lon="7.26094">
        <ele>453.7</ele>
        <time>2020-05-26T16:59:18Z</time>
      </trkpt>
      <trkpt lat="48.69243" lon="7.26078">
        <ele>454.5</ele>
        <time>2020-05-26T16:59:16Z</time>
      </trkpt>
      <trkpt lat="48.6924" lon="7.26063">
        <ele>455.2</ele>
        <time>2020-05-26T16:59:14Z</time>
      </trkpt>
      <trkpt lat="48.69237" lon="7.26046">
        <ele>456.2</ele>
        <time>2020-05-26T16:59:12Z</time>
      </trkpt>
      <trkpt lat="48.69234" lon="7.26028">
        <ele>456.7</ele>
        <time>2020-05-26T16:59:10Z</time>
      </trkpt>
      <trkpt lat="48.69233" lon="7.26011">
        <ele>457.6</ele>
        <time>2020-05-26T16:59:08Z</time>
      </trkpt>
      <trkpt lat="48.69229" lon="7.25998">
        <ele>458.8</ele>
        <time>2020-05-26T16:59:06Z</time>
      </trkpt>
      <trkpt lat="48.69224" lon="7.25991">
        <ele>459.9</ele>
        <time>2020-05-26T16:59:04Z</time>
      </trkpt>
      <trkpt lat="48.6922" lon="7.25984">
        <ele>459.7</ele>
        <time>2020-05-26T16:59:02Z</time>
      </trkpt>
      <trkpt lat="48.69216" lon="7.25975">
        <ele>460</ele>
        <time>2020-05-26T16:58:59Z</time>
      </trkpt>
      <trkpt lat="48.69214" lon="7.25969">
        <ele>463.9</ele>
        <time>2020-05-26T16:58:50Z</time>
      </trkpt>
      <trkpt lat="48.69212" lon="7.25962">
        <ele>464.9</ele>
        <time>2020-05-26T16:58:44Z</time>
      </trkpt>
      <trkpt lat="48.6921" lon="7.25955">
        <ele>460</ele>
        <time>2020-05-26T16:58:23Z</time>
      </trkpt>
      <trkpt lat="48.69206" lon="7.25952">
        <ele>459.6</ele>
        <time>2020-05-26T16:58:18Z</time>
      </trkpt>
      <trkpt lat="48.69202" lon="7.25946">
        <ele>460</ele>
        <time>2020-05-26T16:58:16Z</time>
      </trkpt>
      <trkpt lat="48.69198" lon="7.25933">
        <ele>461.2</ele>
        <time>2020-05-26T16:58:13Z</time>
      </trkpt>
      <trkpt lat="48.69197" lon="7.25925">
        <ele>462.4</ele>
        <time>2020-05-26T16:58:11Z</time>
      </trkpt>
      <trkpt lat="48.69194" lon="7.25919">
        <ele>462.8</ele>
        <time>2020-05-26T16:58:09Z</time>
      </trkpt>
      <trkpt lat="48.69186" lon="7.25906">
        <ele>464.6</ele>
        <time>2020-05-26T16:58:06Z</time>
      </trkpt>
      <trkpt lat="48.69179" lon="7.25898">
        <ele>465.4</ele>
        <time>2020-05-26T16:58:04Z</time>
      </trkpt>
      <trkpt lat="48.69173" lon="7.2589">
        <ele>466.9</ele>
        <time>2020-05-26T16:58:02Z</time>
      </trkpt>
      <trkpt lat="48.69168" lon="7.25883">
        <ele>468.1</ele>
        <time>2020-05-26T16:58:00Z</time>
      </trkpt>
      <trkpt lat="48.69167" lon="7.25876">
        <ele>470.1</ele>
        <time>2020-05-26T16:57:52Z</time>
      </trkpt>
      <trkpt lat="48.69164" lon="7.25871">
        <ele>473.1</ele>
        <time>2020-05-26T16:57:37Z</time>
      </trkpt>
      <trkpt lat="48.6916" lon="7.25867">
        <ele>471.3</ele>
        <time>2020-05-26T16:57:24Z</time>
      </trkpt>
      <trkpt lat="48.69156" lon="7.25861">
        <ele>470.3</ele>
        <time>2020-05-26T16:57:15Z</time>
      </trkpt>
      <trkpt lat="48.69152" lon="7.25856">
        <ele>470.5</ele>
        <time>2020-05-26T16:57:12Z</time>
      </trkpt>
      <trkpt lat="48.69147" lon="7.25848">
        <ele>471</ele>
        <time>2020-05-26T16:57:10Z</time>
      </trkpt>
      <trkpt lat="48.69142" lon="7.25836">
        <ele>471.9</ele>
        <time>2020-05-26T16:57:08Z</time>
      </trkpt>
      <trkpt lat="48.69134" lon="7.25825">
        <ele>472.2</ele>
        <time>2020-05-26T16:57:06Z</time>
      </trkpt>
      <trkpt lat="48.69125" lon="7.25815">
        <ele>472.4</ele>
        <time>2020-05-26T16:57:04Z</time>
      </trkpt>
      <trkpt lat="48.69114" lon="7.25806">
        <ele>472.1</ele>
        <time>2020-05-26T16:57:02Z</time>
      </trkpt>
      <trkpt lat="48.69105" lon="7.25801">
        <ele>472.6</ele>
        <time>2020-05-26T16:57:00Z</time>
      </trkpt>
      <trkpt lat="48.69101" lon="7.25796">
        <ele>472.6</ele>
        <time>2020-05-26T16:56:58Z</time>
      </trkpt>
      <trkpt lat="48.69097" lon="7.25792">
        <ele>473.3</ele>
        <time>2020-05-26T16:56:55Z</time>
      </trkpt>
      <trkpt lat="48.69092" lon="7.25788">
        <ele>474.8</ele>
        <time>2020-05-26T16:56:52Z</time>
      </trkpt>
      <trkpt lat="48.69087" lon="7.25784">
        <ele>476.6</ele>
        <time>2020-05-26T16:56:49Z</time>
      </trkpt>
      <trkpt lat="48.69084" lon="7.25776">
        <ele>481</ele>
        <time>2020-05-26T16:56:40Z</time>
      </trkpt>
      <trkpt lat="48.69084" lon="7.25776">
        <ele>481</ele>
        <time>2020-05-26T16:56:40Z</time>
      </trkpt>
    </trkseg>
  </trk>
  <trk>
    <name><![CDATA[secteur Saverne - Dabo - Petite Pierre_38]]></name>
    <trkseg>
      <trkpt lat="48.71077" lon="7.26585">
        <ele>448</ele>
        <time>2020-05-23T09:09:13Z</time>
      </trkpt>
      <trkpt lat="48.71077" lon="7.26585">
        <ele>448</ele>
        <time>2020-05-23T09:09:13Z</time>
      </trkpt>
      <trkpt lat="48.71077" lon="7.26585">
        <ele>448</ele>
        <time>2020-05-23T09:09:13Z</time>
      </trkpt>
      <trkpt lat="48.71077" lon="7.26585">
        <ele>448</ele>
        <time>2020-05-23T09:09:13Z</time>
      </trkpt>
      <trkpt lat="48.71077" lon="7.26585">
        <ele>448</ele>
        <time>2020-05-23T09:09:13Z</time>
      </trkpt>
      <trkpt lat="48.71077" lon="7.2658">
        <ele>448</ele>
        <time>2020-05-23T09:09:15Z</time>
      </trkpt>
      <trkpt lat="48.71079" lon="7.26576">
        <ele>448</ele>
        <time>2020-05-23T09:09:17Z</time>
      </trkpt>
      <trkpt lat="48.71083" lon="7.26575">
        <ele>448.1</ele>
        <time>2020-05-23T09:09:19Z</time>
      </trkpt>
      <trkpt lat="48.71083" lon="7.26574">
        <ele>448</ele>
        <time>2020-05-23T09:09:20Z</time>
      </trkpt>
      <trkpt lat="48.71085" lon="7.26574">
        <ele>448.1</ele>
        <time>2020-05-23T09:09:21Z</time>
      </trkpt>
      <trkpt lat="48.71089" lon="7.26571">
        <ele>448.1</ele>
        <time>2020-05-23T09:09:23Z</time>
      </trkpt>
      <trkpt lat="48.71094" lon="7.26567">
        <ele>448.2</ele>
        <time>2020-05-23T09:09:25Z</time>
      </trkpt>
      <trkpt lat="48.71097" lon="7.26565">
        <ele>448.3</ele>
        <time>2020-05-23T09:09:27Z</time>
      </trkpt>
      <trkpt lat="48.71101" lon="7.26564">
        <ele>448.3</ele>
        <time>2020-05-23T09:09:29Z</time>
      </trkpt>
      <trkpt lat="48.71104" lon="7.26563">
        <ele>448.3</ele>
        <time>2020-05-23T09:09:31Z</time>
      </trkpt>
      <trkpt lat="48.71105" lon="7.26562">
        <ele>448.4</ele>
        <time>2020-05-23T09:09:32Z</time>
      </trkpt>
      <trkpt lat="48.71107" lon="7.26562">
        <ele>448.4</ele>
        <time>2020-05-23T09:09:33Z</time>
      </trkpt>
      <trkpt lat="48.71111" lon="7.26561">
        <ele>448.5</ele>
        <time>2020-05-23T09:09:35Z</time>
      </trkpt>
      <trkpt lat="48.71115" lon="7.2656">
        <ele>448.5</ele>
        <time>2020-05-23T09:09:37Z</time>
      </trkpt>
      <trkpt lat="48.71118" lon="7.2656">
        <ele>448.6</ele>
        <time>2020-05-23T09:09:41Z</time>
      </trkpt>
      <trkpt lat="48.71119" lon="7.2656">
        <ele>448.7</ele>
        <time>2020-05-23T09:09:42Z</time>
      </trkpt>
      <trkpt lat="48.7112" lon="7.26561">
        <ele>448.7</ele>
        <time>2020-05-23T09:09:44Z</time>
      </trkpt>
      <trkpt lat="48.71121" lon="7.26563">
        <ele>448.7</ele>
        <time>2020-05-23T09:09:46Z</time>
      </trkpt>
      <trkpt lat="48.71121" lon="7.26564">
        <ele>448.7</ele>
        <time>2020-05-23T09:09:48Z</time>
      </trkpt>
      <trkpt lat="48.71122" lon="7.26564">
        <ele>448.7</ele>
        <time>2020-05-23T09:09:49Z</time>
      </trkpt>
      <trkpt lat="48.71122" lon="7.26564">
        <ele>448.7</ele>
        <time>2020-05-23T09:09:50Z</time>
      </trkpt>
      <trkpt lat="48.71122" lon="7.26564">
        <ele>448.7</ele>
        <time>2020-05-23T09:09:52Z</time>
      </trkpt>
      <trkpt lat="48.71123" lon="7.26564">
        <ele>448.6</ele>
        <time>2020-05-23T09:09:54Z</time>
      </trkpt>
      <trkpt lat="48.71124" lon="7.26565">
        <ele>448.6</ele>
        <time>2020-05-23T09:09:55Z</time>
      </trkpt>
      <trkpt lat="48.71124" lon="7.26566">
        <ele>448.7</ele>
        <time>2020-05-23T09:09:57Z</time>
      </trkpt>
      <trkpt lat="48.71125" lon="7.26566">
        <ele>448.7</ele>
        <time>2020-05-23T09:09:58Z</time>
      </trkpt>
      <trkpt lat="48.71128" lon="7.26569">
        <ele>448.8</ele>
        <time>2020-05-23T09:10:00Z</time>
      </trkpt>
      <trkpt lat="48.71131" lon="7.2657">
        <ele>449</ele>
        <time>2020-05-23T09:10:01Z</time>
      </trkpt>
      <trkpt lat="48.71132" lon="7.26568">
        <ele>448.8</ele>
        <time>2020-05-23T09:10:03Z</time>
      </trkpt>
      <trkpt lat="48.71132" lon="7.26567">
        <ele>448.8</ele>
        <time>2020-05-23T09:10:04Z</time>
      </trkpt>
      <trkpt lat="48.71135" lon="7.26563">
        <ele>448.8</ele>
        <time>2020-05-23T09:10:06Z</time>
      </trkpt>
      <trkpt lat="48.71136" lon="7.26561">
        <ele>448.9</ele>
        <time>2020-05-23T09:10:07Z</time>
      </trkpt>
      <trkpt lat="48.71142" lon="7.26558">
        <ele>449.1</ele>
        <time>2020-05-23T09:10:09Z</time>
      </trkpt>
      <trkpt lat="48.71147" lon="7.26555">
        <ele>449.2</ele>
        <time>2020-05-23T09:10:11Z</time>
      </trkpt>
      <trkpt lat="48.71149" lon="7.26554">
        <ele>449.2</ele>
        <time>2020-05-23T09:10:12Z</time>
      </trkpt>
      <trkpt lat="48.71154" lon="7.26551">
        <ele>449.3</ele>
        <time>2020-05-23T09:10:14Z</time>
      </trkpt>
      <trkpt lat="48.71158" lon="7.2655">
        <ele>449.4</ele>
        <time>2020-05-23T09:10:16Z</time>
      </trkpt>
      <trkpt lat="48.7116" lon="7.26549">
        <ele>449.6</ele>
        <time>2020-05-23T09:10:17Z</time>
      </trkpt>
      <trkpt lat="48.71167" lon="7.26547">
        <ele>450</ele>
        <time>2020-05-23T09:10:19Z</time>
      </trkpt>
      <trkpt lat="48.71169" lon="7.26546">
        <ele>450</ele>
        <time>2020-05-23T09:10:20Z</time>
      </trkpt>
      <trkpt lat="48.71173" lon="7.26544">
        <ele>450.2</ele>
        <time>2020-05-23T09:10:22Z</time>
      </trkpt>
      <trkpt lat="48.71175" lon="7.26543">
        <ele>450.2</ele>
        <time>2020-05-23T09:10:23Z</time>
      </trkpt>
      <trkpt lat="48.71179" lon="7.26541">
        <ele>450.5</ele>
        <time>2020-05-23T09:10:25Z</time>
      </trkpt>
      <trkpt lat="48.71182" lon="7.26538">
        <ele>450.5</ele>
        <time>2020-05-23T09:10:26Z</time>
      </trkpt>
      <trkpt lat="48.71182" lon="7.26538">
        <ele>450.5</ele>
        <time>2020-05-23T09:10:27Z</time>
      </trkpt>
      <trkpt lat="48.71187" lon="7.26535">
        <ele>450.6</ele>
        <time>2020-05-23T09:10:29Z</time>
      </trkpt>
      <trkpt lat="48.71191" lon="7.26534">
        <ele>450.8</ele>
        <time>2020-05-23T09:10:31Z</time>
      </trkpt>
      <trkpt lat="48.71195" lon="7.26532">
        <ele>451.3</ele>
        <time>2020-05-23T09:10:33Z</time>
      </trkpt>
      <trkpt lat="48.71202" lon="7.26531">
        <ele>451.5</ele>
        <time>2020-05-23T09:10:35Z</time>
      </trkpt>
      <trkpt lat="48.71206" lon="7.2653">
        <ele>451.8</ele>
        <time>2020-05-23T09:10:36Z</time>
      </trkpt>
      <trkpt lat="48.7121" lon="7.26529">
        <ele>452.3</ele>
        <time>2020-05-23T09:10:38Z</time>
      </trkpt>
      <trkpt lat="48.71214" lon="7.26528">
        <ele>452.5</ele>
        <time>2020-05-23T09:10:39Z</time>
      </trkpt>
      <trkpt lat="48.71215" lon="7.26527">
        <ele>452.8</ele>
        <time>2020-05-23T09:10:40Z</time>
      </trkpt>
      <trkpt lat="48.71219" lon="7.26526">
        <ele>452.8</ele>
        <time>2020-05-23T09:10:41Z</time>
      </trkpt>
      <trkpt lat="48.71222" lon="7.26524">
        <ele>453.1</ele>
        <time>2020-05-23T09:10:42Z</time>
      </trkpt>
      <trkpt lat="48.71228" lon="7.26521">
        <ele>453.4</ele>
        <time>2020-05-23T09:10:44Z</time>
      </trkpt>
      <trkpt lat="48.71231" lon="7.2652">
        <ele>453.7</ele>
        <time>2020-05-23T09:10:45Z</time>
      </trkpt>
      <trkpt lat="48.71236" lon="7.26519">
        <ele>454.2</ele>
        <time>2020-05-23T09:10:47Z</time>
      </trkpt>
      <trkpt lat="48.71237" lon="7.26517">
        <ele>454.2</ele>
        <time>2020-05-23T09:10:48Z</time>
      </trkpt>
      <trkpt lat="48.71241" lon="7.26515">
        <ele>454.4</ele>
        <time>2020-05-23T09:10:50Z</time>
      </trkpt>
      <trkpt lat="48.71245" lon="7.26513">
        <ele>454.3</ele>
        <time>2020-05-23T09:10:52Z</time>
      </trkpt>
      <trkpt lat="48.71248" lon="7.26512">
        <ele>454.5</ele>
        <time>2020-05-23T09:10:54Z</time>
      </trkpt>
      <trkpt lat="48.71251" lon="7.26511">
        <ele>454.7</ele>
        <time>2020-05-23T09:10:56Z</time>
      </trkpt>
      <trkpt lat="48.71254" lon="7.26509">
        <ele>454.6</ele>
        <time>2020-05-23T09:10:58Z</time>
      </trkpt>
      <trkpt lat="48.71255" lon="7.26509">
        <ele>454.7</ele>
        <time>2020-05-23T09:10:59Z</time>
      </trkpt>
      <trkpt lat="48.71257" lon="7.26507">
        <ele>454.7</ele>
        <time>2020-05-23T09:11:00Z</time>
      </trkpt>
      <trkpt lat="48.71259" lon="7.26506">
        <ele>454.8</ele>
        <time>2020-05-23T09:11:01Z</time>
      </trkpt>
      <trkpt lat="48.71263" lon="7.26503">
        <ele>454.8</ele>
        <time>2020-05-23T09:11:03Z</time>
      </trkpt>
      <trkpt lat="48.71267" lon="7.265">
        <ele>454.8</ele>
        <time>2020-05-23T09:11:05Z</time>
      </trkpt>
      <trkpt lat="48.71273" lon="7.26498">
        <ele>455.1</ele>
        <time>2020-05-23T09:11:07Z</time>
      </trkpt>
      <trkpt lat="48.71281" lon="7.26497">
        <ele>455.4</ele>
        <time>2020-05-23T09:11:09Z</time>
      </trkpt>
      <trkpt lat="48.71287" lon="7.26496">
        <ele>455.4</ele>
        <time>2020-05-23T09:11:11Z</time>
      </trkpt>
      <trkpt lat="48.7129" lon="7.26495">
        <ele>455.4</ele>
        <time>2020-05-23T09:11:12Z</time>
      </trkpt>
      <trkpt lat="48.71294" lon="7.26492">
        <ele>455.4</ele>
        <time>2020-05-23T09:11:14Z</time>
      </trkpt>
      <trkpt lat="48.71297" lon="7.26491">
        <ele>455.3</ele>
        <time>2020-05-23T09:11:15Z</time>
      </trkpt>
      <trkpt lat="48.71302" lon="7.26488">
        <ele>455.2</ele>
        <time>2020-05-23T09:11:17Z</time>
      </trkpt>
      <trkpt lat="48.71306" lon="7.26485">
        <ele>455.1</ele>
        <time>2020-05-23T09:11:19Z</time>
      </trkpt>
      <trkpt lat="48.71308" lon="7.26482">
        <ele>454.9</ele>
        <time>2020-05-23T09:11:21Z</time>
      </trkpt>
      <trkpt lat="48.71309" lon="7.26481">
        <ele>454.9</ele>
        <time>2020-05-23T09:11:22Z</time>
      </trkpt>
      <trkpt lat="48.71314" lon="7.26479">
        <ele>454.7</ele>
        <time>2020-05-23T09:11:24Z</time>
      </trkpt>
      <trkpt lat="48.71316" lon="7.26478">
        <ele>454.6</ele>
        <time>2020-05-23T09:11:25Z</time>
      </trkpt>
      <trkpt lat="48.71317" lon="7.26478">
        <ele>454.4</ele>
        <time>2020-05-23T09:11:26Z</time>
      </trkpt>
      <trkpt lat="48.71321" lon="7.26477">
        <ele>454.3</ele>
        <time>2020-05-23T09:11:28Z</time>
      </trkpt>
      <trkpt lat="48.71324" lon="7.26477">
        <ele>454.2</ele>
        <time>2020-05-23T09:11:29Z</time>
      </trkpt>
      <trkpt lat="48.71329" lon="7.26475">
        <ele>453.8</ele>
        <time>2020-05-23T09:11:31Z</time>
      </trkpt>
      <trkpt lat="48.71333" lon="7.26474">
        <ele>453.7</ele>
        <time>2020-05-23T09:11:32Z</time>
      </trkpt>
      <trkpt lat="48.71334" lon="7.26473">
        <ele>453.5</ele>
        <time>2020-05-23T09:11:33Z</time>
      </trkpt>
      <trkpt lat="48.71338" lon="7.26473">
        <ele>453.4</ele>
        <time>2020-05-23T09:11:35Z</time>
      </trkpt>
      <trkpt lat="48.71342" lon="7.26473">
        <ele>453.2</ele>
        <time>2020-05-23T09:11:37Z</time>
      </trkpt>
      <trkpt lat="48.71345" lon="7.26473">
        <ele>453.1</ele>
        <time>2020-05-23T09:11:38Z</time>
      </trkpt>
      <trkpt lat="48.71346" lon="7.26473">
        <ele>453.1</ele>
        <time>2020-05-23T09:11:39Z</time>
      </trkpt>
      <trkpt lat="48.71348" lon="7.26472">
        <ele>453.1</ele>
        <time>2020-05-23T09:11:40Z</time>
      </trkpt>
      <trkpt lat="48.71349" lon="7.26472">
        <ele>453</ele>
        <time>2020-05-23T09:11:41Z</time>
      </trkpt>
      <trkpt lat="48.71351" lon="7.2647">
        <ele>452.8</ele>
        <time>2020-05-23T09:11:43Z</time>
      </trkpt>
      <trkpt lat="48.71353" lon="7.26469">
        <ele>452.8</ele>
        <time>2020-05-23T09:11:44Z</time>
      </trkpt>
      <trkpt lat="48.71358" lon="7.26467">
        <ele>452.7</ele>
        <time>2020-05-23T09:11:46Z</time>
      </trkpt>
      <trkpt lat="48.71361" lon="7.26467">
        <ele>452.6</ele>
        <time>2020-05-23T09:11:47Z</time>
      </trkpt>
      <trkpt lat="48.71367" lon="7.26466">
        <ele>452.5</ele>
        <time>2020-05-23T09:11:49Z</time>
      </trkpt>
      <trkpt lat="48.71373" lon="7.26466">
        <ele>452.5</ele>
        <time>2020-05-23T09:11:51Z</time>
      </trkpt>
      <trkpt lat="48.71378" lon="7.26466">
        <ele>452.5</ele>
        <time>2020-05-23T09:11:53Z</time>
      </trkpt>
      <trkpt lat="48.7138" lon="7.26466">
        <ele>452.5</ele>
        <time>2020-05-23T09:11:54Z</time>
      </trkpt>
      <trkpt lat="48.71383" lon="7.26467">
        <ele>452.5</ele>
        <time>2020-05-23T09:11:55Z</time>
      </trkpt>
      <trkpt lat="48.71388" lon="7.26468">
        <ele>452.4</ele>
        <time>2020-05-23T09:11:57Z</time>
      </trkpt>
      <trkpt lat="48.71391" lon="7.26469">
        <ele>452.3</ele>
        <time>2020-05-23T09:11:58Z</time>
      </trkpt>
      <trkpt lat="48.71397" lon="7.2647">
        <ele>452.1</ele>
        <time>2020-05-23T09:12:00Z</time>
      </trkpt>
      <trkpt lat="48.71404" lon="7.26472">
        <ele>451.9</ele>
        <time>2020-05-23T09:12:02Z</time>
      </trkpt>
      <trkpt lat="48.71409" lon="7.26473">
        <ele>451.6</ele>
        <time>2020-05-23T09:12:04Z</time>
      </trkpt>
      <trkpt lat="48.71412" lon="7.26473">
        <ele>451.3</ele>
        <time>2020-05-23T09:12:05Z</time>
      </trkpt>
      <trkpt lat="48.71418" lon="7.26475">
        <ele>450.9</ele>
        <time>2020-05-23T09:12:07Z</time>
      </trkpt>
      <trkpt lat="48.71421" lon="7.26476">
        <ele>450.6</ele>
        <time>2020-05-23T09:12:08Z</time>
      </trkpt>
      <trkpt lat="48.71426" lon="7.26479">
        <ele>450.2</ele>
        <time>2020-05-23T09:12:10Z</time>
      </trkpt>
      <trkpt lat="48.71433" lon="7.26482">
        <ele>449.6</ele>
        <time>2020-05-23T09:12:12Z</time>
      </trkpt>
      <trkpt lat="48.71441" lon="7.26485">
        <ele>449.2</ele>
        <time>2020-05-23T09:12:14Z</time>
      </trkpt>
      <trkpt lat="48.71444" lon="7.26488">
        <ele>448.8</ele>
        <time>2020-05-23T09:12:15Z</time>
      </trkpt>
      <trkpt lat="48.7145" lon="7.26494">
        <ele>448.4</ele>
        <time>2020-05-23T09:12:17Z</time>
      </trkpt>
      <trkpt lat="48.71452" lon="7.26497">
        <ele>448.3</ele>
        <time>2020-05-23T09:12:18Z</time>
      </trkpt>
      <trkpt lat="48.71458" lon="7.26501">
        <ele>447.7</ele>
        <time>2020-05-23T09:12:20Z</time>
      </trkpt>
      <trkpt lat="48.71463" lon="7.26503">
        <ele>447.3</ele>
        <time>2020-05-23T09:12:22Z</time>
      </trkpt>
      <trkpt lat="48.71465" lon="7.26503">
        <ele>447.2</ele>
        <time>2020-05-23T09:12:23Z</time>
      </trkpt>
      <trkpt lat="48.7147" lon="7.26504">
        <ele>446.8</ele>
        <time>2020-05-23T09:12:25Z</time>
      </trkpt>
      <trkpt lat="48.71474" lon="7.26504">
        <ele>446.6</ele>
        <time>2020-05-23T09:12:27Z</time>
      </trkpt>
      <trkpt lat="48.71477" lon="7.26504">
        <ele>446.4</ele>
        <time>2020-05-23T09:12:28Z</time>
      </trkpt>
      <trkpt lat="48.71482" lon="7.26506">
        <ele>445.8</ele>
        <time>2020-05-23T09:12:30Z</time>
      </trkpt>
      <trkpt lat="48.71484" lon="7.26507">
        <ele>445.6</ele>
        <time>2020-05-23T09:12:31Z</time>
      </trkpt>
      <trkpt lat="48.71488" lon="7.2651">
        <ele>445.4</ele>
        <time>2020-05-23T09:12:33Z</time>
      </trkpt>
      <trkpt lat="48.71489" lon="7.2651">
        <ele>445.2</ele>
        <time>2020-05-23T09:12:34Z</time>
      </trkpt>
      <trkpt lat="48.7149" lon="7.26511">
        <ele>445</ele>
        <time>2020-05-23T09:12:35Z</time>
      </trkpt>
      <trkpt lat="48.71495" lon="7.26518">
        <ele>444.3</ele>
        <time>2020-05-23T09:12:37Z</time>
      </trkpt>
      <trkpt lat="48.715" lon="7.26521">
        <ele>443.9</ele>
        <time>2020-05-23T09:12:38Z</time>
      </trkpt>
      <trkpt lat="48.71509" lon="7.26523">
        <ele>442.8</ele>
        <time>2020-05-23T09:12:40Z</time>
      </trkpt>
      <trkpt lat="48.71518" lon="7.2652">
        <ele>441.4</ele>
        <time>2020-05-23T09:12:42Z</time>
      </trkpt>
      <trkpt lat="48.71527" lon="7.26518">
        <ele>440</ele>
        <time>2020-05-23T09:12:44Z</time>
      </trkpt>
      <trkpt lat="48.71533" lon="7.26516">
        <ele>439.9</ele>
        <time>2020-05-23T09:12:45Z</time>
      </trkpt>
      <trkpt lat="48.71539" lon="7.26512">
        <ele>438.5</ele>
        <time>2020-05-23T09:12:46Z</time>
      </trkpt>
      <trkpt lat="48.71549" lon="7.26503">
        <ele>437.2</ele>
        <time>2020-05-23T09:12:48Z</time>
      </trkpt>
      <trkpt lat="48.71558" lon="7.26496">
        <ele>436.2</ele>
        <time>2020-05-23T09:12:50Z</time>
      </trkpt>
      <trkpt lat="48.71563" lon="7.26494">
        <ele>435.7</ele>
        <time>2020-05-23T09:12:51Z</time>
      </trkpt>
      <trkpt lat="48.71567" lon="7.2649">
        <ele>435.3</ele>
        <time>2020-05-23T09:12:52Z</time>
      </trkpt>
      <trkpt lat="48.71574" lon="7.26484">
        <ele>434.4</ele>
        <time>2020-05-23T09:12:54Z</time>
      </trkpt>
      <trkpt lat="48.71582" lon="7.26478">
        <ele>433.5</ele>
        <time>2020-05-23T09:12:56Z</time>
      </trkpt>
      <trkpt lat="48.7159" lon="7.26473">
        <ele>432.6</ele>
        <time>2020-05-23T09:12:58Z</time>
      </trkpt>
      <trkpt lat="48.71593" lon="7.26471">
        <ele>432.2</ele>
        <time>2020-05-23T09:12:59Z</time>
      </trkpt>
      <trkpt lat="48.71601" lon="7.26468">
        <ele>431.4</ele>
        <time>2020-05-23T09:13:01Z</time>
      </trkpt>
      <trkpt lat="48.71609" lon="7.26466">
        <ele>430.5</ele>
        <time>2020-05-23T09:13:03Z</time>
      </trkpt>
      <trkpt lat="48.71617" lon="7.26464">
        <ele>429.6</ele>
        <time>2020-05-23T09:13:05Z</time>
      </trkpt>
      <trkpt lat="48.71622" lon="7.26463">
        <ele>429</ele>
        <time>2020-05-23T09:13:07Z</time>
      </trkpt>
      <trkpt lat="48.71625" lon="7.26463">
        <ele>428.7</ele>
        <time>2020-05-23T09:13:08Z</time>
      </trkpt>
      <trkpt lat="48.7163" lon="7.26461">
        <ele>428.1</ele>
        <time>2020-05-23T09:13:10Z</time>
      </trkpt>
      <trkpt lat="48.71637" lon="7.26457">
        <ele>427.3</ele>
        <time>2020-05-23T09:13:12Z</time>
      </trkpt>
      <trkpt lat="48.71642" lon="7.26455">
        <ele>426.8</ele>
        <time>2020-05-23T09:13:13Z</time>
      </trkpt>
      <trkpt lat="48.71647" lon="7.26453">
        <ele>426.2</ele>
        <time>2020-05-23T09:13:14Z</time>
      </trkpt>
      <trkpt lat="48.71657" lon="7.26447">
        <ele>425</ele>
        <time>2020-05-23T09:13:16Z</time>
      </trkpt>
      <trkpt lat="48.71663" lon="7.26444">
        <ele>424.4</ele>
        <time>2020-05-23T09:13:17Z</time>
      </trkpt>
      <trkpt lat="48.71673" lon="7.26437">
        <ele>423.3</ele>
        <time>2020-05-23T09:13:19Z</time>
      </trkpt>
      <trkpt lat="48.71678" lon="7.26434">
        <ele>422.8</ele>
        <time>2020-05-23T09:13:20Z</time>
      </trkpt>
      <trkpt lat="48.71688" lon="7.26425">
        <ele>421.9</ele>
        <time>2020-05-23T09:13:22Z</time>
      </trkpt>
      <trkpt lat="48.71692" lon="7.26421">
        <ele>421.6</ele>
        <time>2020-05-23T09:13:23Z</time>
      </trkpt>
      <trkpt lat="48.71696" lon="7.26418">
        <ele>421.3</ele>
        <time>2020-05-23T09:13:24Z</time>
      </trkpt>
      <trkpt lat="48.71703" lon="7.26409">
        <ele>420.8</ele>
        <time>2020-05-23T09:13:26Z</time>
      </trkpt>
      <trkpt lat="48.71707" lon="7.26405">
        <ele>420.4</ele>
        <time>2020-05-23T09:13:27Z</time>
      </trkpt>
      <trkpt lat="48.71711" lon="7.264">
        <ele>420.1</ele>
        <time>2020-05-23T09:13:28Z</time>
      </trkpt>
      <trkpt lat="48.71717" lon="7.2639">
        <ele>419.3</ele>
        <time>2020-05-23T09:13:30Z</time>
      </trkpt>
      <trkpt lat="48.7172" lon="7.26383">
        <ele>418.9</ele>
        <time>2020-05-23T09:13:31Z</time>
      </trkpt>
      <trkpt lat="48.71725" lon="7.2637">
        <ele>417.8</ele>
        <time>2020-05-23T09:13:33Z</time>
      </trkpt>
      <trkpt lat="48.71729" lon="7.26358">
        <ele>416.8</ele>
        <time>2020-05-23T09:13:35Z</time>
      </trkpt>
      <trkpt lat="48.71731" lon="7.26353">
        <ele>416.4</ele>
        <time>2020-05-23T09:13:36Z</time>
      </trkpt>
      <trkpt lat="48.71736" lon="7.26342">
        <ele>415.3</ele>
        <time>2020-05-23T09:13:38Z</time>
      </trkpt>
      <trkpt lat="48.71739" lon="7.26336">
        <ele>414.8</ele>
        <time>2020-05-23T09:13:39Z</time>
      </trkpt>
      <trkpt lat="48.71744" lon="7.26327">
        <ele>413.8</ele>
        <time>2020-05-23T09:13:41Z</time>
      </trkpt>
      <trkpt lat="48.71747" lon="7.26323">
        <ele>413.3</ele>
        <time>2020-05-23T09:13:42Z</time>
      </trkpt>
      <trkpt lat="48.71753" lon="7.26314">
        <ele>412.1</ele>
        <time>2020-05-23T09:13:44Z</time>
      </trkpt>
      <trkpt lat="48.71757" lon="7.26307">
        <ele>411</ele>
        <time>2020-05-23T09:13:46Z</time>
      </trkpt>
      <trkpt lat="48.71759" lon="7.26304">
        <ele>410.5</ele>
        <time>2020-05-23T09:13:47Z</time>
      </trkpt>
      <trkpt lat="48.71763" lon="7.26299">
        <ele>409.7</ele>
        <time>2020-05-23T09:13:49Z</time>
      </trkpt>
      <trkpt lat="48.71765" lon="7.26292">
        <ele>408.9</ele>
        <time>2020-05-23T09:13:51Z</time>
      </trkpt>
      <trkpt lat="48.71766" lon="7.26288">
        <ele>408.4</ele>
        <time>2020-05-23T09:13:52Z</time>
      </trkpt>
      <trkpt lat="48.71766" lon="7.26277">
        <ele>407.5</ele>
        <time>2020-05-23T09:13:54Z</time>
      </trkpt>
      <trkpt lat="48.71765" lon="7.26273">
        <ele>407.2</ele>
        <time>2020-05-23T09:13:55Z</time>
      </trkpt>
      <trkpt lat="48.71765" lon="7.26269">
        <ele>406.9</ele>
        <time>2020-05-23T09:13:56Z</time>
      </trkpt>
      <trkpt lat="48.71764" lon="7.26264">
        <ele>406.5</ele>
        <time>2020-05-23T09:13:57Z</time>
      </trkpt>
      <trkpt lat="48.71761" lon="7.26251">
        <ele>405.4</ele>
        <time>2020-05-23T09:13:59Z</time>
      </trkpt>
      <trkpt lat="48.71761" lon="7.26237">
        <ele>404.4</ele>
        <time>2020-05-23T09:14:01Z</time>
      </trkpt>
      <trkpt lat="48.71763" lon="7.2623">
        <ele>403.9</ele>
        <time>2020-05-23T09:14:02Z</time>
      </trkpt>
      <trkpt lat="48.71768" lon="7.26218">
        <ele>402.9</ele>
        <time>2020-05-23T09:14:04Z</time>
      </trkpt>
      <trkpt lat="48.7177" lon="7.26213">
        <ele>402.5</ele>
        <time>2020-05-23T09:14:05Z</time>
      </trkpt>
      <trkpt lat="48.71773" lon="7.26208">
        <ele>402.1</ele>
        <time>2020-05-23T09:14:06Z</time>
      </trkpt>
      <trkpt lat="48.71778" lon="7.26199">
        <ele>401.2</ele>
        <time>2020-05-23T09:14:08Z</time>
      </trkpt>
      <trkpt lat="48.71784" lon="7.26189">
        <ele>400.3</ele>
        <time>2020-05-23T09:14:10Z</time>
      </trkpt>
      <trkpt lat="48.71789" lon="7.26179">
        <ele>399.4</ele>
        <time>2020-05-23T09:14:12Z</time>
      </trkpt>
      <trkpt lat="48.71792" lon="7.26174">
        <ele>398.9</ele>
        <time>2020-05-23T09:14:13Z</time>
      </trkpt>
      <trkpt lat="48.71796" lon="7.26163">
        <ele>397.9</ele>
        <time>2020-05-23T09:14:15Z</time>
      </trkpt>
      <trkpt lat="48.718" lon="7.26153">
        <ele>397.1</ele>
        <time>2020-05-23T09:14:17Z</time>
      </trkpt>
      <trkpt lat="48.71801" lon="7.26149">
        <ele>396.8</ele>
        <time>2020-05-23T09:14:18Z</time>
      </trkpt>
      <trkpt lat="48.71804" lon="7.26144">
        <ele>396.2</ele>
        <time>2020-05-23T09:14:20Z</time>
      </trkpt>
      <trkpt lat="48.71804" lon="7.26142">
        <ele>396.1</ele>
        <time>2020-05-23T09:14:22Z</time>
      </trkpt>
      <trkpt lat="48.71804" lon="7.26142">
        <ele>396</ele>
        <time>2020-05-23T09:14:23Z</time>
      </trkpt>
      <trkpt lat="48.71803" lon="7.26142">
        <ele>395.9</ele>
        <time>2020-05-23T09:14:25Z</time>
      </trkpt>
      <trkpt lat="48.71803" lon="7.26142">
        <ele>395.9</ele>
        <time>2020-05-23T09:14:26Z</time>
      </trkpt>
      <trkpt lat="48.71806" lon="7.26141">
        <ele>395.6</ele>
        <time>2020-05-23T09:14:28Z</time>
      </trkpt>
      <trkpt lat="48.71811" lon="7.26142">
        <ele>395.3</ele>
        <time>2020-05-23T09:14:30Z</time>
      </trkpt>
      <trkpt lat="48.71814" lon="7.26144">
        <ele>395</ele>
        <time>2020-05-23T09:14:31Z</time>
      </trkpt>
      <trkpt lat="48.71816" lon="7.26145">
        <ele>394.9</ele>
        <time>2020-05-23T09:14:32Z</time>
      </trkpt>
      <trkpt lat="48.71819" lon="7.26147">
        <ele>394.7</ele>
        <time>2020-05-23T09:14:33Z</time>
      </trkpt>
      <trkpt lat="48.71826" lon="7.2615">
        <ele>394.1</ele>
        <time>2020-05-23T09:14:35Z</time>
      </trkpt>
      <trkpt lat="48.71835" lon="7.26152">
        <ele>393.2</ele>
        <time>2020-05-23T09:14:37Z</time>
      </trkpt>
      <trkpt lat="48.7184" lon="7.26154">
        <ele>392.6</ele>
        <time>2020-05-23T09:14:38Z</time>
      </trkpt>
      <trkpt lat="48.71845" lon="7.26157">
        <ele>392.1</ele>
        <time>2020-05-23T09:14:39Z</time>
      </trkpt>
      <trkpt lat="48.71853" lon="7.26158">
        <ele>391.1</ele>
        <time>2020-05-23T09:14:41Z</time>
      </trkpt>
      <trkpt lat="48.71857" lon="7.26158">
        <ele>390.7</ele>
        <time>2020-05-23T09:14:42Z</time>
      </trkpt>
      <trkpt lat="48.71861" lon="7.26157">
        <ele>390.2</ele>
        <time>2020-05-23T09:14:43Z</time>
      </trkpt>
      <trkpt lat="48.71865" lon="7.26155">
        <ele>389.8</ele>
        <time>2020-05-23T09:14:44Z</time>
      </trkpt>
      <trkpt lat="48.71871" lon="7.26144">
        <ele>388.4</ele>
        <time>2020-05-23T09:14:46Z</time>
      </trkpt>
      <trkpt lat="48.71874" lon="7.26135">
        <ele>387.9</ele>
        <time>2020-05-23T09:14:47Z</time>
      </trkpt>
      <trkpt lat="48.71877" lon="7.26126">
        <ele>387.5</ele>
        <time>2020-05-23T09:14:48Z</time>
      </trkpt>
      <trkpt lat="48.71884" lon="7.2611">
        <ele>386.8</ele>
        <time>2020-05-23T09:14:50Z</time>
      </trkpt>
      <trkpt lat="48.71889" lon="7.26104">
        <ele>386.5</ele>
        <time>2020-05-23T09:14:51Z</time>
      </trkpt>
      <trkpt lat="48.71893" lon="7.26098">
        <ele>386.2</ele>
        <time>2020-05-23T09:14:52Z</time>
      </trkpt>
      <trkpt lat="48.71904" lon="7.26086">
        <ele>385.7</ele>
        <time>2020-05-23T09:14:54Z</time>
      </trkpt>
      <trkpt lat="48.7191" lon="7.26081">
        <ele>385.4</ele>
        <time>2020-05-23T09:14:55Z</time>
      </trkpt>
      <trkpt lat="48.71922" lon="7.26073">
        <ele>385</ele>
        <time>2020-05-23T09:14:57Z</time>
      </trkpt>
      <trkpt lat="48.71928" lon="7.2607">
        <ele>384.7</ele>
        <time>2020-05-23T09:14:58Z</time>
      </trkpt>
      <trkpt lat="48.71934" lon="7.26066">
        <ele>384.4</ele>
        <time>2020-05-23T09:14:59Z</time>
      </trkpt>
      <trkpt lat="48.71945" lon="7.2606">
        <ele>383.9</ele>
        <time>2020-05-23T09:15:01Z</time>
      </trkpt>
      <trkpt lat="48.71951" lon="7.26057">
        <ele>383.6</ele>
        <time>2020-05-23T09:15:02Z</time>
      </trkpt>
      <trkpt lat="48.71964" lon="7.26052">
        <ele>383.1</ele>
        <time>2020-05-23T09:15:04Z</time>
      </trkpt>
      <trkpt lat="48.7197" lon="7.26048">
        <ele>382.8</ele>
        <time>2020-05-23T09:15:05Z</time>
      </trkpt>
      <trkpt lat="48.7198" lon="7.26039">
        <ele>382.6</ele>
        <time>2020-05-23T09:15:07Z</time>
      </trkpt>
      <trkpt lat="48.71991" lon="7.26032">
        <ele>382.3</ele>
        <time>2020-05-23T09:15:09Z</time>
      </trkpt>
      <trkpt lat="48.72003" lon="7.26025">
        <ele>382.2</ele>
        <time>2020-05-23T09:15:11Z</time>
      </trkpt>
      <trkpt lat="48.72016" lon="7.26017">
        <ele>382</ele>
        <time>2020-05-23T09:15:13Z</time>
      </trkpt>
      <trkpt lat="48.72023" lon="7.26012">
        <ele>381.9</ele>
        <time>2020-05-23T09:15:14Z</time>
      </trkpt>
      <trkpt lat="48.72035" lon="7.26005">
        <ele>381.9</ele>
        <time>2020-05-23T09:15:16Z</time>
      </trkpt>
      <trkpt lat="48.72042" lon="7.26003">
        <ele>382</ele>
        <time>2020-05-23T09:15:17Z</time>
      </trkpt>
      <trkpt lat="48.72053" lon="7.25999">
        <ele>382.3</ele>
        <time>2020-05-23T09:15:19Z</time>
      </trkpt>
      <trkpt lat="48.72058" lon="7.25997">
        <ele>382.6</ele>
        <time>2020-05-23T09:15:20Z</time>
      </trkpt>
      <trkpt lat="48.72069" lon="7.25997">
        <ele>382.9</ele>
        <time>2020-05-23T09:15:22Z</time>
      </trkpt>
      <trkpt lat="48.72079" lon="7.25997">
        <ele>383.3</ele>
        <time>2020-05-23T09:15:24Z</time>
      </trkpt>
      <trkpt lat="48.72084" lon="7.25998">
        <ele>383.5</ele>
        <time>2020-05-23T09:15:25Z</time>
      </trkpt>
      <trkpt lat="48.72093" lon="7.25997">
        <ele>383.9</ele>
        <time>2020-05-23T09:15:27Z</time>
      </trkpt>
      <trkpt lat="48.72097" lon="7.25997">
        <ele>384</ele>
        <time>2020-05-23T09:15:28Z</time>
      </trkpt>
      <trkpt lat="48.72105" lon="7.25996">
        <ele>384.3</ele>
        <time>2020-05-23T09:15:30Z</time>
      </trkpt>
      <trkpt lat="48.72109" lon="7.25995">
        <ele>384.5</ele>
        <time>2020-05-23T09:15:31Z</time>
      </trkpt>
      <trkpt lat="48.72117" lon="7.25993">
        <ele>384.8</ele>
        <time>2020-05-23T09:15:33Z</time>
      </trkpt>
      <trkpt lat="48.72123" lon="7.25991">
        <ele>385</ele>
        <time>2020-05-23T09:15:35Z</time>
      </trkpt>
      <trkpt lat="48.72126" lon="7.25991">
        <ele>385.2</ele>
        <time>2020-05-23T09:15:36Z</time>
      </trkpt>
      <trkpt lat="48.72129" lon="7.25991">
        <ele>385.3</ele>
        <time>2020-05-23T09:15:37Z</time>
      </trkpt>
      <trkpt lat="48.72136" lon="7.2599">
        <ele>385.6</ele>
        <time>2020-05-23T09:15:39Z</time>
      </trkpt>
      <trkpt lat="48.72143" lon="7.2599">
        <ele>385.9</ele>
        <time>2020-05-23T09:15:41Z</time>
      </trkpt>
      <trkpt lat="48.72148" lon="7.25989">
        <ele>386.1</ele>
        <time>2020-05-23T09:15:42Z</time>
      </trkpt>
      <trkpt lat="48.72152" lon="7.25988">
        <ele>386.3</ele>
        <time>2020-05-23T09:15:43Z</time>
      </trkpt>
      <trkpt lat="48.72158" lon="7.25986">
        <ele>386.5</ele>
        <time>2020-05-23T09:15:45Z</time>
      </trkpt>
      <trkpt lat="48.72166" lon="7.25982">
        <ele>386.9</ele>
        <time>2020-05-23T09:15:47Z</time>
      </trkpt>
      <trkpt lat="48.72169" lon="7.2598">
        <ele>387.1</ele>
        <time>2020-05-23T09:15:48Z</time>
      </trkpt>
      <trkpt lat="48.72173" lon="7.25977">
        <ele>387.3</ele>
        <time>2020-05-23T09:15:49Z</time>
      </trkpt>
      <trkpt lat="48.72179" lon="7.25971">
        <ele>387.5</ele>
        <time>2020-05-23T09:15:51Z</time>
      </trkpt>
      <trkpt lat="48.72182" lon="7.25968">
        <ele>387.7</ele>
        <time>2020-05-23T09:15:52Z</time>
      </trkpt>
      <trkpt lat="48.72188" lon="7.25961">
        <ele>388</ele>
        <time>2020-05-23T09:15:54Z</time>
      </trkpt>
      <trkpt lat="48.72191" lon="7.25957">
        <ele>388.1</ele>
        <time>2020-05-23T09:15:55Z</time>
      </trkpt>
      <trkpt lat="48.72193" lon="7.25953">
        <ele>388.2</ele>
        <time>2020-05-23T09:15:56Z</time>
      </trkpt>
      <trkpt lat="48.72198" lon="7.25945">
        <ele>388.3</ele>
        <time>2020-05-23T09:15:58Z</time>
      </trkpt>
      <trkpt lat="48.72204" lon="7.25937">
        <ele>388.4</ele>
        <time>2020-05-23T09:16:00Z</time>
      </trkpt>
      <trkpt lat="48.72207" lon="7.25933">
        <ele>388.4</ele>
        <time>2020-05-23T09:16:01Z</time>
      </trkpt>
      <trkpt lat="48.72213" lon="7.25925">
        <ele>388.3</ele>
        <time>2020-05-23T09:16:03Z</time>
      </trkpt>
      <trkpt lat="48.72221" lon="7.25917">
        <ele>388.2</ele>
        <time>2020-05-23T09:16:05Z</time>
      </trkpt>
      <trkpt lat="48.72225" lon="7.25912">
        <ele>388.1</ele>
        <time>2020-05-23T09:16:06Z</time>
      </trkpt>
      <trkpt lat="48.72229" lon="7.25908">
        <ele>388</ele>
        <time>2020-05-23T09:16:07Z</time>
      </trkpt>
      <trkpt lat="48.72233" lon="7.25904">
        <ele>387.9</ele>
        <time>2020-05-23T09:16:08Z</time>
      </trkpt>
      <trkpt lat="48.72237" lon="7.25899">
        <ele>387.8</ele>
        <time>2020-05-23T09:16:09Z</time>
      </trkpt>
      <trkpt lat="48.72246" lon="7.25889">
        <ele>387.6</ele>
        <time>2020-05-23T09:16:11Z</time>
      </trkpt>
      <trkpt lat="48.72255" lon="7.25881">
        <ele>387.4</ele>
        <time>2020-05-23T09:16:13Z</time>
      </trkpt>
      <trkpt lat="48.72259" lon="7.25879">
        <ele>387.4</ele>
        <time>2020-05-23T09:16:14Z</time>
      </trkpt>
      <trkpt lat="48.72268" lon="7.2588">
        <ele>387.2</ele>
        <time>2020-05-23T09:16:16Z</time>
      </trkpt>
      <trkpt lat="48.72272" lon="7.25882">
        <ele>387.2</ele>
        <time>2020-05-23T09:16:17Z</time>
      </trkpt>
      <trkpt lat="48.72276" lon="7.25884">
        <ele>387.4</ele>
        <time>2020-05-23T09:16:18Z</time>
      </trkpt>
      <trkpt lat="48.72279" lon="7.25885">
        <ele>387.4</ele>
        <time>2020-05-23T09:16:19Z</time>
      </trkpt>
      <trkpt lat="48.72286" lon="7.25886">
        <ele>387.6</ele>
        <time>2020-05-23T09:16:21Z</time>
      </trkpt>
      <trkpt lat="48.72293" lon="7.25884">
        <ele>387.8</ele>
        <time>2020-05-23T09:16:23Z</time>
      </trkpt>
      <trkpt lat="48.72297" lon="7.25883">
        <ele>387.9</ele>
        <time>2020-05-23T09:16:24Z</time>
      </trkpt>
      <trkpt lat="48.72303" lon="7.2588">
        <ele>388.2</ele>
        <time>2020-05-23T09:16:26Z</time>
      </trkpt>
      <trkpt lat="48.72309" lon="7.25877">
        <ele>388.4</ele>
        <time>2020-05-23T09:16:28Z</time>
      </trkpt>
      <trkpt lat="48.72315" lon="7.25876">
        <ele>388.6</ele>
        <time>2020-05-23T09:16:30Z</time>
      </trkpt>
      <trkpt lat="48.72317" lon="7.25875">
        <ele>388.7</ele>
        <time>2020-05-23T09:16:31Z</time>
      </trkpt>
      <trkpt lat="48.72318" lon="7.25875">
        <ele>388.7</ele>
        <time>2020-05-23T09:16:32Z</time>
      </trkpt>
      <trkpt lat="48.7232" lon="7.25875">
        <ele>388.8</ele>
        <time>2020-05-23T09:16:33Z</time>
      </trkpt>
      <trkpt lat="48.7232" lon="7.25875">
        <ele>388.8</ele>
        <time>2020-05-23T09:16:35Z</time>
      </trkpt>
      <trkpt lat="48.7232" lon="7.25876">
        <ele>388.8</ele>
        <time>2020-05-23T09:16:36Z</time>
      </trkpt>
      <trkpt lat="48.7232" lon="7.25875">
        <ele>388.8</ele>
        <time>2020-05-23T09:16:38Z</time>
      </trkpt>
      <trkpt lat="48.7232" lon="7.25875">
        <ele>388.8</ele>
        <time>2020-05-23T09:16:40Z</time>
      </trkpt>
      <trkpt lat="48.72321" lon="7.25875">
        <ele>388.9</ele>
        <time>2020-05-23T09:16:42Z</time>
      </trkpt>
      <trkpt lat="48.72321" lon="7.25875">
        <ele>388.9</ele>
        <time>2020-05-23T09:16:43Z</time>
      </trkpt>
      <trkpt lat="48.72321" lon="7.25875">
        <ele>388.9</ele>
        <time>2020-05-23T09:16:45Z</time>
      </trkpt>
      <trkpt lat="48.72321" lon="7.25875">
        <ele>388.9</ele>
        <time>2020-05-23T09:16:46Z</time>
      </trkpt>
      <trkpt lat="48.72324" lon="7.25873">
        <ele>389</ele>
        <time>2020-05-23T09:17:54Z</time>
      </trkpt>
      <trkpt lat="48.72325" lon="7.25873">
        <ele>389</ele>
        <time>2020-05-23T09:17:55Z</time>
      </trkpt>
      <trkpt lat="48.72325" lon="7.25873">
        <ele>389.1</ele>
        <time>2020-05-23T09:17:57Z</time>
      </trkpt>
      <trkpt lat="48.72326" lon="7.25875">
        <ele>389.1</ele>
        <time>2020-05-23T09:17:59Z</time>
      </trkpt>
      <trkpt lat="48.7233" lon="7.25876">
        <ele>389.3</ele>
        <time>2020-05-23T09:18:01Z</time>
      </trkpt>
      <trkpt lat="48.72332" lon="7.25876">
        <ele>389.4</ele>
        <time>2020-05-23T09:18:02Z</time>
      </trkpt>
      <trkpt lat="48.72336" lon="7.25876">
        <ele>389.6</ele>
        <time>2020-05-23T09:18:04Z</time>
      </trkpt>
      <trkpt lat="48.72339" lon="7.25877">
        <ele>389.7</ele>
        <time>2020-05-23T09:18:05Z</time>
      </trkpt>
      <trkpt lat="48.72344" lon="7.25877">
        <ele>390</ele>
        <time>2020-05-23T09:18:07Z</time>
      </trkpt>
      <trkpt lat="48.72348" lon="7.25875">
        <ele>390.3</ele>
        <time>2020-05-23T09:18:09Z</time>
      </trkpt>
      <trkpt lat="48.72351" lon="7.25875">
        <ele>390.5</ele>
        <time>2020-05-23T09:18:10Z</time>
      </trkpt>
      <trkpt lat="48.72355" lon="7.25877">
        <ele>390.8</ele>
        <time>2020-05-23T09:18:12Z</time>
      </trkpt>
      <trkpt lat="48.72357" lon="7.25878">
        <ele>390.9</ele>
        <time>2020-05-23T09:18:13Z</time>
      </trkpt>
      <trkpt lat="48.72361" lon="7.2588">
        <ele>391.2</ele>
        <time>2020-05-23T09:18:15Z</time>
      </trkpt>
      <trkpt lat="48.72365" lon="7.25881">
        <ele>391.5</ele>
        <time>2020-05-23T09:18:17Z</time>
      </trkpt>
      <trkpt lat="48.72368" lon="7.25882">
        <ele>391.6</ele>
        <time>2020-05-23T09:18:18Z</time>
      </trkpt>
      <trkpt lat="48.7237" lon="7.25883">
        <ele>391.8</ele>
        <time>2020-05-23T09:18:20Z</time>
      </trkpt>
      <trkpt lat="48.72372" lon="7.25883">
        <ele>391.9</ele>
        <time>2020-05-23T09:18:21Z</time>
      </trkpt>
      <trkpt lat="48.72376" lon="7.25883">
        <ele>392.2</ele>
        <time>2020-05-23T09:18:23Z</time>
      </trkpt>
      <trkpt lat="48.72381" lon="7.25882">
        <ele>392.5</ele>
        <time>2020-05-23T09:18:25Z</time>
      </trkpt>
      <trkpt lat="48.72386" lon="7.25883">
        <ele>393</ele>
        <time>2020-05-23T09:18:27Z</time>
      </trkpt>
      <trkpt lat="48.72389" lon="7.25883">
        <ele>393.2</ele>
        <time>2020-05-23T09:18:28Z</time>
      </trkpt>
      <trkpt lat="48.72392" lon="7.25884">
        <ele>393.4</ele>
        <time>2020-05-23T09:18:29Z</time>
      </trkpt>
      <trkpt lat="48.72396" lon="7.25883">
        <ele>393.7</ele>
        <time>2020-05-23T09:18:31Z</time>
      </trkpt>
      <trkpt lat="48.724" lon="7.25883">
        <ele>394</ele>
        <time>2020-05-23T09:18:33Z</time>
      </trkpt>
      <trkpt lat="48.72405" lon="7.25882">
        <ele>394.3</ele>
        <time>2020-05-23T09:18:35Z</time>
      </trkpt>
      <trkpt lat="48.72408" lon="7.25881">
        <ele>394.6</ele>
        <time>2020-05-23T09:18:37Z</time>
      </trkpt>
      <trkpt lat="48.72413" lon="7.25879">
        <ele>394.9</ele>
        <time>2020-05-23T09:18:39Z</time>
      </trkpt>
      <trkpt lat="48.72416" lon="7.25879">
        <ele>395.1</ele>
        <time>2020-05-23T09:18:40Z</time>
      </trkpt>
      <trkpt lat="48.72422" lon="7.25879">
        <ele>395.4</ele>
        <time>2020-05-23T09:18:42Z</time>
      </trkpt>
      <trkpt lat="48.72428" lon="7.2588">
        <ele>395.7</ele>
        <time>2020-05-23T09:18:44Z</time>
      </trkpt>
      <trkpt lat="48.72433" lon="7.25882">
        <ele>395.9</ele>
        <time>2020-05-23T09:18:46Z</time>
      </trkpt>
      <trkpt lat="48.72439" lon="7.25884">
        <ele>396.1</ele>
        <time>2020-05-23T09:18:48Z</time>
      </trkpt>
      <trkpt lat="48.72441" lon="7.25885">
        <ele>396.2</ele>
        <time>2020-05-23T09:18:49Z</time>
      </trkpt>
      <trkpt lat="48.72446" lon="7.25887">
        <ele>396.4</ele>
        <time>2020-05-23T09:18:51Z</time>
      </trkpt>
      <trkpt lat="48.7245" lon="7.25885">
        <ele>396.6</ele>
        <time>2020-05-23T09:18:53Z</time>
      </trkpt>
      <trkpt lat="48.72453" lon="7.25883">
        <ele>396.7</ele>
        <time>2020-05-23T09:18:54Z</time>
      </trkpt>
      <trkpt lat="48.72457" lon="7.25879">
        <ele>396.9</ele>
        <time>2020-05-23T09:18:56Z</time>
      </trkpt>
      <trkpt lat="48.7246" lon="7.25877">
        <ele>397</ele>
        <time>2020-05-23T09:18:57Z</time>
      </trkpt>
      <trkpt lat="48.72461" lon="7.25877">
        <ele>397</ele>
        <time>2020-05-23T09:18:58Z</time>
      </trkpt>
      <trkpt lat="48.72468" lon="7.25873">
        <ele>397.1</ele>
        <time>2020-05-23T09:19:00Z</time>
      </trkpt>
      <trkpt lat="48.72474" lon="7.25871">
        <ele>397.1</ele>
        <time>2020-05-23T09:19:02Z</time>
      </trkpt>
      <trkpt lat="48.72477" lon="7.25868">
        <ele>397.1</ele>
        <time>2020-05-23T09:19:03Z</time>
      </trkpt>
      <trkpt lat="48.72483" lon="7.25862">
        <ele>397.2</ele>
        <time>2020-05-23T09:19:05Z</time>
      </trkpt>
      <trkpt lat="48.72487" lon="7.25859">
        <ele>397.2</ele>
        <time>2020-05-23T09:19:06Z</time>
      </trkpt>
      <trkpt lat="48.72491" lon="7.25856">
        <ele>397.2</ele>
        <time>2020-05-23T09:19:07Z</time>
      </trkpt>
      <trkpt lat="48.72498" lon="7.25851">
        <ele>397.3</ele>
        <time>2020-05-23T09:19:09Z</time>
      </trkpt>
      <trkpt lat="48.72502" lon="7.25848">
        <ele>397.3</ele>
        <time>2020-05-23T09:19:11Z</time>
      </trkpt>
      <trkpt lat="48.72508" lon="7.25846">
        <ele>397.3</ele>
        <time>2020-05-23T09:19:13Z</time>
      </trkpt>
      <trkpt lat="48.72512" lon="7.25844">
        <ele>397.3</ele>
        <time>2020-05-23T09:19:14Z</time>
      </trkpt>
      <trkpt lat="48.72514" lon="7.25843">
        <ele>397.3</ele>
        <time>2020-05-23T09:19:15Z</time>
      </trkpt>
      <trkpt lat="48.72522" lon="7.25839">
        <ele>397.4</ele>
        <time>2020-05-23T09:19:17Z</time>
      </trkpt>
      <trkpt lat="48.72525" lon="7.25838">
        <ele>397.4</ele>
        <time>2020-05-23T09:19:18Z</time>
      </trkpt>
      <trkpt lat="48.72531" lon="7.25835">
        <ele>397.4</ele>
        <time>2020-05-23T09:19:20Z</time>
      </trkpt>
      <trkpt lat="48.72536" lon="7.2583">
        <ele>397.3</ele>
        <time>2020-05-23T09:19:22Z</time>
      </trkpt>
      <trkpt lat="48.72543" lon="7.25826">
        <ele>397.3</ele>
        <time>2020-05-23T09:19:24Z</time>
      </trkpt>
      <trkpt lat="48.72547" lon="7.25825">
        <ele>397.3</ele>
        <time>2020-05-23T09:19:25Z</time>
      </trkpt>
      <trkpt lat="48.72551" lon="7.25824">
        <ele>397.3</ele>
        <time>2020-05-23T09:19:26Z</time>
      </trkpt>
      <trkpt lat="48.72555" lon="7.25823">
        <ele>397.3</ele>
        <time>2020-05-23T09:19:27Z</time>
      </trkpt>
      <trkpt lat="48.72562" lon="7.25819">
        <ele>397.1</ele>
        <time>2020-05-23T09:19:29Z</time>
      </trkpt>
      <trkpt lat="48.7257" lon="7.25816">
        <ele>397</ele>
        <time>2020-05-23T09:19:31Z</time>
      </trkpt>
      <trkpt lat="48.72578" lon="7.25815">
        <ele>396.7</ele>
        <time>2020-05-23T09:19:33Z</time>
      </trkpt>
      <trkpt lat="48.72582" lon="7.25815">
        <ele>396.5</ele>
        <time>2020-05-23T09:19:34Z</time>
      </trkpt>
      <trkpt lat="48.7259" lon="7.25817">
        <ele>396.1</ele>
        <time>2020-05-23T09:19:36Z</time>
      </trkpt>
      <trkpt lat="48.72593" lon="7.25817">
        <ele>396</ele>
        <time>2020-05-23T09:19:37Z</time>
      </trkpt>
      <trkpt lat="48.72601" lon="7.25816">
        <ele>395.6</ele>
        <time>2020-05-23T09:19:39Z</time>
      </trkpt>
      <trkpt lat="48.72606" lon="7.25816">
        <ele>395.3</ele>
        <time>2020-05-23T09:19:40Z</time>
      </trkpt>
      <trkpt lat="48.72613" lon="7.25816">
        <ele>394.9</ele>
        <time>2020-05-23T09:19:42Z</time>
      </trkpt>
      <trkpt lat="48.7262" lon="7.25816">
        <ele>394.5</ele>
        <time>2020-05-23T09:19:43Z</time>
      </trkpt>
      <trkpt lat="48.72626" lon="7.25817">
        <ele>394.2</ele>
        <time>2020-05-23T09:19:44Z</time>
      </trkpt>
      <trkpt lat="48.72631" lon="7.25818">
        <ele>393.9</ele>
        <time>2020-05-23T09:19:45Z</time>
      </trkpt>
      <trkpt lat="48.72642" lon="7.2582">
        <ele>393.4</ele>
        <time>2020-05-23T09:19:47Z</time>
      </trkpt>
      <trkpt lat="48.72652" lon="7.2582">
        <ele>392.7</ele>
        <time>2020-05-23T09:19:49Z</time>
      </trkpt>
      <trkpt lat="48.72663" lon="7.25819">
        <ele>391.9</ele>
        <time>2020-05-23T09:19:51Z</time>
      </trkpt>
      <trkpt lat="48.72667" lon="7.25819">
        <ele>391.5</ele>
        <time>2020-05-23T09:19:52Z</time>
      </trkpt>
      <trkpt lat="48.7267" lon="7.25819">
        <ele>391.1</ele>
        <time>2020-05-23T09:19:53Z</time>
      </trkpt>
      <trkpt lat="48.72678" lon="7.25819">
        <ele>390.3</ele>
        <time>2020-05-23T09:19:55Z</time>
      </trkpt>
      <trkpt lat="48.72682" lon="7.25819">
        <ele>389.7</ele>
        <time>2020-05-23T09:19:56Z</time>
      </trkpt>
      <trkpt lat="48.72691" lon="7.25818">
        <ele>388.7</ele>
        <time>2020-05-23T09:19:58Z</time>
      </trkpt>
      <trkpt lat="48.72704" lon="7.25818">
        <ele>387.3</ele>
        <time>2020-05-23T09:20:00Z</time>
      </trkpt>
      <trkpt lat="48.72712" lon="7.25818">
        <ele>386.3</ele>
        <time>2020-05-23T09:20:01Z</time>
      </trkpt>
      <trkpt lat="48.72719" lon="7.25818">
        <ele>385.6</ele>
        <time>2020-05-23T09:20:02Z</time>
      </trkpt>
      <trkpt lat="48.72729" lon="7.25819">
        <ele>384.5</ele>
        <time>2020-05-23T09:20:04Z</time>
      </trkpt>
      <trkpt lat="48.72734" lon="7.2582">
        <ele>383.9</ele>
        <time>2020-05-23T09:20:05Z</time>
      </trkpt>
      <trkpt lat="48.72744" lon="7.25822">
        <ele>383.1</ele>
        <time>2020-05-23T09:20:07Z</time>
      </trkpt>
      <trkpt lat="48.72753" lon="7.25822">
        <ele>382.3</ele>
        <time>2020-05-23T09:20:09Z</time>
      </trkpt>
      <trkpt lat="48.72757" lon="7.25823">
        <ele>382</ele>
        <time>2020-05-23T09:20:10Z</time>
      </trkpt>
      <trkpt lat="48.72766" lon="7.25823">
        <ele>381.4</ele>
        <time>2020-05-23T09:20:12Z</time>
      </trkpt>
      <trkpt lat="48.7277" lon="7.25827">
        <ele>381.1</ele>
        <time>2020-05-23T09:20:14Z</time>
      </trkpt>
      <trkpt lat="48.72772" lon="7.2583">
        <ele>380.9</ele>
        <time>2020-05-23T09:20:15Z</time>
      </trkpt>
      <trkpt lat="48.72773" lon="7.25831">
        <ele>380.9</ele>
        <time>2020-05-23T09:20:16Z</time>
      </trkpt>
      <trkpt lat="48.7278" lon="7.25833">
        <ele>380.5</ele>
        <time>2020-05-23T09:20:18Z</time>
      </trkpt>
      <trkpt lat="48.72788" lon="7.25833">
        <ele>380.2</ele>
        <time>2020-05-23T09:20:20Z</time>
      </trkpt>
      <trkpt lat="48.72791" lon="7.25831">
        <ele>380</ele>
        <time>2020-05-23T09:20:21Z</time>
      </trkpt>
      <trkpt lat="48.72797" lon="7.25825">
        <ele>379.7</ele>
        <time>2020-05-23T09:20:23Z</time>
      </trkpt>
      <trkpt lat="48.72807" lon="7.25821">
        <ele>379.3</ele>
        <time>2020-05-23T09:20:25Z</time>
      </trkpt>
      <trkpt lat="48.7282" lon="7.25823">
        <ele>378.3</ele>
        <time>2020-05-23T09:20:27Z</time>
      </trkpt>
      <trkpt lat="48.72829" lon="7.25824">
        <ele>377.5</ele>
        <time>2020-05-23T09:20:28Z</time>
      </trkpt>
      <trkpt lat="48.72836" lon="7.25824">
        <ele>376.8</ele>
        <time>2020-05-23T09:20:29Z</time>
      </trkpt>
      <trkpt lat="48.72849" lon="7.25823">
        <ele>375.8</ele>
        <time>2020-05-23T09:20:31Z</time>
      </trkpt>
      <trkpt lat="48.72861" lon="7.25823">
        <ele>374.9</ele>
        <time>2020-05-23T09:20:33Z</time>
      </trkpt>
      <trkpt lat="48.7287" lon="7.25823">
        <ele>374.3</ele>
        <time>2020-05-23T09:20:35Z</time>
      </trkpt>
      <trkpt lat="48.72874" lon="7.25824">
        <ele>374</ele>
        <time>2020-05-23T09:20:36Z</time>
      </trkpt>
      <trkpt lat="48.72879" lon="7.25825">
        <ele>373.7</ele>
        <time>2020-05-23T09:20:37Z</time>
      </trkpt>
      <trkpt lat="48.72886" lon="7.25827">
        <ele>373.3</ele>
        <time>2020-05-23T09:20:38Z</time>
      </trkpt>
      <trkpt lat="48.72892" lon="7.25829">
        <ele>372.9</ele>
        <time>2020-05-23T09:20:39Z</time>
      </trkpt>
      <trkpt lat="48.72898" lon="7.2583">
        <ele>372.6</ele>
        <time>2020-05-23T09:20:41Z</time>
      </trkpt>
      <trkpt lat="48.72899" lon="7.2583">
        <ele>372.5</ele>
        <time>2020-05-23T09:20:43Z</time>
      </trkpt>
      <trkpt lat="48.72899" lon="7.2583">
        <ele>372.5</ele>
        <time>2020-05-23T09:20:44Z</time>
      </trkpt>
      <trkpt lat="48.72901" lon="7.2583">
        <ele>372.4</ele>
        <time>2020-05-23T09:20:46Z</time>
      </trkpt>
      <trkpt lat="48.72901" lon="7.25829">
        <ele>372.3</ele>
        <time>2020-05-23T09:20:49Z</time>
      </trkpt>
      <trkpt lat="48.729" lon="7.25829">
        <ele>372.3</ele>
        <time>2020-05-23T09:20:50Z</time>
      </trkpt>
      <trkpt lat="48.729" lon="7.25829">
        <ele>372.3</ele>
        <time>2020-05-23T09:20:51Z</time>
      </trkpt>
      <trkpt lat="48.72901" lon="7.25829">
        <ele>372.2</ele>
        <time>2020-05-23T09:20:53Z</time>
      </trkpt>
      <trkpt lat="48.72901" lon="7.25829">
        <ele>372.1</ele>
        <time>2020-05-23T09:20:55Z</time>
      </trkpt>
      <trkpt lat="48.72902" lon="7.25828">
        <ele>372.1</ele>
        <time>2020-05-23T09:20:56Z</time>
      </trkpt>
      <trkpt lat="48.72903" lon="7.25827">
        <ele>372</ele>
        <time>2020-05-23T09:20:57Z</time>
      </trkpt>
      <trkpt lat="48.72908" lon="7.25825">
        <ele>371.7</ele>
        <time>2020-05-23T09:20:59Z</time>
      </trkpt>
      <trkpt lat="48.72912" lon="7.25825">
        <ele>371.4</ele>
        <time>2020-05-23T09:21:00Z</time>
      </trkpt>
      <trkpt lat="48.72918" lon="7.25822">
        <ele>370.9</ele>
        <time>2020-05-23T09:21:02Z</time>
      </trkpt>
      <trkpt lat="48.72925" lon="7.25818">
        <ele>370.2</ele>
        <time>2020-05-23T09:21:04Z</time>
      </trkpt>
      <trkpt lat="48.72933" lon="7.25814">
        <ele>369.5</ele>
        <time>2020-05-23T09:21:06Z</time>
      </trkpt>
      <trkpt lat="48.72942" lon="7.25808">
        <ele>368.5</ele>
        <time>2020-05-23T09:21:08Z</time>
      </trkpt>
      <trkpt lat="48.72948" lon="7.25805">
        <ele>367.9</ele>
        <time>2020-05-23T09:21:09Z</time>
      </trkpt>
      <trkpt lat="48.72953" lon="7.25802">
        <ele>367.4</ele>
        <time>2020-05-23T09:21:10Z</time>
      </trkpt>
      <trkpt lat="48.72955" lon="7.258">
        <ele>367.2</ele>
        <time>2020-05-23T09:21:11Z</time>
      </trkpt>
      <trkpt lat="48.72962" lon="7.25794">
        <ele>366.4</ele>
        <time>2020-05-23T09:21:13Z</time>
      </trkpt>
      <trkpt lat="48.72966" lon="7.2579">
        <ele>366</ele>
        <time>2020-05-23T09:21:14Z</time>
      </trkpt>
      <trkpt lat="48.72972" lon="7.25786">
        <ele>365.3</ele>
        <time>2020-05-23T09:21:16Z</time>
      </trkpt>
      <trkpt lat="48.72977" lon="7.25781">
        <ele>364.7</ele>
        <time>2020-05-23T09:21:18Z</time>
      </trkpt>
      <trkpt lat="48.7298" lon="7.25776">
        <ele>364.2</ele>
        <time>2020-05-23T09:21:19Z</time>
      </trkpt>
      <trkpt lat="48.72987" lon="7.2577">
        <ele>363.2</ele>
        <time>2020-05-23T09:21:21Z</time>
      </trkpt>
      <trkpt lat="48.72991" lon="7.25766">
        <ele>362.5</ele>
        <time>2020-05-23T09:21:23Z</time>
      </trkpt>
      <trkpt lat="48.72995" lon="7.25759">
        <ele>361.5</ele>
        <time>2020-05-23T09:21:25Z</time>
      </trkpt>
      <trkpt lat="48.72998" lon="7.25755">
        <ele>360.8</ele>
        <time>2020-05-23T09:21:26Z</time>
      </trkpt>
      <trkpt lat="48.73003" lon="7.2575">
        <ele>359.8</ele>
        <time>2020-05-23T09:21:28Z</time>
      </trkpt>
      <trkpt lat="48.73006" lon="7.25747">
        <ele>359.1</ele>
        <time>2020-05-23T09:21:29Z</time>
      </trkpt>
      <trkpt lat="48.73007" lon="7.25745">
        <ele>358.8</ele>
        <time>2020-05-23T09:21:30Z</time>
      </trkpt>
      <trkpt lat="48.73014" lon="7.2574">
        <ele>357.4</ele>
        <time>2020-05-23T09:21:32Z</time>
      </trkpt>
      <trkpt lat="48.73022" lon="7.25733">
        <ele>355.9</ele>
        <time>2020-05-23T09:21:34Z</time>
      </trkpt>
      <trkpt lat="48.73025" lon="7.2573">
        <ele>355.2</ele>
        <time>2020-05-23T09:21:35Z</time>
      </trkpt>
      <trkpt lat="48.73029" lon="7.25726">
        <ele>354.5</ele>
        <time>2020-05-23T09:21:36Z</time>
      </trkpt>
      <trkpt lat="48.73031" lon="7.25722">
        <ele>353.9</ele>
        <time>2020-05-23T09:21:37Z</time>
      </trkpt>
      <trkpt lat="48.73034" lon="7.25719">
        <ele>353.5</ele>
        <time>2020-05-23T09:21:38Z</time>
      </trkpt>
      <trkpt lat="48.73037" lon="7.25715">
        <ele>352.8</ele>
        <time>2020-05-23T09:21:40Z</time>
      </trkpt>
      <trkpt lat="48.73041" lon="7.2571">
        <ele>352.1</ele>
        <time>2020-05-23T09:21:42Z</time>
      </trkpt>
      <trkpt lat="48.73043" lon="7.25707">
        <ele>351.7</ele>
        <time>2020-05-23T09:21:43Z</time>
      </trkpt>
      <trkpt lat="48.73048" lon="7.257">
        <ele>350.7</ele>
        <time>2020-05-23T09:21:45Z</time>
      </trkpt>
      <trkpt lat="48.73051" lon="7.25694">
        <ele>349.9</ele>
        <time>2020-05-23T09:21:47Z</time>
      </trkpt>
      <trkpt lat="48.73053" lon="7.25691">
        <ele>349.4</ele>
        <time>2020-05-23T09:21:48Z</time>
      </trkpt>
      <trkpt lat="48.73055" lon="7.25688">
        <ele>349</ele>
        <time>2020-05-23T09:21:49Z</time>
      </trkpt>
      <trkpt lat="48.73059" lon="7.25683">
        <ele>348.2</ele>
        <time>2020-05-23T09:21:51Z</time>
      </trkpt>
      <trkpt lat="48.73061" lon="7.2568">
        <ele>347.7</ele>
        <time>2020-05-23T09:21:53Z</time>
      </trkpt>
      <trkpt lat="48.73064" lon="7.25678">
        <ele>347.3</ele>
        <time>2020-05-23T09:21:54Z</time>
      </trkpt>
      <trkpt lat="48.73067" lon="7.25674">
        <ele>346.5</ele>
        <time>2020-05-23T09:21:56Z</time>
      </trkpt>
      <trkpt lat="48.7307" lon="7.25667">
        <ele>345.7</ele>
        <time>2020-05-23T09:21:58Z</time>
      </trkpt>
      <trkpt lat="48.73071" lon="7.25664">
        <ele>345.1</ele>
        <time>2020-05-23T09:21:59Z</time>
      </trkpt>
      <trkpt lat="48.73073" lon="7.2566">
        <ele>344.5</ele>
        <time>2020-05-23T09:22:00Z</time>
      </trkpt>
      <trkpt lat="48.73079" lon="7.25653">
        <ele>343.1</ele>
        <time>2020-05-23T09:22:02Z</time>
      </trkpt>
      <trkpt lat="48.73081" lon="7.25651">
        <ele>342.5</ele>
        <time>2020-05-23T09:22:03Z</time>
      </trkpt>
      <trkpt lat="48.73083" lon="7.25647">
        <ele>341.8</ele>
        <time>2020-05-23T09:22:04Z</time>
      </trkpt>
      <trkpt lat="48.73085" lon="7.25644">
        <ele>341.3</ele>
        <time>2020-05-23T09:22:05Z</time>
      </trkpt>
      <trkpt lat="48.73086" lon="7.25641">
        <ele>340.7</ele>
        <time>2020-05-23T09:22:06Z</time>
      </trkpt>
      <trkpt lat="48.73089" lon="7.25635">
        <ele>339.8</ele>
        <time>2020-05-23T09:22:08Z</time>
      </trkpt>
      <trkpt lat="48.73093" lon="7.25629">
        <ele>338.7</ele>
        <time>2020-05-23T09:22:10Z</time>
      </trkpt>
      <trkpt lat="48.73097" lon="7.25621">
        <ele>336.6</ele>
        <time>2020-05-23T09:22:12Z</time>
      </trkpt>
      <trkpt lat="48.73099" lon="7.25615">
        <ele>335.8</ele>
        <time>2020-05-23T09:22:14Z</time>
      </trkpt>
      <trkpt lat="48.73103" lon="7.25608">
        <ele>334.8</ele>
        <time>2020-05-23T09:22:16Z</time>
      </trkpt>
      <trkpt lat="48.73106" lon="7.25603">
        <ele>333.9</ele>
        <time>2020-05-23T09:22:18Z</time>
      </trkpt>
      <trkpt lat="48.73109" lon="7.25601">
        <ele>333.5</ele>
        <time>2020-05-23T09:22:20Z</time>
      </trkpt>
      <trkpt lat="48.73113" lon="7.25601">
        <ele>332.7</ele>
        <time>2020-05-23T09:22:22Z</time>
      </trkpt>
      <trkpt lat="48.73119" lon="7.25598">
        <ele>331.7</ele>
        <time>2020-05-23T09:22:24Z</time>
      </trkpt>
      <trkpt lat="48.73121" lon="7.25595">
        <ele>331.1</ele>
        <time>2020-05-23T09:22:25Z</time>
      </trkpt>
      <trkpt lat="48.73121" lon="7.25594">
        <ele>330.9</ele>
        <time>2020-05-23T09:22:26Z</time>
      </trkpt>
      <trkpt lat="48.73124" lon="7.2559">
        <ele>330.3</ele>
        <time>2020-05-23T09:22:28Z</time>
      </trkpt>
      <trkpt lat="48.73126" lon="7.25588">
        <ele>329.9</ele>
        <time>2020-05-23T09:22:29Z</time>
      </trkpt>
      <trkpt lat="48.7313" lon="7.25584">
        <ele>329</ele>
        <time>2020-05-23T09:22:31Z</time>
      </trkpt>
      <trkpt lat="48.73135" lon="7.25582">
        <ele>328.1</ele>
        <time>2020-05-23T09:22:33Z</time>
      </trkpt>
      <trkpt lat="48.73137" lon="7.25581">
        <ele>327.6</ele>
        <time>2020-05-23T09:22:34Z</time>
      </trkpt>
      <trkpt lat="48.73143" lon="7.25582">
        <ele>326.6</ele>
        <time>2020-05-23T09:22:36Z</time>
      </trkpt>
      <trkpt lat="48.73145" lon="7.25582">
        <ele>326.2</ele>
        <time>2020-05-23T09:22:37Z</time>
      </trkpt>
      <trkpt lat="48.73148" lon="7.25579">
        <ele>325.5</ele>
        <time>2020-05-23T09:22:39Z</time>
      </trkpt>
      <trkpt lat="48.73149" lon="7.25578">
        <ele>325.2</ele>
        <time>2020-05-23T09:22:40Z</time>
      </trkpt>
      <trkpt lat="48.73151" lon="7.25577">
        <ele>324.7</ele>
        <time>2020-05-23T09:22:42Z</time>
      </trkpt>
      <trkpt lat="48.73153" lon="7.25575">
        <ele>324.3</ele>
        <time>2020-05-23T09:22:43Z</time>
      </trkpt>
      <trkpt lat="48.73154" lon="7.25573">
        <ele>323.8</ele>
        <time>2020-05-23T09:22:45Z</time>
      </trkpt>
      <trkpt lat="48.73157" lon="7.25571">
        <ele>323</ele>
        <time>2020-05-23T09:22:47Z</time>
      </trkpt>
      <trkpt lat="48.73159" lon="7.25571">
        <ele>322.6</ele>
        <time>2020-05-23T09:22:48Z</time>
      </trkpt>
      <trkpt lat="48.73163" lon="7.25568">
        <ele>321.7</ele>
        <time>2020-05-23T09:22:50Z</time>
      </trkpt>
      <trkpt lat="48.73167" lon="7.25567">
        <ele>320.7</ele>
        <time>2020-05-23T09:22:52Z</time>
      </trkpt>
      <trkpt lat="48.73169" lon="7.25567">
        <ele>320.2</ele>
        <time>2020-05-23T09:22:53Z</time>
      </trkpt>
      <trkpt lat="48.7317" lon="7.25567">
        <ele>320</ele>
        <time>2020-05-23T09:22:55Z</time>
      </trkpt>
      <trkpt lat="48.73171" lon="7.25567">
        <ele>319.8</ele>
        <time>2020-05-23T09:22:56Z</time>
      </trkpt>
      <trkpt lat="48.73174" lon="7.25568">
        <ele>319.2</ele>
        <time>2020-05-23T09:22:58Z</time>
      </trkpt>
      <trkpt lat="48.73175" lon="7.25569">
        <ele>318.9</ele>
        <time>2020-05-23T09:22:59Z</time>
      </trkpt>
      <trkpt lat="48.7318" lon="7.25571">
        <ele>318</ele>
        <time>2020-05-23T09:23:01Z</time>
      </trkpt>
      <trkpt lat="48.73183" lon="7.25569">
        <ele>317.4</ele>
        <time>2020-05-23T09:23:03Z</time>
      </trkpt>
      <trkpt lat="48.73185" lon="7.25564">
        <ele>316.7</ele>
        <time>2020-05-23T09:23:05Z</time>
      </trkpt>
      <trkpt lat="48.73188" lon="7.25559">
        <ele>315.8</ele>
        <time>2020-05-23T09:23:07Z</time>
      </trkpt>
      <trkpt lat="48.7319" lon="7.25556">
        <ele>315.5</ele>
        <time>2020-05-23T09:23:08Z</time>
      </trkpt>
      <trkpt lat="48.73192" lon="7.25552">
        <ele>314.8</ele>
        <time>2020-05-23T09:23:10Z</time>
      </trkpt>
      <trkpt lat="48.73193" lon="7.25549">
        <ele>314.4</ele>
        <time>2020-05-23T09:23:11Z</time>
      </trkpt>
      <trkpt lat="48.73197" lon="7.25544">
        <ele>313.7</ele>
        <time>2020-05-23T09:23:13Z</time>
      </trkpt>
      <trkpt lat="48.73199" lon="7.25536">
        <ele>312.8</ele>
        <time>2020-05-23T09:23:15Z</time>
      </trkpt>
      <trkpt lat="48.732" lon="7.2553">
        <ele>312.2</ele>
        <time>2020-05-23T09:23:16Z</time>
      </trkpt>
      <trkpt lat="48.73201" lon="7.2552">
        <ele>311.4</ele>
        <time>2020-05-23T09:23:18Z</time>
      </trkpt>
      <trkpt lat="48.73201" lon="7.25518">
        <ele>311.2</ele>
        <time>2020-05-23T09:23:19Z</time>
      </trkpt>
      <trkpt lat="48.73203" lon="7.2551">
        <ele>310.6</ele>
        <time>2020-05-23T09:23:21Z</time>
      </trkpt>
      <trkpt lat="48.73204" lon="7.25504">
        <ele>310.1</ele>
        <time>2020-05-23T09:23:22Z</time>
      </trkpt>
      <trkpt lat="48.73206" lon="7.25492">
        <ele>309.2</ele>
        <time>2020-05-23T09:23:24Z</time>
      </trkpt>
      <trkpt lat="48.73208" lon="7.25484">
        <ele>308.4</ele>
        <time>2020-05-23T09:23:26Z</time>
      </trkpt>
      <trkpt lat="48.73211" lon="7.25478">
        <ele>307.9</ele>
        <time>2020-05-23T09:23:28Z</time>
      </trkpt>
      <trkpt lat="48.73213" lon="7.25473">
        <ele>307.3</ele>
        <time>2020-05-23T09:23:30Z</time>
      </trkpt>
      <trkpt lat="48.73215" lon="7.25469">
        <ele>307.2</ele>
        <time>2020-05-23T09:23:31Z</time>
      </trkpt>
      <trkpt lat="48.73216" lon="7.25468">
        <ele>307.1</ele>
        <time>2020-05-23T09:23:32Z</time>
      </trkpt>
      <trkpt lat="48.73218" lon="7.25465">
        <ele>307</ele>
        <time>2020-05-23T09:23:33Z</time>
      </trkpt>
      <trkpt lat="48.7322" lon="7.25455">
        <ele>306.5</ele>
        <time>2020-05-23T09:23:35Z</time>
      </trkpt>
      <trkpt lat="48.73221" lon="7.25445">
        <ele>306.1</ele>
        <time>2020-05-23T09:23:37Z</time>
      </trkpt>
      <trkpt lat="48.73221" lon="7.25441">
        <ele>306</ele>
        <time>2020-05-23T09:23:38Z</time>
      </trkpt>
      <trkpt lat="48.73221" lon="7.25434">
        <ele>305.7</ele>
        <time>2020-05-23T09:23:40Z</time>
      </trkpt>
      <trkpt lat="48.73222" lon="7.2543">
        <ele>304.6</ele>
        <time>2020-05-23T09:23:41Z</time>
      </trkpt>
      <trkpt lat="48.73223" lon="7.25428">
        <ele>304.5</ele>
        <time>2020-05-23T09:23:42Z</time>
      </trkpt>
      <trkpt lat="48.73226" lon="7.25424">
        <ele>304.1</ele>
        <time>2020-05-23T09:23:44Z</time>
      </trkpt>
      <trkpt lat="48.73228" lon="7.25423">
        <ele>304</ele>
        <time>2020-05-23T09:23:45Z</time>
      </trkpt>
      <trkpt lat="48.7323" lon="7.25423">
        <ele>303.8</ele>
        <time>2020-05-23T09:23:47Z</time>
      </trkpt>
      <trkpt lat="48.73231" lon="7.25425">
        <ele>303.7</ele>
        <time>2020-05-23T09:23:48Z</time>
      </trkpt>
      <trkpt lat="48.73232" lon="7.25426">
        <ele>303.6</ele>
        <time>2020-05-23T09:23:50Z</time>
      </trkpt>
      <trkpt lat="48.73232" lon="7.25427">
        <ele>303.5</ele>
        <time>2020-05-23T09:23:51Z</time>
      </trkpt>
      <trkpt lat="48.73233" lon="7.25427">
        <ele>303.5</ele>
        <time>2020-05-23T09:23:52Z</time>
      </trkpt>
      <trkpt lat="48.73233" lon="7.25427">
        <ele>303.5</ele>
        <time>2020-05-23T09:23:54Z</time>
      </trkpt>
      <trkpt lat="48.73234" lon="7.25428">
        <ele>303.4</ele>
        <time>2020-05-23T09:23:56Z</time>
      </trkpt>
      <trkpt lat="48.73235" lon="7.25427">
        <ele>303.2</ele>
        <time>2020-05-23T09:23:58Z</time>
      </trkpt>
      <trkpt lat="48.73236" lon="7.25426">
        <ele>303.2</ele>
        <time>2020-05-23T09:23:59Z</time>
      </trkpt>
      <trkpt lat="48.73237" lon="7.25425">
        <ele>303</ele>
        <time>2020-05-23T09:24:01Z</time>
      </trkpt>
      <trkpt lat="48.73238" lon="7.25424">
        <ele>303</ele>
        <time>2020-05-23T09:24:02Z</time>
      </trkpt>
      <trkpt lat="48.73238" lon="7.25424">
        <ele>302.9</ele>
        <time>2020-05-23T09:24:03Z</time>
      </trkpt>
      <trkpt lat="48.7324" lon="7.25423">
        <ele>302.8</ele>
        <time>2020-05-23T09:24:05Z</time>
      </trkpt>
      <trkpt lat="48.7324" lon="7.25422">
        <ele>302.7</ele>
        <time>2020-05-23T09:24:06Z</time>
      </trkpt>
      <trkpt lat="48.73242" lon="7.25421">
        <ele>302.6</ele>
        <time>2020-05-23T09:24:08Z</time>
      </trkpt>
      <trkpt lat="48.73244" lon="7.25416">
        <ele>302.2</ele>
        <time>2020-05-23T09:24:10Z</time>
      </trkpt>
      <trkpt lat="48.73245" lon="7.25414">
        <ele>302.1</ele>
        <time>2020-05-23T09:24:11Z</time>
      </trkpt>
      <trkpt lat="48.73246" lon="7.25412">
        <ele>302</ele>
        <time>2020-05-23T09:24:12Z</time>
      </trkpt>
      <trkpt lat="48.73249" lon="7.25407">
        <ele>301.6</ele>
        <time>2020-05-23T09:24:14Z</time>
      </trkpt>
      <trkpt lat="48.73251" lon="7.25405">
        <ele>301.4</ele>
        <time>2020-05-23T09:24:15Z</time>
      </trkpt>
      <trkpt lat="48.73253" lon="7.25403">
        <ele>301.2</ele>
        <time>2020-05-23T09:24:17Z</time>
      </trkpt>
      <trkpt lat="48.73255" lon="7.25399">
        <ele>300.9</ele>
        <time>2020-05-23T09:24:19Z</time>
      </trkpt>
      <trkpt lat="48.73255" lon="7.25398">
        <ele>300.8</ele>
        <time>2020-05-23T09:24:20Z</time>
      </trkpt>
      <trkpt lat="48.73257" lon="7.25395">
        <ele>300.6</ele>
        <time>2020-05-23T09:24:22Z</time>
      </trkpt>
      <trkpt lat="48.73258" lon="7.25393">
        <ele>300.4</ele>
        <time>2020-05-23T09:24:23Z</time>
      </trkpt>
      <trkpt lat="48.73262" lon="7.2539">
        <ele>300</ele>
        <time>2020-05-23T09:24:25Z</time>
      </trkpt>
      <trkpt lat="48.73264" lon="7.2539">
        <ele>299.8</ele>
        <time>2020-05-23T09:24:26Z</time>
      </trkpt>
      <trkpt lat="48.7327" lon="7.25389">
        <ele>299.3</ele>
        <time>2020-05-23T09:24:28Z</time>
      </trkpt>
      <trkpt lat="48.73272" lon="7.25388">
        <ele>299</ele>
        <time>2020-05-23T09:24:29Z</time>
      </trkpt>
      <trkpt lat="48.73278" lon="7.25383">
        <ele>298.3</ele>
        <time>2020-05-23T09:24:31Z</time>
      </trkpt>
      <trkpt lat="48.7328" lon="7.25379">
        <ele>298</ele>
        <time>2020-05-23T09:24:32Z</time>
      </trkpt>
      <trkpt lat="48.73282" lon="7.25376">
        <ele>297.6</ele>
        <time>2020-05-23T09:24:33Z</time>
      </trkpt>
      <trkpt lat="48.73284" lon="7.25373">
        <ele>297.4</ele>
        <time>2020-05-23T09:24:35Z</time>
      </trkpt>
      <trkpt lat="48.73284" lon="7.25373">
        <ele>297.4</ele>
        <time>2020-05-23T09:24:37Z</time>
      </trkpt>
      <trkpt lat="48.73284" lon="7.25373">
        <ele>297.3</ele>
        <time>2020-05-23T09:24:38Z</time>
      </trkpt>
      <trkpt lat="48.73284" lon="7.25374">
        <ele>297.3</ele>
        <time>2020-05-23T09:24:40Z</time>
      </trkpt>
      <trkpt lat="48.73284" lon="7.25374">
        <ele>297.3</ele>
        <time>2020-05-23T09:24:42Z</time>
      </trkpt>
      <trkpt lat="48.73284" lon="7.25374">
        <ele>297.3</ele>
        <time>2020-05-23T09:24:44Z</time>
      </trkpt>
      <trkpt lat="48.73284" lon="7.25374">
        <ele>297.3</ele>
        <time>2020-05-23T09:24:45Z</time>
      </trkpt>
      <trkpt lat="48.73285" lon="7.25373">
        <ele>297.1</ele>
        <time>2020-05-23T09:24:47Z</time>
      </trkpt>
      <trkpt lat="48.73287" lon="7.25372">
        <ele>297</ele>
        <time>2020-05-23T09:24:49Z</time>
      </trkpt>
      <trkpt lat="48.73287" lon="7.25372">
        <ele>297</ele>
        <time>2020-05-23T09:24:50Z</time>
      </trkpt>
      <trkpt lat="48.73287" lon="7.25372">
        <ele>296.9</ele>
        <time>2020-05-23T09:24:52Z</time>
      </trkpt>
      <trkpt lat="48.73288" lon="7.25372">
        <ele>296.9</ele>
        <time>2020-05-23T09:24:54Z</time>
      </trkpt>
      <trkpt lat="48.73288" lon="7.25372">
        <ele>296.9</ele>
        <time>2020-05-23T09:24:55Z</time>
      </trkpt>
      <trkpt lat="48.73287" lon="7.25372">
        <ele>296.8</ele>
        <time>2020-05-23T09:24:57Z</time>
      </trkpt>
      <trkpt lat="48.73287" lon="7.25372">
        <ele>296.8</ele>
        <time>2020-05-23T09:24:58Z</time>
      </trkpt>
      <trkpt lat="48.73287" lon="7.25372">
        <ele>296.8</ele>
        <time>2020-05-23T09:24:59Z</time>
      </trkpt>
      <trkpt lat="48.73287" lon="7.25372">
        <ele>296.8</ele>
        <time>2020-05-23T09:25:01Z</time>
      </trkpt>
      <trkpt lat="48.73287" lon="7.25372">
        <ele>296.8</ele>
        <time>2020-05-23T09:25:02Z</time>
      </trkpt>
      <trkpt lat="48.73288" lon="7.25372">
        <ele>296.8</ele>
        <time>2020-05-23T09:25:03Z</time>
      </trkpt>
      <trkpt lat="48.73288" lon="7.25371">
        <ele>296.7</ele>
        <time>2020-05-23T09:25:05Z</time>
      </trkpt>
      <trkpt lat="48.73287" lon="7.25371">
        <ele>296.6</ele>
        <time>2020-05-23T09:25:07Z</time>
      </trkpt>
      <trkpt lat="48.73287" lon="7.25371">
        <ele>296.6</ele>
        <time>2020-05-23T09:25:08Z</time>
      </trkpt>
      <trkpt lat="48.73287" lon="7.25371">
        <ele>296.6</ele>
        <time>2020-05-23T09:25:10Z</time>
      </trkpt>
      <trkpt lat="48.73288" lon="7.25371">
        <ele>296.5</ele>
        <time>2020-05-23T09:25:11Z</time>
      </trkpt>
      <trkpt lat="48.73289" lon="7.25371">
        <ele>296.4</ele>
        <time>2020-05-23T09:25:12Z</time>
      </trkpt>
      <trkpt lat="48.73291" lon="7.25368">
        <ele>296.1</ele>
        <time>2020-05-23T09:25:14Z</time>
      </trkpt>
      <trkpt lat="48.73293" lon="7.25363">
        <ele>295.7</ele>
        <time>2020-05-23T09:25:16Z</time>
      </trkpt>
      <trkpt lat="48.73294" lon="7.25358">
        <ele>295.3</ele>
        <time>2020-05-23T09:25:17Z</time>
      </trkpt>
      <trkpt lat="48.73294" lon="7.25356">
        <ele>295.2</ele>
        <time>2020-05-23T09:25:18Z</time>
      </trkpt>
      <trkpt lat="48.73293" lon="7.25351">
        <ele>294.8</ele>
        <time>2020-05-23T09:25:19Z</time>
      </trkpt>
      <trkpt lat="48.73291" lon="7.25344">
        <ele>294.2</ele>
        <time>2020-05-23T09:25:21Z</time>
      </trkpt>
      <trkpt lat="48.73288" lon="7.25341">
        <ele>293.9</ele>
        <time>2020-05-23T09:25:23Z</time>
      </trkpt>
      <trkpt lat="48.73288" lon="7.25342">
        <ele>293.8</ele>
        <time>2020-05-23T09:25:24Z</time>
      </trkpt>
      <trkpt lat="48.73287" lon="7.25343">
        <ele>293.6</ele>
        <time>2020-05-23T09:25:26Z</time>
      </trkpt>
      <trkpt lat="48.73286" lon="7.25343">
        <ele>293.6</ele>
        <time>2020-05-23T09:25:27Z</time>
      </trkpt>
      <trkpt lat="48.73286" lon="7.25344">
        <ele>293.6</ele>
        <time>2020-05-23T09:25:29Z</time>
      </trkpt>
      <trkpt lat="48.73287" lon="7.25344">
        <ele>293.5</ele>
        <time>2020-05-23T09:25:31Z</time>
      </trkpt>
      <trkpt lat="48.73287" lon="7.25344">
        <ele>293.5</ele>
        <time>2020-05-23T09:25:32Z</time>
      </trkpt>
      <trkpt lat="48.73287" lon="7.25343">
        <ele>293.5</ele>
        <time>2020-05-23T09:25:35Z</time>
      </trkpt>
      <trkpt lat="48.73287" lon="7.25344">
        <ele>293.4</ele>
        <time>2020-05-23T09:25:36Z</time>
      </trkpt>
      <trkpt lat="48.73287" lon="7.25344">
        <ele>293.3</ele>
        <time>2020-05-23T09:25:37Z</time>
      </trkpt>
      <trkpt lat="48.73288" lon="7.25344">
        <ele>293.3</ele>
        <time>2020-05-23T09:25:38Z</time>
      </trkpt>
      <trkpt lat="48.73288" lon="7.25344">
        <ele>293.3</ele>
        <time>2020-05-23T09:25:40Z</time>
      </trkpt>
      <trkpt lat="48.73288" lon="7.25344">
        <ele>293.3</ele>
        <time>2020-05-23T09:25:41Z</time>
      </trkpt>
      <trkpt lat="48.73288" lon="7.25344">
        <ele>293.2</ele>
        <time>2020-05-23T09:25:43Z</time>
      </trkpt>
      <trkpt lat="48.73288" lon="7.25344">
        <ele>293.2</ele>
        <time>2020-05-23T09:25:44Z</time>
      </trkpt>
      <trkpt lat="48.73288" lon="7.25343">
        <ele>293.2</ele>
        <time>2020-05-23T09:25:45Z</time>
      </trkpt>
      <trkpt lat="48.73288" lon="7.25343">
        <ele>293.2</ele>
        <time>2020-05-23T09:25:47Z</time>
      </trkpt>
      <trkpt lat="48.73286" lon="7.25334">
        <ele>292.4</ele>
        <time>2020-05-23T09:26:06Z</time>
      </trkpt>
      <trkpt lat="48.73287" lon="7.2533">
        <ele>292.1</ele>
        <time>2020-05-23T09:26:07Z</time>
      </trkpt>
      <trkpt lat="48.73291" lon="7.25329">
        <ele>291.6</ele>
        <time>2020-05-23T09:26:09Z</time>
      </trkpt>
      <trkpt lat="48.73294" lon="7.25333">
        <ele>292.4</ele>
        <time>2020-05-23T09:26:10Z</time>
      </trkpt>
      <trkpt lat="48.73295" lon="7.25334">
        <ele>292.5</ele>
        <time>2020-05-23T09:26:11Z</time>
      </trkpt>
      <trkpt lat="48.73297" lon="7.25337">
        <ele>292.8</ele>
        <time>2020-05-23T09:26:12Z</time>
      </trkpt>
      <trkpt lat="48.73298" lon="7.25344">
        <ele>293.4</ele>
        <time>2020-05-23T09:26:14Z</time>
      </trkpt>
      <trkpt lat="48.73299" lon="7.25348">
        <ele>293.7</ele>
        <time>2020-05-23T09:26:15Z</time>
      </trkpt>
      <trkpt lat="48.733" lon="7.25354">
        <ele>294.2</ele>
        <time>2020-05-23T09:26:17Z</time>
      </trkpt>
      <trkpt lat="48.733" lon="7.25357">
        <ele>294.4</ele>
        <time>2020-05-23T09:26:18Z</time>
      </trkpt>
      <trkpt lat="48.73298" lon="7.25364">
        <ele>294.9</ele>
        <time>2020-05-23T09:26:20Z</time>
      </trkpt>
      <trkpt lat="48.73297" lon="7.25372">
        <ele>295.6</ele>
        <time>2020-05-23T09:26:22Z</time>
      </trkpt>
      <trkpt lat="48.73296" lon="7.25375">
        <ele>295.8</ele>
        <time>2020-05-23T09:26:23Z</time>
      </trkpt>
      <trkpt lat="48.73295" lon="7.25382">
        <ele>296.3</ele>
        <time>2020-05-23T09:26:25Z</time>
      </trkpt>
      <trkpt lat="48.73294" lon="7.25383">
        <ele>296.4</ele>
        <time>2020-05-23T09:26:27Z</time>
      </trkpt>
      <trkpt lat="48.73295" lon="7.25381">
        <ele>296.6</ele>
        <time>2020-05-23T09:26:29Z</time>
      </trkpt>
      <trkpt lat="48.73295" lon="7.25381">
        <ele>296.6</ele>
        <time>2020-05-23T09:26:30Z</time>
      </trkpt>
      <trkpt lat="48.73295" lon="7.25381">
        <ele>296.6</ele>
        <time>2020-05-23T09:26:32Z</time>
      </trkpt>
      <trkpt lat="48.73295" lon="7.2538">
        <ele>296.6</ele>
        <time>2020-05-23T09:26:34Z</time>
      </trkpt>
      <trkpt lat="48.73295" lon="7.2538">
        <ele>296.6</ele>
        <time>2020-05-23T09:26:35Z</time>
      </trkpt>
      <trkpt lat="48.73295" lon="7.2538">
        <ele>296.7</ele>
        <time>2020-05-23T09:26:36Z</time>
      </trkpt>
      <trkpt lat="48.73295" lon="7.2538">
        <ele>296.7</ele>
        <time>2020-05-23T09:26:37Z</time>
      </trkpt>
      <trkpt lat="48.73295" lon="7.2538">
        <ele>296.7</ele>
        <time>2020-05-23T09:26:38Z</time>
      </trkpt>
      <trkpt lat="48.73295" lon="7.2538">
        <ele>296.7</ele>
        <time>2020-05-23T09:26:39Z</time>
      </trkpt>
      <trkpt lat="48.73292" lon="7.25385">
        <ele>297.2</ele>
        <time>2020-05-23T09:26:47Z</time>
      </trkpt>
      <trkpt lat="48.73287" lon="7.25387">
        <ele>297.7</ele>
        <time>2020-05-23T09:26:49Z</time>
      </trkpt>
      <trkpt lat="48.73285" lon="7.25387">
        <ele>297.9</ele>
        <time>2020-05-23T09:26:50Z</time>
      </trkpt>
      <trkpt lat="48.73281" lon="7.25389">
        <ele>298.4</ele>
        <time>2020-05-23T09:26:52Z</time>
      </trkpt>
      <trkpt lat="48.73276" lon="7.25389">
        <ele>298.8</ele>
        <time>2020-05-23T09:26:54Z</time>
      </trkpt>
      <trkpt lat="48.73273" lon="7.25389">
        <ele>299.2</ele>
        <time>2020-05-23T09:26:55Z</time>
      </trkpt>
      <trkpt lat="48.73272" lon="7.25389">
        <ele>299.3</ele>
        <time>2020-05-23T09:26:56Z</time>
      </trkpt>
      <trkpt lat="48.73267" lon="7.2539">
        <ele>299.7</ele>
        <time>2020-05-23T09:26:58Z</time>
      </trkpt>
      <trkpt lat="48.73264" lon="7.25392">
        <ele>300.1</ele>
        <time>2020-05-23T09:26:59Z</time>
      </trkpt>
      <trkpt lat="48.73263" lon="7.25392">
        <ele>300.2</ele>
        <time>2020-05-23T09:27:00Z</time>
      </trkpt>
      <trkpt lat="48.73259" lon="7.25395">
        <ele>300.6</ele>
        <time>2020-05-23T09:27:01Z</time>
      </trkpt>
      <trkpt lat="48.73258" lon="7.25396">
        <ele>300.7</ele>
        <time>2020-05-23T09:27:02Z</time>
      </trkpt>
      <trkpt lat="48.73256" lon="7.25398">
        <ele>301</ele>
        <time>2020-05-23T09:27:03Z</time>
      </trkpt>
      <trkpt lat="48.73254" lon="7.25401">
        <ele>301.2</ele>
        <time>2020-05-23T09:27:04Z</time>
      </trkpt>
      <trkpt lat="48.7325" lon="7.25407">
        <ele>301.7</ele>
        <time>2020-05-23T09:27:06Z</time>
      </trkpt>
      <trkpt lat="48.73245" lon="7.25413">
        <ele>302.3</ele>
        <time>2020-05-23T09:27:08Z</time>
      </trkpt>
      <trkpt lat="48.73241" lon="7.25418">
        <ele>302.7</ele>
        <time>2020-05-23T09:27:10Z</time>
      </trkpt>
      <trkpt lat="48.73235" lon="7.25423">
        <ele>303.3</ele>
        <time>2020-05-23T09:27:12Z</time>
      </trkpt>
      <trkpt lat="48.73233" lon="7.25424">
        <ele>303.5</ele>
        <time>2020-05-23T09:27:13Z</time>
      </trkpt>
      <trkpt lat="48.73228" lon="7.25424">
        <ele>303.9</ele>
        <time>2020-05-23T09:27:15Z</time>
      </trkpt>
      <trkpt lat="48.73226" lon="7.25426">
        <ele>304.2</ele>
        <time>2020-05-23T09:27:16Z</time>
      </trkpt>
      <trkpt lat="48.73225" lon="7.25427">
        <ele>304.3</ele>
        <time>2020-05-23T09:27:17Z</time>
      </trkpt>
      <trkpt lat="48.7322" lon="7.25433">
        <ele>304.8</ele>
        <time>2020-05-23T09:27:19Z</time>
      </trkpt>
      <trkpt lat="48.73217" lon="7.25437">
        <ele>305.2</ele>
        <time>2020-05-23T09:27:20Z</time>
      </trkpt>
      <trkpt lat="48.73214" lon="7.25438">
        <ele>305.4</ele>
        <time>2020-05-23T09:27:21Z</time>
      </trkpt>
      <trkpt lat="48.73207" lon="7.25439">
        <ele>306</ele>
        <time>2020-05-23T09:27:23Z</time>
      </trkpt>
      <trkpt lat="48.73204" lon="7.25439">
        <ele>306.2</ele>
        <time>2020-05-23T09:27:24Z</time>
      </trkpt>
      <trkpt lat="48.73197" lon="7.25437">
        <ele>306.4</ele>
        <time>2020-05-23T09:27:26Z</time>
      </trkpt>
      <trkpt lat="48.73194" lon="7.25433">
        <ele>306.6</ele>
        <time>2020-05-23T09:27:28Z</time>
      </trkpt>
      <trkpt lat="48.73191" lon="7.25427">
        <ele>306.1</ele>
        <time>2020-05-23T09:27:30Z</time>
      </trkpt>
      <trkpt lat="48.73186" lon="7.2542">
        <ele>305.5</ele>
        <time>2020-05-23T09:27:32Z</time>
      </trkpt>
      <trkpt lat="48.73183" lon="7.25417">
        <ele>305.1</ele>
        <time>2020-05-23T09:27:33Z</time>
      </trkpt>
      <trkpt lat="48.73181" lon="7.25414">
        <ele>304.8</ele>
        <time>2020-05-23T09:27:34Z</time>
      </trkpt>
      <trkpt lat="48.73178" lon="7.25411">
        <ele>304.3</ele>
        <time>2020-05-23T09:27:35Z</time>
      </trkpt>
      <trkpt lat="48.73177" lon="7.2541">
        <ele>304.2</ele>
        <time>2020-05-23T09:27:36Z</time>
      </trkpt>
      <trkpt lat="48.73176" lon="7.2541">
        <ele>304.1</ele>
        <time>2020-05-23T09:27:38Z</time>
      </trkpt>
      <trkpt lat="48.73176" lon="7.2541">
        <ele>304</ele>
        <time>2020-05-23T09:27:39Z</time>
      </trkpt>
      <trkpt lat="48.73175" lon="7.2541">
        <ele>303.9</ele>
        <time>2020-05-23T09:27:40Z</time>
      </trkpt>
      <trkpt lat="48.73174" lon="7.25409">
        <ele>303.7</ele>
        <time>2020-05-23T09:27:41Z</time>
      </trkpt>
      <trkpt lat="48.73172" lon="7.25408">
        <ele>303.4</ele>
        <time>2020-05-23T09:27:42Z</time>
      </trkpt>
      <trkpt lat="48.73171" lon="7.25407">
        <ele>303.1</ele>
        <time>2020-05-23T09:27:43Z</time>
      </trkpt>
      <trkpt lat="48.73172" lon="7.25402">
        <ele>302.5</ele>
        <time>2020-05-23T09:27:45Z</time>
      </trkpt>
      <trkpt lat="48.73173" lon="7.25401">
        <ele>302.4</ele>
        <time>2020-05-23T09:27:46Z</time>
      </trkpt>
      <trkpt lat="48.73175" lon="7.254">
        <ele>301.9</ele>
        <time>2020-05-23T09:27:48Z</time>
      </trkpt>
      <trkpt lat="48.73176" lon="7.254">
        <ele>301.7</ele>
        <time>2020-05-23T09:27:49Z</time>
      </trkpt>
      <trkpt lat="48.73178" lon="7.25401">
        <ele>301.4</ele>
        <time>2020-05-23T09:27:51Z</time>
      </trkpt>
      <trkpt lat="48.73178" lon="7.25401">
        <ele>301.4</ele>
        <time>2020-05-23T09:27:52Z</time>
      </trkpt>
      <trkpt lat="48.73177" lon="7.25402">
        <ele>301.3</ele>
        <time>2020-05-23T09:27:53Z</time>
      </trkpt>
      <trkpt lat="48.73177" lon="7.25402">
        <ele>301.1</ele>
        <time>2020-05-23T09:27:55Z</time>
      </trkpt>
      <trkpt lat="48.73176" lon="7.25403">
        <ele>301.1</ele>
        <time>2020-05-23T09:27:57Z</time>
      </trkpt>
      <trkpt lat="48.73176" lon="7.25403">
        <ele>301</ele>
        <time>2020-05-23T09:27:59Z</time>
      </trkpt>
      <trkpt lat="48.73176" lon="7.25403">
        <ele>301</ele>
        <time>2020-05-23T09:28:00Z</time>
      </trkpt>
      <trkpt lat="48.73176" lon="7.25403">
        <ele>301</ele>
        <time>2020-05-23T09:28:01Z</time>
      </trkpt>
      <trkpt lat="48.73176" lon="7.25403">
        <ele>300.9</ele>
        <time>2020-05-23T09:28:03Z</time>
      </trkpt>
      <trkpt lat="48.73179" lon="7.254">
        <ele>300.3</ele>
        <time>2020-05-23T09:28:05Z</time>
      </trkpt>
      <trkpt lat="48.73182" lon="7.25396">
        <ele>299.4</ele>
        <time>2020-05-23T09:28:07Z</time>
      </trkpt>
      <trkpt lat="48.73186" lon="7.25391">
        <ele>298.5</ele>
        <time>2020-05-23T09:28:09Z</time>
      </trkpt>
      <trkpt lat="48.73189" lon="7.25386">
        <ele>297.7</ele>
        <time>2020-05-23T09:28:11Z</time>
      </trkpt>
      <trkpt lat="48.73191" lon="7.25382">
        <ele>297.1</ele>
        <time>2020-05-23T09:28:13Z</time>
      </trkpt>
      <trkpt lat="48.73191" lon="7.25378">
        <ele>296.7</ele>
        <time>2020-05-23T09:28:15Z</time>
      </trkpt>
      <trkpt lat="48.73192" lon="7.25377">
        <ele>296.5</ele>
        <time>2020-05-23T09:28:16Z</time>
      </trkpt>
      <trkpt lat="48.73192" lon="7.25374">
        <ele>296.2</ele>
        <time>2020-05-23T09:28:18Z</time>
      </trkpt>
      <trkpt lat="48.73191" lon="7.25373">
        <ele>296.1</ele>
        <time>2020-05-23T09:28:19Z</time>
      </trkpt>
      <trkpt lat="48.73189" lon="7.25374">
        <ele>295.6</ele>
        <time>2020-05-23T09:28:21Z</time>
      </trkpt>
      <trkpt lat="48.73185" lon="7.25376">
        <ele>294.8</ele>
        <time>2020-05-23T09:28:23Z</time>
      </trkpt>
      <trkpt lat="48.73185" lon="7.25376">
        <ele>294.7</ele>
        <time>2020-05-23T09:28:25Z</time>
      </trkpt>
      <trkpt lat="48.73186" lon="7.25375">
        <ele>294.6</ele>
        <time>2020-05-23T09:28:27Z</time>
      </trkpt>
      <trkpt lat="48.73186" lon="7.25376">
        <ele>294.5</ele>
        <time>2020-05-23T09:28:29Z</time>
      </trkpt>
      <trkpt lat="48.73185" lon="7.25377">
        <ele>294.4</ele>
        <time>2020-05-23T09:28:31Z</time>
      </trkpt>
      <trkpt lat="48.73184" lon="7.25377">
        <ele>294.2</ele>
        <time>2020-05-23T09:28:32Z</time>
      </trkpt>
      <trkpt lat="48.73183" lon="7.25378">
        <ele>293.8</ele>
        <time>2020-05-23T09:28:34Z</time>
      </trkpt>
      <trkpt lat="48.73182" lon="7.25379">
        <ele>293.7</ele>
        <time>2020-05-23T09:28:35Z</time>
      </trkpt>
      <trkpt lat="48.73182" lon="7.25378">
        <ele>293.6</ele>
        <time>2020-05-23T09:28:37Z</time>
      </trkpt>
      <trkpt lat="48.73182" lon="7.25378">
        <ele>293.5</ele>
        <time>2020-05-23T09:28:38Z</time>
      </trkpt>
      <trkpt lat="48.73181" lon="7.25378">
        <ele>293.4</ele>
        <time>2020-05-23T09:28:39Z</time>
      </trkpt>
      <trkpt lat="48.73181" lon="7.25378">
        <ele>293.2</ele>
        <time>2020-05-23T09:28:40Z</time>
      </trkpt>
      <trkpt lat="48.7318" lon="7.25377">
        <ele>293</ele>
        <time>2020-05-23T09:28:42Z</time>
      </trkpt>
      <trkpt lat="48.7318" lon="7.25377">
        <ele>292.9</ele>
        <time>2020-05-23T09:28:43Z</time>
      </trkpt>
      <trkpt lat="48.73179" lon="7.25376">
        <ele>292.6</ele>
        <time>2020-05-23T09:28:45Z</time>
      </trkpt>
      <trkpt lat="48.73178" lon="7.25376">
        <ele>292.4</ele>
        <time>2020-05-23T09:28:46Z</time>
      </trkpt>
      <trkpt lat="48.73176" lon="7.25377">
        <ele>291.9</ele>
        <time>2020-05-23T09:28:48Z</time>
      </trkpt>
      <trkpt lat="48.73175" lon="7.25377">
        <ele>291.7</ele>
        <time>2020-05-23T09:28:50Z</time>
      </trkpt>
      <trkpt lat="48.73175" lon="7.25376">
        <ele>291.6</ele>
        <time>2020-05-23T09:28:51Z</time>
      </trkpt>
      <trkpt lat="48.73175" lon="7.25376">
        <ele>291.5</ele>
        <time>2020-05-23T09:28:53Z</time>
      </trkpt>
      <trkpt lat="48.73174" lon="7.25376">
        <ele>291.3</ele>
        <time>2020-05-23T09:28:54Z</time>
      </trkpt>
      <trkpt lat="48.73173" lon="7.25375">
        <ele>291</ele>
        <time>2020-05-23T09:28:55Z</time>
      </trkpt>
      <trkpt lat="48.73172" lon="7.25376">
        <ele>290.7</ele>
        <time>2020-05-23T09:28:56Z</time>
      </trkpt>
      <trkpt lat="48.7317" lon="7.25376">
        <ele>290.2</ele>
        <time>2020-05-23T09:28:57Z</time>
      </trkpt>
      <trkpt lat="48.73169" lon="7.25376">
        <ele>290.1</ele>
        <time>2020-05-23T09:28:58Z</time>
      </trkpt>
      <trkpt lat="48.73169" lon="7.25376">
        <ele>290</ele>
        <time>2020-05-23T09:29:00Z</time>
      </trkpt>
      <trkpt lat="48.73168" lon="7.25376">
        <ele>289.9</ele>
        <time>2020-05-23T09:29:01Z</time>
      </trkpt>
      <trkpt lat="48.73168" lon="7.25376">
        <ele>289.7</ele>
        <time>2020-05-23T09:29:02Z</time>
      </trkpt>
      <trkpt lat="48.73167" lon="7.25375">
        <ele>289.4</ele>
        <time>2020-05-23T09:29:03Z</time>
      </trkpt>
      <trkpt lat="48.73163" lon="7.25373">
        <ele>288.5</ele>
        <time>2020-05-23T09:29:05Z</time>
      </trkpt>
      <trkpt lat="48.73161" lon="7.25372">
        <ele>287.9</ele>
        <time>2020-05-23T09:29:06Z</time>
      </trkpt>
      <trkpt lat="48.7316" lon="7.25373">
        <ele>287.6</ele>
        <time>2020-05-23T09:29:08Z</time>
      </trkpt>
      <trkpt lat="48.73159" lon="7.25374">
        <ele>287.4</ele>
        <time>2020-05-23T09:29:10Z</time>
      </trkpt>
      <trkpt lat="48.73157" lon="7.25374">
        <ele>287</ele>
        <time>2020-05-23T09:29:12Z</time>
      </trkpt>
      <trkpt lat="48.73155" lon="7.25372">
        <ele>286.4</ele>
        <time>2020-05-23T09:29:14Z</time>
      </trkpt>
      <trkpt lat="48.73153" lon="7.25373">
        <ele>286.1</ele>
        <time>2020-05-23T09:29:16Z</time>
      </trkpt>
      <trkpt lat="48.73152" lon="7.25373">
        <ele>285.9</ele>
        <time>2020-05-23T09:29:17Z</time>
      </trkpt>
      <trkpt lat="48.7315" lon="7.25374">
        <ele>285.5</ele>
        <time>2020-05-23T09:29:19Z</time>
      </trkpt>
      <trkpt lat="48.73149" lon="7.25374">
        <ele>285.2</ele>
        <time>2020-05-23T09:29:20Z</time>
      </trkpt>
      <trkpt lat="48.73148" lon="7.25374">
        <ele>285</ele>
        <time>2020-05-23T09:29:21Z</time>
      </trkpt>
      <trkpt lat="48.73147" lon="7.25373">
        <ele>284.7</ele>
        <time>2020-05-23T09:29:22Z</time>
      </trkpt>
      <trkpt lat="48.73144" lon="7.25371">
        <ele>283.9</ele>
        <time>2020-05-23T09:29:24Z</time>
      </trkpt>
      <trkpt lat="48.73143" lon="7.25371">
        <ele>283.8</ele>
        <time>2020-05-23T09:29:26Z</time>
      </trkpt>
      <trkpt lat="48.73142" lon="7.2537">
        <ele>283.5</ele>
        <time>2020-05-23T09:29:27Z</time>
      </trkpt>
      <trkpt lat="48.73142" lon="7.2537">
        <ele>283.4</ele>
        <time>2020-05-23T09:29:29Z</time>
      </trkpt>
      <trkpt lat="48.73142" lon="7.2537">
        <ele>283.3</ele>
        <time>2020-05-23T09:29:30Z</time>
      </trkpt>
      <trkpt lat="48.73141" lon="7.2537">
        <ele>283.2</ele>
        <time>2020-05-23T09:29:31Z</time>
      </trkpt>
      <trkpt lat="48.73139" lon="7.25371">
        <ele>282.9</ele>
        <time>2020-05-23T09:29:33Z</time>
      </trkpt>
      <trkpt lat="48.73138" lon="7.25371">
        <ele>282.5</ele>
        <time>2020-05-23T09:29:35Z</time>
      </trkpt>
      <trkpt lat="48.73137" lon="7.2537">
        <ele>282.3</ele>
        <time>2020-05-23T09:29:37Z</time>
      </trkpt>
      <trkpt lat="48.73136" lon="7.25369">
        <ele>282</ele>
        <time>2020-05-23T09:29:39Z</time>
      </trkpt>
      <trkpt lat="48.73135" lon="7.25366">
        <ele>281.3</ele>
        <time>2020-05-23T09:29:41Z</time>
      </trkpt>
      <trkpt lat="48.73135" lon="7.25365">
        <ele>281.1</ele>
        <time>2020-05-23T09:29:43Z</time>
      </trkpt>
      <trkpt lat="48.73135" lon="7.25364">
        <ele>280.9</ele>
        <time>2020-05-23T09:29:44Z</time>
      </trkpt>
      <trkpt lat="48.73134" lon="7.25364">
        <ele>280.7</ele>
        <time>2020-05-23T09:29:46Z</time>
      </trkpt>
      <trkpt lat="48.73133" lon="7.25363">
        <ele>280.3</ele>
        <time>2020-05-23T09:29:48Z</time>
      </trkpt>
      <trkpt lat="48.73133" lon="7.25363">
        <ele>280.2</ele>
        <time>2020-05-23T09:29:49Z</time>
      </trkpt>
      <trkpt lat="48.73134" lon="7.2536">
        <ele>279.5</ele>
        <time>2020-05-23T09:29:51Z</time>
      </trkpt>
      <trkpt lat="48.73134" lon="7.2536">
        <ele>279.5</ele>
        <time>2020-05-23T09:29:52Z</time>
      </trkpt>
      <trkpt lat="48.73132" lon="7.25359">
        <ele>278.8</ele>
        <time>2020-05-23T09:29:54Z</time>
      </trkpt>
      <trkpt lat="48.7313" lon="7.2536">
        <ele>278.4</ele>
        <time>2020-05-23T09:29:56Z</time>
      </trkpt>
      <trkpt lat="48.73129" lon="7.2536">
        <ele>278.2</ele>
        <time>2020-05-23T09:29:57Z</time>
      </trkpt>
      <trkpt lat="48.73128" lon="7.2536">
        <ele>277.7</ele>
        <time>2020-05-23T09:29:59Z</time>
      </trkpt>
      <trkpt lat="48.73127" lon="7.25361">
        <ele>277.5</ele>
        <time>2020-05-23T09:30:00Z</time>
      </trkpt>
      <trkpt lat="48.73126" lon="7.25361">
        <ele>277.3</ele>
        <time>2020-05-23T09:30:02Z</time>
      </trkpt>
      <trkpt lat="48.73125" lon="7.2536">
        <ele>276.9</ele>
        <time>2020-05-23T09:30:03Z</time>
      </trkpt>
      <trkpt lat="48.7312" lon="7.25356">
        <ele>275.3</ele>
        <time>2020-05-23T09:30:05Z</time>
      </trkpt>
      <trkpt lat="48.73116" lon="7.25355">
        <ele>274.4</ele>
        <time>2020-05-23T09:30:06Z</time>
      </trkpt>
      <trkpt lat="48.73114" lon="7.25355">
        <ele>274</ele>
        <time>2020-05-23T09:30:07Z</time>
      </trkpt>
      <trkpt lat="48.7311" lon="7.25352">
        <ele>272.9</ele>
        <time>2020-05-23T09:30:09Z</time>
      </trkpt>
      <trkpt lat="48.73108" lon="7.2535">
        <ele>272.2</ele>
        <time>2020-05-23T09:30:11Z</time>
      </trkpt>
      <trkpt lat="48.73107" lon="7.2535">
        <ele>272.1</ele>
        <time>2020-05-23T09:30:13Z</time>
      </trkpt>
      <trkpt lat="48.73107" lon="7.25349">
        <ele>272</ele>
        <time>2020-05-23T09:30:14Z</time>
      </trkpt>
      <trkpt lat="48.73107" lon="7.25349">
        <ele>271.9</ele>
        <time>2020-05-23T09:30:15Z</time>
      </trkpt>
      <trkpt lat="48.73105" lon="7.25346">
        <ele>271.2</ele>
        <time>2020-05-23T09:30:16Z</time>
      </trkpt>
      <trkpt lat="48.73102" lon="7.25343">
        <ele>270.5</ele>
        <time>2020-05-23T09:30:18Z</time>
      </trkpt>
      <trkpt lat="48.731" lon="7.25343">
        <ele>270</ele>
        <time>2020-05-23T09:30:20Z</time>
      </trkpt>
      <trkpt lat="48.73097" lon="7.25345">
        <ele>269.2</ele>
        <time>2020-05-23T09:30:22Z</time>
      </trkpt>
      <trkpt lat="48.73097" lon="7.25345">
        <ele>269.1</ele>
        <time>2020-05-23T09:30:23Z</time>
      </trkpt>
      <trkpt lat="48.73095" lon="7.25344">
        <ele>268.5</ele>
        <time>2020-05-23T09:30:25Z</time>
      </trkpt>
      <trkpt lat="48.73093" lon="7.25342">
        <ele>268</ele>
        <time>2020-05-23T09:30:27Z</time>
      </trkpt>
      <trkpt lat="48.73091" lon="7.2534">
        <ele>267.5</ele>
        <time>2020-05-23T09:30:29Z</time>
      </trkpt>
      <trkpt lat="48.73088" lon="7.25338">
        <ele>266.6</ele>
        <time>2020-05-23T09:30:31Z</time>
      </trkpt>
      <trkpt lat="48.73085" lon="7.25338">
        <ele>265.8</ele>
        <time>2020-05-23T09:30:32Z</time>
      </trkpt>
      <trkpt lat="48.73083" lon="7.25337">
        <ele>265.5</ele>
        <time>2020-05-23T09:30:33Z</time>
      </trkpt>
      <trkpt lat="48.7308" lon="7.25336">
        <ele>264.7</ele>
        <time>2020-05-23T09:30:34Z</time>
      </trkpt>
      <trkpt lat="48.73078" lon="7.25334">
        <ele>264</ele>
        <time>2020-05-23T09:30:35Z</time>
      </trkpt>
      <trkpt lat="48.73076" lon="7.25331">
        <ele>261.9</ele>
        <time>2020-05-23T09:30:36Z</time>
      </trkpt>
      <trkpt lat="48.73075" lon="7.25324">
        <ele>261.4</ele>
        <time>2020-05-23T09:30:38Z</time>
      </trkpt>
      <trkpt lat="48.73077" lon="7.25319">
        <ele>260.9</ele>
        <time>2020-05-23T09:30:40Z</time>
      </trkpt>
      <trkpt lat="48.73082" lon="7.25316">
        <ele>260.3</ele>
        <time>2020-05-23T09:30:41Z</time>
      </trkpt>
      <trkpt lat="48.73093" lon="7.25309">
        <ele>258.9</ele>
        <time>2020-05-23T09:30:43Z</time>
      </trkpt>
      <trkpt lat="48.73097" lon="7.25307">
        <ele>258.5</ele>
        <time>2020-05-23T09:30:44Z</time>
      </trkpt>
      <trkpt lat="48.73102" lon="7.25301">
        <ele>257.7</ele>
        <time>2020-05-23T09:30:46Z</time>
      </trkpt>
      <trkpt lat="48.73104" lon="7.25298">
        <ele>257.3</ele>
        <time>2020-05-23T09:30:47Z</time>
      </trkpt>
      <trkpt lat="48.73111" lon="7.2529">
        <ele>256.3</ele>
        <time>2020-05-23T09:30:49Z</time>
      </trkpt>
      <trkpt lat="48.73122" lon="7.25282">
        <ele>254.7</ele>
        <time>2020-05-23T09:30:51Z</time>
      </trkpt>
      <trkpt lat="48.73132" lon="7.25275">
        <ele>253.6</ele>
        <time>2020-05-23T09:30:53Z</time>
      </trkpt>
      <trkpt lat="48.73137" lon="7.25273">
        <ele>253.2</ele>
        <time>2020-05-23T09:30:54Z</time>
      </trkpt>
      <trkpt lat="48.73144" lon="7.25269">
        <ele>252.5</ele>
        <time>2020-05-23T09:30:55Z</time>
      </trkpt>
      <trkpt lat="48.73154" lon="7.25262">
        <ele>251.5</ele>
        <time>2020-05-23T09:30:57Z</time>
      </trkpt>
      <trkpt lat="48.73157" lon="7.25259">
        <ele>251.1</ele>
        <time>2020-05-23T09:30:58Z</time>
      </trkpt>
      <trkpt lat="48.73159" lon="7.25255">
        <ele>250.7</ele>
        <time>2020-05-23T09:30:59Z</time>
      </trkpt>
      <trkpt lat="48.73161" lon="7.25253">
        <ele>250.5</ele>
        <time>2020-05-23T09:31:00Z</time>
      </trkpt>
      <trkpt lat="48.73165" lon="7.25249">
        <ele>249.9</ele>
        <time>2020-05-23T09:31:02Z</time>
      </trkpt>
      <trkpt lat="48.73168" lon="7.25246">
        <ele>249.5</ele>
        <time>2020-05-23T09:31:03Z</time>
      </trkpt>
      <trkpt lat="48.7317" lon="7.25244">
        <ele>249.3</ele>
        <time>2020-05-23T09:31:04Z</time>
      </trkpt>
      <trkpt lat="48.73173" lon="7.2524">
        <ele>248.7</ele>
        <time>2020-05-23T09:31:05Z</time>
      </trkpt>
      <trkpt lat="48.73182" lon="7.25234">
        <ele>247.5</ele>
        <time>2020-05-23T09:31:07Z</time>
      </trkpt>
      <trkpt lat="48.73191" lon="7.25227">
        <ele>246.1</ele>
        <time>2020-05-23T09:31:09Z</time>
      </trkpt>
      <trkpt lat="48.73195" lon="7.25224">
        <ele>245.3</ele>
        <time>2020-05-23T09:31:11Z</time>
      </trkpt>
      <trkpt lat="48.732" lon="7.25222">
        <ele>244.5</ele>
        <time>2020-05-23T09:31:13Z</time>
      </trkpt>
      <trkpt lat="48.73204" lon="7.2522">
        <ele>243.7</ele>
        <time>2020-05-23T09:31:15Z</time>
      </trkpt>
      <trkpt lat="48.73206" lon="7.25217">
        <ele>243</ele>
        <time>2020-05-23T09:31:16Z</time>
      </trkpt>
      <trkpt lat="48.73209" lon="7.25213">
        <ele>242.1</ele>
        <time>2020-05-23T09:31:18Z</time>
      </trkpt>
      <trkpt lat="48.73211" lon="7.25213">
        <ele>241.8</ele>
        <time>2020-05-23T09:31:19Z</time>
      </trkpt>
      <trkpt lat="48.73214" lon="7.2521">
        <ele>240.9</ele>
        <time>2020-05-23T09:31:21Z</time>
      </trkpt>
      <trkpt lat="48.73217" lon="7.25208">
        <ele>240.1</ele>
        <time>2020-05-23T09:31:22Z</time>
      </trkpt>
      <trkpt lat="48.73218" lon="7.25208">
        <ele>239.8</ele>
        <time>2020-05-23T09:31:23Z</time>
      </trkpt>
      <trkpt lat="48.73221" lon="7.25205">
        <ele>238.7</ele>
        <time>2020-05-23T09:31:25Z</time>
      </trkpt>
      <trkpt lat="48.73223" lon="7.25199">
        <ele>237.5</ele>
        <time>2020-05-23T09:31:27Z</time>
      </trkpt>
      <trkpt lat="48.73224" lon="7.25195">
        <ele>237</ele>
        <time>2020-05-23T09:31:28Z</time>
      </trkpt>
      <trkpt lat="48.73224" lon="7.25194">
        <ele>236.8</ele>
        <time>2020-05-23T09:31:29Z</time>
      </trkpt>
      <trkpt lat="48.73224" lon="7.25191">
        <ele>236.4</ele>
        <time>2020-05-23T09:31:30Z</time>
      </trkpt>
      <trkpt lat="48.73225" lon="7.25189">
        <ele>236.1</ele>
        <time>2020-05-23T09:31:32Z</time>
      </trkpt>
      <trkpt lat="48.73225" lon="7.25187">
        <ele>235.8</ele>
        <time>2020-05-23T09:31:33Z</time>
      </trkpt>
      <trkpt lat="48.73226" lon="7.25185">
        <ele>235.4</ele>
        <time>2020-05-23T09:31:34Z</time>
      </trkpt>
      <trkpt lat="48.73228" lon="7.25182">
        <ele>234.8</ele>
        <time>2020-05-23T09:31:36Z</time>
      </trkpt>
      <trkpt lat="48.7323" lon="7.25181">
        <ele>234.4</ele>
        <time>2020-05-23T09:31:37Z</time>
      </trkpt>
      <trkpt lat="48.73234" lon="7.25181">
        <ele>233.6</ele>
        <time>2020-05-23T09:31:39Z</time>
      </trkpt>
      <trkpt lat="48.73239" lon="7.25179">
        <ele>232.4</ele>
        <time>2020-05-23T09:31:41Z</time>
      </trkpt>
      <trkpt lat="48.7324" lon="7.25179">
        <ele>232.2</ele>
        <time>2020-05-23T09:31:42Z</time>
      </trkpt>
      <trkpt lat="48.7324" lon="7.25178">
        <ele>231.9</ele>
        <time>2020-05-23T09:31:43Z</time>
      </trkpt>
      <trkpt lat="48.73242" lon="7.25175">
        <ele>231.4</ele>
        <time>2020-05-23T09:31:45Z</time>
      </trkpt>
      <trkpt lat="48.73242" lon="7.25174">
        <ele>231.3</ele>
        <time>2020-05-23T09:31:47Z</time>
      </trkpt>
      <trkpt lat="48.73242" lon="7.25175">
        <ele>231.2</ele>
        <time>2020-05-23T09:31:48Z</time>
      </trkpt>
      <trkpt lat="48.73244" lon="7.25175">
        <ele>230.8</ele>
        <time>2020-05-23T09:31:50Z</time>
      </trkpt>
      <trkpt lat="48.73244" lon="7.25174">
        <ele>230.7</ele>
        <time>2020-05-23T09:31:52Z</time>
      </trkpt>
      <trkpt lat="48.73244" lon="7.25173">
        <ele>230.5</ele>
        <time>2020-05-23T09:31:54Z</time>
      </trkpt>
      <trkpt lat="48.73246" lon="7.25173">
        <ele>230</ele>
        <time>2020-05-23T09:31:56Z</time>
      </trkpt>
      <trkpt lat="48.73246" lon="7.25173">
        <ele>229.8</ele>
        <time>2020-05-23T09:31:58Z</time>
      </trkpt>
      <trkpt lat="48.73247" lon="7.25172">
        <ele>229.7</ele>
        <time>2020-05-23T09:31:59Z</time>
      </trkpt>
      <trkpt lat="48.73248" lon="7.2517">
        <ele>229.3</ele>
        <time>2020-05-23T09:32:01Z</time>
      </trkpt>
      <trkpt lat="48.73248" lon="7.25169">
        <ele>229.1</ele>
        <time>2020-05-23T09:32:02Z</time>
      </trkpt>
      <trkpt lat="48.73249" lon="7.25167">
        <ele>228.7</ele>
        <time>2020-05-23T09:32:04Z</time>
      </trkpt>
      <trkpt lat="48.7325" lon="7.25167">
        <ele>228.5</ele>
        <time>2020-05-23T09:32:05Z</time>
      </trkpt>
      <trkpt lat="48.7325" lon="7.25166">
        <ele>228.4</ele>
        <time>2020-05-23T09:32:06Z</time>
      </trkpt>
      <trkpt lat="48.73251" lon="7.25165">
        <ele>228.2</ele>
        <time>2020-05-23T09:32:08Z</time>
      </trkpt>
      <trkpt lat="48.73252" lon="7.25164">
        <ele>227.9</ele>
        <time>2020-05-23T09:32:09Z</time>
      </trkpt>
      <trkpt lat="48.73254" lon="7.25162">
        <ele>227.2</ele>
        <time>2020-05-23T09:32:11Z</time>
      </trkpt>
      <trkpt lat="48.73254" lon="7.25162">
        <ele>227.1</ele>
        <time>2020-05-23T09:32:13Z</time>
      </trkpt>
      <trkpt lat="48.73255" lon="7.25162">
        <ele>226.9</ele>
        <time>2020-05-23T09:32:14Z</time>
      </trkpt>
      <trkpt lat="48.73256" lon="7.25162">
        <ele>226.7</ele>
        <time>2020-05-23T09:32:15Z</time>
      </trkpt>
      <trkpt lat="48.73259" lon="7.25159">
        <ele>225.9</ele>
        <time>2020-05-23T09:32:17Z</time>
      </trkpt>
      <trkpt lat="48.73259" lon="7.25157">
        <ele>225.6</ele>
        <time>2020-05-23T09:32:18Z</time>
      </trkpt>
      <trkpt lat="48.73261" lon="7.25156">
        <ele>225.3</ele>
        <time>2020-05-23T09:32:20Z</time>
      </trkpt>
      <trkpt lat="48.73261" lon="7.25156">
        <ele>225.1</ele>
        <time>2020-05-23T09:32:21Z</time>
      </trkpt>
      <trkpt lat="48.73263" lon="7.25155">
        <ele>224.7</ele>
        <time>2020-05-23T09:32:23Z</time>
      </trkpt>
      <trkpt lat="48.73264" lon="7.25155">
        <ele>224.5</ele>
        <time>2020-05-23T09:32:24Z</time>
      </trkpt>
      <trkpt lat="48.73265" lon="7.25153">
        <ele>224.1</ele>
        <time>2020-05-23T09:32:26Z</time>
      </trkpt>
      <trkpt lat="48.73266" lon="7.25151">
        <ele>223.7</ele>
        <time>2020-05-23T09:32:28Z</time>
      </trkpt>
      <trkpt lat="48.73266" lon="7.2515">
        <ele>223.5</ele>
        <time>2020-05-23T09:32:29Z</time>
      </trkpt>
      <trkpt lat="48.73268" lon="7.25146">
        <ele>222.7</ele>
        <time>2020-05-23T09:32:31Z</time>
      </trkpt>
      <trkpt lat="48.73268" lon="7.25145">
        <ele>222.6</ele>
        <time>2020-05-23T09:32:32Z</time>
      </trkpt>
      <trkpt lat="48.73269" lon="7.25144">
        <ele>222.3</ele>
        <time>2020-05-23T09:32:34Z</time>
      </trkpt>
      <trkpt lat="48.73268" lon="7.25143">
        <ele>222.2</ele>
        <time>2020-05-23T09:32:36Z</time>
      </trkpt>
      <trkpt lat="48.73268" lon="7.25143">
        <ele>222.1</ele>
        <time>2020-05-23T09:32:37Z</time>
      </trkpt>
      <trkpt lat="48.73268" lon="7.25144">
        <ele>221.9</ele>
        <time>2020-05-23T09:32:38Z</time>
      </trkpt>
      <trkpt lat="48.73267" lon="7.25144">
        <ele>221.9</ele>
        <time>2020-05-23T09:32:39Z</time>
      </trkpt>
      <trkpt lat="48.73267" lon="7.25144">
        <ele>221.9</ele>
        <time>2020-05-23T09:32:40Z</time>
      </trkpt>
      <trkpt lat="48.73267" lon="7.25143">
        <ele>221.7</ele>
        <time>2020-05-23T09:32:42Z</time>
      </trkpt>
      <trkpt lat="48.73267" lon="7.25143">
        <ele>221.6</ele>
        <time>2020-05-23T09:32:44Z</time>
      </trkpt>
      <trkpt lat="48.73268" lon="7.25142">
        <ele>221.4</ele>
        <time>2020-05-23T09:32:45Z</time>
      </trkpt>
      <trkpt lat="48.73272" lon="7.25139">
        <ele>220.4</ele>
        <time>2020-05-23T09:32:47Z</time>
      </trkpt>
      <trkpt lat="48.73274" lon="7.25137">
        <ele>219.4</ele>
        <time>2020-05-23T09:32:48Z</time>
      </trkpt>
      <trkpt lat="48.73278" lon="7.25133">
        <ele>218.7</ele>
        <time>2020-05-23T09:32:49Z</time>
      </trkpt>
      <trkpt lat="48.73282" lon="7.2513">
        <ele>218</ele>
        <time>2020-05-23T09:32:50Z</time>
      </trkpt>
      <trkpt lat="48.73286" lon="7.25127">
        <ele>217</ele>
        <time>2020-05-23T09:32:51Z</time>
      </trkpt>
      <trkpt lat="48.73292" lon="7.25122">
        <ele>216.9</ele>
        <time>2020-05-23T09:32:53Z</time>
      </trkpt>
      <trkpt lat="48.73299" lon="7.25118">
        <ele>216.7</ele>
        <time>2020-05-23T09:32:55Z</time>
      </trkpt>
      <trkpt lat="48.73307" lon="7.25114">
        <ele>216.5</ele>
        <time>2020-05-23T09:32:57Z</time>
      </trkpt>
      <trkpt lat="48.73311" lon="7.25112">
        <ele>216.3</ele>
        <time>2020-05-23T09:32:58Z</time>
      </trkpt>
      <trkpt lat="48.73316" lon="7.2511">
        <ele>216.2</ele>
        <time>2020-05-23T09:32:59Z</time>
      </trkpt>
      <trkpt lat="48.7332" lon="7.25108">
        <ele>216.1</ele>
        <time>2020-05-23T09:33:00Z</time>
      </trkpt>
      <trkpt lat="48.73325" lon="7.25105">
        <ele>216</ele>
        <time>2020-05-23T09:33:01Z</time>
      </trkpt>
      <trkpt lat="48.73335" lon="7.25097">
        <ele>215.7</ele>
        <time>2020-05-23T09:33:03Z</time>
      </trkpt>
      <trkpt lat="48.73347" lon="7.2509">
        <ele>215.3</ele>
        <time>2020-05-23T09:33:05Z</time>
      </trkpt>
      <trkpt lat="48.73359" lon="7.25087">
        <ele>215</ele>
        <time>2020-05-23T09:33:07Z</time>
      </trkpt>
      <trkpt lat="48.73372" lon="7.25087">
        <ele>214.7</ele>
        <time>2020-05-23T09:33:09Z</time>
      </trkpt>
      <trkpt lat="48.73384" lon="7.2509">
        <ele>214.6</ele>
        <time>2020-05-23T09:33:11Z</time>
      </trkpt>
      <trkpt lat="48.73394" lon="7.25093">
        <ele>214.5</ele>
        <time>2020-05-23T09:33:13Z</time>
      </trkpt>
      <trkpt lat="48.73399" lon="7.25097">
        <ele>214.5</ele>
        <time>2020-05-23T09:33:14Z</time>
      </trkpt>
      <trkpt lat="48.73409" lon="7.25106">
        <ele>214.6</ele>
        <time>2020-05-23T09:33:16Z</time>
      </trkpt>
      <trkpt lat="48.73413" lon="7.25113">
        <ele>214.7</ele>
        <time>2020-05-23T09:33:17Z</time>
      </trkpt>
      <trkpt lat="48.73419" lon="7.25126">
        <ele>215</ele>
        <time>2020-05-23T09:33:19Z</time>
      </trkpt>
      <trkpt lat="48.73426" lon="7.25138">
        <ele>215.3</ele>
        <time>2020-05-23T09:33:21Z</time>
      </trkpt>
      <trkpt lat="48.73429" lon="7.25144">
        <ele>215.5</ele>
        <time>2020-05-23T09:33:22Z</time>
      </trkpt>
      <trkpt lat="48.73434" lon="7.25156">
        <ele>215.9</ele>
        <time>2020-05-23T09:33:24Z</time>
      </trkpt>
      <trkpt lat="48.73439" lon="7.25164">
        <ele>216.1</ele>
        <time>2020-05-23T09:33:26Z</time>
      </trkpt>
      <trkpt lat="48.73442" lon="7.25165">
        <ele>216.2</ele>
        <time>2020-05-23T09:33:27Z</time>
      </trkpt>
      <trkpt lat="48.7345" lon="7.25163">
        <ele>216.5</ele>
        <time>2020-05-23T09:33:29Z</time>
      </trkpt>
      <trkpt lat="48.73458" lon="7.25155">
        <ele>216.5</ele>
        <time>2020-05-23T09:33:31Z</time>
      </trkpt>
      <trkpt lat="48.73462" lon="7.25153">
        <ele>216.5</ele>
        <time>2020-05-23T09:33:32Z</time>
      </trkpt>
      <trkpt lat="48.73465" lon="7.25149">
        <ele>216.6</ele>
        <time>2020-05-23T09:33:33Z</time>
      </trkpt>
      <trkpt lat="48.73469" lon="7.25146">
        <ele>216.7</ele>
        <time>2020-05-23T09:33:34Z</time>
      </trkpt>
      <trkpt lat="48.73476" lon="7.25139">
        <ele>216.9</ele>
        <time>2020-05-23T09:33:36Z</time>
      </trkpt>
      <trkpt lat="48.73479" lon="7.25135">
        <ele>217</ele>
        <time>2020-05-23T09:33:37Z</time>
      </trkpt>
      <trkpt lat="48.73483" lon="7.25132">
        <ele>217.1</ele>
        <time>2020-05-23T09:33:38Z</time>
      </trkpt>
      <trkpt lat="48.7349" lon="7.25126">
        <ele>217.3</ele>
        <time>2020-05-23T09:33:40Z</time>
      </trkpt>
      <trkpt lat="48.73496" lon="7.25119">
        <ele>218.1</ele>
        <time>2020-05-23T09:33:42Z</time>
      </trkpt>
      <trkpt lat="48.73502" lon="7.25112">
        <ele>218.3</ele>
        <time>2020-05-23T09:33:44Z</time>
      </trkpt>
      <trkpt lat="48.73504" lon="7.25109">
        <ele>218.4</ele>
        <time>2020-05-23T09:33:45Z</time>
      </trkpt>
      <trkpt lat="48.73507" lon="7.25106">
        <ele>218.7</ele>
        <time>2020-05-23T09:33:46Z</time>
      </trkpt>
      <trkpt lat="48.73512" lon="7.25102">
        <ele>218.8</ele>
        <time>2020-05-23T09:33:48Z</time>
      </trkpt>
      <trkpt lat="48.73514" lon="7.25099">
        <ele>218.9</ele>
        <time>2020-05-23T09:33:49Z</time>
      </trkpt>
      <trkpt lat="48.73519" lon="7.25095">
        <ele>219</ele>
        <time>2020-05-23T09:33:51Z</time>
      </trkpt>
      <trkpt lat="48.73523" lon="7.25095">
        <ele>219</ele>
        <time>2020-05-23T09:33:53Z</time>
      </trkpt>
      <trkpt lat="48.73525" lon="7.25097">
        <ele>219</ele>
        <time>2020-05-23T09:33:54Z</time>
      </trkpt>
      <trkpt lat="48.73527" lon="7.25103">
        <ele>218.9</ele>
        <time>2020-05-23T09:33:56Z</time>
      </trkpt>
    </trkseg>
  </trk>
  <trk>
    <name><![CDATA[secteur Saverne - Dabo - Petite Pierre_39]]></name>
    <trkseg>
      <trkpt lat="48.68885" lon="7.25559">
        <ele>478.3</ele>
        <time>2020-05-10T14:44:50Z</time>
      </trkpt>
      <trkpt lat="48.68885" lon="7.25559">
        <ele>478.3</ele>
        <time>2020-05-10T14:44:50Z</time>
      </trkpt>
      <trkpt lat="48.68885" lon="7.25559">
        <ele>478.3</ele>
        <time>2020-05-10T14:44:50Z</time>
      </trkpt>
      <trkpt lat="48.68885" lon="7.25559">
        <ele>478.3</ele>
        <time>2020-05-10T14:44:50Z</time>
      </trkpt>
      <trkpt lat="48.68885" lon="7.25559">
        <ele>478.3</ele>
        <time>2020-05-10T14:44:50Z</time>
      </trkpt>
      <trkpt lat="48.68874" lon="7.25552">
        <ele>478.1</ele>
        <time>2020-05-10T14:44:52Z</time>
      </trkpt>
      <trkpt lat="48.68867" lon="7.2555">
        <ele>477.9</ele>
        <time>2020-05-10T14:44:53Z</time>
      </trkpt>
      <trkpt lat="48.68854" lon="7.25543">
        <ele>477.6</ele>
        <time>2020-05-10T14:44:55Z</time>
      </trkpt>
      <trkpt lat="48.68848" lon="7.25539">
        <ele>477.5</ele>
        <time>2020-05-10T14:44:56Z</time>
      </trkpt>
      <trkpt lat="48.68835" lon="7.25529">
        <ele>477</ele>
        <time>2020-05-10T14:44:58Z</time>
      </trkpt>
      <trkpt lat="48.68823" lon="7.25517">
        <ele>476.5</ele>
        <time>2020-05-10T14:45:00Z</time>
      </trkpt>
      <trkpt lat="48.68816" lon="7.2551">
        <ele>476.1</ele>
        <time>2020-05-10T14:45:01Z</time>
      </trkpt>
      <trkpt lat="48.68805" lon="7.25497">
        <ele>475.5</ele>
        <time>2020-05-10T14:45:03Z</time>
      </trkpt>
      <trkpt lat="48.68799" lon="7.25491">
        <ele>475.2</ele>
        <time>2020-05-10T14:45:04Z</time>
      </trkpt>
      <trkpt lat="48.68789" lon="7.25478">
        <ele>474.6</ele>
        <time>2020-05-10T14:45:06Z</time>
      </trkpt>
      <trkpt lat="48.68783" lon="7.25472">
        <ele>474.2</ele>
        <time>2020-05-10T14:45:07Z</time>
      </trkpt>
      <trkpt lat="48.68772" lon="7.25469">
        <ele>473.6</ele>
        <time>2020-05-10T14:45:09Z</time>
      </trkpt>
      <trkpt lat="48.68768" lon="7.25467">
        <ele>473.3</ele>
        <time>2020-05-10T14:45:10Z</time>
      </trkpt>
      <trkpt lat="48.68764" lon="7.25464">
        <ele>473</ele>
        <time>2020-05-10T14:45:11Z</time>
      </trkpt>
      <trkpt lat="48.68752" lon="7.25453">
        <ele>472</ele>
        <time>2020-05-10T14:45:13Z</time>
      </trkpt>
      <trkpt lat="48.68741" lon="7.25436">
        <ele>470.9</ele>
        <time>2020-05-10T14:45:15Z</time>
      </trkpt>
      <trkpt lat="48.68738" lon="7.25429">
        <ele>470.5</ele>
        <time>2020-05-10T14:45:16Z</time>
      </trkpt>
      <trkpt lat="48.68732" lon="7.25416">
        <ele>469.6</ele>
        <time>2020-05-10T14:45:18Z</time>
      </trkpt>
      <trkpt lat="48.68731" lon="7.2541">
        <ele>469.2</ele>
        <time>2020-05-10T14:45:19Z</time>
      </trkpt>
      <trkpt lat="48.68726" lon="7.25395">
        <ele>468.3</ele>
        <time>2020-05-10T14:45:21Z</time>
      </trkpt>
      <trkpt lat="48.68721" lon="7.2538">
        <ele>467.5</ele>
        <time>2020-05-10T14:45:23Z</time>
      </trkpt>
      <trkpt lat="48.68718" lon="7.25372">
        <ele>467</ele>
        <time>2020-05-10T14:45:24Z</time>
      </trkpt>
      <trkpt lat="48.68711" lon="7.2536">
        <ele>466</ele>
        <time>2020-05-10T14:45:26Z</time>
      </trkpt>
      <trkpt lat="48.68705" lon="7.25352">
        <ele>465.2</ele>
        <time>2020-05-10T14:45:28Z</time>
      </trkpt>
      <trkpt lat="48.68702" lon="7.25347">
        <ele>464.7</ele>
        <time>2020-05-10T14:45:29Z</time>
      </trkpt>
      <trkpt lat="48.68698" lon="7.25343">
        <ele>464.1</ele>
        <time>2020-05-10T14:45:30Z</time>
      </trkpt>
      <trkpt lat="48.68688" lon="7.2533">
        <ele>462.8</ele>
        <time>2020-05-10T14:45:32Z</time>
      </trkpt>
      <trkpt lat="48.68684" lon="7.2532">
        <ele>462</ele>
        <time>2020-05-10T14:45:33Z</time>
      </trkpt>
      <trkpt lat="48.68678" lon="7.2531">
        <ele>461.3</ele>
        <time>2020-05-10T14:45:34Z</time>
      </trkpt>
      <trkpt lat="48.68662" lon="7.2529">
        <ele>459.6</ele>
        <time>2020-05-10T14:45:36Z</time>
      </trkpt>
      <trkpt lat="48.68656" lon="7.25281">
        <ele>459</ele>
        <time>2020-05-10T14:45:37Z</time>
      </trkpt>
      <trkpt lat="48.68649" lon="7.25274">
        <ele>458.6</ele>
        <time>2020-05-10T14:45:38Z</time>
      </trkpt>
      <trkpt lat="48.68633" lon="7.25262">
        <ele>458</ele>
        <time>2020-05-10T14:45:40Z</time>
      </trkpt>
      <trkpt lat="48.68625" lon="7.25258">
        <ele>457.8</ele>
        <time>2020-05-10T14:45:41Z</time>
      </trkpt>
      <trkpt lat="48.68617" lon="7.25255">
        <ele>457.5</ele>
        <time>2020-05-10T14:45:42Z</time>
      </trkpt>
      <trkpt lat="48.68608" lon="7.25253">
        <ele>457.3</ele>
        <time>2020-05-10T14:45:43Z</time>
      </trkpt>
      <trkpt lat="48.68599" lon="7.25253">
        <ele>457</ele>
        <time>2020-05-10T14:45:44Z</time>
      </trkpt>
      <trkpt lat="48.68585" lon="7.25249">
        <ele>456.8</ele>
        <time>2020-05-10T14:45:46Z</time>
      </trkpt>
      <trkpt lat="48.68569" lon="7.25251">
        <ele>456.7</ele>
        <time>2020-05-10T14:45:48Z</time>
      </trkpt>
      <trkpt lat="48.68562" lon="7.25251">
        <ele>456.7</ele>
        <time>2020-05-10T14:45:49Z</time>
      </trkpt>
      <trkpt lat="48.68549" lon="7.25249">
        <ele>457</ele>
        <time>2020-05-10T14:45:51Z</time>
      </trkpt>
      <trkpt lat="48.68544" lon="7.25252">
        <ele>457.1</ele>
        <time>2020-05-10T14:45:52Z</time>
      </trkpt>
      <trkpt lat="48.68536" lon="7.25259">
        <ele>457.6</ele>
        <time>2020-05-10T14:45:54Z</time>
      </trkpt>
      <trkpt lat="48.68531" lon="7.25261">
        <ele>457.8</ele>
        <time>2020-05-10T14:45:55Z</time>
      </trkpt>
      <trkpt lat="48.68522" lon="7.25264">
        <ele>458.2</ele>
        <time>2020-05-10T14:45:57Z</time>
      </trkpt>
      <trkpt lat="48.68512" lon="7.25266">
        <ele>458.8</ele>
        <time>2020-05-10T14:45:59Z</time>
      </trkpt>
      <trkpt lat="48.68506" lon="7.25271">
        <ele>459.1</ele>
        <time>2020-05-10T14:46:01Z</time>
      </trkpt>
      <trkpt lat="48.68498" lon="7.25277">
        <ele>459.4</ele>
        <time>2020-05-10T14:46:03Z</time>
      </trkpt>
      <trkpt lat="48.68493" lon="7.25278">
        <ele>459.6</ele>
        <time>2020-05-10T14:46:04Z</time>
      </trkpt>
      <trkpt lat="48.68485" lon="7.2528">
        <ele>459.9</ele>
        <time>2020-05-10T14:46:06Z</time>
      </trkpt>
      <trkpt lat="48.68481" lon="7.2528">
        <ele>460</ele>
        <time>2020-05-10T14:46:07Z</time>
      </trkpt>
      <trkpt lat="48.68476" lon="7.25283">
        <ele>460.2</ele>
        <time>2020-05-10T14:46:08Z</time>
      </trkpt>
      <trkpt lat="48.68472" lon="7.25284">
        <ele>460.4</ele>
        <time>2020-05-10T14:46:09Z</time>
      </trkpt>
      <trkpt lat="48.68466" lon="7.25287">
        <ele>460.7</ele>
        <time>2020-05-10T14:46:11Z</time>
      </trkpt>
      <trkpt lat="48.68458" lon="7.2529">
        <ele>460.9</ele>
        <time>2020-05-10T14:46:13Z</time>
      </trkpt>
      <trkpt lat="48.68449" lon="7.25292">
        <ele>461.2</ele>
        <time>2020-05-10T14:46:15Z</time>
      </trkpt>
      <trkpt lat="48.68439" lon="7.25294">
        <ele>461.4</ele>
        <time>2020-05-10T14:46:17Z</time>
      </trkpt>
      <trkpt lat="48.68434" lon="7.25294">
        <ele>461.6</ele>
        <time>2020-05-10T14:46:18Z</time>
      </trkpt>
      <trkpt lat="48.68425" lon="7.25294">
        <ele>461.8</ele>
        <time>2020-05-10T14:46:20Z</time>
      </trkpt>
      <trkpt lat="48.68414" lon="7.25298">
        <ele>462.1</ele>
        <time>2020-05-10T14:46:22Z</time>
      </trkpt>
      <trkpt lat="48.68403" lon="7.25304">
        <ele>462.4</ele>
        <time>2020-05-10T14:46:24Z</time>
      </trkpt>
      <trkpt lat="48.68393" lon="7.25309">
        <ele>462.8</ele>
        <time>2020-05-10T14:46:26Z</time>
      </trkpt>
      <trkpt lat="48.68387" lon="7.25312">
        <ele>463.1</ele>
        <time>2020-05-10T14:46:27Z</time>
      </trkpt>
      <trkpt lat="48.68381" lon="7.25313">
        <ele>463.4</ele>
        <time>2020-05-10T14:46:28Z</time>
      </trkpt>
      <trkpt lat="48.68375" lon="7.25314">
        <ele>463.6</ele>
        <time>2020-05-10T14:46:29Z</time>
      </trkpt>
      <trkpt lat="48.68367" lon="7.25316">
        <ele>463.9</ele>
        <time>2020-05-10T14:46:30Z</time>
      </trkpt>
      <trkpt lat="48.68359" lon="7.25321">
        <ele>464.2</ele>
        <time>2020-05-10T14:46:32Z</time>
      </trkpt>
      <trkpt lat="48.68353" lon="7.25325">
        <ele>464.4</ele>
        <time>2020-05-10T14:46:33Z</time>
      </trkpt>
      <trkpt lat="48.6834" lon="7.25334">
        <ele>464.9</ele>
        <time>2020-05-10T14:46:35Z</time>
      </trkpt>
      <trkpt lat="48.68327" lon="7.25344">
        <ele>465.4</ele>
        <time>2020-05-10T14:46:37Z</time>
      </trkpt>
      <trkpt lat="48.68322" lon="7.25346">
        <ele>465.5</ele>
        <time>2020-05-10T14:46:38Z</time>
      </trkpt>
      <trkpt lat="48.68314" lon="7.25354">
        <ele>465.8</ele>
        <time>2020-05-10T14:46:40Z</time>
      </trkpt>
      <trkpt lat="48.68308" lon="7.25359">
        <ele>465.9</ele>
        <time>2020-05-10T14:46:41Z</time>
      </trkpt>
      <trkpt lat="48.68302" lon="7.25364">
        <ele>466.1</ele>
        <time>2020-05-10T14:46:42Z</time>
      </trkpt>
      <trkpt lat="48.68297" lon="7.25369">
        <ele>466.2</ele>
        <time>2020-05-10T14:46:43Z</time>
      </trkpt>
      <trkpt lat="48.68293" lon="7.25373">
        <ele>466.3</ele>
        <time>2020-05-10T14:46:44Z</time>
      </trkpt>
      <trkpt lat="48.68283" lon="7.25381">
        <ele>466.6</ele>
        <time>2020-05-10T14:46:46Z</time>
      </trkpt>
      <trkpt lat="48.68278" lon="7.25385">
        <ele>466.7</ele>
        <time>2020-05-10T14:46:47Z</time>
      </trkpt>
      <trkpt lat="48.68274" lon="7.25388">
        <ele>466.8</ele>
        <time>2020-05-10T14:46:48Z</time>
      </trkpt>
      <trkpt lat="48.6827" lon="7.25392">
        <ele>466.9</ele>
        <time>2020-05-10T14:46:49Z</time>
      </trkpt>
      <trkpt lat="48.68261" lon="7.254">
        <ele>467.3</ele>
        <time>2020-05-10T14:46:51Z</time>
      </trkpt>
      <trkpt lat="48.68257" lon="7.25405">
        <ele>467.4</ele>
        <time>2020-05-10T14:46:52Z</time>
      </trkpt>
      <trkpt lat="48.68251" lon="7.25411">
        <ele>467.7</ele>
        <time>2020-05-10T14:46:54Z</time>
      </trkpt>
      <trkpt lat="48.68243" lon="7.25419">
        <ele>468</ele>
        <time>2020-05-10T14:46:56Z</time>
      </trkpt>
      <trkpt lat="48.68237" lon="7.25426">
        <ele>468.3</ele>
        <time>2020-05-10T14:46:58Z</time>
      </trkpt>
      <trkpt lat="48.68232" lon="7.25433">
        <ele>468.5</ele>
        <time>2020-05-10T14:47:00Z</time>
      </trkpt>
      <trkpt lat="48.68226" lon="7.2544">
        <ele>468.9</ele>
        <time>2020-05-10T14:47:02Z</time>
      </trkpt>
      <trkpt lat="48.68218" lon="7.25448">
        <ele>469.2</ele>
        <time>2020-05-10T14:47:04Z</time>
      </trkpt>
      <trkpt lat="48.68215" lon="7.25452">
        <ele>469.4</ele>
        <time>2020-05-10T14:47:05Z</time>
      </trkpt>
      <trkpt lat="48.6821" lon="7.25456">
        <ele>469.6</ele>
        <time>2020-05-10T14:47:06Z</time>
      </trkpt>
      <trkpt lat="48.68204" lon="7.25463">
        <ele>470</ele>
        <time>2020-05-10T14:47:08Z</time>
      </trkpt>
      <trkpt lat="48.68201" lon="7.25467">
        <ele>470.2</ele>
        <time>2020-05-10T14:47:09Z</time>
      </trkpt>
      <trkpt lat="48.68197" lon="7.25471">
        <ele>470.4</ele>
        <time>2020-05-10T14:47:10Z</time>
      </trkpt>
      <trkpt lat="48.6819" lon="7.25477">
        <ele>470.6</ele>
        <time>2020-05-10T14:47:12Z</time>
      </trkpt>
      <trkpt lat="48.68187" lon="7.2548">
        <ele>470.7</ele>
        <time>2020-05-10T14:47:13Z</time>
      </trkpt>
      <trkpt lat="48.68183" lon="7.25484">
        <ele>470.9</ele>
        <time>2020-05-10T14:47:14Z</time>
      </trkpt>
      <trkpt lat="48.68177" lon="7.25488">
        <ele>471.1</ele>
        <time>2020-05-10T14:47:16Z</time>
      </trkpt>
      <trkpt lat="48.68174" lon="7.25491">
        <ele>471.2</ele>
        <time>2020-05-10T14:47:17Z</time>
      </trkpt>
      <trkpt lat="48.68166" lon="7.25498">
        <ele>471.4</ele>
        <time>2020-05-10T14:47:19Z</time>
      </trkpt>
      <trkpt lat="48.68163" lon="7.25501">
        <ele>471.5</ele>
        <time>2020-05-10T14:47:20Z</time>
      </trkpt>
      <trkpt lat="48.68155" lon="7.25507">
        <ele>471.6</ele>
        <time>2020-05-10T14:47:22Z</time>
      </trkpt>
      <trkpt lat="48.68151" lon="7.2551">
        <ele>471.7</ele>
        <time>2020-05-10T14:47:23Z</time>
      </trkpt>
      <trkpt lat="48.68148" lon="7.25512">
        <ele>471.8</ele>
        <time>2020-05-10T14:47:24Z</time>
      </trkpt>
      <trkpt lat="48.68142" lon="7.25521">
        <ele>471.8</ele>
        <time>2020-05-10T14:47:26Z</time>
      </trkpt>
      <trkpt lat="48.68139" lon="7.25526">
        <ele>471.8</ele>
        <time>2020-05-10T14:47:27Z</time>
      </trkpt>
      <trkpt lat="48.68134" lon="7.25531">
        <ele>471.8</ele>
        <time>2020-05-10T14:47:28Z</time>
      </trkpt>
      <trkpt lat="48.6813" lon="7.25537">
        <ele>471.8</ele>
        <time>2020-05-10T14:47:29Z</time>
      </trkpt>
      <trkpt lat="48.6812" lon="7.25549">
        <ele>471.5</ele>
        <time>2020-05-10T14:47:31Z</time>
      </trkpt>
      <trkpt lat="48.68112" lon="7.25557">
        <ele>471.1</ele>
        <time>2020-05-10T14:47:33Z</time>
      </trkpt>
      <trkpt lat="48.681" lon="7.25564">
        <ele>470.7</ele>
        <time>2020-05-10T14:47:35Z</time>
      </trkpt>
      <trkpt lat="48.68089" lon="7.25578">
        <ele>470.3</ele>
        <time>2020-05-10T14:47:37Z</time>
      </trkpt>
      <trkpt lat="48.68084" lon="7.25583">
        <ele>470.1</ele>
        <time>2020-05-10T14:47:38Z</time>
      </trkpt>
      <trkpt lat="48.68076" lon="7.25598">
        <ele>469.7</ele>
        <time>2020-05-10T14:47:40Z</time>
      </trkpt>
      <trkpt lat="48.68067" lon="7.25614">
        <ele>469.4</ele>
        <time>2020-05-10T14:47:42Z</time>
      </trkpt>
      <trkpt lat="48.68056" lon="7.25632">
        <ele>469</ele>
        <time>2020-05-10T14:47:44Z</time>
      </trkpt>
      <trkpt lat="48.6805" lon="7.2564">
        <ele>468.8</ele>
        <time>2020-05-10T14:47:45Z</time>
      </trkpt>
      <trkpt lat="48.68041" lon="7.25657">
        <ele>468.5</ele>
        <time>2020-05-10T14:47:47Z</time>
      </trkpt>
      <trkpt lat="48.68036" lon="7.25665">
        <ele>468.2</ele>
        <time>2020-05-10T14:47:48Z</time>
      </trkpt>
      <trkpt lat="48.68029" lon="7.25673">
        <ele>468</ele>
        <time>2020-05-10T14:47:50Z</time>
      </trkpt>
      <trkpt lat="48.68022" lon="7.25682">
        <ele>467.8</ele>
        <time>2020-05-10T14:47:51Z</time>
      </trkpt>
      <trkpt lat="48.68018" lon="7.25686">
        <ele>467.7</ele>
        <time>2020-05-10T14:47:52Z</time>
      </trkpt>
      <trkpt lat="48.68014" lon="7.2569">
        <ele>467.6</ele>
        <time>2020-05-10T14:47:53Z</time>
      </trkpt>
      <trkpt lat="48.68004" lon="7.25701">
        <ele>467.5</ele>
        <time>2020-05-10T14:47:55Z</time>
      </trkpt>
      <trkpt lat="48.67998" lon="7.25708">
        <ele>467.5</ele>
        <time>2020-05-10T14:47:56Z</time>
      </trkpt>
      <trkpt lat="48.67986" lon="7.2572">
        <ele>467.5</ele>
        <time>2020-05-10T14:47:58Z</time>
      </trkpt>
      <trkpt lat="48.67977" lon="7.25722">
        <ele>467.6</ele>
        <time>2020-05-10T14:48:00Z</time>
      </trkpt>
      <trkpt lat="48.6797" lon="7.25722">
        <ele>467.6</ele>
        <time>2020-05-10T14:48:01Z</time>
      </trkpt>
      <trkpt lat="48.67959" lon="7.25726">
        <ele>467.7</ele>
        <time>2020-05-10T14:48:03Z</time>
      </trkpt>
      <trkpt lat="48.67946" lon="7.25732">
        <ele>467.6</ele>
        <time>2020-05-10T14:48:05Z</time>
      </trkpt>
      <trkpt lat="48.67939" lon="7.25732">
        <ele>467.5</ele>
        <time>2020-05-10T14:48:06Z</time>
      </trkpt>
      <trkpt lat="48.6793" lon="7.25731">
        <ele>467.2</ele>
        <time>2020-05-10T14:48:08Z</time>
      </trkpt>
      <trkpt lat="48.6792" lon="7.25729">
        <ele>467</ele>
        <time>2020-05-10T14:48:10Z</time>
      </trkpt>
      <trkpt lat="48.67914" lon="7.25726">
        <ele>466.8</ele>
        <time>2020-05-10T14:48:11Z</time>
      </trkpt>
      <trkpt lat="48.67903" lon="7.25727">
        <ele>466.6</ele>
        <time>2020-05-10T14:48:13Z</time>
      </trkpt>
      <trkpt lat="48.67892" lon="7.25727">
        <ele>466.4</ele>
        <time>2020-05-10T14:48:15Z</time>
      </trkpt>
      <trkpt lat="48.67886" lon="7.25727">
        <ele>466.3</ele>
        <time>2020-05-10T14:48:16Z</time>
      </trkpt>
      <trkpt lat="48.67875" lon="7.25735">
        <ele>466.1</ele>
        <time>2020-05-10T14:48:18Z</time>
      </trkpt>
      <trkpt lat="48.67865" lon="7.25738">
        <ele>466</ele>
        <time>2020-05-10T14:48:20Z</time>
      </trkpt>
      <trkpt lat="48.67858" lon="7.2574">
        <ele>466</ele>
        <time>2020-05-10T14:48:21Z</time>
      </trkpt>
      <trkpt lat="48.67846" lon="7.25743">
        <ele>466</ele>
        <time>2020-05-10T14:48:23Z</time>
      </trkpt>
      <trkpt lat="48.67841" lon="7.25742">
        <ele>466.1</ele>
        <time>2020-05-10T14:48:24Z</time>
      </trkpt>
      <trkpt lat="48.67836" lon="7.25743">
        <ele>466.1</ele>
        <time>2020-05-10T14:48:25Z</time>
      </trkpt>
      <trkpt lat="48.67831" lon="7.25747">
        <ele>466.3</ele>
        <time>2020-05-10T14:48:26Z</time>
      </trkpt>
      <trkpt lat="48.67818" lon="7.25751">
        <ele>466.5</ele>
        <time>2020-05-10T14:48:28Z</time>
      </trkpt>
      <trkpt lat="48.67809" lon="7.25753">
        <ele>466.6</ele>
        <time>2020-05-10T14:48:30Z</time>
      </trkpt>
      <trkpt lat="48.678" lon="7.25758">
        <ele>466.8</ele>
        <time>2020-05-10T14:48:32Z</time>
      </trkpt>
      <trkpt lat="48.6779" lon="7.2576">
        <ele>467</ele>
        <time>2020-05-10T14:48:34Z</time>
      </trkpt>
      <trkpt lat="48.67785" lon="7.25763">
        <ele>467.1</ele>
        <time>2020-05-10T14:48:35Z</time>
      </trkpt>
      <trkpt lat="48.67774" lon="7.25771">
        <ele>467.5</ele>
        <time>2020-05-10T14:48:37Z</time>
      </trkpt>
      <trkpt lat="48.67769" lon="7.25776">
        <ele>467.7</ele>
        <time>2020-05-10T14:48:38Z</time>
      </trkpt>
      <trkpt lat="48.67765" lon="7.25778">
        <ele>467.9</ele>
        <time>2020-05-10T14:48:39Z</time>
      </trkpt>
      <trkpt lat="48.67754" lon="7.25785">
        <ele>468.2</ele>
        <time>2020-05-10T14:48:41Z</time>
      </trkpt>
      <trkpt lat="48.67749" lon="7.25787">
        <ele>468.4</ele>
        <time>2020-05-10T14:48:42Z</time>
      </trkpt>
      <trkpt lat="48.67742" lon="7.25796">
        <ele>468.6</ele>
        <time>2020-05-10T14:48:44Z</time>
      </trkpt>
      <trkpt lat="48.6774" lon="7.258">
        <ele>468.6</ele>
        <time>2020-05-10T14:48:45Z</time>
      </trkpt>
      <trkpt lat="48.67731" lon="7.25806">
        <ele>468.8</ele>
        <time>2020-05-10T14:48:47Z</time>
      </trkpt>
      <trkpt lat="48.67721" lon="7.25813">
        <ele>469.1</ele>
        <time>2020-05-10T14:48:49Z</time>
      </trkpt>
      <trkpt lat="48.67714" lon="7.25818">
        <ele>469.2</ele>
        <time>2020-05-10T14:48:51Z</time>
      </trkpt>
      <trkpt lat="48.67706" lon="7.25823">
        <ele>469.3</ele>
        <time>2020-05-10T14:48:52Z</time>
      </trkpt>
      <trkpt lat="48.67698" lon="7.2583">
        <ele>469.3</ele>
        <time>2020-05-10T14:48:54Z</time>
      </trkpt>
      <trkpt lat="48.67695" lon="7.25832">
        <ele>469.3</ele>
        <time>2020-05-10T14:48:55Z</time>
      </trkpt>
      <trkpt lat="48.67691" lon="7.25836">
        <ele>469.2</ele>
        <time>2020-05-10T14:48:56Z</time>
      </trkpt>
      <trkpt lat="48.67686" lon="7.2584">
        <ele>469.2</ele>
        <time>2020-05-10T14:48:57Z</time>
      </trkpt>
      <trkpt lat="48.67682" lon="7.25845">
        <ele>469.1</ele>
        <time>2020-05-10T14:48:58Z</time>
      </trkpt>
      <trkpt lat="48.67673" lon="7.25851">
        <ele>468.8</ele>
        <time>2020-05-10T14:49:00Z</time>
      </trkpt>
      <trkpt lat="48.6767" lon="7.25854">
        <ele>468.7</ele>
        <time>2020-05-10T14:49:01Z</time>
      </trkpt>
      <trkpt lat="48.67661" lon="7.25862">
        <ele>468.3</ele>
        <time>2020-05-10T14:49:03Z</time>
      </trkpt>
      <trkpt lat="48.67656" lon="7.25865">
        <ele>468.1</ele>
        <time>2020-05-10T14:49:04Z</time>
      </trkpt>
      <trkpt lat="48.67645" lon="7.25873">
        <ele>467.6</ele>
        <time>2020-05-10T14:49:06Z</time>
      </trkpt>
      <trkpt lat="48.67633" lon="7.25876">
        <ele>467</ele>
        <time>2020-05-10T14:49:08Z</time>
      </trkpt>
      <trkpt lat="48.67619" lon="7.25876">
        <ele>466.2</ele>
        <time>2020-05-10T14:49:10Z</time>
      </trkpt>
      <trkpt lat="48.67613" lon="7.25876">
        <ele>465.8</ele>
        <time>2020-05-10T14:49:11Z</time>
      </trkpt>
      <trkpt lat="48.67604" lon="7.25875">
        <ele>465.3</ele>
        <time>2020-05-10T14:49:12Z</time>
      </trkpt>
      <trkpt lat="48.67593" lon="7.25878">
        <ele>464.9</ele>
        <time>2020-05-10T14:49:14Z</time>
      </trkpt>
      <trkpt lat="48.67588" lon="7.25879">
        <ele>464.7</ele>
        <time>2020-05-10T14:49:15Z</time>
      </trkpt>
      <trkpt lat="48.67579" lon="7.2588">
        <ele>464.4</ele>
        <time>2020-05-10T14:49:17Z</time>
      </trkpt>
      <trkpt lat="48.67569" lon="7.25879">
        <ele>464</ele>
        <time>2020-05-10T14:49:19Z</time>
      </trkpt>
      <trkpt lat="48.67565" lon="7.25877">
        <ele>463.9</ele>
        <time>2020-05-10T14:49:20Z</time>
      </trkpt>
      <trkpt lat="48.67561" lon="7.25877">
        <ele>463.7</ele>
        <time>2020-05-10T14:49:21Z</time>
      </trkpt>
      <trkpt lat="48.67551" lon="7.25876">
        <ele>464.3</ele>
        <time>2020-05-10T14:49:23Z</time>
      </trkpt>
      <trkpt lat="48.67546" lon="7.25874">
        <ele>464.4</ele>
        <time>2020-05-10T14:49:24Z</time>
      </trkpt>
      <trkpt lat="48.67541" lon="7.25875">
        <ele>464.6</ele>
        <time>2020-05-10T14:49:25Z</time>
      </trkpt>
      <trkpt lat="48.67534" lon="7.25877">
        <ele>464.8</ele>
        <time>2020-05-10T14:49:27Z</time>
      </trkpt>
      <trkpt lat="48.67526" lon="7.25878">
        <ele>465.1</ele>
        <time>2020-05-10T14:49:29Z</time>
      </trkpt>
      <trkpt lat="48.67528" lon="7.25882">
        <ele>465.2</ele>
        <time>2020-05-10T14:49:31Z</time>
      </trkpt>
      <trkpt lat="48.67531" lon="7.25888">
        <ele>465.4</ele>
        <time>2020-05-10T14:49:32Z</time>
      </trkpt>
      <trkpt lat="48.67537" lon="7.25897">
        <ele>465</ele>
        <time>2020-05-10T14:49:34Z</time>
      </trkpt>
      <trkpt lat="48.6754" lon="7.25902">
        <ele>464.8</ele>
        <time>2020-05-10T14:49:35Z</time>
      </trkpt>
      <trkpt lat="48.67548" lon="7.25908">
        <ele>464.4</ele>
        <time>2020-05-10T14:49:37Z</time>
      </trkpt>
      <trkpt lat="48.67552" lon="7.25918">
        <ele>464.1</ele>
        <time>2020-05-10T14:49:39Z</time>
      </trkpt>
      <trkpt lat="48.67555" lon="7.25926">
        <ele>463.8</ele>
        <time>2020-05-10T14:49:41Z</time>
      </trkpt>
      <trkpt lat="48.67557" lon="7.25932">
        <ele>463.7</ele>
        <time>2020-05-10T14:49:42Z</time>
      </trkpt>
      <trkpt lat="48.67558" lon="7.25937">
        <ele>463.5</ele>
        <time>2020-05-10T14:49:43Z</time>
      </trkpt>
      <trkpt lat="48.67558" lon="7.25942">
        <ele>463.4</ele>
        <time>2020-05-10T14:49:44Z</time>
      </trkpt>
      <trkpt lat="48.67559" lon="7.25947">
        <ele>463.3</ele>
        <time>2020-05-10T14:49:45Z</time>
      </trkpt>
      <trkpt lat="48.67562" lon="7.25958">
        <ele>462.9</ele>
        <time>2020-05-10T14:49:47Z</time>
      </trkpt>
      <trkpt lat="48.67563" lon="7.25963">
        <ele>462.8</ele>
        <time>2020-05-10T14:49:48Z</time>
      </trkpt>
      <trkpt lat="48.67563" lon="7.25969">
        <ele>462.3</ele>
        <time>2020-05-10T14:49:49Z</time>
      </trkpt>
      <trkpt lat="48.67565" lon="7.25981">
        <ele>462.3</ele>
        <time>2020-05-10T14:49:51Z</time>
      </trkpt>
      <trkpt lat="48.67566" lon="7.25987">
        <ele>462.2</ele>
        <time>2020-05-10T14:49:52Z</time>
      </trkpt>
      <trkpt lat="48.67567" lon="7.25999">
        <ele>462.2</ele>
        <time>2020-05-10T14:49:54Z</time>
      </trkpt>
      <trkpt lat="48.67568" lon="7.2601">
        <ele>462.2</ele>
        <time>2020-05-10T14:49:56Z</time>
      </trkpt>
      <trkpt lat="48.67569" lon="7.26016">
        <ele>462.1</ele>
        <time>2020-05-10T14:49:57Z</time>
      </trkpt>
      <trkpt lat="48.67569" lon="7.26028">
        <ele>462.1</ele>
        <time>2020-05-10T14:49:59Z</time>
      </trkpt>
      <trkpt lat="48.67569" lon="7.26035">
        <ele>462.1</ele>
        <time>2020-05-10T14:50:01Z</time>
      </trkpt>
    </trkseg>
  </trk>
  <trk>
    <name><![CDATA[secteur Saverne - Dabo - Petite Pierre_40]]></name>
    <trkseg>
      <trkpt lat="48.68884" lon="7.2556">
        <ele>478.3</ele>
        <time>2020-05-10T15:11:33Z</time>
      </trkpt>
      <trkpt lat="48.68884" lon="7.2556">
        <ele>478.3</ele>
        <time>2020-05-10T15:11:33Z</time>
      </trkpt>
      <trkpt lat="48.68884" lon="7.2556">
        <ele>478.3</ele>
        <time>2020-05-10T15:11:33Z</time>
      </trkpt>
      <trkpt lat="48.68884" lon="7.2556">
        <ele>478.3</ele>
        <time>2020-05-10T15:11:33Z</time>
      </trkpt>
      <trkpt lat="48.68884" lon="7.2556">
        <ele>478.3</ele>
        <time>2020-05-10T15:11:33Z</time>
      </trkpt>
      <trkpt lat="48.68888" lon="7.25563">
        <ele>478.4</ele>
        <time>2020-05-10T15:11:34Z</time>
      </trkpt>
      <trkpt lat="48.68891" lon="7.25566">
        <ele>478.5</ele>
        <time>2020-05-10T15:11:35Z</time>
      </trkpt>
      <trkpt lat="48.68896" lon="7.25574">
        <ele>478.6</ele>
        <time>2020-05-10T15:11:37Z</time>
      </trkpt>
      <trkpt lat="48.68898" lon="7.25579">
        <ele>478.6</ele>
        <time>2020-05-10T15:11:38Z</time>
      </trkpt>
      <trkpt lat="48.689" lon="7.25583">
        <ele>478.6</ele>
        <time>2020-05-10T15:11:39Z</time>
      </trkpt>
      <trkpt lat="48.68903" lon="7.25587">
        <ele>478.7</ele>
        <time>2020-05-10T15:11:40Z</time>
      </trkpt>
      <trkpt lat="48.68905" lon="7.25592">
        <ele>478.7</ele>
        <time>2020-05-10T15:11:41Z</time>
      </trkpt>
      <trkpt lat="48.68911" lon="7.25602">
        <ele>478.9</ele>
        <time>2020-05-10T15:11:43Z</time>
      </trkpt>
      <trkpt lat="48.68913" lon="7.25608">
        <ele>479</ele>
        <time>2020-05-10T15:11:44Z</time>
      </trkpt>
      <trkpt lat="48.6892" lon="7.25619">
        <ele>479.2</ele>
        <time>2020-05-10T15:11:46Z</time>
      </trkpt>
      <trkpt lat="48.68928" lon="7.25628">
        <ele>479.4</ele>
        <time>2020-05-10T15:11:48Z</time>
      </trkpt>
      <trkpt lat="48.68933" lon="7.25632">
        <ele>479.4</ele>
        <time>2020-05-10T15:11:49Z</time>
      </trkpt>
      <trkpt lat="48.68937" lon="7.25637">
        <ele>479.5</ele>
        <time>2020-05-10T15:11:50Z</time>
      </trkpt>
      <trkpt lat="48.68944" lon="7.25649">
        <ele>479.7</ele>
        <time>2020-05-10T15:11:52Z</time>
      </trkpt>
      <trkpt lat="48.68949" lon="7.25659">
        <ele>479.9</ele>
        <time>2020-05-10T15:11:54Z</time>
      </trkpt>
      <trkpt lat="48.68958" lon="7.25669">
        <ele>480.1</ele>
        <time>2020-05-10T15:11:56Z</time>
      </trkpt>
      <trkpt lat="48.68963" lon="7.25673">
        <ele>480.2</ele>
        <time>2020-05-10T15:11:57Z</time>
      </trkpt>
      <trkpt lat="48.68969" lon="7.25679">
        <ele>480.3</ele>
        <time>2020-05-10T15:11:59Z</time>
      </trkpt>
      <trkpt lat="48.68976" lon="7.25686">
        <ele>480.4</ele>
        <time>2020-05-10T15:12:00Z</time>
      </trkpt>
      <trkpt lat="48.68981" lon="7.25689">
        <ele>480.5</ele>
        <time>2020-05-10T15:12:01Z</time>
      </trkpt>
      <trkpt lat="48.6899" lon="7.25698">
        <ele>480.7</ele>
        <time>2020-05-10T15:12:03Z</time>
      </trkpt>
      <trkpt lat="48.68994" lon="7.25701">
        <ele>480.8</ele>
        <time>2020-05-10T15:12:04Z</time>
      </trkpt>
      <trkpt lat="48.68999" lon="7.25705">
        <ele>480.8</ele>
        <time>2020-05-10T15:12:05Z</time>
      </trkpt>
      <trkpt lat="48.69007" lon="7.25713">
        <ele>480.9</ele>
        <time>2020-05-10T15:12:07Z</time>
      </trkpt>
      <trkpt lat="48.69013" lon="7.25721">
        <ele>480.9</ele>
        <time>2020-05-10T15:12:09Z</time>
      </trkpt>
      <trkpt lat="48.69016" lon="7.25725">
        <ele>480.9</ele>
        <time>2020-05-10T15:12:10Z</time>
      </trkpt>
      <trkpt lat="48.69023" lon="7.25733">
        <ele>480.9</ele>
        <time>2020-05-10T15:12:12Z</time>
      </trkpt>
      <trkpt lat="48.69027" lon="7.25737">
        <ele>481</ele>
        <time>2020-05-10T15:12:13Z</time>
      </trkpt>
      <trkpt lat="48.69032" lon="7.25742">
        <ele>481</ele>
        <time>2020-05-10T15:12:14Z</time>
      </trkpt>
      <trkpt lat="48.69043" lon="7.25752">
        <ele>481.3</ele>
        <time>2020-05-10T15:12:16Z</time>
      </trkpt>
      <trkpt lat="48.69056" lon="7.25759">
        <ele>481.7</ele>
        <time>2020-05-10T15:12:18Z</time>
      </trkpt>
      <trkpt lat="48.6906" lon="7.25763">
        <ele>481.9</ele>
        <time>2020-05-10T15:12:19Z</time>
      </trkpt>
      <trkpt lat="48.69072" lon="7.25768">
        <ele>482.2</ele>
        <time>2020-05-10T15:12:21Z</time>
      </trkpt>
      <trkpt lat="48.69081" lon="7.25772">
        <ele>482.4</ele>
        <time>2020-05-10T15:12:23Z</time>
      </trkpt>
      <trkpt lat="48.69091" lon="7.25773">
        <ele>482.5</ele>
        <time>2020-05-10T15:12:25Z</time>
      </trkpt>
      <trkpt lat="48.69099" lon="7.25774">
        <ele>482.5</ele>
        <time>2020-05-10T15:12:26Z</time>
      </trkpt>
      <trkpt lat="48.69107" lon="7.25774">
        <ele>482.4</ele>
        <time>2020-05-10T15:12:27Z</time>
      </trkpt>
      <trkpt lat="48.69121" lon="7.25775">
        <ele>482.4</ele>
        <time>2020-05-10T15:12:29Z</time>
      </trkpt>
      <trkpt lat="48.69128" lon="7.25777">
        <ele>482.4</ele>
        <time>2020-05-10T15:12:30Z</time>
      </trkpt>
      <trkpt lat="48.69133" lon="7.25779">
        <ele>482.5</ele>
        <time>2020-05-10T15:12:31Z</time>
      </trkpt>
      <trkpt lat="48.69143" lon="7.25782">
        <ele>482.6</ele>
        <time>2020-05-10T15:12:33Z</time>
      </trkpt>
      <trkpt lat="48.69147" lon="7.25785">
        <ele>482.7</ele>
        <time>2020-05-10T15:12:34Z</time>
      </trkpt>
      <trkpt lat="48.6916" lon="7.25791">
        <ele>483</ele>
        <time>2020-05-10T15:12:36Z</time>
      </trkpt>
      <trkpt lat="48.69165" lon="7.25797">
        <ele>483.1</ele>
        <time>2020-05-10T15:12:37Z</time>
      </trkpt>
      <trkpt lat="48.69171" lon="7.25801">
        <ele>483.3</ele>
        <time>2020-05-10T15:12:38Z</time>
      </trkpt>
      <trkpt lat="48.69184" lon="7.25809">
        <ele>483.7</ele>
        <time>2020-05-10T15:12:40Z</time>
      </trkpt>
      <trkpt lat="48.69189" lon="7.25813">
        <ele>483.9</ele>
        <time>2020-05-10T15:12:41Z</time>
      </trkpt>
      <trkpt lat="48.69193" lon="7.25818">
        <ele>484</ele>
        <time>2020-05-10T15:12:42Z</time>
      </trkpt>
      <trkpt lat="48.69197" lon="7.25822">
        <ele>484.1</ele>
        <time>2020-05-10T15:12:43Z</time>
      </trkpt>
      <trkpt lat="48.69205" lon="7.25827">
        <ele>484.3</ele>
        <time>2020-05-10T15:12:45Z</time>
      </trkpt>
      <trkpt lat="48.69211" lon="7.25833">
        <ele>484.4</ele>
        <time>2020-05-10T15:12:46Z</time>
      </trkpt>
      <trkpt lat="48.69222" lon="7.25845">
        <ele>484.7</ele>
        <time>2020-05-10T15:12:48Z</time>
      </trkpt>
      <trkpt lat="48.69228" lon="7.2585">
        <ele>484.8</ele>
        <time>2020-05-10T15:12:49Z</time>
      </trkpt>
      <trkpt lat="48.69233" lon="7.25854">
        <ele>484.9</ele>
        <time>2020-05-10T15:12:50Z</time>
      </trkpt>
      <trkpt lat="48.69241" lon="7.25863">
        <ele>485.2</ele>
        <time>2020-05-10T15:12:52Z</time>
      </trkpt>
      <trkpt lat="48.69249" lon="7.25872">
        <ele>485.5</ele>
        <time>2020-05-10T15:12:54Z</time>
      </trkpt>
      <trkpt lat="48.69253" lon="7.25875">
        <ele>485.6</ele>
        <time>2020-05-10T15:12:55Z</time>
      </trkpt>
      <trkpt lat="48.69258" lon="7.25883">
        <ele>485.8</ele>
        <time>2020-05-10T15:12:57Z</time>
      </trkpt>
      <trkpt lat="48.69262" lon="7.2589">
        <ele>485.9</ele>
        <time>2020-05-10T15:12:58Z</time>
      </trkpt>
      <trkpt lat="48.69268" lon="7.25903">
        <ele>486.2</ele>
        <time>2020-05-10T15:13:00Z</time>
      </trkpt>
      <trkpt lat="48.6927" lon="7.25912">
        <ele>486.4</ele>
        <time>2020-05-10T15:13:01Z</time>
      </trkpt>
      <trkpt lat="48.69275" lon="7.25928">
        <ele>486.2</ele>
        <time>2020-05-10T15:13:03Z</time>
      </trkpt>
      <trkpt lat="48.69277" lon="7.25937">
        <ele>486</ele>
        <time>2020-05-10T15:13:04Z</time>
      </trkpt>
      <trkpt lat="48.69283" lon="7.25956">
        <ele>485</ele>
        <time>2020-05-10T15:13:06Z</time>
      </trkpt>
      <trkpt lat="48.69287" lon="7.25968">
        <ele>484.4</ele>
        <time>2020-05-10T15:13:07Z</time>
      </trkpt>
      <trkpt lat="48.69291" lon="7.2598">
        <ele>483.7</ele>
        <time>2020-05-10T15:13:08Z</time>
      </trkpt>
      <trkpt lat="48.69299" lon="7.26003">
        <ele>482.7</ele>
        <time>2020-05-10T15:13:10Z</time>
      </trkpt>
      <trkpt lat="48.69303" lon="7.26015">
        <ele>482.3</ele>
        <time>2020-05-10T15:13:11Z</time>
      </trkpt>
      <trkpt lat="48.69304" lon="7.26039">
        <ele>481.8</ele>
        <time>2020-05-10T15:13:13Z</time>
      </trkpt>
      <trkpt lat="48.69308" lon="7.26065">
        <ele>481.2</ele>
        <time>2020-05-10T15:13:15Z</time>
      </trkpt>
      <trkpt lat="48.6931" lon="7.26076">
        <ele>480.9</ele>
        <time>2020-05-10T15:13:16Z</time>
      </trkpt>
      <trkpt lat="48.69318" lon="7.26096">
        <ele>480.8</ele>
        <time>2020-05-10T15:13:18Z</time>
      </trkpt>
      <trkpt lat="48.69325" lon="7.26115">
        <ele>481.1</ele>
        <time>2020-05-10T15:13:20Z</time>
      </trkpt>
      <trkpt lat="48.69332" lon="7.26139">
        <ele>481.8</ele>
        <time>2020-05-10T15:13:22Z</time>
      </trkpt>
      <trkpt lat="48.69339" lon="7.26159">
        <ele>482.3</ele>
        <time>2020-05-10T15:13:24Z</time>
      </trkpt>
      <trkpt lat="48.6934" lon="7.26169">
        <ele>482.4</ele>
        <time>2020-05-10T15:13:25Z</time>
      </trkpt>
      <trkpt lat="48.69341" lon="7.26181">
        <ele>482.4</ele>
        <time>2020-05-10T15:13:26Z</time>
      </trkpt>
      <trkpt lat="48.69343" lon="7.26192">
        <ele>482.3</ele>
        <time>2020-05-10T15:13:27Z</time>
      </trkpt>
      <trkpt lat="48.69348" lon="7.26213">
        <ele>482</ele>
        <time>2020-05-10T15:13:29Z</time>
      </trkpt>
      <trkpt lat="48.69352" lon="7.26223">
        <ele>481.7</ele>
        <time>2020-05-10T15:13:30Z</time>
      </trkpt>
      <trkpt lat="48.6936" lon="7.26238">
        <ele>481</ele>
        <time>2020-05-10T15:13:32Z</time>
      </trkpt>
      <trkpt lat="48.69367" lon="7.26241">
        <ele>480.6</ele>
        <time>2020-05-10T15:13:33Z</time>
      </trkpt>
      <trkpt lat="48.6938" lon="7.26245">
        <ele>480.4</ele>
        <time>2020-05-10T15:13:35Z</time>
      </trkpt>
      <trkpt lat="48.69394" lon="7.2624">
        <ele>480.2</ele>
        <time>2020-05-10T15:13:37Z</time>
      </trkpt>
      <trkpt lat="48.69401" lon="7.26234">
        <ele>479.9</ele>
        <time>2020-05-10T15:13:38Z</time>
      </trkpt>
      <trkpt lat="48.69415" lon="7.26223">
        <ele>479.1</ele>
        <time>2020-05-10T15:13:40Z</time>
      </trkpt>
      <trkpt lat="48.69422" lon="7.26216">
        <ele>478.7</ele>
        <time>2020-05-10T15:13:41Z</time>
      </trkpt>
      <trkpt lat="48.69436" lon="7.26201">
        <ele>478.2</ele>
        <time>2020-05-10T15:13:43Z</time>
      </trkpt>
      <trkpt lat="48.69442" lon="7.26193">
        <ele>478</ele>
        <time>2020-05-10T15:13:44Z</time>
      </trkpt>
      <trkpt lat="48.6945" lon="7.26181">
        <ele>477.8</ele>
        <time>2020-05-10T15:13:46Z</time>
      </trkpt>
      <trkpt lat="48.69461" lon="7.26165">
        <ele>477.4</ele>
        <time>2020-05-10T15:13:48Z</time>
      </trkpt>
      <trkpt lat="48.69473" lon="7.26146">
        <ele>476.6</ele>
        <time>2020-05-10T15:13:50Z</time>
      </trkpt>
      <trkpt lat="48.69484" lon="7.26137">
        <ele>476.1</ele>
        <time>2020-05-10T15:13:52Z</time>
      </trkpt>
      <trkpt lat="48.69489" lon="7.26136">
        <ele>475.9</ele>
        <time>2020-05-10T15:13:53Z</time>
      </trkpt>
      <trkpt lat="48.69496" lon="7.26134">
        <ele>475.5</ele>
        <time>2020-05-10T15:13:54Z</time>
      </trkpt>
      <trkpt lat="48.69512" lon="7.26125">
        <ele>474.9</ele>
        <time>2020-05-10T15:13:56Z</time>
      </trkpt>
      <trkpt lat="48.6952" lon="7.2612">
        <ele>474.6</ele>
        <time>2020-05-10T15:13:57Z</time>
      </trkpt>
      <trkpt lat="48.6953" lon="7.26111">
        <ele>474.2</ele>
        <time>2020-05-10T15:13:59Z</time>
      </trkpt>
      <trkpt lat="48.69545" lon="7.26106">
        <ele>473.9</ele>
        <time>2020-05-10T15:14:00Z</time>
      </trkpt>
      <trkpt lat="48.69553" lon="7.26104">
        <ele>473.8</ele>
        <time>2020-05-10T15:14:01Z</time>
      </trkpt>
      <trkpt lat="48.69561" lon="7.26103">
        <ele>473.3</ele>
        <time>2020-05-10T15:14:02Z</time>
      </trkpt>
      <trkpt lat="48.69571" lon="7.26103">
        <ele>472.6</ele>
        <time>2020-05-10T15:14:03Z</time>
      </trkpt>
      <trkpt lat="48.69589" lon="7.26112">
        <ele>470.7</ele>
        <time>2020-05-10T15:14:05Z</time>
      </trkpt>
      <trkpt lat="48.69603" lon="7.26126">
        <ele>469.6</ele>
        <time>2020-05-10T15:14:07Z</time>
      </trkpt>
      <trkpt lat="48.6961" lon="7.26133">
        <ele>469.2</ele>
        <time>2020-05-10T15:14:08Z</time>
      </trkpt>
      <trkpt lat="48.69622" lon="7.2615">
        <ele>468.4</ele>
        <time>2020-05-10T15:14:10Z</time>
      </trkpt>
      <trkpt lat="48.6963" lon="7.26161">
        <ele>467.9</ele>
        <time>2020-05-10T15:14:11Z</time>
      </trkpt>
      <trkpt lat="48.69644" lon="7.26182">
        <ele>467.3</ele>
        <time>2020-05-10T15:14:13Z</time>
      </trkpt>
      <trkpt lat="48.69655" lon="7.262">
        <ele>466.9</ele>
        <time>2020-05-10T15:14:15Z</time>
      </trkpt>
      <trkpt lat="48.69659" lon="7.26209">
        <ele>466.6</ele>
        <time>2020-05-10T15:14:16Z</time>
      </trkpt>
      <trkpt lat="48.69664" lon="7.2622">
        <ele>466.2</ele>
        <time>2020-05-10T15:14:17Z</time>
      </trkpt>
      <trkpt lat="48.69672" lon="7.26232">
        <ele>466</ele>
        <time>2020-05-10T15:14:18Z</time>
      </trkpt>
      <trkpt lat="48.69681" lon="7.26248">
        <ele>465.9</ele>
        <time>2020-05-10T15:14:20Z</time>
      </trkpt>
      <trkpt lat="48.69685" lon="7.26256">
        <ele>465.9</ele>
        <time>2020-05-10T15:14:21Z</time>
      </trkpt>
      <trkpt lat="48.69689" lon="7.26265">
        <ele>466</ele>
        <time>2020-05-10T15:14:22Z</time>
      </trkpt>
      <trkpt lat="48.69693" lon="7.26275">
        <ele>466</ele>
        <time>2020-05-10T15:14:23Z</time>
      </trkpt>
      <trkpt lat="48.69703" lon="7.26293">
        <ele>466.3</ele>
        <time>2020-05-10T15:14:25Z</time>
      </trkpt>
      <trkpt lat="48.6971" lon="7.26309">
        <ele>466.5</ele>
        <time>2020-05-10T15:14:27Z</time>
      </trkpt>
      <trkpt lat="48.69713" lon="7.26318">
        <ele>466.6</ele>
        <time>2020-05-10T15:14:28Z</time>
      </trkpt>
      <trkpt lat="48.69716" lon="7.26326">
        <ele>466.7</ele>
        <time>2020-05-10T15:14:29Z</time>
      </trkpt>
      <trkpt lat="48.69721" lon="7.26345">
        <ele>466.9</ele>
        <time>2020-05-10T15:14:31Z</time>
      </trkpt>
      <trkpt lat="48.69728" lon="7.26361">
        <ele>467</ele>
        <time>2020-05-10T15:14:33Z</time>
      </trkpt>
      <trkpt lat="48.69731" lon="7.26371">
        <ele>467</ele>
        <time>2020-05-10T15:14:34Z</time>
      </trkpt>
      <trkpt lat="48.69733" lon="7.26395">
        <ele>466.7</ele>
        <time>2020-05-10T15:14:36Z</time>
      </trkpt>
      <trkpt lat="48.69735" lon="7.26417">
        <ele>465.9</ele>
        <time>2020-05-10T15:14:38Z</time>
      </trkpt>
      <trkpt lat="48.69735" lon="7.26432">
        <ele>465.4</ele>
        <time>2020-05-10T15:14:40Z</time>
      </trkpt>
      <trkpt lat="48.69736" lon="7.26441">
        <ele>465.1</ele>
        <time>2020-05-10T15:14:41Z</time>
      </trkpt>
      <trkpt lat="48.6974" lon="7.26462">
        <ele>464.5</ele>
        <time>2020-05-10T15:14:43Z</time>
      </trkpt>
      <trkpt lat="48.69742" lon="7.26482">
        <ele>464</ele>
        <time>2020-05-10T15:14:45Z</time>
      </trkpt>
      <trkpt lat="48.69743" lon="7.26491">
        <ele>463.8</ele>
        <time>2020-05-10T15:14:46Z</time>
      </trkpt>
      <trkpt lat="48.69745" lon="7.265">
        <ele>463.7</ele>
        <time>2020-05-10T15:14:47Z</time>
      </trkpt>
      <trkpt lat="48.69745" lon="7.26516">
        <ele>463.7</ele>
        <time>2020-05-10T15:14:49Z</time>
      </trkpt>
      <trkpt lat="48.69746" lon="7.26534">
        <ele>463.9</ele>
        <time>2020-05-10T15:14:51Z</time>
      </trkpt>
      <trkpt lat="48.69749" lon="7.26551">
        <ele>464.1</ele>
        <time>2020-05-10T15:14:53Z</time>
      </trkpt>
      <trkpt lat="48.69747" lon="7.26561">
        <ele>464.2</ele>
        <time>2020-05-10T15:14:54Z</time>
      </trkpt>
      <trkpt lat="48.69746" lon="7.26571">
        <ele>464.2</ele>
        <time>2020-05-10T15:14:55Z</time>
      </trkpt>
      <trkpt lat="48.69746" lon="7.26582">
        <ele>464.2</ele>
        <time>2020-05-10T15:14:56Z</time>
      </trkpt>
      <trkpt lat="48.69746" lon="7.26598">
        <ele>464.1</ele>
        <time>2020-05-10T15:14:58Z</time>
      </trkpt>
      <trkpt lat="48.6975" lon="7.26617">
        <ele>464</ele>
        <time>2020-05-10T15:15:00Z</time>
      </trkpt>
      <trkpt lat="48.69753" lon="7.26625">
        <ele>463.9</ele>
        <time>2020-05-10T15:15:01Z</time>
      </trkpt>
      <trkpt lat="48.69759" lon="7.26638">
        <ele>463.7</ele>
        <time>2020-05-10T15:15:03Z</time>
      </trkpt>
      <trkpt lat="48.69766" lon="7.26651">
        <ele>463.5</ele>
        <time>2020-05-10T15:15:05Z</time>
      </trkpt>
      <trkpt lat="48.6977" lon="7.26656">
        <ele>463.4</ele>
        <time>2020-05-10T15:15:06Z</time>
      </trkpt>
      <trkpt lat="48.69773" lon="7.2666">
        <ele>463.4</ele>
        <time>2020-05-10T15:15:07Z</time>
      </trkpt>
      <trkpt lat="48.69783" lon="7.26662">
        <ele>463.4</ele>
        <time>2020-05-10T15:15:09Z</time>
      </trkpt>
      <trkpt lat="48.69793" lon="7.26662">
        <ele>463.3</ele>
        <time>2020-05-10T15:15:11Z</time>
      </trkpt>
      <trkpt lat="48.69804" lon="7.26658">
        <ele>463.3</ele>
        <time>2020-05-10T15:15:13Z</time>
      </trkpt>
      <trkpt lat="48.6981" lon="7.26655">
        <ele>463.2</ele>
        <time>2020-05-10T15:15:14Z</time>
      </trkpt>
      <trkpt lat="48.69815" lon="7.26652">
        <ele>463.1</ele>
        <time>2020-05-10T15:15:15Z</time>
      </trkpt>
      <trkpt lat="48.69824" lon="7.26647">
        <ele>462.8</ele>
        <time>2020-05-10T15:15:17Z</time>
      </trkpt>
      <trkpt lat="48.69829" lon="7.26647">
        <ele>462.6</ele>
        <time>2020-05-10T15:15:18Z</time>
      </trkpt>
      <trkpt lat="48.69837" lon="7.26637">
        <ele>462</ele>
        <time>2020-05-10T15:15:20Z</time>
      </trkpt>
      <trkpt lat="48.69842" lon="7.26631">
        <ele>461.6</ele>
        <time>2020-05-10T15:15:21Z</time>
      </trkpt>
      <trkpt lat="48.69853" lon="7.26619">
        <ele>460.4</ele>
        <time>2020-05-10T15:15:23Z</time>
      </trkpt>
      <trkpt lat="48.69861" lon="7.26602">
        <ele>459.3</ele>
        <time>2020-05-10T15:15:25Z</time>
      </trkpt>
      <trkpt lat="48.69869" lon="7.26588">
        <ele>458.7</ele>
        <time>2020-05-10T15:15:27Z</time>
      </trkpt>
      <trkpt lat="48.69874" lon="7.26581">
        <ele>458.4</ele>
        <time>2020-05-10T15:15:28Z</time>
      </trkpt>
      <trkpt lat="48.69883" lon="7.26569">
        <ele>458.2</ele>
        <time>2020-05-10T15:15:30Z</time>
      </trkpt>
      <trkpt lat="48.69894" lon="7.2656">
        <ele>457.9</ele>
        <time>2020-05-10T15:15:32Z</time>
      </trkpt>
      <trkpt lat="48.699" lon="7.26557">
        <ele>457.7</ele>
        <time>2020-05-10T15:15:33Z</time>
      </trkpt>
      <trkpt lat="48.6991" lon="7.26554">
        <ele>457.4</ele>
        <time>2020-05-10T15:15:35Z</time>
      </trkpt>
      <trkpt lat="48.69921" lon="7.26552">
        <ele>457.2</ele>
        <time>2020-05-10T15:15:37Z</time>
      </trkpt>
      <trkpt lat="48.69931" lon="7.26554">
        <ele>457.4</ele>
        <time>2020-05-10T15:15:39Z</time>
      </trkpt>
      <trkpt lat="48.69938" lon="7.26555">
        <ele>457.6</ele>
        <time>2020-05-10T15:15:40Z</time>
      </trkpt>
      <trkpt lat="48.69944" lon="7.26559">
        <ele>457.9</ele>
        <time>2020-05-10T15:15:42Z</time>
      </trkpt>
      <trkpt lat="48.6995" lon="7.26561">
        <ele>458.2</ele>
        <time>2020-05-10T15:15:43Z</time>
      </trkpt>
      <trkpt lat="48.69962" lon="7.26563">
        <ele>458.5</ele>
        <time>2020-05-10T15:15:45Z</time>
      </trkpt>
      <trkpt lat="48.69972" lon="7.26565">
        <ele>458.5</ele>
        <time>2020-05-10T15:15:47Z</time>
      </trkpt>
      <trkpt lat="48.69984" lon="7.26568">
        <ele>458.4</ele>
        <time>2020-05-10T15:15:49Z</time>
      </trkpt>
      <trkpt lat="48.69997" lon="7.26566">
        <ele>458.2</ele>
        <time>2020-05-10T15:15:51Z</time>
      </trkpt>
      <trkpt lat="48.70004" lon="7.26565">
        <ele>458.1</ele>
        <time>2020-05-10T15:15:52Z</time>
      </trkpt>
      <trkpt lat="48.70015" lon="7.26566">
        <ele>458</ele>
        <time>2020-05-10T15:15:54Z</time>
      </trkpt>
      <trkpt lat="48.7002" lon="7.26567">
        <ele>457.9</ele>
        <time>2020-05-10T15:15:55Z</time>
      </trkpt>
      <trkpt lat="48.70025" lon="7.26567">
        <ele>457.9</ele>
        <time>2020-05-10T15:15:56Z</time>
      </trkpt>
      <trkpt lat="48.70035" lon="7.26569">
        <ele>458</ele>
        <time>2020-05-10T15:15:58Z</time>
      </trkpt>
      <trkpt lat="48.70045" lon="7.26572">
        <ele>458.2</ele>
        <time>2020-05-10T15:16:00Z</time>
      </trkpt>
      <trkpt lat="48.70049" lon="7.26573">
        <ele>458.4</ele>
        <time>2020-05-10T15:16:01Z</time>
      </trkpt>
      <trkpt lat="48.70055" lon="7.26574">
        <ele>458.6</ele>
        <time>2020-05-10T15:16:02Z</time>
      </trkpt>
      <trkpt lat="48.7006" lon="7.26578">
        <ele>458.9</ele>
        <time>2020-05-10T15:16:04Z</time>
      </trkpt>
      <trkpt lat="48.70063" lon="7.2658">
        <ele>459</ele>
        <time>2020-05-10T15:16:05Z</time>
      </trkpt>
      <trkpt lat="48.70068" lon="7.26583">
        <ele>459.2</ele>
        <time>2020-05-10T15:16:07Z</time>
      </trkpt>
      <trkpt lat="48.70071" lon="7.26584">
        <ele>459.4</ele>
        <time>2020-05-10T15:16:08Z</time>
      </trkpt>
      <trkpt lat="48.70072" lon="7.26584">
        <ele>459.4</ele>
        <time>2020-05-10T15:16:10Z</time>
      </trkpt>
      <trkpt lat="48.70073" lon="7.26585">
        <ele>459.5</ele>
        <time>2020-05-10T15:16:11Z</time>
      </trkpt>
      <trkpt lat="48.70075" lon="7.26585">
        <ele>459.6</ele>
        <time>2020-05-10T15:16:12Z</time>
      </trkpt>
      <trkpt lat="48.70079" lon="7.26588">
        <ele>459.8</ele>
        <time>2020-05-10T15:16:14Z</time>
      </trkpt>
      <trkpt lat="48.70082" lon="7.2659">
        <ele>460</ele>
        <time>2020-05-10T15:16:15Z</time>
      </trkpt>
      <trkpt lat="48.70083" lon="7.26591">
        <ele>460.1</ele>
        <time>2020-05-10T15:16:16Z</time>
      </trkpt>
      <trkpt lat="48.70086" lon="7.26593">
        <ele>460.3</ele>
        <time>2020-05-10T15:16:18Z</time>
      </trkpt>
      <trkpt lat="48.70089" lon="7.26598">
        <ele>460.6</ele>
        <time>2020-05-10T15:16:20Z</time>
      </trkpt>
      <trkpt lat="48.70091" lon="7.26601">
        <ele>460.8</ele>
        <time>2020-05-10T15:16:21Z</time>
      </trkpt>
      <trkpt lat="48.70093" lon="7.26603">
        <ele>460.9</ele>
        <time>2020-05-10T15:16:22Z</time>
      </trkpt>
      <trkpt lat="48.70096" lon="7.26603">
        <ele>461.2</ele>
        <time>2020-05-10T15:16:24Z</time>
      </trkpt>
      <trkpt lat="48.701" lon="7.26604">
        <ele>461.5</ele>
        <time>2020-05-10T15:16:26Z</time>
      </trkpt>
      <trkpt lat="48.70104" lon="7.26605">
        <ele>461.8</ele>
        <time>2020-05-10T15:16:27Z</time>
      </trkpt>
      <trkpt lat="48.70105" lon="7.26606">
        <ele>461.8</ele>
        <time>2020-05-10T15:16:28Z</time>
      </trkpt>
      <trkpt lat="48.70108" lon="7.26607">
        <ele>462</ele>
        <time>2020-05-10T15:16:29Z</time>
      </trkpt>
      <trkpt lat="48.70113" lon="7.26612">
        <ele>462.4</ele>
        <time>2020-05-10T15:16:31Z</time>
      </trkpt>
      <trkpt lat="48.70119" lon="7.26616">
        <ele>462.9</ele>
        <time>2020-05-10T15:16:33Z</time>
      </trkpt>
      <trkpt lat="48.70123" lon="7.26617">
        <ele>463.2</ele>
        <time>2020-05-10T15:16:35Z</time>
      </trkpt>
      <trkpt lat="48.70129" lon="7.26619">
        <ele>463.6</ele>
        <time>2020-05-10T15:16:37Z</time>
      </trkpt>
      <trkpt lat="48.70135" lon="7.26623">
        <ele>464</ele>
        <time>2020-05-10T15:16:39Z</time>
      </trkpt>
      <trkpt lat="48.70137" lon="7.26624">
        <ele>464.1</ele>
        <time>2020-05-10T15:16:40Z</time>
      </trkpt>
      <trkpt lat="48.7014" lon="7.26626">
        <ele>464.3</ele>
        <time>2020-05-10T15:16:41Z</time>
      </trkpt>
      <trkpt lat="48.70145" lon="7.26628">
        <ele>464.5</ele>
        <time>2020-05-10T15:16:42Z</time>
      </trkpt>
      <trkpt lat="48.70151" lon="7.26632">
        <ele>464.7</ele>
        <time>2020-05-10T15:16:44Z</time>
      </trkpt>
      <trkpt lat="48.70156" lon="7.26637">
        <ele>464.8</ele>
        <time>2020-05-10T15:16:46Z</time>
      </trkpt>
      <trkpt lat="48.70159" lon="7.26641">
        <ele>464.8</ele>
        <time>2020-05-10T15:16:48Z</time>
      </trkpt>
      <trkpt lat="48.70162" lon="7.26644">
        <ele>464.7</ele>
        <time>2020-05-10T15:16:49Z</time>
      </trkpt>
      <trkpt lat="48.70166" lon="7.2665">
        <ele>464.8</ele>
        <time>2020-05-10T15:16:51Z</time>
      </trkpt>
      <trkpt lat="48.70168" lon="7.26653">
        <ele>464.8</ele>
        <time>2020-05-10T15:16:52Z</time>
      </trkpt>
      <trkpt lat="48.70173" lon="7.26661">
        <ele>464.9</ele>
        <time>2020-05-10T15:16:54Z</time>
      </trkpt>
      <trkpt lat="48.70175" lon="7.26665">
        <ele>465</ele>
        <time>2020-05-10T15:16:55Z</time>
      </trkpt>
      <trkpt lat="48.70177" lon="7.2667">
        <ele>465.1</ele>
        <time>2020-05-10T15:16:56Z</time>
      </trkpt>
      <trkpt lat="48.70183" lon="7.26677">
        <ele>465.4</ele>
        <time>2020-05-10T15:16:58Z</time>
      </trkpt>
      <trkpt lat="48.70185" lon="7.26681">
        <ele>465.5</ele>
        <time>2020-05-10T15:16:59Z</time>
      </trkpt>
      <trkpt lat="48.7019" lon="7.26689">
        <ele>465.8</ele>
        <time>2020-05-10T15:17:01Z</time>
      </trkpt>
      <trkpt lat="48.70194" lon="7.26697">
        <ele>466</ele>
        <time>2020-05-10T15:17:03Z</time>
      </trkpt>
      <trkpt lat="48.70196" lon="7.267">
        <ele>466.1</ele>
        <time>2020-05-10T15:17:04Z</time>
      </trkpt>
      <trkpt lat="48.70201" lon="7.26706">
        <ele>466.2</ele>
        <time>2020-05-10T15:17:06Z</time>
      </trkpt>
      <trkpt lat="48.70204" lon="7.26711">
        <ele>466.3</ele>
        <time>2020-05-10T15:17:08Z</time>
      </trkpt>
      <trkpt lat="48.70207" lon="7.26717">
        <ele>466.4</ele>
        <time>2020-05-10T15:17:10Z</time>
      </trkpt>
      <trkpt lat="48.70208" lon="7.26719">
        <ele>466.4</ele>
        <time>2020-05-10T15:17:11Z</time>
      </trkpt>
      <trkpt lat="48.70208" lon="7.2672">
        <ele>466.5</ele>
        <time>2020-05-10T15:17:12Z</time>
      </trkpt>
      <trkpt lat="48.70211" lon="7.26727">
        <ele>466.6</ele>
        <time>2020-05-10T15:17:14Z</time>
      </trkpt>
      <trkpt lat="48.70212" lon="7.26732">
        <ele>466.7</ele>
        <time>2020-05-10T15:17:15Z</time>
      </trkpt>
      <trkpt lat="48.70214" lon="7.26738">
        <ele>466.8</ele>
        <time>2020-05-10T15:17:17Z</time>
      </trkpt>
      <trkpt lat="48.70215" lon="7.26741">
        <ele>466.9</ele>
        <time>2020-05-10T15:17:18Z</time>
      </trkpt>
      <trkpt lat="48.70216" lon="7.26742">
        <ele>466.9</ele>
        <time>2020-05-10T15:17:19Z</time>
      </trkpt>
      <trkpt lat="48.70219" lon="7.26749">
        <ele>467.1</ele>
        <time>2020-05-10T15:17:21Z</time>
      </trkpt>
      <trkpt lat="48.70223" lon="7.26755">
        <ele>467.2</ele>
        <time>2020-05-10T15:17:23Z</time>
      </trkpt>
      <trkpt lat="48.70224" lon="7.26758">
        <ele>467.3</ele>
        <time>2020-05-10T15:17:24Z</time>
      </trkpt>
      <trkpt lat="48.70227" lon="7.26764">
        <ele>467.4</ele>
        <time>2020-05-10T15:17:26Z</time>
      </trkpt>
      <trkpt lat="48.7023" lon="7.26771">
        <ele>467.4</ele>
        <time>2020-05-10T15:17:28Z</time>
      </trkpt>
      <trkpt lat="48.70233" lon="7.26779">
        <ele>467.5</ele>
        <time>2020-05-10T15:17:30Z</time>
      </trkpt>
      <trkpt lat="48.70235" lon="7.26782">
        <ele>467.5</ele>
        <time>2020-05-10T15:17:31Z</time>
      </trkpt>
      <trkpt lat="48.70238" lon="7.26789">
        <ele>467.4</ele>
        <time>2020-05-10T15:17:33Z</time>
      </trkpt>
      <trkpt lat="48.7024" lon="7.26793">
        <ele>467.4</ele>
        <time>2020-05-10T15:17:34Z</time>
      </trkpt>
      <trkpt lat="48.70243" lon="7.26801">
        <ele>467.4</ele>
        <time>2020-05-10T15:17:36Z</time>
      </trkpt>
      <trkpt lat="48.70245" lon="7.26806">
        <ele>467.4</ele>
        <time>2020-05-10T15:17:37Z</time>
      </trkpt>
      <trkpt lat="48.70249" lon="7.26815">
        <ele>467.3</ele>
        <time>2020-05-10T15:17:39Z</time>
      </trkpt>
      <trkpt lat="48.70252" lon="7.2682">
        <ele>467.3</ele>
        <time>2020-05-10T15:17:40Z</time>
      </trkpt>
      <trkpt lat="48.70255" lon="7.26829">
        <ele>467.2</ele>
        <time>2020-05-10T15:17:42Z</time>
      </trkpt>
      <trkpt lat="48.70259" lon="7.26836">
        <ele>467.2</ele>
        <time>2020-05-10T15:17:44Z</time>
      </trkpt>
      <trkpt lat="48.7026" lon="7.26839">
        <ele>467.2</ele>
        <time>2020-05-10T15:17:45Z</time>
      </trkpt>
      <trkpt lat="48.70261" lon="7.26844">
        <ele>467.2</ele>
        <time>2020-05-10T15:17:46Z</time>
      </trkpt>
      <trkpt lat="48.70265" lon="7.26851">
        <ele>467.1</ele>
        <time>2020-05-10T15:17:48Z</time>
      </trkpt>
      <trkpt lat="48.7027" lon="7.26857">
        <ele>467.1</ele>
        <time>2020-05-10T15:17:50Z</time>
      </trkpt>
      <trkpt lat="48.70273" lon="7.26862">
        <ele>467</ele>
        <time>2020-05-10T15:17:52Z</time>
      </trkpt>
      <trkpt lat="48.70274" lon="7.26869">
        <ele>467</ele>
        <time>2020-05-10T15:17:54Z</time>
      </trkpt>
      <trkpt lat="48.70277" lon="7.26879">
        <ele>466.8</ele>
        <time>2020-05-10T15:17:56Z</time>
      </trkpt>
      <trkpt lat="48.70279" lon="7.26884">
        <ele>466.8</ele>
        <time>2020-05-10T15:17:57Z</time>
      </trkpt>
      <trkpt lat="48.70285" lon="7.26894">
        <ele>466.5</ele>
        <time>2020-05-10T15:17:59Z</time>
      </trkpt>
      <trkpt lat="48.70287" lon="7.26899">
        <ele>466.4</ele>
        <time>2020-05-10T15:18:00Z</time>
      </trkpt>
      <trkpt lat="48.70289" lon="7.26911">
        <ele>466.1</ele>
        <time>2020-05-10T15:18:02Z</time>
      </trkpt>
      <trkpt lat="48.7029" lon="7.26918">
        <ele>465.9</ele>
        <time>2020-05-10T15:18:03Z</time>
      </trkpt>
      <trkpt lat="48.70296" lon="7.26929">
        <ele>465.5</ele>
        <time>2020-05-10T15:18:05Z</time>
      </trkpt>
      <trkpt lat="48.70308" lon="7.26944">
        <ele>464.9</ele>
        <time>2020-05-10T15:18:07Z</time>
      </trkpt>
      <trkpt lat="48.70311" lon="7.26949">
        <ele>464.7</ele>
        <time>2020-05-10T15:18:08Z</time>
      </trkpt>
      <trkpt lat="48.70316" lon="7.26954">
        <ele>464.5</ele>
        <time>2020-05-10T15:18:09Z</time>
      </trkpt>
      <trkpt lat="48.70328" lon="7.26965">
        <ele>463.8</ele>
        <time>2020-05-10T15:18:11Z</time>
      </trkpt>
      <trkpt lat="48.70338" lon="7.2697">
        <ele>463.2</ele>
        <time>2020-05-10T15:18:13Z</time>
      </trkpt>
      <trkpt lat="48.70346" lon="7.26968">
        <ele>462.7</ele>
        <time>2020-05-10T15:18:15Z</time>
      </trkpt>
      <trkpt lat="48.7035" lon="7.26964">
        <ele>462.3</ele>
        <time>2020-05-10T15:18:16Z</time>
      </trkpt>
      <trkpt lat="48.70362" lon="7.26954">
        <ele>461.7</ele>
        <time>2020-05-10T15:18:18Z</time>
      </trkpt>
      <trkpt lat="48.70368" lon="7.26949">
        <ele>461.4</ele>
        <time>2020-05-10T15:18:19Z</time>
      </trkpt>
      <trkpt lat="48.70378" lon="7.2694">
        <ele>460.9</ele>
        <time>2020-05-10T15:18:21Z</time>
      </trkpt>
      <trkpt lat="48.70382" lon="7.26938">
        <ele>460.7</ele>
        <time>2020-05-10T15:18:23Z</time>
      </trkpt>
      <trkpt lat="48.70381" lon="7.26936">
        <ele>460.6</ele>
        <time>2020-05-10T15:18:25Z</time>
      </trkpt>
      <trkpt lat="48.70381" lon="7.26935">
        <ele>460.5</ele>
        <time>2020-05-10T15:18:26Z</time>
      </trkpt>
      <trkpt lat="48.70379" lon="7.26934">
        <ele>460.4</ele>
        <time>2020-05-10T15:18:28Z</time>
      </trkpt>
      <trkpt lat="48.7038" lon="7.26933">
        <ele>460.4</ele>
        <time>2020-05-10T15:18:30Z</time>
      </trkpt>
      <trkpt lat="48.7038" lon="7.26932">
        <ele>460.4</ele>
        <time>2020-05-10T15:18:32Z</time>
      </trkpt>
      <trkpt lat="48.70381" lon="7.26932">
        <ele>460.3</ele>
        <time>2020-05-10T15:18:34Z</time>
      </trkpt>
      <trkpt lat="48.70382" lon="7.26931">
        <ele>460.3</ele>
        <time>2020-05-10T15:18:36Z</time>
      </trkpt>
      <trkpt lat="48.70382" lon="7.2693">
        <ele>460.2</ele>
        <time>2020-05-10T15:18:37Z</time>
      </trkpt>
      <trkpt lat="48.70385" lon="7.26927">
        <ele>460</ele>
        <time>2020-05-10T15:18:38Z</time>
      </trkpt>
      <trkpt lat="48.70386" lon="7.26922">
        <ele>459.8</ele>
        <time>2020-05-10T15:18:40Z</time>
      </trkpt>
      <trkpt lat="48.70388" lon="7.26919">
        <ele>459.6</ele>
        <time>2020-05-10T15:18:41Z</time>
      </trkpt>
      <trkpt lat="48.70396" lon="7.26912">
        <ele>458.9</ele>
        <time>2020-05-10T15:18:43Z</time>
      </trkpt>
      <trkpt lat="48.704" lon="7.2691">
        <ele>458.6</ele>
        <time>2020-05-10T15:18:44Z</time>
      </trkpt>
      <trkpt lat="48.70416" lon="7.26911">
        <ele>457.7</ele>
        <time>2020-05-10T15:18:46Z</time>
      </trkpt>
      <trkpt lat="48.70423" lon="7.26906">
        <ele>457.4</ele>
        <time>2020-05-10T15:18:47Z</time>
      </trkpt>
      <trkpt lat="48.7043" lon="7.269">
        <ele>457.1</ele>
        <time>2020-05-10T15:18:48Z</time>
      </trkpt>
      <trkpt lat="48.70438" lon="7.26893">
        <ele>456.8</ele>
        <time>2020-05-10T15:18:49Z</time>
      </trkpt>
      <trkpt lat="48.70448" lon="7.26884">
        <ele>456.3</ele>
        <time>2020-05-10T15:18:51Z</time>
      </trkpt>
      <trkpt lat="48.70462" lon="7.26878">
        <ele>455.7</ele>
        <time>2020-05-10T15:18:53Z</time>
      </trkpt>
      <trkpt lat="48.7048" lon="7.26874">
        <ele>455.1</ele>
        <time>2020-05-10T15:18:55Z</time>
      </trkpt>
      <trkpt lat="48.70488" lon="7.26874">
        <ele>454.9</ele>
        <time>2020-05-10T15:18:56Z</time>
      </trkpt>
      <trkpt lat="48.70503" lon="7.26873">
        <ele>454.8</ele>
        <time>2020-05-10T15:18:58Z</time>
      </trkpt>
      <trkpt lat="48.70515" lon="7.26883">
        <ele>454.5</ele>
        <time>2020-05-10T15:19:00Z</time>
      </trkpt>
      <trkpt lat="48.7052" lon="7.26889">
        <ele>454.4</ele>
        <time>2020-05-10T15:19:01Z</time>
      </trkpt>
      <trkpt lat="48.70528" lon="7.26898">
        <ele>454</ele>
        <time>2020-05-10T15:19:03Z</time>
      </trkpt>
      <trkpt lat="48.7054" lon="7.26909">
        <ele>453.6</ele>
        <time>2020-05-10T15:19:05Z</time>
      </trkpt>
      <trkpt lat="48.7055" lon="7.26923">
        <ele>453.2</ele>
        <time>2020-05-10T15:19:07Z</time>
      </trkpt>
      <trkpt lat="48.70562" lon="7.26935">
        <ele>452.9</ele>
        <time>2020-05-10T15:19:09Z</time>
      </trkpt>
      <trkpt lat="48.70567" lon="7.26943">
        <ele>452.8</ele>
        <time>2020-05-10T15:19:11Z</time>
      </trkpt>
      <trkpt lat="48.70575" lon="7.26954">
        <ele>452.5</ele>
        <time>2020-05-10T15:19:13Z</time>
      </trkpt>
      <trkpt lat="48.70589" lon="7.26968">
        <ele>452.3</ele>
        <time>2020-05-10T15:19:15Z</time>
      </trkpt>
      <trkpt lat="48.70595" lon="7.26975">
        <ele>452.2</ele>
        <time>2020-05-10T15:19:16Z</time>
      </trkpt>
      <trkpt lat="48.70599" lon="7.26982">
        <ele>452.1</ele>
        <time>2020-05-10T15:19:17Z</time>
      </trkpt>
      <trkpt lat="48.70607" lon="7.26996">
        <ele>452.2</ele>
        <time>2020-05-10T15:19:19Z</time>
      </trkpt>
      <trkpt lat="48.70615" lon="7.27008">
        <ele>452.3</ele>
        <time>2020-05-10T15:19:21Z</time>
      </trkpt>
      <trkpt lat="48.70623" lon="7.2702">
        <ele>452.4</ele>
        <time>2020-05-10T15:19:23Z</time>
      </trkpt>
      <trkpt lat="48.70627" lon="7.27025">
        <ele>452.5</ele>
        <time>2020-05-10T15:19:24Z</time>
      </trkpt>
      <trkpt lat="48.70637" lon="7.2703">
        <ele>452.6</ele>
        <time>2020-05-10T15:19:26Z</time>
      </trkpt>
      <trkpt lat="48.70647" lon="7.27036">
        <ele>452.6</ele>
        <time>2020-05-10T15:19:28Z</time>
      </trkpt>
      <trkpt lat="48.70654" lon="7.27037">
        <ele>452.7</ele>
        <time>2020-05-10T15:19:29Z</time>
      </trkpt>
      <trkpt lat="48.70667" lon="7.27044">
        <ele>452.6</ele>
        <time>2020-05-10T15:19:31Z</time>
      </trkpt>
      <trkpt lat="48.70679" lon="7.27054">
        <ele>452.5</ele>
        <time>2020-05-10T15:19:33Z</time>
      </trkpt>
      <trkpt lat="48.70689" lon="7.27064">
        <ele>452.5</ele>
        <time>2020-05-10T15:19:35Z</time>
      </trkpt>
      <trkpt lat="48.70694" lon="7.2707">
        <ele>452.5</ele>
        <time>2020-05-10T15:19:36Z</time>
      </trkpt>
      <trkpt lat="48.707" lon="7.27075">
        <ele>452.5</ele>
        <time>2020-05-10T15:19:37Z</time>
      </trkpt>
      <trkpt lat="48.70711" lon="7.27085">
        <ele>452.7</ele>
        <time>2020-05-10T15:19:39Z</time>
      </trkpt>
      <trkpt lat="48.70721" lon="7.27093">
        <ele>452.9</ele>
        <time>2020-05-10T15:19:41Z</time>
      </trkpt>
      <trkpt lat="48.70733" lon="7.27092">
        <ele>453.2</ele>
        <time>2020-05-10T15:19:43Z</time>
      </trkpt>
      <trkpt lat="48.70743" lon="7.27088">
        <ele>453.6</ele>
        <time>2020-05-10T15:19:45Z</time>
      </trkpt>
      <trkpt lat="48.70746" lon="7.27083">
        <ele>453.7</ele>
        <time>2020-05-10T15:19:46Z</time>
      </trkpt>
      <trkpt lat="48.70753" lon="7.27078">
        <ele>453.9</ele>
        <time>2020-05-10T15:19:48Z</time>
      </trkpt>
      <trkpt lat="48.70756" lon="7.27076">
        <ele>454</ele>
        <time>2020-05-10T15:19:49Z</time>
      </trkpt>
      <trkpt lat="48.70759" lon="7.27072">
        <ele>454.1</ele>
        <time>2020-05-10T15:19:50Z</time>
      </trkpt>
      <trkpt lat="48.70761" lon="7.27071">
        <ele>454.2</ele>
        <time>2020-05-10T15:19:51Z</time>
      </trkpt>
      <trkpt lat="48.70767" lon="7.27069">
        <ele>454.4</ele>
        <time>2020-05-10T15:19:53Z</time>
      </trkpt>
      <trkpt lat="48.70769" lon="7.27069">
        <ele>454.4</ele>
        <time>2020-05-10T15:19:54Z</time>
      </trkpt>
      <trkpt lat="48.70771" lon="7.27065">
        <ele>454.5</ele>
        <time>2020-05-10T15:19:56Z</time>
      </trkpt>
      <trkpt lat="48.70773" lon="7.27062">
        <ele>454.6</ele>
        <time>2020-05-10T15:19:57Z</time>
      </trkpt>
      <trkpt lat="48.70775" lon="7.27059">
        <ele>454.7</ele>
        <time>2020-05-10T15:19:58Z</time>
      </trkpt>
      <trkpt lat="48.7078" lon="7.27056">
        <ele>454.9</ele>
        <time>2020-05-10T15:20:00Z</time>
      </trkpt>
      <trkpt lat="48.70784" lon="7.27049">
        <ele>455.2</ele>
        <time>2020-05-10T15:20:02Z</time>
      </trkpt>
      <trkpt lat="48.70786" lon="7.27045">
        <ele>455.3</ele>
        <time>2020-05-10T15:20:03Z</time>
      </trkpt>
      <trkpt lat="48.70788" lon="7.27042">
        <ele>455.4</ele>
        <time>2020-05-10T15:20:04Z</time>
      </trkpt>
      <trkpt lat="48.70791" lon="7.27032">
        <ele>455.7</ele>
        <time>2020-05-10T15:20:06Z</time>
      </trkpt>
      <trkpt lat="48.70794" lon="7.27022">
        <ele>455.9</ele>
        <time>2020-05-10T15:20:08Z</time>
      </trkpt>
      <trkpt lat="48.70796" lon="7.27017">
        <ele>456</ele>
        <time>2020-05-10T15:20:09Z</time>
      </trkpt>
      <trkpt lat="48.70797" lon="7.27013">
        <ele>456.1</ele>
        <time>2020-05-10T15:20:10Z</time>
      </trkpt>
      <trkpt lat="48.70798" lon="7.27009">
        <ele>456.1</ele>
        <time>2020-05-10T15:20:11Z</time>
      </trkpt>
      <trkpt lat="48.70802" lon="7.27">
        <ele>456.2</ele>
        <time>2020-05-10T15:20:13Z</time>
      </trkpt>
      <trkpt lat="48.70806" lon="7.26989">
        <ele>456.3</ele>
        <time>2020-05-10T15:20:15Z</time>
      </trkpt>
      <trkpt lat="48.70807" lon="7.26982">
        <ele>456.3</ele>
        <time>2020-05-10T15:20:16Z</time>
      </trkpt>
      <trkpt lat="48.70808" lon="7.26972">
        <ele>456.3</ele>
        <time>2020-05-10T15:20:18Z</time>
      </trkpt>
      <trkpt lat="48.7081" lon="7.26965">
        <ele>456.3</ele>
        <time>2020-05-10T15:20:20Z</time>
      </trkpt>
      <trkpt lat="48.70813" lon="7.26957">
        <ele>456.2</ele>
        <time>2020-05-10T15:20:21Z</time>
      </trkpt>
      <trkpt lat="48.70817" lon="7.2695">
        <ele>455.9</ele>
        <time>2020-05-10T15:20:23Z</time>
      </trkpt>
      <trkpt lat="48.70818" lon="7.26946">
        <ele>455.8</ele>
        <time>2020-05-10T15:20:24Z</time>
      </trkpt>
      <trkpt lat="48.70819" lon="7.26941">
        <ele>455.7</ele>
        <time>2020-05-10T15:20:25Z</time>
      </trkpt>
      <trkpt lat="48.70819" lon="7.26935">
        <ele>455.5</ele>
        <time>2020-05-10T15:20:26Z</time>
      </trkpt>
      <trkpt lat="48.7082" lon="7.26929">
        <ele>455.3</ele>
        <time>2020-05-10T15:20:28Z</time>
      </trkpt>
      <trkpt lat="48.70822" lon="7.26924">
        <ele>455.1</ele>
        <time>2020-05-10T15:20:29Z</time>
      </trkpt>
      <trkpt lat="48.70823" lon="7.26916">
        <ele>454.7</ele>
        <time>2020-05-10T15:20:30Z</time>
      </trkpt>
      <trkpt lat="48.70827" lon="7.26901">
        <ele>454.2</ele>
        <time>2020-05-10T15:20:32Z</time>
      </trkpt>
      <trkpt lat="48.7083" lon="7.26893">
        <ele>453.9</ele>
        <time>2020-05-10T15:20:33Z</time>
      </trkpt>
      <trkpt lat="48.70835" lon="7.26882">
        <ele>453.5</ele>
        <time>2020-05-10T15:20:35Z</time>
      </trkpt>
      <trkpt lat="48.70844" lon="7.26869">
        <ele>452.9</ele>
        <time>2020-05-10T15:20:37Z</time>
      </trkpt>
      <trkpt lat="48.70849" lon="7.26854">
        <ele>452.4</ele>
        <time>2020-05-10T15:20:39Z</time>
      </trkpt>
      <trkpt lat="48.70856" lon="7.26841">
        <ele>451.8</ele>
        <time>2020-05-10T15:20:41Z</time>
      </trkpt>
      <trkpt lat="48.70858" lon="7.26837">
        <ele>451.7</ele>
        <time>2020-05-10T15:20:42Z</time>
      </trkpt>
      <trkpt lat="48.70864" lon="7.26832">
        <ele>451.3</ele>
        <time>2020-05-10T15:20:43Z</time>
      </trkpt>
      <trkpt lat="48.70871" lon="7.26817">
        <ele>450.7</ele>
        <time>2020-05-10T15:20:45Z</time>
      </trkpt>
      <trkpt lat="48.70874" lon="7.2681">
        <ele>450.5</ele>
        <time>2020-05-10T15:20:46Z</time>
      </trkpt>
      <trkpt lat="48.70877" lon="7.26802">
        <ele>450.1</ele>
        <time>2020-05-10T15:20:47Z</time>
      </trkpt>
      <trkpt lat="48.70886" lon="7.26783">
        <ele>449.3</ele>
        <time>2020-05-10T15:20:49Z</time>
      </trkpt>
      <trkpt lat="48.7089" lon="7.26773">
        <ele>449</ele>
        <time>2020-05-10T15:20:50Z</time>
      </trkpt>
      <trkpt lat="48.70902" lon="7.26752">
        <ele>448.3</ele>
        <time>2020-05-10T15:20:52Z</time>
      </trkpt>
      <trkpt lat="48.70909" lon="7.26739">
        <ele>448.1</ele>
        <time>2020-05-10T15:20:53Z</time>
      </trkpt>
      <trkpt lat="48.70912" lon="7.26733">
        <ele>448</ele>
        <time>2020-05-10T15:20:54Z</time>
      </trkpt>
      <trkpt lat="48.70921" lon="7.26719">
        <ele>447.8</ele>
        <time>2020-05-10T15:20:56Z</time>
      </trkpt>
      <trkpt lat="48.70928" lon="7.26703">
        <ele>447.6</ele>
        <time>2020-05-10T15:20:58Z</time>
      </trkpt>
      <trkpt lat="48.70931" lon="7.26692">
        <ele>447.6</ele>
        <time>2020-05-10T15:20:59Z</time>
      </trkpt>
      <trkpt lat="48.70932" lon="7.26683">
        <ele>447.6</ele>
        <time>2020-05-10T15:21:00Z</time>
      </trkpt>
      <trkpt lat="48.70934" lon="7.26673">
        <ele>447.7</ele>
        <time>2020-05-10T15:21:01Z</time>
      </trkpt>
      <trkpt lat="48.70943" lon="7.26656">
        <ele>447.8</ele>
        <time>2020-05-10T15:21:03Z</time>
      </trkpt>
      <trkpt lat="48.70952" lon="7.26643">
        <ele>447.8</ele>
        <time>2020-05-10T15:21:05Z</time>
      </trkpt>
      <trkpt lat="48.70957" lon="7.26637">
        <ele>447.8</ele>
        <time>2020-05-10T15:21:06Z</time>
      </trkpt>
      <trkpt lat="48.70968" lon="7.26629">
        <ele>447.8</ele>
        <time>2020-05-10T15:21:08Z</time>
      </trkpt>
      <trkpt lat="48.7098" lon="7.26625">
        <ele>447.8</ele>
        <time>2020-05-10T15:21:10Z</time>
      </trkpt>
      <trkpt lat="48.70986" lon="7.26624">
        <ele>447.7</ele>
        <time>2020-05-10T15:21:11Z</time>
      </trkpt>
      <trkpt lat="48.70999" lon="7.26618">
        <ele>447.6</ele>
        <time>2020-05-10T15:21:13Z</time>
      </trkpt>
      <trkpt lat="48.71007" lon="7.26616">
        <ele>447.4</ele>
        <time>2020-05-10T15:21:14Z</time>
      </trkpt>
      <trkpt lat="48.71013" lon="7.26613">
        <ele>447.2</ele>
        <time>2020-05-10T15:21:15Z</time>
      </trkpt>
      <trkpt lat="48.71023" lon="7.26603">
        <ele>447</ele>
        <time>2020-05-10T15:21:17Z</time>
      </trkpt>
      <trkpt lat="48.71033" lon="7.26588">
        <ele>447</ele>
        <time>2020-05-10T15:21:18Z</time>
      </trkpt>
      <trkpt lat="48.71039" lon="7.26584">
        <ele>447</ele>
        <time>2020-05-10T15:21:19Z</time>
      </trkpt>
      <trkpt lat="48.71057" lon="7.26586">
        <ele>446.9</ele>
        <time>2020-05-10T15:21:21Z</time>
      </trkpt>
      <trkpt lat="48.71065" lon="7.26586">
        <ele>446.9</ele>
        <time>2020-05-10T15:21:22Z</time>
      </trkpt>
      <trkpt lat="48.71075" lon="7.26581">
        <ele>447</ele>
        <time>2020-05-10T15:21:24Z</time>
      </trkpt>
      <trkpt lat="48.71083" lon="7.26588">
        <ele>447.1</ele>
        <time>2020-05-10T15:21:26Z</time>
      </trkpt>
      <trkpt lat="48.71087" lon="7.266">
        <ele>447.3</ele>
        <time>2020-05-10T15:21:30Z</time>
      </trkpt>
      <trkpt lat="48.71087" lon="7.26617">
        <ele>447.6</ele>
        <time>2020-05-10T15:21:32Z</time>
      </trkpt>
      <trkpt lat="48.7109" lon="7.26635">
        <ele>447.7</ele>
        <time>2020-05-10T15:21:34Z</time>
      </trkpt>
      <trkpt lat="48.71093" lon="7.26652">
        <ele>447.7</ele>
        <time>2020-05-10T15:21:36Z</time>
      </trkpt>
      <trkpt lat="48.71096" lon="7.26666">
        <ele>447.7</ele>
        <time>2020-05-10T15:21:38Z</time>
      </trkpt>
      <trkpt lat="48.71096" lon="7.26673">
        <ele>447.8</ele>
        <time>2020-05-10T15:21:39Z</time>
      </trkpt>
      <trkpt lat="48.71098" lon="7.2669">
        <ele>447.9</ele>
        <time>2020-05-10T15:21:41Z</time>
      </trkpt>
      <trkpt lat="48.711" lon="7.26709">
        <ele>448.1</ele>
        <time>2020-05-10T15:21:43Z</time>
      </trkpt>
      <trkpt lat="48.71104" lon="7.26725">
        <ele>448.5</ele>
        <time>2020-05-10T15:21:45Z</time>
      </trkpt>
      <trkpt lat="48.7111" lon="7.26739">
        <ele>449</ele>
        <time>2020-05-10T15:21:47Z</time>
      </trkpt>
      <trkpt lat="48.71116" lon="7.2675">
        <ele>449.4</ele>
        <time>2020-05-10T15:21:49Z</time>
      </trkpt>
      <trkpt lat="48.71123" lon="7.26762">
        <ele>449.8</ele>
        <time>2020-05-10T15:21:51Z</time>
      </trkpt>
      <trkpt lat="48.71127" lon="7.26774">
        <ele>450.2</ele>
        <time>2020-05-10T15:21:53Z</time>
      </trkpt>
      <trkpt lat="48.71129" lon="7.26778">
        <ele>450.4</ele>
        <time>2020-05-10T15:21:54Z</time>
      </trkpt>
      <trkpt lat="48.71133" lon="7.26789">
        <ele>450.7</ele>
        <time>2020-05-10T15:21:56Z</time>
      </trkpt>
      <trkpt lat="48.71134" lon="7.26799">
        <ele>451</ele>
        <time>2020-05-10T15:21:58Z</time>
      </trkpt>
      <trkpt lat="48.71136" lon="7.26803">
        <ele>451.1</ele>
        <time>2020-05-10T15:21:59Z</time>
      </trkpt>
      <trkpt lat="48.71143" lon="7.26815">
        <ele>451.5</ele>
        <time>2020-05-10T15:22:01Z</time>
      </trkpt>
      <trkpt lat="48.71149" lon="7.26822">
        <ele>451.8</ele>
        <time>2020-05-10T15:22:03Z</time>
      </trkpt>
      <trkpt lat="48.71155" lon="7.26834">
        <ele>452.2</ele>
        <time>2020-05-10T15:22:05Z</time>
      </trkpt>
      <trkpt lat="48.7116" lon="7.26845">
        <ele>452.6</ele>
        <time>2020-05-10T15:22:07Z</time>
      </trkpt>
      <trkpt lat="48.71163" lon="7.26851">
        <ele>452.7</ele>
        <time>2020-05-10T15:22:08Z</time>
      </trkpt>
      <trkpt lat="48.71167" lon="7.26861">
        <ele>453</ele>
        <time>2020-05-10T15:22:10Z</time>
      </trkpt>
      <trkpt lat="48.71171" lon="7.26867">
        <ele>453.2</ele>
        <time>2020-05-10T15:22:12Z</time>
      </trkpt>
      <trkpt lat="48.71176" lon="7.26876">
        <ele>453.5</ele>
        <time>2020-05-10T15:22:14Z</time>
      </trkpt>
      <trkpt lat="48.71178" lon="7.26882">
        <ele>453.7</ele>
        <time>2020-05-10T15:22:15Z</time>
      </trkpt>
      <trkpt lat="48.71179" lon="7.26886">
        <ele>453.8</ele>
        <time>2020-05-10T15:22:16Z</time>
      </trkpt>
      <trkpt lat="48.71182" lon="7.26894">
        <ele>454</ele>
        <time>2020-05-10T15:22:18Z</time>
      </trkpt>
      <trkpt lat="48.71186" lon="7.269">
        <ele>454.3</ele>
        <time>2020-05-10T15:22:20Z</time>
      </trkpt>
      <trkpt lat="48.71189" lon="7.26904">
        <ele>454.4</ele>
        <time>2020-05-10T15:22:21Z</time>
      </trkpt>
      <trkpt lat="48.71195" lon="7.26912">
        <ele>454.6</ele>
        <time>2020-05-10T15:22:23Z</time>
      </trkpt>
      <trkpt lat="48.71199" lon="7.26917">
        <ele>454.8</ele>
        <time>2020-05-10T15:22:25Z</time>
      </trkpt>
      <trkpt lat="48.712" lon="7.26921">
        <ele>454.9</ele>
        <time>2020-05-10T15:22:26Z</time>
      </trkpt>
      <trkpt lat="48.71202" lon="7.26925">
        <ele>455</ele>
        <time>2020-05-10T15:22:27Z</time>
      </trkpt>
      <trkpt lat="48.71206" lon="7.26933">
        <ele>455.2</ele>
        <time>2020-05-10T15:22:29Z</time>
      </trkpt>
      <trkpt lat="48.71208" lon="7.26936">
        <ele>455.3</ele>
        <time>2020-05-10T15:22:30Z</time>
      </trkpt>
      <trkpt lat="48.7121" lon="7.26938">
        <ele>455.4</ele>
        <time>2020-05-10T15:22:31Z</time>
      </trkpt>
      <trkpt lat="48.71214" lon="7.26943">
        <ele>455.6</ele>
        <time>2020-05-10T15:22:33Z</time>
      </trkpt>
      <trkpt lat="48.71215" lon="7.26945">
        <ele>455.7</ele>
        <time>2020-05-10T15:22:34Z</time>
      </trkpt>
      <trkpt lat="48.71215" lon="7.26947">
        <ele>455.7</ele>
        <time>2020-05-10T15:22:35Z</time>
      </trkpt>
      <trkpt lat="48.71216" lon="7.2695">
        <ele>455.8</ele>
        <time>2020-05-10T15:22:36Z</time>
      </trkpt>
      <trkpt lat="48.71219" lon="7.26954">
        <ele>455.9</ele>
        <time>2020-05-10T15:22:38Z</time>
      </trkpt>
      <trkpt lat="48.71224" lon="7.26962">
        <ele>456.1</ele>
        <time>2020-05-10T15:22:40Z</time>
      </trkpt>
      <trkpt lat="48.71228" lon="7.2697">
        <ele>456.3</ele>
        <time>2020-05-10T15:22:42Z</time>
      </trkpt>
      <trkpt lat="48.71231" lon="7.26973">
        <ele>456.5</ele>
        <time>2020-05-10T15:22:43Z</time>
      </trkpt>
      <trkpt lat="48.71232" lon="7.26976">
        <ele>456.5</ele>
        <time>2020-05-10T15:22:44Z</time>
      </trkpt>
      <trkpt lat="48.71237" lon="7.26983">
        <ele>456.8</ele>
        <time>2020-05-10T15:22:46Z</time>
      </trkpt>
      <trkpt lat="48.7124" lon="7.26987">
        <ele>456.9</ele>
        <time>2020-05-10T15:22:47Z</time>
      </trkpt>
      <trkpt lat="48.71243" lon="7.26993">
        <ele>457.1</ele>
        <time>2020-05-10T15:22:49Z</time>
      </trkpt>
      <trkpt lat="48.71245" lon="7.26997">
        <ele>457.2</ele>
        <time>2020-05-10T15:22:50Z</time>
      </trkpt>
      <trkpt lat="48.71247" lon="7.27002">
        <ele>457.3</ele>
        <time>2020-05-10T15:22:51Z</time>
      </trkpt>
      <trkpt lat="48.71249" lon="7.27005">
        <ele>457.4</ele>
        <time>2020-05-10T15:22:52Z</time>
      </trkpt>
      <trkpt lat="48.71254" lon="7.27012">
        <ele>457.6</ele>
        <time>2020-05-10T15:22:54Z</time>
      </trkpt>
      <trkpt lat="48.71256" lon="7.27016">
        <ele>457.7</ele>
        <time>2020-05-10T15:22:55Z</time>
      </trkpt>
      <trkpt lat="48.71261" lon="7.27023">
        <ele>457.9</ele>
        <time>2020-05-10T15:22:57Z</time>
      </trkpt>
      <trkpt lat="48.71262" lon="7.27026">
        <ele>458</ele>
        <time>2020-05-10T15:22:58Z</time>
      </trkpt>
      <trkpt lat="48.71264" lon="7.27031">
        <ele>458.2</ele>
        <time>2020-05-10T15:23:00Z</time>
      </trkpt>
      <trkpt lat="48.71267" lon="7.27036">
        <ele>458.3</ele>
        <time>2020-05-10T15:23:02Z</time>
      </trkpt>
      <trkpt lat="48.71268" lon="7.27039">
        <ele>458.4</ele>
        <time>2020-05-10T15:23:03Z</time>
      </trkpt>
      <trkpt lat="48.71271" lon="7.27046">
        <ele>458.5</ele>
        <time>2020-05-10T15:23:05Z</time>
      </trkpt>
      <trkpt lat="48.71273" lon="7.2705">
        <ele>458.5</ele>
        <time>2020-05-10T15:23:06Z</time>
      </trkpt>
      <trkpt lat="48.71275" lon="7.27055">
        <ele>458.6</ele>
        <time>2020-05-10T15:23:07Z</time>
      </trkpt>
      <trkpt lat="48.71277" lon="7.27058">
        <ele>458.6</ele>
        <time>2020-05-10T15:23:08Z</time>
      </trkpt>
      <trkpt lat="48.71281" lon="7.27065">
        <ele>458.7</ele>
        <time>2020-05-10T15:23:10Z</time>
      </trkpt>
      <trkpt lat="48.71283" lon="7.27069">
        <ele>458.8</ele>
        <time>2020-05-10T15:23:11Z</time>
      </trkpt>
      <trkpt lat="48.71289" lon="7.27077">
        <ele>458.9</ele>
        <time>2020-05-10T15:23:13Z</time>
      </trkpt>
      <trkpt lat="48.71291" lon="7.27081">
        <ele>459</ele>
        <time>2020-05-10T15:23:14Z</time>
      </trkpt>
      <trkpt lat="48.71295" lon="7.27089">
        <ele>459.1</ele>
        <time>2020-05-10T15:23:16Z</time>
      </trkpt>
      <trkpt lat="48.71297" lon="7.27093">
        <ele>459.2</ele>
        <time>2020-05-10T15:23:17Z</time>
      </trkpt>
      <trkpt lat="48.71302" lon="7.271">
        <ele>459.4</ele>
        <time>2020-05-10T15:23:19Z</time>
      </trkpt>
      <trkpt lat="48.71305" lon="7.27108">
        <ele>459.6</ele>
        <time>2020-05-10T15:23:21Z</time>
      </trkpt>
      <trkpt lat="48.71307" lon="7.27112">
        <ele>459.6</ele>
        <time>2020-05-10T15:23:22Z</time>
      </trkpt>
      <trkpt lat="48.7131" lon="7.27118">
        <ele>459.7</ele>
        <time>2020-05-10T15:23:24Z</time>
      </trkpt>
      <trkpt lat="48.71311" lon="7.27121">
        <ele>459.7</ele>
        <time>2020-05-10T15:23:25Z</time>
      </trkpt>
      <trkpt lat="48.71315" lon="7.27125">
        <ele>459.8</ele>
        <time>2020-05-10T15:23:27Z</time>
      </trkpt>
      <trkpt lat="48.71323" lon="7.27131">
        <ele>459.9</ele>
        <time>2020-05-10T15:23:29Z</time>
      </trkpt>
      <trkpt lat="48.71327" lon="7.27134">
        <ele>459.9</ele>
        <time>2020-05-10T15:23:30Z</time>
      </trkpt>
      <trkpt lat="48.7133" lon="7.27136">
        <ele>459.9</ele>
        <time>2020-05-10T15:23:31Z</time>
      </trkpt>
      <trkpt lat="48.71337" lon="7.27143">
        <ele>460.2</ele>
        <time>2020-05-10T15:23:33Z</time>
      </trkpt>
      <trkpt lat="48.71342" lon="7.27147">
        <ele>460.3</ele>
        <time>2020-05-10T15:23:34Z</time>
      </trkpt>
      <trkpt lat="48.71349" lon="7.27152">
        <ele>460.6</ele>
        <time>2020-05-10T15:23:36Z</time>
      </trkpt>
      <trkpt lat="48.71352" lon="7.27154">
        <ele>460.7</ele>
        <time>2020-05-10T15:23:37Z</time>
      </trkpt>
      <trkpt lat="48.71358" lon="7.27162">
        <ele>461</ele>
        <time>2020-05-10T15:23:39Z</time>
      </trkpt>
      <trkpt lat="48.71362" lon="7.2717">
        <ele>461.2</ele>
        <time>2020-05-10T15:23:41Z</time>
      </trkpt>
      <trkpt lat="48.71365" lon="7.27175">
        <ele>461.4</ele>
        <time>2020-05-10T15:23:42Z</time>
      </trkpt>
      <trkpt lat="48.71371" lon="7.27186">
        <ele>461.9</ele>
        <time>2020-05-10T15:23:44Z</time>
      </trkpt>
      <trkpt lat="48.71374" lon="7.27191">
        <ele>462.1</ele>
        <time>2020-05-10T15:23:45Z</time>
      </trkpt>
      <trkpt lat="48.71378" lon="7.27197">
        <ele>462.5</ele>
        <time>2020-05-10T15:23:46Z</time>
      </trkpt>
      <trkpt lat="48.71386" lon="7.27212">
        <ele>463.4</ele>
        <time>2020-05-10T15:23:48Z</time>
      </trkpt>
      <trkpt lat="48.71389" lon="7.2722">
        <ele>464</ele>
        <time>2020-05-10T15:23:49Z</time>
      </trkpt>
      <trkpt lat="48.71395" lon="7.27231">
        <ele>464.8</ele>
        <time>2020-05-10T15:23:51Z</time>
      </trkpt>
      <trkpt lat="48.71411" lon="7.27251">
        <ele>465.6</ele>
        <time>2020-05-10T15:23:57Z</time>
      </trkpt>
      <trkpt lat="48.7142" lon="7.27251">
        <ele>465.7</ele>
        <time>2020-05-10T15:23:58Z</time>
      </trkpt>
      <trkpt lat="48.71422" lon="7.27251">
        <ele>465.8</ele>
        <time>2020-05-10T15:23:59Z</time>
      </trkpt>
      <trkpt lat="48.71426" lon="7.27254">
        <ele>466.1</ele>
        <time>2020-05-10T15:24:01Z</time>
      </trkpt>
      <trkpt lat="48.71427" lon="7.27256">
        <ele>466.1</ele>
        <time>2020-05-10T15:24:03Z</time>
      </trkpt>
      <trkpt lat="48.71427" lon="7.27255">
        <ele>466.2</ele>
        <time>2020-05-10T15:24:05Z</time>
      </trkpt>
      <trkpt lat="48.71427" lon="7.27254">
        <ele>466.2</ele>
        <time>2020-05-10T15:24:06Z</time>
      </trkpt>
      <trkpt lat="48.71427" lon="7.27254">
        <ele>466.2</ele>
        <time>2020-05-10T15:24:07Z</time>
      </trkpt>
      <trkpt lat="48.71426" lon="7.27254">
        <ele>466.3</ele>
        <time>2020-05-10T15:24:08Z</time>
      </trkpt>
      <trkpt lat="48.71426" lon="7.27252">
        <ele>466.3</ele>
        <time>2020-05-10T15:24:10Z</time>
      </trkpt>
      <trkpt lat="48.71426" lon="7.27252">
        <ele>466.2</ele>
        <time>2020-05-10T15:24:12Z</time>
      </trkpt>
      <trkpt lat="48.71426" lon="7.27252">
        <ele>466.3</ele>
        <time>2020-05-10T15:24:14Z</time>
      </trkpt>
      <trkpt lat="48.71426" lon="7.27253">
        <ele>466.5</ele>
        <time>2020-05-10T15:24:16Z</time>
      </trkpt>
      <trkpt lat="48.71426" lon="7.27253">
        <ele>466.5</ele>
        <time>2020-05-10T15:24:18Z</time>
      </trkpt>
      <trkpt lat="48.71426" lon="7.27252">
        <ele>466.6</ele>
        <time>2020-05-10T15:24:20Z</time>
      </trkpt>
      <trkpt lat="48.7143" lon="7.27257">
        <ele>466.9</ele>
        <time>2020-05-10T15:24:25Z</time>
      </trkpt>
      <trkpt lat="48.71437" lon="7.27262">
        <ele>467.1</ele>
        <time>2020-05-10T15:24:27Z</time>
      </trkpt>
      <trkpt lat="48.7144" lon="7.27265">
        <ele>467.3</ele>
        <time>2020-05-10T15:24:28Z</time>
      </trkpt>
      <trkpt lat="48.7145" lon="7.27273">
        <ele>467.4</ele>
        <time>2020-05-10T15:24:30Z</time>
      </trkpt>
      <trkpt lat="48.71462" lon="7.27288">
        <ele>468</ele>
        <time>2020-05-10T15:24:32Z</time>
      </trkpt>
      <trkpt lat="48.71466" lon="7.27293">
        <ele>468.2</ele>
        <time>2020-05-10T15:24:33Z</time>
      </trkpt>
      <trkpt lat="48.71478" lon="7.27299">
        <ele>468.1</ele>
        <time>2020-05-10T15:24:35Z</time>
      </trkpt>
      <trkpt lat="48.71492" lon="7.2731">
        <ele>467.4</ele>
        <time>2020-05-10T15:24:37Z</time>
      </trkpt>
      <trkpt lat="48.71499" lon="7.27316">
        <ele>466.2</ele>
        <time>2020-05-10T15:24:38Z</time>
      </trkpt>
      <trkpt lat="48.71505" lon="7.27324">
        <ele>465.7</ele>
        <time>2020-05-10T15:24:40Z</time>
      </trkpt>
      <trkpt lat="48.71511" lon="7.27328">
        <ele>464.8</ele>
        <time>2020-05-10T15:24:41Z</time>
      </trkpt>
      <trkpt lat="48.71516" lon="7.27333">
        <ele>463.8</ele>
        <time>2020-05-10T15:24:42Z</time>
      </trkpt>
      <trkpt lat="48.71526" lon="7.27345">
        <ele>461.5</ele>
        <time>2020-05-10T15:24:44Z</time>
      </trkpt>
      <trkpt lat="48.7153" lon="7.2735">
        <ele>460.9</ele>
        <time>2020-05-10T15:24:45Z</time>
      </trkpt>
      <trkpt lat="48.71542" lon="7.27365">
        <ele>458.9</ele>
        <time>2020-05-10T15:24:47Z</time>
      </trkpt>
      <trkpt lat="48.71546" lon="7.27374">
        <ele>458.9</ele>
        <time>2020-05-10T15:24:48Z</time>
      </trkpt>
      <trkpt lat="48.71552" lon="7.27392">
        <ele>458</ele>
        <time>2020-05-10T15:24:50Z</time>
      </trkpt>
      <trkpt lat="48.71557" lon="7.27408">
        <ele>458.2</ele>
        <time>2020-05-10T15:24:52Z</time>
      </trkpt>
      <trkpt lat="48.71561" lon="7.27415">
        <ele>457.3</ele>
        <time>2020-05-10T15:24:53Z</time>
      </trkpt>
      <trkpt lat="48.7157" lon="7.27428">
        <ele>456.2</ele>
        <time>2020-05-10T15:24:55Z</time>
      </trkpt>
      <trkpt lat="48.71575" lon="7.27436">
        <ele>455.5</ele>
        <time>2020-05-10T15:24:56Z</time>
      </trkpt>
      <trkpt lat="48.71581" lon="7.27443">
        <ele>454.9</ele>
        <time>2020-05-10T15:24:57Z</time>
      </trkpt>
      <trkpt lat="48.71589" lon="7.2745">
        <ele>454.2</ele>
        <time>2020-05-10T15:24:58Z</time>
      </trkpt>
      <trkpt lat="48.71602" lon="7.27458">
        <ele>453.5</ele>
        <time>2020-05-10T15:25:00Z</time>
      </trkpt>
      <trkpt lat="48.71608" lon="7.27464">
        <ele>453.1</ele>
        <time>2020-05-10T15:25:01Z</time>
      </trkpt>
      <trkpt lat="48.71614" lon="7.2747">
        <ele>452.2</ele>
        <time>2020-05-10T15:25:02Z</time>
      </trkpt>
      <trkpt lat="48.71624" lon="7.27479">
        <ele>451.4</ele>
        <time>2020-05-10T15:25:04Z</time>
      </trkpt>
      <trkpt lat="48.71629" lon="7.27482">
        <ele>451.2</ele>
        <time>2020-05-10T15:25:05Z</time>
      </trkpt>
      <trkpt lat="48.71637" lon="7.27486">
        <ele>450.6</ele>
        <time>2020-05-10T15:25:07Z</time>
      </trkpt>
      <trkpt lat="48.71645" lon="7.27488">
        <ele>450.2</ele>
        <time>2020-05-10T15:25:09Z</time>
      </trkpt>
      <trkpt lat="48.71649" lon="7.27494">
        <ele>449.9</ele>
        <time>2020-05-10T15:25:10Z</time>
      </trkpt>
      <trkpt lat="48.71651" lon="7.27506">
        <ele>449.7</ele>
        <time>2020-05-10T15:25:12Z</time>
      </trkpt>
      <trkpt lat="48.71651" lon="7.27509">
        <ele>449.7</ele>
        <time>2020-05-10T15:25:14Z</time>
      </trkpt>
      <trkpt lat="48.71652" lon="7.27509">
        <ele>449.7</ele>
        <time>2020-05-10T15:25:15Z</time>
      </trkpt>
      <trkpt lat="48.71653" lon="7.2751">
        <ele>449.7</ele>
        <time>2020-05-10T15:25:16Z</time>
      </trkpt>
      <trkpt lat="48.71654" lon="7.2751">
        <ele>449.7</ele>
        <time>2020-05-10T15:25:18Z</time>
      </trkpt>
      <trkpt lat="48.71654" lon="7.2751">
        <ele>449.7</ele>
        <time>2020-05-10T15:25:20Z</time>
      </trkpt>
      <trkpt lat="48.71653" lon="7.27511">
        <ele>449.7</ele>
        <time>2020-05-10T15:25:21Z</time>
      </trkpt>
      <trkpt lat="48.71653" lon="7.27511">
        <ele>449.7</ele>
        <time>2020-05-10T15:25:22Z</time>
      </trkpt>
      <trkpt lat="48.71653" lon="7.27511">
        <ele>449.7</ele>
        <time>2020-05-10T15:25:24Z</time>
      </trkpt>
      <trkpt lat="48.71653" lon="7.27511">
        <ele>449.7</ele>
        <time>2020-05-10T15:25:26Z</time>
      </trkpt>
      <trkpt lat="48.71653" lon="7.27511">
        <ele>449.7</ele>
        <time>2020-05-10T15:25:27Z</time>
      </trkpt>
      <trkpt lat="48.71653" lon="7.27511">
        <ele>449.7</ele>
        <time>2020-05-10T15:25:28Z</time>
      </trkpt>
      <trkpt lat="48.71653" lon="7.27514">
        <ele>449.7</ele>
        <time>2020-05-10T15:25:35Z</time>
      </trkpt>
      <trkpt lat="48.71651" lon="7.27516">
        <ele>449.7</ele>
        <time>2020-05-10T15:25:36Z</time>
      </trkpt>
      <trkpt lat="48.71647" lon="7.27525">
        <ele>449.3</ele>
        <time>2020-05-10T15:25:38Z</time>
      </trkpt>
      <trkpt lat="48.7164" lon="7.27535">
        <ele>449</ele>
        <time>2020-05-10T15:25:40Z</time>
      </trkpt>
      <trkpt lat="48.71637" lon="7.27539">
        <ele>448.8</ele>
        <time>2020-05-10T15:25:41Z</time>
      </trkpt>
      <trkpt lat="48.7163" lon="7.27548">
        <ele>448.5</ele>
        <time>2020-05-10T15:25:43Z</time>
      </trkpt>
      <trkpt lat="48.71627" lon="7.27554">
        <ele>448.3</ele>
        <time>2020-05-10T15:25:44Z</time>
      </trkpt>
      <trkpt lat="48.71618" lon="7.27565">
        <ele>447.7</ele>
        <time>2020-05-10T15:25:46Z</time>
      </trkpt>
      <trkpt lat="48.71607" lon="7.27577">
        <ele>446.9</ele>
        <time>2020-05-10T15:25:48Z</time>
      </trkpt>
      <trkpt lat="48.71601" lon="7.27587">
        <ele>446.4</ele>
        <time>2020-05-10T15:25:49Z</time>
      </trkpt>
      <trkpt lat="48.71589" lon="7.27604">
        <ele>445.3</ele>
        <time>2020-05-10T15:25:51Z</time>
      </trkpt>
      <trkpt lat="48.7158" lon="7.27619">
        <ele>444.3</ele>
        <time>2020-05-10T15:25:53Z</time>
      </trkpt>
      <trkpt lat="48.71576" lon="7.27627">
        <ele>443.9</ele>
        <time>2020-05-10T15:25:54Z</time>
      </trkpt>
      <trkpt lat="48.71566" lon="7.27648">
        <ele>442.9</ele>
        <time>2020-05-10T15:25:56Z</time>
      </trkpt>
      <trkpt lat="48.71553" lon="7.27668">
        <ele>441.8</ele>
        <time>2020-05-10T15:25:58Z</time>
      </trkpt>
      <trkpt lat="48.71548" lon="7.27674">
        <ele>441.4</ele>
        <time>2020-05-10T15:25:59Z</time>
      </trkpt>
      <trkpt lat="48.71534" lon="7.27684">
        <ele>440.4</ele>
        <time>2020-05-10T15:26:01Z</time>
      </trkpt>
      <trkpt lat="48.71528" lon="7.27689">
        <ele>440</ele>
        <time>2020-05-10T15:26:02Z</time>
      </trkpt>
      <trkpt lat="48.71515" lon="7.27703">
        <ele>439</ele>
        <time>2020-05-10T15:26:04Z</time>
      </trkpt>
      <trkpt lat="48.71502" lon="7.27719">
        <ele>438</ele>
        <time>2020-05-10T15:26:06Z</time>
      </trkpt>
      <trkpt lat="48.71493" lon="7.27739">
        <ele>437.1</ele>
        <time>2020-05-10T15:26:08Z</time>
      </trkpt>
      <trkpt lat="48.71489" lon="7.27748">
        <ele>436.7</ele>
        <time>2020-05-10T15:26:09Z</time>
      </trkpt>
      <trkpt lat="48.71485" lon="7.2776">
        <ele>436.3</ele>
        <time>2020-05-10T15:26:10Z</time>
      </trkpt>
      <trkpt lat="48.71477" lon="7.27783">
        <ele>435.4</ele>
        <time>2020-05-10T15:26:12Z</time>
      </trkpt>
      <trkpt lat="48.71473" lon="7.27793">
        <ele>435</ele>
        <time>2020-05-10T15:26:13Z</time>
      </trkpt>
      <trkpt lat="48.71467" lon="7.27809">
        <ele>434.4</ele>
        <time>2020-05-10T15:26:15Z</time>
      </trkpt>
      <trkpt lat="48.71461" lon="7.27825">
        <ele>433.9</ele>
        <time>2020-05-10T15:26:17Z</time>
      </trkpt>
      <trkpt lat="48.71457" lon="7.27836">
        <ele>433.5</ele>
        <time>2020-05-10T15:26:18Z</time>
      </trkpt>
      <trkpt lat="48.71454" lon="7.27856">
        <ele>432.8</ele>
        <time>2020-05-10T15:26:20Z</time>
      </trkpt>
      <trkpt lat="48.71453" lon="7.27866">
        <ele>432.5</ele>
        <time>2020-05-10T15:26:21Z</time>
      </trkpt>
      <trkpt lat="48.71452" lon="7.27887">
        <ele>431.7</ele>
        <time>2020-05-10T15:26:23Z</time>
      </trkpt>
      <trkpt lat="48.71453" lon="7.27899">
        <ele>431.3</ele>
        <time>2020-05-10T15:26:24Z</time>
      </trkpt>
      <trkpt lat="48.71455" lon="7.27911">
        <ele>430.8</ele>
        <time>2020-05-10T15:26:25Z</time>
      </trkpt>
      <trkpt lat="48.71456" lon="7.27922">
        <ele>430.3</ele>
        <time>2020-05-10T15:26:26Z</time>
      </trkpt>
      <trkpt lat="48.71458" lon="7.27933">
        <ele>429.9</ele>
        <time>2020-05-10T15:26:27Z</time>
      </trkpt>
      <trkpt lat="48.7146" lon="7.27957">
        <ele>428.7</ele>
        <time>2020-05-10T15:26:29Z</time>
      </trkpt>
      <trkpt lat="48.71462" lon="7.2797">
        <ele>428.1</ele>
        <time>2020-05-10T15:26:30Z</time>
      </trkpt>
      <trkpt lat="48.71464" lon="7.27982">
        <ele>427.5</ele>
        <time>2020-05-10T15:26:31Z</time>
      </trkpt>
      <trkpt lat="48.71465" lon="7.27992">
        <ele>427.1</ele>
        <time>2020-05-10T15:26:32Z</time>
      </trkpt>
      <trkpt lat="48.71467" lon="7.2801">
        <ele>426.4</ele>
        <time>2020-05-10T15:26:34Z</time>
      </trkpt>
      <trkpt lat="48.71468" lon="7.28023">
        <ele>425.9</ele>
        <time>2020-05-10T15:26:36Z</time>
      </trkpt>
      <trkpt lat="48.71469" lon="7.28032">
        <ele>425.6</ele>
        <time>2020-05-10T15:26:37Z</time>
      </trkpt>
      <trkpt lat="48.71473" lon="7.28052">
        <ele>424.8</ele>
        <time>2020-05-10T15:26:39Z</time>
      </trkpt>
      <trkpt lat="48.71474" lon="7.28061">
        <ele>424.5</ele>
        <time>2020-05-10T15:26:40Z</time>
      </trkpt>
      <trkpt lat="48.71478" lon="7.2808">
        <ele>423.8</ele>
        <time>2020-05-10T15:26:42Z</time>
      </trkpt>
      <trkpt lat="48.7148" lon="7.28091">
        <ele>423.4</ele>
        <time>2020-05-10T15:26:43Z</time>
      </trkpt>
      <trkpt lat="48.71483" lon="7.28102">
        <ele>423.1</ele>
        <time>2020-05-10T15:26:44Z</time>
      </trkpt>
      <trkpt lat="48.71489" lon="7.28121">
        <ele>422.4</ele>
        <time>2020-05-10T15:26:46Z</time>
      </trkpt>
      <trkpt lat="48.7149" lon="7.2813">
        <ele>422.1</ele>
        <time>2020-05-10T15:26:47Z</time>
      </trkpt>
      <trkpt lat="48.71496" lon="7.28148">
        <ele>421.6</ele>
        <time>2020-05-10T15:26:49Z</time>
      </trkpt>
      <trkpt lat="48.71499" lon="7.28157">
        <ele>421.3</ele>
        <time>2020-05-10T15:26:50Z</time>
      </trkpt>
      <trkpt lat="48.71505" lon="7.28174">
        <ele>420.7</ele>
        <time>2020-05-10T15:26:52Z</time>
      </trkpt>
      <trkpt lat="48.71512" lon="7.28194">
        <ele>420</ele>
        <time>2020-05-10T15:26:54Z</time>
      </trkpt>
      <trkpt lat="48.7152" lon="7.28215">
        <ele>419.6</ele>
        <time>2020-05-10T15:26:56Z</time>
      </trkpt>
      <trkpt lat="48.71523" lon="7.28224">
        <ele>419.4</ele>
        <time>2020-05-10T15:26:57Z</time>
      </trkpt>
      <trkpt lat="48.71527" lon="7.28234">
        <ele>419</ele>
        <time>2020-05-10T15:26:58Z</time>
      </trkpt>
      <trkpt lat="48.71532" lon="7.28245">
        <ele>418.7</ele>
        <time>2020-05-10T15:26:59Z</time>
      </trkpt>
      <trkpt lat="48.71539" lon="7.28266">
        <ele>418.2</ele>
        <time>2020-05-10T15:27:01Z</time>
      </trkpt>
      <trkpt lat="48.71542" lon="7.28276">
        <ele>418</ele>
        <time>2020-05-10T15:27:02Z</time>
      </trkpt>
      <trkpt lat="48.71546" lon="7.28296">
        <ele>417.6</ele>
        <time>2020-05-10T15:27:04Z</time>
      </trkpt>
      <trkpt lat="48.7155" lon="7.28306">
        <ele>417.4</ele>
        <time>2020-05-10T15:27:05Z</time>
      </trkpt>
      <trkpt lat="48.71556" lon="7.28322">
        <ele>417</ele>
        <time>2020-05-10T15:27:07Z</time>
      </trkpt>
      <trkpt lat="48.71558" lon="7.2833">
        <ele>416.8</ele>
        <time>2020-05-10T15:27:08Z</time>
      </trkpt>
      <trkpt lat="48.71565" lon="7.28347">
        <ele>416</ele>
        <time>2020-05-10T15:27:10Z</time>
      </trkpt>
      <trkpt lat="48.71568" lon="7.28356">
        <ele>415.6</ele>
        <time>2020-05-10T15:27:11Z</time>
      </trkpt>
      <trkpt lat="48.71571" lon="7.28377">
        <ele>414.5</ele>
        <time>2020-05-10T15:27:13Z</time>
      </trkpt>
      <trkpt lat="48.71575" lon="7.28397">
        <ele>413.4</ele>
        <time>2020-05-10T15:27:15Z</time>
      </trkpt>
      <trkpt lat="48.71576" lon="7.28407">
        <ele>412.7</ele>
        <time>2020-05-10T15:27:16Z</time>
      </trkpt>
      <trkpt lat="48.71577" lon="7.2843">
        <ele>411.2</ele>
        <time>2020-05-10T15:27:18Z</time>
      </trkpt>
      <trkpt lat="48.71578" lon="7.2845">
        <ele>409.9</ele>
        <time>2020-05-10T15:27:20Z</time>
      </trkpt>
      <trkpt lat="48.71579" lon="7.2846">
        <ele>409.2</ele>
        <time>2020-05-10T15:27:21Z</time>
      </trkpt>
      <trkpt lat="48.71581" lon="7.28481">
        <ele>407.8</ele>
        <time>2020-05-10T15:27:23Z</time>
      </trkpt>
      <trkpt lat="48.71582" lon="7.28492">
        <ele>407</ele>
        <time>2020-05-10T15:27:24Z</time>
      </trkpt>
      <trkpt lat="48.7158" lon="7.28513">
        <ele>405.6</ele>
        <time>2020-05-10T15:27:26Z</time>
      </trkpt>
      <trkpt lat="48.71579" lon="7.28523">
        <ele>404.9</ele>
        <time>2020-05-10T15:27:27Z</time>
      </trkpt>
      <trkpt lat="48.71573" lon="7.28542">
        <ele>403.5</ele>
        <time>2020-05-10T15:27:29Z</time>
      </trkpt>
      <trkpt lat="48.71571" lon="7.28553">
        <ele>402.8</ele>
        <time>2020-05-10T15:27:30Z</time>
      </trkpt>
      <trkpt lat="48.71567" lon="7.28564">
        <ele>402</ele>
        <time>2020-05-10T15:27:31Z</time>
      </trkpt>
      <trkpt lat="48.71562" lon="7.28585">
        <ele>400.7</ele>
        <time>2020-05-10T15:27:33Z</time>
      </trkpt>
      <trkpt lat="48.71559" lon="7.2861">
        <ele>399.5</ele>
        <time>2020-05-10T15:27:35Z</time>
      </trkpt>
      <trkpt lat="48.71558" lon="7.28622">
        <ele>398.9</ele>
        <time>2020-05-10T15:27:36Z</time>
      </trkpt>
      <trkpt lat="48.71557" lon="7.28645">
        <ele>397.9</ele>
        <time>2020-05-10T15:27:38Z</time>
      </trkpt>
      <trkpt lat="48.71556" lon="7.28666">
        <ele>397</ele>
        <time>2020-05-10T15:27:40Z</time>
      </trkpt>
      <trkpt lat="48.71555" lon="7.28687">
        <ele>396.2</ele>
        <time>2020-05-10T15:27:42Z</time>
      </trkpt>
      <trkpt lat="48.71557" lon="7.28699">
        <ele>395.8</ele>
        <time>2020-05-10T15:27:43Z</time>
      </trkpt>
      <trkpt lat="48.71562" lon="7.28721">
        <ele>395</ele>
        <time>2020-05-10T15:27:45Z</time>
      </trkpt>
      <trkpt lat="48.71566" lon="7.28741">
        <ele>394.3</ele>
        <time>2020-05-10T15:27:47Z</time>
      </trkpt>
      <trkpt lat="48.7157" lon="7.2876">
        <ele>393.8</ele>
        <time>2020-05-10T15:27:49Z</time>
      </trkpt>
      <trkpt lat="48.71575" lon="7.28777">
        <ele>393.3</ele>
        <time>2020-05-10T15:27:51Z</time>
      </trkpt>
      <trkpt lat="48.71578" lon="7.28795">
        <ele>392.9</ele>
        <time>2020-05-10T15:27:53Z</time>
      </trkpt>
      <trkpt lat="48.7158" lon="7.28804">
        <ele>392.7</ele>
        <time>2020-05-10T15:27:54Z</time>
      </trkpt>
      <trkpt lat="48.71587" lon="7.28819">
        <ele>392.3</ele>
        <time>2020-05-10T15:27:56Z</time>
      </trkpt>
      <trkpt lat="48.71595" lon="7.28835">
        <ele>391.9</ele>
        <time>2020-05-10T15:27:58Z</time>
      </trkpt>
      <trkpt lat="48.716" lon="7.28843">
        <ele>391.7</ele>
        <time>2020-05-10T15:27:59Z</time>
      </trkpt>
      <trkpt lat="48.71609" lon="7.28856">
        <ele>391.3</ele>
        <time>2020-05-10T15:28:01Z</time>
      </trkpt>
      <trkpt lat="48.71621" lon="7.28872">
        <ele>391</ele>
        <time>2020-05-10T15:28:03Z</time>
      </trkpt>
      <trkpt lat="48.7163" lon="7.28887">
        <ele>390.7</ele>
        <time>2020-05-10T15:28:05Z</time>
      </trkpt>
      <trkpt lat="48.71639" lon="7.289">
        <ele>390.5</ele>
        <time>2020-05-10T15:28:07Z</time>
      </trkpt>
      <trkpt lat="48.71644" lon="7.28907">
        <ele>390.4</ele>
        <time>2020-05-10T15:28:08Z</time>
      </trkpt>
      <trkpt lat="48.71651" lon="7.28923">
        <ele>390.2</ele>
        <time>2020-05-10T15:28:10Z</time>
      </trkpt>
      <trkpt lat="48.71654" lon="7.28931">
        <ele>390</ele>
        <time>2020-05-10T15:28:11Z</time>
      </trkpt>
      <trkpt lat="48.71662" lon="7.28949">
        <ele>389.7</ele>
        <time>2020-05-10T15:28:13Z</time>
      </trkpt>
      <trkpt lat="48.71668" lon="7.28957">
        <ele>389.5</ele>
        <time>2020-05-10T15:28:14Z</time>
      </trkpt>
      <trkpt lat="48.7168" lon="7.28973">
        <ele>389.1</ele>
        <time>2020-05-10T15:28:16Z</time>
      </trkpt>
      <trkpt lat="48.71689" lon="7.28985">
        <ele>388.8</ele>
        <time>2020-05-10T15:28:18Z</time>
      </trkpt>
      <trkpt lat="48.717" lon="7.28996">
        <ele>388.2</ele>
        <time>2020-05-10T15:28:20Z</time>
      </trkpt>
      <trkpt lat="48.71706" lon="7.29">
        <ele>387.9</ele>
        <time>2020-05-10T15:28:21Z</time>
      </trkpt>
      <trkpt lat="48.71716" lon="7.29011">
        <ele>387.5</ele>
        <time>2020-05-10T15:28:23Z</time>
      </trkpt>
      <trkpt lat="48.71728" lon="7.2902">
        <ele>387.1</ele>
        <time>2020-05-10T15:28:25Z</time>
      </trkpt>
      <trkpt lat="48.71739" lon="7.29028">
        <ele>386.6</ele>
        <time>2020-05-10T15:28:27Z</time>
      </trkpt>
      <trkpt lat="48.71751" lon="7.29039">
        <ele>385.7</ele>
        <time>2020-05-10T15:28:29Z</time>
      </trkpt>
      <trkpt lat="48.71756" lon="7.29046">
        <ele>385.2</ele>
        <time>2020-05-10T15:28:30Z</time>
      </trkpt>
      <trkpt lat="48.71767" lon="7.29067">
        <ele>383.8</ele>
        <time>2020-05-10T15:28:32Z</time>
      </trkpt>
      <trkpt lat="48.71772" lon="7.29091">
        <ele>382.4</ele>
        <time>2020-05-10T15:28:34Z</time>
      </trkpt>
      <trkpt lat="48.71772" lon="7.29104">
        <ele>381.6</ele>
        <time>2020-05-10T15:28:35Z</time>
      </trkpt>
      <trkpt lat="48.7177" lon="7.29129">
        <ele>379.9</ele>
        <time>2020-05-10T15:28:37Z</time>
      </trkpt>
      <trkpt lat="48.71769" lon="7.29143">
        <ele>378.9</ele>
        <time>2020-05-10T15:28:38Z</time>
      </trkpt>
      <trkpt lat="48.71768" lon="7.29167">
        <ele>377.1</ele>
        <time>2020-05-10T15:28:40Z</time>
      </trkpt>
      <trkpt lat="48.71769" lon="7.29179">
        <ele>376.1</ele>
        <time>2020-05-10T15:28:41Z</time>
      </trkpt>
      <trkpt lat="48.71771" lon="7.29192">
        <ele>375.1</ele>
        <time>2020-05-10T15:28:42Z</time>
      </trkpt>
      <trkpt lat="48.71772" lon="7.29217">
        <ele>373.1</ele>
        <time>2020-05-10T15:28:44Z</time>
      </trkpt>
      <trkpt lat="48.71773" lon="7.29243">
        <ele>371.1</ele>
        <time>2020-05-10T15:28:46Z</time>
      </trkpt>
      <trkpt lat="48.71772" lon="7.29266">
        <ele>369.4</ele>
        <time>2020-05-10T15:28:48Z</time>
      </trkpt>
      <trkpt lat="48.7177" lon="7.29286">
        <ele>367.8</ele>
        <time>2020-05-10T15:28:49Z</time>
      </trkpt>
      <trkpt lat="48.71762" lon="7.29307">
        <ele>365.8</ele>
        <time>2020-05-10T15:28:51Z</time>
      </trkpt>
      <trkpt lat="48.71757" lon="7.29317">
        <ele>364.9</ele>
        <time>2020-05-10T15:28:52Z</time>
      </trkpt>
      <trkpt lat="48.71747" lon="7.29335">
        <ele>363.1</ele>
        <time>2020-05-10T15:28:54Z</time>
      </trkpt>
      <trkpt lat="48.7174" lon="7.29358">
        <ele>361.3</ele>
        <time>2020-05-10T15:28:56Z</time>
      </trkpt>
      <trkpt lat="48.71735" lon="7.29381">
        <ele>359.5</ele>
        <time>2020-05-10T15:28:58Z</time>
      </trkpt>
      <trkpt lat="48.71732" lon="7.29405">
        <ele>357.8</ele>
        <time>2020-05-10T15:29:00Z</time>
      </trkpt>
      <trkpt lat="48.71731" lon="7.29421">
        <ele>356.6</ele>
        <time>2020-05-10T15:29:02Z</time>
      </trkpt>
      <trkpt lat="48.71734" lon="7.29442">
        <ele>354.9</ele>
        <time>2020-05-10T15:29:03Z</time>
      </trkpt>
      <trkpt lat="48.71737" lon="7.29467">
        <ele>353</ele>
        <time>2020-05-10T15:29:05Z</time>
      </trkpt>
      <trkpt lat="48.71742" lon="7.29492">
        <ele>351.1</ele>
        <time>2020-05-10T15:29:07Z</time>
      </trkpt>
      <trkpt lat="48.71746" lon="7.29504">
        <ele>350.1</ele>
        <time>2020-05-10T15:29:08Z</time>
      </trkpt>
      <trkpt lat="48.71751" lon="7.29515">
        <ele>349.1</ele>
        <time>2020-05-10T15:29:09Z</time>
      </trkpt>
      <trkpt lat="48.71757" lon="7.29528">
        <ele>348</ele>
        <time>2020-05-10T15:29:10Z</time>
      </trkpt>
      <trkpt lat="48.71763" lon="7.2954">
        <ele>347</ele>
        <time>2020-05-10T15:29:12Z</time>
      </trkpt>
      <trkpt lat="48.71775" lon="7.29559">
        <ele>344.9</ele>
        <time>2020-05-10T15:29:14Z</time>
      </trkpt>
      <trkpt lat="48.71789" lon="7.29578">
        <ele>342.8</ele>
        <time>2020-05-10T15:29:15Z</time>
      </trkpt>
      <trkpt lat="48.71794" lon="7.29586">
        <ele>342</ele>
        <time>2020-05-10T15:29:16Z</time>
      </trkpt>
      <trkpt lat="48.7181" lon="7.29606">
        <ele>339.6</ele>
        <time>2020-05-10T15:29:19Z</time>
      </trkpt>
      <trkpt lat="48.71819" lon="7.29621">
        <ele>337.9</ele>
        <time>2020-05-10T15:29:21Z</time>
      </trkpt>
      <trkpt lat="48.71829" lon="7.29638">
        <ele>336.1</ele>
        <time>2020-05-10T15:29:23Z</time>
      </trkpt>
      <trkpt lat="48.7184" lon="7.29657">
        <ele>334.4</ele>
        <time>2020-05-10T15:29:24Z</time>
      </trkpt>
      <trkpt lat="48.71851" lon="7.29678">
        <ele>332.5</ele>
        <time>2020-05-10T15:29:26Z</time>
      </trkpt>
      <trkpt lat="48.71856" lon="7.29689">
        <ele>331.5</ele>
        <time>2020-05-10T15:29:27Z</time>
      </trkpt>
      <trkpt lat="48.71867" lon="7.29712">
        <ele>329.6</ele>
        <time>2020-05-10T15:29:29Z</time>
      </trkpt>
      <trkpt lat="48.71879" lon="7.29735">
        <ele>327.5</ele>
        <time>2020-05-10T15:29:31Z</time>
      </trkpt>
      <trkpt lat="48.71892" lon="7.29759">
        <ele>325.6</ele>
        <time>2020-05-10T15:29:33Z</time>
      </trkpt>
      <trkpt lat="48.71898" lon="7.2977">
        <ele>324.8</ele>
        <time>2020-05-10T15:29:35Z</time>
      </trkpt>
      <trkpt lat="48.71905" lon="7.29781">
        <ele>324</ele>
        <time>2020-05-10T15:29:36Z</time>
      </trkpt>
      <trkpt lat="48.7191" lon="7.29792">
        <ele>323.4</ele>
        <time>2020-05-10T15:29:37Z</time>
      </trkpt>
      <trkpt lat="48.71921" lon="7.29814">
        <ele>322.1</ele>
        <time>2020-05-10T15:29:38Z</time>
      </trkpt>
      <trkpt lat="48.71928" lon="7.29826">
        <ele>321.2</ele>
        <time>2020-05-10T15:29:39Z</time>
      </trkpt>
      <trkpt lat="48.7194" lon="7.29849">
        <ele>319.2</ele>
        <time>2020-05-10T15:29:41Z</time>
      </trkpt>
      <trkpt lat="48.71945" lon="7.2986">
        <ele>318.3</ele>
        <time>2020-05-10T15:29:42Z</time>
      </trkpt>
      <trkpt lat="48.71957" lon="7.29884">
        <ele>316.3</ele>
        <time>2020-05-10T15:29:44Z</time>
      </trkpt>
      <trkpt lat="48.71962" lon="7.29895">
        <ele>315.4</ele>
        <time>2020-05-10T15:29:45Z</time>
      </trkpt>
      <trkpt lat="48.71972" lon="7.29917">
        <ele>313.6</ele>
        <time>2020-05-10T15:29:47Z</time>
      </trkpt>
      <trkpt lat="48.71977" lon="7.29927">
        <ele>312.9</ele>
        <time>2020-05-10T15:29:48Z</time>
      </trkpt>
      <trkpt lat="48.71986" lon="7.29947">
        <ele>311.5</ele>
        <time>2020-05-10T15:29:50Z</time>
      </trkpt>
      <trkpt lat="48.71992" lon="7.29958">
        <ele>310.7</ele>
        <time>2020-05-10T15:29:51Z</time>
      </trkpt>
      <trkpt lat="48.72" lon="7.29977">
        <ele>309.3</ele>
        <time>2020-05-10T15:29:53Z</time>
      </trkpt>
      <trkpt lat="48.72005" lon="7.29988">
        <ele>308.6</ele>
        <time>2020-05-10T15:29:54Z</time>
      </trkpt>
      <trkpt lat="48.72013" lon="7.30009">
        <ele>307</ele>
        <time>2020-05-10T15:29:56Z</time>
      </trkpt>
      <trkpt lat="48.7202" lon="7.30021">
        <ele>306</ele>
        <time>2020-05-10T15:29:58Z</time>
      </trkpt>
      <trkpt lat="48.72029" lon="7.30043">
        <ele>304.2</ele>
        <time>2020-05-10T15:29:59Z</time>
      </trkpt>
      <trkpt lat="48.72037" lon="7.30067">
        <ele>302.2</ele>
        <time>2020-05-10T15:30:01Z</time>
      </trkpt>
      <trkpt lat="48.72042" lon="7.30078">
        <ele>301.1</ele>
        <time>2020-05-10T15:30:02Z</time>
      </trkpt>
      <trkpt lat="48.72048" lon="7.301">
        <ele>299.2</ele>
        <time>2020-05-10T15:30:04Z</time>
      </trkpt>
      <trkpt lat="48.72052" lon="7.30112">
        <ele>298</ele>
        <time>2020-05-10T15:30:05Z</time>
      </trkpt>
      <trkpt lat="48.72061" lon="7.30136">
        <ele>295.6</ele>
        <time>2020-05-10T15:30:07Z</time>
      </trkpt>
      <trkpt lat="48.7207" lon="7.30159">
        <ele>293.3</ele>
        <time>2020-05-10T15:30:09Z</time>
      </trkpt>
      <trkpt lat="48.72073" lon="7.30171">
        <ele>292.2</ele>
        <time>2020-05-10T15:30:10Z</time>
      </trkpt>
      <trkpt lat="48.72079" lon="7.30193">
        <ele>290.2</ele>
        <time>2020-05-10T15:30:12Z</time>
      </trkpt>
      <trkpt lat="48.72082" lon="7.30205">
        <ele>289.2</ele>
        <time>2020-05-10T15:30:13Z</time>
      </trkpt>
      <trkpt lat="48.72082" lon="7.30228">
        <ele>287.4</ele>
        <time>2020-05-10T15:30:15Z</time>
      </trkpt>
      <trkpt lat="48.72078" lon="7.3025">
        <ele>285.8</ele>
        <time>2020-05-10T15:30:17Z</time>
      </trkpt>
      <trkpt lat="48.72075" lon="7.30259">
        <ele>285.3</ele>
        <time>2020-05-10T15:30:18Z</time>
      </trkpt>
      <trkpt lat="48.72068" lon="7.30276">
        <ele>284.9</ele>
        <time>2020-05-10T15:30:20Z</time>
      </trkpt>
      <trkpt lat="48.72057" lon="7.30294">
        <ele>284.3</ele>
        <time>2020-05-10T15:30:22Z</time>
      </trkpt>
      <trkpt lat="48.7205" lon="7.30301">
        <ele>284</ele>
        <time>2020-05-10T15:30:23Z</time>
      </trkpt>
      <trkpt lat="48.72042" lon="7.30307">
        <ele>283.7</ele>
        <time>2020-05-10T15:30:24Z</time>
      </trkpt>
      <trkpt lat="48.72034" lon="7.30315">
        <ele>283.4</ele>
        <time>2020-05-10T15:30:25Z</time>
      </trkpt>
      <trkpt lat="48.72026" lon="7.3032">
        <ele>283</ele>
        <time>2020-05-10T15:30:26Z</time>
      </trkpt>
      <trkpt lat="48.72019" lon="7.30326">
        <ele>282.7</ele>
        <time>2020-05-10T15:30:27Z</time>
      </trkpt>
      <trkpt lat="48.72006" lon="7.30336">
        <ele>282.1</ele>
        <time>2020-05-10T15:30:29Z</time>
      </trkpt>
      <trkpt lat="48.71995" lon="7.30345">
        <ele>281.3</ele>
        <time>2020-05-10T15:30:31Z</time>
      </trkpt>
      <trkpt lat="48.71987" lon="7.30349">
        <ele>280.7</ele>
        <time>2020-05-10T15:30:32Z</time>
      </trkpt>
      <trkpt lat="48.7197" lon="7.30354">
        <ele>279.6</ele>
        <time>2020-05-10T15:30:34Z</time>
      </trkpt>
      <trkpt lat="48.71962" lon="7.30357">
        <ele>279.1</ele>
        <time>2020-05-10T15:30:35Z</time>
      </trkpt>
      <trkpt lat="48.71953" lon="7.3036">
        <ele>278.8</ele>
        <time>2020-05-10T15:30:36Z</time>
      </trkpt>
      <trkpt lat="48.71936" lon="7.30361">
        <ele>278.5</ele>
        <time>2020-05-10T15:30:38Z</time>
      </trkpt>
      <trkpt lat="48.71928" lon="7.30362">
        <ele>278</ele>
        <time>2020-05-10T15:30:39Z</time>
      </trkpt>
      <trkpt lat="48.7192" lon="7.30364">
        <ele>277.5</ele>
        <time>2020-05-10T15:30:40Z</time>
      </trkpt>
      <trkpt lat="48.71911" lon="7.30366">
        <ele>277</ele>
        <time>2020-05-10T15:30:41Z</time>
      </trkpt>
      <trkpt lat="48.71903" lon="7.30368">
        <ele>276.5</ele>
        <time>2020-05-10T15:30:42Z</time>
      </trkpt>
      <trkpt lat="48.71888" lon="7.30377">
        <ele>275.6</ele>
        <time>2020-05-10T15:30:44Z</time>
      </trkpt>
      <trkpt lat="48.71873" lon="7.30389">
        <ele>274.8</ele>
        <time>2020-05-10T15:30:46Z</time>
      </trkpt>
      <trkpt lat="48.71859" lon="7.30401">
        <ele>274.1</ele>
        <time>2020-05-10T15:30:48Z</time>
      </trkpt>
    </trkseg>
  </trk>
  <trk>
    <name><![CDATA[secteur Saverne - Dabo - Petite Pierre_41]]></name>
    <trkseg>
      <trkpt lat="48.67561" lon="7.25967">
        <ele>462.7</ele>
        <time>2020-05-10T15:01:15Z</time>
      </trkpt>
      <trkpt lat="48.67561" lon="7.25967">
        <ele>462.7</ele>
        <time>2020-05-10T15:01:15Z</time>
      </trkpt>
      <trkpt lat="48.67561" lon="7.25967">
        <ele>462.7</ele>
        <time>2020-05-10T15:01:15Z</time>
      </trkpt>
      <trkpt lat="48.67561" lon="7.25967">
        <ele>462.7</ele>
        <time>2020-05-10T15:01:15Z</time>
      </trkpt>
      <trkpt lat="48.67561" lon="7.25967">
        <ele>462.7</ele>
        <time>2020-05-10T15:01:15Z</time>
      </trkpt>
      <trkpt lat="48.67562" lon="7.25964">
        <ele>462.8</ele>
        <time>2020-05-10T15:01:16Z</time>
      </trkpt>
      <trkpt lat="48.67563" lon="7.25953">
        <ele>463</ele>
        <time>2020-05-10T15:01:18Z</time>
      </trkpt>
      <trkpt lat="48.67563" lon="7.2594">
        <ele>463.2</ele>
        <time>2020-05-10T15:01:20Z</time>
      </trkpt>
      <trkpt lat="48.67564" lon="7.25935">
        <ele>463.2</ele>
        <time>2020-05-10T15:01:21Z</time>
      </trkpt>
      <trkpt lat="48.67565" lon="7.25924">
        <ele>463.3</ele>
        <time>2020-05-10T15:01:23Z</time>
      </trkpt>
      <trkpt lat="48.67566" lon="7.25918">
        <ele>463.3</ele>
        <time>2020-05-10T15:01:24Z</time>
      </trkpt>
      <trkpt lat="48.67569" lon="7.25908">
        <ele>463.3</ele>
        <time>2020-05-10T15:01:26Z</time>
      </trkpt>
      <trkpt lat="48.67573" lon="7.25896">
        <ele>463.4</ele>
        <time>2020-05-10T15:01:28Z</time>
      </trkpt>
      <trkpt lat="48.67576" lon="7.2589">
        <ele>463.5</ele>
        <time>2020-05-10T15:01:29Z</time>
      </trkpt>
      <trkpt lat="48.6758" lon="7.25884">
        <ele>463.7</ele>
        <time>2020-05-10T15:01:30Z</time>
      </trkpt>
      <trkpt lat="48.67584" lon="7.25881">
        <ele>464.4</ele>
        <time>2020-05-10T15:01:31Z</time>
      </trkpt>
      <trkpt lat="48.6759" lon="7.2588">
        <ele>464.6</ele>
        <time>2020-05-10T15:01:32Z</time>
      </trkpt>
      <trkpt lat="48.676" lon="7.25878">
        <ele>465</ele>
        <time>2020-05-10T15:01:34Z</time>
      </trkpt>
      <trkpt lat="48.67605" lon="7.25877">
        <ele>465.3</ele>
        <time>2020-05-10T15:01:35Z</time>
      </trkpt>
      <trkpt lat="48.67614" lon="7.25877">
        <ele>465.6</ele>
        <time>2020-05-10T15:01:37Z</time>
      </trkpt>
      <trkpt lat="48.67618" lon="7.25879">
        <ele>465.8</ele>
        <time>2020-05-10T15:01:38Z</time>
      </trkpt>
      <trkpt lat="48.67624" lon="7.25882">
        <ele>466.7</ele>
        <time>2020-05-10T15:01:40Z</time>
      </trkpt>
      <trkpt lat="48.67628" lon="7.25888">
        <ele>467.2</ele>
        <time>2020-05-10T15:01:42Z</time>
      </trkpt>
      <trkpt lat="48.67629" lon="7.25889">
        <ele>467.3</ele>
        <time>2020-05-10T15:01:43Z</time>
      </trkpt>
      <trkpt lat="48.67629" lon="7.25889">
        <ele>467.3</ele>
        <time>2020-05-10T15:01:44Z</time>
      </trkpt>
      <trkpt lat="48.67629" lon="7.25888">
        <ele>467.4</ele>
        <time>2020-05-10T15:01:46Z</time>
      </trkpt>
      <trkpt lat="48.67628" lon="7.25887">
        <ele>467.4</ele>
        <time>2020-05-10T15:01:47Z</time>
      </trkpt>
      <trkpt lat="48.67628" lon="7.25888">
        <ele>467.5</ele>
        <time>2020-05-10T15:01:48Z</time>
      </trkpt>
      <trkpt lat="48.67628" lon="7.25889">
        <ele>467.5</ele>
        <time>2020-05-10T15:01:50Z</time>
      </trkpt>
      <trkpt lat="48.67628" lon="7.25889">
        <ele>467.6</ele>
        <time>2020-05-10T15:01:51Z</time>
      </trkpt>
      <trkpt lat="48.67628" lon="7.25889">
        <ele>467.6</ele>
        <time>2020-05-10T15:01:52Z</time>
      </trkpt>
      <trkpt lat="48.67628" lon="7.25891">
        <ele>467.7</ele>
        <time>2020-05-10T15:01:54Z</time>
      </trkpt>
      <trkpt lat="48.67629" lon="7.25892">
        <ele>467.9</ele>
        <time>2020-05-10T15:01:55Z</time>
      </trkpt>
      <trkpt lat="48.6763" lon="7.25894">
        <ele>468</ele>
        <time>2020-05-10T15:01:57Z</time>
      </trkpt>
      <trkpt lat="48.67631" lon="7.25894">
        <ele>468.1</ele>
        <time>2020-05-10T15:01:58Z</time>
      </trkpt>
      <trkpt lat="48.67633" lon="7.25898">
        <ele>468.5</ele>
        <time>2020-05-10T15:02:00Z</time>
      </trkpt>
      <trkpt lat="48.67633" lon="7.259">
        <ele>468.6</ele>
        <time>2020-05-10T15:02:02Z</time>
      </trkpt>
      <trkpt lat="48.67633" lon="7.25904">
        <ele>468.9</ele>
        <time>2020-05-10T15:02:04Z</time>
      </trkpt>
      <trkpt lat="48.67633" lon="7.25906">
        <ele>469</ele>
        <time>2020-05-10T15:02:06Z</time>
      </trkpt>
      <trkpt lat="48.67633" lon="7.25906">
        <ele>469</ele>
        <time>2020-05-10T15:02:07Z</time>
      </trkpt>
      <trkpt lat="48.67633" lon="7.25906">
        <ele>469.1</ele>
        <time>2020-05-10T15:02:09Z</time>
      </trkpt>
      <trkpt lat="48.67633" lon="7.25907">
        <ele>469.2</ele>
        <time>2020-05-10T15:02:10Z</time>
      </trkpt>
      <trkpt lat="48.67634" lon="7.2591">
        <ele>469.4</ele>
        <time>2020-05-10T15:02:12Z</time>
      </trkpt>
      <trkpt lat="48.67634" lon="7.25912">
        <ele>469.5</ele>
        <time>2020-05-10T15:02:13Z</time>
      </trkpt>
      <trkpt lat="48.67634" lon="7.25913">
        <ele>469.6</ele>
        <time>2020-05-10T15:02:14Z</time>
      </trkpt>
      <trkpt lat="48.67635" lon="7.25915">
        <ele>469.8</ele>
        <time>2020-05-10T15:02:16Z</time>
      </trkpt>
      <trkpt lat="48.67635" lon="7.25916">
        <ele>469.9</ele>
        <time>2020-05-10T15:02:17Z</time>
      </trkpt>
      <trkpt lat="48.67636" lon="7.25919">
        <ele>470.1</ele>
        <time>2020-05-10T15:02:19Z</time>
      </trkpt>
      <trkpt lat="48.67637" lon="7.25921">
        <ele>470.3</ele>
        <time>2020-05-10T15:02:20Z</time>
      </trkpt>
      <trkpt lat="48.67638" lon="7.25923">
        <ele>470.5</ele>
        <time>2020-05-10T15:02:22Z</time>
      </trkpt>
      <trkpt lat="48.67639" lon="7.25926">
        <ele>470.7</ele>
        <time>2020-05-10T15:02:24Z</time>
      </trkpt>
      <trkpt lat="48.67639" lon="7.2593">
        <ele>470.9</ele>
        <time>2020-05-10T15:02:26Z</time>
      </trkpt>
      <trkpt lat="48.67639" lon="7.25931">
        <ele>471</ele>
        <time>2020-05-10T15:02:27Z</time>
      </trkpt>
      <trkpt lat="48.67639" lon="7.25934">
        <ele>471.2</ele>
        <time>2020-05-10T15:02:29Z</time>
      </trkpt>
      <trkpt lat="48.6764" lon="7.25939">
        <ele>471.6</ele>
        <time>2020-05-10T15:02:31Z</time>
      </trkpt>
      <trkpt lat="48.6764" lon="7.25941">
        <ele>471.7</ele>
        <time>2020-05-10T15:02:32Z</time>
      </trkpt>
      <trkpt lat="48.67641" lon="7.25943">
        <ele>471.8</ele>
        <time>2020-05-10T15:02:34Z</time>
      </trkpt>
      <trkpt lat="48.67642" lon="7.25946">
        <ele>472</ele>
        <time>2020-05-10T15:02:35Z</time>
      </trkpt>
      <trkpt lat="48.67643" lon="7.25951">
        <ele>472.4</ele>
        <time>2020-05-10T15:02:37Z</time>
      </trkpt>
      <trkpt lat="48.67646" lon="7.2596">
        <ele>473</ele>
        <time>2020-05-10T15:02:39Z</time>
      </trkpt>
      <trkpt lat="48.67648" lon="7.25963">
        <ele>473.2</ele>
        <time>2020-05-10T15:02:40Z</time>
      </trkpt>
      <trkpt lat="48.67651" lon="7.25968">
        <ele>473.6</ele>
        <time>2020-05-10T15:02:42Z</time>
      </trkpt>
      <trkpt lat="48.67653" lon="7.25972">
        <ele>473.8</ele>
        <time>2020-05-10T15:02:43Z</time>
      </trkpt>
      <trkpt lat="48.67654" lon="7.25973">
        <ele>473.9</ele>
        <time>2020-05-10T15:02:44Z</time>
      </trkpt>
      <trkpt lat="48.67658" lon="7.25975">
        <ele>474.3</ele>
        <time>2020-05-10T15:02:46Z</time>
      </trkpt>
      <trkpt lat="48.67661" lon="7.25976">
        <ele>474.4</ele>
        <time>2020-05-10T15:02:47Z</time>
      </trkpt>
      <trkpt lat="48.67664" lon="7.25975">
        <ele>474.7</ele>
        <time>2020-05-10T15:02:49Z</time>
      </trkpt>
      <trkpt lat="48.67667" lon="7.25974">
        <ele>474.8</ele>
        <time>2020-05-10T15:02:50Z</time>
      </trkpt>
      <trkpt lat="48.67669" lon="7.25974">
        <ele>474.9</ele>
        <time>2020-05-10T15:02:52Z</time>
      </trkpt>
      <trkpt lat="48.67674" lon="7.25974">
        <ele>475.2</ele>
        <time>2020-05-10T15:02:53Z</time>
      </trkpt>
      <trkpt lat="48.67677" lon="7.25974">
        <ele>475.3</ele>
        <time>2020-05-10T15:02:54Z</time>
      </trkpt>
      <trkpt lat="48.67681" lon="7.25972">
        <ele>475.6</ele>
        <time>2020-05-10T15:02:56Z</time>
      </trkpt>
      <trkpt lat="48.67685" lon="7.2597">
        <ele>475.9</ele>
        <time>2020-05-10T15:02:58Z</time>
      </trkpt>
      <trkpt lat="48.67689" lon="7.25969">
        <ele>476.2</ele>
        <time>2020-05-10T15:03:00Z</time>
      </trkpt>
      <trkpt lat="48.6769" lon="7.25969">
        <ele>476.3</ele>
        <time>2020-05-10T15:03:01Z</time>
      </trkpt>
      <trkpt lat="48.67693" lon="7.25967">
        <ele>476.5</ele>
        <time>2020-05-10T15:03:03Z</time>
      </trkpt>
      <trkpt lat="48.67694" lon="7.25966">
        <ele>476.6</ele>
        <time>2020-05-10T15:03:04Z</time>
      </trkpt>
      <trkpt lat="48.67696" lon="7.25965">
        <ele>476.7</ele>
        <time>2020-05-10T15:03:06Z</time>
      </trkpt>
      <trkpt lat="48.67695" lon="7.25964">
        <ele>476.8</ele>
        <time>2020-05-10T15:03:08Z</time>
      </trkpt>
      <trkpt lat="48.67695" lon="7.25964">
        <ele>476.8</ele>
        <time>2020-05-10T15:03:09Z</time>
      </trkpt>
      <trkpt lat="48.67695" lon="7.25964">
        <ele>476.8</ele>
        <time>2020-05-10T15:03:11Z</time>
      </trkpt>
      <trkpt lat="48.67695" lon="7.25964">
        <ele>476.8</ele>
        <time>2020-05-10T15:03:12Z</time>
      </trkpt>
      <trkpt lat="48.67696" lon="7.25965">
        <ele>476.9</ele>
        <time>2020-05-10T15:03:13Z</time>
      </trkpt>
      <trkpt lat="48.67696" lon="7.25966">
        <ele>476.9</ele>
        <time>2020-05-10T15:03:14Z</time>
      </trkpt>
      <trkpt lat="48.67697" lon="7.25969">
        <ele>477</ele>
        <time>2020-05-10T15:03:16Z</time>
      </trkpt>
      <trkpt lat="48.67698" lon="7.25969">
        <ele>477.1</ele>
        <time>2020-05-10T15:03:17Z</time>
      </trkpt>
      <trkpt lat="48.677" lon="7.25971">
        <ele>477.1</ele>
        <time>2020-05-10T15:03:19Z</time>
      </trkpt>
      <trkpt lat="48.67701" lon="7.25971">
        <ele>477.2</ele>
        <time>2020-05-10T15:03:20Z</time>
      </trkpt>
      <trkpt lat="48.67703" lon="7.25973">
        <ele>477.3</ele>
        <time>2020-05-10T15:03:22Z</time>
      </trkpt>
      <trkpt lat="48.67707" lon="7.25975">
        <ele>477.4</ele>
        <time>2020-05-10T15:03:24Z</time>
      </trkpt>
      <trkpt lat="48.6771" lon="7.25978">
        <ele>477.4</ele>
        <time>2020-05-10T15:03:26Z</time>
      </trkpt>
      <trkpt lat="48.67713" lon="7.25979">
        <ele>477.5</ele>
        <time>2020-05-10T15:03:28Z</time>
      </trkpt>
      <trkpt lat="48.67716" lon="7.2598">
        <ele>477.5</ele>
        <time>2020-05-10T15:03:30Z</time>
      </trkpt>
      <trkpt lat="48.67718" lon="7.2598">
        <ele>477.6</ele>
        <time>2020-05-10T15:03:32Z</time>
      </trkpt>
      <trkpt lat="48.67719" lon="7.2598">
        <ele>477.6</ele>
        <time>2020-05-10T15:03:33Z</time>
      </trkpt>
      <trkpt lat="48.6772" lon="7.2598">
        <ele>477.6</ele>
        <time>2020-05-10T15:03:35Z</time>
      </trkpt>
      <trkpt lat="48.6772" lon="7.2598">
        <ele>477.6</ele>
        <time>2020-05-10T15:03:36Z</time>
      </trkpt>
      <trkpt lat="48.67721" lon="7.25981">
        <ele>477.6</ele>
        <time>2020-05-10T15:03:38Z</time>
      </trkpt>
      <trkpt lat="48.67721" lon="7.25981">
        <ele>477.6</ele>
        <time>2020-05-10T15:03:39Z</time>
      </trkpt>
      <trkpt lat="48.67722" lon="7.25981">
        <ele>477.6</ele>
        <time>2020-05-10T15:03:40Z</time>
      </trkpt>
      <trkpt lat="48.67725" lon="7.25985">
        <ele>477.6</ele>
        <time>2020-05-10T15:03:42Z</time>
      </trkpt>
      <trkpt lat="48.67728" lon="7.25988">
        <ele>477.7</ele>
        <time>2020-05-10T15:03:44Z</time>
      </trkpt>
      <trkpt lat="48.67732" lon="7.25992">
        <ele>477.8</ele>
        <time>2020-05-10T15:03:46Z</time>
      </trkpt>
      <trkpt lat="48.67735" lon="7.25994">
        <ele>477.9</ele>
        <time>2020-05-10T15:03:47Z</time>
      </trkpt>
      <trkpt lat="48.67736" lon="7.25994">
        <ele>477.9</ele>
        <time>2020-05-10T15:03:48Z</time>
      </trkpt>
      <trkpt lat="48.67741" lon="7.25998">
        <ele>478.1</ele>
        <time>2020-05-10T15:03:50Z</time>
      </trkpt>
      <trkpt lat="48.67744" lon="7.26002">
        <ele>478.3</ele>
        <time>2020-05-10T15:03:52Z</time>
      </trkpt>
      <trkpt lat="48.67746" lon="7.26004">
        <ele>478.5</ele>
        <time>2020-05-10T15:03:53Z</time>
      </trkpt>
      <trkpt lat="48.67751" lon="7.26006">
        <ele>478.8</ele>
        <time>2020-05-10T15:03:55Z</time>
      </trkpt>
      <trkpt lat="48.67754" lon="7.26007">
        <ele>479</ele>
        <time>2020-05-10T15:03:56Z</time>
      </trkpt>
      <trkpt lat="48.67759" lon="7.26008">
        <ele>479.3</ele>
        <time>2020-05-10T15:03:58Z</time>
      </trkpt>
      <trkpt lat="48.67762" lon="7.2601">
        <ele>479.6</ele>
        <time>2020-05-10T15:03:59Z</time>
      </trkpt>
      <trkpt lat="48.67764" lon="7.26011">
        <ele>479.7</ele>
        <time>2020-05-10T15:04:00Z</time>
      </trkpt>
      <trkpt lat="48.67769" lon="7.26014">
        <ele>480</ele>
        <time>2020-05-10T15:04:02Z</time>
      </trkpt>
      <trkpt lat="48.67774" lon="7.26018">
        <ele>480.2</ele>
        <time>2020-05-10T15:04:04Z</time>
      </trkpt>
      <trkpt lat="48.67778" lon="7.26019">
        <ele>480.4</ele>
        <time>2020-05-10T15:04:06Z</time>
      </trkpt>
      <trkpt lat="48.67781" lon="7.2602">
        <ele>480.4</ele>
        <time>2020-05-10T15:04:07Z</time>
      </trkpt>
      <trkpt lat="48.67786" lon="7.2602">
        <ele>480.5</ele>
        <time>2020-05-10T15:04:09Z</time>
      </trkpt>
      <trkpt lat="48.67787" lon="7.2602">
        <ele>480.6</ele>
        <time>2020-05-10T15:04:10Z</time>
      </trkpt>
      <trkpt lat="48.67791" lon="7.26021">
        <ele>480.7</ele>
        <time>2020-05-10T15:04:12Z</time>
      </trkpt>
      <trkpt lat="48.67796" lon="7.26022">
        <ele>480.8</ele>
        <time>2020-05-10T15:04:13Z</time>
      </trkpt>
      <trkpt lat="48.67797" lon="7.26023">
        <ele>480.8</ele>
        <time>2020-05-10T15:04:14Z</time>
      </trkpt>
      <trkpt lat="48.67802" lon="7.26025">
        <ele>480.9</ele>
        <time>2020-05-10T15:04:16Z</time>
      </trkpt>
      <trkpt lat="48.67806" lon="7.26026">
        <ele>481</ele>
        <time>2020-05-10T15:04:18Z</time>
      </trkpt>
      <trkpt lat="48.67811" lon="7.26028">
        <ele>481.1</ele>
        <time>2020-05-10T15:04:20Z</time>
      </trkpt>
      <trkpt lat="48.67814" lon="7.26028">
        <ele>481.1</ele>
        <time>2020-05-10T15:04:21Z</time>
      </trkpt>
      <trkpt lat="48.67819" lon="7.26028">
        <ele>481.2</ele>
        <time>2020-05-10T15:04:23Z</time>
      </trkpt>
      <trkpt lat="48.67822" lon="7.26029">
        <ele>481.2</ele>
        <time>2020-05-10T15:04:24Z</time>
      </trkpt>
      <trkpt lat="48.67829" lon="7.26029">
        <ele>481.2</ele>
        <time>2020-05-10T15:04:26Z</time>
      </trkpt>
      <trkpt lat="48.67835" lon="7.26029">
        <ele>481.2</ele>
        <time>2020-05-10T15:04:28Z</time>
      </trkpt>
      <trkpt lat="48.67839" lon="7.26028">
        <ele>481.2</ele>
        <time>2020-05-10T15:04:29Z</time>
      </trkpt>
      <trkpt lat="48.6784" lon="7.26028">
        <ele>481.2</ele>
        <time>2020-05-10T15:04:30Z</time>
      </trkpt>
      <trkpt lat="48.67845" lon="7.26027">
        <ele>481.2</ele>
        <time>2020-05-10T15:04:32Z</time>
      </trkpt>
      <trkpt lat="48.67848" lon="7.26027">
        <ele>481.2</ele>
        <time>2020-05-10T15:04:33Z</time>
      </trkpt>
      <trkpt lat="48.67854" lon="7.26024">
        <ele>481.1</ele>
        <time>2020-05-10T15:04:35Z</time>
      </trkpt>
      <trkpt lat="48.67863" lon="7.26021">
        <ele>480.9</ele>
        <time>2020-05-10T15:04:37Z</time>
      </trkpt>
      <trkpt lat="48.67871" lon="7.2602">
        <ele>480.6</ele>
        <time>2020-05-10T15:04:39Z</time>
      </trkpt>
      <trkpt lat="48.67879" lon="7.26018">
        <ele>480</ele>
        <time>2020-05-10T15:04:41Z</time>
      </trkpt>
      <trkpt lat="48.67883" lon="7.26016">
        <ele>479.7</ele>
        <time>2020-05-10T15:04:42Z</time>
      </trkpt>
      <trkpt lat="48.67886" lon="7.26016">
        <ele>479.5</ele>
        <time>2020-05-10T15:04:43Z</time>
      </trkpt>
      <trkpt lat="48.67888" lon="7.26015">
        <ele>479.3</ele>
        <time>2020-05-10T15:04:44Z</time>
      </trkpt>
      <trkpt lat="48.67894" lon="7.26015">
        <ele>478.9</ele>
        <time>2020-05-10T15:04:46Z</time>
      </trkpt>
      <trkpt lat="48.679" lon="7.26013">
        <ele>478.5</ele>
        <time>2020-05-10T15:04:48Z</time>
      </trkpt>
      <trkpt lat="48.67908" lon="7.26009">
        <ele>478.1</ele>
        <time>2020-05-10T15:04:50Z</time>
      </trkpt>
      <trkpt lat="48.67915" lon="7.26002">
        <ele>477.8</ele>
        <time>2020-05-10T15:04:52Z</time>
      </trkpt>
      <trkpt lat="48.67923" lon="7.25995">
        <ele>477.4</ele>
        <time>2020-05-10T15:04:54Z</time>
      </trkpt>
      <trkpt lat="48.67932" lon="7.25988">
        <ele>476.7</ele>
        <time>2020-05-10T15:04:56Z</time>
      </trkpt>
      <trkpt lat="48.67939" lon="7.25984">
        <ele>476.2</ele>
        <time>2020-05-10T15:04:57Z</time>
      </trkpt>
      <trkpt lat="48.67953" lon="7.25975">
        <ele>475.2</ele>
        <time>2020-05-10T15:04:59Z</time>
      </trkpt>
      <trkpt lat="48.67963" lon="7.25965">
        <ele>474.5</ele>
        <time>2020-05-10T15:05:01Z</time>
      </trkpt>
      <trkpt lat="48.67968" lon="7.2596">
        <ele>474.2</ele>
        <time>2020-05-10T15:05:02Z</time>
      </trkpt>
      <trkpt lat="48.67974" lon="7.25954">
        <ele>473.8</ele>
        <time>2020-05-10T15:05:03Z</time>
      </trkpt>
      <trkpt lat="48.67986" lon="7.25937">
        <ele>472.7</ele>
        <time>2020-05-10T15:05:05Z</time>
      </trkpt>
      <trkpt lat="48.67993" lon="7.25929">
        <ele>472</ele>
        <time>2020-05-10T15:05:06Z</time>
      </trkpt>
      <trkpt lat="48.68003" lon="7.25917">
        <ele>471.1</ele>
        <time>2020-05-10T15:05:08Z</time>
      </trkpt>
      <trkpt lat="48.68012" lon="7.25907">
        <ele>470.6</ele>
        <time>2020-05-10T15:05:10Z</time>
      </trkpt>
      <trkpt lat="48.68021" lon="7.259">
        <ele>470</ele>
        <time>2020-05-10T15:05:12Z</time>
      </trkpt>
      <trkpt lat="48.68027" lon="7.25891">
        <ele>469.5</ele>
        <time>2020-05-10T15:05:14Z</time>
      </trkpt>
      <trkpt lat="48.68038" lon="7.25883">
        <ele>468.4</ele>
        <time>2020-05-10T15:05:16Z</time>
      </trkpt>
      <trkpt lat="48.68044" lon="7.25876">
        <ele>467.8</ele>
        <time>2020-05-10T15:05:18Z</time>
      </trkpt>
      <trkpt lat="48.68049" lon="7.25871">
        <ele>467.4</ele>
        <time>2020-05-10T15:05:19Z</time>
      </trkpt>
      <trkpt lat="48.68055" lon="7.25867">
        <ele>466.9</ele>
        <time>2020-05-10T15:05:21Z</time>
      </trkpt>
      <trkpt lat="48.68058" lon="7.25863">
        <ele>466.7</ele>
        <time>2020-05-10T15:05:22Z</time>
      </trkpt>
      <trkpt lat="48.6806" lon="7.2586">
        <ele>466.5</ele>
        <time>2020-05-10T15:05:24Z</time>
      </trkpt>
      <trkpt lat="48.6806" lon="7.25858">
        <ele>466.5</ele>
        <time>2020-05-10T15:05:25Z</time>
      </trkpt>
      <trkpt lat="48.68062" lon="7.25856">
        <ele>466.3</ele>
        <time>2020-05-10T15:05:27Z</time>
      </trkpt>
      <trkpt lat="48.68063" lon="7.25853">
        <ele>466.2</ele>
        <time>2020-05-10T15:05:29Z</time>
      </trkpt>
      <trkpt lat="48.68064" lon="7.25853">
        <ele>466.2</ele>
        <time>2020-05-10T15:05:31Z</time>
      </trkpt>
      <trkpt lat="48.68064" lon="7.25854">
        <ele>466.2</ele>
        <time>2020-05-10T15:05:32Z</time>
      </trkpt>
      <trkpt lat="48.68062" lon="7.25855">
        <ele>466.1</ele>
        <time>2020-05-10T15:05:33Z</time>
      </trkpt>
      <trkpt lat="48.68062" lon="7.25856">
        <ele>466</ele>
        <time>2020-05-10T15:05:34Z</time>
      </trkpt>
      <trkpt lat="48.68065" lon="7.25858">
        <ele>465.9</ele>
        <time>2020-05-10T15:05:36Z</time>
      </trkpt>
      <trkpt lat="48.6807" lon="7.25853">
        <ele>465.7</ele>
        <time>2020-05-10T15:05:38Z</time>
      </trkpt>
      <trkpt lat="48.68077" lon="7.25848">
        <ele>465.7</ele>
        <time>2020-05-10T15:05:40Z</time>
      </trkpt>
      <trkpt lat="48.68088" lon="7.25845">
        <ele>465.9</ele>
        <time>2020-05-10T15:05:42Z</time>
      </trkpt>
      <trkpt lat="48.68096" lon="7.25845">
        <ele>466.4</ele>
        <time>2020-05-10T15:05:44Z</time>
      </trkpt>
      <trkpt lat="48.68098" lon="7.25846">
        <ele>466.6</ele>
        <time>2020-05-10T15:05:45Z</time>
      </trkpt>
      <trkpt lat="48.68103" lon="7.25846">
        <ele>466.9</ele>
        <time>2020-05-10T15:05:47Z</time>
      </trkpt>
      <trkpt lat="48.6811" lon="7.25846">
        <ele>467.1</ele>
        <time>2020-05-10T15:05:49Z</time>
      </trkpt>
      <trkpt lat="48.68114" lon="7.25843">
        <ele>468.1</ele>
        <time>2020-05-10T15:05:50Z</time>
      </trkpt>
      <trkpt lat="48.68117" lon="7.25841">
        <ele>468.2</ele>
        <time>2020-05-10T15:05:51Z</time>
      </trkpt>
      <trkpt lat="48.68124" lon="7.25837">
        <ele>469.2</ele>
        <time>2020-05-10T15:05:53Z</time>
      </trkpt>
      <trkpt lat="48.68129" lon="7.25835">
        <ele>470.2</ele>
        <time>2020-05-10T15:05:55Z</time>
      </trkpt>
      <trkpt lat="48.68131" lon="7.25835">
        <ele>470.4</ele>
        <time>2020-05-10T15:05:56Z</time>
      </trkpt>
      <trkpt lat="48.68136" lon="7.25836">
        <ele>469.8</ele>
        <time>2020-05-10T15:05:58Z</time>
      </trkpt>
      <trkpt lat="48.68139" lon="7.25836">
        <ele>470</ele>
        <time>2020-05-10T15:05:59Z</time>
      </trkpt>
      <trkpt lat="48.68144" lon="7.25833">
        <ele>471.2</ele>
        <time>2020-05-10T15:06:01Z</time>
      </trkpt>
      <trkpt lat="48.6815" lon="7.25829">
        <ele>472.4</ele>
        <time>2020-05-10T15:06:03Z</time>
      </trkpt>
      <trkpt lat="48.68156" lon="7.25825">
        <ele>473.6</ele>
        <time>2020-05-10T15:06:05Z</time>
      </trkpt>
      <trkpt lat="48.68163" lon="7.25818">
        <ele>475.4</ele>
        <time>2020-05-10T15:06:07Z</time>
      </trkpt>
      <trkpt lat="48.6817" lon="7.25814">
        <ele>476.4</ele>
        <time>2020-05-10T15:06:09Z</time>
      </trkpt>
      <trkpt lat="48.68174" lon="7.25811">
        <ele>476.5</ele>
        <time>2020-05-10T15:06:11Z</time>
      </trkpt>
      <trkpt lat="48.68176" lon="7.25811">
        <ele>476.5</ele>
        <time>2020-05-10T15:06:12Z</time>
      </trkpt>
      <trkpt lat="48.68181" lon="7.25809">
        <ele>477.2</ele>
        <time>2020-05-10T15:06:14Z</time>
      </trkpt>
      <trkpt lat="48.68185" lon="7.25806">
        <ele>477.9</ele>
        <time>2020-05-10T15:06:16Z</time>
      </trkpt>
      <trkpt lat="48.68187" lon="7.25803">
        <ele>477.8</ele>
        <time>2020-05-10T15:06:17Z</time>
      </trkpt>
      <trkpt lat="48.6819" lon="7.25799">
        <ele>478.4</ele>
        <time>2020-05-10T15:06:19Z</time>
      </trkpt>
      <trkpt lat="48.68192" lon="7.25798">
        <ele>478.2</ele>
        <time>2020-05-10T15:06:20Z</time>
      </trkpt>
      <trkpt lat="48.68197" lon="7.25796">
        <ele>478.8</ele>
        <time>2020-05-10T15:06:22Z</time>
      </trkpt>
      <trkpt lat="48.68203" lon="7.25794">
        <ele>478.2</ele>
        <time>2020-05-10T15:06:24Z</time>
      </trkpt>
      <trkpt lat="48.68206" lon="7.25793">
        <ele>477.8</ele>
        <time>2020-05-10T15:06:25Z</time>
      </trkpt>
      <trkpt lat="48.68212" lon="7.25791">
        <ele>477.4</ele>
        <time>2020-05-10T15:06:27Z</time>
      </trkpt>
      <trkpt lat="48.68215" lon="7.25789">
        <ele>476.9</ele>
        <time>2020-05-10T15:06:28Z</time>
      </trkpt>
      <trkpt lat="48.68221" lon="7.25786">
        <ele>476.5</ele>
        <time>2020-05-10T15:06:30Z</time>
      </trkpt>
      <trkpt lat="48.68225" lon="7.25784">
        <ele>476.8</ele>
        <time>2020-05-10T15:06:31Z</time>
      </trkpt>
      <trkpt lat="48.6823" lon="7.25784">
        <ele>475.6</ele>
        <time>2020-05-10T15:06:34Z</time>
      </trkpt>
      <trkpt lat="48.68233" lon="7.25781">
        <ele>475</ele>
        <time>2020-05-10T15:06:35Z</time>
      </trkpt>
      <trkpt lat="48.68235" lon="7.2578">
        <ele>475.1</ele>
        <time>2020-05-10T15:06:36Z</time>
      </trkpt>
      <trkpt lat="48.68239" lon="7.25782">
        <ele>473.9</ele>
        <time>2020-05-10T15:06:38Z</time>
      </trkpt>
      <trkpt lat="48.68243" lon="7.2578">
        <ele>474.4</ele>
        <time>2020-05-10T15:06:40Z</time>
      </trkpt>
      <trkpt lat="48.68247" lon="7.25779">
        <ele>473.1</ele>
        <time>2020-05-10T15:06:41Z</time>
      </trkpt>
      <trkpt lat="48.68255" lon="7.25779">
        <ele>471.1</ele>
        <time>2020-05-10T15:06:43Z</time>
      </trkpt>
      <trkpt lat="48.68262" lon="7.2578">
        <ele>468.9</ele>
        <time>2020-05-10T15:06:45Z</time>
      </trkpt>
      <trkpt lat="48.68266" lon="7.25782">
        <ele>467.9</ele>
        <time>2020-05-10T15:06:47Z</time>
      </trkpt>
      <trkpt lat="48.68272" lon="7.25781">
        <ele>466.8</ele>
        <time>2020-05-10T15:06:49Z</time>
      </trkpt>
      <trkpt lat="48.68281" lon="7.25778">
        <ele>466.1</ele>
        <time>2020-05-10T15:06:51Z</time>
      </trkpt>
      <trkpt lat="48.6829" lon="7.25777">
        <ele>464.4</ele>
        <time>2020-05-10T15:06:53Z</time>
      </trkpt>
      <trkpt lat="48.68294" lon="7.25777">
        <ele>463.9</ele>
        <time>2020-05-10T15:06:54Z</time>
      </trkpt>
      <trkpt lat="48.68303" lon="7.25777">
        <ele>461.3</ele>
        <time>2020-05-10T15:06:55Z</time>
      </trkpt>
      <trkpt lat="48.6831" lon="7.25776">
        <ele>459.9</ele>
        <time>2020-05-10T15:06:56Z</time>
      </trkpt>
      <trkpt lat="48.68314" lon="7.25775">
        <ele>460.5</ele>
        <time>2020-05-10T15:06:57Z</time>
      </trkpt>
      <trkpt lat="48.68317" lon="7.25774">
        <ele>459.3</ele>
        <time>2020-05-10T15:06:59Z</time>
      </trkpt>
      <trkpt lat="48.6832" lon="7.25773">
        <ele>459.3</ele>
        <time>2020-05-10T15:07:00Z</time>
      </trkpt>
      <trkpt lat="48.68322" lon="7.25771">
        <ele>459.9</ele>
        <time>2020-05-10T15:07:02Z</time>
      </trkpt>
      <trkpt lat="48.68323" lon="7.2577">
        <ele>459.3</ele>
        <time>2020-05-10T15:07:03Z</time>
      </trkpt>
      <trkpt lat="48.68324" lon="7.25771">
        <ele>459.4</ele>
        <time>2020-05-10T15:07:05Z</time>
      </trkpt>
      <trkpt lat="48.68324" lon="7.25771">
        <ele>459.4</ele>
        <time>2020-05-10T15:07:07Z</time>
      </trkpt>
      <trkpt lat="48.68325" lon="7.2577">
        <ele>459.4</ele>
        <time>2020-05-10T15:07:09Z</time>
      </trkpt>
      <trkpt lat="48.68325" lon="7.2577">
        <ele>459.5</ele>
        <time>2020-05-10T15:07:11Z</time>
      </trkpt>
      <trkpt lat="48.68325" lon="7.2577">
        <ele>459.5</ele>
        <time>2020-05-10T15:07:12Z</time>
      </trkpt>
      <trkpt lat="48.68325" lon="7.25771">
        <ele>459.5</ele>
        <time>2020-05-10T15:07:14Z</time>
      </trkpt>
      <trkpt lat="48.68325" lon="7.25771">
        <ele>459.5</ele>
        <time>2020-05-10T15:07:16Z</time>
      </trkpt>
      <trkpt lat="48.68325" lon="7.25771">
        <ele>459.6</ele>
        <time>2020-05-10T15:07:17Z</time>
      </trkpt>
      <trkpt lat="48.68326" lon="7.25772">
        <ele>457.9</ele>
        <time>2020-05-10T15:07:18Z</time>
      </trkpt>
      <trkpt lat="48.68326" lon="7.25771">
        <ele>459.1</ele>
        <time>2020-05-10T15:07:19Z</time>
      </trkpt>
      <trkpt lat="48.68326" lon="7.25771">
        <ele>459.1</ele>
        <time>2020-05-10T15:07:20Z</time>
      </trkpt>
      <trkpt lat="48.68326" lon="7.2577">
        <ele>459.1</ele>
        <time>2020-05-10T15:07:22Z</time>
      </trkpt>
      <trkpt lat="48.68326" lon="7.2577">
        <ele>459.1</ele>
        <time>2020-05-10T15:07:24Z</time>
      </trkpt>
      <trkpt lat="48.68327" lon="7.2577">
        <ele>459.2</ele>
        <time>2020-05-10T15:07:25Z</time>
      </trkpt>
      <trkpt lat="48.68327" lon="7.25771">
        <ele>459.2</ele>
        <time>2020-05-10T15:07:27Z</time>
      </trkpt>
      <trkpt lat="48.68328" lon="7.2577">
        <ele>459.2</ele>
        <time>2020-05-10T15:07:28Z</time>
      </trkpt>
      <trkpt lat="48.6833" lon="7.25769">
        <ele>458.7</ele>
        <time>2020-05-10T15:07:30Z</time>
      </trkpt>
      <trkpt lat="48.68331" lon="7.25768">
        <ele>458.7</ele>
        <time>2020-05-10T15:07:31Z</time>
      </trkpt>
      <trkpt lat="48.68332" lon="7.25768">
        <ele>458.2</ele>
        <time>2020-05-10T15:07:32Z</time>
      </trkpt>
      <trkpt lat="48.68334" lon="7.25768">
        <ele>458.2</ele>
        <time>2020-05-10T15:07:33Z</time>
      </trkpt>
      <trkpt lat="48.6834" lon="7.25766">
        <ele>457.6</ele>
        <time>2020-05-10T15:07:35Z</time>
      </trkpt>
      <trkpt lat="48.68345" lon="7.25764">
        <ele>457.1</ele>
        <time>2020-05-10T15:07:36Z</time>
      </trkpt>
      <trkpt lat="48.68349" lon="7.25762">
        <ele>457.3</ele>
        <time>2020-05-10T15:07:37Z</time>
      </trkpt>
      <trkpt lat="48.68353" lon="7.25761">
        <ele>456.8</ele>
        <time>2020-05-10T15:07:38Z</time>
      </trkpt>
      <trkpt lat="48.68355" lon="7.2576">
        <ele>456.4</ele>
        <time>2020-05-10T15:07:39Z</time>
      </trkpt>
      <trkpt lat="48.6836" lon="7.25761">
        <ele>455.4</ele>
        <time>2020-05-10T15:07:41Z</time>
      </trkpt>
      <trkpt lat="48.68364" lon="7.25761">
        <ele>454.9</ele>
        <time>2020-05-10T15:07:42Z</time>
      </trkpt>
      <trkpt lat="48.68373" lon="7.2576">
        <ele>453.4</ele>
        <time>2020-05-10T15:07:44Z</time>
      </trkpt>
      <trkpt lat="48.68381" lon="7.25761">
        <ele>452.2</ele>
        <time>2020-05-10T15:07:45Z</time>
      </trkpt>
      <trkpt lat="48.68395" lon="7.25759">
        <ele>450.1</ele>
        <time>2020-05-10T15:07:47Z</time>
      </trkpt>
      <trkpt lat="48.68402" lon="7.25757">
        <ele>450.4</ele>
        <time>2020-05-10T15:07:48Z</time>
      </trkpt>
      <trkpt lat="48.68407" lon="7.25752">
        <ele>450.8</ele>
        <time>2020-05-10T15:07:49Z</time>
      </trkpt>
      <trkpt lat="48.68415" lon="7.25741">
        <ele>453</ele>
        <time>2020-05-10T15:07:51Z</time>
      </trkpt>
      <trkpt lat="48.68421" lon="7.25732">
        <ele>453.5</ele>
        <time>2020-05-10T15:07:53Z</time>
      </trkpt>
      <trkpt lat="48.68427" lon="7.25727">
        <ele>454</ele>
        <time>2020-05-10T15:07:55Z</time>
      </trkpt>
      <trkpt lat="48.68431" lon="7.25726">
        <ele>454.2</ele>
        <time>2020-05-10T15:07:56Z</time>
      </trkpt>
      <trkpt lat="48.68434" lon="7.25723">
        <ele>454.4</ele>
        <time>2020-05-10T15:07:57Z</time>
      </trkpt>
      <trkpt lat="48.68437" lon="7.25722">
        <ele>454.6</ele>
        <time>2020-05-10T15:07:58Z</time>
      </trkpt>
      <trkpt lat="48.68442" lon="7.25719">
        <ele>454.9</ele>
        <time>2020-05-10T15:08:00Z</time>
      </trkpt>
      <trkpt lat="48.68446" lon="7.25719">
        <ele>455.1</ele>
        <time>2020-05-10T15:08:02Z</time>
      </trkpt>
      <trkpt lat="48.68448" lon="7.25718">
        <ele>455.3</ele>
        <time>2020-05-10T15:08:03Z</time>
      </trkpt>
      <trkpt lat="48.68453" lon="7.25715">
        <ele>455.6</ele>
        <time>2020-05-10T15:08:05Z</time>
      </trkpt>
      <trkpt lat="48.68455" lon="7.25713">
        <ele>455.8</ele>
        <time>2020-05-10T15:08:06Z</time>
      </trkpt>
      <trkpt lat="48.68458" lon="7.25711">
        <ele>456</ele>
        <time>2020-05-10T15:08:07Z</time>
      </trkpt>
      <trkpt lat="48.68459" lon="7.2571">
        <ele>456</ele>
        <time>2020-05-10T15:08:08Z</time>
      </trkpt>
      <trkpt lat="48.68463" lon="7.25707">
        <ele>456.3</ele>
        <time>2020-05-10T15:08:10Z</time>
      </trkpt>
      <trkpt lat="48.68465" lon="7.25705">
        <ele>456.4</ele>
        <time>2020-05-10T15:08:11Z</time>
      </trkpt>
      <trkpt lat="48.68469" lon="7.257">
        <ele>456.8</ele>
        <time>2020-05-10T15:08:13Z</time>
      </trkpt>
      <trkpt lat="48.68474" lon="7.25695">
        <ele>457.1</ele>
        <time>2020-05-10T15:08:15Z</time>
      </trkpt>
      <trkpt lat="48.68477" lon="7.25693">
        <ele>457.3</ele>
        <time>2020-05-10T15:08:16Z</time>
      </trkpt>
      <trkpt lat="48.68482" lon="7.25689">
        <ele>457.6</ele>
        <time>2020-05-10T15:08:18Z</time>
      </trkpt>
      <trkpt lat="48.68484" lon="7.25687">
        <ele>457.8</ele>
        <time>2020-05-10T15:08:19Z</time>
      </trkpt>
      <trkpt lat="48.68489" lon="7.25683">
        <ele>458.2</ele>
        <time>2020-05-10T15:08:21Z</time>
      </trkpt>
      <trkpt lat="48.68494" lon="7.25681">
        <ele>458.5</ele>
        <time>2020-05-10T15:08:23Z</time>
      </trkpt>
      <trkpt lat="48.68496" lon="7.2568">
        <ele>458.6</ele>
        <time>2020-05-10T15:08:24Z</time>
      </trkpt>
      <trkpt lat="48.685" lon="7.25677">
        <ele>458.9</ele>
        <time>2020-05-10T15:08:26Z</time>
      </trkpt>
      <trkpt lat="48.68504" lon="7.25673">
        <ele>459.2</ele>
        <time>2020-05-10T15:08:28Z</time>
      </trkpt>
      <trkpt lat="48.68508" lon="7.25669">
        <ele>459.5</ele>
        <time>2020-05-10T15:08:30Z</time>
      </trkpt>
      <trkpt lat="48.6851" lon="7.25667">
        <ele>459.6</ele>
        <time>2020-05-10T15:08:31Z</time>
      </trkpt>
      <trkpt lat="48.68516" lon="7.25663">
        <ele>460</ele>
        <time>2020-05-10T15:08:33Z</time>
      </trkpt>
      <trkpt lat="48.68519" lon="7.25661">
        <ele>460.2</ele>
        <time>2020-05-10T15:08:34Z</time>
      </trkpt>
      <trkpt lat="48.68524" lon="7.25657">
        <ele>460.6</ele>
        <time>2020-05-10T15:08:36Z</time>
      </trkpt>
      <trkpt lat="48.68528" lon="7.25653">
        <ele>460.8</ele>
        <time>2020-05-10T15:08:38Z</time>
      </trkpt>
      <trkpt lat="48.68531" lon="7.25651">
        <ele>461</ele>
        <time>2020-05-10T15:08:39Z</time>
      </trkpt>
      <trkpt lat="48.68536" lon="7.25648">
        <ele>461.4</ele>
        <time>2020-05-10T15:08:41Z</time>
      </trkpt>
      <trkpt lat="48.68542" lon="7.25647">
        <ele>461.8</ele>
        <time>2020-05-10T15:08:43Z</time>
      </trkpt>
      <trkpt lat="48.68545" lon="7.25647">
        <ele>461.9</ele>
        <time>2020-05-10T15:08:44Z</time>
      </trkpt>
      <trkpt lat="48.68551" lon="7.25645">
        <ele>462.3</ele>
        <time>2020-05-10T15:08:46Z</time>
      </trkpt>
      <trkpt lat="48.68557" lon="7.25642">
        <ele>462.6</ele>
        <time>2020-05-10T15:08:48Z</time>
      </trkpt>
      <trkpt lat="48.68562" lon="7.25638">
        <ele>463</ele>
        <time>2020-05-10T15:08:50Z</time>
      </trkpt>
      <trkpt lat="48.68565" lon="7.25636">
        <ele>463.2</ele>
        <time>2020-05-10T15:08:51Z</time>
      </trkpt>
      <trkpt lat="48.68566" lon="7.25635">
        <ele>463.3</ele>
        <time>2020-05-10T15:08:52Z</time>
      </trkpt>
      <trkpt lat="48.68568" lon="7.25633">
        <ele>463.4</ele>
        <time>2020-05-10T15:08:53Z</time>
      </trkpt>
      <trkpt lat="48.68573" lon="7.2563">
        <ele>463.8</ele>
        <time>2020-05-10T15:08:55Z</time>
      </trkpt>
      <trkpt lat="48.68575" lon="7.25629">
        <ele>463.9</ele>
        <time>2020-05-10T15:08:56Z</time>
      </trkpt>
      <trkpt lat="48.68579" lon="7.25627">
        <ele>464.1</ele>
        <time>2020-05-10T15:08:58Z</time>
      </trkpt>
      <trkpt lat="48.6858" lon="7.25626">
        <ele>464.2</ele>
        <time>2020-05-10T15:08:59Z</time>
      </trkpt>
      <trkpt lat="48.68582" lon="7.25625">
        <ele>464.3</ele>
        <time>2020-05-10T15:09:00Z</time>
      </trkpt>
      <trkpt lat="48.68583" lon="7.25621">
        <ele>464.5</ele>
        <time>2020-05-10T15:09:02Z</time>
      </trkpt>
      <trkpt lat="48.68583" lon="7.25621">
        <ele>464.5</ele>
        <time>2020-05-10T15:09:03Z</time>
      </trkpt>
      <trkpt lat="48.68584" lon="7.2562">
        <ele>464.5</ele>
        <time>2020-05-10T15:09:05Z</time>
      </trkpt>
      <trkpt lat="48.68584" lon="7.2562">
        <ele>464.6</ele>
        <time>2020-05-10T15:09:07Z</time>
      </trkpt>
      <trkpt lat="48.68584" lon="7.2562">
        <ele>464.6</ele>
        <time>2020-05-10T15:09:08Z</time>
      </trkpt>
      <trkpt lat="48.68584" lon="7.2562">
        <ele>464.6</ele>
        <time>2020-05-10T15:09:09Z</time>
      </trkpt>
      <trkpt lat="48.68586" lon="7.25619">
        <ele>464.7</ele>
        <time>2020-05-10T15:09:11Z</time>
      </trkpt>
      <trkpt lat="48.68587" lon="7.25618">
        <ele>464.8</ele>
        <time>2020-05-10T15:09:13Z</time>
      </trkpt>
      <trkpt lat="48.68592" lon="7.25617">
        <ele>465.1</ele>
        <time>2020-05-10T15:09:15Z</time>
      </trkpt>
      <trkpt lat="48.68596" lon="7.25617">
        <ele>465.3</ele>
        <time>2020-05-10T15:09:16Z</time>
      </trkpt>
      <trkpt lat="48.68597" lon="7.25617">
        <ele>465.4</ele>
        <time>2020-05-10T15:09:17Z</time>
      </trkpt>
      <trkpt lat="48.686" lon="7.25617">
        <ele>465.6</ele>
        <time>2020-05-10T15:09:19Z</time>
      </trkpt>
      <trkpt lat="48.68604" lon="7.25615">
        <ele>465.8</ele>
        <time>2020-05-10T15:09:21Z</time>
      </trkpt>
      <trkpt lat="48.68607" lon="7.25612">
        <ele>466</ele>
        <time>2020-05-10T15:09:23Z</time>
      </trkpt>
      <trkpt lat="48.68611" lon="7.2561">
        <ele>466.3</ele>
        <time>2020-05-10T15:09:25Z</time>
      </trkpt>
      <trkpt lat="48.68616" lon="7.25608">
        <ele>466.6</ele>
        <time>2020-05-10T15:09:27Z</time>
      </trkpt>
      <trkpt lat="48.68619" lon="7.25607">
        <ele>466.8</ele>
        <time>2020-05-10T15:09:28Z</time>
      </trkpt>
      <trkpt lat="48.68624" lon="7.25608">
        <ele>467.1</ele>
        <time>2020-05-10T15:09:29Z</time>
      </trkpt>
      <trkpt lat="48.68625" lon="7.25608">
        <ele>467.2</ele>
        <time>2020-05-10T15:09:30Z</time>
      </trkpt>
      <trkpt lat="48.68631" lon="7.25609">
        <ele>467.5</ele>
        <time>2020-05-10T15:09:32Z</time>
      </trkpt>
      <trkpt lat="48.68635" lon="7.25609">
        <ele>467.8</ele>
        <time>2020-05-10T15:09:34Z</time>
      </trkpt>
      <trkpt lat="48.68639" lon="7.25609">
        <ele>468</ele>
        <time>2020-05-10T15:09:35Z</time>
      </trkpt>
      <trkpt lat="48.68642" lon="7.25609">
        <ele>468.2</ele>
        <time>2020-05-10T15:09:36Z</time>
      </trkpt>
      <trkpt lat="48.68647" lon="7.25611">
        <ele>468.5</ele>
        <time>2020-05-10T15:09:38Z</time>
      </trkpt>
      <trkpt lat="48.68649" lon="7.25611">
        <ele>468.6</ele>
        <time>2020-05-10T15:09:39Z</time>
      </trkpt>
      <trkpt lat="48.68653" lon="7.2561">
        <ele>468.9</ele>
        <time>2020-05-10T15:09:41Z</time>
      </trkpt>
      <trkpt lat="48.68656" lon="7.25611">
        <ele>469.1</ele>
        <time>2020-05-10T15:09:42Z</time>
      </trkpt>
      <trkpt lat="48.68661" lon="7.25613">
        <ele>469.4</ele>
        <time>2020-05-10T15:09:44Z</time>
      </trkpt>
      <trkpt lat="48.68665" lon="7.25614">
        <ele>469.6</ele>
        <time>2020-05-10T15:09:45Z</time>
      </trkpt>
      <trkpt lat="48.68667" lon="7.25615">
        <ele>469.8</ele>
        <time>2020-05-10T15:09:46Z</time>
      </trkpt>
      <trkpt lat="48.68672" lon="7.25619">
        <ele>470.1</ele>
        <time>2020-05-10T15:09:48Z</time>
      </trkpt>
      <trkpt lat="48.68677" lon="7.25623">
        <ele>470.4</ele>
        <time>2020-05-10T15:09:50Z</time>
      </trkpt>
      <trkpt lat="48.68681" lon="7.25624">
        <ele>470.7</ele>
        <time>2020-05-10T15:09:52Z</time>
      </trkpt>
      <trkpt lat="48.68686" lon="7.25626">
        <ele>471</ele>
        <time>2020-05-10T15:09:54Z</time>
      </trkpt>
      <trkpt lat="48.68689" lon="7.25627">
        <ele>471.2</ele>
        <time>2020-05-10T15:09:56Z</time>
      </trkpt>
      <trkpt lat="48.68692" lon="7.25626">
        <ele>471.4</ele>
        <time>2020-05-10T15:09:57Z</time>
      </trkpt>
      <trkpt lat="48.68698" lon="7.25623">
        <ele>471.7</ele>
        <time>2020-05-10T15:09:59Z</time>
      </trkpt>
      <trkpt lat="48.687" lon="7.25623">
        <ele>471.9</ele>
        <time>2020-05-10T15:10:01Z</time>
      </trkpt>
      <trkpt lat="48.68701" lon="7.25624">
        <ele>472</ele>
        <time>2020-05-10T15:10:03Z</time>
      </trkpt>
      <trkpt lat="48.68701" lon="7.25624">
        <ele>472</ele>
        <time>2020-05-10T15:10:04Z</time>
      </trkpt>
      <trkpt lat="48.687" lon="7.25624">
        <ele>472</ele>
        <time>2020-05-10T15:10:06Z</time>
      </trkpt>
      <trkpt lat="48.687" lon="7.25624">
        <ele>472</ele>
        <time>2020-05-10T15:10:07Z</time>
      </trkpt>
      <trkpt lat="48.68701" lon="7.25625">
        <ele>472</ele>
        <time>2020-05-10T15:10:08Z</time>
      </trkpt>
      <trkpt lat="48.68701" lon="7.25624">
        <ele>472.1</ele>
        <time>2020-05-10T15:10:09Z</time>
      </trkpt>
      <trkpt lat="48.68701" lon="7.25624">
        <ele>472.1</ele>
        <time>2020-05-10T15:10:11Z</time>
      </trkpt>
      <trkpt lat="48.68701" lon="7.25623">
        <ele>472.1</ele>
        <time>2020-05-10T15:10:12Z</time>
      </trkpt>
      <trkpt lat="48.68703" lon="7.25622">
        <ele>472.2</ele>
        <time>2020-05-10T15:10:14Z</time>
      </trkpt>
      <trkpt lat="48.68706" lon="7.25619">
        <ele>472.4</ele>
        <time>2020-05-10T15:10:16Z</time>
      </trkpt>
      <trkpt lat="48.68707" lon="7.25618">
        <ele>472.5</ele>
        <time>2020-05-10T15:10:17Z</time>
      </trkpt>
      <trkpt lat="48.68708" lon="7.25614">
        <ele>473</ele>
        <time>2020-05-10T15:10:19Z</time>
      </trkpt>
      <trkpt lat="48.68709" lon="7.25612">
        <ele>473.1</ele>
        <time>2020-05-10T15:10:20Z</time>
      </trkpt>
      <trkpt lat="48.6871" lon="7.2561">
        <ele>473.2</ele>
        <time>2020-05-10T15:10:21Z</time>
      </trkpt>
      <trkpt lat="48.68711" lon="7.25608">
        <ele>473.3</ele>
        <time>2020-05-10T15:10:23Z</time>
      </trkpt>
      <trkpt lat="48.68711" lon="7.25605">
        <ele>473.4</ele>
        <time>2020-05-10T15:10:24Z</time>
      </trkpt>
      <trkpt lat="48.68712" lon="7.256">
        <ele>473.6</ele>
        <time>2020-05-10T15:10:26Z</time>
      </trkpt>
      <trkpt lat="48.68712" lon="7.25597">
        <ele>473.6</ele>
        <time>2020-05-10T15:10:27Z</time>
      </trkpt>
      <trkpt lat="48.68713" lon="7.25592">
        <ele>473.7</ele>
        <time>2020-05-10T15:10:29Z</time>
      </trkpt>
      <trkpt lat="48.68714" lon="7.25589">
        <ele>473.8</ele>
        <time>2020-05-10T15:10:30Z</time>
      </trkpt>
      <trkpt lat="48.68716" lon="7.25581">
        <ele>474</ele>
        <time>2020-05-10T15:10:32Z</time>
      </trkpt>
      <trkpt lat="48.68719" lon="7.25575">
        <ele>474.2</ele>
        <time>2020-05-10T15:10:34Z</time>
      </trkpt>
      <trkpt lat="48.6872" lon="7.25573">
        <ele>474.3</ele>
        <time>2020-05-10T15:10:35Z</time>
      </trkpt>
      <trkpt lat="48.68724" lon="7.2557">
        <ele>474.6</ele>
        <time>2020-05-10T15:10:37Z</time>
      </trkpt>
      <trkpt lat="48.68726" lon="7.25567">
        <ele>474.8</ele>
        <time>2020-05-10T15:10:38Z</time>
      </trkpt>
      <trkpt lat="48.6873" lon="7.25561">
        <ele>475.3</ele>
        <time>2020-05-10T15:10:40Z</time>
      </trkpt>
      <trkpt lat="48.68732" lon="7.25558">
        <ele>475.5</ele>
        <time>2020-05-10T15:10:41Z</time>
      </trkpt>
      <trkpt lat="48.68733" lon="7.25557">
        <ele>475.6</ele>
        <time>2020-05-10T15:10:42Z</time>
      </trkpt>
      <trkpt lat="48.68736" lon="7.25552">
        <ele>476</ele>
        <time>2020-05-10T15:10:44Z</time>
      </trkpt>
      <trkpt lat="48.68739" lon="7.2555">
        <ele>476.3</ele>
        <time>2020-05-10T15:10:45Z</time>
      </trkpt>
      <trkpt lat="48.68743" lon="7.25546">
        <ele>476.8</ele>
        <time>2020-05-10T15:10:47Z</time>
      </trkpt>
      <trkpt lat="48.68748" lon="7.25542">
        <ele>477.4</ele>
        <time>2020-05-10T15:10:49Z</time>
      </trkpt>
      <trkpt lat="48.68751" lon="7.25538">
        <ele>477.4</ele>
        <time>2020-05-10T15:10:51Z</time>
      </trkpt>
      <trkpt lat="48.68755" lon="7.25538">
        <ele>477.4</ele>
        <time>2020-05-10T15:10:52Z</time>
      </trkpt>
      <trkpt lat="48.68756" lon="7.25538">
        <ele>477.4</ele>
        <time>2020-05-10T15:10:53Z</time>
      </trkpt>
      <trkpt lat="48.68761" lon="7.25539">
        <ele>477.5</ele>
        <time>2020-05-10T15:10:55Z</time>
      </trkpt>
      <trkpt lat="48.68764" lon="7.25539">
        <ele>477.5</ele>
        <time>2020-05-10T15:10:56Z</time>
      </trkpt>
      <trkpt lat="48.68767" lon="7.2554">
        <ele>477.5</ele>
        <time>2020-05-10T15:10:57Z</time>
      </trkpt>
      <trkpt lat="48.68772" lon="7.25541">
        <ele>477.5</ele>
        <time>2020-05-10T15:10:59Z</time>
      </trkpt>
      <trkpt lat="48.68778" lon="7.25541">
        <ele>477.6</ele>
        <time>2020-05-10T15:11:01Z</time>
      </trkpt>
      <trkpt lat="48.6878" lon="7.25542">
        <ele>477.6</ele>
        <time>2020-05-10T15:11:02Z</time>
      </trkpt>
      <trkpt lat="48.68786" lon="7.25543">
        <ele>477.6</ele>
        <time>2020-05-10T15:11:04Z</time>
      </trkpt>
      <trkpt lat="48.68792" lon="7.25543">
        <ele>477.6</ele>
        <time>2020-05-10T15:11:06Z</time>
      </trkpt>
      <trkpt lat="48.68799" lon="7.25544">
        <ele>477.7</ele>
        <time>2020-05-10T15:11:08Z</time>
      </trkpt>
      <trkpt lat="48.68806" lon="7.25546">
        <ele>477.7</ele>
        <time>2020-05-10T15:11:10Z</time>
      </trkpt>
      <trkpt lat="48.68809" lon="7.25547">
        <ele>477.7</ele>
        <time>2020-05-10T15:11:11Z</time>
      </trkpt>
      <trkpt lat="48.68816" lon="7.2555">
        <ele>477.8</ele>
        <time>2020-05-10T15:11:13Z</time>
      </trkpt>
      <trkpt lat="48.68823" lon="7.25553">
        <ele>477.8</ele>
        <time>2020-05-10T15:11:15Z</time>
      </trkpt>
      <trkpt lat="48.68826" lon="7.25554">
        <ele>477.8</ele>
        <time>2020-05-10T15:11:16Z</time>
      </trkpt>
      <trkpt lat="48.68829" lon="7.25556">
        <ele>477.8</ele>
        <time>2020-05-10T15:11:17Z</time>
      </trkpt>
      <trkpt lat="48.68833" lon="7.25557">
        <ele>477.8</ele>
        <time>2020-05-10T15:11:19Z</time>
      </trkpt>
      <trkpt lat="48.68839" lon="7.25558">
        <ele>477.7</ele>
        <time>2020-05-10T15:11:20Z</time>
      </trkpt>
      <trkpt lat="48.68845" lon="7.25558">
        <ele>477.7</ele>
        <time>2020-05-10T15:11:22Z</time>
      </trkpt>
      <trkpt lat="48.68849" lon="7.25556">
        <ele>477.7</ele>
        <time>2020-05-10T15:11:23Z</time>
      </trkpt>
      <trkpt lat="48.68856" lon="7.25553">
        <ele>477.7</ele>
        <time>2020-05-10T15:11:25Z</time>
      </trkpt>
      <trkpt lat="48.68864" lon="7.25552">
        <ele>477.9</ele>
        <time>2020-05-10T15:11:27Z</time>
      </trkpt>
      <trkpt lat="48.68867" lon="7.25552">
        <ele>478</ele>
        <time>2020-05-10T15:11:28Z</time>
      </trkpt>
      <trkpt lat="48.68874" lon="7.25555">
        <ele>478.1</ele>
        <time>2020-05-10T15:11:30Z</time>
      </trkpt>
      <trkpt lat="48.68877" lon="7.25556">
        <ele>478.2</ele>
        <time>2020-05-10T15:11:31Z</time>
      </trkpt>
      <trkpt lat="48.68884" lon="7.2556">
        <ele>478.3</ele>
        <time>2020-05-10T15:11:33Z</time>
      </trkpt>
    </trkseg>
  </trk>
  <trk>
    <name><![CDATA[secteur Saverne - Dabo - Petite Pierre_42]]></name>
    <trkseg>
      <trkpt lat="48.6756" lon="7.26002">
        <ele>462.2</ele>
        <time>2020-05-10T15:01:09Z</time>
      </trkpt>
      <trkpt lat="48.6756" lon="7.26002">
        <ele>462.2</ele>
        <time>2020-05-10T15:01:09Z</time>
      </trkpt>
      <trkpt lat="48.6756" lon="7.26002">
        <ele>462.2</ele>
        <time>2020-05-10T15:01:09Z</time>
      </trkpt>
      <trkpt lat="48.6756" lon="7.26002">
        <ele>462.2</ele>
        <time>2020-05-10T15:01:09Z</time>
      </trkpt>
      <trkpt lat="48.6756" lon="7.26002">
        <ele>462.2</ele>
        <time>2020-05-10T15:01:09Z</time>
      </trkpt>
      <trkpt lat="48.6756" lon="7.25996">
        <ele>462.2</ele>
        <time>2020-05-10T15:01:10Z</time>
      </trkpt>
      <trkpt lat="48.6756" lon="7.25984">
        <ele>462.3</ele>
        <time>2020-05-10T15:01:12Z</time>
      </trkpt>
      <trkpt lat="48.67561" lon="7.25973">
        <ele>462.6</ele>
        <time>2020-05-10T15:01:14Z</time>
      </trkpt>
      <trkpt lat="48.67561" lon="7.25967">
        <ele>462.7</ele>
        <time>2020-05-10T15:01:15Z</time>
      </trkpt>
    </trkseg>
  </trk>
  <trk>
    <name><![CDATA[secteur Saverne - Dabo - Petite Pierre_43]]></name>
    <trkseg>
      <trkpt lat="48.67549" lon="7.25979">
        <ele>474.3</ele>
        <time>2020-08-18T16:07:13Z</time>
      </trkpt>
      <trkpt lat="48.67549" lon="7.25979">
        <ele>474.3</ele>
        <time>2020-08-18T16:07:13Z</time>
      </trkpt>
      <trkpt lat="48.67549" lon="7.25979">
        <ele>474.3</ele>
        <time>2020-08-18T16:07:13Z</time>
      </trkpt>
      <trkpt lat="48.67549" lon="7.25979">
        <ele>474.3</ele>
        <time>2020-08-18T16:07:13Z</time>
      </trkpt>
      <trkpt lat="48.67549" lon="7.25979">
        <ele>474.3</ele>
        <time>2020-08-18T16:07:13Z</time>
      </trkpt>
      <trkpt lat="48.67557" lon="7.25991">
        <ele>473</ele>
        <time>2020-08-18T16:07:15Z</time>
      </trkpt>
      <trkpt lat="48.67561" lon="7.26005">
        <ele>472.1</ele>
        <time>2020-08-18T16:07:17Z</time>
      </trkpt>
      <trkpt lat="48.67563" lon="7.2602">
        <ele>471.3</ele>
        <time>2020-08-18T16:07:19Z</time>
      </trkpt>
      <trkpt lat="48.67565" lon="7.26033">
        <ele>470.6</ele>
        <time>2020-08-18T16:07:21Z</time>
      </trkpt>
      <trkpt lat="48.67568" lon="7.26039">
        <ele>469.8</ele>
        <time>2020-08-18T16:07:23Z</time>
      </trkpt>
      <trkpt lat="48.67573" lon="7.26037">
        <ele>468.2</ele>
        <time>2020-08-18T16:07:26Z</time>
      </trkpt>
    </trkseg>
  </trk>
  <trk>
    <name><![CDATA[saved]]></name>
    <trkseg>
      <trkpt lat="48.73371" lon="7.34818">
        <ele>273.7</ele>
        <time>2020-11-28T10:27:42Z</time>
      </trkpt>
      <trkpt lat="48.73371" lon="7.34818">
        <ele>273.7</ele>
        <time>2020-11-28T10:27:42Z</time>
      </trkpt>
      <trkpt lat="48.73371" lon="7.34818">
        <ele>273.7</ele>
        <time>2020-11-28T10:27:42Z</time>
      </trkpt>
      <trkpt lat="48.73371" lon="7.34818">
        <ele>273.7</ele>
        <time>2020-11-28T10:27:42Z</time>
      </trkpt>
      <trkpt lat="48.73371" lon="7.34818">
        <ele>273.7</ele>
        <time>2020-11-28T10:27:42Z</time>
      </trkpt>
      <trkpt lat="48.73369" lon="7.34808">
        <ele>272.5</ele>
        <time>2020-11-28T10:27:55Z</time>
      </trkpt>
      <trkpt lat="48.73366" lon="7.34802">
        <ele>271.8</ele>
        <time>2020-11-28T10:27:57Z</time>
      </trkpt>
      <trkpt lat="48.73363" lon="7.34796">
        <ele>272.1</ele>
        <time>2020-11-28T10:27:59Z</time>
      </trkpt>
      <trkpt lat="48.7336" lon="7.34789">
        <ele>272.6</ele>
        <time>2020-11-28T10:28:01Z</time>
      </trkpt>
      <trkpt lat="48.73358" lon="7.34781">
        <ele>273.4</ele>
        <time>2020-11-28T10:28:03Z</time>
      </trkpt>
      <trkpt lat="48.73355" lon="7.34774">
        <ele>274.3</ele>
        <time>2020-11-28T10:28:05Z</time>
      </trkpt>
      <trkpt lat="48.73351" lon="7.34767">
        <ele>274.7</ele>
        <time>2020-11-28T10:28:07Z</time>
      </trkpt>
      <trkpt lat="48.73344" lon="7.34757">
        <ele>275.8</ele>
        <time>2020-11-28T10:28:10Z</time>
      </trkpt>
      <trkpt lat="48.73341" lon="7.3475">
        <ele>276.4</ele>
        <time>2020-11-28T10:28:12Z</time>
      </trkpt>
      <trkpt lat="48.73336" lon="7.34744">
        <ele>276.7</ele>
        <time>2020-11-28T10:28:14Z</time>
      </trkpt>
      <trkpt lat="48.73333" lon="7.34737">
        <ele>277</ele>
        <time>2020-11-28T10:28:16Z</time>
      </trkpt>
      <trkpt lat="48.73329" lon="7.34733">
        <ele>277.1</ele>
        <time>2020-11-28T10:28:19Z</time>
      </trkpt>
      <trkpt lat="48.7333" lon="7.3474">
        <ele>276.5</ele>
        <time>2020-11-28T10:28:23Z</time>
      </trkpt>
      <trkpt lat="48.73334" lon="7.34746">
        <ele>276.8</ele>
        <time>2020-11-28T10:28:25Z</time>
      </trkpt>
      <trkpt lat="48.73338" lon="7.34754">
        <ele>276.1</ele>
        <time>2020-11-28T10:28:27Z</time>
      </trkpt>
      <trkpt lat="48.73344" lon="7.34764">
        <ele>275.4</ele>
        <time>2020-11-28T10:28:29Z</time>
      </trkpt>
      <trkpt lat="48.7335" lon="7.34775">
        <ele>275</ele>
        <time>2020-11-28T10:28:31Z</time>
      </trkpt>
      <trkpt lat="48.73356" lon="7.34788">
        <ele>275</ele>
        <time>2020-11-28T10:28:33Z</time>
      </trkpt>
      <trkpt lat="48.73363" lon="7.34802">
        <ele>274.7</ele>
        <time>2020-11-28T10:28:35Z</time>
      </trkpt>
      <trkpt lat="48.73368" lon="7.34812">
        <ele>273.8</ele>
        <time>2020-11-28T10:28:37Z</time>
      </trkpt>
      <trkpt lat="48.73371" lon="7.34817">
        <ele>273.3</ele>
        <time>2020-11-28T10:28:42Z</time>
      </trkpt>
      <trkpt lat="48.73371" lon="7.3481">
        <ele>273.3</ele>
        <time>2020-11-28T10:28:49Z</time>
      </trkpt>
      <trkpt lat="48.73369" lon="7.34802">
        <ele>273.4</ele>
        <time>2020-11-28T10:28:51Z</time>
      </trkpt>
      <trkpt lat="48.73366" lon="7.34795">
        <ele>273</ele>
        <time>2020-11-28T10:28:53Z</time>
      </trkpt>
      <trkpt lat="48.73362" lon="7.34789">
        <ele>272.9</ele>
        <time>2020-11-28T10:28:55Z</time>
      </trkpt>
      <trkpt lat="48.73358" lon="7.34783">
        <ele>272.5</ele>
        <time>2020-11-28T10:28:57Z</time>
      </trkpt>
      <trkpt lat="48.73354" lon="7.34776">
        <ele>272.8</ele>
        <time>2020-11-28T10:28:59Z</time>
      </trkpt>
      <trkpt lat="48.73349" lon="7.3477">
        <ele>273</ele>
        <time>2020-11-28T10:29:01Z</time>
      </trkpt>
      <trkpt lat="48.73345" lon="7.34763">
        <ele>272.7</ele>
        <time>2020-11-28T10:29:03Z</time>
      </trkpt>
      <trkpt lat="48.73341" lon="7.34756">
        <ele>273.1</ele>
        <time>2020-11-28T10:29:05Z</time>
      </trkpt>
      <trkpt lat="48.73337" lon="7.34749">
        <ele>273.1</ele>
        <time>2020-11-28T10:29:07Z</time>
      </trkpt>
      <trkpt lat="48.73333" lon="7.34741">
        <ele>273.7</ele>
        <time>2020-11-28T10:29:09Z</time>
      </trkpt>
      <trkpt lat="48.73329" lon="7.34733">
        <ele>273.8</ele>
        <time>2020-11-28T10:29:11Z</time>
      </trkpt>
      <trkpt lat="48.73324" lon="7.34726">
        <ele>274</ele>
        <time>2020-11-28T10:29:13Z</time>
      </trkpt>
      <trkpt lat="48.73321" lon="7.34719">
        <ele>274.3</ele>
        <time>2020-11-28T10:29:15Z</time>
      </trkpt>
      <trkpt lat="48.73317" lon="7.34713">
        <ele>275</ele>
        <time>2020-11-28T10:29:17Z</time>
      </trkpt>
      <trkpt lat="48.73313" lon="7.34706">
        <ele>275.7</ele>
        <time>2020-11-28T10:29:20Z</time>
      </trkpt>
      <trkpt lat="48.7331" lon="7.347">
        <ele>275.7</ele>
        <time>2020-11-28T10:29:22Z</time>
      </trkpt>
      <trkpt lat="48.73306" lon="7.34693">
        <ele>275.1</ele>
        <time>2020-11-28T10:29:24Z</time>
      </trkpt>
      <trkpt lat="48.73303" lon="7.34687">
        <ele>274.4</ele>
        <time>2020-11-28T10:29:26Z</time>
      </trkpt>
      <trkpt lat="48.733" lon="7.34682">
        <ele>274.1</ele>
        <time>2020-11-28T10:29:28Z</time>
      </trkpt>
      <trkpt lat="48.73297" lon="7.34675">
        <ele>274.4</ele>
        <time>2020-11-28T10:29:30Z</time>
      </trkpt>
      <trkpt lat="48.73294" lon="7.34669">
        <ele>274.5</ele>
        <time>2020-11-28T10:29:32Z</time>
      </trkpt>
      <trkpt lat="48.73292" lon="7.34663">
        <ele>275.2</ele>
        <time>2020-11-28T10:29:34Z</time>
      </trkpt>
      <trkpt lat="48.73289" lon="7.34657">
        <ele>275.3</ele>
        <time>2020-11-28T10:29:36Z</time>
      </trkpt>
      <trkpt lat="48.73286" lon="7.34651">
        <ele>276</ele>
        <time>2020-11-28T10:29:38Z</time>
      </trkpt>
      <trkpt lat="48.73283" lon="7.34645">
        <ele>276.6</ele>
        <time>2020-11-28T10:29:40Z</time>
      </trkpt>
      <trkpt lat="48.7328" lon="7.34639">
        <ele>277.5</ele>
        <time>2020-11-28T10:29:42Z</time>
      </trkpt>
      <trkpt lat="48.73276" lon="7.34634">
        <ele>278.2</ele>
        <time>2020-11-28T10:29:44Z</time>
      </trkpt>
      <trkpt lat="48.73272" lon="7.34628">
        <ele>279.1</ele>
        <time>2020-11-28T10:29:46Z</time>
      </trkpt>
      <trkpt lat="48.73268" lon="7.34622">
        <ele>279</ele>
        <time>2020-11-28T10:29:48Z</time>
      </trkpt>
      <trkpt lat="48.73265" lon="7.34616">
        <ele>279.6</ele>
        <time>2020-11-28T10:29:50Z</time>
      </trkpt>
      <trkpt lat="48.73262" lon="7.34609">
        <ele>279.7</ele>
        <time>2020-11-28T10:29:52Z</time>
      </trkpt>
      <trkpt lat="48.73258" lon="7.34603">
        <ele>279.9</ele>
        <time>2020-11-28T10:29:54Z</time>
      </trkpt>
      <trkpt lat="48.73256" lon="7.34597">
        <ele>280.8</ele>
        <time>2020-11-28T10:29:56Z</time>
      </trkpt>
      <trkpt lat="48.73253" lon="7.34589">
        <ele>281.3</ele>
        <time>2020-11-28T10:30:07Z</time>
      </trkpt>
      <trkpt lat="48.7325" lon="7.3458">
        <ele>282.5</ele>
        <time>2020-11-28T10:30:10Z</time>
      </trkpt>
      <trkpt lat="48.73247" lon="7.34572">
        <ele>283.5</ele>
        <time>2020-11-28T10:30:12Z</time>
      </trkpt>
      <trkpt lat="48.73244" lon="7.34564">
        <ele>284.1</ele>
        <time>2020-11-28T10:30:14Z</time>
      </trkpt>
      <trkpt lat="48.73241" lon="7.34556">
        <ele>284.5</ele>
        <time>2020-11-28T10:30:16Z</time>
      </trkpt>
      <trkpt lat="48.73238" lon="7.34547">
        <ele>285.1</ele>
        <time>2020-11-28T10:30:18Z</time>
      </trkpt>
      <trkpt lat="48.73235" lon="7.34539">
        <ele>285.8</ele>
        <time>2020-11-28T10:30:20Z</time>
      </trkpt>
      <trkpt lat="48.73232" lon="7.34531">
        <ele>286.6</ele>
        <time>2020-11-28T10:30:22Z</time>
      </trkpt>
      <trkpt lat="48.73227" lon="7.3452">
        <ele>287.1</ele>
        <time>2020-11-28T10:30:25Z</time>
      </trkpt>
      <trkpt lat="48.73224" lon="7.34513">
        <ele>287.6</ele>
        <time>2020-11-28T10:30:27Z</time>
      </trkpt>
      <trkpt lat="48.73222" lon="7.34504">
        <ele>287.8</ele>
        <time>2020-11-28T10:30:29Z</time>
      </trkpt>
      <trkpt lat="48.73219" lon="7.34497">
        <ele>288</ele>
        <time>2020-11-28T10:30:31Z</time>
      </trkpt>
      <trkpt lat="48.73215" lon="7.3449">
        <ele>287.8</ele>
        <time>2020-11-28T10:30:33Z</time>
      </trkpt>
      <trkpt lat="48.7321" lon="7.34483">
        <ele>287.8</ele>
        <time>2020-11-28T10:30:35Z</time>
      </trkpt>
      <trkpt lat="48.73206" lon="7.34477">
        <ele>287.8</ele>
        <time>2020-11-28T10:30:37Z</time>
      </trkpt>
      <trkpt lat="48.732" lon="7.34468">
        <ele>287</ele>
        <time>2020-11-28T10:30:40Z</time>
      </trkpt>
      <trkpt lat="48.73196" lon="7.34463">
        <ele>286.6</ele>
        <time>2020-11-28T10:30:42Z</time>
      </trkpt>
      <trkpt lat="48.73193" lon="7.34457">
        <ele>287.1</ele>
        <time>2020-11-28T10:30:44Z</time>
      </trkpt>
      <trkpt lat="48.7319" lon="7.3445">
        <ele>288</ele>
        <time>2020-11-28T10:30:46Z</time>
      </trkpt>
      <trkpt lat="48.73187" lon="7.34442">
        <ele>288.8</ele>
        <time>2020-11-28T10:30:48Z</time>
      </trkpt>
      <trkpt lat="48.73183" lon="7.34436">
        <ele>289.7</ele>
        <time>2020-11-28T10:30:50Z</time>
      </trkpt>
      <trkpt lat="48.7318" lon="7.34429">
        <ele>290.4</ele>
        <time>2020-11-28T10:30:52Z</time>
      </trkpt>
      <trkpt lat="48.73176" lon="7.34422">
        <ele>291.5</ele>
        <time>2020-11-28T10:30:54Z</time>
      </trkpt>
      <trkpt lat="48.73173" lon="7.34414">
        <ele>292.1</ele>
        <time>2020-11-28T10:30:56Z</time>
      </trkpt>
      <trkpt lat="48.73169" lon="7.34405">
        <ele>292.2</ele>
        <time>2020-11-28T10:30:58Z</time>
      </trkpt>
      <trkpt lat="48.73165" lon="7.34397">
        <ele>291.6</ele>
        <time>2020-11-28T10:31:00Z</time>
      </trkpt>
      <trkpt lat="48.73161" lon="7.34388">
        <ele>291.3</ele>
        <time>2020-11-28T10:31:02Z</time>
      </trkpt>
      <trkpt lat="48.73157" lon="7.34379">
        <ele>291.2</ele>
        <time>2020-11-28T10:31:04Z</time>
      </trkpt>
      <trkpt lat="48.73152" lon="7.34369">
        <ele>291.1</ele>
        <time>2020-11-28T10:31:06Z</time>
      </trkpt>
      <trkpt lat="48.73146" lon="7.34357">
        <ele>291.1</ele>
        <time>2020-11-28T10:31:08Z</time>
      </trkpt>
      <trkpt lat="48.73141" lon="7.34347">
        <ele>290.9</ele>
        <time>2020-11-28T10:31:10Z</time>
      </trkpt>
      <trkpt lat="48.73137" lon="7.34338">
        <ele>290.9</ele>
        <time>2020-11-28T10:31:12Z</time>
      </trkpt>
      <trkpt lat="48.7313" lon="7.3433">
        <ele>290.7</ele>
        <time>2020-11-28T10:31:14Z</time>
      </trkpt>
      <trkpt lat="48.73123" lon="7.34321">
        <ele>290.8</ele>
        <time>2020-11-28T10:31:16Z</time>
      </trkpt>
      <trkpt lat="48.73117" lon="7.34312">
        <ele>290.5</ele>
        <time>2020-11-28T10:31:18Z</time>
      </trkpt>
      <trkpt lat="48.7311" lon="7.34303">
        <ele>290.3</ele>
        <time>2020-11-28T10:31:20Z</time>
      </trkpt>
      <trkpt lat="48.73102" lon="7.34296">
        <ele>289.8</ele>
        <time>2020-11-28T10:31:22Z</time>
      </trkpt>
      <trkpt lat="48.73096" lon="7.34289">
        <ele>289.7</ele>
        <time>2020-11-28T10:31:24Z</time>
      </trkpt>
      <trkpt lat="48.73088" lon="7.34281">
        <ele>289.3</ele>
        <time>2020-11-28T10:31:26Z</time>
      </trkpt>
      <trkpt lat="48.7308" lon="7.34271">
        <ele>289.7</ele>
        <time>2020-11-28T10:31:28Z</time>
      </trkpt>
      <trkpt lat="48.73073" lon="7.34262">
        <ele>290</ele>
        <time>2020-11-28T10:31:30Z</time>
      </trkpt>
      <trkpt lat="48.73065" lon="7.34251">
        <ele>290</ele>
        <time>2020-11-28T10:31:32Z</time>
      </trkpt>
      <trkpt lat="48.73058" lon="7.34242">
        <ele>291</ele>
        <time>2020-11-28T10:31:34Z</time>
      </trkpt>
      <trkpt lat="48.7305" lon="7.34235">
        <ele>291.1</ele>
        <time>2020-11-28T10:31:36Z</time>
      </trkpt>
      <trkpt lat="48.73043" lon="7.34228">
        <ele>291.8</ele>
        <time>2020-11-28T10:31:38Z</time>
      </trkpt>
      <trkpt lat="48.73036" lon="7.3422">
        <ele>292.1</ele>
        <time>2020-11-28T10:31:40Z</time>
      </trkpt>
      <trkpt lat="48.7303" lon="7.34212">
        <ele>293.1</ele>
        <time>2020-11-28T10:31:42Z</time>
      </trkpt>
      <trkpt lat="48.73024" lon="7.34204">
        <ele>293.1</ele>
        <time>2020-11-28T10:31:44Z</time>
      </trkpt>
      <trkpt lat="48.73018" lon="7.34198">
        <ele>293.4</ele>
        <time>2020-11-28T10:31:46Z</time>
      </trkpt>
      <trkpt lat="48.73012" lon="7.34192">
        <ele>292.7</ele>
        <time>2020-11-28T10:31:48Z</time>
      </trkpt>
      <trkpt lat="48.73005" lon="7.34185">
        <ele>292.9</ele>
        <time>2020-11-28T10:31:50Z</time>
      </trkpt>
      <trkpt lat="48.72998" lon="7.34178">
        <ele>293.2</ele>
        <time>2020-11-28T10:31:52Z</time>
      </trkpt>
      <trkpt lat="48.72992" lon="7.34171">
        <ele>293.4</ele>
        <time>2020-11-28T10:31:54Z</time>
      </trkpt>
      <trkpt lat="48.72986" lon="7.34162">
        <ele>294</ele>
        <time>2020-11-28T10:31:56Z</time>
      </trkpt>
      <trkpt lat="48.7298" lon="7.34155">
        <ele>294.4</ele>
        <time>2020-11-28T10:31:58Z</time>
      </trkpt>
      <trkpt lat="48.72975" lon="7.3415">
        <ele>294.4</ele>
        <time>2020-11-28T10:32:00Z</time>
      </trkpt>
      <trkpt lat="48.7297" lon="7.34144">
        <ele>294.2</ele>
        <time>2020-11-28T10:32:02Z</time>
      </trkpt>
      <trkpt lat="48.72965" lon="7.34137">
        <ele>294.6</ele>
        <time>2020-11-28T10:32:04Z</time>
      </trkpt>
      <trkpt lat="48.72961" lon="7.34132">
        <ele>294.9</ele>
        <time>2020-11-28T10:32:06Z</time>
      </trkpt>
      <trkpt lat="48.72956" lon="7.34125">
        <ele>295</ele>
        <time>2020-11-28T10:32:09Z</time>
      </trkpt>
      <trkpt lat="48.72952" lon="7.34119">
        <ele>293.6</ele>
        <time>2020-11-28T10:32:11Z</time>
      </trkpt>
      <trkpt lat="48.72946" lon="7.34113">
        <ele>293.2</ele>
        <time>2020-11-28T10:32:13Z</time>
      </trkpt>
      <trkpt lat="48.72941" lon="7.34106">
        <ele>293.1</ele>
        <time>2020-11-28T10:32:15Z</time>
      </trkpt>
      <trkpt lat="48.72935" lon="7.34095">
        <ele>293</ele>
        <time>2020-11-28T10:32:17Z</time>
      </trkpt>
      <trkpt lat="48.7293" lon="7.34087">
        <ele>293.6</ele>
        <time>2020-11-28T10:32:19Z</time>
      </trkpt>
      <trkpt lat="48.72923" lon="7.34076">
        <ele>294.6</ele>
        <time>2020-11-28T10:32:21Z</time>
      </trkpt>
      <trkpt lat="48.72917" lon="7.34065">
        <ele>295</ele>
        <time>2020-11-28T10:32:23Z</time>
      </trkpt>
      <trkpt lat="48.72912" lon="7.34053">
        <ele>295.5</ele>
        <time>2020-11-28T10:32:25Z</time>
      </trkpt>
      <trkpt lat="48.72907" lon="7.34044">
        <ele>295.4</ele>
        <time>2020-11-28T10:32:27Z</time>
      </trkpt>
      <trkpt lat="48.72901" lon="7.34032">
        <ele>295.1</ele>
        <time>2020-11-28T10:32:29Z</time>
      </trkpt>
      <trkpt lat="48.72895" lon="7.34019">
        <ele>295.4</ele>
        <time>2020-11-28T10:32:31Z</time>
      </trkpt>
      <trkpt lat="48.72888" lon="7.33999">
        <ele>296.3</ele>
        <time>2020-11-28T10:32:34Z</time>
      </trkpt>
      <trkpt lat="48.72884" lon="7.33985">
        <ele>297.3</ele>
        <time>2020-11-28T10:32:36Z</time>
      </trkpt>
      <trkpt lat="48.72881" lon="7.33971">
        <ele>297.2</ele>
        <time>2020-11-28T10:32:38Z</time>
      </trkpt>
      <trkpt lat="48.72878" lon="7.33958">
        <ele>297.8</ele>
        <time>2020-11-28T10:32:40Z</time>
      </trkpt>
      <trkpt lat="48.72875" lon="7.33944">
        <ele>298.5</ele>
        <time>2020-11-28T10:32:42Z</time>
      </trkpt>
      <trkpt lat="48.72872" lon="7.33931">
        <ele>298.9</ele>
        <time>2020-11-28T10:32:44Z</time>
      </trkpt>
      <trkpt lat="48.72869" lon="7.33922">
        <ele>298.4</ele>
        <time>2020-11-28T10:32:46Z</time>
      </trkpt>
      <trkpt lat="48.72867" lon="7.33914">
        <ele>298.4</ele>
        <time>2020-11-28T10:32:48Z</time>
      </trkpt>
      <trkpt lat="48.72866" lon="7.33907">
        <ele>299.6</ele>
        <time>2020-11-28T10:32:54Z</time>
      </trkpt>
      <trkpt lat="48.72863" lon="7.33901">
        <ele>300.6</ele>
        <time>2020-11-28T10:33:02Z</time>
      </trkpt>
      <trkpt lat="48.72859" lon="7.33896">
        <ele>300.6</ele>
        <time>2020-11-28T10:33:05Z</time>
      </trkpt>
      <trkpt lat="48.72853" lon="7.33891">
        <ele>300.8</ele>
        <time>2020-11-28T10:33:08Z</time>
      </trkpt>
      <trkpt lat="48.72849" lon="7.33883">
        <ele>301.8</ele>
        <time>2020-11-28T10:33:11Z</time>
      </trkpt>
      <trkpt lat="48.72847" lon="7.33877">
        <ele>302.1</ele>
        <time>2020-11-28T10:33:13Z</time>
      </trkpt>
      <trkpt lat="48.72843" lon="7.33868">
        <ele>302.8</ele>
        <time>2020-11-28T10:33:16Z</time>
      </trkpt>
      <trkpt lat="48.7284" lon="7.33862">
        <ele>303.5</ele>
        <time>2020-11-28T10:33:18Z</time>
      </trkpt>
      <trkpt lat="48.72837" lon="7.33855">
        <ele>304</ele>
        <time>2020-11-28T10:33:20Z</time>
      </trkpt>
      <trkpt lat="48.72833" lon="7.33849">
        <ele>305.2</ele>
        <time>2020-11-28T10:33:22Z</time>
      </trkpt>
      <trkpt lat="48.7283" lon="7.33844">
        <ele>305.9</ele>
        <time>2020-11-28T10:33:24Z</time>
      </trkpt>
      <trkpt lat="48.72828" lon="7.33838">
        <ele>306.8</ele>
        <time>2020-11-28T10:33:26Z</time>
      </trkpt>
      <trkpt lat="48.72824" lon="7.33833">
        <ele>307.9</ele>
        <time>2020-11-28T10:33:28Z</time>
      </trkpt>
      <trkpt lat="48.7282" lon="7.33828">
        <ele>308.3</ele>
        <time>2020-11-28T10:33:30Z</time>
      </trkpt>
      <trkpt lat="48.72816" lon="7.33822">
        <ele>309</ele>
        <time>2020-11-28T10:33:32Z</time>
      </trkpt>
      <trkpt lat="48.72813" lon="7.33815">
        <ele>310.3</ele>
        <time>2020-11-28T10:33:34Z</time>
      </trkpt>
      <trkpt lat="48.7281" lon="7.33808">
        <ele>311.9</ele>
        <time>2020-11-28T10:33:36Z</time>
      </trkpt>
      <trkpt lat="48.72807" lon="7.338">
        <ele>313.2</ele>
        <time>2020-11-28T10:33:38Z</time>
      </trkpt>
      <trkpt lat="48.72803" lon="7.33793">
        <ele>314.8</ele>
        <time>2020-11-28T10:33:40Z</time>
      </trkpt>
      <trkpt lat="48.72799" lon="7.33788">
        <ele>316.2</ele>
        <time>2020-11-28T10:33:42Z</time>
      </trkpt>
      <trkpt lat="48.72794" lon="7.33782">
        <ele>318.3</ele>
        <time>2020-11-28T10:33:45Z</time>
      </trkpt>
      <trkpt lat="48.7279" lon="7.33776">
        <ele>319.3</ele>
        <time>2020-11-28T10:33:47Z</time>
      </trkpt>
      <trkpt lat="48.72787" lon="7.33771">
        <ele>319.1</ele>
        <time>2020-11-28T10:33:49Z</time>
      </trkpt>
      <trkpt lat="48.72783" lon="7.33766">
        <ele>319.6</ele>
        <time>2020-11-28T10:33:51Z</time>
      </trkpt>
      <trkpt lat="48.7278" lon="7.3376">
        <ele>320</ele>
        <time>2020-11-28T10:33:53Z</time>
      </trkpt>
      <trkpt lat="48.72776" lon="7.33755">
        <ele>320.8</ele>
        <time>2020-11-28T10:33:55Z</time>
      </trkpt>
      <trkpt lat="48.72772" lon="7.33749">
        <ele>321</ele>
        <time>2020-11-28T10:33:57Z</time>
      </trkpt>
      <trkpt lat="48.72768" lon="7.33745">
        <ele>321.2</ele>
        <time>2020-11-28T10:33:59Z</time>
      </trkpt>
      <trkpt lat="48.72764" lon="7.33741">
        <ele>321.4</ele>
        <time>2020-11-28T10:34:01Z</time>
      </trkpt>
      <trkpt lat="48.72759" lon="7.33735">
        <ele>321.5</ele>
        <time>2020-11-28T10:34:03Z</time>
      </trkpt>
      <trkpt lat="48.72756" lon="7.3373">
        <ele>321.6</ele>
        <time>2020-11-28T10:34:05Z</time>
      </trkpt>
      <trkpt lat="48.72751" lon="7.33723">
        <ele>322.7</ele>
        <time>2020-11-28T10:34:08Z</time>
      </trkpt>
      <trkpt lat="48.72745" lon="7.33717">
        <ele>322.9</ele>
        <time>2020-11-28T10:34:11Z</time>
      </trkpt>
      <trkpt lat="48.72741" lon="7.33713">
        <ele>322.9</ele>
        <time>2020-11-28T10:34:13Z</time>
      </trkpt>
      <trkpt lat="48.72736" lon="7.3371">
        <ele>324.1</ele>
        <time>2020-11-28T10:34:17Z</time>
      </trkpt>
      <trkpt lat="48.7274" lon="7.33717">
        <ele>321.1</ele>
        <time>2020-11-28T10:34:36Z</time>
      </trkpt>
      <trkpt lat="48.72747" lon="7.33724">
        <ele>320.7</ele>
        <time>2020-11-28T10:34:38Z</time>
      </trkpt>
      <trkpt lat="48.72753" lon="7.33732">
        <ele>319.7</ele>
        <time>2020-11-28T10:34:40Z</time>
      </trkpt>
      <trkpt lat="48.7276" lon="7.33741">
        <ele>319</ele>
        <time>2020-11-28T10:34:42Z</time>
      </trkpt>
      <trkpt lat="48.72767" lon="7.33746">
        <ele>318.7</ele>
        <time>2020-11-28T10:34:44Z</time>
      </trkpt>
      <trkpt lat="48.72772" lon="7.33751">
        <ele>318.2</ele>
        <time>2020-11-28T10:34:46Z</time>
      </trkpt>
      <trkpt lat="48.72774" lon="7.33744">
        <ele>317</ele>
        <time>2020-11-28T10:34:54Z</time>
      </trkpt>
      <trkpt lat="48.72771" lon="7.33737">
        <ele>316.7</ele>
        <time>2020-11-28T10:34:56Z</time>
      </trkpt>
      <trkpt lat="48.72767" lon="7.33731">
        <ele>316.4</ele>
        <time>2020-11-28T10:34:58Z</time>
      </trkpt>
      <trkpt lat="48.72763" lon="7.33723">
        <ele>316.3</ele>
        <time>2020-11-28T10:35:00Z</time>
      </trkpt>
      <trkpt lat="48.7276" lon="7.33716">
        <ele>316.3</ele>
        <time>2020-11-28T10:35:02Z</time>
      </trkpt>
      <trkpt lat="48.72755" lon="7.33704">
        <ele>317.8</ele>
        <time>2020-11-28T10:35:05Z</time>
      </trkpt>
      <trkpt lat="48.72751" lon="7.33697">
        <ele>318.1</ele>
        <time>2020-11-28T10:35:07Z</time>
      </trkpt>
      <trkpt lat="48.72747" lon="7.33691">
        <ele>318.4</ele>
        <time>2020-11-28T10:35:09Z</time>
      </trkpt>
      <trkpt lat="48.72742" lon="7.33684">
        <ele>318.5</ele>
        <time>2020-11-28T10:35:11Z</time>
      </trkpt>
      <trkpt lat="48.72737" lon="7.33678">
        <ele>318.9</ele>
        <time>2020-11-28T10:35:13Z</time>
      </trkpt>
      <trkpt lat="48.72731" lon="7.33673">
        <ele>319</ele>
        <time>2020-11-28T10:35:15Z</time>
      </trkpt>
      <trkpt lat="48.72726" lon="7.33667">
        <ele>319.1</ele>
        <time>2020-11-28T10:35:17Z</time>
      </trkpt>
      <trkpt lat="48.72722" lon="7.3366">
        <ele>319</ele>
        <time>2020-11-28T10:35:19Z</time>
      </trkpt>
      <trkpt lat="48.72718" lon="7.33653">
        <ele>319.5</ele>
        <time>2020-11-28T10:35:21Z</time>
      </trkpt>
      <trkpt lat="48.72712" lon="7.33646">
        <ele>320.1</ele>
        <time>2020-11-28T10:35:23Z</time>
      </trkpt>
      <trkpt lat="48.72707" lon="7.3364">
        <ele>320.4</ele>
        <time>2020-11-28T10:35:25Z</time>
      </trkpt>
      <trkpt lat="48.72703" lon="7.33632">
        <ele>320.2</ele>
        <time>2020-11-28T10:35:27Z</time>
      </trkpt>
      <trkpt lat="48.72699" lon="7.33625">
        <ele>320</ele>
        <time>2020-11-28T10:35:29Z</time>
      </trkpt>
      <trkpt lat="48.72695" lon="7.33619">
        <ele>320.6</ele>
        <time>2020-11-28T10:35:31Z</time>
      </trkpt>
      <trkpt lat="48.7269" lon="7.33614">
        <ele>321.3</ele>
        <time>2020-11-28T10:35:33Z</time>
      </trkpt>
      <trkpt lat="48.72685" lon="7.33609">
        <ele>321.5</ele>
        <time>2020-11-28T10:35:35Z</time>
      </trkpt>
      <trkpt lat="48.7268" lon="7.33604">
        <ele>321.7</ele>
        <time>2020-11-28T10:35:37Z</time>
      </trkpt>
      <trkpt lat="48.72674" lon="7.33597">
        <ele>321.7</ele>
        <time>2020-11-28T10:35:39Z</time>
      </trkpt>
      <trkpt lat="48.72668" lon="7.33594">
        <ele>321.8</ele>
        <time>2020-11-28T10:35:41Z</time>
      </trkpt>
      <trkpt lat="48.72663" lon="7.3359">
        <ele>321.1</ele>
        <time>2020-11-28T10:35:43Z</time>
      </trkpt>
      <trkpt lat="48.72658" lon="7.33586">
        <ele>321.2</ele>
        <time>2020-11-28T10:35:45Z</time>
      </trkpt>
      <trkpt lat="48.72654" lon="7.33581">
        <ele>321.2</ele>
        <time>2020-11-28T10:35:47Z</time>
      </trkpt>
      <trkpt lat="48.72649" lon="7.33574">
        <ele>321.3</ele>
        <time>2020-11-28T10:35:49Z</time>
      </trkpt>
      <trkpt lat="48.72645" lon="7.33567">
        <ele>321.7</ele>
        <time>2020-11-28T10:35:52Z</time>
      </trkpt>
      <trkpt lat="48.7264" lon="7.33564">
        <ele>322.2</ele>
        <time>2020-11-28T10:35:54Z</time>
      </trkpt>
      <trkpt lat="48.72632" lon="7.33556">
        <ele>322.8</ele>
        <time>2020-11-28T10:35:57Z</time>
      </trkpt>
      <trkpt lat="48.72622" lon="7.33548">
        <ele>323.6</ele>
        <time>2020-11-28T10:36:00Z</time>
      </trkpt>
      <trkpt lat="48.72616" lon="7.33543">
        <ele>324.4</ele>
        <time>2020-11-28T10:36:02Z</time>
      </trkpt>
      <trkpt lat="48.72613" lon="7.33537">
        <ele>325.2</ele>
        <time>2020-11-28T10:36:04Z</time>
      </trkpt>
      <trkpt lat="48.72609" lon="7.3353">
        <ele>326</ele>
        <time>2020-11-28T10:36:06Z</time>
      </trkpt>
      <trkpt lat="48.72604" lon="7.33524">
        <ele>326.5</ele>
        <time>2020-11-28T10:36:08Z</time>
      </trkpt>
      <trkpt lat="48.72599" lon="7.3352">
        <ele>327.1</ele>
        <time>2020-11-28T10:36:10Z</time>
      </trkpt>
      <trkpt lat="48.72594" lon="7.33515">
        <ele>327.3</ele>
        <time>2020-11-28T10:36:12Z</time>
      </trkpt>
      <trkpt lat="48.72588" lon="7.33511">
        <ele>327.6</ele>
        <time>2020-11-28T10:36:14Z</time>
      </trkpt>
      <trkpt lat="48.72584" lon="7.33507">
        <ele>327.4</ele>
        <time>2020-11-28T10:36:16Z</time>
      </trkpt>
      <trkpt lat="48.72579" lon="7.33502">
        <ele>327.3</ele>
        <time>2020-11-28T10:36:18Z</time>
      </trkpt>
      <trkpt lat="48.72574" lon="7.33498">
        <ele>327.3</ele>
        <time>2020-11-28T10:36:20Z</time>
      </trkpt>
      <trkpt lat="48.72565" lon="7.33491">
        <ele>327.7</ele>
        <time>2020-11-28T10:36:23Z</time>
      </trkpt>
      <trkpt lat="48.7256" lon="7.33487">
        <ele>327.9</ele>
        <time>2020-11-28T10:36:25Z</time>
      </trkpt>
      <trkpt lat="48.72555" lon="7.33484">
        <ele>328.3</ele>
        <time>2020-11-28T10:36:27Z</time>
      </trkpt>
      <trkpt lat="48.7255" lon="7.33479">
        <ele>328.8</ele>
        <time>2020-11-28T10:36:29Z</time>
      </trkpt>
      <trkpt lat="48.72545" lon="7.33475">
        <ele>328.4</ele>
        <time>2020-11-28T10:36:31Z</time>
      </trkpt>
      <trkpt lat="48.72541" lon="7.33472">
        <ele>328.1</ele>
        <time>2020-11-28T10:36:33Z</time>
      </trkpt>
      <trkpt lat="48.72536" lon="7.33469">
        <ele>327.9</ele>
        <time>2020-11-28T10:36:35Z</time>
      </trkpt>
      <trkpt lat="48.72531" lon="7.33465">
        <ele>327.9</ele>
        <time>2020-11-28T10:36:37Z</time>
      </trkpt>
      <trkpt lat="48.72527" lon="7.33461">
        <ele>328.2</ele>
        <time>2020-11-28T10:36:39Z</time>
      </trkpt>
      <trkpt lat="48.72522" lon="7.33457">
        <ele>328.6</ele>
        <time>2020-11-28T10:36:43Z</time>
      </trkpt>
      <trkpt lat="48.72509" lon="7.3345">
        <ele>328.5</ele>
        <time>2020-11-28T10:36:45Z</time>
      </trkpt>
      <trkpt lat="48.72503" lon="7.33447">
        <ele>328.6</ele>
        <time>2020-11-28T10:36:47Z</time>
      </trkpt>
      <trkpt lat="48.72497" lon="7.33443">
        <ele>328.7</ele>
        <time>2020-11-28T10:36:49Z</time>
      </trkpt>
      <trkpt lat="48.72489" lon="7.33437">
        <ele>329.3</ele>
        <time>2020-11-28T10:36:52Z</time>
      </trkpt>
      <trkpt lat="48.72482" lon="7.33431">
        <ele>330</ele>
        <time>2020-11-28T10:36:55Z</time>
      </trkpt>
      <trkpt lat="48.72477" lon="7.33426">
        <ele>330.8</ele>
        <time>2020-11-28T10:36:57Z</time>
      </trkpt>
      <trkpt lat="48.72472" lon="7.33422">
        <ele>331.2</ele>
        <time>2020-11-28T10:36:59Z</time>
      </trkpt>
      <trkpt lat="48.72467" lon="7.33419">
        <ele>331.6</ele>
        <time>2020-11-28T10:37:01Z</time>
      </trkpt>
      <trkpt lat="48.72462" lon="7.33416">
        <ele>332.1</ele>
        <time>2020-11-28T10:37:03Z</time>
      </trkpt>
      <trkpt lat="48.72457" lon="7.33413">
        <ele>332.2</ele>
        <time>2020-11-28T10:37:05Z</time>
      </trkpt>
      <trkpt lat="48.72452" lon="7.33411">
        <ele>332.1</ele>
        <time>2020-11-28T10:37:07Z</time>
      </trkpt>
      <trkpt lat="48.72447" lon="7.33409">
        <ele>332.3</ele>
        <time>2020-11-28T10:37:09Z</time>
      </trkpt>
      <trkpt lat="48.72442" lon="7.33404">
        <ele>332.6</ele>
        <time>2020-11-28T10:37:11Z</time>
      </trkpt>
      <trkpt lat="48.72435" lon="7.33394">
        <ele>333.2</ele>
        <time>2020-11-28T10:37:13Z</time>
      </trkpt>
      <trkpt lat="48.72428" lon="7.33387">
        <ele>334.1</ele>
        <time>2020-11-28T10:37:15Z</time>
      </trkpt>
      <trkpt lat="48.72422" lon="7.3338">
        <ele>334.8</ele>
        <time>2020-11-28T10:37:17Z</time>
      </trkpt>
      <trkpt lat="48.72416" lon="7.33374">
        <ele>335.8</ele>
        <time>2020-11-28T10:37:19Z</time>
      </trkpt>
      <trkpt lat="48.7241" lon="7.33369">
        <ele>336.3</ele>
        <time>2020-11-28T10:37:21Z</time>
      </trkpt>
      <trkpt lat="48.72404" lon="7.3336">
        <ele>337.2</ele>
        <time>2020-11-28T10:37:23Z</time>
      </trkpt>
      <trkpt lat="48.724" lon="7.33353">
        <ele>337.2</ele>
        <time>2020-11-28T10:37:25Z</time>
      </trkpt>
      <trkpt lat="48.72395" lon="7.33348">
        <ele>337.2</ele>
        <time>2020-11-28T10:37:27Z</time>
      </trkpt>
      <trkpt lat="48.72388" lon="7.33343">
        <ele>337.5</ele>
        <time>2020-11-28T10:37:30Z</time>
      </trkpt>
      <trkpt lat="48.72384" lon="7.33339">
        <ele>337.8</ele>
        <time>2020-11-28T10:37:32Z</time>
      </trkpt>
      <trkpt lat="48.7238" lon="7.33334">
        <ele>338</ele>
        <time>2020-11-28T10:37:34Z</time>
      </trkpt>
      <trkpt lat="48.72375" lon="7.3333">
        <ele>338.3</ele>
        <time>2020-11-28T10:37:36Z</time>
      </trkpt>
      <trkpt lat="48.72369" lon="7.33325">
        <ele>337.6</ele>
        <time>2020-11-28T10:37:38Z</time>
      </trkpt>
      <trkpt lat="48.72364" lon="7.3332">
        <ele>337.2</ele>
        <time>2020-11-28T10:37:40Z</time>
      </trkpt>
      <trkpt lat="48.72359" lon="7.33314">
        <ele>336.8</ele>
        <time>2020-11-28T10:37:42Z</time>
      </trkpt>
      <trkpt lat="48.72354" lon="7.33309">
        <ele>337.1</ele>
        <time>2020-11-28T10:37:44Z</time>
      </trkpt>
      <trkpt lat="48.72349" lon="7.33304">
        <ele>336.7</ele>
        <time>2020-11-28T10:37:46Z</time>
      </trkpt>
      <trkpt lat="48.72345" lon="7.333">
        <ele>336.8</ele>
        <time>2020-11-28T10:37:48Z</time>
      </trkpt>
      <trkpt lat="48.72341" lon="7.33296">
        <ele>336.6</ele>
        <time>2020-11-28T10:37:50Z</time>
      </trkpt>
      <trkpt lat="48.72336" lon="7.33292">
        <ele>336.3</ele>
        <time>2020-11-28T10:37:52Z</time>
      </trkpt>
      <trkpt lat="48.72329" lon="7.33286">
        <ele>336.1</ele>
        <time>2020-11-28T10:37:55Z</time>
      </trkpt>
      <trkpt lat="48.72324" lon="7.33283">
        <ele>336.4</ele>
        <time>2020-11-28T10:37:57Z</time>
      </trkpt>
      <trkpt lat="48.72319" lon="7.33281">
        <ele>336.3</ele>
        <time>2020-11-28T10:37:59Z</time>
      </trkpt>
      <trkpt lat="48.72313" lon="7.33278">
        <ele>336.4</ele>
        <time>2020-11-28T10:38:01Z</time>
      </trkpt>
      <trkpt lat="48.72308" lon="7.33274">
        <ele>337.5</ele>
        <time>2020-11-28T10:38:03Z</time>
      </trkpt>
      <trkpt lat="48.723" lon="7.33267">
        <ele>338.6</ele>
        <time>2020-11-28T10:38:06Z</time>
      </trkpt>
      <trkpt lat="48.72295" lon="7.33265">
        <ele>338.6</ele>
        <time>2020-11-28T10:38:08Z</time>
      </trkpt>
      <trkpt lat="48.7229" lon="7.33262">
        <ele>338.8</ele>
        <time>2020-11-28T10:38:10Z</time>
      </trkpt>
      <trkpt lat="48.72285" lon="7.3326">
        <ele>339.2</ele>
        <time>2020-11-28T10:38:12Z</time>
      </trkpt>
      <trkpt lat="48.7228" lon="7.33258">
        <ele>339.5</ele>
        <time>2020-11-28T10:38:14Z</time>
      </trkpt>
      <trkpt lat="48.72274" lon="7.33258">
        <ele>340.1</ele>
        <time>2020-11-28T10:38:16Z</time>
      </trkpt>
      <trkpt lat="48.72268" lon="7.33257">
        <ele>340.4</ele>
        <time>2020-11-28T10:38:18Z</time>
      </trkpt>
      <trkpt lat="48.72262" lon="7.33255">
        <ele>340.2</ele>
        <time>2020-11-28T10:38:20Z</time>
      </trkpt>
      <trkpt lat="48.72255" lon="7.33254">
        <ele>340.3</ele>
        <time>2020-11-28T10:38:22Z</time>
      </trkpt>
      <trkpt lat="48.7225" lon="7.33252">
        <ele>340.5</ele>
        <time>2020-11-28T10:38:24Z</time>
      </trkpt>
      <trkpt lat="48.72244" lon="7.33249">
        <ele>340.8</ele>
        <time>2020-11-28T10:38:26Z</time>
      </trkpt>
      <trkpt lat="48.72238" lon="7.33245">
        <ele>340.6</ele>
        <time>2020-11-28T10:38:28Z</time>
      </trkpt>
      <trkpt lat="48.72232" lon="7.33241">
        <ele>341.5</ele>
        <time>2020-11-28T10:38:30Z</time>
      </trkpt>
      <trkpt lat="48.72226" lon="7.33239">
        <ele>341.5</ele>
        <time>2020-11-28T10:38:32Z</time>
      </trkpt>
      <trkpt lat="48.7222" lon="7.33239">
        <ele>341</ele>
        <time>2020-11-28T10:38:34Z</time>
      </trkpt>
      <trkpt lat="48.72215" lon="7.33239">
        <ele>341.1</ele>
        <time>2020-11-28T10:38:36Z</time>
      </trkpt>
      <trkpt lat="48.72207" lon="7.33237">
        <ele>341</ele>
        <time>2020-11-28T10:38:39Z</time>
      </trkpt>
      <trkpt lat="48.72202" lon="7.33235">
        <ele>341.2</ele>
        <time>2020-11-28T10:38:41Z</time>
      </trkpt>
      <trkpt lat="48.72197" lon="7.33231">
        <ele>342</ele>
        <time>2020-11-28T10:38:43Z</time>
      </trkpt>
      <trkpt lat="48.72193" lon="7.33227">
        <ele>342.4</ele>
        <time>2020-11-28T10:38:45Z</time>
      </trkpt>
      <trkpt lat="48.72189" lon="7.33224">
        <ele>342.1</ele>
        <time>2020-11-28T10:38:47Z</time>
      </trkpt>
      <trkpt lat="48.72183" lon="7.33221">
        <ele>341.9</ele>
        <time>2020-11-28T10:38:50Z</time>
      </trkpt>
      <trkpt lat="48.72179" lon="7.33218">
        <ele>341.7</ele>
        <time>2020-11-28T10:38:53Z</time>
      </trkpt>
      <trkpt lat="48.72175" lon="7.33216">
        <ele>342</ele>
        <time>2020-11-28T10:39:00Z</time>
      </trkpt>
      <trkpt lat="48.7217" lon="7.33213">
        <ele>341.6</ele>
        <time>2020-11-28T10:39:09Z</time>
      </trkpt>
      <trkpt lat="48.72166" lon="7.33207">
        <ele>341.7</ele>
        <time>2020-11-28T10:39:11Z</time>
      </trkpt>
      <trkpt lat="48.72161" lon="7.33199">
        <ele>341.3</ele>
        <time>2020-11-28T10:39:13Z</time>
      </trkpt>
      <trkpt lat="48.72156" lon="7.33189">
        <ele>341.3</ele>
        <time>2020-11-28T10:39:15Z</time>
      </trkpt>
      <trkpt lat="48.72151" lon="7.3318">
        <ele>342</ele>
        <time>2020-11-28T10:39:17Z</time>
      </trkpt>
      <trkpt lat="48.72144" lon="7.33165">
        <ele>342.7</ele>
        <time>2020-11-28T10:39:20Z</time>
      </trkpt>
      <trkpt lat="48.7214" lon="7.33151">
        <ele>343.2</ele>
        <time>2020-11-28T10:39:22Z</time>
      </trkpt>
      <trkpt lat="48.72138" lon="7.33131">
        <ele>343.5</ele>
        <time>2020-11-28T10:39:25Z</time>
      </trkpt>
      <trkpt lat="48.72136" lon="7.33112">
        <ele>342.5</ele>
        <time>2020-11-28T10:39:28Z</time>
      </trkpt>
      <trkpt lat="48.72136" lon="7.331">
        <ele>342.8</ele>
        <time>2020-11-28T10:39:30Z</time>
      </trkpt>
      <trkpt lat="48.72136" lon="7.3309">
        <ele>344.6</ele>
        <time>2020-11-28T10:39:32Z</time>
      </trkpt>
      <trkpt lat="48.72137" lon="7.3308">
        <ele>345.8</ele>
        <time>2020-11-28T10:39:34Z</time>
      </trkpt>
      <trkpt lat="48.72137" lon="7.33072">
        <ele>346.5</ele>
        <time>2020-11-28T10:39:36Z</time>
      </trkpt>
      <trkpt lat="48.72136" lon="7.33064">
        <ele>347.5</ele>
        <time>2020-11-28T10:39:38Z</time>
      </trkpt>
      <trkpt lat="48.72136" lon="7.33054">
        <ele>348.1</ele>
        <time>2020-11-28T10:39:40Z</time>
      </trkpt>
      <trkpt lat="48.72136" lon="7.33047">
        <ele>347.8</ele>
        <time>2020-11-28T10:39:43Z</time>
      </trkpt>
      <trkpt lat="48.72138" lon="7.33039">
        <ele>343.9</ele>
        <time>2020-11-28T10:41:28Z</time>
      </trkpt>
      <trkpt lat="48.72137" lon="7.33032">
        <ele>344.4</ele>
        <time>2020-11-28T10:41:30Z</time>
      </trkpt>
      <trkpt lat="48.72136" lon="7.33022">
        <ele>345</ele>
        <time>2020-11-28T10:41:33Z</time>
      </trkpt>
      <trkpt lat="48.72136" lon="7.33013">
        <ele>345.5</ele>
        <time>2020-11-28T10:41:35Z</time>
      </trkpt>
      <trkpt lat="48.72136" lon="7.33003">
        <ele>346</ele>
        <time>2020-11-28T10:41:37Z</time>
      </trkpt>
      <trkpt lat="48.72137" lon="7.32993">
        <ele>346.2</ele>
        <time>2020-11-28T10:41:39Z</time>
      </trkpt>
      <trkpt lat="48.72138" lon="7.32983">
        <ele>346.6</ele>
        <time>2020-11-28T10:41:41Z</time>
      </trkpt>
      <trkpt lat="48.72139" lon="7.32972">
        <ele>346.8</ele>
        <time>2020-11-28T10:41:43Z</time>
      </trkpt>
      <trkpt lat="48.7214" lon="7.32962">
        <ele>347.6</ele>
        <time>2020-11-28T10:41:45Z</time>
      </trkpt>
      <trkpt lat="48.7214" lon="7.32953">
        <ele>347.9</ele>
        <time>2020-11-28T10:41:47Z</time>
      </trkpt>
      <trkpt lat="48.72141" lon="7.32943">
        <ele>348.2</ele>
        <time>2020-11-28T10:41:49Z</time>
      </trkpt>
      <trkpt lat="48.72142" lon="7.32934">
        <ele>348.3</ele>
        <time>2020-11-28T10:41:51Z</time>
      </trkpt>
      <trkpt lat="48.72143" lon="7.32925">
        <ele>348.1</ele>
        <time>2020-11-28T10:41:53Z</time>
      </trkpt>
      <trkpt lat="48.72144" lon="7.32914">
        <ele>348</ele>
        <time>2020-11-28T10:41:55Z</time>
      </trkpt>
      <trkpt lat="48.72143" lon="7.32904">
        <ele>348.4</ele>
        <time>2020-11-28T10:41:57Z</time>
      </trkpt>
      <trkpt lat="48.72142" lon="7.32892">
        <ele>348.5</ele>
        <time>2020-11-28T10:41:59Z</time>
      </trkpt>
      <trkpt lat="48.72141" lon="7.32881">
        <ele>349</ele>
        <time>2020-11-28T10:42:01Z</time>
      </trkpt>
      <trkpt lat="48.7214" lon="7.3287">
        <ele>349.6</ele>
        <time>2020-11-28T10:42:03Z</time>
      </trkpt>
      <trkpt lat="48.72139" lon="7.32859">
        <ele>348.9</ele>
        <time>2020-11-28T10:42:05Z</time>
      </trkpt>
      <trkpt lat="48.72137" lon="7.32848">
        <ele>348.9</ele>
        <time>2020-11-28T10:42:07Z</time>
      </trkpt>
      <trkpt lat="48.72134" lon="7.32838">
        <ele>348.7</ele>
        <time>2020-11-28T10:42:09Z</time>
      </trkpt>
      <trkpt lat="48.7213" lon="7.32827">
        <ele>348.7</ele>
        <time>2020-11-28T10:42:11Z</time>
      </trkpt>
      <trkpt lat="48.72127" lon="7.32817">
        <ele>348.8</ele>
        <time>2020-11-28T10:42:13Z</time>
      </trkpt>
      <trkpt lat="48.72123" lon="7.32808">
        <ele>348.5</ele>
        <time>2020-11-28T10:42:15Z</time>
      </trkpt>
      <trkpt lat="48.72119" lon="7.32799">
        <ele>348.4</ele>
        <time>2020-11-28T10:42:17Z</time>
      </trkpt>
      <trkpt lat="48.72115" lon="7.32791">
        <ele>347.9</ele>
        <time>2020-11-28T10:42:19Z</time>
      </trkpt>
      <trkpt lat="48.72111" lon="7.32784">
        <ele>347.9</ele>
        <time>2020-11-28T10:42:21Z</time>
      </trkpt>
      <trkpt lat="48.72107" lon="7.32777">
        <ele>347.6</ele>
        <time>2020-11-28T10:42:23Z</time>
      </trkpt>
      <trkpt lat="48.72103" lon="7.3277">
        <ele>347.6</ele>
        <time>2020-11-28T10:42:25Z</time>
      </trkpt>
      <trkpt lat="48.72095" lon="7.32762">
        <ele>347.1</ele>
        <time>2020-11-28T10:42:28Z</time>
      </trkpt>
      <trkpt lat="48.7209" lon="7.32757">
        <ele>346.3</ele>
        <time>2020-11-28T10:42:30Z</time>
      </trkpt>
      <trkpt lat="48.72085" lon="7.32751">
        <ele>346</ele>
        <time>2020-11-28T10:42:32Z</time>
      </trkpt>
      <trkpt lat="48.7208" lon="7.32746">
        <ele>345.7</ele>
        <time>2020-11-28T10:42:34Z</time>
      </trkpt>
      <trkpt lat="48.72074" lon="7.32742">
        <ele>345.5</ele>
        <time>2020-11-28T10:42:36Z</time>
      </trkpt>
      <trkpt lat="48.72069" lon="7.32738">
        <ele>345.4</ele>
        <time>2020-11-28T10:42:38Z</time>
      </trkpt>
      <trkpt lat="48.72064" lon="7.32734">
        <ele>345.6</ele>
        <time>2020-11-28T10:42:40Z</time>
      </trkpt>
      <trkpt lat="48.72058" lon="7.3273">
        <ele>345</ele>
        <time>2020-11-28T10:42:42Z</time>
      </trkpt>
      <trkpt lat="48.72052" lon="7.32727">
        <ele>344.8</ele>
        <time>2020-11-28T10:42:44Z</time>
      </trkpt>
      <trkpt lat="48.72046" lon="7.32725">
        <ele>344.3</ele>
        <time>2020-11-28T10:42:46Z</time>
      </trkpt>
      <trkpt lat="48.7204" lon="7.32723">
        <ele>343.7</ele>
        <time>2020-11-28T10:42:48Z</time>
      </trkpt>
      <trkpt lat="48.72033" lon="7.32721">
        <ele>343.1</ele>
        <time>2020-11-28T10:42:50Z</time>
      </trkpt>
      <trkpt lat="48.72026" lon="7.32719">
        <ele>343</ele>
        <time>2020-11-28T10:42:52Z</time>
      </trkpt>
      <trkpt lat="48.7202" lon="7.32717">
        <ele>342.9</ele>
        <time>2020-11-28T10:42:54Z</time>
      </trkpt>
      <trkpt lat="48.72013" lon="7.32715">
        <ele>343.1</ele>
        <time>2020-11-28T10:42:56Z</time>
      </trkpt>
      <trkpt lat="48.72007" lon="7.32715">
        <ele>343.5</ele>
        <time>2020-11-28T10:42:58Z</time>
      </trkpt>
      <trkpt lat="48.72" lon="7.32714">
        <ele>343.8</ele>
        <time>2020-11-28T10:43:00Z</time>
      </trkpt>
      <trkpt lat="48.71993" lon="7.32714">
        <ele>344.6</ele>
        <time>2020-11-28T10:43:02Z</time>
      </trkpt>
      <trkpt lat="48.71986" lon="7.32713">
        <ele>345</ele>
        <time>2020-11-28T10:43:04Z</time>
      </trkpt>
      <trkpt lat="48.71979" lon="7.32714">
        <ele>345.8</ele>
        <time>2020-11-28T10:43:06Z</time>
      </trkpt>
      <trkpt lat="48.71972" lon="7.32713">
        <ele>346.4</ele>
        <time>2020-11-28T10:43:08Z</time>
      </trkpt>
      <trkpt lat="48.71965" lon="7.32713">
        <ele>346.8</ele>
        <time>2020-11-28T10:43:10Z</time>
      </trkpt>
      <trkpt lat="48.71958" lon="7.32713">
        <ele>347.3</ele>
        <time>2020-11-28T10:43:12Z</time>
      </trkpt>
      <trkpt lat="48.71952" lon="7.32713">
        <ele>348</ele>
        <time>2020-11-28T10:43:14Z</time>
      </trkpt>
      <trkpt lat="48.71942" lon="7.32716">
        <ele>348.4</ele>
        <time>2020-11-28T10:43:17Z</time>
      </trkpt>
      <trkpt lat="48.71937" lon="7.32718">
        <ele>348.1</ele>
        <time>2020-11-28T10:43:19Z</time>
      </trkpt>
      <trkpt lat="48.71931" lon="7.32721">
        <ele>349</ele>
        <time>2020-11-28T10:43:21Z</time>
      </trkpt>
      <trkpt lat="48.71922" lon="7.32725">
        <ele>349.9</ele>
        <time>2020-11-28T10:43:24Z</time>
      </trkpt>
      <trkpt lat="48.71917" lon="7.32727">
        <ele>350.4</ele>
        <time>2020-11-28T10:43:26Z</time>
      </trkpt>
      <trkpt lat="48.71912" lon="7.32729">
        <ele>351.8</ele>
        <time>2020-11-28T10:43:28Z</time>
      </trkpt>
      <trkpt lat="48.71906" lon="7.32733">
        <ele>352.3</ele>
        <time>2020-11-28T10:43:30Z</time>
      </trkpt>
      <trkpt lat="48.71898" lon="7.32738">
        <ele>353.5</ele>
        <time>2020-11-28T10:43:33Z</time>
      </trkpt>
      <trkpt lat="48.71892" lon="7.32741">
        <ele>354.1</ele>
        <time>2020-11-28T10:43:35Z</time>
      </trkpt>
      <trkpt lat="48.71887" lon="7.32745">
        <ele>355</ele>
        <time>2020-11-28T10:43:37Z</time>
      </trkpt>
      <trkpt lat="48.71882" lon="7.32748">
        <ele>355.7</ele>
        <time>2020-11-28T10:43:39Z</time>
      </trkpt>
      <trkpt lat="48.71877" lon="7.32753">
        <ele>356.1</ele>
        <time>2020-11-28T10:43:41Z</time>
      </trkpt>
      <trkpt lat="48.71872" lon="7.32757">
        <ele>356.2</ele>
        <time>2020-11-28T10:43:43Z</time>
      </trkpt>
      <trkpt lat="48.71867" lon="7.32763">
        <ele>356.1</ele>
        <time>2020-11-28T10:43:45Z</time>
      </trkpt>
      <trkpt lat="48.71861" lon="7.32769">
        <ele>355.7</ele>
        <time>2020-11-28T10:43:47Z</time>
      </trkpt>
      <trkpt lat="48.71854" lon="7.32775">
        <ele>355.3</ele>
        <time>2020-11-28T10:43:49Z</time>
      </trkpt>
      <trkpt lat="48.71848" lon="7.32781">
        <ele>354.6</ele>
        <time>2020-11-28T10:43:51Z</time>
      </trkpt>
      <trkpt lat="48.71841" lon="7.32786">
        <ele>354.2</ele>
        <time>2020-11-28T10:43:53Z</time>
      </trkpt>
      <trkpt lat="48.71834" lon="7.32791">
        <ele>354.1</ele>
        <time>2020-11-28T10:43:55Z</time>
      </trkpt>
      <trkpt lat="48.71827" lon="7.32796">
        <ele>354.1</ele>
        <time>2020-11-28T10:43:57Z</time>
      </trkpt>
      <trkpt lat="48.71818" lon="7.328">
        <ele>354.1</ele>
        <time>2020-11-28T10:43:59Z</time>
      </trkpt>
      <trkpt lat="48.71809" lon="7.32805">
        <ele>354.2</ele>
        <time>2020-11-28T10:44:01Z</time>
      </trkpt>
      <trkpt lat="48.71801" lon="7.32806">
        <ele>355.5</ele>
        <time>2020-11-28T10:44:03Z</time>
      </trkpt>
      <trkpt lat="48.71791" lon="7.32808">
        <ele>356.3</ele>
        <time>2020-11-28T10:44:05Z</time>
      </trkpt>
      <trkpt lat="48.7178" lon="7.32808">
        <ele>356.8</ele>
        <time>2020-11-28T10:44:07Z</time>
      </trkpt>
      <trkpt lat="48.71769" lon="7.32808">
        <ele>357</ele>
        <time>2020-11-28T10:44:09Z</time>
      </trkpt>
      <trkpt lat="48.71758" lon="7.32806">
        <ele>357.2</ele>
        <time>2020-11-28T10:44:11Z</time>
      </trkpt>
      <trkpt lat="48.71746" lon="7.32804">
        <ele>357</ele>
        <time>2020-11-28T10:44:13Z</time>
      </trkpt>
      <trkpt lat="48.71734" lon="7.32802">
        <ele>357.3</ele>
        <time>2020-11-28T10:44:15Z</time>
      </trkpt>
      <trkpt lat="48.71723" lon="7.32802">
        <ele>357.2</ele>
        <time>2020-11-28T10:44:17Z</time>
      </trkpt>
      <trkpt lat="48.71714" lon="7.32802">
        <ele>356.9</ele>
        <time>2020-11-28T10:44:19Z</time>
      </trkpt>
      <trkpt lat="48.71703" lon="7.32804">
        <ele>357.2</ele>
        <time>2020-11-28T10:44:21Z</time>
      </trkpt>
      <trkpt lat="48.71694" lon="7.32808">
        <ele>357.6</ele>
        <time>2020-11-28T10:44:23Z</time>
      </trkpt>
      <trkpt lat="48.71684" lon="7.32814">
        <ele>357.4</ele>
        <time>2020-11-28T10:44:25Z</time>
      </trkpt>
      <trkpt lat="48.71674" lon="7.32824">
        <ele>357.4</ele>
        <time>2020-11-28T10:44:27Z</time>
      </trkpt>
      <trkpt lat="48.71666" lon="7.32836">
        <ele>357.1</ele>
        <time>2020-11-28T10:44:29Z</time>
      </trkpt>
      <trkpt lat="48.71659" lon="7.32849">
        <ele>357.4</ele>
        <time>2020-11-28T10:44:31Z</time>
      </trkpt>
      <trkpt lat="48.71653" lon="7.32865">
        <ele>356.9</ele>
        <time>2020-11-28T10:44:33Z</time>
      </trkpt>
      <trkpt lat="48.71648" lon="7.32878">
        <ele>356.8</ele>
        <time>2020-11-28T10:44:35Z</time>
      </trkpt>
      <trkpt lat="48.71641" lon="7.3289">
        <ele>357.1</ele>
        <time>2020-11-28T10:44:37Z</time>
      </trkpt>
      <trkpt lat="48.71632" lon="7.32899">
        <ele>357.3</ele>
        <time>2020-11-28T10:44:39Z</time>
      </trkpt>
      <trkpt lat="48.71622" lon="7.32901">
        <ele>357.9</ele>
        <time>2020-11-28T10:44:41Z</time>
      </trkpt>
      <trkpt lat="48.71612" lon="7.32898">
        <ele>358.2</ele>
        <time>2020-11-28T10:44:43Z</time>
      </trkpt>
      <trkpt lat="48.71601" lon="7.32894">
        <ele>358.6</ele>
        <time>2020-11-28T10:44:45Z</time>
      </trkpt>
      <trkpt lat="48.71591" lon="7.32889">
        <ele>358.8</ele>
        <time>2020-11-28T10:44:47Z</time>
      </trkpt>
      <trkpt lat="48.71581" lon="7.32884">
        <ele>359.1</ele>
        <time>2020-11-28T10:44:49Z</time>
      </trkpt>
      <trkpt lat="48.7157" lon="7.32879">
        <ele>359.6</ele>
        <time>2020-11-28T10:44:51Z</time>
      </trkpt>
      <trkpt lat="48.71559" lon="7.32876">
        <ele>360.6</ele>
        <time>2020-11-28T10:44:53Z</time>
      </trkpt>
      <trkpt lat="48.71548" lon="7.32875">
        <ele>361.9</ele>
        <time>2020-11-28T10:44:55Z</time>
      </trkpt>
      <trkpt lat="48.71538" lon="7.32874">
        <ele>362.2</ele>
        <time>2020-11-28T10:44:57Z</time>
      </trkpt>
      <trkpt lat="48.71528" lon="7.32873">
        <ele>362.3</ele>
        <time>2020-11-28T10:44:59Z</time>
      </trkpt>
      <trkpt lat="48.7152" lon="7.32871">
        <ele>362.2</ele>
        <time>2020-11-28T10:45:01Z</time>
      </trkpt>
      <trkpt lat="48.7151" lon="7.32868">
        <ele>362.9</ele>
        <time>2020-11-28T10:45:03Z</time>
      </trkpt>
      <trkpt lat="48.71501" lon="7.32867">
        <ele>363.8</ele>
        <time>2020-11-28T10:45:05Z</time>
      </trkpt>
      <trkpt lat="48.71491" lon="7.32866">
        <ele>364.2</ele>
        <time>2020-11-28T10:45:07Z</time>
      </trkpt>
      <trkpt lat="48.71481" lon="7.32866">
        <ele>365.3</ele>
        <time>2020-11-28T10:45:09Z</time>
      </trkpt>
      <trkpt lat="48.71471" lon="7.32868">
        <ele>365.6</ele>
        <time>2020-11-28T10:45:11Z</time>
      </trkpt>
      <trkpt lat="48.71462" lon="7.32869">
        <ele>365.4</ele>
        <time>2020-11-28T10:45:13Z</time>
      </trkpt>
      <trkpt lat="48.71454" lon="7.32871">
        <ele>365.1</ele>
        <time>2020-11-28T10:45:15Z</time>
      </trkpt>
      <trkpt lat="48.71445" lon="7.32874">
        <ele>364.9</ele>
        <time>2020-11-28T10:45:17Z</time>
      </trkpt>
      <trkpt lat="48.71434" lon="7.32876">
        <ele>365.4</ele>
        <time>2020-11-28T10:45:19Z</time>
      </trkpt>
      <trkpt lat="48.71424" lon="7.32879">
        <ele>366.1</ele>
        <time>2020-11-28T10:45:21Z</time>
      </trkpt>
      <trkpt lat="48.71414" lon="7.32882">
        <ele>366.7</ele>
        <time>2020-11-28T10:45:23Z</time>
      </trkpt>
      <trkpt lat="48.71404" lon="7.32884">
        <ele>367.3</ele>
        <time>2020-11-28T10:45:25Z</time>
      </trkpt>
      <trkpt lat="48.71394" lon="7.32885">
        <ele>367.7</ele>
        <time>2020-11-28T10:45:27Z</time>
      </trkpt>
      <trkpt lat="48.71383" lon="7.32886">
        <ele>368.5</ele>
        <time>2020-11-28T10:45:29Z</time>
      </trkpt>
      <trkpt lat="48.71371" lon="7.32888">
        <ele>368.7</ele>
        <time>2020-11-28T10:45:31Z</time>
      </trkpt>
      <trkpt lat="48.71359" lon="7.32889">
        <ele>369.4</ele>
        <time>2020-11-28T10:45:33Z</time>
      </trkpt>
      <trkpt lat="48.71347" lon="7.32891">
        <ele>370.5</ele>
        <time>2020-11-28T10:45:35Z</time>
      </trkpt>
      <trkpt lat="48.71336" lon="7.32893">
        <ele>371</ele>
        <time>2020-11-28T10:45:37Z</time>
      </trkpt>
      <trkpt lat="48.71325" lon="7.32895">
        <ele>370.8</ele>
        <time>2020-11-28T10:45:39Z</time>
      </trkpt>
      <trkpt lat="48.71313" lon="7.32896">
        <ele>371.6</ele>
        <time>2020-11-28T10:45:41Z</time>
      </trkpt>
      <trkpt lat="48.71301" lon="7.32895">
        <ele>372</ele>
        <time>2020-11-28T10:45:43Z</time>
      </trkpt>
      <trkpt lat="48.71288" lon="7.32893">
        <ele>372.4</ele>
        <time>2020-11-28T10:45:45Z</time>
      </trkpt>
      <trkpt lat="48.71275" lon="7.32891">
        <ele>371.9</ele>
        <time>2020-11-28T10:45:47Z</time>
      </trkpt>
      <trkpt lat="48.71264" lon="7.32886">
        <ele>372.5</ele>
        <time>2020-11-28T10:45:49Z</time>
      </trkpt>
      <trkpt lat="48.71251" lon="7.3288">
        <ele>372.2</ele>
        <time>2020-11-28T10:45:51Z</time>
      </trkpt>
      <trkpt lat="48.7124" lon="7.3287">
        <ele>372.5</ele>
        <time>2020-11-28T10:45:53Z</time>
      </trkpt>
      <trkpt lat="48.7123" lon="7.32857">
        <ele>372.8</ele>
        <time>2020-11-28T10:45:55Z</time>
      </trkpt>
      <trkpt lat="48.71219" lon="7.32843">
        <ele>373.2</ele>
        <time>2020-11-28T10:45:57Z</time>
      </trkpt>
      <trkpt lat="48.71209" lon="7.32828">
        <ele>373.6</ele>
        <time>2020-11-28T10:45:59Z</time>
      </trkpt>
      <trkpt lat="48.71199" lon="7.32815">
        <ele>373.9</ele>
        <time>2020-11-28T10:46:01Z</time>
      </trkpt>
      <trkpt lat="48.7119" lon="7.32803">
        <ele>374.6</ele>
        <time>2020-11-28T10:46:03Z</time>
      </trkpt>
      <trkpt lat="48.7118" lon="7.32792">
        <ele>374.8</ele>
        <time>2020-11-28T10:46:05Z</time>
      </trkpt>
      <trkpt lat="48.71169" lon="7.3278">
        <ele>375.2</ele>
        <time>2020-11-28T10:46:07Z</time>
      </trkpt>
      <trkpt lat="48.71158" lon="7.32769">
        <ele>375.2</ele>
        <time>2020-11-28T10:46:09Z</time>
      </trkpt>
      <trkpt lat="48.71147" lon="7.32758">
        <ele>374.9</ele>
        <time>2020-11-28T10:46:11Z</time>
      </trkpt>
      <trkpt lat="48.71135" lon="7.32748">
        <ele>375</ele>
        <time>2020-11-28T10:46:13Z</time>
      </trkpt>
      <trkpt lat="48.71124" lon="7.3274">
        <ele>373.8</ele>
        <time>2020-11-28T10:46:15Z</time>
      </trkpt>
      <trkpt lat="48.71115" lon="7.32729">
        <ele>373.1</ele>
        <time>2020-11-28T10:46:17Z</time>
      </trkpt>
      <trkpt lat="48.71105" lon="7.32716">
        <ele>372.9</ele>
        <time>2020-11-28T10:46:19Z</time>
      </trkpt>
      <trkpt lat="48.71098" lon="7.32701">
        <ele>372.6</ele>
        <time>2020-11-28T10:46:21Z</time>
      </trkpt>
      <trkpt lat="48.71096" lon="7.32682">
        <ele>372.6</ele>
        <time>2020-11-28T10:46:23Z</time>
      </trkpt>
      <trkpt lat="48.71103" lon="7.32653">
        <ele>371.8</ele>
        <time>2020-11-28T10:46:26Z</time>
      </trkpt>
      <trkpt lat="48.71112" lon="7.32636">
        <ele>371</ele>
        <time>2020-11-28T10:46:28Z</time>
      </trkpt>
      <trkpt lat="48.71124" lon="7.32618">
        <ele>371.1</ele>
        <time>2020-11-28T10:46:30Z</time>
      </trkpt>
      <trkpt lat="48.71136" lon="7.32601">
        <ele>370.4</ele>
        <time>2020-11-28T10:46:32Z</time>
      </trkpt>
      <trkpt lat="48.71148" lon="7.32586">
        <ele>370.7</ele>
        <time>2020-11-28T10:46:34Z</time>
      </trkpt>
      <trkpt lat="48.71161" lon="7.32571">
        <ele>370.4</ele>
        <time>2020-11-28T10:46:36Z</time>
      </trkpt>
      <trkpt lat="48.71174" lon="7.32557">
        <ele>370</ele>
        <time>2020-11-28T10:46:38Z</time>
      </trkpt>
      <trkpt lat="48.71185" lon="7.32544">
        <ele>369.2</ele>
        <time>2020-11-28T10:46:40Z</time>
      </trkpt>
      <trkpt lat="48.71196" lon="7.32531">
        <ele>368.7</ele>
        <time>2020-11-28T10:46:42Z</time>
      </trkpt>
      <trkpt lat="48.71206" lon="7.32518">
        <ele>368.1</ele>
        <time>2020-11-28T10:46:44Z</time>
      </trkpt>
      <trkpt lat="48.71216" lon="7.32504">
        <ele>368</ele>
        <time>2020-11-28T10:46:46Z</time>
      </trkpt>
      <trkpt lat="48.71223" lon="7.3249">
        <ele>368</ele>
        <time>2020-11-28T10:46:48Z</time>
      </trkpt>
      <trkpt lat="48.71229" lon="7.32478">
        <ele>368.4</ele>
        <time>2020-11-28T10:46:50Z</time>
      </trkpt>
      <trkpt lat="48.71237" lon="7.32465">
        <ele>368.6</ele>
        <time>2020-11-28T10:46:52Z</time>
      </trkpt>
      <trkpt lat="48.71245" lon="7.32452">
        <ele>369</ele>
        <time>2020-11-28T10:46:54Z</time>
      </trkpt>
      <trkpt lat="48.71253" lon="7.32437">
        <ele>369</ele>
        <time>2020-11-28T10:46:56Z</time>
      </trkpt>
      <trkpt lat="48.7126" lon="7.3242">
        <ele>369.3</ele>
        <time>2020-11-28T10:46:58Z</time>
      </trkpt>
      <trkpt lat="48.71267" lon="7.32402">
        <ele>368.8</ele>
        <time>2020-11-28T10:47:00Z</time>
      </trkpt>
      <trkpt lat="48.71272" lon="7.32384">
        <ele>368.4</ele>
        <time>2020-11-28T10:47:02Z</time>
      </trkpt>
      <trkpt lat="48.71277" lon="7.32364">
        <ele>368</ele>
        <time>2020-11-28T10:47:04Z</time>
      </trkpt>
      <trkpt lat="48.71282" lon="7.32341">
        <ele>368.1</ele>
        <time>2020-11-28T10:47:06Z</time>
      </trkpt>
      <trkpt lat="48.71287" lon="7.32319">
        <ele>368.5</ele>
        <time>2020-11-28T10:47:08Z</time>
      </trkpt>
      <trkpt lat="48.71292" lon="7.323">
        <ele>369.4</ele>
        <time>2020-11-28T10:47:10Z</time>
      </trkpt>
      <trkpt lat="48.71297" lon="7.3228">
        <ele>369.8</ele>
        <time>2020-11-28T10:47:12Z</time>
      </trkpt>
      <trkpt lat="48.71302" lon="7.32262">
        <ele>370.5</ele>
        <time>2020-11-28T10:47:14Z</time>
      </trkpt>
      <trkpt lat="48.71309" lon="7.32244">
        <ele>371</ele>
        <time>2020-11-28T10:47:16Z</time>
      </trkpt>
      <trkpt lat="48.71317" lon="7.32227">
        <ele>371</ele>
        <time>2020-11-28T10:47:18Z</time>
      </trkpt>
      <trkpt lat="48.71325" lon="7.32212">
        <ele>370.5</ele>
        <time>2020-11-28T10:47:20Z</time>
      </trkpt>
      <trkpt lat="48.71333" lon="7.32197">
        <ele>369.8</ele>
        <time>2020-11-28T10:47:22Z</time>
      </trkpt>
      <trkpt lat="48.71341" lon="7.32183">
        <ele>369.1</ele>
        <time>2020-11-28T10:47:24Z</time>
      </trkpt>
      <trkpt lat="48.7135" lon="7.32171">
        <ele>368.8</ele>
        <time>2020-11-28T10:47:26Z</time>
      </trkpt>
      <trkpt lat="48.71361" lon="7.3216">
        <ele>368.6</ele>
        <time>2020-11-28T10:47:28Z</time>
      </trkpt>
      <trkpt lat="48.71373" lon="7.3215">
        <ele>368</ele>
        <time>2020-11-28T10:47:30Z</time>
      </trkpt>
      <trkpt lat="48.71384" lon="7.3214">
        <ele>367.6</ele>
        <time>2020-11-28T10:47:32Z</time>
      </trkpt>
      <trkpt lat="48.71395" lon="7.32131">
        <ele>367</ele>
        <time>2020-11-28T10:47:34Z</time>
      </trkpt>
      <trkpt lat="48.71406" lon="7.32122">
        <ele>366.7</ele>
        <time>2020-11-28T10:47:36Z</time>
      </trkpt>
      <trkpt lat="48.71418" lon="7.32114">
        <ele>367.1</ele>
        <time>2020-11-28T10:47:38Z</time>
      </trkpt>
      <trkpt lat="48.71429" lon="7.32107">
        <ele>367.3</ele>
        <time>2020-11-28T10:47:40Z</time>
      </trkpt>
      <trkpt lat="48.7144" lon="7.32101">
        <ele>367.2</ele>
        <time>2020-11-28T10:47:42Z</time>
      </trkpt>
      <trkpt lat="48.71449" lon="7.32096">
        <ele>367.2</ele>
        <time>2020-11-28T10:47:44Z</time>
      </trkpt>
      <trkpt lat="48.71459" lon="7.32091">
        <ele>367</ele>
        <time>2020-11-28T10:47:46Z</time>
      </trkpt>
      <trkpt lat="48.71468" lon="7.32086">
        <ele>367.4</ele>
        <time>2020-11-28T10:47:48Z</time>
      </trkpt>
      <trkpt lat="48.71477" lon="7.3208">
        <ele>368</ele>
        <time>2020-11-28T10:47:50Z</time>
      </trkpt>
      <trkpt lat="48.71486" lon="7.32071">
        <ele>368.6</ele>
        <time>2020-11-28T10:47:52Z</time>
      </trkpt>
      <trkpt lat="48.7149" lon="7.32059">
        <ele>369</ele>
        <time>2020-11-28T10:47:54Z</time>
      </trkpt>
      <trkpt lat="48.71492" lon="7.32045">
        <ele>369.6</ele>
        <time>2020-11-28T10:47:56Z</time>
      </trkpt>
      <trkpt lat="48.71491" lon="7.3203">
        <ele>370.6</ele>
        <time>2020-11-28T10:47:58Z</time>
      </trkpt>
      <trkpt lat="48.71487" lon="7.32018">
        <ele>371.8</ele>
        <time>2020-11-28T10:48:00Z</time>
      </trkpt>
      <trkpt lat="48.71482" lon="7.32007">
        <ele>372.6</ele>
        <time>2020-11-28T10:48:02Z</time>
      </trkpt>
      <trkpt lat="48.71476" lon="7.31998">
        <ele>373.3</ele>
        <time>2020-11-28T10:48:04Z</time>
      </trkpt>
      <trkpt lat="48.71469" lon="7.31989">
        <ele>373.6</ele>
        <time>2020-11-28T10:48:06Z</time>
      </trkpt>
      <trkpt lat="48.71462" lon="7.31979">
        <ele>374</ele>
        <time>2020-11-28T10:48:08Z</time>
      </trkpt>
      <trkpt lat="48.71455" lon="7.31969">
        <ele>375.4</ele>
        <time>2020-11-28T10:48:10Z</time>
      </trkpt>
      <trkpt lat="48.71446" lon="7.31957">
        <ele>376.3</ele>
        <time>2020-11-28T10:48:12Z</time>
      </trkpt>
      <trkpt lat="48.71436" lon="7.31945">
        <ele>376.6</ele>
        <time>2020-11-28T10:48:14Z</time>
      </trkpt>
      <trkpt lat="48.71426" lon="7.31933">
        <ele>376.7</ele>
        <time>2020-11-28T10:48:16Z</time>
      </trkpt>
      <trkpt lat="48.71416" lon="7.31924">
        <ele>376.9</ele>
        <time>2020-11-28T10:48:18Z</time>
      </trkpt>
      <trkpt lat="48.71406" lon="7.31915">
        <ele>376.8</ele>
        <time>2020-11-28T10:48:20Z</time>
      </trkpt>
      <trkpt lat="48.71394" lon="7.31909">
        <ele>376.8</ele>
        <time>2020-11-28T10:48:22Z</time>
      </trkpt>
      <trkpt lat="48.71382" lon="7.31904">
        <ele>376.2</ele>
        <time>2020-11-28T10:48:24Z</time>
      </trkpt>
      <trkpt lat="48.71369" lon="7.319">
        <ele>375.6</ele>
        <time>2020-11-28T10:48:26Z</time>
      </trkpt>
      <trkpt lat="48.71357" lon="7.31895">
        <ele>374.6</ele>
        <time>2020-11-28T10:48:28Z</time>
      </trkpt>
      <trkpt lat="48.71343" lon="7.3189">
        <ele>374.1</ele>
        <time>2020-11-28T10:48:30Z</time>
      </trkpt>
      <trkpt lat="48.71329" lon="7.31886">
        <ele>373.3</ele>
        <time>2020-11-28T10:48:32Z</time>
      </trkpt>
      <trkpt lat="48.71315" lon="7.31882">
        <ele>373</ele>
        <time>2020-11-28T10:48:34Z</time>
      </trkpt>
      <trkpt lat="48.71302" lon="7.31879">
        <ele>372.9</ele>
        <time>2020-11-28T10:48:36Z</time>
      </trkpt>
      <trkpt lat="48.71288" lon="7.31876">
        <ele>373.3</ele>
        <time>2020-11-28T10:48:38Z</time>
      </trkpt>
      <trkpt lat="48.71276" lon="7.31875">
        <ele>373.7</ele>
        <time>2020-11-28T10:48:40Z</time>
      </trkpt>
      <trkpt lat="48.71264" lon="7.31875">
        <ele>373.7</ele>
        <time>2020-11-28T10:48:42Z</time>
      </trkpt>
      <trkpt lat="48.71253" lon="7.31875">
        <ele>374</ele>
        <time>2020-11-28T10:48:44Z</time>
      </trkpt>
      <trkpt lat="48.71243" lon="7.31875">
        <ele>374.2</ele>
        <time>2020-11-28T10:48:46Z</time>
      </trkpt>
      <trkpt lat="48.71233" lon="7.31878">
        <ele>373.4</ele>
        <time>2020-11-28T10:48:48Z</time>
      </trkpt>
      <trkpt lat="48.71223" lon="7.3188">
        <ele>373.1</ele>
        <time>2020-11-28T10:48:50Z</time>
      </trkpt>
      <trkpt lat="48.71213" lon="7.31882">
        <ele>372.8</ele>
        <time>2020-11-28T10:48:52Z</time>
      </trkpt>
      <trkpt lat="48.71204" lon="7.31884">
        <ele>372.8</ele>
        <time>2020-11-28T10:48:54Z</time>
      </trkpt>
      <trkpt lat="48.71193" lon="7.31886">
        <ele>372.8</ele>
        <time>2020-11-28T10:48:56Z</time>
      </trkpt>
      <trkpt lat="48.71183" lon="7.31888">
        <ele>373.1</ele>
        <time>2020-11-28T10:48:58Z</time>
      </trkpt>
      <trkpt lat="48.71173" lon="7.31888">
        <ele>373.8</ele>
        <time>2020-11-28T10:49:00Z</time>
      </trkpt>
      <trkpt lat="48.71164" lon="7.31885">
        <ele>374.9</ele>
        <time>2020-11-28T10:49:02Z</time>
      </trkpt>
      <trkpt lat="48.71155" lon="7.31881">
        <ele>375.6</ele>
        <time>2020-11-28T10:49:04Z</time>
      </trkpt>
      <trkpt lat="48.71146" lon="7.31876">
        <ele>376.6</ele>
        <time>2020-11-28T10:49:06Z</time>
      </trkpt>
      <trkpt lat="48.71137" lon="7.31867">
        <ele>377.9</ele>
        <time>2020-11-28T10:49:08Z</time>
      </trkpt>
      <trkpt lat="48.71129" lon="7.31857">
        <ele>379.1</ele>
        <time>2020-11-28T10:49:10Z</time>
      </trkpt>
      <trkpt lat="48.71122" lon="7.31847">
        <ele>380.4</ele>
        <time>2020-11-28T10:49:12Z</time>
      </trkpt>
      <trkpt lat="48.71114" lon="7.31836">
        <ele>381.6</ele>
        <time>2020-11-28T10:49:14Z</time>
      </trkpt>
      <trkpt lat="48.71108" lon="7.31826">
        <ele>382.8</ele>
        <time>2020-11-28T10:49:16Z</time>
      </trkpt>
      <trkpt lat="48.71102" lon="7.31812">
        <ele>384.2</ele>
        <time>2020-11-28T10:49:18Z</time>
      </trkpt>
      <trkpt lat="48.71098" lon="7.31796">
        <ele>385.4</ele>
        <time>2020-11-28T10:49:20Z</time>
      </trkpt>
      <trkpt lat="48.71095" lon="7.31781">
        <ele>386.6</ele>
        <time>2020-11-28T10:49:22Z</time>
      </trkpt>
      <trkpt lat="48.71092" lon="7.31767">
        <ele>386.8</ele>
        <time>2020-11-28T10:49:24Z</time>
      </trkpt>
      <trkpt lat="48.71088" lon="7.31752">
        <ele>387.7</ele>
        <time>2020-11-28T10:49:26Z</time>
      </trkpt>
      <trkpt lat="48.71085" lon="7.31738">
        <ele>387.3</ele>
        <time>2020-11-28T10:49:28Z</time>
      </trkpt>
      <trkpt lat="48.71082" lon="7.31725">
        <ele>387.5</ele>
        <time>2020-11-28T10:49:30Z</time>
      </trkpt>
      <trkpt lat="48.71079" lon="7.3171">
        <ele>387.2</ele>
        <time>2020-11-28T10:49:32Z</time>
      </trkpt>
      <trkpt lat="48.71075" lon="7.31695">
        <ele>386.9</ele>
        <time>2020-11-28T10:49:34Z</time>
      </trkpt>
      <trkpt lat="48.71072" lon="7.31681">
        <ele>386</ele>
        <time>2020-11-28T10:49:36Z</time>
      </trkpt>
      <trkpt lat="48.71067" lon="7.31667">
        <ele>385.5</ele>
        <time>2020-11-28T10:49:38Z</time>
      </trkpt>
      <trkpt lat="48.71063" lon="7.31653">
        <ele>384.7</ele>
        <time>2020-11-28T10:49:40Z</time>
      </trkpt>
      <trkpt lat="48.71058" lon="7.3164">
        <ele>384.1</ele>
        <time>2020-11-28T10:49:42Z</time>
      </trkpt>
      <trkpt lat="48.71052" lon="7.31625">
        <ele>383.6</ele>
        <time>2020-11-28T10:49:44Z</time>
      </trkpt>
      <trkpt lat="48.71046" lon="7.3161">
        <ele>383.3</ele>
        <time>2020-11-28T10:49:46Z</time>
      </trkpt>
      <trkpt lat="48.71039" lon="7.31593">
        <ele>383</ele>
        <time>2020-11-28T10:49:48Z</time>
      </trkpt>
      <trkpt lat="48.71031" lon="7.31577">
        <ele>382.8</ele>
        <time>2020-11-28T10:49:50Z</time>
      </trkpt>
      <trkpt lat="48.71023" lon="7.31561">
        <ele>383.3</ele>
        <time>2020-11-28T10:49:52Z</time>
      </trkpt>
      <trkpt lat="48.71014" lon="7.31547">
        <ele>383.7</ele>
        <time>2020-11-28T10:49:54Z</time>
      </trkpt>
      <trkpt lat="48.71005" lon="7.31534">
        <ele>384</ele>
        <time>2020-11-28T10:49:56Z</time>
      </trkpt>
      <trkpt lat="48.70997" lon="7.31522">
        <ele>384.1</ele>
        <time>2020-11-28T10:49:58Z</time>
      </trkpt>
      <trkpt lat="48.70988" lon="7.31511">
        <ele>384.9</ele>
        <time>2020-11-28T10:50:00Z</time>
      </trkpt>
      <trkpt lat="48.70978" lon="7.31504">
        <ele>384.9</ele>
        <time>2020-11-28T10:50:02Z</time>
      </trkpt>
      <trkpt lat="48.70967" lon="7.31498">
        <ele>385.2</ele>
        <time>2020-11-28T10:50:04Z</time>
      </trkpt>
      <trkpt lat="48.70956" lon="7.3149">
        <ele>386</ele>
        <time>2020-11-28T10:50:06Z</time>
      </trkpt>
      <trkpt lat="48.70945" lon="7.31481">
        <ele>387.2</ele>
        <time>2020-11-28T10:50:08Z</time>
      </trkpt>
      <trkpt lat="48.70935" lon="7.31476">
        <ele>387.5</ele>
        <time>2020-11-28T10:50:10Z</time>
      </trkpt>
      <trkpt lat="48.70918" lon="7.31468">
        <ele>387.2</ele>
        <time>2020-11-28T10:50:13Z</time>
      </trkpt>
      <trkpt lat="48.70906" lon="7.31464">
        <ele>386.9</ele>
        <time>2020-11-28T10:50:15Z</time>
      </trkpt>
      <trkpt lat="48.70895" lon="7.31464">
        <ele>386.7</ele>
        <time>2020-11-28T10:50:17Z</time>
      </trkpt>
      <trkpt lat="48.70884" lon="7.31462">
        <ele>387</ele>
        <time>2020-11-28T10:50:19Z</time>
      </trkpt>
      <trkpt lat="48.70872" lon="7.3146">
        <ele>387.8</ele>
        <time>2020-11-28T10:50:21Z</time>
      </trkpt>
      <trkpt lat="48.70861" lon="7.31459">
        <ele>388.2</ele>
        <time>2020-11-28T10:50:23Z</time>
      </trkpt>
      <trkpt lat="48.7085" lon="7.31462">
        <ele>388.8</ele>
        <time>2020-11-28T10:50:25Z</time>
      </trkpt>
      <trkpt lat="48.7084" lon="7.31464">
        <ele>389.3</ele>
        <time>2020-11-28T10:50:27Z</time>
      </trkpt>
      <trkpt lat="48.70827" lon="7.31467">
        <ele>389.8</ele>
        <time>2020-11-28T10:50:29Z</time>
      </trkpt>
      <trkpt lat="48.70816" lon="7.31475">
        <ele>390.4</ele>
        <time>2020-11-28T10:50:31Z</time>
      </trkpt>
      <trkpt lat="48.70805" lon="7.31482">
        <ele>391.2</ele>
        <time>2020-11-28T10:50:33Z</time>
      </trkpt>
      <trkpt lat="48.70794" lon="7.3149">
        <ele>391.9</ele>
        <time>2020-11-28T10:50:35Z</time>
      </trkpt>
      <trkpt lat="48.70777" lon="7.31502">
        <ele>393.5</ele>
        <time>2020-11-28T10:50:38Z</time>
      </trkpt>
      <trkpt lat="48.70766" lon="7.31511">
        <ele>394.4</ele>
        <time>2020-11-28T10:50:40Z</time>
      </trkpt>
      <trkpt lat="48.70754" lon="7.3152">
        <ele>395.3</ele>
        <time>2020-11-28T10:50:42Z</time>
      </trkpt>
      <trkpt lat="48.70743" lon="7.3153">
        <ele>395.7</ele>
        <time>2020-11-28T10:50:44Z</time>
      </trkpt>
      <trkpt lat="48.70732" lon="7.31541">
        <ele>395.6</ele>
        <time>2020-11-28T10:50:46Z</time>
      </trkpt>
      <trkpt lat="48.7072" lon="7.3155">
        <ele>395.4</ele>
        <time>2020-11-28T10:50:48Z</time>
      </trkpt>
      <trkpt lat="48.70709" lon="7.3156">
        <ele>395.4</ele>
        <time>2020-11-28T10:50:50Z</time>
      </trkpt>
      <trkpt lat="48.70699" lon="7.31571">
        <ele>395.1</ele>
        <time>2020-11-28T10:50:52Z</time>
      </trkpt>
      <trkpt lat="48.70683" lon="7.31585">
        <ele>394.9</ele>
        <time>2020-11-28T10:50:56Z</time>
      </trkpt>
      <trkpt lat="48.70668" lon="7.31601">
        <ele>395.2</ele>
        <time>2020-11-28T10:50:58Z</time>
      </trkpt>
      <trkpt lat="48.70654" lon="7.31622">
        <ele>394.7</ele>
        <time>2020-11-28T10:51:01Z</time>
      </trkpt>
      <trkpt lat="48.70645" lon="7.31636">
        <ele>394.3</ele>
        <time>2020-11-28T10:51:03Z</time>
      </trkpt>
      <trkpt lat="48.70636" lon="7.31651">
        <ele>394.2</ele>
        <time>2020-11-28T10:51:05Z</time>
      </trkpt>
      <trkpt lat="48.70627" lon="7.31662">
        <ele>394.5</ele>
        <time>2020-11-28T10:51:07Z</time>
      </trkpt>
      <trkpt lat="48.70617" lon="7.31675">
        <ele>394.8</ele>
        <time>2020-11-28T10:51:09Z</time>
      </trkpt>
      <trkpt lat="48.70603" lon="7.31696">
        <ele>394.9</ele>
        <time>2020-11-28T10:51:12Z</time>
      </trkpt>
      <trkpt lat="48.70594" lon="7.31711">
        <ele>394.3</ele>
        <time>2020-11-28T10:51:14Z</time>
      </trkpt>
      <trkpt lat="48.70586" lon="7.31726">
        <ele>393.7</ele>
        <time>2020-11-28T10:51:16Z</time>
      </trkpt>
      <trkpt lat="48.70579" lon="7.31742">
        <ele>393.3</ele>
        <time>2020-11-28T10:51:18Z</time>
      </trkpt>
      <trkpt lat="48.70572" lon="7.3176">
        <ele>392.7</ele>
        <time>2020-11-28T10:51:20Z</time>
      </trkpt>
      <trkpt lat="48.70566" lon="7.31779">
        <ele>392.3</ele>
        <time>2020-11-28T10:51:22Z</time>
      </trkpt>
      <trkpt lat="48.70561" lon="7.31798">
        <ele>392</ele>
        <time>2020-11-28T10:51:24Z</time>
      </trkpt>
      <trkpt lat="48.70557" lon="7.31817">
        <ele>391.5</ele>
        <time>2020-11-28T10:51:26Z</time>
      </trkpt>
      <trkpt lat="48.70555" lon="7.31838">
        <ele>391.1</ele>
        <time>2020-11-28T10:51:28Z</time>
      </trkpt>
      <trkpt lat="48.70554" lon="7.3186">
        <ele>390.8</ele>
        <time>2020-11-28T10:51:30Z</time>
      </trkpt>
      <trkpt lat="48.70549" lon="7.31881">
        <ele>390.5</ele>
        <time>2020-11-28T10:51:32Z</time>
      </trkpt>
      <trkpt lat="48.7054" lon="7.31899">
        <ele>390.7</ele>
        <time>2020-11-28T10:51:34Z</time>
      </trkpt>
      <trkpt lat="48.70528" lon="7.31913">
        <ele>390.1</ele>
        <time>2020-11-28T10:51:36Z</time>
      </trkpt>
      <trkpt lat="48.70514" lon="7.31924">
        <ele>390.1</ele>
        <time>2020-11-28T10:51:38Z</time>
      </trkpt>
      <trkpt lat="48.70497" lon="7.31933">
        <ele>389.6</ele>
        <time>2020-11-28T10:51:40Z</time>
      </trkpt>
      <trkpt lat="48.70481" lon="7.31941">
        <ele>389.5</ele>
        <time>2020-11-28T10:51:42Z</time>
      </trkpt>
      <trkpt lat="48.70466" lon="7.31949">
        <ele>389.3</ele>
        <time>2020-11-28T10:51:44Z</time>
      </trkpt>
      <trkpt lat="48.70451" lon="7.31957">
        <ele>388.8</ele>
        <time>2020-11-28T10:51:46Z</time>
      </trkpt>
      <trkpt lat="48.70437" lon="7.31967">
        <ele>388.9</ele>
        <time>2020-11-28T10:51:48Z</time>
      </trkpt>
      <trkpt lat="48.70424" lon="7.31978">
        <ele>388.8</ele>
        <time>2020-11-28T10:51:50Z</time>
      </trkpt>
      <trkpt lat="48.7041" lon="7.31991">
        <ele>387.9</ele>
        <time>2020-11-28T10:51:52Z</time>
      </trkpt>
      <trkpt lat="48.70392" lon="7.32011">
        <ele>387.3</ele>
        <time>2020-11-28T10:51:55Z</time>
      </trkpt>
      <trkpt lat="48.70378" lon="7.32025">
        <ele>386.1</ele>
        <time>2020-11-28T10:51:57Z</time>
      </trkpt>
      <trkpt lat="48.70364" lon="7.32038">
        <ele>385.1</ele>
        <time>2020-11-28T10:51:59Z</time>
      </trkpt>
      <trkpt lat="48.70344" lon="7.32056">
        <ele>384.1</ele>
        <time>2020-11-28T10:52:02Z</time>
      </trkpt>
      <trkpt lat="48.70332" lon="7.3207">
        <ele>384.2</ele>
        <time>2020-11-28T10:52:04Z</time>
      </trkpt>
      <trkpt lat="48.70319" lon="7.32086">
        <ele>384.2</ele>
        <time>2020-11-28T10:52:06Z</time>
      </trkpt>
      <trkpt lat="48.70308" lon="7.32104">
        <ele>384.5</ele>
        <time>2020-11-28T10:52:08Z</time>
      </trkpt>
      <trkpt lat="48.70297" lon="7.32121">
        <ele>384.4</ele>
        <time>2020-11-28T10:52:10Z</time>
      </trkpt>
      <trkpt lat="48.70279" lon="7.32143">
        <ele>383.8</ele>
        <time>2020-11-28T10:52:13Z</time>
      </trkpt>
      <trkpt lat="48.70261" lon="7.32159">
        <ele>383.5</ele>
        <time>2020-11-28T10:52:16Z</time>
      </trkpt>
      <trkpt lat="48.70243" lon="7.32174">
        <ele>382.5</ele>
        <time>2020-11-28T10:52:19Z</time>
      </trkpt>
      <trkpt lat="48.70233" lon="7.32184">
        <ele>382.2</ele>
        <time>2020-11-28T10:52:21Z</time>
      </trkpt>
      <trkpt lat="48.70218" lon="7.32196">
        <ele>381.6</ele>
        <time>2020-11-28T10:52:24Z</time>
      </trkpt>
      <trkpt lat="48.70209" lon="7.32203">
        <ele>381</ele>
        <time>2020-11-28T10:52:26Z</time>
      </trkpt>
      <trkpt lat="48.702" lon="7.32212">
        <ele>381.2</ele>
        <time>2020-11-28T10:52:28Z</time>
      </trkpt>
      <trkpt lat="48.70193" lon="7.32221">
        <ele>381.3</ele>
        <time>2020-11-28T10:52:30Z</time>
      </trkpt>
      <trkpt lat="48.70181" lon="7.32235">
        <ele>381.8</ele>
        <time>2020-11-28T10:52:33Z</time>
      </trkpt>
      <trkpt lat="48.70174" lon="7.32241">
        <ele>382</ele>
        <time>2020-11-28T10:52:35Z</time>
      </trkpt>
      <trkpt lat="48.70166" lon="7.3225">
        <ele>382.1</ele>
        <time>2020-11-28T10:52:37Z</time>
      </trkpt>
      <trkpt lat="48.70157" lon="7.32257">
        <ele>382.6</ele>
        <time>2020-11-28T10:52:39Z</time>
      </trkpt>
      <trkpt lat="48.70149" lon="7.32263">
        <ele>383.9</ele>
        <time>2020-11-28T10:52:41Z</time>
      </trkpt>
      <trkpt lat="48.70136" lon="7.32276">
        <ele>385.8</ele>
        <time>2020-11-28T10:52:44Z</time>
      </trkpt>
      <trkpt lat="48.70123" lon="7.3229">
        <ele>387</ele>
        <time>2020-11-28T10:52:47Z</time>
      </trkpt>
      <trkpt lat="48.70113" lon="7.32298">
        <ele>387.8</ele>
        <time>2020-11-28T10:52:49Z</time>
      </trkpt>
      <trkpt lat="48.70104" lon="7.32307">
        <ele>388.8</ele>
        <time>2020-11-28T10:52:51Z</time>
      </trkpt>
      <trkpt lat="48.70094" lon="7.32315">
        <ele>389.9</ele>
        <time>2020-11-28T10:52:53Z</time>
      </trkpt>
      <trkpt lat="48.70084" lon="7.32324">
        <ele>390.7</ele>
        <time>2020-11-28T10:52:55Z</time>
      </trkpt>
      <trkpt lat="48.70075" lon="7.32334">
        <ele>391.8</ele>
        <time>2020-11-28T10:52:57Z</time>
      </trkpt>
      <trkpt lat="48.70062" lon="7.32351">
        <ele>392.9</ele>
        <time>2020-11-28T10:53:00Z</time>
      </trkpt>
      <trkpt lat="48.70055" lon="7.32359">
        <ele>393.4</ele>
        <time>2020-11-28T10:53:02Z</time>
      </trkpt>
      <trkpt lat="48.70046" lon="7.32366">
        <ele>393.9</ele>
        <time>2020-11-28T10:53:04Z</time>
      </trkpt>
      <trkpt lat="48.70039" lon="7.32373">
        <ele>394.9</ele>
        <time>2020-11-28T10:53:06Z</time>
      </trkpt>
      <trkpt lat="48.70032" lon="7.32385">
        <ele>395.2</ele>
        <time>2020-11-28T10:53:08Z</time>
      </trkpt>
      <trkpt lat="48.70021" lon="7.32397">
        <ele>395.9</ele>
        <time>2020-11-28T10:53:11Z</time>
      </trkpt>
      <trkpt lat="48.70009" lon="7.3241">
        <ele>395.8</ele>
        <time>2020-11-28T10:53:14Z</time>
      </trkpt>
      <trkpt lat="48.70001" lon="7.32419">
        <ele>395.6</ele>
        <time>2020-11-28T10:53:16Z</time>
      </trkpt>
      <trkpt lat="48.6999" lon="7.32433">
        <ele>395.3</ele>
        <time>2020-11-28T10:53:19Z</time>
      </trkpt>
      <trkpt lat="48.6998" lon="7.32445">
        <ele>394.5</ele>
        <time>2020-11-28T10:53:22Z</time>
      </trkpt>
      <trkpt lat="48.69974" lon="7.32452">
        <ele>394</ele>
        <time>2020-11-28T10:53:24Z</time>
      </trkpt>
      <trkpt lat="48.69969" lon="7.32461">
        <ele>393.5</ele>
        <time>2020-11-28T10:53:26Z</time>
      </trkpt>
      <trkpt lat="48.69963" lon="7.32473">
        <ele>393.4</ele>
        <time>2020-11-28T10:53:28Z</time>
      </trkpt>
      <trkpt lat="48.69955" lon="7.32484">
        <ele>393.1</ele>
        <time>2020-11-28T10:53:30Z</time>
      </trkpt>
      <trkpt lat="48.69946" lon="7.32494">
        <ele>393.5</ele>
        <time>2020-11-28T10:53:32Z</time>
      </trkpt>
      <trkpt lat="48.69936" lon="7.32506">
        <ele>393.5</ele>
        <time>2020-11-28T10:53:34Z</time>
      </trkpt>
      <trkpt lat="48.69927" lon="7.32518">
        <ele>393.5</ele>
        <time>2020-11-28T10:53:36Z</time>
      </trkpt>
      <trkpt lat="48.69915" lon="7.32535">
        <ele>393.8</ele>
        <time>2020-11-28T10:53:39Z</time>
      </trkpt>
      <trkpt lat="48.69898" lon="7.32555">
        <ele>393.9</ele>
        <time>2020-11-28T10:53:42Z</time>
      </trkpt>
      <trkpt lat="48.69884" lon="7.32573">
        <ele>394.2</ele>
        <time>2020-11-28T10:53:44Z</time>
      </trkpt>
      <trkpt lat="48.6987" lon="7.3259">
        <ele>393.6</ele>
        <time>2020-11-28T10:53:46Z</time>
      </trkpt>
      <trkpt lat="48.69855" lon="7.32604">
        <ele>392.9</ele>
        <time>2020-11-28T10:53:48Z</time>
      </trkpt>
      <trkpt lat="48.6984" lon="7.32615">
        <ele>392.4</ele>
        <time>2020-11-28T10:53:50Z</time>
      </trkpt>
      <trkpt lat="48.69824" lon="7.32625">
        <ele>392.2</ele>
        <time>2020-11-28T10:53:52Z</time>
      </trkpt>
      <trkpt lat="48.69808" lon="7.32634">
        <ele>391.8</ele>
        <time>2020-11-28T10:53:54Z</time>
      </trkpt>
      <trkpt lat="48.69794" lon="7.32643">
        <ele>391</ele>
        <time>2020-11-28T10:53:56Z</time>
      </trkpt>
      <trkpt lat="48.69779" lon="7.3265">
        <ele>390.6</ele>
        <time>2020-11-28T10:53:58Z</time>
      </trkpt>
      <trkpt lat="48.69764" lon="7.32656">
        <ele>390.7</ele>
        <time>2020-11-28T10:54:00Z</time>
      </trkpt>
      <trkpt lat="48.69754" lon="7.3266">
        <ele>390.2</ele>
        <time>2020-11-28T10:54:02Z</time>
      </trkpt>
      <trkpt lat="48.69749" lon="7.32663">
        <ele>390.3</ele>
        <time>2020-11-28T10:54:04Z</time>
      </trkpt>
      <trkpt lat="48.69748" lon="7.32669">
        <ele>388.4</ele>
        <time>2020-11-28T10:54:10Z</time>
      </trkpt>
      <trkpt lat="48.69742" lon="7.32667">
        <ele>384.6</ele>
        <time>2020-11-28T10:54:27Z</time>
      </trkpt>
      <trkpt lat="48.69735" lon="7.32663">
        <ele>384.1</ele>
        <time>2020-11-28T10:54:29Z</time>
      </trkpt>
      <trkpt lat="48.69726" lon="7.3266">
        <ele>384.5</ele>
        <time>2020-11-28T10:54:31Z</time>
      </trkpt>
      <trkpt lat="48.69716" lon="7.32657">
        <ele>385.1</ele>
        <time>2020-11-28T10:54:33Z</time>
      </trkpt>
      <trkpt lat="48.69705" lon="7.32656">
        <ele>384.6</ele>
        <time>2020-11-28T10:54:35Z</time>
      </trkpt>
      <trkpt lat="48.69695" lon="7.32656">
        <ele>384.1</ele>
        <time>2020-11-28T10:54:37Z</time>
      </trkpt>
      <trkpt lat="48.69683" lon="7.32654">
        <ele>383.3</ele>
        <time>2020-11-28T10:54:39Z</time>
      </trkpt>
      <trkpt lat="48.69672" lon="7.32651">
        <ele>382</ele>
        <time>2020-11-28T10:54:41Z</time>
      </trkpt>
      <trkpt lat="48.6966" lon="7.32646">
        <ele>381.1</ele>
        <time>2020-11-28T10:54:43Z</time>
      </trkpt>
      <trkpt lat="48.69645" lon="7.32644">
        <ele>380.5</ele>
        <time>2020-11-28T10:54:45Z</time>
      </trkpt>
      <trkpt lat="48.69631" lon="7.32644">
        <ele>380.2</ele>
        <time>2020-11-28T10:54:47Z</time>
      </trkpt>
      <trkpt lat="48.69615" lon="7.32643">
        <ele>379.7</ele>
        <time>2020-11-28T10:54:49Z</time>
      </trkpt>
      <trkpt lat="48.69601" lon="7.32638">
        <ele>379.7</ele>
        <time>2020-11-28T10:54:51Z</time>
      </trkpt>
      <trkpt lat="48.69589" lon="7.32633">
        <ele>379.8</ele>
        <time>2020-11-28T10:54:53Z</time>
      </trkpt>
      <trkpt lat="48.69577" lon="7.3263">
        <ele>380.3</ele>
        <time>2020-11-28T10:54:55Z</time>
      </trkpt>
      <trkpt lat="48.69567" lon="7.32627">
        <ele>380.9</ele>
        <time>2020-11-28T10:54:57Z</time>
      </trkpt>
      <trkpt lat="48.69558" lon="7.32625">
        <ele>381.5</ele>
        <time>2020-11-28T10:54:59Z</time>
      </trkpt>
      <trkpt lat="48.69552" lon="7.32628">
        <ele>382.6</ele>
        <time>2020-11-28T10:55:01Z</time>
      </trkpt>
      <trkpt lat="48.69547" lon="7.32632">
        <ele>382.9</ele>
        <time>2020-11-28T10:55:03Z</time>
      </trkpt>
      <trkpt lat="48.6954" lon="7.32634">
        <ele>383.4</ele>
        <time>2020-11-28T10:55:05Z</time>
      </trkpt>
      <trkpt lat="48.69533" lon="7.32635">
        <ele>383.6</ele>
        <time>2020-11-28T10:55:07Z</time>
      </trkpt>
      <trkpt lat="48.69525" lon="7.32636">
        <ele>383.4</ele>
        <time>2020-11-28T10:55:09Z</time>
      </trkpt>
      <trkpt lat="48.69517" lon="7.32635">
        <ele>383.4</ele>
        <time>2020-11-28T10:55:11Z</time>
      </trkpt>
      <trkpt lat="48.69509" lon="7.32631">
        <ele>383.5</ele>
        <time>2020-11-28T10:55:13Z</time>
      </trkpt>
      <trkpt lat="48.69501" lon="7.32627">
        <ele>383</ele>
        <time>2020-11-28T10:55:15Z</time>
      </trkpt>
      <trkpt lat="48.69494" lon="7.32624">
        <ele>382.9</ele>
        <time>2020-11-28T10:55:17Z</time>
      </trkpt>
      <trkpt lat="48.69488" lon="7.32619">
        <ele>382.6</ele>
        <time>2020-11-28T10:55:19Z</time>
      </trkpt>
      <trkpt lat="48.6948" lon="7.32614">
        <ele>382.1</ele>
        <time>2020-11-28T10:55:21Z</time>
      </trkpt>
      <trkpt lat="48.69472" lon="7.32611">
        <ele>382.2</ele>
        <time>2020-11-28T10:55:23Z</time>
      </trkpt>
      <trkpt lat="48.69465" lon="7.32609">
        <ele>382.1</ele>
        <time>2020-11-28T10:55:25Z</time>
      </trkpt>
      <trkpt lat="48.69456" lon="7.3261">
        <ele>382.2</ele>
        <time>2020-11-28T10:55:27Z</time>
      </trkpt>
      <trkpt lat="48.69448" lon="7.32612">
        <ele>383.3</ele>
        <time>2020-11-28T10:55:29Z</time>
      </trkpt>
      <trkpt lat="48.6944" lon="7.32615">
        <ele>384.7</ele>
        <time>2020-11-28T10:55:31Z</time>
      </trkpt>
      <trkpt lat="48.69433" lon="7.32618">
        <ele>386.5</ele>
        <time>2020-11-28T10:55:33Z</time>
      </trkpt>
      <trkpt lat="48.69427" lon="7.3262">
        <ele>388.6</ele>
        <time>2020-11-28T10:55:35Z</time>
      </trkpt>
      <trkpt lat="48.6942" lon="7.32621">
        <ele>389.8</ele>
        <time>2020-11-28T10:55:37Z</time>
      </trkpt>
      <trkpt lat="48.69414" lon="7.32622">
        <ele>391</ele>
        <time>2020-11-28T10:55:39Z</time>
      </trkpt>
      <trkpt lat="48.69406" lon="7.32621">
        <ele>392.1</ele>
        <time>2020-11-28T10:55:41Z</time>
      </trkpt>
      <trkpt lat="48.69399" lon="7.32619">
        <ele>392.7</ele>
        <time>2020-11-28T10:55:43Z</time>
      </trkpt>
      <trkpt lat="48.69392" lon="7.32618">
        <ele>392.5</ele>
        <time>2020-11-28T10:55:45Z</time>
      </trkpt>
      <trkpt lat="48.69384" lon="7.32616">
        <ele>392.6</ele>
        <time>2020-11-28T10:55:47Z</time>
      </trkpt>
      <trkpt lat="48.69376" lon="7.32614">
        <ele>393.2</ele>
        <time>2020-11-28T10:55:49Z</time>
      </trkpt>
      <trkpt lat="48.6937" lon="7.32613">
        <ele>393.2</ele>
        <time>2020-11-28T10:55:51Z</time>
      </trkpt>
      <trkpt lat="48.69363" lon="7.32613">
        <ele>393.1</ele>
        <time>2020-11-28T10:55:53Z</time>
      </trkpt>
      <trkpt lat="48.69356" lon="7.32614">
        <ele>393.2</ele>
        <time>2020-11-28T10:55:55Z</time>
      </trkpt>
      <trkpt lat="48.69348" lon="7.32613">
        <ele>393</ele>
        <time>2020-11-28T10:55:57Z</time>
      </trkpt>
      <trkpt lat="48.69341" lon="7.3261">
        <ele>393.8</ele>
        <time>2020-11-28T10:55:59Z</time>
      </trkpt>
      <trkpt lat="48.69333" lon="7.32607">
        <ele>394.1</ele>
        <time>2020-11-28T10:56:01Z</time>
      </trkpt>
      <trkpt lat="48.69325" lon="7.32603">
        <ele>394.7</ele>
        <time>2020-11-28T10:56:03Z</time>
      </trkpt>
      <trkpt lat="48.69317" lon="7.32599">
        <ele>395.3</ele>
        <time>2020-11-28T10:56:05Z</time>
      </trkpt>
      <trkpt lat="48.6931" lon="7.32596">
        <ele>396.1</ele>
        <time>2020-11-28T10:56:07Z</time>
      </trkpt>
      <trkpt lat="48.69303" lon="7.32592">
        <ele>396.9</ele>
        <time>2020-11-28T10:56:09Z</time>
      </trkpt>
      <trkpt lat="48.69297" lon="7.32585">
        <ele>397.6</ele>
        <time>2020-11-28T10:56:11Z</time>
      </trkpt>
      <trkpt lat="48.69291" lon="7.32579">
        <ele>398.1</ele>
        <time>2020-11-28T10:56:13Z</time>
      </trkpt>
      <trkpt lat="48.69284" lon="7.32573">
        <ele>398.7</ele>
        <time>2020-11-28T10:56:15Z</time>
      </trkpt>
      <trkpt lat="48.69278" lon="7.32567">
        <ele>399.3</ele>
        <time>2020-11-28T10:56:17Z</time>
      </trkpt>
      <trkpt lat="48.69272" lon="7.32561">
        <ele>399.7</ele>
        <time>2020-11-28T10:56:19Z</time>
      </trkpt>
      <trkpt lat="48.69267" lon="7.32556">
        <ele>399.9</ele>
        <time>2020-11-28T10:56:21Z</time>
      </trkpt>
      <trkpt lat="48.69262" lon="7.3255">
        <ele>400.5</ele>
        <time>2020-11-28T10:56:23Z</time>
      </trkpt>
      <trkpt lat="48.69257" lon="7.32544">
        <ele>401</ele>
        <time>2020-11-28T10:56:25Z</time>
      </trkpt>
      <trkpt lat="48.69252" lon="7.32537">
        <ele>401.4</ele>
        <time>2020-11-28T10:56:27Z</time>
      </trkpt>
      <trkpt lat="48.69247" lon="7.3253">
        <ele>401.5</ele>
        <time>2020-11-28T10:56:29Z</time>
      </trkpt>
      <trkpt lat="48.69241" lon="7.32524">
        <ele>401.6</ele>
        <time>2020-11-28T10:56:31Z</time>
      </trkpt>
      <trkpt lat="48.69237" lon="7.32518">
        <ele>401.2</ele>
        <time>2020-11-28T10:56:33Z</time>
      </trkpt>
      <trkpt lat="48.69231" lon="7.32512">
        <ele>401.5</ele>
        <time>2020-11-28T10:56:35Z</time>
      </trkpt>
      <trkpt lat="48.69226" lon="7.32504">
        <ele>402.2</ele>
        <time>2020-11-28T10:56:37Z</time>
      </trkpt>
      <trkpt lat="48.69221" lon="7.32497">
        <ele>403.3</ele>
        <time>2020-11-28T10:56:39Z</time>
      </trkpt>
      <trkpt lat="48.69217" lon="7.3249">
        <ele>404.2</ele>
        <time>2020-11-28T10:56:41Z</time>
      </trkpt>
      <trkpt lat="48.69213" lon="7.32483">
        <ele>405.9</ele>
        <time>2020-11-28T10:56:43Z</time>
      </trkpt>
      <trkpt lat="48.6921" lon="7.32475">
        <ele>406.7</ele>
        <time>2020-11-28T10:56:45Z</time>
      </trkpt>
      <trkpt lat="48.69207" lon="7.32466">
        <ele>407.8</ele>
        <time>2020-11-28T10:56:47Z</time>
      </trkpt>
      <trkpt lat="48.69203" lon="7.32459">
        <ele>408.6</ele>
        <time>2020-11-28T10:56:49Z</time>
      </trkpt>
      <trkpt lat="48.69199" lon="7.32453">
        <ele>408.9</ele>
        <time>2020-11-28T10:56:51Z</time>
      </trkpt>
      <trkpt lat="48.69196" lon="7.32446">
        <ele>409.1</ele>
        <time>2020-11-28T10:56:53Z</time>
      </trkpt>
      <trkpt lat="48.69193" lon="7.32441">
        <ele>409.2</ele>
        <time>2020-11-28T10:56:55Z</time>
      </trkpt>
      <trkpt lat="48.69189" lon="7.32435">
        <ele>409.3</ele>
        <time>2020-11-28T10:56:57Z</time>
      </trkpt>
      <trkpt lat="48.69185" lon="7.3243">
        <ele>409.1</ele>
        <time>2020-11-28T10:56:59Z</time>
      </trkpt>
      <trkpt lat="48.69181" lon="7.32422">
        <ele>409.7</ele>
        <time>2020-11-28T10:57:01Z</time>
      </trkpt>
      <trkpt lat="48.69176" lon="7.32415">
        <ele>410</ele>
        <time>2020-11-28T10:57:03Z</time>
      </trkpt>
      <trkpt lat="48.6917" lon="7.32409">
        <ele>411.1</ele>
        <time>2020-11-28T10:57:05Z</time>
      </trkpt>
      <trkpt lat="48.69165" lon="7.32404">
        <ele>412.1</ele>
        <time>2020-11-28T10:57:07Z</time>
      </trkpt>
      <trkpt lat="48.6916" lon="7.32397">
        <ele>412.9</ele>
        <time>2020-11-28T10:57:09Z</time>
      </trkpt>
      <trkpt lat="48.69155" lon="7.32391">
        <ele>413.9</ele>
        <time>2020-11-28T10:57:11Z</time>
      </trkpt>
      <trkpt lat="48.69148" lon="7.32385">
        <ele>414.1</ele>
        <time>2020-11-28T10:57:13Z</time>
      </trkpt>
      <trkpt lat="48.69143" lon="7.32379">
        <ele>415.6</ele>
        <time>2020-11-28T10:57:15Z</time>
      </trkpt>
      <trkpt lat="48.69137" lon="7.32374">
        <ele>415.9</ele>
        <time>2020-11-28T10:57:17Z</time>
      </trkpt>
      <trkpt lat="48.69132" lon="7.32369">
        <ele>416.5</ele>
        <time>2020-11-28T10:57:19Z</time>
      </trkpt>
      <trkpt lat="48.69127" lon="7.32363">
        <ele>417.6</ele>
        <time>2020-11-28T10:57:21Z</time>
      </trkpt>
      <trkpt lat="48.69122" lon="7.32358">
        <ele>418.1</ele>
        <time>2020-11-28T10:57:23Z</time>
      </trkpt>
      <trkpt lat="48.69114" lon="7.3235">
        <ele>419</ele>
        <time>2020-11-28T10:57:26Z</time>
      </trkpt>
      <trkpt lat="48.69108" lon="7.32347">
        <ele>419.6</ele>
        <time>2020-11-28T10:57:28Z</time>
      </trkpt>
      <trkpt lat="48.69102" lon="7.32343">
        <ele>419.7</ele>
        <time>2020-11-28T10:57:30Z</time>
      </trkpt>
      <trkpt lat="48.69098" lon="7.32339">
        <ele>419</ele>
        <time>2020-11-28T10:57:32Z</time>
      </trkpt>
      <trkpt lat="48.69093" lon="7.32334">
        <ele>418.4</ele>
        <time>2020-11-28T10:57:34Z</time>
      </trkpt>
      <trkpt lat="48.69088" lon="7.32328">
        <ele>377.7</ele>
        <time>2020-11-28T10:57:36Z</time>
      </trkpt>
      <trkpt lat="48.69082" lon="7.32322">
        <ele>372.3</ele>
        <time>2020-11-28T10:57:38Z</time>
      </trkpt>
      <trkpt lat="48.69077" lon="7.32316">
        <ele>370.3</ele>
        <time>2020-11-28T10:57:40Z</time>
      </trkpt>
      <trkpt lat="48.69072" lon="7.3231">
        <ele>373.3</ele>
        <time>2020-11-28T10:57:42Z</time>
      </trkpt>
      <trkpt lat="48.69068" lon="7.32304">
        <ele>380.3</ele>
        <time>2020-11-28T10:57:44Z</time>
      </trkpt>
      <trkpt lat="48.69059" lon="7.32296">
        <ele>389</ele>
        <time>2020-11-28T10:57:47Z</time>
      </trkpt>
      <trkpt lat="48.69053" lon="7.32291">
        <ele>393.6</ele>
        <time>2020-11-28T10:57:49Z</time>
      </trkpt>
      <trkpt lat="48.69047" lon="7.32286">
        <ele>398.3</ele>
        <time>2020-11-28T10:57:51Z</time>
      </trkpt>
      <trkpt lat="48.69041" lon="7.32281">
        <ele>403.2</ele>
        <time>2020-11-28T10:57:53Z</time>
      </trkpt>
      <trkpt lat="48.69035" lon="7.32276">
        <ele>406.2</ele>
        <time>2020-11-28T10:57:55Z</time>
      </trkpt>
      <trkpt lat="48.6903" lon="7.32272">
        <ele>409.1</ele>
        <time>2020-11-28T10:57:57Z</time>
      </trkpt>
      <trkpt lat="48.69025" lon="7.32268">
        <ele>411.5</ele>
        <time>2020-11-28T10:57:59Z</time>
      </trkpt>
      <trkpt lat="48.6902" lon="7.32262">
        <ele>413.7</ele>
        <time>2020-11-28T10:58:01Z</time>
      </trkpt>
      <trkpt lat="48.69015" lon="7.32256">
        <ele>415</ele>
        <time>2020-11-28T10:58:03Z</time>
      </trkpt>
      <trkpt lat="48.69011" lon="7.32249">
        <ele>416.7</ele>
        <time>2020-11-28T10:58:05Z</time>
      </trkpt>
      <trkpt lat="48.69007" lon="7.32243">
        <ele>417.6</ele>
        <time>2020-11-28T10:58:07Z</time>
      </trkpt>
      <trkpt lat="48.69001" lon="7.32238">
        <ele>419</ele>
        <time>2020-11-28T10:58:09Z</time>
      </trkpt>
      <trkpt lat="48.68995" lon="7.32233">
        <ele>421</ele>
        <time>2020-11-28T10:58:11Z</time>
      </trkpt>
      <trkpt lat="48.68989" lon="7.32227">
        <ele>422.6</ele>
        <time>2020-11-28T10:58:13Z</time>
      </trkpt>
      <trkpt lat="48.68982" lon="7.3222">
        <ele>423.6</ele>
        <time>2020-11-28T10:58:15Z</time>
      </trkpt>
      <trkpt lat="48.68976" lon="7.32214">
        <ele>424.7</ele>
        <time>2020-11-28T10:58:17Z</time>
      </trkpt>
      <trkpt lat="48.6897" lon="7.32207">
        <ele>425.4</ele>
        <time>2020-11-28T10:58:19Z</time>
      </trkpt>
      <trkpt lat="48.68964" lon="7.32202">
        <ele>425.8</ele>
        <time>2020-11-28T10:58:21Z</time>
      </trkpt>
      <trkpt lat="48.68958" lon="7.32197">
        <ele>425.5</ele>
        <time>2020-11-28T10:58:23Z</time>
      </trkpt>
      <trkpt lat="48.68953" lon="7.32192">
        <ele>425.4</ele>
        <time>2020-11-28T10:58:25Z</time>
      </trkpt>
      <trkpt lat="48.68949" lon="7.32186">
        <ele>425.8</ele>
        <time>2020-11-28T10:58:27Z</time>
      </trkpt>
      <trkpt lat="48.68943" lon="7.3218">
        <ele>425.6</ele>
        <time>2020-11-28T10:58:29Z</time>
      </trkpt>
      <trkpt lat="48.68938" lon="7.32176">
        <ele>425.6</ele>
        <time>2020-11-28T10:58:31Z</time>
      </trkpt>
      <trkpt lat="48.68932" lon="7.32169">
        <ele>425.2</ele>
        <time>2020-11-28T10:58:33Z</time>
      </trkpt>
      <trkpt lat="48.68927" lon="7.32163">
        <ele>424.9</ele>
        <time>2020-11-28T10:58:35Z</time>
      </trkpt>
      <trkpt lat="48.68921" lon="7.32156">
        <ele>424.9</ele>
        <time>2020-11-28T10:58:37Z</time>
      </trkpt>
      <trkpt lat="48.68916" lon="7.32148">
        <ele>425</ele>
        <time>2020-11-28T10:58:39Z</time>
      </trkpt>
      <trkpt lat="48.68911" lon="7.32141">
        <ele>425.5</ele>
        <time>2020-11-28T10:58:41Z</time>
      </trkpt>
      <trkpt lat="48.68907" lon="7.32134">
        <ele>425.2</ele>
        <time>2020-11-28T10:58:43Z</time>
      </trkpt>
      <trkpt lat="48.68902" lon="7.32127">
        <ele>425.2</ele>
        <time>2020-11-28T10:58:45Z</time>
      </trkpt>
      <trkpt lat="48.68897" lon="7.32121">
        <ele>425.3</ele>
        <time>2020-11-28T10:58:47Z</time>
      </trkpt>
      <trkpt lat="48.68892" lon="7.32116">
        <ele>425.4</ele>
        <time>2020-11-28T10:58:49Z</time>
      </trkpt>
      <trkpt lat="48.68887" lon="7.3211">
        <ele>425.3</ele>
        <time>2020-11-28T10:58:51Z</time>
      </trkpt>
      <trkpt lat="48.68881" lon="7.32104">
        <ele>425.8</ele>
        <time>2020-11-28T10:58:53Z</time>
      </trkpt>
      <trkpt lat="48.68876" lon="7.32097">
        <ele>426.8</ele>
        <time>2020-11-28T10:58:55Z</time>
      </trkpt>
      <trkpt lat="48.6887" lon="7.3209">
        <ele>427.9</ele>
        <time>2020-11-28T10:58:57Z</time>
      </trkpt>
      <trkpt lat="48.68865" lon="7.32082">
        <ele>429.1</ele>
        <time>2020-11-28T10:58:59Z</time>
      </trkpt>
      <trkpt lat="48.68859" lon="7.32075">
        <ele>430</ele>
        <time>2020-11-28T10:59:01Z</time>
      </trkpt>
      <trkpt lat="48.68855" lon="7.32068">
        <ele>393.4</ele>
        <time>2020-11-28T10:59:03Z</time>
      </trkpt>
      <trkpt lat="48.6885" lon="7.32059">
        <ele>389.4</ele>
        <time>2020-11-28T10:59:05Z</time>
      </trkpt>
      <trkpt lat="48.68845" lon="7.3205">
        <ele>385.9</ele>
        <time>2020-11-28T10:59:07Z</time>
      </trkpt>
      <trkpt lat="48.6884" lon="7.32041">
        <ele>385.8</ele>
        <time>2020-11-28T10:59:09Z</time>
      </trkpt>
      <trkpt lat="48.68832" lon="7.32031">
        <ele>392.4</ele>
        <time>2020-11-28T10:59:11Z</time>
      </trkpt>
      <trkpt lat="48.68827" lon="7.32022">
        <ele>399.6</ele>
        <time>2020-11-28T10:59:13Z</time>
      </trkpt>
      <trkpt lat="48.68822" lon="7.32016">
        <ele>407.8</ele>
        <time>2020-11-28T10:59:15Z</time>
      </trkpt>
      <trkpt lat="48.68816" lon="7.3201">
        <ele>414.6</ele>
        <time>2020-11-28T10:59:17Z</time>
      </trkpt>
      <trkpt lat="48.68811" lon="7.32004">
        <ele>420.6</ele>
        <time>2020-11-28T10:59:19Z</time>
      </trkpt>
      <trkpt lat="48.68805" lon="7.31998">
        <ele>425.4</ele>
        <time>2020-11-28T10:59:21Z</time>
      </trkpt>
      <trkpt lat="48.68801" lon="7.31992">
        <ele>428.7</ele>
        <time>2020-11-28T10:59:23Z</time>
      </trkpt>
      <trkpt lat="48.68796" lon="7.31985">
        <ele>431.5</ele>
        <time>2020-11-28T10:59:25Z</time>
      </trkpt>
      <trkpt lat="48.68793" lon="7.31978">
        <ele>433.9</ele>
        <time>2020-11-28T10:59:27Z</time>
      </trkpt>
      <trkpt lat="48.6879" lon="7.31971">
        <ele>435.5</ele>
        <time>2020-11-28T10:59:29Z</time>
      </trkpt>
      <trkpt lat="48.68787" lon="7.31963">
        <ele>436.5</ele>
        <time>2020-11-28T10:59:31Z</time>
      </trkpt>
      <trkpt lat="48.68784" lon="7.31956">
        <ele>438.2</ele>
        <time>2020-11-28T10:59:33Z</time>
      </trkpt>
      <trkpt lat="48.6878" lon="7.31949">
        <ele>439.3</ele>
        <time>2020-11-28T10:59:35Z</time>
      </trkpt>
      <trkpt lat="48.68776" lon="7.31943">
        <ele>440.1</ele>
        <time>2020-11-28T10:59:37Z</time>
      </trkpt>
      <trkpt lat="48.68772" lon="7.31936">
        <ele>440.9</ele>
        <time>2020-11-28T10:59:39Z</time>
      </trkpt>
      <trkpt lat="48.68767" lon="7.3193">
        <ele>441.4</ele>
        <time>2020-11-28T10:59:41Z</time>
      </trkpt>
      <trkpt lat="48.68763" lon="7.31924">
        <ele>442.8</ele>
        <time>2020-11-28T10:59:43Z</time>
      </trkpt>
      <trkpt lat="48.6876" lon="7.31918">
        <ele>443.6</ele>
        <time>2020-11-28T10:59:45Z</time>
      </trkpt>
      <trkpt lat="48.68756" lon="7.31912">
        <ele>443.9</ele>
        <time>2020-11-28T10:59:47Z</time>
      </trkpt>
      <trkpt lat="48.68753" lon="7.31905">
        <ele>443.2</ele>
        <time>2020-11-28T10:59:49Z</time>
      </trkpt>
      <trkpt lat="48.68749" lon="7.31898">
        <ele>443</ele>
        <time>2020-11-28T10:59:51Z</time>
      </trkpt>
      <trkpt lat="48.68745" lon="7.31891">
        <ele>442.8</ele>
        <time>2020-11-28T10:59:53Z</time>
      </trkpt>
      <trkpt lat="48.68741" lon="7.3188">
        <ele>443.2</ele>
        <time>2020-11-28T10:59:56Z</time>
      </trkpt>
      <trkpt lat="48.68738" lon="7.31873">
        <ele>443.3</ele>
        <time>2020-11-28T10:59:58Z</time>
      </trkpt>
      <trkpt lat="48.68734" lon="7.31865">
        <ele>443.1</ele>
        <time>2020-11-28T11:00:00Z</time>
      </trkpt>
      <trkpt lat="48.6873" lon="7.31857">
        <ele>442.9</ele>
        <time>2020-11-28T11:00:02Z</time>
      </trkpt>
      <trkpt lat="48.68727" lon="7.31849">
        <ele>443</ele>
        <time>2020-11-28T11:00:04Z</time>
      </trkpt>
      <trkpt lat="48.68723" lon="7.31841">
        <ele>443.2</ele>
        <time>2020-11-28T11:00:06Z</time>
      </trkpt>
      <trkpt lat="48.68719" lon="7.31834">
        <ele>444.1</ele>
        <time>2020-11-28T11:00:08Z</time>
      </trkpt>
      <trkpt lat="48.68714" lon="7.31826">
        <ele>444.2</ele>
        <time>2020-11-28T11:00:10Z</time>
      </trkpt>
      <trkpt lat="48.68709" lon="7.31813">
        <ele>444.2</ele>
        <time>2020-11-28T11:00:13Z</time>
      </trkpt>
      <trkpt lat="48.68706" lon="7.31805">
        <ele>444.5</ele>
        <time>2020-11-28T11:00:15Z</time>
      </trkpt>
      <trkpt lat="48.68703" lon="7.31797">
        <ele>444.1</ele>
        <time>2020-11-28T11:00:17Z</time>
      </trkpt>
      <trkpt lat="48.687" lon="7.31789">
        <ele>443.9</ele>
        <time>2020-11-28T11:00:19Z</time>
      </trkpt>
      <trkpt lat="48.68697" lon="7.3178">
        <ele>444.1</ele>
        <time>2020-11-28T11:00:21Z</time>
      </trkpt>
      <trkpt lat="48.68694" lon="7.31771">
        <ele>444.8</ele>
        <time>2020-11-28T11:00:23Z</time>
      </trkpt>
      <trkpt lat="48.6869" lon="7.31761">
        <ele>445.6</ele>
        <time>2020-11-28T11:00:25Z</time>
      </trkpt>
      <trkpt lat="48.68688" lon="7.31752">
        <ele>446.4</ele>
        <time>2020-11-28T11:00:27Z</time>
      </trkpt>
      <trkpt lat="48.68685" lon="7.31741">
        <ele>446.9</ele>
        <time>2020-11-28T11:00:29Z</time>
      </trkpt>
      <trkpt lat="48.68681" lon="7.31732">
        <ele>447.5</ele>
        <time>2020-11-28T11:00:31Z</time>
      </trkpt>
      <trkpt lat="48.68677" lon="7.31722">
        <ele>447.9</ele>
        <time>2020-11-28T11:00:33Z</time>
      </trkpt>
      <trkpt lat="48.68674" lon="7.31713">
        <ele>448.2</ele>
        <time>2020-11-28T11:00:35Z</time>
      </trkpt>
      <trkpt lat="48.68671" lon="7.31703">
        <ele>448.8</ele>
        <time>2020-11-28T11:00:37Z</time>
      </trkpt>
      <trkpt lat="48.68669" lon="7.31694">
        <ele>449.5</ele>
        <time>2020-11-28T11:00:39Z</time>
      </trkpt>
      <trkpt lat="48.68666" lon="7.31684">
        <ele>450.3</ele>
        <time>2020-11-28T11:00:41Z</time>
      </trkpt>
      <trkpt lat="48.68664" lon="7.31677">
        <ele>450.5</ele>
        <time>2020-11-28T11:00:43Z</time>
      </trkpt>
      <trkpt lat="48.68659" lon="7.3167">
        <ele>450.6</ele>
        <time>2020-11-28T11:00:45Z</time>
      </trkpt>
      <trkpt lat="48.68653" lon="7.31663">
        <ele>450.3</ele>
        <time>2020-11-28T11:00:47Z</time>
      </trkpt>
      <trkpt lat="48.68647" lon="7.31655">
        <ele>450</ele>
        <time>2020-11-28T11:00:49Z</time>
      </trkpt>
      <trkpt lat="48.68642" lon="7.31648">
        <ele>450</ele>
        <time>2020-11-28T11:00:51Z</time>
      </trkpt>
      <trkpt lat="48.68638" lon="7.31641">
        <ele>449.8</ele>
        <time>2020-11-28T11:00:53Z</time>
      </trkpt>
      <trkpt lat="48.68635" lon="7.31635">
        <ele>449.9</ele>
        <time>2020-11-28T11:00:55Z</time>
      </trkpt>
      <trkpt lat="48.68634" lon="7.31627">
        <ele>449.4</ele>
        <time>2020-11-28T11:00:58Z</time>
      </trkpt>
      <trkpt lat="48.6863" lon="7.3162">
        <ele>449.5</ele>
        <time>2020-11-28T11:01:01Z</time>
      </trkpt>
      <trkpt lat="48.68628" lon="7.31612">
        <ele>450.4</ele>
        <time>2020-11-28T11:01:03Z</time>
      </trkpt>
      <trkpt lat="48.68627" lon="7.31604">
        <ele>451</ele>
        <time>2020-11-28T11:01:05Z</time>
      </trkpt>
      <trkpt lat="48.68624" lon="7.31597">
        <ele>451.8</ele>
        <time>2020-11-28T11:01:07Z</time>
      </trkpt>
      <trkpt lat="48.68622" lon="7.31589">
        <ele>453.3</ele>
        <time>2020-11-28T11:01:09Z</time>
      </trkpt>
      <trkpt lat="48.68619" lon="7.31582">
        <ele>454</ele>
        <time>2020-11-28T11:01:11Z</time>
      </trkpt>
      <trkpt lat="48.68615" lon="7.31578">
        <ele>454.8</ele>
        <time>2020-11-28T11:01:14Z</time>
      </trkpt>
      <trkpt lat="48.68616" lon="7.31571">
        <ele>456.5</ele>
        <time>2020-11-28T11:01:25Z</time>
      </trkpt>
      <trkpt lat="48.68613" lon="7.31566">
        <ele>455.9</ele>
        <time>2020-11-28T11:01:35Z</time>
      </trkpt>
      <trkpt lat="48.68608" lon="7.31563">
        <ele>456.1</ele>
        <time>2020-11-28T11:01:37Z</time>
      </trkpt>
      <trkpt lat="48.68603" lon="7.31561">
        <ele>456.6</ele>
        <time>2020-11-28T11:01:39Z</time>
      </trkpt>
      <trkpt lat="48.68597" lon="7.31559">
        <ele>457</ele>
        <time>2020-11-28T11:01:41Z</time>
      </trkpt>
      <trkpt lat="48.68592" lon="7.31556">
        <ele>457.5</ele>
        <time>2020-11-28T11:01:43Z</time>
      </trkpt>
      <trkpt lat="48.68586" lon="7.31554">
        <ele>457.4</ele>
        <time>2020-11-28T11:01:45Z</time>
      </trkpt>
      <trkpt lat="48.68581" lon="7.31551">
        <ele>457.2</ele>
        <time>2020-11-28T11:01:47Z</time>
      </trkpt>
      <trkpt lat="48.68576" lon="7.31547">
        <ele>457.4</ele>
        <time>2020-11-28T11:01:49Z</time>
      </trkpt>
      <trkpt lat="48.6857" lon="7.31544">
        <ele>457.2</ele>
        <time>2020-11-28T11:01:51Z</time>
      </trkpt>
      <trkpt lat="48.6856" lon="7.31541">
        <ele>458.3</ele>
        <time>2020-11-28T11:01:54Z</time>
      </trkpt>
      <trkpt lat="48.68554" lon="7.31541">
        <ele>458.6</ele>
        <time>2020-11-28T11:01:56Z</time>
      </trkpt>
      <trkpt lat="48.68548" lon="7.31541">
        <ele>458.5</ele>
        <time>2020-11-28T11:01:58Z</time>
      </trkpt>
      <trkpt lat="48.68541" lon="7.3154">
        <ele>458.7</ele>
        <time>2020-11-28T11:02:00Z</time>
      </trkpt>
      <trkpt lat="48.68535" lon="7.31539">
        <ele>459</ele>
        <time>2020-11-28T11:02:02Z</time>
      </trkpt>
      <trkpt lat="48.6853" lon="7.31538">
        <ele>459.6</ele>
        <time>2020-11-28T11:02:04Z</time>
      </trkpt>
      <trkpt lat="48.68524" lon="7.31536">
        <ele>459.8</ele>
        <time>2020-11-28T11:02:06Z</time>
      </trkpt>
      <trkpt lat="48.68519" lon="7.31534">
        <ele>459.7</ele>
        <time>2020-11-28T11:02:08Z</time>
      </trkpt>
      <trkpt lat="48.68512" lon="7.31531">
        <ele>460.6</ele>
        <time>2020-11-28T11:02:11Z</time>
      </trkpt>
      <trkpt lat="48.68507" lon="7.31529">
        <ele>461.4</ele>
        <time>2020-11-28T11:02:13Z</time>
      </trkpt>
      <trkpt lat="48.68501" lon="7.31525">
        <ele>463.1</ele>
        <time>2020-11-28T11:02:16Z</time>
      </trkpt>
      <trkpt lat="48.68496" lon="7.31523">
        <ele>463.4</ele>
        <time>2020-11-28T11:02:18Z</time>
      </trkpt>
      <trkpt lat="48.68491" lon="7.31522">
        <ele>464.1</ele>
        <time>2020-11-28T11:02:20Z</time>
      </trkpt>
      <trkpt lat="48.68485" lon="7.31522">
        <ele>465</ele>
        <time>2020-11-28T11:02:22Z</time>
      </trkpt>
      <trkpt lat="48.68479" lon="7.31522">
        <ele>465.8</ele>
        <time>2020-11-28T11:02:24Z</time>
      </trkpt>
      <trkpt lat="48.68472" lon="7.3152">
        <ele>465.7</ele>
        <time>2020-11-28T11:02:26Z</time>
      </trkpt>
      <trkpt lat="48.68466" lon="7.31518">
        <ele>466.1</ele>
        <time>2020-11-28T11:02:28Z</time>
      </trkpt>
      <trkpt lat="48.68461" lon="7.31515">
        <ele>466.9</ele>
        <time>2020-11-28T11:02:30Z</time>
      </trkpt>
      <trkpt lat="48.68456" lon="7.31511">
        <ele>467.1</ele>
        <time>2020-11-28T11:02:32Z</time>
      </trkpt>
      <trkpt lat="48.68451" lon="7.31508">
        <ele>467.4</ele>
        <time>2020-11-28T11:02:34Z</time>
      </trkpt>
      <trkpt lat="48.68445" lon="7.31504">
        <ele>467.3</ele>
        <time>2020-11-28T11:02:36Z</time>
      </trkpt>
      <trkpt lat="48.6844" lon="7.31499">
        <ele>467.5</ele>
        <time>2020-11-28T11:02:38Z</time>
      </trkpt>
      <trkpt lat="48.68436" lon="7.31496">
        <ele>466.8</ele>
        <time>2020-11-28T11:02:40Z</time>
      </trkpt>
      <trkpt lat="48.68431" lon="7.31494">
        <ele>466.6</ele>
        <time>2020-11-28T11:02:42Z</time>
      </trkpt>
      <trkpt lat="48.68426" lon="7.31492">
        <ele>466</ele>
        <time>2020-11-28T11:02:44Z</time>
      </trkpt>
      <trkpt lat="48.6842" lon="7.31488">
        <ele>466</ele>
        <time>2020-11-28T11:02:47Z</time>
      </trkpt>
      <trkpt lat="48.68414" lon="7.31484">
        <ele>465.5</ele>
        <time>2020-11-28T11:02:50Z</time>
      </trkpt>
      <trkpt lat="48.68409" lon="7.31479">
        <ele>465.7</ele>
        <time>2020-11-28T11:02:52Z</time>
      </trkpt>
      <trkpt lat="48.68404" lon="7.31474">
        <ele>465.6</ele>
        <time>2020-11-28T11:02:54Z</time>
      </trkpt>
      <trkpt lat="48.68399" lon="7.3147">
        <ele>465.9</ele>
        <time>2020-11-28T11:02:56Z</time>
      </trkpt>
      <trkpt lat="48.68393" lon="7.31466">
        <ele>465.7</ele>
        <time>2020-11-28T11:02:58Z</time>
      </trkpt>
      <trkpt lat="48.68388" lon="7.31461">
        <ele>465.5</ele>
        <time>2020-11-28T11:03:00Z</time>
      </trkpt>
      <trkpt lat="48.68383" lon="7.31457">
        <ele>465.1</ele>
        <time>2020-11-28T11:03:02Z</time>
      </trkpt>
      <trkpt lat="48.68378" lon="7.31453">
        <ele>465</ele>
        <time>2020-11-28T11:03:04Z</time>
      </trkpt>
      <trkpt lat="48.68373" lon="7.31448">
        <ele>464.7</ele>
        <time>2020-11-28T11:03:06Z</time>
      </trkpt>
      <trkpt lat="48.68368" lon="7.31443">
        <ele>464.8</ele>
        <time>2020-11-28T11:03:08Z</time>
      </trkpt>
      <trkpt lat="48.68364" lon="7.31439">
        <ele>464.4</ele>
        <time>2020-11-28T11:03:10Z</time>
      </trkpt>
      <trkpt lat="48.68359" lon="7.31435">
        <ele>463.8</ele>
        <time>2020-11-28T11:03:12Z</time>
      </trkpt>
      <trkpt lat="48.68355" lon="7.31431">
        <ele>463.2</ele>
        <time>2020-11-28T11:03:14Z</time>
      </trkpt>
      <trkpt lat="48.68351" lon="7.31427">
        <ele>463</ele>
        <time>2020-11-28T11:03:16Z</time>
      </trkpt>
      <trkpt lat="48.68347" lon="7.31422">
        <ele>462.4</ele>
        <time>2020-11-28T11:03:18Z</time>
      </trkpt>
      <trkpt lat="48.68343" lon="7.31418">
        <ele>462.2</ele>
        <time>2020-11-28T11:03:20Z</time>
      </trkpt>
      <trkpt lat="48.68339" lon="7.31413">
        <ele>462.2</ele>
        <time>2020-11-28T11:03:22Z</time>
      </trkpt>
      <trkpt lat="48.68334" lon="7.31409">
        <ele>462.1</ele>
        <time>2020-11-28T11:03:24Z</time>
      </trkpt>
      <trkpt lat="48.68326" lon="7.31402">
        <ele>462.5</ele>
        <time>2020-11-28T11:03:27Z</time>
      </trkpt>
      <trkpt lat="48.68322" lon="7.31397">
        <ele>463.2</ele>
        <time>2020-11-28T11:03:29Z</time>
      </trkpt>
      <trkpt lat="48.68313" lon="7.3139">
        <ele>464.4</ele>
        <time>2020-11-28T11:03:32Z</time>
      </trkpt>
      <trkpt lat="48.68307" lon="7.31386">
        <ele>465.5</ele>
        <time>2020-11-28T11:03:34Z</time>
      </trkpt>
      <trkpt lat="48.68301" lon="7.31381">
        <ele>466.7</ele>
        <time>2020-11-28T11:03:36Z</time>
      </trkpt>
      <trkpt lat="48.68294" lon="7.31376">
        <ele>467.8</ele>
        <time>2020-11-28T11:03:38Z</time>
      </trkpt>
      <trkpt lat="48.68287" lon="7.31369">
        <ele>469</ele>
        <time>2020-11-28T11:03:40Z</time>
      </trkpt>
      <trkpt lat="48.6828" lon="7.31363">
        <ele>469.4</ele>
        <time>2020-11-28T11:03:42Z</time>
      </trkpt>
      <trkpt lat="48.68273" lon="7.31356">
        <ele>469.8</ele>
        <time>2020-11-28T11:03:44Z</time>
      </trkpt>
      <trkpt lat="48.68267" lon="7.31348">
        <ele>469.9</ele>
        <time>2020-11-28T11:03:46Z</time>
      </trkpt>
      <trkpt lat="48.6826" lon="7.31342">
        <ele>469.7</ele>
        <time>2020-11-28T11:03:48Z</time>
      </trkpt>
      <trkpt lat="48.68252" lon="7.31336">
        <ele>469.7</ele>
        <time>2020-11-28T11:03:50Z</time>
      </trkpt>
      <trkpt lat="48.68246" lon="7.31331">
        <ele>469.6</ele>
        <time>2020-11-28T11:03:52Z</time>
      </trkpt>
      <trkpt lat="48.68239" lon="7.31325">
        <ele>469.3</ele>
        <time>2020-11-28T11:03:54Z</time>
      </trkpt>
      <trkpt lat="48.68234" lon="7.31316">
        <ele>469.5</ele>
        <time>2020-11-28T11:03:56Z</time>
      </trkpt>
      <trkpt lat="48.68229" lon="7.31307">
        <ele>469.3</ele>
        <time>2020-11-28T11:03:58Z</time>
      </trkpt>
      <trkpt lat="48.68224" lon="7.31298">
        <ele>469.2</ele>
        <time>2020-11-28T11:04:00Z</time>
      </trkpt>
      <trkpt lat="48.68219" lon="7.31289">
        <ele>469.5</ele>
        <time>2020-11-28T11:04:02Z</time>
      </trkpt>
      <trkpt lat="48.68214" lon="7.31279">
        <ele>469.5</ele>
        <time>2020-11-28T11:04:04Z</time>
      </trkpt>
      <trkpt lat="48.68207" lon="7.31268">
        <ele>468.9</ele>
        <time>2020-11-28T11:04:06Z</time>
      </trkpt>
      <trkpt lat="48.68202" lon="7.31257">
        <ele>469.2</ele>
        <time>2020-11-28T11:04:08Z</time>
      </trkpt>
      <trkpt lat="48.68197" lon="7.31246">
        <ele>468.9</ele>
        <time>2020-11-28T11:04:10Z</time>
      </trkpt>
      <trkpt lat="48.68191" lon="7.31237">
        <ele>468.7</ele>
        <time>2020-11-28T11:04:12Z</time>
      </trkpt>
      <trkpt lat="48.68187" lon="7.31227">
        <ele>468.9</ele>
        <time>2020-11-28T11:04:14Z</time>
      </trkpt>
      <trkpt lat="48.68181" lon="7.3122">
        <ele>468.6</ele>
        <time>2020-11-28T11:04:16Z</time>
      </trkpt>
      <trkpt lat="48.68176" lon="7.3121">
        <ele>469</ele>
        <time>2020-11-28T11:04:18Z</time>
      </trkpt>
      <trkpt lat="48.68171" lon="7.312">
        <ele>469</ele>
        <time>2020-11-28T11:04:20Z</time>
      </trkpt>
      <trkpt lat="48.68167" lon="7.3119">
        <ele>469.1</ele>
        <time>2020-11-28T11:04:22Z</time>
      </trkpt>
      <trkpt lat="48.68161" lon="7.31182">
        <ele>468.5</ele>
        <time>2020-11-28T11:04:24Z</time>
      </trkpt>
      <trkpt lat="48.68153" lon="7.31173">
        <ele>468.8</ele>
        <time>2020-11-28T11:04:26Z</time>
      </trkpt>
      <trkpt lat="48.68144" lon="7.31169">
        <ele>468.3</ele>
        <time>2020-11-28T11:04:28Z</time>
      </trkpt>
      <trkpt lat="48.68135" lon="7.31168">
        <ele>467.8</ele>
        <time>2020-11-28T11:04:30Z</time>
      </trkpt>
      <trkpt lat="48.68128" lon="7.31169">
        <ele>467.2</ele>
        <time>2020-11-28T11:04:32Z</time>
      </trkpt>
      <trkpt lat="48.68124" lon="7.31165">
        <ele>467.4</ele>
        <time>2020-11-28T11:04:42Z</time>
      </trkpt>
      <trkpt lat="48.68118" lon="7.31167">
        <ele>464.5</ele>
        <time>2020-11-28T11:05:25Z</time>
      </trkpt>
      <trkpt lat="48.68114" lon="7.31171">
        <ele>465.1</ele>
        <time>2020-11-28T11:05:28Z</time>
      </trkpt>
      <trkpt lat="48.68112" lon="7.31177">
        <ele>466.9</ele>
        <time>2020-11-28T11:05:33Z</time>
      </trkpt>
      <trkpt lat="48.68107" lon="7.31176">
        <ele>474.2</ele>
        <time>2020-11-28T11:07:28Z</time>
      </trkpt>
      <trkpt lat="48.68104" lon="7.31182">
        <ele>473.7</ele>
        <time>2020-11-28T11:09:37Z</time>
      </trkpt>
      <trkpt lat="48.68101" lon="7.31187">
        <ele>473.5</ele>
        <time>2020-11-28T11:09:39Z</time>
      </trkpt>
      <trkpt lat="48.68096" lon="7.31193">
        <ele>473.2</ele>
        <time>2020-11-28T11:09:41Z</time>
      </trkpt>
      <trkpt lat="48.68089" lon="7.31202">
        <ele>473.2</ele>
        <time>2020-11-28T11:09:43Z</time>
      </trkpt>
      <trkpt lat="48.68082" lon="7.3121">
        <ele>472.6</ele>
        <time>2020-11-28T11:09:45Z</time>
      </trkpt>
      <trkpt lat="48.68076" lon="7.31223">
        <ele>472.2</ele>
        <time>2020-11-28T11:09:47Z</time>
      </trkpt>
      <trkpt lat="48.68071" lon="7.31237">
        <ele>471.8</ele>
        <time>2020-11-28T11:09:49Z</time>
      </trkpt>
      <trkpt lat="48.68067" lon="7.31248">
        <ele>471.3</ele>
        <time>2020-11-28T11:09:51Z</time>
      </trkpt>
      <trkpt lat="48.68062" lon="7.31259">
        <ele>471.3</ele>
        <time>2020-11-28T11:09:53Z</time>
      </trkpt>
      <trkpt lat="48.68054" lon="7.31268">
        <ele>471.3</ele>
        <time>2020-11-28T11:09:55Z</time>
      </trkpt>
      <trkpt lat="48.68044" lon="7.31276">
        <ele>427.4</ele>
        <time>2020-11-28T11:09:57Z</time>
      </trkpt>
      <trkpt lat="48.68034" lon="7.31281">
        <ele>430.5</ele>
        <time>2020-11-28T11:09:59Z</time>
      </trkpt>
      <trkpt lat="48.68023" lon="7.31286">
        <ele>429.4</ele>
        <time>2020-11-28T11:10:01Z</time>
      </trkpt>
      <trkpt lat="48.68012" lon="7.31289">
        <ele>434.3</ele>
        <time>2020-11-28T11:10:03Z</time>
      </trkpt>
      <trkpt lat="48.68001" lon="7.31291">
        <ele>440.5</ele>
        <time>2020-11-28T11:10:05Z</time>
      </trkpt>
      <trkpt lat="48.6799" lon="7.3129">
        <ele>447</ele>
        <time>2020-11-28T11:10:07Z</time>
      </trkpt>
      <trkpt lat="48.6798" lon="7.31285">
        <ele>451.9</ele>
        <time>2020-11-28T11:10:09Z</time>
      </trkpt>
      <trkpt lat="48.67969" lon="7.3128">
        <ele>457</ele>
        <time>2020-11-28T11:10:11Z</time>
      </trkpt>
      <trkpt lat="48.67959" lon="7.31273">
        <ele>459.6</ele>
        <time>2020-11-28T11:10:13Z</time>
      </trkpt>
      <trkpt lat="48.67949" lon="7.31265">
        <ele>462.6</ele>
        <time>2020-11-28T11:10:15Z</time>
      </trkpt>
      <trkpt lat="48.6794" lon="7.31257">
        <ele>464.7</ele>
        <time>2020-11-28T11:10:17Z</time>
      </trkpt>
      <trkpt lat="48.6793" lon="7.31251">
        <ele>465.2</ele>
        <time>2020-11-28T11:10:19Z</time>
      </trkpt>
      <trkpt lat="48.6792" lon="7.31245">
        <ele>466.9</ele>
        <time>2020-11-28T11:10:21Z</time>
      </trkpt>
      <trkpt lat="48.67909" lon="7.3124">
        <ele>468.3</ele>
        <time>2020-11-28T11:10:23Z</time>
      </trkpt>
      <trkpt lat="48.67901" lon="7.31232">
        <ele>469</ele>
        <time>2020-11-28T11:10:25Z</time>
      </trkpt>
      <trkpt lat="48.6789" lon="7.3123">
        <ele>470.2</ele>
        <time>2020-11-28T11:10:27Z</time>
      </trkpt>
      <trkpt lat="48.67878" lon="7.31231">
        <ele>470.6</ele>
        <time>2020-11-28T11:10:29Z</time>
      </trkpt>
      <trkpt lat="48.67867" lon="7.31233">
        <ele>471.4</ele>
        <time>2020-11-28T11:10:31Z</time>
      </trkpt>
      <trkpt lat="48.67856" lon="7.31234">
        <ele>472.1</ele>
        <time>2020-11-28T11:10:33Z</time>
      </trkpt>
      <trkpt lat="48.67846" lon="7.31236">
        <ele>473.2</ele>
        <time>2020-11-28T11:10:35Z</time>
      </trkpt>
      <trkpt lat="48.67834" lon="7.3124">
        <ele>474</ele>
        <time>2020-11-28T11:10:37Z</time>
      </trkpt>
      <trkpt lat="48.67823" lon="7.31244">
        <ele>474.7</ele>
        <time>2020-11-28T11:10:39Z</time>
      </trkpt>
      <trkpt lat="48.67812" lon="7.31247">
        <ele>475.3</ele>
        <time>2020-11-28T11:10:41Z</time>
      </trkpt>
      <trkpt lat="48.67802" lon="7.31252">
        <ele>476</ele>
        <time>2020-11-28T11:10:43Z</time>
      </trkpt>
      <trkpt lat="48.67792" lon="7.31257">
        <ele>476.6</ele>
        <time>2020-11-28T11:10:45Z</time>
      </trkpt>
      <trkpt lat="48.67783" lon="7.31261">
        <ele>477.2</ele>
        <time>2020-11-28T11:10:47Z</time>
      </trkpt>
      <trkpt lat="48.67773" lon="7.31262">
        <ele>477.8</ele>
        <time>2020-11-28T11:10:49Z</time>
      </trkpt>
      <trkpt lat="48.67763" lon="7.31261">
        <ele>477.9</ele>
        <time>2020-11-28T11:10:51Z</time>
      </trkpt>
      <trkpt lat="48.67753" lon="7.31258">
        <ele>478.3</ele>
        <time>2020-11-28T11:10:53Z</time>
      </trkpt>
      <trkpt lat="48.67743" lon="7.31255">
        <ele>479.2</ele>
        <time>2020-11-28T11:10:55Z</time>
      </trkpt>
      <trkpt lat="48.67732" lon="7.31254">
        <ele>479.1</ele>
        <time>2020-11-28T11:10:57Z</time>
      </trkpt>
      <trkpt lat="48.67721" lon="7.31252">
        <ele>479.2</ele>
        <time>2020-11-28T11:10:59Z</time>
      </trkpt>
      <trkpt lat="48.6771" lon="7.3125">
        <ele>479.4</ele>
        <time>2020-11-28T11:11:01Z</time>
      </trkpt>
      <trkpt lat="48.67699" lon="7.31249">
        <ele>479.1</ele>
        <time>2020-11-28T11:11:03Z</time>
      </trkpt>
      <trkpt lat="48.67688" lon="7.31251">
        <ele>479.4</ele>
        <time>2020-11-28T11:11:05Z</time>
      </trkpt>
      <trkpt lat="48.67677" lon="7.31256">
        <ele>479.7</ele>
        <time>2020-11-28T11:11:07Z</time>
      </trkpt>
      <trkpt lat="48.67666" lon="7.31261">
        <ele>479.2</ele>
        <time>2020-11-28T11:11:09Z</time>
      </trkpt>
      <trkpt lat="48.67656" lon="7.31269">
        <ele>479.3</ele>
        <time>2020-11-28T11:11:11Z</time>
      </trkpt>
      <trkpt lat="48.67646" lon="7.31276">
        <ele>476.3</ele>
        <time>2020-11-28T11:11:13Z</time>
      </trkpt>
      <trkpt lat="48.67635" lon="7.31281">
        <ele>477</ele>
        <time>2020-11-28T11:11:15Z</time>
      </trkpt>
      <trkpt lat="48.67623" lon="7.31285">
        <ele>477.1</ele>
        <time>2020-11-28T11:11:17Z</time>
      </trkpt>
      <trkpt lat="48.67606" lon="7.31283">
        <ele>477.9</ele>
        <time>2020-11-28T11:11:20Z</time>
      </trkpt>
      <trkpt lat="48.67594" lon="7.31283">
        <ele>478.3</ele>
        <time>2020-11-28T11:11:22Z</time>
      </trkpt>
      <trkpt lat="48.67581" lon="7.31282">
        <ele>478</ele>
        <time>2020-11-28T11:11:24Z</time>
      </trkpt>
      <trkpt lat="48.67563" lon="7.31276">
        <ele>478.2</ele>
        <time>2020-11-28T11:11:27Z</time>
      </trkpt>
      <trkpt lat="48.67552" lon="7.31268">
        <ele>478.5</ele>
        <time>2020-11-28T11:11:29Z</time>
      </trkpt>
      <trkpt lat="48.67542" lon="7.31259">
        <ele>478.5</ele>
        <time>2020-11-28T11:11:31Z</time>
      </trkpt>
      <trkpt lat="48.67533" lon="7.31246">
        <ele>478.3</ele>
        <time>2020-11-28T11:11:33Z</time>
      </trkpt>
      <trkpt lat="48.67526" lon="7.31233">
        <ele>478.2</ele>
        <time>2020-11-28T11:11:35Z</time>
      </trkpt>
      <trkpt lat="48.67521" lon="7.31219">
        <ele>478.2</ele>
        <time>2020-11-28T11:11:37Z</time>
      </trkpt>
      <trkpt lat="48.67514" lon="7.31195">
        <ele>477.7</ele>
        <time>2020-11-28T11:11:40Z</time>
      </trkpt>
      <trkpt lat="48.6751" lon="7.31178">
        <ele>477.6</ele>
        <time>2020-11-28T11:11:42Z</time>
      </trkpt>
      <trkpt lat="48.67506" lon="7.31159">
        <ele>477.7</ele>
        <time>2020-11-28T11:11:44Z</time>
      </trkpt>
      <trkpt lat="48.67504" lon="7.31139">
        <ele>477.7</ele>
        <time>2020-11-28T11:11:46Z</time>
      </trkpt>
      <trkpt lat="48.67503" lon="7.3112">
        <ele>477.6</ele>
        <time>2020-11-28T11:11:48Z</time>
      </trkpt>
      <trkpt lat="48.67503" lon="7.31101">
        <ele>477.5</ele>
        <time>2020-11-28T11:11:50Z</time>
      </trkpt>
      <trkpt lat="48.67505" lon="7.31083">
        <ele>477.6</ele>
        <time>2020-11-28T11:11:52Z</time>
      </trkpt>
      <trkpt lat="48.67507" lon="7.31065">
        <ele>477.7</ele>
        <time>2020-11-28T11:11:54Z</time>
      </trkpt>
      <trkpt lat="48.67509" lon="7.31047">
        <ele>478.3</ele>
        <time>2020-11-28T11:11:56Z</time>
      </trkpt>
      <trkpt lat="48.6751" lon="7.3103">
        <ele>478.8</ele>
        <time>2020-11-28T11:11:58Z</time>
      </trkpt>
      <trkpt lat="48.67511" lon="7.31012">
        <ele>479.2</ele>
        <time>2020-11-28T11:12:00Z</time>
      </trkpt>
      <trkpt lat="48.67511" lon="7.30994">
        <ele>479.9</ele>
        <time>2020-11-28T11:12:02Z</time>
      </trkpt>
      <trkpt lat="48.67509" lon="7.30977">
        <ele>480.9</ele>
        <time>2020-11-28T11:12:04Z</time>
      </trkpt>
      <trkpt lat="48.67507" lon="7.3096">
        <ele>481.9</ele>
        <time>2020-11-28T11:12:06Z</time>
      </trkpt>
      <trkpt lat="48.67503" lon="7.30943">
        <ele>483.1</ele>
        <time>2020-11-28T11:12:08Z</time>
      </trkpt>
      <trkpt lat="48.67499" lon="7.30926">
        <ele>484.2</ele>
        <time>2020-11-28T11:12:10Z</time>
      </trkpt>
      <trkpt lat="48.67495" lon="7.3091">
        <ele>484.7</ele>
        <time>2020-11-28T11:12:12Z</time>
      </trkpt>
      <trkpt lat="48.67491" lon="7.30892">
        <ele>485.1</ele>
        <time>2020-11-28T11:12:14Z</time>
      </trkpt>
      <trkpt lat="48.67488" lon="7.30875">
        <ele>485.2</ele>
        <time>2020-11-28T11:12:16Z</time>
      </trkpt>
      <trkpt lat="48.67484" lon="7.3086">
        <ele>485.3</ele>
        <time>2020-11-28T11:12:18Z</time>
      </trkpt>
      <trkpt lat="48.6748" lon="7.30848">
        <ele>485.7</ele>
        <time>2020-11-28T11:12:20Z</time>
      </trkpt>
      <trkpt lat="48.67477" lon="7.30839">
        <ele>485</ele>
        <time>2020-11-28T11:12:22Z</time>
      </trkpt>
      <trkpt lat="48.67474" lon="7.30828">
        <ele>484.6</ele>
        <time>2020-11-28T11:12:24Z</time>
      </trkpt>
      <trkpt lat="48.67469" lon="7.30811">
        <ele>483.7</ele>
        <time>2020-11-28T11:12:27Z</time>
      </trkpt>
      <trkpt lat="48.67465" lon="7.30799">
        <ele>483.8</ele>
        <time>2020-11-28T11:12:29Z</time>
      </trkpt>
      <trkpt lat="48.67461" lon="7.30789">
        <ele>484</ele>
        <time>2020-11-28T11:12:31Z</time>
      </trkpt>
      <trkpt lat="48.67456" lon="7.30778">
        <ele>484.1</ele>
        <time>2020-11-28T11:12:33Z</time>
      </trkpt>
      <trkpt lat="48.67451" lon="7.30767">
        <ele>484.1</ele>
        <time>2020-11-28T11:12:35Z</time>
      </trkpt>
      <trkpt lat="48.67445" lon="7.30756">
        <ele>484.1</ele>
        <time>2020-11-28T11:12:37Z</time>
      </trkpt>
      <trkpt lat="48.6744" lon="7.30744">
        <ele>484.3</ele>
        <time>2020-11-28T11:12:39Z</time>
      </trkpt>
      <trkpt lat="48.67435" lon="7.30733">
        <ele>484.2</ele>
        <time>2020-11-28T11:12:41Z</time>
      </trkpt>
      <trkpt lat="48.67429" lon="7.30719">
        <ele>483.7</ele>
        <time>2020-11-28T11:12:43Z</time>
      </trkpt>
      <trkpt lat="48.67424" lon="7.30706">
        <ele>483.7</ele>
        <time>2020-11-28T11:12:45Z</time>
      </trkpt>
      <trkpt lat="48.67419" lon="7.30692">
        <ele>484.1</ele>
        <time>2020-11-28T11:12:47Z</time>
      </trkpt>
      <trkpt lat="48.67414" lon="7.30678">
        <ele>485</ele>
        <time>2020-11-28T11:12:49Z</time>
      </trkpt>
      <trkpt lat="48.67408" lon="7.30665">
        <ele>485.9</ele>
        <time>2020-11-28T11:12:51Z</time>
      </trkpt>
      <trkpt lat="48.67402" lon="7.30652">
        <ele>486.4</ele>
        <time>2020-11-28T11:12:53Z</time>
      </trkpt>
      <trkpt lat="48.67396" lon="7.30638">
        <ele>487.3</ele>
        <time>2020-11-28T11:12:55Z</time>
      </trkpt>
      <trkpt lat="48.67392" lon="7.30624">
        <ele>487.7</ele>
        <time>2020-11-28T11:12:57Z</time>
      </trkpt>
      <trkpt lat="48.67388" lon="7.30611">
        <ele>487.1</ele>
        <time>2020-11-28T11:12:59Z</time>
      </trkpt>
      <trkpt lat="48.67385" lon="7.30597">
        <ele>486.8</ele>
        <time>2020-11-28T11:13:01Z</time>
      </trkpt>
      <trkpt lat="48.6738" lon="7.30583">
        <ele>486.5</ele>
        <time>2020-11-28T11:13:03Z</time>
      </trkpt>
      <trkpt lat="48.67377" lon="7.30568">
        <ele>487.1</ele>
        <time>2020-11-28T11:13:05Z</time>
      </trkpt>
      <trkpt lat="48.67376" lon="7.30555">
        <ele>486.5</ele>
        <time>2020-11-28T11:13:07Z</time>
      </trkpt>
      <trkpt lat="48.67376" lon="7.30544">
        <ele>485.9</ele>
        <time>2020-11-28T11:13:09Z</time>
      </trkpt>
      <trkpt lat="48.67378" lon="7.30532">
        <ele>485.5</ele>
        <time>2020-11-28T11:13:11Z</time>
      </trkpt>
      <trkpt lat="48.67383" lon="7.3052">
        <ele>484.7</ele>
        <time>2020-11-28T11:13:13Z</time>
      </trkpt>
      <trkpt lat="48.67389" lon="7.30508">
        <ele>484.4</ele>
        <time>2020-11-28T11:13:15Z</time>
      </trkpt>
      <trkpt lat="48.67395" lon="7.30499">
        <ele>484</ele>
        <time>2020-11-28T11:13:17Z</time>
      </trkpt>
      <trkpt lat="48.67401" lon="7.30488">
        <ele>483.9</ele>
        <time>2020-11-28T11:13:19Z</time>
      </trkpt>
      <trkpt lat="48.67407" lon="7.30478">
        <ele>482.6</ele>
        <time>2020-11-28T11:13:21Z</time>
      </trkpt>
      <trkpt lat="48.67411" lon="7.30466">
        <ele>482.7</ele>
        <time>2020-11-28T11:13:23Z</time>
      </trkpt>
      <trkpt lat="48.67416" lon="7.30453">
        <ele>483</ele>
        <time>2020-11-28T11:13:25Z</time>
      </trkpt>
      <trkpt lat="48.6742" lon="7.30433">
        <ele>483.9</ele>
        <time>2020-11-28T11:13:28Z</time>
      </trkpt>
      <trkpt lat="48.6742" lon="7.30419">
        <ele>484.4</ele>
        <time>2020-11-28T11:13:30Z</time>
      </trkpt>
      <trkpt lat="48.67419" lon="7.30406">
        <ele>484.6</ele>
        <time>2020-11-28T11:13:32Z</time>
      </trkpt>
      <trkpt lat="48.67417" lon="7.30395">
        <ele>485.3</ele>
        <time>2020-11-28T11:13:34Z</time>
      </trkpt>
      <trkpt lat="48.67416" lon="7.30384">
        <ele>485.9</ele>
        <time>2020-11-28T11:13:36Z</time>
      </trkpt>
      <trkpt lat="48.67413" lon="7.30374">
        <ele>487.4</ele>
        <time>2020-11-28T11:13:38Z</time>
      </trkpt>
      <trkpt lat="48.6741" lon="7.30364">
        <ele>488.6</ele>
        <time>2020-11-28T11:13:40Z</time>
      </trkpt>
      <trkpt lat="48.67407" lon="7.30353">
        <ele>489.7</ele>
        <time>2020-11-28T11:13:42Z</time>
      </trkpt>
      <trkpt lat="48.67404" lon="7.30341">
        <ele>490.9</ele>
        <time>2020-11-28T11:13:44Z</time>
      </trkpt>
      <trkpt lat="48.67401" lon="7.3033">
        <ele>491.7</ele>
        <time>2020-11-28T11:13:46Z</time>
      </trkpt>
      <trkpt lat="48.67396" lon="7.30321">
        <ele>492.4</ele>
        <time>2020-11-28T11:13:48Z</time>
      </trkpt>
      <trkpt lat="48.67392" lon="7.30312">
        <ele>493</ele>
        <time>2020-11-28T11:13:50Z</time>
      </trkpt>
      <trkpt lat="48.67386" lon="7.30303">
        <ele>493.5</ele>
        <time>2020-11-28T11:13:52Z</time>
      </trkpt>
      <trkpt lat="48.6738" lon="7.30297">
        <ele>493.8</ele>
        <time>2020-11-28T11:13:54Z</time>
      </trkpt>
      <trkpt lat="48.67375" lon="7.30291">
        <ele>494.6</ele>
        <time>2020-11-28T11:13:56Z</time>
      </trkpt>
      <trkpt lat="48.67369" lon="7.30285">
        <ele>494.8</ele>
        <time>2020-11-28T11:13:58Z</time>
      </trkpt>
      <trkpt lat="48.67363" lon="7.30278">
        <ele>494.7</ele>
        <time>2020-11-28T11:14:00Z</time>
      </trkpt>
      <trkpt lat="48.67357" lon="7.30271">
        <ele>493.9</ele>
        <time>2020-11-28T11:14:02Z</time>
      </trkpt>
      <trkpt lat="48.67352" lon="7.30265">
        <ele>493.6</ele>
        <time>2020-11-28T11:14:04Z</time>
      </trkpt>
      <trkpt lat="48.67346" lon="7.30259">
        <ele>493.2</ele>
        <time>2020-11-28T11:14:06Z</time>
      </trkpt>
      <trkpt lat="48.67341" lon="7.30253">
        <ele>493.4</ele>
        <time>2020-11-28T11:14:08Z</time>
      </trkpt>
      <trkpt lat="48.67335" lon="7.30246">
        <ele>493.4</ele>
        <time>2020-11-28T11:14:10Z</time>
      </trkpt>
      <trkpt lat="48.67329" lon="7.3024">
        <ele>493.7</ele>
        <time>2020-11-28T11:14:12Z</time>
      </trkpt>
      <trkpt lat="48.67323" lon="7.30235">
        <ele>494.8</ele>
        <time>2020-11-28T11:14:14Z</time>
      </trkpt>
      <trkpt lat="48.67316" lon="7.30229">
        <ele>495.3</ele>
        <time>2020-11-28T11:14:16Z</time>
      </trkpt>
      <trkpt lat="48.67311" lon="7.30221">
        <ele>495.6</ele>
        <time>2020-11-28T11:14:18Z</time>
      </trkpt>
      <trkpt lat="48.67306" lon="7.30213">
        <ele>495.4</ele>
        <time>2020-11-28T11:14:20Z</time>
      </trkpt>
      <trkpt lat="48.67301" lon="7.30205">
        <ele>495.6</ele>
        <time>2020-11-28T11:14:22Z</time>
      </trkpt>
      <trkpt lat="48.67296" lon="7.30196">
        <ele>495.6</ele>
        <time>2020-11-28T11:14:24Z</time>
      </trkpt>
      <trkpt lat="48.6729" lon="7.30189">
        <ele>495.7</ele>
        <time>2020-11-28T11:14:26Z</time>
      </trkpt>
      <trkpt lat="48.67285" lon="7.30181">
        <ele>495.9</ele>
        <time>2020-11-28T11:14:28Z</time>
      </trkpt>
      <trkpt lat="48.67279" lon="7.30175">
        <ele>496.7</ele>
        <time>2020-11-28T11:14:30Z</time>
      </trkpt>
      <trkpt lat="48.67273" lon="7.30168">
        <ele>496.9</ele>
        <time>2020-11-28T11:14:32Z</time>
      </trkpt>
      <trkpt lat="48.67267" lon="7.30161">
        <ele>494.7</ele>
        <time>2020-11-28T11:14:34Z</time>
      </trkpt>
      <trkpt lat="48.67259" lon="7.3015">
        <ele>494.4</ele>
        <time>2020-11-28T11:14:37Z</time>
      </trkpt>
      <trkpt lat="48.67254" lon="7.30143">
        <ele>494.2</ele>
        <time>2020-11-28T11:14:39Z</time>
      </trkpt>
      <trkpt lat="48.6725" lon="7.30139">
        <ele>494.7</ele>
        <time>2020-11-28T11:14:41Z</time>
      </trkpt>
      <trkpt lat="48.67246" lon="7.30134">
        <ele>495.3</ele>
        <time>2020-11-28T11:14:43Z</time>
      </trkpt>
      <trkpt lat="48.67241" lon="7.30128">
        <ele>495.2</ele>
        <time>2020-11-28T11:14:45Z</time>
      </trkpt>
      <trkpt lat="48.67236" lon="7.3012">
        <ele>495.3</ele>
        <time>2020-11-28T11:14:47Z</time>
      </trkpt>
      <trkpt lat="48.67231" lon="7.30112">
        <ele>495.2</ele>
        <time>2020-11-28T11:14:49Z</time>
      </trkpt>
      <trkpt lat="48.67225" lon="7.30101">
        <ele>495.6</ele>
        <time>2020-11-28T11:14:51Z</time>
      </trkpt>
      <trkpt lat="48.6722" lon="7.3009">
        <ele>495.5</ele>
        <time>2020-11-28T11:14:53Z</time>
      </trkpt>
      <trkpt lat="48.67217" lon="7.30079">
        <ele>495</ele>
        <time>2020-11-28T11:14:55Z</time>
      </trkpt>
      <trkpt lat="48.67213" lon="7.30069">
        <ele>491.8</ele>
        <time>2020-11-28T11:14:57Z</time>
      </trkpt>
      <trkpt lat="48.6721" lon="7.30058">
        <ele>490.4</ele>
        <time>2020-11-28T11:14:59Z</time>
      </trkpt>
      <trkpt lat="48.67209" lon="7.30045">
        <ele>490.3</ele>
        <time>2020-11-28T11:15:01Z</time>
      </trkpt>
      <trkpt lat="48.67208" lon="7.30033">
        <ele>485.7</ele>
        <time>2020-11-28T11:15:03Z</time>
      </trkpt>
      <trkpt lat="48.67208" lon="7.3002">
        <ele>486.6</ele>
        <time>2020-11-28T11:15:05Z</time>
      </trkpt>
      <trkpt lat="48.67208" lon="7.30008">
        <ele>487.1</ele>
        <time>2020-11-28T11:15:07Z</time>
      </trkpt>
      <trkpt lat="48.67209" lon="7.29996">
        <ele>488.9</ele>
        <time>2020-11-28T11:15:09Z</time>
      </trkpt>
      <trkpt lat="48.6721" lon="7.29984">
        <ele>490.9</ele>
        <time>2020-11-28T11:15:11Z</time>
      </trkpt>
      <trkpt lat="48.67211" lon="7.29972">
        <ele>492.7</ele>
        <time>2020-11-28T11:15:13Z</time>
      </trkpt>
      <trkpt lat="48.67212" lon="7.2996">
        <ele>494.1</ele>
        <time>2020-11-28T11:15:15Z</time>
      </trkpt>
      <trkpt lat="48.67213" lon="7.29949">
        <ele>495.3</ele>
        <time>2020-11-28T11:15:17Z</time>
      </trkpt>
      <trkpt lat="48.67215" lon="7.29938">
        <ele>497.5</ele>
        <time>2020-11-28T11:15:19Z</time>
      </trkpt>
      <trkpt lat="48.67215" lon="7.29926">
        <ele>499.6</ele>
        <time>2020-11-28T11:15:21Z</time>
      </trkpt>
      <trkpt lat="48.67216" lon="7.29915">
        <ele>500.4</ele>
        <time>2020-11-28T11:15:23Z</time>
      </trkpt>
      <trkpt lat="48.67217" lon="7.29905">
        <ele>500.6</ele>
        <time>2020-11-28T11:15:25Z</time>
      </trkpt>
      <trkpt lat="48.67219" lon="7.29894">
        <ele>500.5</ele>
        <time>2020-11-28T11:15:27Z</time>
      </trkpt>
      <trkpt lat="48.6722" lon="7.29884">
        <ele>500.1</ele>
        <time>2020-11-28T11:15:29Z</time>
      </trkpt>
      <trkpt lat="48.67222" lon="7.29873">
        <ele>500.1</ele>
        <time>2020-11-28T11:15:31Z</time>
      </trkpt>
      <trkpt lat="48.67223" lon="7.29861">
        <ele>500.5</ele>
        <time>2020-11-28T11:15:33Z</time>
      </trkpt>
      <trkpt lat="48.67225" lon="7.2985">
        <ele>500.8</ele>
        <time>2020-11-28T11:15:35Z</time>
      </trkpt>
      <trkpt lat="48.67228" lon="7.29836">
        <ele>501.6</ele>
        <time>2020-11-28T11:15:37Z</time>
      </trkpt>
      <trkpt lat="48.67229" lon="7.2982">
        <ele>502.4</ele>
        <time>2020-11-28T11:15:39Z</time>
      </trkpt>
      <trkpt lat="48.67231" lon="7.29805">
        <ele>503.9</ele>
        <time>2020-11-28T11:15:41Z</time>
      </trkpt>
      <trkpt lat="48.67235" lon="7.29789">
        <ele>504.8</ele>
        <time>2020-11-28T11:15:43Z</time>
      </trkpt>
      <trkpt lat="48.67238" lon="7.29775">
        <ele>505.9</ele>
        <time>2020-11-28T11:15:45Z</time>
      </trkpt>
      <trkpt lat="48.67242" lon="7.29759">
        <ele>506.1</ele>
        <time>2020-11-28T11:15:47Z</time>
      </trkpt>
      <trkpt lat="48.67245" lon="7.29742">
        <ele>506.7</ele>
        <time>2020-11-28T11:15:49Z</time>
      </trkpt>
      <trkpt lat="48.67248" lon="7.29724">
        <ele>507.9</ele>
        <time>2020-11-28T11:15:51Z</time>
      </trkpt>
      <trkpt lat="48.67248" lon="7.29707">
        <ele>509.1</ele>
        <time>2020-11-28T11:15:53Z</time>
      </trkpt>
      <trkpt lat="48.67248" lon="7.29693">
        <ele>497.4</ele>
        <time>2020-11-28T11:15:55Z</time>
      </trkpt>
      <trkpt lat="48.67244" lon="7.29682">
        <ele>495.1</ele>
        <time>2020-11-28T11:15:57Z</time>
      </trkpt>
      <trkpt lat="48.67241" lon="7.29671">
        <ele>492.8</ele>
        <time>2020-11-28T11:15:59Z</time>
      </trkpt>
      <trkpt lat="48.67237" lon="7.29657">
        <ele>493.9</ele>
        <time>2020-11-28T11:16:01Z</time>
      </trkpt>
      <trkpt lat="48.67232" lon="7.29642">
        <ele>495.9</ele>
        <time>2020-11-28T11:16:03Z</time>
      </trkpt>
      <trkpt lat="48.67226" lon="7.29629">
        <ele>497.6</ele>
        <time>2020-11-28T11:16:05Z</time>
      </trkpt>
      <trkpt lat="48.67218" lon="7.29616">
        <ele>499.6</ele>
        <time>2020-11-28T11:16:07Z</time>
      </trkpt>
      <trkpt lat="48.67211" lon="7.29606">
        <ele>500.6</ele>
        <time>2020-11-28T11:16:09Z</time>
      </trkpt>
      <trkpt lat="48.67201" lon="7.29597">
        <ele>501.7</ele>
        <time>2020-11-28T11:16:11Z</time>
      </trkpt>
      <trkpt lat="48.67192" lon="7.29589">
        <ele>502.2</ele>
        <time>2020-11-28T11:16:13Z</time>
      </trkpt>
      <trkpt lat="48.67183" lon="7.29582">
        <ele>502.6</ele>
        <time>2020-11-28T11:16:15Z</time>
      </trkpt>
      <trkpt lat="48.67171" lon="7.29577">
        <ele>502.6</ele>
        <time>2020-11-28T11:16:17Z</time>
      </trkpt>
      <trkpt lat="48.6716" lon="7.29569">
        <ele>502.4</ele>
        <time>2020-11-28T11:16:19Z</time>
      </trkpt>
      <trkpt lat="48.67149" lon="7.29561">
        <ele>502.9</ele>
        <time>2020-11-28T11:16:21Z</time>
      </trkpt>
      <trkpt lat="48.67135" lon="7.29558">
        <ele>503.8</ele>
        <time>2020-11-28T11:16:23Z</time>
      </trkpt>
      <trkpt lat="48.6712" lon="7.29555">
        <ele>504.7</ele>
        <time>2020-11-28T11:16:25Z</time>
      </trkpt>
      <trkpt lat="48.67105" lon="7.2955">
        <ele>505.3</ele>
        <time>2020-11-28T11:16:27Z</time>
      </trkpt>
      <trkpt lat="48.67093" lon="7.2954">
        <ele>506.1</ele>
        <time>2020-11-28T11:16:29Z</time>
      </trkpt>
      <trkpt lat="48.67081" lon="7.2953">
        <ele>506.6</ele>
        <time>2020-11-28T11:16:31Z</time>
      </trkpt>
      <trkpt lat="48.67072" lon="7.29517">
        <ele>506.9</ele>
        <time>2020-11-28T11:16:33Z</time>
      </trkpt>
      <trkpt lat="48.67061" lon="7.29503">
        <ele>506.6</ele>
        <time>2020-11-28T11:16:35Z</time>
      </trkpt>
      <trkpt lat="48.67052" lon="7.29488">
        <ele>505.8</ele>
        <time>2020-11-28T11:16:37Z</time>
      </trkpt>
      <trkpt lat="48.67043" lon="7.2947">
        <ele>506.5</ele>
        <time>2020-11-28T11:16:39Z</time>
      </trkpt>
      <trkpt lat="48.67035" lon="7.29454">
        <ele>506.7</ele>
        <time>2020-11-28T11:16:41Z</time>
      </trkpt>
      <trkpt lat="48.67028" lon="7.29438">
        <ele>507</ele>
        <time>2020-11-28T11:16:43Z</time>
      </trkpt>
      <trkpt lat="48.6702" lon="7.29423">
        <ele>507.1</ele>
        <time>2020-11-28T11:16:45Z</time>
      </trkpt>
      <trkpt lat="48.67012" lon="7.29407">
        <ele>507.2</ele>
        <time>2020-11-28T11:16:47Z</time>
      </trkpt>
      <trkpt lat="48.67005" lon="7.29391">
        <ele>507.9</ele>
        <time>2020-11-28T11:16:49Z</time>
      </trkpt>
      <trkpt lat="48.66997" lon="7.29375">
        <ele>507.4</ele>
        <time>2020-11-28T11:16:51Z</time>
      </trkpt>
      <trkpt lat="48.66989" lon="7.29359">
        <ele>506.9</ele>
        <time>2020-11-28T11:16:53Z</time>
      </trkpt>
      <trkpt lat="48.66981" lon="7.29342">
        <ele>506.1</ele>
        <time>2020-11-28T11:16:55Z</time>
      </trkpt>
      <trkpt lat="48.66974" lon="7.29324">
        <ele>505.4</ele>
        <time>2020-11-28T11:16:57Z</time>
      </trkpt>
      <trkpt lat="48.66967" lon="7.29305">
        <ele>505.2</ele>
        <time>2020-11-28T11:16:59Z</time>
      </trkpt>
      <trkpt lat="48.6696" lon="7.29287">
        <ele>504.7</ele>
        <time>2020-11-28T11:17:01Z</time>
      </trkpt>
      <trkpt lat="48.66952" lon="7.29271">
        <ele>504.8</ele>
        <time>2020-11-28T11:17:03Z</time>
      </trkpt>
      <trkpt lat="48.66946" lon="7.29255">
        <ele>504.6</ele>
        <time>2020-11-28T11:17:05Z</time>
      </trkpt>
      <trkpt lat="48.66939" lon="7.29239">
        <ele>506.2</ele>
        <time>2020-11-28T11:17:07Z</time>
      </trkpt>
      <trkpt lat="48.66934" lon="7.2922">
        <ele>506.3</ele>
        <time>2020-11-28T11:17:09Z</time>
      </trkpt>
      <trkpt lat="48.66929" lon="7.292">
        <ele>506.8</ele>
        <time>2020-11-28T11:17:11Z</time>
      </trkpt>
      <trkpt lat="48.66925" lon="7.2918">
        <ele>506.8</ele>
        <time>2020-11-28T11:17:13Z</time>
      </trkpt>
      <trkpt lat="48.6692" lon="7.2916">
        <ele>507.6</ele>
        <time>2020-11-28T11:17:15Z</time>
      </trkpt>
      <trkpt lat="48.66916" lon="7.29141">
        <ele>508.4</ele>
        <time>2020-11-28T11:17:17Z</time>
      </trkpt>
      <trkpt lat="48.66911" lon="7.29122">
        <ele>509.1</ele>
        <time>2020-11-28T11:17:19Z</time>
      </trkpt>
      <trkpt lat="48.66907" lon="7.29103">
        <ele>509.5</ele>
        <time>2020-11-28T11:17:21Z</time>
      </trkpt>
      <trkpt lat="48.66903" lon="7.29083">
        <ele>509.6</ele>
        <time>2020-11-28T11:17:23Z</time>
      </trkpt>
      <trkpt lat="48.66901" lon="7.29063">
        <ele>510.6</ele>
        <time>2020-11-28T11:17:25Z</time>
      </trkpt>
      <trkpt lat="48.66899" lon="7.29044">
        <ele>511.2</ele>
        <time>2020-11-28T11:17:27Z</time>
      </trkpt>
      <trkpt lat="48.66898" lon="7.29024">
        <ele>511.1</ele>
        <time>2020-11-28T11:17:29Z</time>
      </trkpt>
      <trkpt lat="48.66898" lon="7.29004">
        <ele>510</ele>
        <time>2020-11-28T11:17:31Z</time>
      </trkpt>
      <trkpt lat="48.66897" lon="7.28983">
        <ele>509.1</ele>
        <time>2020-11-28T11:17:33Z</time>
      </trkpt>
      <trkpt lat="48.66896" lon="7.28961">
        <ele>508.4</ele>
        <time>2020-11-28T11:17:35Z</time>
      </trkpt>
      <trkpt lat="48.66894" lon="7.28939">
        <ele>508.2</ele>
        <time>2020-11-28T11:17:37Z</time>
      </trkpt>
      <trkpt lat="48.66892" lon="7.28919">
        <ele>507.9</ele>
        <time>2020-11-28T11:17:39Z</time>
      </trkpt>
      <trkpt lat="48.6689" lon="7.28901">
        <ele>507.6</ele>
        <time>2020-11-28T11:17:41Z</time>
      </trkpt>
      <trkpt lat="48.66889" lon="7.28888">
        <ele>506.5</ele>
        <time>2020-11-28T11:17:43Z</time>
      </trkpt>
      <trkpt lat="48.66891" lon="7.28877">
        <ele>505.3</ele>
        <time>2020-11-28T11:17:45Z</time>
      </trkpt>
      <trkpt lat="48.66891" lon="7.28867">
        <ele>504.4</ele>
        <time>2020-11-28T11:17:47Z</time>
      </trkpt>
      <trkpt lat="48.66887" lon="7.28857">
        <ele>504.1</ele>
        <time>2020-11-28T11:17:49Z</time>
      </trkpt>
      <trkpt lat="48.66884" lon="7.2885">
        <ele>504.6</ele>
        <time>2020-11-28T11:17:52Z</time>
      </trkpt>
      <trkpt lat="48.66883" lon="7.28842">
        <ele>510.2</ele>
        <time>2020-11-28T11:18:29Z</time>
      </trkpt>
      <trkpt lat="48.66881" lon="7.28835">
        <ele>510.6</ele>
        <time>2020-11-28T11:18:32Z</time>
      </trkpt>
      <trkpt lat="48.66879" lon="7.28828">
        <ele>511</ele>
        <time>2020-11-28T11:18:34Z</time>
      </trkpt>
      <trkpt lat="48.66875" lon="7.28815">
        <ele>511.6</ele>
        <time>2020-11-28T11:18:37Z</time>
      </trkpt>
      <trkpt lat="48.6687" lon="7.28805">
        <ele>512.4</ele>
        <time>2020-11-28T11:18:39Z</time>
      </trkpt>
      <trkpt lat="48.66864" lon="7.28796">
        <ele>512.9</ele>
        <time>2020-11-28T11:18:41Z</time>
      </trkpt>
      <trkpt lat="48.6686" lon="7.28789">
        <ele>514</ele>
        <time>2020-11-28T11:18:43Z</time>
      </trkpt>
      <trkpt lat="48.66855" lon="7.28782">
        <ele>514.8</ele>
        <time>2020-11-28T11:18:45Z</time>
      </trkpt>
      <trkpt lat="48.6685" lon="7.28776">
        <ele>500.5</ele>
        <time>2020-11-28T11:18:47Z</time>
      </trkpt>
      <trkpt lat="48.66842" lon="7.28766">
        <ele>496.6</ele>
        <time>2020-11-28T11:18:50Z</time>
      </trkpt>
      <trkpt lat="48.66839" lon="7.28758">
        <ele>496.2</ele>
        <time>2020-11-28T11:18:52Z</time>
      </trkpt>
      <trkpt lat="48.66837" lon="7.28749">
        <ele>497.3</ele>
        <time>2020-11-28T11:18:54Z</time>
      </trkpt>
      <trkpt lat="48.66835" lon="7.28739">
        <ele>499.1</ele>
        <time>2020-11-28T11:18:56Z</time>
      </trkpt>
      <trkpt lat="48.66834" lon="7.28729">
        <ele>502</ele>
        <time>2020-11-28T11:18:58Z</time>
      </trkpt>
      <trkpt lat="48.66832" lon="7.28714">
        <ele>506</ele>
        <time>2020-11-28T11:19:01Z</time>
      </trkpt>
      <trkpt lat="48.6683" lon="7.287">
        <ele>509.5</ele>
        <time>2020-11-28T11:19:04Z</time>
      </trkpt>
      <trkpt lat="48.66828" lon="7.28689">
        <ele>511.3</ele>
        <time>2020-11-28T11:19:06Z</time>
      </trkpt>
      <trkpt lat="48.66822" lon="7.28674">
        <ele>512.9</ele>
        <time>2020-11-28T11:19:08Z</time>
      </trkpt>
      <trkpt lat="48.66817" lon="7.2866">
        <ele>514.2</ele>
        <time>2020-11-28T11:19:10Z</time>
      </trkpt>
      <trkpt lat="48.66814" lon="7.28646">
        <ele>516</ele>
        <time>2020-11-28T11:19:12Z</time>
      </trkpt>
      <trkpt lat="48.66811" lon="7.28634">
        <ele>506.5</ele>
        <time>2020-11-28T11:19:14Z</time>
      </trkpt>
      <trkpt lat="48.66808" lon="7.28616">
        <ele>507.6</ele>
        <time>2020-11-28T11:19:17Z</time>
      </trkpt>
      <trkpt lat="48.66805" lon="7.28604">
        <ele>510.1</ele>
        <time>2020-11-28T11:19:19Z</time>
      </trkpt>
      <trkpt lat="48.66804" lon="7.28594">
        <ele>511.7</ele>
        <time>2020-11-28T11:19:21Z</time>
      </trkpt>
      <trkpt lat="48.66803" lon="7.28585">
        <ele>514</ele>
        <time>2020-11-28T11:19:23Z</time>
      </trkpt>
      <trkpt lat="48.66803" lon="7.28577">
        <ele>515.3</ele>
        <time>2020-11-28T11:19:26Z</time>
      </trkpt>
      <trkpt lat="48.66803" lon="7.28569">
        <ele>516.1</ele>
        <time>2020-11-28T11:19:29Z</time>
      </trkpt>
      <trkpt lat="48.66801" lon="7.28562">
        <ele>516.5</ele>
        <time>2020-11-28T11:19:31Z</time>
      </trkpt>
      <trkpt lat="48.66797" lon="7.28554">
        <ele>517.2</ele>
        <time>2020-11-28T11:19:33Z</time>
      </trkpt>
      <trkpt lat="48.66793" lon="7.28547">
        <ele>517.5</ele>
        <time>2020-11-28T11:19:35Z</time>
      </trkpt>
      <trkpt lat="48.6679" lon="7.2854">
        <ele>518.1</ele>
        <time>2020-11-28T11:19:37Z</time>
      </trkpt>
      <trkpt lat="48.66787" lon="7.28533">
        <ele>518.6</ele>
        <time>2020-11-28T11:19:39Z</time>
      </trkpt>
      <trkpt lat="48.66784" lon="7.28526">
        <ele>519.4</ele>
        <time>2020-11-28T11:19:41Z</time>
      </trkpt>
      <trkpt lat="48.66781" lon="7.28519">
        <ele>519.7</ele>
        <time>2020-11-28T11:19:43Z</time>
      </trkpt>
      <trkpt lat="48.66778" lon="7.28511">
        <ele>520.5</ele>
        <time>2020-11-28T11:19:45Z</time>
      </trkpt>
      <trkpt lat="48.66775" lon="7.28502">
        <ele>521.1</ele>
        <time>2020-11-28T11:19:47Z</time>
      </trkpt>
      <trkpt lat="48.66771" lon="7.28492">
        <ele>522.1</ele>
        <time>2020-11-28T11:19:49Z</time>
      </trkpt>
      <trkpt lat="48.66768" lon="7.28483">
        <ele>522.6</ele>
        <time>2020-11-28T11:19:51Z</time>
      </trkpt>
      <trkpt lat="48.66763" lon="7.28474">
        <ele>522.8</ele>
        <time>2020-11-28T11:19:53Z</time>
      </trkpt>
      <trkpt lat="48.66758" lon="7.28466">
        <ele>523.4</ele>
        <time>2020-11-28T11:19:55Z</time>
      </trkpt>
      <trkpt lat="48.66754" lon="7.2846">
        <ele>524</ele>
        <time>2020-11-28T11:19:57Z</time>
      </trkpt>
      <trkpt lat="48.66749" lon="7.28455">
        <ele>524.3</ele>
        <time>2020-11-28T11:19:59Z</time>
      </trkpt>
      <trkpt lat="48.66746" lon="7.2845">
        <ele>526.3</ele>
        <time>2020-11-28T11:20:06Z</time>
      </trkpt>
      <trkpt lat="48.66741" lon="7.28446">
        <ele>529.2</ele>
        <time>2020-11-28T11:20:13Z</time>
      </trkpt>
      <trkpt lat="48.66735" lon="7.28443">
        <ele>529.7</ele>
        <time>2020-11-28T11:20:16Z</time>
      </trkpt>
      <trkpt lat="48.66727" lon="7.28439">
        <ele>530.4</ele>
        <time>2020-11-28T11:20:19Z</time>
      </trkpt>
      <trkpt lat="48.66721" lon="7.28437">
        <ele>530.6</ele>
        <time>2020-11-28T11:20:21Z</time>
      </trkpt>
      <trkpt lat="48.66716" lon="7.28434">
        <ele>530.9</ele>
        <time>2020-11-28T11:20:23Z</time>
      </trkpt>
      <trkpt lat="48.6671" lon="7.28431">
        <ele>531.3</ele>
        <time>2020-11-28T11:20:25Z</time>
      </trkpt>
      <trkpt lat="48.66705" lon="7.28428">
        <ele>531.3</ele>
        <time>2020-11-28T11:20:27Z</time>
      </trkpt>
      <trkpt lat="48.667" lon="7.28425">
        <ele>531.4</ele>
        <time>2020-11-28T11:20:29Z</time>
      </trkpt>
      <trkpt lat="48.66696" lon="7.28421">
        <ele>531.8</ele>
        <time>2020-11-28T11:20:31Z</time>
      </trkpt>
      <trkpt lat="48.6669" lon="7.28418">
        <ele>532</ele>
        <time>2020-11-28T11:20:33Z</time>
      </trkpt>
      <trkpt lat="48.66682" lon="7.28413">
        <ele>532.4</ele>
        <time>2020-11-28T11:20:36Z</time>
      </trkpt>
      <trkpt lat="48.66675" lon="7.28409">
        <ele>532.9</ele>
        <time>2020-11-28T11:20:39Z</time>
      </trkpt>
      <trkpt lat="48.66669" lon="7.28406">
        <ele>533.4</ele>
        <time>2020-11-28T11:20:41Z</time>
      </trkpt>
      <trkpt lat="48.66663" lon="7.28404">
        <ele>533.7</ele>
        <time>2020-11-28T11:20:43Z</time>
      </trkpt>
      <trkpt lat="48.66656" lon="7.28402">
        <ele>533.3</ele>
        <time>2020-11-28T11:20:45Z</time>
      </trkpt>
      <trkpt lat="48.6665" lon="7.28399">
        <ele>532.8</ele>
        <time>2020-11-28T11:20:47Z</time>
      </trkpt>
      <trkpt lat="48.66643" lon="7.28397">
        <ele>531.6</ele>
        <time>2020-11-28T11:20:49Z</time>
      </trkpt>
      <trkpt lat="48.66637" lon="7.28395">
        <ele>531.1</ele>
        <time>2020-11-28T11:20:51Z</time>
      </trkpt>
      <trkpt lat="48.66629" lon="7.28393">
        <ele>530.7</ele>
        <time>2020-11-28T11:20:53Z</time>
      </trkpt>
      <trkpt lat="48.66621" lon="7.28389">
        <ele>530.1</ele>
        <time>2020-11-28T11:20:55Z</time>
      </trkpt>
      <trkpt lat="48.66613" lon="7.28385">
        <ele>530.3</ele>
        <time>2020-11-28T11:20:57Z</time>
      </trkpt>
      <trkpt lat="48.66605" lon="7.28382">
        <ele>530.5</ele>
        <time>2020-11-28T11:20:59Z</time>
      </trkpt>
      <trkpt lat="48.66598" lon="7.28378">
        <ele>530.7</ele>
        <time>2020-11-28T11:21:01Z</time>
      </trkpt>
      <trkpt lat="48.6659" lon="7.28374">
        <ele>530.9</ele>
        <time>2020-11-28T11:21:03Z</time>
      </trkpt>
      <trkpt lat="48.66582" lon="7.2837">
        <ele>531.7</ele>
        <time>2020-11-28T11:21:05Z</time>
      </trkpt>
      <trkpt lat="48.66574" lon="7.28367">
        <ele>532.3</ele>
        <time>2020-11-28T11:21:07Z</time>
      </trkpt>
      <trkpt lat="48.66565" lon="7.28363">
        <ele>533.2</ele>
        <time>2020-11-28T11:21:09Z</time>
      </trkpt>
      <trkpt lat="48.66558" lon="7.2836">
        <ele>533.8</ele>
        <time>2020-11-28T11:21:11Z</time>
      </trkpt>
      <trkpt lat="48.66551" lon="7.28358">
        <ele>534.7</ele>
        <time>2020-11-28T11:21:13Z</time>
      </trkpt>
      <trkpt lat="48.66544" lon="7.28354">
        <ele>535.9</ele>
        <time>2020-11-28T11:21:15Z</time>
      </trkpt>
      <trkpt lat="48.66537" lon="7.28351">
        <ele>536.6</ele>
        <time>2020-11-28T11:21:17Z</time>
      </trkpt>
      <trkpt lat="48.6653" lon="7.28346">
        <ele>536.9</ele>
        <time>2020-11-28T11:21:19Z</time>
      </trkpt>
      <trkpt lat="48.66521" lon="7.28343">
        <ele>537.1</ele>
        <time>2020-11-28T11:21:21Z</time>
      </trkpt>
      <trkpt lat="48.66512" lon="7.2834">
        <ele>537.5</ele>
        <time>2020-11-28T11:21:23Z</time>
      </trkpt>
      <trkpt lat="48.66504" lon="7.28336">
        <ele>537.9</ele>
        <time>2020-11-28T11:21:25Z</time>
      </trkpt>
      <trkpt lat="48.66497" lon="7.28332">
        <ele>538.4</ele>
        <time>2020-11-28T11:21:27Z</time>
      </trkpt>
      <trkpt lat="48.6649" lon="7.28328">
        <ele>538.8</ele>
        <time>2020-11-28T11:21:29Z</time>
      </trkpt>
      <trkpt lat="48.66484" lon="7.28324">
        <ele>538.5</ele>
        <time>2020-11-28T11:21:31Z</time>
      </trkpt>
      <trkpt lat="48.66477" lon="7.2832">
        <ele>538.8</ele>
        <time>2020-11-28T11:21:33Z</time>
      </trkpt>
      <trkpt lat="48.66471" lon="7.28316">
        <ele>539.4</ele>
        <time>2020-11-28T11:21:35Z</time>
      </trkpt>
      <trkpt lat="48.66465" lon="7.28311">
        <ele>539.5</ele>
        <time>2020-11-28T11:21:37Z</time>
      </trkpt>
      <trkpt lat="48.66458" lon="7.28306">
        <ele>539.8</ele>
        <time>2020-11-28T11:21:39Z</time>
      </trkpt>
      <trkpt lat="48.66451" lon="7.28298">
        <ele>540.2</ele>
        <time>2020-11-28T11:21:41Z</time>
      </trkpt>
      <trkpt lat="48.66445" lon="7.2829">
        <ele>540.6</ele>
        <time>2020-11-28T11:21:43Z</time>
      </trkpt>
      <trkpt lat="48.66439" lon="7.28282">
        <ele>541.3</ele>
        <time>2020-11-28T11:21:45Z</time>
      </trkpt>
      <trkpt lat="48.66433" lon="7.28274">
        <ele>541.8</ele>
        <time>2020-11-28T11:21:47Z</time>
      </trkpt>
      <trkpt lat="48.66428" lon="7.28265">
        <ele>541.8</ele>
        <time>2020-11-28T11:21:49Z</time>
      </trkpt>
      <trkpt lat="48.66424" lon="7.28257">
        <ele>541.8</ele>
        <time>2020-11-28T11:21:51Z</time>
      </trkpt>
      <trkpt lat="48.66421" lon="7.28251">
        <ele>541.5</ele>
        <time>2020-11-28T11:21:53Z</time>
      </trkpt>
      <trkpt lat="48.66418" lon="7.28246">
        <ele>541.2</ele>
        <time>2020-11-28T11:21:55Z</time>
      </trkpt>
      <trkpt lat="48.66413" lon="7.28239">
        <ele>541.3</ele>
        <time>2020-11-28T11:21:57Z</time>
      </trkpt>
      <trkpt lat="48.66409" lon="7.28231">
        <ele>541.9</ele>
        <time>2020-11-28T11:21:59Z</time>
      </trkpt>
      <trkpt lat="48.66406" lon="7.28221">
        <ele>543.3</ele>
        <time>2020-11-28T11:22:01Z</time>
      </trkpt>
      <trkpt lat="48.66401" lon="7.28208">
        <ele>543.8</ele>
        <time>2020-11-28T11:22:04Z</time>
      </trkpt>
      <trkpt lat="48.66398" lon="7.28199">
        <ele>543.5</ele>
        <time>2020-11-28T11:22:06Z</time>
      </trkpt>
      <trkpt lat="48.66394" lon="7.28191">
        <ele>543.6</ele>
        <time>2020-11-28T11:22:08Z</time>
      </trkpt>
      <trkpt lat="48.66386" lon="7.28179">
        <ele>504.5</ele>
        <time>2020-11-28T11:22:11Z</time>
      </trkpt>
      <trkpt lat="48.66381" lon="7.28172">
        <ele>498.7</ele>
        <time>2020-11-28T11:22:13Z</time>
      </trkpt>
      <trkpt lat="48.66377" lon="7.28165">
        <ele>489.9</ele>
        <time>2020-11-28T11:22:15Z</time>
      </trkpt>
      <trkpt lat="48.66373" lon="7.28159">
        <ele>490.8</ele>
        <time>2020-11-28T11:22:17Z</time>
      </trkpt>
      <trkpt lat="48.66369" lon="7.28153">
        <ele>494.4</ele>
        <time>2020-11-28T11:22:19Z</time>
      </trkpt>
      <trkpt lat="48.66364" lon="7.28147">
        <ele>501.4</ele>
        <time>2020-11-28T11:22:21Z</time>
      </trkpt>
      <trkpt lat="48.66359" lon="7.28142">
        <ele>505.5</ele>
        <time>2020-11-28T11:22:23Z</time>
      </trkpt>
      <trkpt lat="48.66353" lon="7.28137">
        <ele>508.9</ele>
        <time>2020-11-28T11:22:25Z</time>
      </trkpt>
      <trkpt lat="48.66347" lon="7.28131">
        <ele>514.8</ele>
        <time>2020-11-28T11:22:27Z</time>
      </trkpt>
      <trkpt lat="48.66341" lon="7.28126">
        <ele>519.5</ele>
        <time>2020-11-28T11:22:29Z</time>
      </trkpt>
      <trkpt lat="48.66335" lon="7.28122">
        <ele>523.4</ele>
        <time>2020-11-28T11:22:31Z</time>
      </trkpt>
      <trkpt lat="48.66329" lon="7.28117">
        <ele>527.6</ele>
        <time>2020-11-28T11:22:33Z</time>
      </trkpt>
      <trkpt lat="48.66322" lon="7.28113">
        <ele>530.6</ele>
        <time>2020-11-28T11:22:35Z</time>
      </trkpt>
      <trkpt lat="48.66316" lon="7.28109">
        <ele>533</ele>
        <time>2020-11-28T11:22:37Z</time>
      </trkpt>
      <trkpt lat="48.6631" lon="7.28105">
        <ele>534.6</ele>
        <time>2020-11-28T11:22:39Z</time>
      </trkpt>
      <trkpt lat="48.66303" lon="7.28103">
        <ele>535.9</ele>
        <time>2020-11-28T11:22:41Z</time>
      </trkpt>
      <trkpt lat="48.66295" lon="7.281">
        <ele>537.8</ele>
        <time>2020-11-28T11:22:43Z</time>
      </trkpt>
      <trkpt lat="48.66286" lon="7.28097">
        <ele>539.9</ele>
        <time>2020-11-28T11:22:45Z</time>
      </trkpt>
      <trkpt lat="48.66278" lon="7.28095">
        <ele>541.9</ele>
        <time>2020-11-28T11:22:47Z</time>
      </trkpt>
      <trkpt lat="48.66271" lon="7.28092">
        <ele>543.8</ele>
        <time>2020-11-28T11:22:49Z</time>
      </trkpt>
      <trkpt lat="48.66264" lon="7.2809">
        <ele>544.8</ele>
        <time>2020-11-28T11:22:51Z</time>
      </trkpt>
      <trkpt lat="48.66257" lon="7.2809">
        <ele>516.3</ele>
        <time>2020-11-28T11:22:53Z</time>
      </trkpt>
      <trkpt lat="48.66252" lon="7.28092">
        <ele>510.9</ele>
        <time>2020-11-28T11:22:55Z</time>
      </trkpt>
      <trkpt lat="48.66248" lon="7.28095">
        <ele>511.2</ele>
        <time>2020-11-28T11:22:58Z</time>
      </trkpt>
      <trkpt lat="48.66244" lon="7.28098">
        <ele>541.3</ele>
        <time>2020-11-28T11:23:15Z</time>
      </trkpt>
      <trkpt lat="48.6624" lon="7.281">
        <ele>546.1</ele>
        <time>2020-11-28T11:23:18Z</time>
      </trkpt>
      <trkpt lat="48.66232" lon="7.28103">
        <ele>549.6</ele>
        <time>2020-11-28T11:23:21Z</time>
      </trkpt>
      <trkpt lat="48.66223" lon="7.28106">
        <ele>552.2</ele>
        <time>2020-11-28T11:23:24Z</time>
      </trkpt>
      <trkpt lat="48.66217" lon="7.28107">
        <ele>553.6</ele>
        <time>2020-11-28T11:23:26Z</time>
      </trkpt>
      <trkpt lat="48.6621" lon="7.28109">
        <ele>554.3</ele>
        <time>2020-11-28T11:23:28Z</time>
      </trkpt>
      <trkpt lat="48.66204" lon="7.2811">
        <ele>554.9</ele>
        <time>2020-11-28T11:23:30Z</time>
      </trkpt>
      <trkpt lat="48.66197" lon="7.28111">
        <ele>554.9</ele>
        <time>2020-11-28T11:23:32Z</time>
      </trkpt>
      <trkpt lat="48.6619" lon="7.28112">
        <ele>555.2</ele>
        <time>2020-11-28T11:23:34Z</time>
      </trkpt>
      <trkpt lat="48.66183" lon="7.28113">
        <ele>555.8</ele>
        <time>2020-11-28T11:23:36Z</time>
      </trkpt>
      <trkpt lat="48.66177" lon="7.28113">
        <ele>556.8</ele>
        <time>2020-11-28T11:23:38Z</time>
      </trkpt>
      <trkpt lat="48.6617" lon="7.28113">
        <ele>557.7</ele>
        <time>2020-11-28T11:23:40Z</time>
      </trkpt>
      <trkpt lat="48.66158" lon="7.28113">
        <ele>559.7</ele>
        <time>2020-11-28T11:23:43Z</time>
      </trkpt>
      <trkpt lat="48.6615" lon="7.28115">
        <ele>560.2</ele>
        <time>2020-11-28T11:23:45Z</time>
      </trkpt>
      <trkpt lat="48.66143" lon="7.28119">
        <ele>561.2</ele>
        <time>2020-11-28T11:23:47Z</time>
      </trkpt>
      <trkpt lat="48.66127" lon="7.28126">
        <ele>561.7</ele>
        <time>2020-11-28T11:23:50Z</time>
      </trkpt>
      <trkpt lat="48.66112" lon="7.28131">
        <ele>561.3</ele>
        <time>2020-11-28T11:23:53Z</time>
      </trkpt>
      <trkpt lat="48.66103" lon="7.28133">
        <ele>561</ele>
        <time>2020-11-28T11:23:55Z</time>
      </trkpt>
      <trkpt lat="48.66087" lon="7.28136">
        <ele>561.8</ele>
        <time>2020-11-28T11:23:58Z</time>
      </trkpt>
      <trkpt lat="48.66072" lon="7.28138">
        <ele>562.4</ele>
        <time>2020-11-28T11:24:01Z</time>
      </trkpt>
      <trkpt lat="48.66064" lon="7.28137">
        <ele>562.7</ele>
        <time>2020-11-28T11:24:03Z</time>
      </trkpt>
      <trkpt lat="48.66054" lon="7.28135">
        <ele>563.2</ele>
        <time>2020-11-28T11:24:05Z</time>
      </trkpt>
      <trkpt lat="48.66045" lon="7.28133">
        <ele>563.5</ele>
        <time>2020-11-28T11:24:07Z</time>
      </trkpt>
      <trkpt lat="48.66036" lon="7.28128">
        <ele>563.8</ele>
        <time>2020-11-28T11:24:09Z</time>
      </trkpt>
      <trkpt lat="48.66028" lon="7.28123">
        <ele>563.7</ele>
        <time>2020-11-28T11:24:11Z</time>
      </trkpt>
      <trkpt lat="48.66018" lon="7.28116">
        <ele>563.2</ele>
        <time>2020-11-28T11:24:13Z</time>
      </trkpt>
      <trkpt lat="48.66009" lon="7.28108">
        <ele>563</ele>
        <time>2020-11-28T11:24:15Z</time>
      </trkpt>
      <trkpt lat="48.65999" lon="7.28101">
        <ele>562.5</ele>
        <time>2020-11-28T11:24:17Z</time>
      </trkpt>
      <trkpt lat="48.65991" lon="7.28092">
        <ele>562.3</ele>
        <time>2020-11-28T11:24:19Z</time>
      </trkpt>
      <trkpt lat="48.65982" lon="7.28083">
        <ele>562.5</ele>
        <time>2020-11-28T11:24:21Z</time>
      </trkpt>
      <trkpt lat="48.65973" lon="7.28075">
        <ele>563.2</ele>
        <time>2020-11-28T11:24:23Z</time>
      </trkpt>
      <trkpt lat="48.65963" lon="7.28069">
        <ele>564</ele>
        <time>2020-11-28T11:24:25Z</time>
      </trkpt>
      <trkpt lat="48.65953" lon="7.28063">
        <ele>564.9</ele>
        <time>2020-11-28T11:24:27Z</time>
      </trkpt>
      <trkpt lat="48.65943" lon="7.2806">
        <ele>566.4</ele>
        <time>2020-11-28T11:24:29Z</time>
      </trkpt>
      <trkpt lat="48.65933" lon="7.28059">
        <ele>567.2</ele>
        <time>2020-11-28T11:24:31Z</time>
      </trkpt>
      <trkpt lat="48.65924" lon="7.28058">
        <ele>568.7</ele>
        <time>2020-11-28T11:24:33Z</time>
      </trkpt>
      <trkpt lat="48.65914" lon="7.28055">
        <ele>569.3</ele>
        <time>2020-11-28T11:24:35Z</time>
      </trkpt>
      <trkpt lat="48.65904" lon="7.28053">
        <ele>570.1</ele>
        <time>2020-11-28T11:24:37Z</time>
      </trkpt>
      <trkpt lat="48.65894" lon="7.28054">
        <ele>571</ele>
        <time>2020-11-28T11:24:39Z</time>
      </trkpt>
      <trkpt lat="48.65885" lon="7.28055">
        <ele>571.7</ele>
        <time>2020-11-28T11:24:41Z</time>
      </trkpt>
      <trkpt lat="48.65876" lon="7.28056">
        <ele>572.3</ele>
        <time>2020-11-28T11:24:43Z</time>
      </trkpt>
      <trkpt lat="48.65866" lon="7.28057">
        <ele>572.3</ele>
        <time>2020-11-28T11:24:45Z</time>
      </trkpt>
      <trkpt lat="48.65857" lon="7.28058">
        <ele>572.3</ele>
        <time>2020-11-28T11:24:47Z</time>
      </trkpt>
      <trkpt lat="48.65848" lon="7.28059">
        <ele>572.2</ele>
        <time>2020-11-28T11:24:49Z</time>
      </trkpt>
      <trkpt lat="48.65836" lon="7.28061">
        <ele>572.5</ele>
        <time>2020-11-28T11:24:51Z</time>
      </trkpt>
      <trkpt lat="48.65825" lon="7.28064">
        <ele>572.9</ele>
        <time>2020-11-28T11:24:53Z</time>
      </trkpt>
      <trkpt lat="48.65815" lon="7.28067">
        <ele>573.2</ele>
        <time>2020-11-28T11:24:55Z</time>
      </trkpt>
      <trkpt lat="48.65806" lon="7.28069">
        <ele>573.6</ele>
        <time>2020-11-28T11:24:57Z</time>
      </trkpt>
      <trkpt lat="48.65797" lon="7.28073">
        <ele>573.9</ele>
        <time>2020-11-28T11:24:59Z</time>
      </trkpt>
      <trkpt lat="48.65786" lon="7.28078">
        <ele>573.9</ele>
        <time>2020-11-28T11:25:01Z</time>
      </trkpt>
      <trkpt lat="48.65775" lon="7.28083">
        <ele>574.6</ele>
        <time>2020-11-28T11:25:03Z</time>
      </trkpt>
      <trkpt lat="48.65766" lon="7.28087">
        <ele>575.6</ele>
        <time>2020-11-28T11:25:05Z</time>
      </trkpt>
      <trkpt lat="48.65758" lon="7.28091">
        <ele>576.5</ele>
        <time>2020-11-28T11:25:07Z</time>
      </trkpt>
      <trkpt lat="48.65749" lon="7.28095">
        <ele>577.7</ele>
        <time>2020-11-28T11:25:09Z</time>
      </trkpt>
      <trkpt lat="48.65737" lon="7.28105">
        <ele>578.4</ele>
        <time>2020-11-28T11:25:12Z</time>
      </trkpt>
      <trkpt lat="48.65729" lon="7.28117">
        <ele>577.4</ele>
        <time>2020-11-28T11:25:14Z</time>
      </trkpt>
      <trkpt lat="48.65721" lon="7.28129">
        <ele>577.3</ele>
        <time>2020-11-28T11:25:16Z</time>
      </trkpt>
      <trkpt lat="48.65713" lon="7.2814">
        <ele>577.1</ele>
        <time>2020-11-28T11:25:18Z</time>
      </trkpt>
      <trkpt lat="48.65706" lon="7.2815">
        <ele>577.1</ele>
        <time>2020-11-28T11:25:20Z</time>
      </trkpt>
      <trkpt lat="48.65699" lon="7.28159">
        <ele>576.8</ele>
        <time>2020-11-28T11:25:22Z</time>
      </trkpt>
      <trkpt lat="48.65691" lon="7.28167">
        <ele>576.3</ele>
        <time>2020-11-28T11:25:24Z</time>
      </trkpt>
      <trkpt lat="48.65682" lon="7.28175">
        <ele>576.2</ele>
        <time>2020-11-28T11:25:26Z</time>
      </trkpt>
      <trkpt lat="48.65673" lon="7.28183">
        <ele>575.2</ele>
        <time>2020-11-28T11:25:28Z</time>
      </trkpt>
      <trkpt lat="48.65664" lon="7.2819">
        <ele>574.7</ele>
        <time>2020-11-28T11:25:30Z</time>
      </trkpt>
      <trkpt lat="48.65656" lon="7.28195">
        <ele>574.5</ele>
        <time>2020-11-28T11:25:32Z</time>
      </trkpt>
      <trkpt lat="48.65648" lon="7.282">
        <ele>574</ele>
        <time>2020-11-28T11:25:34Z</time>
      </trkpt>
      <trkpt lat="48.6564" lon="7.28205">
        <ele>573.1</ele>
        <time>2020-11-28T11:25:36Z</time>
      </trkpt>
      <trkpt lat="48.6563" lon="7.28209">
        <ele>573.3</ele>
        <time>2020-11-28T11:25:38Z</time>
      </trkpt>
      <trkpt lat="48.65622" lon="7.28212">
        <ele>574</ele>
        <time>2020-11-28T11:25:40Z</time>
      </trkpt>
      <trkpt lat="48.65613" lon="7.28216">
        <ele>574.7</ele>
        <time>2020-11-28T11:25:42Z</time>
      </trkpt>
      <trkpt lat="48.65602" lon="7.28222">
        <ele>575.7</ele>
        <time>2020-11-28T11:25:44Z</time>
      </trkpt>
      <trkpt lat="48.65591" lon="7.28229">
        <ele>576.2</ele>
        <time>2020-11-28T11:25:46Z</time>
      </trkpt>
      <trkpt lat="48.6558" lon="7.28233">
        <ele>577.5</ele>
        <time>2020-11-28T11:25:48Z</time>
      </trkpt>
      <trkpt lat="48.6557" lon="7.28235">
        <ele>579.4</ele>
        <time>2020-11-28T11:25:50Z</time>
      </trkpt>
      <trkpt lat="48.65562" lon="7.28236">
        <ele>581.1</ele>
        <time>2020-11-28T11:25:52Z</time>
      </trkpt>
      <trkpt lat="48.65548" lon="7.28237">
        <ele>583.9</ele>
        <time>2020-11-28T11:25:55Z</time>
      </trkpt>
      <trkpt lat="48.6554" lon="7.28238">
        <ele>585.2</ele>
        <time>2020-11-28T11:25:57Z</time>
      </trkpt>
      <trkpt lat="48.65532" lon="7.2824">
        <ele>585.4</ele>
        <time>2020-11-28T11:25:59Z</time>
      </trkpt>
      <trkpt lat="48.65525" lon="7.28239">
        <ele>585.4</ele>
        <time>2020-11-28T11:26:01Z</time>
      </trkpt>
      <trkpt lat="48.65517" lon="7.28237">
        <ele>585.6</ele>
        <time>2020-11-28T11:26:03Z</time>
      </trkpt>
      <trkpt lat="48.65509" lon="7.28236">
        <ele>583.9</ele>
        <time>2020-11-28T11:26:05Z</time>
      </trkpt>
      <trkpt lat="48.65501" lon="7.28236">
        <ele>583</ele>
        <time>2020-11-28T11:26:07Z</time>
      </trkpt>
      <trkpt lat="48.65492" lon="7.28237">
        <ele>582.3</ele>
        <time>2020-11-28T11:26:09Z</time>
      </trkpt>
      <trkpt lat="48.65482" lon="7.28238">
        <ele>581.7</ele>
        <time>2020-11-28T11:26:11Z</time>
      </trkpt>
      <trkpt lat="48.65473" lon="7.28238">
        <ele>581.6</ele>
        <time>2020-11-28T11:26:13Z</time>
      </trkpt>
      <trkpt lat="48.65462" lon="7.28238">
        <ele>581.7</ele>
        <time>2020-11-28T11:26:15Z</time>
      </trkpt>
      <trkpt lat="48.65453" lon="7.28237">
        <ele>582.3</ele>
        <time>2020-11-28T11:26:17Z</time>
      </trkpt>
      <trkpt lat="48.65443" lon="7.28237">
        <ele>583.1</ele>
        <time>2020-11-28T11:26:19Z</time>
      </trkpt>
      <trkpt lat="48.65434" lon="7.28236">
        <ele>582.9</ele>
        <time>2020-11-28T11:26:21Z</time>
      </trkpt>
      <trkpt lat="48.65427" lon="7.28237">
        <ele>583.5</ele>
        <time>2020-11-28T11:26:23Z</time>
      </trkpt>
      <trkpt lat="48.6542" lon="7.28235">
        <ele>583.8</ele>
        <time>2020-11-28T11:26:25Z</time>
      </trkpt>
      <trkpt lat="48.65413" lon="7.28234">
        <ele>584.6</ele>
        <time>2020-11-28T11:26:27Z</time>
      </trkpt>
      <trkpt lat="48.65406" lon="7.28231">
        <ele>584.9</ele>
        <time>2020-11-28T11:26:29Z</time>
      </trkpt>
      <trkpt lat="48.65398" lon="7.28229">
        <ele>584.8</ele>
        <time>2020-11-28T11:26:31Z</time>
      </trkpt>
      <trkpt lat="48.65391" lon="7.28228">
        <ele>584.7</ele>
        <time>2020-11-28T11:26:33Z</time>
      </trkpt>
      <trkpt lat="48.65382" lon="7.28227">
        <ele>584.6</ele>
        <time>2020-11-28T11:26:35Z</time>
      </trkpt>
      <trkpt lat="48.65375" lon="7.28227">
        <ele>585</ele>
        <time>2020-11-28T11:26:37Z</time>
      </trkpt>
      <trkpt lat="48.65368" lon="7.28226">
        <ele>585.4</ele>
        <time>2020-11-28T11:26:39Z</time>
      </trkpt>
      <trkpt lat="48.65362" lon="7.28226">
        <ele>586</ele>
        <time>2020-11-28T11:26:41Z</time>
      </trkpt>
      <trkpt lat="48.65355" lon="7.28227">
        <ele>586.8</ele>
        <time>2020-11-28T11:26:43Z</time>
      </trkpt>
      <trkpt lat="48.65349" lon="7.28228">
        <ele>588.7</ele>
        <time>2020-11-28T11:26:45Z</time>
      </trkpt>
      <trkpt lat="48.65341" lon="7.2823">
        <ele>588.8</ele>
        <time>2020-11-28T11:26:47Z</time>
      </trkpt>
      <trkpt lat="48.65334" lon="7.28232">
        <ele>590.3</ele>
        <time>2020-11-28T11:26:49Z</time>
      </trkpt>
      <trkpt lat="48.65327" lon="7.28235">
        <ele>591.6</ele>
        <time>2020-11-28T11:26:51Z</time>
      </trkpt>
      <trkpt lat="48.6532" lon="7.28238">
        <ele>592.5</ele>
        <time>2020-11-28T11:26:53Z</time>
      </trkpt>
      <trkpt lat="48.65312" lon="7.28243">
        <ele>593.1</ele>
        <time>2020-11-28T11:26:55Z</time>
      </trkpt>
      <trkpt lat="48.65304" lon="7.28249">
        <ele>594</ele>
        <time>2020-11-28T11:26:57Z</time>
      </trkpt>
      <trkpt lat="48.65297" lon="7.28255">
        <ele>594</ele>
        <time>2020-11-28T11:26:59Z</time>
      </trkpt>
      <trkpt lat="48.65289" lon="7.28262">
        <ele>594.7</ele>
        <time>2020-11-28T11:27:01Z</time>
      </trkpt>
      <trkpt lat="48.65281" lon="7.28268">
        <ele>590.8</ele>
        <time>2020-11-28T11:27:03Z</time>
      </trkpt>
      <trkpt lat="48.65275" lon="7.28274">
        <ele>590.9</ele>
        <time>2020-11-28T11:27:05Z</time>
      </trkpt>
      <trkpt lat="48.65268" lon="7.28281">
        <ele>590.8</ele>
        <time>2020-11-28T11:27:07Z</time>
      </trkpt>
      <trkpt lat="48.65262" lon="7.28289">
        <ele>592.2</ele>
        <time>2020-11-28T11:27:09Z</time>
      </trkpt>
      <trkpt lat="48.65255" lon="7.28297">
        <ele>593</ele>
        <time>2020-11-28T11:27:11Z</time>
      </trkpt>
      <trkpt lat="48.65249" lon="7.28304">
        <ele>594.4</ele>
        <time>2020-11-28T11:27:13Z</time>
      </trkpt>
      <trkpt lat="48.65243" lon="7.28312">
        <ele>591.2</ele>
        <time>2020-11-28T11:27:15Z</time>
      </trkpt>
      <trkpt lat="48.65236" lon="7.28322">
        <ele>591.9</ele>
        <time>2020-11-28T11:27:17Z</time>
      </trkpt>
      <trkpt lat="48.65229" lon="7.28332">
        <ele>591.9</ele>
        <time>2020-11-28T11:27:19Z</time>
      </trkpt>
      <trkpt lat="48.65222" lon="7.28342">
        <ele>593.3</ele>
        <time>2020-11-28T11:27:21Z</time>
      </trkpt>
      <trkpt lat="48.65216" lon="7.28351">
        <ele>595.1</ele>
        <time>2020-11-28T11:27:23Z</time>
      </trkpt>
      <trkpt lat="48.65209" lon="7.28361">
        <ele>597.1</ele>
        <time>2020-11-28T11:27:25Z</time>
      </trkpt>
      <trkpt lat="48.65203" lon="7.28371">
        <ele>598.8</ele>
        <time>2020-11-28T11:27:27Z</time>
      </trkpt>
      <trkpt lat="48.65196" lon="7.2838">
        <ele>600.7</ele>
        <time>2020-11-28T11:27:29Z</time>
      </trkpt>
      <trkpt lat="48.6519" lon="7.28389">
        <ele>602.2</ele>
        <time>2020-11-28T11:27:31Z</time>
      </trkpt>
      <trkpt lat="48.65183" lon="7.28398">
        <ele>602.6</ele>
        <time>2020-11-28T11:27:33Z</time>
      </trkpt>
      <trkpt lat="48.65177" lon="7.28407">
        <ele>602.8</ele>
        <time>2020-11-28T11:27:35Z</time>
      </trkpt>
      <trkpt lat="48.6517" lon="7.28414">
        <ele>603.9</ele>
        <time>2020-11-28T11:27:37Z</time>
      </trkpt>
      <trkpt lat="48.65163" lon="7.28421">
        <ele>604.8</ele>
        <time>2020-11-28T11:27:39Z</time>
      </trkpt>
      <trkpt lat="48.65154" lon="7.28427">
        <ele>605.5</ele>
        <time>2020-11-28T11:27:41Z</time>
      </trkpt>
      <trkpt lat="48.65148" lon="7.28433">
        <ele>606.1</ele>
        <time>2020-11-28T11:27:43Z</time>
      </trkpt>
      <trkpt lat="48.65142" lon="7.28437">
        <ele>606.5</ele>
        <time>2020-11-28T11:27:45Z</time>
      </trkpt>
      <trkpt lat="48.65135" lon="7.28442">
        <ele>606.1</ele>
        <time>2020-11-28T11:27:47Z</time>
      </trkpt>
      <trkpt lat="48.65127" lon="7.28452">
        <ele>606.2</ele>
        <time>2020-11-28T11:27:49Z</time>
      </trkpt>
      <trkpt lat="48.65118" lon="7.28461">
        <ele>606.4</ele>
        <time>2020-11-28T11:27:51Z</time>
      </trkpt>
      <trkpt lat="48.65109" lon="7.28468">
        <ele>606.8</ele>
        <time>2020-11-28T11:27:53Z</time>
      </trkpt>
      <trkpt lat="48.65102" lon="7.28476">
        <ele>607</ele>
        <time>2020-11-28T11:27:55Z</time>
      </trkpt>
      <trkpt lat="48.65095" lon="7.28486">
        <ele>606.9</ele>
        <time>2020-11-28T11:27:57Z</time>
      </trkpt>
      <trkpt lat="48.65087" lon="7.28494">
        <ele>606.5</ele>
        <time>2020-11-28T11:27:59Z</time>
      </trkpt>
      <trkpt lat="48.6508" lon="7.28504">
        <ele>605.8</ele>
        <time>2020-11-28T11:28:01Z</time>
      </trkpt>
      <trkpt lat="48.65072" lon="7.28512">
        <ele>605.8</ele>
        <time>2020-11-28T11:28:03Z</time>
      </trkpt>
      <trkpt lat="48.65065" lon="7.2852">
        <ele>606.4</ele>
        <time>2020-11-28T11:28:05Z</time>
      </trkpt>
      <trkpt lat="48.65058" lon="7.28527">
        <ele>607.1</ele>
        <time>2020-11-28T11:28:07Z</time>
      </trkpt>
      <trkpt lat="48.65052" lon="7.28534">
        <ele>607.7</ele>
        <time>2020-11-28T11:28:09Z</time>
      </trkpt>
      <trkpt lat="48.65046" lon="7.2854">
        <ele>607.9</ele>
        <time>2020-11-28T11:28:11Z</time>
      </trkpt>
      <trkpt lat="48.65038" lon="7.28548">
        <ele>608.8</ele>
        <time>2020-11-28T11:28:14Z</time>
      </trkpt>
      <trkpt lat="48.65032" lon="7.28553">
        <ele>609.2</ele>
        <time>2020-11-28T11:28:16Z</time>
      </trkpt>
      <trkpt lat="48.65026" lon="7.28559">
        <ele>609.7</ele>
        <time>2020-11-28T11:28:18Z</time>
      </trkpt>
      <trkpt lat="48.65019" lon="7.28566">
        <ele>610.4</ele>
        <time>2020-11-28T11:28:20Z</time>
      </trkpt>
      <trkpt lat="48.65012" lon="7.28573">
        <ele>611</ele>
        <time>2020-11-28T11:28:22Z</time>
      </trkpt>
      <trkpt lat="48.65004" lon="7.2858">
        <ele>611</ele>
        <time>2020-11-28T11:28:24Z</time>
      </trkpt>
      <trkpt lat="48.64997" lon="7.28587">
        <ele>611</ele>
        <time>2020-11-28T11:28:26Z</time>
      </trkpt>
      <trkpt lat="48.64989" lon="7.28593">
        <ele>610.4</ele>
        <time>2020-11-28T11:28:28Z</time>
      </trkpt>
      <trkpt lat="48.64981" lon="7.28598">
        <ele>610.5</ele>
        <time>2020-11-28T11:28:30Z</time>
      </trkpt>
      <trkpt lat="48.64974" lon="7.28602">
        <ele>610.9</ele>
        <time>2020-11-28T11:28:32Z</time>
      </trkpt>
      <trkpt lat="48.64965" lon="7.28604">
        <ele>611.8</ele>
        <time>2020-11-28T11:28:34Z</time>
      </trkpt>
      <trkpt lat="48.64956" lon="7.28606">
        <ele>612.1</ele>
        <time>2020-11-28T11:28:36Z</time>
      </trkpt>
      <trkpt lat="48.64948" lon="7.28606">
        <ele>613.6</ele>
        <time>2020-11-28T11:28:38Z</time>
      </trkpt>
      <trkpt lat="48.64939" lon="7.28607">
        <ele>614.2</ele>
        <time>2020-11-28T11:28:40Z</time>
      </trkpt>
      <trkpt lat="48.64931" lon="7.28608">
        <ele>614.3</ele>
        <time>2020-11-28T11:28:42Z</time>
      </trkpt>
      <trkpt lat="48.64924" lon="7.28605">
        <ele>614.1</ele>
        <time>2020-11-28T11:28:44Z</time>
      </trkpt>
      <trkpt lat="48.64915" lon="7.28603">
        <ele>614</ele>
        <time>2020-11-28T11:28:46Z</time>
      </trkpt>
      <trkpt lat="48.64907" lon="7.286">
        <ele>613.9</ele>
        <time>2020-11-28T11:28:48Z</time>
      </trkpt>
      <trkpt lat="48.64899" lon="7.28596">
        <ele>613.7</ele>
        <time>2020-11-28T11:28:50Z</time>
      </trkpt>
      <trkpt lat="48.64891" lon="7.28592">
        <ele>613.2</ele>
        <time>2020-11-28T11:28:52Z</time>
      </trkpt>
      <trkpt lat="48.64883" lon="7.28588">
        <ele>612.5</ele>
        <time>2020-11-28T11:28:54Z</time>
      </trkpt>
      <trkpt lat="48.64876" lon="7.28581">
        <ele>612</ele>
        <time>2020-11-28T11:28:56Z</time>
      </trkpt>
      <trkpt lat="48.64868" lon="7.28575">
        <ele>611.6</ele>
        <time>2020-11-28T11:28:58Z</time>
      </trkpt>
      <trkpt lat="48.64861" lon="7.2857">
        <ele>610</ele>
        <time>2020-11-28T11:29:00Z</time>
      </trkpt>
      <trkpt lat="48.64854" lon="7.28563">
        <ele>610.9</ele>
        <time>2020-11-28T11:29:02Z</time>
      </trkpt>
      <trkpt lat="48.64848" lon="7.28554">
        <ele>611.5</ele>
        <time>2020-11-28T11:29:04Z</time>
      </trkpt>
      <trkpt lat="48.64843" lon="7.28544">
        <ele>611.9</ele>
        <time>2020-11-28T11:29:06Z</time>
      </trkpt>
      <trkpt lat="48.64838" lon="7.28534">
        <ele>613.2</ele>
        <time>2020-11-28T11:29:08Z</time>
      </trkpt>
      <trkpt lat="48.64835" lon="7.28523">
        <ele>614.5</ele>
        <time>2020-11-28T11:29:10Z</time>
      </trkpt>
      <trkpt lat="48.6483" lon="7.28505">
        <ele>615.6</ele>
        <time>2020-11-28T11:29:13Z</time>
      </trkpt>
      <trkpt lat="48.64826" lon="7.28494">
        <ele>616.5</ele>
        <time>2020-11-28T11:29:15Z</time>
      </trkpt>
      <trkpt lat="48.64823" lon="7.28483">
        <ele>617.1</ele>
        <time>2020-11-28T11:29:17Z</time>
      </trkpt>
      <trkpt lat="48.64821" lon="7.28471">
        <ele>617.6</ele>
        <time>2020-11-28T11:29:19Z</time>
      </trkpt>
      <trkpt lat="48.6482" lon="7.28458">
        <ele>618</ele>
        <time>2020-11-28T11:29:21Z</time>
      </trkpt>
      <trkpt lat="48.64819" lon="7.28445">
        <ele>618.9</ele>
        <time>2020-11-28T11:29:23Z</time>
      </trkpt>
      <trkpt lat="48.64819" lon="7.28433">
        <ele>619.4</ele>
        <time>2020-11-28T11:29:25Z</time>
      </trkpt>
      <trkpt lat="48.64818" lon="7.2842">
        <ele>619.9</ele>
        <time>2020-11-28T11:29:27Z</time>
      </trkpt>
      <trkpt lat="48.64816" lon="7.28408">
        <ele>620.7</ele>
        <time>2020-11-28T11:29:29Z</time>
      </trkpt>
      <trkpt lat="48.64814" lon="7.28396">
        <ele>621.7</ele>
        <time>2020-11-28T11:29:31Z</time>
      </trkpt>
      <trkpt lat="48.64811" lon="7.28384">
        <ele>623.3</ele>
        <time>2020-11-28T11:29:33Z</time>
      </trkpt>
      <trkpt lat="48.64807" lon="7.28371">
        <ele>624.5</ele>
        <time>2020-11-28T11:29:35Z</time>
      </trkpt>
      <trkpt lat="48.64803" lon="7.28359">
        <ele>625</ele>
        <time>2020-11-28T11:29:37Z</time>
      </trkpt>
      <trkpt lat="48.64799" lon="7.28348">
        <ele>624.7</ele>
        <time>2020-11-28T11:29:39Z</time>
      </trkpt>
      <trkpt lat="48.64796" lon="7.28337">
        <ele>625</ele>
        <time>2020-11-28T11:29:41Z</time>
      </trkpt>
      <trkpt lat="48.64792" lon="7.28326">
        <ele>625.1</ele>
        <time>2020-11-28T11:29:43Z</time>
      </trkpt>
      <trkpt lat="48.64789" lon="7.28315">
        <ele>625.9</ele>
        <time>2020-11-28T11:29:45Z</time>
      </trkpt>
      <trkpt lat="48.64785" lon="7.28305">
        <ele>626.8</ele>
        <time>2020-11-28T11:29:47Z</time>
      </trkpt>
      <trkpt lat="48.64781" lon="7.28295">
        <ele>628</ele>
        <time>2020-11-28T11:29:49Z</time>
      </trkpt>
      <trkpt lat="48.64776" lon="7.28285">
        <ele>628.6</ele>
        <time>2020-11-28T11:29:51Z</time>
      </trkpt>
      <trkpt lat="48.64769" lon="7.28268">
        <ele>629.8</ele>
        <time>2020-11-28T11:29:54Z</time>
      </trkpt>
      <trkpt lat="48.64763" lon="7.28258">
        <ele>629.8</ele>
        <time>2020-11-28T11:29:56Z</time>
      </trkpt>
      <trkpt lat="48.64758" lon="7.28248">
        <ele>630.5</ele>
        <time>2020-11-28T11:29:58Z</time>
      </trkpt>
      <trkpt lat="48.64752" lon="7.28238">
        <ele>630.9</ele>
        <time>2020-11-28T11:30:00Z</time>
      </trkpt>
      <trkpt lat="48.64746" lon="7.28226">
        <ele>631.4</ele>
        <time>2020-11-28T11:30:02Z</time>
      </trkpt>
      <trkpt lat="48.64739" lon="7.28216">
        <ele>631.6</ele>
        <time>2020-11-28T11:30:04Z</time>
      </trkpt>
      <trkpt lat="48.6473" lon="7.28207">
        <ele>631.3</ele>
        <time>2020-11-28T11:30:06Z</time>
      </trkpt>
      <trkpt lat="48.6472" lon="7.28201">
        <ele>631.1</ele>
        <time>2020-11-28T11:30:08Z</time>
      </trkpt>
      <trkpt lat="48.64709" lon="7.28196">
        <ele>630.6</ele>
        <time>2020-11-28T11:30:10Z</time>
      </trkpt>
      <trkpt lat="48.64699" lon="7.28194">
        <ele>630.3</ele>
        <time>2020-11-28T11:30:12Z</time>
      </trkpt>
      <trkpt lat="48.64688" lon="7.28189">
        <ele>630.2</ele>
        <time>2020-11-28T11:30:14Z</time>
      </trkpt>
      <trkpt lat="48.64677" lon="7.28181">
        <ele>629.8</ele>
        <time>2020-11-28T11:30:16Z</time>
      </trkpt>
      <trkpt lat="48.64669" lon="7.28171">
        <ele>629.7</ele>
        <time>2020-11-28T11:30:18Z</time>
      </trkpt>
      <trkpt lat="48.64661" lon="7.28159">
        <ele>629.9</ele>
        <time>2020-11-28T11:30:20Z</time>
      </trkpt>
      <trkpt lat="48.64653" lon="7.28144">
        <ele>630.3</ele>
        <time>2020-11-28T11:30:22Z</time>
      </trkpt>
      <trkpt lat="48.64647" lon="7.28131">
        <ele>631.4</ele>
        <time>2020-11-28T11:30:24Z</time>
      </trkpt>
      <trkpt lat="48.6464" lon="7.28117">
        <ele>631.6</ele>
        <time>2020-11-28T11:30:26Z</time>
      </trkpt>
      <trkpt lat="48.64633" lon="7.28103">
        <ele>632.1</ele>
        <time>2020-11-28T11:30:28Z</time>
      </trkpt>
      <trkpt lat="48.64626" lon="7.28089">
        <ele>632.4</ele>
        <time>2020-11-28T11:30:30Z</time>
      </trkpt>
      <trkpt lat="48.64618" lon="7.28078">
        <ele>632.9</ele>
        <time>2020-11-28T11:30:32Z</time>
      </trkpt>
      <trkpt lat="48.64611" lon="7.28065">
        <ele>633.2</ele>
        <time>2020-11-28T11:30:34Z</time>
      </trkpt>
      <trkpt lat="48.64603" lon="7.28052">
        <ele>633.3</ele>
        <time>2020-11-28T11:30:36Z</time>
      </trkpt>
      <trkpt lat="48.64596" lon="7.28037">
        <ele>633.1</ele>
        <time>2020-11-28T11:30:38Z</time>
      </trkpt>
      <trkpt lat="48.64592" lon="7.28023">
        <ele>633.5</ele>
        <time>2020-11-28T11:30:40Z</time>
      </trkpt>
      <trkpt lat="48.64589" lon="7.28009">
        <ele>633.8</ele>
        <time>2020-11-28T11:30:42Z</time>
      </trkpt>
      <trkpt lat="48.64587" lon="7.27996">
        <ele>634.4</ele>
        <time>2020-11-28T11:30:45Z</time>
      </trkpt>
      <trkpt lat="48.64585" lon="7.27989">
        <ele>636.3</ele>
        <time>2020-11-28T11:31:11Z</time>
      </trkpt>
      <trkpt lat="48.64584" lon="7.27982">
        <ele>636.5</ele>
        <time>2020-11-28T11:31:14Z</time>
      </trkpt>
      <trkpt lat="48.64582" lon="7.27973">
        <ele>636.7</ele>
        <time>2020-11-28T11:31:17Z</time>
      </trkpt>
      <trkpt lat="48.6458" lon="7.27966">
        <ele>636.7</ele>
        <time>2020-11-28T11:31:19Z</time>
      </trkpt>
      <trkpt lat="48.64578" lon="7.27959">
        <ele>637.1</ele>
        <time>2020-11-28T11:31:21Z</time>
      </trkpt>
      <trkpt lat="48.64576" lon="7.27951">
        <ele>637.4</ele>
        <time>2020-11-28T11:31:23Z</time>
      </trkpt>
      <trkpt lat="48.64574" lon="7.27944">
        <ele>638.1</ele>
        <time>2020-11-28T11:31:25Z</time>
      </trkpt>
      <trkpt lat="48.64572" lon="7.27936">
        <ele>639</ele>
        <time>2020-11-28T11:31:27Z</time>
      </trkpt>
      <trkpt lat="48.6457" lon="7.27927">
        <ele>640.4</ele>
        <time>2020-11-28T11:31:29Z</time>
      </trkpt>
      <trkpt lat="48.64568" lon="7.27918">
        <ele>640.8</ele>
        <time>2020-11-28T11:31:31Z</time>
      </trkpt>
      <trkpt lat="48.64565" lon="7.27909">
        <ele>641.4</ele>
        <time>2020-11-28T11:31:33Z</time>
      </trkpt>
      <trkpt lat="48.64563" lon="7.279">
        <ele>641.3</ele>
        <time>2020-11-28T11:31:35Z</time>
      </trkpt>
      <trkpt lat="48.6456" lon="7.27891">
        <ele>641.1</ele>
        <time>2020-11-28T11:31:37Z</time>
      </trkpt>
      <trkpt lat="48.64558" lon="7.27883">
        <ele>640.7</ele>
        <time>2020-11-28T11:31:39Z</time>
      </trkpt>
      <trkpt lat="48.64559" lon="7.27876">
        <ele>637.2</ele>
        <time>2020-11-28T11:31:48Z</time>
      </trkpt>
      <trkpt lat="48.64555" lon="7.27872">
        <ele>642.7</ele>
        <time>2020-11-28T11:33:13Z</time>
      </trkpt>
      <trkpt lat="48.64558" lon="7.27866">
        <ele>644.2</ele>
        <time>2020-11-28T11:33:43Z</time>
      </trkpt>
      <trkpt lat="48.64556" lon="7.27856">
        <ele>644.9</ele>
        <time>2020-11-28T11:35:27Z</time>
      </trkpt>
      <trkpt lat="48.64554" lon="7.27849">
        <ele>644.4</ele>
        <time>2020-11-28T11:35:29Z</time>
      </trkpt>
      <trkpt lat="48.64551" lon="7.2784">
        <ele>643.9</ele>
        <time>2020-11-28T11:35:31Z</time>
      </trkpt>
      <trkpt lat="48.64548" lon="7.27832">
        <ele>641.5</ele>
        <time>2020-11-28T11:35:33Z</time>
      </trkpt>
      <trkpt lat="48.64545" lon="7.27822">
        <ele>641.9</ele>
        <time>2020-11-28T11:35:35Z</time>
      </trkpt>
      <trkpt lat="48.64542" lon="7.27812">
        <ele>641.8</ele>
        <time>2020-11-28T11:35:37Z</time>
      </trkpt>
      <trkpt lat="48.64538" lon="7.278">
        <ele>641.6</ele>
        <time>2020-11-28T11:35:39Z</time>
      </trkpt>
      <trkpt lat="48.64535" lon="7.27789">
        <ele>641.5</ele>
        <time>2020-11-28T11:35:41Z</time>
      </trkpt>
      <trkpt lat="48.6453" lon="7.27778">
        <ele>641</ele>
        <time>2020-11-28T11:35:43Z</time>
      </trkpt>
      <trkpt lat="48.64526" lon="7.27765">
        <ele>640</ele>
        <time>2020-11-28T11:35:45Z</time>
      </trkpt>
      <trkpt lat="48.64523" lon="7.27753">
        <ele>639</ele>
        <time>2020-11-28T11:35:47Z</time>
      </trkpt>
      <trkpt lat="48.64518" lon="7.27742">
        <ele>636.9</ele>
        <time>2020-11-28T11:35:49Z</time>
      </trkpt>
      <trkpt lat="48.64514" lon="7.2773">
        <ele>635.6</ele>
        <time>2020-11-28T11:35:51Z</time>
      </trkpt>
      <trkpt lat="48.6451" lon="7.27717">
        <ele>634.5</ele>
        <time>2020-11-28T11:35:53Z</time>
      </trkpt>
      <trkpt lat="48.64506" lon="7.27705">
        <ele>634.2</ele>
        <time>2020-11-28T11:35:55Z</time>
      </trkpt>
      <trkpt lat="48.64502" lon="7.27692">
        <ele>634.4</ele>
        <time>2020-11-28T11:35:57Z</time>
      </trkpt>
      <trkpt lat="48.64498" lon="7.27681">
        <ele>634.6</ele>
        <time>2020-11-28T11:35:59Z</time>
      </trkpt>
      <trkpt lat="48.64495" lon="7.27669">
        <ele>634.8</ele>
        <time>2020-11-28T11:36:01Z</time>
      </trkpt>
      <trkpt lat="48.64491" lon="7.27657">
        <ele>634.9</ele>
        <time>2020-11-28T11:36:03Z</time>
      </trkpt>
      <trkpt lat="48.64487" lon="7.27644">
        <ele>635.1</ele>
        <time>2020-11-28T11:36:05Z</time>
      </trkpt>
      <trkpt lat="48.64482" lon="7.27625">
        <ele>635.5</ele>
        <time>2020-11-28T11:36:08Z</time>
      </trkpt>
      <trkpt lat="48.64478" lon="7.27613">
        <ele>635.9</ele>
        <time>2020-11-28T11:36:10Z</time>
      </trkpt>
      <trkpt lat="48.64475" lon="7.27601">
        <ele>635.9</ele>
        <time>2020-11-28T11:36:12Z</time>
      </trkpt>
      <trkpt lat="48.64469" lon="7.2759">
        <ele>636.3</ele>
        <time>2020-11-28T11:36:14Z</time>
      </trkpt>
      <trkpt lat="48.64463" lon="7.2758">
        <ele>637</ele>
        <time>2020-11-28T11:36:16Z</time>
      </trkpt>
      <trkpt lat="48.64458" lon="7.27571">
        <ele>636.9</ele>
        <time>2020-11-28T11:36:18Z</time>
      </trkpt>
      <trkpt lat="48.64452" lon="7.27562">
        <ele>637</ele>
        <time>2020-11-28T11:36:20Z</time>
      </trkpt>
      <trkpt lat="48.64447" lon="7.27553">
        <ele>637.4</ele>
        <time>2020-11-28T11:36:22Z</time>
      </trkpt>
      <trkpt lat="48.64441" lon="7.27543">
        <ele>637.6</ele>
        <time>2020-11-28T11:36:24Z</time>
      </trkpt>
      <trkpt lat="48.64434" lon="7.27533">
        <ele>637.7</ele>
        <time>2020-11-28T11:36:26Z</time>
      </trkpt>
      <trkpt lat="48.64425" lon="7.27525">
        <ele>637.6</ele>
        <time>2020-11-28T11:36:28Z</time>
      </trkpt>
      <trkpt lat="48.64415" lon="7.2752">
        <ele>637.6</ele>
        <time>2020-11-28T11:36:30Z</time>
      </trkpt>
      <trkpt lat="48.64407" lon="7.27515">
        <ele>636.9</ele>
        <time>2020-11-28T11:36:32Z</time>
      </trkpt>
      <trkpt lat="48.64398" lon="7.27512">
        <ele>635.2</ele>
        <time>2020-11-28T11:36:34Z</time>
      </trkpt>
      <trkpt lat="48.64388" lon="7.27512">
        <ele>635.1</ele>
        <time>2020-11-28T11:36:36Z</time>
      </trkpt>
      <trkpt lat="48.6438" lon="7.27514">
        <ele>634.1</ele>
        <time>2020-11-28T11:36:38Z</time>
      </trkpt>
      <trkpt lat="48.64373" lon="7.27517">
        <ele>633.7</ele>
        <time>2020-11-28T11:36:40Z</time>
      </trkpt>
      <trkpt lat="48.64366" lon="7.27521">
        <ele>633.9</ele>
        <time>2020-11-28T11:36:42Z</time>
      </trkpt>
      <trkpt lat="48.64358" lon="7.27527">
        <ele>634.4</ele>
        <time>2020-11-28T11:36:44Z</time>
      </trkpt>
      <trkpt lat="48.64351" lon="7.27533">
        <ele>634.9</ele>
        <time>2020-11-28T11:36:46Z</time>
      </trkpt>
      <trkpt lat="48.64343" lon="7.27539">
        <ele>635.8</ele>
        <time>2020-11-28T11:36:48Z</time>
      </trkpt>
      <trkpt lat="48.64335" lon="7.27546">
        <ele>636.4</ele>
        <time>2020-11-28T11:36:50Z</time>
      </trkpt>
      <trkpt lat="48.64328" lon="7.27553">
        <ele>637.3</ele>
        <time>2020-11-28T11:36:52Z</time>
      </trkpt>
      <trkpt lat="48.6432" lon="7.2756">
        <ele>638.2</ele>
        <time>2020-11-28T11:36:54Z</time>
      </trkpt>
      <trkpt lat="48.64311" lon="7.27567">
        <ele>638.8</ele>
        <time>2020-11-28T11:36:56Z</time>
      </trkpt>
      <trkpt lat="48.64301" lon="7.27574">
        <ele>639.4</ele>
        <time>2020-11-28T11:36:58Z</time>
      </trkpt>
      <trkpt lat="48.64292" lon="7.27581">
        <ele>640</ele>
        <time>2020-11-28T11:37:00Z</time>
      </trkpt>
      <trkpt lat="48.64283" lon="7.27587">
        <ele>640.3</ele>
        <time>2020-11-28T11:37:02Z</time>
      </trkpt>
      <trkpt lat="48.64274" lon="7.27594">
        <ele>639.5</ele>
        <time>2020-11-28T11:37:04Z</time>
      </trkpt>
      <trkpt lat="48.64265" lon="7.27602">
        <ele>639</ele>
        <time>2020-11-28T11:37:06Z</time>
      </trkpt>
      <trkpt lat="48.64256" lon="7.2761">
        <ele>638.5</ele>
        <time>2020-11-28T11:37:08Z</time>
      </trkpt>
      <trkpt lat="48.64247" lon="7.27616">
        <ele>638.1</ele>
        <time>2020-11-28T11:37:10Z</time>
      </trkpt>
      <trkpt lat="48.64236" lon="7.27624">
        <ele>638</ele>
        <time>2020-11-28T11:37:12Z</time>
      </trkpt>
      <trkpt lat="48.64227" lon="7.2763">
        <ele>637.7</ele>
        <time>2020-11-28T11:37:14Z</time>
      </trkpt>
      <trkpt lat="48.64218" lon="7.27635">
        <ele>637.7</ele>
        <time>2020-11-28T11:37:16Z</time>
      </trkpt>
      <trkpt lat="48.64208" lon="7.27641">
        <ele>637.8</ele>
        <time>2020-11-28T11:37:18Z</time>
      </trkpt>
      <trkpt lat="48.64198" lon="7.27648">
        <ele>638.4</ele>
        <time>2020-11-28T11:37:20Z</time>
      </trkpt>
      <trkpt lat="48.64188" lon="7.27654">
        <ele>638</ele>
        <time>2020-11-28T11:37:22Z</time>
      </trkpt>
      <trkpt lat="48.64179" lon="7.27659">
        <ele>637.7</ele>
        <time>2020-11-28T11:37:24Z</time>
      </trkpt>
      <trkpt lat="48.6417" lon="7.27664">
        <ele>637.9</ele>
        <time>2020-11-28T11:37:26Z</time>
      </trkpt>
      <trkpt lat="48.6416" lon="7.27668">
        <ele>638.5</ele>
        <time>2020-11-28T11:37:28Z</time>
      </trkpt>
      <trkpt lat="48.6415" lon="7.27671">
        <ele>639.6</ele>
        <time>2020-11-28T11:37:30Z</time>
      </trkpt>
      <trkpt lat="48.64137" lon="7.27675">
        <ele>641.2</ele>
        <time>2020-11-28T11:37:33Z</time>
      </trkpt>
      <trkpt lat="48.64128" lon="7.27676">
        <ele>642.1</ele>
        <time>2020-11-28T11:37:35Z</time>
      </trkpt>
      <trkpt lat="48.64119" lon="7.27678">
        <ele>643</ele>
        <time>2020-11-28T11:37:37Z</time>
      </trkpt>
      <trkpt lat="48.6411" lon="7.2768">
        <ele>644.2</ele>
        <time>2020-11-28T11:37:39Z</time>
      </trkpt>
      <trkpt lat="48.64101" lon="7.27682">
        <ele>644.7</ele>
        <time>2020-11-28T11:37:41Z</time>
      </trkpt>
      <trkpt lat="48.64091" lon="7.27686">
        <ele>645.1</ele>
        <time>2020-11-28T11:37:43Z</time>
      </trkpt>
      <trkpt lat="48.64081" lon="7.2769">
        <ele>644.5</ele>
        <time>2020-11-28T11:37:45Z</time>
      </trkpt>
      <trkpt lat="48.64071" lon="7.27692">
        <ele>644.3</ele>
        <time>2020-11-28T11:37:47Z</time>
      </trkpt>
      <trkpt lat="48.64063" lon="7.27693">
        <ele>644.3</ele>
        <time>2020-11-28T11:37:49Z</time>
      </trkpt>
      <trkpt lat="48.64054" lon="7.27693">
        <ele>644.3</ele>
        <time>2020-11-28T11:37:51Z</time>
      </trkpt>
      <trkpt lat="48.64044" lon="7.27695">
        <ele>643</ele>
        <time>2020-11-28T11:37:53Z</time>
      </trkpt>
      <trkpt lat="48.64035" lon="7.27696">
        <ele>642</ele>
        <time>2020-11-28T11:37:55Z</time>
      </trkpt>
      <trkpt lat="48.64026" lon="7.27696">
        <ele>642</ele>
        <time>2020-11-28T11:37:57Z</time>
      </trkpt>
      <trkpt lat="48.64015" lon="7.27697">
        <ele>640.2</ele>
        <time>2020-11-28T11:37:59Z</time>
      </trkpt>
      <trkpt lat="48.64006" lon="7.27694">
        <ele>639.4</ele>
        <time>2020-11-28T11:38:01Z</time>
      </trkpt>
      <trkpt lat="48.63996" lon="7.2769">
        <ele>638.6</ele>
        <time>2020-11-28T11:38:03Z</time>
      </trkpt>
      <trkpt lat="48.63987" lon="7.27686">
        <ele>638.2</ele>
        <time>2020-11-28T11:38:05Z</time>
      </trkpt>
      <trkpt lat="48.63978" lon="7.27681">
        <ele>638</ele>
        <time>2020-11-28T11:38:07Z</time>
      </trkpt>
      <trkpt lat="48.6397" lon="7.27674">
        <ele>637.9</ele>
        <time>2020-11-28T11:38:09Z</time>
      </trkpt>
      <trkpt lat="48.63962" lon="7.27667">
        <ele>638.3</ele>
        <time>2020-11-28T11:38:11Z</time>
      </trkpt>
      <trkpt lat="48.63955" lon="7.27659">
        <ele>638.9</ele>
        <time>2020-11-28T11:38:13Z</time>
      </trkpt>
      <trkpt lat="48.63949" lon="7.2765">
        <ele>639.3</ele>
        <time>2020-11-28T11:38:15Z</time>
      </trkpt>
      <trkpt lat="48.63943" lon="7.2764">
        <ele>639.5</ele>
        <time>2020-11-28T11:38:17Z</time>
      </trkpt>
      <trkpt lat="48.63937" lon="7.27628">
        <ele>639.2</ele>
        <time>2020-11-28T11:38:19Z</time>
      </trkpt>
      <trkpt lat="48.63931" lon="7.27616">
        <ele>629.2</ele>
        <time>2020-11-28T11:38:21Z</time>
      </trkpt>
      <trkpt lat="48.63925" lon="7.27603">
        <ele>628.1</ele>
        <time>2020-11-28T11:38:23Z</time>
      </trkpt>
      <trkpt lat="48.63921" lon="7.27591">
        <ele>627.9</ele>
        <time>2020-11-28T11:38:25Z</time>
      </trkpt>
      <trkpt lat="48.63917" lon="7.27579">
        <ele>629.8</ele>
        <time>2020-11-28T11:38:27Z</time>
      </trkpt>
      <trkpt lat="48.63913" lon="7.27567">
        <ele>630.7</ele>
        <time>2020-11-28T11:38:29Z</time>
      </trkpt>
      <trkpt lat="48.6391" lon="7.27555">
        <ele>631.9</ele>
        <time>2020-11-28T11:38:31Z</time>
      </trkpt>
      <trkpt lat="48.63906" lon="7.27542">
        <ele>633.2</ele>
        <time>2020-11-28T11:38:33Z</time>
      </trkpt>
      <trkpt lat="48.63901" lon="7.2753">
        <ele>634.4</ele>
        <time>2020-11-28T11:38:35Z</time>
      </trkpt>
      <trkpt lat="48.63897" lon="7.27517">
        <ele>635.4</ele>
        <time>2020-11-28T11:38:37Z</time>
      </trkpt>
      <trkpt lat="48.63893" lon="7.27504">
        <ele>637.3</ele>
        <time>2020-11-28T11:38:39Z</time>
      </trkpt>
      <trkpt lat="48.63889" lon="7.27491">
        <ele>638.7</ele>
        <time>2020-11-28T11:38:41Z</time>
      </trkpt>
      <trkpt lat="48.63884" lon="7.27479">
        <ele>639.8</ele>
        <time>2020-11-28T11:38:43Z</time>
      </trkpt>
      <trkpt lat="48.63879" lon="7.27468">
        <ele>640.1</ele>
        <time>2020-11-28T11:38:45Z</time>
      </trkpt>
      <trkpt lat="48.63875" lon="7.27456">
        <ele>636.1</ele>
        <time>2020-11-28T11:38:47Z</time>
      </trkpt>
      <trkpt lat="48.63871" lon="7.27443">
        <ele>636.5</ele>
        <time>2020-11-28T11:38:49Z</time>
      </trkpt>
      <trkpt lat="48.63867" lon="7.27431">
        <ele>637</ele>
        <time>2020-11-28T11:38:51Z</time>
      </trkpt>
      <trkpt lat="48.63863" lon="7.27418">
        <ele>637.4</ele>
        <time>2020-11-28T11:38:53Z</time>
      </trkpt>
      <trkpt lat="48.63861" lon="7.27407">
        <ele>639</ele>
        <time>2020-11-28T11:38:55Z</time>
      </trkpt>
      <trkpt lat="48.63857" lon="7.27396">
        <ele>640.1</ele>
        <time>2020-11-28T11:38:57Z</time>
      </trkpt>
      <trkpt lat="48.63852" lon="7.27383">
        <ele>641.2</ele>
        <time>2020-11-28T11:38:59Z</time>
      </trkpt>
      <trkpt lat="48.6385" lon="7.27372">
        <ele>642.2</ele>
        <time>2020-11-28T11:39:01Z</time>
      </trkpt>
      <trkpt lat="48.63847" lon="7.27361">
        <ele>644.5</ele>
        <time>2020-11-28T11:39:03Z</time>
      </trkpt>
      <trkpt lat="48.63843" lon="7.27349">
        <ele>645.4</ele>
        <time>2020-11-28T11:39:05Z</time>
      </trkpt>
      <trkpt lat="48.63841" lon="7.27336">
        <ele>646</ele>
        <time>2020-11-28T11:39:07Z</time>
      </trkpt>
      <trkpt lat="48.63838" lon="7.27321">
        <ele>647.3</ele>
        <time>2020-11-28T11:39:09Z</time>
      </trkpt>
      <trkpt lat="48.63836" lon="7.27305">
        <ele>649</ele>
        <time>2020-11-28T11:39:11Z</time>
      </trkpt>
      <trkpt lat="48.63834" lon="7.27292">
        <ele>649</ele>
        <time>2020-11-28T11:39:13Z</time>
      </trkpt>
      <trkpt lat="48.63831" lon="7.27278">
        <ele>649.4</ele>
        <time>2020-11-28T11:39:15Z</time>
      </trkpt>
      <trkpt lat="48.63828" lon="7.27264">
        <ele>649.8</ele>
        <time>2020-11-28T11:39:17Z</time>
      </trkpt>
      <trkpt lat="48.63827" lon="7.27249">
        <ele>649.6</ele>
        <time>2020-11-28T11:39:19Z</time>
      </trkpt>
      <trkpt lat="48.63826" lon="7.27233">
        <ele>650.2</ele>
        <time>2020-11-28T11:39:21Z</time>
      </trkpt>
      <trkpt lat="48.63826" lon="7.27217">
        <ele>650.4</ele>
        <time>2020-11-28T11:39:23Z</time>
      </trkpt>
      <trkpt lat="48.63826" lon="7.27198">
        <ele>650.9</ele>
        <time>2020-11-28T11:39:25Z</time>
      </trkpt>
      <trkpt lat="48.63827" lon="7.27178">
        <ele>651.1</ele>
        <time>2020-11-28T11:39:27Z</time>
      </trkpt>
      <trkpt lat="48.6383" lon="7.27157">
        <ele>651.3</ele>
        <time>2020-11-28T11:39:29Z</time>
      </trkpt>
      <trkpt lat="48.63834" lon="7.27136">
        <ele>651</ele>
        <time>2020-11-28T11:39:31Z</time>
      </trkpt>
      <trkpt lat="48.63838" lon="7.27115">
        <ele>651.1</ele>
        <time>2020-11-28T11:39:33Z</time>
      </trkpt>
      <trkpt lat="48.63842" lon="7.27095">
        <ele>650.8</ele>
        <time>2020-11-28T11:39:35Z</time>
      </trkpt>
      <trkpt lat="48.63848" lon="7.27073">
        <ele>651.3</ele>
        <time>2020-11-28T11:39:37Z</time>
      </trkpt>
      <trkpt lat="48.63852" lon="7.27054">
        <ele>650.8</ele>
        <time>2020-11-28T11:39:39Z</time>
      </trkpt>
      <trkpt lat="48.63857" lon="7.27035">
        <ele>650.4</ele>
        <time>2020-11-28T11:39:41Z</time>
      </trkpt>
      <trkpt lat="48.6386" lon="7.27018">
        <ele>649.9</ele>
        <time>2020-11-28T11:39:43Z</time>
      </trkpt>
      <trkpt lat="48.63863" lon="7.27001">
        <ele>649.1</ele>
        <time>2020-11-28T11:39:45Z</time>
      </trkpt>
      <trkpt lat="48.63867" lon="7.2697">
        <ele>648.8</ele>
        <time>2020-11-28T11:39:48Z</time>
      </trkpt>
      <trkpt lat="48.6387" lon="7.26951">
        <ele>647.4</ele>
        <time>2020-11-28T11:39:50Z</time>
      </trkpt>
      <trkpt lat="48.63872" lon="7.26932">
        <ele>647.3</ele>
        <time>2020-11-28T11:39:52Z</time>
      </trkpt>
      <trkpt lat="48.63875" lon="7.26912">
        <ele>647.7</ele>
        <time>2020-11-28T11:39:54Z</time>
      </trkpt>
      <trkpt lat="48.63877" lon="7.26891">
        <ele>648.1</ele>
        <time>2020-11-28T11:39:56Z</time>
      </trkpt>
      <trkpt lat="48.63877" lon="7.26871">
        <ele>648.2</ele>
        <time>2020-11-28T11:39:58Z</time>
      </trkpt>
      <trkpt lat="48.63877" lon="7.26848">
        <ele>648.8</ele>
        <time>2020-11-28T11:40:00Z</time>
      </trkpt>
      <trkpt lat="48.63876" lon="7.26826">
        <ele>649.1</ele>
        <time>2020-11-28T11:40:02Z</time>
      </trkpt>
      <trkpt lat="48.63876" lon="7.26803">
        <ele>649.1</ele>
        <time>2020-11-28T11:40:04Z</time>
      </trkpt>
      <trkpt lat="48.63876" lon="7.2678">
        <ele>648.3</ele>
        <time>2020-11-28T11:40:06Z</time>
      </trkpt>
      <trkpt lat="48.63876" lon="7.26756">
        <ele>648</ele>
        <time>2020-11-28T11:40:08Z</time>
      </trkpt>
      <trkpt lat="48.63875" lon="7.26733">
        <ele>648.6</ele>
        <time>2020-11-28T11:40:10Z</time>
      </trkpt>
      <trkpt lat="48.63874" lon="7.26711">
        <ele>649.3</ele>
        <time>2020-11-28T11:40:12Z</time>
      </trkpt>
      <trkpt lat="48.63871" lon="7.2669">
        <ele>649.5</ele>
        <time>2020-11-28T11:40:14Z</time>
      </trkpt>
      <trkpt lat="48.63869" lon="7.26668">
        <ele>649.3</ele>
        <time>2020-11-28T11:40:16Z</time>
      </trkpt>
      <trkpt lat="48.63865" lon="7.26647">
        <ele>648.8</ele>
        <time>2020-11-28T11:40:18Z</time>
      </trkpt>
      <trkpt lat="48.63861" lon="7.26627">
        <ele>648.6</ele>
        <time>2020-11-28T11:40:20Z</time>
      </trkpt>
      <trkpt lat="48.63856" lon="7.26608">
        <ele>648.7</ele>
        <time>2020-11-28T11:40:22Z</time>
      </trkpt>
      <trkpt lat="48.63849" lon="7.26591">
        <ele>648.2</ele>
        <time>2020-11-28T11:40:24Z</time>
      </trkpt>
      <trkpt lat="48.63841" lon="7.26575">
        <ele>647.3</ele>
        <time>2020-11-28T11:40:26Z</time>
      </trkpt>
      <trkpt lat="48.63833" lon="7.26563">
        <ele>646.6</ele>
        <time>2020-11-28T11:40:28Z</time>
      </trkpt>
      <trkpt lat="48.63822" lon="7.26552">
        <ele>646.1</ele>
        <time>2020-11-28T11:40:30Z</time>
      </trkpt>
      <trkpt lat="48.6381" lon="7.26543">
        <ele>646.1</ele>
        <time>2020-11-28T11:40:32Z</time>
      </trkpt>
      <trkpt lat="48.63798" lon="7.26536">
        <ele>645.8</ele>
        <time>2020-11-28T11:40:34Z</time>
      </trkpt>
      <trkpt lat="48.63787" lon="7.2653">
        <ele>645.9</ele>
        <time>2020-11-28T11:40:36Z</time>
      </trkpt>
      <trkpt lat="48.63776" lon="7.26527">
        <ele>645.8</ele>
        <time>2020-11-28T11:40:38Z</time>
      </trkpt>
      <trkpt lat="48.63766" lon="7.26525">
        <ele>646.9</ele>
        <time>2020-11-28T11:40:40Z</time>
      </trkpt>
      <trkpt lat="48.63756" lon="7.26523">
        <ele>647.5</ele>
        <time>2020-11-28T11:40:42Z</time>
      </trkpt>
      <trkpt lat="48.63745" lon="7.26522">
        <ele>648.1</ele>
        <time>2020-11-28T11:40:44Z</time>
      </trkpt>
      <trkpt lat="48.63735" lon="7.2652">
        <ele>648.5</ele>
        <time>2020-11-28T11:40:46Z</time>
      </trkpt>
      <trkpt lat="48.63724" lon="7.26519">
        <ele>649.6</ele>
        <time>2020-11-28T11:40:48Z</time>
      </trkpt>
      <trkpt lat="48.63713" lon="7.26517">
        <ele>650.2</ele>
        <time>2020-11-28T11:40:50Z</time>
      </trkpt>
      <trkpt lat="48.63702" lon="7.26514">
        <ele>650.9</ele>
        <time>2020-11-28T11:40:52Z</time>
      </trkpt>
      <trkpt lat="48.63692" lon="7.26509">
        <ele>645.1</ele>
        <time>2020-11-28T11:40:54Z</time>
      </trkpt>
      <trkpt lat="48.63683" lon="7.26504">
        <ele>643.7</ele>
        <time>2020-11-28T11:40:56Z</time>
      </trkpt>
      <trkpt lat="48.63674" lon="7.26498">
        <ele>643.2</ele>
        <time>2020-11-28T11:40:58Z</time>
      </trkpt>
      <trkpt lat="48.63665" lon="7.26491">
        <ele>643.2</ele>
        <time>2020-11-28T11:41:00Z</time>
      </trkpt>
      <trkpt lat="48.63657" lon="7.26481">
        <ele>644</ele>
        <time>2020-11-28T11:41:02Z</time>
      </trkpt>
      <trkpt lat="48.63648" lon="7.26471">
        <ele>643.6</ele>
        <time>2020-11-28T11:41:04Z</time>
      </trkpt>
      <trkpt lat="48.63641" lon="7.26461">
        <ele>644.5</ele>
        <time>2020-11-28T11:41:06Z</time>
      </trkpt>
      <trkpt lat="48.63633" lon="7.2645">
        <ele>645.3</ele>
        <time>2020-11-28T11:41:08Z</time>
      </trkpt>
      <trkpt lat="48.63627" lon="7.26439">
        <ele>646.8</ele>
        <time>2020-11-28T11:41:10Z</time>
      </trkpt>
      <trkpt lat="48.63622" lon="7.26426">
        <ele>647.7</ele>
        <time>2020-11-28T11:41:12Z</time>
      </trkpt>
      <trkpt lat="48.63617" lon="7.26415">
        <ele>644.5</ele>
        <time>2020-11-28T11:41:14Z</time>
      </trkpt>
      <trkpt lat="48.63609" lon="7.26397">
        <ele>643.7</ele>
        <time>2020-11-28T11:41:17Z</time>
      </trkpt>
      <trkpt lat="48.63604" lon="7.26383">
        <ele>643.9</ele>
        <time>2020-11-28T11:41:19Z</time>
      </trkpt>
      <trkpt lat="48.63601" lon="7.2637">
        <ele>643.6</ele>
        <time>2020-11-28T11:41:21Z</time>
      </trkpt>
      <trkpt lat="48.63599" lon="7.26355">
        <ele>643.7</ele>
        <time>2020-11-28T11:41:23Z</time>
      </trkpt>
      <trkpt lat="48.63597" lon="7.26341">
        <ele>630.8</ele>
        <time>2020-11-28T11:41:25Z</time>
      </trkpt>
      <trkpt lat="48.63594" lon="7.26327">
        <ele>625.2</ele>
        <time>2020-11-28T11:41:27Z</time>
      </trkpt>
      <trkpt lat="48.63591" lon="7.26314">
        <ele>624.2</ele>
        <time>2020-11-28T11:41:29Z</time>
      </trkpt>
      <trkpt lat="48.63589" lon="7.26299">
        <ele>624.7</ele>
        <time>2020-11-28T11:41:31Z</time>
      </trkpt>
      <trkpt lat="48.63587" lon="7.26283">
        <ele>627.3</ele>
        <time>2020-11-28T11:41:33Z</time>
      </trkpt>
      <trkpt lat="48.63584" lon="7.26267">
        <ele>629.8</ele>
        <time>2020-11-28T11:41:35Z</time>
      </trkpt>
      <trkpt lat="48.63582" lon="7.2625">
        <ele>633.4</ele>
        <time>2020-11-28T11:41:37Z</time>
      </trkpt>
      <trkpt lat="48.63579" lon="7.26234">
        <ele>635.2</ele>
        <time>2020-11-28T11:41:39Z</time>
      </trkpt>
      <trkpt lat="48.63577" lon="7.26218">
        <ele>637.6</ele>
        <time>2020-11-28T11:41:41Z</time>
      </trkpt>
      <trkpt lat="48.63576" lon="7.26203">
        <ele>639.2</ele>
        <time>2020-11-28T11:41:43Z</time>
      </trkpt>
      <trkpt lat="48.63575" lon="7.26188">
        <ele>640.2</ele>
        <time>2020-11-28T11:41:45Z</time>
      </trkpt>
      <trkpt lat="48.63573" lon="7.26173">
        <ele>640.8</ele>
        <time>2020-11-28T11:41:47Z</time>
      </trkpt>
      <trkpt lat="48.63572" lon="7.26156">
        <ele>641.6</ele>
        <time>2020-11-28T11:41:49Z</time>
      </trkpt>
      <trkpt lat="48.63571" lon="7.26139">
        <ele>641.9</ele>
        <time>2020-11-28T11:41:51Z</time>
      </trkpt>
      <trkpt lat="48.63571" lon="7.26121">
        <ele>642.4</ele>
        <time>2020-11-28T11:41:53Z</time>
      </trkpt>
      <trkpt lat="48.63571" lon="7.26104">
        <ele>642.4</ele>
        <time>2020-11-28T11:41:55Z</time>
      </trkpt>
      <trkpt lat="48.63569" lon="7.26086">
        <ele>642.9</ele>
        <time>2020-11-28T11:41:57Z</time>
      </trkpt>
      <trkpt lat="48.63568" lon="7.2607">
        <ele>643.4</ele>
        <time>2020-11-28T11:41:59Z</time>
      </trkpt>
      <trkpt lat="48.63568" lon="7.26053">
        <ele>644.2</ele>
        <time>2020-11-28T11:42:01Z</time>
      </trkpt>
      <trkpt lat="48.63567" lon="7.26038">
        <ele>644.3</ele>
        <time>2020-11-28T11:42:03Z</time>
      </trkpt>
      <trkpt lat="48.63566" lon="7.26023">
        <ele>644.2</ele>
        <time>2020-11-28T11:42:05Z</time>
      </trkpt>
      <trkpt lat="48.63565" lon="7.26007">
        <ele>644.4</ele>
        <time>2020-11-28T11:42:07Z</time>
      </trkpt>
      <trkpt lat="48.63564" lon="7.25991">
        <ele>644.4</ele>
        <time>2020-11-28T11:42:09Z</time>
      </trkpt>
      <trkpt lat="48.63563" lon="7.25979">
        <ele>645.2</ele>
        <time>2020-11-28T11:42:11Z</time>
      </trkpt>
      <trkpt lat="48.63559" lon="7.25972">
        <ele>645.4</ele>
        <time>2020-11-28T11:42:13Z</time>
      </trkpt>
      <trkpt lat="48.63555" lon="7.25969">
        <ele>648.8</ele>
        <time>2020-11-28T11:42:41Z</time>
      </trkpt>
      <trkpt lat="48.6355" lon="7.2597">
        <ele>649</ele>
        <time>2020-11-28T11:42:45Z</time>
      </trkpt>
      <trkpt lat="48.63545" lon="7.25968">
        <ele>649.4</ele>
        <time>2020-11-28T11:42:48Z</time>
      </trkpt>
      <trkpt lat="48.63539" lon="7.25967">
        <ele>650</ele>
        <time>2020-11-28T11:42:51Z</time>
      </trkpt>
      <trkpt lat="48.63535" lon="7.25969">
        <ele>650.8</ele>
        <time>2020-11-28T11:42:54Z</time>
      </trkpt>
      <trkpt lat="48.6353" lon="7.25971">
        <ele>650.7</ele>
        <time>2020-11-28T11:42:56Z</time>
      </trkpt>
      <trkpt lat="48.63523" lon="7.25975">
        <ele>650.2</ele>
        <time>2020-11-28T11:42:58Z</time>
      </trkpt>
      <trkpt lat="48.63513" lon="7.25982">
        <ele>650.1</ele>
        <time>2020-11-28T11:43:00Z</time>
      </trkpt>
      <trkpt lat="48.63503" lon="7.25988">
        <ele>650.3</ele>
        <time>2020-11-28T11:43:02Z</time>
      </trkpt>
      <trkpt lat="48.63493" lon="7.25994">
        <ele>650.2</ele>
        <time>2020-11-28T11:43:04Z</time>
      </trkpt>
      <trkpt lat="48.63484" lon="7.26001">
        <ele>650.2</ele>
        <time>2020-11-28T11:43:06Z</time>
      </trkpt>
      <trkpt lat="48.63475" lon="7.26008">
        <ele>650.2</ele>
        <time>2020-11-28T11:43:08Z</time>
      </trkpt>
      <trkpt lat="48.63467" lon="7.26015">
        <ele>651.1</ele>
        <time>2020-11-28T11:43:10Z</time>
      </trkpt>
      <trkpt lat="48.63459" lon="7.26021">
        <ele>651.9</ele>
        <time>2020-11-28T11:43:12Z</time>
      </trkpt>
      <trkpt lat="48.63449" lon="7.26027">
        <ele>652.7</ele>
        <time>2020-11-28T11:43:14Z</time>
      </trkpt>
      <trkpt lat="48.63441" lon="7.26033">
        <ele>654</ele>
        <time>2020-11-28T11:43:16Z</time>
      </trkpt>
      <trkpt lat="48.63433" lon="7.26039">
        <ele>654.7</ele>
        <time>2020-11-28T11:43:18Z</time>
      </trkpt>
      <trkpt lat="48.63424" lon="7.26045">
        <ele>655.8</ele>
        <time>2020-11-28T11:43:20Z</time>
      </trkpt>
      <trkpt lat="48.63415" lon="7.2605">
        <ele>656.3</ele>
        <time>2020-11-28T11:43:22Z</time>
      </trkpt>
      <trkpt lat="48.63406" lon="7.26053">
        <ele>656.7</ele>
        <time>2020-11-28T11:43:24Z</time>
      </trkpt>
      <trkpt lat="48.63398" lon="7.26055">
        <ele>656.6</ele>
        <time>2020-11-28T11:43:26Z</time>
      </trkpt>
      <trkpt lat="48.63388" lon="7.26058">
        <ele>656.7</ele>
        <time>2020-11-28T11:43:28Z</time>
      </trkpt>
      <trkpt lat="48.6338" lon="7.26058">
        <ele>657.4</ele>
        <time>2020-11-28T11:43:30Z</time>
      </trkpt>
      <trkpt lat="48.63371" lon="7.26057">
        <ele>657.9</ele>
        <time>2020-11-28T11:43:32Z</time>
      </trkpt>
      <trkpt lat="48.63361" lon="7.26056">
        <ele>657.7</ele>
        <time>2020-11-28T11:43:34Z</time>
      </trkpt>
      <trkpt lat="48.63352" lon="7.26055">
        <ele>657.5</ele>
        <time>2020-11-28T11:43:36Z</time>
      </trkpt>
      <trkpt lat="48.63343" lon="7.26054">
        <ele>657.2</ele>
        <time>2020-11-28T11:43:38Z</time>
      </trkpt>
      <trkpt lat="48.63333" lon="7.26053">
        <ele>657.7</ele>
        <time>2020-11-28T11:43:40Z</time>
      </trkpt>
      <trkpt lat="48.63324" lon="7.26053">
        <ele>658.4</ele>
        <time>2020-11-28T11:43:42Z</time>
      </trkpt>
      <trkpt lat="48.63313" lon="7.26054">
        <ele>659.1</ele>
        <time>2020-11-28T11:43:44Z</time>
      </trkpt>
      <trkpt lat="48.63305" lon="7.26053">
        <ele>660.8</ele>
        <time>2020-11-28T11:43:46Z</time>
      </trkpt>
      <trkpt lat="48.63296" lon="7.26053">
        <ele>657.3</ele>
        <time>2020-11-28T11:43:48Z</time>
      </trkpt>
      <trkpt lat="48.63288" lon="7.26052">
        <ele>657.1</ele>
        <time>2020-11-28T11:43:50Z</time>
      </trkpt>
      <trkpt lat="48.63279" lon="7.2605">
        <ele>657.7</ele>
        <time>2020-11-28T11:43:52Z</time>
      </trkpt>
      <trkpt lat="48.6327" lon="7.26048">
        <ele>656.1</ele>
        <time>2020-11-28T11:43:54Z</time>
      </trkpt>
      <trkpt lat="48.63261" lon="7.26046">
        <ele>657.8</ele>
        <time>2020-11-28T11:43:56Z</time>
      </trkpt>
      <trkpt lat="48.63253" lon="7.26044">
        <ele>660.1</ele>
        <time>2020-11-28T11:43:58Z</time>
      </trkpt>
      <trkpt lat="48.63245" lon="7.26043">
        <ele>662</ele>
        <time>2020-11-28T11:44:00Z</time>
      </trkpt>
      <trkpt lat="48.63236" lon="7.26041">
        <ele>664.6</ele>
        <time>2020-11-28T11:44:02Z</time>
      </trkpt>
      <trkpt lat="48.63228" lon="7.26039">
        <ele>667</ele>
        <time>2020-11-28T11:44:04Z</time>
      </trkpt>
      <trkpt lat="48.6322" lon="7.26036">
        <ele>669</ele>
        <time>2020-11-28T11:44:06Z</time>
      </trkpt>
      <trkpt lat="48.63211" lon="7.26035">
        <ele>670.9</ele>
        <time>2020-11-28T11:44:08Z</time>
      </trkpt>
      <trkpt lat="48.63203" lon="7.26032">
        <ele>672</ele>
        <time>2020-11-28T11:44:10Z</time>
      </trkpt>
      <trkpt lat="48.63196" lon="7.2603">
        <ele>673.1</ele>
        <time>2020-11-28T11:44:12Z</time>
      </trkpt>
      <trkpt lat="48.63188" lon="7.26028">
        <ele>674</ele>
        <time>2020-11-28T11:44:14Z</time>
      </trkpt>
      <trkpt lat="48.6318" lon="7.26028">
        <ele>675</ele>
        <time>2020-11-28T11:44:16Z</time>
      </trkpt>
      <trkpt lat="48.63169" lon="7.2603">
        <ele>677.6</ele>
        <time>2020-11-28T11:44:19Z</time>
      </trkpt>
      <trkpt lat="48.63162" lon="7.26031">
        <ele>678.8</ele>
        <time>2020-11-28T11:44:21Z</time>
      </trkpt>
      <trkpt lat="48.63154" lon="7.26031">
        <ele>679.6</ele>
        <time>2020-11-28T11:44:23Z</time>
      </trkpt>
      <trkpt lat="48.63146" lon="7.2603">
        <ele>680.3</ele>
        <time>2020-11-28T11:44:25Z</time>
      </trkpt>
      <trkpt lat="48.63138" lon="7.2603">
        <ele>680.6</ele>
        <time>2020-11-28T11:44:27Z</time>
      </trkpt>
      <trkpt lat="48.6313" lon="7.26031">
        <ele>680.6</ele>
        <time>2020-11-28T11:44:29Z</time>
      </trkpt>
      <trkpt lat="48.63121" lon="7.26031">
        <ele>680.8</ele>
        <time>2020-11-28T11:44:31Z</time>
      </trkpt>
      <trkpt lat="48.63113" lon="7.26033">
        <ele>681.3</ele>
        <time>2020-11-28T11:44:33Z</time>
      </trkpt>
      <trkpt lat="48.63104" lon="7.26035">
        <ele>681.9</ele>
        <time>2020-11-28T11:44:35Z</time>
      </trkpt>
      <trkpt lat="48.63095" lon="7.26037">
        <ele>682.6</ele>
        <time>2020-11-28T11:44:37Z</time>
      </trkpt>
      <trkpt lat="48.63086" lon="7.26038">
        <ele>682.4</ele>
        <time>2020-11-28T11:44:39Z</time>
      </trkpt>
      <trkpt lat="48.63078" lon="7.26039">
        <ele>682.7</ele>
        <time>2020-11-28T11:44:41Z</time>
      </trkpt>
      <trkpt lat="48.6307" lon="7.2604">
        <ele>682.9</ele>
        <time>2020-11-28T11:44:43Z</time>
      </trkpt>
      <trkpt lat="48.63062" lon="7.26038">
        <ele>682.9</ele>
        <time>2020-11-28T11:44:45Z</time>
      </trkpt>
      <trkpt lat="48.63054" lon="7.26033">
        <ele>683</ele>
        <time>2020-11-28T11:44:47Z</time>
      </trkpt>
      <trkpt lat="48.63047" lon="7.26027">
        <ele>683.1</ele>
        <time>2020-11-28T11:44:49Z</time>
      </trkpt>
      <trkpt lat="48.6304" lon="7.26021">
        <ele>683.6</ele>
        <time>2020-11-28T11:44:51Z</time>
      </trkpt>
      <trkpt lat="48.63033" lon="7.26013">
        <ele>683.9</ele>
        <time>2020-11-28T11:44:53Z</time>
      </trkpt>
      <trkpt lat="48.63026" lon="7.26005">
        <ele>684.5</ele>
        <time>2020-11-28T11:44:55Z</time>
      </trkpt>
      <trkpt lat="48.63021" lon="7.25996">
        <ele>685.2</ele>
        <time>2020-11-28T11:44:57Z</time>
      </trkpt>
      <trkpt lat="48.63016" lon="7.25986">
        <ele>685.9</ele>
        <time>2020-11-28T11:44:59Z</time>
      </trkpt>
      <trkpt lat="48.63011" lon="7.25975">
        <ele>686.7</ele>
        <time>2020-11-28T11:45:01Z</time>
      </trkpt>
      <trkpt lat="48.63007" lon="7.25963">
        <ele>687.4</ele>
        <time>2020-11-28T11:45:03Z</time>
      </trkpt>
      <trkpt lat="48.63003" lon="7.2595">
        <ele>688.2</ele>
        <time>2020-11-28T11:45:05Z</time>
      </trkpt>
      <trkpt lat="48.62998" lon="7.25938">
        <ele>688.3</ele>
        <time>2020-11-28T11:45:07Z</time>
      </trkpt>
      <trkpt lat="48.62994" lon="7.25927">
        <ele>688.3</ele>
        <time>2020-11-28T11:45:09Z</time>
      </trkpt>
      <trkpt lat="48.62989" lon="7.25915">
        <ele>688</ele>
        <time>2020-11-28T11:45:11Z</time>
      </trkpt>
      <trkpt lat="48.62985" lon="7.25903">
        <ele>688.3</ele>
        <time>2020-11-28T11:45:13Z</time>
      </trkpt>
      <trkpt lat="48.62981" lon="7.25891">
        <ele>688.5</ele>
        <time>2020-11-28T11:45:15Z</time>
      </trkpt>
      <trkpt lat="48.62978" lon="7.25879">
        <ele>689.2</ele>
        <time>2020-11-28T11:45:17Z</time>
      </trkpt>
      <trkpt lat="48.62973" lon="7.25867">
        <ele>689.8</ele>
        <time>2020-11-28T11:45:19Z</time>
      </trkpt>
      <trkpt lat="48.62967" lon="7.2585">
        <ele>689.5</ele>
        <time>2020-11-28T11:45:22Z</time>
      </trkpt>
      <trkpt lat="48.62963" lon="7.25838">
        <ele>689.5</ele>
        <time>2020-11-28T11:45:24Z</time>
      </trkpt>
      <trkpt lat="48.62959" lon="7.25827">
        <ele>689.4</ele>
        <time>2020-11-28T11:45:26Z</time>
      </trkpt>
      <trkpt lat="48.62956" lon="7.25816">
        <ele>689.5</ele>
        <time>2020-11-28T11:45:28Z</time>
      </trkpt>
      <trkpt lat="48.62954" lon="7.25802">
        <ele>689.7</ele>
        <time>2020-11-28T11:45:30Z</time>
      </trkpt>
      <trkpt lat="48.62952" lon="7.25789">
        <ele>689.8</ele>
        <time>2020-11-28T11:45:32Z</time>
      </trkpt>
      <trkpt lat="48.62949" lon="7.25776">
        <ele>690.3</ele>
        <time>2020-11-28T11:45:34Z</time>
      </trkpt>
      <trkpt lat="48.62946" lon="7.25762">
        <ele>690.2</ele>
        <time>2020-11-28T11:45:36Z</time>
      </trkpt>
      <trkpt lat="48.62944" lon="7.25748">
        <ele>690.5</ele>
        <time>2020-11-28T11:45:38Z</time>
      </trkpt>
      <trkpt lat="48.62942" lon="7.25734">
        <ele>691.1</ele>
        <time>2020-11-28T11:45:40Z</time>
      </trkpt>
      <trkpt lat="48.62939" lon="7.25721">
        <ele>691.4</ele>
        <time>2020-11-28T11:45:42Z</time>
      </trkpt>
      <trkpt lat="48.62936" lon="7.25708">
        <ele>691.2</ele>
        <time>2020-11-28T11:45:44Z</time>
      </trkpt>
      <trkpt lat="48.62934" lon="7.25696">
        <ele>690.9</ele>
        <time>2020-11-28T11:45:46Z</time>
      </trkpt>
      <trkpt lat="48.62931" lon="7.25684">
        <ele>690.8</ele>
        <time>2020-11-28T11:45:48Z</time>
      </trkpt>
      <trkpt lat="48.6293" lon="7.25672">
        <ele>691.5</ele>
        <time>2020-11-28T11:45:50Z</time>
      </trkpt>
      <trkpt lat="48.62929" lon="7.25659">
        <ele>691.7</ele>
        <time>2020-11-28T11:45:52Z</time>
      </trkpt>
      <trkpt lat="48.62926" lon="7.25646">
        <ele>692.1</ele>
        <time>2020-11-28T11:45:54Z</time>
      </trkpt>
      <trkpt lat="48.62925" lon="7.25633">
        <ele>692.2</ele>
        <time>2020-11-28T11:45:56Z</time>
      </trkpt>
      <trkpt lat="48.62925" lon="7.25618">
        <ele>692.5</ele>
        <time>2020-11-28T11:45:58Z</time>
      </trkpt>
      <trkpt lat="48.62927" lon="7.25605">
        <ele>692.4</ele>
        <time>2020-11-28T11:46:00Z</time>
      </trkpt>
      <trkpt lat="48.62929" lon="7.25591">
        <ele>692.6</ele>
        <time>2020-11-28T11:46:02Z</time>
      </trkpt>
      <trkpt lat="48.6293" lon="7.25579">
        <ele>692.7</ele>
        <time>2020-11-28T11:46:04Z</time>
      </trkpt>
      <trkpt lat="48.62931" lon="7.25558">
        <ele>691.7</ele>
        <time>2020-11-28T11:46:07Z</time>
      </trkpt>
      <trkpt lat="48.62932" lon="7.25544">
        <ele>692.1</ele>
        <time>2020-11-28T11:46:09Z</time>
      </trkpt>
      <trkpt lat="48.62931" lon="7.2553">
        <ele>692.2</ele>
        <time>2020-11-28T11:46:11Z</time>
      </trkpt>
      <trkpt lat="48.62931" lon="7.25517">
        <ele>692</ele>
        <time>2020-11-28T11:46:13Z</time>
      </trkpt>
      <trkpt lat="48.6293" lon="7.25502">
        <ele>692.5</ele>
        <time>2020-11-28T11:46:15Z</time>
      </trkpt>
      <trkpt lat="48.62929" lon="7.25489">
        <ele>693.1</ele>
        <time>2020-11-28T11:46:17Z</time>
      </trkpt>
      <trkpt lat="48.62926" lon="7.25476">
        <ele>694.1</ele>
        <time>2020-11-28T11:46:19Z</time>
      </trkpt>
      <trkpt lat="48.62923" lon="7.25464">
        <ele>694.9</ele>
        <time>2020-11-28T11:46:21Z</time>
      </trkpt>
      <trkpt lat="48.62916" lon="7.25455">
        <ele>695.8</ele>
        <time>2020-11-28T11:46:23Z</time>
      </trkpt>
      <trkpt lat="48.62908" lon="7.25448">
        <ele>696.7</ele>
        <time>2020-11-28T11:46:25Z</time>
      </trkpt>
      <trkpt lat="48.62901" lon="7.25444">
        <ele>697.3</ele>
        <time>2020-11-28T11:46:27Z</time>
      </trkpt>
      <trkpt lat="48.62893" lon="7.25444">
        <ele>697.7</ele>
        <time>2020-11-28T11:46:29Z</time>
      </trkpt>
      <trkpt lat="48.62885" lon="7.25446">
        <ele>698.3</ele>
        <time>2020-11-28T11:46:31Z</time>
      </trkpt>
      <trkpt lat="48.62878" lon="7.25449">
        <ele>698.8</ele>
        <time>2020-11-28T11:46:33Z</time>
      </trkpt>
      <trkpt lat="48.62869" lon="7.25451">
        <ele>699.1</ele>
        <time>2020-11-28T11:46:35Z</time>
      </trkpt>
      <trkpt lat="48.6286" lon="7.25452">
        <ele>699.6</ele>
        <time>2020-11-28T11:46:37Z</time>
      </trkpt>
      <trkpt lat="48.6285" lon="7.25452">
        <ele>699.7</ele>
        <time>2020-11-28T11:46:39Z</time>
      </trkpt>
      <trkpt lat="48.62842" lon="7.25452">
        <ele>700.8</ele>
        <time>2020-11-28T11:46:41Z</time>
      </trkpt>
      <trkpt lat="48.62833" lon="7.2545">
        <ele>702</ele>
        <time>2020-11-28T11:46:43Z</time>
      </trkpt>
      <trkpt lat="48.62823" lon="7.25447">
        <ele>702.6</ele>
        <time>2020-11-28T11:46:45Z</time>
      </trkpt>
      <trkpt lat="48.62814" lon="7.25444">
        <ele>702.8</ele>
        <time>2020-11-28T11:46:47Z</time>
      </trkpt>
      <trkpt lat="48.62804" lon="7.25442">
        <ele>703</ele>
        <time>2020-11-28T11:46:49Z</time>
      </trkpt>
      <trkpt lat="48.62795" lon="7.2544">
        <ele>703.7</ele>
        <time>2020-11-28T11:46:51Z</time>
      </trkpt>
      <trkpt lat="48.62787" lon="7.25437">
        <ele>704.2</ele>
        <time>2020-11-28T11:46:53Z</time>
      </trkpt>
      <trkpt lat="48.62779" lon="7.25435">
        <ele>705.1</ele>
        <time>2020-11-28T11:46:55Z</time>
      </trkpt>
      <trkpt lat="48.6277" lon="7.25433">
        <ele>705</ele>
        <time>2020-11-28T11:46:57Z</time>
      </trkpt>
      <trkpt lat="48.62761" lon="7.2543">
        <ele>705.2</ele>
        <time>2020-11-28T11:46:59Z</time>
      </trkpt>
      <trkpt lat="48.62752" lon="7.25428">
        <ele>704.2</ele>
        <time>2020-11-28T11:47:01Z</time>
      </trkpt>
      <trkpt lat="48.62742" lon="7.25426">
        <ele>703.6</ele>
        <time>2020-11-28T11:47:03Z</time>
      </trkpt>
      <trkpt lat="48.62734" lon="7.25423">
        <ele>702.9</ele>
        <time>2020-11-28T11:47:05Z</time>
      </trkpt>
      <trkpt lat="48.62726" lon="7.25419">
        <ele>702.3</ele>
        <time>2020-11-28T11:47:07Z</time>
      </trkpt>
      <trkpt lat="48.62718" lon="7.25415">
        <ele>702</ele>
        <time>2020-11-28T11:47:09Z</time>
      </trkpt>
      <trkpt lat="48.6271" lon="7.25412">
        <ele>701.7</ele>
        <time>2020-11-28T11:47:11Z</time>
      </trkpt>
      <trkpt lat="48.62702" lon="7.25409">
        <ele>701.5</ele>
        <time>2020-11-28T11:47:13Z</time>
      </trkpt>
      <trkpt lat="48.62694" lon="7.25407">
        <ele>701.7</ele>
        <time>2020-11-28T11:47:15Z</time>
      </trkpt>
      <trkpt lat="48.62686" lon="7.25404">
        <ele>702</ele>
        <time>2020-11-28T11:47:17Z</time>
      </trkpt>
      <trkpt lat="48.62677" lon="7.25401">
        <ele>702.4</ele>
        <time>2020-11-28T11:47:19Z</time>
      </trkpt>
      <trkpt lat="48.62668" lon="7.25398">
        <ele>703.2</ele>
        <time>2020-11-28T11:47:21Z</time>
      </trkpt>
      <trkpt lat="48.6266" lon="7.25396">
        <ele>704.4</ele>
        <time>2020-11-28T11:47:23Z</time>
      </trkpt>
      <trkpt lat="48.62651" lon="7.25394">
        <ele>705</ele>
        <time>2020-11-28T11:47:25Z</time>
      </trkpt>
      <trkpt lat="48.62643" lon="7.25392">
        <ele>706.2</ele>
        <time>2020-11-28T11:47:27Z</time>
      </trkpt>
      <trkpt lat="48.62634" lon="7.25392">
        <ele>707.2</ele>
        <time>2020-11-28T11:47:29Z</time>
      </trkpt>
      <trkpt lat="48.62623" lon="7.25394">
        <ele>708.4</ele>
        <time>2020-11-28T11:47:32Z</time>
      </trkpt>
      <trkpt lat="48.62615" lon="7.25397">
        <ele>709.2</ele>
        <time>2020-11-28T11:47:34Z</time>
      </trkpt>
      <trkpt lat="48.62608" lon="7.25402">
        <ele>710</ele>
        <time>2020-11-28T11:47:36Z</time>
      </trkpt>
      <trkpt lat="48.62602" lon="7.2541">
        <ele>709.7</ele>
        <time>2020-11-28T11:47:38Z</time>
      </trkpt>
      <trkpt lat="48.62597" lon="7.25421">
        <ele>709.3</ele>
        <time>2020-11-28T11:47:40Z</time>
      </trkpt>
      <trkpt lat="48.62593" lon="7.25433">
        <ele>709.1</ele>
        <time>2020-11-28T11:47:42Z</time>
      </trkpt>
      <trkpt lat="48.6259" lon="7.25445">
        <ele>709.4</ele>
        <time>2020-11-28T11:47:44Z</time>
      </trkpt>
      <trkpt lat="48.6259" lon="7.25458">
        <ele>710</ele>
        <time>2020-11-28T11:47:46Z</time>
      </trkpt>
      <trkpt lat="48.62589" lon="7.2547">
        <ele>710.4</ele>
        <time>2020-11-28T11:47:48Z</time>
      </trkpt>
      <trkpt lat="48.62588" lon="7.25482">
        <ele>710.4</ele>
        <time>2020-11-28T11:47:50Z</time>
      </trkpt>
      <trkpt lat="48.62587" lon="7.25492">
        <ele>710.7</ele>
        <time>2020-11-28T11:47:52Z</time>
      </trkpt>
      <trkpt lat="48.62588" lon="7.25503">
        <ele>711.4</ele>
        <time>2020-11-28T11:47:54Z</time>
      </trkpt>
      <trkpt lat="48.62587" lon="7.25513">
        <ele>713</ele>
        <time>2020-11-28T11:47:56Z</time>
      </trkpt>
      <trkpt lat="48.62583" lon="7.25527">
        <ele>713.4</ele>
        <time>2020-11-28T11:47:58Z</time>
      </trkpt>
      <trkpt lat="48.62579" lon="7.25541">
        <ele>714.9</ele>
        <time>2020-11-28T11:48:00Z</time>
      </trkpt>
      <trkpt lat="48.62574" lon="7.25555">
        <ele>716.1</ele>
        <time>2020-11-28T11:48:02Z</time>
      </trkpt>
      <trkpt lat="48.6257" lon="7.25568">
        <ele>718</ele>
        <time>2020-11-28T11:48:04Z</time>
      </trkpt>
      <trkpt lat="48.62565" lon="7.2558">
        <ele>719.2</ele>
        <time>2020-11-28T11:48:06Z</time>
      </trkpt>
      <trkpt lat="48.62561" lon="7.25593">
        <ele>720</ele>
        <time>2020-11-28T11:48:08Z</time>
      </trkpt>
      <trkpt lat="48.62556" lon="7.25604">
        <ele>721.1</ele>
        <time>2020-11-28T11:48:10Z</time>
      </trkpt>
      <trkpt lat="48.62552" lon="7.25616">
        <ele>722.1</ele>
        <time>2020-11-28T11:48:12Z</time>
      </trkpt>
      <trkpt lat="48.62547" lon="7.25628">
        <ele>722.3</ele>
        <time>2020-11-28T11:48:14Z</time>
      </trkpt>
      <trkpt lat="48.62542" lon="7.25639">
        <ele>723.1</ele>
        <time>2020-11-28T11:48:16Z</time>
      </trkpt>
      <trkpt lat="48.62538" lon="7.25649">
        <ele>723.4</ele>
        <time>2020-11-28T11:48:18Z</time>
      </trkpt>
      <trkpt lat="48.62533" lon="7.25658">
        <ele>723.3</ele>
        <time>2020-11-28T11:48:20Z</time>
      </trkpt>
      <trkpt lat="48.62529" lon="7.25667">
        <ele>723.7</ele>
        <time>2020-11-28T11:48:22Z</time>
      </trkpt>
      <trkpt lat="48.62524" lon="7.25676">
        <ele>724</ele>
        <time>2020-11-28T11:48:24Z</time>
      </trkpt>
      <trkpt lat="48.6252" lon="7.25685">
        <ele>725.2</ele>
        <time>2020-11-28T11:48:26Z</time>
      </trkpt>
      <trkpt lat="48.62517" lon="7.25693">
        <ele>726.4</ele>
        <time>2020-11-28T11:48:28Z</time>
      </trkpt>
      <trkpt lat="48.62512" lon="7.25701">
        <ele>727.1</ele>
        <time>2020-11-28T11:48:30Z</time>
      </trkpt>
      <trkpt lat="48.62508" lon="7.25709">
        <ele>727.7</ele>
        <time>2020-11-28T11:48:32Z</time>
      </trkpt>
      <trkpt lat="48.62504" lon="7.25717">
        <ele>728</ele>
        <time>2020-11-28T11:48:34Z</time>
      </trkpt>
      <trkpt lat="48.625" lon="7.25723">
        <ele>727.9</ele>
        <time>2020-11-28T11:48:36Z</time>
      </trkpt>
      <trkpt lat="48.62493" lon="7.25734">
        <ele>728.3</ele>
        <time>2020-11-28T11:48:38Z</time>
      </trkpt>
      <trkpt lat="48.62486" lon="7.25746">
        <ele>728.3</ele>
        <time>2020-11-28T11:48:40Z</time>
      </trkpt>
      <trkpt lat="48.62478" lon="7.25758">
        <ele>728.4</ele>
        <time>2020-11-28T11:48:42Z</time>
      </trkpt>
      <trkpt lat="48.6247" lon="7.2577">
        <ele>728.8</ele>
        <time>2020-11-28T11:48:44Z</time>
      </trkpt>
      <trkpt lat="48.62461" lon="7.25781">
        <ele>728.8</ele>
        <time>2020-11-28T11:48:46Z</time>
      </trkpt>
      <trkpt lat="48.62452" lon="7.25791">
        <ele>729.2</ele>
        <time>2020-11-28T11:48:48Z</time>
      </trkpt>
      <trkpt lat="48.62439" lon="7.25805">
        <ele>729.4</ele>
        <time>2020-11-28T11:48:51Z</time>
      </trkpt>
      <trkpt lat="48.62429" lon="7.25814">
        <ele>729.3</ele>
        <time>2020-11-28T11:48:53Z</time>
      </trkpt>
      <trkpt lat="48.62419" lon="7.2582">
        <ele>729.1</ele>
        <time>2020-11-28T11:48:55Z</time>
      </trkpt>
      <trkpt lat="48.62409" lon="7.25825">
        <ele>728.6</ele>
        <time>2020-11-28T11:48:57Z</time>
      </trkpt>
      <trkpt lat="48.624" lon="7.25829">
        <ele>727.8</ele>
        <time>2020-11-28T11:48:59Z</time>
      </trkpt>
      <trkpt lat="48.62391" lon="7.25833">
        <ele>726.6</ele>
        <time>2020-11-28T11:49:01Z</time>
      </trkpt>
      <trkpt lat="48.62382" lon="7.25836">
        <ele>726.4</ele>
        <time>2020-11-28T11:49:03Z</time>
      </trkpt>
      <trkpt lat="48.62373" lon="7.25838">
        <ele>725.6</ele>
        <time>2020-11-28T11:49:05Z</time>
      </trkpt>
      <trkpt lat="48.62364" lon="7.25838">
        <ele>726.8</ele>
        <time>2020-11-28T11:49:07Z</time>
      </trkpt>
      <trkpt lat="48.62351" lon="7.25838">
        <ele>728.1</ele>
        <time>2020-11-28T11:49:10Z</time>
      </trkpt>
      <trkpt lat="48.62341" lon="7.2584">
        <ele>728.5</ele>
        <time>2020-11-28T11:49:12Z</time>
      </trkpt>
      <trkpt lat="48.62332" lon="7.25841">
        <ele>728.6</ele>
        <time>2020-11-28T11:49:14Z</time>
      </trkpt>
      <trkpt lat="48.62323" lon="7.2584">
        <ele>729</ele>
        <time>2020-11-28T11:49:16Z</time>
      </trkpt>
      <trkpt lat="48.62314" lon="7.25839">
        <ele>729.2</ele>
        <time>2020-11-28T11:49:18Z</time>
      </trkpt>
      <trkpt lat="48.62304" lon="7.25837">
        <ele>729.6</ele>
        <time>2020-11-28T11:49:20Z</time>
      </trkpt>
      <trkpt lat="48.62295" lon="7.25834">
        <ele>730.2</ele>
        <time>2020-11-28T11:49:22Z</time>
      </trkpt>
      <trkpt lat="48.62286" lon="7.25832">
        <ele>730.7</ele>
        <time>2020-11-28T11:49:24Z</time>
      </trkpt>
      <trkpt lat="48.62277" lon="7.25829">
        <ele>731</ele>
        <time>2020-11-28T11:49:26Z</time>
      </trkpt>
      <trkpt lat="48.62268" lon="7.25828">
        <ele>731.5</ele>
        <time>2020-11-28T11:49:28Z</time>
      </trkpt>
      <trkpt lat="48.6226" lon="7.25828">
        <ele>731.6</ele>
        <time>2020-11-28T11:49:30Z</time>
      </trkpt>
      <trkpt lat="48.6225" lon="7.25828">
        <ele>731.7</ele>
        <time>2020-11-28T11:49:32Z</time>
      </trkpt>
      <trkpt lat="48.6224" lon="7.2583">
        <ele>731.6</ele>
        <time>2020-11-28T11:49:34Z</time>
      </trkpt>
      <trkpt lat="48.62232" lon="7.25832">
        <ele>731.6</ele>
        <time>2020-11-28T11:49:36Z</time>
      </trkpt>
      <trkpt lat="48.62223" lon="7.25837">
        <ele>731.4</ele>
        <time>2020-11-28T11:49:38Z</time>
      </trkpt>
      <trkpt lat="48.62215" lon="7.25841">
        <ele>731.3</ele>
        <time>2020-11-28T11:49:40Z</time>
      </trkpt>
      <trkpt lat="48.62206" lon="7.25847">
        <ele>731.6</ele>
        <time>2020-11-28T11:49:42Z</time>
      </trkpt>
      <trkpt lat="48.62198" lon="7.25852">
        <ele>731.7</ele>
        <time>2020-11-28T11:49:44Z</time>
      </trkpt>
      <trkpt lat="48.62192" lon="7.2586">
        <ele>731.4</ele>
        <time>2020-11-28T11:49:46Z</time>
      </trkpt>
      <trkpt lat="48.62186" lon="7.25869">
        <ele>730.8</ele>
        <time>2020-11-28T11:49:48Z</time>
      </trkpt>
      <trkpt lat="48.6218" lon="7.25878">
        <ele>731.3</ele>
        <time>2020-11-28T11:49:50Z</time>
      </trkpt>
      <trkpt lat="48.62174" lon="7.25887">
        <ele>731.6</ele>
        <time>2020-11-28T11:49:52Z</time>
      </trkpt>
      <trkpt lat="48.62168" lon="7.25896">
        <ele>732.2</ele>
        <time>2020-11-28T11:49:54Z</time>
      </trkpt>
      <trkpt lat="48.62162" lon="7.25905">
        <ele>733.3</ele>
        <time>2020-11-28T11:49:56Z</time>
      </trkpt>
      <trkpt lat="48.62157" lon="7.25913">
        <ele>734.3</ele>
        <time>2020-11-28T11:49:58Z</time>
      </trkpt>
      <trkpt lat="48.62151" lon="7.25921">
        <ele>735.1</ele>
        <time>2020-11-28T11:50:00Z</time>
      </trkpt>
      <trkpt lat="48.62145" lon="7.25929">
        <ele>735.8</ele>
        <time>2020-11-28T11:50:02Z</time>
      </trkpt>
      <trkpt lat="48.62138" lon="7.25938">
        <ele>736.2</ele>
        <time>2020-11-28T11:50:04Z</time>
      </trkpt>
      <trkpt lat="48.62131" lon="7.25945">
        <ele>736</ele>
        <time>2020-11-28T11:50:06Z</time>
      </trkpt>
      <trkpt lat="48.62125" lon="7.25953">
        <ele>735.7</ele>
        <time>2020-11-28T11:50:08Z</time>
      </trkpt>
      <trkpt lat="48.62118" lon="7.25961">
        <ele>735.4</ele>
        <time>2020-11-28T11:50:10Z</time>
      </trkpt>
      <trkpt lat="48.62111" lon="7.25967">
        <ele>735.4</ele>
        <time>2020-11-28T11:50:12Z</time>
      </trkpt>
      <trkpt lat="48.62103" lon="7.25971">
        <ele>735.2</ele>
        <time>2020-11-28T11:50:14Z</time>
      </trkpt>
      <trkpt lat="48.62094" lon="7.25976">
        <ele>735.3</ele>
        <time>2020-11-28T11:50:16Z</time>
      </trkpt>
      <trkpt lat="48.62086" lon="7.2598">
        <ele>735.8</ele>
        <time>2020-11-28T11:50:18Z</time>
      </trkpt>
      <trkpt lat="48.62077" lon="7.25986">
        <ele>735.8</ele>
        <time>2020-11-28T11:50:20Z</time>
      </trkpt>
      <trkpt lat="48.62069" lon="7.25991">
        <ele>735.5</ele>
        <time>2020-11-28T11:50:22Z</time>
      </trkpt>
      <trkpt lat="48.62057" lon="7.25997">
        <ele>734.9</ele>
        <time>2020-11-28T11:50:25Z</time>
      </trkpt>
      <trkpt lat="48.62048" lon="7.26001">
        <ele>734.9</ele>
        <time>2020-11-28T11:50:27Z</time>
      </trkpt>
      <trkpt lat="48.62041" lon="7.26004">
        <ele>734.6</ele>
        <time>2020-11-28T11:50:29Z</time>
      </trkpt>
      <trkpt lat="48.62033" lon="7.26007">
        <ele>735.1</ele>
        <time>2020-11-28T11:50:31Z</time>
      </trkpt>
      <trkpt lat="48.62026" lon="7.2601">
        <ele>734.8</ele>
        <time>2020-11-28T11:50:33Z</time>
      </trkpt>
      <trkpt lat="48.62018" lon="7.26011">
        <ele>735.6</ele>
        <time>2020-11-28T11:50:35Z</time>
      </trkpt>
      <trkpt lat="48.6201" lon="7.26013">
        <ele>735.3</ele>
        <time>2020-11-28T11:50:37Z</time>
      </trkpt>
      <trkpt lat="48.61996" lon="7.26014">
        <ele>736.4</ele>
        <time>2020-11-28T11:50:40Z</time>
      </trkpt>
      <trkpt lat="48.61986" lon="7.26015">
        <ele>736.2</ele>
        <time>2020-11-28T11:50:42Z</time>
      </trkpt>
      <trkpt lat="48.61977" lon="7.26015">
        <ele>736.2</ele>
        <time>2020-11-28T11:50:44Z</time>
      </trkpt>
      <trkpt lat="48.61965" lon="7.26014">
        <ele>736.5</ele>
        <time>2020-11-28T11:50:46Z</time>
      </trkpt>
      <trkpt lat="48.61954" lon="7.26013">
        <ele>736.1</ele>
        <time>2020-11-28T11:50:48Z</time>
      </trkpt>
      <trkpt lat="48.61944" lon="7.26011">
        <ele>736.1</ele>
        <time>2020-11-28T11:50:50Z</time>
      </trkpt>
      <trkpt lat="48.61933" lon="7.26009">
        <ele>736.4</ele>
        <time>2020-11-28T11:50:52Z</time>
      </trkpt>
      <trkpt lat="48.61923" lon="7.26006">
        <ele>736.3</ele>
        <time>2020-11-28T11:50:54Z</time>
      </trkpt>
      <trkpt lat="48.61913" lon="7.26004">
        <ele>736.2</ele>
        <time>2020-11-28T11:50:56Z</time>
      </trkpt>
      <trkpt lat="48.61904" lon="7.26001">
        <ele>735.5</ele>
        <time>2020-11-28T11:50:58Z</time>
      </trkpt>
      <trkpt lat="48.61895" lon="7.25998">
        <ele>736</ele>
        <time>2020-11-28T11:51:00Z</time>
      </trkpt>
      <trkpt lat="48.61886" lon="7.25996">
        <ele>736</ele>
        <time>2020-11-28T11:51:02Z</time>
      </trkpt>
      <trkpt lat="48.61877" lon="7.25993">
        <ele>735.7</ele>
        <time>2020-11-28T11:51:04Z</time>
      </trkpt>
      <trkpt lat="48.61867" lon="7.25992">
        <ele>735.7</ele>
        <time>2020-11-28T11:51:06Z</time>
      </trkpt>
      <trkpt lat="48.61856" lon="7.2599">
        <ele>734.9</ele>
        <time>2020-11-28T11:51:08Z</time>
      </trkpt>
      <trkpt lat="48.61847" lon="7.25988">
        <ele>734.5</ele>
        <time>2020-11-28T11:51:10Z</time>
      </trkpt>
      <trkpt lat="48.61837" lon="7.25985">
        <ele>734.2</ele>
        <time>2020-11-28T11:51:12Z</time>
      </trkpt>
      <trkpt lat="48.61828" lon="7.25981">
        <ele>733.9</ele>
        <time>2020-11-28T11:51:14Z</time>
      </trkpt>
      <trkpt lat="48.6182" lon="7.25977">
        <ele>733.1</ele>
        <time>2020-11-28T11:51:16Z</time>
      </trkpt>
      <trkpt lat="48.61811" lon="7.25972">
        <ele>733.7</ele>
        <time>2020-11-28T11:51:18Z</time>
      </trkpt>
      <trkpt lat="48.61802" lon="7.25968">
        <ele>732.9</ele>
        <time>2020-11-28T11:51:20Z</time>
      </trkpt>
      <trkpt lat="48.61793" lon="7.25963">
        <ele>732.7</ele>
        <time>2020-11-28T11:51:22Z</time>
      </trkpt>
      <trkpt lat="48.61785" lon="7.25957">
        <ele>732.6</ele>
        <time>2020-11-28T11:51:24Z</time>
      </trkpt>
      <trkpt lat="48.61772" lon="7.25943">
        <ele>732</ele>
        <time>2020-11-28T11:51:27Z</time>
      </trkpt>
      <trkpt lat="48.61764" lon="7.2593">
        <ele>733</ele>
        <time>2020-11-28T11:51:29Z</time>
      </trkpt>
      <trkpt lat="48.61756" lon="7.25919">
        <ele>732</ele>
        <time>2020-11-28T11:51:31Z</time>
      </trkpt>
      <trkpt lat="48.61747" lon="7.25906">
        <ele>730.8</ele>
        <time>2020-11-28T11:51:33Z</time>
      </trkpt>
      <trkpt lat="48.6174" lon="7.25893">
        <ele>729.9</ele>
        <time>2020-11-28T11:51:35Z</time>
      </trkpt>
      <trkpt lat="48.61734" lon="7.25879">
        <ele>729.6</ele>
        <time>2020-11-28T11:51:37Z</time>
      </trkpt>
      <trkpt lat="48.61727" lon="7.25866">
        <ele>729.1</ele>
        <time>2020-11-28T11:51:39Z</time>
      </trkpt>
      <trkpt lat="48.6172" lon="7.25852">
        <ele>729.3</ele>
        <time>2020-11-28T11:51:41Z</time>
      </trkpt>
      <trkpt lat="48.61713" lon="7.25837">
        <ele>729.4</ele>
        <time>2020-11-28T11:51:43Z</time>
      </trkpt>
      <trkpt lat="48.61706" lon="7.2582">
        <ele>728.9</ele>
        <time>2020-11-28T11:51:45Z</time>
      </trkpt>
      <trkpt lat="48.61698" lon="7.25805">
        <ele>728.7</ele>
        <time>2020-11-28T11:51:47Z</time>
      </trkpt>
      <trkpt lat="48.6169" lon="7.25792">
        <ele>727.9</ele>
        <time>2020-11-28T11:51:49Z</time>
      </trkpt>
      <trkpt lat="48.61682" lon="7.25779">
        <ele>728.1</ele>
        <time>2020-11-28T11:51:51Z</time>
      </trkpt>
      <trkpt lat="48.61675" lon="7.25768">
        <ele>727.7</ele>
        <time>2020-11-28T11:51:53Z</time>
      </trkpt>
      <trkpt lat="48.61667" lon="7.25757">
        <ele>727.2</ele>
        <time>2020-11-28T11:51:55Z</time>
      </trkpt>
      <trkpt lat="48.61658" lon="7.25747">
        <ele>726.8</ele>
        <time>2020-11-28T11:51:57Z</time>
      </trkpt>
      <trkpt lat="48.61648" lon="7.25736">
        <ele>727</ele>
        <time>2020-11-28T11:51:59Z</time>
      </trkpt>
      <trkpt lat="48.61639" lon="7.2573">
        <ele>726.8</ele>
        <time>2020-11-28T11:52:01Z</time>
      </trkpt>
      <trkpt lat="48.61628" lon="7.25727">
        <ele>726.7</ele>
        <time>2020-11-28T11:52:03Z</time>
      </trkpt>
      <trkpt lat="48.61615" lon="7.25727">
        <ele>726.5</ele>
        <time>2020-11-28T11:52:05Z</time>
      </trkpt>
      <trkpt lat="48.61603" lon="7.25729">
        <ele>726.6</ele>
        <time>2020-11-28T11:52:07Z</time>
      </trkpt>
      <trkpt lat="48.61591" lon="7.2573">
        <ele>726.7</ele>
        <time>2020-11-28T11:52:09Z</time>
      </trkpt>
      <trkpt lat="48.61579" lon="7.25732">
        <ele>726.7</ele>
        <time>2020-11-28T11:52:11Z</time>
      </trkpt>
      <trkpt lat="48.61568" lon="7.25737">
        <ele>727.1</ele>
        <time>2020-11-28T11:52:13Z</time>
      </trkpt>
      <trkpt lat="48.61555" lon="7.25742">
        <ele>727.4</ele>
        <time>2020-11-28T11:52:15Z</time>
      </trkpt>
      <trkpt lat="48.61544" lon="7.25748">
        <ele>727.9</ele>
        <time>2020-11-28T11:52:17Z</time>
      </trkpt>
      <trkpt lat="48.61532" lon="7.25755">
        <ele>727.9</ele>
        <time>2020-11-28T11:52:19Z</time>
      </trkpt>
      <trkpt lat="48.61521" lon="7.25764">
        <ele>728.1</ele>
        <time>2020-11-28T11:52:21Z</time>
      </trkpt>
      <trkpt lat="48.61509" lon="7.25774">
        <ele>728.2</ele>
        <time>2020-11-28T11:52:23Z</time>
      </trkpt>
      <trkpt lat="48.61498" lon="7.25782">
        <ele>728.6</ele>
        <time>2020-11-28T11:52:25Z</time>
      </trkpt>
      <trkpt lat="48.61487" lon="7.25789">
        <ele>729.5</ele>
        <time>2020-11-28T11:52:27Z</time>
      </trkpt>
      <trkpt lat="48.61475" lon="7.25796">
        <ele>730.3</ele>
        <time>2020-11-28T11:52:29Z</time>
      </trkpt>
      <trkpt lat="48.61464" lon="7.25802">
        <ele>730.7</ele>
        <time>2020-11-28T11:52:31Z</time>
      </trkpt>
      <trkpt lat="48.61453" lon="7.25806">
        <ele>731.9</ele>
        <time>2020-11-28T11:52:33Z</time>
      </trkpt>
      <trkpt lat="48.61444" lon="7.25808">
        <ele>733.7</ele>
        <time>2020-11-28T11:52:35Z</time>
      </trkpt>
      <trkpt lat="48.61437" lon="7.25808">
        <ele>735.7</ele>
        <time>2020-11-28T11:52:37Z</time>
      </trkpt>
      <trkpt lat="48.61432" lon="7.25807">
        <ele>734.7</ele>
        <time>2020-11-28T11:52:41Z</time>
      </trkpt>
      <trkpt lat="48.61428" lon="7.25806">
        <ele>739.3</ele>
        <time>2020-11-28T11:53:18Z</time>
      </trkpt>
      <trkpt lat="48.61422" lon="7.25808">
        <ele>740.1</ele>
        <time>2020-11-28T11:53:22Z</time>
      </trkpt>
      <trkpt lat="48.61415" lon="7.25809">
        <ele>740.5</ele>
        <time>2020-11-28T11:53:24Z</time>
      </trkpt>
      <trkpt lat="48.61408" lon="7.25808">
        <ele>740.3</ele>
        <time>2020-11-28T11:53:26Z</time>
      </trkpt>
      <trkpt lat="48.61397" lon="7.25807">
        <ele>741</ele>
        <time>2020-11-28T11:53:28Z</time>
      </trkpt>
      <trkpt lat="48.61389" lon="7.25804">
        <ele>740.7</ele>
        <time>2020-11-28T11:53:30Z</time>
      </trkpt>
      <trkpt lat="48.61379" lon="7.25801">
        <ele>740.7</ele>
        <time>2020-11-28T11:53:32Z</time>
      </trkpt>
      <trkpt lat="48.61369" lon="7.25799">
        <ele>741.4</ele>
        <time>2020-11-28T11:53:34Z</time>
      </trkpt>
      <trkpt lat="48.6136" lon="7.25798">
        <ele>740.9</ele>
        <time>2020-11-28T11:53:36Z</time>
      </trkpt>
      <trkpt lat="48.61351" lon="7.25795">
        <ele>740.1</ele>
        <time>2020-11-28T11:53:38Z</time>
      </trkpt>
      <trkpt lat="48.61339" lon="7.25791">
        <ele>740.9</ele>
        <time>2020-11-28T11:53:41Z</time>
      </trkpt>
      <trkpt lat="48.61327" lon="7.25788">
        <ele>741.5</ele>
        <time>2020-11-28T11:53:44Z</time>
      </trkpt>
      <trkpt lat="48.61318" lon="7.25785">
        <ele>742.6</ele>
        <time>2020-11-28T11:53:46Z</time>
      </trkpt>
      <trkpt lat="48.61309" lon="7.25784">
        <ele>743.4</ele>
        <time>2020-11-28T11:53:48Z</time>
      </trkpt>
      <trkpt lat="48.61302" lon="7.25782">
        <ele>744.3</ele>
        <time>2020-11-28T11:53:50Z</time>
      </trkpt>
      <trkpt lat="48.61294" lon="7.25781">
        <ele>745.6</ele>
        <time>2020-11-28T11:53:52Z</time>
      </trkpt>
      <trkpt lat="48.61287" lon="7.25778">
        <ele>746.4</ele>
        <time>2020-11-28T11:53:54Z</time>
      </trkpt>
      <trkpt lat="48.61279" lon="7.25776">
        <ele>747.7</ele>
        <time>2020-11-28T11:53:56Z</time>
      </trkpt>
      <trkpt lat="48.61271" lon="7.25776">
        <ele>744.6</ele>
        <time>2020-11-28T11:53:58Z</time>
      </trkpt>
      <trkpt lat="48.61264" lon="7.25777">
        <ele>744</ele>
        <time>2020-11-28T11:54:00Z</time>
      </trkpt>
      <trkpt lat="48.61256" lon="7.25779">
        <ele>744</ele>
        <time>2020-11-28T11:54:02Z</time>
      </trkpt>
      <trkpt lat="48.61249" lon="7.25779">
        <ele>744.7</ele>
        <time>2020-11-28T11:54:04Z</time>
      </trkpt>
      <trkpt lat="48.61241" lon="7.25779">
        <ele>746.1</ele>
        <time>2020-11-28T11:54:06Z</time>
      </trkpt>
      <trkpt lat="48.61234" lon="7.25778">
        <ele>746.7</ele>
        <time>2020-11-28T11:54:08Z</time>
      </trkpt>
      <trkpt lat="48.61227" lon="7.25779">
        <ele>746.9</ele>
        <time>2020-11-28T11:54:10Z</time>
      </trkpt>
      <trkpt lat="48.61219" lon="7.25779">
        <ele>746.4</ele>
        <time>2020-11-28T11:54:12Z</time>
      </trkpt>
      <trkpt lat="48.6121" lon="7.25779">
        <ele>746.9</ele>
        <time>2020-11-28T11:54:14Z</time>
      </trkpt>
      <trkpt lat="48.61202" lon="7.25779">
        <ele>744</ele>
        <time>2020-11-28T11:54:16Z</time>
      </trkpt>
      <trkpt lat="48.6119" lon="7.25778">
        <ele>744</ele>
        <time>2020-11-28T11:54:19Z</time>
      </trkpt>
      <trkpt lat="48.61182" lon="7.25778">
        <ele>725</ele>
        <time>2020-11-28T11:54:21Z</time>
      </trkpt>
      <trkpt lat="48.61174" lon="7.25778">
        <ele>721.3</ele>
        <time>2020-11-28T11:54:23Z</time>
      </trkpt>
      <trkpt lat="48.61165" lon="7.25777">
        <ele>724</ele>
        <time>2020-11-28T11:54:25Z</time>
      </trkpt>
      <trkpt lat="48.61156" lon="7.25776">
        <ele>726.1</ele>
        <time>2020-11-28T11:54:27Z</time>
      </trkpt>
      <trkpt lat="48.61148" lon="7.25774">
        <ele>730.6</ele>
        <time>2020-11-28T11:54:29Z</time>
      </trkpt>
      <trkpt lat="48.61135" lon="7.25772">
        <ele>736.1</ele>
        <time>2020-11-28T11:54:32Z</time>
      </trkpt>
      <trkpt lat="48.61127" lon="7.25771">
        <ele>740.2</ele>
        <time>2020-11-28T11:54:34Z</time>
      </trkpt>
      <trkpt lat="48.61118" lon="7.2577">
        <ele>743.7</ele>
        <time>2020-11-28T11:54:36Z</time>
      </trkpt>
      <trkpt lat="48.6111" lon="7.25768">
        <ele>747.2</ele>
        <time>2020-11-28T11:54:38Z</time>
      </trkpt>
      <trkpt lat="48.61102" lon="7.25767">
        <ele>749.1</ele>
        <time>2020-11-28T11:54:40Z</time>
      </trkpt>
      <trkpt lat="48.61094" lon="7.25765">
        <ele>750.6</ele>
        <time>2020-11-28T11:54:42Z</time>
      </trkpt>
      <trkpt lat="48.61086" lon="7.25762">
        <ele>751.5</ele>
        <time>2020-11-28T11:54:44Z</time>
      </trkpt>
      <trkpt lat="48.61078" lon="7.25758">
        <ele>752.1</ele>
        <time>2020-11-28T11:54:46Z</time>
      </trkpt>
      <trkpt lat="48.61069" lon="7.25754">
        <ele>752.2</ele>
        <time>2020-11-28T11:54:48Z</time>
      </trkpt>
      <trkpt lat="48.61061" lon="7.25751">
        <ele>752.2</ele>
        <time>2020-11-28T11:54:50Z</time>
      </trkpt>
      <trkpt lat="48.61053" lon="7.25749">
        <ele>752.2</ele>
        <time>2020-11-28T11:54:52Z</time>
      </trkpt>
      <trkpt lat="48.61044" lon="7.25746">
        <ele>752.1</ele>
        <time>2020-11-28T11:54:54Z</time>
      </trkpt>
      <trkpt lat="48.61036" lon="7.25744">
        <ele>751.9</ele>
        <time>2020-11-28T11:54:56Z</time>
      </trkpt>
      <trkpt lat="48.61028" lon="7.25741">
        <ele>751.9</ele>
        <time>2020-11-28T11:54:58Z</time>
      </trkpt>
      <trkpt lat="48.6102" lon="7.25739">
        <ele>738.8</ele>
        <time>2020-11-28T11:55:00Z</time>
      </trkpt>
      <trkpt lat="48.61013" lon="7.25735">
        <ele>738.4</ele>
        <time>2020-11-28T11:55:02Z</time>
      </trkpt>
      <trkpt lat="48.61006" lon="7.25731">
        <ele>738.4</ele>
        <time>2020-11-28T11:55:04Z</time>
      </trkpt>
      <trkpt lat="48.60997" lon="7.25727">
        <ele>741.2</ele>
        <time>2020-11-28T11:55:06Z</time>
      </trkpt>
      <trkpt lat="48.60989" lon="7.25724">
        <ele>744.1</ele>
        <time>2020-11-28T11:55:08Z</time>
      </trkpt>
      <trkpt lat="48.6098" lon="7.2572">
        <ele>748.4</ele>
        <time>2020-11-28T11:55:10Z</time>
      </trkpt>
      <trkpt lat="48.60971" lon="7.25718">
        <ele>751.7</ele>
        <time>2020-11-28T11:55:12Z</time>
      </trkpt>
      <trkpt lat="48.60963" lon="7.25715">
        <ele>755</ele>
        <time>2020-11-28T11:55:14Z</time>
      </trkpt>
      <trkpt lat="48.60955" lon="7.25713">
        <ele>758.2</ele>
        <time>2020-11-28T11:55:16Z</time>
      </trkpt>
      <trkpt lat="48.60947" lon="7.25711">
        <ele>760.6</ele>
        <time>2020-11-28T11:55:18Z</time>
      </trkpt>
      <trkpt lat="48.60939" lon="7.2571">
        <ele>762</ele>
        <time>2020-11-28T11:55:20Z</time>
      </trkpt>
      <trkpt lat="48.60931" lon="7.25709">
        <ele>763.1</ele>
        <time>2020-11-28T11:55:22Z</time>
      </trkpt>
      <trkpt lat="48.60923" lon="7.25708">
        <ele>760.5</ele>
        <time>2020-11-28T11:55:24Z</time>
      </trkpt>
      <trkpt lat="48.60915" lon="7.25706">
        <ele>761.4</ele>
        <time>2020-11-28T11:55:26Z</time>
      </trkpt>
      <trkpt lat="48.60907" lon="7.25706">
        <ele>762.3</ele>
        <time>2020-11-28T11:55:28Z</time>
      </trkpt>
      <trkpt lat="48.609" lon="7.25705">
        <ele>763.2</ele>
        <time>2020-11-28T11:55:30Z</time>
      </trkpt>
      <trkpt lat="48.60893" lon="7.25705">
        <ele>765.3</ele>
        <time>2020-11-28T11:55:32Z</time>
      </trkpt>
      <trkpt lat="48.60886" lon="7.25706">
        <ele>766.9</ele>
        <time>2020-11-28T11:55:34Z</time>
      </trkpt>
      <trkpt lat="48.60878" lon="7.25706">
        <ele>768.4</ele>
        <time>2020-11-28T11:55:36Z</time>
      </trkpt>
      <trkpt lat="48.6087" lon="7.25706">
        <ele>769.9</ele>
        <time>2020-11-28T11:55:38Z</time>
      </trkpt>
      <trkpt lat="48.60862" lon="7.25706">
        <ele>772.4</ele>
        <time>2020-11-28T11:55:40Z</time>
      </trkpt>
      <trkpt lat="48.60855" lon="7.25705">
        <ele>774.4</ele>
        <time>2020-11-28T11:55:42Z</time>
      </trkpt>
      <trkpt lat="48.60847" lon="7.25704">
        <ele>776.6</ele>
        <time>2020-11-28T11:55:44Z</time>
      </trkpt>
      <trkpt lat="48.60839" lon="7.25704">
        <ele>777.7</ele>
        <time>2020-11-28T11:55:46Z</time>
      </trkpt>
      <trkpt lat="48.60832" lon="7.25703">
        <ele>779.7</ele>
        <time>2020-11-28T11:55:48Z</time>
      </trkpt>
      <trkpt lat="48.60824" lon="7.25701">
        <ele>780.4</ele>
        <time>2020-11-28T11:55:50Z</time>
      </trkpt>
      <trkpt lat="48.60815" lon="7.25701">
        <ele>780.7</ele>
        <time>2020-11-28T11:55:52Z</time>
      </trkpt>
      <trkpt lat="48.60807" lon="7.25701">
        <ele>780.9</ele>
        <time>2020-11-28T11:55:54Z</time>
      </trkpt>
      <trkpt lat="48.608" lon="7.25701">
        <ele>780.3</ele>
        <time>2020-11-28T11:55:56Z</time>
      </trkpt>
      <trkpt lat="48.60791" lon="7.25701">
        <ele>780.2</ele>
        <time>2020-11-28T11:55:58Z</time>
      </trkpt>
      <trkpt lat="48.60783" lon="7.257">
        <ele>780.7</ele>
        <time>2020-11-28T11:56:00Z</time>
      </trkpt>
      <trkpt lat="48.60775" lon="7.25699">
        <ele>781.1</ele>
        <time>2020-11-28T11:56:02Z</time>
      </trkpt>
      <trkpt lat="48.60766" lon="7.25699">
        <ele>781.2</ele>
        <time>2020-11-28T11:56:04Z</time>
      </trkpt>
      <trkpt lat="48.60758" lon="7.25699">
        <ele>781.4</ele>
        <time>2020-11-28T11:56:06Z</time>
      </trkpt>
      <trkpt lat="48.6075" lon="7.25698">
        <ele>781.5</ele>
        <time>2020-11-28T11:56:08Z</time>
      </trkpt>
      <trkpt lat="48.60742" lon="7.25699">
        <ele>782</ele>
        <time>2020-11-28T11:56:10Z</time>
      </trkpt>
      <trkpt lat="48.6073" lon="7.25699">
        <ele>782.1</ele>
        <time>2020-11-28T11:56:13Z</time>
      </trkpt>
      <trkpt lat="48.60722" lon="7.25699">
        <ele>783.1</ele>
        <time>2020-11-28T11:56:15Z</time>
      </trkpt>
      <trkpt lat="48.60714" lon="7.25697">
        <ele>782.8</ele>
        <time>2020-11-28T11:56:17Z</time>
      </trkpt>
      <trkpt lat="48.60706" lon="7.25696">
        <ele>782.7</ele>
        <time>2020-11-28T11:56:19Z</time>
      </trkpt>
      <trkpt lat="48.60697" lon="7.25694">
        <ele>783.7</ele>
        <time>2020-11-28T11:56:21Z</time>
      </trkpt>
      <trkpt lat="48.60689" lon="7.25693">
        <ele>782.5</ele>
        <time>2020-11-28T11:56:23Z</time>
      </trkpt>
      <trkpt lat="48.6068" lon="7.25692">
        <ele>781.3</ele>
        <time>2020-11-28T11:56:25Z</time>
      </trkpt>
      <trkpt lat="48.60673" lon="7.2569">
        <ele>780.4</ele>
        <time>2020-11-28T11:56:27Z</time>
      </trkpt>
      <trkpt lat="48.60665" lon="7.25688">
        <ele>757.2</ele>
        <time>2020-11-28T11:56:29Z</time>
      </trkpt>
      <trkpt lat="48.60657" lon="7.25684">
        <ele>754.6</ele>
        <time>2020-11-28T11:56:31Z</time>
      </trkpt>
      <trkpt lat="48.60646" lon="7.25681">
        <ele>754.3</ele>
        <time>2020-11-28T11:56:33Z</time>
      </trkpt>
      <trkpt lat="48.60636" lon="7.25677">
        <ele>756.4</ele>
        <time>2020-11-28T11:56:35Z</time>
      </trkpt>
      <trkpt lat="48.60627" lon="7.25672">
        <ele>759.4</ele>
        <time>2020-11-28T11:56:37Z</time>
      </trkpt>
      <trkpt lat="48.60619" lon="7.25668">
        <ele>762</ele>
        <time>2020-11-28T11:56:39Z</time>
      </trkpt>
      <trkpt lat="48.60611" lon="7.25664">
        <ele>764.2</ele>
        <time>2020-11-28T11:56:41Z</time>
      </trkpt>
      <trkpt lat="48.60602" lon="7.2566">
        <ele>766.7</ele>
        <time>2020-11-28T11:56:43Z</time>
      </trkpt>
      <trkpt lat="48.60595" lon="7.25657">
        <ele>767.7</ele>
        <time>2020-11-28T11:56:45Z</time>
      </trkpt>
      <trkpt lat="48.60587" lon="7.25652">
        <ele>769</ele>
        <time>2020-11-28T11:56:47Z</time>
      </trkpt>
      <trkpt lat="48.6058" lon="7.25647">
        <ele>769.7</ele>
        <time>2020-11-28T11:56:49Z</time>
      </trkpt>
      <trkpt lat="48.60573" lon="7.25641">
        <ele>770.8</ele>
        <time>2020-11-28T11:56:51Z</time>
      </trkpt>
      <trkpt lat="48.60565" lon="7.25635">
        <ele>772</ele>
        <time>2020-11-28T11:56:53Z</time>
      </trkpt>
      <trkpt lat="48.60559" lon="7.25628">
        <ele>773.3</ele>
        <time>2020-11-28T11:56:55Z</time>
      </trkpt>
      <trkpt lat="48.60551" lon="7.25621">
        <ele>774.7</ele>
        <time>2020-11-28T11:56:57Z</time>
      </trkpt>
      <trkpt lat="48.60544" lon="7.25612">
        <ele>776.3</ele>
        <time>2020-11-28T11:56:59Z</time>
      </trkpt>
      <trkpt lat="48.60537" lon="7.25605">
        <ele>778</ele>
        <time>2020-11-28T11:57:01Z</time>
      </trkpt>
      <trkpt lat="48.60529" lon="7.25599">
        <ele>779.3</ele>
        <time>2020-11-28T11:57:03Z</time>
      </trkpt>
      <trkpt lat="48.60521" lon="7.25592">
        <ele>780.7</ele>
        <time>2020-11-28T11:57:05Z</time>
      </trkpt>
      <trkpt lat="48.60514" lon="7.25587">
        <ele>782.1</ele>
        <time>2020-11-28T11:57:07Z</time>
      </trkpt>
      <trkpt lat="48.60507" lon="7.25582">
        <ele>783.5</ele>
        <time>2020-11-28T11:57:09Z</time>
      </trkpt>
      <trkpt lat="48.605" lon="7.25577">
        <ele>753.8</ele>
        <time>2020-11-28T11:57:11Z</time>
      </trkpt>
      <trkpt lat="48.60493" lon="7.25572">
        <ele>755.2</ele>
        <time>2020-11-28T11:57:13Z</time>
      </trkpt>
      <trkpt lat="48.60486" lon="7.25567">
        <ele>751.7</ele>
        <time>2020-11-28T11:57:15Z</time>
      </trkpt>
      <trkpt lat="48.60479" lon="7.25561">
        <ele>757.3</ele>
        <time>2020-11-28T11:57:17Z</time>
      </trkpt>
      <trkpt lat="48.60472" lon="7.25556">
        <ele>761.6</ele>
        <time>2020-11-28T11:57:19Z</time>
      </trkpt>
      <trkpt lat="48.60464" lon="7.25549">
        <ele>766.5</ele>
        <time>2020-11-28T11:57:21Z</time>
      </trkpt>
      <trkpt lat="48.60456" lon="7.25542">
        <ele>771.2</ele>
        <time>2020-11-28T11:57:23Z</time>
      </trkpt>
      <trkpt lat="48.60448" lon="7.25536">
        <ele>774.8</ele>
        <time>2020-11-28T11:57:25Z</time>
      </trkpt>
      <trkpt lat="48.6044" lon="7.2553">
        <ele>777.4</ele>
        <time>2020-11-28T11:57:27Z</time>
      </trkpt>
      <trkpt lat="48.60432" lon="7.25525">
        <ele>779.9</ele>
        <time>2020-11-28T11:57:29Z</time>
      </trkpt>
      <trkpt lat="48.60424" lon="7.2552">
        <ele>781.6</ele>
        <time>2020-11-28T11:57:31Z</time>
      </trkpt>
      <trkpt lat="48.60416" lon="7.25515">
        <ele>782.7</ele>
        <time>2020-11-28T11:57:33Z</time>
      </trkpt>
      <trkpt lat="48.60409" lon="7.2551">
        <ele>783.6</ele>
        <time>2020-11-28T11:57:35Z</time>
      </trkpt>
      <trkpt lat="48.60401" lon="7.25505">
        <ele>784.8</ele>
        <time>2020-11-28T11:57:37Z</time>
      </trkpt>
      <trkpt lat="48.60393" lon="7.25501">
        <ele>786</ele>
        <time>2020-11-28T11:57:39Z</time>
      </trkpt>
      <trkpt lat="48.60385" lon="7.25496">
        <ele>787.3</ele>
        <time>2020-11-28T11:57:41Z</time>
      </trkpt>
      <trkpt lat="48.60377" lon="7.25492">
        <ele>788.2</ele>
        <time>2020-11-28T11:57:43Z</time>
      </trkpt>
      <trkpt lat="48.60365" lon="7.25487">
        <ele>789.5</ele>
        <time>2020-11-28T11:57:46Z</time>
      </trkpt>
      <trkpt lat="48.60357" lon="7.25483">
        <ele>789.5</ele>
        <time>2020-11-28T11:57:48Z</time>
      </trkpt>
      <trkpt lat="48.60349" lon="7.25481">
        <ele>790.2</ele>
        <time>2020-11-28T11:57:50Z</time>
      </trkpt>
      <trkpt lat="48.60336" lon="7.25479">
        <ele>790.7</ele>
        <time>2020-11-28T11:57:53Z</time>
      </trkpt>
      <trkpt lat="48.6033" lon="7.25479">
        <ele>791.3</ele>
        <time>2020-11-28T11:57:55Z</time>
      </trkpt>
      <trkpt lat="48.60325" lon="7.2548">
        <ele>792.6</ele>
        <time>2020-11-28T11:58:00Z</time>
      </trkpt>
      <trkpt lat="48.60321" lon="7.25474">
        <ele>795</ele>
        <time>2020-11-28T11:58:36Z</time>
      </trkpt>
      <trkpt lat="48.60322" lon="7.25467">
        <ele>795.3</ele>
        <time>2020-11-28T11:58:38Z</time>
      </trkpt>
      <trkpt lat="48.60324" lon="7.25457">
        <ele>795.8</ele>
        <time>2020-11-28T11:58:40Z</time>
      </trkpt>
      <trkpt lat="48.60326" lon="7.25446">
        <ele>795.9</ele>
        <time>2020-11-28T11:58:42Z</time>
      </trkpt>
      <trkpt lat="48.60326" lon="7.25433">
        <ele>796.1</ele>
        <time>2020-11-28T11:58:44Z</time>
      </trkpt>
      <trkpt lat="48.60326" lon="7.25421">
        <ele>795.8</ele>
        <time>2020-11-28T11:58:46Z</time>
      </trkpt>
      <trkpt lat="48.60326" lon="7.25406">
        <ele>795.9</ele>
        <time>2020-11-28T11:58:48Z</time>
      </trkpt>
      <trkpt lat="48.60325" lon="7.25393">
        <ele>795.4</ele>
        <time>2020-11-28T11:58:50Z</time>
      </trkpt>
      <trkpt lat="48.60325" lon="7.25381">
        <ele>794.2</ele>
        <time>2020-11-28T11:58:52Z</time>
      </trkpt>
      <trkpt lat="48.60325" lon="7.25368">
        <ele>793.7</ele>
        <time>2020-11-28T11:58:54Z</time>
      </trkpt>
      <trkpt lat="48.60325" lon="7.25356">
        <ele>793.1</ele>
        <time>2020-11-28T11:58:56Z</time>
      </trkpt>
      <trkpt lat="48.60324" lon="7.25344">
        <ele>792.5</ele>
        <time>2020-11-28T11:58:58Z</time>
      </trkpt>
      <trkpt lat="48.60325" lon="7.25332">
        <ele>792.6</ele>
        <time>2020-11-28T11:59:00Z</time>
      </trkpt>
      <trkpt lat="48.60326" lon="7.2532">
        <ele>792.8</ele>
        <time>2020-11-28T11:59:02Z</time>
      </trkpt>
      <trkpt lat="48.60326" lon="7.25307">
        <ele>792.4</ele>
        <time>2020-11-28T11:59:04Z</time>
      </trkpt>
      <trkpt lat="48.60325" lon="7.25294">
        <ele>792.6</ele>
        <time>2020-11-28T11:59:06Z</time>
      </trkpt>
      <trkpt lat="48.60325" lon="7.2528">
        <ele>792.4</ele>
        <time>2020-11-28T11:59:08Z</time>
      </trkpt>
      <trkpt lat="48.60327" lon="7.25267">
        <ele>792.7</ele>
        <time>2020-11-28T11:59:10Z</time>
      </trkpt>
      <trkpt lat="48.6033" lon="7.25254">
        <ele>791.9</ele>
        <time>2020-11-28T11:59:12Z</time>
      </trkpt>
      <trkpt lat="48.60333" lon="7.25242">
        <ele>791.4</ele>
        <time>2020-11-28T11:59:14Z</time>
      </trkpt>
      <trkpt lat="48.60334" lon="7.25229">
        <ele>791</ele>
        <time>2020-11-28T11:59:16Z</time>
      </trkpt>
      <trkpt lat="48.60333" lon="7.25214">
        <ele>791.6</ele>
        <time>2020-11-28T11:59:18Z</time>
      </trkpt>
      <trkpt lat="48.6033" lon="7.252">
        <ele>792</ele>
        <time>2020-11-28T11:59:20Z</time>
      </trkpt>
      <trkpt lat="48.60327" lon="7.25188">
        <ele>792.7</ele>
        <time>2020-11-28T11:59:22Z</time>
      </trkpt>
      <trkpt lat="48.60321" lon="7.25177">
        <ele>792.7</ele>
        <time>2020-11-28T11:59:24Z</time>
      </trkpt>
      <trkpt lat="48.60314" lon="7.25169">
        <ele>793.1</ele>
        <time>2020-11-28T11:59:26Z</time>
      </trkpt>
      <trkpt lat="48.60306" lon="7.25163">
        <ele>792.9</ele>
        <time>2020-11-28T11:59:28Z</time>
      </trkpt>
      <trkpt lat="48.60299" lon="7.25158">
        <ele>793.1</ele>
        <time>2020-11-28T11:59:30Z</time>
      </trkpt>
      <trkpt lat="48.60292" lon="7.25154">
        <ele>793.4</ele>
        <time>2020-11-28T11:59:32Z</time>
      </trkpt>
      <trkpt lat="48.60286" lon="7.2515">
        <ele>793.3</ele>
        <time>2020-11-28T11:59:34Z</time>
      </trkpt>
      <trkpt lat="48.60279" lon="7.25147">
        <ele>793.5</ele>
        <time>2020-11-28T11:59:36Z</time>
      </trkpt>
      <trkpt lat="48.60271" lon="7.25145">
        <ele>793.6</ele>
        <time>2020-11-28T11:59:38Z</time>
      </trkpt>
      <trkpt lat="48.60261" lon="7.2514">
        <ele>793.9</ele>
        <time>2020-11-28T11:59:41Z</time>
      </trkpt>
      <trkpt lat="48.60254" lon="7.25138">
        <ele>794.3</ele>
        <time>2020-11-28T11:59:43Z</time>
      </trkpt>
      <trkpt lat="48.60247" lon="7.25134">
        <ele>794.8</ele>
        <time>2020-11-28T11:59:45Z</time>
      </trkpt>
      <trkpt lat="48.6024" lon="7.25131">
        <ele>795.6</ele>
        <time>2020-11-28T11:59:47Z</time>
      </trkpt>
      <trkpt lat="48.60234" lon="7.25127">
        <ele>796.6</ele>
        <time>2020-11-28T11:59:49Z</time>
      </trkpt>
      <trkpt lat="48.60227" lon="7.25122">
        <ele>797.5</ele>
        <time>2020-11-28T11:59:51Z</time>
      </trkpt>
      <trkpt lat="48.60219" lon="7.25119">
        <ele>798.3</ele>
        <time>2020-11-28T11:59:53Z</time>
      </trkpt>
      <trkpt lat="48.60211" lon="7.25115">
        <ele>799.5</ele>
        <time>2020-11-28T11:59:55Z</time>
      </trkpt>
      <trkpt lat="48.60203" lon="7.25112">
        <ele>800</ele>
        <time>2020-11-28T11:59:57Z</time>
      </trkpt>
      <trkpt lat="48.60195" lon="7.25108">
        <ele>801.1</ele>
        <time>2020-11-28T11:59:59Z</time>
      </trkpt>
      <trkpt lat="48.60185" lon="7.25104">
        <ele>801.9</ele>
        <time>2020-11-28T12:00:01Z</time>
      </trkpt>
      <trkpt lat="48.60176" lon="7.25101">
        <ele>802.6</ele>
        <time>2020-11-28T12:00:03Z</time>
      </trkpt>
      <trkpt lat="48.60166" lon="7.25098">
        <ele>803.9</ele>
        <time>2020-11-28T12:00:05Z</time>
      </trkpt>
      <trkpt lat="48.60156" lon="7.25095">
        <ele>804.6</ele>
        <time>2020-11-28T12:00:07Z</time>
      </trkpt>
      <trkpt lat="48.60147" lon="7.25093">
        <ele>805.6</ele>
        <time>2020-11-28T12:00:09Z</time>
      </trkpt>
      <trkpt lat="48.60138" lon="7.2509">
        <ele>805.9</ele>
        <time>2020-11-28T12:00:11Z</time>
      </trkpt>
      <trkpt lat="48.60129" lon="7.25087">
        <ele>805.6</ele>
        <time>2020-11-28T12:00:13Z</time>
      </trkpt>
      <trkpt lat="48.6012" lon="7.25083">
        <ele>806.1</ele>
        <time>2020-11-28T12:00:15Z</time>
      </trkpt>
      <trkpt lat="48.60112" lon="7.2508">
        <ele>806.3</ele>
        <time>2020-11-28T12:00:17Z</time>
      </trkpt>
      <trkpt lat="48.60103" lon="7.25079">
        <ele>806.5</ele>
        <time>2020-11-28T12:00:19Z</time>
      </trkpt>
      <trkpt lat="48.60095" lon="7.25077">
        <ele>806.5</ele>
        <time>2020-11-28T12:00:21Z</time>
      </trkpt>
      <trkpt lat="48.60087" lon="7.25073">
        <ele>806.6</ele>
        <time>2020-11-28T12:00:23Z</time>
      </trkpt>
      <trkpt lat="48.60079" lon="7.25069">
        <ele>806.7</ele>
        <time>2020-11-28T12:00:25Z</time>
      </trkpt>
      <trkpt lat="48.6007" lon="7.25065">
        <ele>807.3</ele>
        <time>2020-11-28T12:00:27Z</time>
      </trkpt>
      <trkpt lat="48.60062" lon="7.25061">
        <ele>808.3</ele>
        <time>2020-11-28T12:00:29Z</time>
      </trkpt>
      <trkpt lat="48.60054" lon="7.25058">
        <ele>809.9</ele>
        <time>2020-11-28T12:00:31Z</time>
      </trkpt>
      <trkpt lat="48.60046" lon="7.25057">
        <ele>811.3</ele>
        <time>2020-11-28T12:00:33Z</time>
      </trkpt>
      <trkpt lat="48.60037" lon="7.25059">
        <ele>812.9</ele>
        <time>2020-11-28T12:00:35Z</time>
      </trkpt>
      <trkpt lat="48.60029" lon="7.25061">
        <ele>814.6</ele>
        <time>2020-11-28T12:00:37Z</time>
      </trkpt>
      <trkpt lat="48.60023" lon="7.25065">
        <ele>816</ele>
        <time>2020-11-28T12:00:39Z</time>
      </trkpt>
      <trkpt lat="48.60016" lon="7.2507">
        <ele>817.8</ele>
        <time>2020-11-28T12:00:41Z</time>
      </trkpt>
      <trkpt lat="48.60008" lon="7.25072">
        <ele>819.4</ele>
        <time>2020-11-28T12:00:43Z</time>
      </trkpt>
      <trkpt lat="48.6" lon="7.25075">
        <ele>820.7</ele>
        <time>2020-11-28T12:00:45Z</time>
      </trkpt>
      <trkpt lat="48.59989" lon="7.25081">
        <ele>821.9</ele>
        <time>2020-11-28T12:00:48Z</time>
      </trkpt>
      <trkpt lat="48.59982" lon="7.25084">
        <ele>823.6</ele>
        <time>2020-11-28T12:00:50Z</time>
      </trkpt>
      <trkpt lat="48.59974" lon="7.25087">
        <ele>823.7</ele>
        <time>2020-11-28T12:00:52Z</time>
      </trkpt>
      <trkpt lat="48.59966" lon="7.25091">
        <ele>824.5</ele>
        <time>2020-11-28T12:00:54Z</time>
      </trkpt>
      <trkpt lat="48.59958" lon="7.25096">
        <ele>824.9</ele>
        <time>2020-11-28T12:00:56Z</time>
      </trkpt>
      <trkpt lat="48.59949" lon="7.25099">
        <ele>825.2</ele>
        <time>2020-11-28T12:00:58Z</time>
      </trkpt>
      <trkpt lat="48.59941" lon="7.25104">
        <ele>825.2</ele>
        <time>2020-11-28T12:01:00Z</time>
      </trkpt>
      <trkpt lat="48.59934" lon="7.25108">
        <ele>825.4</ele>
        <time>2020-11-28T12:01:02Z</time>
      </trkpt>
      <trkpt lat="48.59922" lon="7.25113">
        <ele>820.1</ele>
        <time>2020-11-28T12:01:05Z</time>
      </trkpt>
      <trkpt lat="48.59914" lon="7.25114">
        <ele>819.3</ele>
        <time>2020-11-28T12:01:07Z</time>
      </trkpt>
      <trkpt lat="48.59905" lon="7.25117">
        <ele>819.3</ele>
        <time>2020-11-28T12:01:09Z</time>
      </trkpt>
      <trkpt lat="48.59898" lon="7.25119">
        <ele>820.3</ele>
        <time>2020-11-28T12:01:11Z</time>
      </trkpt>
      <trkpt lat="48.59892" lon="7.2512">
        <ele>822.2</ele>
        <time>2020-11-28T12:01:13Z</time>
      </trkpt>
      <trkpt lat="48.59886" lon="7.25124">
        <ele>823.9</ele>
        <time>2020-11-28T12:01:15Z</time>
      </trkpt>
      <trkpt lat="48.5988" lon="7.2513">
        <ele>825</ele>
        <time>2020-11-28T12:01:17Z</time>
      </trkpt>
      <trkpt lat="48.59873" lon="7.25136">
        <ele>825.7</ele>
        <time>2020-11-28T12:01:19Z</time>
      </trkpt>
      <trkpt lat="48.59866" lon="7.25144">
        <ele>826</ele>
        <time>2020-11-28T12:01:21Z</time>
      </trkpt>
      <trkpt lat="48.5986" lon="7.25153">
        <ele>826.3</ele>
        <time>2020-11-28T12:01:23Z</time>
      </trkpt>
      <trkpt lat="48.59854" lon="7.25162">
        <ele>826.7</ele>
        <time>2020-11-28T12:01:25Z</time>
      </trkpt>
      <trkpt lat="48.59849" lon="7.2517">
        <ele>826.8</ele>
        <time>2020-11-28T12:01:27Z</time>
      </trkpt>
      <trkpt lat="48.59843" lon="7.25178">
        <ele>827.1</ele>
        <time>2020-11-28T12:01:29Z</time>
      </trkpt>
      <trkpt lat="48.59837" lon="7.25185">
        <ele>826.9</ele>
        <time>2020-11-28T12:01:31Z</time>
      </trkpt>
      <trkpt lat="48.59826" lon="7.2519">
        <ele>827.5</ele>
        <time>2020-11-28T12:01:34Z</time>
      </trkpt>
      <trkpt lat="48.59818" lon="7.2519">
        <ele>827.7</ele>
        <time>2020-11-28T12:01:36Z</time>
      </trkpt>
      <trkpt lat="48.5981" lon="7.2519">
        <ele>828.2</ele>
        <time>2020-11-28T12:01:38Z</time>
      </trkpt>
      <trkpt lat="48.59803" lon="7.25189">
        <ele>827.7</ele>
        <time>2020-11-28T12:01:40Z</time>
      </trkpt>
      <trkpt lat="48.59795" lon="7.25187">
        <ele>828.2</ele>
        <time>2020-11-28T12:01:42Z</time>
      </trkpt>
      <trkpt lat="48.59787" lon="7.25184">
        <ele>827.9</ele>
        <time>2020-11-28T12:01:44Z</time>
      </trkpt>
      <trkpt lat="48.59779" lon="7.25182">
        <ele>828.1</ele>
        <time>2020-11-28T12:01:46Z</time>
      </trkpt>
      <trkpt lat="48.59771" lon="7.25181">
        <ele>827.8</ele>
        <time>2020-11-28T12:01:48Z</time>
      </trkpt>
      <trkpt lat="48.59763" lon="7.2518">
        <ele>827.2</ele>
        <time>2020-11-28T12:01:50Z</time>
      </trkpt>
      <trkpt lat="48.59754" lon="7.25179">
        <ele>827</ele>
        <time>2020-11-28T12:01:52Z</time>
      </trkpt>
      <trkpt lat="48.59746" lon="7.25177">
        <ele>826.6</ele>
        <time>2020-11-28T12:01:54Z</time>
      </trkpt>
      <trkpt lat="48.59738" lon="7.25174">
        <ele>826.3</ele>
        <time>2020-11-28T12:01:56Z</time>
      </trkpt>
      <trkpt lat="48.5973" lon="7.2517">
        <ele>825.6</ele>
        <time>2020-11-28T12:01:58Z</time>
      </trkpt>
      <trkpt lat="48.59723" lon="7.25162">
        <ele>825.6</ele>
        <time>2020-11-28T12:02:00Z</time>
      </trkpt>
      <trkpt lat="48.59719" lon="7.25152">
        <ele>825.7</ele>
        <time>2020-11-28T12:02:02Z</time>
      </trkpt>
      <trkpt lat="48.59717" lon="7.2514">
        <ele>825.5</ele>
        <time>2020-11-28T12:02:04Z</time>
      </trkpt>
      <trkpt lat="48.59716" lon="7.25128">
        <ele>825.6</ele>
        <time>2020-11-28T12:02:06Z</time>
      </trkpt>
      <trkpt lat="48.59713" lon="7.25117">
        <ele>825.7</ele>
        <time>2020-11-28T12:02:08Z</time>
      </trkpt>
      <trkpt lat="48.5971" lon="7.25105">
        <ele>825.5</ele>
        <time>2020-11-28T12:02:10Z</time>
      </trkpt>
      <trkpt lat="48.59706" lon="7.25089">
        <ele>826</ele>
        <time>2020-11-28T12:02:13Z</time>
      </trkpt>
      <trkpt lat="48.59703" lon="7.25078">
        <ele>826.3</ele>
        <time>2020-11-28T12:02:15Z</time>
      </trkpt>
      <trkpt lat="48.59699" lon="7.25067">
        <ele>826.9</ele>
        <time>2020-11-28T12:02:17Z</time>
      </trkpt>
      <trkpt lat="48.59696" lon="7.25057">
        <ele>827.6</ele>
        <time>2020-11-28T12:02:19Z</time>
      </trkpt>
      <trkpt lat="48.59693" lon="7.25046">
        <ele>828.5</ele>
        <time>2020-11-28T12:02:21Z</time>
      </trkpt>
      <trkpt lat="48.5969" lon="7.25036">
        <ele>828.7</ele>
        <time>2020-11-28T12:02:23Z</time>
      </trkpt>
      <trkpt lat="48.59685" lon="7.25026">
        <ele>828.8</ele>
        <time>2020-11-28T12:02:25Z</time>
      </trkpt>
      <trkpt lat="48.5968" lon="7.25019">
        <ele>829</ele>
        <time>2020-11-28T12:02:27Z</time>
      </trkpt>
      <trkpt lat="48.59675" lon="7.2501">
        <ele>829.8</ele>
        <time>2020-11-28T12:02:29Z</time>
      </trkpt>
      <trkpt lat="48.59669" lon="7.25002">
        <ele>830.7</ele>
        <time>2020-11-28T12:02:31Z</time>
      </trkpt>
      <trkpt lat="48.59664" lon="7.24993">
        <ele>830.9</ele>
        <time>2020-11-28T12:02:33Z</time>
      </trkpt>
      <trkpt lat="48.59659" lon="7.24985">
        <ele>830.9</ele>
        <time>2020-11-28T12:02:35Z</time>
      </trkpt>
      <trkpt lat="48.59656" lon="7.24973">
        <ele>831</ele>
        <time>2020-11-28T12:02:37Z</time>
      </trkpt>
      <trkpt lat="48.59653" lon="7.24962">
        <ele>830.4</ele>
        <time>2020-11-28T12:02:39Z</time>
      </trkpt>
      <trkpt lat="48.59649" lon="7.24952">
        <ele>830.3</ele>
        <time>2020-11-28T12:02:41Z</time>
      </trkpt>
      <trkpt lat="48.59645" lon="7.24941">
        <ele>829.8</ele>
        <time>2020-11-28T12:02:43Z</time>
      </trkpt>
      <trkpt lat="48.59642" lon="7.2493">
        <ele>830.1</ele>
        <time>2020-11-28T12:02:45Z</time>
      </trkpt>
      <trkpt lat="48.59639" lon="7.24921">
        <ele>828.8</ele>
        <time>2020-11-28T12:02:47Z</time>
      </trkpt>
      <trkpt lat="48.59636" lon="7.24912">
        <ele>828.1</ele>
        <time>2020-11-28T12:02:49Z</time>
      </trkpt>
      <trkpt lat="48.59633" lon="7.24903">
        <ele>827.1</ele>
        <time>2020-11-28T12:02:51Z</time>
      </trkpt>
      <trkpt lat="48.59628" lon="7.24892">
        <ele>826.7</ele>
        <time>2020-11-28T12:02:53Z</time>
      </trkpt>
      <trkpt lat="48.59623" lon="7.24882">
        <ele>826.6</ele>
        <time>2020-11-28T12:02:55Z</time>
      </trkpt>
      <trkpt lat="48.59618" lon="7.24872">
        <ele>827.2</ele>
        <time>2020-11-28T12:02:57Z</time>
      </trkpt>
      <trkpt lat="48.59613" lon="7.24861">
        <ele>827.4</ele>
        <time>2020-11-28T12:02:59Z</time>
      </trkpt>
      <trkpt lat="48.59608" lon="7.2485">
        <ele>828</ele>
        <time>2020-11-28T12:03:01Z</time>
      </trkpt>
      <trkpt lat="48.59602" lon="7.24837">
        <ele>829.6</ele>
        <time>2020-11-28T12:03:03Z</time>
      </trkpt>
      <trkpt lat="48.59596" lon="7.24823">
        <ele>831.3</ele>
        <time>2020-11-28T12:03:05Z</time>
      </trkpt>
      <trkpt lat="48.5959" lon="7.24807">
        <ele>834.1</ele>
        <time>2020-11-28T12:03:08Z</time>
      </trkpt>
      <trkpt lat="48.59584" lon="7.24797">
        <ele>835.3</ele>
        <time>2020-11-28T12:03:10Z</time>
      </trkpt>
      <trkpt lat="48.59579" lon="7.24787">
        <ele>836.4</ele>
        <time>2020-11-28T12:03:12Z</time>
      </trkpt>
      <trkpt lat="48.59573" lon="7.24777">
        <ele>837.3</ele>
        <time>2020-11-28T12:03:14Z</time>
      </trkpt>
      <trkpt lat="48.59568" lon="7.24768">
        <ele>838.5</ele>
        <time>2020-11-28T12:03:16Z</time>
      </trkpt>
      <trkpt lat="48.59564" lon="7.24759">
        <ele>839.3</ele>
        <time>2020-11-28T12:03:18Z</time>
      </trkpt>
      <trkpt lat="48.5956" lon="7.24749">
        <ele>840.2</ele>
        <time>2020-11-28T12:03:20Z</time>
      </trkpt>
      <trkpt lat="48.59554" lon="7.24737">
        <ele>841.6</ele>
        <time>2020-11-28T12:03:23Z</time>
      </trkpt>
      <trkpt lat="48.59552" lon="7.24727">
        <ele>842.3</ele>
        <time>2020-11-28T12:03:25Z</time>
      </trkpt>
      <trkpt lat="48.5955" lon="7.24717">
        <ele>843.3</ele>
        <time>2020-11-28T12:03:27Z</time>
      </trkpt>
      <trkpt lat="48.59545" lon="7.24707">
        <ele>843.8</ele>
        <time>2020-11-28T12:03:29Z</time>
      </trkpt>
      <trkpt lat="48.59539" lon="7.24698">
        <ele>844</ele>
        <time>2020-11-28T12:03:31Z</time>
      </trkpt>
      <trkpt lat="48.59533" lon="7.2469">
        <ele>842.7</ele>
        <time>2020-11-28T12:03:33Z</time>
      </trkpt>
      <trkpt lat="48.59527" lon="7.24682">
        <ele>842</ele>
        <time>2020-11-28T12:03:35Z</time>
      </trkpt>
      <trkpt lat="48.59521" lon="7.24675">
        <ele>841.9</ele>
        <time>2020-11-28T12:03:37Z</time>
      </trkpt>
      <trkpt lat="48.59516" lon="7.24666">
        <ele>843.1</ele>
        <time>2020-11-28T12:03:39Z</time>
      </trkpt>
      <trkpt lat="48.5951" lon="7.24658">
        <ele>843.3</ele>
        <time>2020-11-28T12:03:41Z</time>
      </trkpt>
      <trkpt lat="48.59504" lon="7.2465">
        <ele>844.3</ele>
        <time>2020-11-28T12:03:43Z</time>
      </trkpt>
      <trkpt lat="48.59499" lon="7.24642">
        <ele>845.2</ele>
        <time>2020-11-28T12:03:45Z</time>
      </trkpt>
      <trkpt lat="48.59494" lon="7.24635">
        <ele>846.3</ele>
        <time>2020-11-28T12:03:47Z</time>
      </trkpt>
      <trkpt lat="48.59489" lon="7.24627">
        <ele>846.9</ele>
        <time>2020-11-28T12:03:49Z</time>
      </trkpt>
      <trkpt lat="48.59482" lon="7.2462">
        <ele>847.5</ele>
        <time>2020-11-28T12:03:51Z</time>
      </trkpt>
      <trkpt lat="48.59476" lon="7.24614">
        <ele>847.2</ele>
        <time>2020-11-28T12:03:53Z</time>
      </trkpt>
      <trkpt lat="48.59468" lon="7.24607">
        <ele>847.4</ele>
        <time>2020-11-28T12:03:55Z</time>
      </trkpt>
      <trkpt lat="48.59461" lon="7.24602">
        <ele>847.4</ele>
        <time>2020-11-28T12:03:57Z</time>
      </trkpt>
      <trkpt lat="48.59453" lon="7.24597">
        <ele>847.6</ele>
        <time>2020-11-28T12:03:59Z</time>
      </trkpt>
      <trkpt lat="48.59446" lon="7.24592">
        <ele>847.8</ele>
        <time>2020-11-28T12:04:01Z</time>
      </trkpt>
      <trkpt lat="48.59439" lon="7.24587">
        <ele>848</ele>
        <time>2020-11-28T12:04:03Z</time>
      </trkpt>
      <trkpt lat="48.59431" lon="7.24582">
        <ele>848</ele>
        <time>2020-11-28T12:04:05Z</time>
      </trkpt>
      <trkpt lat="48.59424" lon="7.24577">
        <ele>848</ele>
        <time>2020-11-28T12:04:07Z</time>
      </trkpt>
      <trkpt lat="48.59417" lon="7.24573">
        <ele>848.2</ele>
        <time>2020-11-28T12:04:09Z</time>
      </trkpt>
      <trkpt lat="48.5941" lon="7.24569">
        <ele>848.4</ele>
        <time>2020-11-28T12:04:11Z</time>
      </trkpt>
      <trkpt lat="48.59403" lon="7.24565">
        <ele>848.4</ele>
        <time>2020-11-28T12:04:13Z</time>
      </trkpt>
      <trkpt lat="48.59396" lon="7.24561">
        <ele>848.4</ele>
        <time>2020-11-28T12:04:15Z</time>
      </trkpt>
      <trkpt lat="48.5939" lon="7.24556">
        <ele>848.8</ele>
        <time>2020-11-28T12:04:17Z</time>
      </trkpt>
      <trkpt lat="48.59383" lon="7.24551">
        <ele>848.8</ele>
        <time>2020-11-28T12:04:19Z</time>
      </trkpt>
      <trkpt lat="48.59377" lon="7.24546">
        <ele>849.2</ele>
        <time>2020-11-28T12:04:21Z</time>
      </trkpt>
      <trkpt lat="48.5937" lon="7.24542">
        <ele>849.5</ele>
        <time>2020-11-28T12:04:23Z</time>
      </trkpt>
      <trkpt lat="48.59363" lon="7.24538">
        <ele>849.8</ele>
        <time>2020-11-28T12:04:25Z</time>
      </trkpt>
      <trkpt lat="48.59356" lon="7.24534">
        <ele>849.9</ele>
        <time>2020-11-28T12:04:27Z</time>
      </trkpt>
      <trkpt lat="48.59349" lon="7.24531">
        <ele>850.4</ele>
        <time>2020-11-28T12:04:29Z</time>
      </trkpt>
      <trkpt lat="48.59342" lon="7.24527">
        <ele>851</ele>
        <time>2020-11-28T12:04:31Z</time>
      </trkpt>
      <trkpt lat="48.59335" lon="7.24524">
        <ele>851.3</ele>
        <time>2020-11-28T12:04:33Z</time>
      </trkpt>
      <trkpt lat="48.59328" lon="7.24521">
        <ele>851.7</ele>
        <time>2020-11-28T12:04:35Z</time>
      </trkpt>
      <trkpt lat="48.59321" lon="7.24518">
        <ele>852.1</ele>
        <time>2020-11-28T12:04:37Z</time>
      </trkpt>
      <trkpt lat="48.59314" lon="7.24515">
        <ele>852.6</ele>
        <time>2020-11-28T12:04:39Z</time>
      </trkpt>
      <trkpt lat="48.59307" lon="7.24512">
        <ele>853.2</ele>
        <time>2020-11-28T12:04:41Z</time>
      </trkpt>
      <trkpt lat="48.593" lon="7.2451">
        <ele>853.5</ele>
        <time>2020-11-28T12:04:43Z</time>
      </trkpt>
      <trkpt lat="48.59294" lon="7.24507">
        <ele>854</ele>
        <time>2020-11-28T12:04:45Z</time>
      </trkpt>
      <trkpt lat="48.59287" lon="7.24503">
        <ele>854.8</ele>
        <time>2020-11-28T12:04:47Z</time>
      </trkpt>
      <trkpt lat="48.5928" lon="7.245">
        <ele>855.6</ele>
        <time>2020-11-28T12:04:49Z</time>
      </trkpt>
      <trkpt lat="48.59273" lon="7.24497">
        <ele>856.5</ele>
        <time>2020-11-28T12:04:51Z</time>
      </trkpt>
      <trkpt lat="48.59266" lon="7.24495">
        <ele>857.7</ele>
        <time>2020-11-28T12:04:53Z</time>
      </trkpt>
      <trkpt lat="48.59259" lon="7.24492">
        <ele>858.2</ele>
        <time>2020-11-28T12:04:55Z</time>
      </trkpt>
      <trkpt lat="48.59252" lon="7.2449">
        <ele>858.7</ele>
        <time>2020-11-28T12:04:57Z</time>
      </trkpt>
      <trkpt lat="48.59242" lon="7.24489">
        <ele>859.3</ele>
        <time>2020-11-28T12:05:00Z</time>
      </trkpt>
      <trkpt lat="48.59235" lon="7.24489">
        <ele>859.8</ele>
        <time>2020-11-28T12:05:02Z</time>
      </trkpt>
      <trkpt lat="48.59227" lon="7.24489">
        <ele>860.7</ele>
        <time>2020-11-28T12:05:04Z</time>
      </trkpt>
      <trkpt lat="48.59219" lon="7.24488">
        <ele>861.6</ele>
        <time>2020-11-28T12:05:06Z</time>
      </trkpt>
      <trkpt lat="48.59211" lon="7.24487">
        <ele>861.9</ele>
        <time>2020-11-28T12:05:08Z</time>
      </trkpt>
      <trkpt lat="48.59204" lon="7.24486">
        <ele>862.4</ele>
        <time>2020-11-28T12:05:10Z</time>
      </trkpt>
      <trkpt lat="48.59197" lon="7.24486">
        <ele>863.3</ele>
        <time>2020-11-28T12:05:12Z</time>
      </trkpt>
      <trkpt lat="48.5919" lon="7.24487">
        <ele>863.9</ele>
        <time>2020-11-28T12:05:14Z</time>
      </trkpt>
      <trkpt lat="48.59182" lon="7.2449">
        <ele>864.8</ele>
        <time>2020-11-28T12:05:16Z</time>
      </trkpt>
      <trkpt lat="48.59176" lon="7.24493">
        <ele>865.5</ele>
        <time>2020-11-28T12:05:18Z</time>
      </trkpt>
      <trkpt lat="48.59169" lon="7.245">
        <ele>865.9</ele>
        <time>2020-11-28T12:05:22Z</time>
      </trkpt>
      <trkpt lat="48.59163" lon="7.24516">
        <ele>867</ele>
        <time>2020-11-28T12:05:24Z</time>
      </trkpt>
      <trkpt lat="48.59162" lon="7.24525">
        <ele>867</ele>
        <time>2020-11-28T12:05:26Z</time>
      </trkpt>
      <trkpt lat="48.59162" lon="7.24534">
        <ele>866.7</ele>
        <time>2020-11-28T12:05:28Z</time>
      </trkpt>
      <trkpt lat="48.59163" lon="7.24543">
        <ele>866.5</ele>
        <time>2020-11-28T12:05:30Z</time>
      </trkpt>
      <trkpt lat="48.59165" lon="7.24551">
        <ele>866.5</ele>
        <time>2020-11-28T12:05:32Z</time>
      </trkpt>
      <trkpt lat="48.59166" lon="7.24559">
        <ele>866.6</ele>
        <time>2020-11-28T12:05:34Z</time>
      </trkpt>
      <trkpt lat="48.59166" lon="7.24568">
        <ele>866.8</ele>
        <time>2020-11-28T12:05:36Z</time>
      </trkpt>
      <trkpt lat="48.59165" lon="7.24577">
        <ele>866.9</ele>
        <time>2020-11-28T12:05:38Z</time>
      </trkpt>
      <trkpt lat="48.59165" lon="7.24585">
        <ele>867.3</ele>
        <time>2020-11-28T12:05:40Z</time>
      </trkpt>
      <trkpt lat="48.59167" lon="7.24593">
        <ele>867.6</ele>
        <time>2020-11-28T12:05:42Z</time>
      </trkpt>
      <trkpt lat="48.59169" lon="7.24602">
        <ele>867.7</ele>
        <time>2020-11-28T12:05:44Z</time>
      </trkpt>
      <trkpt lat="48.5917" lon="7.2461">
        <ele>867.4</ele>
        <time>2020-11-28T12:05:46Z</time>
      </trkpt>
      <trkpt lat="48.59171" lon="7.24619">
        <ele>867.7</ele>
        <time>2020-11-28T12:05:48Z</time>
      </trkpt>
      <trkpt lat="48.59174" lon="7.24628">
        <ele>867.9</ele>
        <time>2020-11-28T12:05:50Z</time>
      </trkpt>
      <trkpt lat="48.59176" lon="7.24636">
        <ele>868.2</ele>
        <time>2020-11-28T12:05:52Z</time>
      </trkpt>
      <trkpt lat="48.59179" lon="7.24644">
        <ele>868.6</ele>
        <time>2020-11-28T12:05:54Z</time>
      </trkpt>
      <trkpt lat="48.59182" lon="7.24652">
        <ele>869.1</ele>
        <time>2020-11-28T12:05:56Z</time>
      </trkpt>
      <trkpt lat="48.59185" lon="7.24661">
        <ele>869.4</ele>
        <time>2020-11-28T12:05:58Z</time>
      </trkpt>
      <trkpt lat="48.59188" lon="7.24669">
        <ele>869.7</ele>
        <time>2020-11-28T12:06:00Z</time>
      </trkpt>
      <trkpt lat="48.5919" lon="7.24678">
        <ele>870.2</ele>
        <time>2020-11-28T12:06:02Z</time>
      </trkpt>
      <trkpt lat="48.59193" lon="7.24687">
        <ele>870.9</ele>
        <time>2020-11-28T12:06:04Z</time>
      </trkpt>
      <trkpt lat="48.59196" lon="7.24697">
        <ele>871.5</ele>
        <time>2020-11-28T12:06:06Z</time>
      </trkpt>
      <trkpt lat="48.59199" lon="7.24706">
        <ele>871.9</ele>
        <time>2020-11-28T12:06:08Z</time>
      </trkpt>
      <trkpt lat="48.59202" lon="7.24715">
        <ele>872.1</ele>
        <time>2020-11-28T12:06:10Z</time>
      </trkpt>
      <trkpt lat="48.59206" lon="7.24723">
        <ele>872.2</ele>
        <time>2020-11-28T12:06:12Z</time>
      </trkpt>
      <trkpt lat="48.5921" lon="7.24732">
        <ele>872.1</ele>
        <time>2020-11-28T12:06:14Z</time>
      </trkpt>
      <trkpt lat="48.59214" lon="7.2474">
        <ele>872</ele>
        <time>2020-11-28T12:06:16Z</time>
      </trkpt>
      <trkpt lat="48.59218" lon="7.24748">
        <ele>872.1</ele>
        <time>2020-11-28T12:06:18Z</time>
      </trkpt>
      <trkpt lat="48.59222" lon="7.24756">
        <ele>872.1</ele>
        <time>2020-11-28T12:06:20Z</time>
      </trkpt>
      <trkpt lat="48.59227" lon="7.24764">
        <ele>872.2</ele>
        <time>2020-11-28T12:06:22Z</time>
      </trkpt>
      <trkpt lat="48.59231" lon="7.24771">
        <ele>872.2</ele>
        <time>2020-11-28T12:06:24Z</time>
      </trkpt>
      <trkpt lat="48.59235" lon="7.24779">
        <ele>872.2</ele>
        <time>2020-11-28T12:06:26Z</time>
      </trkpt>
      <trkpt lat="48.59239" lon="7.24787">
        <ele>872.4</ele>
        <time>2020-11-28T12:06:28Z</time>
      </trkpt>
      <trkpt lat="48.59243" lon="7.24795">
        <ele>872.2</ele>
        <time>2020-11-28T12:06:30Z</time>
      </trkpt>
      <trkpt lat="48.59249" lon="7.24806">
        <ele>872</ele>
        <time>2020-11-28T12:06:33Z</time>
      </trkpt>
      <trkpt lat="48.59253" lon="7.24813">
        <ele>871.8</ele>
        <time>2020-11-28T12:06:35Z</time>
      </trkpt>
      <trkpt lat="48.59257" lon="7.24821">
        <ele>871.8</ele>
        <time>2020-11-28T12:06:37Z</time>
      </trkpt>
      <trkpt lat="48.59262" lon="7.24829">
        <ele>871.7</ele>
        <time>2020-11-28T12:06:39Z</time>
      </trkpt>
      <trkpt lat="48.59266" lon="7.24838">
        <ele>871.7</ele>
        <time>2020-11-28T12:06:41Z</time>
      </trkpt>
      <trkpt lat="48.59271" lon="7.24847">
        <ele>871.8</ele>
        <time>2020-11-28T12:06:43Z</time>
      </trkpt>
      <trkpt lat="48.59275" lon="7.24856">
        <ele>872.1</ele>
        <time>2020-11-28T12:06:45Z</time>
      </trkpt>
      <trkpt lat="48.59279" lon="7.24865">
        <ele>872.2</ele>
        <time>2020-11-28T12:06:47Z</time>
      </trkpt>
      <trkpt lat="48.59282" lon="7.24875">
        <ele>872.8</ele>
        <time>2020-11-28T12:06:49Z</time>
      </trkpt>
      <trkpt lat="48.59283" lon="7.24887">
        <ele>873</ele>
        <time>2020-11-28T12:06:51Z</time>
      </trkpt>
      <trkpt lat="48.59281" lon="7.24897">
        <ele>873.7</ele>
        <time>2020-11-28T12:06:53Z</time>
      </trkpt>
      <trkpt lat="48.59278" lon="7.24908">
        <ele>873.7</ele>
        <time>2020-11-28T12:06:55Z</time>
      </trkpt>
      <trkpt lat="48.59274" lon="7.24919">
        <ele>874</ele>
        <time>2020-11-28T12:06:57Z</time>
      </trkpt>
      <trkpt lat="48.5927" lon="7.24929">
        <ele>873.7</ele>
        <time>2020-11-28T12:06:59Z</time>
      </trkpt>
      <trkpt lat="48.59266" lon="7.24939">
        <ele>873.7</ele>
        <time>2020-11-28T12:07:01Z</time>
      </trkpt>
      <trkpt lat="48.59261" lon="7.24948">
        <ele>873.9</ele>
        <time>2020-11-28T12:07:03Z</time>
      </trkpt>
      <trkpt lat="48.59256" lon="7.24957">
        <ele>874</ele>
        <time>2020-11-28T12:07:05Z</time>
      </trkpt>
      <trkpt lat="48.59251" lon="7.24965">
        <ele>874.4</ele>
        <time>2020-11-28T12:07:07Z</time>
      </trkpt>
      <trkpt lat="48.59246" lon="7.24974">
        <ele>874.2</ele>
        <time>2020-11-28T12:07:09Z</time>
      </trkpt>
      <trkpt lat="48.5924" lon="7.24982">
        <ele>874.4</ele>
        <time>2020-11-28T12:07:11Z</time>
      </trkpt>
      <trkpt lat="48.59235" lon="7.2499">
        <ele>874.8</ele>
        <time>2020-11-28T12:07:13Z</time>
      </trkpt>
      <trkpt lat="48.59226" lon="7.24998">
        <ele>875.3</ele>
        <time>2020-11-28T12:07:16Z</time>
      </trkpt>
      <trkpt lat="48.59217" lon="7.25006">
        <ele>875.3</ele>
        <time>2020-11-28T12:07:19Z</time>
      </trkpt>
      <trkpt lat="48.59214" lon="7.2501">
        <ele>875.4</ele>
        <time>2020-11-28T12:07:23Z</time>
      </trkpt>
      <trkpt lat="48.59209" lon="7.25016">
        <ele>877.6</ele>
        <time>2020-11-28T12:07:44Z</time>
      </trkpt>
      <trkpt lat="48.59205" lon="7.25017">
        <ele>877.4</ele>
        <time>2020-11-28T12:07:46Z</time>
      </trkpt>
      <trkpt lat="48.59196" lon="7.25018">
        <ele>876.4</ele>
        <time>2020-11-28T12:07:49Z</time>
      </trkpt>
      <trkpt lat="48.5919" lon="7.25019">
        <ele>876</ele>
        <time>2020-11-28T12:07:51Z</time>
      </trkpt>
      <trkpt lat="48.59183" lon="7.25017">
        <ele>875.8</ele>
        <time>2020-11-28T12:07:53Z</time>
      </trkpt>
      <trkpt lat="48.59174" lon="7.25014">
        <ele>875.8</ele>
        <time>2020-11-28T12:07:55Z</time>
      </trkpt>
      <trkpt lat="48.59166" lon="7.25008">
        <ele>875.6</ele>
        <time>2020-11-28T12:07:57Z</time>
      </trkpt>
      <trkpt lat="48.59157" lon="7.24999">
        <ele>875.3</ele>
        <time>2020-11-28T12:07:59Z</time>
      </trkpt>
      <trkpt lat="48.59149" lon="7.24989">
        <ele>874.9</ele>
        <time>2020-11-28T12:08:01Z</time>
      </trkpt>
      <trkpt lat="48.59139" lon="7.24978">
        <ele>874.5</ele>
        <time>2020-11-28T12:08:03Z</time>
      </trkpt>
      <trkpt lat="48.59128" lon="7.24969">
        <ele>874.1</ele>
        <time>2020-11-28T12:08:05Z</time>
      </trkpt>
      <trkpt lat="48.59117" lon="7.24959">
        <ele>873.9</ele>
        <time>2020-11-28T12:08:07Z</time>
      </trkpt>
      <trkpt lat="48.59106" lon="7.2495">
        <ele>873.5</ele>
        <time>2020-11-28T12:08:09Z</time>
      </trkpt>
      <trkpt lat="48.59095" lon="7.24939">
        <ele>873</ele>
        <time>2020-11-28T12:08:11Z</time>
      </trkpt>
      <trkpt lat="48.59085" lon="7.24928">
        <ele>873</ele>
        <time>2020-11-28T12:08:13Z</time>
      </trkpt>
      <trkpt lat="48.59072" lon="7.24918">
        <ele>873.2</ele>
        <time>2020-11-28T12:08:15Z</time>
      </trkpt>
      <trkpt lat="48.5906" lon="7.24909">
        <ele>873.2</ele>
        <time>2020-11-28T12:08:17Z</time>
      </trkpt>
      <trkpt lat="48.59047" lon="7.24901">
        <ele>872.9</ele>
        <time>2020-11-28T12:08:19Z</time>
      </trkpt>
      <trkpt lat="48.59035" lon="7.24895">
        <ele>872.6</ele>
        <time>2020-11-28T12:08:21Z</time>
      </trkpt>
      <trkpt lat="48.59021" lon="7.24892">
        <ele>872</ele>
        <time>2020-11-28T12:08:23Z</time>
      </trkpt>
      <trkpt lat="48.59007" lon="7.24889">
        <ele>872</ele>
        <time>2020-11-28T12:08:25Z</time>
      </trkpt>
      <trkpt lat="48.58993" lon="7.24889">
        <ele>871.7</ele>
        <time>2020-11-28T12:08:27Z</time>
      </trkpt>
      <trkpt lat="48.5898" lon="7.2489">
        <ele>871.4</ele>
        <time>2020-11-28T12:08:29Z</time>
      </trkpt>
      <trkpt lat="48.58967" lon="7.24895">
        <ele>870.9</ele>
        <time>2020-11-28T12:08:31Z</time>
      </trkpt>
      <trkpt lat="48.58955" lon="7.24904">
        <ele>870.1</ele>
        <time>2020-11-28T12:08:33Z</time>
      </trkpt>
      <trkpt lat="48.58947" lon="7.24919">
        <ele>870.1</ele>
        <time>2020-11-28T12:08:35Z</time>
      </trkpt>
      <trkpt lat="48.58938" lon="7.24936">
        <ele>869.8</ele>
        <time>2020-11-28T12:08:37Z</time>
      </trkpt>
      <trkpt lat="48.58931" lon="7.24955">
        <ele>868.8</ele>
        <time>2020-11-28T12:08:39Z</time>
      </trkpt>
      <trkpt lat="48.58924" lon="7.24975">
        <ele>868</ele>
        <time>2020-11-28T12:08:41Z</time>
      </trkpt>
      <trkpt lat="48.58921" lon="7.24995">
        <ele>867.9</ele>
        <time>2020-11-28T12:08:43Z</time>
      </trkpt>
      <trkpt lat="48.58917" lon="7.25016">
        <ele>867.6</ele>
        <time>2020-11-28T12:08:45Z</time>
      </trkpt>
      <trkpt lat="48.58914" lon="7.25039">
        <ele>867.7</ele>
        <time>2020-11-28T12:08:47Z</time>
      </trkpt>
      <trkpt lat="48.5891" lon="7.25061">
        <ele>867</ele>
        <time>2020-11-28T12:08:49Z</time>
      </trkpt>
      <trkpt lat="48.58904" lon="7.25082">
        <ele>856.3</ele>
        <time>2020-11-28T12:08:51Z</time>
      </trkpt>
      <trkpt lat="48.58894" lon="7.25098">
        <ele>854.7</ele>
        <time>2020-11-28T12:08:53Z</time>
      </trkpt>
      <trkpt lat="48.58883" lon="7.25109">
        <ele>854.6</ele>
        <time>2020-11-28T12:08:55Z</time>
      </trkpt>
      <trkpt lat="48.58869" lon="7.25114">
        <ele>856.3</ele>
        <time>2020-11-28T12:08:57Z</time>
      </trkpt>
      <trkpt lat="48.58854" lon="7.25119">
        <ele>857.5</ele>
        <time>2020-11-28T12:08:59Z</time>
      </trkpt>
      <trkpt lat="48.58839" lon="7.25122">
        <ele>858.8</ele>
        <time>2020-11-28T12:09:01Z</time>
      </trkpt>
      <trkpt lat="48.58823" lon="7.25124">
        <ele>859.8</ele>
        <time>2020-11-28T12:09:03Z</time>
      </trkpt>
      <trkpt lat="48.58807" lon="7.25123">
        <ele>860.5</ele>
        <time>2020-11-28T12:09:05Z</time>
      </trkpt>
      <trkpt lat="48.58791" lon="7.25119">
        <ele>860.7</ele>
        <time>2020-11-28T12:09:07Z</time>
      </trkpt>
      <trkpt lat="48.58775" lon="7.25112">
        <ele>860.4</ele>
        <time>2020-11-28T12:09:09Z</time>
      </trkpt>
      <trkpt lat="48.5876" lon="7.25104">
        <ele>860.4</ele>
        <time>2020-11-28T12:09:11Z</time>
      </trkpt>
      <trkpt lat="48.58745" lon="7.25095">
        <ele>859.7</ele>
        <time>2020-11-28T12:09:13Z</time>
      </trkpt>
      <trkpt lat="48.5873" lon="7.25086">
        <ele>859.4</ele>
        <time>2020-11-28T12:09:15Z</time>
      </trkpt>
      <trkpt lat="48.58714" lon="7.25078">
        <ele>858.5</ele>
        <time>2020-11-28T12:09:17Z</time>
      </trkpt>
      <trkpt lat="48.58698" lon="7.25072">
        <ele>858.3</ele>
        <time>2020-11-28T12:09:19Z</time>
      </trkpt>
      <trkpt lat="48.5868" lon="7.25064">
        <ele>857.7</ele>
        <time>2020-11-28T12:09:21Z</time>
      </trkpt>
      <trkpt lat="48.58665" lon="7.25053">
        <ele>856.8</ele>
        <time>2020-11-28T12:09:23Z</time>
      </trkpt>
      <trkpt lat="48.5865" lon="7.25042">
        <ele>855.6</ele>
        <time>2020-11-28T12:09:25Z</time>
      </trkpt>
      <trkpt lat="48.58635" lon="7.25029">
        <ele>855.1</ele>
        <time>2020-11-28T12:09:27Z</time>
      </trkpt>
      <trkpt lat="48.58622" lon="7.25016">
        <ele>854.6</ele>
        <time>2020-11-28T12:09:29Z</time>
      </trkpt>
      <trkpt lat="48.5861" lon="7.25003">
        <ele>854.3</ele>
        <time>2020-11-28T12:09:31Z</time>
      </trkpt>
      <trkpt lat="48.58597" lon="7.24991">
        <ele>854.1</ele>
        <time>2020-11-28T12:09:33Z</time>
      </trkpt>
      <trkpt lat="48.58585" lon="7.24977">
        <ele>853.9</ele>
        <time>2020-11-28T12:09:35Z</time>
      </trkpt>
      <trkpt lat="48.58574" lon="7.24961">
        <ele>853.8</ele>
        <time>2020-11-28T12:09:37Z</time>
      </trkpt>
      <trkpt lat="48.58564" lon="7.24941">
        <ele>853.6</ele>
        <time>2020-11-28T12:09:39Z</time>
      </trkpt>
      <trkpt lat="48.58558" lon="7.2492">
        <ele>853.1</ele>
        <time>2020-11-28T12:09:41Z</time>
      </trkpt>
      <trkpt lat="48.58552" lon="7.24897">
        <ele>853.1</ele>
        <time>2020-11-28T12:09:43Z</time>
      </trkpt>
      <trkpt lat="48.58547" lon="7.24872">
        <ele>852.7</ele>
        <time>2020-11-28T12:09:45Z</time>
      </trkpt>
      <trkpt lat="48.58543" lon="7.24848">
        <ele>852.3</ele>
        <time>2020-11-28T12:09:47Z</time>
      </trkpt>
      <trkpt lat="48.58538" lon="7.24823">
        <ele>851.9</ele>
        <time>2020-11-28T12:09:49Z</time>
      </trkpt>
      <trkpt lat="48.58532" lon="7.248">
        <ele>851.4</ele>
        <time>2020-11-28T12:09:51Z</time>
      </trkpt>
      <trkpt lat="48.58526" lon="7.24777">
        <ele>851</ele>
        <time>2020-11-28T12:09:53Z</time>
      </trkpt>
      <trkpt lat="48.58518" lon="7.24754">
        <ele>850.7</ele>
        <time>2020-11-28T12:09:55Z</time>
      </trkpt>
      <trkpt lat="48.58509" lon="7.24733">
        <ele>850.2</ele>
        <time>2020-11-28T12:09:57Z</time>
      </trkpt>
      <trkpt lat="48.58499" lon="7.24712">
        <ele>849.8</ele>
        <time>2020-11-28T12:09:59Z</time>
      </trkpt>
      <trkpt lat="48.58488" lon="7.24693">
        <ele>848.9</ele>
        <time>2020-11-28T12:10:01Z</time>
      </trkpt>
      <trkpt lat="48.58477" lon="7.24674">
        <ele>848.5</ele>
        <time>2020-11-28T12:10:03Z</time>
      </trkpt>
      <trkpt lat="48.58465" lon="7.24656">
        <ele>848.6</ele>
        <time>2020-11-28T12:10:05Z</time>
      </trkpt>
      <trkpt lat="48.58453" lon="7.24639">
        <ele>848.5</ele>
        <time>2020-11-28T12:10:07Z</time>
      </trkpt>
      <trkpt lat="48.5844" lon="7.24624">
        <ele>848.4</ele>
        <time>2020-11-28T12:10:09Z</time>
      </trkpt>
      <trkpt lat="48.58428" lon="7.24611">
        <ele>848</ele>
        <time>2020-11-28T12:10:11Z</time>
      </trkpt>
      <trkpt lat="48.58414" lon="7.24599">
        <ele>847.3</ele>
        <time>2020-11-28T12:10:13Z</time>
      </trkpt>
      <trkpt lat="48.584" lon="7.2459">
        <ele>846.6</ele>
        <time>2020-11-28T12:10:15Z</time>
      </trkpt>
      <trkpt lat="48.58385" lon="7.24582">
        <ele>845.4</ele>
        <time>2020-11-28T12:10:17Z</time>
      </trkpt>
      <trkpt lat="48.58371" lon="7.24576">
        <ele>844.5</ele>
        <time>2020-11-28T12:10:19Z</time>
      </trkpt>
      <trkpt lat="48.58356" lon="7.24571">
        <ele>844.8</ele>
        <time>2020-11-28T12:10:21Z</time>
      </trkpt>
      <trkpt lat="48.58342" lon="7.24567">
        <ele>844.6</ele>
        <time>2020-11-28T12:10:23Z</time>
      </trkpt>
      <trkpt lat="48.58327" lon="7.24559">
        <ele>843.9</ele>
        <time>2020-11-28T12:10:25Z</time>
      </trkpt>
      <trkpt lat="48.58314" lon="7.2455">
        <ele>843.4</ele>
        <time>2020-11-28T12:10:27Z</time>
      </trkpt>
      <trkpt lat="48.58301" lon="7.24541">
        <ele>843</ele>
        <time>2020-11-28T12:10:29Z</time>
      </trkpt>
      <trkpt lat="48.58288" lon="7.24532">
        <ele>842.3</ele>
        <time>2020-11-28T12:10:31Z</time>
      </trkpt>
      <trkpt lat="48.58275" lon="7.24523">
        <ele>841.1</ele>
        <time>2020-11-28T12:10:33Z</time>
      </trkpt>
      <trkpt lat="48.58263" lon="7.24513">
        <ele>840.3</ele>
        <time>2020-11-28T12:10:35Z</time>
      </trkpt>
      <trkpt lat="48.58244" lon="7.24495">
        <ele>839</ele>
        <time>2020-11-28T12:10:38Z</time>
      </trkpt>
      <trkpt lat="48.58232" lon="7.24482">
        <ele>838.1</ele>
        <time>2020-11-28T12:10:40Z</time>
      </trkpt>
      <trkpt lat="48.58221" lon="7.24468">
        <ele>837.8</ele>
        <time>2020-11-28T12:10:42Z</time>
      </trkpt>
      <trkpt lat="48.58208" lon="7.24455">
        <ele>836.7</ele>
        <time>2020-11-28T12:10:44Z</time>
      </trkpt>
      <trkpt lat="48.58194" lon="7.24443">
        <ele>836.1</ele>
        <time>2020-11-28T12:10:46Z</time>
      </trkpt>
      <trkpt lat="48.58178" lon="7.24432">
        <ele>835.4</ele>
        <time>2020-11-28T12:10:48Z</time>
      </trkpt>
      <trkpt lat="48.58165" lon="7.24422">
        <ele>834.7</ele>
        <time>2020-11-28T12:10:50Z</time>
      </trkpt>
      <trkpt lat="48.58151" lon="7.24414">
        <ele>834.2</ele>
        <time>2020-11-28T12:10:52Z</time>
      </trkpt>
      <trkpt lat="48.58138" lon="7.24406">
        <ele>833.3</ele>
        <time>2020-11-28T12:10:54Z</time>
      </trkpt>
      <trkpt lat="48.58125" lon="7.24399">
        <ele>832.6</ele>
        <time>2020-11-28T12:10:56Z</time>
      </trkpt>
      <trkpt lat="48.58111" lon="7.24393">
        <ele>832.7</ele>
        <time>2020-11-28T12:10:58Z</time>
      </trkpt>
      <trkpt lat="48.58101" lon="7.24389">
        <ele>832.9</ele>
        <time>2020-11-28T12:11:00Z</time>
      </trkpt>
      <trkpt lat="48.58095" lon="7.24388">
        <ele>832.4</ele>
        <time>2020-11-28T12:11:02Z</time>
      </trkpt>
      <trkpt lat="48.58089" lon="7.24383">
        <ele>829.7</ele>
        <time>2020-11-28T12:11:15Z</time>
      </trkpt>
      <trkpt lat="48.58083" lon="7.24381">
        <ele>829.4</ele>
        <time>2020-11-28T12:11:17Z</time>
      </trkpt>
      <trkpt lat="48.58076" lon="7.24379">
        <ele>829.5</ele>
        <time>2020-11-28T12:11:19Z</time>
      </trkpt>
      <trkpt lat="48.58068" lon="7.24377">
        <ele>829.3</ele>
        <time>2020-11-28T12:11:21Z</time>
      </trkpt>
      <trkpt lat="48.58059" lon="7.24374">
        <ele>829.1</ele>
        <time>2020-11-28T12:11:23Z</time>
      </trkpt>
      <trkpt lat="48.58049" lon="7.24372">
        <ele>829.2</ele>
        <time>2020-11-28T12:11:25Z</time>
      </trkpt>
      <trkpt lat="48.58038" lon="7.24371">
        <ele>829.2</ele>
        <time>2020-11-28T12:11:27Z</time>
      </trkpt>
      <trkpt lat="48.58028" lon="7.24369">
        <ele>829.5</ele>
        <time>2020-11-28T12:11:29Z</time>
      </trkpt>
      <trkpt lat="48.58018" lon="7.24367">
        <ele>830</ele>
        <time>2020-11-28T12:11:31Z</time>
      </trkpt>
      <trkpt lat="48.58006" lon="7.24363">
        <ele>830.4</ele>
        <time>2020-11-28T12:11:33Z</time>
      </trkpt>
      <trkpt lat="48.57988" lon="7.24357">
        <ele>831.1</ele>
        <time>2020-11-28T12:11:36Z</time>
      </trkpt>
      <trkpt lat="48.57976" lon="7.24351">
        <ele>831.6</ele>
        <time>2020-11-28T12:11:38Z</time>
      </trkpt>
      <trkpt lat="48.57964" lon="7.24345">
        <ele>831.6</ele>
        <time>2020-11-28T12:11:40Z</time>
      </trkpt>
      <trkpt lat="48.57952" lon="7.24337">
        <ele>831.6</ele>
        <time>2020-11-28T12:11:42Z</time>
      </trkpt>
      <trkpt lat="48.57941" lon="7.24329">
        <ele>831</ele>
        <time>2020-11-28T12:11:44Z</time>
      </trkpt>
      <trkpt lat="48.5793" lon="7.24319">
        <ele>830.3</ele>
        <time>2020-11-28T12:11:46Z</time>
      </trkpt>
      <trkpt lat="48.5792" lon="7.24308">
        <ele>829.9</ele>
        <time>2020-11-28T12:11:48Z</time>
      </trkpt>
      <trkpt lat="48.5791" lon="7.24299">
        <ele>829</ele>
        <time>2020-11-28T12:11:50Z</time>
      </trkpt>
      <trkpt lat="48.57895" lon="7.24283">
        <ele>828.2</ele>
        <time>2020-11-28T12:11:53Z</time>
      </trkpt>
      <trkpt lat="48.57884" lon="7.2427">
        <ele>828.3</ele>
        <time>2020-11-28T12:11:55Z</time>
      </trkpt>
      <trkpt lat="48.57874" lon="7.24256">
        <ele>827.8</ele>
        <time>2020-11-28T12:11:57Z</time>
      </trkpt>
      <trkpt lat="48.57864" lon="7.24242">
        <ele>827.5</ele>
        <time>2020-11-28T12:11:59Z</time>
      </trkpt>
      <trkpt lat="48.57854" lon="7.24227">
        <ele>826.8</ele>
        <time>2020-11-28T12:12:01Z</time>
      </trkpt>
      <trkpt lat="48.57844" lon="7.24214">
        <ele>825.8</ele>
        <time>2020-11-28T12:12:03Z</time>
      </trkpt>
      <trkpt lat="48.57833" lon="7.242">
        <ele>825</ele>
        <time>2020-11-28T12:12:05Z</time>
      </trkpt>
      <trkpt lat="48.57821" lon="7.24188">
        <ele>824.4</ele>
        <time>2020-11-28T12:12:07Z</time>
      </trkpt>
      <trkpt lat="48.57808" lon="7.24181">
        <ele>823.7</ele>
        <time>2020-11-28T12:12:09Z</time>
      </trkpt>
      <trkpt lat="48.57794" lon="7.24176">
        <ele>823.3</ele>
        <time>2020-11-28T12:12:11Z</time>
      </trkpt>
      <trkpt lat="48.5778" lon="7.24172">
        <ele>823.2</ele>
        <time>2020-11-28T12:12:13Z</time>
      </trkpt>
      <trkpt lat="48.57759" lon="7.24172">
        <ele>822.6</ele>
        <time>2020-11-28T12:12:16Z</time>
      </trkpt>
      <trkpt lat="48.57744" lon="7.24174">
        <ele>822.4</ele>
        <time>2020-11-28T12:12:18Z</time>
      </trkpt>
      <trkpt lat="48.57729" lon="7.24176">
        <ele>821.6</ele>
        <time>2020-11-28T12:12:20Z</time>
      </trkpt>
      <trkpt lat="48.57714" lon="7.24177">
        <ele>820.7</ele>
        <time>2020-11-28T12:12:22Z</time>
      </trkpt>
      <trkpt lat="48.57699" lon="7.24178">
        <ele>819.9</ele>
        <time>2020-11-28T12:12:24Z</time>
      </trkpt>
      <trkpt lat="48.57685" lon="7.2418">
        <ele>819.1</ele>
        <time>2020-11-28T12:12:26Z</time>
      </trkpt>
      <trkpt lat="48.5767" lon="7.24181">
        <ele>818.5</ele>
        <time>2020-11-28T12:12:28Z</time>
      </trkpt>
      <trkpt lat="48.57655" lon="7.24183">
        <ele>818.2</ele>
        <time>2020-11-28T12:12:30Z</time>
      </trkpt>
      <trkpt lat="48.57641" lon="7.24186">
        <ele>817.7</ele>
        <time>2020-11-28T12:12:32Z</time>
      </trkpt>
      <trkpt lat="48.57625" lon="7.2419">
        <ele>817.3</ele>
        <time>2020-11-28T12:12:34Z</time>
      </trkpt>
      <trkpt lat="48.5761" lon="7.24192">
        <ele>816.5</ele>
        <time>2020-11-28T12:12:36Z</time>
      </trkpt>
      <trkpt lat="48.57595" lon="7.2419">
        <ele>815.7</ele>
        <time>2020-11-28T12:12:38Z</time>
      </trkpt>
      <trkpt lat="48.5758" lon="7.24186">
        <ele>815</ele>
        <time>2020-11-28T12:12:40Z</time>
      </trkpt>
      <trkpt lat="48.57564" lon="7.24181">
        <ele>814.7</ele>
        <time>2020-11-28T12:12:42Z</time>
      </trkpt>
      <trkpt lat="48.57549" lon="7.24174">
        <ele>814.5</ele>
        <time>2020-11-28T12:12:44Z</time>
      </trkpt>
      <trkpt lat="48.57533" lon="7.24169">
        <ele>814.7</ele>
        <time>2020-11-28T12:12:46Z</time>
      </trkpt>
      <trkpt lat="48.57518" lon="7.24163">
        <ele>814.5</ele>
        <time>2020-11-28T12:12:48Z</time>
      </trkpt>
      <trkpt lat="48.57503" lon="7.24157">
        <ele>814.1</ele>
        <time>2020-11-28T12:12:50Z</time>
      </trkpt>
      <trkpt lat="48.57487" lon="7.2415">
        <ele>813.5</ele>
        <time>2020-11-28T12:12:52Z</time>
      </trkpt>
      <trkpt lat="48.57472" lon="7.24143">
        <ele>812.6</ele>
        <time>2020-11-28T12:12:54Z</time>
      </trkpt>
      <trkpt lat="48.57456" lon="7.24137">
        <ele>811.5</ele>
        <time>2020-11-28T12:12:56Z</time>
      </trkpt>
      <trkpt lat="48.57441" lon="7.2413">
        <ele>811.3</ele>
        <time>2020-11-28T12:12:58Z</time>
      </trkpt>
      <trkpt lat="48.57426" lon="7.24121">
        <ele>810.6</ele>
        <time>2020-11-28T12:13:00Z</time>
      </trkpt>
      <trkpt lat="48.57411" lon="7.24112">
        <ele>810.2</ele>
        <time>2020-11-28T12:13:02Z</time>
      </trkpt>
      <trkpt lat="48.57397" lon="7.241">
        <ele>809.8</ele>
        <time>2020-11-28T12:13:04Z</time>
      </trkpt>
      <trkpt lat="48.57384" lon="7.24084">
        <ele>809.8</ele>
        <time>2020-11-28T12:13:06Z</time>
      </trkpt>
      <trkpt lat="48.57374" lon="7.24068">
        <ele>809.6</ele>
        <time>2020-11-28T12:13:08Z</time>
      </trkpt>
      <trkpt lat="48.57365" lon="7.2405">
        <ele>809.5</ele>
        <time>2020-11-28T12:13:10Z</time>
      </trkpt>
      <trkpt lat="48.57356" lon="7.24032">
        <ele>808.6</ele>
        <time>2020-11-28T12:13:12Z</time>
      </trkpt>
      <trkpt lat="48.57348" lon="7.24015">
        <ele>808.7</ele>
        <time>2020-11-28T12:13:14Z</time>
      </trkpt>
      <trkpt lat="48.57337" lon="7.23999">
        <ele>808.4</ele>
        <time>2020-11-28T12:13:16Z</time>
      </trkpt>
      <trkpt lat="48.57327" lon="7.23983">
        <ele>808.6</ele>
        <time>2020-11-28T12:13:18Z</time>
      </trkpt>
      <trkpt lat="48.57317" lon="7.23968">
        <ele>809.4</ele>
        <time>2020-11-28T12:13:20Z</time>
      </trkpt>
      <trkpt lat="48.57307" lon="7.23953">
        <ele>810.3</ele>
        <time>2020-11-28T12:13:22Z</time>
      </trkpt>
      <trkpt lat="48.57296" lon="7.2394">
        <ele>811.4</ele>
        <time>2020-11-28T12:13:24Z</time>
      </trkpt>
      <trkpt lat="48.57285" lon="7.23927">
        <ele>811.9</ele>
        <time>2020-11-28T12:13:26Z</time>
      </trkpt>
      <trkpt lat="48.57274" lon="7.23917">
        <ele>812.4</ele>
        <time>2020-11-28T12:13:28Z</time>
      </trkpt>
      <trkpt lat="48.57264" lon="7.23907">
        <ele>812.8</ele>
        <time>2020-11-28T12:13:30Z</time>
      </trkpt>
      <trkpt lat="48.57253" lon="7.23896">
        <ele>812.6</ele>
        <time>2020-11-28T12:13:32Z</time>
      </trkpt>
      <trkpt lat="48.57243" lon="7.23884">
        <ele>812.2</ele>
        <time>2020-11-28T12:13:34Z</time>
      </trkpt>
      <trkpt lat="48.57226" lon="7.23867">
        <ele>811.4</ele>
        <time>2020-11-28T12:13:37Z</time>
      </trkpt>
      <trkpt lat="48.57217" lon="7.23857">
        <ele>810.4</ele>
        <time>2020-11-28T12:13:39Z</time>
      </trkpt>
      <trkpt lat="48.57208" lon="7.23846">
        <ele>810.2</ele>
        <time>2020-11-28T12:13:41Z</time>
      </trkpt>
      <trkpt lat="48.57197" lon="7.23834">
        <ele>809.6</ele>
        <time>2020-11-28T12:13:43Z</time>
      </trkpt>
      <trkpt lat="48.57186" lon="7.23824">
        <ele>810.1</ele>
        <time>2020-11-28T12:13:45Z</time>
      </trkpt>
      <trkpt lat="48.57175" lon="7.23813">
        <ele>809.9</ele>
        <time>2020-11-28T12:13:47Z</time>
      </trkpt>
      <trkpt lat="48.57163" lon="7.23803">
        <ele>810.1</ele>
        <time>2020-11-28T12:13:49Z</time>
      </trkpt>
      <trkpt lat="48.57153" lon="7.23793">
        <ele>810.1</ele>
        <time>2020-11-28T12:13:51Z</time>
      </trkpt>
      <trkpt lat="48.57142" lon="7.23783">
        <ele>809.3</ele>
        <time>2020-11-28T12:13:53Z</time>
      </trkpt>
      <trkpt lat="48.57131" lon="7.23774">
        <ele>808.8</ele>
        <time>2020-11-28T12:13:55Z</time>
      </trkpt>
      <trkpt lat="48.57119" lon="7.23765">
        <ele>808.6</ele>
        <time>2020-11-28T12:13:57Z</time>
      </trkpt>
      <trkpt lat="48.57107" lon="7.23756">
        <ele>807.8</ele>
        <time>2020-11-28T12:13:59Z</time>
      </trkpt>
      <trkpt lat="48.57096" lon="7.23746">
        <ele>807.1</ele>
        <time>2020-11-28T12:14:01Z</time>
      </trkpt>
      <trkpt lat="48.57085" lon="7.23736">
        <ele>806.4</ele>
        <time>2020-11-28T12:14:03Z</time>
      </trkpt>
      <trkpt lat="48.57074" lon="7.23726">
        <ele>806</ele>
        <time>2020-11-28T12:14:05Z</time>
      </trkpt>
      <trkpt lat="48.57066" lon="7.23713">
        <ele>806.2</ele>
        <time>2020-11-28T12:14:07Z</time>
      </trkpt>
      <trkpt lat="48.57059" lon="7.237">
        <ele>806.5</ele>
        <time>2020-11-28T12:14:09Z</time>
      </trkpt>
      <trkpt lat="48.57053" lon="7.23688">
        <ele>806.8</ele>
        <time>2020-11-28T12:14:11Z</time>
      </trkpt>
      <trkpt lat="48.57049" lon="7.23677">
        <ele>807.2</ele>
        <time>2020-11-28T12:14:13Z</time>
      </trkpt>
      <trkpt lat="48.57045" lon="7.23666">
        <ele>807.8</ele>
        <time>2020-11-28T12:14:15Z</time>
      </trkpt>
      <trkpt lat="48.57042" lon="7.23656">
        <ele>808.2</ele>
        <time>2020-11-28T12:14:17Z</time>
      </trkpt>
      <trkpt lat="48.57041" lon="7.23649">
        <ele>808.6</ele>
        <time>2020-11-28T12:14:19Z</time>
      </trkpt>
      <trkpt lat="48.57042" lon="7.23642">
        <ele>810.3</ele>
        <time>2020-11-28T12:14:30Z</time>
      </trkpt>
      <trkpt lat="48.57039" lon="7.23636">
        <ele>810.4</ele>
        <time>2020-11-28T12:14:53Z</time>
      </trkpt>
      <trkpt lat="48.57036" lon="7.23628">
        <ele>810.1</ele>
        <time>2020-11-28T12:14:55Z</time>
      </trkpt>
      <trkpt lat="48.57032" lon="7.2362">
        <ele>809.7</ele>
        <time>2020-11-28T12:14:57Z</time>
      </trkpt>
      <trkpt lat="48.57027" lon="7.23611">
        <ele>809.6</ele>
        <time>2020-11-28T12:14:59Z</time>
      </trkpt>
      <trkpt lat="48.57023" lon="7.23602">
        <ele>809.4</ele>
        <time>2020-11-28T12:15:01Z</time>
      </trkpt>
      <trkpt lat="48.57018" lon="7.23592">
        <ele>809.3</ele>
        <time>2020-11-28T12:15:03Z</time>
      </trkpt>
      <trkpt lat="48.57014" lon="7.23583">
        <ele>809.2</ele>
        <time>2020-11-28T12:15:05Z</time>
      </trkpt>
      <trkpt lat="48.57009" lon="7.23573">
        <ele>809.1</ele>
        <time>2020-11-28T12:15:07Z</time>
      </trkpt>
      <trkpt lat="48.57005" lon="7.23562">
        <ele>809.1</ele>
        <time>2020-11-28T12:15:09Z</time>
      </trkpt>
      <trkpt lat="48.56999" lon="7.2355">
        <ele>809.1</ele>
        <time>2020-11-28T12:15:11Z</time>
      </trkpt>
      <trkpt lat="48.56994" lon="7.2354">
        <ele>808.9</ele>
        <time>2020-11-28T12:15:13Z</time>
      </trkpt>
      <trkpt lat="48.56988" lon="7.23531">
        <ele>809</ele>
        <time>2020-11-28T12:15:15Z</time>
      </trkpt>
      <trkpt lat="48.56983" lon="7.2352">
        <ele>809.8</ele>
        <time>2020-11-28T12:15:17Z</time>
      </trkpt>
      <trkpt lat="48.56978" lon="7.2351">
        <ele>809.9</ele>
        <time>2020-11-28T12:15:19Z</time>
      </trkpt>
      <trkpt lat="48.56973" lon="7.235">
        <ele>810.6</ele>
        <time>2020-11-28T12:15:21Z</time>
      </trkpt>
      <trkpt lat="48.56968" lon="7.23491">
        <ele>811.4</ele>
        <time>2020-11-28T12:15:23Z</time>
      </trkpt>
      <trkpt lat="48.56963" lon="7.23482">
        <ele>811.6</ele>
        <time>2020-11-28T12:15:25Z</time>
      </trkpt>
      <trkpt lat="48.56958" lon="7.23473">
        <ele>812.2</ele>
        <time>2020-11-28T12:15:27Z</time>
      </trkpt>
      <trkpt lat="48.56952" lon="7.23462">
        <ele>812.6</ele>
        <time>2020-11-28T12:15:29Z</time>
      </trkpt>
      <trkpt lat="48.56948" lon="7.23451">
        <ele>813.1</ele>
        <time>2020-11-28T12:15:31Z</time>
      </trkpt>
      <trkpt lat="48.56944" lon="7.23439">
        <ele>814.1</ele>
        <time>2020-11-28T12:15:33Z</time>
      </trkpt>
      <trkpt lat="48.56943" lon="7.23426">
        <ele>815.1</ele>
        <time>2020-11-28T12:15:35Z</time>
      </trkpt>
      <trkpt lat="48.56941" lon="7.23413">
        <ele>816.2</ele>
        <time>2020-11-28T12:15:37Z</time>
      </trkpt>
      <trkpt lat="48.56941" lon="7.23399">
        <ele>817.4</ele>
        <time>2020-11-28T12:15:39Z</time>
      </trkpt>
      <trkpt lat="48.5694" lon="7.23386">
        <ele>817.6</ele>
        <time>2020-11-28T12:15:41Z</time>
      </trkpt>
      <trkpt lat="48.5694" lon="7.23373">
        <ele>818</ele>
        <time>2020-11-28T12:15:43Z</time>
      </trkpt>
      <trkpt lat="48.5694" lon="7.23361">
        <ele>817.4</ele>
        <time>2020-11-28T12:15:45Z</time>
      </trkpt>
      <trkpt lat="48.56941" lon="7.2335">
        <ele>816</ele>
        <time>2020-11-28T12:15:47Z</time>
      </trkpt>
      <trkpt lat="48.56941" lon="7.23339">
        <ele>814.7</ele>
        <time>2020-11-28T12:15:49Z</time>
      </trkpt>
      <trkpt lat="48.56941" lon="7.23328">
        <ele>813.3</ele>
        <time>2020-11-28T12:15:51Z</time>
      </trkpt>
      <trkpt lat="48.56941" lon="7.23316">
        <ele>812.4</ele>
        <time>2020-11-28T12:15:53Z</time>
      </trkpt>
      <trkpt lat="48.56941" lon="7.23304">
        <ele>812.1</ele>
        <time>2020-11-28T12:15:55Z</time>
      </trkpt>
      <trkpt lat="48.56941" lon="7.23291">
        <ele>806.3</ele>
        <time>2020-11-28T12:15:57Z</time>
      </trkpt>
      <trkpt lat="48.56942" lon="7.23278">
        <ele>806.8</ele>
        <time>2020-11-28T12:15:59Z</time>
      </trkpt>
      <trkpt lat="48.56941" lon="7.23265">
        <ele>806.7</ele>
        <time>2020-11-28T12:16:01Z</time>
      </trkpt>
      <trkpt lat="48.56941" lon="7.23254">
        <ele>806.4</ele>
        <time>2020-11-28T12:16:03Z</time>
      </trkpt>
      <trkpt lat="48.56942" lon="7.23242">
        <ele>786.9</ele>
        <time>2020-11-28T12:16:05Z</time>
      </trkpt>
      <trkpt lat="48.56944" lon="7.23229">
        <ele>787.6</ele>
        <time>2020-11-28T12:16:07Z</time>
      </trkpt>
      <trkpt lat="48.56947" lon="7.23218">
        <ele>785.4</ele>
        <time>2020-11-28T12:16:09Z</time>
      </trkpt>
      <trkpt lat="48.56952" lon="7.232">
        <ele>783.5</ele>
        <time>2020-11-28T12:16:12Z</time>
      </trkpt>
      <trkpt lat="48.56954" lon="7.23188">
        <ele>786.3</ele>
        <time>2020-11-28T12:16:14Z</time>
      </trkpt>
      <trkpt lat="48.56956" lon="7.23169">
        <ele>774.2</ele>
        <time>2020-11-28T12:16:17Z</time>
      </trkpt>
      <trkpt lat="48.56957" lon="7.23156">
        <ele>783.1</ele>
        <time>2020-11-28T12:16:19Z</time>
      </trkpt>
      <trkpt lat="48.56956" lon="7.23145">
        <ele>788.3</ele>
        <time>2020-11-28T12:16:21Z</time>
      </trkpt>
      <trkpt lat="48.56955" lon="7.23133">
        <ele>794.6</ele>
        <time>2020-11-28T12:16:23Z</time>
      </trkpt>
      <trkpt lat="48.56952" lon="7.23122">
        <ele>799.1</ele>
        <time>2020-11-28T12:16:25Z</time>
      </trkpt>
      <trkpt lat="48.56949" lon="7.23111">
        <ele>784</ele>
        <time>2020-11-28T12:16:27Z</time>
      </trkpt>
      <trkpt lat="48.56946" lon="7.231">
        <ele>792.6</ele>
        <time>2020-11-28T12:16:29Z</time>
      </trkpt>
      <trkpt lat="48.56942" lon="7.23089">
        <ele>795</ele>
        <time>2020-11-28T12:16:31Z</time>
      </trkpt>
      <trkpt lat="48.56939" lon="7.23079">
        <ele>800.2</ele>
        <time>2020-11-28T12:16:33Z</time>
      </trkpt>
      <trkpt lat="48.56936" lon="7.23069">
        <ele>804.3</ele>
        <time>2020-11-28T12:16:35Z</time>
      </trkpt>
      <trkpt lat="48.56933" lon="7.23059">
        <ele>807.9</ele>
        <time>2020-11-28T12:16:37Z</time>
      </trkpt>
      <trkpt lat="48.5693" lon="7.2305">
        <ele>810.5</ele>
        <time>2020-11-28T12:16:39Z</time>
      </trkpt>
      <trkpt lat="48.56927" lon="7.2304">
        <ele>812.8</ele>
        <time>2020-11-28T12:16:41Z</time>
      </trkpt>
      <trkpt lat="48.56924" lon="7.2303">
        <ele>814.8</ele>
        <time>2020-11-28T12:16:43Z</time>
      </trkpt>
      <trkpt lat="48.56919" lon="7.23021">
        <ele>816.5</ele>
        <time>2020-11-28T12:16:45Z</time>
      </trkpt>
      <trkpt lat="48.56915" lon="7.23012">
        <ele>817.6</ele>
        <time>2020-11-28T12:16:47Z</time>
      </trkpt>
      <trkpt lat="48.56911" lon="7.23002">
        <ele>818.7</ele>
        <time>2020-11-28T12:16:49Z</time>
      </trkpt>
      <trkpt lat="48.56907" lon="7.22993">
        <ele>819.2</ele>
        <time>2020-11-28T12:16:51Z</time>
      </trkpt>
      <trkpt lat="48.56903" lon="7.22984">
        <ele>819.3</ele>
        <time>2020-11-28T12:16:53Z</time>
      </trkpt>
      <trkpt lat="48.56898" lon="7.22975">
        <ele>819.8</ele>
        <time>2020-11-28T12:16:55Z</time>
      </trkpt>
      <trkpt lat="48.56893" lon="7.22965">
        <ele>820.1</ele>
        <time>2020-11-28T12:16:57Z</time>
      </trkpt>
      <trkpt lat="48.56888" lon="7.22956">
        <ele>820.3</ele>
        <time>2020-11-28T12:16:59Z</time>
      </trkpt>
      <trkpt lat="48.56883" lon="7.22947">
        <ele>820.4</ele>
        <time>2020-11-28T12:17:01Z</time>
      </trkpt>
      <trkpt lat="48.56879" lon="7.22939">
        <ele>820.6</ele>
        <time>2020-11-28T12:17:03Z</time>
      </trkpt>
      <trkpt lat="48.56874" lon="7.2293">
        <ele>821</ele>
        <time>2020-11-28T12:17:05Z</time>
      </trkpt>
      <trkpt lat="48.5687" lon="7.22922">
        <ele>821.4</ele>
        <time>2020-11-28T12:17:07Z</time>
      </trkpt>
      <trkpt lat="48.56865" lon="7.22913">
        <ele>821.3</ele>
        <time>2020-11-28T12:17:09Z</time>
      </trkpt>
      <trkpt lat="48.56861" lon="7.22904">
        <ele>821.7</ele>
        <time>2020-11-28T12:17:11Z</time>
      </trkpt>
      <trkpt lat="48.56857" lon="7.22895">
        <ele>822.1</ele>
        <time>2020-11-28T12:17:13Z</time>
      </trkpt>
      <trkpt lat="48.56852" lon="7.22886">
        <ele>822.8</ele>
        <time>2020-11-28T12:17:15Z</time>
      </trkpt>
      <trkpt lat="48.56848" lon="7.22876">
        <ele>823.5</ele>
        <time>2020-11-28T12:17:17Z</time>
      </trkpt>
      <trkpt lat="48.56845" lon="7.22866">
        <ele>823.5</ele>
        <time>2020-11-28T12:17:19Z</time>
      </trkpt>
      <trkpt lat="48.56841" lon="7.22856">
        <ele>823.4</ele>
        <time>2020-11-28T12:17:21Z</time>
      </trkpt>
      <trkpt lat="48.56838" lon="7.22846">
        <ele>823.2</ele>
        <time>2020-11-28T12:17:23Z</time>
      </trkpt>
      <trkpt lat="48.56835" lon="7.22836">
        <ele>823.3</ele>
        <time>2020-11-28T12:17:25Z</time>
      </trkpt>
      <trkpt lat="48.56831" lon="7.22826">
        <ele>823.2</ele>
        <time>2020-11-28T12:17:27Z</time>
      </trkpt>
      <trkpt lat="48.56828" lon="7.22816">
        <ele>823.3</ele>
        <time>2020-11-28T12:17:29Z</time>
      </trkpt>
      <trkpt lat="48.56825" lon="7.22806">
        <ele>823.8</ele>
        <time>2020-11-28T12:17:31Z</time>
      </trkpt>
      <trkpt lat="48.56821" lon="7.22795">
        <ele>824.4</ele>
        <time>2020-11-28T12:17:33Z</time>
      </trkpt>
      <trkpt lat="48.56818" lon="7.22786">
        <ele>824.9</ele>
        <time>2020-11-28T12:17:35Z</time>
      </trkpt>
      <trkpt lat="48.56814" lon="7.22776">
        <ele>824.9</ele>
        <time>2020-11-28T12:17:37Z</time>
      </trkpt>
      <trkpt lat="48.56811" lon="7.22767">
        <ele>825.1</ele>
        <time>2020-11-28T12:17:39Z</time>
      </trkpt>
      <trkpt lat="48.56808" lon="7.22758">
        <ele>825.9</ele>
        <time>2020-11-28T12:17:41Z</time>
      </trkpt>
      <trkpt lat="48.56804" lon="7.22749">
        <ele>826.2</ele>
        <time>2020-11-28T12:17:43Z</time>
      </trkpt>
      <trkpt lat="48.56801" lon="7.2274">
        <ele>826.6</ele>
        <time>2020-11-28T12:17:45Z</time>
      </trkpt>
      <trkpt lat="48.56797" lon="7.2273">
        <ele>827.4</ele>
        <time>2020-11-28T12:17:47Z</time>
      </trkpt>
      <trkpt lat="48.56794" lon="7.2272">
        <ele>827.9</ele>
        <time>2020-11-28T12:17:49Z</time>
      </trkpt>
      <trkpt lat="48.56789" lon="7.22711">
        <ele>828.3</ele>
        <time>2020-11-28T12:17:51Z</time>
      </trkpt>
      <trkpt lat="48.56783" lon="7.22703">
        <ele>829.1</ele>
        <time>2020-11-28T12:17:53Z</time>
      </trkpt>
      <trkpt lat="48.56777" lon="7.22694">
        <ele>829.8</ele>
        <time>2020-11-28T12:17:55Z</time>
      </trkpt>
      <trkpt lat="48.56772" lon="7.22686">
        <ele>830.1</ele>
        <time>2020-11-28T12:17:57Z</time>
      </trkpt>
      <trkpt lat="48.56766" lon="7.22677">
        <ele>829.6</ele>
        <time>2020-11-28T12:17:59Z</time>
      </trkpt>
      <trkpt lat="48.56761" lon="7.2267">
        <ele>829.9</ele>
        <time>2020-11-28T12:18:01Z</time>
      </trkpt>
      <trkpt lat="48.56754" lon="7.22663">
        <ele>829.5</ele>
        <time>2020-11-28T12:18:03Z</time>
      </trkpt>
      <trkpt lat="48.56748" lon="7.22657">
        <ele>829.5</ele>
        <time>2020-11-28T12:18:05Z</time>
      </trkpt>
      <trkpt lat="48.56742" lon="7.2265">
        <ele>829.8</ele>
        <time>2020-11-28T12:18:07Z</time>
      </trkpt>
      <trkpt lat="48.56736" lon="7.22644">
        <ele>830.3</ele>
        <time>2020-11-28T12:18:09Z</time>
      </trkpt>
      <trkpt lat="48.5673" lon="7.22637">
        <ele>830.5</ele>
        <time>2020-11-28T12:18:11Z</time>
      </trkpt>
      <trkpt lat="48.56723" lon="7.2263">
        <ele>830.6</ele>
        <time>2020-11-28T12:18:13Z</time>
      </trkpt>
      <trkpt lat="48.56718" lon="7.22624">
        <ele>830.4</ele>
        <time>2020-11-28T12:18:15Z</time>
      </trkpt>
      <trkpt lat="48.56712" lon="7.22617">
        <ele>830.1</ele>
        <time>2020-11-28T12:18:17Z</time>
      </trkpt>
      <trkpt lat="48.56707" lon="7.2261">
        <ele>830</ele>
        <time>2020-11-28T12:18:19Z</time>
      </trkpt>
      <trkpt lat="48.56702" lon="7.22603">
        <ele>829.9</ele>
        <time>2020-11-28T12:18:21Z</time>
      </trkpt>
      <trkpt lat="48.56697" lon="7.22596">
        <ele>830.1</ele>
        <time>2020-11-28T12:18:23Z</time>
      </trkpt>
      <trkpt lat="48.56692" lon="7.22588">
        <ele>831.2</ele>
        <time>2020-11-28T12:18:25Z</time>
      </trkpt>
      <trkpt lat="48.56687" lon="7.22581">
        <ele>831.4</ele>
        <time>2020-11-28T12:18:27Z</time>
      </trkpt>
      <trkpt lat="48.56683" lon="7.22575">
        <ele>832</ele>
        <time>2020-11-28T12:18:29Z</time>
      </trkpt>
      <trkpt lat="48.56677" lon="7.22569">
        <ele>832.3</ele>
        <time>2020-11-28T12:18:31Z</time>
      </trkpt>
      <trkpt lat="48.56671" lon="7.22564">
        <ele>833.2</ele>
        <time>2020-11-28T12:18:33Z</time>
      </trkpt>
      <trkpt lat="48.56665" lon="7.22558">
        <ele>833.4</ele>
        <time>2020-11-28T12:18:35Z</time>
      </trkpt>
      <trkpt lat="48.56659" lon="7.22553">
        <ele>833.4</ele>
        <time>2020-11-28T12:18:37Z</time>
      </trkpt>
      <trkpt lat="48.56653" lon="7.22548">
        <ele>833.9</ele>
        <time>2020-11-28T12:18:39Z</time>
      </trkpt>
      <trkpt lat="48.56646" lon="7.22543">
        <ele>834</ele>
        <time>2020-11-28T12:18:41Z</time>
      </trkpt>
      <trkpt lat="48.5664" lon="7.22537">
        <ele>835</ele>
        <time>2020-11-28T12:18:43Z</time>
      </trkpt>
      <trkpt lat="48.56633" lon="7.22531">
        <ele>835.3</ele>
        <time>2020-11-28T12:18:45Z</time>
      </trkpt>
      <trkpt lat="48.56626" lon="7.22525">
        <ele>836</ele>
        <time>2020-11-28T12:18:47Z</time>
      </trkpt>
      <trkpt lat="48.56619" lon="7.2252">
        <ele>836.2</ele>
        <time>2020-11-28T12:18:49Z</time>
      </trkpt>
      <trkpt lat="48.56611" lon="7.22516">
        <ele>836.6</ele>
        <time>2020-11-28T12:18:51Z</time>
      </trkpt>
      <trkpt lat="48.56604" lon="7.22511">
        <ele>836.3</ele>
        <time>2020-11-28T12:18:53Z</time>
      </trkpt>
      <trkpt lat="48.56597" lon="7.22506">
        <ele>836.2</ele>
        <time>2020-11-28T12:18:55Z</time>
      </trkpt>
      <trkpt lat="48.56591" lon="7.22499">
        <ele>836.3</ele>
        <time>2020-11-28T12:18:57Z</time>
      </trkpt>
      <trkpt lat="48.56585" lon="7.22492">
        <ele>836.4</ele>
        <time>2020-11-28T12:18:59Z</time>
      </trkpt>
      <trkpt lat="48.5658" lon="7.22485">
        <ele>836.9</ele>
        <time>2020-11-28T12:19:01Z</time>
      </trkpt>
      <trkpt lat="48.56575" lon="7.22478">
        <ele>837.1</ele>
        <time>2020-11-28T12:19:03Z</time>
      </trkpt>
      <trkpt lat="48.56569" lon="7.2247">
        <ele>837.2</ele>
        <time>2020-11-28T12:19:05Z</time>
      </trkpt>
      <trkpt lat="48.56565" lon="7.22463">
        <ele>837.3</ele>
        <time>2020-11-28T12:19:07Z</time>
      </trkpt>
      <trkpt lat="48.5656" lon="7.22455">
        <ele>837.7</ele>
        <time>2020-11-28T12:19:09Z</time>
      </trkpt>
      <trkpt lat="48.56556" lon="7.22447">
        <ele>837.4</ele>
        <time>2020-11-28T12:19:11Z</time>
      </trkpt>
      <trkpt lat="48.56551" lon="7.22439">
        <ele>810.7</ele>
        <time>2020-11-28T12:19:13Z</time>
      </trkpt>
      <trkpt lat="48.56547" lon="7.22432">
        <ele>808.1</ele>
        <time>2020-11-28T12:19:15Z</time>
      </trkpt>
      <trkpt lat="48.56542" lon="7.22424">
        <ele>805.1</ele>
        <time>2020-11-28T12:19:17Z</time>
      </trkpt>
      <trkpt lat="48.56537" lon="7.22414">
        <ele>806.8</ele>
        <time>2020-11-28T12:19:19Z</time>
      </trkpt>
      <trkpt lat="48.56533" lon="7.22405">
        <ele>811.1</ele>
        <time>2020-11-28T12:19:21Z</time>
      </trkpt>
      <trkpt lat="48.5653" lon="7.22396">
        <ele>814.9</ele>
        <time>2020-11-28T12:19:23Z</time>
      </trkpt>
      <trkpt lat="48.56526" lon="7.22388">
        <ele>817.9</ele>
        <time>2020-11-28T12:19:25Z</time>
      </trkpt>
      <trkpt lat="48.56523" lon="7.22379">
        <ele>819.9</ele>
        <time>2020-11-28T12:19:27Z</time>
      </trkpt>
      <trkpt lat="48.56519" lon="7.2237">
        <ele>822.2</ele>
        <time>2020-11-28T12:19:29Z</time>
      </trkpt>
      <trkpt lat="48.56516" lon="7.22361">
        <ele>824.2</ele>
        <time>2020-11-28T12:19:31Z</time>
      </trkpt>
      <trkpt lat="48.56513" lon="7.22352">
        <ele>825.4</ele>
        <time>2020-11-28T12:19:33Z</time>
      </trkpt>
      <trkpt lat="48.5651" lon="7.22343">
        <ele>825.9</ele>
        <time>2020-11-28T12:19:35Z</time>
      </trkpt>
      <trkpt lat="48.56507" lon="7.22334">
        <ele>827</ele>
        <time>2020-11-28T12:19:37Z</time>
      </trkpt>
      <trkpt lat="48.56502" lon="7.22324">
        <ele>827.8</ele>
        <time>2020-11-28T12:19:39Z</time>
      </trkpt>
      <trkpt lat="48.56498" lon="7.22314">
        <ele>829.2</ele>
        <time>2020-11-28T12:19:41Z</time>
      </trkpt>
      <trkpt lat="48.56495" lon="7.22303">
        <ele>831</ele>
        <time>2020-11-28T12:19:43Z</time>
      </trkpt>
      <trkpt lat="48.56491" lon="7.22292">
        <ele>833.5</ele>
        <time>2020-11-28T12:19:45Z</time>
      </trkpt>
      <trkpt lat="48.56488" lon="7.22283">
        <ele>835.8</ele>
        <time>2020-11-28T12:19:47Z</time>
      </trkpt>
      <trkpt lat="48.56485" lon="7.22274">
        <ele>837.2</ele>
        <time>2020-11-28T12:19:49Z</time>
      </trkpt>
      <trkpt lat="48.56481" lon="7.22268">
        <ele>837.7</ele>
        <time>2020-11-28T12:19:51Z</time>
      </trkpt>
      <trkpt lat="48.56477" lon="7.22262">
        <ele>837.9</ele>
        <time>2020-11-28T12:19:53Z</time>
      </trkpt>
      <trkpt lat="48.56472" lon="7.22254">
        <ele>837.9</ele>
        <time>2020-11-28T12:19:55Z</time>
      </trkpt>
      <trkpt lat="48.56468" lon="7.22246">
        <ele>837.9</ele>
        <time>2020-11-28T12:19:57Z</time>
      </trkpt>
      <trkpt lat="48.56465" lon="7.22236">
        <ele>839</ele>
        <time>2020-11-28T12:19:59Z</time>
      </trkpt>
      <trkpt lat="48.56462" lon="7.22227">
        <ele>839.7</ele>
        <time>2020-11-28T12:20:01Z</time>
      </trkpt>
      <trkpt lat="48.56459" lon="7.22216">
        <ele>795.7</ele>
        <time>2020-11-28T12:20:03Z</time>
      </trkpt>
      <trkpt lat="48.56456" lon="7.22206">
        <ele>790.9</ele>
        <time>2020-11-28T12:20:05Z</time>
      </trkpt>
      <trkpt lat="48.56454" lon="7.22194">
        <ele>785.3</ele>
        <time>2020-11-28T12:20:07Z</time>
      </trkpt>
      <trkpt lat="48.56453" lon="7.22182">
        <ele>789.4</ele>
        <time>2020-11-28T12:20:09Z</time>
      </trkpt>
      <trkpt lat="48.56454" lon="7.2217">
        <ele>797.4</ele>
        <time>2020-11-28T12:20:11Z</time>
      </trkpt>
      <trkpt lat="48.56457" lon="7.22161">
        <ele>806</ele>
        <time>2020-11-28T12:20:13Z</time>
      </trkpt>
      <trkpt lat="48.56463" lon="7.22157">
        <ele>813.4</ele>
        <time>2020-11-28T12:20:16Z</time>
      </trkpt>
      <trkpt lat="48.56466" lon="7.22151">
        <ele>827.2</ele>
        <time>2020-11-28T12:20:24Z</time>
      </trkpt>
      <trkpt lat="48.56471" lon="7.22151">
        <ele>839.2</ele>
        <time>2020-11-28T12:20:41Z</time>
      </trkpt>
      <trkpt lat="48.56475" lon="7.22155">
        <ele>841.1</ele>
        <time>2020-11-28T12:20:44Z</time>
      </trkpt>
      <trkpt lat="48.5648" lon="7.22158">
        <ele>842.1</ele>
        <time>2020-11-28T12:20:46Z</time>
      </trkpt>
      <trkpt lat="48.56487" lon="7.22161">
        <ele>842.9</ele>
        <time>2020-11-28T12:20:48Z</time>
      </trkpt>
      <trkpt lat="48.56493" lon="7.22165">
        <ele>844.5</ele>
        <time>2020-11-28T12:20:50Z</time>
      </trkpt>
      <trkpt lat="48.56501" lon="7.22169">
        <ele>845.3</ele>
        <time>2020-11-28T12:20:52Z</time>
      </trkpt>
      <trkpt lat="48.56508" lon="7.22174">
        <ele>846.5</ele>
        <time>2020-11-28T12:20:54Z</time>
      </trkpt>
      <trkpt lat="48.56518" lon="7.22184">
        <ele>847.5</ele>
        <time>2020-11-28T12:20:57Z</time>
      </trkpt>
      <trkpt lat="48.56527" lon="7.22195">
        <ele>849.1</ele>
        <time>2020-11-28T12:21:00Z</time>
      </trkpt>
      <trkpt lat="48.56533" lon="7.22202">
        <ele>850.2</ele>
        <time>2020-11-28T12:21:02Z</time>
      </trkpt>
      <trkpt lat="48.56537" lon="7.2221">
        <ele>850.8</ele>
        <time>2020-11-28T12:21:04Z</time>
      </trkpt>
      <trkpt lat="48.56542" lon="7.22217">
        <ele>851.6</ele>
        <time>2020-11-28T12:21:06Z</time>
      </trkpt>
      <trkpt lat="48.56548" lon="7.22223">
        <ele>850.7</ele>
        <time>2020-11-28T12:21:08Z</time>
      </trkpt>
      <trkpt lat="48.56554" lon="7.22228">
        <ele>850.5</ele>
        <time>2020-11-28T12:21:10Z</time>
      </trkpt>
      <trkpt lat="48.56561" lon="7.22234">
        <ele>849.2</ele>
        <time>2020-11-28T12:21:12Z</time>
      </trkpt>
      <trkpt lat="48.56567" lon="7.2224">
        <ele>848.2</ele>
        <time>2020-11-28T12:21:14Z</time>
      </trkpt>
      <trkpt lat="48.56574" lon="7.22246">
        <ele>847.8</ele>
        <time>2020-11-28T12:21:16Z</time>
      </trkpt>
      <trkpt lat="48.5658" lon="7.2225">
        <ele>847.4</ele>
        <time>2020-11-28T12:21:18Z</time>
      </trkpt>
      <trkpt lat="48.56587" lon="7.22254">
        <ele>846.8</ele>
        <time>2020-11-28T12:21:20Z</time>
      </trkpt>
      <trkpt lat="48.56594" lon="7.22258">
        <ele>846.5</ele>
        <time>2020-11-28T12:21:22Z</time>
      </trkpt>
      <trkpt lat="48.56602" lon="7.22261">
        <ele>846</ele>
        <time>2020-11-28T12:21:24Z</time>
      </trkpt>
      <trkpt lat="48.56609" lon="7.22264">
        <ele>845.6</ele>
        <time>2020-11-28T12:21:26Z</time>
      </trkpt>
      <trkpt lat="48.56617" lon="7.22266">
        <ele>845</ele>
        <time>2020-11-28T12:21:28Z</time>
      </trkpt>
      <trkpt lat="48.56624" lon="7.22269">
        <ele>844.7</ele>
        <time>2020-11-28T12:21:30Z</time>
      </trkpt>
      <trkpt lat="48.56631" lon="7.22271">
        <ele>844.8</ele>
        <time>2020-11-28T12:21:32Z</time>
      </trkpt>
      <trkpt lat="48.56639" lon="7.22272">
        <ele>844.6</ele>
        <time>2020-11-28T12:21:34Z</time>
      </trkpt>
      <trkpt lat="48.56648" lon="7.22272">
        <ele>844.7</ele>
        <time>2020-11-28T12:21:36Z</time>
      </trkpt>
      <trkpt lat="48.56657" lon="7.22272">
        <ele>843.5</ele>
        <time>2020-11-28T12:21:38Z</time>
      </trkpt>
      <trkpt lat="48.56665" lon="7.22271">
        <ele>842.6</ele>
        <time>2020-11-28T12:21:40Z</time>
      </trkpt>
      <trkpt lat="48.56673" lon="7.2227">
        <ele>842.5</ele>
        <time>2020-11-28T12:21:42Z</time>
      </trkpt>
      <trkpt lat="48.56681" lon="7.22268">
        <ele>843</ele>
        <time>2020-11-28T12:21:44Z</time>
      </trkpt>
      <trkpt lat="48.56688" lon="7.22267">
        <ele>842.9</ele>
        <time>2020-11-28T12:21:46Z</time>
      </trkpt>
      <trkpt lat="48.56695" lon="7.22265">
        <ele>805</ele>
        <time>2020-11-28T12:21:48Z</time>
      </trkpt>
      <trkpt lat="48.56703" lon="7.22262">
        <ele>799</ele>
        <time>2020-11-28T12:21:50Z</time>
      </trkpt>
      <trkpt lat="48.56712" lon="7.2226">
        <ele>798.7</ele>
        <time>2020-11-28T12:21:52Z</time>
      </trkpt>
      <trkpt lat="48.56722" lon="7.22257">
        <ele>803.8</ele>
        <time>2020-11-28T12:21:54Z</time>
      </trkpt>
      <trkpt lat="48.56732" lon="7.22253">
        <ele>810.7</ele>
        <time>2020-11-28T12:21:56Z</time>
      </trkpt>
      <trkpt lat="48.56738" lon="7.22249">
        <ele>815.4</ele>
        <time>2020-11-28T12:21:58Z</time>
      </trkpt>
      <trkpt lat="48.56745" lon="7.22246">
        <ele>784.2</ele>
        <time>2020-11-28T12:22:00Z</time>
      </trkpt>
      <trkpt lat="48.56754" lon="7.22241">
        <ele>781.4</ele>
        <time>2020-11-28T12:22:02Z</time>
      </trkpt>
      <trkpt lat="48.56763" lon="7.22237">
        <ele>785.6</ele>
        <time>2020-11-28T12:22:04Z</time>
      </trkpt>
      <trkpt lat="48.56771" lon="7.22233">
        <ele>794.7</ele>
        <time>2020-11-28T12:22:06Z</time>
      </trkpt>
      <trkpt lat="48.56778" lon="7.22228">
        <ele>804.4</ele>
        <time>2020-11-28T12:22:08Z</time>
      </trkpt>
      <trkpt lat="48.56786" lon="7.22222">
        <ele>812</ele>
        <time>2020-11-28T12:22:10Z</time>
      </trkpt>
      <trkpt lat="48.56799" lon="7.22215">
        <ele>821.6</ele>
        <time>2020-11-28T12:22:13Z</time>
      </trkpt>
      <trkpt lat="48.56809" lon="7.22209">
        <ele>825.8</ele>
        <time>2020-11-28T12:22:15Z</time>
      </trkpt>
      <trkpt lat="48.56819" lon="7.22204">
        <ele>830</ele>
        <time>2020-11-28T12:22:17Z</time>
      </trkpt>
      <trkpt lat="48.56829" lon="7.22198">
        <ele>834.3</ele>
        <time>2020-11-28T12:22:19Z</time>
      </trkpt>
      <trkpt lat="48.56838" lon="7.22192">
        <ele>837.1</ele>
        <time>2020-11-28T12:22:21Z</time>
      </trkpt>
      <trkpt lat="48.56848" lon="7.22185">
        <ele>840.3</ele>
        <time>2020-11-28T12:22:23Z</time>
      </trkpt>
      <trkpt lat="48.56857" lon="7.22177">
        <ele>842.9</ele>
        <time>2020-11-28T12:22:25Z</time>
      </trkpt>
      <trkpt lat="48.56866" lon="7.22169">
        <ele>844.5</ele>
        <time>2020-11-28T12:22:27Z</time>
      </trkpt>
      <trkpt lat="48.56871" lon="7.22158">
        <ele>845.6</ele>
        <time>2020-11-28T12:22:29Z</time>
      </trkpt>
      <trkpt lat="48.56873" lon="7.22146">
        <ele>846.7</ele>
        <time>2020-11-28T12:22:31Z</time>
      </trkpt>
      <trkpt lat="48.56872" lon="7.22134">
        <ele>846.9</ele>
        <time>2020-11-28T12:22:33Z</time>
      </trkpt>
      <trkpt lat="48.5687" lon="7.22122">
        <ele>847.1</ele>
        <time>2020-11-28T12:22:35Z</time>
      </trkpt>
      <trkpt lat="48.56868" lon="7.22115">
        <ele>847.2</ele>
        <time>2020-11-28T12:22:37Z</time>
      </trkpt>
      <trkpt lat="48.56867" lon="7.22106">
        <ele>846.4</ele>
        <time>2020-11-28T12:22:54Z</time>
      </trkpt>
      <trkpt lat="48.56862" lon="7.22099">
        <ele>846.4</ele>
        <time>2020-11-28T12:22:56Z</time>
      </trkpt>
      <trkpt lat="48.56856" lon="7.2209">
        <ele>846.8</ele>
        <time>2020-11-28T12:22:58Z</time>
      </trkpt>
      <trkpt lat="48.5685" lon="7.22082">
        <ele>847</ele>
        <time>2020-11-28T12:23:00Z</time>
      </trkpt>
      <trkpt lat="48.56845" lon="7.22073">
        <ele>846.7</ele>
        <time>2020-11-28T12:23:02Z</time>
      </trkpt>
      <trkpt lat="48.56838" lon="7.22064">
        <ele>846.7</ele>
        <time>2020-11-28T12:23:04Z</time>
      </trkpt>
      <trkpt lat="48.5683" lon="7.22054">
        <ele>846.6</ele>
        <time>2020-11-28T12:23:06Z</time>
      </trkpt>
      <trkpt lat="48.56823" lon="7.22044">
        <ele>846.8</ele>
        <time>2020-11-28T12:23:08Z</time>
      </trkpt>
      <trkpt lat="48.56814" lon="7.22035">
        <ele>846.8</ele>
        <time>2020-11-28T12:23:10Z</time>
      </trkpt>
      <trkpt lat="48.56806" lon="7.22025">
        <ele>847.4</ele>
        <time>2020-11-28T12:23:12Z</time>
      </trkpt>
      <trkpt lat="48.56795" lon="7.22011">
        <ele>848.2</ele>
        <time>2020-11-28T12:23:15Z</time>
      </trkpt>
      <trkpt lat="48.56787" lon="7.22001">
        <ele>848.3</ele>
        <time>2020-11-28T12:23:17Z</time>
      </trkpt>
      <trkpt lat="48.56776" lon="7.21985">
        <ele>848</ele>
        <time>2020-11-28T12:23:20Z</time>
      </trkpt>
      <trkpt lat="48.56769" lon="7.21975">
        <ele>847.7</ele>
        <time>2020-11-28T12:23:22Z</time>
      </trkpt>
      <trkpt lat="48.56761" lon="7.21964">
        <ele>848</ele>
        <time>2020-11-28T12:23:24Z</time>
      </trkpt>
      <trkpt lat="48.56755" lon="7.21952">
        <ele>848.2</ele>
        <time>2020-11-28T12:23:26Z</time>
      </trkpt>
      <trkpt lat="48.56749" lon="7.21938">
        <ele>848.5</ele>
        <time>2020-11-28T12:23:28Z</time>
      </trkpt>
      <trkpt lat="48.56743" lon="7.21925">
        <ele>820.8</ele>
        <time>2020-11-28T12:23:30Z</time>
      </trkpt>
      <trkpt lat="48.56735" lon="7.21907">
        <ele>820.3</ele>
        <time>2020-11-28T12:23:33Z</time>
      </trkpt>
      <trkpt lat="48.56732" lon="7.21893">
        <ele>798.5</ele>
        <time>2020-11-28T12:23:35Z</time>
      </trkpt>
      <trkpt lat="48.56729" lon="7.21878">
        <ele>813.2</ele>
        <time>2020-11-28T12:23:37Z</time>
      </trkpt>
      <trkpt lat="48.56724" lon="7.21856">
        <ele>820.9</ele>
        <time>2020-11-28T12:23:40Z</time>
      </trkpt>
      <trkpt lat="48.56721" lon="7.21841">
        <ele>826.1</ele>
        <time>2020-11-28T12:23:42Z</time>
      </trkpt>
      <trkpt lat="48.56717" lon="7.21825">
        <ele>796.3</ele>
        <time>2020-11-28T12:23:44Z</time>
      </trkpt>
      <trkpt lat="48.56714" lon="7.21809">
        <ele>789</ele>
        <time>2020-11-28T12:23:46Z</time>
      </trkpt>
      <trkpt lat="48.56711" lon="7.21795">
        <ele>795.3</ele>
        <time>2020-11-28T12:23:48Z</time>
      </trkpt>
      <trkpt lat="48.56709" lon="7.21779">
        <ele>803.6</ele>
        <time>2020-11-28T12:23:50Z</time>
      </trkpt>
      <trkpt lat="48.56707" lon="7.21763">
        <ele>811.3</ele>
        <time>2020-11-28T12:23:52Z</time>
      </trkpt>
      <trkpt lat="48.56703" lon="7.21748">
        <ele>817.6</ele>
        <time>2020-11-28T12:23:54Z</time>
      </trkpt>
      <trkpt lat="48.56699" lon="7.21732">
        <ele>824.8</ele>
        <time>2020-11-28T12:23:56Z</time>
      </trkpt>
      <trkpt lat="48.56697" lon="7.21716">
        <ele>830</ele>
        <time>2020-11-28T12:23:58Z</time>
      </trkpt>
      <trkpt lat="48.56695" lon="7.21701">
        <ele>834.2</ele>
        <time>2020-11-28T12:24:00Z</time>
      </trkpt>
      <trkpt lat="48.56693" lon="7.21685">
        <ele>837.8</ele>
        <time>2020-11-28T12:24:02Z</time>
      </trkpt>
      <trkpt lat="48.5669" lon="7.21668">
        <ele>840.2</ele>
        <time>2020-11-28T12:24:04Z</time>
      </trkpt>
      <trkpt lat="48.56687" lon="7.21651">
        <ele>807.7</ele>
        <time>2020-11-28T12:24:06Z</time>
      </trkpt>
      <trkpt lat="48.56684" lon="7.21636">
        <ele>808.1</ele>
        <time>2020-11-28T12:24:08Z</time>
      </trkpt>
      <trkpt lat="48.56681" lon="7.21621">
        <ele>810.9</ele>
        <time>2020-11-28T12:24:10Z</time>
      </trkpt>
      <trkpt lat="48.56676" lon="7.21606">
        <ele>787</ele>
        <time>2020-11-28T12:24:12Z</time>
      </trkpt>
      <trkpt lat="48.56673" lon="7.21591">
        <ele>790.9</ele>
        <time>2020-11-28T12:24:14Z</time>
      </trkpt>
      <trkpt lat="48.5667" lon="7.21578">
        <ele>797.6</ele>
        <time>2020-11-28T12:24:16Z</time>
      </trkpt>
      <trkpt lat="48.56667" lon="7.21565">
        <ele>771</ele>
        <time>2020-11-28T12:24:18Z</time>
      </trkpt>
      <trkpt lat="48.56665" lon="7.21552">
        <ele>784.2</ele>
        <time>2020-11-28T12:24:20Z</time>
      </trkpt>
      <trkpt lat="48.56661" lon="7.21539">
        <ele>772.5</ele>
        <time>2020-11-28T12:24:22Z</time>
      </trkpt>
      <trkpt lat="48.56656" lon="7.21527">
        <ele>780.8</ele>
        <time>2020-11-28T12:24:24Z</time>
      </trkpt>
      <trkpt lat="48.56651" lon="7.21513">
        <ele>788.3</ele>
        <time>2020-11-28T12:24:26Z</time>
      </trkpt>
      <trkpt lat="48.56647" lon="7.21501">
        <ele>796.3</ele>
        <time>2020-11-28T12:24:28Z</time>
      </trkpt>
      <trkpt lat="48.56642" lon="7.21489">
        <ele>805.3</ele>
        <time>2020-11-28T12:24:30Z</time>
      </trkpt>
      <trkpt lat="48.56637" lon="7.21475">
        <ele>789.3</ele>
        <time>2020-11-28T12:24:32Z</time>
      </trkpt>
      <trkpt lat="48.56632" lon="7.21462">
        <ele>798.2</ele>
        <time>2020-11-28T12:24:34Z</time>
      </trkpt>
      <trkpt lat="48.56628" lon="7.21449">
        <ele>768.9</ele>
        <time>2020-11-28T12:24:36Z</time>
      </trkpt>
      <trkpt lat="48.56625" lon="7.21435">
        <ele>777.7</ele>
        <time>2020-11-28T12:24:38Z</time>
      </trkpt>
      <trkpt lat="48.56623" lon="7.2142">
        <ele>779.5</ele>
        <time>2020-11-28T12:24:40Z</time>
      </trkpt>
      <trkpt lat="48.5662" lon="7.21405">
        <ele>789.5</ele>
        <time>2020-11-28T12:24:42Z</time>
      </trkpt>
      <trkpt lat="48.56617" lon="7.21391">
        <ele>802</ele>
        <time>2020-11-28T12:24:44Z</time>
      </trkpt>
      <trkpt lat="48.56614" lon="7.21377">
        <ele>813.2</ele>
        <time>2020-11-28T12:24:46Z</time>
      </trkpt>
      <trkpt lat="48.56611" lon="7.21363">
        <ele>821.9</ele>
        <time>2020-11-28T12:24:48Z</time>
      </trkpt>
      <trkpt lat="48.56609" lon="7.21348">
        <ele>828.1</ele>
        <time>2020-11-28T12:24:50Z</time>
      </trkpt>
      <trkpt lat="48.56607" lon="7.21332">
        <ele>833.7</ele>
        <time>2020-11-28T12:24:52Z</time>
      </trkpt>
      <trkpt lat="48.56606" lon="7.21317">
        <ele>837.7</ele>
        <time>2020-11-28T12:24:54Z</time>
      </trkpt>
      <trkpt lat="48.56606" lon="7.21301">
        <ele>839.3</ele>
        <time>2020-11-28T12:24:56Z</time>
      </trkpt>
      <trkpt lat="48.56605" lon="7.21284">
        <ele>841.8</ele>
        <time>2020-11-28T12:24:58Z</time>
      </trkpt>
      <trkpt lat="48.56601" lon="7.21267">
        <ele>842.3</ele>
        <time>2020-11-28T12:25:00Z</time>
      </trkpt>
      <trkpt lat="48.56598" lon="7.2125">
        <ele>843.3</ele>
        <time>2020-11-28T12:25:02Z</time>
      </trkpt>
      <trkpt lat="48.56596" lon="7.21233">
        <ele>843.9</ele>
        <time>2020-11-28T12:25:04Z</time>
      </trkpt>
      <trkpt lat="48.56592" lon="7.21215">
        <ele>845</ele>
        <time>2020-11-28T12:25:06Z</time>
      </trkpt>
      <trkpt lat="48.56589" lon="7.21196">
        <ele>845.3</ele>
        <time>2020-11-28T12:25:08Z</time>
      </trkpt>
      <trkpt lat="48.56586" lon="7.21179">
        <ele>845.1</ele>
        <time>2020-11-28T12:25:10Z</time>
      </trkpt>
      <trkpt lat="48.56582" lon="7.21162">
        <ele>844.2</ele>
        <time>2020-11-28T12:25:12Z</time>
      </trkpt>
      <trkpt lat="48.56577" lon="7.21145">
        <ele>843.1</ele>
        <time>2020-11-28T12:25:14Z</time>
      </trkpt>
      <trkpt lat="48.56573" lon="7.21127">
        <ele>842.8</ele>
        <time>2020-11-28T12:25:16Z</time>
      </trkpt>
      <trkpt lat="48.56569" lon="7.21108">
        <ele>842.7</ele>
        <time>2020-11-28T12:25:18Z</time>
      </trkpt>
      <trkpt lat="48.56566" lon="7.2109">
        <ele>842.3</ele>
        <time>2020-11-28T12:25:20Z</time>
      </trkpt>
      <trkpt lat="48.56562" lon="7.2107">
        <ele>842</ele>
        <time>2020-11-28T12:25:22Z</time>
      </trkpt>
      <trkpt lat="48.56556" lon="7.21051">
        <ele>841.8</ele>
        <time>2020-11-28T12:25:24Z</time>
      </trkpt>
      <trkpt lat="48.56548" lon="7.21033">
        <ele>841.2</ele>
        <time>2020-11-28T12:25:26Z</time>
      </trkpt>
      <trkpt lat="48.5654" lon="7.21016">
        <ele>840.3</ele>
        <time>2020-11-28T12:25:28Z</time>
      </trkpt>
      <trkpt lat="48.56529" lon="7.21001">
        <ele>839.1</ele>
        <time>2020-11-28T12:25:30Z</time>
      </trkpt>
      <trkpt lat="48.56518" lon="7.20987">
        <ele>838.2</ele>
        <time>2020-11-28T12:25:32Z</time>
      </trkpt>
      <trkpt lat="48.56507" lon="7.20972">
        <ele>837.7</ele>
        <time>2020-11-28T12:25:34Z</time>
      </trkpt>
      <trkpt lat="48.56497" lon="7.20961">
        <ele>837.2</ele>
        <time>2020-11-28T12:25:36Z</time>
      </trkpt>
      <trkpt lat="48.56487" lon="7.2095">
        <ele>836.7</ele>
        <time>2020-11-28T12:25:38Z</time>
      </trkpt>
      <trkpt lat="48.56475" lon="7.20942">
        <ele>836.4</ele>
        <time>2020-11-28T12:25:40Z</time>
      </trkpt>
      <trkpt lat="48.56457" lon="7.20934">
        <ele>836.4</ele>
        <time>2020-11-28T12:25:43Z</time>
      </trkpt>
      <trkpt lat="48.56445" lon="7.20928">
        <ele>836.9</ele>
        <time>2020-11-28T12:25:45Z</time>
      </trkpt>
      <trkpt lat="48.56432" lon="7.20923">
        <ele>838</ele>
        <time>2020-11-28T12:25:47Z</time>
      </trkpt>
      <trkpt lat="48.56419" lon="7.20921">
        <ele>839.1</ele>
        <time>2020-11-28T12:25:49Z</time>
      </trkpt>
      <trkpt lat="48.56405" lon="7.20921">
        <ele>839.8</ele>
        <time>2020-11-28T12:25:51Z</time>
      </trkpt>
      <trkpt lat="48.56391" lon="7.20921">
        <ele>840.6</ele>
        <time>2020-11-28T12:25:53Z</time>
      </trkpt>
      <trkpt lat="48.56378" lon="7.20921">
        <ele>841.1</ele>
        <time>2020-11-28T12:25:55Z</time>
      </trkpt>
      <trkpt lat="48.56364" lon="7.20922">
        <ele>841.4</ele>
        <time>2020-11-28T12:25:57Z</time>
      </trkpt>
      <trkpt lat="48.56352" lon="7.20923">
        <ele>841.1</ele>
        <time>2020-11-28T12:25:59Z</time>
      </trkpt>
      <trkpt lat="48.56339" lon="7.20925">
        <ele>840.6</ele>
        <time>2020-11-28T12:26:01Z</time>
      </trkpt>
      <trkpt lat="48.56328" lon="7.20926">
        <ele>840.1</ele>
        <time>2020-11-28T12:26:03Z</time>
      </trkpt>
      <trkpt lat="48.56317" lon="7.20927">
        <ele>840.1</ele>
        <time>2020-11-28T12:26:05Z</time>
      </trkpt>
      <trkpt lat="48.56306" lon="7.2093">
        <ele>840</ele>
        <time>2020-11-28T12:26:07Z</time>
      </trkpt>
      <trkpt lat="48.56295" lon="7.20932">
        <ele>839.8</ele>
        <time>2020-11-28T12:26:09Z</time>
      </trkpt>
      <trkpt lat="48.56284" lon="7.20937">
        <ele>839.3</ele>
        <time>2020-11-28T12:26:11Z</time>
      </trkpt>
      <trkpt lat="48.56272" lon="7.2094">
        <ele>838.9</ele>
        <time>2020-11-28T12:26:13Z</time>
      </trkpt>
      <trkpt lat="48.56262" lon="7.20941">
        <ele>839.1</ele>
        <time>2020-11-28T12:26:15Z</time>
      </trkpt>
      <trkpt lat="48.56252" lon="7.2094">
        <ele>838.6</ele>
        <time>2020-11-28T12:26:17Z</time>
      </trkpt>
      <trkpt lat="48.56242" lon="7.2094">
        <ele>838.6</ele>
        <time>2020-11-28T12:26:19Z</time>
      </trkpt>
      <trkpt lat="48.56232" lon="7.20941">
        <ele>838.6</ele>
        <time>2020-11-28T12:26:21Z</time>
      </trkpt>
      <trkpt lat="48.56221" lon="7.20943">
        <ele>838.2</ele>
        <time>2020-11-28T12:26:23Z</time>
      </trkpt>
      <trkpt lat="48.56211" lon="7.20944">
        <ele>838.7</ele>
        <time>2020-11-28T12:26:25Z</time>
      </trkpt>
      <trkpt lat="48.56202" lon="7.20943">
        <ele>838.9</ele>
        <time>2020-11-28T12:26:27Z</time>
      </trkpt>
      <trkpt lat="48.56193" lon="7.20942">
        <ele>839.3</ele>
        <time>2020-11-28T12:26:29Z</time>
      </trkpt>
      <trkpt lat="48.56183" lon="7.20941">
        <ele>840.3</ele>
        <time>2020-11-28T12:26:31Z</time>
      </trkpt>
      <trkpt lat="48.56172" lon="7.20941">
        <ele>840.4</ele>
        <time>2020-11-28T12:26:33Z</time>
      </trkpt>
      <trkpt lat="48.56162" lon="7.20942">
        <ele>840.6</ele>
        <time>2020-11-28T12:26:35Z</time>
      </trkpt>
      <trkpt lat="48.56153" lon="7.20944">
        <ele>840.5</ele>
        <time>2020-11-28T12:26:37Z</time>
      </trkpt>
      <trkpt lat="48.56144" lon="7.20946">
        <ele>840.7</ele>
        <time>2020-11-28T12:26:39Z</time>
      </trkpt>
      <trkpt lat="48.56135" lon="7.20947">
        <ele>840.2</ele>
        <time>2020-11-28T12:26:41Z</time>
      </trkpt>
      <trkpt lat="48.56126" lon="7.20948">
        <ele>840.4</ele>
        <time>2020-11-28T12:26:43Z</time>
      </trkpt>
      <trkpt lat="48.56118" lon="7.2095">
        <ele>840.9</ele>
        <time>2020-11-28T12:26:45Z</time>
      </trkpt>
      <trkpt lat="48.56109" lon="7.2095">
        <ele>840.8</ele>
        <time>2020-11-28T12:26:47Z</time>
      </trkpt>
      <trkpt lat="48.56099" lon="7.2095">
        <ele>841</ele>
        <time>2020-11-28T12:26:49Z</time>
      </trkpt>
      <trkpt lat="48.56089" lon="7.20952">
        <ele>841.4</ele>
        <time>2020-11-28T12:26:51Z</time>
      </trkpt>
      <trkpt lat="48.5608" lon="7.20951">
        <ele>841</ele>
        <time>2020-11-28T12:26:53Z</time>
      </trkpt>
      <trkpt lat="48.56073" lon="7.20953">
        <ele>840.7</ele>
        <time>2020-11-28T12:26:55Z</time>
      </trkpt>
      <trkpt lat="48.56063" lon="7.20958">
        <ele>840.4</ele>
        <time>2020-11-28T12:26:57Z</time>
      </trkpt>
      <trkpt lat="48.56053" lon="7.20964">
        <ele>840.4</ele>
        <time>2020-11-28T12:26:59Z</time>
      </trkpt>
      <trkpt lat="48.56044" lon="7.20968">
        <ele>841.3</ele>
        <time>2020-11-28T12:27:01Z</time>
      </trkpt>
      <trkpt lat="48.56035" lon="7.20973">
        <ele>841.7</ele>
        <time>2020-11-28T12:27:03Z</time>
      </trkpt>
      <trkpt lat="48.56023" lon="7.20982">
        <ele>841.5</ele>
        <time>2020-11-28T12:27:06Z</time>
      </trkpt>
      <trkpt lat="48.56014" lon="7.20987">
        <ele>841.3</ele>
        <time>2020-11-28T12:27:08Z</time>
      </trkpt>
      <trkpt lat="48.56006" lon="7.2099">
        <ele>841.1</ele>
        <time>2020-11-28T12:27:10Z</time>
      </trkpt>
      <trkpt lat="48.55999" lon="7.20996">
        <ele>840.4</ele>
        <time>2020-11-28T12:27:12Z</time>
      </trkpt>
      <trkpt lat="48.55991" lon="7.21">
        <ele>840</ele>
        <time>2020-11-28T12:27:14Z</time>
      </trkpt>
      <trkpt lat="48.55983" lon="7.21007">
        <ele>839.3</ele>
        <time>2020-11-28T12:27:16Z</time>
      </trkpt>
      <trkpt lat="48.55975" lon="7.21012">
        <ele>838.6</ele>
        <time>2020-11-28T12:27:18Z</time>
      </trkpt>
      <trkpt lat="48.55969" lon="7.21016">
        <ele>837.4</ele>
        <time>2020-11-28T12:27:20Z</time>
      </trkpt>
      <trkpt lat="48.55963" lon="7.21021">
        <ele>837.3</ele>
        <time>2020-11-28T12:27:22Z</time>
      </trkpt>
      <trkpt lat="48.55957" lon="7.21026">
        <ele>837.7</ele>
        <time>2020-11-28T12:27:24Z</time>
      </trkpt>
      <trkpt lat="48.55953" lon="7.21032">
        <ele>837.8</ele>
        <time>2020-11-28T12:27:26Z</time>
      </trkpt>
      <trkpt lat="48.55948" lon="7.21039">
        <ele>837.8</ele>
        <time>2020-11-28T12:27:28Z</time>
      </trkpt>
      <trkpt lat="48.55944" lon="7.21047">
        <ele>837.9</ele>
        <time>2020-11-28T12:27:30Z</time>
      </trkpt>
      <trkpt lat="48.55939" lon="7.21054">
        <ele>838.1</ele>
        <time>2020-11-28T12:27:32Z</time>
      </trkpt>
      <trkpt lat="48.55935" lon="7.21061">
        <ele>837.7</ele>
        <time>2020-11-28T12:27:34Z</time>
      </trkpt>
      <trkpt lat="48.55932" lon="7.21067">
        <ele>837.7</ele>
        <time>2020-11-28T12:27:36Z</time>
      </trkpt>
      <trkpt lat="48.55929" lon="7.21073">
        <ele>837.9</ele>
        <time>2020-11-28T12:27:38Z</time>
      </trkpt>
      <trkpt lat="48.55927" lon="7.2108">
        <ele>838.1</ele>
        <time>2020-11-28T12:27:41Z</time>
      </trkpt>
      <trkpt lat="48.55926" lon="7.21087">
        <ele>816</ele>
        <time>2020-11-28T12:28:15Z</time>
      </trkpt>
      <trkpt lat="48.55926" lon="7.21095">
        <ele>818.3</ele>
        <time>2020-11-28T12:28:19Z</time>
      </trkpt>
      <trkpt lat="48.55923" lon="7.21104">
        <ele>824</ele>
        <time>2020-11-28T12:28:22Z</time>
      </trkpt>
      <trkpt lat="48.5592" lon="7.2111">
        <ele>826.5</ele>
        <time>2020-11-28T12:28:24Z</time>
      </trkpt>
      <trkpt lat="48.55917" lon="7.21117">
        <ele>829.2</ele>
        <time>2020-11-28T12:28:26Z</time>
      </trkpt>
      <trkpt lat="48.55914" lon="7.21124">
        <ele>831.5</ele>
        <time>2020-11-28T12:28:28Z</time>
      </trkpt>
      <trkpt lat="48.55912" lon="7.21131">
        <ele>833.5</ele>
        <time>2020-11-28T12:28:30Z</time>
      </trkpt>
      <trkpt lat="48.55909" lon="7.21138">
        <ele>835.2</ele>
        <time>2020-11-28T12:28:32Z</time>
      </trkpt>
      <trkpt lat="48.55908" lon="7.21145">
        <ele>837.1</ele>
        <time>2020-11-28T12:28:34Z</time>
      </trkpt>
      <trkpt lat="48.55905" lon="7.21151">
        <ele>818.5</ele>
        <time>2020-11-28T12:28:36Z</time>
      </trkpt>
      <trkpt lat="48.55903" lon="7.21158">
        <ele>819.4</ele>
        <time>2020-11-28T12:28:38Z</time>
      </trkpt>
      <trkpt lat="48.559" lon="7.21165">
        <ele>820.1</ele>
        <time>2020-11-28T12:28:40Z</time>
      </trkpt>
      <trkpt lat="48.55897" lon="7.21171">
        <ele>825</ele>
        <time>2020-11-28T12:28:42Z</time>
      </trkpt>
      <trkpt lat="48.55893" lon="7.21177">
        <ele>828.7</ele>
        <time>2020-11-28T12:28:44Z</time>
      </trkpt>
      <trkpt lat="48.55889" lon="7.21182">
        <ele>831.3</ele>
        <time>2020-11-28T12:28:46Z</time>
      </trkpt>
      <trkpt lat="48.55885" lon="7.21187">
        <ele>833.6</ele>
        <time>2020-11-28T12:28:48Z</time>
      </trkpt>
      <trkpt lat="48.55881" lon="7.21197">
        <ele>836.2</ele>
        <time>2020-11-28T12:28:51Z</time>
      </trkpt>
      <trkpt lat="48.55877" lon="7.21202">
        <ele>837.6</ele>
        <time>2020-11-28T12:28:53Z</time>
      </trkpt>
      <trkpt lat="48.55873" lon="7.21209">
        <ele>839</ele>
        <time>2020-11-28T12:28:56Z</time>
      </trkpt>
      <trkpt lat="48.55869" lon="7.21217">
        <ele>840.8</ele>
        <time>2020-11-28T12:28:59Z</time>
      </trkpt>
      <trkpt lat="48.55865" lon="7.21223">
        <ele>841.1</ele>
        <time>2020-11-28T12:29:01Z</time>
      </trkpt>
      <trkpt lat="48.5586" lon="7.21231">
        <ele>841.1</ele>
        <time>2020-11-28T12:29:03Z</time>
      </trkpt>
      <trkpt lat="48.55856" lon="7.21237">
        <ele>840.8</ele>
        <time>2020-11-28T12:29:05Z</time>
      </trkpt>
      <trkpt lat="48.55849" lon="7.21249">
        <ele>840.7</ele>
        <time>2020-11-28T12:29:08Z</time>
      </trkpt>
      <trkpt lat="48.55841" lon="7.21257">
        <ele>840.2</ele>
        <time>2020-11-28T12:29:10Z</time>
      </trkpt>
      <trkpt lat="48.55833" lon="7.21264">
        <ele>840.4</ele>
        <time>2020-11-28T12:29:12Z</time>
      </trkpt>
      <trkpt lat="48.55821" lon="7.21267">
        <ele>839.1</ele>
        <time>2020-11-28T12:29:15Z</time>
      </trkpt>
      <trkpt lat="48.55816" lon="7.21258">
        <ele>838.5</ele>
        <time>2020-11-28T12:29:17Z</time>
      </trkpt>
      <trkpt lat="48.55812" lon="7.21246">
        <ele>838.3</ele>
        <time>2020-11-28T12:29:19Z</time>
      </trkpt>
      <trkpt lat="48.55809" lon="7.21234">
        <ele>838.3</ele>
        <time>2020-11-28T12:29:21Z</time>
      </trkpt>
      <trkpt lat="48.55806" lon="7.21219">
        <ele>838.4</ele>
        <time>2020-11-28T12:29:23Z</time>
      </trkpt>
      <trkpt lat="48.55803" lon="7.21204">
        <ele>838.7</ele>
        <time>2020-11-28T12:29:25Z</time>
      </trkpt>
      <trkpt lat="48.55799" lon="7.21189">
        <ele>839.3</ele>
        <time>2020-11-28T12:29:27Z</time>
      </trkpt>
      <trkpt lat="48.55795" lon="7.21175">
        <ele>839.6</ele>
        <time>2020-11-28T12:29:29Z</time>
      </trkpt>
      <trkpt lat="48.55791" lon="7.21161">
        <ele>840.2</ele>
        <time>2020-11-28T12:29:31Z</time>
      </trkpt>
      <trkpt lat="48.55787" lon="7.21145">
        <ele>840.5</ele>
        <time>2020-11-28T12:29:33Z</time>
      </trkpt>
      <trkpt lat="48.55783" lon="7.2113">
        <ele>840.5</ele>
        <time>2020-11-28T12:29:35Z</time>
      </trkpt>
      <trkpt lat="48.55776" lon="7.21114">
        <ele>841.1</ele>
        <time>2020-11-28T12:29:37Z</time>
      </trkpt>
      <trkpt lat="48.55768" lon="7.211">
        <ele>841.3</ele>
        <time>2020-11-28T12:29:39Z</time>
      </trkpt>
      <trkpt lat="48.55758" lon="7.21087">
        <ele>841.9</ele>
        <time>2020-11-28T12:29:41Z</time>
      </trkpt>
      <trkpt lat="48.55741" lon="7.21075">
        <ele>842.2</ele>
        <time>2020-11-28T12:29:44Z</time>
      </trkpt>
      <trkpt lat="48.5573" lon="7.21071">
        <ele>842.6</ele>
        <time>2020-11-28T12:29:46Z</time>
      </trkpt>
      <trkpt lat="48.55718" lon="7.21068">
        <ele>842.5</ele>
        <time>2020-11-28T12:29:48Z</time>
      </trkpt>
      <trkpt lat="48.55703" lon="7.2106">
        <ele>842.4</ele>
        <time>2020-11-28T12:29:51Z</time>
      </trkpt>
      <trkpt lat="48.55697" lon="7.21041">
        <ele>842.3</ele>
        <time>2020-11-28T12:29:54Z</time>
      </trkpt>
      <trkpt lat="48.55698" lon="7.21028">
        <ele>842.5</ele>
        <time>2020-11-28T12:29:56Z</time>
      </trkpt>
      <trkpt lat="48.55702" lon="7.21018">
        <ele>843</ele>
        <time>2020-11-28T12:29:58Z</time>
      </trkpt>
      <trkpt lat="48.5571" lon="7.21009">
        <ele>843.7</ele>
        <time>2020-11-28T12:30:00Z</time>
      </trkpt>
      <trkpt lat="48.55721" lon="7.20996">
        <ele>844.3</ele>
        <time>2020-11-28T12:30:03Z</time>
      </trkpt>
      <trkpt lat="48.5573" lon="7.20982">
        <ele>844.7</ele>
        <time>2020-11-28T12:30:06Z</time>
      </trkpt>
      <trkpt lat="48.5574" lon="7.20968">
        <ele>845.2</ele>
        <time>2020-11-28T12:30:09Z</time>
      </trkpt>
      <trkpt lat="48.55749" lon="7.20961">
        <ele>846.1</ele>
        <time>2020-11-28T12:30:11Z</time>
      </trkpt>
      <trkpt lat="48.55757" lon="7.20952">
        <ele>846.4</ele>
        <time>2020-11-28T12:30:13Z</time>
      </trkpt>
      <trkpt lat="48.55763" lon="7.20942">
        <ele>847</ele>
        <time>2020-11-28T12:30:15Z</time>
      </trkpt>
      <trkpt lat="48.55769" lon="7.20931">
        <ele>846.8</ele>
        <time>2020-11-28T12:30:17Z</time>
      </trkpt>
      <trkpt lat="48.55774" lon="7.20918">
        <ele>847.1</ele>
        <time>2020-11-28T12:30:19Z</time>
      </trkpt>
      <trkpt lat="48.55778" lon="7.20907">
        <ele>846.6</ele>
        <time>2020-11-28T12:30:21Z</time>
      </trkpt>
      <trkpt lat="48.55782" lon="7.20894">
        <ele>846.6</ele>
        <time>2020-11-28T12:30:23Z</time>
      </trkpt>
      <trkpt lat="48.55785" lon="7.20882">
        <ele>846.1</ele>
        <time>2020-11-28T12:30:25Z</time>
      </trkpt>
      <trkpt lat="48.55787" lon="7.20873">
        <ele>845.8</ele>
        <time>2020-11-28T12:30:27Z</time>
      </trkpt>
      <trkpt lat="48.55788" lon="7.20865">
        <ele>845.9</ele>
        <time>2020-11-28T12:30:35Z</time>
      </trkpt>
      <trkpt lat="48.55792" lon="7.2086">
        <ele>852.7</ele>
        <time>2020-11-28T12:32:17Z</time>
      </trkpt>
      <trkpt lat="48.55794" lon="7.20854">
        <ele>851.7</ele>
        <time>2020-11-28T12:32:21Z</time>
      </trkpt>
      <trkpt lat="48.55794" lon="7.20847">
        <ele>850.7</ele>
        <time>2020-11-28T12:32:25Z</time>
      </trkpt>
      <trkpt lat="48.55793" lon="7.20838">
        <ele>850.5</ele>
        <time>2020-11-28T12:32:29Z</time>
      </trkpt>
      <trkpt lat="48.55792" lon="7.20831">
        <ele>849.9</ele>
        <time>2020-11-28T12:32:32Z</time>
      </trkpt>
      <trkpt lat="48.55792" lon="7.20823">
        <ele>849.3</ele>
        <time>2020-11-28T12:32:36Z</time>
      </trkpt>
      <trkpt lat="48.55792" lon="7.20815">
        <ele>848.6</ele>
        <time>2020-11-28T12:32:40Z</time>
      </trkpt>
      <trkpt lat="48.55792" lon="7.20807">
        <ele>847.9</ele>
        <time>2020-11-28T12:32:44Z</time>
      </trkpt>
      <trkpt lat="48.55792" lon="7.20799">
        <ele>847.4</ele>
        <time>2020-11-28T12:32:48Z</time>
      </trkpt>
      <trkpt lat="48.55793" lon="7.20791">
        <ele>847.1</ele>
        <time>2020-11-28T12:32:52Z</time>
      </trkpt>
      <trkpt lat="48.55795" lon="7.20783">
        <ele>847</ele>
        <time>2020-11-28T12:32:56Z</time>
      </trkpt>
      <trkpt lat="48.55793" lon="7.20778">
        <ele>847</ele>
        <time>2020-11-28T12:33:11Z</time>
      </trkpt>
      <trkpt lat="48.55788" lon="7.20777">
        <ele>851.8</ele>
        <time>2020-11-28T12:33:51Z</time>
      </trkpt>
      <trkpt lat="48.55783" lon="7.20772">
        <ele>851.3</ele>
        <time>2020-11-28T12:34:10Z</time>
      </trkpt>
      <trkpt lat="48.55781" lon="7.20763">
        <ele>850.2</ele>
        <time>2020-11-28T12:34:13Z</time>
      </trkpt>
      <trkpt lat="48.5578" lon="7.20754">
        <ele>849.3</ele>
        <time>2020-11-28T12:34:15Z</time>
      </trkpt>
      <trkpt lat="48.55779" lon="7.20745">
        <ele>847</ele>
        <time>2020-11-28T12:34:17Z</time>
      </trkpt>
      <trkpt lat="48.55777" lon="7.20735">
        <ele>846.8</ele>
        <time>2020-11-28T12:34:19Z</time>
      </trkpt>
      <trkpt lat="48.55774" lon="7.20725">
        <ele>846</ele>
        <time>2020-11-28T12:34:21Z</time>
      </trkpt>
      <trkpt lat="48.5577" lon="7.20717">
        <ele>845.8</ele>
        <time>2020-11-28T12:34:23Z</time>
      </trkpt>
      <trkpt lat="48.55768" lon="7.2071">
        <ele>845.3</ele>
        <time>2020-11-28T12:34:26Z</time>
      </trkpt>
      <trkpt lat="48.55767" lon="7.20703">
        <ele>845.1</ele>
        <time>2020-11-28T12:34:35Z</time>
      </trkpt>
      <trkpt lat="48.55763" lon="7.20699">
        <ele>845</ele>
        <time>2020-11-28T12:34:38Z</time>
      </trkpt>
      <trkpt lat="48.55757" lon="7.20699">
        <ele>844.5</ele>
        <time>2020-11-28T12:34:41Z</time>
      </trkpt>
      <trkpt lat="48.55751" lon="7.20698">
        <ele>845</ele>
        <time>2020-11-28T12:34:44Z</time>
      </trkpt>
      <trkpt lat="48.55744" lon="7.20695">
        <ele>845.5</ele>
        <time>2020-11-28T12:34:47Z</time>
      </trkpt>
      <trkpt lat="48.55739" lon="7.20694">
        <ele>846</ele>
        <time>2020-11-28T12:34:49Z</time>
      </trkpt>
      <trkpt lat="48.55733" lon="7.20693">
        <ele>846.4</ele>
        <time>2020-11-28T12:34:51Z</time>
      </trkpt>
      <trkpt lat="48.55728" lon="7.20693">
        <ele>846.9</ele>
        <time>2020-11-28T12:34:53Z</time>
      </trkpt>
      <trkpt lat="48.55722" lon="7.20692">
        <ele>822.4</ele>
        <time>2020-11-28T12:34:56Z</time>
      </trkpt>
      <trkpt lat="48.55717" lon="7.20692">
        <ele>824.7</ele>
        <time>2020-11-28T12:34:58Z</time>
      </trkpt>
      <trkpt lat="48.55712" lon="7.20692">
        <ele>823.6</ele>
        <time>2020-11-28T12:35:00Z</time>
      </trkpt>
      <trkpt lat="48.55707" lon="7.20691">
        <ele>821.7</ele>
        <time>2020-11-28T12:35:02Z</time>
      </trkpt>
      <trkpt lat="48.55702" lon="7.20689">
        <ele>822.8</ele>
        <time>2020-11-28T12:35:04Z</time>
      </trkpt>
      <trkpt lat="48.55697" lon="7.20687">
        <ele>829.7</ele>
        <time>2020-11-28T12:35:06Z</time>
      </trkpt>
      <trkpt lat="48.55692" lon="7.20685">
        <ele>833.7</ele>
        <time>2020-11-28T12:35:08Z</time>
      </trkpt>
      <trkpt lat="48.55686" lon="7.20685">
        <ele>837.6</ele>
        <time>2020-11-28T12:35:10Z</time>
      </trkpt>
      <trkpt lat="48.5568" lon="7.20684">
        <ele>840.8</ele>
        <time>2020-11-28T12:35:12Z</time>
      </trkpt>
      <trkpt lat="48.55675" lon="7.20684">
        <ele>843.1</ele>
        <time>2020-11-28T12:35:14Z</time>
      </trkpt>
      <trkpt lat="48.5567" lon="7.20684">
        <ele>845</ele>
        <time>2020-11-28T12:35:16Z</time>
      </trkpt>
      <trkpt lat="48.55666" lon="7.20683">
        <ele>846.4</ele>
        <time>2020-11-28T12:35:18Z</time>
      </trkpt>
      <trkpt lat="48.55661" lon="7.20682">
        <ele>847.5</ele>
        <time>2020-11-28T12:35:20Z</time>
      </trkpt>
      <trkpt lat="48.55656" lon="7.20682">
        <ele>848.3</ele>
        <time>2020-11-28T12:35:22Z</time>
      </trkpt>
      <trkpt lat="48.5565" lon="7.20681">
        <ele>848.7</ele>
        <time>2020-11-28T12:35:24Z</time>
      </trkpt>
      <trkpt lat="48.55645" lon="7.2068">
        <ele>849.4</ele>
        <time>2020-11-28T12:35:26Z</time>
      </trkpt>
      <trkpt lat="48.55641" lon="7.20679">
        <ele>850</ele>
        <time>2020-11-28T12:35:28Z</time>
      </trkpt>
      <trkpt lat="48.55635" lon="7.20677">
        <ele>850.8</ele>
        <time>2020-11-28T12:35:31Z</time>
      </trkpt>
      <trkpt lat="48.55629" lon="7.20676">
        <ele>847</ele>
        <time>2020-11-28T12:35:34Z</time>
      </trkpt>
      <trkpt lat="48.55624" lon="7.20676">
        <ele>847.2</ele>
        <time>2020-11-28T12:35:37Z</time>
      </trkpt>
      <trkpt lat="48.55617" lon="7.20675">
        <ele>849.3</ele>
        <time>2020-11-28T12:35:40Z</time>
      </trkpt>
      <trkpt lat="48.5561" lon="7.20673">
        <ele>851</ele>
        <time>2020-11-28T12:35:43Z</time>
      </trkpt>
      <trkpt lat="48.55604" lon="7.20672">
        <ele>852.8</ele>
        <time>2020-11-28T12:35:46Z</time>
      </trkpt>
      <trkpt lat="48.55599" lon="7.20671">
        <ele>854.3</ele>
        <time>2020-11-28T12:35:49Z</time>
      </trkpt>
      <trkpt lat="48.55594" lon="7.20669">
        <ele>851</ele>
        <time>2020-11-28T12:35:54Z</time>
      </trkpt>
      <trkpt lat="48.55589" lon="7.20669">
        <ele>853.6</ele>
        <time>2020-11-28T12:36:10Z</time>
      </trkpt>
      <trkpt lat="48.55585" lon="7.20667">
        <ele>853.9</ele>
        <time>2020-11-28T12:36:14Z</time>
      </trkpt>
      <trkpt lat="48.5558" lon="7.20666">
        <ele>854.5</ele>
        <time>2020-11-28T12:36:18Z</time>
      </trkpt>
      <trkpt lat="48.55575" lon="7.20666">
        <ele>854.5</ele>
        <time>2020-11-28T12:36:22Z</time>
      </trkpt>
      <trkpt lat="48.5557" lon="7.20665">
        <ele>854.1</ele>
        <time>2020-11-28T12:36:26Z</time>
      </trkpt>
      <trkpt lat="48.55565" lon="7.20664">
        <ele>854.2</ele>
        <time>2020-11-28T12:36:30Z</time>
      </trkpt>
      <trkpt lat="48.5556" lon="7.20662">
        <ele>854.6</ele>
        <time>2020-11-28T12:36:34Z</time>
      </trkpt>
      <trkpt lat="48.55554" lon="7.20662">
        <ele>854.4</ele>
        <time>2020-11-28T12:36:38Z</time>
      </trkpt>
      <trkpt lat="48.5555" lon="7.2066">
        <ele>855.1</ele>
        <time>2020-11-28T12:36:42Z</time>
      </trkpt>
      <trkpt lat="48.55545" lon="7.20657">
        <ele>855.7</ele>
        <time>2020-11-28T12:36:47Z</time>
      </trkpt>
      <trkpt lat="48.5554" lon="7.20654">
        <ele>856.3</ele>
        <time>2020-11-28T12:36:51Z</time>
      </trkpt>
      <trkpt lat="48.55535" lon="7.20653">
        <ele>845.9</ele>
        <time>2020-11-28T12:36:55Z</time>
      </trkpt>
      <trkpt lat="48.55529" lon="7.2065">
        <ele>841.1</ele>
        <time>2020-11-28T12:36:59Z</time>
      </trkpt>
      <trkpt lat="48.55525" lon="7.20648">
        <ele>846.8</ele>
        <time>2020-11-28T12:37:03Z</time>
      </trkpt>
      <trkpt lat="48.55521" lon="7.20643">
        <ele>860</ele>
        <time>2020-11-28T12:37:16Z</time>
      </trkpt>
      <trkpt lat="48.55516" lon="7.20639">
        <ele>861.3</ele>
        <time>2020-11-28T12:37:21Z</time>
      </trkpt>
      <trkpt lat="48.55512" lon="7.20637">
        <ele>861.8</ele>
        <time>2020-11-28T12:37:24Z</time>
      </trkpt>
      <trkpt lat="48.55507" lon="7.20633">
        <ele>863.1</ele>
        <time>2020-11-28T12:37:28Z</time>
      </trkpt>
      <trkpt lat="48.55503" lon="7.20629">
        <ele>863.7</ele>
        <time>2020-11-28T12:37:32Z</time>
      </trkpt>
      <trkpt lat="48.55498" lon="7.20626">
        <ele>865.1</ele>
        <time>2020-11-28T12:37:36Z</time>
      </trkpt>
      <trkpt lat="48.55493" lon="7.20623">
        <ele>866.4</ele>
        <time>2020-11-28T12:37:40Z</time>
      </trkpt>
      <trkpt lat="48.55489" lon="7.2062">
        <ele>865.9</ele>
        <time>2020-11-28T12:37:43Z</time>
      </trkpt>
      <trkpt lat="48.55485" lon="7.20617">
        <ele>866</ele>
        <time>2020-11-28T12:37:46Z</time>
      </trkpt>
      <trkpt lat="48.5548" lon="7.20613">
        <ele>865.4</ele>
        <time>2020-11-28T12:37:50Z</time>
      </trkpt>
      <trkpt lat="48.55475" lon="7.20609">
        <ele>864.7</ele>
        <time>2020-11-28T12:37:54Z</time>
      </trkpt>
      <trkpt lat="48.5547" lon="7.20605">
        <ele>865.3</ele>
        <time>2020-11-28T12:37:58Z</time>
      </trkpt>
      <trkpt lat="48.55468" lon="7.20599">
        <ele>866.6</ele>
        <time>2020-11-28T12:38:03Z</time>
      </trkpt>
      <trkpt lat="48.55465" lon="7.20593">
        <ele>868.6</ele>
        <time>2020-11-28T12:38:08Z</time>
      </trkpt>
      <trkpt lat="48.55461" lon="7.20589">
        <ele>870.9</ele>
        <time>2020-11-28T12:38:14Z</time>
      </trkpt>
      <trkpt lat="48.55457" lon="7.20586">
        <ele>872.2</ele>
        <time>2020-11-28T12:38:26Z</time>
      </trkpt>
      <trkpt lat="48.55453" lon="7.20581">
        <ele>872.4</ele>
        <time>2020-11-28T12:38:30Z</time>
      </trkpt>
      <trkpt lat="48.55448" lon="7.20578">
        <ele>873.2</ele>
        <time>2020-11-28T12:38:34Z</time>
      </trkpt>
      <trkpt lat="48.55444" lon="7.20572">
        <ele>873.9</ele>
        <time>2020-11-28T12:38:38Z</time>
      </trkpt>
      <trkpt lat="48.55439" lon="7.20567">
        <ele>874.3</ele>
        <time>2020-11-28T12:38:42Z</time>
      </trkpt>
      <trkpt lat="48.55434" lon="7.20563">
        <ele>874.9</ele>
        <time>2020-11-28T12:38:46Z</time>
      </trkpt>
      <trkpt lat="48.55431" lon="7.20557">
        <ele>861.8</ele>
        <time>2020-11-28T12:38:50Z</time>
      </trkpt>
      <trkpt lat="48.55427" lon="7.2055">
        <ele>863</ele>
        <time>2020-11-28T12:38:54Z</time>
      </trkpt>
      <trkpt lat="48.55424" lon="7.20543">
        <ele>866.6</ele>
        <time>2020-11-28T12:38:58Z</time>
      </trkpt>
      <trkpt lat="48.55422" lon="7.20536">
        <ele>870.7</ele>
        <time>2020-11-28T12:39:02Z</time>
      </trkpt>
      <trkpt lat="48.55419" lon="7.20529">
        <ele>873.6</ele>
        <time>2020-11-28T12:39:06Z</time>
      </trkpt>
      <trkpt lat="48.55418" lon="7.20522">
        <ele>875.2</ele>
        <time>2020-11-28T12:39:10Z</time>
      </trkpt>
      <trkpt lat="48.55416" lon="7.20515">
        <ele>875.9</ele>
        <time>2020-11-28T12:39:14Z</time>
      </trkpt>
      <trkpt lat="48.55417" lon="7.20506">
        <ele>876.1</ele>
        <time>2020-11-28T12:39:19Z</time>
      </trkpt>
      <trkpt lat="48.55416" lon="7.205">
        <ele>875.9</ele>
        <time>2020-11-28T12:39:23Z</time>
      </trkpt>
      <trkpt lat="48.55414" lon="7.20492">
        <ele>875.7</ele>
        <time>2020-11-28T12:39:30Z</time>
      </trkpt>
      <trkpt lat="48.55412" lon="7.20486">
        <ele>875</ele>
        <time>2020-11-28T12:39:51Z</time>
      </trkpt>
      <trkpt lat="48.55412" lon="7.20479">
        <ele>875.1</ele>
        <time>2020-11-28T12:39:55Z</time>
      </trkpt>
      <trkpt lat="48.5541" lon="7.20472">
        <ele>875.2</ele>
        <time>2020-11-28T12:40:01Z</time>
      </trkpt>
      <trkpt lat="48.55409" lon="7.20464">
        <ele>876.9</ele>
        <time>2020-11-28T12:40:14Z</time>
      </trkpt>
      <trkpt lat="48.55409" lon="7.20454">
        <ele>877.1</ele>
        <time>2020-11-28T12:40:17Z</time>
      </trkpt>
      <trkpt lat="48.55409" lon="7.20446">
        <ele>876.7</ele>
        <time>2020-11-28T12:40:19Z</time>
      </trkpt>
      <trkpt lat="48.55409" lon="7.20438">
        <ele>846.3</ele>
        <time>2020-11-28T12:40:21Z</time>
      </trkpt>
      <trkpt lat="48.55408" lon="7.20431">
        <ele>851.8</ele>
        <time>2020-11-28T12:40:23Z</time>
      </trkpt>
      <trkpt lat="48.55407" lon="7.20423">
        <ele>850.1</ele>
        <time>2020-11-28T12:40:25Z</time>
      </trkpt>
      <trkpt lat="48.55407" lon="7.20415">
        <ele>834.9</ele>
        <time>2020-11-28T12:40:27Z</time>
      </trkpt>
      <trkpt lat="48.55407" lon="7.20407">
        <ele>815.4</ele>
        <time>2020-11-28T12:40:29Z</time>
      </trkpt>
      <trkpt lat="48.55407" lon="7.20396">
        <ele>821.9</ele>
        <time>2020-11-28T12:40:32Z</time>
      </trkpt>
      <trkpt lat="48.55408" lon="7.20389">
        <ele>821</ele>
        <time>2020-11-28T12:40:34Z</time>
      </trkpt>
      <trkpt lat="48.5541" lon="7.2038">
        <ele>828.2</ele>
        <time>2020-11-28T12:40:36Z</time>
      </trkpt>
      <trkpt lat="48.5541" lon="7.20372">
        <ele>834.3</ele>
        <time>2020-11-28T12:40:38Z</time>
      </trkpt>
      <trkpt lat="48.55409" lon="7.20364">
        <ele>841.9</ele>
        <time>2020-11-28T12:40:40Z</time>
      </trkpt>
      <trkpt lat="48.55409" lon="7.20356">
        <ele>849.9</ele>
        <time>2020-11-28T12:40:42Z</time>
      </trkpt>
      <trkpt lat="48.55409" lon="7.20347">
        <ele>856.3</ele>
        <time>2020-11-28T12:40:44Z</time>
      </trkpt>
      <trkpt lat="48.55408" lon="7.20339">
        <ele>860.7</ele>
        <time>2020-11-28T12:40:46Z</time>
      </trkpt>
      <trkpt lat="48.55408" lon="7.20331">
        <ele>864.1</ele>
        <time>2020-11-28T12:40:48Z</time>
      </trkpt>
      <trkpt lat="48.55407" lon="7.20324">
        <ele>866.7</ele>
        <time>2020-11-28T12:40:50Z</time>
      </trkpt>
      <trkpt lat="48.55405" lon="7.20317">
        <ele>868.7</ele>
        <time>2020-11-28T12:40:52Z</time>
      </trkpt>
      <trkpt lat="48.55404" lon="7.20311">
        <ele>870.3</ele>
        <time>2020-11-28T12:40:54Z</time>
      </trkpt>
      <trkpt lat="48.55402" lon="7.20304">
        <ele>871.2</ele>
        <time>2020-11-28T12:40:56Z</time>
      </trkpt>
      <trkpt lat="48.554" lon="7.20295">
        <ele>872.3</ele>
        <time>2020-11-28T12:40:59Z</time>
      </trkpt>
      <trkpt lat="48.55397" lon="7.20285">
        <ele>873.8</ele>
        <time>2020-11-28T12:41:02Z</time>
      </trkpt>
      <trkpt lat="48.55395" lon="7.20279">
        <ele>874.9</ele>
        <time>2020-11-28T12:41:04Z</time>
      </trkpt>
      <trkpt lat="48.55394" lon="7.20272">
        <ele>875.7</ele>
        <time>2020-11-28T12:41:06Z</time>
      </trkpt>
      <trkpt lat="48.55392" lon="7.20262">
        <ele>875.6</ele>
        <time>2020-11-28T12:41:09Z</time>
      </trkpt>
      <trkpt lat="48.55391" lon="7.20256">
        <ele>875.4</ele>
        <time>2020-11-28T12:41:11Z</time>
      </trkpt>
      <trkpt lat="48.55389" lon="7.20249">
        <ele>875.3</ele>
        <time>2020-11-28T12:41:13Z</time>
      </trkpt>
      <trkpt lat="48.55388" lon="7.20243">
        <ele>875.7</ele>
        <time>2020-11-28T12:41:15Z</time>
      </trkpt>
      <trkpt lat="48.55385" lon="7.20234">
        <ele>877</ele>
        <time>2020-11-28T12:41:18Z</time>
      </trkpt>
      <trkpt lat="48.55382" lon="7.20228">
        <ele>877.9</ele>
        <time>2020-11-28T12:41:20Z</time>
      </trkpt>
      <trkpt lat="48.5538" lon="7.20222">
        <ele>878.7</ele>
        <time>2020-11-28T12:41:22Z</time>
      </trkpt>
      <trkpt lat="48.55376" lon="7.20214">
        <ele>879.6</ele>
        <time>2020-11-28T12:41:25Z</time>
      </trkpt>
      <trkpt lat="48.55373" lon="7.20205">
        <ele>880.6</ele>
        <time>2020-11-28T12:41:28Z</time>
      </trkpt>
      <trkpt lat="48.55371" lon="7.20198">
        <ele>881.1</ele>
        <time>2020-11-28T12:41:31Z</time>
      </trkpt>
      <trkpt lat="48.55368" lon="7.20188">
        <ele>881.2</ele>
        <time>2020-11-28T12:41:34Z</time>
      </trkpt>
      <trkpt lat="48.55367" lon="7.20181">
        <ele>881.4</ele>
        <time>2020-11-28T12:41:36Z</time>
      </trkpt>
      <trkpt lat="48.55364" lon="7.20173">
        <ele>881.6</ele>
        <time>2020-11-28T12:41:38Z</time>
      </trkpt>
      <trkpt lat="48.55361" lon="7.20165">
        <ele>881.9</ele>
        <time>2020-11-28T12:41:40Z</time>
      </trkpt>
      <trkpt lat="48.55358" lon="7.20158">
        <ele>882.3</ele>
        <time>2020-11-28T12:41:42Z</time>
      </trkpt>
      <trkpt lat="48.55356" lon="7.20151">
        <ele>882.4</ele>
        <time>2020-11-28T12:41:44Z</time>
      </trkpt>
      <trkpt lat="48.55354" lon="7.20144">
        <ele>883.2</ele>
        <time>2020-11-28T12:41:46Z</time>
      </trkpt>
      <trkpt lat="48.55351" lon="7.20137">
        <ele>883.2</ele>
        <time>2020-11-28T12:41:48Z</time>
      </trkpt>
      <trkpt lat="48.55347" lon="7.20129">
        <ele>883.7</ele>
        <time>2020-11-28T12:41:51Z</time>
      </trkpt>
      <trkpt lat="48.55344" lon="7.20124">
        <ele>884.6</ele>
        <time>2020-11-28T12:41:53Z</time>
      </trkpt>
      <trkpt lat="48.55341" lon="7.20117">
        <ele>886</ele>
        <time>2020-11-28T12:41:56Z</time>
      </trkpt>
      <trkpt lat="48.55338" lon="7.2011">
        <ele>887.5</ele>
        <time>2020-11-28T12:41:59Z</time>
      </trkpt>
      <trkpt lat="48.55335" lon="7.20104">
        <ele>888.7</ele>
        <time>2020-11-28T12:42:02Z</time>
      </trkpt>
      <trkpt lat="48.55332" lon="7.20098">
        <ele>889.3</ele>
        <time>2020-11-28T12:42:05Z</time>
      </trkpt>
      <trkpt lat="48.55328" lon="7.20092">
        <ele>889.8</ele>
        <time>2020-11-28T12:42:08Z</time>
      </trkpt>
      <trkpt lat="48.55324" lon="7.20086">
        <ele>891</ele>
        <time>2020-11-28T12:42:11Z</time>
      </trkpt>
      <trkpt lat="48.5532" lon="7.2008">
        <ele>891.7</ele>
        <time>2020-11-28T12:42:14Z</time>
      </trkpt>
      <trkpt lat="48.55316" lon="7.20072">
        <ele>892</ele>
        <time>2020-11-28T12:42:18Z</time>
      </trkpt>
      <trkpt lat="48.55312" lon="7.20067">
        <ele>891.7</ele>
        <time>2020-11-28T12:42:21Z</time>
      </trkpt>
      <trkpt lat="48.55308" lon="7.20062">
        <ele>891.2</ele>
        <time>2020-11-28T12:42:24Z</time>
      </trkpt>
      <trkpt lat="48.55305" lon="7.20056">
        <ele>889.4</ele>
        <time>2020-11-28T12:42:27Z</time>
      </trkpt>
      <trkpt lat="48.55302" lon="7.2005">
        <ele>887.6</ele>
        <time>2020-11-28T12:42:31Z</time>
      </trkpt>
      <trkpt lat="48.55299" lon="7.20045">
        <ele>887.5</ele>
        <time>2020-11-28T12:42:34Z</time>
      </trkpt>
      <trkpt lat="48.55295" lon="7.20041">
        <ele>887.1</ele>
        <time>2020-11-28T12:42:37Z</time>
      </trkpt>
      <trkpt lat="48.55293" lon="7.20033">
        <ele>888</ele>
        <time>2020-11-28T12:42:50Z</time>
      </trkpt>
      <trkpt lat="48.5529" lon="7.20027">
        <ele>888.9</ele>
        <time>2020-11-28T12:42:53Z</time>
      </trkpt>
      <trkpt lat="48.55287" lon="7.20019">
        <ele>889.8</ele>
        <time>2020-11-28T12:42:56Z</time>
      </trkpt>
      <trkpt lat="48.55282" lon="7.20014">
        <ele>890.3</ele>
        <time>2020-11-28T12:42:59Z</time>
      </trkpt>
      <trkpt lat="48.55278" lon="7.20008">
        <ele>890.6</ele>
        <time>2020-11-28T12:43:02Z</time>
      </trkpt>
      <trkpt lat="48.55274" lon="7.20001">
        <ele>891</ele>
        <time>2020-11-28T12:43:05Z</time>
      </trkpt>
      <trkpt lat="48.55271" lon="7.19996">
        <ele>891.3</ele>
        <time>2020-11-28T12:43:07Z</time>
      </trkpt>
      <trkpt lat="48.55268" lon="7.19988">
        <ele>891.1</ele>
        <time>2020-11-28T12:43:10Z</time>
      </trkpt>
      <trkpt lat="48.55266" lon="7.1998">
        <ele>891</ele>
        <time>2020-11-28T12:43:13Z</time>
      </trkpt>
      <trkpt lat="48.55262" lon="7.19972">
        <ele>891.4</ele>
        <time>2020-11-28T12:43:16Z</time>
      </trkpt>
      <trkpt lat="48.55258" lon="7.19964">
        <ele>891.7</ele>
        <time>2020-11-28T12:43:19Z</time>
      </trkpt>
      <trkpt lat="48.55255" lon="7.19956">
        <ele>892.2</ele>
        <time>2020-11-28T12:43:22Z</time>
      </trkpt>
      <trkpt lat="48.55252" lon="7.19948">
        <ele>892.3</ele>
        <time>2020-11-28T12:43:25Z</time>
      </trkpt>
      <trkpt lat="48.55248" lon="7.19939">
        <ele>892.6</ele>
        <time>2020-11-28T12:43:28Z</time>
      </trkpt>
      <trkpt lat="48.55246" lon="7.19933">
        <ele>891.9</ele>
        <time>2020-11-28T12:43:30Z</time>
      </trkpt>
      <trkpt lat="48.55244" lon="7.19926">
        <ele>892.2</ele>
        <time>2020-11-28T12:43:32Z</time>
      </trkpt>
      <trkpt lat="48.55241" lon="7.1992">
        <ele>892.4</ele>
        <time>2020-11-28T12:43:35Z</time>
      </trkpt>
      <trkpt lat="48.55236" lon="7.19916">
        <ele>892.2</ele>
        <time>2020-11-28T12:43:38Z</time>
      </trkpt>
      <trkpt lat="48.55232" lon="7.19912">
        <ele>891.2</ele>
        <time>2020-11-28T12:43:41Z</time>
      </trkpt>
      <trkpt lat="48.55227" lon="7.19907">
        <ele>890.9</ele>
        <time>2020-11-28T12:43:44Z</time>
      </trkpt>
      <trkpt lat="48.5522" lon="7.19904">
        <ele>891.1</ele>
        <time>2020-11-28T12:43:47Z</time>
      </trkpt>
      <trkpt lat="48.55215" lon="7.19899">
        <ele>891.3</ele>
        <time>2020-11-28T12:43:50Z</time>
      </trkpt>
      <trkpt lat="48.55211" lon="7.19894">
        <ele>891.5</ele>
        <time>2020-11-28T12:43:52Z</time>
      </trkpt>
      <trkpt lat="48.55207" lon="7.1989">
        <ele>891.6</ele>
        <time>2020-11-28T12:43:54Z</time>
      </trkpt>
      <trkpt lat="48.55203" lon="7.19887">
        <ele>891.7</ele>
        <time>2020-11-28T12:43:56Z</time>
      </trkpt>
      <trkpt lat="48.55198" lon="7.19882">
        <ele>892.1</ele>
        <time>2020-11-28T12:43:58Z</time>
      </trkpt>
      <trkpt lat="48.55194" lon="7.19877">
        <ele>892.1</ele>
        <time>2020-11-28T12:44:00Z</time>
      </trkpt>
      <trkpt lat="48.5519" lon="7.19871">
        <ele>892.4</ele>
        <time>2020-11-28T12:44:02Z</time>
      </trkpt>
      <trkpt lat="48.55188" lon="7.19864">
        <ele>892.6</ele>
        <time>2020-11-28T12:44:04Z</time>
      </trkpt>
      <trkpt lat="48.55186" lon="7.19857">
        <ele>893</ele>
        <time>2020-11-28T12:44:06Z</time>
      </trkpt>
      <trkpt lat="48.55184" lon="7.19848">
        <ele>893.5</ele>
        <time>2020-11-28T12:44:09Z</time>
      </trkpt>
      <trkpt lat="48.55181" lon="7.19839">
        <ele>894.1</ele>
        <time>2020-11-28T12:44:12Z</time>
      </trkpt>
      <trkpt lat="48.55177" lon="7.19832">
        <ele>894.9</ele>
        <time>2020-11-28T12:44:15Z</time>
      </trkpt>
      <trkpt lat="48.55174" lon="7.19824">
        <ele>895.6</ele>
        <time>2020-11-28T12:44:18Z</time>
      </trkpt>
      <trkpt lat="48.55171" lon="7.19817">
        <ele>896.4</ele>
        <time>2020-11-28T12:44:21Z</time>
      </trkpt>
      <trkpt lat="48.55167" lon="7.19812">
        <ele>897.4</ele>
        <time>2020-11-28T12:44:24Z</time>
      </trkpt>
      <trkpt lat="48.55164" lon="7.19806">
        <ele>898.2</ele>
        <time>2020-11-28T12:44:27Z</time>
      </trkpt>
      <trkpt lat="48.55162" lon="7.19799">
        <ele>899</ele>
        <time>2020-11-28T12:44:32Z</time>
      </trkpt>
      <trkpt lat="48.5516" lon="7.19791">
        <ele>899.7</ele>
        <time>2020-11-28T12:44:41Z</time>
      </trkpt>
      <trkpt lat="48.55158" lon="7.19784">
        <ele>900.1</ele>
        <time>2020-11-28T12:44:44Z</time>
      </trkpt>
      <trkpt lat="48.55155" lon="7.19779">
        <ele>900.4</ele>
        <time>2020-11-28T12:44:47Z</time>
      </trkpt>
      <trkpt lat="48.5515" lon="7.19775">
        <ele>901.1</ele>
        <time>2020-11-28T12:44:50Z</time>
      </trkpt>
      <trkpt lat="48.55146" lon="7.19768">
        <ele>901.5</ele>
        <time>2020-11-28T12:44:54Z</time>
      </trkpt>
      <trkpt lat="48.55144" lon="7.19761">
        <ele>901.7</ele>
        <time>2020-11-28T12:44:58Z</time>
      </trkpt>
      <trkpt lat="48.55143" lon="7.19754">
        <ele>901</ele>
        <time>2020-11-28T12:45:03Z</time>
      </trkpt>
      <trkpt lat="48.55142" lon="7.19747">
        <ele>901.4</ele>
        <time>2020-11-28T12:45:10Z</time>
      </trkpt>
      <trkpt lat="48.55139" lon="7.1974">
        <ele>900.8</ele>
        <time>2020-11-28T12:45:17Z</time>
      </trkpt>
      <trkpt lat="48.55138" lon="7.19733">
        <ele>899.2</ele>
        <time>2020-11-28T12:45:23Z</time>
      </trkpt>
      <trkpt lat="48.55136" lon="7.19725">
        <ele>898.3</ele>
        <time>2020-11-28T12:45:28Z</time>
      </trkpt>
      <trkpt lat="48.55132" lon="7.1972">
        <ele>897.8</ele>
        <time>2020-11-28T12:45:33Z</time>
      </trkpt>
      <trkpt lat="48.55129" lon="7.19713">
        <ele>897.5</ele>
        <time>2020-11-28T12:45:37Z</time>
      </trkpt>
      <trkpt lat="48.55126" lon="7.19706">
        <ele>897.2</ele>
        <time>2020-11-28T12:45:41Z</time>
      </trkpt>
      <trkpt lat="48.55124" lon="7.197">
        <ele>899.4</ele>
        <time>2020-11-28T12:45:48Z</time>
      </trkpt>
      <trkpt lat="48.55118" lon="7.19697">
        <ele>899.3</ele>
        <time>2020-11-28T12:45:52Z</time>
      </trkpt>
      <trkpt lat="48.55112" lon="7.19694">
        <ele>899.3</ele>
        <time>2020-11-28T12:45:54Z</time>
      </trkpt>
      <trkpt lat="48.55106" lon="7.19691">
        <ele>899.2</ele>
        <time>2020-11-28T12:45:56Z</time>
      </trkpt>
      <trkpt lat="48.551" lon="7.19684">
        <ele>898.9</ele>
        <time>2020-11-28T12:45:58Z</time>
      </trkpt>
      <trkpt lat="48.55096" lon="7.19676">
        <ele>899.4</ele>
        <time>2020-11-28T12:46:00Z</time>
      </trkpt>
      <trkpt lat="48.55092" lon="7.19667">
        <ele>899.3</ele>
        <time>2020-11-28T12:46:02Z</time>
      </trkpt>
      <trkpt lat="48.55088" lon="7.1966">
        <ele>898.7</ele>
        <time>2020-11-28T12:46:04Z</time>
      </trkpt>
      <trkpt lat="48.55083" lon="7.19653">
        <ele>898.9</ele>
        <time>2020-11-28T12:46:06Z</time>
      </trkpt>
      <trkpt lat="48.55079" lon="7.19647">
        <ele>899.4</ele>
        <time>2020-11-28T12:46:08Z</time>
      </trkpt>
      <trkpt lat="48.55077" lon="7.19638">
        <ele>899.6</ele>
        <time>2020-11-28T12:46:11Z</time>
      </trkpt>
      <trkpt lat="48.55075" lon="7.19629">
        <ele>900.1</ele>
        <time>2020-11-28T12:46:14Z</time>
      </trkpt>
      <trkpt lat="48.55073" lon="7.19622">
        <ele>900.2</ele>
        <time>2020-11-28T12:46:16Z</time>
      </trkpt>
      <trkpt lat="48.55071" lon="7.19615">
        <ele>900.1</ele>
        <time>2020-11-28T12:46:18Z</time>
      </trkpt>
      <trkpt lat="48.55069" lon="7.19607">
        <ele>900.1</ele>
        <time>2020-11-28T12:46:20Z</time>
      </trkpt>
      <trkpt lat="48.55068" lon="7.196">
        <ele>899.8</ele>
        <time>2020-11-28T12:46:22Z</time>
      </trkpt>
      <trkpt lat="48.55066" lon="7.19589">
        <ele>899.3</ele>
        <time>2020-11-28T12:46:25Z</time>
      </trkpt>
      <trkpt lat="48.55065" lon="7.1958">
        <ele>899.2</ele>
        <time>2020-11-28T12:46:27Z</time>
      </trkpt>
      <trkpt lat="48.55063" lon="7.19571">
        <ele>899.7</ele>
        <time>2020-11-28T12:46:29Z</time>
      </trkpt>
      <trkpt lat="48.55058" lon="7.19564">
        <ele>900.2</ele>
        <time>2020-11-28T12:46:31Z</time>
      </trkpt>
      <trkpt lat="48.55052" lon="7.19557">
        <ele>900.5</ele>
        <time>2020-11-28T12:46:33Z</time>
      </trkpt>
      <trkpt lat="48.55048" lon="7.1955">
        <ele>900.9</ele>
        <time>2020-11-28T12:46:35Z</time>
      </trkpt>
      <trkpt lat="48.55045" lon="7.19544">
        <ele>901.9</ele>
        <time>2020-11-28T12:46:37Z</time>
      </trkpt>
      <trkpt lat="48.55042" lon="7.19539">
        <ele>902.3</ele>
        <time>2020-11-28T12:46:39Z</time>
      </trkpt>
      <trkpt lat="48.55039" lon="7.19532">
        <ele>902.2</ele>
        <time>2020-11-28T12:46:41Z</time>
      </trkpt>
      <trkpt lat="48.55037" lon="7.19526">
        <ele>901.5</ele>
        <time>2020-11-28T12:46:43Z</time>
      </trkpt>
      <trkpt lat="48.55032" lon="7.19518">
        <ele>901</ele>
        <time>2020-11-28T12:46:45Z</time>
      </trkpt>
      <trkpt lat="48.55026" lon="7.1951">
        <ele>900.2</ele>
        <time>2020-11-28T12:46:47Z</time>
      </trkpt>
      <trkpt lat="48.55017" lon="7.195">
        <ele>900.3</ele>
        <time>2020-11-28T12:46:49Z</time>
      </trkpt>
      <trkpt lat="48.55012" lon="7.19492">
        <ele>899.6</ele>
        <time>2020-11-28T12:46:51Z</time>
      </trkpt>
      <trkpt lat="48.55007" lon="7.19483">
        <ele>898.8</ele>
        <time>2020-11-28T12:46:53Z</time>
      </trkpt>
      <trkpt lat="48.55007" lon="7.1947">
        <ele>897.4</ele>
        <time>2020-11-28T12:46:56Z</time>
      </trkpt>
      <trkpt lat="48.55008" lon="7.19461">
        <ele>896.3</ele>
        <time>2020-11-28T12:46:58Z</time>
      </trkpt>
      <trkpt lat="48.55007" lon="7.19454">
        <ele>895.3</ele>
        <time>2020-11-28T12:47:00Z</time>
      </trkpt>
      <trkpt lat="48.55004" lon="7.19447">
        <ele>894.6</ele>
        <time>2020-11-28T12:47:02Z</time>
      </trkpt>
      <trkpt lat="48.55" lon="7.1944">
        <ele>894.4</ele>
        <time>2020-11-28T12:47:04Z</time>
      </trkpt>
    </trkseg>
  </trk>
  <trk>
    <name><![CDATA[saved]]></name>
    <trkseg>
      <trkpt lat="48.54871" lon="7.19248">
        <ele>878.8</ele>
        <time>2020-11-28T12:56:03Z</time>
      </trkpt>
      <trkpt lat="48.54871" lon="7.19248">
        <ele>878.8</ele>
        <time>2020-11-28T12:56:03Z</time>
      </trkpt>
      <trkpt lat="48.54871" lon="7.19248">
        <ele>878.8</ele>
        <time>2020-11-28T12:56:03Z</time>
      </trkpt>
      <trkpt lat="48.54871" lon="7.19248">
        <ele>878.8</ele>
        <time>2020-11-28T12:56:03Z</time>
      </trkpt>
      <trkpt lat="48.54871" lon="7.19248">
        <ele>878.8</ele>
        <time>2020-11-28T12:56:03Z</time>
      </trkpt>
      <trkpt lat="48.54867" lon="7.19243">
        <ele>874.5</ele>
        <time>2020-11-28T12:57:21Z</time>
      </trkpt>
      <trkpt lat="48.54863" lon="7.19236">
        <ele>873.8</ele>
        <time>2020-11-28T12:57:25Z</time>
      </trkpt>
      <trkpt lat="48.54861" lon="7.1923">
        <ele>873.2</ele>
        <time>2020-11-28T12:57:28Z</time>
      </trkpt>
      <trkpt lat="48.54858" lon="7.19225">
        <ele>873.1</ele>
        <time>2020-11-28T12:57:31Z</time>
      </trkpt>
      <trkpt lat="48.54855" lon="7.19219">
        <ele>872.3</ele>
        <time>2020-11-28T12:57:35Z</time>
      </trkpt>
      <trkpt lat="48.54851" lon="7.19213">
        <ele>871.1</ele>
        <time>2020-11-28T12:57:38Z</time>
      </trkpt>
      <trkpt lat="48.54845" lon="7.19211">
        <ele>870.3</ele>
        <time>2020-11-28T12:57:41Z</time>
      </trkpt>
      <trkpt lat="48.54841" lon="7.19211">
        <ele>868.2</ele>
        <time>2020-11-28T12:57:51Z</time>
      </trkpt>
      <trkpt lat="48.54837" lon="7.19207">
        <ele>868.2</ele>
        <time>2020-11-28T12:58:27Z</time>
      </trkpt>
      <trkpt lat="48.54832" lon="7.19206">
        <ele>870.2</ele>
        <time>2020-11-28T12:58:34Z</time>
      </trkpt>
      <trkpt lat="48.54829" lon="7.19201">
        <ele>870.2</ele>
        <time>2020-11-28T12:58:39Z</time>
      </trkpt>
      <trkpt lat="48.54824" lon="7.192">
        <ele>870</ele>
        <time>2020-11-28T12:58:45Z</time>
      </trkpt>
      <trkpt lat="48.5482" lon="7.192">
        <ele>863.5</ele>
        <time>2020-11-28T12:59:02Z</time>
      </trkpt>
      <trkpt lat="48.54816" lon="7.19194">
        <ele>860.3</ele>
        <time>2020-11-28T12:59:09Z</time>
      </trkpt>
      <trkpt lat="48.54812" lon="7.19192">
        <ele>857.1</ele>
        <time>2020-11-28T12:59:20Z</time>
      </trkpt>
      <trkpt lat="48.54808" lon="7.19188">
        <ele>857.6</ele>
        <time>2020-11-28T12:59:30Z</time>
      </trkpt>
      <trkpt lat="48.54803" lon="7.19188">
        <ele>852.2</ele>
        <time>2020-11-28T12:59:37Z</time>
      </trkpt>
      <trkpt lat="48.54798" lon="7.19187">
        <ele>850.8</ele>
        <time>2020-11-28T12:59:42Z</time>
      </trkpt>
      <trkpt lat="48.54793" lon="7.19186">
        <ele>849.8</ele>
        <time>2020-11-28T12:59:49Z</time>
      </trkpt>
      <trkpt lat="48.54788" lon="7.19183">
        <ele>848.6</ele>
        <time>2020-11-28T12:59:54Z</time>
      </trkpt>
      <trkpt lat="48.54784" lon="7.19178">
        <ele>846.8</ele>
        <time>2020-11-28T12:59:59Z</time>
      </trkpt>
      <trkpt lat="48.5478" lon="7.19174">
        <ele>842.6</ele>
        <time>2020-11-28T13:00:12Z</time>
      </trkpt>
      <trkpt lat="48.54776" lon="7.1917">
        <ele>841</ele>
        <time>2020-11-28T13:00:19Z</time>
      </trkpt>
      <trkpt lat="48.54771" lon="7.19167">
        <ele>839.6</ele>
        <time>2020-11-28T13:00:26Z</time>
      </trkpt>
      <trkpt lat="48.54766" lon="7.19168">
        <ele>836.8</ele>
        <time>2020-11-28T13:00:35Z</time>
      </trkpt>
      <trkpt lat="48.54761" lon="7.19166">
        <ele>834.9</ele>
        <time>2020-11-28T13:00:41Z</time>
      </trkpt>
      <trkpt lat="48.54756" lon="7.19164">
        <ele>831.2</ele>
        <time>2020-11-28T13:00:50Z</time>
      </trkpt>
      <trkpt lat="48.54754" lon="7.19158">
        <ele>826.6</ele>
        <time>2020-11-28T13:01:07Z</time>
      </trkpt>
      <trkpt lat="48.54749" lon="7.19155">
        <ele>821.3</ele>
        <time>2020-11-28T13:01:19Z</time>
      </trkpt>
      <trkpt lat="48.54745" lon="7.19152">
        <ele>816.4</ele>
        <time>2020-11-28T13:01:31Z</time>
      </trkpt>
      <trkpt lat="48.5474" lon="7.19149">
        <ele>814.9</ele>
        <time>2020-11-28T13:01:39Z</time>
      </trkpt>
      <trkpt lat="48.54736" lon="7.19147">
        <ele>813.9</ele>
        <time>2020-11-28T13:01:44Z</time>
      </trkpt>
      <trkpt lat="48.5473" lon="7.19147">
        <ele>813.5</ele>
        <time>2020-11-28T13:01:49Z</time>
      </trkpt>
      <trkpt lat="48.54725" lon="7.19144">
        <ele>812.4</ele>
        <time>2020-11-28T13:01:54Z</time>
      </trkpt>
      <trkpt lat="48.54721" lon="7.1914">
        <ele>810.5</ele>
        <time>2020-11-28T13:01:59Z</time>
      </trkpt>
      <trkpt lat="48.54716" lon="7.19139">
        <ele>809.1</ele>
        <time>2020-11-28T13:02:03Z</time>
      </trkpt>
      <trkpt lat="48.54712" lon="7.19136">
        <ele>807.9</ele>
        <time>2020-11-28T13:02:13Z</time>
      </trkpt>
      <trkpt lat="48.54708" lon="7.19132">
        <ele>807.1</ele>
        <time>2020-11-28T13:02:17Z</time>
      </trkpt>
      <trkpt lat="48.54704" lon="7.19126">
        <ele>805.2</ele>
        <time>2020-11-28T13:02:21Z</time>
      </trkpt>
      <trkpt lat="48.54698" lon="7.19125">
        <ele>803.8</ele>
        <time>2020-11-28T13:02:24Z</time>
      </trkpt>
      <trkpt lat="48.54692" lon="7.19124">
        <ele>799.6</ele>
        <time>2020-11-28T13:04:57Z</time>
      </trkpt>
      <trkpt lat="48.54687" lon="7.19121">
        <ele>798.5</ele>
        <time>2020-11-28T13:05:00Z</time>
      </trkpt>
      <trkpt lat="48.54682" lon="7.19117">
        <ele>797</ele>
        <time>2020-11-28T13:05:03Z</time>
      </trkpt>
      <trkpt lat="48.54678" lon="7.19114">
        <ele>795.5</ele>
        <time>2020-11-28T13:05:06Z</time>
      </trkpt>
      <trkpt lat="48.54673" lon="7.19113">
        <ele>794.9</ele>
        <time>2020-11-28T13:05:10Z</time>
      </trkpt>
      <trkpt lat="48.54668" lon="7.19113">
        <ele>794.8</ele>
        <time>2020-11-28T13:05:13Z</time>
      </trkpt>
      <trkpt lat="48.54663" lon="7.19113">
        <ele>794</ele>
        <time>2020-11-28T13:05:17Z</time>
      </trkpt>
      <trkpt lat="48.54658" lon="7.19108">
        <ele>791.8</ele>
        <time>2020-11-28T13:05:21Z</time>
      </trkpt>
      <trkpt lat="48.54654" lon="7.19104">
        <ele>790.2</ele>
        <time>2020-11-28T13:05:24Z</time>
      </trkpt>
      <trkpt lat="48.54649" lon="7.19099">
        <ele>789.2</ele>
        <time>2020-11-28T13:05:28Z</time>
      </trkpt>
      <trkpt lat="48.54644" lon="7.19095">
        <ele>789.7</ele>
        <time>2020-11-28T13:05:31Z</time>
      </trkpt>
      <trkpt lat="48.54639" lon="7.19094">
        <ele>788.5</ele>
        <time>2020-11-28T13:05:34Z</time>
      </trkpt>
      <trkpt lat="48.54633" lon="7.19092">
        <ele>786.9</ele>
        <time>2020-11-28T13:05:37Z</time>
      </trkpt>
      <trkpt lat="48.54628" lon="7.1909">
        <ele>784.8</ele>
        <time>2020-11-28T13:05:40Z</time>
      </trkpt>
      <trkpt lat="48.54624" lon="7.19089">
        <ele>782.3</ele>
        <time>2020-11-28T13:05:47Z</time>
      </trkpt>
      <trkpt lat="48.54619" lon="7.19087">
        <ele>780.5</ele>
        <time>2020-11-28T13:05:52Z</time>
      </trkpt>
      <trkpt lat="48.54614" lon="7.19087">
        <ele>778.3</ele>
        <time>2020-11-28T13:05:58Z</time>
      </trkpt>
      <trkpt lat="48.5461" lon="7.19083">
        <ele>777.1</ele>
        <time>2020-11-28T13:06:03Z</time>
      </trkpt>
      <trkpt lat="48.54605" lon="7.19083">
        <ele>773.9</ele>
        <time>2020-11-28T13:06:19Z</time>
      </trkpt>
      <trkpt lat="48.546" lon="7.19081">
        <ele>773.1</ele>
        <time>2020-11-28T13:06:22Z</time>
      </trkpt>
      <trkpt lat="48.54596" lon="7.19077">
        <ele>771.5</ele>
        <time>2020-11-28T13:06:25Z</time>
      </trkpt>
      <trkpt lat="48.54591" lon="7.19073">
        <ele>770.1</ele>
        <time>2020-11-28T13:06:28Z</time>
      </trkpt>
      <trkpt lat="48.54586" lon="7.1907">
        <ele>769.6</ele>
        <time>2020-11-28T13:06:31Z</time>
      </trkpt>
      <trkpt lat="48.54581" lon="7.19069">
        <ele>768.5</ele>
        <time>2020-11-28T13:06:35Z</time>
      </trkpt>
      <trkpt lat="48.54575" lon="7.19066">
        <ele>768.3</ele>
        <time>2020-11-28T13:06:39Z</time>
      </trkpt>
      <trkpt lat="48.5457" lon="7.19064">
        <ele>767.4</ele>
        <time>2020-11-28T13:06:42Z</time>
      </trkpt>
      <trkpt lat="48.54564" lon="7.1906">
        <ele>765</ele>
        <time>2020-11-28T13:06:45Z</time>
      </trkpt>
      <trkpt lat="48.5456" lon="7.19057">
        <ele>763.6</ele>
        <time>2020-11-28T13:06:47Z</time>
      </trkpt>
      <trkpt lat="48.54555" lon="7.19053">
        <ele>762.1</ele>
        <time>2020-11-28T13:06:49Z</time>
      </trkpt>
      <trkpt lat="48.5455" lon="7.1905">
        <ele>759.6</ele>
        <time>2020-11-28T13:06:51Z</time>
      </trkpt>
      <trkpt lat="48.54544" lon="7.19047">
        <ele>757.9</ele>
        <time>2020-11-28T13:06:53Z</time>
      </trkpt>
      <trkpt lat="48.54537" lon="7.19043">
        <ele>755.5</ele>
        <time>2020-11-28T13:06:55Z</time>
      </trkpt>
      <trkpt lat="48.54531" lon="7.19038">
        <ele>754</ele>
        <time>2020-11-28T13:06:57Z</time>
      </trkpt>
      <trkpt lat="48.54527" lon="7.19027">
        <ele>752</ele>
        <time>2020-11-28T13:06:59Z</time>
      </trkpt>
      <trkpt lat="48.54521" lon="7.19014">
        <ele>750.4</ele>
        <time>2020-11-28T13:07:01Z</time>
      </trkpt>
      <trkpt lat="48.54515" lon="7.19006">
        <ele>749.3</ele>
        <time>2020-11-28T13:07:03Z</time>
      </trkpt>
      <trkpt lat="48.54512" lon="7.19001">
        <ele>764.8</ele>
        <time>2020-11-28T13:07:07Z</time>
      </trkpt>
      <trkpt lat="48.54509" lon="7.19008">
        <ele>753.8</ele>
        <time>2020-11-28T13:07:15Z</time>
      </trkpt>
      <trkpt lat="48.54507" lon="7.19015">
        <ele>749.7</ele>
        <time>2020-11-28T13:07:18Z</time>
      </trkpt>
      <trkpt lat="48.54503" lon="7.19017">
        <ele>742</ele>
        <time>2020-11-28T13:08:03Z</time>
      </trkpt>
      <trkpt lat="48.54507" lon="7.19017">
        <ele>741.7</ele>
        <time>2020-11-28T13:08:18Z</time>
      </trkpt>
      <trkpt lat="48.54506" lon="7.19009">
        <ele>763</ele>
        <time>2020-11-28T13:09:04Z</time>
      </trkpt>
      <trkpt lat="48.54503" lon="7.19017">
        <ele>748.6</ele>
        <time>2020-11-28T13:10:09Z</time>
      </trkpt>
      <trkpt lat="48.54498" lon="7.19024">
        <ele>744.7</ele>
        <time>2020-11-28T13:10:12Z</time>
      </trkpt>
      <trkpt lat="48.54493" lon="7.19027">
        <ele>742.6</ele>
        <time>2020-11-28T13:10:14Z</time>
      </trkpt>
      <trkpt lat="48.54488" lon="7.1903">
        <ele>740.9</ele>
        <time>2020-11-28T13:10:16Z</time>
      </trkpt>
      <trkpt lat="48.54483" lon="7.19033">
        <ele>739</ele>
        <time>2020-11-28T13:10:18Z</time>
      </trkpt>
      <trkpt lat="48.54479" lon="7.19035">
        <ele>737.9</ele>
        <time>2020-11-28T13:10:20Z</time>
      </trkpt>
      <trkpt lat="48.54475" lon="7.19038">
        <ele>736.9</ele>
        <time>2020-11-28T13:10:22Z</time>
      </trkpt>
      <trkpt lat="48.5447" lon="7.19043">
        <ele>736.2</ele>
        <time>2020-11-28T13:10:24Z</time>
      </trkpt>
      <trkpt lat="48.54464" lon="7.19048">
        <ele>735.6</ele>
        <time>2020-11-28T13:10:26Z</time>
      </trkpt>
      <trkpt lat="48.54458" lon="7.19054">
        <ele>735.4</ele>
        <time>2020-11-28T13:10:28Z</time>
      </trkpt>
      <trkpt lat="48.54452" lon="7.19061">
        <ele>735</ele>
        <time>2020-11-28T13:10:30Z</time>
      </trkpt>
      <trkpt lat="48.54445" lon="7.19068">
        <ele>735.2</ele>
        <time>2020-11-28T13:10:32Z</time>
      </trkpt>
      <trkpt lat="48.54439" lon="7.19074">
        <ele>734.9</ele>
        <time>2020-11-28T13:10:34Z</time>
      </trkpt>
      <trkpt lat="48.54433" lon="7.19079">
        <ele>734.6</ele>
        <time>2020-11-28T13:10:36Z</time>
      </trkpt>
      <trkpt lat="48.54427" lon="7.19085">
        <ele>735</ele>
        <time>2020-11-28T13:10:38Z</time>
      </trkpt>
      <trkpt lat="48.5442" lon="7.19091">
        <ele>734.9</ele>
        <time>2020-11-28T13:10:40Z</time>
      </trkpt>
      <trkpt lat="48.54414" lon="7.19096">
        <ele>735</ele>
        <time>2020-11-28T13:10:42Z</time>
      </trkpt>
      <trkpt lat="48.54407" lon="7.191">
        <ele>734.8</ele>
        <time>2020-11-28T13:10:44Z</time>
      </trkpt>
      <trkpt lat="48.54401" lon="7.19104">
        <ele>733.9</ele>
        <time>2020-11-28T13:10:46Z</time>
      </trkpt>
      <trkpt lat="48.54394" lon="7.19106">
        <ele>733</ele>
        <time>2020-11-28T13:10:48Z</time>
      </trkpt>
      <trkpt lat="48.54388" lon="7.19109">
        <ele>733.3</ele>
        <time>2020-11-28T13:10:50Z</time>
      </trkpt>
      <trkpt lat="48.54381" lon="7.19111">
        <ele>732.5</ele>
        <time>2020-11-28T13:10:52Z</time>
      </trkpt>
      <trkpt lat="48.54375" lon="7.19114">
        <ele>732.6</ele>
        <time>2020-11-28T13:10:54Z</time>
      </trkpt>
      <trkpt lat="48.54368" lon="7.19117">
        <ele>733.2</ele>
        <time>2020-11-28T13:10:56Z</time>
      </trkpt>
      <trkpt lat="48.5436" lon="7.1912">
        <ele>733.5</ele>
        <time>2020-11-28T13:10:58Z</time>
      </trkpt>
      <trkpt lat="48.54352" lon="7.19124">
        <ele>734</ele>
        <time>2020-11-28T13:11:00Z</time>
      </trkpt>
      <trkpt lat="48.54342" lon="7.19129">
        <ele>734.1</ele>
        <time>2020-11-28T13:11:02Z</time>
      </trkpt>
      <trkpt lat="48.54334" lon="7.19134">
        <ele>734.4</ele>
        <time>2020-11-28T13:11:04Z</time>
      </trkpt>
      <trkpt lat="48.54327" lon="7.19137">
        <ele>734.5</ele>
        <time>2020-11-28T13:11:06Z</time>
      </trkpt>
      <trkpt lat="48.54319" lon="7.19143">
        <ele>735.5</ele>
        <time>2020-11-28T13:11:08Z</time>
      </trkpt>
      <trkpt lat="48.5431" lon="7.19147">
        <ele>735.9</ele>
        <time>2020-11-28T13:11:10Z</time>
      </trkpt>
      <trkpt lat="48.54303" lon="7.19152">
        <ele>736.1</ele>
        <time>2020-11-28T13:11:12Z</time>
      </trkpt>
      <trkpt lat="48.54291" lon="7.19158">
        <ele>737.2</ele>
        <time>2020-11-28T13:11:15Z</time>
      </trkpt>
      <trkpt lat="48.54285" lon="7.19161">
        <ele>738</ele>
        <time>2020-11-28T13:11:17Z</time>
      </trkpt>
      <trkpt lat="48.54279" lon="7.19163">
        <ele>738.7</ele>
        <time>2020-11-28T13:11:19Z</time>
      </trkpt>
      <trkpt lat="48.54272" lon="7.19164">
        <ele>739.2</ele>
        <time>2020-11-28T13:11:21Z</time>
      </trkpt>
      <trkpt lat="48.54266" lon="7.19165">
        <ele>739.2</ele>
        <time>2020-11-28T13:11:23Z</time>
      </trkpt>
      <trkpt lat="48.54256" lon="7.19165">
        <ele>739.4</ele>
        <time>2020-11-28T13:11:26Z</time>
      </trkpt>
      <trkpt lat="48.54249" lon="7.19165">
        <ele>739.5</ele>
        <time>2020-11-28T13:11:28Z</time>
      </trkpt>
      <trkpt lat="48.54242" lon="7.19164">
        <ele>739.7</ele>
        <time>2020-11-28T13:11:30Z</time>
      </trkpt>
      <trkpt lat="48.54235" lon="7.19165">
        <ele>740.2</ele>
        <time>2020-11-28T13:11:32Z</time>
      </trkpt>
      <trkpt lat="48.54228" lon="7.19166">
        <ele>741</ele>
        <time>2020-11-28T13:11:34Z</time>
      </trkpt>
      <trkpt lat="48.54221" lon="7.19168">
        <ele>741.7</ele>
        <time>2020-11-28T13:11:36Z</time>
      </trkpt>
      <trkpt lat="48.54215" lon="7.1917">
        <ele>742.5</ele>
        <time>2020-11-28T13:11:38Z</time>
      </trkpt>
      <trkpt lat="48.54209" lon="7.19171">
        <ele>743.1</ele>
        <time>2020-11-28T13:11:40Z</time>
      </trkpt>
      <trkpt lat="48.54203" lon="7.19173">
        <ele>743.9</ele>
        <time>2020-11-28T13:11:42Z</time>
      </trkpt>
      <trkpt lat="48.54198" lon="7.19174">
        <ele>744.4</ele>
        <time>2020-11-28T13:11:44Z</time>
      </trkpt>
      <trkpt lat="48.54193" lon="7.19173">
        <ele>745</ele>
        <time>2020-11-28T13:11:46Z</time>
      </trkpt>
      <trkpt lat="48.54187" lon="7.19172">
        <ele>745.8</ele>
        <time>2020-11-28T13:11:48Z</time>
      </trkpt>
      <trkpt lat="48.54181" lon="7.19171">
        <ele>746.5</ele>
        <time>2020-11-28T13:11:50Z</time>
      </trkpt>
      <trkpt lat="48.54175" lon="7.1917">
        <ele>746.8</ele>
        <time>2020-11-28T13:11:52Z</time>
      </trkpt>
      <trkpt lat="48.54169" lon="7.19168">
        <ele>746.7</ele>
        <time>2020-11-28T13:11:54Z</time>
      </trkpt>
      <trkpt lat="48.54162" lon="7.19168">
        <ele>747.2</ele>
        <time>2020-11-28T13:11:56Z</time>
      </trkpt>
      <trkpt lat="48.54156" lon="7.19169">
        <ele>746.8</ele>
        <time>2020-11-28T13:11:58Z</time>
      </trkpt>
      <trkpt lat="48.54149" lon="7.19169">
        <ele>746.2</ele>
        <time>2020-11-28T13:12:00Z</time>
      </trkpt>
      <trkpt lat="48.54141" lon="7.19168">
        <ele>745.6</ele>
        <time>2020-11-28T13:12:02Z</time>
      </trkpt>
      <trkpt lat="48.54133" lon="7.19167">
        <ele>744.1</ele>
        <time>2020-11-28T13:12:04Z</time>
      </trkpt>
      <trkpt lat="48.54125" lon="7.19164">
        <ele>742.9</ele>
        <time>2020-11-28T13:12:06Z</time>
      </trkpt>
      <trkpt lat="48.54116" lon="7.19164">
        <ele>742</ele>
        <time>2020-11-28T13:12:08Z</time>
      </trkpt>
      <trkpt lat="48.54107" lon="7.19165">
        <ele>741.5</ele>
        <time>2020-11-28T13:12:10Z</time>
      </trkpt>
      <trkpt lat="48.54099" lon="7.19164">
        <ele>741</ele>
        <time>2020-11-28T13:12:12Z</time>
      </trkpt>
      <trkpt lat="48.54091" lon="7.19164">
        <ele>760.9</ele>
        <time>2020-11-28T13:12:14Z</time>
      </trkpt>
      <trkpt lat="48.54083" lon="7.19162">
        <ele>756.7</ele>
        <time>2020-11-28T13:12:16Z</time>
      </trkpt>
      <trkpt lat="48.54076" lon="7.19159">
        <ele>757.6</ele>
        <time>2020-11-28T13:12:18Z</time>
      </trkpt>
      <trkpt lat="48.54068" lon="7.19157">
        <ele>755.5</ele>
        <time>2020-11-28T13:12:20Z</time>
      </trkpt>
      <trkpt lat="48.5406" lon="7.19154">
        <ele>753.6</ele>
        <time>2020-11-28T13:12:22Z</time>
      </trkpt>
      <trkpt lat="48.54052" lon="7.19151">
        <ele>752.4</ele>
        <time>2020-11-28T13:12:24Z</time>
      </trkpt>
      <trkpt lat="48.54046" lon="7.19148">
        <ele>750.1</ele>
        <time>2020-11-28T13:12:26Z</time>
      </trkpt>
      <trkpt lat="48.5404" lon="7.19145">
        <ele>748.9</ele>
        <time>2020-11-28T13:12:28Z</time>
      </trkpt>
      <trkpt lat="48.54034" lon="7.19142">
        <ele>747</ele>
        <time>2020-11-28T13:12:30Z</time>
      </trkpt>
      <trkpt lat="48.54027" lon="7.19138">
        <ele>745.6</ele>
        <time>2020-11-28T13:12:32Z</time>
      </trkpt>
      <trkpt lat="48.54021" lon="7.19133">
        <ele>743.3</ele>
        <time>2020-11-28T13:12:34Z</time>
      </trkpt>
      <trkpt lat="48.54013" lon="7.19129">
        <ele>742.4</ele>
        <time>2020-11-28T13:12:36Z</time>
      </trkpt>
      <trkpt lat="48.54004" lon="7.19121">
        <ele>741.3</ele>
        <time>2020-11-28T13:12:38Z</time>
      </trkpt>
      <trkpt lat="48.53997" lon="7.19113">
        <ele>738.9</ele>
        <time>2020-11-28T13:12:40Z</time>
      </trkpt>
      <trkpt lat="48.5399" lon="7.19105">
        <ele>737.5</ele>
        <time>2020-11-28T13:12:42Z</time>
      </trkpt>
      <trkpt lat="48.53983" lon="7.19097">
        <ele>736.7</ele>
        <time>2020-11-28T13:12:44Z</time>
      </trkpt>
      <trkpt lat="48.53974" lon="7.1909">
        <ele>737.3</ele>
        <time>2020-11-28T13:12:46Z</time>
      </trkpt>
      <trkpt lat="48.53967" lon="7.19083">
        <ele>737.5</ele>
        <time>2020-11-28T13:12:48Z</time>
      </trkpt>
      <trkpt lat="48.5396" lon="7.19076">
        <ele>737.9</ele>
        <time>2020-11-28T13:12:50Z</time>
      </trkpt>
      <trkpt lat="48.53953" lon="7.19068">
        <ele>738.3</ele>
        <time>2020-11-28T13:12:52Z</time>
      </trkpt>
      <trkpt lat="48.53946" lon="7.19059">
        <ele>738.3</ele>
        <time>2020-11-28T13:12:54Z</time>
      </trkpt>
      <trkpt lat="48.53939" lon="7.1905">
        <ele>738.1</ele>
        <time>2020-11-28T13:12:56Z</time>
      </trkpt>
      <trkpt lat="48.5393" lon="7.1904">
        <ele>737.6</ele>
        <time>2020-11-28T13:12:58Z</time>
      </trkpt>
      <trkpt lat="48.53923" lon="7.19032">
        <ele>737.5</ele>
        <time>2020-11-28T13:13:00Z</time>
      </trkpt>
      <trkpt lat="48.53916" lon="7.19024">
        <ele>737.2</ele>
        <time>2020-11-28T13:13:02Z</time>
      </trkpt>
      <trkpt lat="48.53909" lon="7.19016">
        <ele>736.4</ele>
        <time>2020-11-28T13:13:04Z</time>
      </trkpt>
      <trkpt lat="48.539" lon="7.19007">
        <ele>737.3</ele>
        <time>2020-11-28T13:13:06Z</time>
      </trkpt>
      <trkpt lat="48.53892" lon="7.19002">
        <ele>737.7</ele>
        <time>2020-11-28T13:13:08Z</time>
      </trkpt>
      <trkpt lat="48.53885" lon="7.18997">
        <ele>737.6</ele>
        <time>2020-11-28T13:13:10Z</time>
      </trkpt>
      <trkpt lat="48.53878" lon="7.1899">
        <ele>738</ele>
        <time>2020-11-28T13:13:12Z</time>
      </trkpt>
      <trkpt lat="48.53872" lon="7.18983">
        <ele>760.7</ele>
        <time>2020-11-28T13:13:14Z</time>
      </trkpt>
      <trkpt lat="48.53866" lon="7.18975">
        <ele>757.2</ele>
        <time>2020-11-28T13:13:16Z</time>
      </trkpt>
      <trkpt lat="48.5386" lon="7.18967">
        <ele>773.1</ele>
        <time>2020-11-28T13:13:18Z</time>
      </trkpt>
      <trkpt lat="48.53849" lon="7.18956">
        <ele>768.8</ele>
        <time>2020-11-28T13:13:21Z</time>
      </trkpt>
      <trkpt lat="48.53838" lon="7.1895">
        <ele>766.9</ele>
        <time>2020-11-28T13:13:23Z</time>
      </trkpt>
      <trkpt lat="48.53829" lon="7.18945">
        <ele>764.1</ele>
        <time>2020-11-28T13:13:25Z</time>
      </trkpt>
      <trkpt lat="48.53822" lon="7.18939">
        <ele>760</ele>
        <time>2020-11-28T13:13:27Z</time>
      </trkpt>
      <trkpt lat="48.53814" lon="7.18933">
        <ele>756.3</ele>
        <time>2020-11-28T13:13:29Z</time>
      </trkpt>
      <trkpt lat="48.53805" lon="7.18929">
        <ele>753</ele>
        <time>2020-11-28T13:13:31Z</time>
      </trkpt>
      <trkpt lat="48.53795" lon="7.18924">
        <ele>749.4</ele>
        <time>2020-11-28T13:13:33Z</time>
      </trkpt>
      <trkpt lat="48.53785" lon="7.18921">
        <ele>747.3</ele>
        <time>2020-11-28T13:13:35Z</time>
      </trkpt>
      <trkpt lat="48.53775" lon="7.18919">
        <ele>745.1</ele>
        <time>2020-11-28T13:13:37Z</time>
      </trkpt>
      <trkpt lat="48.53765" lon="7.18918">
        <ele>743.1</ele>
        <time>2020-11-28T13:13:39Z</time>
      </trkpt>
      <trkpt lat="48.53755" lon="7.18917">
        <ele>742.1</ele>
        <time>2020-11-28T13:13:41Z</time>
      </trkpt>
      <trkpt lat="48.53746" lon="7.18913">
        <ele>740.8</ele>
        <time>2020-11-28T13:13:43Z</time>
      </trkpt>
      <trkpt lat="48.53736" lon="7.1891">
        <ele>739.5</ele>
        <time>2020-11-28T13:13:45Z</time>
      </trkpt>
      <trkpt lat="48.53728" lon="7.18904">
        <ele>737.6</ele>
        <time>2020-11-28T13:13:47Z</time>
      </trkpt>
      <trkpt lat="48.5372" lon="7.18899">
        <ele>736.2</ele>
        <time>2020-11-28T13:13:49Z</time>
      </trkpt>
      <trkpt lat="48.53712" lon="7.18896">
        <ele>735.6</ele>
        <time>2020-11-28T13:13:51Z</time>
      </trkpt>
      <trkpt lat="48.53702" lon="7.18893">
        <ele>735.7</ele>
        <time>2020-11-28T13:13:53Z</time>
      </trkpt>
      <trkpt lat="48.53694" lon="7.1889">
        <ele>734.7</ele>
        <time>2020-11-28T13:13:55Z</time>
      </trkpt>
      <trkpt lat="48.53685" lon="7.18884">
        <ele>733.8</ele>
        <time>2020-11-28T13:13:57Z</time>
      </trkpt>
      <trkpt lat="48.53675" lon="7.18881">
        <ele>733.9</ele>
        <time>2020-11-28T13:13:59Z</time>
      </trkpt>
      <trkpt lat="48.53664" lon="7.18878">
        <ele>734.1</ele>
        <time>2020-11-28T13:14:01Z</time>
      </trkpt>
      <trkpt lat="48.53655" lon="7.18872">
        <ele>733.5</ele>
        <time>2020-11-28T13:14:03Z</time>
      </trkpt>
      <trkpt lat="48.53646" lon="7.18868">
        <ele>733.8</ele>
        <time>2020-11-28T13:14:05Z</time>
      </trkpt>
      <trkpt lat="48.53637" lon="7.18863">
        <ele>733.9</ele>
        <time>2020-11-28T13:14:07Z</time>
      </trkpt>
      <trkpt lat="48.53625" lon="7.18857">
        <ele>734.8</ele>
        <time>2020-11-28T13:14:10Z</time>
      </trkpt>
      <trkpt lat="48.53619" lon="7.18852">
        <ele>735</ele>
        <time>2020-11-28T13:14:12Z</time>
      </trkpt>
      <trkpt lat="48.53613" lon="7.18845">
        <ele>736</ele>
        <time>2020-11-28T13:14:14Z</time>
      </trkpt>
      <trkpt lat="48.53608" lon="7.18837">
        <ele>736.1</ele>
        <time>2020-11-28T13:14:16Z</time>
      </trkpt>
      <trkpt lat="48.53603" lon="7.18827">
        <ele>736.4</ele>
        <time>2020-11-28T13:14:18Z</time>
      </trkpt>
      <trkpt lat="48.53598" lon="7.18815">
        <ele>736.1</ele>
        <time>2020-11-28T13:14:20Z</time>
      </trkpt>
      <trkpt lat="48.53593" lon="7.18804">
        <ele>736.1</ele>
        <time>2020-11-28T13:14:22Z</time>
      </trkpt>
      <trkpt lat="48.53588" lon="7.18791">
        <ele>736</ele>
        <time>2020-11-28T13:14:24Z</time>
      </trkpt>
      <trkpt lat="48.53583" lon="7.18779">
        <ele>735.6</ele>
        <time>2020-11-28T13:14:26Z</time>
      </trkpt>
      <trkpt lat="48.53581" lon="7.18767">
        <ele>735.6</ele>
        <time>2020-11-28T13:14:28Z</time>
      </trkpt>
      <trkpt lat="48.53578" lon="7.18755">
        <ele>735.6</ele>
        <time>2020-11-28T13:14:30Z</time>
      </trkpt>
      <trkpt lat="48.53575" lon="7.18743">
        <ele>735.4</ele>
        <time>2020-11-28T13:14:32Z</time>
      </trkpt>
      <trkpt lat="48.53572" lon="7.18731">
        <ele>734.4</ele>
        <time>2020-11-28T13:14:34Z</time>
      </trkpt>
      <trkpt lat="48.5357" lon="7.18719">
        <ele>733.8</ele>
        <time>2020-11-28T13:14:36Z</time>
      </trkpt>
      <trkpt lat="48.53567" lon="7.18708">
        <ele>733.8</ele>
        <time>2020-11-28T13:14:38Z</time>
      </trkpt>
      <trkpt lat="48.53564" lon="7.18698">
        <ele>733.5</ele>
        <time>2020-11-28T13:14:40Z</time>
      </trkpt>
      <trkpt lat="48.53562" lon="7.18686">
        <ele>732.9</ele>
        <time>2020-11-28T13:14:42Z</time>
      </trkpt>
      <trkpt lat="48.53559" lon="7.18674">
        <ele>732.7</ele>
        <time>2020-11-28T13:14:44Z</time>
      </trkpt>
      <trkpt lat="48.53556" lon="7.18661">
        <ele>732.1</ele>
        <time>2020-11-28T13:14:46Z</time>
      </trkpt>
      <trkpt lat="48.53553" lon="7.18649">
        <ele>731.6</ele>
        <time>2020-11-28T13:14:48Z</time>
      </trkpt>
      <trkpt lat="48.53548" lon="7.18634">
        <ele>730.9</ele>
        <time>2020-11-28T13:14:50Z</time>
      </trkpt>
      <trkpt lat="48.53544" lon="7.18619">
        <ele>730.6</ele>
        <time>2020-11-28T13:14:52Z</time>
      </trkpt>
      <trkpt lat="48.53541" lon="7.18605">
        <ele>730.6</ele>
        <time>2020-11-28T13:14:54Z</time>
      </trkpt>
      <trkpt lat="48.53538" lon="7.18592">
        <ele>730.1</ele>
        <time>2020-11-28T13:14:56Z</time>
      </trkpt>
      <trkpt lat="48.53535" lon="7.18579">
        <ele>730.1</ele>
        <time>2020-11-28T13:14:58Z</time>
      </trkpt>
      <trkpt lat="48.53532" lon="7.18569">
        <ele>729.6</ele>
        <time>2020-11-28T13:15:00Z</time>
      </trkpt>
      <trkpt lat="48.53529" lon="7.18556">
        <ele>729.4</ele>
        <time>2020-11-28T13:15:02Z</time>
      </trkpt>
      <trkpt lat="48.53524" lon="7.18543">
        <ele>759.3</ele>
        <time>2020-11-28T13:15:04Z</time>
      </trkpt>
      <trkpt lat="48.53521" lon="7.18533">
        <ele>760.2</ele>
        <time>2020-11-28T13:15:06Z</time>
      </trkpt>
      <trkpt lat="48.53519" lon="7.18523">
        <ele>765.9</ele>
        <time>2020-11-28T13:15:08Z</time>
      </trkpt>
      <trkpt lat="48.53516" lon="7.18513">
        <ele>767.7</ele>
        <time>2020-11-28T13:15:10Z</time>
      </trkpt>
      <trkpt lat="48.53509" lon="7.18496">
        <ele>766.1</ele>
        <time>2020-11-28T13:15:12Z</time>
      </trkpt>
      <trkpt lat="48.53503" lon="7.18479">
        <ele>762.2</ele>
        <time>2020-11-28T13:15:14Z</time>
      </trkpt>
      <trkpt lat="48.53499" lon="7.18465">
        <ele>756.3</ele>
        <time>2020-11-28T13:15:16Z</time>
      </trkpt>
      <trkpt lat="48.53491" lon="7.18448">
        <ele>749.3</ele>
        <time>2020-11-28T13:15:19Z</time>
      </trkpt>
      <trkpt lat="48.53486" lon="7.18435">
        <ele>746</ele>
        <time>2020-11-28T13:15:21Z</time>
      </trkpt>
      <trkpt lat="48.5348" lon="7.18413">
        <ele>742.1</ele>
        <time>2020-11-28T13:15:24Z</time>
      </trkpt>
      <trkpt lat="48.53474" lon="7.18401">
        <ele>740.4</ele>
        <time>2020-11-28T13:15:26Z</time>
      </trkpt>
      <trkpt lat="48.53467" lon="7.18389">
        <ele>740.3</ele>
        <time>2020-11-28T13:15:28Z</time>
      </trkpt>
      <trkpt lat="48.5346" lon="7.18379">
        <ele>740</ele>
        <time>2020-11-28T13:15:30Z</time>
      </trkpt>
      <trkpt lat="48.53453" lon="7.18371">
        <ele>740</ele>
        <time>2020-11-28T13:15:32Z</time>
      </trkpt>
      <trkpt lat="48.53446" lon="7.18359">
        <ele>738.3</ele>
        <time>2020-11-28T13:15:34Z</time>
      </trkpt>
      <trkpt lat="48.53439" lon="7.18351">
        <ele>738</ele>
        <time>2020-11-28T13:15:36Z</time>
      </trkpt>
      <trkpt lat="48.53431" lon="7.18344">
        <ele>737.2</ele>
        <time>2020-11-28T13:15:38Z</time>
      </trkpt>
      <trkpt lat="48.53423" lon="7.18336">
        <ele>735.8</ele>
        <time>2020-11-28T13:15:40Z</time>
      </trkpt>
      <trkpt lat="48.53417" lon="7.18327">
        <ele>735</ele>
        <time>2020-11-28T13:15:42Z</time>
      </trkpt>
      <trkpt lat="48.5341" lon="7.18318">
        <ele>734.2</ele>
        <time>2020-11-28T13:15:44Z</time>
      </trkpt>
      <trkpt lat="48.53404" lon="7.1831">
        <ele>733.8</ele>
        <time>2020-11-28T13:15:46Z</time>
      </trkpt>
      <trkpt lat="48.53397" lon="7.183">
        <ele>733.7</ele>
        <time>2020-11-28T13:15:48Z</time>
      </trkpt>
      <trkpt lat="48.5339" lon="7.1829">
        <ele>733</ele>
        <time>2020-11-28T13:15:50Z</time>
      </trkpt>
      <trkpt lat="48.53383" lon="7.1828">
        <ele>732.4</ele>
        <time>2020-11-28T13:15:52Z</time>
      </trkpt>
      <trkpt lat="48.53376" lon="7.18271">
        <ele>733</ele>
        <time>2020-11-28T13:15:54Z</time>
      </trkpt>
      <trkpt lat="48.5337" lon="7.18263">
        <ele>733.1</ele>
        <time>2020-11-28T13:15:56Z</time>
      </trkpt>
      <trkpt lat="48.53364" lon="7.18254">
        <ele>733.1</ele>
        <time>2020-11-28T13:15:58Z</time>
      </trkpt>
      <trkpt lat="48.53359" lon="7.18244">
        <ele>733</ele>
        <time>2020-11-28T13:16:00Z</time>
      </trkpt>
      <trkpt lat="48.53354" lon="7.18234">
        <ele>733.1</ele>
        <time>2020-11-28T13:16:02Z</time>
      </trkpt>
      <trkpt lat="48.53351" lon="7.18222">
        <ele>733.3</ele>
        <time>2020-11-28T13:16:04Z</time>
      </trkpt>
      <trkpt lat="48.53348" lon="7.18211">
        <ele>733.3</ele>
        <time>2020-11-28T13:16:06Z</time>
      </trkpt>
      <trkpt lat="48.53344" lon="7.182">
        <ele>733.1</ele>
        <time>2020-11-28T13:16:08Z</time>
      </trkpt>
      <trkpt lat="48.5334" lon="7.18189">
        <ele>733.1</ele>
        <time>2020-11-28T13:16:10Z</time>
      </trkpt>
      <trkpt lat="48.53334" lon="7.18179">
        <ele>732.9</ele>
        <time>2020-11-28T13:16:12Z</time>
      </trkpt>
      <trkpt lat="48.53327" lon="7.18169">
        <ele>733.1</ele>
        <time>2020-11-28T13:16:14Z</time>
      </trkpt>
      <trkpt lat="48.53322" lon="7.18161">
        <ele>733</ele>
        <time>2020-11-28T13:16:16Z</time>
      </trkpt>
      <trkpt lat="48.53317" lon="7.1815">
        <ele>732.9</ele>
        <time>2020-11-28T13:16:18Z</time>
      </trkpt>
      <trkpt lat="48.53314" lon="7.18137">
        <ele>732.7</ele>
        <time>2020-11-28T13:16:20Z</time>
      </trkpt>
      <trkpt lat="48.53312" lon="7.18124">
        <ele>733</ele>
        <time>2020-11-28T13:16:22Z</time>
      </trkpt>
      <trkpt lat="48.53309" lon="7.18112">
        <ele>733</ele>
        <time>2020-11-28T13:16:24Z</time>
      </trkpt>
      <trkpt lat="48.53306" lon="7.181">
        <ele>755.9</ele>
        <time>2020-11-28T13:16:26Z</time>
      </trkpt>
      <trkpt lat="48.53304" lon="7.18088">
        <ele>758.1</ele>
        <time>2020-11-28T13:16:28Z</time>
      </trkpt>
      <trkpt lat="48.53303" lon="7.18075">
        <ele>757.4</ele>
        <time>2020-11-28T13:16:30Z</time>
      </trkpt>
      <trkpt lat="48.53301" lon="7.18061">
        <ele>771.5</ele>
        <time>2020-11-28T13:16:32Z</time>
      </trkpt>
      <trkpt lat="48.53298" lon="7.18043">
        <ele>766.1</ele>
        <time>2020-11-28T13:16:34Z</time>
      </trkpt>
      <trkpt lat="48.53294" lon="7.18027">
        <ele>763.7</ele>
        <time>2020-11-28T13:16:36Z</time>
      </trkpt>
      <trkpt lat="48.53291" lon="7.18011">
        <ele>759.3</ele>
        <time>2020-11-28T13:16:38Z</time>
      </trkpt>
      <trkpt lat="48.53289" lon="7.17996">
        <ele>756.2</ele>
        <time>2020-11-28T13:16:40Z</time>
      </trkpt>
      <trkpt lat="48.53285" lon="7.17984">
        <ele>752.4</ele>
        <time>2020-11-28T13:16:42Z</time>
      </trkpt>
      <trkpt lat="48.5328" lon="7.17971">
        <ele>749.2</ele>
        <time>2020-11-28T13:16:44Z</time>
      </trkpt>
      <trkpt lat="48.53275" lon="7.17959">
        <ele>746.9</ele>
        <time>2020-11-28T13:16:46Z</time>
      </trkpt>
      <trkpt lat="48.53272" lon="7.17948">
        <ele>744.9</ele>
        <time>2020-11-28T13:16:48Z</time>
      </trkpt>
      <trkpt lat="48.5327" lon="7.17941">
        <ele>740.5</ele>
        <time>2020-11-28T13:16:54Z</time>
      </trkpt>
      <trkpt lat="48.53269" lon="7.17935">
        <ele>736.1</ele>
        <time>2020-11-28T13:17:11Z</time>
      </trkpt>
      <trkpt lat="48.53267" lon="7.17925">
        <ele>735.9</ele>
        <time>2020-11-28T13:17:14Z</time>
      </trkpt>
      <trkpt lat="48.53265" lon="7.17916">
        <ele>735.6</ele>
        <time>2020-11-28T13:17:16Z</time>
      </trkpt>
      <trkpt lat="48.53262" lon="7.17906">
        <ele>736</ele>
        <time>2020-11-28T13:17:18Z</time>
      </trkpt>
      <trkpt lat="48.53258" lon="7.17896">
        <ele>736.4</ele>
        <time>2020-11-28T13:17:20Z</time>
      </trkpt>
      <trkpt lat="48.53254" lon="7.17885">
        <ele>736.5</ele>
        <time>2020-11-28T13:17:22Z</time>
      </trkpt>
      <trkpt lat="48.5325" lon="7.17876">
        <ele>736</ele>
        <time>2020-11-28T13:17:24Z</time>
      </trkpt>
      <trkpt lat="48.53246" lon="7.17865">
        <ele>736</ele>
        <time>2020-11-28T13:17:26Z</time>
      </trkpt>
      <trkpt lat="48.53241" lon="7.17854">
        <ele>736.8</ele>
        <time>2020-11-28T13:17:28Z</time>
      </trkpt>
      <trkpt lat="48.53236" lon="7.17843">
        <ele>737.7</ele>
        <time>2020-11-28T13:17:30Z</time>
      </trkpt>
      <trkpt lat="48.53231" lon="7.17831">
        <ele>758.6</ele>
        <time>2020-11-28T13:17:32Z</time>
      </trkpt>
      <trkpt lat="48.53226" lon="7.17819">
        <ele>756.4</ele>
        <time>2020-11-28T13:17:34Z</time>
      </trkpt>
      <trkpt lat="48.53224" lon="7.17807">
        <ele>758.9</ele>
        <time>2020-11-28T13:17:36Z</time>
      </trkpt>
      <trkpt lat="48.53221" lon="7.17795">
        <ele>768.7</ele>
        <time>2020-11-28T13:17:38Z</time>
      </trkpt>
      <trkpt lat="48.53218" lon="7.17784">
        <ele>765.4</ele>
        <time>2020-11-28T13:17:40Z</time>
      </trkpt>
      <trkpt lat="48.53214" lon="7.17773">
        <ele>760.5</ele>
        <time>2020-11-28T13:17:42Z</time>
      </trkpt>
      <trkpt lat="48.53209" lon="7.17763">
        <ele>756.4</ele>
        <time>2020-11-28T13:17:44Z</time>
      </trkpt>
      <trkpt lat="48.53205" lon="7.17753">
        <ele>752.1</ele>
        <time>2020-11-28T13:17:46Z</time>
      </trkpt>
      <trkpt lat="48.532" lon="7.17743">
        <ele>748.8</ele>
        <time>2020-11-28T13:17:48Z</time>
      </trkpt>
      <trkpt lat="48.53196" lon="7.17733">
        <ele>746.4</ele>
        <time>2020-11-28T13:17:50Z</time>
      </trkpt>
      <trkpt lat="48.53193" lon="7.17722">
        <ele>744.1</ele>
        <time>2020-11-28T13:17:52Z</time>
      </trkpt>
      <trkpt lat="48.53191" lon="7.17712">
        <ele>742.6</ele>
        <time>2020-11-28T13:17:54Z</time>
      </trkpt>
      <trkpt lat="48.53188" lon="7.177">
        <ele>740.5</ele>
        <time>2020-11-28T13:17:56Z</time>
      </trkpt>
      <trkpt lat="48.53186" lon="7.17687">
        <ele>738.3</ele>
        <time>2020-11-28T13:17:58Z</time>
      </trkpt>
      <trkpt lat="48.53183" lon="7.17673">
        <ele>736.8</ele>
        <time>2020-11-28T13:18:00Z</time>
      </trkpt>
      <trkpt lat="48.53178" lon="7.17659">
        <ele>736.6</ele>
        <time>2020-11-28T13:18:02Z</time>
      </trkpt>
      <trkpt lat="48.53173" lon="7.17647">
        <ele>736.4</ele>
        <time>2020-11-28T13:18:04Z</time>
      </trkpt>
      <trkpt lat="48.53167" lon="7.17636">
        <ele>737.2</ele>
        <time>2020-11-28T13:18:06Z</time>
      </trkpt>
      <trkpt lat="48.53163" lon="7.17624">
        <ele>737.4</ele>
        <time>2020-11-28T13:18:08Z</time>
      </trkpt>
      <trkpt lat="48.53158" lon="7.17614">
        <ele>737.9</ele>
        <time>2020-11-28T13:18:10Z</time>
      </trkpt>
      <trkpt lat="48.53154" lon="7.17604">
        <ele>738.7</ele>
        <time>2020-11-28T13:18:12Z</time>
      </trkpt>
      <trkpt lat="48.53151" lon="7.17592">
        <ele>738.6</ele>
        <time>2020-11-28T13:18:14Z</time>
      </trkpt>
      <trkpt lat="48.53147" lon="7.1758">
        <ele>738.1</ele>
        <time>2020-11-28T13:18:16Z</time>
      </trkpt>
      <trkpt lat="48.53143" lon="7.17567">
        <ele>737.5</ele>
        <time>2020-11-28T13:18:18Z</time>
      </trkpt>
      <trkpt lat="48.53139" lon="7.17552">
        <ele>735.9</ele>
        <time>2020-11-28T13:18:20Z</time>
      </trkpt>
      <trkpt lat="48.53135" lon="7.17538">
        <ele>735</ele>
        <time>2020-11-28T13:18:22Z</time>
      </trkpt>
      <trkpt lat="48.53131" lon="7.17525">
        <ele>734.9</ele>
        <time>2020-11-28T13:18:24Z</time>
      </trkpt>
      <trkpt lat="48.53128" lon="7.17512">
        <ele>734.4</ele>
        <time>2020-11-28T13:18:26Z</time>
      </trkpt>
      <trkpt lat="48.53125" lon="7.175">
        <ele>733.6</ele>
        <time>2020-11-28T13:18:28Z</time>
      </trkpt>
      <trkpt lat="48.53122" lon="7.1749">
        <ele>732.9</ele>
        <time>2020-11-28T13:18:30Z</time>
      </trkpt>
      <trkpt lat="48.5312" lon="7.1748">
        <ele>732.5</ele>
        <time>2020-11-28T13:18:32Z</time>
      </trkpt>
      <trkpt lat="48.53118" lon="7.17471">
        <ele>732.8</ele>
        <time>2020-11-28T13:18:34Z</time>
      </trkpt>
      <trkpt lat="48.53116" lon="7.17463">
        <ele>731.7</ele>
        <time>2020-11-28T13:18:36Z</time>
      </trkpt>
      <trkpt lat="48.53112" lon="7.17451">
        <ele>731.3</ele>
        <time>2020-11-28T13:18:39Z</time>
      </trkpt>
      <trkpt lat="48.53111" lon="7.17442">
        <ele>731</ele>
        <time>2020-11-28T13:18:41Z</time>
      </trkpt>
      <trkpt lat="48.53109" lon="7.17434">
        <ele>731.5</ele>
        <time>2020-11-28T13:18:43Z</time>
      </trkpt>
      <trkpt lat="48.53108" lon="7.17426">
        <ele>731.8</ele>
        <time>2020-11-28T13:18:45Z</time>
      </trkpt>
      <trkpt lat="48.53106" lon="7.17419">
        <ele>731.5</ele>
        <time>2020-11-28T13:18:47Z</time>
      </trkpt>
      <trkpt lat="48.53105" lon="7.17412">
        <ele>732.3</ele>
        <time>2020-11-28T13:18:49Z</time>
      </trkpt>
      <trkpt lat="48.53103" lon="7.17405">
        <ele>732.4</ele>
        <time>2020-11-28T13:18:51Z</time>
      </trkpt>
      <trkpt lat="48.53102" lon="7.17399">
        <ele>733</ele>
        <time>2020-11-28T13:18:53Z</time>
      </trkpt>
      <trkpt lat="48.531" lon="7.17389">
        <ele>733.4</ele>
        <time>2020-11-28T13:18:56Z</time>
      </trkpt>
      <trkpt lat="48.53098" lon="7.1738">
        <ele>733.2</ele>
        <time>2020-11-28T13:18:59Z</time>
      </trkpt>
      <trkpt lat="48.53098" lon="7.17372">
        <ele>733.7</ele>
        <time>2020-11-28T13:19:02Z</time>
      </trkpt>
      <trkpt lat="48.53098" lon="7.17365">
        <ele>735.4</ele>
        <time>2020-11-28T13:19:05Z</time>
      </trkpt>
      <trkpt lat="48.53097" lon="7.17357">
        <ele>736.5</ele>
        <time>2020-11-28T13:19:08Z</time>
      </trkpt>
      <trkpt lat="48.53096" lon="7.17348">
        <ele>737</ele>
        <time>2020-11-28T13:19:11Z</time>
      </trkpt>
      <trkpt lat="48.53094" lon="7.17339">
        <ele>738.3</ele>
        <time>2020-11-28T13:19:14Z</time>
      </trkpt>
      <trkpt lat="48.53091" lon="7.1733">
        <ele>739.1</ele>
        <time>2020-11-28T13:19:17Z</time>
      </trkpt>
      <trkpt lat="48.5309" lon="7.17323">
        <ele>738.7</ele>
        <time>2020-11-28T13:19:20Z</time>
      </trkpt>
      <trkpt lat="48.53088" lon="7.17315">
        <ele>741.3</ele>
        <time>2020-11-28T13:19:23Z</time>
      </trkpt>
      <trkpt lat="48.53085" lon="7.17306">
        <ele>743.3</ele>
        <time>2020-11-28T13:19:26Z</time>
      </trkpt>
      <trkpt lat="48.53084" lon="7.17298">
        <ele>744.8</ele>
        <time>2020-11-28T13:19:29Z</time>
      </trkpt>
      <trkpt lat="48.53083" lon="7.17291">
        <ele>746</ele>
        <time>2020-11-28T13:19:32Z</time>
      </trkpt>
      <trkpt lat="48.53082" lon="7.17283">
        <ele>746.8</ele>
        <time>2020-11-28T13:19:35Z</time>
      </trkpt>
      <trkpt lat="48.5308" lon="7.17275">
        <ele>746.6</ele>
        <time>2020-11-28T13:19:38Z</time>
      </trkpt>
      <trkpt lat="48.53078" lon="7.17268">
        <ele>746.4</ele>
        <time>2020-11-28T13:19:41Z</time>
      </trkpt>
      <trkpt lat="48.53076" lon="7.17262">
        <ele>746.9</ele>
        <time>2020-11-28T13:19:44Z</time>
      </trkpt>
      <trkpt lat="48.53076" lon="7.17254">
        <ele>749.2</ele>
        <time>2020-11-28T13:19:48Z</time>
      </trkpt>
      <trkpt lat="48.53072" lon="7.17249">
        <ele>751.2</ele>
        <time>2020-11-28T13:19:51Z</time>
      </trkpt>
      <trkpt lat="48.53069" lon="7.17242">
        <ele>752</ele>
        <time>2020-11-28T13:19:54Z</time>
      </trkpt>
      <trkpt lat="48.53067" lon="7.17236">
        <ele>751.9</ele>
        <time>2020-11-28T13:19:56Z</time>
      </trkpt>
      <trkpt lat="48.53064" lon="7.17228">
        <ele>752.5</ele>
        <time>2020-11-28T13:19:59Z</time>
      </trkpt>
      <trkpt lat="48.5306" lon="7.17221">
        <ele>753.5</ele>
        <time>2020-11-28T13:20:02Z</time>
      </trkpt>
      <trkpt lat="48.53057" lon="7.17214">
        <ele>753.9</ele>
        <time>2020-11-28T13:20:06Z</time>
      </trkpt>
      <trkpt lat="48.53055" lon="7.17206">
        <ele>754.1</ele>
        <time>2020-11-28T13:20:09Z</time>
      </trkpt>
      <trkpt lat="48.53052" lon="7.17196">
        <ele>753.6</ele>
        <time>2020-11-28T13:20:12Z</time>
      </trkpt>
      <trkpt lat="48.53049" lon="7.17187">
        <ele>754</ele>
        <time>2020-11-28T13:20:15Z</time>
      </trkpt>
      <trkpt lat="48.53047" lon="7.17181">
        <ele>754.1</ele>
        <time>2020-11-28T13:20:18Z</time>
      </trkpt>
      <trkpt lat="48.53043" lon="7.17174">
        <ele>754.8</ele>
        <time>2020-11-28T13:20:21Z</time>
      </trkpt>
      <trkpt lat="48.53042" lon="7.17165">
        <ele>755.1</ele>
        <time>2020-11-28T13:20:24Z</time>
      </trkpt>
      <trkpt lat="48.53042" lon="7.17158">
        <ele>755.6</ele>
        <time>2020-11-28T13:20:27Z</time>
      </trkpt>
      <trkpt lat="48.53039" lon="7.17151">
        <ele>755.6</ele>
        <time>2020-11-28T13:20:30Z</time>
      </trkpt>
      <trkpt lat="48.53035" lon="7.17144">
        <ele>756.2</ele>
        <time>2020-11-28T13:20:33Z</time>
      </trkpt>
      <trkpt lat="48.53031" lon="7.17138">
        <ele>757.1</ele>
        <time>2020-11-28T13:20:36Z</time>
      </trkpt>
      <trkpt lat="48.53028" lon="7.17132">
        <ele>758.4</ele>
        <time>2020-11-28T13:20:39Z</time>
      </trkpt>
      <trkpt lat="48.53026" lon="7.17125">
        <ele>759</ele>
        <time>2020-11-28T13:20:42Z</time>
      </trkpt>
      <trkpt lat="48.53024" lon="7.17119">
        <ele>759.6</ele>
        <time>2020-11-28T13:20:45Z</time>
      </trkpt>
      <trkpt lat="48.53021" lon="7.17112">
        <ele>760.3</ele>
        <time>2020-11-28T13:20:48Z</time>
      </trkpt>
      <trkpt lat="48.53017" lon="7.17105">
        <ele>760.7</ele>
        <time>2020-11-28T13:20:51Z</time>
      </trkpt>
      <trkpt lat="48.53014" lon="7.17099">
        <ele>760.8</ele>
        <time>2020-11-28T13:20:54Z</time>
      </trkpt>
      <trkpt lat="48.53011" lon="7.17091">
        <ele>761.2</ele>
        <time>2020-11-28T13:20:57Z</time>
      </trkpt>
      <trkpt lat="48.53007" lon="7.17083">
        <ele>761</ele>
        <time>2020-11-28T13:21:00Z</time>
      </trkpt>
      <trkpt lat="48.53003" lon="7.17076">
        <ele>759.8</ele>
        <time>2020-11-28T13:21:03Z</time>
      </trkpt>
      <trkpt lat="48.52999" lon="7.17069">
        <ele>760</ele>
        <time>2020-11-28T13:21:06Z</time>
      </trkpt>
      <trkpt lat="48.52998" lon="7.17061">
        <ele>760.6</ele>
        <time>2020-11-28T13:21:09Z</time>
      </trkpt>
      <trkpt lat="48.52996" lon="7.17055">
        <ele>761.7</ele>
        <time>2020-11-28T13:21:12Z</time>
      </trkpt>
      <trkpt lat="48.52994" lon="7.17049">
        <ele>762.3</ele>
        <time>2020-11-28T13:21:15Z</time>
      </trkpt>
      <trkpt lat="48.52992" lon="7.17043">
        <ele>762.9</ele>
        <time>2020-11-28T13:21:18Z</time>
      </trkpt>
      <trkpt lat="48.52988" lon="7.17037">
        <ele>763.5</ele>
        <time>2020-11-28T13:21:21Z</time>
      </trkpt>
      <trkpt lat="48.52985" lon="7.17031">
        <ele>764.3</ele>
        <time>2020-11-28T13:21:24Z</time>
      </trkpt>
      <trkpt lat="48.5298" lon="7.17027">
        <ele>764.8</ele>
        <time>2020-11-28T13:21:27Z</time>
      </trkpt>
      <trkpt lat="48.52976" lon="7.17023">
        <ele>765</ele>
        <time>2020-11-28T13:21:30Z</time>
      </trkpt>
      <trkpt lat="48.5297" lon="7.17018">
        <ele>766.1</ele>
        <time>2020-11-28T13:21:33Z</time>
      </trkpt>
      <trkpt lat="48.52965" lon="7.17014">
        <ele>766.1</ele>
        <time>2020-11-28T13:21:36Z</time>
      </trkpt>
      <trkpt lat="48.52961" lon="7.17008">
        <ele>765.7</ele>
        <time>2020-11-28T13:21:39Z</time>
      </trkpt>
      <trkpt lat="48.52956" lon="7.17004">
        <ele>765.2</ele>
        <time>2020-11-28T13:21:42Z</time>
      </trkpt>
      <trkpt lat="48.52952" lon="7.16999">
        <ele>765.2</ele>
        <time>2020-11-28T13:21:45Z</time>
      </trkpt>
      <trkpt lat="48.52947" lon="7.16996">
        <ele>765.3</ele>
        <time>2020-11-28T13:21:48Z</time>
      </trkpt>
      <trkpt lat="48.52944" lon="7.1699">
        <ele>765</ele>
        <time>2020-11-28T13:21:51Z</time>
      </trkpt>
      <trkpt lat="48.52939" lon="7.16985">
        <ele>765.2</ele>
        <time>2020-11-28T13:21:54Z</time>
      </trkpt>
      <trkpt lat="48.52933" lon="7.16981">
        <ele>765.3</ele>
        <time>2020-11-28T13:21:57Z</time>
      </trkpt>
      <trkpt lat="48.52929" lon="7.16977">
        <ele>765.6</ele>
        <time>2020-11-28T13:22:00Z</time>
      </trkpt>
      <trkpt lat="48.52923" lon="7.16972">
        <ele>766.2</ele>
        <time>2020-11-28T13:22:03Z</time>
      </trkpt>
      <trkpt lat="48.52919" lon="7.1697">
        <ele>767</ele>
        <time>2020-11-28T13:22:06Z</time>
      </trkpt>
      <trkpt lat="48.52914" lon="7.16966">
        <ele>767.8</ele>
        <time>2020-11-28T13:22:10Z</time>
      </trkpt>
      <trkpt lat="48.52909" lon="7.16963">
        <ele>768.3</ele>
        <time>2020-11-28T13:22:13Z</time>
      </trkpt>
      <trkpt lat="48.52903" lon="7.16959">
        <ele>768.8</ele>
        <time>2020-11-28T13:22:16Z</time>
      </trkpt>
      <trkpt lat="48.52898" lon="7.16954">
        <ele>769.8</ele>
        <time>2020-11-28T13:22:19Z</time>
      </trkpt>
      <trkpt lat="48.52893" lon="7.16949">
        <ele>770.5</ele>
        <time>2020-11-28T13:22:22Z</time>
      </trkpt>
      <trkpt lat="48.52888" lon="7.16945">
        <ele>770.3</ele>
        <time>2020-11-28T13:22:25Z</time>
      </trkpt>
      <trkpt lat="48.52883" lon="7.1694">
        <ele>770.7</ele>
        <time>2020-11-28T13:22:28Z</time>
      </trkpt>
      <trkpt lat="48.52879" lon="7.16936">
        <ele>770.3</ele>
        <time>2020-11-28T13:22:31Z</time>
      </trkpt>
      <trkpt lat="48.52875" lon="7.16932">
        <ele>770.4</ele>
        <time>2020-11-28T13:22:34Z</time>
      </trkpt>
      <trkpt lat="48.5287" lon="7.16928">
        <ele>770.5</ele>
        <time>2020-11-28T13:22:37Z</time>
      </trkpt>
      <trkpt lat="48.52865" lon="7.16925">
        <ele>770.8</ele>
        <time>2020-11-28T13:22:40Z</time>
      </trkpt>
      <trkpt lat="48.5286" lon="7.16921">
        <ele>769.4</ele>
        <time>2020-11-28T13:22:44Z</time>
      </trkpt>
      <trkpt lat="48.52855" lon="7.16917">
        <ele>769.3</ele>
        <time>2020-11-28T13:22:47Z</time>
      </trkpt>
      <trkpt lat="48.5285" lon="7.16914">
        <ele>769.4</ele>
        <time>2020-11-28T13:22:50Z</time>
      </trkpt>
      <trkpt lat="48.52846" lon="7.16913">
        <ele>770.5</ele>
        <time>2020-11-28T13:22:53Z</time>
      </trkpt>
      <trkpt lat="48.5284" lon="7.1691">
        <ele>771.6</ele>
        <time>2020-11-28T13:22:56Z</time>
      </trkpt>
      <trkpt lat="48.52836" lon="7.16909">
        <ele>772.5</ele>
        <time>2020-11-28T13:22:59Z</time>
      </trkpt>
      <trkpt lat="48.52831" lon="7.16906">
        <ele>773.3</ele>
        <time>2020-11-28T13:23:02Z</time>
      </trkpt>
      <trkpt lat="48.52826" lon="7.16902">
        <ele>774.4</ele>
        <time>2020-11-28T13:23:05Z</time>
      </trkpt>
      <trkpt lat="48.52821" lon="7.16898">
        <ele>776</ele>
        <time>2020-11-28T13:23:08Z</time>
      </trkpt>
      <trkpt lat="48.52816" lon="7.16895">
        <ele>777.1</ele>
        <time>2020-11-28T13:23:11Z</time>
      </trkpt>
      <trkpt lat="48.52811" lon="7.16891">
        <ele>778.2</ele>
        <time>2020-11-28T13:23:15Z</time>
      </trkpt>
      <trkpt lat="48.52807" lon="7.16886">
        <ele>777.4</ele>
        <time>2020-11-28T13:23:19Z</time>
      </trkpt>
      <trkpt lat="48.52803" lon="7.16882">
        <ele>776.9</ele>
        <time>2020-11-28T13:23:22Z</time>
      </trkpt>
      <trkpt lat="48.52797" lon="7.16878">
        <ele>776.2</ele>
        <time>2020-11-28T13:23:25Z</time>
      </trkpt>
      <trkpt lat="48.52792" lon="7.16874">
        <ele>777</ele>
        <time>2020-11-28T13:23:28Z</time>
      </trkpt>
      <trkpt lat="48.52788" lon="7.1687">
        <ele>777.7</ele>
        <time>2020-11-28T13:23:30Z</time>
      </trkpt>
      <trkpt lat="48.52782" lon="7.16866">
        <ele>778.6</ele>
        <time>2020-11-28T13:23:33Z</time>
      </trkpt>
      <trkpt lat="48.52777" lon="7.16864">
        <ele>780.3</ele>
        <time>2020-11-28T13:23:36Z</time>
      </trkpt>
      <trkpt lat="48.52772" lon="7.16862">
        <ele>781</ele>
        <time>2020-11-28T13:23:39Z</time>
      </trkpt>
      <trkpt lat="48.52768" lon="7.16858">
        <ele>781.1</ele>
        <time>2020-11-28T13:23:42Z</time>
      </trkpt>
      <trkpt lat="48.52763" lon="7.16854">
        <ele>781</ele>
        <time>2020-11-28T13:23:45Z</time>
      </trkpt>
      <trkpt lat="48.52758" lon="7.16849">
        <ele>781.9</ele>
        <time>2020-11-28T13:23:48Z</time>
      </trkpt>
      <trkpt lat="48.52754" lon="7.16845">
        <ele>783.3</ele>
        <time>2020-11-28T13:23:51Z</time>
      </trkpt>
      <trkpt lat="48.5275" lon="7.16846">
        <ele>783.5</ele>
        <time>2020-11-28T13:24:02Z</time>
      </trkpt>
      <trkpt lat="48.52754" lon="7.16847">
        <ele>782.2</ele>
        <time>2020-11-28T13:24:12Z</time>
      </trkpt>
      <trkpt lat="48.52758" lon="7.16843">
        <ele>782.4</ele>
        <time>2020-11-28T13:24:15Z</time>
      </trkpt>
      <trkpt lat="48.52763" lon="7.16838">
        <ele>783.1</ele>
        <time>2020-11-28T13:24:18Z</time>
      </trkpt>
      <trkpt lat="48.52767" lon="7.16831">
        <ele>784</ele>
        <time>2020-11-28T13:24:21Z</time>
      </trkpt>
      <trkpt lat="48.52769" lon="7.16824">
        <ele>784.7</ele>
        <time>2020-11-28T13:24:24Z</time>
      </trkpt>
      <trkpt lat="48.52769" lon="7.16815">
        <ele>785.3</ele>
        <time>2020-11-28T13:24:27Z</time>
      </trkpt>
      <trkpt lat="48.52768" lon="7.16806">
        <ele>785.3</ele>
        <time>2020-11-28T13:24:30Z</time>
      </trkpt>
      <trkpt lat="48.52767" lon="7.16796">
        <ele>785.5</ele>
        <time>2020-11-28T13:24:33Z</time>
      </trkpt>
      <trkpt lat="48.52765" lon="7.16788">
        <ele>785.5</ele>
        <time>2020-11-28T13:24:36Z</time>
      </trkpt>
      <trkpt lat="48.52763" lon="7.16781">
        <ele>785.6</ele>
        <time>2020-11-28T13:24:39Z</time>
      </trkpt>
      <trkpt lat="48.52759" lon="7.16773">
        <ele>786.2</ele>
        <time>2020-11-28T13:24:42Z</time>
      </trkpt>
      <trkpt lat="48.52754" lon="7.16773">
        <ele>786.2</ele>
        <time>2020-11-28T13:24:45Z</time>
      </trkpt>
      <trkpt lat="48.52748" lon="7.16771">
        <ele>786.4</ele>
        <time>2020-11-28T13:24:49Z</time>
      </trkpt>
      <trkpt lat="48.52744" lon="7.16767">
        <ele>786.9</ele>
        <time>2020-11-28T13:24:52Z</time>
      </trkpt>
      <trkpt lat="48.52739" lon="7.16761">
        <ele>787.3</ele>
        <time>2020-11-28T13:25:16Z</time>
      </trkpt>
      <trkpt lat="48.52736" lon="7.16757">
        <ele>787.5</ele>
        <time>2020-11-28T13:25:19Z</time>
      </trkpt>
      <trkpt lat="48.52732" lon="7.16751">
        <ele>787.8</ele>
        <time>2020-11-28T13:25:22Z</time>
      </trkpt>
      <trkpt lat="48.52728" lon="7.16745">
        <ele>788.6</ele>
        <time>2020-11-28T13:25:25Z</time>
      </trkpt>
      <trkpt lat="48.52722" lon="7.16742">
        <ele>788.5</ele>
        <time>2020-11-28T13:25:28Z</time>
      </trkpt>
      <trkpt lat="48.52717" lon="7.16737">
        <ele>789.2</ele>
        <time>2020-11-28T13:25:31Z</time>
      </trkpt>
      <trkpt lat="48.52712" lon="7.16731">
        <ele>789.5</ele>
        <time>2020-11-28T13:25:34Z</time>
      </trkpt>
      <trkpt lat="48.52707" lon="7.16728">
        <ele>790</ele>
        <time>2020-11-28T13:25:37Z</time>
      </trkpt>
      <trkpt lat="48.52702" lon="7.16726">
        <ele>790.3</ele>
        <time>2020-11-28T13:25:40Z</time>
      </trkpt>
      <trkpt lat="48.52697" lon="7.16723">
        <ele>790.5</ele>
        <time>2020-11-28T13:25:43Z</time>
      </trkpt>
      <trkpt lat="48.52693" lon="7.16719">
        <ele>790.6</ele>
        <time>2020-11-28T13:25:45Z</time>
      </trkpt>
      <trkpt lat="48.52688" lon="7.16716">
        <ele>790.2</ele>
        <time>2020-11-28T13:25:47Z</time>
      </trkpt>
      <trkpt lat="48.52683" lon="7.16712">
        <ele>790.8</ele>
        <time>2020-11-28T13:25:50Z</time>
      </trkpt>
      <trkpt lat="48.52677" lon="7.16708">
        <ele>791.7</ele>
        <time>2020-11-28T13:25:53Z</time>
      </trkpt>
      <trkpt lat="48.52671" lon="7.16705">
        <ele>792.7</ele>
        <time>2020-11-28T13:25:56Z</time>
      </trkpt>
      <trkpt lat="48.52666" lon="7.16701">
        <ele>793.1</ele>
        <time>2020-11-28T13:25:59Z</time>
      </trkpt>
      <trkpt lat="48.52661" lon="7.16698">
        <ele>793.1</ele>
        <time>2020-11-28T13:26:02Z</time>
      </trkpt>
      <trkpt lat="48.52655" lon="7.16696">
        <ele>793.5</ele>
        <time>2020-11-28T13:26:05Z</time>
      </trkpt>
      <trkpt lat="48.5265" lon="7.16693">
        <ele>793.2</ele>
        <time>2020-11-28T13:26:08Z</time>
      </trkpt>
      <trkpt lat="48.52644" lon="7.16691">
        <ele>794.1</ele>
        <time>2020-11-28T13:26:11Z</time>
      </trkpt>
      <trkpt lat="48.5264" lon="7.1669">
        <ele>794.1</ele>
        <time>2020-11-28T13:26:13Z</time>
      </trkpt>
      <trkpt lat="48.52633" lon="7.16688">
        <ele>794.2</ele>
        <time>2020-11-28T13:26:16Z</time>
      </trkpt>
      <trkpt lat="48.52627" lon="7.16687">
        <ele>794.1</ele>
        <time>2020-11-28T13:26:19Z</time>
      </trkpt>
      <trkpt lat="48.52622" lon="7.16687">
        <ele>794.2</ele>
        <time>2020-11-28T13:26:22Z</time>
      </trkpt>
      <trkpt lat="48.52617" lon="7.16686">
        <ele>794.8</ele>
        <time>2020-11-28T13:26:25Z</time>
      </trkpt>
      <trkpt lat="48.52611" lon="7.16685">
        <ele>795.2</ele>
        <time>2020-11-28T13:26:28Z</time>
      </trkpt>
      <trkpt lat="48.52606" lon="7.16683">
        <ele>795.5</ele>
        <time>2020-11-28T13:26:31Z</time>
      </trkpt>
      <trkpt lat="48.52601" lon="7.16682">
        <ele>795.8</ele>
        <time>2020-11-28T13:26:34Z</time>
      </trkpt>
      <trkpt lat="48.52595" lon="7.16681">
        <ele>796.6</ele>
        <time>2020-11-28T13:26:37Z</time>
      </trkpt>
      <trkpt lat="48.52589" lon="7.16683">
        <ele>796.3</ele>
        <time>2020-11-28T13:26:40Z</time>
      </trkpt>
      <trkpt lat="48.52584" lon="7.16682">
        <ele>796.4</ele>
        <time>2020-11-28T13:26:43Z</time>
      </trkpt>
      <trkpt lat="48.52577" lon="7.16683">
        <ele>797.2</ele>
        <time>2020-11-28T13:26:46Z</time>
      </trkpt>
      <trkpt lat="48.52571" lon="7.16684">
        <ele>798</ele>
        <time>2020-11-28T13:26:49Z</time>
      </trkpt>
      <trkpt lat="48.52565" lon="7.16685">
        <ele>797.8</ele>
        <time>2020-11-28T13:26:52Z</time>
      </trkpt>
      <trkpt lat="48.52559" lon="7.16687">
        <ele>798</ele>
        <time>2020-11-28T13:26:55Z</time>
      </trkpt>
      <trkpt lat="48.52553" lon="7.16688">
        <ele>798.4</ele>
        <time>2020-11-28T13:26:58Z</time>
      </trkpt>
      <trkpt lat="48.52547" lon="7.16689">
        <ele>798.6</ele>
        <time>2020-11-28T13:27:01Z</time>
      </trkpt>
      <trkpt lat="48.52542" lon="7.16691">
        <ele>798.8</ele>
        <time>2020-11-28T13:27:04Z</time>
      </trkpt>
      <trkpt lat="48.52536" lon="7.16693">
        <ele>799.2</ele>
        <time>2020-11-28T13:27:07Z</time>
      </trkpt>
      <trkpt lat="48.5253" lon="7.16695">
        <ele>799.1</ele>
        <time>2020-11-28T13:27:10Z</time>
      </trkpt>
      <trkpt lat="48.52524" lon="7.16697">
        <ele>799.1</ele>
        <time>2020-11-28T13:27:13Z</time>
      </trkpt>
      <trkpt lat="48.52518" lon="7.16698">
        <ele>799.8</ele>
        <time>2020-11-28T13:27:16Z</time>
      </trkpt>
      <trkpt lat="48.52512" lon="7.16699">
        <ele>801.5</ele>
        <time>2020-11-28T13:27:19Z</time>
      </trkpt>
      <trkpt lat="48.52506" lon="7.16699">
        <ele>802.9</ele>
        <time>2020-11-28T13:27:22Z</time>
      </trkpt>
      <trkpt lat="48.52501" lon="7.167">
        <ele>803.9</ele>
        <time>2020-11-28T13:27:25Z</time>
      </trkpt>
      <trkpt lat="48.52495" lon="7.167">
        <ele>803.8</ele>
        <time>2020-11-28T13:27:28Z</time>
      </trkpt>
      <trkpt lat="48.52489" lon="7.16701">
        <ele>802.9</ele>
        <time>2020-11-28T13:27:31Z</time>
      </trkpt>
      <trkpt lat="48.52483" lon="7.16701">
        <ele>802.2</ele>
        <time>2020-11-28T13:27:34Z</time>
      </trkpt>
      <trkpt lat="48.52478" lon="7.16701">
        <ele>802</ele>
        <time>2020-11-28T13:27:37Z</time>
      </trkpt>
      <trkpt lat="48.52472" lon="7.16702">
        <ele>802</ele>
        <time>2020-11-28T13:27:40Z</time>
      </trkpt>
      <trkpt lat="48.52467" lon="7.16703">
        <ele>802.9</ele>
        <time>2020-11-28T13:27:43Z</time>
      </trkpt>
      <trkpt lat="48.52461" lon="7.16704">
        <ele>804.2</ele>
        <time>2020-11-28T13:27:46Z</time>
      </trkpt>
      <trkpt lat="48.52455" lon="7.16706">
        <ele>804.5</ele>
        <time>2020-11-28T13:27:49Z</time>
      </trkpt>
      <trkpt lat="48.52449" lon="7.16709">
        <ele>804.9</ele>
        <time>2020-11-28T13:27:52Z</time>
      </trkpt>
      <trkpt lat="48.52444" lon="7.16713">
        <ele>806</ele>
        <time>2020-11-28T13:27:55Z</time>
      </trkpt>
      <trkpt lat="48.52439" lon="7.16716">
        <ele>806.9</ele>
        <time>2020-11-28T13:27:58Z</time>
      </trkpt>
      <trkpt lat="48.52434" lon="7.16719">
        <ele>806.6</ele>
        <time>2020-11-28T13:28:01Z</time>
      </trkpt>
      <trkpt lat="48.5243" lon="7.16721">
        <ele>805.7</ele>
        <time>2020-11-28T13:28:04Z</time>
      </trkpt>
      <trkpt lat="48.52425" lon="7.16723">
        <ele>806.5</ele>
        <time>2020-11-28T13:28:07Z</time>
      </trkpt>
      <trkpt lat="48.52419" lon="7.16726">
        <ele>807.4</ele>
        <time>2020-11-28T13:28:10Z</time>
      </trkpt>
      <trkpt lat="48.52414" lon="7.16728">
        <ele>806.8</ele>
        <time>2020-11-28T13:28:13Z</time>
      </trkpt>
      <trkpt lat="48.52408" lon="7.16731">
        <ele>807.4</ele>
        <time>2020-11-28T13:28:16Z</time>
      </trkpt>
      <trkpt lat="48.52402" lon="7.16733">
        <ele>808.7</ele>
        <time>2020-11-28T13:28:19Z</time>
      </trkpt>
      <trkpt lat="48.52397" lon="7.16735">
        <ele>809.6</ele>
        <time>2020-11-28T13:28:22Z</time>
      </trkpt>
      <trkpt lat="48.52391" lon="7.16737">
        <ele>810</ele>
        <time>2020-11-28T13:28:25Z</time>
      </trkpt>
      <trkpt lat="48.52386" lon="7.1674">
        <ele>810.9</ele>
        <time>2020-11-28T13:28:28Z</time>
      </trkpt>
      <trkpt lat="48.52381" lon="7.16742">
        <ele>811</ele>
        <time>2020-11-28T13:28:31Z</time>
      </trkpt>
      <trkpt lat="48.52376" lon="7.16745">
        <ele>811.4</ele>
        <time>2020-11-28T13:28:34Z</time>
      </trkpt>
      <trkpt lat="48.5237" lon="7.16748">
        <ele>812.7</ele>
        <time>2020-11-28T13:28:37Z</time>
      </trkpt>
      <trkpt lat="48.52365" lon="7.16752">
        <ele>813</ele>
        <time>2020-11-28T13:28:40Z</time>
      </trkpt>
      <trkpt lat="48.52361" lon="7.16756">
        <ele>812.3</ele>
        <time>2020-11-28T13:28:43Z</time>
      </trkpt>
      <trkpt lat="48.52356" lon="7.1676">
        <ele>811.3</ele>
        <time>2020-11-28T13:28:47Z</time>
      </trkpt>
      <trkpt lat="48.52352" lon="7.16763">
        <ele>811.3</ele>
        <time>2020-11-28T13:28:50Z</time>
      </trkpt>
      <trkpt lat="48.52347" lon="7.16766">
        <ele>811.4</ele>
        <time>2020-11-28T13:28:53Z</time>
      </trkpt>
      <trkpt lat="48.52341" lon="7.1677">
        <ele>811.8</ele>
        <time>2020-11-28T13:28:56Z</time>
      </trkpt>
      <trkpt lat="48.52336" lon="7.16774">
        <ele>812.3</ele>
        <time>2020-11-28T13:28:59Z</time>
      </trkpt>
      <trkpt lat="48.52331" lon="7.16777">
        <ele>813.3</ele>
        <time>2020-11-28T13:29:02Z</time>
      </trkpt>
      <trkpt lat="48.52326" lon="7.16782">
        <ele>814</ele>
        <time>2020-11-28T13:29:05Z</time>
      </trkpt>
      <trkpt lat="48.52322" lon="7.16787">
        <ele>814.8</ele>
        <time>2020-11-28T13:29:08Z</time>
      </trkpt>
      <trkpt lat="48.52318" lon="7.16791">
        <ele>815.4</ele>
        <time>2020-11-28T13:29:11Z</time>
      </trkpt>
      <trkpt lat="48.52314" lon="7.16795">
        <ele>815.7</ele>
        <time>2020-11-28T13:29:14Z</time>
      </trkpt>
      <trkpt lat="48.5231" lon="7.16799">
        <ele>815.8</ele>
        <time>2020-11-28T13:29:17Z</time>
      </trkpt>
      <trkpt lat="48.52305" lon="7.16804">
        <ele>816.1</ele>
        <time>2020-11-28T13:29:20Z</time>
      </trkpt>
      <trkpt lat="48.52301" lon="7.1681">
        <ele>815.7</ele>
        <time>2020-11-28T13:29:23Z</time>
      </trkpt>
      <trkpt lat="48.52296" lon="7.16816">
        <ele>814.9</ele>
        <time>2020-11-28T13:29:26Z</time>
      </trkpt>
      <trkpt lat="48.52292" lon="7.16823">
        <ele>813.4</ele>
        <time>2020-11-28T13:29:29Z</time>
      </trkpt>
      <trkpt lat="48.52287" lon="7.16828">
        <ele>812.3</ele>
        <time>2020-11-28T13:29:32Z</time>
      </trkpt>
      <trkpt lat="48.52283" lon="7.16832">
        <ele>811.7</ele>
        <time>2020-11-28T13:29:35Z</time>
      </trkpt>
      <trkpt lat="48.52278" lon="7.16838">
        <ele>811.4</ele>
        <time>2020-11-28T13:29:38Z</time>
      </trkpt>
      <trkpt lat="48.52274" lon="7.16845">
        <ele>811.7</ele>
        <time>2020-11-28T13:29:41Z</time>
      </trkpt>
      <trkpt lat="48.5227" lon="7.16852">
        <ele>812.4</ele>
        <time>2020-11-28T13:29:44Z</time>
      </trkpt>
      <trkpt lat="48.52266" lon="7.16857">
        <ele>814.5</ele>
        <time>2020-11-28T13:29:47Z</time>
      </trkpt>
      <trkpt lat="48.52262" lon="7.16863">
        <ele>816.1</ele>
        <time>2020-11-28T13:29:50Z</time>
      </trkpt>
      <trkpt lat="48.52257" lon="7.16868">
        <ele>817.5</ele>
        <time>2020-11-28T13:29:53Z</time>
      </trkpt>
      <trkpt lat="48.52252" lon="7.16874">
        <ele>818.1</ele>
        <time>2020-11-28T13:29:56Z</time>
      </trkpt>
      <trkpt lat="48.52248" lon="7.16879">
        <ele>818.3</ele>
        <time>2020-11-28T13:29:59Z</time>
      </trkpt>
      <trkpt lat="48.52244" lon="7.16884">
        <ele>818.5</ele>
        <time>2020-11-28T13:30:02Z</time>
      </trkpt>
      <trkpt lat="48.5224" lon="7.16889">
        <ele>818.8</ele>
        <time>2020-11-28T13:30:05Z</time>
      </trkpt>
      <trkpt lat="48.52237" lon="7.16895">
        <ele>819.1</ele>
        <time>2020-11-28T13:30:08Z</time>
      </trkpt>
      <trkpt lat="48.52232" lon="7.16899">
        <ele>820</ele>
        <time>2020-11-28T13:30:11Z</time>
      </trkpt>
      <trkpt lat="48.52228" lon="7.16902">
        <ele>821.1</ele>
        <time>2020-11-28T13:30:14Z</time>
      </trkpt>
      <trkpt lat="48.52223" lon="7.16905">
        <ele>822.1</ele>
        <time>2020-11-28T13:30:17Z</time>
      </trkpt>
      <trkpt lat="48.52219" lon="7.16911">
        <ele>823</ele>
        <time>2020-11-28T13:30:20Z</time>
      </trkpt>
      <trkpt lat="48.52215" lon="7.16918">
        <ele>823.5</ele>
        <time>2020-11-28T13:30:23Z</time>
      </trkpt>
      <trkpt lat="48.52211" lon="7.16923">
        <ele>824.2</ele>
        <time>2020-11-28T13:30:26Z</time>
      </trkpt>
      <trkpt lat="48.52206" lon="7.16927">
        <ele>824.9</ele>
        <time>2020-11-28T13:30:29Z</time>
      </trkpt>
      <trkpt lat="48.52201" lon="7.16931">
        <ele>825.3</ele>
        <time>2020-11-28T13:30:32Z</time>
      </trkpt>
      <trkpt lat="48.52197" lon="7.16936">
        <ele>825.9</ele>
        <time>2020-11-28T13:30:35Z</time>
      </trkpt>
      <trkpt lat="48.52193" lon="7.1694">
        <ele>825.9</ele>
        <time>2020-11-28T13:30:38Z</time>
      </trkpt>
      <trkpt lat="48.52188" lon="7.16944">
        <ele>826.3</ele>
        <time>2020-11-28T13:30:41Z</time>
      </trkpt>
      <trkpt lat="48.52183" lon="7.16948">
        <ele>826.6</ele>
        <time>2020-11-28T13:30:44Z</time>
      </trkpt>
      <trkpt lat="48.52179" lon="7.16954">
        <ele>826.9</ele>
        <time>2020-11-28T13:30:47Z</time>
      </trkpt>
      <trkpt lat="48.52174" lon="7.16959">
        <ele>827.3</ele>
        <time>2020-11-28T13:30:50Z</time>
      </trkpt>
      <trkpt lat="48.52168" lon="7.16963">
        <ele>827.8</ele>
        <time>2020-11-28T13:30:53Z</time>
      </trkpt>
      <trkpt lat="48.52164" lon="7.16966">
        <ele>828.1</ele>
        <time>2020-11-28T13:30:56Z</time>
      </trkpt>
      <trkpt lat="48.52159" lon="7.16972">
        <ele>828.7</ele>
        <time>2020-11-28T13:30:59Z</time>
      </trkpt>
      <trkpt lat="48.52155" lon="7.16976">
        <ele>828.9</ele>
        <time>2020-11-28T13:31:01Z</time>
      </trkpt>
      <trkpt lat="48.5215" lon="7.16981">
        <ele>829</ele>
        <time>2020-11-28T13:31:04Z</time>
      </trkpt>
      <trkpt lat="48.52145" lon="7.16985">
        <ele>829.7</ele>
        <time>2020-11-28T13:31:07Z</time>
      </trkpt>
      <trkpt lat="48.5214" lon="7.16989">
        <ele>830</ele>
        <time>2020-11-28T13:31:10Z</time>
      </trkpt>
      <trkpt lat="48.52135" lon="7.16993">
        <ele>830.8</ele>
        <time>2020-11-28T13:31:13Z</time>
      </trkpt>
      <trkpt lat="48.5213" lon="7.16996">
        <ele>831.7</ele>
        <time>2020-11-28T13:31:16Z</time>
      </trkpt>
      <trkpt lat="48.52125" lon="7.17">
        <ele>831.6</ele>
        <time>2020-11-28T13:31:19Z</time>
      </trkpt>
      <trkpt lat="48.5212" lon="7.17005">
        <ele>832.2</ele>
        <time>2020-11-28T13:31:22Z</time>
      </trkpt>
      <trkpt lat="48.52114" lon="7.17007">
        <ele>832.4</ele>
        <time>2020-11-28T13:31:25Z</time>
      </trkpt>
      <trkpt lat="48.52109" lon="7.1701">
        <ele>832.8</ele>
        <time>2020-11-28T13:31:28Z</time>
      </trkpt>
      <trkpt lat="48.52104" lon="7.17015">
        <ele>832.7</ele>
        <time>2020-11-28T13:31:31Z</time>
      </trkpt>
      <trkpt lat="48.521" lon="7.17018">
        <ele>832.2</ele>
        <time>2020-11-28T13:31:33Z</time>
      </trkpt>
      <trkpt lat="48.52093" lon="7.17024">
        <ele>832.4</ele>
        <time>2020-11-28T13:31:36Z</time>
      </trkpt>
      <trkpt lat="48.52088" lon="7.17028">
        <ele>832.4</ele>
        <time>2020-11-28T13:31:38Z</time>
      </trkpt>
      <trkpt lat="48.52083" lon="7.17032">
        <ele>832.6</ele>
        <time>2020-11-28T13:31:40Z</time>
      </trkpt>
      <trkpt lat="48.52078" lon="7.17036">
        <ele>832.6</ele>
        <time>2020-11-28T13:31:42Z</time>
      </trkpt>
      <trkpt lat="48.52073" lon="7.1704">
        <ele>832.1</ele>
        <time>2020-11-28T13:31:44Z</time>
      </trkpt>
      <trkpt lat="48.52067" lon="7.17044">
        <ele>832.2</ele>
        <time>2020-11-28T13:31:46Z</time>
      </trkpt>
      <trkpt lat="48.52059" lon="7.17051">
        <ele>831.5</ele>
        <time>2020-11-28T13:31:49Z</time>
      </trkpt>
      <trkpt lat="48.52051" lon="7.17058">
        <ele>831.7</ele>
        <time>2020-11-28T13:31:52Z</time>
      </trkpt>
      <trkpt lat="48.52045" lon="7.17062">
        <ele>832.1</ele>
        <time>2020-11-28T13:31:54Z</time>
      </trkpt>
      <trkpt lat="48.52038" lon="7.17068">
        <ele>832.1</ele>
        <time>2020-11-28T13:31:56Z</time>
      </trkpt>
      <trkpt lat="48.52033" lon="7.17074">
        <ele>832.1</ele>
        <time>2020-11-28T13:31:58Z</time>
      </trkpt>
      <trkpt lat="48.52027" lon="7.17077">
        <ele>831.9</ele>
        <time>2020-11-28T13:32:00Z</time>
      </trkpt>
      <trkpt lat="48.52017" lon="7.17082">
        <ele>832.2</ele>
        <time>2020-11-28T13:32:03Z</time>
      </trkpt>
      <trkpt lat="48.52012" lon="7.17084">
        <ele>832</ele>
        <time>2020-11-28T13:32:06Z</time>
      </trkpt>
      <trkpt lat="48.52006" lon="7.17089">
        <ele>831.7</ele>
        <time>2020-11-28T13:32:08Z</time>
      </trkpt>
      <trkpt lat="48.52001" lon="7.17094">
        <ele>831.5</ele>
        <time>2020-11-28T13:32:18Z</time>
      </trkpt>
      <trkpt lat="48.51995" lon="7.17097">
        <ele>830.8</ele>
        <time>2020-11-28T13:32:21Z</time>
      </trkpt>
      <trkpt lat="48.5199" lon="7.17099">
        <ele>831.4</ele>
        <time>2020-11-28T13:32:23Z</time>
      </trkpt>
      <trkpt lat="48.51984" lon="7.17101">
        <ele>831</ele>
        <time>2020-11-28T13:32:25Z</time>
      </trkpt>
      <trkpt lat="48.51977" lon="7.17103">
        <ele>830.8</ele>
        <time>2020-11-28T13:32:27Z</time>
      </trkpt>
      <trkpt lat="48.5197" lon="7.17107">
        <ele>830.5</ele>
        <time>2020-11-28T13:32:29Z</time>
      </trkpt>
      <trkpt lat="48.51958" lon="7.17114">
        <ele>831.2</ele>
        <time>2020-11-28T13:32:32Z</time>
      </trkpt>
      <trkpt lat="48.51951" lon="7.17118">
        <ele>831.7</ele>
        <time>2020-11-28T13:32:34Z</time>
      </trkpt>
      <trkpt lat="48.51943" lon="7.17121">
        <ele>831.3</ele>
        <time>2020-11-28T13:32:36Z</time>
      </trkpt>
      <trkpt lat="48.51936" lon="7.17124">
        <ele>831</ele>
        <time>2020-11-28T13:32:38Z</time>
      </trkpt>
      <trkpt lat="48.51928" lon="7.17126">
        <ele>831.1</ele>
        <time>2020-11-28T13:32:40Z</time>
      </trkpt>
      <trkpt lat="48.51919" lon="7.17129">
        <ele>831.4</ele>
        <time>2020-11-28T13:32:42Z</time>
      </trkpt>
      <trkpt lat="48.51911" lon="7.17131">
        <ele>831.9</ele>
        <time>2020-11-28T13:32:44Z</time>
      </trkpt>
      <trkpt lat="48.51901" lon="7.17132">
        <ele>832.2</ele>
        <time>2020-11-28T13:32:46Z</time>
      </trkpt>
      <trkpt lat="48.51889" lon="7.17131">
        <ele>833.3</ele>
        <time>2020-11-28T13:32:48Z</time>
      </trkpt>
      <trkpt lat="48.51878" lon="7.17131">
        <ele>834.7</ele>
        <time>2020-11-28T13:32:50Z</time>
      </trkpt>
      <trkpt lat="48.51869" lon="7.17131">
        <ele>836.2</ele>
        <time>2020-11-28T13:32:52Z</time>
      </trkpt>
      <trkpt lat="48.51859" lon="7.17132">
        <ele>837.9</ele>
        <time>2020-11-28T13:32:55Z</time>
      </trkpt>
      <trkpt lat="48.51847" lon="7.17132">
        <ele>838.3</ele>
        <time>2020-11-28T13:32:58Z</time>
      </trkpt>
      <trkpt lat="48.51838" lon="7.17134">
        <ele>838.8</ele>
        <time>2020-11-28T13:33:00Z</time>
      </trkpt>
      <trkpt lat="48.51831" lon="7.17135">
        <ele>839.5</ele>
        <time>2020-11-28T13:33:02Z</time>
      </trkpt>
      <trkpt lat="48.51819" lon="7.17138">
        <ele>839.1</ele>
        <time>2020-11-28T13:33:05Z</time>
      </trkpt>
      <trkpt lat="48.51809" lon="7.17139">
        <ele>839.2</ele>
        <time>2020-11-28T13:33:07Z</time>
      </trkpt>
      <trkpt lat="48.518" lon="7.1714">
        <ele>838.9</ele>
        <time>2020-11-28T13:33:09Z</time>
      </trkpt>
      <trkpt lat="48.51792" lon="7.17137">
        <ele>839.1</ele>
        <time>2020-11-28T13:33:11Z</time>
      </trkpt>
      <trkpt lat="48.51783" lon="7.17136">
        <ele>838.9</ele>
        <time>2020-11-28T13:33:13Z</time>
      </trkpt>
      <trkpt lat="48.51769" lon="7.17135">
        <ele>839.2</ele>
        <time>2020-11-28T13:33:16Z</time>
      </trkpt>
      <trkpt lat="48.51761" lon="7.17134">
        <ele>838.3</ele>
        <time>2020-11-28T13:33:18Z</time>
      </trkpt>
      <trkpt lat="48.51749" lon="7.17131">
        <ele>837</ele>
        <time>2020-11-28T13:33:21Z</time>
      </trkpt>
      <trkpt lat="48.5174" lon="7.17127">
        <ele>836.2</ele>
        <time>2020-11-28T13:33:23Z</time>
      </trkpt>
      <trkpt lat="48.5173" lon="7.1712">
        <ele>833.3</ele>
        <time>2020-11-28T13:33:26Z</time>
      </trkpt>
      <trkpt lat="48.51724" lon="7.17115">
        <ele>832.5</ele>
        <time>2020-11-28T13:33:28Z</time>
      </trkpt>
      <trkpt lat="48.51719" lon="7.17113">
        <ele>831.6</ele>
        <time>2020-11-28T13:33:31Z</time>
      </trkpt>
      <trkpt lat="48.51714" lon="7.17113">
        <ele>831</ele>
        <time>2020-11-28T13:33:39Z</time>
      </trkpt>
      <trkpt lat="48.5171" lon="7.17111">
        <ele>832.5</ele>
        <time>2020-11-28T13:33:58Z</time>
      </trkpt>
      <trkpt lat="48.51706" lon="7.17107">
        <ele>833.9</ele>
        <time>2020-11-28T13:34:00Z</time>
      </trkpt>
      <trkpt lat="48.51701" lon="7.17103">
        <ele>835.3</ele>
        <time>2020-11-28T13:34:02Z</time>
      </trkpt>
      <trkpt lat="48.51696" lon="7.17098">
        <ele>836.1</ele>
        <time>2020-11-28T13:34:04Z</time>
      </trkpt>
      <trkpt lat="48.51691" lon="7.17094">
        <ele>836.5</ele>
        <time>2020-11-28T13:34:06Z</time>
      </trkpt>
      <trkpt lat="48.51687" lon="7.17089">
        <ele>836.5</ele>
        <time>2020-11-28T13:34:08Z</time>
      </trkpt>
      <trkpt lat="48.51683" lon="7.17083">
        <ele>836.8</ele>
        <time>2020-11-28T13:34:10Z</time>
      </trkpt>
      <trkpt lat="48.51678" lon="7.17077">
        <ele>835.8</ele>
        <time>2020-11-28T13:34:12Z</time>
      </trkpt>
      <trkpt lat="48.51673" lon="7.17072">
        <ele>835</ele>
        <time>2020-11-28T13:34:14Z</time>
      </trkpt>
      <trkpt lat="48.51666" lon="7.17066">
        <ele>834.8</ele>
        <time>2020-11-28T13:34:16Z</time>
      </trkpt>
      <trkpt lat="48.51659" lon="7.17061">
        <ele>833.9</ele>
        <time>2020-11-28T13:34:18Z</time>
      </trkpt>
      <trkpt lat="48.51652" lon="7.17056">
        <ele>832.8</ele>
        <time>2020-11-28T13:34:20Z</time>
      </trkpt>
      <trkpt lat="48.51646" lon="7.17051">
        <ele>832.1</ele>
        <time>2020-11-28T13:34:22Z</time>
      </trkpt>
      <trkpt lat="48.51638" lon="7.17047">
        <ele>830.9</ele>
        <time>2020-11-28T13:34:24Z</time>
      </trkpt>
      <trkpt lat="48.51627" lon="7.17044">
        <ele>829.5</ele>
        <time>2020-11-28T13:34:26Z</time>
      </trkpt>
      <trkpt lat="48.51617" lon="7.17041">
        <ele>828.4</ele>
        <time>2020-11-28T13:34:28Z</time>
      </trkpt>
      <trkpt lat="48.51606" lon="7.17037">
        <ele>827.5</ele>
        <time>2020-11-28T13:34:30Z</time>
      </trkpt>
      <trkpt lat="48.51598" lon="7.17034">
        <ele>826.8</ele>
        <time>2020-11-28T13:34:32Z</time>
      </trkpt>
      <trkpt lat="48.51593" lon="7.17028">
        <ele>826.8</ele>
        <time>2020-11-28T13:34:34Z</time>
      </trkpt>
      <trkpt lat="48.51588" lon="7.17023">
        <ele>826.1</ele>
        <time>2020-11-28T13:34:36Z</time>
      </trkpt>
      <trkpt lat="48.51584" lon="7.17018">
        <ele>825.8</ele>
        <time>2020-11-28T13:34:38Z</time>
      </trkpt>
      <trkpt lat="48.51579" lon="7.17008">
        <ele>825.7</ele>
        <time>2020-11-28T13:34:41Z</time>
      </trkpt>
      <trkpt lat="48.51577" lon="7.17001">
        <ele>825</ele>
        <time>2020-11-28T13:34:43Z</time>
      </trkpt>
      <trkpt lat="48.51575" lon="7.16994">
        <ele>824.9</ele>
        <time>2020-11-28T13:34:45Z</time>
      </trkpt>
      <trkpt lat="48.51573" lon="7.16987">
        <ele>824.5</ele>
        <time>2020-11-28T13:34:48Z</time>
      </trkpt>
      <trkpt lat="48.51572" lon="7.16979">
        <ele>824.2</ele>
        <time>2020-11-28T13:34:51Z</time>
      </trkpt>
      <trkpt lat="48.51574" lon="7.16971">
        <ele>824</ele>
        <time>2020-11-28T13:34:54Z</time>
      </trkpt>
      <trkpt lat="48.51574" lon="7.16963">
        <ele>824.2</ele>
        <time>2020-11-28T13:34:57Z</time>
      </trkpt>
      <trkpt lat="48.51574" lon="7.16956">
        <ele>824.5</ele>
        <time>2020-11-28T13:34:59Z</time>
      </trkpt>
      <trkpt lat="48.51574" lon="7.16947">
        <ele>823.8</ele>
        <time>2020-11-28T13:35:02Z</time>
      </trkpt>
      <trkpt lat="48.51574" lon="7.1694">
        <ele>823.1</ele>
        <time>2020-11-28T13:35:07Z</time>
      </trkpt>
      <trkpt lat="48.51572" lon="7.16933">
        <ele>821.9</ele>
        <time>2020-11-28T13:35:24Z</time>
      </trkpt>
      <trkpt lat="48.51569" lon="7.16927">
        <ele>823.4</ele>
        <time>2020-11-28T13:35:35Z</time>
      </trkpt>
      <trkpt lat="48.51569" lon="7.1692">
        <ele>823.5</ele>
        <time>2020-11-28T13:35:42Z</time>
      </trkpt>
      <trkpt lat="48.51568" lon="7.16913">
        <ele>822.6</ele>
        <time>2020-11-28T13:35:48Z</time>
      </trkpt>
      <trkpt lat="48.51567" lon="7.16906">
        <ele>825.7</ele>
        <time>2020-11-28T13:35:53Z</time>
      </trkpt>
      <trkpt lat="48.51567" lon="7.16899">
        <ele>827.1</ele>
        <time>2020-11-28T13:35:58Z</time>
      </trkpt>
      <trkpt lat="48.51566" lon="7.16892">
        <ele>827.9</ele>
        <time>2020-11-28T13:36:02Z</time>
      </trkpt>
      <trkpt lat="48.51565" lon="7.16884">
        <ele>829.6</ele>
        <time>2020-11-28T13:36:07Z</time>
      </trkpt>
      <trkpt lat="48.51565" lon="7.16875">
        <ele>830.4</ele>
        <time>2020-11-28T13:36:11Z</time>
      </trkpt>
      <trkpt lat="48.51564" lon="7.16867">
        <ele>831.5</ele>
        <time>2020-11-28T13:36:16Z</time>
      </trkpt>
      <trkpt lat="48.51564" lon="7.1686">
        <ele>832.5</ele>
        <time>2020-11-28T13:36:20Z</time>
      </trkpt>
      <trkpt lat="48.51564" lon="7.16853">
        <ele>833.6</ele>
        <time>2020-11-28T13:36:25Z</time>
      </trkpt>
      <trkpt lat="48.51565" lon="7.16846">
        <ele>833.6</ele>
        <time>2020-11-28T13:36:29Z</time>
      </trkpt>
      <trkpt lat="48.51566" lon="7.16838">
        <ele>834.4</ele>
        <time>2020-11-28T13:36:33Z</time>
      </trkpt>
      <trkpt lat="48.51565" lon="7.1683">
        <ele>836.4</ele>
        <time>2020-11-28T13:36:37Z</time>
      </trkpt>
      <trkpt lat="48.51564" lon="7.16823">
        <ele>837.5</ele>
        <time>2020-11-28T13:36:41Z</time>
      </trkpt>
      <trkpt lat="48.51562" lon="7.16816">
        <ele>837.9</ele>
        <time>2020-11-28T13:36:45Z</time>
      </trkpt>
      <trkpt lat="48.51561" lon="7.16808">
        <ele>836.7</ele>
        <time>2020-11-28T13:36:49Z</time>
      </trkpt>
      <trkpt lat="48.51559" lon="7.16801">
        <ele>835.6</ele>
        <time>2020-11-28T13:36:53Z</time>
      </trkpt>
      <trkpt lat="48.51558" lon="7.16793">
        <ele>835.9</ele>
        <time>2020-11-28T13:36:57Z</time>
      </trkpt>
      <trkpt lat="48.51558" lon="7.16786">
        <ele>836.6</ele>
        <time>2020-11-28T13:37:01Z</time>
      </trkpt>
      <trkpt lat="48.51559" lon="7.16779">
        <ele>838.1</ele>
        <time>2020-11-28T13:37:05Z</time>
      </trkpt>
      <trkpt lat="48.51558" lon="7.16772">
        <ele>838.4</ele>
        <time>2020-11-28T13:37:08Z</time>
      </trkpt>
      <trkpt lat="48.51556" lon="7.16765">
        <ele>837.5</ele>
        <time>2020-11-28T13:37:12Z</time>
      </trkpt>
      <trkpt lat="48.51554" lon="7.16759">
        <ele>838.3</ele>
        <time>2020-11-28T13:37:16Z</time>
      </trkpt>
      <trkpt lat="48.51552" lon="7.16751">
        <ele>840.7</ele>
        <time>2020-11-28T13:37:22Z</time>
      </trkpt>
      <trkpt lat="48.5155" lon="7.16744">
        <ele>840.2</ele>
        <time>2020-11-28T13:37:28Z</time>
      </trkpt>
      <trkpt lat="48.51549" lon="7.16737">
        <ele>840.3</ele>
        <time>2020-11-28T13:37:33Z</time>
      </trkpt>
      <trkpt lat="48.51548" lon="7.16729">
        <ele>841</ele>
        <time>2020-11-28T13:37:38Z</time>
      </trkpt>
      <trkpt lat="48.51547" lon="7.16722">
        <ele>841.3</ele>
        <time>2020-11-28T13:37:43Z</time>
      </trkpt>
      <trkpt lat="48.51546" lon="7.16715">
        <ele>841.7</ele>
        <time>2020-11-28T13:37:48Z</time>
      </trkpt>
      <trkpt lat="48.51547" lon="7.16707">
        <ele>841.5</ele>
        <time>2020-11-28T13:37:53Z</time>
      </trkpt>
      <trkpt lat="48.51547" lon="7.167">
        <ele>841.8</ele>
        <time>2020-11-28T13:37:58Z</time>
      </trkpt>
      <trkpt lat="48.51547" lon="7.16692">
        <ele>842.7</ele>
        <time>2020-11-28T13:38:03Z</time>
      </trkpt>
      <trkpt lat="48.51548" lon="7.16684">
        <ele>844.4</ele>
        <time>2020-11-28T13:38:08Z</time>
      </trkpt>
      <trkpt lat="48.51548" lon="7.16677">
        <ele>845.1</ele>
        <time>2020-11-28T13:38:12Z</time>
      </trkpt>
      <trkpt lat="48.51548" lon="7.16669">
        <ele>845.5</ele>
        <time>2020-11-28T13:38:16Z</time>
      </trkpt>
      <trkpt lat="48.51548" lon="7.16662">
        <ele>846</ele>
        <time>2020-11-28T13:38:19Z</time>
      </trkpt>
      <trkpt lat="48.51549" lon="7.16655">
        <ele>846.4</ele>
        <time>2020-11-28T13:38:24Z</time>
      </trkpt>
      <trkpt lat="48.51544" lon="7.16658">
        <ele>848.5</ele>
        <time>2020-11-28T13:38:39Z</time>
      </trkpt>
      <trkpt lat="48.51542" lon="7.16664">
        <ele>848.7</ele>
        <time>2020-11-28T13:38:43Z</time>
      </trkpt>
      <trkpt lat="48.5154" lon="7.16672">
        <ele>849.6</ele>
        <time>2020-11-28T13:38:48Z</time>
      </trkpt>
      <trkpt lat="48.51537" lon="7.16679">
        <ele>849.5</ele>
        <time>2020-11-28T13:38:52Z</time>
      </trkpt>
      <trkpt lat="48.51535" lon="7.16684">
        <ele>850.3</ele>
        <time>2020-11-28T13:38:56Z</time>
      </trkpt>
      <trkpt lat="48.51533" lon="7.16691">
        <ele>850.9</ele>
        <time>2020-11-28T13:39:00Z</time>
      </trkpt>
      <trkpt lat="48.51531" lon="7.16698">
        <ele>851.5</ele>
        <time>2020-11-28T13:39:04Z</time>
      </trkpt>
      <trkpt lat="48.51529" lon="7.16705">
        <ele>851.7</ele>
        <time>2020-11-28T13:39:08Z</time>
      </trkpt>
      <trkpt lat="48.51527" lon="7.16711">
        <ele>853.1</ele>
        <time>2020-11-28T13:39:14Z</time>
      </trkpt>
      <trkpt lat="48.51525" lon="7.16718">
        <ele>853.4</ele>
        <time>2020-11-28T13:39:19Z</time>
      </trkpt>
      <trkpt lat="48.51524" lon="7.16725">
        <ele>854.6</ele>
        <time>2020-11-28T13:39:24Z</time>
      </trkpt>
      <trkpt lat="48.51521" lon="7.16731">
        <ele>855.4</ele>
        <time>2020-11-28T13:39:29Z</time>
      </trkpt>
      <trkpt lat="48.51518" lon="7.16738">
        <ele>856.2</ele>
        <time>2020-11-28T13:39:34Z</time>
      </trkpt>
      <trkpt lat="48.51516" lon="7.16744">
        <ele>856.6</ele>
        <time>2020-11-28T13:39:38Z</time>
      </trkpt>
      <trkpt lat="48.51512" lon="7.1675">
        <ele>857.6</ele>
        <time>2020-11-28T13:39:42Z</time>
      </trkpt>
      <trkpt lat="48.51508" lon="7.16755">
        <ele>858</ele>
        <time>2020-11-28T13:39:46Z</time>
      </trkpt>
      <trkpt lat="48.51504" lon="7.1676">
        <ele>858.5</ele>
        <time>2020-11-28T13:39:51Z</time>
      </trkpt>
      <trkpt lat="48.51499" lon="7.16765">
        <ele>859.5</ele>
        <time>2020-11-28T13:39:56Z</time>
      </trkpt>
      <trkpt lat="48.51494" lon="7.16767">
        <ele>860.5</ele>
        <time>2020-11-28T13:40:01Z</time>
      </trkpt>
      <trkpt lat="48.51489" lon="7.16765">
        <ele>861.8</ele>
        <time>2020-11-28T13:40:07Z</time>
      </trkpt>
      <trkpt lat="48.51485" lon="7.16761">
        <ele>861.7</ele>
        <time>2020-11-28T13:40:11Z</time>
      </trkpt>
      <trkpt lat="48.5148" lon="7.16758">
        <ele>860.6</ele>
        <time>2020-11-28T13:40:15Z</time>
      </trkpt>
      <trkpt lat="48.51475" lon="7.16757">
        <ele>860.9</ele>
        <time>2020-11-28T13:40:19Z</time>
      </trkpt>
      <trkpt lat="48.5147" lon="7.16754">
        <ele>860.1</ele>
        <time>2020-11-28T13:40:24Z</time>
      </trkpt>
      <trkpt lat="48.51465" lon="7.16753">
        <ele>861</ele>
        <time>2020-11-28T13:40:29Z</time>
      </trkpt>
      <trkpt lat="48.5146" lon="7.16753">
        <ele>861.8</ele>
        <time>2020-11-28T13:40:33Z</time>
      </trkpt>
      <trkpt lat="48.51455" lon="7.16751">
        <ele>863.4</ele>
        <time>2020-11-28T13:40:37Z</time>
      </trkpt>
      <trkpt lat="48.51449" lon="7.16749">
        <ele>862.9</ele>
        <time>2020-11-28T13:40:41Z</time>
      </trkpt>
      <trkpt lat="48.51444" lon="7.16747">
        <ele>862.9</ele>
        <time>2020-11-28T13:40:45Z</time>
      </trkpt>
      <trkpt lat="48.51439" lon="7.16746">
        <ele>860.4</ele>
        <time>2020-11-28T13:40:51Z</time>
      </trkpt>
      <trkpt lat="48.51434" lon="7.16744">
        <ele>858</ele>
        <time>2020-11-28T13:40:58Z</time>
      </trkpt>
      <trkpt lat="48.51429" lon="7.16743">
        <ele>860.4</ele>
        <time>2020-11-28T13:41:03Z</time>
      </trkpt>
      <trkpt lat="48.51424" lon="7.16744">
        <ele>861.3</ele>
        <time>2020-11-28T13:41:07Z</time>
      </trkpt>
      <trkpt lat="48.51419" lon="7.16745">
        <ele>863.3</ele>
        <time>2020-11-28T13:41:12Z</time>
      </trkpt>
      <trkpt lat="48.51415" lon="7.16749">
        <ele>865</ele>
        <time>2020-11-28T13:41:16Z</time>
      </trkpt>
      <trkpt lat="48.51411" lon="7.16752">
        <ele>866.9</ele>
        <time>2020-11-28T13:41:20Z</time>
      </trkpt>
      <trkpt lat="48.51406" lon="7.16752">
        <ele>867.2</ele>
        <time>2020-11-28T13:41:24Z</time>
      </trkpt>
      <trkpt lat="48.51401" lon="7.16751">
        <ele>868.4</ele>
        <time>2020-11-28T13:41:29Z</time>
      </trkpt>
      <trkpt lat="48.51403" lon="7.16745">
        <ele>872.9</ele>
        <time>2020-11-28T13:41:49Z</time>
      </trkpt>
      <trkpt lat="48.51406" lon="7.16739">
        <ele>873.5</ele>
        <time>2020-11-28T13:41:55Z</time>
      </trkpt>
      <trkpt lat="48.51407" lon="7.16732">
        <ele>871.4</ele>
        <time>2020-11-28T13:42:01Z</time>
      </trkpt>
      <trkpt lat="48.51409" lon="7.16726">
        <ele>870.6</ele>
        <time>2020-11-28T13:42:06Z</time>
      </trkpt>
      <trkpt lat="48.51413" lon="7.16722">
        <ele>870.4</ele>
        <time>2020-11-28T13:42:12Z</time>
      </trkpt>
      <trkpt lat="48.51418" lon="7.1672">
        <ele>871.8</ele>
        <time>2020-11-28T13:42:15Z</time>
      </trkpt>
      <trkpt lat="48.51423" lon="7.16719">
        <ele>873.4</ele>
        <time>2020-11-28T13:42:19Z</time>
      </trkpt>
      <trkpt lat="48.51428" lon="7.16715">
        <ele>874.8</ele>
        <time>2020-11-28T13:42:27Z</time>
      </trkpt>
      <trkpt lat="48.51432" lon="7.16711">
        <ele>875</ele>
        <time>2020-11-28T13:42:33Z</time>
      </trkpt>
      <trkpt lat="48.51436" lon="7.16708">
        <ele>877.1</ele>
        <time>2020-11-28T13:42:38Z</time>
      </trkpt>
      <trkpt lat="48.51441" lon="7.16707">
        <ele>878.9</ele>
        <time>2020-11-28T13:42:44Z</time>
      </trkpt>
      <trkpt lat="48.51445" lon="7.16703">
        <ele>879.5</ele>
        <time>2020-11-28T13:42:50Z</time>
      </trkpt>
      <trkpt lat="48.51449" lon="7.16701">
        <ele>880.2</ele>
        <time>2020-11-28T13:42:56Z</time>
      </trkpt>
      <trkpt lat="48.51454" lon="7.16698">
        <ele>881.5</ele>
        <time>2020-11-28T13:43:02Z</time>
      </trkpt>
      <trkpt lat="48.51458" lon="7.16695">
        <ele>881.9</ele>
        <time>2020-11-28T13:43:06Z</time>
      </trkpt>
      <trkpt lat="48.51453" lon="7.16692">
        <ele>884.2</ele>
        <time>2020-11-28T13:43:17Z</time>
      </trkpt>
      <trkpt lat="48.51449" lon="7.16688">
        <ele>884.3</ele>
        <time>2020-11-28T13:43:23Z</time>
      </trkpt>
      <trkpt lat="48.51445" lon="7.16686">
        <ele>888.1</ele>
        <time>2020-11-28T13:43:41Z</time>
      </trkpt>
      <trkpt lat="48.5144" lon="7.16686">
        <ele>886.9</ele>
        <time>2020-11-28T13:43:47Z</time>
      </trkpt>
      <trkpt lat="48.51435" lon="7.16688">
        <ele>890.3</ele>
        <time>2020-11-28T13:43:55Z</time>
      </trkpt>
      <trkpt lat="48.51438" lon="7.16682">
        <ele>895.2</ele>
        <time>2020-11-28T13:44:13Z</time>
      </trkpt>
      <trkpt lat="48.51443" lon="7.1668">
        <ele>896.8</ele>
        <time>2020-11-28T13:44:18Z</time>
      </trkpt>
      <trkpt lat="48.51447" lon="7.16678">
        <ele>898.5</ele>
        <time>2020-11-28T13:44:24Z</time>
      </trkpt>
      <trkpt lat="48.5145" lon="7.16672">
        <ele>897.8</ele>
        <time>2020-11-28T13:44:31Z</time>
      </trkpt>
      <trkpt lat="48.51452" lon="7.16665">
        <ele>896.5</ele>
        <time>2020-11-28T13:44:38Z</time>
      </trkpt>
      <trkpt lat="48.51454" lon="7.16658">
        <ele>889.7</ele>
        <time>2020-11-28T13:44:46Z</time>
      </trkpt>
      <trkpt lat="48.51456" lon="7.16652">
        <ele>894.5</ele>
        <time>2020-11-28T13:44:52Z</time>
      </trkpt>
      <trkpt lat="48.51457" lon="7.16645">
        <ele>897.3</ele>
        <time>2020-11-28T13:44:58Z</time>
      </trkpt>
      <trkpt lat="48.51457" lon="7.16637">
        <ele>894</ele>
        <time>2020-11-28T13:45:04Z</time>
      </trkpt>
      <trkpt lat="48.51455" lon="7.1663">
        <ele>893.6</ele>
        <time>2020-11-28T13:45:10Z</time>
      </trkpt>
      <trkpt lat="48.51456" lon="7.16622">
        <ele>878.8</ele>
        <time>2020-11-28T13:45:16Z</time>
      </trkpt>
      <trkpt lat="48.51458" lon="7.16615">
        <ele>888.5</ele>
        <time>2020-11-28T13:45:21Z</time>
      </trkpt>
      <trkpt lat="48.51457" lon="7.16608">
        <ele>899.6</ele>
        <time>2020-11-28T13:45:25Z</time>
      </trkpt>
      <trkpt lat="48.51454" lon="7.16603">
        <ele>899.4</ele>
        <time>2020-11-28T13:45:36Z</time>
      </trkpt>
      <trkpt lat="48.51456" lon="7.16597">
        <ele>906.9</ele>
        <time>2020-11-28T13:45:53Z</time>
      </trkpt>
      <trkpt lat="48.51458" lon="7.1659">
        <ele>905.2</ele>
        <time>2020-11-28T13:46:06Z</time>
      </trkpt>
      <trkpt lat="48.51458" lon="7.16583">
        <ele>907.6</ele>
        <time>2020-11-28T13:46:21Z</time>
      </trkpt>
      <trkpt lat="48.51457" lon="7.16576">
        <ele>907.2</ele>
        <time>2020-11-28T13:46:26Z</time>
      </trkpt>
      <trkpt lat="48.51457" lon="7.16569">
        <ele>909.2</ele>
        <time>2020-11-28T13:46:31Z</time>
      </trkpt>
      <trkpt lat="48.51453" lon="7.16564">
        <ele>875.4</ele>
        <time>2020-11-28T13:46:42Z</time>
      </trkpt>
      <trkpt lat="48.5145" lon="7.16559">
        <ele>907.4</ele>
        <time>2020-11-28T13:46:54Z</time>
      </trkpt>
      <trkpt lat="48.51447" lon="7.16553">
        <ele>913.4</ele>
        <time>2020-11-28T13:47:19Z</time>
      </trkpt>
      <trkpt lat="48.51447" lon="7.16545">
        <ele>913</ele>
        <time>2020-11-28T13:47:21Z</time>
      </trkpt>
      <trkpt lat="48.51448" lon="7.16537">
        <ele>913.3</ele>
        <time>2020-11-28T13:47:32Z</time>
      </trkpt>
      <trkpt lat="48.51447" lon="7.1653">
        <ele>914.2</ele>
        <time>2020-11-28T13:47:36Z</time>
      </trkpt>
      <trkpt lat="48.51446" lon="7.16522">
        <ele>910.3</ele>
        <time>2020-11-28T13:47:44Z</time>
      </trkpt>
      <trkpt lat="48.51446" lon="7.16514">
        <ele>911.4</ele>
        <time>2020-11-28T13:47:48Z</time>
      </trkpt>
      <trkpt lat="48.51445" lon="7.16508">
        <ele>914.9</ele>
        <time>2020-11-28T13:47:52Z</time>
      </trkpt>
      <trkpt lat="48.51443" lon="7.16501">
        <ele>917.1</ele>
        <time>2020-11-28T13:47:57Z</time>
      </trkpt>
      <trkpt lat="48.51439" lon="7.16498">
        <ele>919.3</ele>
        <time>2020-11-28T13:48:01Z</time>
      </trkpt>
      <trkpt lat="48.51438" lon="7.16491">
        <ele>919.7</ele>
        <time>2020-11-28T13:48:12Z</time>
      </trkpt>
      <trkpt lat="48.51437" lon="7.16485">
        <ele>920</ele>
        <time>2020-11-28T13:48:18Z</time>
      </trkpt>
      <trkpt lat="48.51435" lon="7.16478">
        <ele>919.8</ele>
        <time>2020-11-28T13:48:32Z</time>
      </trkpt>
      <trkpt lat="48.51433" lon="7.1647">
        <ele>920.2</ele>
        <time>2020-11-28T13:48:37Z</time>
      </trkpt>
      <trkpt lat="48.51431" lon="7.16462">
        <ele>921.3</ele>
        <time>2020-11-28T13:48:41Z</time>
      </trkpt>
      <trkpt lat="48.51429" lon="7.16453">
        <ele>922.7</ele>
        <time>2020-11-28T13:48:45Z</time>
      </trkpt>
      <trkpt lat="48.51426" lon="7.16445">
        <ele>923.4</ele>
        <time>2020-11-28T13:48:49Z</time>
      </trkpt>
      <trkpt lat="48.51423" lon="7.16435">
        <ele>924.7</ele>
        <time>2020-11-28T13:48:53Z</time>
      </trkpt>
      <trkpt lat="48.51419" lon="7.16428">
        <ele>925</ele>
        <time>2020-11-28T13:48:57Z</time>
      </trkpt>
      <trkpt lat="48.51422" lon="7.16435">
        <ele>917.5</ele>
        <time>2020-11-28T13:49:13Z</time>
      </trkpt>
      <trkpt lat="48.51427" lon="7.16449">
        <ele>920.1</ele>
        <time>2020-11-28T13:49:15Z</time>
      </trkpt>
      <trkpt lat="48.51429" lon="7.16458">
        <ele>920.6</ele>
        <time>2020-11-28T13:49:19Z</time>
      </trkpt>
      <trkpt lat="48.51432" lon="7.16475">
        <ele>920.8</ele>
        <time>2020-11-28T13:49:21Z</time>
      </trkpt>
      <trkpt lat="48.51434" lon="7.16485">
        <ele>920.2</ele>
        <time>2020-11-28T13:49:23Z</time>
      </trkpt>
      <trkpt lat="48.51435" lon="7.16492">
        <ele>919.9</ele>
        <time>2020-11-28T13:49:25Z</time>
      </trkpt>
      <trkpt lat="48.51435" lon="7.16499">
        <ele>903.9</ele>
        <time>2020-11-28T13:49:38Z</time>
      </trkpt>
      <trkpt lat="48.51435" lon="7.16506">
        <ele>916.8</ele>
        <time>2020-11-28T13:49:51Z</time>
      </trkpt>
      <trkpt lat="48.51438" lon="7.16513">
        <ele>918.8</ele>
        <time>2020-11-28T13:50:03Z</time>
      </trkpt>
      <trkpt lat="48.51438" lon="7.1652">
        <ele>919.5</ele>
        <time>2020-11-28T13:50:33Z</time>
      </trkpt>
      <trkpt lat="48.51437" lon="7.16527">
        <ele>920.9</ele>
        <time>2020-11-28T13:50:40Z</time>
      </trkpt>
      <trkpt lat="48.51436" lon="7.16534">
        <ele>921</ele>
        <time>2020-11-28T13:50:50Z</time>
      </trkpt>
      <trkpt lat="48.51435" lon="7.16542">
        <ele>921.3</ele>
        <time>2020-11-28T13:51:01Z</time>
      </trkpt>
      <trkpt lat="48.51433" lon="7.16548">
        <ele>921.3</ele>
        <time>2020-11-28T13:51:10Z</time>
      </trkpt>
      <trkpt lat="48.5143" lon="7.16553">
        <ele>921.1</ele>
        <time>2020-11-28T13:51:16Z</time>
      </trkpt>
      <trkpt lat="48.51426" lon="7.1655">
        <ele>920.1</ele>
        <time>2020-11-28T13:51:31Z</time>
      </trkpt>
      <trkpt lat="48.51423" lon="7.16544">
        <ele>920.5</ele>
        <time>2020-11-28T13:51:44Z</time>
      </trkpt>
      <trkpt lat="48.5142" lon="7.16539">
        <ele>922.5</ele>
        <time>2020-11-28T13:51:53Z</time>
      </trkpt>
      <trkpt lat="48.51419" lon="7.16532">
        <ele>929.4</ele>
        <time>2020-11-28T13:52:15Z</time>
      </trkpt>
      <trkpt lat="48.51418" lon="7.16526">
        <ele>930.1</ele>
        <time>2020-11-28T13:52:23Z</time>
      </trkpt>
      <trkpt lat="48.51417" lon="7.16518">
        <ele>930.2</ele>
        <time>2020-11-28T13:52:30Z</time>
      </trkpt>
      <trkpt lat="48.51414" lon="7.16513">
        <ele>923.8</ele>
        <time>2020-11-28T13:52:38Z</time>
      </trkpt>
      <trkpt lat="48.51413" lon="7.16506">
        <ele>933.6</ele>
        <time>2020-11-28T13:52:51Z</time>
      </trkpt>
      <trkpt lat="48.51411" lon="7.165">
        <ele>935.5</ele>
        <time>2020-11-28T13:53:01Z</time>
      </trkpt>
      <trkpt lat="48.5141" lon="7.16492">
        <ele>937</ele>
        <time>2020-11-28T13:53:10Z</time>
      </trkpt>
      <trkpt lat="48.51408" lon="7.16486">
        <ele>937.1</ele>
        <time>2020-11-28T13:53:16Z</time>
      </trkpt>
      <trkpt lat="48.51405" lon="7.16479">
        <ele>937.1</ele>
        <time>2020-11-28T13:53:31Z</time>
      </trkpt>
      <trkpt lat="48.51401" lon="7.1648">
        <ele>936.1</ele>
        <time>2020-11-28T13:54:02Z</time>
      </trkpt>
      <trkpt lat="48.514" lon="7.16487">
        <ele>936.5</ele>
        <time>2020-11-28T13:54:11Z</time>
      </trkpt>
      <trkpt lat="48.51401" lon="7.16494">
        <ele>936.5</ele>
        <time>2020-11-28T13:54:18Z</time>
      </trkpt>
      <trkpt lat="48.51403" lon="7.16501">
        <ele>937.1</ele>
        <time>2020-11-28T13:54:25Z</time>
      </trkpt>
      <trkpt lat="48.51403" lon="7.16508">
        <ele>937.5</ele>
        <time>2020-11-28T13:54:34Z</time>
      </trkpt>
      <trkpt lat="48.51405" lon="7.16514">
        <ele>941.4</ele>
        <time>2020-11-28T13:55:05Z</time>
      </trkpt>
      <trkpt lat="48.51404" lon="7.16521">
        <ele>943.3</ele>
        <time>2020-11-28T13:55:11Z</time>
      </trkpt>
      <trkpt lat="48.51405" lon="7.16529">
        <ele>945.2</ele>
        <time>2020-11-28T13:55:15Z</time>
      </trkpt>
      <trkpt lat="48.51404" lon="7.16536">
        <ele>949.6</ele>
        <time>2020-11-28T13:55:35Z</time>
      </trkpt>
      <trkpt lat="48.51403" lon="7.16542">
        <ele>949.2</ele>
        <time>2020-11-28T13:55:40Z</time>
      </trkpt>
      <trkpt lat="48.51402" lon="7.1655">
        <ele>949.1</ele>
        <time>2020-11-28T13:55:45Z</time>
      </trkpt>
      <trkpt lat="48.51399" lon="7.16556">
        <ele>949.4</ele>
        <time>2020-11-28T13:55:52Z</time>
      </trkpt>
      <trkpt lat="48.514" lon="7.16563">
        <ele>950.7</ele>
        <time>2020-11-28T13:55:59Z</time>
      </trkpt>
      <trkpt lat="48.51396" lon="7.16568">
        <ele>949.7</ele>
        <time>2020-11-28T13:56:20Z</time>
      </trkpt>
      <trkpt lat="48.51392" lon="7.16571">
        <ele>949.5</ele>
        <time>2020-11-28T13:56:25Z</time>
      </trkpt>
      <trkpt lat="48.51388" lon="7.16577">
        <ele>949.9</ele>
        <time>2020-11-28T13:56:31Z</time>
      </trkpt>
      <trkpt lat="48.51388" lon="7.1657">
        <ele>951.6</ele>
        <time>2020-11-28T13:56:59Z</time>
      </trkpt>
      <trkpt lat="48.51384" lon="7.16565">
        <ele>951.5</ele>
        <time>2020-11-28T13:57:18Z</time>
      </trkpt>
      <trkpt lat="48.51384" lon="7.16558">
        <ele>951.8</ele>
        <time>2020-11-28T13:57:25Z</time>
      </trkpt>
      <trkpt lat="48.51382" lon="7.16551">
        <ele>953.4</ele>
        <time>2020-11-28T13:57:35Z</time>
      </trkpt>
      <trkpt lat="48.51381" lon="7.16543">
        <ele>955</ele>
        <time>2020-11-28T13:57:41Z</time>
      </trkpt>
      <trkpt lat="48.5138" lon="7.16537">
        <ele>955.3</ele>
        <time>2020-11-28T13:57:45Z</time>
      </trkpt>
      <trkpt lat="48.51379" lon="7.1653">
        <ele>955.3</ele>
        <time>2020-11-28T13:57:51Z</time>
      </trkpt>
      <trkpt lat="48.51377" lon="7.16524">
        <ele>957.5</ele>
        <time>2020-11-28T13:57:59Z</time>
      </trkpt>
      <trkpt lat="48.51375" lon="7.16517">
        <ele>959.9</ele>
        <time>2020-11-28T13:58:05Z</time>
      </trkpt>
      <trkpt lat="48.51374" lon="7.16509">
        <ele>961.4</ele>
        <time>2020-11-28T13:58:11Z</time>
      </trkpt>
      <trkpt lat="48.51374" lon="7.16501">
        <ele>961.6</ele>
        <time>2020-11-28T13:58:15Z</time>
      </trkpt>
      <trkpt lat="48.51373" lon="7.16494">
        <ele>965</ele>
        <time>2020-11-28T13:59:12Z</time>
      </trkpt>
      <trkpt lat="48.51369" lon="7.1649">
        <ele>966.2</ele>
        <time>2020-11-28T13:59:21Z</time>
      </trkpt>
      <trkpt lat="48.51365" lon="7.16486">
        <ele>967.2</ele>
        <time>2020-11-28T13:59:36Z</time>
      </trkpt>
      <trkpt lat="48.51361" lon="7.1649">
        <ele>968.2</ele>
        <time>2020-11-28T13:59:49Z</time>
      </trkpt>
      <trkpt lat="48.51361" lon="7.16498">
        <ele>967.8</ele>
        <time>2020-11-28T13:59:56Z</time>
      </trkpt>
      <trkpt lat="48.51362" lon="7.16505">
        <ele>967.8</ele>
        <time>2020-11-28T14:00:02Z</time>
      </trkpt>
      <trkpt lat="48.51363" lon="7.16513">
        <ele>967.5</ele>
        <time>2020-11-28T14:00:07Z</time>
      </trkpt>
      <trkpt lat="48.51362" lon="7.1652">
        <ele>966.5</ele>
        <time>2020-11-28T14:00:11Z</time>
      </trkpt>
      <trkpt lat="48.5136" lon="7.16527">
        <ele>966.7</ele>
        <time>2020-11-28T14:00:18Z</time>
      </trkpt>
      <trkpt lat="48.5136" lon="7.16535">
        <ele>966.7</ele>
        <time>2020-11-28T14:00:23Z</time>
      </trkpt>
      <trkpt lat="48.5136" lon="7.16542">
        <ele>966.4</ele>
        <time>2020-11-28T14:00:27Z</time>
      </trkpt>
      <trkpt lat="48.51358" lon="7.16548">
        <ele>966.5</ele>
        <time>2020-11-28T14:00:31Z</time>
      </trkpt>
      <trkpt lat="48.51356" lon="7.16555">
        <ele>967.3</ele>
        <time>2020-11-28T14:00:36Z</time>
      </trkpt>
      <trkpt lat="48.51355" lon="7.16562">
        <ele>967.4</ele>
        <time>2020-11-28T14:00:41Z</time>
      </trkpt>
      <trkpt lat="48.51353" lon="7.16569">
        <ele>967.5</ele>
        <time>2020-11-28T14:00:46Z</time>
      </trkpt>
      <trkpt lat="48.5135" lon="7.16575">
        <ele>968.3</ele>
        <time>2020-11-28T14:00:52Z</time>
      </trkpt>
      <trkpt lat="48.51346" lon="7.16581">
        <ele>968.8</ele>
        <time>2020-11-28T14:00:58Z</time>
      </trkpt>
      <trkpt lat="48.51342" lon="7.16584">
        <ele>969.2</ele>
        <time>2020-11-28T14:01:05Z</time>
      </trkpt>
      <trkpt lat="48.51338" lon="7.16583">
        <ele>969.2</ele>
        <time>2020-11-28T14:01:19Z</time>
      </trkpt>
      <trkpt lat="48.51334" lon="7.16587">
        <ele>971.1</ele>
        <time>2020-11-28T14:01:28Z</time>
      </trkpt>
      <trkpt lat="48.51329" lon="7.16589">
        <ele>972.5</ele>
        <time>2020-11-28T14:01:34Z</time>
      </trkpt>
      <trkpt lat="48.51324" lon="7.16593">
        <ele>973.3</ele>
        <time>2020-11-28T14:01:40Z</time>
      </trkpt>
      <trkpt lat="48.5132" lon="7.16596">
        <ele>973.1</ele>
        <time>2020-11-28T14:01:45Z</time>
      </trkpt>
      <trkpt lat="48.51315" lon="7.16598">
        <ele>971.9</ele>
        <time>2020-11-28T14:01:50Z</time>
      </trkpt>
      <trkpt lat="48.51311" lon="7.166">
        <ele>972.6</ele>
        <time>2020-11-28T14:01:56Z</time>
      </trkpt>
      <trkpt lat="48.51306" lon="7.16603">
        <ele>973.7</ele>
        <time>2020-11-28T14:02:01Z</time>
      </trkpt>
      <trkpt lat="48.51302" lon="7.16607">
        <ele>974.4</ele>
        <time>2020-11-28T14:02:06Z</time>
      </trkpt>
      <trkpt lat="48.51297" lon="7.1661">
        <ele>976.3</ele>
        <time>2020-11-28T14:02:11Z</time>
      </trkpt>
      <trkpt lat="48.51292" lon="7.16613">
        <ele>977.4</ele>
        <time>2020-11-28T14:02:19Z</time>
      </trkpt>
      <trkpt lat="48.51292" lon="7.16605">
        <ele>979.8</ele>
        <time>2020-11-28T14:02:34Z</time>
      </trkpt>
      <trkpt lat="48.51297" lon="7.16602">
        <ele>980.8</ele>
        <time>2020-11-28T14:02:40Z</time>
      </trkpt>
      <trkpt lat="48.513" lon="7.16596">
        <ele>980.3</ele>
        <time>2020-11-28T14:02:46Z</time>
      </trkpt>
      <trkpt lat="48.51303" lon="7.16591">
        <ele>981.5</ele>
        <time>2020-11-28T14:02:54Z</time>
      </trkpt>
      <trkpt lat="48.51307" lon="7.16586">
        <ele>982.5</ele>
        <time>2020-11-28T14:03:01Z</time>
      </trkpt>
      <trkpt lat="48.5131" lon="7.1658">
        <ele>984.6</ele>
        <time>2020-11-28T14:03:06Z</time>
      </trkpt>
      <trkpt lat="48.51311" lon="7.16573">
        <ele>987</ele>
        <time>2020-11-28T14:03:13Z</time>
      </trkpt>
      <trkpt lat="48.51306" lon="7.16575">
        <ele>991.4</ele>
        <time>2020-11-28T14:03:24Z</time>
      </trkpt>
      <trkpt lat="48.51302" lon="7.16578">
        <ele>991.9</ele>
        <time>2020-11-28T14:03:30Z</time>
      </trkpt>
      <trkpt lat="48.51297" lon="7.16579">
        <ele>991.1</ele>
        <time>2020-11-28T14:03:38Z</time>
      </trkpt>
      <trkpt lat="48.51293" lon="7.16582">
        <ele>990.8</ele>
        <time>2020-11-28T14:03:44Z</time>
      </trkpt>
    </trkseg>
  </trk>
  <trk>
    <name><![CDATA[secteur Saverne - Dabo - Petite Pierre_46]]></name>
    <trkseg>
      <trkpt lat="48.67593" lon="7.26175">
        <ele>454.3</ele>
        <time>2020-08-18T12:46:41Z</time>
      </trkpt>
      <trkpt lat="48.67593" lon="7.26175">
        <ele>454.3</ele>
        <time>2020-08-18T12:46:41Z</time>
      </trkpt>
      <trkpt lat="48.67593" lon="7.26175">
        <ele>454.3</ele>
        <time>2020-08-18T12:46:41Z</time>
      </trkpt>
      <trkpt lat="48.67593" lon="7.26175">
        <ele>454.3</ele>
        <time>2020-08-18T12:46:41Z</time>
      </trkpt>
      <trkpt lat="48.67593" lon="7.26175">
        <ele>454.3</ele>
        <time>2020-08-18T12:46:41Z</time>
      </trkpt>
      <trkpt lat="48.67598" lon="7.26174">
        <ele>453.9</ele>
        <time>2020-08-18T12:46:49Z</time>
      </trkpt>
      <trkpt lat="48.67598" lon="7.26182">
        <ele>453.6</ele>
        <time>2020-08-18T12:46:52Z</time>
      </trkpt>
      <trkpt lat="48.676" lon="7.26189">
        <ele>453.5</ele>
        <time>2020-08-18T12:46:54Z</time>
      </trkpt>
      <trkpt lat="48.67604" lon="7.26197">
        <ele>452.9</ele>
        <time>2020-08-18T12:46:56Z</time>
      </trkpt>
      <trkpt lat="48.67608" lon="7.26206">
        <ele>452.4</ele>
        <time>2020-08-18T12:46:58Z</time>
      </trkpt>
      <trkpt lat="48.67613" lon="7.26218">
        <ele>452.1</ele>
        <time>2020-08-18T12:47:00Z</time>
      </trkpt>
      <trkpt lat="48.67618" lon="7.26229">
        <ele>451.6</ele>
        <time>2020-08-18T12:47:02Z</time>
      </trkpt>
      <trkpt lat="48.67623" lon="7.26241">
        <ele>451.3</ele>
        <time>2020-08-18T12:47:04Z</time>
      </trkpt>
      <trkpt lat="48.67629" lon="7.26251">
        <ele>450.9</ele>
        <time>2020-08-18T12:47:06Z</time>
      </trkpt>
      <trkpt lat="48.67635" lon="7.2626">
        <ele>449.8</ele>
        <time>2020-08-18T12:47:08Z</time>
      </trkpt>
      <trkpt lat="48.67647" lon="7.26273">
        <ele>449.2</ele>
        <time>2020-08-18T12:47:11Z</time>
      </trkpt>
      <trkpt lat="48.67654" lon="7.26282">
        <ele>448.2</ele>
        <time>2020-08-18T12:47:13Z</time>
      </trkpt>
      <trkpt lat="48.6766" lon="7.26289">
        <ele>446.3</ele>
        <time>2020-08-18T12:47:15Z</time>
      </trkpt>
      <trkpt lat="48.67664" lon="7.26293">
        <ele>445.2</ele>
        <time>2020-08-18T12:47:18Z</time>
      </trkpt>
      <trkpt lat="48.67669" lon="7.26295">
        <ele>446.4</ele>
        <time>2020-08-18T12:47:22Z</time>
      </trkpt>
      <trkpt lat="48.67674" lon="7.26299">
        <ele>446.8</ele>
        <time>2020-08-18T12:47:24Z</time>
      </trkpt>
      <trkpt lat="48.6768" lon="7.26303">
        <ele>447</ele>
        <time>2020-08-18T12:47:26Z</time>
      </trkpt>
      <trkpt lat="48.67686" lon="7.26312">
        <ele>446.6</ele>
        <time>2020-08-18T12:47:28Z</time>
      </trkpt>
      <trkpt lat="48.67694" lon="7.2632">
        <ele>446.5</ele>
        <time>2020-08-18T12:47:30Z</time>
      </trkpt>
      <trkpt lat="48.67703" lon="7.26328">
        <ele>446.8</ele>
        <time>2020-08-18T12:47:32Z</time>
      </trkpt>
      <trkpt lat="48.6771" lon="7.26339">
        <ele>446.5</ele>
        <time>2020-08-18T12:47:34Z</time>
      </trkpt>
      <trkpt lat="48.6772" lon="7.26349">
        <ele>446.2</ele>
        <time>2020-08-18T12:47:36Z</time>
      </trkpt>
      <trkpt lat="48.67731" lon="7.26359">
        <ele>446</ele>
        <time>2020-08-18T12:47:38Z</time>
      </trkpt>
      <trkpt lat="48.67743" lon="7.26368">
        <ele>445.4</ele>
        <time>2020-08-18T12:47:41Z</time>
      </trkpt>
      <trkpt lat="48.67755" lon="7.26378">
        <ele>444.8</ele>
        <time>2020-08-18T12:47:43Z</time>
      </trkpt>
      <trkpt lat="48.67765" lon="7.26386">
        <ele>443.2</ele>
        <time>2020-08-18T12:47:45Z</time>
      </trkpt>
      <trkpt lat="48.67775" lon="7.26394">
        <ele>441.9</ele>
        <time>2020-08-18T12:47:47Z</time>
      </trkpt>
      <trkpt lat="48.67785" lon="7.26399">
        <ele>441.1</ele>
        <time>2020-08-18T12:47:49Z</time>
      </trkpt>
      <trkpt lat="48.67792" lon="7.26403">
        <ele>439.7</ele>
        <time>2020-08-18T12:47:51Z</time>
      </trkpt>
      <trkpt lat="48.67799" lon="7.26407">
        <ele>438.7</ele>
        <time>2020-08-18T12:47:53Z</time>
      </trkpt>
      <trkpt lat="48.67813" lon="7.26418">
        <ele>436.9</ele>
        <time>2020-08-18T12:47:55Z</time>
      </trkpt>
      <trkpt lat="48.67822" lon="7.26423">
        <ele>436.3</ele>
        <time>2020-08-18T12:47:57Z</time>
      </trkpt>
      <trkpt lat="48.67835" lon="7.2643">
        <ele>435.4</ele>
        <time>2020-08-18T12:48:00Z</time>
      </trkpt>
      <trkpt lat="48.67843" lon="7.26432">
        <ele>434.9</ele>
        <time>2020-08-18T12:48:02Z</time>
      </trkpt>
      <trkpt lat="48.6785" lon="7.26434">
        <ele>434.1</ele>
        <time>2020-08-18T12:48:04Z</time>
      </trkpt>
      <trkpt lat="48.67856" lon="7.26435">
        <ele>433.9</ele>
        <time>2020-08-18T12:48:06Z</time>
      </trkpt>
      <trkpt lat="48.67863" lon="7.26437">
        <ele>433.3</ele>
        <time>2020-08-18T12:48:08Z</time>
      </trkpt>
      <trkpt lat="48.6787" lon="7.26438">
        <ele>432.9</ele>
        <time>2020-08-18T12:48:11Z</time>
      </trkpt>
      <trkpt lat="48.67878" lon="7.26439">
        <ele>431.8</ele>
        <time>2020-08-18T12:48:14Z</time>
      </trkpt>
      <trkpt lat="48.67884" lon="7.2644">
        <ele>431.2</ele>
        <time>2020-08-18T12:48:16Z</time>
      </trkpt>
      <trkpt lat="48.67891" lon="7.26442">
        <ele>431.1</ele>
        <time>2020-08-18T12:48:18Z</time>
      </trkpt>
      <trkpt lat="48.67905" lon="7.26447">
        <ele>430</ele>
        <time>2020-08-18T12:48:21Z</time>
      </trkpt>
      <trkpt lat="48.67913" lon="7.26448">
        <ele>429.7</ele>
        <time>2020-08-18T12:48:23Z</time>
      </trkpt>
      <trkpt lat="48.67927" lon="7.2645">
        <ele>428.4</ele>
        <time>2020-08-18T12:48:26Z</time>
      </trkpt>
      <trkpt lat="48.67936" lon="7.26451">
        <ele>427.6</ele>
        <time>2020-08-18T12:48:28Z</time>
      </trkpt>
      <trkpt lat="48.6795" lon="7.2645">
        <ele>426.8</ele>
        <time>2020-08-18T12:48:31Z</time>
      </trkpt>
      <trkpt lat="48.67959" lon="7.26452">
        <ele>426.6</ele>
        <time>2020-08-18T12:48:33Z</time>
      </trkpt>
      <trkpt lat="48.67971" lon="7.26454">
        <ele>425.9</ele>
        <time>2020-08-18T12:48:36Z</time>
      </trkpt>
      <trkpt lat="48.67983" lon="7.26454">
        <ele>425.4</ele>
        <time>2020-08-18T12:48:39Z</time>
      </trkpt>
      <trkpt lat="48.67992" lon="7.26454">
        <ele>425</ele>
        <time>2020-08-18T12:48:41Z</time>
      </trkpt>
      <trkpt lat="48.68004" lon="7.26455">
        <ele>424.7</ele>
        <time>2020-08-18T12:48:43Z</time>
      </trkpt>
      <trkpt lat="48.68014" lon="7.26455">
        <ele>424.2</ele>
        <time>2020-08-18T12:48:45Z</time>
      </trkpt>
      <trkpt lat="48.6803" lon="7.26458">
        <ele>423.5</ele>
        <time>2020-08-18T12:48:48Z</time>
      </trkpt>
      <trkpt lat="48.68049" lon="7.26462">
        <ele>422.5</ele>
        <time>2020-08-18T12:48:51Z</time>
      </trkpt>
      <trkpt lat="48.68065" lon="7.26468">
        <ele>420.6</ele>
        <time>2020-08-18T12:48:54Z</time>
      </trkpt>
      <trkpt lat="48.68076" lon="7.26469">
        <ele>419.7</ele>
        <time>2020-08-18T12:48:56Z</time>
      </trkpt>
      <trkpt lat="48.68093" lon="7.26467">
        <ele>419.6</ele>
        <time>2020-08-18T12:48:59Z</time>
      </trkpt>
      <trkpt lat="48.68103" lon="7.26463">
        <ele>419.6</ele>
        <time>2020-08-18T12:49:01Z</time>
      </trkpt>
      <trkpt lat="48.68112" lon="7.26459">
        <ele>419.9</ele>
        <time>2020-08-18T12:49:03Z</time>
      </trkpt>
      <trkpt lat="48.6812" lon="7.26459">
        <ele>418.9</ele>
        <time>2020-08-18T12:49:05Z</time>
      </trkpt>
      <trkpt lat="48.68132" lon="7.26459">
        <ele>417</ele>
        <time>2020-08-18T12:49:08Z</time>
      </trkpt>
      <trkpt lat="48.68142" lon="7.26456">
        <ele>416.2</ele>
        <time>2020-08-18T12:49:10Z</time>
      </trkpt>
      <trkpt lat="48.68152" lon="7.26455">
        <ele>415.1</ele>
        <time>2020-08-18T12:49:12Z</time>
      </trkpt>
      <trkpt lat="48.68166" lon="7.26452">
        <ele>413.7</ele>
        <time>2020-08-18T12:49:15Z</time>
      </trkpt>
      <trkpt lat="48.68176" lon="7.26452">
        <ele>412.1</ele>
        <time>2020-08-18T12:49:17Z</time>
      </trkpt>
      <trkpt lat="48.68186" lon="7.26451">
        <ele>410.2</ele>
        <time>2020-08-18T12:49:19Z</time>
      </trkpt>
      <trkpt lat="48.68198" lon="7.26449">
        <ele>408.6</ele>
        <time>2020-08-18T12:49:21Z</time>
      </trkpt>
      <trkpt lat="48.68209" lon="7.26448">
        <ele>407.6</ele>
        <time>2020-08-18T12:49:23Z</time>
      </trkpt>
      <trkpt lat="48.68221" lon="7.26445">
        <ele>406.6</ele>
        <time>2020-08-18T12:49:25Z</time>
      </trkpt>
      <trkpt lat="48.68231" lon="7.26442">
        <ele>406.4</ele>
        <time>2020-08-18T12:49:27Z</time>
      </trkpt>
      <trkpt lat="48.68243" lon="7.26441">
        <ele>405.7</ele>
        <time>2020-08-18T12:49:29Z</time>
      </trkpt>
      <trkpt lat="48.68254" lon="7.26442">
        <ele>404.5</ele>
        <time>2020-08-18T12:49:31Z</time>
      </trkpt>
      <trkpt lat="48.68264" lon="7.26441">
        <ele>403.5</ele>
        <time>2020-08-18T12:49:33Z</time>
      </trkpt>
      <trkpt lat="48.68275" lon="7.2644">
        <ele>402.7</ele>
        <time>2020-08-18T12:49:35Z</time>
      </trkpt>
      <trkpt lat="48.68285" lon="7.2644">
        <ele>402</ele>
        <time>2020-08-18T12:49:37Z</time>
      </trkpt>
      <trkpt lat="48.68296" lon="7.26439">
        <ele>400.6</ele>
        <time>2020-08-18T12:49:39Z</time>
      </trkpt>
      <trkpt lat="48.68307" lon="7.26437">
        <ele>399.8</ele>
        <time>2020-08-18T12:49:41Z</time>
      </trkpt>
      <trkpt lat="48.6832" lon="7.26432">
        <ele>399</ele>
        <time>2020-08-18T12:49:43Z</time>
      </trkpt>
      <trkpt lat="48.68335" lon="7.26429">
        <ele>398.2</ele>
        <time>2020-08-18T12:49:45Z</time>
      </trkpt>
      <trkpt lat="48.68348" lon="7.26429">
        <ele>396.4</ele>
        <time>2020-08-18T12:49:47Z</time>
      </trkpt>
      <trkpt lat="48.68363" lon="7.26428">
        <ele>394.8</ele>
        <time>2020-08-18T12:49:49Z</time>
      </trkpt>
      <trkpt lat="48.68377" lon="7.26426">
        <ele>393.3</ele>
        <time>2020-08-18T12:49:51Z</time>
      </trkpt>
      <trkpt lat="48.68388" lon="7.26424">
        <ele>392.1</ele>
        <time>2020-08-18T12:49:53Z</time>
      </trkpt>
      <trkpt lat="48.68398" lon="7.26423">
        <ele>395.3</ele>
        <time>2020-08-18T12:49:55Z</time>
      </trkpt>
      <trkpt lat="48.6841" lon="7.26421">
        <ele>395.8</ele>
        <time>2020-08-18T12:49:57Z</time>
      </trkpt>
      <trkpt lat="48.68422" lon="7.26417">
        <ele>396.9</ele>
        <time>2020-08-18T12:49:59Z</time>
      </trkpt>
      <trkpt lat="48.68434" lon="7.26414">
        <ele>395.7</ele>
        <time>2020-08-18T12:50:01Z</time>
      </trkpt>
      <trkpt lat="48.68445" lon="7.26411">
        <ele>394.5</ele>
        <time>2020-08-18T12:50:03Z</time>
      </trkpt>
      <trkpt lat="48.68454" lon="7.26412">
        <ele>392.5</ele>
        <time>2020-08-18T12:50:05Z</time>
      </trkpt>
      <trkpt lat="48.68464" lon="7.26413">
        <ele>390.6</ele>
        <time>2020-08-18T12:50:07Z</time>
      </trkpt>
      <trkpt lat="48.68479" lon="7.26417">
        <ele>387.2</ele>
        <time>2020-08-18T12:50:10Z</time>
      </trkpt>
      <trkpt lat="48.68488" lon="7.2642">
        <ele>385.1</ele>
        <time>2020-08-18T12:50:12Z</time>
      </trkpt>
      <trkpt lat="48.68499" lon="7.26423">
        <ele>382.7</ele>
        <time>2020-08-18T12:50:14Z</time>
      </trkpt>
      <trkpt lat="48.6851" lon="7.26426">
        <ele>380.8</ele>
        <time>2020-08-18T12:50:16Z</time>
      </trkpt>
      <trkpt lat="48.68521" lon="7.26428">
        <ele>379.5</ele>
        <time>2020-08-18T12:50:18Z</time>
      </trkpt>
      <trkpt lat="48.68527" lon="7.26431">
        <ele>379.3</ele>
        <time>2020-08-18T12:50:20Z</time>
      </trkpt>
      <trkpt lat="48.68532" lon="7.26434">
        <ele>379.2</ele>
        <time>2020-08-18T12:50:23Z</time>
      </trkpt>
      <trkpt lat="48.68538" lon="7.26435">
        <ele>379.5</ele>
        <time>2020-08-18T12:50:27Z</time>
      </trkpt>
      <trkpt lat="48.68543" lon="7.26435">
        <ele>380.5</ele>
        <time>2020-08-18T12:50:29Z</time>
      </trkpt>
      <trkpt lat="48.6855" lon="7.26437">
        <ele>381.1</ele>
        <time>2020-08-18T12:50:31Z</time>
      </trkpt>
      <trkpt lat="48.68557" lon="7.26438">
        <ele>382.6</ele>
        <time>2020-08-18T12:50:33Z</time>
      </trkpt>
      <trkpt lat="48.68565" lon="7.26439">
        <ele>383.3</ele>
        <time>2020-08-18T12:50:36Z</time>
      </trkpt>
      <trkpt lat="48.6857" lon="7.26437">
        <ele>382.1</ele>
        <time>2020-08-18T12:50:52Z</time>
      </trkpt>
      <trkpt lat="48.68575" lon="7.26438">
        <ele>381</ele>
        <time>2020-08-18T12:50:54Z</time>
      </trkpt>
      <trkpt lat="48.68583" lon="7.26441">
        <ele>379.6</ele>
        <time>2020-08-18T12:50:56Z</time>
      </trkpt>
      <trkpt lat="48.68595" lon="7.26446">
        <ele>378.4</ele>
        <time>2020-08-18T12:50:58Z</time>
      </trkpt>
      <trkpt lat="48.68604" lon="7.26454">
        <ele>375.6</ele>
        <time>2020-08-18T12:51:01Z</time>
      </trkpt>
      <trkpt lat="48.68612" lon="7.26456">
        <ele>375.3</ele>
        <time>2020-08-18T12:51:04Z</time>
      </trkpt>
      <trkpt lat="48.68618" lon="7.26457">
        <ele>375</ele>
        <time>2020-08-18T12:51:06Z</time>
      </trkpt>
      <trkpt lat="48.68626" lon="7.2646">
        <ele>374.3</ele>
        <time>2020-08-18T12:51:08Z</time>
      </trkpt>
      <trkpt lat="48.68633" lon="7.26463">
        <ele>374.2</ele>
        <time>2020-08-18T12:51:10Z</time>
      </trkpt>
      <trkpt lat="48.68638" lon="7.26464">
        <ele>374.3</ele>
        <time>2020-08-18T12:51:13Z</time>
      </trkpt>
      <trkpt lat="48.68643" lon="7.26465">
        <ele>373.8</ele>
        <time>2020-08-18T12:51:18Z</time>
      </trkpt>
      <trkpt lat="48.68649" lon="7.26468">
        <ele>372.3</ele>
        <time>2020-08-18T12:51:24Z</time>
      </trkpt>
      <trkpt lat="48.68655" lon="7.26472">
        <ele>371.7</ele>
        <time>2020-08-18T12:51:26Z</time>
      </trkpt>
      <trkpt lat="48.68663" lon="7.26475">
        <ele>371.1</ele>
        <time>2020-08-18T12:51:28Z</time>
      </trkpt>
      <trkpt lat="48.68673" lon="7.26479">
        <ele>370.4</ele>
        <time>2020-08-18T12:51:30Z</time>
      </trkpt>
      <trkpt lat="48.68683" lon="7.26484">
        <ele>369.5</ele>
        <time>2020-08-18T12:51:32Z</time>
      </trkpt>
      <trkpt lat="48.68694" lon="7.26487">
        <ele>369.3</ele>
        <time>2020-08-18T12:51:34Z</time>
      </trkpt>
      <trkpt lat="48.68705" lon="7.26491">
        <ele>369.1</ele>
        <time>2020-08-18T12:51:36Z</time>
      </trkpt>
      <trkpt lat="48.68717" lon="7.26496">
        <ele>369.6</ele>
        <time>2020-08-18T12:51:38Z</time>
      </trkpt>
      <trkpt lat="48.68729" lon="7.26502">
        <ele>369.6</ele>
        <time>2020-08-18T12:51:40Z</time>
      </trkpt>
      <trkpt lat="48.6874" lon="7.26506">
        <ele>369.8</ele>
        <time>2020-08-18T12:51:42Z</time>
      </trkpt>
      <trkpt lat="48.68751" lon="7.2651">
        <ele>369.3</ele>
        <time>2020-08-18T12:51:44Z</time>
      </trkpt>
      <trkpt lat="48.68761" lon="7.26514">
        <ele>368.7</ele>
        <time>2020-08-18T12:51:46Z</time>
      </trkpt>
      <trkpt lat="48.68773" lon="7.26518">
        <ele>367.8</ele>
        <time>2020-08-18T12:51:48Z</time>
      </trkpt>
      <trkpt lat="48.68778" lon="7.26521">
        <ele>367</ele>
        <time>2020-08-18T12:51:50Z</time>
      </trkpt>
      <trkpt lat="48.68784" lon="7.26523">
        <ele>367.2</ele>
        <time>2020-08-18T12:51:53Z</time>
      </trkpt>
      <trkpt lat="48.68789" lon="7.26526">
        <ele>367.4</ele>
        <time>2020-08-18T12:51:55Z</time>
      </trkpt>
      <trkpt lat="48.68795" lon="7.2653">
        <ele>367.7</ele>
        <time>2020-08-18T12:51:57Z</time>
      </trkpt>
      <trkpt lat="48.68805" lon="7.26534">
        <ele>367.9</ele>
        <time>2020-08-18T12:52:00Z</time>
      </trkpt>
      <trkpt lat="48.6881" lon="7.26535">
        <ele>368.5</ele>
        <time>2020-08-18T12:52:02Z</time>
      </trkpt>
      <trkpt lat="48.68817" lon="7.26535">
        <ele>368.2</ele>
        <time>2020-08-18T12:52:04Z</time>
      </trkpt>
      <trkpt lat="48.68824" lon="7.26536">
        <ele>367.8</ele>
        <time>2020-08-18T12:52:06Z</time>
      </trkpt>
      <trkpt lat="48.68831" lon="7.26538">
        <ele>367.4</ele>
        <time>2020-08-18T12:52:08Z</time>
      </trkpt>
      <trkpt lat="48.68838" lon="7.26539">
        <ele>366.7</ele>
        <time>2020-08-18T12:52:10Z</time>
      </trkpt>
      <trkpt lat="48.68848" lon="7.26547">
        <ele>366.6</ele>
        <time>2020-08-18T12:52:13Z</time>
      </trkpt>
      <trkpt lat="48.68853" lon="7.26553">
        <ele>365.6</ele>
        <time>2020-08-18T12:52:16Z</time>
      </trkpt>
      <trkpt lat="48.68857" lon="7.26556">
        <ele>364.7</ele>
        <time>2020-08-18T12:52:18Z</time>
      </trkpt>
      <trkpt lat="48.68864" lon="7.2656">
        <ele>372.3</ele>
        <time>2020-08-18T12:52:22Z</time>
      </trkpt>
      <trkpt lat="48.68868" lon="7.26565">
        <ele>370.5</ele>
        <time>2020-08-18T12:52:24Z</time>
      </trkpt>
      <trkpt lat="48.68877" lon="7.2657">
        <ele>372.4</ele>
        <time>2020-08-18T12:52:26Z</time>
      </trkpt>
      <trkpt lat="48.68887" lon="7.26574">
        <ele>370.5</ele>
        <time>2020-08-18T12:52:28Z</time>
      </trkpt>
      <trkpt lat="48.68902" lon="7.26585">
        <ele>368.6</ele>
        <time>2020-08-18T12:52:31Z</time>
      </trkpt>
      <trkpt lat="48.6891" lon="7.26591">
        <ele>366.2</ele>
        <time>2020-08-18T12:52:33Z</time>
      </trkpt>
      <trkpt lat="48.68917" lon="7.26598">
        <ele>363.7</ele>
        <time>2020-08-18T12:52:35Z</time>
      </trkpt>
      <trkpt lat="48.68926" lon="7.26603">
        <ele>361</ele>
        <time>2020-08-18T12:52:37Z</time>
      </trkpt>
      <trkpt lat="48.68935" lon="7.26607">
        <ele>358.4</ele>
        <time>2020-08-18T12:52:39Z</time>
      </trkpt>
      <trkpt lat="48.68943" lon="7.26612">
        <ele>356.2</ele>
        <time>2020-08-18T12:52:41Z</time>
      </trkpt>
      <trkpt lat="48.68952" lon="7.26617">
        <ele>354.1</ele>
        <time>2020-08-18T12:52:43Z</time>
      </trkpt>
      <trkpt lat="48.6896" lon="7.26619">
        <ele>352.5</ele>
        <time>2020-08-18T12:52:45Z</time>
      </trkpt>
      <trkpt lat="48.68965" lon="7.2662">
        <ele>349.5</ele>
        <time>2020-08-18T12:52:50Z</time>
      </trkpt>
      <trkpt lat="48.68971" lon="7.26618">
        <ele>347.9</ele>
        <time>2020-08-18T12:52:54Z</time>
      </trkpt>
      <trkpt lat="48.68977" lon="7.26617">
        <ele>347</ele>
        <time>2020-08-18T12:52:59Z</time>
      </trkpt>
      <trkpt lat="48.68982" lon="7.26621">
        <ele>346.8</ele>
        <time>2020-08-18T12:53:01Z</time>
      </trkpt>
      <trkpt lat="48.68994" lon="7.26632">
        <ele>345.6</ele>
        <time>2020-08-18T12:53:04Z</time>
      </trkpt>
      <trkpt lat="48.69001" lon="7.26638">
        <ele>344.3</ele>
        <time>2020-08-18T12:53:06Z</time>
      </trkpt>
      <trkpt lat="48.69008" lon="7.26646">
        <ele>342.5</ele>
        <time>2020-08-18T12:53:08Z</time>
      </trkpt>
      <trkpt lat="48.69018" lon="7.26658">
        <ele>340.4</ele>
        <time>2020-08-18T12:53:11Z</time>
      </trkpt>
      <trkpt lat="48.69027" lon="7.26666">
        <ele>338.8</ele>
        <time>2020-08-18T12:53:13Z</time>
      </trkpt>
      <trkpt lat="48.69034" lon="7.26674">
        <ele>337.2</ele>
        <time>2020-08-18T12:53:15Z</time>
      </trkpt>
      <trkpt lat="48.69042" lon="7.26682">
        <ele>353.6</ele>
        <time>2020-08-18T12:53:17Z</time>
      </trkpt>
      <trkpt lat="48.69052" lon="7.26688">
        <ele>353.9</ele>
        <time>2020-08-18T12:53:19Z</time>
      </trkpt>
      <trkpt lat="48.6906" lon="7.26693">
        <ele>351.5</ele>
        <time>2020-08-18T12:53:21Z</time>
      </trkpt>
      <trkpt lat="48.69069" lon="7.26699">
        <ele>348.2</ele>
        <time>2020-08-18T12:53:23Z</time>
      </trkpt>
      <trkpt lat="48.69077" lon="7.26707">
        <ele>344.9</ele>
        <time>2020-08-18T12:53:25Z</time>
      </trkpt>
      <trkpt lat="48.69086" lon="7.26716">
        <ele>342</ele>
        <time>2020-08-18T12:53:27Z</time>
      </trkpt>
      <trkpt lat="48.69094" lon="7.26725">
        <ele>339.1</ele>
        <time>2020-08-18T12:53:29Z</time>
      </trkpt>
      <trkpt lat="48.69101" lon="7.26733">
        <ele>337.1</ele>
        <time>2020-08-18T12:53:31Z</time>
      </trkpt>
      <trkpt lat="48.69108" lon="7.26741">
        <ele>334.9</ele>
        <time>2020-08-18T12:53:33Z</time>
      </trkpt>
      <trkpt lat="48.69116" lon="7.2675">
        <ele>332.7</ele>
        <time>2020-08-18T12:53:35Z</time>
      </trkpt>
      <trkpt lat="48.69123" lon="7.26757">
        <ele>331.1</ele>
        <time>2020-08-18T12:53:37Z</time>
      </trkpt>
      <trkpt lat="48.69129" lon="7.26763">
        <ele>330.3</ele>
        <time>2020-08-18T12:53:39Z</time>
      </trkpt>
      <trkpt lat="48.69137" lon="7.26771">
        <ele>329.5</ele>
        <time>2020-08-18T12:53:41Z</time>
      </trkpt>
      <trkpt lat="48.69145" lon="7.2678">
        <ele>328.6</ele>
        <time>2020-08-18T12:53:43Z</time>
      </trkpt>
      <trkpt lat="48.69152" lon="7.26788">
        <ele>328</ele>
        <time>2020-08-18T12:53:45Z</time>
      </trkpt>
      <trkpt lat="48.69155" lon="7.26794">
        <ele>326.5</ele>
        <time>2020-08-18T12:53:47Z</time>
      </trkpt>
      <trkpt lat="48.69162" lon="7.268">
        <ele>325.6</ele>
        <time>2020-08-18T12:53:49Z</time>
      </trkpt>
      <trkpt lat="48.69169" lon="7.26807">
        <ele>324.5</ele>
        <time>2020-08-18T12:53:51Z</time>
      </trkpt>
      <trkpt lat="48.69174" lon="7.26814">
        <ele>323.7</ele>
        <time>2020-08-18T12:53:53Z</time>
      </trkpt>
      <trkpt lat="48.69177" lon="7.26819">
        <ele>322.4</ele>
        <time>2020-08-18T12:53:55Z</time>
      </trkpt>
      <trkpt lat="48.69181" lon="7.26824">
        <ele>321.4</ele>
        <time>2020-08-18T12:53:57Z</time>
      </trkpt>
      <trkpt lat="48.69185" lon="7.26831">
        <ele>320.2</ele>
        <time>2020-08-18T12:53:59Z</time>
      </trkpt>
      <trkpt lat="48.69189" lon="7.26839">
        <ele>319.9</ele>
        <time>2020-08-18T12:54:01Z</time>
      </trkpt>
      <trkpt lat="48.69194" lon="7.26847">
        <ele>319.5</ele>
        <time>2020-08-18T12:54:03Z</time>
      </trkpt>
      <trkpt lat="48.69198" lon="7.26853">
        <ele>318.5</ele>
        <time>2020-08-18T12:54:05Z</time>
      </trkpt>
      <trkpt lat="48.69203" lon="7.2686">
        <ele>317.2</ele>
        <time>2020-08-18T12:54:08Z</time>
      </trkpt>
      <trkpt lat="48.69207" lon="7.26867">
        <ele>317</ele>
        <time>2020-08-18T12:54:11Z</time>
      </trkpt>
      <trkpt lat="48.69211" lon="7.26872">
        <ele>316.2</ele>
        <time>2020-08-18T12:54:18Z</time>
      </trkpt>
      <trkpt lat="48.69214" lon="7.26876">
        <ele>312.3</ele>
        <time>2020-08-18T12:54:29Z</time>
      </trkpt>
      <trkpt lat="48.6922" lon="7.26881">
        <ele>311</ele>
        <time>2020-08-18T12:54:33Z</time>
      </trkpt>
      <trkpt lat="48.69225" lon="7.26888">
        <ele>310.3</ele>
        <time>2020-08-18T12:54:35Z</time>
      </trkpt>
      <trkpt lat="48.69229" lon="7.26898">
        <ele>309.9</ele>
        <time>2020-08-18T12:54:37Z</time>
      </trkpt>
      <trkpt lat="48.69232" lon="7.26904">
        <ele>309.3</ele>
        <time>2020-08-18T12:54:39Z</time>
      </trkpt>
      <trkpt lat="48.69235" lon="7.26911">
        <ele>311.5</ele>
        <time>2020-08-18T12:55:15Z</time>
      </trkpt>
      <trkpt lat="48.69237" lon="7.26921">
        <ele>310.7</ele>
        <time>2020-08-18T12:55:18Z</time>
      </trkpt>
      <trkpt lat="48.69239" lon="7.26929">
        <ele>310.2</ele>
        <time>2020-08-18T12:55:20Z</time>
      </trkpt>
      <trkpt lat="48.6924" lon="7.2694">
        <ele>310.5</ele>
        <time>2020-08-18T12:55:22Z</time>
      </trkpt>
      <trkpt lat="48.69241" lon="7.26951">
        <ele>310</ele>
        <time>2020-08-18T12:55:24Z</time>
      </trkpt>
      <trkpt lat="48.69241" lon="7.26963">
        <ele>309.5</ele>
        <time>2020-08-18T12:55:26Z</time>
      </trkpt>
      <trkpt lat="48.69242" lon="7.26975">
        <ele>309.4</ele>
        <time>2020-08-18T12:55:28Z</time>
      </trkpt>
      <trkpt lat="48.69242" lon="7.26988">
        <ele>308.5</ele>
        <time>2020-08-18T12:55:30Z</time>
      </trkpt>
      <trkpt lat="48.69244" lon="7.26999">
        <ele>307.8</ele>
        <time>2020-08-18T12:55:32Z</time>
      </trkpt>
      <trkpt lat="48.69245" lon="7.27011">
        <ele>306.9</ele>
        <time>2020-08-18T12:55:34Z</time>
      </trkpt>
      <trkpt lat="48.69246" lon="7.27025">
        <ele>306.3</ele>
        <time>2020-08-18T12:55:36Z</time>
      </trkpt>
      <trkpt lat="48.69249" lon="7.27041">
        <ele>304.4</ele>
        <time>2020-08-18T12:55:38Z</time>
      </trkpt>
      <trkpt lat="48.69252" lon="7.27059">
        <ele>303.1</ele>
        <time>2020-08-18T12:55:40Z</time>
      </trkpt>
      <trkpt lat="48.69256" lon="7.27078">
        <ele>302.2</ele>
        <time>2020-08-18T12:55:42Z</time>
      </trkpt>
      <trkpt lat="48.69258" lon="7.27092">
        <ele>301.4</ele>
        <time>2020-08-18T12:55:44Z</time>
      </trkpt>
      <trkpt lat="48.6926" lon="7.271">
        <ele>299.9</ele>
        <time>2020-08-18T12:55:46Z</time>
      </trkpt>
      <trkpt lat="48.69263" lon="7.27105">
        <ele>297.8</ele>
        <time>2020-08-18T12:55:51Z</time>
      </trkpt>
      <trkpt lat="48.69269" lon="7.27106">
        <ele>296.8</ele>
        <time>2020-08-18T12:55:54Z</time>
      </trkpt>
      <trkpt lat="48.69274" lon="7.27104">
        <ele>296.6</ele>
        <time>2020-08-18T12:55:56Z</time>
      </trkpt>
      <trkpt lat="48.6928" lon="7.27103">
        <ele>296.3</ele>
        <time>2020-08-18T12:55:58Z</time>
      </trkpt>
      <trkpt lat="48.69285" lon="7.27105">
        <ele>295.7</ele>
        <time>2020-08-18T12:56:00Z</time>
      </trkpt>
      <trkpt lat="48.69291" lon="7.27108">
        <ele>295.8</ele>
        <time>2020-08-18T12:56:02Z</time>
      </trkpt>
      <trkpt lat="48.69297" lon="7.27111">
        <ele>296.5</ele>
        <time>2020-08-18T12:56:04Z</time>
      </trkpt>
      <trkpt lat="48.69304" lon="7.27115">
        <ele>296.4</ele>
        <time>2020-08-18T12:56:06Z</time>
      </trkpt>
      <trkpt lat="48.69309" lon="7.27116">
        <ele>296.4</ele>
        <time>2020-08-18T12:56:08Z</time>
      </trkpt>
      <trkpt lat="48.69314" lon="7.27119">
        <ele>294.8</ele>
        <time>2020-08-18T12:56:13Z</time>
      </trkpt>
      <trkpt lat="48.69317" lon="7.27126">
        <ele>293</ele>
        <time>2020-08-18T12:56:16Z</time>
      </trkpt>
      <trkpt lat="48.69319" lon="7.27132">
        <ele>293</ele>
        <time>2020-08-18T12:56:18Z</time>
      </trkpt>
      <trkpt lat="48.69322" lon="7.27138">
        <ele>293.3</ele>
        <time>2020-08-18T12:56:20Z</time>
      </trkpt>
      <trkpt lat="48.69327" lon="7.27142">
        <ele>293.2</ele>
        <time>2020-08-18T12:56:23Z</time>
      </trkpt>
      <trkpt lat="48.69332" lon="7.27148">
        <ele>292.2</ele>
        <time>2020-08-18T12:56:26Z</time>
      </trkpt>
      <trkpt lat="48.69337" lon="7.27153">
        <ele>291.8</ele>
        <time>2020-08-18T12:56:28Z</time>
      </trkpt>
      <trkpt lat="48.69342" lon="7.27157">
        <ele>291.1</ele>
        <time>2020-08-18T12:56:30Z</time>
      </trkpt>
      <trkpt lat="48.69346" lon="7.27159">
        <ele>290.3</ele>
        <time>2020-08-18T12:56:32Z</time>
      </trkpt>
      <trkpt lat="48.69351" lon="7.27164">
        <ele>289.4</ele>
        <time>2020-08-18T12:56:36Z</time>
      </trkpt>
      <trkpt lat="48.69357" lon="7.27171">
        <ele>289.2</ele>
        <time>2020-08-18T12:56:38Z</time>
      </trkpt>
      <trkpt lat="48.69363" lon="7.27179">
        <ele>289</ele>
        <time>2020-08-18T12:56:40Z</time>
      </trkpt>
      <trkpt lat="48.69369" lon="7.27186">
        <ele>288.4</ele>
        <time>2020-08-18T12:56:42Z</time>
      </trkpt>
      <trkpt lat="48.69374" lon="7.27191">
        <ele>287.5</ele>
        <time>2020-08-18T12:56:44Z</time>
      </trkpt>
      <trkpt lat="48.69378" lon="7.27197">
        <ele>286.9</ele>
        <time>2020-08-18T12:56:46Z</time>
      </trkpt>
      <trkpt lat="48.69382" lon="7.27204">
        <ele>286.3</ele>
        <time>2020-08-18T12:56:48Z</time>
      </trkpt>
      <trkpt lat="48.69386" lon="7.2721">
        <ele>286.1</ele>
        <time>2020-08-18T12:56:50Z</time>
      </trkpt>
      <trkpt lat="48.69391" lon="7.27214">
        <ele>285.2</ele>
        <time>2020-08-18T12:56:54Z</time>
      </trkpt>
      <trkpt lat="48.69395" lon="7.27213">
        <ele>282.7</ele>
        <time>2020-08-18T12:57:06Z</time>
      </trkpt>
      <trkpt lat="48.69398" lon="7.27219">
        <ele>282</ele>
        <time>2020-08-18T12:57:12Z</time>
      </trkpt>
      <trkpt lat="48.69403" lon="7.27224">
        <ele>282.9</ele>
        <time>2020-08-18T12:57:14Z</time>
      </trkpt>
      <trkpt lat="48.69408" lon="7.27227">
        <ele>284</ele>
        <time>2020-08-18T12:57:16Z</time>
      </trkpt>
      <trkpt lat="48.69411" lon="7.27231">
        <ele>284.7</ele>
        <time>2020-08-18T12:57:18Z</time>
      </trkpt>
      <trkpt lat="48.69416" lon="7.27239">
        <ele>285.3</ele>
        <time>2020-08-18T12:57:20Z</time>
      </trkpt>
      <trkpt lat="48.69423" lon="7.27245">
        <ele>286.6</ele>
        <time>2020-08-18T12:57:22Z</time>
      </trkpt>
      <trkpt lat="48.69429" lon="7.2725">
        <ele>287.7</ele>
        <time>2020-08-18T12:57:24Z</time>
      </trkpt>
      <trkpt lat="48.69433" lon="7.27255">
        <ele>288.9</ele>
        <time>2020-08-18T12:57:26Z</time>
      </trkpt>
      <trkpt lat="48.69438" lon="7.27257">
        <ele>289.9</ele>
        <time>2020-08-18T12:57:28Z</time>
      </trkpt>
      <trkpt lat="48.69444" lon="7.2726">
        <ele>290</ele>
        <time>2020-08-18T12:57:30Z</time>
      </trkpt>
      <trkpt lat="48.6945" lon="7.27263">
        <ele>289.5</ele>
        <time>2020-08-18T12:57:32Z</time>
      </trkpt>
      <trkpt lat="48.69455" lon="7.27265">
        <ele>288.9</ele>
        <time>2020-08-18T12:57:34Z</time>
      </trkpt>
      <trkpt lat="48.69459" lon="7.2727">
        <ele>289.1</ele>
        <time>2020-08-18T12:57:37Z</time>
      </trkpt>
      <trkpt lat="48.69463" lon="7.27278">
        <ele>290</ele>
        <time>2020-08-18T12:57:40Z</time>
      </trkpt>
      <trkpt lat="48.69468" lon="7.27282">
        <ele>290.5</ele>
        <time>2020-08-18T12:57:42Z</time>
      </trkpt>
      <trkpt lat="48.69474" lon="7.27284">
        <ele>290.5</ele>
        <time>2020-08-18T12:57:44Z</time>
      </trkpt>
      <trkpt lat="48.69479" lon="7.27286">
        <ele>290.9</ele>
        <time>2020-08-18T12:57:46Z</time>
      </trkpt>
      <trkpt lat="48.69484" lon="7.2729">
        <ele>289.9</ele>
        <time>2020-08-18T12:57:48Z</time>
      </trkpt>
      <trkpt lat="48.69488" lon="7.27294">
        <ele>289.6</ele>
        <time>2020-08-18T12:57:50Z</time>
      </trkpt>
      <trkpt lat="48.69494" lon="7.27296">
        <ele>289.9</ele>
        <time>2020-08-18T12:57:53Z</time>
      </trkpt>
      <trkpt lat="48.69499" lon="7.27299">
        <ele>290.1</ele>
        <time>2020-08-18T12:57:57Z</time>
      </trkpt>
      <trkpt lat="48.69503" lon="7.27302">
        <ele>291.6</ele>
        <time>2020-08-18T12:58:00Z</time>
      </trkpt>
      <trkpt lat="48.69508" lon="7.27306">
        <ele>292.6</ele>
        <time>2020-08-18T12:58:02Z</time>
      </trkpt>
      <trkpt lat="48.69515" lon="7.27313">
        <ele>293.2</ele>
        <time>2020-08-18T12:58:04Z</time>
      </trkpt>
      <trkpt lat="48.6952" lon="7.27319">
        <ele>293.6</ele>
        <time>2020-08-18T12:58:06Z</time>
      </trkpt>
      <trkpt lat="48.69524" lon="7.27323">
        <ele>292.7</ele>
        <time>2020-08-18T12:58:08Z</time>
      </trkpt>
      <trkpt lat="48.69528" lon="7.27328">
        <ele>290.3</ele>
        <time>2020-08-18T12:58:10Z</time>
      </trkpt>
      <trkpt lat="48.69534" lon="7.27332">
        <ele>287.6</ele>
        <time>2020-08-18T12:58:13Z</time>
      </trkpt>
      <trkpt lat="48.69538" lon="7.27336">
        <ele>286</ele>
        <time>2020-08-18T12:58:15Z</time>
      </trkpt>
      <trkpt lat="48.69543" lon="7.27338">
        <ele>284.9</ele>
        <time>2020-08-18T12:58:18Z</time>
      </trkpt>
      <trkpt lat="48.69548" lon="7.27339">
        <ele>284</ele>
        <time>2020-08-18T12:58:22Z</time>
      </trkpt>
      <trkpt lat="48.69553" lon="7.2734">
        <ele>284.8</ele>
        <time>2020-08-18T12:58:27Z</time>
      </trkpt>
      <trkpt lat="48.69558" lon="7.27344">
        <ele>285.4</ele>
        <time>2020-08-18T12:58:29Z</time>
      </trkpt>
      <trkpt lat="48.69564" lon="7.27347">
        <ele>285.7</ele>
        <time>2020-08-18T12:58:32Z</time>
      </trkpt>
      <trkpt lat="48.69569" lon="7.27348">
        <ele>286</ele>
        <time>2020-08-18T12:58:35Z</time>
      </trkpt>
      <trkpt lat="48.69573" lon="7.27347">
        <ele>285.3</ele>
        <time>2020-08-18T12:58:37Z</time>
      </trkpt>
      <trkpt lat="48.69579" lon="7.27346">
        <ele>285.1</ele>
        <time>2020-08-18T12:58:39Z</time>
      </trkpt>
      <trkpt lat="48.69585" lon="7.27348">
        <ele>285.6</ele>
        <time>2020-08-18T12:58:41Z</time>
      </trkpt>
      <trkpt lat="48.6959" lon="7.27354">
        <ele>286.1</ele>
        <time>2020-08-18T12:58:43Z</time>
      </trkpt>
      <trkpt lat="48.69595" lon="7.27361">
        <ele>285.7</ele>
        <time>2020-08-18T12:58:45Z</time>
      </trkpt>
      <trkpt lat="48.69601" lon="7.27365">
        <ele>286.4</ele>
        <time>2020-08-18T12:58:47Z</time>
      </trkpt>
      <trkpt lat="48.69606" lon="7.27365">
        <ele>287</ele>
        <time>2020-08-18T12:58:49Z</time>
      </trkpt>
      <trkpt lat="48.69612" lon="7.27364">
        <ele>288</ele>
        <time>2020-08-18T12:58:51Z</time>
      </trkpt>
      <trkpt lat="48.69619" lon="7.27368">
        <ele>288.8</ele>
        <time>2020-08-18T12:58:53Z</time>
      </trkpt>
      <trkpt lat="48.69623" lon="7.2737">
        <ele>289.5</ele>
        <time>2020-08-18T12:58:55Z</time>
      </trkpt>
      <trkpt lat="48.69629" lon="7.27371">
        <ele>290.1</ele>
        <time>2020-08-18T12:58:58Z</time>
      </trkpt>
      <trkpt lat="48.69634" lon="7.27376">
        <ele>289.6</ele>
        <time>2020-08-18T12:59:02Z</time>
      </trkpt>
      <trkpt lat="48.69639" lon="7.2738">
        <ele>290.1</ele>
        <time>2020-08-18T12:59:04Z</time>
      </trkpt>
      <trkpt lat="48.69645" lon="7.27384">
        <ele>290.4</ele>
        <time>2020-08-18T12:59:06Z</time>
      </trkpt>
      <trkpt lat="48.69653" lon="7.27385">
        <ele>290.8</ele>
        <time>2020-08-18T12:59:08Z</time>
      </trkpt>
      <trkpt lat="48.69661" lon="7.27388">
        <ele>290.9</ele>
        <time>2020-08-18T12:59:10Z</time>
      </trkpt>
      <trkpt lat="48.69669" lon="7.27391">
        <ele>290.9</ele>
        <time>2020-08-18T12:59:12Z</time>
      </trkpt>
      <trkpt lat="48.69679" lon="7.27397">
        <ele>289.8</ele>
        <time>2020-08-18T12:59:14Z</time>
      </trkpt>
      <trkpt lat="48.69687" lon="7.27401">
        <ele>289.2</ele>
        <time>2020-08-18T12:59:16Z</time>
      </trkpt>
      <trkpt lat="48.69693" lon="7.27403">
        <ele>288.6</ele>
        <time>2020-08-18T12:59:18Z</time>
      </trkpt>
      <trkpt lat="48.69697" lon="7.27406">
        <ele>288.1</ele>
        <time>2020-08-18T12:59:21Z</time>
      </trkpt>
      <trkpt lat="48.69701" lon="7.2741">
        <ele>285.7</ele>
        <time>2020-08-18T12:59:26Z</time>
      </trkpt>
      <trkpt lat="48.69705" lon="7.27414">
        <ele>284.6</ele>
        <time>2020-08-18T12:59:29Z</time>
      </trkpt>
      <trkpt lat="48.6971" lon="7.27417">
        <ele>284</ele>
        <time>2020-08-18T12:59:32Z</time>
      </trkpt>
      <trkpt lat="48.69715" lon="7.27419">
        <ele>282.9</ele>
        <time>2020-08-18T12:59:37Z</time>
      </trkpt>
      <trkpt lat="48.69719" lon="7.27423">
        <ele>280.9</ele>
        <time>2020-08-18T12:59:45Z</time>
      </trkpt>
      <trkpt lat="48.69722" lon="7.27429">
        <ele>281</ele>
        <time>2020-08-18T12:59:49Z</time>
      </trkpt>
      <trkpt lat="48.69727" lon="7.27432">
        <ele>281.2</ele>
        <time>2020-08-18T12:59:51Z</time>
      </trkpt>
      <trkpt lat="48.69732" lon="7.27439">
        <ele>280.4</ele>
        <time>2020-08-18T12:59:53Z</time>
      </trkpt>
      <trkpt lat="48.6974" lon="7.27447">
        <ele>280.2</ele>
        <time>2020-08-18T12:59:55Z</time>
      </trkpt>
      <trkpt lat="48.69748" lon="7.27455">
        <ele>279.9</ele>
        <time>2020-08-18T12:59:57Z</time>
      </trkpt>
      <trkpt lat="48.69755" lon="7.27463">
        <ele>279.6</ele>
        <time>2020-08-18T12:59:59Z</time>
      </trkpt>
      <trkpt lat="48.69762" lon="7.27469">
        <ele>279.9</ele>
        <time>2020-08-18T13:00:01Z</time>
      </trkpt>
      <trkpt lat="48.69769" lon="7.27475">
        <ele>279.7</ele>
        <time>2020-08-18T13:00:03Z</time>
      </trkpt>
      <trkpt lat="48.69776" lon="7.27481">
        <ele>279.8</ele>
        <time>2020-08-18T13:00:05Z</time>
      </trkpt>
      <trkpt lat="48.69782" lon="7.27489">
        <ele>279.3</ele>
        <time>2020-08-18T13:00:07Z</time>
      </trkpt>
      <trkpt lat="48.69789" lon="7.27496">
        <ele>278.9</ele>
        <time>2020-08-18T13:00:09Z</time>
      </trkpt>
      <trkpt lat="48.69797" lon="7.27503">
        <ele>278</ele>
        <time>2020-08-18T13:00:11Z</time>
      </trkpt>
      <trkpt lat="48.69806" lon="7.27508">
        <ele>278.1</ele>
        <time>2020-08-18T13:00:13Z</time>
      </trkpt>
      <trkpt lat="48.69811" lon="7.27512">
        <ele>279.2</ele>
        <time>2020-08-18T13:00:16Z</time>
      </trkpt>
      <trkpt lat="48.69815" lon="7.27514">
        <ele>282.8</ele>
        <time>2020-08-18T13:00:36Z</time>
      </trkpt>
      <trkpt lat="48.69821" lon="7.27515">
        <ele>282</ele>
        <time>2020-08-18T13:00:42Z</time>
      </trkpt>
      <trkpt lat="48.69827" lon="7.27517">
        <ele>281.3</ele>
        <time>2020-08-18T13:00:45Z</time>
      </trkpt>
      <trkpt lat="48.69833" lon="7.27518">
        <ele>280.9</ele>
        <time>2020-08-18T13:00:47Z</time>
      </trkpt>
      <trkpt lat="48.6984" lon="7.27517">
        <ele>281</ele>
        <time>2020-08-18T13:00:49Z</time>
      </trkpt>
      <trkpt lat="48.69846" lon="7.27516">
        <ele>281.5</ele>
        <time>2020-08-18T13:00:51Z</time>
      </trkpt>
      <trkpt lat="48.69851" lon="7.27516">
        <ele>281.4</ele>
        <time>2020-08-18T13:00:53Z</time>
      </trkpt>
      <trkpt lat="48.69856" lon="7.27515">
        <ele>281.1</ele>
        <time>2020-08-18T13:00:55Z</time>
      </trkpt>
      <trkpt lat="48.6986" lon="7.27513">
        <ele>280.8</ele>
        <time>2020-08-18T13:01:00Z</time>
      </trkpt>
      <trkpt lat="48.69865" lon="7.27513">
        <ele>279</ele>
        <time>2020-08-18T13:01:11Z</time>
      </trkpt>
      <trkpt lat="48.69869" lon="7.27518">
        <ele>277.7</ele>
        <time>2020-08-18T13:01:14Z</time>
      </trkpt>
      <trkpt lat="48.69873" lon="7.2752">
        <ele>276.9</ele>
        <time>2020-08-18T13:01:18Z</time>
      </trkpt>
      <trkpt lat="48.69878" lon="7.27521">
        <ele>275.6</ele>
        <time>2020-08-18T13:01:26Z</time>
      </trkpt>
      <trkpt lat="48.69883" lon="7.27522">
        <ele>275.4</ele>
        <time>2020-08-18T13:01:31Z</time>
      </trkpt>
      <trkpt lat="48.69888" lon="7.27524">
        <ele>275.4</ele>
        <time>2020-08-18T13:01:40Z</time>
      </trkpt>
      <trkpt lat="48.69892" lon="7.27522">
        <ele>273.7</ele>
        <time>2020-08-18T13:01:46Z</time>
      </trkpt>
      <trkpt lat="48.69897" lon="7.27521">
        <ele>271.4</ele>
        <time>2020-08-18T13:01:57Z</time>
      </trkpt>
      <trkpt lat="48.69903" lon="7.27519">
        <ele>271.2</ele>
        <time>2020-08-18T13:02:00Z</time>
      </trkpt>
      <trkpt lat="48.69908" lon="7.27518">
        <ele>271.4</ele>
        <time>2020-08-18T13:02:02Z</time>
      </trkpt>
      <trkpt lat="48.69914" lon="7.27516">
        <ele>272.2</ele>
        <time>2020-08-18T13:02:04Z</time>
      </trkpt>
      <trkpt lat="48.6992" lon="7.27515">
        <ele>272.6</ele>
        <time>2020-08-18T13:02:06Z</time>
      </trkpt>
      <trkpt lat="48.69925" lon="7.27513">
        <ele>273.7</ele>
        <time>2020-08-18T13:02:08Z</time>
      </trkpt>
      <trkpt lat="48.6993" lon="7.27511">
        <ele>274.6</ele>
        <time>2020-08-18T13:02:10Z</time>
      </trkpt>
      <trkpt lat="48.69936" lon="7.2751">
        <ele>276.1</ele>
        <time>2020-08-18T13:02:13Z</time>
      </trkpt>
      <trkpt lat="48.69941" lon="7.2751">
        <ele>276.6</ele>
        <time>2020-08-18T13:02:15Z</time>
      </trkpt>
      <trkpt lat="48.69947" lon="7.2751">
        <ele>276.8</ele>
        <time>2020-08-18T13:02:17Z</time>
      </trkpt>
      <trkpt lat="48.69954" lon="7.2751">
        <ele>276</ele>
        <time>2020-08-18T13:02:19Z</time>
      </trkpt>
      <trkpt lat="48.69962" lon="7.2751">
        <ele>275.7</ele>
        <time>2020-08-18T13:02:21Z</time>
      </trkpt>
      <trkpt lat="48.69968" lon="7.27512">
        <ele>275.1</ele>
        <time>2020-08-18T13:02:23Z</time>
      </trkpt>
      <trkpt lat="48.69974" lon="7.27515">
        <ele>275.1</ele>
        <time>2020-08-18T13:02:25Z</time>
      </trkpt>
      <trkpt lat="48.69979" lon="7.27515">
        <ele>275.7</ele>
        <time>2020-08-18T13:02:29Z</time>
      </trkpt>
      <trkpt lat="48.69983" lon="7.27518">
        <ele>276.7</ele>
        <time>2020-08-18T13:02:36Z</time>
      </trkpt>
      <trkpt lat="48.69987" lon="7.27522">
        <ele>276.9</ele>
        <time>2020-08-18T13:02:42Z</time>
      </trkpt>
      <trkpt lat="48.69991" lon="7.27527">
        <ele>276.5</ele>
        <time>2020-08-18T13:02:45Z</time>
      </trkpt>
      <trkpt lat="48.69995" lon="7.27532">
        <ele>275</ele>
        <time>2020-08-18T13:02:50Z</time>
      </trkpt>
      <trkpt lat="48.7" lon="7.27534">
        <ele>276.3</ele>
        <time>2020-08-18T13:02:56Z</time>
      </trkpt>
      <trkpt lat="48.70004" lon="7.27541">
        <ele>275.4</ele>
        <time>2020-08-18T13:03:01Z</time>
      </trkpt>
      <trkpt lat="48.70006" lon="7.27546">
        <ele>274.5</ele>
        <time>2020-08-18T13:03:05Z</time>
      </trkpt>
      <trkpt lat="48.70009" lon="7.27553">
        <ele>272.6</ele>
        <time>2020-08-18T13:03:13Z</time>
      </trkpt>
      <trkpt lat="48.70012" lon="7.27562">
        <ele>272.4</ele>
        <time>2020-08-18T13:03:16Z</time>
      </trkpt>
      <trkpt lat="48.70014" lon="7.27569">
        <ele>272.2</ele>
        <time>2020-08-18T13:03:18Z</time>
      </trkpt>
      <trkpt lat="48.70017" lon="7.27577">
        <ele>272.3</ele>
        <time>2020-08-18T13:03:20Z</time>
      </trkpt>
      <trkpt lat="48.7002" lon="7.27588">
        <ele>272.1</ele>
        <time>2020-08-18T13:03:22Z</time>
      </trkpt>
      <trkpt lat="48.70023" lon="7.27597">
        <ele>272</ele>
        <time>2020-08-18T13:03:24Z</time>
      </trkpt>
      <trkpt lat="48.70027" lon="7.27605">
        <ele>272.1</ele>
        <time>2020-08-18T13:03:26Z</time>
      </trkpt>
      <trkpt lat="48.7003" lon="7.27612">
        <ele>272.6</ele>
        <time>2020-08-18T13:03:28Z</time>
      </trkpt>
      <trkpt lat="48.70033" lon="7.27617">
        <ele>274.1</ele>
        <time>2020-08-18T13:03:37Z</time>
      </trkpt>
      <trkpt lat="48.70036" lon="7.27622">
        <ele>273.6</ele>
        <time>2020-08-18T13:03:43Z</time>
      </trkpt>
      <trkpt lat="48.70039" lon="7.27629">
        <ele>272.9</ele>
        <time>2020-08-18T13:03:53Z</time>
      </trkpt>
      <trkpt lat="48.70041" lon="7.27635">
        <ele>273.4</ele>
        <time>2020-08-18T13:03:56Z</time>
      </trkpt>
      <trkpt lat="48.70042" lon="7.27643">
        <ele>273.7</ele>
        <time>2020-08-18T13:03:58Z</time>
      </trkpt>
      <trkpt lat="48.70045" lon="7.2765">
        <ele>273.6</ele>
        <time>2020-08-18T13:04:00Z</time>
      </trkpt>
      <trkpt lat="48.70048" lon="7.27657">
        <ele>273.6</ele>
        <time>2020-08-18T13:04:02Z</time>
      </trkpt>
      <trkpt lat="48.70051" lon="7.27665">
        <ele>273.4</ele>
        <time>2020-08-18T13:04:04Z</time>
      </trkpt>
      <trkpt lat="48.70054" lon="7.27672">
        <ele>274</ele>
        <time>2020-08-18T13:04:06Z</time>
      </trkpt>
      <trkpt lat="48.7006" lon="7.27681">
        <ele>274.6</ele>
        <time>2020-08-18T13:04:08Z</time>
      </trkpt>
      <trkpt lat="48.70066" lon="7.27689">
        <ele>274.9</ele>
        <time>2020-08-18T13:04:10Z</time>
      </trkpt>
      <trkpt lat="48.70071" lon="7.27696">
        <ele>274.5</ele>
        <time>2020-08-18T13:04:12Z</time>
      </trkpt>
      <trkpt lat="48.70077" lon="7.27703">
        <ele>274.2</ele>
        <time>2020-08-18T13:04:14Z</time>
      </trkpt>
      <trkpt lat="48.70082" lon="7.27708">
        <ele>273.6</ele>
        <time>2020-08-18T13:04:16Z</time>
      </trkpt>
      <trkpt lat="48.70088" lon="7.27715">
        <ele>273.3</ele>
        <time>2020-08-18T13:04:18Z</time>
      </trkpt>
      <trkpt lat="48.70094" lon="7.27722">
        <ele>273.7</ele>
        <time>2020-08-18T13:04:20Z</time>
      </trkpt>
      <trkpt lat="48.701" lon="7.27728">
        <ele>273.3</ele>
        <time>2020-08-18T13:04:22Z</time>
      </trkpt>
      <trkpt lat="48.70109" lon="7.27737">
        <ele>273.3</ele>
        <time>2020-08-18T13:04:24Z</time>
      </trkpt>
      <trkpt lat="48.70116" lon="7.27743">
        <ele>273.7</ele>
        <time>2020-08-18T13:04:26Z</time>
      </trkpt>
      <trkpt lat="48.7012" lon="7.27747">
        <ele>273.5</ele>
        <time>2020-08-18T13:04:29Z</time>
      </trkpt>
      <trkpt lat="48.70124" lon="7.27754">
        <ele>273.5</ele>
        <time>2020-08-18T13:04:39Z</time>
      </trkpt>
      <trkpt lat="48.70128" lon="7.27761">
        <ele>273.9</ele>
        <time>2020-08-18T13:04:41Z</time>
      </trkpt>
      <trkpt lat="48.70132" lon="7.27771">
        <ele>273.9</ele>
        <time>2020-08-18T13:04:43Z</time>
      </trkpt>
      <trkpt lat="48.70137" lon="7.27781">
        <ele>273.7</ele>
        <time>2020-08-18T13:04:45Z</time>
      </trkpt>
      <trkpt lat="48.70148" lon="7.27792">
        <ele>273.8</ele>
        <time>2020-08-18T13:04:47Z</time>
      </trkpt>
      <trkpt lat="48.70156" lon="7.27803">
        <ele>274</ele>
        <time>2020-08-18T13:04:49Z</time>
      </trkpt>
      <trkpt lat="48.70163" lon="7.27811">
        <ele>271.7</ele>
        <time>2020-08-18T13:04:51Z</time>
      </trkpt>
      <trkpt lat="48.7017" lon="7.27822">
        <ele>270.7</ele>
        <time>2020-08-18T13:04:53Z</time>
      </trkpt>
      <trkpt lat="48.70177" lon="7.27836">
        <ele>269.1</ele>
        <time>2020-08-18T13:04:55Z</time>
      </trkpt>
      <trkpt lat="48.70182" lon="7.27842">
        <ele>268.3</ele>
        <time>2020-08-18T13:04:57Z</time>
      </trkpt>
      <trkpt lat="48.70187" lon="7.27845">
        <ele>268.2</ele>
        <time>2020-08-18T13:05:01Z</time>
      </trkpt>
      <trkpt lat="48.70192" lon="7.27845">
        <ele>267.8</ele>
        <time>2020-08-18T13:05:06Z</time>
      </trkpt>
      <trkpt lat="48.70196" lon="7.27849">
        <ele>270.2</ele>
        <time>2020-08-18T13:05:24Z</time>
      </trkpt>
      <trkpt lat="48.70191" lon="7.27848">
        <ele>271</ele>
        <time>2020-08-18T13:06:22Z</time>
      </trkpt>
      <trkpt lat="48.70195" lon="7.27853">
        <ele>273.4</ele>
        <time>2020-08-18T13:06:40Z</time>
      </trkpt>
      <trkpt lat="48.702" lon="7.27859">
        <ele>273.4</ele>
        <time>2020-08-18T13:06:42Z</time>
      </trkpt>
      <trkpt lat="48.70206" lon="7.27868">
        <ele>273.1</ele>
        <time>2020-08-18T13:06:44Z</time>
      </trkpt>
      <trkpt lat="48.70214" lon="7.27877">
        <ele>273.4</ele>
        <time>2020-08-18T13:06:46Z</time>
      </trkpt>
      <trkpt lat="48.70219" lon="7.27882">
        <ele>274.5</ele>
        <time>2020-08-18T13:06:48Z</time>
      </trkpt>
      <trkpt lat="48.70222" lon="7.27887">
        <ele>276.5</ele>
        <time>2020-08-18T13:06:57Z</time>
      </trkpt>
      <trkpt lat="48.70227" lon="7.2789">
        <ele>277.6</ele>
        <time>2020-08-18T13:07:08Z</time>
      </trkpt>
      <trkpt lat="48.70231" lon="7.27894">
        <ele>277.8</ele>
        <time>2020-08-18T13:07:10Z</time>
      </trkpt>
      <trkpt lat="48.70236" lon="7.27899">
        <ele>278.5</ele>
        <time>2020-08-18T13:07:12Z</time>
      </trkpt>
      <trkpt lat="48.7024" lon="7.27906">
        <ele>279.6</ele>
        <time>2020-08-18T13:07:14Z</time>
      </trkpt>
      <trkpt lat="48.70245" lon="7.27913">
        <ele>279.6</ele>
        <time>2020-08-18T13:07:16Z</time>
      </trkpt>
      <trkpt lat="48.70251" lon="7.27922">
        <ele>279.5</ele>
        <time>2020-08-18T13:07:18Z</time>
      </trkpt>
      <trkpt lat="48.70256" lon="7.27932">
        <ele>278.9</ele>
        <time>2020-08-18T13:07:20Z</time>
      </trkpt>
      <trkpt lat="48.70265" lon="7.27944">
        <ele>278.2</ele>
        <time>2020-08-18T13:07:22Z</time>
      </trkpt>
      <trkpt lat="48.70273" lon="7.27957">
        <ele>277.9</ele>
        <time>2020-08-18T13:07:24Z</time>
      </trkpt>
      <trkpt lat="48.70281" lon="7.2797">
        <ele>277</ele>
        <time>2020-08-18T13:07:26Z</time>
      </trkpt>
      <trkpt lat="48.70289" lon="7.27986">
        <ele>276.9</ele>
        <time>2020-08-18T13:07:28Z</time>
      </trkpt>
      <trkpt lat="48.70297" lon="7.28001">
        <ele>276.8</ele>
        <time>2020-08-18T13:07:30Z</time>
      </trkpt>
      <trkpt lat="48.70304" lon="7.28013">
        <ele>277.3</ele>
        <time>2020-08-18T13:07:32Z</time>
      </trkpt>
      <trkpt lat="48.70307" lon="7.28019">
        <ele>278.4</ele>
        <time>2020-08-18T13:07:35Z</time>
      </trkpt>
      <trkpt lat="48.70311" lon="7.28024">
        <ele>280.4</ele>
        <time>2020-08-18T13:07:52Z</time>
      </trkpt>
      <trkpt lat="48.70312" lon="7.28034">
        <ele>282.3</ele>
        <time>2020-08-18T13:07:56Z</time>
      </trkpt>
      <trkpt lat="48.70314" lon="7.28042">
        <ele>282.5</ele>
        <time>2020-08-18T13:07:58Z</time>
      </trkpt>
      <trkpt lat="48.70318" lon="7.2805">
        <ele>282.5</ele>
        <time>2020-08-18T13:08:00Z</time>
      </trkpt>
      <trkpt lat="48.70322" lon="7.28058">
        <ele>282.5</ele>
        <time>2020-08-18T13:08:02Z</time>
      </trkpt>
      <trkpt lat="48.70325" lon="7.28071">
        <ele>282.2</ele>
        <time>2020-08-18T13:08:04Z</time>
      </trkpt>
      <trkpt lat="48.70327" lon="7.28079">
        <ele>282.3</ele>
        <time>2020-08-18T13:08:06Z</time>
      </trkpt>
      <trkpt lat="48.70329" lon="7.28086">
        <ele>283.2</ele>
        <time>2020-08-18T13:08:12Z</time>
      </trkpt>
      <trkpt lat="48.70332" lon="7.28092">
        <ele>283.4</ele>
        <time>2020-08-18T13:08:16Z</time>
      </trkpt>
      <trkpt lat="48.70334" lon="7.28099">
        <ele>283.6</ele>
        <time>2020-08-18T13:08:23Z</time>
      </trkpt>
      <trkpt lat="48.70338" lon="7.28108">
        <ele>282.9</ele>
        <time>2020-08-18T13:08:26Z</time>
      </trkpt>
      <trkpt lat="48.70342" lon="7.28117">
        <ele>281.8</ele>
        <time>2020-08-18T13:08:28Z</time>
      </trkpt>
      <trkpt lat="48.70345" lon="7.28127">
        <ele>279.9</ele>
        <time>2020-08-18T13:08:30Z</time>
      </trkpt>
      <trkpt lat="48.70347" lon="7.28135">
        <ele>278.3</ele>
        <time>2020-08-18T13:08:32Z</time>
      </trkpt>
      <trkpt lat="48.70347" lon="7.28142">
        <ele>276.6</ele>
        <time>2020-08-18T13:08:34Z</time>
      </trkpt>
      <trkpt lat="48.70349" lon="7.2815">
        <ele>275.9</ele>
        <time>2020-08-18T13:08:36Z</time>
      </trkpt>
      <trkpt lat="48.70351" lon="7.28156">
        <ele>275.4</ele>
        <time>2020-08-18T13:08:38Z</time>
      </trkpt>
      <trkpt lat="48.70354" lon="7.28167">
        <ele>274.5</ele>
        <time>2020-08-18T13:08:40Z</time>
      </trkpt>
      <trkpt lat="48.70356" lon="7.28179">
        <ele>274.1</ele>
        <time>2020-08-18T13:08:42Z</time>
      </trkpt>
      <trkpt lat="48.70358" lon="7.28188">
        <ele>273.3</ele>
        <time>2020-08-18T13:08:44Z</time>
      </trkpt>
      <trkpt lat="48.70362" lon="7.28207">
        <ele>271.1</ele>
        <time>2020-08-18T13:08:47Z</time>
      </trkpt>
      <trkpt lat="48.70367" lon="7.28222">
        <ele>269.5</ele>
        <time>2020-08-18T13:08:49Z</time>
      </trkpt>
      <trkpt lat="48.70371" lon="7.28239">
        <ele>268.3</ele>
        <time>2020-08-18T13:08:51Z</time>
      </trkpt>
      <trkpt lat="48.70374" lon="7.28253">
        <ele>266.9</ele>
        <time>2020-08-18T13:08:53Z</time>
      </trkpt>
      <trkpt lat="48.70377" lon="7.28265">
        <ele>266</ele>
        <time>2020-08-18T13:08:55Z</time>
      </trkpt>
      <trkpt lat="48.70381" lon="7.28269">
        <ele>265.7</ele>
        <time>2020-08-18T13:08:57Z</time>
      </trkpt>
    </trkseg>
  </trk>
  <trk>
    <name><![CDATA[20181010095044-2Si3C]]></name>
    <trkseg>
      <trkpt lat="48.5073" lon="7.14701">
        <ele>725</ele>
        <time>2009-06-01T18:15:56Z</time>
      </trkpt>
      <trkpt lat="48.5073" lon="7.14701">
        <ele>725</ele>
        <time>2009-06-01T18:15:56Z</time>
      </trkpt>
      <trkpt lat="48.5073" lon="7.14701">
        <ele>725</ele>
        <time>2009-06-01T18:15:56Z</time>
      </trkpt>
      <trkpt lat="48.5073" lon="7.14701">
        <ele>725</ele>
        <time>2009-06-01T18:15:56Z</time>
      </trkpt>
      <trkpt lat="48.50735" lon="7.14699">
        <ele>725</ele>
        <time>2009-06-01T18:15:42Z</time>
      </trkpt>
      <trkpt lat="48.50737" lon="7.14697">
        <ele>726</ele>
        <time>2009-06-01T18:15:27Z</time>
      </trkpt>
      <trkpt lat="48.50744" lon="7.14688">
        <ele>726</ele>
        <time>2009-06-01T18:15:15Z</time>
      </trkpt>
      <trkpt lat="48.50751" lon="7.14688">
        <ele>727</ele>
        <time>2009-06-01T18:15:08Z</time>
      </trkpt>
      <trkpt lat="48.50776" lon="7.14695">
        <ele>729</ele>
        <time>2009-06-01T18:14:48Z</time>
      </trkpt>
      <trkpt lat="48.50785" lon="7.14709">
        <ele>731</ele>
        <time>2009-06-01T18:14:35Z</time>
      </trkpt>
      <trkpt lat="48.50789" lon="7.14732">
        <ele>734</ele>
        <time>2009-06-01T18:14:21Z</time>
      </trkpt>
      <trkpt lat="48.50792" lon="7.14767">
        <ele>735</ele>
        <time>2009-06-01T18:14:02Z</time>
      </trkpt>
      <trkpt lat="48.50795" lon="7.14808">
        <ele>737</ele>
        <time>2009-06-01T18:13:40Z</time>
      </trkpt>
      <trkpt lat="48.508" lon="7.14852">
        <ele>738</ele>
        <time>2009-06-01T18:13:16Z</time>
      </trkpt>
      <trkpt lat="48.50807" lon="7.14903">
        <ele>740</ele>
        <time>2009-06-01T18:12:49Z</time>
      </trkpt>
      <trkpt lat="48.50812" lon="7.14948">
        <ele>742</ele>
        <time>2009-06-01T18:12:25Z</time>
      </trkpt>
      <trkpt lat="48.50811" lon="7.14951">
        <ele>742</ele>
        <time>2009-06-01T18:12:16Z</time>
      </trkpt>
      <trkpt lat="48.50805" lon="7.14983">
        <ele>746</ele>
        <time>2009-06-01T18:11:58Z</time>
      </trkpt>
      <trkpt lat="48.50801" lon="7.15013">
        <ele>748</ele>
        <time>2009-06-01T18:11:40Z</time>
      </trkpt>
      <trkpt lat="48.50788" lon="7.15048">
        <ele>750</ele>
        <time>2009-06-01T18:11:19Z</time>
      </trkpt>
      <trkpt lat="48.50776" lon="7.15079">
        <ele>754</ele>
        <time>2009-06-01T18:11:02Z</time>
      </trkpt>
      <trkpt lat="48.50762" lon="7.15105">
        <ele>756</ele>
        <time>2009-06-01T18:10:43Z</time>
      </trkpt>
      <trkpt lat="48.50758" lon="7.15116">
        <ele>757</ele>
        <time>2009-06-01T18:10:37Z</time>
      </trkpt>
      <trkpt lat="48.50745" lon="7.15128">
        <ele>760</ele>
        <time>2009-06-01T18:10:23Z</time>
      </trkpt>
      <trkpt lat="48.50735" lon="7.15133">
        <ele>761</ele>
        <time>2009-06-01T18:10:08Z</time>
      </trkpt>
      <trkpt lat="48.50716" lon="7.15139">
        <ele>764</ele>
        <time>2009-06-01T18:09:52Z</time>
      </trkpt>
      <trkpt lat="48.507" lon="7.15151">
        <ele>767</ele>
        <time>2009-06-01T18:09:37Z</time>
      </trkpt>
      <trkpt lat="48.50685" lon="7.15169">
        <ele>769</ele>
        <time>2009-06-01T18:09:22Z</time>
      </trkpt>
      <trkpt lat="48.50673" lon="7.15197">
        <ele>772</ele>
        <time>2009-06-01T18:09:04Z</time>
      </trkpt>
      <trkpt lat="48.50663" lon="7.15229">
        <ele>772</ele>
        <time>2009-06-01T18:08:46Z</time>
      </trkpt>
      <trkpt lat="48.50656" lon="7.15272">
        <ele>773</ele>
        <time>2009-06-01T18:08:30Z</time>
      </trkpt>
      <trkpt lat="48.50654" lon="7.1529">
        <ele>774</ele>
        <time>2009-06-01T18:08:22Z</time>
      </trkpt>
      <trkpt lat="48.50651" lon="7.1531">
        <ele>776</ele>
        <time>2009-06-01T18:08:08Z</time>
      </trkpt>
      <trkpt lat="48.50645" lon="7.15337">
        <ele>778</ele>
        <time>2009-06-01T18:07:53Z</time>
      </trkpt>
      <trkpt lat="48.5065" lon="7.15362">
        <ele>779</ele>
        <time>2009-06-01T18:07:42Z</time>
      </trkpt>
      <trkpt lat="48.50656" lon="7.15383">
        <ele>780</ele>
        <time>2009-06-01T18:07:31Z</time>
      </trkpt>
      <trkpt lat="48.50668" lon="7.15403">
        <ele>782</ele>
        <time>2009-06-01T18:07:15Z</time>
      </trkpt>
      <trkpt lat="48.50675" lon="7.15418">
        <ele>784</ele>
        <time>2009-06-01T18:07:03Z</time>
      </trkpt>
      <trkpt lat="48.50685" lon="7.1543">
        <ele>786</ele>
        <time>2009-06-01T18:06:49Z</time>
      </trkpt>
      <trkpt lat="48.50699" lon="7.15435">
        <ele>789</ele>
        <time>2009-06-01T18:06:35Z</time>
      </trkpt>
      <trkpt lat="48.50709" lon="7.15432">
        <ele>792</ele>
        <time>2009-06-01T18:06:25Z</time>
      </trkpt>
      <trkpt lat="48.50722" lon="7.15434">
        <ele>794</ele>
        <time>2009-06-01T18:06:10Z</time>
      </trkpt>
      <trkpt lat="48.50729" lon="7.15437">
        <ele>795</ele>
        <time>2009-06-01T18:06:04Z</time>
      </trkpt>
      <trkpt lat="48.50745" lon="7.15448">
        <ele>797</ele>
        <time>2009-06-01T18:05:51Z</time>
      </trkpt>
      <trkpt lat="48.50753" lon="7.15466">
        <ele>797</ele>
        <time>2009-06-01T18:05:35Z</time>
      </trkpt>
      <trkpt lat="48.50769" lon="7.15478">
        <ele>800</ele>
        <time>2009-06-01T18:05:20Z</time>
      </trkpt>
      <trkpt lat="48.50783" lon="7.15488">
        <ele>803</ele>
        <time>2009-06-01T18:05:06Z</time>
      </trkpt>
      <trkpt lat="48.50791" lon="7.15508">
        <ele>805</ele>
        <time>2009-06-01T18:04:54Z</time>
      </trkpt>
      <trkpt lat="48.50798" lon="7.15525">
        <ele>807</ele>
        <time>2009-06-01T18:04:42Z</time>
      </trkpt>
      <trkpt lat="48.50804" lon="7.15539">
        <ele>809</ele>
        <time>2009-06-01T18:04:30Z</time>
      </trkpt>
      <trkpt lat="48.50816" lon="7.15554">
        <ele>811</ele>
        <time>2009-06-01T18:04:14Z</time>
      </trkpt>
      <trkpt lat="48.50825" lon="7.15569">
        <ele>814</ele>
        <time>2009-06-01T18:04:00Z</time>
      </trkpt>
      <trkpt lat="48.50834" lon="7.15586">
        <ele>817</ele>
        <time>2009-06-01T18:03:46Z</time>
      </trkpt>
      <trkpt lat="48.50839" lon="7.15604">
        <ele>818</ele>
        <time>2009-06-01T18:03:30Z</time>
      </trkpt>
      <trkpt lat="48.50853" lon="7.15629">
        <ele>821</ele>
        <time>2009-06-01T18:03:13Z</time>
      </trkpt>
      <trkpt lat="48.50857" lon="7.15635">
        <ele>821</ele>
        <time>2009-06-01T18:03:09Z</time>
      </trkpt>
      <trkpt lat="48.50867" lon="7.1566">
        <ele>824</ele>
        <time>2009-06-01T18:02:55Z</time>
      </trkpt>
      <trkpt lat="48.50877" lon="7.15673">
        <ele>826</ele>
        <time>2009-06-01T18:02:43Z</time>
      </trkpt>
      <trkpt lat="48.50892" lon="7.15686">
        <ele>829</ele>
        <time>2009-06-01T18:02:28Z</time>
      </trkpt>
      <trkpt lat="48.50901" lon="7.15703">
        <ele>831</ele>
        <time>2009-06-01T18:02:14Z</time>
      </trkpt>
      <trkpt lat="48.50914" lon="7.15718">
        <ele>834</ele>
        <time>2009-06-01T18:02:00Z</time>
      </trkpt>
      <trkpt lat="48.50928" lon="7.15731">
        <ele>836</ele>
        <time>2009-06-01T18:01:45Z</time>
      </trkpt>
      <trkpt lat="48.50943" lon="7.1574">
        <ele>838</ele>
        <time>2009-06-01T18:01:29Z</time>
      </trkpt>
      <trkpt lat="48.50947" lon="7.15745">
        <ele>839</ele>
        <time>2009-06-01T18:01:24Z</time>
      </trkpt>
      <trkpt lat="48.50953" lon="7.15759">
        <ele>841</ele>
        <time>2009-06-01T18:01:08Z</time>
      </trkpt>
      <trkpt lat="48.50962" lon="7.15768">
        <ele>844</ele>
        <time>2009-06-01T18:00:55Z</time>
      </trkpt>
      <trkpt lat="48.50971" lon="7.15771">
        <ele>844</ele>
        <time>2009-06-01T18:00:43Z</time>
      </trkpt>
      <trkpt lat="48.50974" lon="7.15781">
        <ele>846</ele>
        <time>2009-06-01T18:00:32Z</time>
      </trkpt>
      <trkpt lat="48.50971" lon="7.15782">
        <ele>847</ele>
        <time>2009-06-01T18:00:28Z</time>
      </trkpt>
      <trkpt lat="48.50959" lon="7.15785">
        <ele>849</ele>
        <time>2009-06-01T18:00:17Z</time>
      </trkpt>
      <trkpt lat="48.50949" lon="7.1579">
        <ele>851</ele>
        <time>2009-06-01T18:00:04Z</time>
      </trkpt>
      <trkpt lat="48.50937" lon="7.15796">
        <ele>853</ele>
        <time>2009-06-01T17:59:54Z</time>
      </trkpt>
      <trkpt lat="48.50928" lon="7.15799">
        <ele>854</ele>
        <time>2009-06-01T17:59:44Z</time>
      </trkpt>
      <trkpt lat="48.50915" lon="7.15805">
        <ele>855</ele>
        <time>2009-06-01T17:59:30Z</time>
      </trkpt>
      <trkpt lat="48.50914" lon="7.15813">
        <ele>857</ele>
        <time>2009-06-01T17:59:10Z</time>
      </trkpt>
      <trkpt lat="48.50907" lon="7.15831">
        <ele>859</ele>
        <time>2009-06-01T17:58:56Z</time>
      </trkpt>
      <trkpt lat="48.50901" lon="7.15841">
        <ele>861</ele>
        <time>2009-06-01T17:58:46Z</time>
      </trkpt>
      <trkpt lat="48.5089" lon="7.15855">
        <ele>862</ele>
        <time>2009-06-01T17:58:31Z</time>
      </trkpt>
      <trkpt lat="48.5088" lon="7.15875">
        <ele>866</ele>
        <time>2009-06-01T17:58:13Z</time>
      </trkpt>
      <trkpt lat="48.50872" lon="7.15901">
        <ele>868</ele>
        <time>2009-06-01T17:57:56Z</time>
      </trkpt>
      <trkpt lat="48.5087" lon="7.15905">
        <ele>868</ele>
        <time>2009-06-01T17:57:53Z</time>
      </trkpt>
      <trkpt lat="48.50868" lon="7.15912">
        <ele>869</ele>
        <time>2009-06-01T17:57:49Z</time>
      </trkpt>
      <trkpt lat="48.50863" lon="7.15929">
        <ele>871</ele>
        <time>2009-06-01T17:57:36Z</time>
      </trkpt>
      <trkpt lat="48.50857" lon="7.15941">
        <ele>872</ele>
        <time>2009-06-01T17:57:26Z</time>
      </trkpt>
      <trkpt lat="48.50851" lon="7.15961">
        <ele>873</ele>
        <time>2009-06-01T17:57:12Z</time>
      </trkpt>
      <trkpt lat="48.50847" lon="7.15986">
        <ele>875</ele>
        <time>2009-06-01T17:56:56Z</time>
      </trkpt>
      <trkpt lat="48.50849" lon="7.15998">
        <ele>876</ele>
        <time>2009-06-01T17:56:49Z</time>
      </trkpt>
      <trkpt lat="48.50851" lon="7.16008">
        <ele>877</ele>
        <time>2009-06-01T17:56:44Z</time>
      </trkpt>
      <trkpt lat="48.50852" lon="7.16009">
        <ele>877</ele>
        <time>2009-06-01T17:56:38Z</time>
      </trkpt>
      <trkpt lat="48.50855" lon="7.16027">
        <ele>880</ele>
        <time>2009-06-01T17:56:25Z</time>
      </trkpt>
      <trkpt lat="48.50853" lon="7.16046">
        <ele>881</ele>
        <time>2009-06-01T17:56:15Z</time>
      </trkpt>
      <trkpt lat="48.50852" lon="7.16049">
        <ele>881</ele>
        <time>2009-06-01T17:56:13Z</time>
      </trkpt>
      <trkpt lat="48.50852" lon="7.16051">
        <ele>881</ele>
        <time>2009-06-01T17:56:12Z</time>
      </trkpt>
      <trkpt lat="48.5085" lon="7.16082">
        <ele>881</ele>
        <time>2009-06-01T17:55:57Z</time>
      </trkpt>
      <trkpt lat="48.5085" lon="7.16103">
        <ele>882</ele>
        <time>2009-06-01T17:55:47Z</time>
      </trkpt>
      <trkpt lat="48.50853" lon="7.16122">
        <ele>883</ele>
        <time>2009-06-01T17:55:33Z</time>
      </trkpt>
      <trkpt lat="48.50857" lon="7.16142">
        <ele>885</ele>
        <time>2009-06-01T17:55:19Z</time>
      </trkpt>
      <trkpt lat="48.50865" lon="7.16154">
        <ele>887</ele>
        <time>2009-06-01T17:55:04Z</time>
      </trkpt>
      <trkpt lat="48.50865" lon="7.16156">
        <ele>887</ele>
        <time>2009-06-01T17:55:03Z</time>
      </trkpt>
      <trkpt lat="48.5087" lon="7.16168">
        <ele>888</ele>
        <time>2009-06-01T17:54:48Z</time>
      </trkpt>
      <trkpt lat="48.50877" lon="7.16189">
        <ele>890</ele>
        <time>2009-06-01T17:54:33Z</time>
      </trkpt>
      <trkpt lat="48.50883" lon="7.16201">
        <ele>893</ele>
        <time>2009-06-01T17:54:17Z</time>
      </trkpt>
      <trkpt lat="48.50889" lon="7.16221">
        <ele>893</ele>
        <time>2009-06-01T17:54:02Z</time>
      </trkpt>
      <trkpt lat="48.5089" lon="7.16225">
        <ele>893</ele>
        <time>2009-06-01T17:53:59Z</time>
      </trkpt>
      <trkpt lat="48.50897" lon="7.16241">
        <ele>895</ele>
        <time>2009-06-01T17:53:43Z</time>
      </trkpt>
      <trkpt lat="48.50909" lon="7.16264">
        <ele>896</ele>
        <time>2009-06-01T17:53:32Z</time>
      </trkpt>
      <trkpt lat="48.50919" lon="7.16283">
        <ele>898</ele>
        <time>2009-06-01T17:53:16Z</time>
      </trkpt>
      <trkpt lat="48.50926" lon="7.16289">
        <ele>901</ele>
        <time>2009-06-01T17:53:02Z</time>
      </trkpt>
      <trkpt lat="48.50933" lon="7.16295">
        <ele>903</ele>
        <time>2009-06-01T17:52:49Z</time>
      </trkpt>
      <trkpt lat="48.50941" lon="7.16304">
        <ele>905</ele>
        <time>2009-06-01T17:52:33Z</time>
      </trkpt>
      <trkpt lat="48.50951" lon="7.16315">
        <ele>906</ele>
        <time>2009-06-01T17:52:17Z</time>
      </trkpt>
      <trkpt lat="48.50962" lon="7.16326">
        <ele>907</ele>
        <time>2009-06-01T17:52:01Z</time>
      </trkpt>
      <trkpt lat="48.50971" lon="7.16328">
        <ele>908</ele>
        <time>2009-06-01T17:51:48Z</time>
      </trkpt>
      <trkpt lat="48.50974" lon="7.16332">
        <ele>910</ele>
        <time>2009-06-01T17:51:36Z</time>
      </trkpt>
      <trkpt lat="48.5098" lon="7.16333">
        <ele>911</ele>
        <time>2009-06-01T17:51:24Z</time>
      </trkpt>
      <trkpt lat="48.50989" lon="7.16336">
        <ele>913</ele>
        <time>2009-06-01T17:51:14Z</time>
      </trkpt>
      <trkpt lat="48.51" lon="7.16337">
        <ele>915</ele>
        <time>2009-06-01T17:50:56Z</time>
      </trkpt>
      <trkpt lat="48.51008" lon="7.16338">
        <ele>917</ele>
        <time>2009-06-01T17:50:42Z</time>
      </trkpt>
      <trkpt lat="48.51019" lon="7.16349">
        <ele>919</ele>
        <time>2009-06-01T17:50:29Z</time>
      </trkpt>
      <trkpt lat="48.51032" lon="7.16357">
        <ele>920</ele>
        <time>2009-06-01T17:50:16Z</time>
      </trkpt>
      <trkpt lat="48.51042" lon="7.1636">
        <ele>922</ele>
        <time>2009-06-01T17:50:04Z</time>
      </trkpt>
      <trkpt lat="48.51051" lon="7.16364">
        <ele>924</ele>
        <time>2009-06-01T17:49:50Z</time>
      </trkpt>
      <trkpt lat="48.51056" lon="7.1636">
        <ele>925</ele>
        <time>2009-06-01T17:49:35Z</time>
      </trkpt>
      <trkpt lat="48.51057" lon="7.16348">
        <ele>928</ele>
        <time>2009-06-01T17:49:21Z</time>
      </trkpt>
      <trkpt lat="48.51067" lon="7.16351">
        <ele>930</ele>
        <time>2009-06-01T17:49:08Z</time>
      </trkpt>
      <trkpt lat="48.5108" lon="7.1636">
        <ele>932</ele>
        <time>2009-06-01T17:48:53Z</time>
      </trkpt>
      <trkpt lat="48.51086" lon="7.16359">
        <ele>935</ele>
        <time>2009-06-01T17:48:41Z</time>
      </trkpt>
      <trkpt lat="48.51083" lon="7.16344">
        <ele>937</ele>
        <time>2009-06-01T17:48:30Z</time>
      </trkpt>
      <trkpt lat="48.5108" lon="7.16332">
        <ele>941</ele>
        <time>2009-06-01T17:48:19Z</time>
      </trkpt>
      <trkpt lat="48.51079" lon="7.16319">
        <ele>941</ele>
        <time>2009-06-01T17:48:09Z</time>
      </trkpt>
      <trkpt lat="48.51069" lon="7.16304">
        <ele>943</ele>
        <time>2009-06-01T17:47:53Z</time>
      </trkpt>
      <trkpt lat="48.51059" lon="7.16289">
        <ele>947</ele>
        <time>2009-06-01T17:47:40Z</time>
      </trkpt>
      <trkpt lat="48.51052" lon="7.1627">
        <ele>948</ele>
        <time>2009-06-01T17:47:27Z</time>
      </trkpt>
      <trkpt lat="48.51048" lon="7.16264">
        <ele>949</ele>
        <time>2009-06-01T17:47:22Z</time>
      </trkpt>
      <trkpt lat="48.51045" lon="7.16261">
        <ele>950</ele>
        <time>2009-06-01T17:47:19Z</time>
      </trkpt>
      <trkpt lat="48.51037" lon="7.16244">
        <ele>953</ele>
        <time>2009-06-01T17:47:08Z</time>
      </trkpt>
      <trkpt lat="48.51034" lon="7.16238">
        <ele>954</ele>
        <time>2009-06-01T17:47:04Z</time>
      </trkpt>
      <trkpt lat="48.51032" lon="7.16226">
        <ele>958</ele>
        <time>2009-06-01T17:46:55Z</time>
      </trkpt>
      <trkpt lat="48.5103" lon="7.16221">
        <ele>960</ele>
        <time>2009-06-01T17:46:50Z</time>
      </trkpt>
      <trkpt lat="48.51034" lon="7.16211">
        <ele>962</ele>
        <time>2009-06-01T17:46:39Z</time>
      </trkpt>
      <trkpt lat="48.51042" lon="7.16209">
        <ele>966</ele>
        <time>2009-06-01T17:46:29Z</time>
      </trkpt>
      <trkpt lat="48.51061" lon="7.16218">
        <ele>966</ele>
        <time>2009-06-01T17:46:16Z</time>
      </trkpt>
      <trkpt lat="48.51082" lon="7.16235">
        <ele>965</ele>
        <time>2009-06-01T17:45:59Z</time>
      </trkpt>
      <trkpt lat="48.51102" lon="7.16259">
        <ele>967</ele>
        <time>2009-06-01T17:45:40Z</time>
      </trkpt>
      <trkpt lat="48.51124" lon="7.16277">
        <ele>969</ele>
        <time>2009-06-01T17:45:23Z</time>
      </trkpt>
      <trkpt lat="48.51129" lon="7.16281">
        <ele>970</ele>
        <time>2009-06-01T17:45:18Z</time>
      </trkpt>
      <trkpt lat="48.51138" lon="7.16289">
        <ele>973</ele>
        <time>2009-06-01T17:45:08Z</time>
      </trkpt>
      <trkpt lat="48.51142" lon="7.1629">
        <ele>973</ele>
        <time>2009-06-01T17:45:05Z</time>
      </trkpt>
      <trkpt lat="48.51155" lon="7.16304">
        <ele>976</ele>
        <time>2009-06-01T17:44:52Z</time>
      </trkpt>
      <trkpt lat="48.51157" lon="7.16305">
        <ele>976</ele>
        <time>2009-06-01T17:44:51Z</time>
      </trkpt>
      <trkpt lat="48.51169" lon="7.16318">
        <ele>979</ele>
        <time>2009-06-01T17:44:39Z</time>
      </trkpt>
      <trkpt lat="48.51184" lon="7.1633">
        <ele>983</ele>
        <time>2009-06-01T17:44:25Z</time>
      </trkpt>
      <trkpt lat="48.51193" lon="7.16343">
        <ele>986</ele>
        <time>2009-06-01T17:44:14Z</time>
      </trkpt>
      <trkpt lat="48.51193" lon="7.1635">
        <ele>987</ele>
        <time>2009-06-01T17:44:10Z</time>
      </trkpt>
      <trkpt lat="48.51199" lon="7.16354">
        <ele>988</ele>
        <time>2009-06-01T17:44:04Z</time>
      </trkpt>
      <trkpt lat="48.51202" lon="7.16354">
        <ele>989</ele>
        <time>2009-06-01T17:44:01Z</time>
      </trkpt>
      <trkpt lat="48.51209" lon="7.16363">
        <ele>992</ele>
        <time>2009-06-01T17:43:53Z</time>
      </trkpt>
      <trkpt lat="48.5121" lon="7.16364">
        <ele>992</ele>
        <time>2009-06-01T17:43:52Z</time>
      </trkpt>
      <trkpt lat="48.51214" lon="7.16369">
        <ele>993</ele>
        <time>2009-06-01T17:43:27Z</time>
      </trkpt>
      <trkpt lat="48.51212" lon="7.1637">
        <ele>993</ele>
        <time>2009-06-01T17:42:59Z</time>
      </trkpt>
      <trkpt lat="48.51214" lon="7.16377">
        <ele>993</ele>
        <time>2009-06-01T17:42:37Z</time>
      </trkpt>
      <trkpt lat="48.51221" lon="7.16385">
        <ele>995</ele>
        <time>2009-06-01T17:42:25Z</time>
      </trkpt>
      <trkpt lat="48.51229" lon="7.16394">
        <ele>996</ele>
        <time>2009-06-01T17:42:06Z</time>
      </trkpt>
      <trkpt lat="48.51234" lon="7.16396">
        <ele>997</ele>
        <time>2009-06-01T17:41:59Z</time>
      </trkpt>
      <trkpt lat="48.51244" lon="7.164">
        <ele>999</ele>
        <time>2009-06-01T17:41:46Z</time>
      </trkpt>
      <trkpt lat="48.5125" lon="7.16407">
        <ele>1001</ele>
        <time>2009-06-01T17:41:35Z</time>
      </trkpt>
      <trkpt lat="48.51257" lon="7.16417">
        <ele>1004</ele>
        <time>2009-06-01T17:41:21Z</time>
      </trkpt>
      <trkpt lat="48.51261" lon="7.16433">
        <ele>1005</ele>
        <time>2009-06-01T17:41:07Z</time>
      </trkpt>
      <trkpt lat="48.51265" lon="7.16444">
        <ele>1007</ele>
        <time>2009-06-01T17:40:55Z</time>
      </trkpt>
      <trkpt lat="48.51264" lon="7.16445">
        <ele>1006</ele>
        <time>2009-06-01T17:40:54Z</time>
      </trkpt>
      <trkpt lat="48.51266" lon="7.16456">
        <ele>1009</ele>
        <time>2009-06-01T17:40:41Z</time>
      </trkpt>
      <trkpt lat="48.51268" lon="7.16458">
        <ele>1009</ele>
        <time>2009-06-01T17:40:06Z</time>
      </trkpt>
      <trkpt lat="48.51271" lon="7.16467">
        <ele>1009</ele>
        <time>2009-06-01T17:39:51Z</time>
      </trkpt>
      <trkpt lat="48.51271" lon="7.16472">
        <ele>1011</ele>
        <time>2009-06-01T17:39:48Z</time>
      </trkpt>
      <trkpt lat="48.51271" lon="7.16473">
        <ele>1006</ele>
        <time>2009-06-01T17:39:47Z</time>
      </trkpt>
      <trkpt lat="48.51271" lon="7.16496">
        <ele>1010</ele>
        <time>2009-06-01T17:39:32Z</time>
      </trkpt>
      <trkpt lat="48.51276" lon="7.16522">
        <ele>1010</ele>
        <time>2009-06-01T17:39:14Z</time>
      </trkpt>
      <trkpt lat="48.51276" lon="7.16525">
        <ele>1009</ele>
        <time>2009-06-01T17:39:07Z</time>
      </trkpt>
      <trkpt lat="48.51278" lon="7.16528">
        <ele>1009</ele>
        <time>2009-06-01T17:38:54Z</time>
      </trkpt>
      <trkpt lat="48.5128" lon="7.16532">
        <ele>1009</ele>
        <time>2009-06-01T17:38:42Z</time>
      </trkpt>
      <trkpt lat="48.51277" lon="7.16535">
        <ele>1008</ele>
        <time>2009-06-01T17:38:21Z</time>
      </trkpt>
      <trkpt lat="48.51277" lon="7.16543">
        <ele>1009</ele>
        <time>2009-06-01T17:37:43Z</time>
      </trkpt>
      <trkpt lat="48.51277" lon="7.16542">
        <ele>1009</ele>
        <time>2009-06-01T17:37:17Z</time>
      </trkpt>
      <trkpt lat="48.51277" lon="7.16542">
        <ele>1009</ele>
        <time>2009-06-01T17:37:11Z</time>
      </trkpt>
      <trkpt lat="48.51276" lon="7.16537">
        <ele>1009</ele>
        <time>2009-06-01T17:36:56Z</time>
      </trkpt>
      <trkpt lat="48.51273" lon="7.16516">
        <ele>1010</ele>
        <time>2009-06-01T17:36:37Z</time>
      </trkpt>
      <trkpt lat="48.51269" lon="7.16491">
        <ele>1010</ele>
        <time>2009-06-01T17:36:20Z</time>
      </trkpt>
      <trkpt lat="48.51264" lon="7.16475">
        <ele>1010</ele>
        <time>2009-06-01T17:36:08Z</time>
      </trkpt>
      <trkpt lat="48.51257" lon="7.16456">
        <ele>1011</ele>
        <time>2009-06-01T17:35:51Z</time>
      </trkpt>
      <trkpt lat="48.51256" lon="7.16444">
        <ele>1012</ele>
        <time>2009-06-01T17:35:37Z</time>
      </trkpt>
      <trkpt lat="48.51253" lon="7.16442">
        <ele>1012</ele>
        <time>2009-06-01T17:35:22Z</time>
      </trkpt>
      <trkpt lat="48.51253" lon="7.16442">
        <ele>1012</ele>
        <time>2009-06-01T17:34:55Z</time>
      </trkpt>
      <trkpt lat="48.51252" lon="7.16442">
        <ele>1011</ele>
        <time>2009-06-01T17:34:30Z</time>
      </trkpt>
      <trkpt lat="48.51253" lon="7.16437">
        <ele>1010</ele>
        <time>2009-06-01T17:34:13Z</time>
      </trkpt>
      <trkpt lat="48.51251" lon="7.16425">
        <ele>1011</ele>
        <time>2009-06-01T17:33:59Z</time>
      </trkpt>
      <trkpt lat="48.51251" lon="7.16422">
        <ele>1010</ele>
        <time>2009-06-01T17:33:41Z</time>
      </trkpt>
      <trkpt lat="48.51251" lon="7.16423">
        <ele>1010</ele>
        <time>2009-06-01T17:33:28Z</time>
      </trkpt>
      <trkpt lat="48.5125" lon="7.16422">
        <ele>1011</ele>
        <time>2009-06-01T17:33:21Z</time>
      </trkpt>
      <trkpt lat="48.51249" lon="7.16424">
        <ele>1011</ele>
        <time>2009-06-01T17:33:06Z</time>
      </trkpt>
      <trkpt lat="48.51247" lon="7.16421">
        <ele>1010</ele>
        <time>2009-06-01T17:31:56Z</time>
      </trkpt>
      <trkpt lat="48.51249" lon="7.16421">
        <ele>1011</ele>
        <time>2009-06-01T17:31:35Z</time>
      </trkpt>
      <trkpt lat="48.51248" lon="7.16418">
        <ele>1010</ele>
        <time>2009-06-01T17:31:13Z</time>
      </trkpt>
      <trkpt lat="48.51248" lon="7.16418">
        <ele>1011</ele>
        <time>2009-06-01T17:30:43Z</time>
      </trkpt>
      <trkpt lat="48.51244" lon="7.16418">
        <ele>1009</ele>
        <time>2009-06-01T17:30:29Z</time>
      </trkpt>
      <trkpt lat="48.51248" lon="7.1642">
        <ele>1009</ele>
        <time>2009-06-01T17:30:05Z</time>
      </trkpt>
      <trkpt lat="48.51247" lon="7.16417">
        <ele>1010</ele>
        <time>2009-06-01T17:29:45Z</time>
      </trkpt>
      <trkpt lat="48.51246" lon="7.16419">
        <ele>1009</ele>
        <time>2009-06-01T17:29:16Z</time>
      </trkpt>
      <trkpt lat="48.51243" lon="7.1642">
        <ele>1010</ele>
        <time>2009-06-01T17:29:02Z</time>
      </trkpt>
      <trkpt lat="48.51243" lon="7.16418">
        <ele>1010</ele>
        <time>2009-06-01T17:28:06Z</time>
      </trkpt>
      <trkpt lat="48.51247" lon="7.16426">
        <ele>1010</ele>
        <time>2009-06-01T17:27:49Z</time>
      </trkpt>
      <trkpt lat="48.51252" lon="7.16428">
        <ele>1011</ele>
        <time>2009-06-01T17:27:13Z</time>
      </trkpt>
      <trkpt lat="48.51252" lon="7.16428">
        <ele>1012</ele>
        <time>2009-06-01T17:27:09Z</time>
      </trkpt>
      <trkpt lat="48.51251" lon="7.16429">
        <ele>1012</ele>
        <time>2009-06-01T17:26:45Z</time>
      </trkpt>
      <trkpt lat="48.51253" lon="7.16437">
        <ele>1013</ele>
        <time>2009-06-01T17:26:31Z</time>
      </trkpt>
      <trkpt lat="48.51253" lon="7.16438">
        <ele>1012</ele>
        <time>2009-06-01T17:26:29Z</time>
      </trkpt>
      <trkpt lat="48.5125" lon="7.16427">
        <ele>1011</ele>
        <time>2009-06-01T17:26:19Z</time>
      </trkpt>
      <trkpt lat="48.51251" lon="7.16427">
        <ele>1009</ele>
        <time>2009-06-01T17:25:52Z</time>
      </trkpt>
      <trkpt lat="48.51251" lon="7.16427">
        <ele>1010</ele>
        <time>2009-06-01T17:25:35Z</time>
      </trkpt>
      <trkpt lat="48.51254" lon="7.16435">
        <ele>1011</ele>
        <time>2009-06-01T17:25:21Z</time>
      </trkpt>
      <trkpt lat="48.51254" lon="7.16438">
        <ele>1012</ele>
        <time>2009-06-01T17:24:58Z</time>
      </trkpt>
      <trkpt lat="48.51253" lon="7.16437">
        <ele>1012</ele>
        <time>2009-06-01T17:24:40Z</time>
      </trkpt>
      <trkpt lat="48.51252" lon="7.16427">
        <ele>1010</ele>
        <time>2009-06-01T17:24:29Z</time>
      </trkpt>
      <trkpt lat="48.51251" lon="7.16428">
        <ele>1011</ele>
        <time>2009-06-01T17:24:22Z</time>
      </trkpt>
      <trkpt lat="48.51251" lon="7.16429">
        <ele>1014</ele>
        <time>2009-06-01T17:24:17Z</time>
      </trkpt>
      <trkpt lat="48.51251" lon="7.16429">
        <ele>1014</ele>
        <time>2009-06-01T17:24:16Z</time>
      </trkpt>
      <trkpt lat="48.51253" lon="7.16435">
        <ele>1010</ele>
        <time>2009-06-01T17:24:06Z</time>
      </trkpt>
      <trkpt lat="48.51255" lon="7.16439">
        <ele>1011</ele>
        <time>2009-06-01T17:24:03Z</time>
      </trkpt>
      <trkpt lat="48.51255" lon="7.16439">
        <ele>1010</ele>
        <time>2009-06-01T17:24:02Z</time>
      </trkpt>
      <trkpt lat="48.5125" lon="7.16429">
        <ele>1010</ele>
        <time>2009-06-01T17:23:51Z</time>
      </trkpt>
      <trkpt lat="48.51249" lon="7.16428">
        <ele>1009</ele>
        <time>2009-06-01T17:23:41Z</time>
      </trkpt>
      <trkpt lat="48.51253" lon="7.1643">
        <ele>1010</ele>
        <time>2009-06-01T17:22:35Z</time>
      </trkpt>
      <trkpt lat="48.51251" lon="7.16435">
        <ele>1011</ele>
        <time>2009-06-01T17:22:23Z</time>
      </trkpt>
      <trkpt lat="48.51255" lon="7.16443">
        <ele>1012</ele>
        <time>2009-06-01T17:22:07Z</time>
      </trkpt>
      <trkpt lat="48.51255" lon="7.16441">
        <ele>1012</ele>
        <time>2009-06-01T17:21:44Z</time>
      </trkpt>
      <trkpt lat="48.51252" lon="7.16441">
        <ele>1012</ele>
        <time>2009-06-01T17:21:18Z</time>
      </trkpt>
      <trkpt lat="48.51253" lon="7.16442">
        <ele>1013</ele>
        <time>2009-06-01T17:21:14Z</time>
      </trkpt>
      <trkpt lat="48.51255" lon="7.16449">
        <ele>1013</ele>
        <time>2009-06-01T17:20:59Z</time>
      </trkpt>
      <trkpt lat="48.51262" lon="7.16448">
        <ele>1010</ele>
        <time>2009-06-01T17:20:45Z</time>
      </trkpt>
      <trkpt lat="48.51267" lon="7.16445">
        <ele>1008</ele>
        <time>2009-06-01T17:20:31Z</time>
      </trkpt>
      <trkpt lat="48.51264" lon="7.16431">
        <ele>1007</ele>
        <time>2009-06-01T17:20:14Z</time>
      </trkpt>
      <trkpt lat="48.51261" lon="7.16422">
        <ele>1006</ele>
        <time>2009-06-01T17:20:02Z</time>
      </trkpt>
      <trkpt lat="48.51255" lon="7.16415">
        <ele>1005</ele>
        <time>2009-06-01T17:19:53Z</time>
      </trkpt>
      <trkpt lat="48.5125" lon="7.16406">
        <ele>1003</ele>
        <time>2009-06-01T17:19:40Z</time>
      </trkpt>
      <trkpt lat="48.51245" lon="7.16396">
        <ele>1000</ele>
        <time>2009-06-01T17:19:24Z</time>
      </trkpt>
      <trkpt lat="48.5124" lon="7.16391">
        <ele>998</ele>
        <time>2009-06-01T17:19:15Z</time>
      </trkpt>
      <trkpt lat="48.51231" lon="7.16388">
        <ele>998</ele>
        <time>2009-06-01T17:19:01Z</time>
      </trkpt>
      <trkpt lat="48.5122" lon="7.16383">
        <ele>996</ele>
        <time>2009-06-01T17:18:46Z</time>
      </trkpt>
      <trkpt lat="48.51218" lon="7.1638">
        <ele>994</ele>
        <time>2009-06-01T17:18:41Z</time>
      </trkpt>
      <trkpt lat="48.51212" lon="7.1637">
        <ele>993</ele>
        <time>2009-06-01T17:18:30Z</time>
      </trkpt>
      <trkpt lat="48.51207" lon="7.16361">
        <ele>991</ele>
        <time>2009-06-01T17:18:17Z</time>
      </trkpt>
      <trkpt lat="48.51197" lon="7.16355">
        <ele>990</ele>
        <time>2009-06-01T17:18:02Z</time>
      </trkpt>
      <trkpt lat="48.51195" lon="7.1635">
        <ele>987</ele>
        <time>2009-06-01T17:17:50Z</time>
      </trkpt>
      <trkpt lat="48.51193" lon="7.16341">
        <ele>986</ele>
        <time>2009-06-01T17:17:37Z</time>
      </trkpt>
      <trkpt lat="48.51187" lon="7.16333">
        <ele>985</ele>
        <time>2009-06-01T17:17:26Z</time>
      </trkpt>
      <trkpt lat="48.51175" lon="7.16321">
        <ele>982</ele>
        <time>2009-06-01T17:17:08Z</time>
      </trkpt>
      <trkpt lat="48.51166" lon="7.16315">
        <ele>980</ele>
        <time>2009-06-01T17:16:54Z</time>
      </trkpt>
      <trkpt lat="48.51157" lon="7.16306">
        <ele>978</ele>
        <time>2009-06-01T17:16:40Z</time>
      </trkpt>
      <trkpt lat="48.51154" lon="7.16303">
        <ele>976</ele>
        <time>2009-06-01T17:16:36Z</time>
      </trkpt>
      <trkpt lat="48.51143" lon="7.16293">
        <ele>974</ele>
        <time>2009-06-01T17:16:20Z</time>
      </trkpt>
      <trkpt lat="48.51136" lon="7.16286">
        <ele>973</ele>
        <time>2009-06-01T17:16:09Z</time>
      </trkpt>
      <trkpt lat="48.51129" lon="7.16277">
        <ele>972</ele>
        <time>2009-06-01T17:15:58Z</time>
      </trkpt>
      <trkpt lat="48.51128" lon="7.16276">
        <ele>973</ele>
        <time>2009-06-01T17:15:56Z</time>
      </trkpt>
      <trkpt lat="48.51128" lon="7.16275">
        <ele>973</ele>
        <time>2009-06-01T17:15:55Z</time>
      </trkpt>
      <trkpt lat="48.51118" lon="7.16266">
        <ele>970</ele>
        <time>2009-06-01T17:15:43Z</time>
      </trkpt>
      <trkpt lat="48.51107" lon="7.16256">
        <ele>969</ele>
        <time>2009-06-01T17:15:29Z</time>
      </trkpt>
      <trkpt lat="48.51092" lon="7.1624">
        <ele>967</ele>
        <time>2009-06-01T17:15:10Z</time>
      </trkpt>
      <trkpt lat="48.51085" lon="7.16229">
        <ele>967</ele>
        <time>2009-06-01T17:15:00Z</time>
      </trkpt>
      <trkpt lat="48.51068" lon="7.16218">
        <ele>968</ele>
        <time>2009-06-01T17:14:44Z</time>
      </trkpt>
      <trkpt lat="48.51055" lon="7.16212">
        <ele>967</ele>
        <time>2009-06-01T17:14:28Z</time>
      </trkpt>
      <trkpt lat="48.51041" lon="7.16208">
        <ele>967</ele>
        <time>2009-06-01T17:14:16Z</time>
      </trkpt>
      <trkpt lat="48.51041" lon="7.16212">
        <ele>967</ele>
        <time>2009-06-01T17:14:12Z</time>
      </trkpt>
      <trkpt lat="48.51034" lon="7.16216">
        <ele>964</ele>
        <time>2009-06-01T17:14:00Z</time>
      </trkpt>
      <trkpt lat="48.51029" lon="7.16215">
        <ele>963</ele>
        <time>2009-06-01T17:13:43Z</time>
      </trkpt>
      <trkpt lat="48.51031" lon="7.16214">
        <ele>963</ele>
        <time>2009-06-01T17:13:21Z</time>
      </trkpt>
      <trkpt lat="48.51036" lon="7.16226">
        <ele>960</ele>
        <time>2009-06-01T17:13:08Z</time>
      </trkpt>
      <trkpt lat="48.5104" lon="7.16239">
        <ele>958</ele>
        <time>2009-06-01T17:12:55Z</time>
      </trkpt>
      <trkpt lat="48.51045" lon="7.16253">
        <ele>955</ele>
        <time>2009-06-01T17:12:43Z</time>
      </trkpt>
      <trkpt lat="48.51058" lon="7.16264">
        <ele>954</ele>
        <time>2009-06-01T17:12:33Z</time>
      </trkpt>
      <trkpt lat="48.51062" lon="7.16274">
        <ele>951</ele>
        <time>2009-06-01T17:12:21Z</time>
      </trkpt>
      <trkpt lat="48.51068" lon="7.16288">
        <ele>950</ele>
        <time>2009-06-01T17:12:10Z</time>
      </trkpt>
      <trkpt lat="48.51077" lon="7.16301">
        <ele>948</ele>
        <time>2009-06-01T17:11:58Z</time>
      </trkpt>
      <trkpt lat="48.51084" lon="7.16315">
        <ele>946</ele>
        <time>2009-06-01T17:11:46Z</time>
      </trkpt>
      <trkpt lat="48.51089" lon="7.16328">
        <ele>944</ele>
        <time>2009-06-01T17:11:34Z</time>
      </trkpt>
      <trkpt lat="48.51089" lon="7.16341">
        <ele>941</ele>
        <time>2009-06-01T17:11:21Z</time>
      </trkpt>
      <trkpt lat="48.51092" lon="7.16354">
        <ele>940</ele>
        <time>2009-06-01T17:11:09Z</time>
      </trkpt>
      <trkpt lat="48.51092" lon="7.16368">
        <ele>937</ele>
        <time>2009-06-01T17:10:57Z</time>
      </trkpt>
      <trkpt lat="48.51086" lon="7.16368">
        <ele>934</ele>
        <time>2009-06-01T17:10:46Z</time>
      </trkpt>
      <trkpt lat="48.51073" lon="7.16362">
        <ele>932</ele>
        <time>2009-06-01T17:10:22Z</time>
      </trkpt>
      <trkpt lat="48.51076" lon="7.16357">
        <ele>933</ele>
        <time>2009-06-01T17:09:48Z</time>
      </trkpt>
      <trkpt lat="48.51073" lon="7.16361">
        <ele>932</ele>
        <time>2009-06-01T17:09:33Z</time>
      </trkpt>
      <trkpt lat="48.51067" lon="7.16358">
        <ele>932</ele>
        <time>2009-06-01T17:09:28Z</time>
      </trkpt>
      <trkpt lat="48.51059" lon="7.16357">
        <ele>932</ele>
        <time>2009-06-01T17:09:22Z</time>
      </trkpt>
      <trkpt lat="48.51055" lon="7.16362">
        <ele>929</ele>
        <time>2009-06-01T17:09:11Z</time>
      </trkpt>
      <trkpt lat="48.51052" lon="7.16373">
        <ele>925</ele>
        <time>2009-06-01T17:08:59Z</time>
      </trkpt>
      <trkpt lat="48.5104" lon="7.16367">
        <ele>923</ele>
        <time>2009-06-01T17:08:47Z</time>
      </trkpt>
      <trkpt lat="48.51033" lon="7.16366">
        <ele>922</ele>
        <time>2009-06-01T17:08:37Z</time>
      </trkpt>
      <trkpt lat="48.51027" lon="7.16358">
        <ele>922</ele>
        <time>2009-06-01T17:08:26Z</time>
      </trkpt>
      <trkpt lat="48.51025" lon="7.16357">
        <ele>922</ele>
        <time>2009-06-01T17:08:24Z</time>
      </trkpt>
      <trkpt lat="48.51013" lon="7.16358">
        <ele>920</ele>
        <time>2009-06-01T17:08:13Z</time>
      </trkpt>
      <trkpt lat="48.51003" lon="7.16346">
        <ele>917</ele>
        <time>2009-06-01T17:07:55Z</time>
      </trkpt>
      <trkpt lat="48.50992" lon="7.16343">
        <ele>915</ele>
        <time>2009-06-01T17:07:45Z</time>
      </trkpt>
      <trkpt lat="48.50982" lon="7.16339">
        <ele>914</ele>
        <time>2009-06-01T17:07:35Z</time>
      </trkpt>
      <trkpt lat="48.50971" lon="7.16336">
        <ele>911</ele>
        <time>2009-06-01T17:07:22Z</time>
      </trkpt>
      <trkpt lat="48.50969" lon="7.16335">
        <ele>911</ele>
        <time>2009-06-01T17:07:20Z</time>
      </trkpt>
      <trkpt lat="48.50966" lon="7.16327">
        <ele>909</ele>
        <time>2009-06-01T17:06:42Z</time>
      </trkpt>
      <trkpt lat="48.50955" lon="7.16318">
        <ele>909</ele>
        <time>2009-06-01T17:06:28Z</time>
      </trkpt>
      <trkpt lat="48.50944" lon="7.16303">
        <ele>908</ele>
        <time>2009-06-01T17:06:13Z</time>
      </trkpt>
      <trkpt lat="48.50934" lon="7.16292">
        <ele>906</ele>
        <time>2009-06-01T17:06:01Z</time>
      </trkpt>
      <trkpt lat="48.50929" lon="7.16281">
        <ele>906</ele>
        <time>2009-06-01T17:05:49Z</time>
      </trkpt>
      <trkpt lat="48.5092" lon="7.16272">
        <ele>904</ele>
        <time>2009-06-01T17:05:34Z</time>
      </trkpt>
      <trkpt lat="48.5091" lon="7.1626">
        <ele>900</ele>
        <time>2009-06-01T17:05:19Z</time>
      </trkpt>
      <trkpt lat="48.50901" lon="7.16243">
        <ele>899</ele>
        <time>2009-06-01T17:05:04Z</time>
      </trkpt>
      <trkpt lat="48.50898" lon="7.16234">
        <ele>898</ele>
        <time>2009-06-01T17:04:57Z</time>
      </trkpt>
      <trkpt lat="48.5089" lon="7.16216">
        <ele>897</ele>
        <time>2009-06-01T17:04:42Z</time>
      </trkpt>
      <trkpt lat="48.50886" lon="7.16203">
        <ele>895</ele>
        <time>2009-06-01T17:04:27Z</time>
      </trkpt>
      <trkpt lat="48.50879" lon="7.16189">
        <ele>894</ele>
        <time>2009-06-01T17:04:10Z</time>
      </trkpt>
      <trkpt lat="48.50877" lon="7.16184">
        <ele>894</ele>
        <time>2009-06-01T17:04:06Z</time>
      </trkpt>
      <trkpt lat="48.50869" lon="7.16171">
        <ele>892</ele>
        <time>2009-06-01T17:03:53Z</time>
      </trkpt>
      <trkpt lat="48.50863" lon="7.16153">
        <ele>890</ele>
        <time>2009-06-01T17:03:38Z</time>
      </trkpt>
      <trkpt lat="48.50858" lon="7.16138">
        <ele>888</ele>
        <time>2009-06-01T17:03:25Z</time>
      </trkpt>
      <trkpt lat="48.50851" lon="7.16121">
        <ele>886</ele>
        <time>2009-06-01T17:03:11Z</time>
      </trkpt>
      <trkpt lat="48.50848" lon="7.16092">
        <ele>885</ele>
        <time>2009-06-01T17:02:54Z</time>
      </trkpt>
      <trkpt lat="48.5085" lon="7.16082">
        <ele>885</ele>
        <time>2009-06-01T17:02:48Z</time>
      </trkpt>
      <trkpt lat="48.50853" lon="7.16051">
        <ele>884</ele>
        <time>2009-06-01T17:02:31Z</time>
      </trkpt>
      <trkpt lat="48.50855" lon="7.16046">
        <ele>884</ele>
        <time>2009-06-01T17:02:28Z</time>
      </trkpt>
      <trkpt lat="48.50855" lon="7.16039">
        <ele>885</ele>
        <time>2009-06-01T17:02:24Z</time>
      </trkpt>
      <trkpt lat="48.50856" lon="7.16028">
        <ele>884</ele>
        <time>2009-06-01T17:02:12Z</time>
      </trkpt>
      <trkpt lat="48.50856" lon="7.16022">
        <ele>884</ele>
        <time>2009-06-01T17:01:59Z</time>
      </trkpt>
      <trkpt lat="48.5085" lon="7.16">
        <ele>881</ele>
        <time>2009-06-01T17:01:43Z</time>
      </trkpt>
      <trkpt lat="48.5085" lon="7.15994">
        <ele>880</ele>
        <time>2009-06-01T17:01:39Z</time>
      </trkpt>
      <trkpt lat="48.5085" lon="7.15968">
        <ele>878</ele>
        <time>2009-06-01T17:01:22Z</time>
      </trkpt>
      <trkpt lat="48.50853" lon="7.15956">
        <ele>876</ele>
        <time>2009-06-01T17:01:14Z</time>
      </trkpt>
      <trkpt lat="48.50859" lon="7.15931">
        <ele>875</ele>
        <time>2009-06-01T17:00:56Z</time>
      </trkpt>
      <trkpt lat="48.50866" lon="7.15915">
        <ele>873</ele>
        <time>2009-06-01T17:00:42Z</time>
      </trkpt>
      <trkpt lat="48.50869" lon="7.15898">
        <ele>871</ele>
        <time>2009-06-01T17:00:27Z</time>
      </trkpt>
      <trkpt lat="48.50871" lon="7.15894">
        <ele>871</ele>
        <time>2009-06-01T17:00:24Z</time>
      </trkpt>
      <trkpt lat="48.50877" lon="7.15876">
        <ele>870</ele>
        <time>2009-06-01T17:00:09Z</time>
      </trkpt>
      <trkpt lat="48.50882" lon="7.15867">
        <ele>869</ele>
        <time>2009-06-01T16:59:51Z</time>
      </trkpt>
      <trkpt lat="48.50888" lon="7.15851">
        <ele>867</ele>
        <time>2009-06-01T16:59:37Z</time>
      </trkpt>
      <trkpt lat="48.50898" lon="7.15834">
        <ele>864</ele>
        <time>2009-06-01T16:59:24Z</time>
      </trkpt>
      <trkpt lat="48.50904" lon="7.15826">
        <ele>864</ele>
        <time>2009-06-01T16:59:14Z</time>
      </trkpt>
      <trkpt lat="48.5091" lon="7.15813">
        <ele>861</ele>
        <time>2009-06-01T16:59:00Z</time>
      </trkpt>
      <trkpt lat="48.50918" lon="7.158">
        <ele>860</ele>
        <time>2009-06-01T16:58:43Z</time>
      </trkpt>
      <trkpt lat="48.50933" lon="7.15796">
        <ele>858</ele>
        <time>2009-06-01T16:58:30Z</time>
      </trkpt>
      <trkpt lat="48.50941" lon="7.15787">
        <ele>855</ele>
        <time>2009-06-01T16:58:16Z</time>
      </trkpt>
      <trkpt lat="48.50956" lon="7.1578">
        <ele>854</ele>
        <time>2009-06-01T16:58:01Z</time>
      </trkpt>
      <trkpt lat="48.50961" lon="7.15778">
        <ele>853</ele>
        <time>2009-06-01T16:57:55Z</time>
      </trkpt>
      <trkpt lat="48.50966" lon="7.15777">
        <ele>852</ele>
        <time>2009-06-01T16:57:46Z</time>
      </trkpt>
      <trkpt lat="48.50975" lon="7.15774">
        <ele>850</ele>
        <time>2009-06-01T16:57:35Z</time>
      </trkpt>
      <trkpt lat="48.50972" lon="7.15767">
        <ele>847</ele>
        <time>2009-06-01T16:57:17Z</time>
      </trkpt>
      <trkpt lat="48.50964" lon="7.15762">
        <ele>846</ele>
        <time>2009-06-01T16:57:05Z</time>
      </trkpt>
      <trkpt lat="48.50961" lon="7.15761">
        <ele>846</ele>
        <time>2009-06-01T16:57:03Z</time>
      </trkpt>
      <trkpt lat="48.50951" lon="7.15749">
        <ele>843</ele>
        <time>2009-06-01T16:56:50Z</time>
      </trkpt>
      <trkpt lat="48.5095" lon="7.15747">
        <ele>842</ele>
        <time>2009-06-01T16:56:47Z</time>
      </trkpt>
      <trkpt lat="48.50946" lon="7.15736">
        <ele>841</ele>
        <time>2009-06-01T16:56:35Z</time>
      </trkpt>
      <trkpt lat="48.50933" lon="7.15728">
        <ele>839</ele>
        <time>2009-06-01T16:56:21Z</time>
      </trkpt>
      <trkpt lat="48.50917" lon="7.15718">
        <ele>837</ele>
        <time>2009-06-01T16:56:07Z</time>
      </trkpt>
      <trkpt lat="48.50903" lon="7.15703">
        <ele>836</ele>
        <time>2009-06-01T16:55:52Z</time>
      </trkpt>
      <trkpt lat="48.50896" lon="7.15696">
        <ele>834</ele>
        <time>2009-06-01T16:55:40Z</time>
      </trkpt>
      <trkpt lat="48.50881" lon="7.15678">
        <ele>832</ele>
        <time>2009-06-01T16:55:25Z</time>
      </trkpt>
      <trkpt lat="48.50872" lon="7.15661">
        <ele>830</ele>
        <time>2009-06-01T16:55:09Z</time>
      </trkpt>
      <trkpt lat="48.50861" lon="7.1565">
        <ele>828</ele>
        <time>2009-06-01T16:54:55Z</time>
      </trkpt>
      <trkpt lat="48.50852" lon="7.15635">
        <ele>827</ele>
        <time>2009-06-01T16:54:40Z</time>
      </trkpt>
      <trkpt lat="48.50848" lon="7.15618">
        <ele>824</ele>
        <time>2009-06-01T16:54:27Z</time>
      </trkpt>
      <trkpt lat="48.50842" lon="7.15602">
        <ele>823</ele>
        <time>2009-06-01T16:54:15Z</time>
      </trkpt>
      <trkpt lat="48.50833" lon="7.15586">
        <ele>820</ele>
        <time>2009-06-01T16:54:00Z</time>
      </trkpt>
      <trkpt lat="48.50827" lon="7.15571">
        <ele>818</ele>
        <time>2009-06-01T16:53:46Z</time>
      </trkpt>
      <trkpt lat="48.50817" lon="7.15553">
        <ele>816</ele>
        <time>2009-06-01T16:53:29Z</time>
      </trkpt>
      <trkpt lat="48.5081" lon="7.15535">
        <ele>813</ele>
        <time>2009-06-01T16:53:14Z</time>
      </trkpt>
      <trkpt lat="48.50799" lon="7.15524">
        <ele>811</ele>
        <time>2009-06-01T16:53:00Z</time>
      </trkpt>
      <trkpt lat="48.50789" lon="7.15506">
        <ele>810</ele>
        <time>2009-06-01T16:52:46Z</time>
      </trkpt>
      <trkpt lat="48.50778" lon="7.15482">
        <ele>808</ele>
        <time>2009-06-01T16:52:29Z</time>
      </trkpt>
      <trkpt lat="48.50771" lon="7.1547">
        <ele>806</ele>
        <time>2009-06-01T16:52:15Z</time>
      </trkpt>
      <trkpt lat="48.50762" lon="7.15458">
        <ele>804</ele>
        <time>2009-06-01T16:52:03Z</time>
      </trkpt>
      <trkpt lat="48.5076" lon="7.15453">
        <ele>802</ele>
        <time>2009-06-01T16:51:59Z</time>
      </trkpt>
      <trkpt lat="48.50753" lon="7.15441">
        <ele>801</ele>
        <time>2009-06-01T16:51:46Z</time>
      </trkpt>
      <trkpt lat="48.50747" lon="7.15439">
        <ele>801</ele>
        <time>2009-06-01T16:51:26Z</time>
      </trkpt>
      <trkpt lat="48.50746" lon="7.15438">
        <ele>800</ele>
        <time>2009-06-01T16:51:00Z</time>
      </trkpt>
      <trkpt lat="48.50745" lon="7.1544">
        <ele>800</ele>
        <time>2009-06-01T16:50:40Z</time>
      </trkpt>
      <trkpt lat="48.50746" lon="7.15434">
        <ele>801</ele>
        <time>2009-06-01T16:50:14Z</time>
      </trkpt>
      <trkpt lat="48.50747" lon="7.15433">
        <ele>801</ele>
        <time>2009-06-01T16:50:07Z</time>
      </trkpt>
      <trkpt lat="48.50746" lon="7.15437">
        <ele>799</ele>
        <time>2009-06-01T16:49:57Z</time>
      </trkpt>
      <trkpt lat="48.50743" lon="7.15439">
        <ele>800</ele>
        <time>2009-06-01T16:49:33Z</time>
      </trkpt>
      <trkpt lat="48.50742" lon="7.15444">
        <ele>799</ele>
        <time>2009-06-01T16:49:05Z</time>
      </trkpt>
      <trkpt lat="48.50735" lon="7.1544">
        <ele>799</ele>
        <time>2009-06-01T16:48:51Z</time>
      </trkpt>
      <trkpt lat="48.50717" lon="7.15435">
        <ele>796</ele>
        <time>2009-06-01T16:48:39Z</time>
      </trkpt>
      <trkpt lat="48.50701" lon="7.15428">
        <ele>794</ele>
        <time>2009-06-01T16:48:27Z</time>
      </trkpt>
      <trkpt lat="48.50684" lon="7.15424">
        <ele>791</ele>
        <time>2009-06-01T16:48:13Z</time>
      </trkpt>
      <trkpt lat="48.5067" lon="7.15408">
        <ele>788</ele>
        <time>2009-06-01T16:48:02Z</time>
      </trkpt>
      <trkpt lat="48.50661" lon="7.15385">
        <ele>786</ele>
        <time>2009-06-01T16:47:48Z</time>
      </trkpt>
      <trkpt lat="48.50648" lon="7.15359">
        <ele>785</ele>
        <time>2009-06-01T16:47:35Z</time>
      </trkpt>
      <trkpt lat="48.50639" lon="7.15327">
        <ele>783</ele>
        <time>2009-06-01T16:47:21Z</time>
      </trkpt>
      <trkpt lat="48.5064" lon="7.15296">
        <ele>782</ele>
        <time>2009-06-01T16:47:07Z</time>
      </trkpt>
      <trkpt lat="48.50646" lon="7.15284">
        <ele>781</ele>
        <time>2009-06-01T16:46:59Z</time>
      </trkpt>
      <trkpt lat="48.50648" lon="7.15281">
        <ele>781</ele>
        <time>2009-06-01T16:46:57Z</time>
      </trkpt>
      <trkpt lat="48.50658" lon="7.1525">
        <ele>778</ele>
        <time>2009-06-01T16:46:42Z</time>
      </trkpt>
      <trkpt lat="48.5067" lon="7.15218">
        <ele>777</ele>
        <time>2009-06-01T16:46:26Z</time>
      </trkpt>
      <trkpt lat="48.50682" lon="7.15186">
        <ele>776</ele>
        <time>2009-06-01T16:46:07Z</time>
      </trkpt>
      <trkpt lat="48.50695" lon="7.15163">
        <ele>774</ele>
        <time>2009-06-01T16:45:51Z</time>
      </trkpt>
      <trkpt lat="48.50711" lon="7.15149">
        <ele>771</ele>
        <time>2009-06-01T16:45:37Z</time>
      </trkpt>
      <trkpt lat="48.50723" lon="7.1514">
        <ele>768</ele>
        <time>2009-06-01T16:45:25Z</time>
      </trkpt>
      <trkpt lat="48.50726" lon="7.15139">
        <ele>767</ele>
        <time>2009-06-01T16:45:22Z</time>
      </trkpt>
      <trkpt lat="48.50745" lon="7.15131">
        <ele>765</ele>
        <time>2009-06-01T16:45:07Z</time>
      </trkpt>
      <trkpt lat="48.50752" lon="7.15129">
        <ele>764</ele>
        <time>2009-06-01T16:45:01Z</time>
      </trkpt>
      <trkpt lat="48.50762" lon="7.1511">
        <ele>762</ele>
        <time>2009-06-01T16:44:48Z</time>
      </trkpt>
      <trkpt lat="48.50763" lon="7.15104">
        <ele>761</ele>
        <time>2009-06-01T16:44:45Z</time>
      </trkpt>
      <trkpt lat="48.50774" lon="7.15078">
        <ele>759</ele>
        <time>2009-06-01T16:44:29Z</time>
      </trkpt>
      <trkpt lat="48.50786" lon="7.1505">
        <ele>756</ele>
        <time>2009-06-01T16:44:12Z</time>
      </trkpt>
      <trkpt lat="48.508" lon="7.15018">
        <ele>753</ele>
        <time>2009-06-01T16:43:53Z</time>
      </trkpt>
      <trkpt lat="48.50806" lon="7.1499">
        <ele>750</ele>
        <time>2009-06-01T16:43:39Z</time>
      </trkpt>
      <trkpt lat="48.50811" lon="7.14952">
        <ele>748</ele>
        <time>2009-06-01T16:43:19Z</time>
      </trkpt>
      <trkpt lat="48.50811" lon="7.1492">
        <ele>746</ele>
        <time>2009-06-01T16:43:02Z</time>
      </trkpt>
      <trkpt lat="48.5081" lon="7.14912">
        <ele>746</ele>
        <time>2009-06-01T16:42:58Z</time>
      </trkpt>
      <trkpt lat="48.5081" lon="7.14903">
        <ele>746</ele>
        <time>2009-06-01T16:42:54Z</time>
      </trkpt>
      <trkpt lat="48.50808" lon="7.14891">
        <ele>745</ele>
        <time>2009-06-01T16:42:48Z</time>
      </trkpt>
      <trkpt lat="48.50805" lon="7.14861">
        <ele>744</ele>
        <time>2009-06-01T16:42:33Z</time>
      </trkpt>
      <trkpt lat="48.50799" lon="7.14828">
        <ele>743</ele>
        <time>2009-06-01T16:42:17Z</time>
      </trkpt>
      <trkpt lat="48.50793" lon="7.14795">
        <ele>742</ele>
        <time>2009-06-01T16:42:01Z</time>
      </trkpt>
      <trkpt lat="48.50791" lon="7.14765">
        <ele>741</ele>
        <time>2009-06-01T16:41:46Z</time>
      </trkpt>
      <trkpt lat="48.50791" lon="7.14746">
        <ele>740</ele>
        <time>2009-06-01T16:41:36Z</time>
      </trkpt>
      <trkpt lat="48.5079" lon="7.14741">
        <ele>740</ele>
        <time>2009-06-01T16:41:33Z</time>
      </trkpt>
      <trkpt lat="48.50789" lon="7.14727">
        <ele>739</ele>
        <time>2009-06-01T16:41:24Z</time>
      </trkpt>
      <trkpt lat="48.50782" lon="7.14709">
        <ele>737</ele>
        <time>2009-06-01T16:41:10Z</time>
      </trkpt>
      <trkpt lat="48.50778" lon="7.14703">
        <ele>737</ele>
        <time>2009-06-01T16:41:06Z</time>
      </trkpt>
      <trkpt lat="48.5076" lon="7.14688">
        <ele>735</ele>
        <time>2009-06-01T16:40:50Z</time>
      </trkpt>
      <trkpt lat="48.50746" lon="7.14682">
        <ele>732</ele>
        <time>2009-06-01T16:40:35Z</time>
      </trkpt>
      <trkpt lat="48.5074" lon="7.14671">
        <ele>731</ele>
        <time>2009-06-01T16:40:21Z</time>
      </trkpt>
      <trkpt lat="48.50738" lon="7.1467">
        <ele>730</ele>
        <time>2009-06-01T16:40:18Z</time>
      </trkpt>
      <trkpt lat="48.50728" lon="7.14666">
        <ele>730</ele>
        <time>2009-06-01T16:39:49Z</time>
      </trkpt>
      <trkpt lat="48.50724" lon="7.14638">
        <ele>730</ele>
        <time>2009-06-01T16:39:29Z</time>
      </trkpt>
      <trkpt lat="48.50718" lon="7.14619">
        <ele>731</ele>
        <time>2009-06-01T16:39:18Z</time>
      </trkpt>
      <trkpt lat="48.50707" lon="7.14588">
        <ele>733</ele>
        <time>2009-06-01T16:39:00Z</time>
      </trkpt>
      <trkpt lat="48.50693" lon="7.14555">
        <ele>734</ele>
        <time>2009-06-01T16:38:40Z</time>
      </trkpt>
      <trkpt lat="48.50682" lon="7.14525">
        <ele>734</ele>
        <time>2009-06-01T16:38:23Z</time>
      </trkpt>
      <trkpt lat="48.50669" lon="7.14491">
        <ele>736</ele>
        <time>2009-06-01T16:38:06Z</time>
      </trkpt>
      <trkpt lat="48.50666" lon="7.14484">
        <ele>735</ele>
        <time>2009-06-01T16:38:00Z</time>
      </trkpt>
      <trkpt lat="48.50655" lon="7.14456">
        <ele>736</ele>
        <time>2009-06-01T16:37:44Z</time>
      </trkpt>
      <trkpt lat="48.50643" lon="7.14429">
        <ele>737</ele>
        <time>2009-06-01T16:37:28Z</time>
      </trkpt>
      <trkpt lat="48.50632" lon="7.14399">
        <ele>737</ele>
        <time>2009-06-01T16:37:10Z</time>
      </trkpt>
      <trkpt lat="48.50626" lon="7.14385">
        <ele>737</ele>
        <time>2009-06-01T16:37:02Z</time>
      </trkpt>
      <trkpt lat="48.5061" lon="7.14344">
        <ele>738</ele>
        <time>2009-06-01T16:36:39Z</time>
      </trkpt>
      <trkpt lat="48.50601" lon="7.14316">
        <ele>738</ele>
        <time>2009-06-01T16:36:25Z</time>
      </trkpt>
      <trkpt lat="48.50592" lon="7.14294">
        <ele>738</ele>
        <time>2009-06-01T16:36:10Z</time>
      </trkpt>
      <trkpt lat="48.50581" lon="7.14264">
        <ele>737</ele>
        <time>2009-06-01T16:35:51Z</time>
      </trkpt>
      <trkpt lat="48.50577" lon="7.14257">
        <ele>737</ele>
        <time>2009-06-01T16:35:28Z</time>
      </trkpt>
      <trkpt lat="48.50565" lon="7.14227">
        <ele>737</ele>
        <time>2009-06-01T16:35:09Z</time>
      </trkpt>
      <trkpt lat="48.5055" lon="7.14188">
        <ele>738</ele>
        <time>2009-06-01T16:34:49Z</time>
      </trkpt>
      <trkpt lat="48.50541" lon="7.14154">
        <ele>737</ele>
        <time>2009-06-01T16:34:33Z</time>
      </trkpt>
      <trkpt lat="48.50536" lon="7.14119">
        <ele>737</ele>
        <time>2009-06-01T16:34:17Z</time>
      </trkpt>
      <trkpt lat="48.50538" lon="7.14084">
        <ele>736</ele>
        <time>2009-06-01T16:34:00Z</time>
      </trkpt>
      <trkpt lat="48.50538" lon="7.14071">
        <ele>736</ele>
        <time>2009-06-01T16:33:54Z</time>
      </trkpt>
      <trkpt lat="48.50537" lon="7.14054">
        <ele>736</ele>
        <time>2009-06-01T16:33:46Z</time>
      </trkpt>
      <trkpt lat="48.50532" lon="7.14047">
        <ele>736</ele>
        <time>2009-06-01T16:33:42Z</time>
      </trkpt>
      <trkpt lat="48.50534" lon="7.14025">
        <ele>738</ele>
        <time>2009-06-01T16:33:33Z</time>
      </trkpt>
      <trkpt lat="48.5053" lon="7.13991">
        <ele>739</ele>
        <time>2009-06-01T16:33:17Z</time>
      </trkpt>
      <trkpt lat="48.5053" lon="7.13981">
        <ele>739</ele>
        <time>2009-06-01T16:33:12Z</time>
      </trkpt>
      <trkpt lat="48.50531" lon="7.13949">
        <ele>740</ele>
        <time>2009-06-01T16:32:56Z</time>
      </trkpt>
      <trkpt lat="48.50532" lon="7.13943">
        <ele>740</ele>
        <time>2009-06-01T16:32:53Z</time>
      </trkpt>
      <trkpt lat="48.50531" lon="7.13918">
        <ele>740</ele>
        <time>2009-06-01T16:32:42Z</time>
      </trkpt>
      <trkpt lat="48.50531" lon="7.13892">
        <ele>741</ele>
        <time>2009-06-01T16:32:29Z</time>
      </trkpt>
      <trkpt lat="48.5053" lon="7.13881">
        <ele>741</ele>
        <time>2009-06-01T16:32:24Z</time>
      </trkpt>
      <trkpt lat="48.50526" lon="7.13867">
        <ele>741</ele>
        <time>2009-06-01T16:32:17Z</time>
      </trkpt>
      <trkpt lat="48.50525" lon="7.13857">
        <ele>741</ele>
        <time>2009-06-01T16:32:12Z</time>
      </trkpt>
      <trkpt lat="48.50524" lon="7.13838">
        <ele>741</ele>
        <time>2009-06-01T16:32:02Z</time>
      </trkpt>
      <trkpt lat="48.50515" lon="7.13808">
        <ele>742</ele>
        <time>2009-06-01T16:31:47Z</time>
      </trkpt>
      <trkpt lat="48.50505" lon="7.13783">
        <ele>742</ele>
        <time>2009-06-01T16:31:33Z</time>
      </trkpt>
      <trkpt lat="48.50508" lon="7.13749">
        <ele>742</ele>
        <time>2009-06-01T16:31:18Z</time>
      </trkpt>
      <trkpt lat="48.50506" lon="7.13728">
        <ele>743</ele>
        <time>2009-06-01T16:31:06Z</time>
      </trkpt>
      <trkpt lat="48.50504" lon="7.13712">
        <ele>743</ele>
        <time>2009-06-01T16:30:59Z</time>
      </trkpt>
      <trkpt lat="48.50503" lon="7.13708">
        <ele>743</ele>
        <time>2009-06-01T16:30:57Z</time>
      </trkpt>
      <trkpt lat="48.50495" lon="7.13677">
        <ele>743</ele>
        <time>2009-06-01T16:30:43Z</time>
      </trkpt>
      <trkpt lat="48.50495" lon="7.13674">
        <ele>743</ele>
        <time>2009-06-01T16:30:42Z</time>
      </trkpt>
      <trkpt lat="48.50484" lon="7.13649">
        <ele>743</ele>
        <time>2009-06-01T16:30:29Z</time>
      </trkpt>
      <trkpt lat="48.50476" lon="7.1362">
        <ele>743</ele>
        <time>2009-06-01T16:30:13Z</time>
      </trkpt>
      <trkpt lat="48.50469" lon="7.13593">
        <ele>744</ele>
        <time>2009-06-01T16:30:00Z</time>
      </trkpt>
      <trkpt lat="48.50461" lon="7.13576">
        <ele>744</ele>
        <time>2009-06-01T16:29:50Z</time>
      </trkpt>
      <trkpt lat="48.50453" lon="7.13559">
        <ele>744</ele>
        <time>2009-06-01T16:29:39Z</time>
      </trkpt>
      <trkpt lat="48.50451" lon="7.13553">
        <ele>744</ele>
        <time>2009-06-01T16:29:36Z</time>
      </trkpt>
      <trkpt lat="48.50445" lon="7.13546">
        <ele>743</ele>
        <time>2009-06-01T16:29:32Z</time>
      </trkpt>
      <trkpt lat="48.50439" lon="7.13539">
        <ele>745</ele>
        <time>2009-06-01T16:29:28Z</time>
      </trkpt>
      <trkpt lat="48.50423" lon="7.13524">
        <ele>744</ele>
        <time>2009-06-01T16:29:15Z</time>
      </trkpt>
      <trkpt lat="48.50401" lon="7.13517">
        <ele>745</ele>
        <time>2009-06-01T16:29:02Z</time>
      </trkpt>
      <trkpt lat="48.5038" lon="7.13514">
        <ele>746</ele>
        <time>2009-06-01T16:28:48Z</time>
      </trkpt>
      <trkpt lat="48.50352" lon="7.13519">
        <ele>746</ele>
        <time>2009-06-01T16:28:30Z</time>
      </trkpt>
      <trkpt lat="48.50345" lon="7.1352">
        <ele>746</ele>
        <time>2009-06-01T16:28:22Z</time>
      </trkpt>
      <trkpt lat="48.50329" lon="7.13518">
        <ele>747</ele>
        <time>2009-06-01T16:28:08Z</time>
      </trkpt>
      <trkpt lat="48.50306" lon="7.1352">
        <ele>747</ele>
        <time>2009-06-01T16:27:54Z</time>
      </trkpt>
      <trkpt lat="48.50289" lon="7.13516">
        <ele>747</ele>
        <time>2009-06-01T16:27:40Z</time>
      </trkpt>
      <trkpt lat="48.50268" lon="7.13513">
        <ele>748</ele>
        <time>2009-06-01T16:27:23Z</time>
      </trkpt>
      <trkpt lat="48.50245" lon="7.13508">
        <ele>748</ele>
        <time>2009-06-01T16:27:11Z</time>
      </trkpt>
      <trkpt lat="48.50243" lon="7.13508">
        <ele>752</ele>
        <time>2009-06-01T16:27:10Z</time>
      </trkpt>
      <trkpt lat="48.50242" lon="7.13508">
        <ele>748</ele>
        <time>2009-06-01T16:27:09Z</time>
      </trkpt>
      <trkpt lat="48.50241" lon="7.13508">
        <ele>744</ele>
        <time>2009-06-01T16:27:08Z</time>
      </trkpt>
      <trkpt lat="48.5024" lon="7.13507">
        <ele>751</ele>
        <time>2009-06-01T16:27:07Z</time>
      </trkpt>
      <trkpt lat="48.50237" lon="7.13507">
        <ele>746</ele>
        <time>2009-06-01T16:27:05Z</time>
      </trkpt>
      <trkpt lat="48.50216" lon="7.13507">
        <ele>749</ele>
        <time>2009-06-01T16:26:50Z</time>
      </trkpt>
      <trkpt lat="48.50195" lon="7.13505">
        <ele>749</ele>
        <time>2009-06-01T16:26:34Z</time>
      </trkpt>
      <trkpt lat="48.50177" lon="7.13506">
        <ele>749</ele>
        <time>2009-06-01T16:26:20Z</time>
      </trkpt>
      <trkpt lat="48.50158" lon="7.13508">
        <ele>749</ele>
        <time>2009-06-01T16:26:06Z</time>
      </trkpt>
      <trkpt lat="48.50136" lon="7.13507">
        <ele>749</ele>
        <time>2009-06-01T16:25:51Z</time>
      </trkpt>
      <trkpt lat="48.50116" lon="7.13511">
        <ele>750</ele>
        <time>2009-06-01T16:25:38Z</time>
      </trkpt>
      <trkpt lat="48.50096" lon="7.13515">
        <ele>750</ele>
        <time>2009-06-01T16:25:25Z</time>
      </trkpt>
      <trkpt lat="48.50082" lon="7.13508">
        <ele>750</ele>
        <time>2009-06-01T16:25:11Z</time>
      </trkpt>
      <trkpt lat="48.50063" lon="7.1351">
        <ele>750</ele>
        <time>2009-06-01T16:24:57Z</time>
      </trkpt>
      <trkpt lat="48.50043" lon="7.13514">
        <ele>750</ele>
        <time>2009-06-01T16:24:44Z</time>
      </trkpt>
      <trkpt lat="48.50024" lon="7.13518">
        <ele>752</ele>
        <time>2009-06-01T16:24:29Z</time>
      </trkpt>
      <trkpt lat="48.50005" lon="7.13524">
        <ele>752</ele>
        <time>2009-06-01T16:24:15Z</time>
      </trkpt>
      <trkpt lat="48.49986" lon="7.13532">
        <ele>752</ele>
        <time>2009-06-01T16:23:59Z</time>
      </trkpt>
      <trkpt lat="48.49963" lon="7.13545">
        <ele>753</ele>
        <time>2009-06-01T16:23:40Z</time>
      </trkpt>
      <trkpt lat="48.49939" lon="7.13554">
        <ele>753</ele>
        <time>2009-06-01T16:23:25Z</time>
      </trkpt>
      <trkpt lat="48.49918" lon="7.13564">
        <ele>753</ele>
        <time>2009-06-01T16:23:10Z</time>
      </trkpt>
      <trkpt lat="48.49898" lon="7.13571">
        <ele>753</ele>
        <time>2009-06-01T16:22:56Z</time>
      </trkpt>
      <trkpt lat="48.49877" lon="7.13582">
        <ele>753</ele>
        <time>2009-06-01T16:22:43Z</time>
      </trkpt>
      <trkpt lat="48.49855" lon="7.13594">
        <ele>753</ele>
        <time>2009-06-01T16:22:27Z</time>
      </trkpt>
      <trkpt lat="48.49835" lon="7.13598">
        <ele>753</ele>
        <time>2009-06-01T16:22:13Z</time>
      </trkpt>
      <trkpt lat="48.49826" lon="7.13602">
        <ele>754</ele>
        <time>2009-06-01T16:22:04Z</time>
      </trkpt>
      <trkpt lat="48.49818" lon="7.13607">
        <ele>754</ele>
        <time>2009-06-01T16:21:59Z</time>
      </trkpt>
      <trkpt lat="48.49809" lon="7.13612">
        <ele>754</ele>
        <time>2009-06-01T16:21:52Z</time>
      </trkpt>
      <trkpt lat="48.49788" lon="7.13606">
        <ele>754</ele>
        <time>2009-06-01T16:21:38Z</time>
      </trkpt>
      <trkpt lat="48.49767" lon="7.13597">
        <ele>755</ele>
        <time>2009-06-01T16:21:23Z</time>
      </trkpt>
      <trkpt lat="48.49764" lon="7.13595">
        <ele>754</ele>
        <time>2009-06-01T16:21:21Z</time>
      </trkpt>
      <trkpt lat="48.49761" lon="7.13593">
        <ele>754</ele>
        <time>2009-06-01T16:21:19Z</time>
      </trkpt>
      <trkpt lat="48.4976" lon="7.13592">
        <ele>758</ele>
        <time>2009-06-01T16:21:18Z</time>
      </trkpt>
      <trkpt lat="48.49756" lon="7.13588">
        <ele>751</ele>
        <time>2009-06-01T16:21:14Z</time>
      </trkpt>
      <trkpt lat="48.4974" lon="7.13573">
        <ele>754</ele>
        <time>2009-06-01T16:21:03Z</time>
      </trkpt>
      <trkpt lat="48.49725" lon="7.13552">
        <ele>755</ele>
        <time>2009-06-01T16:20:48Z</time>
      </trkpt>
      <trkpt lat="48.49705" lon="7.13532">
        <ele>755</ele>
        <time>2009-06-01T16:20:33Z</time>
      </trkpt>
      <trkpt lat="48.49682" lon="7.13513">
        <ele>755</ele>
        <time>2009-06-01T16:20:16Z</time>
      </trkpt>
      <trkpt lat="48.49673" lon="7.135">
        <ele>755</ele>
        <time>2009-06-01T16:20:05Z</time>
      </trkpt>
      <trkpt lat="48.49656" lon="7.1348">
        <ele>756</ele>
        <time>2009-06-01T16:19:49Z</time>
      </trkpt>
      <trkpt lat="48.49641" lon="7.13463">
        <ele>755</ele>
        <time>2009-06-01T16:19:35Z</time>
      </trkpt>
      <trkpt lat="48.49624" lon="7.13446">
        <ele>756</ele>
        <time>2009-06-01T16:19:17Z</time>
      </trkpt>
      <trkpt lat="48.4961" lon="7.13425">
        <ele>756</ele>
        <time>2009-06-01T16:19:03Z</time>
      </trkpt>
      <trkpt lat="48.49589" lon="7.13411">
        <ele>757</ele>
        <time>2009-06-01T16:18:46Z</time>
      </trkpt>
      <trkpt lat="48.49572" lon="7.13393">
        <ele>758</ele>
        <time>2009-06-01T16:18:33Z</time>
      </trkpt>
      <trkpt lat="48.4957" lon="7.13389">
        <ele>758</ele>
        <time>2009-06-01T16:18:31Z</time>
      </trkpt>
      <trkpt lat="48.49551" lon="7.13375">
        <ele>757</ele>
        <time>2009-06-01T16:18:15Z</time>
      </trkpt>
      <trkpt lat="48.49539" lon="7.13355">
        <ele>758</ele>
        <time>2009-06-01T16:18:00Z</time>
      </trkpt>
      <trkpt lat="48.4953" lon="7.13338">
        <ele>758</ele>
        <time>2009-06-01T16:17:49Z</time>
      </trkpt>
      <trkpt lat="48.49515" lon="7.13326">
        <ele>758</ele>
        <time>2009-06-01T16:17:37Z</time>
      </trkpt>
      <trkpt lat="48.49508" lon="7.13322">
        <ele>759</ele>
        <time>2009-06-01T16:17:30Z</time>
      </trkpt>
      <trkpt lat="48.49495" lon="7.13311">
        <ele>758</ele>
        <time>2009-06-01T16:17:17Z</time>
      </trkpt>
      <trkpt lat="48.49485" lon="7.13294">
        <ele>759</ele>
        <time>2009-06-01T16:17:04Z</time>
      </trkpt>
      <trkpt lat="48.49466" lon="7.13275">
        <ele>760</ele>
        <time>2009-06-01T16:16:50Z</time>
      </trkpt>
      <trkpt lat="48.49462" lon="7.13264">
        <ele>760</ele>
        <time>2009-06-01T16:16:43Z</time>
      </trkpt>
      <trkpt lat="48.49444" lon="7.13255">
        <ele>760</ele>
        <time>2009-06-01T16:16:30Z</time>
      </trkpt>
      <trkpt lat="48.4944" lon="7.13249">
        <ele>760</ele>
        <time>2009-06-01T16:16:26Z</time>
      </trkpt>
      <trkpt lat="48.4943" lon="7.1324">
        <ele>760</ele>
        <time>2009-06-01T16:16:16Z</time>
      </trkpt>
      <trkpt lat="48.49422" lon="7.13227">
        <ele>760</ele>
        <time>2009-06-01T16:16:04Z</time>
      </trkpt>
      <trkpt lat="48.49398" lon="7.13218">
        <ele>762</ele>
        <time>2009-06-01T16:15:50Z</time>
      </trkpt>
      <trkpt lat="48.49397" lon="7.13218">
        <ele>759</ele>
        <time>2009-06-01T16:15:49Z</time>
      </trkpt>
      <trkpt lat="48.49403" lon="7.1321">
        <ele>759</ele>
        <time>2009-06-01T16:15:30Z</time>
      </trkpt>
      <trkpt lat="48.4939" lon="7.13199">
        <ele>760</ele>
        <time>2009-06-01T16:15:16Z</time>
      </trkpt>
      <trkpt lat="48.49378" lon="7.13183">
        <ele>760</ele>
        <time>2009-06-01T16:15:03Z</time>
      </trkpt>
      <trkpt lat="48.49361" lon="7.13167">
        <ele>759</ele>
        <time>2009-06-01T16:14:49Z</time>
      </trkpt>
      <trkpt lat="48.49353" lon="7.13166">
        <ele>759</ele>
        <time>2009-06-01T16:14:44Z</time>
      </trkpt>
      <trkpt lat="48.49347" lon="7.1315">
        <ele>758</ele>
        <time>2009-06-01T16:14:30Z</time>
      </trkpt>
      <trkpt lat="48.49346" lon="7.13149">
        <ele>762</ele>
        <time>2009-06-01T16:14:29Z</time>
      </trkpt>
      <trkpt lat="48.49344" lon="7.13143">
        <ele>758</ele>
        <time>2009-06-01T16:14:26Z</time>
      </trkpt>
      <trkpt lat="48.49344" lon="7.13127">
        <ele>760</ele>
        <time>2009-06-01T16:14:15Z</time>
      </trkpt>
      <trkpt lat="48.49335" lon="7.13103">
        <ele>760</ele>
        <time>2009-06-01T16:14:02Z</time>
      </trkpt>
      <trkpt lat="48.4933" lon="7.13075">
        <ele>760</ele>
        <time>2009-06-01T16:13:48Z</time>
      </trkpt>
      <trkpt lat="48.49321" lon="7.13055">
        <ele>760</ele>
        <time>2009-06-01T16:13:37Z</time>
      </trkpt>
      <trkpt lat="48.49308" lon="7.13034">
        <ele>761</ele>
        <time>2009-06-01T16:13:22Z</time>
      </trkpt>
      <trkpt lat="48.49303" lon="7.13025">
        <ele>761</ele>
        <time>2009-06-01T16:13:17Z</time>
      </trkpt>
      <trkpt lat="48.49294" lon="7.13014">
        <ele>762</ele>
        <time>2009-06-01T16:13:09Z</time>
      </trkpt>
      <trkpt lat="48.49277" lon="7.12999">
        <ele>763</ele>
        <time>2009-06-01T16:12:55Z</time>
      </trkpt>
      <trkpt lat="48.49255" lon="7.12977">
        <ele>764</ele>
        <time>2009-06-01T16:12:40Z</time>
      </trkpt>
      <trkpt lat="48.49251" lon="7.12973">
        <ele>764</ele>
        <time>2009-06-01T16:12:36Z</time>
      </trkpt>
      <trkpt lat="48.49244" lon="7.12961">
        <ele>765</ele>
        <time>2009-06-01T16:12:24Z</time>
      </trkpt>
      <trkpt lat="48.49223" lon="7.12943">
        <ele>766</ele>
        <time>2009-06-01T16:12:09Z</time>
      </trkpt>
      <trkpt lat="48.49209" lon="7.1293">
        <ele>768</ele>
        <time>2009-06-01T16:11:57Z</time>
      </trkpt>
      <trkpt lat="48.49197" lon="7.12917">
        <ele>770</ele>
        <time>2009-06-01T16:11:45Z</time>
      </trkpt>
      <trkpt lat="48.49196" lon="7.12916">
        <ele>770</ele>
        <time>2009-06-01T16:11:44Z</time>
      </trkpt>
      <trkpt lat="48.49182" lon="7.12914">
        <ele>772</ele>
        <time>2009-06-01T16:11:31Z</time>
      </trkpt>
      <trkpt lat="48.49169" lon="7.12912">
        <ele>773</ele>
        <time>2009-06-01T16:11:17Z</time>
      </trkpt>
      <trkpt lat="48.49148" lon="7.12911">
        <ele>775</ele>
        <time>2009-06-01T16:11:01Z</time>
      </trkpt>
      <trkpt lat="48.49146" lon="7.1291">
        <ele>776</ele>
        <time>2009-06-01T16:10:59Z</time>
      </trkpt>
      <trkpt lat="48.49125" lon="7.12908">
        <ele>778</ele>
        <time>2009-06-01T16:10:45Z</time>
      </trkpt>
      <trkpt lat="48.4911" lon="7.12903">
        <ele>780</ele>
        <time>2009-06-01T16:10:32Z</time>
      </trkpt>
      <trkpt lat="48.49093" lon="7.12889">
        <ele>783</ele>
        <time>2009-06-01T16:10:18Z</time>
      </trkpt>
      <trkpt lat="48.49075" lon="7.12871">
        <ele>785</ele>
        <time>2009-06-01T16:10:01Z</time>
      </trkpt>
      <trkpt lat="48.4906" lon="7.12856">
        <ele>787</ele>
        <time>2009-06-01T16:09:47Z</time>
      </trkpt>
      <trkpt lat="48.49044" lon="7.12836">
        <ele>789</ele>
        <time>2009-06-01T16:09:32Z</time>
      </trkpt>
      <trkpt lat="48.49032" lon="7.12828">
        <ele>790</ele>
        <time>2009-06-01T16:09:22Z</time>
      </trkpt>
      <trkpt lat="48.49019" lon="7.12807">
        <ele>792</ele>
        <time>2009-06-01T16:09:07Z</time>
      </trkpt>
      <trkpt lat="48.49005" lon="7.12781">
        <ele>794</ele>
        <time>2009-06-01T16:08:50Z</time>
      </trkpt>
      <trkpt lat="48.48993" lon="7.12761">
        <ele>796</ele>
        <time>2009-06-01T16:08:37Z</time>
      </trkpt>
      <trkpt lat="48.48988" lon="7.12755">
        <ele>798</ele>
        <time>2009-06-01T16:08:32Z</time>
      </trkpt>
      <trkpt lat="48.48984" lon="7.12747">
        <ele>797</ele>
        <time>2009-06-01T16:08:27Z</time>
      </trkpt>
      <trkpt lat="48.48977" lon="7.12728">
        <ele>799</ele>
        <time>2009-06-01T16:08:15Z</time>
      </trkpt>
      <trkpt lat="48.48971" lon="7.12709">
        <ele>801</ele>
        <time>2009-06-01T16:08:03Z</time>
      </trkpt>
      <trkpt lat="48.48961" lon="7.12689">
        <ele>803</ele>
        <time>2009-06-01T16:07:51Z</time>
      </trkpt>
      <trkpt lat="48.48947" lon="7.12668">
        <ele>805</ele>
        <time>2009-06-01T16:07:35Z</time>
      </trkpt>
      <trkpt lat="48.48933" lon="7.12649">
        <ele>808</ele>
        <time>2009-06-01T16:07:20Z</time>
      </trkpt>
      <trkpt lat="48.48917" lon="7.12635">
        <ele>811</ele>
        <time>2009-06-01T16:07:06Z</time>
      </trkpt>
      <trkpt lat="48.48901" lon="7.1263">
        <ele>813</ele>
        <time>2009-06-01T16:06:55Z</time>
      </trkpt>
      <trkpt lat="48.48886" lon="7.12622">
        <ele>816</ele>
        <time>2009-06-01T16:06:41Z</time>
      </trkpt>
      <trkpt lat="48.48879" lon="7.12617">
        <ele>817</ele>
        <time>2009-06-01T16:06:34Z</time>
      </trkpt>
      <trkpt lat="48.4887" lon="7.12612">
        <ele>817</ele>
        <time>2009-06-01T16:06:26Z</time>
      </trkpt>
      <trkpt lat="48.48854" lon="7.12591">
        <ele>816</ele>
        <time>2009-06-01T16:06:11Z</time>
      </trkpt>
      <trkpt lat="48.48836" lon="7.12572">
        <ele>816</ele>
        <time>2009-06-01T16:05:56Z</time>
      </trkpt>
      <trkpt lat="48.48833" lon="7.12568">
        <ele>815</ele>
        <time>2009-06-01T16:05:53Z</time>
      </trkpt>
      <trkpt lat="48.48822" lon="7.1257">
        <ele>816</ele>
        <time>2009-06-01T16:05:38Z</time>
      </trkpt>
      <trkpt lat="48.4883" lon="7.12553">
        <ele>816</ele>
        <time>2009-06-01T16:04:39Z</time>
      </trkpt>
      <trkpt lat="48.48823" lon="7.12536">
        <ele>816</ele>
        <time>2009-06-01T16:04:23Z</time>
      </trkpt>
      <trkpt lat="48.48822" lon="7.12535">
        <ele>816</ele>
        <time>2009-06-01T16:04:22Z</time>
      </trkpt>
      <trkpt lat="48.48808" lon="7.12526">
        <ele>818</ele>
        <time>2009-06-01T16:04:10Z</time>
      </trkpt>
      <trkpt lat="48.48788" lon="7.1252">
        <ele>818</ele>
        <time>2009-06-01T16:03:55Z</time>
      </trkpt>
      <trkpt lat="48.48785" lon="7.12517">
        <ele>820</ele>
        <time>2009-06-01T16:03:51Z</time>
      </trkpt>
      <trkpt lat="48.4877" lon="7.12514">
        <ele>820</ele>
        <time>2009-06-01T16:03:39Z</time>
      </trkpt>
      <trkpt lat="48.48753" lon="7.12515">
        <ele>821</ele>
        <time>2009-06-01T16:03:24Z</time>
      </trkpt>
      <trkpt lat="48.48737" lon="7.12516">
        <ele>823</ele>
        <time>2009-06-01T16:03:12Z</time>
      </trkpt>
      <trkpt lat="48.48723" lon="7.12514">
        <ele>826</ele>
        <time>2009-06-01T16:03:01Z</time>
      </trkpt>
      <trkpt lat="48.48712" lon="7.12512">
        <ele>827</ele>
        <time>2009-06-01T16:02:50Z</time>
      </trkpt>
      <trkpt lat="48.48696" lon="7.12509">
        <ele>827</ele>
        <time>2009-06-01T16:02:40Z</time>
      </trkpt>
      <trkpt lat="48.48684" lon="7.12497">
        <ele>829</ele>
        <time>2009-06-01T16:02:28Z</time>
      </trkpt>
      <trkpt lat="48.4868" lon="7.12492">
        <ele>829</ele>
        <time>2009-06-01T16:02:23Z</time>
      </trkpt>
      <trkpt lat="48.48678" lon="7.12492">
        <ele>829</ele>
        <time>2009-06-01T16:02:22Z</time>
      </trkpt>
      <trkpt lat="48.48657" lon="7.12489">
        <ele>831</ele>
        <time>2009-06-01T16:02:07Z</time>
      </trkpt>
      <trkpt lat="48.48643" lon="7.12485">
        <ele>832</ele>
        <time>2009-06-01T16:01:55Z</time>
      </trkpt>
      <trkpt lat="48.4864" lon="7.12487">
        <ele>833</ele>
        <time>2009-06-01T16:01:53Z</time>
      </trkpt>
      <trkpt lat="48.48634" lon="7.1249">
        <ele>833</ele>
        <time>2009-06-01T16:01:40Z</time>
      </trkpt>
      <trkpt lat="48.48631" lon="7.12499">
        <ele>833</ele>
        <time>2009-06-01T16:01:28Z</time>
      </trkpt>
      <trkpt lat="48.48615" lon="7.12519">
        <ele>834</ele>
        <time>2009-06-01T16:01:14Z</time>
      </trkpt>
      <trkpt lat="48.48587" lon="7.1253">
        <ele>836</ele>
        <time>2009-06-01T16:01:03Z</time>
      </trkpt>
      <trkpt lat="48.48579" lon="7.12529">
        <ele>837</ele>
        <time>2009-06-01T16:00:57Z</time>
      </trkpt>
      <trkpt lat="48.48561" lon="7.12524">
        <ele>838</ele>
        <time>2009-06-01T16:00:42Z</time>
      </trkpt>
      <trkpt lat="48.48558" lon="7.12524">
        <ele>838</ele>
        <time>2009-06-01T16:00:40Z</time>
      </trkpt>
      <trkpt lat="48.48557" lon="7.12524">
        <ele>838</ele>
        <time>2009-06-01T16:00:39Z</time>
      </trkpt>
      <trkpt lat="48.48543" lon="7.1251">
        <ele>838</ele>
        <time>2009-06-01T16:00:24Z</time>
      </trkpt>
      <trkpt lat="48.48541" lon="7.12508">
        <ele>838</ele>
        <time>2009-06-01T16:00:22Z</time>
      </trkpt>
      <trkpt lat="48.48527" lon="7.12488">
        <ele>838</ele>
        <time>2009-06-01T16:00:10Z</time>
      </trkpt>
      <trkpt lat="48.48516" lon="7.12487">
        <ele>840</ele>
        <time>2009-06-01T15:59:28Z</time>
      </trkpt>
      <trkpt lat="48.48498" lon="7.12483">
        <ele>840</ele>
        <time>2009-06-01T15:59:13Z</time>
      </trkpt>
      <trkpt lat="48.48477" lon="7.1248">
        <ele>841</ele>
        <time>2009-06-01T15:58:58Z</time>
      </trkpt>
      <trkpt lat="48.48466" lon="7.12476">
        <ele>840</ele>
        <time>2009-06-01T15:58:49Z</time>
      </trkpt>
      <trkpt lat="48.48464" lon="7.12475">
        <ele>840</ele>
        <time>2009-06-01T15:58:48Z</time>
      </trkpt>
      <trkpt lat="48.48449" lon="7.12463">
        <ele>838</ele>
        <time>2009-06-01T15:58:35Z</time>
      </trkpt>
      <trkpt lat="48.48438" lon="7.12452">
        <ele>837</ele>
        <time>2009-06-01T15:58:25Z</time>
      </trkpt>
      <trkpt lat="48.48427" lon="7.12439">
        <ele>836</ele>
        <time>2009-06-01T15:58:14Z</time>
      </trkpt>
      <trkpt lat="48.48413" lon="7.12424">
        <ele>835</ele>
        <time>2009-06-01T15:58:00Z</time>
      </trkpt>
      <trkpt lat="48.48395" lon="7.12408">
        <ele>832</ele>
        <time>2009-06-01T15:57:44Z</time>
      </trkpt>
      <trkpt lat="48.4839" lon="7.12402">
        <ele>832</ele>
        <time>2009-06-01T15:57:39Z</time>
      </trkpt>
      <trkpt lat="48.48383" lon="7.12394">
        <ele>831</ele>
        <time>2009-06-01T15:57:32Z</time>
      </trkpt>
      <trkpt lat="48.48364" lon="7.12374">
        <ele>829</ele>
        <time>2009-06-01T15:57:15Z</time>
      </trkpt>
      <trkpt lat="48.48357" lon="7.12366">
        <ele>829</ele>
        <time>2009-06-01T15:57:08Z</time>
      </trkpt>
      <trkpt lat="48.48344" lon="7.12353">
        <ele>827</ele>
        <time>2009-06-01T15:56:56Z</time>
      </trkpt>
      <trkpt lat="48.48327" lon="7.1233">
        <ele>824</ele>
        <time>2009-06-01T15:56:40Z</time>
      </trkpt>
      <trkpt lat="48.48325" lon="7.12328">
        <ele>824</ele>
        <time>2009-06-01T15:56:38Z</time>
      </trkpt>
      <trkpt lat="48.48312" lon="7.12312">
        <ele>822</ele>
        <time>2009-06-01T15:56:25Z</time>
      </trkpt>
      <trkpt lat="48.48299" lon="7.12291">
        <ele>819</ele>
        <time>2009-06-01T15:56:24Z</time>
      </trkpt>
      <trkpt lat="48.48295" lon="7.12284">
        <ele>819</ele>
        <time>2009-06-01T15:56:05Z</time>
      </trkpt>
      <trkpt lat="48.48289" lon="7.12275">
        <ele>819</ele>
        <time>2009-06-01T15:55:58Z</time>
      </trkpt>
      <trkpt lat="48.48285" lon="7.12267">
        <ele>818</ele>
        <time>2009-06-01T15:55:53Z</time>
      </trkpt>
      <trkpt lat="48.48273" lon="7.12248">
        <ele>816</ele>
        <time>2009-06-01T15:55:39Z</time>
      </trkpt>
      <trkpt lat="48.48267" lon="7.12224">
        <ele>814</ele>
        <time>2009-06-01T15:55:26Z</time>
      </trkpt>
      <trkpt lat="48.48265" lon="7.12217">
        <ele>814</ele>
        <time>2009-06-01T15:55:22Z</time>
      </trkpt>
      <trkpt lat="48.48261" lon="7.12207">
        <ele>813</ele>
        <time>2009-06-01T15:55:16Z</time>
      </trkpt>
      <trkpt lat="48.48258" lon="7.12198">
        <ele>814</ele>
        <time>2009-06-01T15:55:11Z</time>
      </trkpt>
      <trkpt lat="48.48253" lon="7.12191">
        <ele>813</ele>
        <time>2009-06-01T15:55:06Z</time>
      </trkpt>
      <trkpt lat="48.48251" lon="7.12181">
        <ele>814</ele>
        <time>2009-06-01T15:55:00Z</time>
      </trkpt>
      <trkpt lat="48.48246" lon="7.12154">
        <ele>815</ele>
        <time>2009-06-01T15:54:46Z</time>
      </trkpt>
      <trkpt lat="48.48245" lon="7.12146">
        <ele>815</ele>
        <time>2009-06-01T15:54:42Z</time>
      </trkpt>
      <trkpt lat="48.48244" lon="7.12143">
        <ele>816</ele>
        <time>2009-06-01T15:54:40Z</time>
      </trkpt>
      <trkpt lat="48.48241" lon="7.12109">
        <ele>817</ele>
        <time>2009-06-01T15:54:25Z</time>
      </trkpt>
      <trkpt lat="48.48229" lon="7.12088">
        <ele>819</ele>
        <time>2009-06-01T15:54:12Z</time>
      </trkpt>
      <trkpt lat="48.48218" lon="7.12071">
        <ele>821</ele>
        <time>2009-06-01T15:54:00Z</time>
      </trkpt>
      <trkpt lat="48.48211" lon="7.1206">
        <ele>821</ele>
        <time>2009-06-01T15:53:53Z</time>
      </trkpt>
      <trkpt lat="48.48193" lon="7.12042">
        <ele>821</ele>
        <time>2009-06-01T15:53:38Z</time>
      </trkpt>
      <trkpt lat="48.48181" lon="7.12032">
        <ele>820</ele>
        <time>2009-06-01T15:53:27Z</time>
      </trkpt>
      <trkpt lat="48.48186" lon="7.12037">
        <ele>820</ele>
        <time>2009-06-01T15:52:50Z</time>
      </trkpt>
      <trkpt lat="48.48186" lon="7.12039">
        <ele>820</ele>
        <time>2009-06-01T15:52:23Z</time>
      </trkpt>
      <trkpt lat="48.48173" lon="7.12029">
        <ele>819</ele>
        <time>2009-06-01T15:52:08Z</time>
      </trkpt>
      <trkpt lat="48.48156" lon="7.12007">
        <ele>817</ele>
        <time>2009-06-01T15:51:51Z</time>
      </trkpt>
      <trkpt lat="48.48143" lon="7.11991">
        <ele>815</ele>
        <time>2009-06-01T15:51:38Z</time>
      </trkpt>
      <trkpt lat="48.48137" lon="7.11984">
        <ele>814</ele>
        <time>2009-06-01T15:51:30Z</time>
      </trkpt>
      <trkpt lat="48.48132" lon="7.11981">
        <ele>814</ele>
        <time>2009-06-01T15:51:26Z</time>
      </trkpt>
      <trkpt lat="48.4812" lon="7.11968">
        <ele>812</ele>
        <time>2009-06-01T15:51:12Z</time>
      </trkpt>
      <trkpt lat="48.48108" lon="7.11954">
        <ele>810</ele>
        <time>2009-06-01T15:50:59Z</time>
      </trkpt>
      <trkpt lat="48.48092" lon="7.11943">
        <ele>808</ele>
        <time>2009-06-01T15:50:45Z</time>
      </trkpt>
      <trkpt lat="48.48079" lon="7.11931">
        <ele>806</ele>
        <time>2009-06-01T15:50:32Z</time>
      </trkpt>
      <trkpt lat="48.4807" lon="7.11923">
        <ele>804</ele>
        <time>2009-06-01T15:50:20Z</time>
      </trkpt>
      <trkpt lat="48.48063" lon="7.11914">
        <ele>802</ele>
        <time>2009-06-01T15:50:12Z</time>
      </trkpt>
      <trkpt lat="48.48059" lon="7.11904">
        <ele>801</ele>
        <time>2009-06-01T15:50:04Z</time>
      </trkpt>
      <trkpt lat="48.48046" lon="7.11892">
        <ele>800</ele>
        <time>2009-06-01T15:49:52Z</time>
      </trkpt>
      <trkpt lat="48.48037" lon="7.11877">
        <ele>799</ele>
        <time>2009-06-01T15:49:41Z</time>
      </trkpt>
      <trkpt lat="48.48034" lon="7.11871">
        <ele>799</ele>
        <time>2009-06-01T15:49:37Z</time>
      </trkpt>
      <trkpt lat="48.48023" lon="7.11858">
        <ele>798</ele>
        <time>2009-06-01T15:49:26Z</time>
      </trkpt>
      <trkpt lat="48.48017" lon="7.11853">
        <ele>798</ele>
        <time>2009-06-01T15:49:20Z</time>
      </trkpt>
      <trkpt lat="48.48007" lon="7.11848">
        <ele>797</ele>
        <time>2009-06-01T15:49:11Z</time>
      </trkpt>
      <trkpt lat="48.48" lon="7.11844">
        <ele>796</ele>
        <time>2009-06-01T15:49:05Z</time>
      </trkpt>
      <trkpt lat="48.47999" lon="7.11843">
        <ele>796</ele>
        <time>2009-06-01T15:49:04Z</time>
      </trkpt>
      <trkpt lat="48.47984" lon="7.11828">
        <ele>796</ele>
        <time>2009-06-01T15:48:51Z</time>
      </trkpt>
      <trkpt lat="48.47977" lon="7.11818">
        <ele>796</ele>
        <time>2009-06-01T15:48:43Z</time>
      </trkpt>
      <trkpt lat="48.4797" lon="7.11811">
        <ele>795</ele>
        <time>2009-06-01T15:48:37Z</time>
      </trkpt>
      <trkpt lat="48.47961" lon="7.11795">
        <ele>794</ele>
        <time>2009-06-01T15:48:26Z</time>
      </trkpt>
      <trkpt lat="48.47955" lon="7.11781">
        <ele>793</ele>
        <time>2009-06-01T15:48:18Z</time>
      </trkpt>
      <trkpt lat="48.47951" lon="7.11768">
        <ele>794</ele>
        <time>2009-06-01T15:48:11Z</time>
      </trkpt>
      <trkpt lat="48.47942" lon="7.11763">
        <ele>794</ele>
        <time>2009-06-01T15:48:02Z</time>
      </trkpt>
      <trkpt lat="48.47929" lon="7.11742">
        <ele>793</ele>
        <time>2009-06-01T15:47:47Z</time>
      </trkpt>
      <trkpt lat="48.4791" lon="7.11726">
        <ele>791</ele>
        <time>2009-06-01T15:47:30Z</time>
      </trkpt>
      <trkpt lat="48.47887" lon="7.11718">
        <ele>790</ele>
        <time>2009-06-01T15:47:09Z</time>
      </trkpt>
      <trkpt lat="48.47887" lon="7.11716">
        <ele>791</ele>
        <time>2009-06-01T15:47:08Z</time>
      </trkpt>
      <trkpt lat="48.47887" lon="7.11703">
        <ele>789</ele>
        <time>2009-06-01T15:44:54Z</time>
      </trkpt>
      <trkpt lat="48.47884" lon="7.11709">
        <ele>789</ele>
        <time>2009-06-01T15:44:31Z</time>
      </trkpt>
      <trkpt lat="48.4788" lon="7.11709">
        <ele>789</ele>
        <time>2009-06-01T15:42:01Z</time>
      </trkpt>
      <trkpt lat="48.47883" lon="7.11714">
        <ele>786</ele>
        <time>2009-06-01T15:38:13Z</time>
      </trkpt>
      <trkpt lat="48.4788" lon="7.11708">
        <ele>785</ele>
        <time>2009-06-01T15:36:18Z</time>
      </trkpt>
      <trkpt lat="48.47884" lon="7.11706">
        <ele>785</ele>
        <time>2009-06-01T15:35:20Z</time>
      </trkpt>
      <trkpt lat="48.47884" lon="7.11708">
        <ele>784</ele>
        <time>2009-06-01T15:34:52Z</time>
      </trkpt>
      <trkpt lat="48.47883" lon="7.11709">
        <ele>784</ele>
        <time>2009-06-01T15:33:59Z</time>
      </trkpt>
      <trkpt lat="48.47884" lon="7.11709">
        <ele>784</ele>
        <time>2009-06-01T15:33:31Z</time>
      </trkpt>
      <trkpt lat="48.47875" lon="7.1172">
        <ele>782</ele>
        <time>2009-06-01T15:33:15Z</time>
      </trkpt>
      <trkpt lat="48.47871" lon="7.1172">
        <ele>782</ele>
        <time>2009-06-01T15:33:00Z</time>
      </trkpt>
      <trkpt lat="48.47856" lon="7.11723">
        <ele>782</ele>
        <time>2009-06-01T15:32:46Z</time>
      </trkpt>
      <trkpt lat="48.47848" lon="7.11746">
        <ele>783</ele>
        <time>2009-06-01T15:32:30Z</time>
      </trkpt>
      <trkpt lat="48.4785" lon="7.11782">
        <ele>783</ele>
        <time>2009-06-01T15:32:11Z</time>
      </trkpt>
      <trkpt lat="48.47848" lon="7.11805">
        <ele>783</ele>
        <time>2009-06-01T15:31:58Z</time>
      </trkpt>
      <trkpt lat="48.4785" lon="7.11822">
        <ele>782</ele>
        <time>2009-06-01T15:31:45Z</time>
      </trkpt>
      <trkpt lat="48.47851" lon="7.11844">
        <ele>781</ele>
        <time>2009-06-01T15:31:31Z</time>
      </trkpt>
      <trkpt lat="48.47851" lon="7.11871">
        <ele>781</ele>
        <time>2009-06-01T15:31:16Z</time>
      </trkpt>
      <trkpt lat="48.47853" lon="7.11886">
        <ele>780</ele>
        <time>2009-06-01T15:31:07Z</time>
      </trkpt>
      <trkpt lat="48.4786" lon="7.11906">
        <ele>780</ele>
        <time>2009-06-01T15:30:54Z</time>
      </trkpt>
      <trkpt lat="48.47868" lon="7.11926">
        <ele>779</ele>
        <time>2009-06-01T15:30:39Z</time>
      </trkpt>
      <trkpt lat="48.47877" lon="7.11941">
        <ele>779</ele>
        <time>2009-06-01T15:30:25Z</time>
      </trkpt>
      <trkpt lat="48.47885" lon="7.11956">
        <ele>777</ele>
        <time>2009-06-01T15:30:13Z</time>
      </trkpt>
      <trkpt lat="48.47891" lon="7.11979">
        <ele>776</ele>
        <time>2009-06-01T15:30:00Z</time>
      </trkpt>
      <trkpt lat="48.47891" lon="7.11983">
        <ele>776</ele>
        <time>2009-06-01T15:29:58Z</time>
      </trkpt>
      <trkpt lat="48.47895" lon="7.11993">
        <ele>776</ele>
        <time>2009-06-01T15:29:51Z</time>
      </trkpt>
      <trkpt lat="48.47904" lon="7.12014">
        <ele>775</ele>
        <time>2009-06-01T15:29:38Z</time>
      </trkpt>
      <trkpt lat="48.47908" lon="7.12039">
        <ele>774</ele>
        <time>2009-06-01T15:29:24Z</time>
      </trkpt>
      <trkpt lat="48.47908" lon="7.12061">
        <ele>774</ele>
        <time>2009-06-01T15:29:11Z</time>
      </trkpt>
      <trkpt lat="48.47911" lon="7.12093">
        <ele>772</ele>
        <time>2009-06-01T15:28:54Z</time>
      </trkpt>
      <trkpt lat="48.4791" lon="7.12104">
        <ele>772</ele>
        <time>2009-06-01T15:28:47Z</time>
      </trkpt>
      <trkpt lat="48.47916" lon="7.12124">
        <ele>771</ele>
        <time>2009-06-01T15:28:33Z</time>
      </trkpt>
      <trkpt lat="48.47925" lon="7.1214">
        <ele>770</ele>
        <time>2009-06-01T15:28:21Z</time>
      </trkpt>
      <trkpt lat="48.4793" lon="7.12151">
        <ele>770</ele>
        <time>2009-06-01T15:28:14Z</time>
      </trkpt>
      <trkpt lat="48.47937" lon="7.12163">
        <ele>769</ele>
        <time>2009-06-01T15:28:05Z</time>
      </trkpt>
      <trkpt lat="48.47943" lon="7.12185">
        <ele>768</ele>
        <time>2009-06-01T15:27:52Z</time>
      </trkpt>
      <trkpt lat="48.47948" lon="7.122">
        <ele>767</ele>
        <time>2009-06-01T15:27:42Z</time>
      </trkpt>
      <trkpt lat="48.47948" lon="7.12222">
        <ele>767</ele>
        <time>2009-06-01T15:27:30Z</time>
      </trkpt>
      <trkpt lat="48.47955" lon="7.12247">
        <ele>766</ele>
        <time>2009-06-01T15:27:15Z</time>
      </trkpt>
      <trkpt lat="48.47959" lon="7.12272">
        <ele>765</ele>
        <time>2009-06-01T15:27:01Z</time>
      </trkpt>
      <trkpt lat="48.47962" lon="7.12288">
        <ele>764</ele>
        <time>2009-06-01T15:26:51Z</time>
      </trkpt>
      <trkpt lat="48.47961" lon="7.12307">
        <ele>763</ele>
        <time>2009-06-01T15:26:39Z</time>
      </trkpt>
      <trkpt lat="48.47956" lon="7.12322">
        <ele>763</ele>
        <time>2009-06-01T15:26:30Z</time>
      </trkpt>
      <trkpt lat="48.47949" lon="7.12336">
        <ele>762</ele>
        <time>2009-06-01T15:26:18Z</time>
      </trkpt>
      <trkpt lat="48.47943" lon="7.12346">
        <ele>761</ele>
        <time>2009-06-01T15:26:11Z</time>
      </trkpt>
      <trkpt lat="48.47933" lon="7.1236">
        <ele>760</ele>
        <time>2009-06-01T15:25:58Z</time>
      </trkpt>
      <trkpt lat="48.47919" lon="7.12377">
        <ele>759</ele>
        <time>2009-06-01T15:25:43Z</time>
      </trkpt>
      <trkpt lat="48.47908" lon="7.12391">
        <ele>758</ele>
        <time>2009-06-01T15:25:32Z</time>
      </trkpt>
      <trkpt lat="48.47898" lon="7.12401">
        <ele>757</ele>
        <time>2009-06-01T15:25:20Z</time>
      </trkpt>
      <trkpt lat="48.47888" lon="7.1242">
        <ele>755</ele>
        <time>2009-06-01T15:25:05Z</time>
      </trkpt>
      <trkpt lat="48.47874" lon="7.12442">
        <ele>755</ele>
        <time>2009-06-01T15:24:47Z</time>
      </trkpt>
      <trkpt lat="48.47869" lon="7.1246">
        <ele>754</ele>
        <time>2009-06-01T15:24:34Z</time>
      </trkpt>
      <trkpt lat="48.47865" lon="7.12482">
        <ele>753</ele>
        <time>2009-06-01T15:24:18Z</time>
      </trkpt>
      <trkpt lat="48.47858" lon="7.12497">
        <ele>753</ele>
        <time>2009-06-01T15:24:04Z</time>
      </trkpt>
      <trkpt lat="48.47858" lon="7.12512">
        <ele>753</ele>
        <time>2009-06-01T15:23:53Z</time>
      </trkpt>
      <trkpt lat="48.4786" lon="7.12525">
        <ele>752</ele>
        <time>2009-06-01T15:23:42Z</time>
      </trkpt>
      <trkpt lat="48.47856" lon="7.12538">
        <ele>752</ele>
        <time>2009-06-01T15:23:28Z</time>
      </trkpt>
      <trkpt lat="48.47846" lon="7.12547">
        <ele>752</ele>
        <time>2009-06-01T15:23:11Z</time>
      </trkpt>
      <trkpt lat="48.47847" lon="7.12566">
        <ele>752</ele>
        <time>2009-06-01T15:22:58Z</time>
      </trkpt>
      <trkpt lat="48.4785" lon="7.12593">
        <ele>751</ele>
        <time>2009-06-01T15:22:44Z</time>
      </trkpt>
      <trkpt lat="48.47845" lon="7.12618">
        <ele>750</ele>
        <time>2009-06-01T15:22:28Z</time>
      </trkpt>
      <trkpt lat="48.47842" lon="7.12629">
        <ele>750</ele>
        <time>2009-06-01T15:22:22Z</time>
      </trkpt>
      <trkpt lat="48.47843" lon="7.12634">
        <ele>750</ele>
        <time>2009-06-01T15:22:19Z</time>
      </trkpt>
      <trkpt lat="48.47844" lon="7.12651">
        <ele>749</ele>
        <time>2009-06-01T15:22:08Z</time>
      </trkpt>
      <trkpt lat="48.47837" lon="7.1267">
        <ele>749</ele>
        <time>2009-06-01T15:21:53Z</time>
      </trkpt>
      <trkpt lat="48.47836" lon="7.12674">
        <ele>749</ele>
        <time>2009-06-01T15:21:51Z</time>
      </trkpt>
      <trkpt lat="48.47827" lon="7.12696">
        <ele>749</ele>
        <time>2009-06-01T15:21:37Z</time>
      </trkpt>
      <trkpt lat="48.47823" lon="7.12723">
        <ele>749</ele>
        <time>2009-06-01T15:21:23Z</time>
      </trkpt>
      <trkpt lat="48.47822" lon="7.12747">
        <ele>748</ele>
        <time>2009-06-01T15:21:12Z</time>
      </trkpt>
      <trkpt lat="48.47823" lon="7.12765">
        <ele>747</ele>
        <time>2009-06-01T15:21:03Z</time>
      </trkpt>
      <trkpt lat="48.47822" lon="7.12789">
        <ele>746</ele>
        <time>2009-06-01T15:20:50Z</time>
      </trkpt>
      <trkpt lat="48.4782" lon="7.12808">
        <ele>746</ele>
        <time>2009-06-01T15:20:39Z</time>
      </trkpt>
      <trkpt lat="48.47818" lon="7.12826">
        <ele>746</ele>
        <time>2009-06-01T15:20:29Z</time>
      </trkpt>
      <trkpt lat="48.47815" lon="7.12853">
        <ele>744</ele>
        <time>2009-06-01T15:20:13Z</time>
      </trkpt>
      <trkpt lat="48.47809" lon="7.12873">
        <ele>744</ele>
        <time>2009-06-01T15:20:03Z</time>
      </trkpt>
      <trkpt lat="48.47807" lon="7.12891">
        <ele>743</ele>
        <time>2009-06-01T15:19:54Z</time>
      </trkpt>
      <trkpt lat="48.47807" lon="7.12893">
        <ele>743</ele>
        <time>2009-06-01T15:19:53Z</time>
      </trkpt>
      <trkpt lat="48.4779" lon="7.1291">
        <ele>743</ele>
        <time>2009-06-01T15:19:40Z</time>
      </trkpt>
      <trkpt lat="48.47777" lon="7.12923">
        <ele>742</ele>
        <time>2009-06-01T15:19:29Z</time>
      </trkpt>
      <trkpt lat="48.47774" lon="7.12926">
        <ele>742</ele>
        <time>2009-06-01T15:19:27Z</time>
      </trkpt>
      <trkpt lat="48.47763" lon="7.12944">
        <ele>741</ele>
        <time>2009-06-01T15:19:15Z</time>
      </trkpt>
      <trkpt lat="48.47759" lon="7.1295">
        <ele>741</ele>
        <time>2009-06-01T15:19:11Z</time>
      </trkpt>
      <trkpt lat="48.47745" lon="7.12967">
        <ele>740</ele>
        <time>2009-06-01T15:18:57Z</time>
      </trkpt>
      <trkpt lat="48.47733" lon="7.12978">
        <ele>739</ele>
        <time>2009-06-01T15:18:46Z</time>
      </trkpt>
      <trkpt lat="48.47712" lon="7.12985">
        <ele>737</ele>
        <time>2009-06-01T15:17:55Z</time>
      </trkpt>
      <trkpt lat="48.47712" lon="7.12985">
        <ele>741</ele>
        <time>2009-06-01T15:17:53Z</time>
      </trkpt>
      <trkpt lat="48.47713" lon="7.12985">
        <ele>737</ele>
        <time>2009-06-01T15:17:52Z</time>
      </trkpt>
      <trkpt lat="48.47713" lon="7.12986">
        <ele>738</ele>
        <time>2009-06-01T15:17:46Z</time>
      </trkpt>
      <trkpt lat="48.47714" lon="7.12986">
        <ele>735</ele>
        <time>2009-06-01T15:17:44Z</time>
      </trkpt>
      <trkpt lat="48.47714" lon="7.12986">
        <ele>741</ele>
        <time>2009-06-01T15:17:43Z</time>
      </trkpt>
      <trkpt lat="48.47719" lon="7.12993">
        <ele>737</ele>
        <time>2009-06-01T15:17:28Z</time>
      </trkpt>
      <trkpt lat="48.47708" lon="7.13">
        <ele>736</ele>
        <time>2009-06-01T15:17:17Z</time>
      </trkpt>
      <trkpt lat="48.47699" lon="7.13008">
        <ele>735</ele>
        <time>2009-06-01T15:17:09Z</time>
      </trkpt>
      <trkpt lat="48.47691" lon="7.13022">
        <ele>734</ele>
        <time>2009-06-01T15:16:58Z</time>
      </trkpt>
      <trkpt lat="48.47685" lon="7.13031">
        <ele>734</ele>
        <time>2009-06-01T15:16:51Z</time>
      </trkpt>
      <trkpt lat="48.47686" lon="7.13041">
        <ele>733</ele>
        <time>2009-06-01T15:16:46Z</time>
      </trkpt>
      <trkpt lat="48.47676" lon="7.13055">
        <ele>733</ele>
        <time>2009-06-01T15:16:36Z</time>
      </trkpt>
      <trkpt lat="48.47677" lon="7.13059">
        <ele>734</ele>
        <time>2009-06-01T15:16:34Z</time>
      </trkpt>
      <trkpt lat="48.47668" lon="7.1308">
        <ele>732</ele>
        <time>2009-06-01T15:16:22Z</time>
      </trkpt>
      <trkpt lat="48.47663" lon="7.13084">
        <ele>732</ele>
        <time>2009-06-01T15:16:19Z</time>
      </trkpt>
      <trkpt lat="48.47658" lon="7.13104">
        <ele>731</ele>
        <time>2009-06-01T15:16:07Z</time>
      </trkpt>
      <trkpt lat="48.47653" lon="7.13116">
        <ele>730</ele>
        <time>2009-06-01T15:15:59Z</time>
      </trkpt>
      <trkpt lat="48.4765" lon="7.13125">
        <ele>729</ele>
        <time>2009-06-01T15:15:53Z</time>
      </trkpt>
      <trkpt lat="48.47646" lon="7.13133">
        <ele>729</ele>
        <time>2009-06-01T15:15:47Z</time>
      </trkpt>
      <trkpt lat="48.47639" lon="7.13151">
        <ele>727</ele>
        <time>2009-06-01T15:15:36Z</time>
      </trkpt>
      <trkpt lat="48.47631" lon="7.13169">
        <ele>725</ele>
        <time>2009-06-01T15:15:23Z</time>
      </trkpt>
      <trkpt lat="48.47622" lon="7.13187">
        <ele>723</ele>
        <time>2009-06-01T15:15:10Z</time>
      </trkpt>
      <trkpt lat="48.4762" lon="7.13194">
        <ele>722</ele>
        <time>2009-06-01T15:15:05Z</time>
      </trkpt>
      <trkpt lat="48.4761" lon="7.1321">
        <ele>719</ele>
        <time>2009-06-01T15:14:52Z</time>
      </trkpt>
      <trkpt lat="48.47602" lon="7.13226">
        <ele>717</ele>
        <time>2009-06-01T15:14:39Z</time>
      </trkpt>
      <trkpt lat="48.476" lon="7.13227">
        <ele>717</ele>
        <time>2009-06-01T15:14:37Z</time>
      </trkpt>
      <trkpt lat="48.47583" lon="7.13231">
        <ele>715</ele>
        <time>2009-06-01T15:14:22Z</time>
      </trkpt>
      <trkpt lat="48.47577" lon="7.13234">
        <ele>714</ele>
        <time>2009-06-01T15:14:13Z</time>
      </trkpt>
      <trkpt lat="48.47569" lon="7.13239">
        <ele>713</ele>
        <time>2009-06-01T15:14:06Z</time>
      </trkpt>
      <trkpt lat="48.4756" lon="7.13251">
        <ele>712</ele>
        <time>2009-06-01T15:13:53Z</time>
      </trkpt>
      <trkpt lat="48.47554" lon="7.13252">
        <ele>712</ele>
        <time>2009-06-01T15:13:39Z</time>
      </trkpt>
      <trkpt lat="48.47545" lon="7.13263">
        <ele>711</ele>
        <time>2009-06-01T15:13:17Z</time>
      </trkpt>
      <trkpt lat="48.47549" lon="7.13253">
        <ele>712</ele>
        <time>2009-06-01T15:13:03Z</time>
      </trkpt>
      <trkpt lat="48.47549" lon="7.13252">
        <ele>710</ele>
        <time>2009-06-01T15:13:01Z</time>
      </trkpt>
      <trkpt lat="48.47549" lon="7.13251">
        <ele>710</ele>
        <time>2009-06-01T15:13:00Z</time>
      </trkpt>
      <trkpt lat="48.47549" lon="7.13251">
        <ele>715</ele>
        <time>2009-06-01T15:12:59Z</time>
      </trkpt>
      <trkpt lat="48.47545" lon="7.13254">
        <ele>711</ele>
        <time>2009-06-01T15:12:34Z</time>
      </trkpt>
      <trkpt lat="48.4754" lon="7.13247">
        <ele>712</ele>
        <time>2009-06-01T15:12:20Z</time>
      </trkpt>
      <trkpt lat="48.47541" lon="7.13245">
        <ele>712</ele>
        <time>2009-06-01T15:11:37Z</time>
      </trkpt>
      <trkpt lat="48.47546" lon="7.13253">
        <ele>711</ele>
        <time>2009-06-01T15:11:21Z</time>
      </trkpt>
      <trkpt lat="48.47551" lon="7.13253">
        <ele>711</ele>
        <time>2009-06-01T15:11:02Z</time>
      </trkpt>
      <trkpt lat="48.4755" lon="7.13266">
        <ele>710</ele>
        <time>2009-06-01T15:10:49Z</time>
      </trkpt>
      <trkpt lat="48.47547" lon="7.13283">
        <ele>708</ele>
        <time>2009-06-01T15:10:35Z</time>
      </trkpt>
      <trkpt lat="48.47546" lon="7.13304">
        <ele>707</ele>
        <time>2009-06-01T15:10:22Z</time>
      </trkpt>
      <trkpt lat="48.47551" lon="7.1332">
        <ele>705</ele>
        <time>2009-06-01T15:10:10Z</time>
      </trkpt>
      <trkpt lat="48.47551" lon="7.13325">
        <ele>705</ele>
        <time>2009-06-01T15:10:07Z</time>
      </trkpt>
      <trkpt lat="48.47554" lon="7.1333">
        <ele>705</ele>
        <time>2009-06-01T15:10:03Z</time>
      </trkpt>
      <trkpt lat="48.47561" lon="7.13342">
        <ele>704</ele>
        <time>2009-06-01T15:09:53Z</time>
      </trkpt>
      <trkpt lat="48.47566" lon="7.13359">
        <ele>703</ele>
        <time>2009-06-01T15:09:42Z</time>
      </trkpt>
      <trkpt lat="48.47572" lon="7.13376">
        <ele>702</ele>
        <time>2009-06-01T15:09:30Z</time>
      </trkpt>
      <trkpt lat="48.47577" lon="7.13398">
        <ele>700</ele>
        <time>2009-06-01T15:09:15Z</time>
      </trkpt>
      <trkpt lat="48.47582" lon="7.13409">
        <ele>699</ele>
        <time>2009-06-01T15:09:06Z</time>
      </trkpt>
      <trkpt lat="48.47584" lon="7.13425">
        <ele>697</ele>
        <time>2009-06-01T15:08:55Z</time>
      </trkpt>
      <trkpt lat="48.47586" lon="7.13445">
        <ele>697</ele>
        <time>2009-06-01T15:08:43Z</time>
      </trkpt>
      <trkpt lat="48.47585" lon="7.13469">
        <ele>695</ele>
        <time>2009-06-01T15:08:29Z</time>
      </trkpt>
      <trkpt lat="48.47583" lon="7.13493">
        <ele>693</ele>
        <time>2009-06-01T15:08:16Z</time>
      </trkpt>
      <trkpt lat="48.47583" lon="7.13507">
        <ele>693</ele>
        <time>2009-06-01T15:08:06Z</time>
      </trkpt>
      <trkpt lat="48.47585" lon="7.13524">
        <ele>692</ele>
        <time>2009-06-01T15:07:56Z</time>
      </trkpt>
      <trkpt lat="48.47585" lon="7.1354">
        <ele>690</ele>
        <time>2009-06-01T15:07:44Z</time>
      </trkpt>
      <trkpt lat="48.47586" lon="7.13552">
        <ele>690</ele>
        <time>2009-06-01T15:07:36Z</time>
      </trkpt>
      <trkpt lat="48.47583" lon="7.13565">
        <ele>689</ele>
        <time>2009-06-01T15:07:27Z</time>
      </trkpt>
      <trkpt lat="48.47582" lon="7.13579">
        <ele>688</ele>
        <time>2009-06-01T15:07:16Z</time>
      </trkpt>
      <trkpt lat="48.47581" lon="7.13594">
        <ele>687</ele>
        <time>2009-06-01T15:07:05Z</time>
      </trkpt>
      <trkpt lat="48.47582" lon="7.13614">
        <ele>685</ele>
        <time>2009-06-01T15:06:51Z</time>
      </trkpt>
      <trkpt lat="48.47585" lon="7.13638">
        <ele>683</ele>
        <time>2009-06-01T15:06:33Z</time>
      </trkpt>
      <trkpt lat="48.47583" lon="7.13651">
        <ele>680</ele>
        <time>2009-06-01T15:06:23Z</time>
      </trkpt>
      <trkpt lat="48.4758" lon="7.13666">
        <ele>679</ele>
        <time>2009-06-01T15:06:09Z</time>
      </trkpt>
      <trkpt lat="48.47575" lon="7.13682">
        <ele>676</ele>
        <time>2009-06-01T15:05:56Z</time>
      </trkpt>
      <trkpt lat="48.47567" lon="7.13695">
        <ele>675</ele>
        <time>2009-06-01T15:05:43Z</time>
      </trkpt>
      <trkpt lat="48.47559" lon="7.13703">
        <ele>673</ele>
        <time>2009-06-01T15:05:33Z</time>
      </trkpt>
      <trkpt lat="48.47545" lon="7.13711">
        <ele>670</ele>
        <time>2009-06-01T15:05:19Z</time>
      </trkpt>
      <trkpt lat="48.47533" lon="7.13705">
        <ele>668</ele>
        <time>2009-06-01T15:05:05Z</time>
      </trkpt>
      <trkpt lat="48.47526" lon="7.13699">
        <ele>667</ele>
        <time>2009-06-01T15:04:55Z</time>
      </trkpt>
      <trkpt lat="48.47517" lon="7.13684">
        <ele>666</ele>
        <time>2009-06-01T15:04:17Z</time>
      </trkpt>
      <trkpt lat="48.47517" lon="7.13684">
        <ele>662</ele>
        <time>2009-06-01T15:04:16Z</time>
      </trkpt>
      <trkpt lat="48.47517" lon="7.13684">
        <ele>668</ele>
        <time>2009-06-01T15:04:15Z</time>
      </trkpt>
      <trkpt lat="48.47517" lon="7.13684">
        <ele>665</ele>
        <time>2009-06-01T15:04:05Z</time>
      </trkpt>
      <trkpt lat="48.47516" lon="7.13684">
        <ele>666</ele>
        <time>2009-06-01T15:04:01Z</time>
      </trkpt>
      <trkpt lat="48.47516" lon="7.13684">
        <ele>663</ele>
        <time>2009-06-01T15:04:00Z</time>
      </trkpt>
      <trkpt lat="48.47509" lon="7.13691">
        <ele>666</ele>
        <time>2009-06-01T15:02:55Z</time>
      </trkpt>
      <trkpt lat="48.47514" lon="7.13702">
        <ele>665</ele>
        <time>2009-06-01T15:01:40Z</time>
      </trkpt>
      <trkpt lat="48.4751" lon="7.13706">
        <ele>663</ele>
        <time>2009-06-01T15:01:23Z</time>
      </trkpt>
      <trkpt lat="48.47502" lon="7.13698">
        <ele>663</ele>
        <time>2009-06-01T15:01:11Z</time>
      </trkpt>
      <trkpt lat="48.47491" lon="7.13693">
        <ele>661</ele>
        <time>2009-06-01T15:00:59Z</time>
      </trkpt>
      <trkpt lat="48.47476" lon="7.13693">
        <ele>659</ele>
        <time>2009-06-01T15:00:45Z</time>
      </trkpt>
      <trkpt lat="48.47462" lon="7.13688">
        <ele>655</ele>
        <time>2009-06-01T15:00:30Z</time>
      </trkpt>
      <trkpt lat="48.47454" lon="7.13689">
        <ele>654</ele>
        <time>2009-06-01T15:00:23Z</time>
      </trkpt>
      <trkpt lat="48.47449" lon="7.13685">
        <ele>654</ele>
        <time>2009-06-01T15:00:18Z</time>
      </trkpt>
      <trkpt lat="48.47441" lon="7.13674">
        <ele>652</ele>
        <time>2009-06-01T15:00:05Z</time>
      </trkpt>
      <trkpt lat="48.47425" lon="7.13686">
        <ele>650</ele>
        <time>2009-06-01T14:59:51Z</time>
      </trkpt>
      <trkpt lat="48.47413" lon="7.13697">
        <ele>649</ele>
        <time>2009-06-01T14:59:38Z</time>
      </trkpt>
      <trkpt lat="48.47401" lon="7.13712">
        <ele>648</ele>
        <time>2009-06-01T14:59:25Z</time>
      </trkpt>
      <trkpt lat="48.47398" lon="7.13712">
        <ele>647</ele>
        <time>2009-06-01T14:59:23Z</time>
      </trkpt>
      <trkpt lat="48.47395" lon="7.13714">
        <ele>646</ele>
        <time>2009-06-01T14:59:17Z</time>
      </trkpt>
      <trkpt lat="48.47386" lon="7.13723">
        <ele>643</ele>
        <time>2009-06-01T14:59:05Z</time>
      </trkpt>
      <trkpt lat="48.47372" lon="7.13738">
        <ele>641</ele>
        <time>2009-06-01T14:58:51Z</time>
      </trkpt>
      <trkpt lat="48.47371" lon="7.13741">
        <ele>641</ele>
        <time>2009-06-01T14:58:48Z</time>
      </trkpt>
      <trkpt lat="48.47356" lon="7.13759">
        <ele>640</ele>
        <time>2009-06-01T14:58:34Z</time>
      </trkpt>
      <trkpt lat="48.47353" lon="7.13755">
        <ele>640</ele>
        <time>2009-06-01T14:58:30Z</time>
      </trkpt>
      <trkpt lat="48.47342" lon="7.13744">
        <ele>641</ele>
        <time>2009-06-01T14:58:19Z</time>
      </trkpt>
      <trkpt lat="48.47327" lon="7.13739">
        <ele>643</ele>
        <time>2009-06-01T14:58:06Z</time>
      </trkpt>
      <trkpt lat="48.47325" lon="7.13733">
        <ele>642</ele>
        <time>2009-06-01T14:58:03Z</time>
      </trkpt>
      <trkpt lat="48.47316" lon="7.13721">
        <ele>643</ele>
        <time>2009-06-01T14:57:52Z</time>
      </trkpt>
      <trkpt lat="48.47301" lon="7.13702">
        <ele>644</ele>
        <time>2009-06-01T14:57:37Z</time>
      </trkpt>
      <trkpt lat="48.47295" lon="7.13689">
        <ele>646</ele>
        <time>2009-06-01T14:57:27Z</time>
      </trkpt>
      <trkpt lat="48.47289" lon="7.13677">
        <ele>647</ele>
        <time>2009-06-01T14:57:20Z</time>
      </trkpt>
      <trkpt lat="48.47284" lon="7.13666">
        <ele>646</ele>
        <time>2009-06-01T14:57:09Z</time>
      </trkpt>
      <trkpt lat="48.47281" lon="7.13661">
        <ele>647</ele>
        <time>2009-06-01T14:56:58Z</time>
      </trkpt>
      <trkpt lat="48.47269" lon="7.13655">
        <ele>646</ele>
        <time>2009-06-01T14:56:43Z</time>
      </trkpt>
      <trkpt lat="48.47259" lon="7.13647">
        <ele>645</ele>
        <time>2009-06-01T14:56:33Z</time>
      </trkpt>
      <trkpt lat="48.4724" lon="7.13627">
        <ele>643</ele>
        <time>2009-06-01T14:56:17Z</time>
      </trkpt>
      <trkpt lat="48.47237" lon="7.13622">
        <ele>643</ele>
        <time>2009-06-01T14:56:13Z</time>
      </trkpt>
      <trkpt lat="48.47225" lon="7.13622">
        <ele>641</ele>
        <time>2009-06-01T14:56:00Z</time>
      </trkpt>
      <trkpt lat="48.47216" lon="7.13615">
        <ele>640</ele>
        <time>2009-06-01T14:55:52Z</time>
      </trkpt>
      <trkpt lat="48.47212" lon="7.13607">
        <ele>638</ele>
        <time>2009-06-01T14:55:40Z</time>
      </trkpt>
      <trkpt lat="48.47206" lon="7.13603">
        <ele>637</ele>
        <time>2009-06-01T14:55:29Z</time>
      </trkpt>
      <trkpt lat="48.47192" lon="7.13593">
        <ele>637</ele>
        <time>2009-06-01T14:55:17Z</time>
      </trkpt>
      <trkpt lat="48.47184" lon="7.13581">
        <ele>634</ele>
        <time>2009-06-01T14:55:06Z</time>
      </trkpt>
      <trkpt lat="48.47175" lon="7.1357">
        <ele>634</ele>
        <time>2009-06-01T14:54:55Z</time>
      </trkpt>
      <trkpt lat="48.47168" lon="7.13554">
        <ele>633</ele>
        <time>2009-06-01T14:54:43Z</time>
      </trkpt>
      <trkpt lat="48.47158" lon="7.13554">
        <ele>631</ele>
        <time>2009-06-01T14:54:32Z</time>
      </trkpt>
      <trkpt lat="48.47153" lon="7.13551">
        <ele>630</ele>
        <time>2009-06-01T14:54:23Z</time>
      </trkpt>
      <trkpt lat="48.47149" lon="7.13541">
        <ele>629</ele>
        <time>2009-06-01T14:54:14Z</time>
      </trkpt>
      <trkpt lat="48.47145" lon="7.13523">
        <ele>628</ele>
        <time>2009-06-01T14:54:04Z</time>
      </trkpt>
      <trkpt lat="48.47137" lon="7.13508">
        <ele>626</ele>
        <time>2009-06-01T14:53:51Z</time>
      </trkpt>
      <trkpt lat="48.47124" lon="7.13494">
        <ele>625</ele>
        <time>2009-06-01T14:53:37Z</time>
      </trkpt>
      <trkpt lat="48.47121" lon="7.13475">
        <ele>623</ele>
        <time>2009-06-01T14:53:26Z</time>
      </trkpt>
      <trkpt lat="48.47121" lon="7.13473">
        <ele>623</ele>
        <time>2009-06-01T14:53:25Z</time>
      </trkpt>
      <trkpt lat="48.47109" lon="7.13465">
        <ele>621</ele>
        <time>2009-06-01T14:53:07Z</time>
      </trkpt>
      <trkpt lat="48.47097" lon="7.13449">
        <ele>620</ele>
        <time>2009-06-01T14:52:56Z</time>
      </trkpt>
      <trkpt lat="48.47091" lon="7.13446">
        <ele>619</ele>
        <time>2009-06-01T14:52:51Z</time>
      </trkpt>
      <trkpt lat="48.47085" lon="7.1343">
        <ele>616</ele>
        <time>2009-06-01T14:52:39Z</time>
      </trkpt>
      <trkpt lat="48.47084" lon="7.13421">
        <ele>616</ele>
        <time>2009-06-01T14:52:29Z</time>
      </trkpt>
      <trkpt lat="48.47076" lon="7.13415">
        <ele>615</ele>
        <time>2009-06-01T14:52:18Z</time>
      </trkpt>
      <trkpt lat="48.47055" lon="7.13421">
        <ele>612</ele>
        <time>2009-06-01T14:52:04Z</time>
      </trkpt>
      <trkpt lat="48.47038" lon="7.13423">
        <ele>612</ele>
        <time>2009-06-01T14:51:51Z</time>
      </trkpt>
      <trkpt lat="48.47028" lon="7.13411">
        <ele>609</ele>
        <time>2009-06-01T14:51:38Z</time>
      </trkpt>
      <trkpt lat="48.47018" lon="7.13407">
        <ele>607</ele>
        <time>2009-06-01T14:51:28Z</time>
      </trkpt>
      <trkpt lat="48.47007" lon="7.13411">
        <ele>606</ele>
        <time>2009-06-01T14:51:15Z</time>
      </trkpt>
      <trkpt lat="48.47" lon="7.13411">
        <ele>606</ele>
        <time>2009-06-01T14:51:05Z</time>
      </trkpt>
      <trkpt lat="48.46992" lon="7.13407">
        <ele>604</ele>
        <time>2009-06-01T14:50:54Z</time>
      </trkpt>
      <trkpt lat="48.46983" lon="7.13395">
        <ele>602</ele>
        <time>2009-06-01T14:50:41Z</time>
      </trkpt>
      <trkpt lat="48.46969" lon="7.13395">
        <ele>601</ele>
        <time>2009-06-01T14:50:29Z</time>
      </trkpt>
      <trkpt lat="48.46957" lon="7.13382">
        <ele>599</ele>
        <time>2009-06-01T14:50:17Z</time>
      </trkpt>
      <trkpt lat="48.46946" lon="7.13363">
        <ele>598</ele>
        <time>2009-06-01T14:50:08Z</time>
      </trkpt>
      <trkpt lat="48.46945" lon="7.13362">
        <ele>598</ele>
        <time>2009-06-01T14:48:21Z</time>
      </trkpt>
      <trkpt lat="48.46947" lon="7.13362">
        <ele>599</ele>
        <time>2009-06-01T14:48:19Z</time>
      </trkpt>
      <trkpt lat="48.46948" lon="7.13362">
        <ele>600</ele>
        <time>2009-06-01T14:48:18Z</time>
      </trkpt>
      <trkpt lat="48.46949" lon="7.13362">
        <ele>595</ele>
        <time>2009-06-01T14:48:16Z</time>
      </trkpt>
      <trkpt lat="48.46949" lon="7.13362">
        <ele>600</ele>
        <time>2009-06-01T14:48:15Z</time>
      </trkpt>
      <trkpt lat="48.46949" lon="7.13362">
        <ele>596</ele>
        <time>2009-06-01T14:48:13Z</time>
      </trkpt>
      <trkpt lat="48.4695" lon="7.13362">
        <ele>600</ele>
        <time>2009-06-01T14:48:11Z</time>
      </trkpt>
      <trkpt lat="48.46952" lon="7.13372">
        <ele>598</ele>
        <time>2009-06-01T14:47:45Z</time>
      </trkpt>
      <trkpt lat="48.46948" lon="7.13364">
        <ele>596</ele>
        <time>2009-06-01T14:47:33Z</time>
      </trkpt>
      <trkpt lat="48.46945" lon="7.13362">
        <ele>596</ele>
        <time>2009-06-01T14:47:31Z</time>
      </trkpt>
      <trkpt lat="48.4693" lon="7.13355">
        <ele>593</ele>
        <time>2009-06-01T14:47:18Z</time>
      </trkpt>
      <trkpt lat="48.46921" lon="7.13349">
        <ele>592</ele>
        <time>2009-06-01T14:47:08Z</time>
      </trkpt>
      <trkpt lat="48.46908" lon="7.1333">
        <ele>590</ele>
        <time>2009-06-01T14:46:54Z</time>
      </trkpt>
      <trkpt lat="48.46902" lon="7.13308">
        <ele>589</ele>
        <time>2009-06-01T14:46:40Z</time>
      </trkpt>
      <trkpt lat="48.46886" lon="7.13288">
        <ele>587</ele>
        <time>2009-06-01T14:46:24Z</time>
      </trkpt>
      <trkpt lat="48.46883" lon="7.13284">
        <ele>586</ele>
        <time>2009-06-01T14:46:18Z</time>
      </trkpt>
      <trkpt lat="48.46873" lon="7.13268">
        <ele>584</ele>
        <time>2009-06-01T14:46:04Z</time>
      </trkpt>
      <trkpt lat="48.46873" lon="7.13265">
        <ele>584</ele>
        <time>2009-06-01T14:46:01Z</time>
      </trkpt>
      <trkpt lat="48.46865" lon="7.13239">
        <ele>581</ele>
        <time>2009-06-01T14:45:46Z</time>
      </trkpt>
      <trkpt lat="48.46856" lon="7.13216">
        <ele>579</ele>
        <time>2009-06-01T14:45:31Z</time>
      </trkpt>
      <trkpt lat="48.46853" lon="7.13208">
        <ele>579</ele>
        <time>2009-06-01T14:45:26Z</time>
      </trkpt>
      <trkpt lat="48.46851" lon="7.13203">
        <ele>578</ele>
        <time>2009-06-01T14:45:23Z</time>
      </trkpt>
      <trkpt lat="48.46842" lon="7.13186">
        <ele>577</ele>
        <time>2009-06-01T14:45:12Z</time>
      </trkpt>
      <trkpt lat="48.46835" lon="7.13169">
        <ele>575</ele>
        <time>2009-06-01T14:45:01Z</time>
      </trkpt>
      <trkpt lat="48.46831" lon="7.13153">
        <ele>573</ele>
        <time>2009-06-01T14:44:49Z</time>
      </trkpt>
      <trkpt lat="48.46825" lon="7.13143">
        <ele>572</ele>
        <time>2009-06-01T14:44:39Z</time>
      </trkpt>
      <trkpt lat="48.46825" lon="7.13141">
        <ele>573</ele>
        <time>2009-06-01T14:44:36Z</time>
      </trkpt>
      <trkpt lat="48.46819" lon="7.13125">
        <ele>571</ele>
        <time>2009-06-01T14:44:25Z</time>
      </trkpt>
      <trkpt lat="48.46807" lon="7.1311">
        <ele>569</ele>
        <time>2009-06-01T14:44:11Z</time>
      </trkpt>
      <trkpt lat="48.46805" lon="7.13105">
        <ele>569</ele>
        <time>2009-06-01T14:44:09Z</time>
      </trkpt>
      <trkpt lat="48.46793" lon="7.13086">
        <ele>567</ele>
        <time>2009-06-01T14:43:55Z</time>
      </trkpt>
      <trkpt lat="48.46791" lon="7.13083">
        <ele>567</ele>
        <time>2009-06-01T14:43:53Z</time>
      </trkpt>
      <trkpt lat="48.46784" lon="7.13066">
        <ele>565</ele>
        <time>2009-06-01T14:43:41Z</time>
      </trkpt>
      <trkpt lat="48.46782" lon="7.13057">
        <ele>563</ele>
        <time>2009-06-01T14:42:53Z</time>
      </trkpt>
      <trkpt lat="48.46773" lon="7.1307">
        <ele>563</ele>
        <time>2009-06-01T14:42:39Z</time>
      </trkpt>
      <trkpt lat="48.46778" lon="7.13078">
        <ele>564</ele>
        <time>2009-06-01T14:42:26Z</time>
      </trkpt>
      <trkpt lat="48.46775" lon="7.13093">
        <ele>565</ele>
        <time>2009-06-01T14:42:19Z</time>
      </trkpt>
      <trkpt lat="48.46771" lon="7.13099">
        <ele>565</ele>
        <time>2009-06-01T14:42:16Z</time>
      </trkpt>
      <trkpt lat="48.46767" lon="7.13113">
        <ele>566</ele>
        <time>2009-06-01T14:42:03Z</time>
      </trkpt>
      <trkpt lat="48.46768" lon="7.13133">
        <ele>567</ele>
        <time>2009-06-01T14:41:50Z</time>
      </trkpt>
      <trkpt lat="48.46764" lon="7.13154">
        <ele>569</ele>
        <time>2009-06-01T14:41:36Z</time>
      </trkpt>
      <trkpt lat="48.46763" lon="7.13164">
        <ele>570</ele>
        <time>2009-06-01T14:41:25Z</time>
      </trkpt>
      <trkpt lat="48.46758" lon="7.13181">
        <ele>570</ele>
        <time>2009-06-01T14:41:13Z</time>
      </trkpt>
      <trkpt lat="48.46756" lon="7.1319">
        <ele>571</ele>
        <time>2009-06-01T14:41:04Z</time>
      </trkpt>
      <trkpt lat="48.46746" lon="7.13208">
        <ele>572</ele>
        <time>2009-06-01T14:40:52Z</time>
      </trkpt>
      <trkpt lat="48.46733" lon="7.1322">
        <ele>573</ele>
        <time>2009-06-01T14:40:39Z</time>
      </trkpt>
      <trkpt lat="48.46718" lon="7.13225">
        <ele>575</ele>
        <time>2009-06-01T14:40:26Z</time>
      </trkpt>
      <trkpt lat="48.46705" lon="7.13233">
        <ele>576</ele>
        <time>2009-06-01T14:40:13Z</time>
      </trkpt>
      <trkpt lat="48.46695" lon="7.13239">
        <ele>576</ele>
        <time>2009-06-01T14:39:59Z</time>
      </trkpt>
      <trkpt lat="48.46686" lon="7.13246">
        <ele>578</ele>
        <time>2009-06-01T14:39:45Z</time>
      </trkpt>
      <trkpt lat="48.46676" lon="7.13253">
        <ele>579</ele>
        <time>2009-06-01T14:39:33Z</time>
      </trkpt>
      <trkpt lat="48.46672" lon="7.13255">
        <ele>579</ele>
        <time>2009-06-01T14:39:29Z</time>
      </trkpt>
      <trkpt lat="48.46661" lon="7.13269">
        <ele>580</ele>
        <time>2009-06-01T14:39:16Z</time>
      </trkpt>
      <trkpt lat="48.4665" lon="7.13286">
        <ele>582</ele>
        <time>2009-06-01T14:39:01Z</time>
      </trkpt>
      <trkpt lat="48.46642" lon="7.13285">
        <ele>583</ele>
        <time>2009-06-01T14:38:33Z</time>
      </trkpt>
      <trkpt lat="48.46645" lon="7.13286">
        <ele>584</ele>
        <time>2009-06-01T14:38:16Z</time>
      </trkpt>
      <trkpt lat="48.46637" lon="7.13309">
        <ele>582</ele>
        <time>2009-06-01T14:38:01Z</time>
      </trkpt>
      <trkpt lat="48.46639" lon="7.13321">
        <ele>581</ele>
        <time>2009-06-01T14:37:55Z</time>
      </trkpt>
      <trkpt lat="48.46635" lon="7.13335">
        <ele>582</ele>
        <time>2009-06-01T14:37:49Z</time>
      </trkpt>
      <trkpt lat="48.46638" lon="7.13362">
        <ele>580</ele>
        <time>2009-06-01T14:37:36Z</time>
      </trkpt>
      <trkpt lat="48.46644" lon="7.13384">
        <ele>580</ele>
        <time>2009-06-01T14:37:25Z</time>
      </trkpt>
      <trkpt lat="48.46642" lon="7.13393">
        <ele>580</ele>
        <time>2009-06-01T14:37:19Z</time>
      </trkpt>
      <trkpt lat="48.46641" lon="7.1342">
        <ele>580</ele>
        <time>2009-06-01T14:37:03Z</time>
      </trkpt>
      <trkpt lat="48.4664" lon="7.13432">
        <ele>577</ele>
        <time>2009-06-01T14:36:57Z</time>
      </trkpt>
      <trkpt lat="48.4664" lon="7.13443">
        <ele>577</ele>
        <time>2009-06-01T14:36:51Z</time>
      </trkpt>
      <trkpt lat="48.4664" lon="7.13467">
        <ele>575</ele>
        <time>2009-06-01T14:36:38Z</time>
      </trkpt>
      <trkpt lat="48.46641" lon="7.13474">
        <ele>576</ele>
        <time>2009-06-01T14:36:34Z</time>
      </trkpt>
      <trkpt lat="48.46638" lon="7.1349">
        <ele>575</ele>
        <time>2009-06-01T14:36:25Z</time>
      </trkpt>
      <trkpt lat="48.46637" lon="7.13496">
        <ele>575</ele>
        <time>2009-06-01T14:36:22Z</time>
      </trkpt>
      <trkpt lat="48.46637" lon="7.13522">
        <ele>575</ele>
        <time>2009-06-01T14:36:08Z</time>
      </trkpt>
      <trkpt lat="48.46634" lon="7.13559">
        <ele>573</ele>
        <time>2009-06-01T14:35:50Z</time>
      </trkpt>
      <trkpt lat="48.46627" lon="7.13577">
        <ele>573</ele>
        <time>2009-06-01T14:35:40Z</time>
      </trkpt>
      <trkpt lat="48.46628" lon="7.136">
        <ele>572</ele>
        <time>2009-06-01T14:35:26Z</time>
      </trkpt>
      <trkpt lat="48.46617" lon="7.13618">
        <ele>570</ele>
        <time>2009-06-01T14:35:12Z</time>
      </trkpt>
      <trkpt lat="48.4661" lon="7.13646">
        <ele>570</ele>
        <time>2009-06-01T14:34:56Z</time>
      </trkpt>
      <trkpt lat="48.46609" lon="7.13653">
        <ele>569</ele>
        <time>2009-06-01T14:34:52Z</time>
      </trkpt>
      <trkpt lat="48.46604" lon="7.13671">
        <ele>569</ele>
        <time>2009-06-01T14:34:42Z</time>
      </trkpt>
      <trkpt lat="48.46605" lon="7.13689">
        <ele>568</ele>
        <time>2009-06-01T14:34:33Z</time>
      </trkpt>
      <trkpt lat="48.46605" lon="7.13717">
        <ele>567</ele>
        <time>2009-06-01T14:34:20Z</time>
      </trkpt>
      <trkpt lat="48.46604" lon="7.13742">
        <ele>566</ele>
        <time>2009-06-01T14:34:06Z</time>
      </trkpt>
      <trkpt lat="48.46601" lon="7.1375">
        <ele>566</ele>
        <time>2009-06-01T14:34:02Z</time>
      </trkpt>
      <trkpt lat="48.46595" lon="7.13764">
        <ele>565</ele>
        <time>2009-06-01T14:33:52Z</time>
      </trkpt>
      <trkpt lat="48.46584" lon="7.13794">
        <ele>563</ele>
        <time>2009-06-01T14:33:37Z</time>
      </trkpt>
      <trkpt lat="48.46586" lon="7.13804">
        <ele>563</ele>
        <time>2009-06-01T14:33:32Z</time>
      </trkpt>
      <trkpt lat="48.46588" lon="7.13831">
        <ele>563</ele>
        <time>2009-06-01T14:33:17Z</time>
      </trkpt>
      <trkpt lat="48.46589" lon="7.13834">
        <ele>563</ele>
        <time>2009-06-01T14:33:15Z</time>
      </trkpt>
      <trkpt lat="48.46586" lon="7.13857">
        <ele>562</ele>
        <time>2009-06-01T14:33:03Z</time>
      </trkpt>
      <trkpt lat="48.46586" lon="7.13863">
        <ele>565</ele>
        <time>2009-06-01T14:33:00Z</time>
      </trkpt>
      <trkpt lat="48.46591" lon="7.13878">
        <ele>562</ele>
        <time>2009-06-01T14:32:51Z</time>
      </trkpt>
      <trkpt lat="48.46596" lon="7.13896">
        <ele>561</ele>
        <time>2009-06-01T14:32:37Z</time>
      </trkpt>
      <trkpt lat="48.46606" lon="7.13901">
        <ele>560</ele>
        <time>2009-06-01T14:32:21Z</time>
      </trkpt>
      <trkpt lat="48.46607" lon="7.13901">
        <ele>560</ele>
        <time>2009-06-01T14:32:19Z</time>
      </trkpt>
      <trkpt lat="48.46599" lon="7.13928">
        <ele>559</ele>
        <time>2009-06-01T14:31:21Z</time>
      </trkpt>
      <trkpt lat="48.46596" lon="7.13931">
        <ele>560</ele>
        <time>2009-06-01T14:31:09Z</time>
      </trkpt>
      <trkpt lat="48.46576" lon="7.1395">
        <ele>560</ele>
        <time>2009-06-01T14:30:54Z</time>
      </trkpt>
      <trkpt lat="48.46558" lon="7.13962">
        <ele>560</ele>
        <time>2009-06-01T14:30:40Z</time>
      </trkpt>
      <trkpt lat="48.4655" lon="7.13965">
        <ele>559</ele>
        <time>2009-06-01T14:30:33Z</time>
      </trkpt>
      <trkpt lat="48.46538" lon="7.13971">
        <ele>558</ele>
        <time>2009-06-01T14:30:21Z</time>
      </trkpt>
      <trkpt lat="48.46534" lon="7.13969">
        <ele>558</ele>
        <time>2009-06-01T14:30:18Z</time>
      </trkpt>
      <trkpt lat="48.46519" lon="7.13968">
        <ele>557</ele>
        <time>2009-06-01T14:30:07Z</time>
      </trkpt>
      <trkpt lat="48.46506" lon="7.13968">
        <ele>557</ele>
        <time>2009-06-01T14:29:55Z</time>
      </trkpt>
      <trkpt lat="48.46505" lon="7.13967">
        <ele>556</ele>
        <time>2009-06-01T14:29:54Z</time>
      </trkpt>
      <trkpt lat="48.46492" lon="7.13956">
        <ele>556</ele>
        <time>2009-06-01T14:29:42Z</time>
      </trkpt>
      <trkpt lat="48.46478" lon="7.13938">
        <ele>554</ele>
        <time>2009-06-01T14:29:30Z</time>
      </trkpt>
      <trkpt lat="48.46466" lon="7.13927">
        <ele>554</ele>
        <time>2009-06-01T14:29:16Z</time>
      </trkpt>
      <trkpt lat="48.46462" lon="7.13923">
        <ele>553</ele>
        <time>2009-06-01T14:29:11Z</time>
      </trkpt>
      <trkpt lat="48.46445" lon="7.13914">
        <ele>553</ele>
        <time>2009-06-01T14:28:56Z</time>
      </trkpt>
      <trkpt lat="48.46437" lon="7.13903">
        <ele>552</ele>
        <time>2009-06-01T14:28:44Z</time>
      </trkpt>
      <trkpt lat="48.46417" lon="7.13898">
        <ele>552</ele>
        <time>2009-06-01T14:28:30Z</time>
      </trkpt>
      <trkpt lat="48.46402" lon="7.139">
        <ele>550</ele>
        <time>2009-06-01T14:28:17Z</time>
      </trkpt>
      <trkpt lat="48.46388" lon="7.13895">
        <ele>550</ele>
        <time>2009-06-01T14:28:04Z</time>
      </trkpt>
      <trkpt lat="48.46376" lon="7.13889">
        <ele>547</ele>
        <time>2009-06-01T14:27:50Z</time>
      </trkpt>
      <trkpt lat="48.46366" lon="7.13887">
        <ele>545</ele>
        <time>2009-06-01T14:27:40Z</time>
      </trkpt>
      <trkpt lat="48.46354" lon="7.13888">
        <ele>543</ele>
        <time>2009-06-01T14:27:27Z</time>
      </trkpt>
      <trkpt lat="48.4635" lon="7.13883">
        <ele>542</ele>
        <time>2009-06-01T14:27:22Z</time>
      </trkpt>
      <trkpt lat="48.46336" lon="7.13879">
        <ele>538</ele>
        <time>2009-06-01T14:27:08Z</time>
      </trkpt>
      <trkpt lat="48.46335" lon="7.13879">
        <ele>538</ele>
        <time>2009-06-01T14:27:07Z</time>
      </trkpt>
      <trkpt lat="48.46324" lon="7.13875">
        <ele>536</ele>
        <time>2009-06-01T14:26:55Z</time>
      </trkpt>
      <trkpt lat="48.46315" lon="7.13872">
        <ele>536</ele>
        <time>2009-06-01T14:26:44Z</time>
      </trkpt>
      <trkpt lat="48.46312" lon="7.13871">
        <ele>538</ele>
        <time>2009-06-01T14:26:41Z</time>
      </trkpt>
      <trkpt lat="48.46306" lon="7.13871">
        <ele>535</ele>
        <time>2009-06-01T14:26:36Z</time>
      </trkpt>
      <trkpt lat="48.46295" lon="7.13869">
        <ele>532</ele>
        <time>2009-06-01T14:26:24Z</time>
      </trkpt>
      <trkpt lat="48.46288" lon="7.13878">
        <ele>530</ele>
        <time>2009-06-01T14:26:12Z</time>
      </trkpt>
      <trkpt lat="48.46279" lon="7.1389">
        <ele>530</ele>
        <time>2009-06-01T14:25:59Z</time>
      </trkpt>
      <trkpt lat="48.46278" lon="7.13881">
        <ele>530</ele>
        <time>2009-06-01T14:25:48Z</time>
      </trkpt>
      <trkpt lat="48.46273" lon="7.13886">
        <ele>528</ele>
        <time>2009-06-01T14:25:30Z</time>
      </trkpt>
      <trkpt lat="48.46265" lon="7.13898">
        <ele>526</ele>
        <time>2009-06-01T14:25:19Z</time>
      </trkpt>
      <trkpt lat="48.46259" lon="7.13904">
        <ele>526</ele>
        <time>2009-06-01T14:25:03Z</time>
      </trkpt>
      <trkpt lat="48.46254" lon="7.13916">
        <ele>525</ele>
        <time>2009-06-01T14:24:47Z</time>
      </trkpt>
      <trkpt lat="48.46251" lon="7.1392">
        <ele>525</ele>
        <time>2009-06-01T14:24:43Z</time>
      </trkpt>
      <trkpt lat="48.46243" lon="7.13918">
        <ele>525</ele>
        <time>2009-06-01T14:24:30Z</time>
      </trkpt>
      <trkpt lat="48.46235" lon="7.13924">
        <ele>521</ele>
        <time>2009-06-01T14:24:19Z</time>
      </trkpt>
      <trkpt lat="48.46222" lon="7.13939">
        <ele>517</ele>
        <time>2009-06-01T14:24:04Z</time>
      </trkpt>
      <trkpt lat="48.4622" lon="7.13941">
        <ele>517</ele>
        <time>2009-06-01T14:23:40Z</time>
      </trkpt>
      <trkpt lat="48.46226" lon="7.13928">
        <ele>517</ele>
        <time>2009-06-01T14:22:35Z</time>
      </trkpt>
      <trkpt lat="48.46214" lon="7.13931">
        <ele>517</ele>
        <time>2009-06-01T14:22:17Z</time>
      </trkpt>
      <trkpt lat="48.46216" lon="7.13936">
        <ele>519</ele>
        <time>2009-06-01T14:22:14Z</time>
      </trkpt>
      <trkpt lat="48.46217" lon="7.13937">
        <ele>520</ele>
        <time>2009-06-01T14:22:13Z</time>
      </trkpt>
      <trkpt lat="48.46216" lon="7.13953">
        <ele>523</ele>
        <time>2009-06-01T14:22:04Z</time>
      </trkpt>
      <trkpt lat="48.46218" lon="7.1396">
        <ele>525</ele>
        <time>2009-06-01T14:22:01Z</time>
      </trkpt>
      <trkpt lat="48.46223" lon="7.13977">
        <ele>528</ele>
        <time>2009-06-01T14:21:53Z</time>
      </trkpt>
      <trkpt lat="48.46223" lon="7.13988">
        <ele>531</ele>
        <time>2009-06-01T14:21:46Z</time>
      </trkpt>
      <trkpt lat="48.4622" lon="7.14001">
        <ele>533</ele>
        <time>2009-06-01T14:21:31Z</time>
      </trkpt>
      <trkpt lat="48.4621" lon="7.14012">
        <ele>536</ele>
        <time>2009-06-01T14:21:18Z</time>
      </trkpt>
      <trkpt lat="48.46199" lon="7.14015">
        <ele>539</ele>
        <time>2009-06-01T14:21:08Z</time>
      </trkpt>
      <trkpt lat="48.46184" lon="7.14017">
        <ele>541</ele>
        <time>2009-06-01T14:20:55Z</time>
      </trkpt>
      <trkpt lat="48.46175" lon="7.14028">
        <ele>543</ele>
        <time>2009-06-01T14:20:22Z</time>
      </trkpt>
      <trkpt lat="48.46168" lon="7.14031">
        <ele>543</ele>
        <time>2009-06-01T14:20:09Z</time>
      </trkpt>
      <trkpt lat="48.46154" lon="7.14042">
        <ele>545</ele>
        <time>2009-06-01T14:19:55Z</time>
      </trkpt>
      <trkpt lat="48.46135" lon="7.14056">
        <ele>549</ele>
        <time>2009-06-01T14:19:39Z</time>
      </trkpt>
      <trkpt lat="48.46121" lon="7.14065">
        <ele>551</ele>
        <time>2009-06-01T14:19:22Z</time>
      </trkpt>
      <trkpt lat="48.46111" lon="7.14069">
        <ele>554</ele>
        <time>2009-06-01T14:19:10Z</time>
      </trkpt>
      <trkpt lat="48.46093" lon="7.14079">
        <ele>558</ele>
        <time>2009-06-01T14:18:54Z</time>
      </trkpt>
      <trkpt lat="48.46076" lon="7.14092">
        <ele>561</ele>
        <time>2009-06-01T14:18:37Z</time>
      </trkpt>
      <trkpt lat="48.46058" lon="7.14109">
        <ele>563</ele>
        <time>2009-06-01T14:18:17Z</time>
      </trkpt>
      <trkpt lat="48.46045" lon="7.14123">
        <ele>566</ele>
        <time>2009-06-01T14:18:00Z</time>
      </trkpt>
      <trkpt lat="48.4603" lon="7.1414">
        <ele>568</ele>
        <time>2009-06-01T14:17:42Z</time>
      </trkpt>
      <trkpt lat="48.46015" lon="7.14154">
        <ele>570</ele>
        <time>2009-06-01T14:17:25Z</time>
      </trkpt>
      <trkpt lat="48.45993" lon="7.14168">
        <ele>572</ele>
        <time>2009-06-01T14:17:06Z</time>
      </trkpt>
      <trkpt lat="48.45992" lon="7.1417">
        <ele>572</ele>
        <time>2009-06-01T14:17:04Z</time>
      </trkpt>
      <trkpt lat="48.45977" lon="7.14174">
        <ele>574</ele>
        <time>2009-06-01T14:16:47Z</time>
      </trkpt>
      <trkpt lat="48.45964" lon="7.14173">
        <ele>574</ele>
        <time>2009-06-01T14:16:34Z</time>
      </trkpt>
      <trkpt lat="48.4594" lon="7.14175">
        <ele>575</ele>
        <time>2009-06-01T14:16:18Z</time>
      </trkpt>
      <trkpt lat="48.45921" lon="7.14174">
        <ele>577</ele>
        <time>2009-06-01T14:16:02Z</time>
      </trkpt>
      <trkpt lat="48.45904" lon="7.14174">
        <ele>580</ele>
        <time>2009-06-01T14:15:44Z</time>
      </trkpt>
      <trkpt lat="48.45896" lon="7.14177">
        <ele>581</ele>
        <time>2009-06-01T14:15:33Z</time>
      </trkpt>
      <trkpt lat="48.45887" lon="7.14189">
        <ele>583</ele>
        <time>2009-06-01T14:15:16Z</time>
      </trkpt>
      <trkpt lat="48.45878" lon="7.14196">
        <ele>584</ele>
        <time>2009-06-01T14:14:59Z</time>
      </trkpt>
      <trkpt lat="48.45873" lon="7.142">
        <ele>585</ele>
        <time>2009-06-01T14:14:43Z</time>
      </trkpt>
      <trkpt lat="48.45863" lon="7.14213">
        <ele>587</ele>
        <time>2009-06-01T14:14:24Z</time>
      </trkpt>
      <trkpt lat="48.45851" lon="7.14232">
        <ele>589</ele>
        <time>2009-06-01T14:14:05Z</time>
      </trkpt>
      <trkpt lat="48.45846" lon="7.14235">
        <ele>589</ele>
        <time>2009-06-01T14:13:49Z</time>
      </trkpt>
      <trkpt lat="48.45846" lon="7.14234">
        <ele>590</ele>
        <time>2009-06-01T14:13:23Z</time>
      </trkpt>
      <trkpt lat="48.45847" lon="7.14234">
        <ele>590</ele>
        <time>2009-06-01T14:12:58Z</time>
      </trkpt>
      <trkpt lat="48.4585" lon="7.14238">
        <ele>589</ele>
        <time>2009-06-01T14:11:58Z</time>
      </trkpt>
      <trkpt lat="48.4585" lon="7.14236">
        <ele>589</ele>
        <time>2009-06-01T14:11:30Z</time>
      </trkpt>
      <trkpt lat="48.45852" lon="7.14235">
        <ele>589</ele>
        <time>2009-06-01T14:11:02Z</time>
      </trkpt>
      <trkpt lat="48.45849" lon="7.14235">
        <ele>589</ele>
        <time>2009-06-01T14:10:37Z</time>
      </trkpt>
      <trkpt lat="48.4585" lon="7.14235">
        <ele>589</ele>
        <time>2009-06-01T14:10:04Z</time>
      </trkpt>
      <trkpt lat="48.45848" lon="7.14229">
        <ele>589</ele>
        <time>2009-06-01T14:09:23Z</time>
      </trkpt>
      <trkpt lat="48.45848" lon="7.14234">
        <ele>589</ele>
        <time>2009-06-01T14:08:27Z</time>
      </trkpt>
      <trkpt lat="48.45849" lon="7.14236">
        <ele>589</ele>
        <time>2009-06-01T14:08:04Z</time>
      </trkpt>
      <trkpt lat="48.45849" lon="7.14236">
        <ele>588</ele>
        <time>2009-06-01T14:07:40Z</time>
      </trkpt>
      <trkpt lat="48.45847" lon="7.14235">
        <ele>588</ele>
        <time>2009-06-01T14:06:44Z</time>
      </trkpt>
      <trkpt lat="48.45849" lon="7.14233">
        <ele>589</ele>
        <time>2009-06-01T14:06:14Z</time>
      </trkpt>
      <trkpt lat="48.45846" lon="7.14234">
        <ele>588</ele>
        <time>2009-06-01T14:05:47Z</time>
      </trkpt>
      <trkpt lat="48.45845" lon="7.14235">
        <ele>589</ele>
        <time>2009-06-01T14:04:32Z</time>
      </trkpt>
      <trkpt lat="48.45846" lon="7.14236">
        <ele>589</ele>
        <time>2009-06-01T14:03:17Z</time>
      </trkpt>
      <trkpt lat="48.45845" lon="7.14238">
        <ele>589</ele>
        <time>2009-06-01T14:02:28Z</time>
      </trkpt>
      <trkpt lat="48.45852" lon="7.14234">
        <ele>588</ele>
        <time>2009-06-01T14:01:06Z</time>
      </trkpt>
      <trkpt lat="48.45849" lon="7.14234">
        <ele>588</ele>
        <time>2009-06-01T13:59:59Z</time>
      </trkpt>
      <trkpt lat="48.45848" lon="7.14233">
        <ele>589</ele>
        <time>2009-06-01T13:59:13Z</time>
      </trkpt>
      <trkpt lat="48.4585" lon="7.14234">
        <ele>588</ele>
        <time>2009-06-01T13:58:37Z</time>
      </trkpt>
      <trkpt lat="48.45849" lon="7.14235">
        <ele>588</ele>
        <time>2009-06-01T13:58:11Z</time>
      </trkpt>
      <trkpt lat="48.45848" lon="7.14234">
        <ele>588</ele>
        <time>2009-06-01T13:57:40Z</time>
      </trkpt>
      <trkpt lat="48.45848" lon="7.14234">
        <ele>588</ele>
        <time>2009-06-01T13:57:08Z</time>
      </trkpt>
      <trkpt lat="48.45847" lon="7.14233">
        <ele>588</ele>
        <time>2009-06-01T13:55:57Z</time>
      </trkpt>
      <trkpt lat="48.45847" lon="7.14234">
        <ele>589</ele>
        <time>2009-06-01T13:54:57Z</time>
      </trkpt>
      <trkpt lat="48.45849" lon="7.14234">
        <ele>590</ele>
        <time>2009-06-01T13:53:55Z</time>
      </trkpt>
      <trkpt lat="48.45851" lon="7.14235">
        <ele>589</ele>
        <time>2009-06-01T13:53:07Z</time>
      </trkpt>
      <trkpt lat="48.4585" lon="7.14235">
        <ele>589</ele>
        <time>2009-06-01T13:52:30Z</time>
      </trkpt>
      <trkpt lat="48.45852" lon="7.14235">
        <ele>590</ele>
        <time>2009-06-01T13:52:04Z</time>
      </trkpt>
      <trkpt lat="48.45849" lon="7.14233">
        <ele>589</ele>
        <time>2009-06-01T13:51:38Z</time>
      </trkpt>
      <trkpt lat="48.45848" lon="7.14237">
        <ele>589</ele>
        <time>2009-06-01T13:51:11Z</time>
      </trkpt>
      <trkpt lat="48.45847" lon="7.14237">
        <ele>589</ele>
        <time>2009-06-01T13:50:40Z</time>
      </trkpt>
      <trkpt lat="48.45847" lon="7.14237">
        <ele>589</ele>
        <time>2009-06-01T13:49:28Z</time>
      </trkpt>
      <trkpt lat="48.45848" lon="7.14237">
        <ele>589</ele>
        <time>2009-06-01T13:48:44Z</time>
      </trkpt>
      <trkpt lat="48.45848" lon="7.14233">
        <ele>589</ele>
        <time>2009-06-01T13:47:59Z</time>
      </trkpt>
      <trkpt lat="48.45847" lon="7.14235">
        <ele>588</ele>
        <time>2009-06-01T13:47:31Z</time>
      </trkpt>
      <trkpt lat="48.45848" lon="7.14236">
        <ele>588</ele>
        <time>2009-06-01T13:45:45Z</time>
      </trkpt>
      <trkpt lat="48.45849" lon="7.14233">
        <ele>588</ele>
        <time>2009-06-01T13:45:07Z</time>
      </trkpt>
      <trkpt lat="48.45847" lon="7.14237">
        <ele>588</ele>
        <time>2009-06-01T13:44:45Z</time>
      </trkpt>
      <trkpt lat="48.45848" lon="7.14236">
        <ele>588</ele>
        <time>2009-06-01T13:44:12Z</time>
      </trkpt>
      <trkpt lat="48.45845" lon="7.14235">
        <ele>588</ele>
        <time>2009-06-01T13:38:27Z</time>
      </trkpt>
      <trkpt lat="48.45847" lon="7.14233">
        <ele>589</ele>
        <time>2009-06-01T13:28:18Z</time>
      </trkpt>
      <trkpt lat="48.45847" lon="7.14233">
        <ele>591</ele>
        <time>2009-06-01T13:23:25Z</time>
      </trkpt>
      <trkpt lat="48.45847" lon="7.14234">
        <ele>592</ele>
        <time>2009-06-01T13:18:01Z</time>
      </trkpt>
      <trkpt lat="48.45847" lon="7.14232">
        <ele>592</ele>
        <time>2009-06-01T13:13:34Z</time>
      </trkpt>
      <trkpt lat="48.45847" lon="7.14231">
        <ele>593</ele>
        <time>2009-06-01T13:13:13Z</time>
      </trkpt>
      <trkpt lat="48.45847" lon="7.14231">
        <ele>597</ele>
        <time>2009-06-01T13:13:12Z</time>
      </trkpt>
      <trkpt lat="48.45847" lon="7.1423">
        <ele>589</ele>
        <time>2009-06-01T13:13:11Z</time>
      </trkpt>
      <trkpt lat="48.45847" lon="7.1423">
        <ele>593</ele>
        <time>2009-06-01T13:13:10Z</time>
      </trkpt>
      <trkpt lat="48.45847" lon="7.14232">
        <ele>592</ele>
        <time>2009-06-01T13:12:48Z</time>
      </trkpt>
      <trkpt lat="48.45854" lon="7.14235">
        <ele>593</ele>
        <time>2009-06-01T13:12:20Z</time>
      </trkpt>
      <trkpt lat="48.45857" lon="7.14239">
        <ele>592</ele>
        <time>2009-06-01T13:12:08Z</time>
      </trkpt>
      <trkpt lat="48.45852" lon="7.14234">
        <ele>593</ele>
        <time>2009-06-01T13:11:51Z</time>
      </trkpt>
      <trkpt lat="48.45849" lon="7.14232">
        <ele>593</ele>
        <time>2009-06-01T13:11:48Z</time>
      </trkpt>
      <trkpt lat="48.45847" lon="7.14233">
        <ele>593</ele>
        <time>2009-06-01T13:11:29Z</time>
      </trkpt>
      <trkpt lat="48.4585" lon="7.14237">
        <ele>593</ele>
        <time>2009-06-01T13:11:15Z</time>
      </trkpt>
      <trkpt lat="48.45853" lon="7.14239">
        <ele>593</ele>
        <time>2009-06-01T13:10:55Z</time>
      </trkpt>
      <trkpt lat="48.45838" lon="7.14244">
        <ele>594</ele>
        <time>2009-06-01T13:10:40Z</time>
      </trkpt>
      <trkpt lat="48.45819" lon="7.14265">
        <ele>597</ele>
        <time>2009-06-01T13:10:24Z</time>
      </trkpt>
      <trkpt lat="48.45802" lon="7.14286">
        <ele>600</ele>
        <time>2009-06-01T13:10:09Z</time>
      </trkpt>
      <trkpt lat="48.45796" lon="7.1429">
        <ele>601</ele>
        <time>2009-06-01T13:10:05Z</time>
      </trkpt>
      <trkpt lat="48.4578" lon="7.14309">
        <ele>603</ele>
        <time>2009-06-01T13:09:52Z</time>
      </trkpt>
      <trkpt lat="48.4576" lon="7.14331">
        <ele>607</ele>
        <time>2009-06-01T13:09:40Z</time>
      </trkpt>
      <trkpt lat="48.45758" lon="7.14336">
        <ele>607</ele>
        <time>2009-06-01T13:09:38Z</time>
      </trkpt>
      <trkpt lat="48.45748" lon="7.14349">
        <ele>609</ele>
        <time>2009-06-01T13:09:31Z</time>
      </trkpt>
      <trkpt lat="48.4574" lon="7.14369">
        <ele>612</ele>
        <time>2009-06-01T13:09:17Z</time>
      </trkpt>
      <trkpt lat="48.45738" lon="7.14375">
        <ele>612</ele>
        <time>2009-06-01T13:09:13Z</time>
      </trkpt>
      <trkpt lat="48.45737" lon="7.14379">
        <ele>612</ele>
        <time>2009-06-01T13:09:11Z</time>
      </trkpt>
      <trkpt lat="48.45727" lon="7.14399">
        <ele>614</ele>
        <time>2009-06-01T13:08:59Z</time>
      </trkpt>
      <trkpt lat="48.45719" lon="7.14419">
        <ele>616</ele>
        <time>2009-06-01T13:08:46Z</time>
      </trkpt>
      <trkpt lat="48.45706" lon="7.14442">
        <ele>619</ele>
        <time>2009-06-01T13:08:30Z</time>
      </trkpt>
      <trkpt lat="48.45697" lon="7.14463">
        <ele>620</ele>
        <time>2009-06-01T13:08:16Z</time>
      </trkpt>
      <trkpt lat="48.45696" lon="7.1447">
        <ele>622</ele>
        <time>2009-06-01T13:08:12Z</time>
      </trkpt>
      <trkpt lat="48.45695" lon="7.14473">
        <ele>622</ele>
        <time>2009-06-01T13:08:10Z</time>
      </trkpt>
      <trkpt lat="48.45694" lon="7.14477">
        <ele>622</ele>
        <time>2009-06-01T13:08:08Z</time>
      </trkpt>
      <trkpt lat="48.45693" lon="7.1448">
        <ele>622</ele>
        <time>2009-06-01T13:08:06Z</time>
      </trkpt>
      <trkpt lat="48.45685" lon="7.14498">
        <ele>624</ele>
        <time>2009-06-01T13:07:54Z</time>
      </trkpt>
      <trkpt lat="48.45678" lon="7.14526">
        <ele>625</ele>
        <time>2009-06-01T13:07:37Z</time>
      </trkpt>
      <trkpt lat="48.45668" lon="7.14548">
        <ele>625</ele>
        <time>2009-06-01T13:07:24Z</time>
      </trkpt>
      <trkpt lat="48.45661" lon="7.14568">
        <ele>628</ele>
        <time>2009-06-01T13:07:11Z</time>
      </trkpt>
      <trkpt lat="48.45655" lon="7.1459">
        <ele>629</ele>
        <time>2009-06-01T13:06:59Z</time>
      </trkpt>
      <trkpt lat="48.45649" lon="7.14609">
        <ele>630</ele>
        <time>2009-06-01T13:06:47Z</time>
      </trkpt>
      <trkpt lat="48.45638" lon="7.14639">
        <ele>631</ele>
        <time>2009-06-01T13:06:29Z</time>
      </trkpt>
      <trkpt lat="48.45633" lon="7.14663">
        <ele>633</ele>
        <time>2009-06-01T13:06:13Z</time>
      </trkpt>
      <trkpt lat="48.45628" lon="7.1469">
        <ele>634</ele>
        <time>2009-06-01T13:05:55Z</time>
      </trkpt>
      <trkpt lat="48.45626" lon="7.14702">
        <ele>635</ele>
        <time>2009-06-01T13:05:47Z</time>
      </trkpt>
      <trkpt lat="48.45621" lon="7.14711">
        <ele>635</ele>
        <time>2009-06-01T13:05:37Z</time>
      </trkpt>
      <trkpt lat="48.4562" lon="7.14717">
        <ele>636</ele>
        <time>2009-06-01T13:05:19Z</time>
      </trkpt>
      <trkpt lat="48.45616" lon="7.14721">
        <ele>637</ele>
        <time>2009-06-01T13:05:06Z</time>
      </trkpt>
      <trkpt lat="48.45605" lon="7.14736">
        <ele>637</ele>
        <time>2009-06-01T13:04:54Z</time>
      </trkpt>
      <trkpt lat="48.45592" lon="7.14752">
        <ele>639</ele>
        <time>2009-06-01T13:04:39Z</time>
      </trkpt>
      <trkpt lat="48.45592" lon="7.14754">
        <ele>637</ele>
        <time>2009-06-01T13:04:38Z</time>
      </trkpt>
      <trkpt lat="48.45586" lon="7.14766">
        <ele>640</ele>
        <time>2009-06-01T13:04:30Z</time>
      </trkpt>
      <trkpt lat="48.45577" lon="7.14774">
        <ele>642</ele>
        <time>2009-06-01T13:04:24Z</time>
      </trkpt>
      <trkpt lat="48.45566" lon="7.14788">
        <ele>643</ele>
        <time>2009-06-01T13:04:11Z</time>
      </trkpt>
      <trkpt lat="48.45553" lon="7.14806">
        <ele>643</ele>
        <time>2009-06-01T13:03:55Z</time>
      </trkpt>
      <trkpt lat="48.45551" lon="7.14808">
        <ele>644</ele>
        <time>2009-06-01T13:03:53Z</time>
      </trkpt>
      <trkpt lat="48.45551" lon="7.1481">
        <ele>647</ele>
        <time>2009-06-01T13:03:52Z</time>
      </trkpt>
      <trkpt lat="48.4555" lon="7.14811">
        <ele>641</ele>
        <time>2009-06-01T13:03:51Z</time>
      </trkpt>
      <trkpt lat="48.45543" lon="7.14818">
        <ele>644</ele>
        <time>2009-06-01T13:03:45Z</time>
      </trkpt>
      <trkpt lat="48.45527" lon="7.14836">
        <ele>642</ele>
        <time>2009-06-01T13:03:26Z</time>
      </trkpt>
      <trkpt lat="48.45508" lon="7.14849">
        <ele>641</ele>
        <time>2009-06-01T13:03:09Z</time>
      </trkpt>
      <trkpt lat="48.45506" lon="7.1485">
        <ele>643</ele>
        <time>2009-06-01T13:03:07Z</time>
      </trkpt>
      <trkpt lat="48.45505" lon="7.14851">
        <ele>643</ele>
        <time>2009-06-01T13:03:06Z</time>
      </trkpt>
      <trkpt lat="48.45504" lon="7.14852">
        <ele>638</ele>
        <time>2009-06-01T13:03:05Z</time>
      </trkpt>
      <trkpt lat="48.455" lon="7.14854">
        <ele>641</ele>
        <time>2009-06-01T13:03:02Z</time>
      </trkpt>
      <trkpt lat="48.45498" lon="7.14856">
        <ele>644</ele>
        <time>2009-06-01T13:03:00Z</time>
      </trkpt>
      <trkpt lat="48.45492" lon="7.14861">
        <ele>641</ele>
        <time>2009-06-01T13:02:54Z</time>
      </trkpt>
      <trkpt lat="48.45491" lon="7.14861">
        <ele>637</ele>
        <time>2009-06-01T13:02:53Z</time>
      </trkpt>
      <trkpt lat="48.45486" lon="7.14864">
        <ele>640</ele>
        <time>2009-06-01T13:02:49Z</time>
      </trkpt>
      <trkpt lat="48.45468" lon="7.14874">
        <ele>640</ele>
        <time>2009-06-01T13:02:32Z</time>
      </trkpt>
      <trkpt lat="48.45445" lon="7.1488">
        <ele>638</ele>
        <time>2009-06-01T13:02:14Z</time>
      </trkpt>
      <trkpt lat="48.45422" lon="7.14883">
        <ele>638</ele>
        <time>2009-06-01T13:01:53Z</time>
      </trkpt>
      <trkpt lat="48.45405" lon="7.14876">
        <ele>636</ele>
        <time>2009-06-01T13:01:38Z</time>
      </trkpt>
      <trkpt lat="48.45401" lon="7.14872">
        <ele>638</ele>
        <time>2009-06-01T13:01:27Z</time>
      </trkpt>
      <trkpt lat="48.45401" lon="7.14872">
        <ele>637</ele>
        <time>2009-06-01T13:01:12Z</time>
      </trkpt>
      <trkpt lat="48.45388" lon="7.14858">
        <ele>636</ele>
        <time>2009-06-01T13:00:50Z</time>
      </trkpt>
      <trkpt lat="48.45379" lon="7.14838">
        <ele>636</ele>
        <time>2009-06-01T13:00:31Z</time>
      </trkpt>
      <trkpt lat="48.45368" lon="7.14812">
        <ele>636</ele>
        <time>2009-06-01T13:00:10Z</time>
      </trkpt>
      <trkpt lat="48.45357" lon="7.14784">
        <ele>635</ele>
        <time>2009-06-01T12:59:50Z</time>
      </trkpt>
      <trkpt lat="48.45343" lon="7.14755">
        <ele>633</ele>
        <time>2009-06-01T12:59:32Z</time>
      </trkpt>
      <trkpt lat="48.45337" lon="7.14739">
        <ele>634</ele>
        <time>2009-06-01T12:59:22Z</time>
      </trkpt>
      <trkpt lat="48.45326" lon="7.14712">
        <ele>633</ele>
        <time>2009-06-01T12:59:06Z</time>
      </trkpt>
      <trkpt lat="48.45322" lon="7.14705">
        <ele>633</ele>
        <time>2009-06-01T12:59:02Z</time>
      </trkpt>
      <trkpt lat="48.45321" lon="7.14704">
        <ele>637</ele>
        <time>2009-06-01T12:59:01Z</time>
      </trkpt>
      <trkpt lat="48.4532" lon="7.14703">
        <ele>631</ele>
        <time>2009-06-01T12:59:00Z</time>
      </trkpt>
      <trkpt lat="48.45317" lon="7.147">
        <ele>634</ele>
        <time>2009-06-01T12:58:57Z</time>
      </trkpt>
      <trkpt lat="48.45316" lon="7.14699">
        <ele>630</ele>
        <time>2009-06-01T12:58:56Z</time>
      </trkpt>
      <trkpt lat="48.45315" lon="7.14697">
        <ele>638</ele>
        <time>2009-06-01T12:58:55Z</time>
      </trkpt>
      <trkpt lat="48.45312" lon="7.14694">
        <ele>633</ele>
        <time>2009-06-01T12:58:52Z</time>
      </trkpt>
      <trkpt lat="48.45312" lon="7.14692">
        <ele>628</ele>
        <time>2009-06-01T12:58:51Z</time>
      </trkpt>
      <trkpt lat="48.4531" lon="7.14688">
        <ele>633</ele>
        <time>2009-06-01T12:58:48Z</time>
      </trkpt>
      <trkpt lat="48.45303" lon="7.14678">
        <ele>633</ele>
        <time>2009-06-01T12:58:40Z</time>
      </trkpt>
      <trkpt lat="48.4529" lon="7.14666">
        <ele>632</ele>
        <time>2009-06-01T12:58:29Z</time>
      </trkpt>
      <trkpt lat="48.45277" lon="7.14655">
        <ele>632</ele>
        <time>2009-06-01T12:58:17Z</time>
      </trkpt>
      <trkpt lat="48.45262" lon="7.14644">
        <ele>631</ele>
        <time>2009-06-01T12:58:03Z</time>
      </trkpt>
      <trkpt lat="48.45248" lon="7.14638">
        <ele>630</ele>
        <time>2009-06-01T12:57:48Z</time>
      </trkpt>
      <trkpt lat="48.45229" lon="7.1463">
        <ele>630</ele>
        <time>2009-06-01T12:57:33Z</time>
      </trkpt>
      <trkpt lat="48.4522" lon="7.14619">
        <ele>630</ele>
        <time>2009-06-01T12:57:21Z</time>
      </trkpt>
      <trkpt lat="48.45206" lon="7.14597">
        <ele>630</ele>
        <time>2009-06-01T12:57:03Z</time>
      </trkpt>
      <trkpt lat="48.452" lon="7.1459">
        <ele>629</ele>
        <time>2009-06-01T12:56:57Z</time>
      </trkpt>
      <trkpt lat="48.45193" lon="7.1457">
        <ele>629</ele>
        <time>2009-06-01T12:56:45Z</time>
      </trkpt>
      <trkpt lat="48.45188" lon="7.1456">
        <ele>628</ele>
        <time>2009-06-01T12:56:37Z</time>
      </trkpt>
      <trkpt lat="48.45176" lon="7.14538">
        <ele>628</ele>
        <time>2009-06-01T12:56:21Z</time>
      </trkpt>
      <trkpt lat="48.45167" lon="7.14506">
        <ele>628</ele>
        <time>2009-06-01T12:56:05Z</time>
      </trkpt>
      <trkpt lat="48.45156" lon="7.14483">
        <ele>628</ele>
        <time>2009-06-01T12:55:50Z</time>
      </trkpt>
      <trkpt lat="48.45141" lon="7.14469">
        <ele>628</ele>
        <time>2009-06-01T12:55:33Z</time>
      </trkpt>
      <trkpt lat="48.45128" lon="7.14446">
        <ele>627</ele>
        <time>2009-06-01T12:55:19Z</time>
      </trkpt>
      <trkpt lat="48.45121" lon="7.14435">
        <ele>627</ele>
        <time>2009-06-01T12:55:09Z</time>
      </trkpt>
      <trkpt lat="48.45104" lon="7.14432">
        <ele>626</ele>
        <time>2009-06-01T12:54:56Z</time>
      </trkpt>
      <trkpt lat="48.45083" lon="7.14432">
        <ele>626</ele>
        <time>2009-06-01T12:54:40Z</time>
      </trkpt>
      <trkpt lat="48.45083" lon="7.14433">
        <ele>626</ele>
        <time>2009-06-01T12:54:39Z</time>
      </trkpt>
      <trkpt lat="48.45072" lon="7.14437">
        <ele>625</ele>
        <time>2009-06-01T12:54:28Z</time>
      </trkpt>
      <trkpt lat="48.45061" lon="7.14454">
        <ele>625</ele>
        <time>2009-06-01T12:54:11Z</time>
      </trkpt>
      <trkpt lat="48.4506" lon="7.14474">
        <ele>625</ele>
        <time>2009-06-01T12:53:58Z</time>
      </trkpt>
      <trkpt lat="48.45053" lon="7.14497">
        <ele>625</ele>
        <time>2009-06-01T12:53:43Z</time>
      </trkpt>
      <trkpt lat="48.45046" lon="7.14519">
        <ele>624</ele>
        <time>2009-06-01T12:53:27Z</time>
      </trkpt>
      <trkpt lat="48.45036" lon="7.14547">
        <ele>624</ele>
        <time>2009-06-01T12:53:11Z</time>
      </trkpt>
      <trkpt lat="48.45035" lon="7.14557">
        <ele>623</ele>
        <time>2009-06-01T12:53:06Z</time>
      </trkpt>
      <trkpt lat="48.45028" lon="7.14582">
        <ele>622</ele>
        <time>2009-06-01T12:52:49Z</time>
      </trkpt>
      <trkpt lat="48.45018" lon="7.1461">
        <ele>622</ele>
        <time>2009-06-01T12:52:31Z</time>
      </trkpt>
      <trkpt lat="48.45015" lon="7.14614">
        <ele>623</ele>
        <time>2009-06-01T12:52:28Z</time>
      </trkpt>
      <trkpt lat="48.45013" lon="7.14617">
        <ele>625</ele>
        <time>2009-06-01T12:52:25Z</time>
      </trkpt>
      <trkpt lat="48.45013" lon="7.14618">
        <ele>621</ele>
        <time>2009-06-01T12:52:24Z</time>
      </trkpt>
      <trkpt lat="48.45013" lon="7.14619">
        <ele>625</ele>
        <time>2009-06-01T12:52:23Z</time>
      </trkpt>
      <trkpt lat="48.45012" lon="7.14621">
        <ele>622</ele>
        <time>2009-06-01T12:52:22Z</time>
      </trkpt>
      <trkpt lat="48.45011" lon="7.14622">
        <ele>618</ele>
        <time>2009-06-01T12:52:21Z</time>
      </trkpt>
      <trkpt lat="48.45" lon="7.14634">
        <ele>622</ele>
        <time>2009-06-01T12:52:08Z</time>
      </trkpt>
      <trkpt lat="48.44994" lon="7.14661">
        <ele>620</ele>
        <time>2009-06-01T12:51:51Z</time>
      </trkpt>
      <trkpt lat="48.44996" lon="7.14679">
        <ele>620</ele>
        <time>2009-06-01T12:51:42Z</time>
      </trkpt>
      <trkpt lat="48.44992" lon="7.14688">
        <ele>619</ele>
        <time>2009-06-01T12:51:37Z</time>
      </trkpt>
      <trkpt lat="48.44989" lon="7.14705">
        <ele>620</ele>
        <time>2009-06-01T12:51:27Z</time>
      </trkpt>
      <trkpt lat="48.44985" lon="7.14733">
        <ele>619</ele>
        <time>2009-06-01T12:51:13Z</time>
      </trkpt>
      <trkpt lat="48.44983" lon="7.14738">
        <ele>619</ele>
        <time>2009-06-01T12:51:11Z</time>
      </trkpt>
      <trkpt lat="48.44973" lon="7.14767">
        <ele>618</ele>
        <time>2009-06-01T12:50:54Z</time>
      </trkpt>
      <trkpt lat="48.44964" lon="7.14796">
        <ele>617</ele>
        <time>2009-06-01T12:50:39Z</time>
      </trkpt>
      <trkpt lat="48.44962" lon="7.14803">
        <ele>617</ele>
        <time>2009-06-01T12:50:36Z</time>
      </trkpt>
      <trkpt lat="48.44952" lon="7.14832">
        <ele>617</ele>
        <time>2009-06-01T12:50:21Z</time>
      </trkpt>
      <trkpt lat="48.44952" lon="7.14843">
        <ele>616</ele>
        <time>2009-06-01T12:50:16Z</time>
      </trkpt>
      <trkpt lat="48.4495" lon="7.14852">
        <ele>615</ele>
        <time>2009-06-01T12:50:11Z</time>
      </trkpt>
      <trkpt lat="48.44946" lon="7.14862">
        <ele>616</ele>
        <time>2009-06-01T12:50:05Z</time>
      </trkpt>
      <trkpt lat="48.44946" lon="7.14866">
        <ele>615</ele>
        <time>2009-06-01T12:50:03Z</time>
      </trkpt>
      <trkpt lat="48.44943" lon="7.14887">
        <ele>614</ele>
        <time>2009-06-01T12:49:52Z</time>
      </trkpt>
      <trkpt lat="48.44943" lon="7.14889">
        <ele>617</ele>
        <time>2009-06-01T12:49:51Z</time>
      </trkpt>
      <trkpt lat="48.44943" lon="7.14891">
        <ele>612</ele>
        <time>2009-06-01T12:49:50Z</time>
      </trkpt>
      <trkpt lat="48.44942" lon="7.14901">
        <ele>614</ele>
        <time>2009-06-01T12:49:44Z</time>
      </trkpt>
      <trkpt lat="48.44937" lon="7.14924">
        <ele>613</ele>
        <time>2009-06-01T12:49:30Z</time>
      </trkpt>
      <trkpt lat="48.44934" lon="7.14931">
        <ele>613</ele>
        <time>2009-06-01T12:49:25Z</time>
      </trkpt>
      <trkpt lat="48.4493" lon="7.14949">
        <ele>612</ele>
        <time>2009-06-01T12:48:57Z</time>
      </trkpt>
      <trkpt lat="48.44929" lon="7.1495">
        <ele>611</ele>
        <time>2009-06-01T12:47:56Z</time>
      </trkpt>
      <trkpt lat="48.4492" lon="7.14946">
        <ele>611</ele>
        <time>2009-06-01T12:47:23Z</time>
      </trkpt>
      <trkpt lat="48.44909" lon="7.14945">
        <ele>611</ele>
        <time>2009-06-01T12:46:44Z</time>
      </trkpt>
      <trkpt lat="48.44902" lon="7.14965">
        <ele>610</ele>
        <time>2009-06-01T12:46:28Z</time>
      </trkpt>
      <trkpt lat="48.44886" lon="7.14976">
        <ele>609</ele>
        <time>2009-06-01T12:46:11Z</time>
      </trkpt>
      <trkpt lat="48.44867" lon="7.14984">
        <ele>609</ele>
        <time>2009-06-01T12:45:56Z</time>
      </trkpt>
      <trkpt lat="48.44851" lon="7.14981">
        <ele>607</ele>
        <time>2009-06-01T12:45:38Z</time>
      </trkpt>
      <trkpt lat="48.44846" lon="7.14981">
        <ele>607</ele>
        <time>2009-06-01T12:45:31Z</time>
      </trkpt>
      <trkpt lat="48.44838" lon="7.1499">
        <ele>607</ele>
        <time>2009-06-01T12:45:16Z</time>
      </trkpt>
      <trkpt lat="48.44822" lon="7.15004">
        <ele>605</ele>
        <time>2009-06-01T12:45:02Z</time>
      </trkpt>
      <trkpt lat="48.44811" lon="7.15012">
        <ele>605</ele>
        <time>2009-06-01T12:44:51Z</time>
      </trkpt>
      <trkpt lat="48.44804" lon="7.15005">
        <ele>604</ele>
        <time>2009-06-01T12:44:34Z</time>
      </trkpt>
      <trkpt lat="48.44785" lon="7.15003">
        <ele>604</ele>
        <time>2009-06-01T12:44:11Z</time>
      </trkpt>
      <trkpt lat="48.44784" lon="7.15004">
        <ele>607</ele>
        <time>2009-06-01T12:44:10Z</time>
      </trkpt>
      <trkpt lat="48.44782" lon="7.15006">
        <ele>600</ele>
        <time>2009-06-01T12:44:09Z</time>
      </trkpt>
      <trkpt lat="48.44781" lon="7.15006">
        <ele>607</ele>
        <time>2009-06-01T12:44:08Z</time>
      </trkpt>
      <trkpt lat="48.44781" lon="7.15007">
        <ele>600</ele>
        <time>2009-06-01T12:44:07Z</time>
      </trkpt>
      <trkpt lat="48.44779" lon="7.1501">
        <ele>607</ele>
        <time>2009-06-01T12:44:04Z</time>
      </trkpt>
      <trkpt lat="48.44775" lon="7.15015">
        <ele>602</ele>
        <time>2009-06-01T12:43:57Z</time>
      </trkpt>
      <trkpt lat="48.44763" lon="7.15026">
        <ele>602</ele>
        <time>2009-06-01T12:43:43Z</time>
      </trkpt>
      <trkpt lat="48.44742" lon="7.15043">
        <ele>601</ele>
        <time>2009-06-01T12:43:29Z</time>
      </trkpt>
      <trkpt lat="48.44733" lon="7.15051">
        <ele>601</ele>
        <time>2009-06-01T12:43:18Z</time>
      </trkpt>
      <trkpt lat="48.44724" lon="7.15062">
        <ele>600</ele>
        <time>2009-06-01T12:43:06Z</time>
      </trkpt>
      <trkpt lat="48.44711" lon="7.15077">
        <ele>599</ele>
        <time>2009-06-01T12:42:52Z</time>
      </trkpt>
      <trkpt lat="48.44701" lon="7.15097">
        <ele>598</ele>
        <time>2009-06-01T12:42:38Z</time>
      </trkpt>
      <trkpt lat="48.44688" lon="7.15116">
        <ele>597</ele>
        <time>2009-06-01T12:42:23Z</time>
      </trkpt>
      <trkpt lat="48.44685" lon="7.15118">
        <ele>597</ele>
        <time>2009-06-01T12:42:21Z</time>
      </trkpt>
      <trkpt lat="48.44668" lon="7.15128">
        <ele>597</ele>
        <time>2009-06-01T12:42:05Z</time>
      </trkpt>
      <trkpt lat="48.44647" lon="7.15133">
        <ele>596</ele>
        <time>2009-06-01T12:41:51Z</time>
      </trkpt>
      <trkpt lat="48.44635" lon="7.15115">
        <ele>595</ele>
        <time>2009-06-01T12:41:37Z</time>
      </trkpt>
      <trkpt lat="48.44631" lon="7.15115">
        <ele>595</ele>
        <time>2009-06-01T12:41:34Z</time>
      </trkpt>
      <trkpt lat="48.44616" lon="7.15113">
        <ele>595</ele>
        <time>2009-06-01T12:41:22Z</time>
      </trkpt>
      <trkpt lat="48.44599" lon="7.15106">
        <ele>594</ele>
        <time>2009-06-01T12:41:07Z</time>
      </trkpt>
      <trkpt lat="48.4458" lon="7.15103">
        <ele>593</ele>
        <time>2009-06-01T12:40:53Z</time>
      </trkpt>
      <trkpt lat="48.44577" lon="7.15098">
        <ele>593</ele>
        <time>2009-06-01T12:40:48Z</time>
      </trkpt>
      <trkpt lat="48.44558" lon="7.15091">
        <ele>592</ele>
        <time>2009-06-01T12:40:33Z</time>
      </trkpt>
      <trkpt lat="48.44545" lon="7.15089">
        <ele>591</ele>
        <time>2009-06-01T12:40:20Z</time>
      </trkpt>
      <trkpt lat="48.44532" lon="7.15078">
        <ele>591</ele>
        <time>2009-06-01T12:40:07Z</time>
      </trkpt>
      <trkpt lat="48.44523" lon="7.15074">
        <ele>590</ele>
        <time>2009-06-01T12:39:57Z</time>
      </trkpt>
      <trkpt lat="48.44513" lon="7.1506">
        <ele>589</ele>
        <time>2009-06-01T12:39:44Z</time>
      </trkpt>
      <trkpt lat="48.44506" lon="7.15045">
        <ele>588</ele>
        <time>2009-06-01T12:39:32Z</time>
      </trkpt>
      <trkpt lat="48.44493" lon="7.15033">
        <ele>588</ele>
        <time>2009-06-01T12:39:18Z</time>
      </trkpt>
      <trkpt lat="48.44483" lon="7.15026">
        <ele>587</ele>
        <time>2009-06-01T12:39:09Z</time>
      </trkpt>
      <trkpt lat="48.44473" lon="7.15022">
        <ele>586</ele>
        <time>2009-06-01T12:39:01Z</time>
      </trkpt>
      <trkpt lat="48.44465" lon="7.15018">
        <ele>586</ele>
        <time>2009-06-01T12:38:52Z</time>
      </trkpt>
      <trkpt lat="48.44455" lon="7.15012">
        <ele>586</ele>
        <time>2009-06-01T12:38:38Z</time>
      </trkpt>
      <trkpt lat="48.44459" lon="7.15007">
        <ele>586</ele>
        <time>2009-06-01T12:38:17Z</time>
      </trkpt>
      <trkpt lat="48.4446" lon="7.15007">
        <ele>591</ele>
        <time>2009-06-01T12:38:16Z</time>
      </trkpt>
      <trkpt lat="48.4446" lon="7.15006">
        <ele>585</ele>
        <time>2009-06-01T12:38:14Z</time>
      </trkpt>
      <trkpt lat="48.44459" lon="7.15006">
        <ele>587</ele>
        <time>2009-06-01T12:38:12Z</time>
      </trkpt>
      <trkpt lat="48.44459" lon="7.15006">
        <ele>587</ele>
        <time>2009-06-01T12:38:11Z</time>
      </trkpt>
      <trkpt lat="48.44459" lon="7.15006">
        <ele>591</ele>
        <time>2009-06-01T12:38:09Z</time>
      </trkpt>
      <trkpt lat="48.44459" lon="7.15006">
        <ele>585</ele>
        <time>2009-06-01T12:38:07Z</time>
      </trkpt>
      <trkpt lat="48.4446" lon="7.15006">
        <ele>588</ele>
        <time>2009-06-01T12:38:06Z</time>
      </trkpt>
      <trkpt lat="48.44461" lon="7.15005">
        <ele>583</ele>
        <time>2009-06-01T12:38:05Z</time>
      </trkpt>
      <trkpt lat="48.4446" lon="7.15006">
        <ele>588</ele>
        <time>2009-06-01T12:38:03Z</time>
      </trkpt>
      <trkpt lat="48.44461" lon="7.15006">
        <ele>589</ele>
        <time>2009-06-01T12:38:02Z</time>
      </trkpt>
      <trkpt lat="48.44462" lon="7.15005">
        <ele>586</ele>
        <time>2009-06-01T12:37:59Z</time>
      </trkpt>
      <trkpt lat="48.44462" lon="7.15004">
        <ele>582</ele>
        <time>2009-06-01T12:37:58Z</time>
      </trkpt>
      <trkpt lat="48.44462" lon="7.15004">
        <ele>586</ele>
        <time>2009-06-01T12:37:56Z</time>
      </trkpt>
      <trkpt lat="48.44461" lon="7.15005">
        <ele>584</ele>
        <time>2009-06-01T12:37:53Z</time>
      </trkpt>
      <trkpt lat="48.44462" lon="7.15006">
        <ele>587</ele>
        <time>2009-06-01T12:37:50Z</time>
      </trkpt>
      <trkpt lat="48.44461" lon="7.15006">
        <ele>586</ele>
        <time>2009-06-01T12:37:35Z</time>
      </trkpt>
      <trkpt lat="48.4446" lon="7.15006">
        <ele>582</ele>
        <time>2009-06-01T12:37:34Z</time>
      </trkpt>
      <trkpt lat="48.4446" lon="7.15005">
        <ele>588</ele>
        <time>2009-06-01T12:37:32Z</time>
      </trkpt>
      <trkpt lat="48.4446" lon="7.15005">
        <ele>583</ele>
        <time>2009-06-01T12:37:31Z</time>
      </trkpt>
      <trkpt lat="48.44459" lon="7.15005">
        <ele>588</ele>
        <time>2009-06-01T12:37:30Z</time>
      </trkpt>
      <trkpt lat="48.44459" lon="7.15005">
        <ele>583</ele>
        <time>2009-06-01T12:37:29Z</time>
      </trkpt>
      <trkpt lat="48.44454" lon="7.15012">
        <ele>587</ele>
        <time>2009-06-01T12:37:13Z</time>
      </trkpt>
      <trkpt lat="48.44454" lon="7.15011">
        <ele>581</ele>
        <time>2009-06-01T12:37:12Z</time>
      </trkpt>
      <trkpt lat="48.44455" lon="7.15011">
        <ele>589</ele>
        <time>2009-06-01T12:37:11Z</time>
      </trkpt>
      <trkpt lat="48.44458" lon="7.15009">
        <ele>586</ele>
        <time>2009-06-01T12:37:08Z</time>
      </trkpt>
      <trkpt lat="48.44459" lon="7.15009">
        <ele>581</ele>
        <time>2009-06-01T12:37:07Z</time>
      </trkpt>
      <trkpt lat="48.44455" lon="7.15016">
        <ele>585</ele>
        <time>2009-06-01T12:36:56Z</time>
      </trkpt>
      <trkpt lat="48.44437" lon="7.15014">
        <ele>585</ele>
        <time>2009-06-01T12:36:42Z</time>
      </trkpt>
      <trkpt lat="48.44425" lon="7.14994">
        <ele>585</ele>
        <time>2009-06-01T12:36:31Z</time>
      </trkpt>
      <trkpt lat="48.44417" lon="7.14983">
        <ele>586</ele>
        <time>2009-06-01T12:36:23Z</time>
      </trkpt>
      <trkpt lat="48.44409" lon="7.14977">
        <ele>587</ele>
        <time>2009-06-01T12:36:16Z</time>
      </trkpt>
      <trkpt lat="48.4439" lon="7.14968">
        <ele>588</ele>
        <time>2009-06-01T12:36:03Z</time>
      </trkpt>
      <trkpt lat="48.44382" lon="7.14954">
        <ele>588</ele>
        <time>2009-06-01T12:35:51Z</time>
      </trkpt>
      <trkpt lat="48.4438" lon="7.14949">
        <ele>588</ele>
        <time>2009-06-01T12:35:48Z</time>
      </trkpt>
      <trkpt lat="48.44366" lon="7.14933">
        <ele>589</ele>
        <time>2009-06-01T12:35:37Z</time>
      </trkpt>
      <trkpt lat="48.44363" lon="7.14928">
        <ele>589</ele>
        <time>2009-06-01T12:35:34Z</time>
      </trkpt>
      <trkpt lat="48.44355" lon="7.14907">
        <ele>589</ele>
        <time>2009-06-01T12:35:26Z</time>
      </trkpt>
      <trkpt lat="48.44347" lon="7.14899">
        <ele>589</ele>
        <time>2009-06-01T12:35:19Z</time>
      </trkpt>
      <trkpt lat="48.44326" lon="7.14884">
        <ele>590</ele>
        <time>2009-06-01T12:35:04Z</time>
      </trkpt>
      <trkpt lat="48.44324" lon="7.14875">
        <ele>590</ele>
        <time>2009-06-01T12:35:00Z</time>
      </trkpt>
      <trkpt lat="48.4432" lon="7.14872">
        <ele>590</ele>
        <time>2009-06-01T12:34:57Z</time>
      </trkpt>
      <trkpt lat="48.44311" lon="7.14854">
        <ele>591</ele>
        <time>2009-06-01T12:34:48Z</time>
      </trkpt>
      <trkpt lat="48.4431" lon="7.14843">
        <ele>592</ele>
        <time>2009-06-01T12:34:43Z</time>
      </trkpt>
      <trkpt lat="48.44309" lon="7.1483">
        <ele>592</ele>
        <time>2009-06-01T12:34:37Z</time>
      </trkpt>
      <trkpt lat="48.44297" lon="7.14812">
        <ele>594</ele>
        <time>2009-06-01T12:34:25Z</time>
      </trkpt>
      <trkpt lat="48.44296" lon="7.14809">
        <ele>590</ele>
        <time>2009-06-01T12:34:24Z</time>
      </trkpt>
      <trkpt lat="48.44296" lon="7.14806">
        <ele>595</ele>
        <time>2009-06-01T12:34:23Z</time>
      </trkpt>
      <trkpt lat="48.44296" lon="7.14803">
        <ele>595</ele>
        <time>2009-06-01T12:34:22Z</time>
      </trkpt>
      <trkpt lat="48.44295" lon="7.14801">
        <ele>589</ele>
        <time>2009-06-01T12:34:21Z</time>
      </trkpt>
      <trkpt lat="48.44289" lon="7.14788">
        <ele>594</ele>
        <time>2009-06-01T12:34:15Z</time>
      </trkpt>
      <trkpt lat="48.4428" lon="7.14764">
        <ele>595</ele>
        <time>2009-06-01T12:34:02Z</time>
      </trkpt>
      <trkpt lat="48.44278" lon="7.14751">
        <ele>595</ele>
        <time>2009-06-01T12:33:56Z</time>
      </trkpt>
      <trkpt lat="48.44277" lon="7.14749">
        <ele>595</ele>
        <time>2009-06-01T12:33:55Z</time>
      </trkpt>
      <trkpt lat="48.44271" lon="7.1472">
        <ele>595</ele>
        <time>2009-06-01T12:33:42Z</time>
      </trkpt>
      <trkpt lat="48.44273" lon="7.14688">
        <ele>596</ele>
        <time>2009-06-01T12:33:31Z</time>
      </trkpt>
      <trkpt lat="48.44269" lon="7.1467">
        <ele>596</ele>
        <time>2009-06-01T12:33:22Z</time>
      </trkpt>
      <trkpt lat="48.44263" lon="7.14657">
        <ele>597</ele>
        <time>2009-06-01T12:33:14Z</time>
      </trkpt>
      <trkpt lat="48.44254" lon="7.14632">
        <ele>597</ele>
        <time>2009-06-01T12:32:58Z</time>
      </trkpt>
      <trkpt lat="48.44257" lon="7.1461">
        <ele>597</ele>
        <time>2009-06-01T12:32:45Z</time>
      </trkpt>
      <trkpt lat="48.44256" lon="7.14582">
        <ele>598</ele>
        <time>2009-06-01T12:32:32Z</time>
      </trkpt>
      <trkpt lat="48.44247" lon="7.1456">
        <ele>598</ele>
        <time>2009-06-01T12:32:19Z</time>
      </trkpt>
      <trkpt lat="48.44247" lon="7.14558">
        <ele>599</ele>
        <time>2009-06-01T12:32:18Z</time>
      </trkpt>
      <trkpt lat="48.44244" lon="7.14534">
        <ele>600</ele>
        <time>2009-06-01T12:32:06Z</time>
      </trkpt>
      <trkpt lat="48.44242" lon="7.14519">
        <ele>600</ele>
        <time>2009-06-01T12:31:57Z</time>
      </trkpt>
      <trkpt lat="48.44237" lon="7.14512">
        <ele>601</ele>
        <time>2009-06-01T12:31:48Z</time>
      </trkpt>
      <trkpt lat="48.44227" lon="7.14471">
        <ele>601</ele>
        <time>2009-06-01T12:31:32Z</time>
      </trkpt>
      <trkpt lat="48.44225" lon="7.14463">
        <ele>602</ele>
        <time>2009-06-01T12:31:29Z</time>
      </trkpt>
      <trkpt lat="48.44215" lon="7.14439">
        <ele>603</ele>
        <time>2009-06-01T12:31:16Z</time>
      </trkpt>
      <trkpt lat="48.44211" lon="7.14412">
        <ele>603</ele>
        <time>2009-06-01T12:31:03Z</time>
      </trkpt>
      <trkpt lat="48.44203" lon="7.14391">
        <ele>604</ele>
        <time>2009-06-01T12:30:52Z</time>
      </trkpt>
      <trkpt lat="48.44197" lon="7.14384">
        <ele>604</ele>
        <time>2009-06-01T12:30:46Z</time>
      </trkpt>
      <trkpt lat="48.44194" lon="7.14369">
        <ele>604</ele>
        <time>2009-06-01T12:30:40Z</time>
      </trkpt>
      <trkpt lat="48.44193" lon="7.14363">
        <ele>604</ele>
        <time>2009-06-01T12:30:37Z</time>
      </trkpt>
      <trkpt lat="48.44191" lon="7.1434">
        <ele>605</ele>
        <time>2009-06-01T12:30:26Z</time>
      </trkpt>
      <trkpt lat="48.44189" lon="7.14326">
        <ele>605</ele>
        <time>2009-06-01T12:30:19Z</time>
      </trkpt>
      <trkpt lat="48.44187" lon="7.14319">
        <ele>605</ele>
        <time>2009-06-01T12:30:15Z</time>
      </trkpt>
      <trkpt lat="48.44177" lon="7.14306">
        <ele>605</ele>
        <time>2009-06-01T12:30:01Z</time>
      </trkpt>
      <trkpt lat="48.4418" lon="7.14294">
        <ele>605</ele>
        <time>2009-06-01T12:29:44Z</time>
      </trkpt>
      <trkpt lat="48.44195" lon="7.14294">
        <ele>605</ele>
        <time>2009-06-01T12:28:56Z</time>
      </trkpt>
      <trkpt lat="48.44192" lon="7.14272">
        <ele>605</ele>
        <time>2009-06-01T12:28:45Z</time>
      </trkpt>
      <trkpt lat="48.44189" lon="7.14266">
        <ele>605</ele>
        <time>2009-06-01T12:28:41Z</time>
      </trkpt>
      <trkpt lat="48.44184" lon="7.14244">
        <ele>605</ele>
        <time>2009-06-01T12:28:27Z</time>
      </trkpt>
      <trkpt lat="48.44184" lon="7.14222">
        <ele>606</ele>
        <time>2009-06-01T12:28:15Z</time>
      </trkpt>
      <trkpt lat="48.44187" lon="7.14191">
        <ele>607</ele>
        <time>2009-06-01T12:28:02Z</time>
      </trkpt>
      <trkpt lat="48.44185" lon="7.14184">
        <ele>607</ele>
        <time>2009-06-01T12:27:58Z</time>
      </trkpt>
      <trkpt lat="48.44182" lon="7.14165">
        <ele>607</ele>
        <time>2009-06-01T12:27:48Z</time>
      </trkpt>
      <trkpt lat="48.4418" lon="7.14149">
        <ele>608</ele>
        <time>2009-06-01T12:27:38Z</time>
      </trkpt>
      <trkpt lat="48.44174" lon="7.1413">
        <ele>608</ele>
        <time>2009-06-01T12:27:27Z</time>
      </trkpt>
      <trkpt lat="48.44168" lon="7.14109">
        <ele>608</ele>
        <time>2009-06-01T12:27:15Z</time>
      </trkpt>
      <trkpt lat="48.44166" lon="7.14104">
        <ele>608</ele>
        <time>2009-06-01T12:27:12Z</time>
      </trkpt>
      <trkpt lat="48.44167" lon="7.14097">
        <ele>609</ele>
        <time>2009-06-01T12:27:09Z</time>
      </trkpt>
      <trkpt lat="48.44168" lon="7.14071">
        <ele>610</ele>
        <time>2009-06-01T12:26:56Z</time>
      </trkpt>
      <trkpt lat="48.44169" lon="7.14068">
        <ele>612</ele>
        <time>2009-06-01T12:26:55Z</time>
      </trkpt>
      <trkpt lat="48.44173" lon="7.14056">
        <ele>609</ele>
        <time>2009-06-01T12:26:52Z</time>
      </trkpt>
      <trkpt lat="48.44174" lon="7.1405">
        <ele>609</ele>
        <time>2009-06-01T12:26:50Z</time>
      </trkpt>
      <trkpt lat="48.44164" lon="7.14032">
        <ele>608</ele>
        <time>2009-06-01T12:26:35Z</time>
      </trkpt>
      <trkpt lat="48.44141" lon="7.14034">
        <ele>608</ele>
        <time>2009-06-01T12:26:24Z</time>
      </trkpt>
      <trkpt lat="48.4413" lon="7.1403">
        <ele>608</ele>
        <time>2009-06-01T12:26:12Z</time>
      </trkpt>
      <trkpt lat="48.44117" lon="7.1402">
        <ele>607</ele>
        <time>2009-06-01T12:26:01Z</time>
      </trkpt>
      <trkpt lat="48.44106" lon="7.1401">
        <ele>607</ele>
        <time>2009-06-01T12:25:52Z</time>
      </trkpt>
      <trkpt lat="48.44102" lon="7.14006">
        <ele>608</ele>
        <time>2009-06-01T12:25:47Z</time>
      </trkpt>
      <trkpt lat="48.44086" lon="7.13995">
        <ele>608</ele>
        <time>2009-06-01T12:25:34Z</time>
      </trkpt>
      <trkpt lat="48.44074" lon="7.13984">
        <ele>608</ele>
        <time>2009-06-01T12:25:20Z</time>
      </trkpt>
      <trkpt lat="48.44061" lon="7.13998">
        <ele>608</ele>
        <time>2009-06-01T12:25:07Z</time>
      </trkpt>
      <trkpt lat="48.44053" lon="7.14002">
        <ele>607</ele>
        <time>2009-06-01T12:25:01Z</time>
      </trkpt>
      <trkpt lat="48.44033" lon="7.14014">
        <ele>607</ele>
        <time>2009-06-01T12:24:46Z</time>
      </trkpt>
      <trkpt lat="48.44015" lon="7.14019">
        <ele>606</ele>
        <time>2009-06-01T12:24:33Z</time>
      </trkpt>
      <trkpt lat="48.44" lon="7.14023">
        <ele>605</ele>
        <time>2009-06-01T12:24:20Z</time>
      </trkpt>
      <trkpt lat="48.4399" lon="7.14025">
        <ele>605</ele>
        <time>2009-06-01T12:24:09Z</time>
      </trkpt>
      <trkpt lat="48.43971" lon="7.14024">
        <ele>604</ele>
        <time>2009-06-01T12:23:55Z</time>
      </trkpt>
      <trkpt lat="48.4396" lon="7.14011">
        <ele>602</ele>
        <time>2009-06-01T12:23:42Z</time>
      </trkpt>
      <trkpt lat="48.43958" lon="7.14011">
        <ele>602</ele>
        <time>2009-06-01T12:23:40Z</time>
      </trkpt>
      <trkpt lat="48.43941" lon="7.14013">
        <ele>601</ele>
        <time>2009-06-01T12:23:28Z</time>
      </trkpt>
      <trkpt lat="48.43929" lon="7.14021">
        <ele>601</ele>
        <time>2009-06-01T12:23:15Z</time>
      </trkpt>
      <trkpt lat="48.43912" lon="7.1404">
        <ele>600</ele>
        <time>2009-06-01T12:23:02Z</time>
      </trkpt>
      <trkpt lat="48.4389" lon="7.14065">
        <ele>600</ele>
        <time>2009-06-01T12:22:44Z</time>
      </trkpt>
      <trkpt lat="48.43889" lon="7.14066">
        <ele>600</ele>
        <time>2009-06-01T12:22:43Z</time>
      </trkpt>
      <trkpt lat="48.43874" lon="7.14088">
        <ele>599</ele>
        <time>2009-06-01T12:22:27Z</time>
      </trkpt>
      <trkpt lat="48.43857" lon="7.14104">
        <ele>598</ele>
        <time>2009-06-01T12:22:11Z</time>
      </trkpt>
      <trkpt lat="48.43844" lon="7.14109">
        <ele>596</ele>
        <time>2009-06-01T12:21:57Z</time>
      </trkpt>
      <trkpt lat="48.43816" lon="7.14116">
        <ele>596</ele>
        <time>2009-06-01T12:21:41Z</time>
      </trkpt>
      <trkpt lat="48.43806" lon="7.14117">
        <ele>595</ele>
        <time>2009-06-01T12:21:28Z</time>
      </trkpt>
      <trkpt lat="48.43791" lon="7.14122">
        <ele>595</ele>
        <time>2009-06-01T12:21:17Z</time>
      </trkpt>
      <trkpt lat="48.43779" lon="7.14133">
        <ele>594</ele>
        <time>2009-06-01T12:21:04Z</time>
      </trkpt>
      <trkpt lat="48.43764" lon="7.14143">
        <ele>593</ele>
        <time>2009-06-01T12:20:50Z</time>
      </trkpt>
      <trkpt lat="48.4375" lon="7.14149">
        <ele>592</ele>
        <time>2009-06-01T12:20:38Z</time>
      </trkpt>
      <trkpt lat="48.43747" lon="7.1415">
        <ele>592</ele>
        <time>2009-06-01T12:20:32Z</time>
      </trkpt>
      <trkpt lat="48.43734" lon="7.14165">
        <ele>591</ele>
        <time>2009-06-01T12:20:16Z</time>
      </trkpt>
      <trkpt lat="48.4372" lon="7.14184">
        <ele>590</ele>
        <time>2009-06-01T12:20:02Z</time>
      </trkpt>
      <trkpt lat="48.43704" lon="7.14208">
        <ele>588</ele>
        <time>2009-06-01T12:19:47Z</time>
      </trkpt>
      <trkpt lat="48.43695" lon="7.14233">
        <ele>588</ele>
        <time>2009-06-01T12:19:33Z</time>
      </trkpt>
      <trkpt lat="48.43683" lon="7.14258">
        <ele>587</ele>
        <time>2009-06-01T12:19:18Z</time>
      </trkpt>
      <trkpt lat="48.43671" lon="7.14276">
        <ele>587</ele>
        <time>2009-06-01T12:19:06Z</time>
      </trkpt>
      <trkpt lat="48.43669" lon="7.1428">
        <ele>586</ele>
        <time>2009-06-01T12:18:53Z</time>
      </trkpt>
      <trkpt lat="48.43658" lon="7.14309">
        <ele>585</ele>
        <time>2009-06-01T12:18:37Z</time>
      </trkpt>
      <trkpt lat="48.43649" lon="7.14325">
        <ele>584</ele>
        <time>2009-06-01T12:18:19Z</time>
      </trkpt>
      <trkpt lat="48.43644" lon="7.14346">
        <ele>583</ele>
        <time>2009-06-01T12:18:03Z</time>
      </trkpt>
      <trkpt lat="48.43637" lon="7.1437">
        <ele>582</ele>
        <time>2009-06-01T12:17:44Z</time>
      </trkpt>
      <trkpt lat="48.43619" lon="7.14398">
        <ele>581</ele>
        <time>2009-06-01T12:17:25Z</time>
      </trkpt>
      <trkpt lat="48.43603" lon="7.14415">
        <ele>580</ele>
        <time>2009-06-01T12:17:12Z</time>
      </trkpt>
      <trkpt lat="48.43591" lon="7.14438">
        <ele>580</ele>
        <time>2009-06-01T12:16:55Z</time>
      </trkpt>
      <trkpt lat="48.43581" lon="7.14467">
        <ele>580</ele>
        <time>2009-06-01T12:16:43Z</time>
      </trkpt>
      <trkpt lat="48.43572" lon="7.14482">
        <ele>580</ele>
        <time>2009-06-01T12:16:21Z</time>
      </trkpt>
      <trkpt lat="48.43577" lon="7.14465">
        <ele>579</ele>
        <time>2009-06-01T12:16:10Z</time>
      </trkpt>
      <trkpt lat="48.43584" lon="7.14451">
        <ele>580</ele>
        <time>2009-06-01T12:15:46Z</time>
      </trkpt>
      <trkpt lat="48.43577" lon="7.14442">
        <ele>579</ele>
        <time>2009-06-01T12:15:20Z</time>
      </trkpt>
      <trkpt lat="48.43576" lon="7.14444">
        <ele>583</ele>
        <time>2009-06-01T12:15:18Z</time>
      </trkpt>
      <trkpt lat="48.43576" lon="7.14444">
        <ele>579</ele>
        <time>2009-06-01T12:15:17Z</time>
      </trkpt>
      <trkpt lat="48.43576" lon="7.14445">
        <ele>576</ele>
        <time>2009-06-01T12:15:16Z</time>
      </trkpt>
      <trkpt lat="48.43576" lon="7.14445">
        <ele>580</ele>
        <time>2009-06-01T12:15:12Z</time>
      </trkpt>
      <trkpt lat="48.43576" lon="7.14445">
        <ele>576</ele>
        <time>2009-06-01T12:15:11Z</time>
      </trkpt>
      <trkpt lat="48.43564" lon="7.1446">
        <ele>579</ele>
        <time>2009-06-01T12:14:57Z</time>
      </trkpt>
      <trkpt lat="48.43557" lon="7.1448">
        <ele>579</ele>
        <time>2009-06-01T12:14:41Z</time>
      </trkpt>
      <trkpt lat="48.43547" lon="7.14502">
        <ele>579</ele>
        <time>2009-06-01T12:14:26Z</time>
      </trkpt>
      <trkpt lat="48.43545" lon="7.14511">
        <ele>579</ele>
        <time>2009-06-01T12:14:22Z</time>
      </trkpt>
      <trkpt lat="48.43534" lon="7.14534">
        <ele>579</ele>
        <time>2009-06-01T12:14:09Z</time>
      </trkpt>
      <trkpt lat="48.43533" lon="7.14538">
        <ele>580</ele>
        <time>2009-06-01T12:14:07Z</time>
      </trkpt>
      <trkpt lat="48.43521" lon="7.14565">
        <ele>580</ele>
        <time>2009-06-01T12:13:50Z</time>
      </trkpt>
      <trkpt lat="48.43505" lon="7.14588">
        <ele>580</ele>
        <time>2009-06-01T12:13:35Z</time>
      </trkpt>
      <trkpt lat="48.4349" lon="7.14615">
        <ele>580</ele>
        <time>2009-06-01T12:13:20Z</time>
      </trkpt>
      <trkpt lat="48.43478" lon="7.14637">
        <ele>582</ele>
        <time>2009-06-01T12:13:04Z</time>
      </trkpt>
      <trkpt lat="48.43474" lon="7.14652">
        <ele>583</ele>
        <time>2009-06-01T12:12:57Z</time>
      </trkpt>
      <trkpt lat="48.43471" lon="7.14659">
        <ele>588</ele>
        <time>2009-06-01T12:12:53Z</time>
      </trkpt>
      <trkpt lat="48.4347" lon="7.1466">
        <ele>588</ele>
        <time>2009-06-01T12:12:52Z</time>
      </trkpt>
      <trkpt lat="48.4347" lon="7.14662">
        <ele>569</ele>
        <time>2009-06-01T12:12:51Z</time>
      </trkpt>
      <trkpt lat="48.43469" lon="7.14665">
        <ele>581</ele>
        <time>2009-06-01T12:12:50Z</time>
      </trkpt>
      <trkpt lat="48.43467" lon="7.14667">
        <ele>587</ele>
        <time>2009-06-01T12:12:49Z</time>
      </trkpt>
      <trkpt lat="48.43467" lon="7.1467">
        <ele>588</ele>
        <time>2009-06-01T12:12:48Z</time>
      </trkpt>
      <trkpt lat="48.43466" lon="7.14672">
        <ele>580</ele>
        <time>2009-06-01T12:12:47Z</time>
      </trkpt>
      <trkpt lat="48.43465" lon="7.14673">
        <ele>578</ele>
        <time>2009-06-01T12:12:46Z</time>
      </trkpt>
      <trkpt lat="48.43465" lon="7.14675">
        <ele>588</ele>
        <time>2009-06-01T12:12:45Z</time>
      </trkpt>
      <trkpt lat="48.43464" lon="7.14677">
        <ele>588</ele>
        <time>2009-06-01T12:12:44Z</time>
      </trkpt>
      <trkpt lat="48.43463" lon="7.14679">
        <ele>577</ele>
        <time>2009-06-01T12:12:43Z</time>
      </trkpt>
      <trkpt lat="48.43462" lon="7.14681">
        <ele>575</ele>
        <time>2009-06-01T12:12:42Z</time>
      </trkpt>
      <trkpt lat="48.43462" lon="7.14683">
        <ele>588</ele>
        <time>2009-06-01T12:12:41Z</time>
      </trkpt>
      <trkpt lat="48.43461" lon="7.14685">
        <ele>579</ele>
        <time>2009-06-01T12:12:40Z</time>
      </trkpt>
      <trkpt lat="48.43461" lon="7.14687">
        <ele>572</ele>
        <time>2009-06-01T12:12:39Z</time>
      </trkpt>
      <trkpt lat="48.43458" lon="7.14694">
        <ele>588</ele>
        <time>2009-06-01T12:12:35Z</time>
      </trkpt>
      <trkpt lat="48.43458" lon="7.14696">
        <ele>591</ele>
        <time>2009-06-01T12:12:34Z</time>
      </trkpt>
      <trkpt lat="48.43457" lon="7.147">
        <ele>577</ele>
        <time>2009-06-01T12:12:32Z</time>
      </trkpt>
      <trkpt lat="48.43457" lon="7.14702">
        <ele>582</ele>
        <time>2009-06-01T12:12:31Z</time>
      </trkpt>
      <trkpt lat="48.43457" lon="7.14703">
        <ele>574</ele>
        <time>2009-06-01T12:12:30Z</time>
      </trkpt>
      <trkpt lat="48.43457" lon="7.14705">
        <ele>577</ele>
        <time>2009-06-01T12:12:29Z</time>
      </trkpt>
      <trkpt lat="48.43456" lon="7.14708">
        <ele>578</ele>
        <time>2009-06-01T12:12:27Z</time>
      </trkpt>
      <trkpt lat="48.43456" lon="7.1471">
        <ele>587</ele>
        <time>2009-06-01T12:12:26Z</time>
      </trkpt>
      <trkpt lat="48.43455" lon="7.14711">
        <ele>581</ele>
        <time>2009-06-01T12:12:25Z</time>
      </trkpt>
      <trkpt lat="48.43455" lon="7.14713">
        <ele>576</ele>
        <time>2009-06-01T12:12:24Z</time>
      </trkpt>
      <trkpt lat="48.43454" lon="7.14714">
        <ele>573</ele>
        <time>2009-06-01T12:12:23Z</time>
      </trkpt>
      <trkpt lat="48.43452" lon="7.14719">
        <ele>586</ele>
        <time>2009-06-01T12:12:20Z</time>
      </trkpt>
      <trkpt lat="48.43452" lon="7.14722">
        <ele>588</ele>
        <time>2009-06-01T12:12:19Z</time>
      </trkpt>
      <trkpt lat="48.43452" lon="7.14724">
        <ele>582</ele>
        <time>2009-06-01T12:12:18Z</time>
      </trkpt>
      <trkpt lat="48.43451" lon="7.14728">
        <ele>575</ele>
        <time>2009-06-01T12:12:16Z</time>
      </trkpt>
      <trkpt lat="48.43448" lon="7.14734">
        <ele>583</ele>
        <time>2009-06-01T12:12:13Z</time>
      </trkpt>
      <trkpt lat="48.43447" lon="7.14737">
        <ele>586</ele>
        <time>2009-06-01T12:12:11Z</time>
      </trkpt>
      <trkpt lat="48.43446" lon="7.14739">
        <ele>588</ele>
        <time>2009-06-01T12:12:10Z</time>
      </trkpt>
      <trkpt lat="48.43445" lon="7.1474">
        <ele>579</ele>
        <time>2009-06-01T12:12:09Z</time>
      </trkpt>
      <trkpt lat="48.43439" lon="7.14756">
        <ele>583</ele>
        <time>2009-06-01T12:11:58Z</time>
      </trkpt>
      <trkpt lat="48.43429" lon="7.14777">
        <ele>584</ele>
        <time>2009-06-01T12:11:46Z</time>
      </trkpt>
      <trkpt lat="48.43415" lon="7.14803">
        <ele>584</ele>
        <time>2009-06-01T12:11:30Z</time>
      </trkpt>
      <trkpt lat="48.43398" lon="7.14827">
        <ele>584</ele>
        <time>2009-06-01T12:11:14Z</time>
      </trkpt>
      <trkpt lat="48.43379" lon="7.14856">
        <ele>585</ele>
        <time>2009-06-01T12:10:55Z</time>
      </trkpt>
      <trkpt lat="48.43363" lon="7.1487">
        <ele>585</ele>
        <time>2009-06-01T12:10:40Z</time>
      </trkpt>
      <trkpt lat="48.43344" lon="7.1486">
        <ele>586</ele>
        <time>2009-06-01T12:10:24Z</time>
      </trkpt>
      <trkpt lat="48.43332" lon="7.14854">
        <ele>585</ele>
        <time>2009-06-01T12:10:15Z</time>
      </trkpt>
      <trkpt lat="48.43315" lon="7.14842">
        <ele>585</ele>
        <time>2009-06-01T12:10:01Z</time>
      </trkpt>
      <trkpt lat="48.43292" lon="7.14845">
        <ele>585</ele>
        <time>2009-06-01T12:09:47Z</time>
      </trkpt>
      <trkpt lat="48.43273" lon="7.1486">
        <ele>585</ele>
        <time>2009-06-01T12:09:32Z</time>
      </trkpt>
      <trkpt lat="48.43265" lon="7.14866">
        <ele>586</ele>
        <time>2009-06-01T12:09:25Z</time>
      </trkpt>
      <trkpt lat="48.43253" lon="7.14882">
        <ele>586</ele>
        <time>2009-06-01T12:09:13Z</time>
      </trkpt>
      <trkpt lat="48.43236" lon="7.14899">
        <ele>586</ele>
        <time>2009-06-01T12:08:57Z</time>
      </trkpt>
      <trkpt lat="48.43224" lon="7.14915">
        <ele>585</ele>
        <time>2009-06-01T12:08:43Z</time>
      </trkpt>
      <trkpt lat="48.43217" lon="7.14936">
        <ele>583</ele>
        <time>2009-06-01T12:08:27Z</time>
      </trkpt>
      <trkpt lat="48.43205" lon="7.14981">
        <ele>582</ele>
        <time>2009-06-01T12:08:08Z</time>
      </trkpt>
      <trkpt lat="48.43193" lon="7.14999">
        <ele>582</ele>
        <time>2009-06-01T12:08:00Z</time>
      </trkpt>
      <trkpt lat="48.4318" lon="7.15021">
        <ele>582</ele>
        <time>2009-06-01T12:07:51Z</time>
      </trkpt>
      <trkpt lat="48.43174" lon="7.15027">
        <ele>582</ele>
        <time>2009-06-01T12:07:47Z</time>
      </trkpt>
      <trkpt lat="48.43163" lon="7.15015">
        <ele>582</ele>
        <time>2009-06-01T12:07:36Z</time>
      </trkpt>
      <trkpt lat="48.4314" lon="7.15011">
        <ele>581</ele>
        <time>2009-06-01T12:07:20Z</time>
      </trkpt>
      <trkpt lat="48.4312" lon="7.15002">
        <ele>581</ele>
        <time>2009-06-01T12:07:06Z</time>
      </trkpt>
      <trkpt lat="48.43101" lon="7.15">
        <ele>581</ele>
        <time>2009-06-01T12:06:53Z</time>
      </trkpt>
      <trkpt lat="48.43083" lon="7.15002">
        <ele>580</ele>
        <time>2009-06-01T12:06:40Z</time>
      </trkpt>
      <trkpt lat="48.43079" lon="7.15001">
        <ele>581</ele>
        <time>2009-06-01T12:06:37Z</time>
      </trkpt>
      <trkpt lat="48.43059" lon="7.14995">
        <ele>581</ele>
        <time>2009-06-01T12:06:22Z</time>
      </trkpt>
      <trkpt lat="48.43054" lon="7.14994">
        <ele>582</ele>
        <time>2009-06-01T12:06:18Z</time>
      </trkpt>
      <trkpt lat="48.43053" lon="7.14994">
        <ele>582</ele>
        <time>2009-06-01T12:06:17Z</time>
      </trkpt>
      <trkpt lat="48.43035" lon="7.14979">
        <ele>582</ele>
        <time>2009-06-01T12:06:04Z</time>
      </trkpt>
      <trkpt lat="48.43016" lon="7.14981">
        <ele>582</ele>
        <time>2009-06-01T12:05:51Z</time>
      </trkpt>
      <trkpt lat="48.42999" lon="7.14977">
        <ele>582</ele>
        <time>2009-06-01T12:05:38Z</time>
      </trkpt>
      <trkpt lat="48.42998" lon="7.14978">
        <ele>583</ele>
        <time>2009-06-01T12:05:37Z</time>
      </trkpt>
      <trkpt lat="48.42979" lon="7.14985">
        <ele>582</ele>
        <time>2009-06-01T12:05:21Z</time>
      </trkpt>
      <trkpt lat="48.42974" lon="7.14987">
        <ele>581</ele>
        <time>2009-06-01T12:05:17Z</time>
      </trkpt>
      <trkpt lat="48.42959" lon="7.15004">
        <ele>580</ele>
        <time>2009-06-01T12:05:04Z</time>
      </trkpt>
      <trkpt lat="48.42942" lon="7.15012">
        <ele>578</ele>
        <time>2009-06-01T12:04:50Z</time>
      </trkpt>
      <trkpt lat="48.42928" lon="7.15018">
        <ele>576</ele>
        <time>2009-06-01T12:04:37Z</time>
      </trkpt>
      <trkpt lat="48.42915" lon="7.15025">
        <ele>575</ele>
        <time>2009-06-01T12:04:22Z</time>
      </trkpt>
      <trkpt lat="48.42902" lon="7.1504">
        <ele>574</ele>
        <time>2009-06-01T12:04:07Z</time>
      </trkpt>
      <trkpt lat="48.429" lon="7.15057">
        <ele>573</ele>
        <time>2009-06-01T12:03:55Z</time>
      </trkpt>
      <trkpt lat="48.42897" lon="7.15076">
        <ele>573</ele>
        <time>2009-06-01T12:03:46Z</time>
      </trkpt>
      <trkpt lat="48.42895" lon="7.15089">
        <ele>573</ele>
        <time>2009-06-01T12:03:40Z</time>
      </trkpt>
      <trkpt lat="48.42889" lon="7.15121">
        <ele>574</ele>
        <time>2009-06-01T12:03:24Z</time>
      </trkpt>
      <trkpt lat="48.42883" lon="7.15155">
        <ele>574</ele>
        <time>2009-06-01T12:03:07Z</time>
      </trkpt>
      <trkpt lat="48.42868" lon="7.15185">
        <ele>575</ele>
        <time>2009-06-01T12:02:49Z</time>
      </trkpt>
      <trkpt lat="48.42862" lon="7.15198">
        <ele>576</ele>
        <time>2009-06-01T12:02:40Z</time>
      </trkpt>
      <trkpt lat="48.42861" lon="7.15203">
        <ele>576</ele>
        <time>2009-06-01T12:02:37Z</time>
      </trkpt>
      <trkpt lat="48.4285" lon="7.15223">
        <ele>576</ele>
        <time>2009-06-01T12:02:21Z</time>
      </trkpt>
      <trkpt lat="48.42846" lon="7.15224">
        <ele>576</ele>
        <time>2009-06-01T12:02:18Z</time>
      </trkpt>
      <trkpt lat="48.4284" lon="7.15226">
        <ele>576</ele>
        <time>2009-06-01T12:02:09Z</time>
      </trkpt>
      <trkpt lat="48.42833" lon="7.15233">
        <ele>577</ele>
        <time>2009-06-01T12:01:47Z</time>
      </trkpt>
      <trkpt lat="48.42831" lon="7.15231">
        <ele>577</ele>
        <time>2009-06-01T12:01:15Z</time>
      </trkpt>
      <trkpt lat="48.42831" lon="7.15231">
        <ele>577</ele>
        <time>2009-06-01T12:00:34Z</time>
      </trkpt>
      <trkpt lat="48.42828" lon="7.15232">
        <ele>577</ele>
        <time>2009-06-01T12:00:13Z</time>
      </trkpt>
      <trkpt lat="48.42828" lon="7.15232">
        <ele>576</ele>
        <time>2009-06-01T11:59:50Z</time>
      </trkpt>
      <trkpt lat="48.4283" lon="7.15232">
        <ele>576</ele>
        <time>2009-06-01T11:59:18Z</time>
      </trkpt>
      <trkpt lat="48.42829" lon="7.15231">
        <ele>576</ele>
        <time>2009-06-01T11:58:33Z</time>
      </trkpt>
      <trkpt lat="48.42841" lon="7.15224">
        <ele>576</ele>
        <time>2009-06-01T11:58:17Z</time>
      </trkpt>
      <trkpt lat="48.42843" lon="7.15217">
        <ele>577</ele>
        <time>2009-06-01T11:58:11Z</time>
      </trkpt>
      <trkpt lat="48.42837" lon="7.15215">
        <ele>577</ele>
        <time>2009-06-01T11:58:05Z</time>
      </trkpt>
      <trkpt lat="48.42837" lon="7.15206">
        <ele>578</ele>
        <time>2009-06-01T11:57:47Z</time>
      </trkpt>
      <trkpt lat="48.42847" lon="7.15205">
        <ele>577</ele>
        <time>2009-06-01T11:57:33Z</time>
      </trkpt>
      <trkpt lat="48.4285" lon="7.15207">
        <ele>577</ele>
        <time>2009-06-01T11:57:31Z</time>
      </trkpt>
      <trkpt lat="48.42846" lon="7.15232">
        <ele>576</ele>
        <time>2009-06-01T11:57:22Z</time>
      </trkpt>
      <trkpt lat="48.42833" lon="7.15227">
        <ele>577</ele>
        <time>2009-06-01T11:57:08Z</time>
      </trkpt>
      <trkpt lat="48.42832" lon="7.15233">
        <ele>576</ele>
        <time>2009-06-01T11:56:56Z</time>
      </trkpt>
      <trkpt lat="48.42829" lon="7.1523">
        <ele>577</ele>
        <time>2009-06-01T11:56:37Z</time>
      </trkpt>
      <trkpt lat="48.42826" lon="7.1523">
        <ele>577</ele>
        <time>2009-06-01T11:56:14Z</time>
      </trkpt>
      <trkpt lat="48.42818" lon="7.15231">
        <ele>576</ele>
        <time>2009-06-01T11:55:53Z</time>
      </trkpt>
      <trkpt lat="48.42818" lon="7.1523">
        <ele>576</ele>
        <time>2009-06-01T11:54:29Z</time>
      </trkpt>
      <trkpt lat="48.42818" lon="7.15231">
        <ele>576</ele>
        <time>2009-06-01T11:53:39Z</time>
      </trkpt>
      <trkpt lat="48.42821" lon="7.15221">
        <ele>576</ele>
        <time>2009-06-01T11:53:22Z</time>
      </trkpt>
      <trkpt lat="48.4282" lon="7.15223">
        <ele>577</ele>
        <time>2009-06-01T11:53:03Z</time>
      </trkpt>
      <trkpt lat="48.4282" lon="7.15223">
        <ele>574</ele>
        <time>2009-06-01T11:53:02Z</time>
      </trkpt>
      <trkpt lat="48.4282" lon="7.15221">
        <ele>575</ele>
        <time>2009-06-01T11:52:34Z</time>
      </trkpt>
      <trkpt lat="48.4282" lon="7.15221">
        <ele>578</ele>
        <time>2009-06-01T11:52:33Z</time>
      </trkpt>
      <trkpt lat="48.4282" lon="7.15221">
        <ele>578</ele>
        <time>2009-06-01T11:52:32Z</time>
      </trkpt>
      <trkpt lat="48.4282" lon="7.15221">
        <ele>574</ele>
        <time>2009-06-01T11:52:31Z</time>
      </trkpt>
      <trkpt lat="48.4282" lon="7.15221">
        <ele>578</ele>
        <time>2009-06-01T11:52:29Z</time>
      </trkpt>
      <trkpt lat="48.4282" lon="7.15221">
        <ele>574</ele>
        <time>2009-06-01T11:52:28Z</time>
      </trkpt>
      <trkpt lat="48.4282" lon="7.15221">
        <ele>578</ele>
        <time>2009-06-01T11:52:27Z</time>
      </trkpt>
      <trkpt lat="48.42819" lon="7.15221">
        <ele>572</ele>
        <time>2009-06-01T11:52:26Z</time>
      </trkpt>
      <trkpt lat="48.42819" lon="7.1522">
        <ele>577</ele>
        <time>2009-06-01T11:52:21Z</time>
      </trkpt>
      <trkpt lat="48.42819" lon="7.1522">
        <ele>578</ele>
        <time>2009-06-01T11:52:19Z</time>
      </trkpt>
      <trkpt lat="48.42817" lon="7.15219">
        <ele>576</ele>
        <time>2009-06-01T11:52:17Z</time>
      </trkpt>
      <trkpt lat="48.42816" lon="7.15219">
        <ele>572</ele>
        <time>2009-06-01T11:52:16Z</time>
      </trkpt>
      <trkpt lat="48.42803" lon="7.15218">
        <ele>577</ele>
        <time>2009-06-01T11:52:05Z</time>
      </trkpt>
      <trkpt lat="48.42785" lon="7.15209">
        <ele>575</ele>
        <time>2009-06-01T11:51:50Z</time>
      </trkpt>
      <trkpt lat="48.42773" lon="7.15207">
        <ele>575</ele>
        <time>2009-06-01T11:51:41Z</time>
      </trkpt>
      <trkpt lat="48.42757" lon="7.15206">
        <ele>574</ele>
        <time>2009-06-01T11:51:28Z</time>
      </trkpt>
      <trkpt lat="48.42756" lon="7.15206">
        <ele>574</ele>
        <time>2009-06-01T11:51:16Z</time>
      </trkpt>
      <trkpt lat="48.42755" lon="7.15204">
        <ele>573</ele>
        <time>2009-06-01T11:50:42Z</time>
      </trkpt>
      <trkpt lat="48.42757" lon="7.15204">
        <ele>572</ele>
        <time>2009-06-01T11:50:10Z</time>
      </trkpt>
      <trkpt lat="48.42736" lon="7.15199">
        <ele>572</ele>
        <time>2009-06-01T11:49:50Z</time>
      </trkpt>
      <trkpt lat="48.4273" lon="7.152">
        <ele>571</ele>
        <time>2009-06-01T11:49:36Z</time>
      </trkpt>
      <trkpt lat="48.42712" lon="7.15205">
        <ele>570</ele>
        <time>2009-06-01T11:49:20Z</time>
      </trkpt>
      <trkpt lat="48.42692" lon="7.15212">
        <ele>569</ele>
        <time>2009-06-01T11:49:02Z</time>
      </trkpt>
      <trkpt lat="48.42673" lon="7.15205">
        <ele>568</ele>
        <time>2009-06-01T11:48:45Z</time>
      </trkpt>
      <trkpt lat="48.42657" lon="7.152">
        <ele>566</ele>
        <time>2009-06-01T11:48:29Z</time>
      </trkpt>
      <trkpt lat="48.42642" lon="7.15194">
        <ele>563</ele>
        <time>2009-06-01T11:48:16Z</time>
      </trkpt>
      <trkpt lat="48.42626" lon="7.15187">
        <ele>562</ele>
        <time>2009-06-01T11:48:00Z</time>
      </trkpt>
      <trkpt lat="48.42626" lon="7.15186">
        <ele>562</ele>
        <time>2009-06-01T11:47:59Z</time>
      </trkpt>
      <trkpt lat="48.42618" lon="7.15177">
        <ele>560</ele>
        <time>2009-06-01T11:47:45Z</time>
      </trkpt>
      <trkpt lat="48.42607" lon="7.15161">
        <ele>559</ele>
        <time>2009-06-01T11:47:28Z</time>
      </trkpt>
      <trkpt lat="48.42598" lon="7.15137">
        <ele>557</ele>
        <time>2009-06-01T11:47:11Z</time>
      </trkpt>
      <trkpt lat="48.42594" lon="7.15103">
        <ele>554</ele>
        <time>2009-06-01T11:46:52Z</time>
      </trkpt>
      <trkpt lat="48.42591" lon="7.15093">
        <ele>553</ele>
        <time>2009-06-01T11:46:44Z</time>
      </trkpt>
      <trkpt lat="48.4258" lon="7.15071">
        <ele>551</ele>
        <time>2009-06-01T11:46:26Z</time>
      </trkpt>
      <trkpt lat="48.42565" lon="7.15053">
        <ele>550</ele>
        <time>2009-06-01T11:46:08Z</time>
      </trkpt>
      <trkpt lat="48.42554" lon="7.15045">
        <ele>549</ele>
        <time>2009-06-01T11:46:00Z</time>
      </trkpt>
      <trkpt lat="48.42542" lon="7.1503">
        <ele>547</ele>
        <time>2009-06-01T11:45:48Z</time>
      </trkpt>
      <trkpt lat="48.42531" lon="7.15024">
        <ele>544</ele>
        <time>2009-06-01T11:45:31Z</time>
      </trkpt>
      <trkpt lat="48.42529" lon="7.15017">
        <ele>544</ele>
        <time>2009-06-01T11:45:27Z</time>
      </trkpt>
      <trkpt lat="48.42527" lon="7.15015">
        <ele>544</ele>
        <time>2009-06-01T11:45:24Z</time>
      </trkpt>
      <trkpt lat="48.42513" lon="7.15007">
        <ele>543</ele>
        <time>2009-06-01T11:45:09Z</time>
      </trkpt>
      <trkpt lat="48.42496" lon="7.14999">
        <ele>539</ele>
        <time>2009-06-01T11:44:53Z</time>
      </trkpt>
      <trkpt lat="48.42487" lon="7.15002">
        <ele>540</ele>
        <time>2009-06-01T11:44:35Z</time>
      </trkpt>
      <trkpt lat="48.42483" lon="7.14997">
        <ele>539</ele>
        <time>2009-06-01T11:44:31Z</time>
      </trkpt>
      <trkpt lat="48.42477" lon="7.14993">
        <ele>538</ele>
        <time>2009-06-01T11:44:25Z</time>
      </trkpt>
      <trkpt lat="48.4246" lon="7.14986">
        <ele>536</ele>
        <time>2009-06-01T11:44:07Z</time>
      </trkpt>
      <trkpt lat="48.42449" lon="7.14986">
        <ele>534</ele>
        <time>2009-06-01T11:43:56Z</time>
      </trkpt>
      <trkpt lat="48.42437" lon="7.14998">
        <ele>532</ele>
        <time>2009-06-01T11:43:43Z</time>
      </trkpt>
      <trkpt lat="48.42426" lon="7.15016">
        <ele>530</ele>
        <time>2009-06-01T11:43:29Z</time>
      </trkpt>
      <trkpt lat="48.4242" lon="7.15031">
        <ele>529</ele>
        <time>2009-06-01T11:43:17Z</time>
      </trkpt>
      <trkpt lat="48.42421" lon="7.15041">
        <ele>527</ele>
        <time>2009-06-01T11:42:58Z</time>
      </trkpt>
      <trkpt lat="48.42426" lon="7.1507">
        <ele>526</ele>
        <time>2009-06-01T11:42:40Z</time>
      </trkpt>
      <trkpt lat="48.42426" lon="7.15092">
        <ele>524</ele>
        <time>2009-06-01T11:42:27Z</time>
      </trkpt>
      <trkpt lat="48.42424" lon="7.15102">
        <ele>524</ele>
        <time>2009-06-01T11:41:57Z</time>
      </trkpt>
      <trkpt lat="48.42424" lon="7.15097">
        <ele>523</ele>
        <time>2009-06-01T11:41:34Z</time>
      </trkpt>
      <trkpt lat="48.4241" lon="7.15098">
        <ele>522</ele>
        <time>2009-06-01T11:41:18Z</time>
      </trkpt>
      <trkpt lat="48.42389" lon="7.151">
        <ele>519</ele>
        <time>2009-06-01T11:41:01Z</time>
      </trkpt>
      <trkpt lat="48.42373" lon="7.15103">
        <ele>518</ele>
        <time>2009-06-01T11:40:47Z</time>
      </trkpt>
      <trkpt lat="48.42359" lon="7.15106">
        <ele>516</ele>
        <time>2009-06-01T11:40:35Z</time>
      </trkpt>
      <trkpt lat="48.42339" lon="7.15112">
        <ele>514</ele>
        <time>2009-06-01T11:40:20Z</time>
      </trkpt>
      <trkpt lat="48.4232" lon="7.15116">
        <ele>513</ele>
        <time>2009-06-01T11:40:03Z</time>
      </trkpt>
      <trkpt lat="48.42296" lon="7.15124">
        <ele>510</ele>
        <time>2009-06-01T11:39:43Z</time>
      </trkpt>
      <trkpt lat="48.42278" lon="7.15129">
        <ele>508</ele>
        <time>2009-06-01T11:39:26Z</time>
      </trkpt>
      <trkpt lat="48.42259" lon="7.15136">
        <ele>506</ele>
        <time>2009-06-01T11:39:11Z</time>
      </trkpt>
      <trkpt lat="48.4224" lon="7.15145">
        <ele>505</ele>
        <time>2009-06-01T11:38:54Z</time>
      </trkpt>
      <trkpt lat="48.4222" lon="7.15158">
        <ele>505</ele>
        <time>2009-06-01T11:38:36Z</time>
      </trkpt>
      <trkpt lat="48.422" lon="7.15173">
        <ele>504</ele>
        <time>2009-06-01T11:38:17Z</time>
      </trkpt>
      <trkpt lat="48.42185" lon="7.15184">
        <ele>502</ele>
        <time>2009-06-01T11:38:02Z</time>
      </trkpt>
      <trkpt lat="48.42172" lon="7.15181">
        <ele>503</ele>
        <time>2009-06-01T11:37:50Z</time>
      </trkpt>
      <trkpt lat="48.42153" lon="7.15172">
        <ele>502</ele>
        <time>2009-06-01T11:37:33Z</time>
      </trkpt>
      <trkpt lat="48.42134" lon="7.15161">
        <ele>504</ele>
        <time>2009-06-01T11:37:15Z</time>
      </trkpt>
      <trkpt lat="48.42119" lon="7.15154">
        <ele>502</ele>
        <time>2009-06-01T11:37:01Z</time>
      </trkpt>
      <trkpt lat="48.421" lon="7.1516">
        <ele>501</ele>
        <time>2009-06-01T11:36:40Z</time>
      </trkpt>
      <trkpt lat="48.4208" lon="7.15166">
        <ele>498</ele>
        <time>2009-06-01T11:36:24Z</time>
      </trkpt>
      <trkpt lat="48.42076" lon="7.15169">
        <ele>498</ele>
        <time>2009-06-01T11:36:18Z</time>
      </trkpt>
      <trkpt lat="48.42065" lon="7.15178">
        <ele>496</ele>
        <time>2009-06-01T11:36:05Z</time>
      </trkpt>
      <trkpt lat="48.42046" lon="7.15186">
        <ele>494</ele>
        <time>2009-06-01T11:35:51Z</time>
      </trkpt>
      <trkpt lat="48.42026" lon="7.15191">
        <ele>493</ele>
        <time>2009-06-01T11:35:34Z</time>
      </trkpt>
      <trkpt lat="48.42013" lon="7.15195">
        <ele>492</ele>
        <time>2009-06-01T11:35:23Z</time>
      </trkpt>
      <trkpt lat="48.41994" lon="7.15206">
        <ele>490</ele>
        <time>2009-06-01T11:35:06Z</time>
      </trkpt>
      <trkpt lat="48.41977" lon="7.1521">
        <ele>489</ele>
        <time>2009-06-01T11:34:51Z</time>
      </trkpt>
      <trkpt lat="48.41959" lon="7.15211">
        <ele>488</ele>
        <time>2009-06-01T11:34:34Z</time>
      </trkpt>
      <trkpt lat="48.41939" lon="7.15212">
        <ele>487</ele>
        <time>2009-06-01T11:34:14Z</time>
      </trkpt>
      <trkpt lat="48.41924" lon="7.15213">
        <ele>485</ele>
        <time>2009-06-01T11:33:59Z</time>
      </trkpt>
      <trkpt lat="48.41914" lon="7.15212">
        <ele>484</ele>
        <time>2009-06-01T11:33:43Z</time>
      </trkpt>
      <trkpt lat="48.41906" lon="7.15213">
        <ele>484</ele>
        <time>2009-06-01T11:33:31Z</time>
      </trkpt>
      <trkpt lat="48.41887" lon="7.15217">
        <ele>482</ele>
        <time>2009-06-01T11:33:12Z</time>
      </trkpt>
      <trkpt lat="48.41867" lon="7.15218">
        <ele>480</ele>
        <time>2009-06-01T11:32:55Z</time>
      </trkpt>
      <trkpt lat="48.41849" lon="7.15219">
        <ele>478</ele>
        <time>2009-06-01T11:32:40Z</time>
      </trkpt>
      <trkpt lat="48.41836" lon="7.15221">
        <ele>476</ele>
        <time>2009-06-01T11:32:27Z</time>
      </trkpt>
      <trkpt lat="48.41815" lon="7.15225">
        <ele>475</ele>
        <time>2009-06-01T11:32:09Z</time>
      </trkpt>
      <trkpt lat="48.41795" lon="7.15228">
        <ele>474</ele>
        <time>2009-06-01T11:31:52Z</time>
      </trkpt>
      <trkpt lat="48.41775" lon="7.15225">
        <ele>473</ele>
        <time>2009-06-01T11:31:36Z</time>
      </trkpt>
      <trkpt lat="48.41758" lon="7.1522">
        <ele>471</ele>
        <time>2009-06-01T11:31:22Z</time>
      </trkpt>
      <trkpt lat="48.4174" lon="7.15219">
        <ele>469</ele>
        <time>2009-06-01T11:31:05Z</time>
      </trkpt>
      <trkpt lat="48.41723" lon="7.15213">
        <ele>467</ele>
        <time>2009-06-01T11:30:52Z</time>
      </trkpt>
      <trkpt lat="48.41703" lon="7.1521">
        <ele>465</ele>
        <time>2009-06-01T11:30:36Z</time>
      </trkpt>
      <trkpt lat="48.417" lon="7.15211">
        <ele>464</ele>
        <time>2009-06-01T11:30:28Z</time>
      </trkpt>
      <trkpt lat="48.41688" lon="7.15227">
        <ele>463</ele>
        <time>2009-06-01T11:30:10Z</time>
      </trkpt>
      <trkpt lat="48.41675" lon="7.15247">
        <ele>462</ele>
        <time>2009-06-01T11:29:57Z</time>
      </trkpt>
      <trkpt lat="48.41673" lon="7.15251">
        <ele>462</ele>
        <time>2009-06-01T11:29:54Z</time>
      </trkpt>
      <trkpt lat="48.41662" lon="7.15278">
        <ele>461</ele>
        <time>2009-06-01T11:29:35Z</time>
      </trkpt>
      <trkpt lat="48.41655" lon="7.15291">
        <ele>461</ele>
        <time>2009-06-01T11:29:28Z</time>
      </trkpt>
      <trkpt lat="48.41647" lon="7.15299">
        <ele>460</ele>
        <time>2009-06-01T11:29:22Z</time>
      </trkpt>
      <trkpt lat="48.41632" lon="7.15316">
        <ele>458</ele>
        <time>2009-06-01T11:29:06Z</time>
      </trkpt>
      <trkpt lat="48.41618" lon="7.15331">
        <ele>457</ele>
        <time>2009-06-01T11:28:51Z</time>
      </trkpt>
      <trkpt lat="48.41601" lon="7.15341">
        <ele>455</ele>
        <time>2009-06-01T11:28:36Z</time>
      </trkpt>
      <trkpt lat="48.41582" lon="7.15352">
        <ele>454</ele>
        <time>2009-06-01T11:28:18Z</time>
      </trkpt>
      <trkpt lat="48.41566" lon="7.15368">
        <ele>453</ele>
        <time>2009-06-01T11:28:01Z</time>
      </trkpt>
      <trkpt lat="48.41558" lon="7.15361">
        <ele>453</ele>
        <time>2009-06-01T11:27:23Z</time>
      </trkpt>
      <trkpt lat="48.41561" lon="7.15366">
        <ele>452</ele>
        <time>2009-06-01T11:26:45Z</time>
      </trkpt>
      <trkpt lat="48.4156" lon="7.15367">
        <ele>452</ele>
        <time>2009-06-01T11:24:43Z</time>
      </trkpt>
      <trkpt lat="48.4156" lon="7.15371">
        <ele>452</ele>
        <time>2009-06-01T11:23:39Z</time>
      </trkpt>
      <trkpt lat="48.41562" lon="7.15365">
        <ele>452</ele>
        <time>2009-06-01T11:23:01Z</time>
      </trkpt>
      <trkpt lat="48.41562" lon="7.15367">
        <ele>452</ele>
        <time>2009-06-01T11:22:35Z</time>
      </trkpt>
      <trkpt lat="48.41561" lon="7.15369">
        <ele>452</ele>
        <time>2009-06-01T11:21:55Z</time>
      </trkpt>
      <trkpt lat="48.41561" lon="7.15365">
        <ele>452</ele>
        <time>2009-06-01T11:20:28Z</time>
      </trkpt>
      <trkpt lat="48.41559" lon="7.15369">
        <ele>452</ele>
        <time>2009-06-01T11:17:14Z</time>
      </trkpt>
      <trkpt lat="48.41562" lon="7.15364">
        <ele>452</ele>
        <time>2009-06-01T11:16:47Z</time>
      </trkpt>
      <trkpt lat="48.41561" lon="7.15366">
        <ele>453</ele>
        <time>2009-06-01T11:16:16Z</time>
      </trkpt>
      <trkpt lat="48.4155" lon="7.15382">
        <ele>452</ele>
        <time>2009-06-01T11:16:01Z</time>
      </trkpt>
      <trkpt lat="48.41533" lon="7.15403">
        <ele>451</ele>
        <time>2009-06-01T11:15:44Z</time>
      </trkpt>
      <trkpt lat="48.41512" lon="7.15427">
        <ele>451</ele>
        <time>2009-06-01T11:15:25Z</time>
      </trkpt>
      <trkpt lat="48.41493" lon="7.15451">
        <ele>451</ele>
        <time>2009-06-01T11:15:06Z</time>
      </trkpt>
      <trkpt lat="48.4148" lon="7.15466">
        <ele>450</ele>
        <time>2009-06-01T11:14:53Z</time>
      </trkpt>
      <trkpt lat="48.41464" lon="7.15479">
        <ele>450</ele>
        <time>2009-06-01T11:14:41Z</time>
      </trkpt>
      <trkpt lat="48.41447" lon="7.1549">
        <ele>449</ele>
        <time>2009-06-01T11:14:27Z</time>
      </trkpt>
      <trkpt lat="48.41427" lon="7.15502">
        <ele>448</ele>
        <time>2009-06-01T11:14:10Z</time>
      </trkpt>
      <trkpt lat="48.41403" lon="7.15514">
        <ele>447</ele>
        <time>2009-06-01T11:13:53Z</time>
      </trkpt>
      <trkpt lat="48.41381" lon="7.15521">
        <ele>446</ele>
        <time>2009-06-01T11:13:37Z</time>
      </trkpt>
      <trkpt lat="48.4137" lon="7.15532">
        <ele>446</ele>
        <time>2009-06-01T11:13:28Z</time>
      </trkpt>
      <trkpt lat="48.4135" lon="7.15539">
        <ele>444</ele>
        <time>2009-06-01T11:13:12Z</time>
      </trkpt>
      <trkpt lat="48.4133" lon="7.15549">
        <ele>444</ele>
        <time>2009-06-01T11:12:55Z</time>
      </trkpt>
      <trkpt lat="48.4131" lon="7.15562">
        <ele>442</ele>
        <time>2009-06-01T11:12:39Z</time>
      </trkpt>
      <trkpt lat="48.41309" lon="7.15563">
        <ele>444</ele>
        <time>2009-06-01T11:12:38Z</time>
      </trkpt>
      <trkpt lat="48.41308" lon="7.15564">
        <ele>439</ele>
        <time>2009-06-01T11:12:37Z</time>
      </trkpt>
      <trkpt lat="48.41305" lon="7.15565">
        <ele>442</ele>
        <time>2009-06-01T11:12:35Z</time>
      </trkpt>
      <trkpt lat="48.41304" lon="7.15566">
        <ele>444</ele>
        <time>2009-06-01T11:12:34Z</time>
      </trkpt>
      <trkpt lat="48.41301" lon="7.15568">
        <ele>439</ele>
        <time>2009-06-01T11:12:32Z</time>
      </trkpt>
      <trkpt lat="48.41299" lon="7.15569">
        <ele>436</ele>
        <time>2009-06-01T11:12:31Z</time>
      </trkpt>
      <trkpt lat="48.41282" lon="7.1558">
        <ele>440</ele>
        <time>2009-06-01T11:12:17Z</time>
      </trkpt>
      <trkpt lat="48.4126" lon="7.15599">
        <ele>439</ele>
        <time>2009-06-01T11:11:58Z</time>
      </trkpt>
      <trkpt lat="48.4124" lon="7.15617">
        <ele>438</ele>
        <time>2009-06-01T11:11:41Z</time>
      </trkpt>
      <trkpt lat="48.4122" lon="7.15637">
        <ele>438</ele>
        <time>2009-06-01T11:11:23Z</time>
      </trkpt>
      <trkpt lat="48.41205" lon="7.15653">
        <ele>438</ele>
        <time>2009-06-01T11:11:09Z</time>
      </trkpt>
      <trkpt lat="48.41189" lon="7.15675">
        <ele>438</ele>
        <time>2009-06-01T11:10:51Z</time>
      </trkpt>
      <trkpt lat="48.41175" lon="7.15698">
        <ele>437</ele>
        <time>2009-06-01T11:10:34Z</time>
      </trkpt>
      <trkpt lat="48.41161" lon="7.15723">
        <ele>437</ele>
        <time>2009-06-01T11:10:17Z</time>
      </trkpt>
      <trkpt lat="48.41148" lon="7.15751">
        <ele>436</ele>
        <time>2009-06-01T11:09:58Z</time>
      </trkpt>
      <trkpt lat="48.41136" lon="7.15775">
        <ele>435</ele>
        <time>2009-06-01T11:09:42Z</time>
      </trkpt>
      <trkpt lat="48.41122" lon="7.15794">
        <ele>434</ele>
        <time>2009-06-01T11:09:28Z</time>
      </trkpt>
      <trkpt lat="48.41105" lon="7.15813">
        <ele>434</ele>
        <time>2009-06-01T11:09:13Z</time>
      </trkpt>
      <trkpt lat="48.41095" lon="7.15835">
        <ele>434</ele>
        <time>2009-06-01T11:08:58Z</time>
      </trkpt>
      <trkpt lat="48.41082" lon="7.1586">
        <ele>433</ele>
        <time>2009-06-01T11:08:42Z</time>
      </trkpt>
      <trkpt lat="48.41076" lon="7.15889">
        <ele>433</ele>
        <time>2009-06-01T11:08:25Z</time>
      </trkpt>
      <trkpt lat="48.41071" lon="7.15912">
        <ele>432</ele>
        <time>2009-06-01T11:08:13Z</time>
      </trkpt>
      <trkpt lat="48.41061" lon="7.15942">
        <ele>432</ele>
        <time>2009-06-01T11:07:56Z</time>
      </trkpt>
      <trkpt lat="48.41061" lon="7.15943">
        <ele>432</ele>
        <time>2009-06-01T11:07:55Z</time>
      </trkpt>
      <trkpt lat="48.41052" lon="7.15968">
        <ele>432</ele>
        <time>2009-06-01T11:07:40Z</time>
      </trkpt>
      <trkpt lat="48.41041" lon="7.15991">
        <ele>432</ele>
        <time>2009-06-01T11:07:25Z</time>
      </trkpt>
      <trkpt lat="48.4104" lon="7.15995">
        <ele>431</ele>
        <time>2009-06-01T11:07:22Z</time>
      </trkpt>
      <trkpt lat="48.41039" lon="7.15997">
        <ele>431</ele>
        <time>2009-06-01T11:07:21Z</time>
      </trkpt>
      <trkpt lat="48.41038" lon="7.16024">
        <ele>432</ele>
        <time>2009-06-01T11:07:07Z</time>
      </trkpt>
      <trkpt lat="48.4103" lon="7.16057">
        <ele>431</ele>
        <time>2009-06-01T11:06:49Z</time>
      </trkpt>
      <trkpt lat="48.41024" lon="7.16086">
        <ele>430</ele>
        <time>2009-06-01T11:06:32Z</time>
      </trkpt>
      <trkpt lat="48.41018" lon="7.16118">
        <ele>428</ele>
        <time>2009-06-01T11:06:12Z</time>
      </trkpt>
      <trkpt lat="48.41017" lon="7.1612">
        <ele>428</ele>
        <time>2009-06-01T11:06:10Z</time>
      </trkpt>
      <trkpt lat="48.41005" lon="7.16134">
        <ele>427</ele>
        <time>2009-06-01T11:05:54Z</time>
      </trkpt>
      <trkpt lat="48.41001" lon="7.16136">
        <ele>427</ele>
        <time>2009-06-01T11:05:47Z</time>
      </trkpt>
      <trkpt lat="48.41001" lon="7.16136">
        <ele>432</ele>
        <time>2009-06-01T11:05:46Z</time>
      </trkpt>
      <trkpt lat="48.41001" lon="7.16136">
        <ele>426</ele>
        <time>2009-06-01T11:05:44Z</time>
      </trkpt>
      <trkpt lat="48.41" lon="7.16137">
        <ele>426</ele>
        <time>2009-06-01T11:05:27Z</time>
      </trkpt>
      <trkpt lat="48.40994" lon="7.1614">
        <ele>427</ele>
        <time>2009-06-01T11:05:11Z</time>
      </trkpt>
      <trkpt lat="48.40976" lon="7.1615">
        <ele>426</ele>
        <time>2009-06-01T11:04:55Z</time>
      </trkpt>
      <trkpt lat="48.40955" lon="7.16161">
        <ele>426</ele>
        <time>2009-06-01T11:04:36Z</time>
      </trkpt>
      <trkpt lat="48.40937" lon="7.16167">
        <ele>426</ele>
        <time>2009-06-01T11:04:20Z</time>
      </trkpt>
      <trkpt lat="48.40904" lon="7.16174">
        <ele>426</ele>
        <time>2009-06-01T11:03:52Z</time>
      </trkpt>
      <trkpt lat="48.40886" lon="7.16172">
        <ele>426</ele>
        <time>2009-06-01T11:03:37Z</time>
      </trkpt>
      <trkpt lat="48.40864" lon="7.16169">
        <ele>425</ele>
        <time>2009-06-01T11:03:19Z</time>
      </trkpt>
      <trkpt lat="48.40841" lon="7.16167">
        <ele>425</ele>
        <time>2009-06-01T11:02:58Z</time>
      </trkpt>
      <trkpt lat="48.4082" lon="7.16164">
        <ele>425</ele>
        <time>2009-06-01T11:02:39Z</time>
      </trkpt>
      <trkpt lat="48.40802" lon="7.1618">
        <ele>425</ele>
        <time>2009-06-01T11:02:20Z</time>
      </trkpt>
      <trkpt lat="48.40782" lon="7.16197">
        <ele>425</ele>
        <time>2009-06-01T11:02:02Z</time>
      </trkpt>
      <trkpt lat="48.40761" lon="7.16215">
        <ele>425</ele>
        <time>2009-06-01T11:01:40Z</time>
      </trkpt>
      <trkpt lat="48.4075" lon="7.16224">
        <ele>425</ele>
        <time>2009-06-01T11:01:29Z</time>
      </trkpt>
      <trkpt lat="48.40726" lon="7.16249">
        <ele>426</ele>
        <time>2009-06-01T11:01:05Z</time>
      </trkpt>
      <trkpt lat="48.40706" lon="7.16268">
        <ele>427</ele>
        <time>2009-06-01T11:00:45Z</time>
      </trkpt>
      <trkpt lat="48.40685" lon="7.16291">
        <ele>427</ele>
        <time>2009-06-01T11:00:23Z</time>
      </trkpt>
      <trkpt lat="48.40667" lon="7.16308">
        <ele>427</ele>
        <time>2009-06-01T11:00:05Z</time>
      </trkpt>
      <trkpt lat="48.40646" lon="7.16336">
        <ele>428</ele>
        <time>2009-06-01T10:59:40Z</time>
      </trkpt>
      <trkpt lat="48.40644" lon="7.16339">
        <ele>428</ele>
        <time>2009-06-01T10:59:37Z</time>
      </trkpt>
      <trkpt lat="48.40635" lon="7.16347">
        <ele>429</ele>
        <time>2009-06-01T10:59:22Z</time>
      </trkpt>
      <trkpt lat="48.40626" lon="7.16363">
        <ele>429</ele>
        <time>2009-06-01T10:59:04Z</time>
      </trkpt>
      <trkpt lat="48.40622" lon="7.16363">
        <ele>429</ele>
        <time>2009-06-01T10:58:44Z</time>
      </trkpt>
      <trkpt lat="48.40617" lon="7.16364">
        <ele>429</ele>
        <time>2009-06-01T10:58:22Z</time>
      </trkpt>
      <trkpt lat="48.4062" lon="7.16362">
        <ele>429</ele>
        <time>2009-06-01T10:58:03Z</time>
      </trkpt>
      <trkpt lat="48.40618" lon="7.16362">
        <ele>429</ele>
        <time>2009-06-01T10:57:40Z</time>
      </trkpt>
      <trkpt lat="48.40619" lon="7.16364">
        <ele>428</ele>
        <time>2009-06-01T10:56:51Z</time>
      </trkpt>
      <trkpt lat="48.40619" lon="7.16362">
        <ele>428</ele>
        <time>2009-06-01T10:56:32Z</time>
      </trkpt>
      <trkpt lat="48.40614" lon="7.1636">
        <ele>428</ele>
        <time>2009-06-01T10:56:13Z</time>
      </trkpt>
      <trkpt lat="48.40602" lon="7.16353">
        <ele>429</ele>
        <time>2009-06-01T10:55:56Z</time>
      </trkpt>
      <trkpt lat="48.40578" lon="7.16343">
        <ele>429</ele>
        <time>2009-06-01T10:55:37Z</time>
      </trkpt>
      <trkpt lat="48.40557" lon="7.16332">
        <ele>429</ele>
        <time>2009-06-01T10:55:20Z</time>
      </trkpt>
      <trkpt lat="48.40535" lon="7.16325">
        <ele>429</ele>
        <time>2009-06-01T10:55:03Z</time>
      </trkpt>
      <trkpt lat="48.40526" lon="7.16316">
        <ele>428</ele>
        <time>2009-06-01T10:54:49Z</time>
      </trkpt>
      <trkpt lat="48.40514" lon="7.16317">
        <ele>428</ele>
        <time>2009-06-01T10:54:38Z</time>
      </trkpt>
      <trkpt lat="48.40495" lon="7.1631">
        <ele>428</ele>
        <time>2009-06-01T10:54:23Z</time>
      </trkpt>
      <trkpt lat="48.40479" lon="7.16301">
        <ele>428</ele>
        <time>2009-06-01T10:54:09Z</time>
      </trkpt>
      <trkpt lat="48.40455" lon="7.16285">
        <ele>428</ele>
        <time>2009-06-01T10:53:51Z</time>
      </trkpt>
      <trkpt lat="48.40436" lon="7.16266">
        <ele>428</ele>
        <time>2009-06-01T10:53:35Z</time>
      </trkpt>
      <trkpt lat="48.4044" lon="7.16278">
        <ele>429</ele>
        <time>2009-06-01T10:53:18Z</time>
      </trkpt>
      <trkpt lat="48.40432" lon="7.16252">
        <ele>429</ele>
        <time>2009-06-01T10:52:58Z</time>
      </trkpt>
      <trkpt lat="48.40429" lon="7.16235">
        <ele>428</ele>
        <time>2009-06-01T10:52:46Z</time>
      </trkpt>
      <trkpt lat="48.40422" lon="7.16214">
        <ele>427</ele>
        <time>2009-06-01T10:52:31Z</time>
      </trkpt>
      <trkpt lat="48.40417" lon="7.16212">
        <ele>427</ele>
        <time>2009-06-01T10:52:26Z</time>
      </trkpt>
      <trkpt lat="48.40403" lon="7.1621">
        <ele>428</ele>
        <time>2009-06-01T10:52:15Z</time>
      </trkpt>
      <trkpt lat="48.40394" lon="7.16201">
        <ele>428</ele>
        <time>2009-06-01T10:52:04Z</time>
      </trkpt>
      <trkpt lat="48.40393" lon="7.1619">
        <ele>428</ele>
        <time>2009-06-01T10:51:45Z</time>
      </trkpt>
      <trkpt lat="48.4039" lon="7.16171">
        <ele>428</ele>
        <time>2009-06-01T10:51:29Z</time>
      </trkpt>
      <trkpt lat="48.40387" lon="7.16171">
        <ele>429</ele>
        <time>2009-06-01T10:50:58Z</time>
      </trkpt>
      <trkpt lat="48.4038" lon="7.16172">
        <ele>429</ele>
        <time>2009-06-01T10:50:44Z</time>
      </trkpt>
      <trkpt lat="48.40366" lon="7.1618">
        <ele>428</ele>
        <time>2009-06-01T10:50:32Z</time>
      </trkpt>
      <trkpt lat="48.40363" lon="7.16182">
        <ele>428</ele>
        <time>2009-06-01T10:50:30Z</time>
      </trkpt>
      <trkpt lat="48.40358" lon="7.16192">
        <ele>428</ele>
        <time>2009-06-01T10:50:24Z</time>
      </trkpt>
      <trkpt lat="48.40355" lon="7.16195">
        <ele>428</ele>
        <time>2009-06-01T10:50:21Z</time>
      </trkpt>
      <trkpt lat="48.40352" lon="7.16201">
        <ele>428</ele>
        <time>2009-06-01T10:50:17Z</time>
      </trkpt>
      <trkpt lat="48.40345" lon="7.16204">
        <ele>429</ele>
        <time>2009-06-01T10:50:12Z</time>
      </trkpt>
      <trkpt lat="48.40334" lon="7.16209">
        <ele>429</ele>
        <time>2009-06-01T10:50:06Z</time>
      </trkpt>
      <trkpt lat="48.40325" lon="7.1623">
        <ele>430</ele>
        <time>2009-06-01T10:49:54Z</time>
      </trkpt>
      <trkpt lat="48.40303" lon="7.16253">
        <ele>432</ele>
        <time>2009-06-01T10:49:34Z</time>
      </trkpt>
      <trkpt lat="48.40285" lon="7.16267">
        <ele>433</ele>
        <time>2009-06-01T10:49:18Z</time>
      </trkpt>
      <trkpt lat="48.40263" lon="7.16286">
        <ele>435</ele>
        <time>2009-06-01T10:49:00Z</time>
      </trkpt>
      <trkpt lat="48.40248" lon="7.16308">
        <ele>436</ele>
        <time>2009-06-01T10:48:43Z</time>
      </trkpt>
      <trkpt lat="48.40227" lon="7.1634">
        <ele>438</ele>
        <time>2009-06-01T10:48:21Z</time>
      </trkpt>
      <trkpt lat="48.40207" lon="7.16367">
        <ele>439</ele>
        <time>2009-06-01T10:48:01Z</time>
      </trkpt>
      <trkpt lat="48.40184" lon="7.16386">
        <ele>440</ele>
        <time>2009-06-01T10:47:42Z</time>
      </trkpt>
      <trkpt lat="48.40165" lon="7.16398">
        <ele>441</ele>
        <time>2009-06-01T10:47:28Z</time>
      </trkpt>
      <trkpt lat="48.40143" lon="7.1641">
        <ele>442</ele>
        <time>2009-06-01T10:47:11Z</time>
      </trkpt>
      <trkpt lat="48.40118" lon="7.16422">
        <ele>443</ele>
        <time>2009-06-01T10:46:50Z</time>
      </trkpt>
      <trkpt lat="48.401" lon="7.16431">
        <ele>444</ele>
        <time>2009-06-01T10:46:35Z</time>
      </trkpt>
      <trkpt lat="48.40082" lon="7.16437">
        <ele>444</ele>
        <time>2009-06-01T10:46:20Z</time>
      </trkpt>
      <trkpt lat="48.4007" lon="7.16441">
        <ele>445</ele>
        <time>2009-06-01T10:46:11Z</time>
      </trkpt>
      <trkpt lat="48.40049" lon="7.1645">
        <ele>446</ele>
        <time>2009-06-01T10:45:55Z</time>
      </trkpt>
      <trkpt lat="48.40026" lon="7.16456">
        <ele>446</ele>
        <time>2009-06-01T10:45:38Z</time>
      </trkpt>
      <trkpt lat="48.40006" lon="7.16459">
        <ele>448</ele>
        <time>2009-06-01T10:45:23Z</time>
      </trkpt>
      <trkpt lat="48.39984" lon="7.16458">
        <ele>449</ele>
        <time>2009-06-01T10:45:06Z</time>
      </trkpt>
      <trkpt lat="48.39962" lon="7.16461">
        <ele>450</ele>
        <time>2009-06-01T10:44:51Z</time>
      </trkpt>
      <trkpt lat="48.39937" lon="7.16475">
        <ele>450</ele>
        <time>2009-06-01T10:44:32Z</time>
      </trkpt>
      <trkpt lat="48.39932" lon="7.16478">
        <ele>450</ele>
        <time>2009-06-01T10:44:28Z</time>
      </trkpt>
      <trkpt lat="48.39918" lon="7.16487">
        <ele>450</ele>
        <time>2009-06-01T10:44:17Z</time>
      </trkpt>
      <trkpt lat="48.39896" lon="7.16505">
        <ele>451</ele>
        <time>2009-06-01T10:43:58Z</time>
      </trkpt>
      <trkpt lat="48.39877" lon="7.16519">
        <ele>451</ele>
        <time>2009-06-01T10:43:42Z</time>
      </trkpt>
      <trkpt lat="48.39866" lon="7.16525">
        <ele>451</ele>
        <time>2009-06-01T10:43:33Z</time>
      </trkpt>
      <trkpt lat="48.39836" lon="7.16544">
        <ele>451</ele>
        <time>2009-06-01T10:43:08Z</time>
      </trkpt>
      <trkpt lat="48.3983" lon="7.16546">
        <ele>452</ele>
        <time>2009-06-01T10:43:04Z</time>
      </trkpt>
      <trkpt lat="48.39816" lon="7.16555">
        <ele>452</ele>
        <time>2009-06-01T10:42:53Z</time>
      </trkpt>
      <trkpt lat="48.39794" lon="7.16568">
        <ele>452</ele>
        <time>2009-06-01T10:42:35Z</time>
      </trkpt>
      <trkpt lat="48.39775" lon="7.16581">
        <ele>453</ele>
        <time>2009-06-01T10:42:18Z</time>
      </trkpt>
      <trkpt lat="48.39757" lon="7.16588">
        <ele>453</ele>
        <time>2009-06-01T10:42:04Z</time>
      </trkpt>
      <trkpt lat="48.3975" lon="7.16591">
        <ele>453</ele>
        <time>2009-06-01T10:41:56Z</time>
      </trkpt>
      <trkpt lat="48.39746" lon="7.16594">
        <ele>454</ele>
        <time>2009-06-01T10:41:52Z</time>
      </trkpt>
      <trkpt lat="48.39728" lon="7.16604">
        <ele>454</ele>
        <time>2009-06-01T10:41:37Z</time>
      </trkpt>
      <trkpt lat="48.39706" lon="7.1662">
        <ele>454</ele>
        <time>2009-06-01T10:41:18Z</time>
      </trkpt>
      <trkpt lat="48.39683" lon="7.16635">
        <ele>455</ele>
        <time>2009-06-01T10:41:00Z</time>
      </trkpt>
      <trkpt lat="48.3966" lon="7.16648">
        <ele>455</ele>
        <time>2009-06-01T10:40:43Z</time>
      </trkpt>
      <trkpt lat="48.39638" lon="7.16666">
        <ele>456</ele>
        <time>2009-06-01T10:40:24Z</time>
      </trkpt>
      <trkpt lat="48.39618" lon="7.16683">
        <ele>457</ele>
        <time>2009-06-01T10:40:08Z</time>
      </trkpt>
      <trkpt lat="48.39597" lon="7.16707">
        <ele>457</ele>
        <time>2009-06-01T10:39:49Z</time>
      </trkpt>
      <trkpt lat="48.39578" lon="7.16727">
        <ele>457</ele>
        <time>2009-06-01T10:39:32Z</time>
      </trkpt>
      <trkpt lat="48.39575" lon="7.1673">
        <ele>459</ele>
        <time>2009-06-01T10:39:30Z</time>
      </trkpt>
      <trkpt lat="48.39566" lon="7.16741">
        <ele>457</ele>
        <time>2009-06-01T10:39:21Z</time>
      </trkpt>
      <trkpt lat="48.39547" lon="7.16759">
        <ele>458</ele>
        <time>2009-06-01T10:39:02Z</time>
      </trkpt>
      <trkpt lat="48.39529" lon="7.16777">
        <ele>458</ele>
        <time>2009-06-01T10:38:46Z</time>
      </trkpt>
      <trkpt lat="48.39512" lon="7.16801">
        <ele>459</ele>
        <time>2009-06-01T10:38:29Z</time>
      </trkpt>
      <trkpt lat="48.39496" lon="7.16827">
        <ele>459</ele>
        <time>2009-06-01T10:38:12Z</time>
      </trkpt>
      <trkpt lat="48.39482" lon="7.16854">
        <ele>459</ele>
        <time>2009-06-01T10:37:55Z</time>
      </trkpt>
      <trkpt lat="48.39466" lon="7.16881">
        <ele>460</ele>
        <time>2009-06-01T10:37:37Z</time>
      </trkpt>
      <trkpt lat="48.39458" lon="7.16902">
        <ele>460</ele>
        <time>2009-06-01T10:37:23Z</time>
      </trkpt>
      <trkpt lat="48.39447" lon="7.16934">
        <ele>460</ele>
        <time>2009-06-01T10:37:06Z</time>
      </trkpt>
      <trkpt lat="48.39433" lon="7.16967">
        <ele>460</ele>
        <time>2009-06-01T10:36:47Z</time>
      </trkpt>
      <trkpt lat="48.39418" lon="7.17004">
        <ele>460</ele>
        <time>2009-06-01T10:36:26Z</time>
      </trkpt>
      <trkpt lat="48.39416" lon="7.17006">
        <ele>461</ele>
        <time>2009-06-01T10:36:24Z</time>
      </trkpt>
      <trkpt lat="48.39402" lon="7.17033">
        <ele>461</ele>
        <time>2009-06-01T10:36:08Z</time>
      </trkpt>
      <trkpt lat="48.39388" lon="7.17068">
        <ele>461</ele>
        <time>2009-06-01T10:35:48Z</time>
      </trkpt>
      <trkpt lat="48.39374" lon="7.17099">
        <ele>462</ele>
        <time>2009-06-01T10:35:30Z</time>
      </trkpt>
      <trkpt lat="48.39359" lon="7.17122">
        <ele>462</ele>
        <time>2009-06-01T10:35:14Z</time>
      </trkpt>
      <trkpt lat="48.39343" lon="7.17155">
        <ele>463</ele>
        <time>2009-06-01T10:34:53Z</time>
      </trkpt>
      <trkpt lat="48.39325" lon="7.17185">
        <ele>464</ele>
        <time>2009-06-01T10:34:33Z</time>
      </trkpt>
      <trkpt lat="48.39313" lon="7.17215">
        <ele>464</ele>
        <time>2009-06-01T10:34:17Z</time>
      </trkpt>
      <trkpt lat="48.39292" lon="7.17241">
        <ele>465</ele>
        <time>2009-06-01T10:33:57Z</time>
      </trkpt>
      <trkpt lat="48.3927" lon="7.17273">
        <ele>465</ele>
        <time>2009-06-01T10:33:35Z</time>
      </trkpt>
      <trkpt lat="48.39258" lon="7.17299">
        <ele>464</ele>
        <time>2009-06-01T10:33:19Z</time>
      </trkpt>
      <trkpt lat="48.39244" lon="7.17333">
        <ele>464</ele>
        <time>2009-06-01T10:32:59Z</time>
      </trkpt>
      <trkpt lat="48.39235" lon="7.17367">
        <ele>465</ele>
        <time>2009-06-01T10:32:42Z</time>
      </trkpt>
      <trkpt lat="48.39226" lon="7.174">
        <ele>465</ele>
        <time>2009-06-01T10:32:24Z</time>
      </trkpt>
      <trkpt lat="48.39223" lon="7.17411">
        <ele>464</ele>
        <time>2009-06-01T10:32:18Z</time>
      </trkpt>
      <trkpt lat="48.39217" lon="7.1743">
        <ele>464</ele>
        <time>2009-06-01T10:32:04Z</time>
      </trkpt>
      <trkpt lat="48.39215" lon="7.17434">
        <ele>464</ele>
        <time>2009-06-01T10:32:02Z</time>
      </trkpt>
      <trkpt lat="48.392" lon="7.17471">
        <ele>464</ele>
        <time>2009-06-01T10:31:40Z</time>
      </trkpt>
      <trkpt lat="48.39192" lon="7.17498">
        <ele>463</ele>
        <time>2009-06-01T10:31:24Z</time>
      </trkpt>
      <trkpt lat="48.39182" lon="7.17529">
        <ele>464</ele>
        <time>2009-06-01T10:31:07Z</time>
      </trkpt>
      <trkpt lat="48.39182" lon="7.17531">
        <ele>468</ele>
        <time>2009-06-01T10:31:06Z</time>
      </trkpt>
      <trkpt lat="48.39181" lon="7.17533">
        <ele>460</ele>
        <time>2009-06-01T10:31:05Z</time>
      </trkpt>
      <trkpt lat="48.3918" lon="7.17535">
        <ele>468</ele>
        <time>2009-06-01T10:31:04Z</time>
      </trkpt>
      <trkpt lat="48.39176" lon="7.17546">
        <ele>463</ele>
        <time>2009-06-01T10:30:58Z</time>
      </trkpt>
      <trkpt lat="48.39173" lon="7.17553">
        <ele>464</ele>
        <time>2009-06-01T10:30:54Z</time>
      </trkpt>
      <trkpt lat="48.39173" lon="7.17554">
        <ele>467</ele>
        <time>2009-06-01T10:30:53Z</time>
      </trkpt>
      <trkpt lat="48.39172" lon="7.17556">
        <ele>464</ele>
        <time>2009-06-01T10:30:52Z</time>
      </trkpt>
      <trkpt lat="48.39171" lon="7.1756">
        <ele>461</ele>
        <time>2009-06-01T10:30:50Z</time>
      </trkpt>
      <trkpt lat="48.3917" lon="7.17561">
        <ele>467</ele>
        <time>2009-06-01T10:30:49Z</time>
      </trkpt>
      <trkpt lat="48.39169" lon="7.17563">
        <ele>459</ele>
        <time>2009-06-01T10:30:48Z</time>
      </trkpt>
      <trkpt lat="48.39168" lon="7.17565">
        <ele>467</ele>
        <time>2009-06-01T10:30:47Z</time>
      </trkpt>
      <trkpt lat="48.39159" lon="7.17584">
        <ele>464</ele>
        <time>2009-06-01T10:30:35Z</time>
      </trkpt>
      <trkpt lat="48.39148" lon="7.17612">
        <ele>464</ele>
        <time>2009-06-01T10:30:19Z</time>
      </trkpt>
      <trkpt lat="48.39136" lon="7.17644">
        <ele>463</ele>
        <time>2009-06-01T10:30:00Z</time>
      </trkpt>
      <trkpt lat="48.39122" lon="7.17681">
        <ele>464</ele>
        <time>2009-06-01T10:29:39Z</time>
      </trkpt>
      <trkpt lat="48.39107" lon="7.1772">
        <ele>464</ele>
        <time>2009-06-01T10:29:16Z</time>
      </trkpt>
      <trkpt lat="48.39097" lon="7.17746">
        <ele>464</ele>
        <time>2009-06-01T10:29:01Z</time>
      </trkpt>
      <trkpt lat="48.39084" lon="7.1778">
        <ele>464</ele>
        <time>2009-06-01T10:28:41Z</time>
      </trkpt>
      <trkpt lat="48.39078" lon="7.17798">
        <ele>464</ele>
        <time>2009-06-01T10:28:31Z</time>
      </trkpt>
      <trkpt lat="48.39065" lon="7.17833">
        <ele>464</ele>
        <time>2009-06-01T10:28:11Z</time>
      </trkpt>
      <trkpt lat="48.39058" lon="7.17852">
        <ele>464</ele>
        <time>2009-06-01T10:27:57Z</time>
      </trkpt>
      <trkpt lat="48.39047" lon="7.17882">
        <ele>464</ele>
        <time>2009-06-01T10:27:40Z</time>
      </trkpt>
      <trkpt lat="48.39034" lon="7.17905">
        <ele>464</ele>
        <time>2009-06-01T10:27:25Z</time>
      </trkpt>
      <trkpt lat="48.3902" lon="7.17931">
        <ele>465</ele>
        <time>2009-06-01T10:27:08Z</time>
      </trkpt>
      <trkpt lat="48.39009" lon="7.17958">
        <ele>465</ele>
        <time>2009-06-01T10:26:53Z</time>
      </trkpt>
      <trkpt lat="48.38998" lon="7.1799">
        <ele>466</ele>
        <time>2009-06-01T10:26:36Z</time>
      </trkpt>
      <trkpt lat="48.38987" lon="7.18012">
        <ele>466</ele>
        <time>2009-06-01T10:26:22Z</time>
      </trkpt>
      <trkpt lat="48.38984" lon="7.18014">
        <ele>467</ele>
        <time>2009-06-01T10:26:20Z</time>
      </trkpt>
      <trkpt lat="48.3897" lon="7.18042">
        <ele>467</ele>
        <time>2009-06-01T10:26:04Z</time>
      </trkpt>
      <trkpt lat="48.38955" lon="7.18066">
        <ele>466</ele>
        <time>2009-06-01T10:25:49Z</time>
      </trkpt>
      <trkpt lat="48.38937" lon="7.18089">
        <ele>466</ele>
        <time>2009-06-01T10:25:30Z</time>
      </trkpt>
      <trkpt lat="48.38923" lon="7.18103">
        <ele>466</ele>
        <time>2009-06-01T10:25:16Z</time>
      </trkpt>
      <trkpt lat="48.38909" lon="7.18121">
        <ele>467</ele>
        <time>2009-06-01T10:25:01Z</time>
      </trkpt>
      <trkpt lat="48.38887" lon="7.1814">
        <ele>467</ele>
        <time>2009-06-01T10:24:42Z</time>
      </trkpt>
      <trkpt lat="48.38864" lon="7.1816">
        <ele>467</ele>
        <time>2009-06-01T10:24:23Z</time>
      </trkpt>
      <trkpt lat="48.38843" lon="7.18179">
        <ele>468</ele>
        <time>2009-06-01T10:24:04Z</time>
      </trkpt>
      <trkpt lat="48.38822" lon="7.18197">
        <ele>468</ele>
        <time>2009-06-01T10:23:46Z</time>
      </trkpt>
      <trkpt lat="48.38798" lon="7.18217">
        <ele>468</ele>
        <time>2009-06-01T10:23:27Z</time>
      </trkpt>
      <trkpt lat="48.3879" lon="7.18225">
        <ele>468</ele>
        <time>2009-06-01T10:23:21Z</time>
      </trkpt>
      <trkpt lat="48.38774" lon="7.18236">
        <ele>468</ele>
        <time>2009-06-01T10:23:08Z</time>
      </trkpt>
      <trkpt lat="48.38771" lon="7.18241">
        <ele>468</ele>
        <time>2009-06-01T10:23:05Z</time>
      </trkpt>
      <trkpt lat="48.3877" lon="7.18243">
        <ele>468</ele>
        <time>2009-06-01T10:23:03Z</time>
      </trkpt>
      <trkpt lat="48.38753" lon="7.18258">
        <ele>469</ele>
        <time>2009-06-01T10:22:48Z</time>
      </trkpt>
      <trkpt lat="48.38746" lon="7.18265">
        <ele>469</ele>
        <time>2009-06-01T10:22:40Z</time>
      </trkpt>
      <trkpt lat="48.38721" lon="7.18278">
        <ele>470</ele>
        <time>2009-06-01T10:22:22Z</time>
      </trkpt>
      <trkpt lat="48.387" lon="7.18288">
        <ele>471</ele>
        <time>2009-06-01T10:22:04Z</time>
      </trkpt>
      <trkpt lat="48.38677" lon="7.18301">
        <ele>471</ele>
        <time>2009-06-01T10:21:46Z</time>
      </trkpt>
      <trkpt lat="48.38654" lon="7.18322">
        <ele>472</ele>
        <time>2009-06-01T10:21:27Z</time>
      </trkpt>
      <trkpt lat="48.38651" lon="7.18323">
        <ele>472</ele>
        <time>2009-06-01T10:21:25Z</time>
      </trkpt>
      <trkpt lat="48.38626" lon="7.18342">
        <ele>472</ele>
        <time>2009-06-01T10:21:06Z</time>
      </trkpt>
      <trkpt lat="48.38614" lon="7.1837">
        <ele>473</ele>
        <time>2009-06-01T10:20:48Z</time>
      </trkpt>
      <trkpt lat="48.3861" lon="7.18377">
        <ele>473</ele>
        <time>2009-06-01T10:20:44Z</time>
      </trkpt>
      <trkpt lat="48.38608" lon="7.18386">
        <ele>473</ele>
        <time>2009-06-01T10:20:39Z</time>
      </trkpt>
      <trkpt lat="48.38598" lon="7.18414">
        <ele>473</ele>
        <time>2009-06-01T10:20:24Z</time>
      </trkpt>
      <trkpt lat="48.38585" lon="7.18448">
        <ele>474</ele>
        <time>2009-06-01T10:20:08Z</time>
      </trkpt>
      <trkpt lat="48.38573" lon="7.1848">
        <ele>475</ele>
        <time>2009-06-01T10:19:52Z</time>
      </trkpt>
      <trkpt lat="48.38562" lon="7.18511">
        <ele>475</ele>
        <time>2009-06-01T10:19:35Z</time>
      </trkpt>
      <trkpt lat="48.38549" lon="7.18542">
        <ele>475</ele>
        <time>2009-06-01T10:19:17Z</time>
      </trkpt>
      <trkpt lat="48.38548" lon="7.18548">
        <ele>476</ele>
        <time>2009-06-01T10:19:14Z</time>
      </trkpt>
      <trkpt lat="48.38536" lon="7.18568">
        <ele>476</ele>
        <time>2009-06-01T10:19:00Z</time>
      </trkpt>
      <trkpt lat="48.38524" lon="7.18587">
        <ele>477</ele>
        <time>2009-06-01T10:18:47Z</time>
      </trkpt>
      <trkpt lat="48.38514" lon="7.18603">
        <ele>478</ele>
        <time>2009-06-01T10:18:36Z</time>
      </trkpt>
      <trkpt lat="48.38498" lon="7.18622">
        <ele>478</ele>
        <time>2009-06-01T10:18:22Z</time>
      </trkpt>
      <trkpt lat="48.38481" lon="7.18644">
        <ele>479</ele>
        <time>2009-06-01T10:18:06Z</time>
      </trkpt>
      <trkpt lat="48.38467" lon="7.18668">
        <ele>479</ele>
        <time>2009-06-01T10:17:50Z</time>
      </trkpt>
      <trkpt lat="48.3845" lon="7.18697">
        <ele>479</ele>
        <time>2009-06-01T10:17:31Z</time>
      </trkpt>
      <trkpt lat="48.38438" lon="7.18727">
        <ele>480</ele>
        <time>2009-06-01T10:17:14Z</time>
      </trkpt>
      <trkpt lat="48.38429" lon="7.18758">
        <ele>480</ele>
        <time>2009-06-01T10:16:57Z</time>
      </trkpt>
      <trkpt lat="48.38417" lon="7.18785">
        <ele>480</ele>
        <time>2009-06-01T10:16:42Z</time>
      </trkpt>
      <trkpt lat="48.38405" lon="7.18813">
        <ele>481</ele>
        <time>2009-06-01T10:16:26Z</time>
      </trkpt>
      <trkpt lat="48.38392" lon="7.18844">
        <ele>481</ele>
        <time>2009-06-01T10:16:08Z</time>
      </trkpt>
      <trkpt lat="48.38386" lon="7.18853">
        <ele>482</ele>
        <time>2009-06-01T10:16:02Z</time>
      </trkpt>
      <trkpt lat="48.38384" lon="7.18856">
        <ele>482</ele>
        <time>2009-06-01T10:16:00Z</time>
      </trkpt>
      <trkpt lat="48.38378" lon="7.18868">
        <ele>482</ele>
        <time>2009-06-01T10:15:53Z</time>
      </trkpt>
      <trkpt lat="48.38359" lon="7.18894">
        <ele>483</ele>
        <time>2009-06-01T10:15:36Z</time>
      </trkpt>
      <trkpt lat="48.38345" lon="7.18907">
        <ele>484</ele>
        <time>2009-06-01T10:15:23Z</time>
      </trkpt>
      <trkpt lat="48.38342" lon="7.18911">
        <ele>484</ele>
        <time>2009-06-01T10:15:20Z</time>
      </trkpt>
      <trkpt lat="48.38327" lon="7.18929">
        <ele>485</ele>
        <time>2009-06-01T10:15:04Z</time>
      </trkpt>
      <trkpt lat="48.38309" lon="7.1895">
        <ele>486</ele>
        <time>2009-06-01T10:14:49Z</time>
      </trkpt>
      <trkpt lat="48.38289" lon="7.18969">
        <ele>487</ele>
        <time>2009-06-01T10:14:31Z</time>
      </trkpt>
      <trkpt lat="48.3827" lon="7.18988">
        <ele>488</ele>
        <time>2009-06-01T10:14:13Z</time>
      </trkpt>
      <trkpt lat="48.38266" lon="7.18993">
        <ele>488</ele>
        <time>2009-06-01T10:14:09Z</time>
      </trkpt>
      <trkpt lat="48.38246" lon="7.1901">
        <ele>488</ele>
        <time>2009-06-01T10:13:52Z</time>
      </trkpt>
      <trkpt lat="48.38224" lon="7.19029">
        <ele>488</ele>
        <time>2009-06-01T10:13:33Z</time>
      </trkpt>
      <trkpt lat="48.38208" lon="7.1904">
        <ele>489</ele>
        <time>2009-06-01T10:13:20Z</time>
      </trkpt>
      <trkpt lat="48.38187" lon="7.19051">
        <ele>490</ele>
        <time>2009-06-01T10:13:04Z</time>
      </trkpt>
      <trkpt lat="48.38173" lon="7.19054">
        <ele>490</ele>
        <time>2009-06-01T10:12:53Z</time>
      </trkpt>
      <trkpt lat="48.38142" lon="7.19074">
        <ele>491</ele>
        <time>2009-06-01T10:12:34Z</time>
      </trkpt>
      <trkpt lat="48.38121" lon="7.19098">
        <ele>492</ele>
        <time>2009-06-01T10:12:16Z</time>
      </trkpt>
      <trkpt lat="48.38106" lon="7.19122">
        <ele>493</ele>
        <time>2009-06-01T10:11:59Z</time>
      </trkpt>
      <trkpt lat="48.38091" lon="7.19145">
        <ele>494</ele>
        <time>2009-06-01T10:11:43Z</time>
      </trkpt>
      <trkpt lat="48.38066" lon="7.19157">
        <ele>495</ele>
        <time>2009-06-01T10:11:26Z</time>
      </trkpt>
      <trkpt lat="48.38045" lon="7.19173">
        <ele>496</ele>
        <time>2009-06-01T10:11:09Z</time>
      </trkpt>
      <trkpt lat="48.38027" lon="7.19182">
        <ele>497</ele>
        <time>2009-06-01T10:10:53Z</time>
      </trkpt>
      <trkpt lat="48.38006" lon="7.19196">
        <ele>498</ele>
        <time>2009-06-01T10:10:33Z</time>
      </trkpt>
      <trkpt lat="48.37998" lon="7.19207">
        <ele>499</ele>
        <time>2009-06-01T10:10:23Z</time>
      </trkpt>
      <trkpt lat="48.3798" lon="7.19233">
        <ele>500</ele>
        <time>2009-06-01T10:10:02Z</time>
      </trkpt>
      <trkpt lat="48.37971" lon="7.19253">
        <ele>500</ele>
        <time>2009-06-01T10:09:47Z</time>
      </trkpt>
      <trkpt lat="48.37961" lon="7.19267">
        <ele>500</ele>
        <time>2009-06-01T10:09:32Z</time>
      </trkpt>
      <trkpt lat="48.3796" lon="7.19267">
        <ele>500</ele>
        <time>2009-06-01T10:09:12Z</time>
      </trkpt>
      <trkpt lat="48.3796" lon="7.19267">
        <ele>500</ele>
        <time>2009-06-01T10:08:34Z</time>
      </trkpt>
      <trkpt lat="48.3796" lon="7.19267">
        <ele>499</ele>
        <time>2009-06-01T10:08:08Z</time>
      </trkpt>
      <trkpt lat="48.37959" lon="7.19267">
        <ele>500</ele>
        <time>2009-06-01T10:07:24Z</time>
      </trkpt>
      <trkpt lat="48.37957" lon="7.19262">
        <ele>500</ele>
        <time>2009-06-01T10:06:27Z</time>
      </trkpt>
      <trkpt lat="48.37959" lon="7.19265">
        <ele>500</ele>
        <time>2009-06-01T10:05:41Z</time>
      </trkpt>
      <trkpt lat="48.3796" lon="7.19268">
        <ele>500</ele>
        <time>2009-06-01T10:05:07Z</time>
      </trkpt>
      <trkpt lat="48.37959" lon="7.19267">
        <ele>500</ele>
        <time>2009-06-01T10:04:31Z</time>
      </trkpt>
      <trkpt lat="48.37958" lon="7.19273">
        <ele>500</ele>
        <time>2009-06-01T10:04:08Z</time>
      </trkpt>
      <trkpt lat="48.37941" lon="7.19302">
        <ele>500</ele>
        <time>2009-06-01T10:03:48Z</time>
      </trkpt>
      <trkpt lat="48.37936" lon="7.19309">
        <ele>500</ele>
        <time>2009-06-01T10:03:36Z</time>
      </trkpt>
      <trkpt lat="48.37933" lon="7.19317">
        <ele>500</ele>
        <time>2009-06-01T10:03:21Z</time>
      </trkpt>
      <trkpt lat="48.37918" lon="7.19335">
        <ele>501</ele>
        <time>2009-06-01T10:03:10Z</time>
      </trkpt>
      <trkpt lat="48.37897" lon="7.19361">
        <ele>502</ele>
        <time>2009-06-01T10:02:50Z</time>
      </trkpt>
      <trkpt lat="48.37869" lon="7.19393">
        <ele>503</ele>
        <time>2009-06-01T10:02:26Z</time>
      </trkpt>
      <trkpt lat="48.37852" lon="7.19418">
        <ele>505</ele>
        <time>2009-06-01T10:02:08Z</time>
      </trkpt>
      <trkpt lat="48.37824" lon="7.1946">
        <ele>507</ele>
        <time>2009-06-01T10:01:39Z</time>
      </trkpt>
      <trkpt lat="48.37803" lon="7.19492">
        <ele>507</ele>
        <time>2009-06-01T10:01:17Z</time>
      </trkpt>
      <trkpt lat="48.37783" lon="7.19529">
        <ele>509</ele>
        <time>2009-06-01T10:00:55Z</time>
      </trkpt>
      <trkpt lat="48.37766" lon="7.19559">
        <ele>510</ele>
        <time>2009-06-01T10:00:36Z</time>
      </trkpt>
      <trkpt lat="48.37745" lon="7.19592">
        <ele>510</ele>
        <time>2009-06-01T10:00:16Z</time>
      </trkpt>
      <trkpt lat="48.37722" lon="7.19624">
        <ele>511</ele>
        <time>2009-06-01T09:59:53Z</time>
      </trkpt>
      <trkpt lat="48.37696" lon="7.19653">
        <ele>512</ele>
        <time>2009-06-01T09:59:31Z</time>
      </trkpt>
      <trkpt lat="48.37671" lon="7.1967">
        <ele>511</ele>
        <time>2009-06-01T09:59:10Z</time>
      </trkpt>
      <trkpt lat="48.37651" lon="7.19675">
        <ele>511</ele>
        <time>2009-06-01T09:58:53Z</time>
      </trkpt>
      <trkpt lat="48.37625" lon="7.19682">
        <ele>511</ele>
        <time>2009-06-01T09:58:34Z</time>
      </trkpt>
      <trkpt lat="48.37593" lon="7.1969">
        <ele>510</ele>
        <time>2009-06-01T09:58:10Z</time>
      </trkpt>
      <trkpt lat="48.37566" lon="7.19697">
        <ele>510</ele>
        <time>2009-06-01T09:57:49Z</time>
      </trkpt>
      <trkpt lat="48.3754" lon="7.19705">
        <ele>511</ele>
        <time>2009-06-01T09:57:29Z</time>
      </trkpt>
      <trkpt lat="48.37516" lon="7.19716">
        <ele>512</ele>
        <time>2009-06-01T09:57:11Z</time>
      </trkpt>
      <trkpt lat="48.37495" lon="7.19728">
        <ele>512</ele>
        <time>2009-06-01T09:56:54Z</time>
      </trkpt>
      <trkpt lat="48.37488" lon="7.19737">
        <ele>512</ele>
        <time>2009-06-01T09:56:46Z</time>
      </trkpt>
      <trkpt lat="48.37473" lon="7.19761">
        <ele>513</ele>
        <time>2009-06-01T09:56:28Z</time>
      </trkpt>
      <trkpt lat="48.37466" lon="7.19769">
        <ele>513</ele>
        <time>2009-06-01T09:56:21Z</time>
      </trkpt>
      <trkpt lat="48.37461" lon="7.19772">
        <ele>513</ele>
        <time>2009-06-01T09:56:04Z</time>
      </trkpt>
      <trkpt lat="48.37461" lon="7.19773">
        <ele>517</ele>
        <time>2009-06-01T09:56:03Z</time>
      </trkpt>
      <trkpt lat="48.37458" lon="7.19775">
        <ele>514</ele>
        <time>2009-06-01T09:55:59Z</time>
      </trkpt>
      <trkpt lat="48.37458" lon="7.19776">
        <ele>509</ele>
        <time>2009-06-01T09:55:58Z</time>
      </trkpt>
      <trkpt lat="48.37457" lon="7.19776">
        <ele>513</ele>
        <time>2009-06-01T09:55:57Z</time>
      </trkpt>
      <trkpt lat="48.37456" lon="7.19777">
        <ele>513</ele>
        <time>2009-06-01T09:55:32Z</time>
      </trkpt>
      <trkpt lat="48.37451" lon="7.19783">
        <ele>513</ele>
        <time>2009-06-01T09:55:15Z</time>
      </trkpt>
      <trkpt lat="48.37449" lon="7.19785">
        <ele>515</ele>
        <time>2009-06-01T09:55:13Z</time>
      </trkpt>
      <trkpt lat="48.37447" lon="7.19788">
        <ele>513</ele>
        <time>2009-06-01T09:55:11Z</time>
      </trkpt>
      <trkpt lat="48.37446" lon="7.19789">
        <ele>510</ele>
        <time>2009-06-01T09:55:10Z</time>
      </trkpt>
      <trkpt lat="48.37445" lon="7.1979">
        <ele>517</ele>
        <time>2009-06-01T09:55:09Z</time>
      </trkpt>
      <trkpt lat="48.37444" lon="7.19791">
        <ele>513</ele>
        <time>2009-06-01T09:55:08Z</time>
      </trkpt>
      <trkpt lat="48.37443" lon="7.19792">
        <ele>509</ele>
        <time>2009-06-01T09:55:07Z</time>
      </trkpt>
      <trkpt lat="48.37433" lon="7.198">
        <ele>514</ele>
        <time>2009-06-01T09:54:59Z</time>
      </trkpt>
      <trkpt lat="48.37432" lon="7.19801">
        <ele>514</ele>
        <time>2009-06-01T09:54:58Z</time>
      </trkpt>
      <trkpt lat="48.37431" lon="7.19802">
        <ele>512</ele>
        <time>2009-06-01T09:54:57Z</time>
      </trkpt>
      <trkpt lat="48.37429" lon="7.19804">
        <ele>515</ele>
        <time>2009-06-01T09:54:55Z</time>
      </trkpt>
      <trkpt lat="48.37426" lon="7.19805">
        <ele>513</ele>
        <time>2009-06-01T09:54:53Z</time>
      </trkpt>
      <trkpt lat="48.37425" lon="7.19806">
        <ele>508</ele>
        <time>2009-06-01T09:54:52Z</time>
      </trkpt>
      <trkpt lat="48.37419" lon="7.19811">
        <ele>515</ele>
        <time>2009-06-01T09:54:47Z</time>
      </trkpt>
      <trkpt lat="48.37418" lon="7.19812">
        <ele>510</ele>
        <time>2009-06-01T09:54:46Z</time>
      </trkpt>
      <trkpt lat="48.37417" lon="7.19812">
        <ele>517</ele>
        <time>2009-06-01T09:54:45Z</time>
      </trkpt>
      <trkpt lat="48.37414" lon="7.19814">
        <ele>514</ele>
        <time>2009-06-01T09:54:43Z</time>
      </trkpt>
      <trkpt lat="48.37413" lon="7.19815">
        <ele>514</ele>
        <time>2009-06-01T09:54:42Z</time>
      </trkpt>
      <trkpt lat="48.37411" lon="7.19817">
        <ele>511</ele>
        <time>2009-06-01T09:54:40Z</time>
      </trkpt>
      <trkpt lat="48.3741" lon="7.19818">
        <ele>518</ele>
        <time>2009-06-01T09:54:39Z</time>
      </trkpt>
      <trkpt lat="48.37409" lon="7.19819">
        <ele>513</ele>
        <time>2009-06-01T09:54:38Z</time>
      </trkpt>
      <trkpt lat="48.37407" lon="7.1982">
        <ele>509</ele>
        <time>2009-06-01T09:54:37Z</time>
      </trkpt>
      <trkpt lat="48.37402" lon="7.19824">
        <ele>514</ele>
        <time>2009-06-01T09:54:33Z</time>
      </trkpt>
      <trkpt lat="48.37383" lon="7.19833">
        <ele>514</ele>
        <time>2009-06-01T09:54:18Z</time>
      </trkpt>
      <trkpt lat="48.37362" lon="7.1983">
        <ele>514</ele>
        <time>2009-06-01T09:54:03Z</time>
      </trkpt>
      <trkpt lat="48.37341" lon="7.19813">
        <ele>515</ele>
        <time>2009-06-01T09:53:45Z</time>
      </trkpt>
      <trkpt lat="48.37316" lon="7.19793">
        <ele>515</ele>
        <time>2009-06-01T09:53:24Z</time>
      </trkpt>
      <trkpt lat="48.37292" lon="7.19792">
        <ele>516</ele>
        <time>2009-06-01T09:53:07Z</time>
      </trkpt>
      <trkpt lat="48.37273" lon="7.19814">
        <ele>517</ele>
        <time>2009-06-01T09:52:49Z</time>
      </trkpt>
      <trkpt lat="48.3726" lon="7.19849">
        <ele>518</ele>
        <time>2009-06-01T09:52:28Z</time>
      </trkpt>
      <trkpt lat="48.37241" lon="7.1988">
        <ele>519</ele>
        <time>2009-06-01T09:52:07Z</time>
      </trkpt>
      <trkpt lat="48.37217" lon="7.1991">
        <ele>519</ele>
        <time>2009-06-01T09:51:42Z</time>
      </trkpt>
      <trkpt lat="48.37189" lon="7.19929">
        <ele>520</ele>
        <time>2009-06-01T09:51:19Z</time>
      </trkpt>
      <trkpt lat="48.37162" lon="7.19949">
        <ele>521</ele>
        <time>2009-06-01T09:50:57Z</time>
      </trkpt>
      <trkpt lat="48.3714" lon="7.19972">
        <ele>523</ele>
        <time>2009-06-01T09:50:36Z</time>
      </trkpt>
      <trkpt lat="48.37106" lon="7.19992">
        <ele>525</ele>
        <time>2009-06-01T09:50:09Z</time>
      </trkpt>
      <trkpt lat="48.37073" lon="7.19989">
        <ele>525</ele>
        <time>2009-06-01T09:49:45Z</time>
      </trkpt>
      <trkpt lat="48.37044" lon="7.1998">
        <ele>527</ele>
        <time>2009-06-01T09:49:24Z</time>
      </trkpt>
      <trkpt lat="48.37023" lon="7.1996">
        <ele>527</ele>
        <time>2009-06-01T09:49:05Z</time>
      </trkpt>
      <trkpt lat="48.37012" lon="7.19933">
        <ele>527</ele>
        <time>2009-06-01T09:48:48Z</time>
      </trkpt>
      <trkpt lat="48.36997" lon="7.19906">
        <ele>526</ele>
        <time>2009-06-01T09:48:29Z</time>
      </trkpt>
      <trkpt lat="48.36982" lon="7.19874">
        <ele>527</ele>
        <time>2009-06-01T09:48:11Z</time>
      </trkpt>
      <trkpt lat="48.36965" lon="7.19841">
        <ele>527</ele>
        <time>2009-06-01T09:47:50Z</time>
      </trkpt>
      <trkpt lat="48.36942" lon="7.19809">
        <ele>528</ele>
        <time>2009-06-01T09:47:27Z</time>
      </trkpt>
      <trkpt lat="48.36919" lon="7.19786">
        <ele>528</ele>
        <time>2009-06-01T09:47:08Z</time>
      </trkpt>
      <trkpt lat="48.36907" lon="7.19773">
        <ele>529</ele>
        <time>2009-06-01T09:46:55Z</time>
      </trkpt>
      <trkpt lat="48.3688" lon="7.19752">
        <ele>530</ele>
        <time>2009-06-01T09:46:33Z</time>
      </trkpt>
      <trkpt lat="48.36864" lon="7.19733">
        <ele>529</ele>
        <time>2009-06-01T09:46:17Z</time>
      </trkpt>
      <trkpt lat="48.36849" lon="7.19728">
        <ele>530</ele>
        <time>2009-06-01T09:46:00Z</time>
      </trkpt>
      <trkpt lat="48.36818" lon="7.19719">
        <ele>530</ele>
        <time>2009-06-01T09:45:41Z</time>
      </trkpt>
      <trkpt lat="48.3679" lon="7.19707">
        <ele>530</ele>
        <time>2009-06-01T09:45:24Z</time>
      </trkpt>
      <trkpt lat="48.36765" lon="7.19701">
        <ele>530</ele>
        <time>2009-06-01T09:45:07Z</time>
      </trkpt>
      <trkpt lat="48.36746" lon="7.19692">
        <ele>532</ele>
        <time>2009-06-01T09:44:53Z</time>
      </trkpt>
      <trkpt lat="48.36729" lon="7.1969">
        <ele>532</ele>
        <time>2009-06-01T09:44:38Z</time>
      </trkpt>
      <trkpt lat="48.36726" lon="7.19691">
        <ele>532</ele>
        <time>2009-06-01T09:44:36Z</time>
      </trkpt>
      <trkpt lat="48.36713" lon="7.19687">
        <ele>532</ele>
        <time>2009-06-01T09:44:23Z</time>
      </trkpt>
      <trkpt lat="48.36687" lon="7.19684">
        <ele>533</ele>
        <time>2009-06-01T09:44:07Z</time>
      </trkpt>
      <trkpt lat="48.3666" lon="7.19689">
        <ele>535</ele>
        <time>2009-06-01T09:43:48Z</time>
      </trkpt>
      <trkpt lat="48.36638" lon="7.19692">
        <ele>536</ele>
        <time>2009-06-01T09:43:34Z</time>
      </trkpt>
      <trkpt lat="48.36636" lon="7.19693">
        <ele>539</ele>
        <time>2009-06-01T09:43:32Z</time>
      </trkpt>
      <trkpt lat="48.36634" lon="7.19694">
        <ele>536</ele>
        <time>2009-06-01T09:43:31Z</time>
      </trkpt>
      <trkpt lat="48.36632" lon="7.19694">
        <ele>532</ele>
        <time>2009-06-01T09:43:30Z</time>
      </trkpt>
      <trkpt lat="48.3663" lon="7.19694">
        <ele>540</ele>
        <time>2009-06-01T09:43:29Z</time>
      </trkpt>
      <trkpt lat="48.36629" lon="7.19696">
        <ele>536</ele>
        <time>2009-06-01T09:43:25Z</time>
      </trkpt>
      <trkpt lat="48.36628" lon="7.19697">
        <ele>532</ele>
        <time>2009-06-01T09:43:24Z</time>
      </trkpt>
      <trkpt lat="48.36628" lon="7.19698">
        <ele>540</ele>
        <time>2009-06-01T09:43:23Z</time>
      </trkpt>
      <trkpt lat="48.36627" lon="7.19699">
        <ele>537</ele>
        <time>2009-06-01T09:43:22Z</time>
      </trkpt>
      <trkpt lat="48.36626" lon="7.197">
        <ele>532</ele>
        <time>2009-06-01T09:43:21Z</time>
      </trkpt>
      <trkpt lat="48.36625" lon="7.19702">
        <ele>537</ele>
        <time>2009-06-01T09:43:20Z</time>
      </trkpt>
      <trkpt lat="48.36624" lon="7.19703">
        <ele>541</ele>
        <time>2009-06-01T09:43:19Z</time>
      </trkpt>
      <trkpt lat="48.36618" lon="7.19705">
        <ele>534</ele>
        <time>2009-06-01T09:43:15Z</time>
      </trkpt>
      <trkpt lat="48.36617" lon="7.19705">
        <ele>540</ele>
        <time>2009-06-01T09:43:14Z</time>
      </trkpt>
      <trkpt lat="48.36613" lon="7.19708">
        <ele>536</ele>
        <time>2009-06-01T09:43:11Z</time>
      </trkpt>
      <trkpt lat="48.36612" lon="7.19708">
        <ele>532</ele>
        <time>2009-06-01T09:43:10Z</time>
      </trkpt>
      <trkpt lat="48.36599" lon="7.19714">
        <ele>537</ele>
        <time>2009-06-01T09:43:01Z</time>
      </trkpt>
      <trkpt lat="48.36591" lon="7.19695">
        <ele>536</ele>
        <time>2009-06-01T09:42:50Z</time>
      </trkpt>
      <trkpt lat="48.36583" lon="7.19689">
        <ele>536</ele>
        <time>2009-06-01T09:42:23Z</time>
      </trkpt>
      <trkpt lat="48.3659" lon="7.19685">
        <ele>536</ele>
        <time>2009-06-01T09:42:04Z</time>
      </trkpt>
      <trkpt lat="48.36588" lon="7.19678">
        <ele>536</ele>
        <time>2009-06-01T09:41:51Z</time>
      </trkpt>
      <trkpt lat="48.36582" lon="7.19657">
        <ele>536</ele>
        <time>2009-06-01T09:41:36Z</time>
      </trkpt>
      <trkpt lat="48.36577" lon="7.19629">
        <ele>536</ele>
        <time>2009-06-01T09:41:22Z</time>
      </trkpt>
      <trkpt lat="48.36571" lon="7.1962">
        <ele>536</ele>
        <time>2009-06-01T09:41:14Z</time>
      </trkpt>
      <trkpt lat="48.36564" lon="7.19619">
        <ele>535</ele>
        <time>2009-06-01T09:41:06Z</time>
      </trkpt>
      <trkpt lat="48.36551" lon="7.19623">
        <ele>536</ele>
        <time>2009-06-01T09:40:51Z</time>
      </trkpt>
      <trkpt lat="48.36543" lon="7.19628">
        <ele>536</ele>
        <time>2009-06-01T09:40:46Z</time>
      </trkpt>
      <trkpt lat="48.36536" lon="7.1963">
        <ele>536</ele>
        <time>2009-06-01T09:40:39Z</time>
      </trkpt>
      <trkpt lat="48.36518" lon="7.19642">
        <ele>536</ele>
        <time>2009-06-01T09:40:24Z</time>
      </trkpt>
      <trkpt lat="48.36499" lon="7.19655">
        <ele>537</ele>
        <time>2009-06-01T09:40:08Z</time>
      </trkpt>
      <trkpt lat="48.36482" lon="7.19673">
        <ele>537</ele>
        <time>2009-06-01T09:39:50Z</time>
      </trkpt>
      <trkpt lat="48.36456" lon="7.19694">
        <ele>538</ele>
        <time>2009-06-01T09:39:27Z</time>
      </trkpt>
      <trkpt lat="48.36428" lon="7.1971">
        <ele>538</ele>
        <time>2009-06-01T09:39:04Z</time>
      </trkpt>
      <trkpt lat="48.36411" lon="7.1971">
        <ele>537</ele>
        <time>2009-06-01T09:38:49Z</time>
      </trkpt>
      <trkpt lat="48.3639" lon="7.19708">
        <ele>535</ele>
        <time>2009-06-01T09:38:32Z</time>
      </trkpt>
      <trkpt lat="48.36386" lon="7.19708">
        <ele>535</ele>
        <time>2009-06-01T09:38:29Z</time>
      </trkpt>
      <trkpt lat="48.36382" lon="7.19713">
        <ele>536</ele>
        <time>2009-06-01T09:38:08Z</time>
      </trkpt>
      <trkpt lat="48.36377" lon="7.19724">
        <ele>536</ele>
        <time>2009-06-01T09:37:55Z</time>
      </trkpt>
      <trkpt lat="48.36367" lon="7.19755">
        <ele>537</ele>
        <time>2009-06-01T09:37:39Z</time>
      </trkpt>
      <trkpt lat="48.36366" lon="7.19788">
        <ele>538</ele>
        <time>2009-06-01T09:37:21Z</time>
      </trkpt>
      <trkpt lat="48.36366" lon="7.19823">
        <ele>538</ele>
        <time>2009-06-01T09:37:03Z</time>
      </trkpt>
      <trkpt lat="48.3636" lon="7.19836">
        <ele>540</ele>
        <time>2009-06-01T09:36:49Z</time>
      </trkpt>
      <trkpt lat="48.36358" lon="7.19839">
        <ele>540</ele>
        <time>2009-06-01T09:36:41Z</time>
      </trkpt>
      <trkpt lat="48.36357" lon="7.19846">
        <ele>540</ele>
        <time>2009-06-01T09:36:23Z</time>
      </trkpt>
      <trkpt lat="48.36356" lon="7.19847">
        <ele>540</ele>
        <time>2009-06-01T09:36:22Z</time>
      </trkpt>
      <trkpt lat="48.36343" lon="7.19851">
        <ele>542</ele>
        <time>2009-06-01T09:36:11Z</time>
      </trkpt>
      <trkpt lat="48.36341" lon="7.19847">
        <ele>543</ele>
        <time>2009-06-01T09:36:08Z</time>
      </trkpt>
      <trkpt lat="48.36338" lon="7.19842">
        <ele>543</ele>
        <time>2009-06-01T09:36:04Z</time>
      </trkpt>
      <trkpt lat="48.36327" lon="7.1981">
        <ele>542</ele>
        <time>2009-06-01T09:35:47Z</time>
      </trkpt>
      <trkpt lat="48.36312" lon="7.19776">
        <ele>542</ele>
        <time>2009-06-01T09:35:27Z</time>
      </trkpt>
      <trkpt lat="48.36305" lon="7.19746">
        <ele>543</ele>
        <time>2009-06-01T09:35:12Z</time>
      </trkpt>
      <trkpt lat="48.36292" lon="7.19715">
        <ele>543</ele>
        <time>2009-06-01T09:34:55Z</time>
      </trkpt>
      <trkpt lat="48.3628" lon="7.1968">
        <ele>544</ele>
        <time>2009-06-01T09:34:37Z</time>
      </trkpt>
      <trkpt lat="48.36268" lon="7.19641">
        <ele>544</ele>
        <time>2009-06-01T09:34:17Z</time>
      </trkpt>
      <trkpt lat="48.3626" lon="7.19609">
        <ele>544</ele>
        <time>2009-06-01T09:34:00Z</time>
      </trkpt>
      <trkpt lat="48.36254" lon="7.19581">
        <ele>544</ele>
        <time>2009-06-01T09:33:44Z</time>
      </trkpt>
      <trkpt lat="48.36247" lon="7.19554">
        <ele>544</ele>
        <time>2009-06-01T09:33:28Z</time>
      </trkpt>
      <trkpt lat="48.36244" lon="7.19521">
        <ele>545</ele>
        <time>2009-06-01T09:33:12Z</time>
      </trkpt>
      <trkpt lat="48.36235" lon="7.1952">
        <ele>544</ele>
        <time>2009-06-01T09:33:07Z</time>
      </trkpt>
      <trkpt lat="48.36225" lon="7.19494">
        <ele>543</ele>
        <time>2009-06-01T09:32:54Z</time>
      </trkpt>
      <trkpt lat="48.36211" lon="7.1946">
        <ele>544</ele>
        <time>2009-06-01T09:32:36Z</time>
      </trkpt>
      <trkpt lat="48.36201" lon="7.19434">
        <ele>545</ele>
        <time>2009-06-01T09:32:26Z</time>
      </trkpt>
      <trkpt lat="48.36201" lon="7.19426">
        <ele>544</ele>
        <time>2009-06-01T09:31:37Z</time>
      </trkpt>
      <trkpt lat="48.36199" lon="7.19447">
        <ele>547</ele>
        <time>2009-06-01T09:30:57Z</time>
      </trkpt>
      <trkpt lat="48.362" lon="7.19445">
        <ele>545</ele>
        <time>2009-06-01T09:30:55Z</time>
      </trkpt>
      <trkpt lat="48.36201" lon="7.19444">
        <ele>539</ele>
        <time>2009-06-01T09:30:54Z</time>
      </trkpt>
      <trkpt lat="48.36201" lon="7.19443">
        <ele>547</ele>
        <time>2009-06-01T09:30:53Z</time>
      </trkpt>
      <trkpt lat="48.36201" lon="7.19443">
        <ele>549</ele>
        <time>2009-06-01T09:30:52Z</time>
      </trkpt>
      <trkpt lat="48.36202" lon="7.19441">
        <ele>545</ele>
        <time>2009-06-01T09:30:51Z</time>
      </trkpt>
      <trkpt lat="48.36204" lon="7.1944">
        <ele>539</ele>
        <time>2009-06-01T09:30:50Z</time>
      </trkpt>
      <trkpt lat="48.36205" lon="7.19441">
        <ele>544</ele>
        <time>2009-06-01T09:30:43Z</time>
      </trkpt>
      <trkpt lat="48.36199" lon="7.19437">
        <ele>545</ele>
        <time>2009-06-01T09:30:29Z</time>
      </trkpt>
      <trkpt lat="48.36195" lon="7.1943">
        <ele>546</ele>
        <time>2009-06-01T09:30:24Z</time>
      </trkpt>
      <trkpt lat="48.3619" lon="7.19424">
        <ele>546</ele>
        <time>2009-06-01T09:30:19Z</time>
      </trkpt>
      <trkpt lat="48.3618" lon="7.19405">
        <ele>548</ele>
        <time>2009-06-01T09:30:06Z</time>
      </trkpt>
      <trkpt lat="48.36155" lon="7.19392">
        <ele>550</ele>
        <time>2009-06-01T09:29:49Z</time>
      </trkpt>
      <trkpt lat="48.36149" lon="7.19388">
        <ele>551</ele>
        <time>2009-06-01T09:29:45Z</time>
      </trkpt>
      <trkpt lat="48.36129" lon="7.19387">
        <ele>554</ele>
        <time>2009-06-01T09:29:32Z</time>
      </trkpt>
      <trkpt lat="48.36109" lon="7.19396">
        <ele>556</ele>
        <time>2009-06-01T09:29:16Z</time>
      </trkpt>
      <trkpt lat="48.36092" lon="7.19405">
        <ele>559</ele>
        <time>2009-06-01T09:29:02Z</time>
      </trkpt>
      <trkpt lat="48.36073" lon="7.19407">
        <ele>561</ele>
        <time>2009-06-01T09:28:48Z</time>
      </trkpt>
      <trkpt lat="48.36059" lon="7.19405">
        <ele>564</ele>
        <time>2009-06-01T09:28:33Z</time>
      </trkpt>
      <trkpt lat="48.36042" lon="7.194">
        <ele>565</ele>
        <time>2009-06-01T09:28:21Z</time>
      </trkpt>
      <trkpt lat="48.36033" lon="7.19391">
        <ele>566</ele>
        <time>2009-06-01T09:28:15Z</time>
      </trkpt>
      <trkpt lat="48.36012" lon="7.19379">
        <ele>568</ele>
        <time>2009-06-01T09:28:00Z</time>
      </trkpt>
      <trkpt lat="48.36006" lon="7.19377">
        <ele>568</ele>
        <time>2009-06-01T09:27:56Z</time>
      </trkpt>
      <trkpt lat="48.35985" lon="7.19366">
        <ele>568</ele>
        <time>2009-06-01T09:27:39Z</time>
      </trkpt>
      <trkpt lat="48.35961" lon="7.19355">
        <ele>570</ele>
        <time>2009-06-01T09:27:22Z</time>
      </trkpt>
      <trkpt lat="48.35948" lon="7.19348">
        <ele>570</ele>
        <time>2009-06-01T09:27:09Z</time>
      </trkpt>
      <trkpt lat="48.35924" lon="7.19354">
        <ele>572</ele>
        <time>2009-06-01T09:26:53Z</time>
      </trkpt>
      <trkpt lat="48.35908" lon="7.19359">
        <ele>572</ele>
        <time>2009-06-01T09:26:43Z</time>
      </trkpt>
      <trkpt lat="48.3589" lon="7.19364">
        <ele>574</ele>
        <time>2009-06-01T09:26:30Z</time>
      </trkpt>
      <trkpt lat="48.35886" lon="7.19365">
        <ele>573</ele>
        <time>2009-06-01T09:26:28Z</time>
      </trkpt>
      <trkpt lat="48.35862" lon="7.19368">
        <ele>574</ele>
        <time>2009-06-01T09:26:15Z</time>
      </trkpt>
      <trkpt lat="48.35846" lon="7.19371">
        <ele>575</ele>
        <time>2009-06-01T09:26:02Z</time>
      </trkpt>
      <trkpt lat="48.35831" lon="7.19373">
        <ele>576</ele>
        <time>2009-06-01T09:25:49Z</time>
      </trkpt>
      <trkpt lat="48.35818" lon="7.1938">
        <ele>578</ele>
        <time>2009-06-01T09:25:36Z</time>
      </trkpt>
      <trkpt lat="48.35802" lon="7.19396">
        <ele>580</ele>
        <time>2009-06-01T09:25:21Z</time>
      </trkpt>
      <trkpt lat="48.35797" lon="7.19403">
        <ele>581</ele>
        <time>2009-06-01T09:25:17Z</time>
      </trkpt>
      <trkpt lat="48.35782" lon="7.19419">
        <ele>584</ele>
        <time>2009-06-01T09:25:04Z</time>
      </trkpt>
      <trkpt lat="48.35773" lon="7.19441">
        <ele>586</ele>
        <time>2009-06-01T09:24:49Z</time>
      </trkpt>
      <trkpt lat="48.35758" lon="7.19459">
        <ele>588</ele>
        <time>2009-06-01T09:24:34Z</time>
      </trkpt>
      <trkpt lat="48.35751" lon="7.19466">
        <ele>588</ele>
        <time>2009-06-01T09:24:29Z</time>
      </trkpt>
      <trkpt lat="48.35733" lon="7.19492">
        <ele>592</ele>
        <time>2009-06-01T09:24:13Z</time>
      </trkpt>
      <trkpt lat="48.35724" lon="7.19509">
        <ele>595</ele>
        <time>2009-06-01T09:23:59Z</time>
      </trkpt>
      <trkpt lat="48.35709" lon="7.19529">
        <ele>597</ele>
        <time>2009-06-01T09:23:44Z</time>
      </trkpt>
      <trkpt lat="48.35684" lon="7.19545">
        <ele>598</ele>
        <time>2009-06-01T09:23:29Z</time>
      </trkpt>
      <trkpt lat="48.35682" lon="7.19544">
        <ele>598</ele>
        <time>2009-06-01T09:23:28Z</time>
      </trkpt>
      <trkpt lat="48.35662" lon="7.19532">
        <ele>599</ele>
        <time>2009-06-01T09:23:13Z</time>
      </trkpt>
      <trkpt lat="48.35644" lon="7.19521">
        <ele>600</ele>
        <time>2009-06-01T09:22:59Z</time>
      </trkpt>
      <trkpt lat="48.35631" lon="7.1951">
        <ele>601</ele>
        <time>2009-06-01T09:22:43Z</time>
      </trkpt>
      <trkpt lat="48.35612" lon="7.19482">
        <ele>601</ele>
        <time>2009-06-01T09:22:25Z</time>
      </trkpt>
      <trkpt lat="48.35594" lon="7.1946">
        <ele>602</ele>
        <time>2009-06-01T09:22:09Z</time>
      </trkpt>
      <trkpt lat="48.35591" lon="7.19458">
        <ele>601</ele>
        <time>2009-06-01T09:21:48Z</time>
      </trkpt>
      <trkpt lat="48.3559" lon="7.19461">
        <ele>602</ele>
        <time>2009-06-01T09:21:17Z</time>
      </trkpt>
      <trkpt lat="48.35591" lon="7.19452">
        <ele>601</ele>
        <time>2009-06-01T09:20:19Z</time>
      </trkpt>
      <trkpt lat="48.35594" lon="7.1947">
        <ele>600</ele>
        <time>2009-06-01T09:19:20Z</time>
      </trkpt>
      <trkpt lat="48.35602" lon="7.19476">
        <ele>600</ele>
        <time>2009-06-01T09:19:09Z</time>
      </trkpt>
      <trkpt lat="48.35594" lon="7.19492">
        <ele>600</ele>
        <time>2009-06-01T09:18:45Z</time>
      </trkpt>
      <trkpt lat="48.35596" lon="7.1948">
        <ele>600</ele>
        <time>2009-06-01T09:18:28Z</time>
      </trkpt>
      <trkpt lat="48.35597" lon="7.19477">
        <ele>601</ele>
        <time>2009-06-01T09:18:26Z</time>
      </trkpt>
      <trkpt lat="48.3559" lon="7.19463">
        <ele>600</ele>
        <time>2009-06-01T09:18:07Z</time>
      </trkpt>
      <trkpt lat="48.35597" lon="7.19465">
        <ele>601</ele>
        <time>2009-06-01T09:17:38Z</time>
      </trkpt>
      <trkpt lat="48.35588" lon="7.1947">
        <ele>601</ele>
        <time>2009-06-01T09:17:13Z</time>
      </trkpt>
      <trkpt lat="48.35587" lon="7.19469">
        <ele>600</ele>
        <time>2009-06-01T09:16:42Z</time>
      </trkpt>
      <trkpt lat="48.35587" lon="7.19472">
        <ele>601</ele>
        <time>2009-06-01T09:16:16Z</time>
      </trkpt>
      <trkpt lat="48.35585" lon="7.19451">
        <ele>601</ele>
        <time>2009-06-01T09:15:57Z</time>
      </trkpt>
      <trkpt lat="48.35578" lon="7.19436">
        <ele>602</ele>
        <time>2009-06-01T09:15:49Z</time>
      </trkpt>
      <trkpt lat="48.35575" lon="7.19425">
        <ele>602</ele>
        <time>2009-06-01T09:15:42Z</time>
      </trkpt>
      <trkpt lat="48.35573" lon="7.19402">
        <ele>603</ele>
        <time>2009-06-01T09:15:28Z</time>
      </trkpt>
      <trkpt lat="48.35569" lon="7.19394">
        <ele>603</ele>
        <time>2009-06-01T09:15:23Z</time>
      </trkpt>
      <trkpt lat="48.35566" lon="7.19386">
        <ele>603</ele>
        <time>2009-06-01T09:15:18Z</time>
      </trkpt>
      <trkpt lat="48.35551" lon="7.19367">
        <ele>605</ele>
        <time>2009-06-01T09:15:03Z</time>
      </trkpt>
      <trkpt lat="48.35545" lon="7.19358">
        <ele>605</ele>
        <time>2009-06-01T09:14:58Z</time>
      </trkpt>
      <trkpt lat="48.35533" lon="7.19343">
        <ele>608</ele>
        <time>2009-06-01T09:14:45Z</time>
      </trkpt>
      <trkpt lat="48.35527" lon="7.19301">
        <ele>607</ele>
        <time>2009-06-01T09:14:27Z</time>
      </trkpt>
      <trkpt lat="48.35522" lon="7.19296">
        <ele>608</ele>
        <time>2009-06-01T09:14:23Z</time>
      </trkpt>
      <trkpt lat="48.35518" lon="7.19292">
        <ele>608</ele>
        <time>2009-06-01T09:14:19Z</time>
      </trkpt>
      <trkpt lat="48.35516" lon="7.19281">
        <ele>608</ele>
        <time>2009-06-01T09:14:12Z</time>
      </trkpt>
      <trkpt lat="48.35506" lon="7.19266">
        <ele>610</ele>
        <time>2009-06-01T09:14:03Z</time>
      </trkpt>
      <trkpt lat="48.35502" lon="7.19266">
        <ele>610</ele>
        <time>2009-06-01T09:14:00Z</time>
      </trkpt>
      <trkpt lat="48.35486" lon="7.19244">
        <ele>611</ele>
        <time>2009-06-01T09:13:43Z</time>
      </trkpt>
      <trkpt lat="48.35484" lon="7.19241">
        <ele>611</ele>
        <time>2009-06-01T09:13:40Z</time>
      </trkpt>
      <trkpt lat="48.3548" lon="7.19223">
        <ele>612</ele>
        <time>2009-06-01T09:13:30Z</time>
      </trkpt>
      <trkpt lat="48.35476" lon="7.1921">
        <ele>612</ele>
        <time>2009-06-01T09:13:22Z</time>
      </trkpt>
      <trkpt lat="48.35473" lon="7.19189">
        <ele>612</ele>
        <time>2009-06-01T09:13:13Z</time>
      </trkpt>
      <trkpt lat="48.35464" lon="7.19188">
        <ele>613</ele>
        <time>2009-06-01T09:13:08Z</time>
      </trkpt>
      <trkpt lat="48.35465" lon="7.19181">
        <ele>613</ele>
        <time>2009-06-01T09:13:06Z</time>
      </trkpt>
      <trkpt lat="48.35458" lon="7.19151">
        <ele>614</ele>
        <time>2009-06-01T09:12:52Z</time>
      </trkpt>
      <trkpt lat="48.35457" lon="7.19146">
        <ele>615</ele>
        <time>2009-06-01T09:12:50Z</time>
      </trkpt>
      <trkpt lat="48.3544" lon="7.19133">
        <ele>614</ele>
        <time>2009-06-01T09:12:37Z</time>
      </trkpt>
      <trkpt lat="48.35431" lon="7.19121">
        <ele>616</ele>
        <time>2009-06-01T09:12:27Z</time>
      </trkpt>
      <trkpt lat="48.35425" lon="7.19099">
        <ele>616</ele>
        <time>2009-06-01T09:12:15Z</time>
      </trkpt>
      <trkpt lat="48.35418" lon="7.19071">
        <ele>617</ele>
        <time>2009-06-01T09:12:00Z</time>
      </trkpt>
      <trkpt lat="48.35407" lon="7.19036">
        <ele>618</ele>
        <time>2009-06-01T09:11:40Z</time>
      </trkpt>
      <trkpt lat="48.35402" lon="7.19028">
        <ele>618</ele>
        <time>2009-06-01T09:11:34Z</time>
      </trkpt>
      <trkpt lat="48.35394" lon="7.19013">
        <ele>619</ele>
        <time>2009-06-01T09:11:22Z</time>
      </trkpt>
      <trkpt lat="48.35387" lon="7.18998">
        <ele>621</ele>
        <time>2009-06-01T09:11:09Z</time>
      </trkpt>
      <trkpt lat="48.35381" lon="7.18988">
        <ele>623</ele>
        <time>2009-06-01T09:11:00Z</time>
      </trkpt>
      <trkpt lat="48.35371" lon="7.18968">
        <ele>625</ele>
        <time>2009-06-01T09:10:45Z</time>
      </trkpt>
      <trkpt lat="48.35372" lon="7.18965">
        <ele>625</ele>
        <time>2009-06-01T09:10:43Z</time>
      </trkpt>
      <trkpt lat="48.35366" lon="7.18959">
        <ele>627</ele>
        <time>2009-06-01T09:10:36Z</time>
      </trkpt>
      <trkpt lat="48.35358" lon="7.18939">
        <ele>628</ele>
        <time>2009-06-01T09:10:25Z</time>
      </trkpt>
      <trkpt lat="48.35348" lon="7.18914">
        <ele>630</ele>
        <time>2009-06-01T09:10:11Z</time>
      </trkpt>
      <trkpt lat="48.35343" lon="7.18887">
        <ele>632</ele>
        <time>2009-06-01T09:09:56Z</time>
      </trkpt>
      <trkpt lat="48.35338" lon="7.18865">
        <ele>635</ele>
        <time>2009-06-01T09:09:41Z</time>
      </trkpt>
      <trkpt lat="48.35334" lon="7.18843">
        <ele>636</ele>
        <time>2009-06-01T09:09:28Z</time>
      </trkpt>
      <trkpt lat="48.3533" lon="7.18818">
        <ele>638</ele>
        <time>2009-06-01T09:09:12Z</time>
      </trkpt>
      <trkpt lat="48.35322" lon="7.18803">
        <ele>641</ele>
        <time>2009-06-01T09:08:59Z</time>
      </trkpt>
      <trkpt lat="48.35316" lon="7.18787">
        <ele>643</ele>
        <time>2009-06-01T09:08:48Z</time>
      </trkpt>
      <trkpt lat="48.35311" lon="7.18765">
        <ele>645</ele>
        <time>2009-06-01T09:08:36Z</time>
      </trkpt>
      <trkpt lat="48.35304" lon="7.18752">
        <ele>647</ele>
        <time>2009-06-01T09:08:24Z</time>
      </trkpt>
      <trkpt lat="48.35296" lon="7.18727">
        <ele>649</ele>
        <time>2009-06-01T09:08:10Z</time>
      </trkpt>
      <trkpt lat="48.35286" lon="7.18712">
        <ele>650</ele>
        <time>2009-06-01T09:08:00Z</time>
      </trkpt>
      <trkpt lat="48.35279" lon="7.18704">
        <ele>650</ele>
        <time>2009-06-01T09:07:47Z</time>
      </trkpt>
      <trkpt lat="48.35271" lon="7.1869">
        <ele>651</ele>
        <time>2009-06-01T09:07:34Z</time>
      </trkpt>
      <trkpt lat="48.35258" lon="7.18682">
        <ele>650</ele>
        <time>2009-06-01T09:07:21Z</time>
      </trkpt>
      <trkpt lat="48.35257" lon="7.18671">
        <ele>651</ele>
        <time>2009-06-01T09:07:17Z</time>
      </trkpt>
      <trkpt lat="48.35249" lon="7.18658">
        <ele>651</ele>
        <time>2009-06-01T09:07:06Z</time>
      </trkpt>
      <trkpt lat="48.35227" lon="7.18663">
        <ele>652</ele>
        <time>2009-06-01T09:06:55Z</time>
      </trkpt>
      <trkpt lat="48.35211" lon="7.18654">
        <ele>652</ele>
        <time>2009-06-01T09:06:42Z</time>
      </trkpt>
      <trkpt lat="48.35205" lon="7.18655">
        <ele>651</ele>
        <time>2009-06-01T09:06:31Z</time>
      </trkpt>
      <trkpt lat="48.35195" lon="7.18642">
        <ele>652</ele>
        <time>2009-06-01T09:06:20Z</time>
      </trkpt>
      <trkpt lat="48.35177" lon="7.18644">
        <ele>653</ele>
        <time>2009-06-01T09:06:08Z</time>
      </trkpt>
      <trkpt lat="48.35175" lon="7.18641">
        <ele>654</ele>
        <time>2009-06-01T09:06:03Z</time>
      </trkpt>
      <trkpt lat="48.3516" lon="7.18633">
        <ele>655</ele>
        <time>2009-06-01T09:05:49Z</time>
      </trkpt>
      <trkpt lat="48.35145" lon="7.18641">
        <ele>656</ele>
        <time>2009-06-01T09:05:37Z</time>
      </trkpt>
      <trkpt lat="48.35132" lon="7.18654">
        <ele>656</ele>
        <time>2009-06-01T09:05:26Z</time>
      </trkpt>
      <trkpt lat="48.35117" lon="7.18665">
        <ele>656</ele>
        <time>2009-06-01T09:05:11Z</time>
      </trkpt>
      <trkpt lat="48.35103" lon="7.18682">
        <ele>657</ele>
        <time>2009-06-01T09:05:00Z</time>
      </trkpt>
      <trkpt lat="48.3509" lon="7.18695">
        <ele>657</ele>
        <time>2009-06-01T09:04:50Z</time>
      </trkpt>
      <trkpt lat="48.35079" lon="7.18697">
        <ele>656</ele>
        <time>2009-06-01T09:04:39Z</time>
      </trkpt>
      <trkpt lat="48.35071" lon="7.18703">
        <ele>656</ele>
        <time>2009-06-01T09:04:28Z</time>
      </trkpt>
      <trkpt lat="48.35059" lon="7.1871">
        <ele>656</ele>
        <time>2009-06-01T09:04:16Z</time>
      </trkpt>
      <trkpt lat="48.35047" lon="7.18718">
        <ele>656</ele>
        <time>2009-06-01T09:04:06Z</time>
      </trkpt>
      <trkpt lat="48.35043" lon="7.18724">
        <ele>656</ele>
        <time>2009-06-01T09:03:56Z</time>
      </trkpt>
      <trkpt lat="48.35033" lon="7.18735">
        <ele>656</ele>
        <time>2009-06-01T09:03:45Z</time>
      </trkpt>
      <trkpt lat="48.35026" lon="7.18741">
        <ele>656</ele>
        <time>2009-06-01T09:03:33Z</time>
      </trkpt>
      <trkpt lat="48.35026" lon="7.18748">
        <ele>659</ele>
        <time>2009-06-01T09:03:16Z</time>
      </trkpt>
      <trkpt lat="48.35019" lon="7.1876">
        <ele>658</ele>
        <time>2009-06-01T09:03:13Z</time>
      </trkpt>
      <trkpt lat="48.35007" lon="7.18784">
        <ele>659</ele>
        <time>2009-06-01T09:03:03Z</time>
      </trkpt>
      <trkpt lat="48.34997" lon="7.18803">
        <ele>660</ele>
        <time>2009-06-01T09:02:55Z</time>
      </trkpt>
      <trkpt lat="48.34986" lon="7.18816">
        <ele>660</ele>
        <time>2009-06-01T09:02:41Z</time>
      </trkpt>
      <trkpt lat="48.34974" lon="7.18834">
        <ele>661</ele>
        <time>2009-06-01T09:02:33Z</time>
      </trkpt>
      <trkpt lat="48.34965" lon="7.18836">
        <ele>663</ele>
        <time>2009-06-01T09:02:22Z</time>
      </trkpt>
      <trkpt lat="48.3496" lon="7.1884">
        <ele>666</ele>
        <time>2009-06-01T09:02:15Z</time>
      </trkpt>
      <trkpt lat="48.34953" lon="7.18845">
        <ele>669</ele>
        <time>2009-06-01T09:01:57Z</time>
      </trkpt>
      <trkpt lat="48.34944" lon="7.18856">
        <ele>671</ele>
        <time>2009-06-01T09:01:46Z</time>
      </trkpt>
      <trkpt lat="48.34935" lon="7.1887">
        <ele>673</ele>
        <time>2009-06-01T09:01:35Z</time>
      </trkpt>
      <trkpt lat="48.34929" lon="7.18891">
        <ele>677</ele>
        <time>2009-06-01T09:01:21Z</time>
      </trkpt>
      <trkpt lat="48.34915" lon="7.18923">
        <ele>678</ele>
        <time>2009-06-01T09:01:05Z</time>
      </trkpt>
      <trkpt lat="48.34908" lon="7.18938">
        <ele>678</ele>
        <time>2009-06-01T09:00:57Z</time>
      </trkpt>
      <trkpt lat="48.34906" lon="7.18944">
        <ele>679</ele>
        <time>2009-06-01T09:00:45Z</time>
      </trkpt>
      <trkpt lat="48.34896" lon="7.18965">
        <ele>679</ele>
        <time>2009-06-01T09:00:33Z</time>
      </trkpt>
      <trkpt lat="48.34894" lon="7.18968">
        <ele>679</ele>
        <time>2009-06-01T09:00:32Z</time>
      </trkpt>
      <trkpt lat="48.34888" lon="7.1898">
        <ele>683</ele>
        <time>2009-06-01T09:00:20Z</time>
      </trkpt>
      <trkpt lat="48.34889" lon="7.18979">
        <ele>678</ele>
        <time>2009-06-01T09:00:19Z</time>
      </trkpt>
      <trkpt lat="48.34871" lon="7.19003">
        <ele>682</ele>
        <time>2009-06-01T09:00:07Z</time>
      </trkpt>
      <trkpt lat="48.34864" lon="7.1902">
        <ele>682</ele>
        <time>2009-06-01T08:59:55Z</time>
      </trkpt>
      <trkpt lat="48.34854" lon="7.19048">
        <ele>682</ele>
        <time>2009-06-01T08:59:43Z</time>
      </trkpt>
      <trkpt lat="48.34842" lon="7.19066">
        <ele>681</ele>
        <time>2009-06-01T08:59:33Z</time>
      </trkpt>
      <trkpt lat="48.34833" lon="7.19075">
        <ele>683</ele>
        <time>2009-06-01T08:59:23Z</time>
      </trkpt>
      <trkpt lat="48.34825" lon="7.19087">
        <ele>683</ele>
        <time>2009-06-01T08:59:11Z</time>
      </trkpt>
      <trkpt lat="48.34816" lon="7.19101">
        <ele>684</ele>
        <time>2009-06-01T08:58:57Z</time>
      </trkpt>
      <trkpt lat="48.34799" lon="7.19135">
        <ele>684</ele>
        <time>2009-06-01T08:58:43Z</time>
      </trkpt>
      <trkpt lat="48.34789" lon="7.19145">
        <ele>685</ele>
        <time>2009-06-01T08:58:30Z</time>
      </trkpt>
      <trkpt lat="48.34784" lon="7.19149">
        <ele>685</ele>
        <time>2009-06-01T08:58:24Z</time>
      </trkpt>
      <trkpt lat="48.34774" lon="7.19156">
        <ele>684</ele>
        <time>2009-06-01T08:58:13Z</time>
      </trkpt>
      <trkpt lat="48.34752" lon="7.19163">
        <ele>684</ele>
        <time>2009-06-01T08:57:58Z</time>
      </trkpt>
      <trkpt lat="48.34746" lon="7.19163">
        <ele>685</ele>
        <time>2009-06-01T08:57:52Z</time>
      </trkpt>
      <trkpt lat="48.34734" lon="7.19154">
        <ele>684</ele>
        <time>2009-06-01T08:57:41Z</time>
      </trkpt>
      <trkpt lat="48.34715" lon="7.19154">
        <ele>684</ele>
        <time>2009-06-01T08:57:27Z</time>
      </trkpt>
      <trkpt lat="48.34693" lon="7.19141">
        <ele>683</ele>
        <time>2009-06-01T08:57:09Z</time>
      </trkpt>
      <trkpt lat="48.34673" lon="7.19129">
        <ele>683</ele>
        <time>2009-06-01T08:56:51Z</time>
      </trkpt>
      <trkpt lat="48.34651" lon="7.19117">
        <ele>682</ele>
        <time>2009-06-01T08:56:33Z</time>
      </trkpt>
      <trkpt lat="48.34633" lon="7.19102">
        <ele>683</ele>
        <time>2009-06-01T08:56:16Z</time>
      </trkpt>
      <trkpt lat="48.34612" lon="7.19101">
        <ele>683</ele>
        <time>2009-06-01T08:56:00Z</time>
      </trkpt>
      <trkpt lat="48.34594" lon="7.19086">
        <ele>682</ele>
        <time>2009-06-01T08:55:44Z</time>
      </trkpt>
      <trkpt lat="48.34581" lon="7.1909">
        <ele>682</ele>
        <time>2009-06-01T08:55:34Z</time>
      </trkpt>
      <trkpt lat="48.34562" lon="7.19105">
        <ele>681</ele>
        <time>2009-06-01T08:55:22Z</time>
      </trkpt>
      <trkpt lat="48.34543" lon="7.19112">
        <ele>680</ele>
        <time>2009-06-01T08:55:09Z</time>
      </trkpt>
      <trkpt lat="48.34537" lon="7.19116">
        <ele>680</ele>
        <time>2009-06-01T08:55:06Z</time>
      </trkpt>
      <trkpt lat="48.34526" lon="7.19114">
        <ele>679</ele>
        <time>2009-06-01T08:54:57Z</time>
      </trkpt>
      <trkpt lat="48.34521" lon="7.19109">
        <ele>679</ele>
        <time>2009-06-01T08:54:50Z</time>
      </trkpt>
      <trkpt lat="48.34503" lon="7.1911">
        <ele>677</ele>
        <time>2009-06-01T08:54:39Z</time>
      </trkpt>
      <trkpt lat="48.34495" lon="7.19095">
        <ele>677</ele>
        <time>2009-06-01T08:54:32Z</time>
      </trkpt>
      <trkpt lat="48.3448" lon="7.19065">
        <ele>676</ele>
        <time>2009-06-01T08:54:18Z</time>
      </trkpt>
      <trkpt lat="48.34471" lon="7.19064">
        <ele>676</ele>
        <time>2009-06-01T08:54:12Z</time>
      </trkpt>
      <trkpt lat="48.34452" lon="7.19106">
        <ele>675</ele>
        <time>2009-06-01T08:53:55Z</time>
      </trkpt>
      <trkpt lat="48.34415" lon="7.19078">
        <ele>675</ele>
        <time>2009-06-01T08:53:33Z</time>
      </trkpt>
      <trkpt lat="48.34398" lon="7.19063">
        <ele>674</ele>
        <time>2009-06-01T08:53:19Z</time>
      </trkpt>
      <trkpt lat="48.34388" lon="7.1907">
        <ele>674</ele>
        <time>2009-06-01T08:53:11Z</time>
      </trkpt>
      <trkpt lat="48.34383" lon="7.19072">
        <ele>674</ele>
        <time>2009-06-01T08:53:08Z</time>
      </trkpt>
      <trkpt lat="48.34382" lon="7.19072">
        <ele>674</ele>
        <time>2009-06-01T08:53:07Z</time>
      </trkpt>
      <trkpt lat="48.34366" lon="7.19071">
        <ele>674</ele>
        <time>2009-06-01T08:52:55Z</time>
      </trkpt>
      <trkpt lat="48.34361" lon="7.19067">
        <ele>674</ele>
        <time>2009-06-01T08:52:41Z</time>
      </trkpt>
      <trkpt lat="48.34378" lon="7.19077">
        <ele>672</ele>
        <time>2009-06-01T08:52:23Z</time>
      </trkpt>
      <trkpt lat="48.3439" lon="7.19078">
        <ele>670</ele>
        <time>2009-06-01T08:52:14Z</time>
      </trkpt>
      <trkpt lat="48.34399" lon="7.19082">
        <ele>667</ele>
        <time>2009-06-01T08:52:07Z</time>
      </trkpt>
      <trkpt lat="48.34405" lon="7.19087">
        <ele>664</ele>
        <time>2009-06-01T08:51:57Z</time>
      </trkpt>
      <trkpt lat="48.3441" lon="7.19089">
        <ele>662</ele>
        <time>2009-06-01T08:51:52Z</time>
      </trkpt>
      <trkpt lat="48.34417" lon="7.1909">
        <ele>661</ele>
        <time>2009-06-01T08:51:48Z</time>
      </trkpt>
      <trkpt lat="48.3442" lon="7.19092">
        <ele>660</ele>
        <time>2009-06-01T08:51:45Z</time>
      </trkpt>
      <trkpt lat="48.34429" lon="7.19098">
        <ele>657</ele>
        <time>2009-06-01T08:51:33Z</time>
      </trkpt>
      <trkpt lat="48.34442" lon="7.19145">
        <ele>668</ele>
        <time>2009-05-31T17:24:02Z</time>
      </trkpt>
      <trkpt lat="48.34444" lon="7.19142">
        <ele>668</ele>
        <time>2009-05-31T17:23:36Z</time>
      </trkpt>
      <trkpt lat="48.34444" lon="7.19146">
        <ele>668</ele>
        <time>2009-05-31T17:22:42Z</time>
      </trkpt>
      <trkpt lat="48.34442" lon="7.19144">
        <ele>668</ele>
        <time>2009-05-31T17:22:25Z</time>
      </trkpt>
      <trkpt lat="48.34433" lon="7.19142">
        <ele>669</ele>
        <time>2009-05-31T17:22:12Z</time>
      </trkpt>
      <trkpt lat="48.34442" lon="7.1914">
        <ele>669</ele>
        <time>2009-05-31T17:21:57Z</time>
      </trkpt>
      <trkpt lat="48.34453" lon="7.19134">
        <ele>668</ele>
        <time>2009-05-31T17:21:44Z</time>
      </trkpt>
      <trkpt lat="48.34456" lon="7.19119">
        <ele>670</ele>
        <time>2009-05-31T17:21:35Z</time>
      </trkpt>
      <trkpt lat="48.34447" lon="7.19106">
        <ele>672</ele>
        <time>2009-05-31T17:21:23Z</time>
      </trkpt>
      <trkpt lat="48.34428" lon="7.19089">
        <ele>674</ele>
        <time>2009-05-31T17:21:05Z</time>
      </trkpt>
      <trkpt lat="48.34408" lon="7.19077">
        <ele>675</ele>
        <time>2009-05-31T17:20:46Z</time>
      </trkpt>
      <trkpt lat="48.34389" lon="7.19078">
        <ele>677</ele>
        <time>2009-05-31T17:20:31Z</time>
      </trkpt>
      <trkpt lat="48.34383" lon="7.19074">
        <ele>677</ele>
        <time>2009-05-31T17:20:05Z</time>
      </trkpt>
      <trkpt lat="48.34381" lon="7.1907">
        <ele>677</ele>
        <time>2009-05-31T17:19:27Z</time>
      </trkpt>
      <trkpt lat="48.34382" lon="7.19068">
        <ele>677</ele>
        <time>2009-05-31T17:19:21Z</time>
      </trkpt>
      <trkpt lat="48.34361" lon="7.19058">
        <ele>679</ele>
        <time>2009-05-31T17:19:00Z</time>
      </trkpt>
      <trkpt lat="48.34334" lon="7.19053">
        <ele>679</ele>
        <time>2009-05-31T17:18:38Z</time>
      </trkpt>
      <trkpt lat="48.34306" lon="7.19045">
        <ele>680</ele>
        <time>2009-05-31T17:18:17Z</time>
      </trkpt>
      <trkpt lat="48.34281" lon="7.19042">
        <ele>681</ele>
        <time>2009-05-31T17:17:58Z</time>
      </trkpt>
      <trkpt lat="48.34254" lon="7.19037">
        <ele>682</ele>
        <time>2009-05-31T17:17:38Z</time>
      </trkpt>
      <trkpt lat="48.34227" lon="7.19027">
        <ele>682</ele>
        <time>2009-05-31T17:17:18Z</time>
      </trkpt>
      <trkpt lat="48.34199" lon="7.19007">
        <ele>683</ele>
        <time>2009-05-31T17:16:54Z</time>
      </trkpt>
      <trkpt lat="48.34177" lon="7.18981">
        <ele>685</ele>
        <time>2009-05-31T17:16:33Z</time>
      </trkpt>
      <trkpt lat="48.3416" lon="7.18956">
        <ele>685</ele>
        <time>2009-05-31T17:16:16Z</time>
      </trkpt>
      <trkpt lat="48.34146" lon="7.18921">
        <ele>684</ele>
        <time>2009-05-31T17:15:55Z</time>
      </trkpt>
      <trkpt lat="48.34131" lon="7.18896">
        <ele>683</ele>
        <time>2009-05-31T17:15:36Z</time>
      </trkpt>
      <trkpt lat="48.34112" lon="7.18882">
        <ele>682</ele>
        <time>2009-05-31T17:15:18Z</time>
      </trkpt>
      <trkpt lat="48.34096" lon="7.1885">
        <ele>681</ele>
        <time>2009-05-31T17:14:58Z</time>
      </trkpt>
      <trkpt lat="48.34084" lon="7.1882">
        <ele>680</ele>
        <time>2009-05-31T17:14:39Z</time>
      </trkpt>
      <trkpt lat="48.34073" lon="7.18798">
        <ele>678</ele>
        <time>2009-05-31T17:14:23Z</time>
      </trkpt>
      <trkpt lat="48.34052" lon="7.18779">
        <ele>677</ele>
        <time>2009-05-31T17:14:07Z</time>
      </trkpt>
      <trkpt lat="48.34042" lon="7.1877">
        <ele>677</ele>
        <time>2009-05-31T17:13:58Z</time>
      </trkpt>
      <trkpt lat="48.34026" lon="7.18747">
        <ele>675</ele>
        <time>2009-05-31T17:13:43Z</time>
      </trkpt>
      <trkpt lat="48.34011" lon="7.18734">
        <ele>675</ele>
        <time>2009-05-31T17:13:32Z</time>
      </trkpt>
      <trkpt lat="48.33996" lon="7.18719">
        <ele>675</ele>
        <time>2009-05-31T17:13:16Z</time>
      </trkpt>
      <trkpt lat="48.33979" lon="7.18698">
        <ele>675</ele>
        <time>2009-05-31T17:13:00Z</time>
      </trkpt>
      <trkpt lat="48.33965" lon="7.18672">
        <ele>675</ele>
        <time>2009-05-31T17:12:40Z</time>
      </trkpt>
      <trkpt lat="48.33956" lon="7.18649">
        <ele>676</ele>
        <time>2009-05-31T17:12:25Z</time>
      </trkpt>
      <trkpt lat="48.33946" lon="7.18617">
        <ele>677</ele>
        <time>2009-05-31T17:12:07Z</time>
      </trkpt>
      <trkpt lat="48.33928" lon="7.18587">
        <ele>677</ele>
        <time>2009-05-31T17:11:47Z</time>
      </trkpt>
      <trkpt lat="48.33911" lon="7.18572">
        <ele>677</ele>
        <time>2009-05-31T17:11:30Z</time>
      </trkpt>
      <trkpt lat="48.33892" lon="7.1856">
        <ele>677</ele>
        <time>2009-05-31T17:11:13Z</time>
      </trkpt>
      <trkpt lat="48.33868" lon="7.18544">
        <ele>677</ele>
        <time>2009-05-31T17:10:53Z</time>
      </trkpt>
      <trkpt lat="48.33842" lon="7.18529">
        <ele>675</ele>
        <time>2009-05-31T17:10:31Z</time>
      </trkpt>
      <trkpt lat="48.33818" lon="7.18523">
        <ele>675</ele>
        <time>2009-05-31T17:10:11Z</time>
      </trkpt>
      <trkpt lat="48.33795" lon="7.18522">
        <ele>674</ele>
        <time>2009-05-31T17:09:52Z</time>
      </trkpt>
      <trkpt lat="48.3377" lon="7.1852">
        <ele>674</ele>
        <time>2009-05-31T17:09:32Z</time>
      </trkpt>
      <trkpt lat="48.33746" lon="7.18518">
        <ele>674</ele>
        <time>2009-05-31T17:09:12Z</time>
      </trkpt>
      <trkpt lat="48.33723" lon="7.18504">
        <ele>672</ele>
        <time>2009-05-31T17:08:52Z</time>
      </trkpt>
      <trkpt lat="48.33697" lon="7.18487">
        <ele>670</ele>
        <time>2009-05-31T17:08:31Z</time>
      </trkpt>
      <trkpt lat="48.3367" lon="7.18481">
        <ele>669</ele>
        <time>2009-05-31T17:08:10Z</time>
      </trkpt>
      <trkpt lat="48.33641" lon="7.18478">
        <ele>670</ele>
        <time>2009-05-31T17:07:51Z</time>
      </trkpt>
      <trkpt lat="48.33637" lon="7.18476">
        <ele>671</ele>
        <time>2009-05-31T17:07:47Z</time>
      </trkpt>
      <trkpt lat="48.33618" lon="7.18468">
        <ele>673</ele>
        <time>2009-05-31T17:07:29Z</time>
      </trkpt>
      <trkpt lat="48.33604" lon="7.18458">
        <ele>673</ele>
        <time>2009-05-31T17:07:15Z</time>
      </trkpt>
      <trkpt lat="48.33603" lon="7.18464">
        <ele>674</ele>
        <time>2009-05-31T17:06:44Z</time>
      </trkpt>
      <trkpt lat="48.33597" lon="7.18458">
        <ele>673</ele>
        <time>2009-05-31T17:06:28Z</time>
      </trkpt>
      <trkpt lat="48.33593" lon="7.18464">
        <ele>673</ele>
        <time>2009-05-31T17:06:07Z</time>
      </trkpt>
      <trkpt lat="48.33592" lon="7.18459">
        <ele>673</ele>
        <time>2009-05-31T17:05:47Z</time>
      </trkpt>
      <trkpt lat="48.33571" lon="7.18448">
        <ele>671</ele>
        <time>2009-05-31T17:05:28Z</time>
      </trkpt>
      <trkpt lat="48.33558" lon="7.18436">
        <ele>669</ele>
        <time>2009-05-31T17:05:13Z</time>
      </trkpt>
      <trkpt lat="48.33547" lon="7.18425">
        <ele>666</ele>
        <time>2009-05-31T17:05:01Z</time>
      </trkpt>
      <trkpt lat="48.33534" lon="7.18415">
        <ele>663</ele>
        <time>2009-05-31T17:04:48Z</time>
      </trkpt>
      <trkpt lat="48.33525" lon="7.18406">
        <ele>660</ele>
        <time>2009-05-31T17:04:37Z</time>
      </trkpt>
      <trkpt lat="48.33512" lon="7.18391">
        <ele>658</ele>
        <time>2009-05-31T17:04:24Z</time>
      </trkpt>
      <trkpt lat="48.33504" lon="7.1838">
        <ele>656</ele>
        <time>2009-05-31T17:04:11Z</time>
      </trkpt>
      <trkpt lat="48.3349" lon="7.18368">
        <ele>653</ele>
        <time>2009-05-31T17:03:57Z</time>
      </trkpt>
      <trkpt lat="48.3348" lon="7.18346">
        <ele>651</ele>
        <time>2009-05-31T17:03:42Z</time>
      </trkpt>
      <trkpt lat="48.33471" lon="7.1832">
        <ele>650</ele>
        <time>2009-05-31T17:03:27Z</time>
      </trkpt>
      <trkpt lat="48.33464" lon="7.18308">
        <ele>649</ele>
        <time>2009-05-31T17:03:18Z</time>
      </trkpt>
      <trkpt lat="48.33452" lon="7.18286">
        <ele>646</ele>
        <time>2009-05-31T17:03:03Z</time>
      </trkpt>
      <trkpt lat="48.33442" lon="7.18275">
        <ele>644</ele>
        <time>2009-05-31T17:02:50Z</time>
      </trkpt>
      <trkpt lat="48.33436" lon="7.1826">
        <ele>641</ele>
        <time>2009-05-31T17:02:36Z</time>
      </trkpt>
      <trkpt lat="48.33426" lon="7.18242">
        <ele>638</ele>
        <time>2009-05-31T17:02:22Z</time>
      </trkpt>
      <trkpt lat="48.33416" lon="7.18227">
        <ele>636</ele>
        <time>2009-05-31T17:02:08Z</time>
      </trkpt>
      <trkpt lat="48.33404" lon="7.18209">
        <ele>633</ele>
        <time>2009-05-31T17:01:52Z</time>
      </trkpt>
      <trkpt lat="48.33403" lon="7.18206">
        <ele>633</ele>
        <time>2009-05-31T17:01:50Z</time>
      </trkpt>
      <trkpt lat="48.33393" lon="7.18192">
        <ele>632</ele>
        <time>2009-05-31T17:01:39Z</time>
      </trkpt>
      <trkpt lat="48.33381" lon="7.18176">
        <ele>630</ele>
        <time>2009-05-31T17:01:22Z</time>
      </trkpt>
      <trkpt lat="48.33379" lon="7.18172">
        <ele>629</ele>
        <time>2009-05-31T17:01:19Z</time>
      </trkpt>
      <trkpt lat="48.33378" lon="7.18171">
        <ele>629</ele>
        <time>2009-05-31T17:01:17Z</time>
      </trkpt>
      <trkpt lat="48.33354" lon="7.18171">
        <ele>625</ele>
        <time>2009-05-31T17:00:56Z</time>
      </trkpt>
      <trkpt lat="48.33348" lon="7.18172">
        <ele>625</ele>
        <time>2009-05-31T17:00:51Z</time>
      </trkpt>
      <trkpt lat="48.33336" lon="7.1818">
        <ele>625</ele>
        <time>2009-05-31T17:00:38Z</time>
      </trkpt>
      <trkpt lat="48.33309" lon="7.18181">
        <ele>624</ele>
        <time>2009-05-31T17:00:16Z</time>
      </trkpt>
      <trkpt lat="48.33281" lon="7.18181">
        <ele>622</ele>
        <time>2009-05-31T16:59:52Z</time>
      </trkpt>
      <trkpt lat="48.33255" lon="7.18181">
        <ele>620</ele>
        <time>2009-05-31T16:59:31Z</time>
      </trkpt>
      <trkpt lat="48.33225" lon="7.18182">
        <ele>618</ele>
        <time>2009-05-31T16:59:07Z</time>
      </trkpt>
      <trkpt lat="48.33193" lon="7.18182">
        <ele>619</ele>
        <time>2009-05-31T16:58:42Z</time>
      </trkpt>
      <trkpt lat="48.33182" lon="7.18188">
        <ele>620</ele>
        <time>2009-05-31T16:58:24Z</time>
      </trkpt>
      <trkpt lat="48.33174" lon="7.18168">
        <ele>619</ele>
        <time>2009-05-31T16:58:07Z</time>
      </trkpt>
      <trkpt lat="48.3317" lon="7.1814">
        <ele>619</ele>
        <time>2009-05-31T16:57:53Z</time>
      </trkpt>
      <trkpt lat="48.33169" lon="7.18134">
        <ele>619</ele>
        <time>2009-05-31T16:57:49Z</time>
      </trkpt>
      <trkpt lat="48.33168" lon="7.18105">
        <ele>620</ele>
        <time>2009-05-31T16:57:34Z</time>
      </trkpt>
      <trkpt lat="48.33164" lon="7.18095">
        <ele>620</ele>
        <time>2009-05-31T16:57:27Z</time>
      </trkpt>
      <trkpt lat="48.3316" lon="7.18074">
        <ele>620</ele>
        <time>2009-05-31T16:57:14Z</time>
      </trkpt>
      <trkpt lat="48.33161" lon="7.18062">
        <ele>620</ele>
        <time>2009-05-31T16:56:56Z</time>
      </trkpt>
      <trkpt lat="48.3315" lon="7.18052">
        <ele>620</ele>
        <time>2009-05-31T16:56:42Z</time>
      </trkpt>
      <trkpt lat="48.33138" lon="7.18044">
        <ele>621</ele>
        <time>2009-05-31T16:56:32Z</time>
      </trkpt>
      <trkpt lat="48.33125" lon="7.18035">
        <ele>621</ele>
        <time>2009-05-31T16:56:19Z</time>
      </trkpt>
      <trkpt lat="48.33107" lon="7.1803">
        <ele>622</ele>
        <time>2009-05-31T16:56:04Z</time>
      </trkpt>
      <trkpt lat="48.33069" lon="7.18012">
        <ele>626</ele>
        <time>2009-05-31T16:55:51Z</time>
      </trkpt>
      <trkpt lat="48.33063" lon="7.18009">
        <ele>627</ele>
        <time>2009-05-31T16:55:31Z</time>
      </trkpt>
      <trkpt lat="48.33052" lon="7.18005">
        <ele>629</ele>
        <time>2009-05-31T16:55:18Z</time>
      </trkpt>
      <trkpt lat="48.33033" lon="7.18002">
        <ele>631</ele>
        <time>2009-05-31T16:55:02Z</time>
      </trkpt>
      <trkpt lat="48.33012" lon="7.17994">
        <ele>634</ele>
        <time>2009-05-31T16:54:46Z</time>
      </trkpt>
      <trkpt lat="48.33003" lon="7.1798">
        <ele>636</ele>
        <time>2009-05-31T16:54:36Z</time>
      </trkpt>
      <trkpt lat="48.33" lon="7.17978">
        <ele>636</ele>
        <time>2009-05-31T16:54:34Z</time>
      </trkpt>
      <trkpt lat="48.32986" lon="7.17965">
        <ele>638</ele>
        <time>2009-05-31T16:54:22Z</time>
      </trkpt>
      <trkpt lat="48.32967" lon="7.17957">
        <ele>640</ele>
        <time>2009-05-31T16:54:05Z</time>
      </trkpt>
      <trkpt lat="48.32951" lon="7.17954">
        <ele>641</ele>
        <time>2009-05-31T16:53:50Z</time>
      </trkpt>
      <trkpt lat="48.32931" lon="7.17944">
        <ele>641</ele>
        <time>2009-05-31T16:53:36Z</time>
      </trkpt>
      <trkpt lat="48.32916" lon="7.17931">
        <ele>642</ele>
        <time>2009-05-31T16:53:23Z</time>
      </trkpt>
      <trkpt lat="48.32908" lon="7.17909">
        <ele>644</ele>
        <time>2009-05-31T16:53:08Z</time>
      </trkpt>
      <trkpt lat="48.32894" lon="7.1789">
        <ele>645</ele>
        <time>2009-05-31T16:52:52Z</time>
      </trkpt>
      <trkpt lat="48.32885" lon="7.17872">
        <ele>646</ele>
        <time>2009-05-31T16:52:39Z</time>
      </trkpt>
      <trkpt lat="48.32884" lon="7.17871">
        <ele>646</ele>
        <time>2009-05-31T16:52:38Z</time>
      </trkpt>
      <trkpt lat="48.32879" lon="7.17846">
        <ele>647</ele>
        <time>2009-05-31T16:52:23Z</time>
      </trkpt>
      <trkpt lat="48.32872" lon="7.17827">
        <ele>650</ele>
        <time>2009-05-31T16:52:08Z</time>
      </trkpt>
      <trkpt lat="48.32872" lon="7.17826">
        <ele>650</ele>
        <time>2009-05-31T16:52:07Z</time>
      </trkpt>
      <trkpt lat="48.32861" lon="7.17814">
        <ele>650</ele>
        <time>2009-05-31T16:51:51Z</time>
      </trkpt>
      <trkpt lat="48.32844" lon="7.17801">
        <ele>649</ele>
        <time>2009-05-31T16:51:36Z</time>
      </trkpt>
      <trkpt lat="48.32831" lon="7.17787">
        <ele>646</ele>
        <time>2009-05-31T16:51:21Z</time>
      </trkpt>
      <trkpt lat="48.32814" lon="7.17776">
        <ele>644</ele>
        <time>2009-05-31T16:51:06Z</time>
      </trkpt>
      <trkpt lat="48.32812" lon="7.17771">
        <ele>644</ele>
        <time>2009-05-31T16:51:02Z</time>
      </trkpt>
      <trkpt lat="48.32808" lon="7.17752">
        <ele>642</ele>
        <time>2009-05-31T16:50:51Z</time>
      </trkpt>
      <trkpt lat="48.32808" lon="7.1775">
        <ele>641</ele>
        <time>2009-05-31T16:50:49Z</time>
      </trkpt>
      <trkpt lat="48.32796" lon="7.17745">
        <ele>640</ele>
        <time>2009-05-31T16:50:37Z</time>
      </trkpt>
      <trkpt lat="48.32789" lon="7.17742">
        <ele>638</ele>
        <time>2009-05-31T16:50:23Z</time>
      </trkpt>
      <trkpt lat="48.32787" lon="7.17733">
        <ele>637</ele>
        <time>2009-05-31T16:49:52Z</time>
      </trkpt>
      <trkpt lat="48.3278" lon="7.17747">
        <ele>637</ele>
        <time>2009-05-31T16:49:26Z</time>
      </trkpt>
      <trkpt lat="48.32777" lon="7.17748">
        <ele>637</ele>
        <time>2009-05-31T16:49:00Z</time>
      </trkpt>
      <trkpt lat="48.32776" lon="7.17749">
        <ele>634</ele>
        <time>2009-05-31T16:48:43Z</time>
      </trkpt>
      <trkpt lat="48.32765" lon="7.17752">
        <ele>632</ele>
        <time>2009-05-31T16:48:29Z</time>
      </trkpt>
      <trkpt lat="48.32756" lon="7.17749">
        <ele>630</ele>
        <time>2009-05-31T16:48:16Z</time>
      </trkpt>
      <trkpt lat="48.32746" lon="7.1775">
        <ele>627</ele>
        <time>2009-05-31T16:48:03Z</time>
      </trkpt>
      <trkpt lat="48.32735" lon="7.17748">
        <ele>625</ele>
        <time>2009-05-31T16:47:48Z</time>
      </trkpt>
      <trkpt lat="48.32724" lon="7.17743">
        <ele>621</ele>
        <time>2009-05-31T16:47:33Z</time>
      </trkpt>
      <trkpt lat="48.32714" lon="7.17745">
        <ele>620</ele>
        <time>2009-05-31T16:47:20Z</time>
      </trkpt>
      <trkpt lat="48.32702" lon="7.17742">
        <ele>617</ele>
        <time>2009-05-31T16:47:06Z</time>
      </trkpt>
      <trkpt lat="48.32685" lon="7.17738">
        <ele>615</ele>
        <time>2009-05-31T16:46:49Z</time>
      </trkpt>
      <trkpt lat="48.32671" lon="7.17737">
        <ele>613</ele>
        <time>2009-05-31T16:46:38Z</time>
      </trkpt>
      <trkpt lat="48.32659" lon="7.17734">
        <ele>612</ele>
        <time>2009-05-31T16:46:25Z</time>
      </trkpt>
      <trkpt lat="48.32648" lon="7.17737">
        <ele>611</ele>
        <time>2009-05-31T16:46:13Z</time>
      </trkpt>
      <trkpt lat="48.32638" lon="7.17741">
        <ele>610</ele>
        <time>2009-05-31T16:46:01Z</time>
      </trkpt>
      <trkpt lat="48.32627" lon="7.17742">
        <ele>609</ele>
        <time>2009-05-31T16:45:35Z</time>
      </trkpt>
      <trkpt lat="48.32621" lon="7.17739">
        <ele>610</ele>
        <time>2009-05-31T16:45:15Z</time>
      </trkpt>
      <trkpt lat="48.32613" lon="7.17746">
        <ele>610</ele>
        <time>2009-05-31T16:44:57Z</time>
      </trkpt>
      <trkpt lat="48.32614" lon="7.17746">
        <ele>610</ele>
        <time>2009-05-31T16:44:29Z</time>
      </trkpt>
      <trkpt lat="48.3261" lon="7.17744">
        <ele>611</ele>
        <time>2009-05-31T16:44:10Z</time>
      </trkpt>
      <trkpt lat="48.32603" lon="7.17751">
        <ele>611</ele>
        <time>2009-05-31T16:43:44Z</time>
      </trkpt>
      <trkpt lat="48.32584" lon="7.17751">
        <ele>613</ele>
        <time>2009-05-31T16:43:27Z</time>
      </trkpt>
      <trkpt lat="48.32562" lon="7.17741">
        <ele>615</ele>
        <time>2009-05-31T16:43:09Z</time>
      </trkpt>
      <trkpt lat="48.32548" lon="7.17745">
        <ele>616</ele>
        <time>2009-05-31T16:43:01Z</time>
      </trkpt>
      <trkpt lat="48.32533" lon="7.17763">
        <ele>618</ele>
        <time>2009-05-31T16:42:46Z</time>
      </trkpt>
      <trkpt lat="48.32512" lon="7.17774">
        <ele>618</ele>
        <time>2009-05-31T16:42:31Z</time>
      </trkpt>
      <trkpt lat="48.32497" lon="7.17788">
        <ele>619</ele>
        <time>2009-05-31T16:42:17Z</time>
      </trkpt>
      <trkpt lat="48.32477" lon="7.17803">
        <ele>619</ele>
        <time>2009-05-31T16:42:02Z</time>
      </trkpt>
      <trkpt lat="48.32458" lon="7.17823">
        <ele>619</ele>
        <time>2009-05-31T16:41:44Z</time>
      </trkpt>
      <trkpt lat="48.32452" lon="7.17826">
        <ele>619</ele>
        <time>2009-05-31T16:41:40Z</time>
      </trkpt>
      <trkpt lat="48.32446" lon="7.17833">
        <ele>619</ele>
        <time>2009-05-31T16:41:34Z</time>
      </trkpt>
      <trkpt lat="48.32432" lon="7.17858">
        <ele>618</ele>
        <time>2009-05-31T16:41:19Z</time>
      </trkpt>
      <trkpt lat="48.32426" lon="7.17887">
        <ele>618</ele>
        <time>2009-05-31T16:41:04Z</time>
      </trkpt>
      <trkpt lat="48.3242" lon="7.1791">
        <ele>618</ele>
        <time>2009-05-31T16:40:52Z</time>
      </trkpt>
      <trkpt lat="48.32419" lon="7.17912">
        <ele>618</ele>
        <time>2009-05-31T16:40:51Z</time>
      </trkpt>
      <trkpt lat="48.32414" lon="7.17936">
        <ele>618</ele>
        <time>2009-05-31T16:40:37Z</time>
      </trkpt>
      <trkpt lat="48.32412" lon="7.17959">
        <ele>618</ele>
        <time>2009-05-31T16:40:25Z</time>
      </trkpt>
      <trkpt lat="48.32406" lon="7.1798">
        <ele>618</ele>
        <time>2009-05-31T16:40:12Z</time>
      </trkpt>
      <trkpt lat="48.32399" lon="7.18015">
        <ele>618</ele>
        <time>2009-05-31T16:39:55Z</time>
      </trkpt>
      <trkpt lat="48.32392" lon="7.18042">
        <ele>618</ele>
        <time>2009-05-31T16:39:39Z</time>
      </trkpt>
      <trkpt lat="48.32383" lon="7.18076">
        <ele>618</ele>
        <time>2009-05-31T16:39:21Z</time>
      </trkpt>
      <trkpt lat="48.32378" lon="7.18105">
        <ele>618</ele>
        <time>2009-05-31T16:39:07Z</time>
      </trkpt>
      <trkpt lat="48.32376" lon="7.18113">
        <ele>618</ele>
        <time>2009-05-31T16:39:03Z</time>
      </trkpt>
      <trkpt lat="48.32365" lon="7.18126">
        <ele>618</ele>
        <time>2009-05-31T16:38:56Z</time>
      </trkpt>
      <trkpt lat="48.3235" lon="7.18137">
        <ele>618</ele>
        <time>2009-05-31T16:38:42Z</time>
      </trkpt>
      <trkpt lat="48.32333" lon="7.18143">
        <ele>619</ele>
        <time>2009-05-31T16:38:29Z</time>
      </trkpt>
      <trkpt lat="48.32312" lon="7.18153">
        <ele>619</ele>
        <time>2009-05-31T16:38:14Z</time>
      </trkpt>
      <trkpt lat="48.32304" lon="7.18158">
        <ele>619</ele>
        <time>2009-05-31T16:38:07Z</time>
      </trkpt>
      <trkpt lat="48.32283" lon="7.1817">
        <ele>619</ele>
        <time>2009-05-31T16:37:49Z</time>
      </trkpt>
      <trkpt lat="48.32264" lon="7.18194">
        <ele>619</ele>
        <time>2009-05-31T16:37:31Z</time>
      </trkpt>
      <trkpt lat="48.32259" lon="7.18217">
        <ele>619</ele>
        <time>2009-05-31T16:37:18Z</time>
      </trkpt>
      <trkpt lat="48.32259" lon="7.18247">
        <ele>619</ele>
        <time>2009-05-31T16:37:03Z</time>
      </trkpt>
      <trkpt lat="48.32259" lon="7.1828">
        <ele>619</ele>
        <time>2009-05-31T16:36:45Z</time>
      </trkpt>
      <trkpt lat="48.32267" lon="7.18308">
        <ele>619</ele>
        <time>2009-05-31T16:36:30Z</time>
      </trkpt>
      <trkpt lat="48.32278" lon="7.1832">
        <ele>619</ele>
        <time>2009-05-31T16:36:18Z</time>
      </trkpt>
      <trkpt lat="48.32298" lon="7.18324">
        <ele>618</ele>
        <time>2009-05-31T16:36:04Z</time>
      </trkpt>
      <trkpt lat="48.32302" lon="7.18325">
        <ele>618</ele>
        <time>2009-05-31T16:36:01Z</time>
      </trkpt>
      <trkpt lat="48.32311" lon="7.18328">
        <ele>619</ele>
        <time>2009-05-31T16:35:55Z</time>
      </trkpt>
      <trkpt lat="48.32312" lon="7.1833">
        <ele>615</ele>
        <time>2009-05-31T16:35:54Z</time>
      </trkpt>
      <trkpt lat="48.32315" lon="7.18331">
        <ele>619</ele>
        <time>2009-05-31T16:35:52Z</time>
      </trkpt>
      <trkpt lat="48.32316" lon="7.18332">
        <ele>620</ele>
        <time>2009-05-31T16:35:51Z</time>
      </trkpt>
      <trkpt lat="48.32319" lon="7.18335">
        <ele>616</ele>
        <time>2009-05-31T16:35:49Z</time>
      </trkpt>
      <trkpt lat="48.32331" lon="7.18351">
        <ele>618</ele>
        <time>2009-05-31T16:35:37Z</time>
      </trkpt>
      <trkpt lat="48.32334" lon="7.18361">
        <ele>618</ele>
        <time>2009-05-31T16:35:31Z</time>
      </trkpt>
      <trkpt lat="48.32336" lon="7.18385">
        <ele>618</ele>
        <time>2009-05-31T16:35:18Z</time>
      </trkpt>
      <trkpt lat="48.32323" lon="7.1841">
        <ele>618</ele>
        <time>2009-05-31T16:35:03Z</time>
      </trkpt>
      <trkpt lat="48.32314" lon="7.18422">
        <ele>619</ele>
        <time>2009-05-31T16:34:49Z</time>
      </trkpt>
      <trkpt lat="48.323" lon="7.18442">
        <ele>619</ele>
        <time>2009-05-31T16:34:32Z</time>
      </trkpt>
      <trkpt lat="48.32295" lon="7.18453">
        <ele>619</ele>
        <time>2009-05-31T16:34:08Z</time>
      </trkpt>
      <trkpt lat="48.32288" lon="7.18447">
        <ele>619</ele>
        <time>2009-05-31T16:33:36Z</time>
      </trkpt>
      <trkpt lat="48.32283" lon="7.18456">
        <ele>619</ele>
        <time>2009-05-31T16:33:11Z</time>
      </trkpt>
      <trkpt lat="48.3229" lon="7.18451">
        <ele>618</ele>
        <time>2009-05-31T16:32:53Z</time>
      </trkpt>
      <trkpt lat="48.32296" lon="7.18446">
        <ele>619</ele>
        <time>2009-05-31T16:32:33Z</time>
      </trkpt>
      <trkpt lat="48.32302" lon="7.18445">
        <ele>619</ele>
        <time>2009-05-31T16:32:15Z</time>
      </trkpt>
      <trkpt lat="48.32301" lon="7.18434">
        <ele>618</ele>
        <time>2009-05-31T16:31:28Z</time>
      </trkpt>
      <trkpt lat="48.3229" lon="7.18442">
        <ele>618</ele>
        <time>2009-05-31T16:31:11Z</time>
      </trkpt>
      <trkpt lat="48.32291" lon="7.18453">
        <ele>618</ele>
        <time>2009-05-31T16:30:41Z</time>
      </trkpt>
      <trkpt lat="48.32282" lon="7.18476">
        <ele>619</ele>
        <time>2009-05-31T16:30:28Z</time>
      </trkpt>
      <trkpt lat="48.32275" lon="7.18507">
        <ele>618</ele>
        <time>2009-05-31T16:30:13Z</time>
      </trkpt>
      <trkpt lat="48.32279" lon="7.18521">
        <ele>619</ele>
        <time>2009-05-31T16:30:06Z</time>
      </trkpt>
      <trkpt lat="48.32283" lon="7.18538">
        <ele>619</ele>
        <time>2009-05-31T16:29:58Z</time>
      </trkpt>
      <trkpt lat="48.32291" lon="7.18546">
        <ele>618</ele>
        <time>2009-05-31T16:29:51Z</time>
      </trkpt>
      <trkpt lat="48.32302" lon="7.18562">
        <ele>617</ele>
        <time>2009-05-31T16:29:41Z</time>
      </trkpt>
      <trkpt lat="48.32314" lon="7.18585">
        <ele>618</ele>
        <time>2009-05-31T16:29:28Z</time>
      </trkpt>
      <trkpt lat="48.32322" lon="7.18605">
        <ele>618</ele>
        <time>2009-05-31T16:29:16Z</time>
      </trkpt>
      <trkpt lat="48.32327" lon="7.18612">
        <ele>618</ele>
        <time>2009-05-31T16:29:12Z</time>
      </trkpt>
      <trkpt lat="48.32333" lon="7.18624">
        <ele>618</ele>
        <time>2009-05-31T16:29:05Z</time>
      </trkpt>
      <trkpt lat="48.32341" lon="7.18645">
        <ele>618</ele>
        <time>2009-05-31T16:28:53Z</time>
      </trkpt>
      <trkpt lat="48.32337" lon="7.18677">
        <ele>618</ele>
        <time>2009-05-31T16:28:37Z</time>
      </trkpt>
      <trkpt lat="48.32329" lon="7.18689">
        <ele>618</ele>
        <time>2009-05-31T16:28:30Z</time>
      </trkpt>
      <trkpt lat="48.32326" lon="7.18691">
        <ele>618</ele>
        <time>2009-05-31T16:28:28Z</time>
      </trkpt>
      <trkpt lat="48.32314" lon="7.18705">
        <ele>618</ele>
        <time>2009-05-31T16:28:19Z</time>
      </trkpt>
      <trkpt lat="48.32308" lon="7.18714">
        <ele>618</ele>
        <time>2009-05-31T16:28:13Z</time>
      </trkpt>
      <trkpt lat="48.32298" lon="7.18744">
        <ele>618</ele>
        <time>2009-05-31T16:27:57Z</time>
      </trkpt>
      <trkpt lat="48.32297" lon="7.18752">
        <ele>618</ele>
        <time>2009-05-31T16:27:53Z</time>
      </trkpt>
      <trkpt lat="48.32303" lon="7.18785">
        <ele>618</ele>
        <time>2009-05-31T16:27:37Z</time>
      </trkpt>
      <trkpt lat="48.32312" lon="7.18818">
        <ele>619</ele>
        <time>2009-05-31T16:27:21Z</time>
      </trkpt>
      <trkpt lat="48.32317" lon="7.18848">
        <ele>618</ele>
        <time>2009-05-31T16:27:05Z</time>
      </trkpt>
      <trkpt lat="48.32317" lon="7.18889">
        <ele>618</ele>
        <time>2009-05-31T16:26:48Z</time>
      </trkpt>
      <trkpt lat="48.32308" lon="7.18899">
        <ele>618</ele>
        <time>2009-05-31T16:26:43Z</time>
      </trkpt>
      <trkpt lat="48.32285" lon="7.18908">
        <ele>618</ele>
        <time>2009-05-31T16:26:28Z</time>
      </trkpt>
      <trkpt lat="48.32272" lon="7.18903">
        <ele>618</ele>
        <time>2009-05-31T16:26:19Z</time>
      </trkpt>
      <trkpt lat="48.32254" lon="7.18896">
        <ele>619</ele>
        <time>2009-05-31T16:26:06Z</time>
      </trkpt>
      <trkpt lat="48.3224" lon="7.18882">
        <ele>619</ele>
        <time>2009-05-31T16:25:53Z</time>
      </trkpt>
      <trkpt lat="48.32239" lon="7.1888">
        <ele>619</ele>
        <time>2009-05-31T16:25:52Z</time>
      </trkpt>
      <trkpt lat="48.32222" lon="7.18868">
        <ele>619</ele>
        <time>2009-05-31T16:25:39Z</time>
      </trkpt>
      <trkpt lat="48.322" lon="7.18861">
        <ele>620</ele>
        <time>2009-05-31T16:25:23Z</time>
      </trkpt>
      <trkpt lat="48.32182" lon="7.18858">
        <ele>622</ele>
        <time>2009-05-31T16:25:08Z</time>
      </trkpt>
      <trkpt lat="48.32161" lon="7.18857">
        <ele>625</ele>
        <time>2009-05-31T16:24:52Z</time>
      </trkpt>
      <trkpt lat="48.32142" lon="7.18859">
        <ele>627</ele>
        <time>2009-05-31T16:24:38Z</time>
      </trkpt>
      <trkpt lat="48.32123" lon="7.18863">
        <ele>630</ele>
        <time>2009-05-31T16:24:28Z</time>
      </trkpt>
      <trkpt lat="48.32104" lon="7.18864">
        <ele>633</ele>
        <time>2009-05-31T16:24:17Z</time>
      </trkpt>
      <trkpt lat="48.32098" lon="7.18861">
        <ele>633</ele>
        <time>2009-05-31T16:24:14Z</time>
      </trkpt>
      <trkpt lat="48.32095" lon="7.1886">
        <ele>635</ele>
        <time>2009-05-31T16:24:10Z</time>
      </trkpt>
      <trkpt lat="48.32074" lon="7.18856">
        <ele>637</ele>
        <time>2009-05-31T16:23:59Z</time>
      </trkpt>
      <trkpt lat="48.32072" lon="7.18855">
        <ele>637</ele>
        <time>2009-05-31T16:23:57Z</time>
      </trkpt>
      <trkpt lat="48.32052" lon="7.18843">
        <ele>640</ele>
        <time>2009-05-31T16:23:43Z</time>
      </trkpt>
      <trkpt lat="48.32039" lon="7.1883">
        <ele>643</ele>
        <time>2009-05-31T16:23:32Z</time>
      </trkpt>
      <trkpt lat="48.32024" lon="7.18814">
        <ele>646</ele>
        <time>2009-05-31T16:23:19Z</time>
      </trkpt>
      <trkpt lat="48.32012" lon="7.18796">
        <ele>648</ele>
        <time>2009-05-31T16:23:04Z</time>
      </trkpt>
      <trkpt lat="48.32" lon="7.18782">
        <ele>650</ele>
        <time>2009-05-31T16:22:52Z</time>
      </trkpt>
      <trkpt lat="48.31983" lon="7.18765">
        <ele>653</ele>
        <time>2009-05-31T16:22:38Z</time>
      </trkpt>
      <trkpt lat="48.31978" lon="7.18755">
        <ele>656</ele>
        <time>2009-05-31T16:22:26Z</time>
      </trkpt>
      <trkpt lat="48.3196" lon="7.18744">
        <ele>659</ele>
        <time>2009-05-31T16:22:13Z</time>
      </trkpt>
      <trkpt lat="48.31945" lon="7.18732">
        <ele>661</ele>
        <time>2009-05-31T16:21:59Z</time>
      </trkpt>
      <trkpt lat="48.31932" lon="7.18724">
        <ele>662</ele>
        <time>2009-05-31T16:21:46Z</time>
      </trkpt>
      <trkpt lat="48.31919" lon="7.18718">
        <ele>663</ele>
        <time>2009-05-31T16:21:32Z</time>
      </trkpt>
      <trkpt lat="48.31907" lon="7.18714">
        <ele>664</ele>
        <time>2009-05-31T16:21:15Z</time>
      </trkpt>
      <trkpt lat="48.31901" lon="7.18713">
        <ele>664</ele>
        <time>2009-05-31T16:20:59Z</time>
      </trkpt>
      <trkpt lat="48.31898" lon="7.18715">
        <ele>665</ele>
        <time>2009-05-31T16:20:37Z</time>
      </trkpt>
      <trkpt lat="48.31904" lon="7.1872">
        <ele>664</ele>
        <time>2009-05-31T16:20:11Z</time>
      </trkpt>
      <trkpt lat="48.31905" lon="7.18727">
        <ele>665</ele>
        <time>2009-05-31T16:19:54Z</time>
      </trkpt>
      <trkpt lat="48.31887" lon="7.18738">
        <ele>666</ele>
        <time>2009-05-31T16:19:42Z</time>
      </trkpt>
      <trkpt lat="48.3187" lon="7.18754">
        <ele>667</ele>
        <time>2009-05-31T16:19:28Z</time>
      </trkpt>
      <trkpt lat="48.31865" lon="7.1876">
        <ele>668</ele>
        <time>2009-05-31T16:19:22Z</time>
      </trkpt>
      <trkpt lat="48.31852" lon="7.18785">
        <ele>669</ele>
        <time>2009-05-31T16:19:04Z</time>
      </trkpt>
      <trkpt lat="48.31832" lon="7.18805">
        <ele>670</ele>
        <time>2009-05-31T16:18:49Z</time>
      </trkpt>
      <trkpt lat="48.31823" lon="7.18821">
        <ele>672</ele>
        <time>2009-05-31T16:18:38Z</time>
      </trkpt>
      <trkpt lat="48.31815" lon="7.18844">
        <ele>673</ele>
        <time>2009-05-31T16:18:25Z</time>
      </trkpt>
      <trkpt lat="48.31804" lon="7.18864">
        <ele>675</ele>
        <time>2009-05-31T16:18:10Z</time>
      </trkpt>
      <trkpt lat="48.31794" lon="7.18888">
        <ele>676</ele>
        <time>2009-05-31T16:17:56Z</time>
      </trkpt>
      <trkpt lat="48.31785" lon="7.18914">
        <ele>679</ele>
        <time>2009-05-31T16:17:40Z</time>
      </trkpt>
      <trkpt lat="48.31778" lon="7.18942">
        <ele>679</ele>
        <time>2009-05-31T16:17:26Z</time>
      </trkpt>
      <trkpt lat="48.31774" lon="7.18972">
        <ele>681</ele>
        <time>2009-05-31T16:17:11Z</time>
      </trkpt>
      <trkpt lat="48.31773" lon="7.19">
        <ele>683</ele>
        <time>2009-05-31T16:16:56Z</time>
      </trkpt>
      <trkpt lat="48.31776" lon="7.19023">
        <ele>684</ele>
        <time>2009-05-31T16:16:44Z</time>
      </trkpt>
      <trkpt lat="48.31775" lon="7.19035">
        <ele>685</ele>
        <time>2009-05-31T16:16:38Z</time>
      </trkpt>
      <trkpt lat="48.31765" lon="7.19055">
        <ele>687</ele>
        <time>2009-05-31T16:16:26Z</time>
      </trkpt>
      <trkpt lat="48.31749" lon="7.19076">
        <ele>689</ele>
        <time>2009-05-31T16:16:12Z</time>
      </trkpt>
      <trkpt lat="48.3174" lon="7.19094">
        <ele>691</ele>
        <time>2009-05-31T16:16:01Z</time>
      </trkpt>
      <trkpt lat="48.31734" lon="7.19103">
        <ele>692</ele>
        <time>2009-05-31T16:15:55Z</time>
      </trkpt>
      <trkpt lat="48.31723" lon="7.19125">
        <ele>694</ele>
        <time>2009-05-31T16:15:40Z</time>
      </trkpt>
      <trkpt lat="48.31712" lon="7.19142">
        <ele>697</ele>
        <time>2009-05-31T16:15:28Z</time>
      </trkpt>
      <trkpt lat="48.31695" lon="7.19162">
        <ele>700</ele>
        <time>2009-05-31T16:15:13Z</time>
      </trkpt>
      <trkpt lat="48.31687" lon="7.19172">
        <ele>700</ele>
        <time>2009-05-31T16:15:04Z</time>
      </trkpt>
      <trkpt lat="48.31675" lon="7.19188">
        <ele>703</ele>
        <time>2009-05-31T16:14:52Z</time>
      </trkpt>
      <trkpt lat="48.31662" lon="7.19202">
        <ele>705</ele>
        <time>2009-05-31T16:14:40Z</time>
      </trkpt>
      <trkpt lat="48.31653" lon="7.19212">
        <ele>706</ele>
        <time>2009-05-31T16:14:29Z</time>
      </trkpt>
      <trkpt lat="48.31639" lon="7.19233">
        <ele>710</ele>
        <time>2009-05-31T16:14:15Z</time>
      </trkpt>
      <trkpt lat="48.31634" lon="7.1924">
        <ele>710</ele>
        <time>2009-05-31T16:14:10Z</time>
      </trkpt>
      <trkpt lat="48.31623" lon="7.19254">
        <ele>712</ele>
        <time>2009-05-31T16:13:58Z</time>
      </trkpt>
      <trkpt lat="48.31617" lon="7.19266">
        <ele>714</ele>
        <time>2009-05-31T16:13:48Z</time>
      </trkpt>
      <trkpt lat="48.31604" lon="7.19289">
        <ele>716</ele>
        <time>2009-05-31T16:13:34Z</time>
      </trkpt>
      <trkpt lat="48.316" lon="7.19296">
        <ele>717</ele>
        <time>2009-05-31T16:13:30Z</time>
      </trkpt>
      <trkpt lat="48.31594" lon="7.19311">
        <ele>720</ele>
        <time>2009-05-31T16:13:21Z</time>
      </trkpt>
      <trkpt lat="48.31582" lon="7.19334">
        <ele>723</ele>
        <time>2009-05-31T16:13:05Z</time>
      </trkpt>
      <trkpt lat="48.31574" lon="7.19358">
        <ele>727</ele>
        <time>2009-05-31T16:12:50Z</time>
      </trkpt>
      <trkpt lat="48.31569" lon="7.19369">
        <ele>729</ele>
        <time>2009-05-31T16:12:42Z</time>
      </trkpt>
      <trkpt lat="48.31564" lon="7.19392">
        <ele>731</ele>
        <time>2009-05-31T16:12:31Z</time>
      </trkpt>
      <trkpt lat="48.3156" lon="7.19398">
        <ele>732</ele>
        <time>2009-05-31T16:12:27Z</time>
      </trkpt>
      <trkpt lat="48.31549" lon="7.19416">
        <ele>735</ele>
        <time>2009-05-31T16:12:15Z</time>
      </trkpt>
      <trkpt lat="48.31531" lon="7.19437">
        <ele>738</ele>
        <time>2009-05-31T16:12:00Z</time>
      </trkpt>
      <trkpt lat="48.31527" lon="7.19443">
        <ele>738</ele>
        <time>2009-05-31T16:11:57Z</time>
      </trkpt>
      <trkpt lat="48.31516" lon="7.1945">
        <ele>741</ele>
        <time>2009-05-31T16:11:46Z</time>
      </trkpt>
      <trkpt lat="48.31493" lon="7.19459">
        <ele>743</ele>
        <time>2009-05-31T16:11:32Z</time>
      </trkpt>
      <trkpt lat="48.31484" lon="7.19464">
        <ele>745</ele>
        <time>2009-05-31T16:11:24Z</time>
      </trkpt>
      <trkpt lat="48.31467" lon="7.19469">
        <ele>747</ele>
        <time>2009-05-31T16:11:10Z</time>
      </trkpt>
      <trkpt lat="48.31448" lon="7.19471">
        <ele>749</ele>
        <time>2009-05-31T16:10:53Z</time>
      </trkpt>
      <trkpt lat="48.31435" lon="7.19462">
        <ele>752</ele>
        <time>2009-05-31T16:10:40Z</time>
      </trkpt>
      <trkpt lat="48.31425" lon="7.19447">
        <ele>754</ele>
        <time>2009-05-31T16:10:29Z</time>
      </trkpt>
      <trkpt lat="48.31425" lon="7.19428">
        <ele>755</ele>
        <time>2009-05-31T16:10:17Z</time>
      </trkpt>
      <trkpt lat="48.31416" lon="7.19417">
        <ele>755</ele>
        <time>2009-05-31T16:10:11Z</time>
      </trkpt>
      <trkpt lat="48.31411" lon="7.19394">
        <ele>757</ele>
        <time>2009-05-31T16:10:00Z</time>
      </trkpt>
      <trkpt lat="48.31403" lon="7.1937">
        <ele>759</ele>
        <time>2009-05-31T16:09:45Z</time>
      </trkpt>
      <trkpt lat="48.31395" lon="7.19345">
        <ele>761</ele>
        <time>2009-05-31T16:09:30Z</time>
      </trkpt>
      <trkpt lat="48.3138" lon="7.19316">
        <ele>764</ele>
        <time>2009-05-31T16:09:13Z</time>
      </trkpt>
      <trkpt lat="48.31372" lon="7.19297">
        <ele>766</ele>
        <time>2009-05-31T16:09:00Z</time>
      </trkpt>
      <trkpt lat="48.31357" lon="7.19279">
        <ele>769</ele>
        <time>2009-05-31T16:08:47Z</time>
      </trkpt>
      <trkpt lat="48.31345" lon="7.19269">
        <ele>772</ele>
        <time>2009-05-31T16:08:35Z</time>
      </trkpt>
      <trkpt lat="48.31334" lon="7.19255">
        <ele>773</ele>
        <time>2009-05-31T16:08:09Z</time>
      </trkpt>
      <trkpt lat="48.31334" lon="7.19239">
        <ele>773</ele>
        <time>2009-05-31T16:07:43Z</time>
      </trkpt>
      <trkpt lat="48.31346" lon="7.1925">
        <ele>773</ele>
        <time>2009-05-31T16:07:15Z</time>
      </trkpt>
      <trkpt lat="48.31357" lon="7.19258">
        <ele>773</ele>
        <time>2009-05-31T16:06:59Z</time>
      </trkpt>
      <trkpt lat="48.31341" lon="7.19262">
        <ele>772</ele>
        <time>2009-05-31T16:06:40Z</time>
      </trkpt>
      <trkpt lat="48.3133" lon="7.19272">
        <ele>773</ele>
        <time>2009-05-31T16:06:24Z</time>
      </trkpt>
      <trkpt lat="48.3132" lon="7.19287">
        <ele>774</ele>
        <time>2009-05-31T16:06:15Z</time>
      </trkpt>
      <trkpt lat="48.3132" lon="7.19288">
        <ele>774</ele>
        <time>2009-05-31T16:06:14Z</time>
      </trkpt>
      <trkpt lat="48.31309" lon="7.19317">
        <ele>776</ele>
        <time>2009-05-31T16:05:56Z</time>
      </trkpt>
      <trkpt lat="48.31297" lon="7.19342">
        <ele>779</ele>
        <time>2009-05-31T16:05:38Z</time>
      </trkpt>
      <trkpt lat="48.3129" lon="7.1935">
        <ele>780</ele>
        <time>2009-05-31T16:05:33Z</time>
      </trkpt>
      <trkpt lat="48.31279" lon="7.19363">
        <ele>781</ele>
        <time>2009-05-31T16:05:24Z</time>
      </trkpt>
      <trkpt lat="48.31263" lon="7.19375">
        <ele>783</ele>
        <time>2009-05-31T16:05:10Z</time>
      </trkpt>
      <trkpt lat="48.31254" lon="7.19387">
        <ele>785</ele>
        <time>2009-05-31T16:04:56Z</time>
      </trkpt>
      <trkpt lat="48.31237" lon="7.19402">
        <ele>786</ele>
        <time>2009-05-31T16:04:42Z</time>
      </trkpt>
      <trkpt lat="48.31221" lon="7.19415">
        <ele>788</ele>
        <time>2009-05-31T16:04:25Z</time>
      </trkpt>
      <trkpt lat="48.31206" lon="7.19421">
        <ele>789</ele>
        <time>2009-05-31T16:04:14Z</time>
      </trkpt>
      <trkpt lat="48.31206" lon="7.19421">
        <ele>790</ele>
        <time>2009-05-31T16:04:13Z</time>
      </trkpt>
      <trkpt lat="48.31188" lon="7.19433">
        <ele>791</ele>
        <time>2009-05-31T16:04:00Z</time>
      </trkpt>
      <trkpt lat="48.31182" lon="7.19433">
        <ele>791</ele>
        <time>2009-05-31T16:03:57Z</time>
      </trkpt>
      <trkpt lat="48.31161" lon="7.19435">
        <ele>792</ele>
        <time>2009-05-31T16:03:42Z</time>
      </trkpt>
      <trkpt lat="48.31151" lon="7.19435">
        <ele>793</ele>
        <time>2009-05-31T16:03:32Z</time>
      </trkpt>
      <trkpt lat="48.31134" lon="7.19438">
        <ele>792</ele>
        <time>2009-05-31T16:03:22Z</time>
      </trkpt>
      <trkpt lat="48.31126" lon="7.19439">
        <ele>794</ele>
        <time>2009-05-31T16:03:16Z</time>
      </trkpt>
      <trkpt lat="48.31125" lon="7.19439">
        <ele>788</ele>
        <time>2009-05-31T16:03:15Z</time>
      </trkpt>
      <trkpt lat="48.31117" lon="7.19441">
        <ele>794</ele>
        <time>2009-05-31T16:03:07Z</time>
      </trkpt>
      <trkpt lat="48.31107" lon="7.19445">
        <ele>793</ele>
        <time>2009-05-31T16:02:54Z</time>
      </trkpt>
      <trkpt lat="48.31088" lon="7.19452">
        <ele>793</ele>
        <time>2009-05-31T16:02:41Z</time>
      </trkpt>
      <trkpt lat="48.31069" lon="7.19466">
        <ele>793</ele>
        <time>2009-05-31T16:02:25Z</time>
      </trkpt>
      <trkpt lat="48.3106" lon="7.19477">
        <ele>792</ele>
        <time>2009-05-31T16:02:14Z</time>
      </trkpt>
      <trkpt lat="48.31049" lon="7.19489">
        <ele>791</ele>
        <time>2009-05-31T16:02:01Z</time>
      </trkpt>
      <trkpt lat="48.31033" lon="7.19505">
        <ele>791</ele>
        <time>2009-05-31T16:01:50Z</time>
      </trkpt>
      <trkpt lat="48.31008" lon="7.19516">
        <ele>790</ele>
        <time>2009-05-31T16:01:37Z</time>
      </trkpt>
      <trkpt lat="48.30996" lon="7.19516">
        <ele>789</ele>
        <time>2009-05-31T16:01:26Z</time>
      </trkpt>
      <trkpt lat="48.30974" lon="7.19525">
        <ele>787</ele>
        <time>2009-05-31T16:01:13Z</time>
      </trkpt>
      <trkpt lat="48.30962" lon="7.1952">
        <ele>786</ele>
        <time>2009-05-31T16:00:58Z</time>
      </trkpt>
      <trkpt lat="48.30944" lon="7.19524">
        <ele>783</ele>
        <time>2009-05-31T16:00:43Z</time>
      </trkpt>
      <trkpt lat="48.30927" lon="7.19521">
        <ele>783</ele>
        <time>2009-05-31T16:00:30Z</time>
      </trkpt>
      <trkpt lat="48.30913" lon="7.19523">
        <ele>782</ele>
        <time>2009-05-31T16:00:20Z</time>
      </trkpt>
      <trkpt lat="48.30896" lon="7.19525">
        <ele>780</ele>
        <time>2009-05-31T16:00:06Z</time>
      </trkpt>
      <trkpt lat="48.30887" lon="7.19524">
        <ele>778</ele>
        <time>2009-05-31T15:59:55Z</time>
      </trkpt>
      <trkpt lat="48.3087" lon="7.19527">
        <ele>775</ele>
        <time>2009-05-31T15:59:39Z</time>
      </trkpt>
      <trkpt lat="48.3086" lon="7.19537">
        <ele>772</ele>
        <time>2009-05-31T15:59:26Z</time>
      </trkpt>
      <trkpt lat="48.30849" lon="7.19542">
        <ele>770</ele>
        <time>2009-05-31T15:59:15Z</time>
      </trkpt>
      <trkpt lat="48.3083" lon="7.1955">
        <ele>768</ele>
        <time>2009-05-31T15:59:02Z</time>
      </trkpt>
      <trkpt lat="48.30817" lon="7.19554">
        <ele>766</ele>
        <time>2009-05-31T15:58:51Z</time>
      </trkpt>
      <trkpt lat="48.308" lon="7.19555">
        <ele>765</ele>
        <time>2009-05-31T15:58:41Z</time>
      </trkpt>
      <trkpt lat="48.30785" lon="7.19569">
        <ele>763</ele>
        <time>2009-05-31T15:58:25Z</time>
      </trkpt>
      <trkpt lat="48.30773" lon="7.19574">
        <ele>763</ele>
        <time>2009-05-31T15:58:13Z</time>
      </trkpt>
      <trkpt lat="48.30755" lon="7.19583">
        <ele>762</ele>
        <time>2009-05-31T15:58:01Z</time>
      </trkpt>
      <trkpt lat="48.30741" lon="7.1959">
        <ele>761</ele>
        <time>2009-05-31T15:57:51Z</time>
      </trkpt>
      <trkpt lat="48.3073" lon="7.19597">
        <ele>760</ele>
        <time>2009-05-31T15:57:41Z</time>
      </trkpt>
      <trkpt lat="48.30714" lon="7.19603">
        <ele>758</ele>
        <time>2009-05-31T15:57:26Z</time>
      </trkpt>
      <trkpt lat="48.30705" lon="7.1961">
        <ele>757</ele>
        <time>2009-05-31T15:57:19Z</time>
      </trkpt>
      <trkpt lat="48.30697" lon="7.19609">
        <ele>754</ele>
        <time>2009-05-31T15:57:06Z</time>
      </trkpt>
      <trkpt lat="48.30678" lon="7.19619">
        <ele>752</ele>
        <time>2009-05-31T15:56:54Z</time>
      </trkpt>
      <trkpt lat="48.30664" lon="7.1962">
        <ele>751</ele>
        <time>2009-05-31T15:56:42Z</time>
      </trkpt>
      <trkpt lat="48.30638" lon="7.19618">
        <ele>750</ele>
        <time>2009-05-31T15:56:27Z</time>
      </trkpt>
      <trkpt lat="48.3063" lon="7.19616">
        <ele>750</ele>
        <time>2009-05-31T15:56:23Z</time>
      </trkpt>
      <trkpt lat="48.3063" lon="7.19616">
        <ele>750</ele>
        <time>2009-05-31T15:56:22Z</time>
      </trkpt>
      <trkpt lat="48.30611" lon="7.19613">
        <ele>750</ele>
        <time>2009-05-31T15:56:06Z</time>
      </trkpt>
      <trkpt lat="48.30594" lon="7.19609">
        <ele>752</ele>
        <time>2009-05-31T15:55:53Z</time>
      </trkpt>
      <trkpt lat="48.30587" lon="7.19604">
        <ele>754</ele>
        <time>2009-05-31T15:55:42Z</time>
      </trkpt>
      <trkpt lat="48.30582" lon="7.19605">
        <ele>754</ele>
        <time>2009-05-31T15:55:34Z</time>
      </trkpt>
      <trkpt lat="48.3059" lon="7.19598">
        <ele>754</ele>
        <time>2009-05-31T15:55:11Z</time>
      </trkpt>
      <trkpt lat="48.3057" lon="7.19592">
        <ele>755</ele>
        <time>2009-05-31T15:53:47Z</time>
      </trkpt>
      <trkpt lat="48.30572" lon="7.19599">
        <ele>755</ele>
        <time>2009-05-31T15:53:27Z</time>
      </trkpt>
      <trkpt lat="48.30572" lon="7.19604">
        <ele>755</ele>
        <time>2009-05-31T15:53:12Z</time>
      </trkpt>
      <trkpt lat="48.30575" lon="7.19602">
        <ele>754</ele>
        <time>2009-05-31T15:53:09Z</time>
      </trkpt>
      <trkpt lat="48.30579" lon="7.19593">
        <ele>755</ele>
        <time>2009-05-31T15:51:42Z</time>
      </trkpt>
      <trkpt lat="48.30586" lon="7.19595">
        <ele>755</ele>
        <time>2009-05-31T15:50:08Z</time>
      </trkpt>
      <trkpt lat="48.30578" lon="7.19598">
        <ele>756</ele>
        <time>2009-05-31T15:49:24Z</time>
      </trkpt>
      <trkpt lat="48.30579" lon="7.19597">
        <ele>752</ele>
        <time>2009-05-31T15:49:23Z</time>
      </trkpt>
      <trkpt lat="48.30579" lon="7.19597">
        <ele>755</ele>
        <time>2009-05-31T15:49:22Z</time>
      </trkpt>
      <trkpt lat="48.30579" lon="7.19597">
        <ele>758</ele>
        <time>2009-05-31T15:49:21Z</time>
      </trkpt>
      <trkpt lat="48.30579" lon="7.19597">
        <ele>755</ele>
        <time>2009-05-31T15:49:20Z</time>
      </trkpt>
      <trkpt lat="48.30579" lon="7.19597">
        <ele>751</ele>
        <time>2009-05-31T15:49:19Z</time>
      </trkpt>
      <trkpt lat="48.30587" lon="7.19593">
        <ele>756</ele>
        <time>2009-05-31T15:48:19Z</time>
      </trkpt>
      <trkpt lat="48.30571" lon="7.19599">
        <ele>756</ele>
        <time>2009-05-31T15:47:03Z</time>
      </trkpt>
      <trkpt lat="48.30568" lon="7.19585">
        <ele>756</ele>
        <time>2009-05-31T15:46:31Z</time>
      </trkpt>
      <trkpt lat="48.30579" lon="7.19593">
        <ele>758</ele>
        <time>2009-05-31T15:45:37Z</time>
      </trkpt>
      <trkpt lat="48.30579" lon="7.19593">
        <ele>754</ele>
        <time>2009-05-31T15:45:36Z</time>
      </trkpt>
      <trkpt lat="48.30579" lon="7.19593">
        <ele>757</ele>
        <time>2009-05-31T15:45:34Z</time>
      </trkpt>
      <trkpt lat="48.3058" lon="7.19593">
        <ele>754</ele>
        <time>2009-05-31T15:45:31Z</time>
      </trkpt>
      <trkpt lat="48.3058" lon="7.19593">
        <ele>759</ele>
        <time>2009-05-31T15:45:30Z</time>
      </trkpt>
      <trkpt lat="48.30581" lon="7.19593">
        <ele>755</ele>
        <time>2009-05-31T15:45:27Z</time>
      </trkpt>
      <trkpt lat="48.30581" lon="7.19593">
        <ele>758</ele>
        <time>2009-05-31T15:45:17Z</time>
      </trkpt>
      <trkpt lat="48.3058" lon="7.19593">
        <ele>754</ele>
        <time>2009-05-31T15:45:16Z</time>
      </trkpt>
      <trkpt lat="48.30579" lon="7.19595">
        <ele>758</ele>
        <time>2009-05-31T15:45:10Z</time>
      </trkpt>
      <trkpt lat="48.30579" lon="7.19595">
        <ele>754</ele>
        <time>2009-05-31T15:45:09Z</time>
      </trkpt>
      <trkpt lat="48.3058" lon="7.19596">
        <ele>761</ele>
        <time>2009-05-31T15:45:08Z</time>
      </trkpt>
      <trkpt lat="48.3058" lon="7.19596">
        <ele>757</ele>
        <time>2009-05-31T15:45:07Z</time>
      </trkpt>
      <trkpt lat="48.3058" lon="7.19596">
        <ele>758</ele>
        <time>2009-05-31T15:45:05Z</time>
      </trkpt>
      <trkpt lat="48.30575" lon="7.19606">
        <ele>755</ele>
        <time>2009-05-31T15:44:15Z</time>
      </trkpt>
      <trkpt lat="48.30581" lon="7.19596">
        <ele>753</ele>
        <time>2009-05-31T15:39:06Z</time>
      </trkpt>
      <trkpt lat="48.30569" lon="7.19604">
        <ele>753</ele>
        <time>2009-05-31T15:38:40Z</time>
      </trkpt>
      <trkpt lat="48.30569" lon="7.19591">
        <ele>754</ele>
        <time>2009-05-31T15:38:27Z</time>
      </trkpt>
      <trkpt lat="48.30562" lon="7.19563">
        <ele>755</ele>
        <time>2009-05-31T15:38:14Z</time>
      </trkpt>
      <trkpt lat="48.30553" lon="7.19534">
        <ele>756</ele>
        <time>2009-05-31T15:38:00Z</time>
      </trkpt>
      <trkpt lat="48.30548" lon="7.19526">
        <ele>757</ele>
        <time>2009-05-31T15:37:54Z</time>
      </trkpt>
      <trkpt lat="48.30543" lon="7.19502">
        <ele>759</ele>
        <time>2009-05-31T15:37:43Z</time>
      </trkpt>
      <trkpt lat="48.30529" lon="7.19481">
        <ele>760</ele>
        <time>2009-05-31T15:37:30Z</time>
      </trkpt>
      <trkpt lat="48.30523" lon="7.19449">
        <ele>762</ele>
        <time>2009-05-31T15:37:15Z</time>
      </trkpt>
      <trkpt lat="48.30517" lon="7.19429">
        <ele>762</ele>
        <time>2009-05-31T15:37:00Z</time>
      </trkpt>
      <trkpt lat="48.3051" lon="7.19407">
        <ele>762</ele>
        <time>2009-05-31T15:36:48Z</time>
      </trkpt>
      <trkpt lat="48.30508" lon="7.19406">
        <ele>762</ele>
        <time>2009-05-31T15:36:47Z</time>
      </trkpt>
      <trkpt lat="48.30498" lon="7.19389">
        <ele>763</ele>
        <time>2009-05-31T15:36:36Z</time>
      </trkpt>
      <trkpt lat="48.30487" lon="7.19365">
        <ele>764</ele>
        <time>2009-05-31T15:36:22Z</time>
      </trkpt>
      <trkpt lat="48.30475" lon="7.19345">
        <ele>765</ele>
        <time>2009-05-31T15:36:10Z</time>
      </trkpt>
      <trkpt lat="48.30462" lon="7.19332">
        <ele>766</ele>
        <time>2009-05-31T15:35:59Z</time>
      </trkpt>
      <trkpt lat="48.30459" lon="7.1933">
        <ele>766</ele>
        <time>2009-05-31T15:35:57Z</time>
      </trkpt>
      <trkpt lat="48.30453" lon="7.19325">
        <ele>766</ele>
        <time>2009-05-31T15:35:52Z</time>
      </trkpt>
      <trkpt lat="48.30445" lon="7.19316">
        <ele>767</ele>
        <time>2009-05-31T15:35:44Z</time>
      </trkpt>
      <trkpt lat="48.30426" lon="7.19306">
        <ele>768</ele>
        <time>2009-05-31T15:35:29Z</time>
      </trkpt>
      <trkpt lat="48.30413" lon="7.19302">
        <ele>769</ele>
        <time>2009-05-31T15:35:20Z</time>
      </trkpt>
      <trkpt lat="48.30393" lon="7.19296">
        <ele>770</ele>
        <time>2009-05-31T15:35:06Z</time>
      </trkpt>
      <trkpt lat="48.3038" lon="7.19291">
        <ele>772</ele>
        <time>2009-05-31T15:34:55Z</time>
      </trkpt>
      <trkpt lat="48.30361" lon="7.19285">
        <ele>774</ele>
        <time>2009-05-31T15:34:41Z</time>
      </trkpt>
      <trkpt lat="48.30359" lon="7.19282">
        <ele>773</ele>
        <time>2009-05-31T15:34:39Z</time>
      </trkpt>
      <trkpt lat="48.30346" lon="7.19263">
        <ele>773</ele>
        <time>2009-05-31T15:34:27Z</time>
      </trkpt>
      <trkpt lat="48.30333" lon="7.19241">
        <ele>774</ele>
        <time>2009-05-31T15:34:14Z</time>
      </trkpt>
      <trkpt lat="48.30325" lon="7.19211">
        <ele>775</ele>
        <time>2009-05-31T15:33:59Z</time>
      </trkpt>
      <trkpt lat="48.30323" lon="7.19205">
        <ele>775</ele>
        <time>2009-05-31T15:33:56Z</time>
      </trkpt>
      <trkpt lat="48.30315" lon="7.19176">
        <ele>777</ele>
        <time>2009-05-31T15:33:40Z</time>
      </trkpt>
      <trkpt lat="48.30303" lon="7.19149">
        <ele>778</ele>
        <time>2009-05-31T15:33:25Z</time>
      </trkpt>
      <trkpt lat="48.30289" lon="7.19126">
        <ele>779</ele>
        <time>2009-05-31T15:33:10Z</time>
      </trkpt>
      <trkpt lat="48.3029" lon="7.19105">
        <ele>780</ele>
        <time>2009-05-31T15:33:00Z</time>
      </trkpt>
      <trkpt lat="48.30283" lon="7.19074">
        <ele>779</ele>
        <time>2009-05-31T15:32:46Z</time>
      </trkpt>
      <trkpt lat="48.30281" lon="7.19062">
        <ele>779</ele>
        <time>2009-05-31T15:32:40Z</time>
      </trkpt>
      <trkpt lat="48.30276" lon="7.19033">
        <ele>781</ele>
        <time>2009-05-31T15:32:25Z</time>
      </trkpt>
      <trkpt lat="48.3027" lon="7.19024">
        <ele>781</ele>
        <time>2009-05-31T15:32:18Z</time>
      </trkpt>
      <trkpt lat="48.30263" lon="7.19">
        <ele>782</ele>
        <time>2009-05-31T15:32:06Z</time>
      </trkpt>
      <trkpt lat="48.30259" lon="7.1897">
        <ele>784</ele>
        <time>2009-05-31T15:31:51Z</time>
      </trkpt>
      <trkpt lat="48.30252" lon="7.18954">
        <ele>785</ele>
        <time>2009-05-31T15:31:42Z</time>
      </trkpt>
      <trkpt lat="48.3025" lon="7.1895">
        <ele>785</ele>
        <time>2009-05-31T15:31:39Z</time>
      </trkpt>
      <trkpt lat="48.30242" lon="7.18915">
        <ele>787</ele>
        <time>2009-05-31T15:31:22Z</time>
      </trkpt>
      <trkpt lat="48.3024" lon="7.1891">
        <ele>787</ele>
        <time>2009-05-31T15:31:20Z</time>
      </trkpt>
      <trkpt lat="48.30241" lon="7.18898">
        <ele>787</ele>
        <time>2009-05-31T15:31:15Z</time>
      </trkpt>
      <trkpt lat="48.30231" lon="7.1887">
        <ele>789</ele>
        <time>2009-05-31T15:31:01Z</time>
      </trkpt>
      <trkpt lat="48.30229" lon="7.1886">
        <ele>790</ele>
        <time>2009-05-31T15:30:54Z</time>
      </trkpt>
      <trkpt lat="48.30228" lon="7.18833">
        <ele>791</ele>
        <time>2009-05-31T15:30:41Z</time>
      </trkpt>
      <trkpt lat="48.3023" lon="7.18819">
        <ele>793</ele>
        <time>2009-05-31T15:30:33Z</time>
      </trkpt>
      <trkpt lat="48.30227" lon="7.18807">
        <ele>793</ele>
        <time>2009-05-31T15:30:28Z</time>
      </trkpt>
      <trkpt lat="48.30226" lon="7.18803">
        <ele>793</ele>
        <time>2009-05-31T15:30:26Z</time>
      </trkpt>
      <trkpt lat="48.30224" lon="7.18782">
        <ele>795</ele>
        <time>2009-05-31T15:30:16Z</time>
      </trkpt>
      <trkpt lat="48.3022" lon="7.18766">
        <ele>795</ele>
        <time>2009-05-31T15:30:06Z</time>
      </trkpt>
      <trkpt lat="48.30217" lon="7.18746">
        <ele>797</ele>
        <time>2009-05-31T15:29:54Z</time>
      </trkpt>
      <trkpt lat="48.30223" lon="7.1872">
        <ele>799</ele>
        <time>2009-05-31T15:29:42Z</time>
      </trkpt>
      <trkpt lat="48.30225" lon="7.18697">
        <ele>799</ele>
        <time>2009-05-31T15:29:28Z</time>
      </trkpt>
      <trkpt lat="48.30225" lon="7.18671">
        <ele>801</ele>
        <time>2009-05-31T15:29:15Z</time>
      </trkpt>
      <trkpt lat="48.30228" lon="7.18648">
        <ele>802</ele>
        <time>2009-05-31T15:29:05Z</time>
      </trkpt>
      <trkpt lat="48.30231" lon="7.18624">
        <ele>804</ele>
        <time>2009-05-31T15:28:52Z</time>
      </trkpt>
      <trkpt lat="48.30229" lon="7.18599">
        <ele>806</ele>
        <time>2009-05-31T15:28:41Z</time>
      </trkpt>
      <trkpt lat="48.30225" lon="7.18577">
        <ele>807</ele>
        <time>2009-05-31T15:28:30Z</time>
      </trkpt>
      <trkpt lat="48.30221" lon="7.18554">
        <ele>808</ele>
        <time>2009-05-31T15:28:02Z</time>
      </trkpt>
      <trkpt lat="48.30221" lon="7.18558">
        <ele>808</ele>
        <time>2009-05-31T15:27:04Z</time>
      </trkpt>
      <trkpt lat="48.30216" lon="7.18553">
        <ele>809</ele>
        <time>2009-05-31T15:26:52Z</time>
      </trkpt>
      <trkpt lat="48.30202" lon="7.18539">
        <ele>809</ele>
        <time>2009-05-31T15:26:39Z</time>
      </trkpt>
      <trkpt lat="48.30189" lon="7.18513">
        <ele>809</ele>
        <time>2009-05-31T15:26:24Z</time>
      </trkpt>
      <trkpt lat="48.30187" lon="7.18506">
        <ele>809</ele>
        <time>2009-05-31T15:26:20Z</time>
      </trkpt>
      <trkpt lat="48.30176" lon="7.18491">
        <ele>808</ele>
        <time>2009-05-31T15:26:09Z</time>
      </trkpt>
      <trkpt lat="48.30175" lon="7.18488">
        <ele>808</ele>
        <time>2009-05-31T15:26:07Z</time>
      </trkpt>
      <trkpt lat="48.30166" lon="7.18465">
        <ele>806</ele>
        <time>2009-05-31T15:25:53Z</time>
      </trkpt>
      <trkpt lat="48.30161" lon="7.18443">
        <ele>805</ele>
        <time>2009-05-31T15:25:41Z</time>
      </trkpt>
      <trkpt lat="48.30153" lon="7.18417">
        <ele>805</ele>
        <time>2009-05-31T15:25:27Z</time>
      </trkpt>
      <trkpt lat="48.30148" lon="7.18392">
        <ele>805</ele>
        <time>2009-05-31T15:25:15Z</time>
      </trkpt>
      <trkpt lat="48.30145" lon="7.1837">
        <ele>805</ele>
        <time>2009-05-31T15:25:03Z</time>
      </trkpt>
      <trkpt lat="48.30145" lon="7.18368">
        <ele>809</ele>
        <time>2009-05-31T15:25:02Z</time>
      </trkpt>
      <trkpt lat="48.30144" lon="7.18366">
        <ele>800</ele>
        <time>2009-05-31T15:25:01Z</time>
      </trkpt>
      <trkpt lat="48.30144" lon="7.18365">
        <ele>806</ele>
        <time>2009-05-31T15:25:00Z</time>
      </trkpt>
      <trkpt lat="48.30144" lon="7.18363">
        <ele>807</ele>
        <time>2009-05-31T15:24:59Z</time>
      </trkpt>
      <trkpt lat="48.30143" lon="7.18359">
        <ele>803</ele>
        <time>2009-05-31T15:24:57Z</time>
      </trkpt>
      <trkpt lat="48.30143" lon="7.18358">
        <ele>807</ele>
        <time>2009-05-31T15:24:56Z</time>
      </trkpt>
      <trkpt lat="48.30143" lon="7.18353">
        <ele>801</ele>
        <time>2009-05-31T15:24:54Z</time>
      </trkpt>
      <trkpt lat="48.30143" lon="7.1834">
        <ele>805</ele>
        <time>2009-05-31T15:24:47Z</time>
      </trkpt>
      <trkpt lat="48.30141" lon="7.18317">
        <ele>805</ele>
        <time>2009-05-31T15:24:35Z</time>
      </trkpt>
      <trkpt lat="48.30139" lon="7.18309">
        <ele>805</ele>
        <time>2009-05-31T15:24:30Z</time>
      </trkpt>
      <trkpt lat="48.30136" lon="7.18289">
        <ele>806</ele>
        <time>2009-05-31T15:24:20Z</time>
      </trkpt>
      <trkpt lat="48.30134" lon="7.1827">
        <ele>805</ele>
        <time>2009-05-31T15:24:09Z</time>
      </trkpt>
      <trkpt lat="48.30133" lon="7.18269">
        <ele>805</ele>
        <time>2009-05-31T15:24:08Z</time>
      </trkpt>
      <trkpt lat="48.30119" lon="7.18248">
        <ele>805</ele>
        <time>2009-05-31T15:23:53Z</time>
      </trkpt>
      <trkpt lat="48.30113" lon="7.18228">
        <ele>804</ele>
        <time>2009-05-31T15:23:41Z</time>
      </trkpt>
      <trkpt lat="48.30102" lon="7.18209">
        <ele>802</ele>
        <time>2009-05-31T15:23:29Z</time>
      </trkpt>
      <trkpt lat="48.30091" lon="7.18193">
        <ele>801</ele>
        <time>2009-05-31T15:23:17Z</time>
      </trkpt>
      <trkpt lat="48.30084" lon="7.18177">
        <ele>801</ele>
        <time>2009-05-31T15:23:06Z</time>
      </trkpt>
      <trkpt lat="48.30076" lon="7.18167">
        <ele>800</ele>
        <time>2009-05-31T15:22:57Z</time>
      </trkpt>
      <trkpt lat="48.30061" lon="7.18141">
        <ele>800</ele>
        <time>2009-05-31T15:22:42Z</time>
      </trkpt>
      <trkpt lat="48.30053" lon="7.18124">
        <ele>801</ele>
        <time>2009-05-31T15:22:31Z</time>
      </trkpt>
      <trkpt lat="48.30044" lon="7.18103">
        <ele>800</ele>
        <time>2009-05-31T15:22:19Z</time>
      </trkpt>
      <trkpt lat="48.30037" lon="7.18087">
        <ele>800</ele>
        <time>2009-05-31T15:22:08Z</time>
      </trkpt>
      <trkpt lat="48.30028" lon="7.1806">
        <ele>801</ele>
        <time>2009-05-31T15:21:52Z</time>
      </trkpt>
      <trkpt lat="48.30023" lon="7.18034">
        <ele>800</ele>
        <time>2009-05-31T15:21:39Z</time>
      </trkpt>
      <trkpt lat="48.30015" lon="7.1801">
        <ele>800</ele>
        <time>2009-05-31T15:21:23Z</time>
      </trkpt>
      <trkpt lat="48.30007" lon="7.17985">
        <ele>799</ele>
        <time>2009-05-31T15:21:08Z</time>
      </trkpt>
      <trkpt lat="48.29998" lon="7.1796">
        <ele>799</ele>
        <time>2009-05-31T15:20:54Z</time>
      </trkpt>
      <trkpt lat="48.29995" lon="7.17953">
        <ele>798</ele>
        <time>2009-05-31T15:20:50Z</time>
      </trkpt>
      <trkpt lat="48.29994" lon="7.17949">
        <ele>798</ele>
        <time>2009-05-31T15:20:48Z</time>
      </trkpt>
      <trkpt lat="48.29985" lon="7.17917">
        <ele>797</ele>
        <time>2009-05-31T15:20:32Z</time>
      </trkpt>
      <trkpt lat="48.29976" lon="7.17903">
        <ele>797</ele>
        <time>2009-05-31T15:20:22Z</time>
      </trkpt>
      <trkpt lat="48.29972" lon="7.17881">
        <ele>796</ele>
        <time>2009-05-31T15:20:10Z</time>
      </trkpt>
      <trkpt lat="48.29971" lon="7.17874">
        <ele>796</ele>
        <time>2009-05-31T15:20:07Z</time>
      </trkpt>
      <trkpt lat="48.29967" lon="7.17858">
        <ele>795</ele>
        <time>2009-05-31T15:19:58Z</time>
      </trkpt>
      <trkpt lat="48.29964" lon="7.17831">
        <ele>793</ele>
        <time>2009-05-31T15:19:42Z</time>
      </trkpt>
      <trkpt lat="48.29955" lon="7.17815">
        <ele>792</ele>
        <time>2009-05-31T15:19:31Z</time>
      </trkpt>
      <trkpt lat="48.29944" lon="7.17786">
        <ele>791</ele>
        <time>2009-05-31T15:19:15Z</time>
      </trkpt>
      <trkpt lat="48.29943" lon="7.17782">
        <ele>791</ele>
        <time>2009-05-31T15:19:13Z</time>
      </trkpt>
      <trkpt lat="48.29935" lon="7.17759">
        <ele>790</ele>
        <time>2009-05-31T15:19:00Z</time>
      </trkpt>
      <trkpt lat="48.29931" lon="7.17731">
        <ele>789</ele>
        <time>2009-05-31T15:18:44Z</time>
      </trkpt>
      <trkpt lat="48.29929" lon="7.17708">
        <ele>788</ele>
        <time>2009-05-31T15:18:32Z</time>
      </trkpt>
      <trkpt lat="48.29928" lon="7.17706">
        <ele>789</ele>
        <time>2009-05-31T15:18:31Z</time>
      </trkpt>
      <trkpt lat="48.29924" lon="7.17679">
        <ele>788</ele>
        <time>2009-05-31T15:18:16Z</time>
      </trkpt>
      <trkpt lat="48.29921" lon="7.17665">
        <ele>787</ele>
        <time>2009-05-31T15:18:09Z</time>
      </trkpt>
      <trkpt lat="48.29921" lon="7.17663">
        <ele>788</ele>
        <time>2009-05-31T15:18:08Z</time>
      </trkpt>
      <trkpt lat="48.29913" lon="7.17637">
        <ele>787</ele>
        <time>2009-05-31T15:17:52Z</time>
      </trkpt>
      <trkpt lat="48.29909" lon="7.17628">
        <ele>787</ele>
        <time>2009-05-31T15:17:46Z</time>
      </trkpt>
      <trkpt lat="48.29901" lon="7.17613">
        <ele>787</ele>
        <time>2009-05-31T15:17:34Z</time>
      </trkpt>
      <trkpt lat="48.2988" lon="7.17593">
        <ele>787</ele>
        <time>2009-05-31T15:17:21Z</time>
      </trkpt>
      <trkpt lat="48.29874" lon="7.17587">
        <ele>788</ele>
        <time>2009-05-31T15:17:14Z</time>
      </trkpt>
      <trkpt lat="48.29863" lon="7.17565">
        <ele>788</ele>
        <time>2009-05-31T15:16:59Z</time>
      </trkpt>
      <trkpt lat="48.29861" lon="7.1756">
        <ele>788</ele>
        <time>2009-05-31T15:16:57Z</time>
      </trkpt>
      <trkpt lat="48.29854" lon="7.17549">
        <ele>788</ele>
        <time>2009-05-31T15:16:48Z</time>
      </trkpt>
      <trkpt lat="48.2984" lon="7.17532">
        <ele>789</ele>
        <time>2009-05-31T15:16:34Z</time>
      </trkpt>
      <trkpt lat="48.29832" lon="7.17522">
        <ele>791</ele>
        <time>2009-05-31T15:15:53Z</time>
      </trkpt>
      <trkpt lat="48.29833" lon="7.17521">
        <ele>791</ele>
        <time>2009-05-31T15:15:25Z</time>
      </trkpt>
      <trkpt lat="48.29814" lon="7.17513">
        <ele>792</ele>
        <time>2009-05-31T15:15:12Z</time>
      </trkpt>
      <trkpt lat="48.29795" lon="7.1751">
        <ele>794</ele>
        <time>2009-05-31T15:14:57Z</time>
      </trkpt>
      <trkpt lat="48.29783" lon="7.17504">
        <ele>794</ele>
        <time>2009-05-31T15:14:47Z</time>
      </trkpt>
      <trkpt lat="48.29763" lon="7.17497">
        <ele>796</ele>
        <time>2009-05-31T15:14:34Z</time>
      </trkpt>
      <trkpt lat="48.2976" lon="7.17495">
        <ele>796</ele>
        <time>2009-05-31T15:14:31Z</time>
      </trkpt>
      <trkpt lat="48.2975" lon="7.17488">
        <ele>797</ele>
        <time>2009-05-31T15:14:22Z</time>
      </trkpt>
      <trkpt lat="48.29745" lon="7.17483">
        <ele>798</ele>
        <time>2009-05-31T15:14:17Z</time>
      </trkpt>
      <trkpt lat="48.2973" lon="7.1747">
        <ele>799</ele>
        <time>2009-05-31T15:14:05Z</time>
      </trkpt>
      <trkpt lat="48.29723" lon="7.17467">
        <ele>799</ele>
        <time>2009-05-31T15:14:01Z</time>
      </trkpt>
      <trkpt lat="48.29718" lon="7.17464">
        <ele>799</ele>
        <time>2009-05-31T15:13:56Z</time>
      </trkpt>
      <trkpt lat="48.29705" lon="7.17459">
        <ele>800</ele>
        <time>2009-05-31T15:13:48Z</time>
      </trkpt>
      <trkpt lat="48.29694" lon="7.17459">
        <ele>800</ele>
        <time>2009-05-31T15:13:41Z</time>
      </trkpt>
      <trkpt lat="48.29686" lon="7.17448">
        <ele>802</ele>
        <time>2009-05-31T15:13:34Z</time>
      </trkpt>
      <trkpt lat="48.2967" lon="7.17435">
        <ele>803</ele>
        <time>2009-05-31T15:13:20Z</time>
      </trkpt>
      <trkpt lat="48.29655" lon="7.17421">
        <ele>804</ele>
        <time>2009-05-31T15:13:08Z</time>
      </trkpt>
      <trkpt lat="48.29636" lon="7.17408">
        <ele>807</ele>
        <time>2009-05-31T15:12:51Z</time>
      </trkpt>
      <trkpt lat="48.29626" lon="7.17396">
        <ele>807</ele>
        <time>2009-05-31T15:12:41Z</time>
      </trkpt>
      <trkpt lat="48.29623" lon="7.17394">
        <ele>807</ele>
        <time>2009-05-31T15:12:39Z</time>
      </trkpt>
      <trkpt lat="48.2962" lon="7.17389">
        <ele>807</ele>
        <time>2009-05-31T15:12:35Z</time>
      </trkpt>
      <trkpt lat="48.2961" lon="7.17374">
        <ele>809</ele>
        <time>2009-05-31T15:12:18Z</time>
      </trkpt>
      <trkpt lat="48.29601" lon="7.1736">
        <ele>810</ele>
        <time>2009-05-31T15:11:42Z</time>
      </trkpt>
      <trkpt lat="48.29589" lon="7.1736">
        <ele>811</ele>
        <time>2009-05-31T15:11:29Z</time>
      </trkpt>
      <trkpt lat="48.29585" lon="7.1736">
        <ele>811</ele>
        <time>2009-05-31T15:11:26Z</time>
      </trkpt>
      <trkpt lat="48.29584" lon="7.17361">
        <ele>813</ele>
        <time>2009-05-31T15:11:25Z</time>
      </trkpt>
      <trkpt lat="48.29583" lon="7.17358">
        <ele>809</ele>
        <time>2009-05-31T15:11:23Z</time>
      </trkpt>
      <trkpt lat="48.29581" lon="7.17358">
        <ele>810</ele>
        <time>2009-05-31T15:11:22Z</time>
      </trkpt>
      <trkpt lat="48.29562" lon="7.17355">
        <ele>811</ele>
        <time>2009-05-31T15:11:09Z</time>
      </trkpt>
      <trkpt lat="48.29546" lon="7.17354">
        <ele>813</ele>
        <time>2009-05-31T15:10:56Z</time>
      </trkpt>
      <trkpt lat="48.29532" lon="7.17352">
        <ele>814</ele>
        <time>2009-05-31T15:10:45Z</time>
      </trkpt>
      <trkpt lat="48.29508" lon="7.17347">
        <ele>815</ele>
        <time>2009-05-31T15:10:32Z</time>
      </trkpt>
      <trkpt lat="48.2949" lon="7.17344">
        <ele>817</ele>
        <time>2009-05-31T15:10:18Z</time>
      </trkpt>
      <trkpt lat="48.29479" lon="7.17339">
        <ele>819</ele>
        <time>2009-05-31T15:10:08Z</time>
      </trkpt>
      <trkpt lat="48.29463" lon="7.17336">
        <ele>821</ele>
        <time>2009-05-31T15:09:55Z</time>
      </trkpt>
      <trkpt lat="48.29455" lon="7.17336">
        <ele>821</ele>
        <time>2009-05-31T15:09:47Z</time>
      </trkpt>
      <trkpt lat="48.29442" lon="7.17336">
        <ele>822</ele>
        <time>2009-05-31T15:09:37Z</time>
      </trkpt>
      <trkpt lat="48.29427" lon="7.17335">
        <ele>823</ele>
        <time>2009-05-31T15:09:25Z</time>
      </trkpt>
      <trkpt lat="48.29411" lon="7.17338">
        <ele>824</ele>
        <time>2009-05-31T15:09:13Z</time>
      </trkpt>
      <trkpt lat="48.29394" lon="7.17341">
        <ele>824</ele>
        <time>2009-05-31T15:09:02Z</time>
      </trkpt>
      <trkpt lat="48.29376" lon="7.17349">
        <ele>827</ele>
        <time>2009-05-31T15:08:47Z</time>
      </trkpt>
      <trkpt lat="48.29375" lon="7.17352">
        <ele>827</ele>
        <time>2009-05-31T15:08:45Z</time>
      </trkpt>
      <trkpt lat="48.29366" lon="7.17352">
        <ele>827</ele>
        <time>2009-05-31T15:08:22Z</time>
      </trkpt>
      <trkpt lat="48.29352" lon="7.17354">
        <ele>829</ele>
        <time>2009-05-31T15:08:08Z</time>
      </trkpt>
      <trkpt lat="48.29352" lon="7.17353">
        <ele>828</ele>
        <time>2009-05-31T15:08:07Z</time>
      </trkpt>
      <trkpt lat="48.29349" lon="7.17354">
        <ele>828</ele>
        <time>2009-05-31T15:07:57Z</time>
      </trkpt>
      <trkpt lat="48.29352" lon="7.17353">
        <ele>828</ele>
        <time>2009-05-31T15:07:34Z</time>
      </trkpt>
      <trkpt lat="48.29356" lon="7.17361">
        <ele>828</ele>
        <time>2009-05-31T15:07:15Z</time>
      </trkpt>
      <trkpt lat="48.29336" lon="7.1737">
        <ele>830</ele>
        <time>2009-05-31T15:07:02Z</time>
      </trkpt>
      <trkpt lat="48.29321" lon="7.17381">
        <ele>829</ele>
        <time>2009-05-31T15:06:49Z</time>
      </trkpt>
      <trkpt lat="48.29306" lon="7.17383">
        <ele>828</ele>
        <time>2009-05-31T15:06:38Z</time>
      </trkpt>
      <trkpt lat="48.29293" lon="7.17375">
        <ele>827</ele>
        <time>2009-05-31T15:06:27Z</time>
      </trkpt>
      <trkpt lat="48.29276" lon="7.17377">
        <ele>826</ele>
        <time>2009-05-31T15:06:17Z</time>
      </trkpt>
      <trkpt lat="48.29273" lon="7.17379">
        <ele>826</ele>
        <time>2009-05-31T15:06:15Z</time>
      </trkpt>
      <trkpt lat="48.29263" lon="7.17381">
        <ele>826</ele>
        <time>2009-05-31T15:06:04Z</time>
      </trkpt>
      <trkpt lat="48.29244" lon="7.17398">
        <ele>827</ele>
        <time>2009-05-31T15:05:50Z</time>
      </trkpt>
      <trkpt lat="48.29232" lon="7.17408">
        <ele>828</ele>
        <time>2009-05-31T15:05:40Z</time>
      </trkpt>
      <trkpt lat="48.29219" lon="7.17423">
        <ele>831</ele>
        <time>2009-05-31T15:05:28Z</time>
      </trkpt>
      <trkpt lat="48.29215" lon="7.17424">
        <ele>831</ele>
        <time>2009-05-31T15:05:26Z</time>
      </trkpt>
      <trkpt lat="48.29212" lon="7.17427">
        <ele>832</ele>
        <time>2009-05-31T15:05:24Z</time>
      </trkpt>
      <trkpt lat="48.29202" lon="7.17439">
        <ele>834</ele>
        <time>2009-05-31T15:05:13Z</time>
      </trkpt>
      <trkpt lat="48.2919" lon="7.17455">
        <ele>836</ele>
        <time>2009-05-31T15:05:00Z</time>
      </trkpt>
      <trkpt lat="48.29186" lon="7.17466">
        <ele>837</ele>
        <time>2009-05-31T15:04:54Z</time>
      </trkpt>
      <trkpt lat="48.29176" lon="7.17476">
        <ele>839</ele>
        <time>2009-05-31T15:04:46Z</time>
      </trkpt>
      <trkpt lat="48.29169" lon="7.17492">
        <ele>840</ele>
        <time>2009-05-31T15:04:37Z</time>
      </trkpt>
      <trkpt lat="48.29162" lon="7.17505">
        <ele>841</ele>
        <time>2009-05-31T15:04:28Z</time>
      </trkpt>
      <trkpt lat="48.29146" lon="7.17527">
        <ele>843</ele>
        <time>2009-05-31T15:04:12Z</time>
      </trkpt>
      <trkpt lat="48.29144" lon="7.1753">
        <ele>843</ele>
        <time>2009-05-31T15:04:09Z</time>
      </trkpt>
      <trkpt lat="48.29132" lon="7.17541">
        <ele>843</ele>
        <time>2009-05-31T15:03:59Z</time>
      </trkpt>
      <trkpt lat="48.29116" lon="7.1755">
        <ele>844</ele>
        <time>2009-05-31T15:03:47Z</time>
      </trkpt>
      <trkpt lat="48.29109" lon="7.17555">
        <ele>843</ele>
        <time>2009-05-31T15:03:42Z</time>
      </trkpt>
      <trkpt lat="48.29107" lon="7.17557">
        <ele>843</ele>
        <time>2009-05-31T15:03:40Z</time>
      </trkpt>
      <trkpt lat="48.29091" lon="7.17563">
        <ele>843</ele>
        <time>2009-05-31T15:03:29Z</time>
      </trkpt>
      <trkpt lat="48.29075" lon="7.17559">
        <ele>845</ele>
        <time>2009-05-31T15:03:15Z</time>
      </trkpt>
      <trkpt lat="48.29063" lon="7.17551">
        <ele>847</ele>
        <time>2009-05-31T15:03:04Z</time>
      </trkpt>
      <trkpt lat="48.29046" lon="7.17546">
        <ele>848</ele>
        <time>2009-05-31T15:02:53Z</time>
      </trkpt>
      <trkpt lat="48.29033" lon="7.17539">
        <ele>848</ele>
        <time>2009-05-31T15:02:44Z</time>
      </trkpt>
      <trkpt lat="48.29022" lon="7.17526">
        <ele>849</ele>
        <time>2009-05-31T15:02:33Z</time>
      </trkpt>
      <trkpt lat="48.2902" lon="7.17524">
        <ele>849</ele>
        <time>2009-05-31T15:02:31Z</time>
      </trkpt>
      <trkpt lat="48.29007" lon="7.17517">
        <ele>849</ele>
        <time>2009-05-31T15:02:21Z</time>
      </trkpt>
      <trkpt lat="48.28993" lon="7.17502">
        <ele>851</ele>
        <time>2009-05-31T15:02:07Z</time>
      </trkpt>
      <trkpt lat="48.28978" lon="7.17485">
        <ele>852</ele>
        <time>2009-05-31T15:01:53Z</time>
      </trkpt>
      <trkpt lat="48.28969" lon="7.17481">
        <ele>853</ele>
        <time>2009-05-31T15:01:48Z</time>
      </trkpt>
      <trkpt lat="48.28968" lon="7.17481">
        <ele>853</ele>
        <time>2009-05-31T15:01:47Z</time>
      </trkpt>
      <trkpt lat="48.28956" lon="7.17463">
        <ele>854</ele>
        <time>2009-05-31T15:01:34Z</time>
      </trkpt>
      <trkpt lat="48.28945" lon="7.17457">
        <ele>854</ele>
        <time>2009-05-31T15:01:26Z</time>
      </trkpt>
      <trkpt lat="48.28929" lon="7.17447">
        <ele>854</ele>
        <time>2009-05-31T15:01:14Z</time>
      </trkpt>
      <trkpt lat="48.28913" lon="7.1743">
        <ele>855</ele>
        <time>2009-05-31T15:01:02Z</time>
      </trkpt>
      <trkpt lat="48.28908" lon="7.17421">
        <ele>855</ele>
        <time>2009-05-31T15:00:55Z</time>
      </trkpt>
      <trkpt lat="48.28896" lon="7.17412">
        <ele>856</ele>
        <time>2009-05-31T15:00:45Z</time>
      </trkpt>
      <trkpt lat="48.2889" lon="7.17408">
        <ele>856</ele>
        <time>2009-05-31T15:00:40Z</time>
      </trkpt>
      <trkpt lat="48.28881" lon="7.17398">
        <ele>858</ele>
        <time>2009-05-31T15:00:32Z</time>
      </trkpt>
      <trkpt lat="48.28871" lon="7.17393">
        <ele>859</ele>
        <time>2009-05-31T15:00:24Z</time>
      </trkpt>
      <trkpt lat="48.28855" lon="7.17382">
        <ele>860</ele>
        <time>2009-05-31T15:00:11Z</time>
      </trkpt>
      <trkpt lat="48.2884" lon="7.17371">
        <ele>861</ele>
        <time>2009-05-31T14:59:58Z</time>
      </trkpt>
      <trkpt lat="48.28825" lon="7.17363">
        <ele>861</ele>
        <time>2009-05-31T14:59:46Z</time>
      </trkpt>
      <trkpt lat="48.28813" lon="7.17356">
        <ele>862</ele>
        <time>2009-05-31T14:59:35Z</time>
      </trkpt>
      <trkpt lat="48.28799" lon="7.17349">
        <ele>862</ele>
        <time>2009-05-31T14:59:21Z</time>
      </trkpt>
      <trkpt lat="48.28796" lon="7.1735">
        <ele>862</ele>
        <time>2009-05-31T14:59:19Z</time>
      </trkpt>
      <trkpt lat="48.2879" lon="7.17349">
        <ele>862</ele>
        <time>2009-05-31T14:59:15Z</time>
      </trkpt>
      <trkpt lat="48.28787" lon="7.17347">
        <ele>862</ele>
        <time>2009-05-31T14:59:13Z</time>
      </trkpt>
      <trkpt lat="48.28775" lon="7.17341">
        <ele>862</ele>
        <time>2009-05-31T14:59:04Z</time>
      </trkpt>
      <trkpt lat="48.28769" lon="7.17338">
        <ele>862</ele>
        <time>2009-05-31T14:59:00Z</time>
      </trkpt>
      <trkpt lat="48.28761" lon="7.17324">
        <ele>863</ele>
        <time>2009-05-31T14:58:50Z</time>
      </trkpt>
      <trkpt lat="48.28754" lon="7.17303">
        <ele>863</ele>
        <time>2009-05-31T14:58:37Z</time>
      </trkpt>
      <trkpt lat="48.28748" lon="7.17296">
        <ele>864</ele>
        <time>2009-05-31T14:58:31Z</time>
      </trkpt>
      <trkpt lat="48.28731" lon="7.17272">
        <ele>866</ele>
        <time>2009-05-31T14:58:15Z</time>
      </trkpt>
      <trkpt lat="48.28729" lon="7.17269">
        <ele>866</ele>
        <time>2009-05-31T14:58:13Z</time>
      </trkpt>
      <trkpt lat="48.28724" lon="7.17265">
        <ele>866</ele>
        <time>2009-05-31T14:58:09Z</time>
      </trkpt>
      <trkpt lat="48.28714" lon="7.17248">
        <ele>867</ele>
        <time>2009-05-31T14:57:57Z</time>
      </trkpt>
      <trkpt lat="48.28704" lon="7.17233">
        <ele>868</ele>
        <time>2009-05-31T14:57:46Z</time>
      </trkpt>
      <trkpt lat="48.28698" lon="7.17223">
        <ele>869</ele>
        <time>2009-05-31T14:57:39Z</time>
      </trkpt>
      <trkpt lat="48.28683" lon="7.17207">
        <ele>869</ele>
        <time>2009-05-31T14:57:26Z</time>
      </trkpt>
      <trkpt lat="48.28668" lon="7.17187">
        <ele>870</ele>
        <time>2009-05-31T14:57:11Z</time>
      </trkpt>
      <trkpt lat="48.28661" lon="7.17181">
        <ele>871</ele>
        <time>2009-05-31T14:57:05Z</time>
      </trkpt>
      <trkpt lat="48.28649" lon="7.17167">
        <ele>871</ele>
        <time>2009-05-31T14:56:52Z</time>
      </trkpt>
      <trkpt lat="48.28634" lon="7.1715">
        <ele>871</ele>
        <time>2009-05-31T14:56:39Z</time>
      </trkpt>
      <trkpt lat="48.28624" lon="7.17129">
        <ele>872</ele>
        <time>2009-05-31T14:56:26Z</time>
      </trkpt>
      <trkpt lat="48.28612" lon="7.17109">
        <ele>873</ele>
        <time>2009-05-31T14:56:10Z</time>
      </trkpt>
      <trkpt lat="48.28605" lon="7.1709">
        <ele>873</ele>
        <time>2009-05-31T14:55:57Z</time>
      </trkpt>
      <trkpt lat="48.28596" lon="7.17073">
        <ele>874</ele>
        <time>2009-05-31T14:55:44Z</time>
      </trkpt>
      <trkpt lat="48.28588" lon="7.17058">
        <ele>874</ele>
        <time>2009-05-31T14:55:31Z</time>
      </trkpt>
      <trkpt lat="48.28578" lon="7.17039">
        <ele>875</ele>
        <time>2009-05-31T14:55:19Z</time>
      </trkpt>
      <trkpt lat="48.2857" lon="7.17022">
        <ele>876</ele>
        <time>2009-05-31T14:55:09Z</time>
      </trkpt>
      <trkpt lat="48.28569" lon="7.17004">
        <ele>875</ele>
        <time>2009-05-31T14:55:00Z</time>
      </trkpt>
      <trkpt lat="48.28564" lon="7.16983">
        <ele>873</ele>
        <time>2009-05-31T14:54:46Z</time>
      </trkpt>
      <trkpt lat="48.28564" lon="7.16967">
        <ele>873</ele>
        <time>2009-05-31T14:54:36Z</time>
      </trkpt>
      <trkpt lat="48.28561" lon="7.16939">
        <ele>872</ele>
        <time>2009-05-31T14:54:19Z</time>
      </trkpt>
      <trkpt lat="48.2855" lon="7.16929">
        <ele>871</ele>
        <time>2009-05-31T14:53:34Z</time>
      </trkpt>
      <trkpt lat="48.28549" lon="7.16925">
        <ele>871</ele>
        <time>2009-05-31T14:50:58Z</time>
      </trkpt>
      <trkpt lat="48.28543" lon="7.16919">
        <ele>871</ele>
        <time>2009-05-31T14:50:07Z</time>
      </trkpt>
      <trkpt lat="48.2854" lon="7.16926">
        <ele>869</ele>
        <time>2009-05-31T14:49:33Z</time>
      </trkpt>
      <trkpt lat="48.28549" lon="7.16919">
        <ele>869</ele>
        <time>2009-05-31T14:48:36Z</time>
      </trkpt>
      <trkpt lat="48.28555" lon="7.16926">
        <ele>870</ele>
        <time>2009-05-31T14:48:13Z</time>
      </trkpt>
      <trkpt lat="48.28559" lon="7.16936">
        <ele>871</ele>
        <time>2009-05-31T14:47:59Z</time>
      </trkpt>
      <trkpt lat="48.28564" lon="7.16936">
        <ele>870</ele>
        <time>2009-05-31T14:47:49Z</time>
      </trkpt>
      <trkpt lat="48.28563" lon="7.16936">
        <ele>871</ele>
        <time>2009-05-31T14:47:47Z</time>
      </trkpt>
      <trkpt lat="48.28565" lon="7.16942">
        <ele>870</ele>
        <time>2009-05-31T14:47:37Z</time>
      </trkpt>
      <trkpt lat="48.28564" lon="7.16947">
        <ele>870</ele>
        <time>2009-05-31T14:47:20Z</time>
      </trkpt>
      <trkpt lat="48.28556" lon="7.16941">
        <ele>870</ele>
        <time>2009-05-31T14:47:08Z</time>
      </trkpt>
      <trkpt lat="48.28555" lon="7.16929">
        <ele>869</ele>
        <time>2009-05-31T14:46:53Z</time>
      </trkpt>
      <trkpt lat="48.28545" lon="7.16927">
        <ele>870</ele>
        <time>2009-05-31T14:46:39Z</time>
      </trkpt>
      <trkpt lat="48.28525" lon="7.16909">
        <ele>867</ele>
        <time>2009-05-31T14:46:23Z</time>
      </trkpt>
      <trkpt lat="48.28507" lon="7.16903">
        <ele>867</ele>
        <time>2009-05-31T14:46:10Z</time>
      </trkpt>
      <trkpt lat="48.28495" lon="7.16899">
        <ele>866</ele>
        <time>2009-05-31T14:46:00Z</time>
      </trkpt>
      <trkpt lat="48.2849" lon="7.16898">
        <ele>866</ele>
        <time>2009-05-31T14:45:57Z</time>
      </trkpt>
      <trkpt lat="48.2847" lon="7.16894">
        <ele>866</ele>
        <time>2009-05-31T14:45:42Z</time>
      </trkpt>
      <trkpt lat="48.28468" lon="7.16893">
        <ele>865</ele>
        <time>2009-05-31T14:45:40Z</time>
      </trkpt>
      <trkpt lat="48.28452" lon="7.16883">
        <ele>864</ele>
        <time>2009-05-31T14:45:26Z</time>
      </trkpt>
      <trkpt lat="48.2845" lon="7.16883">
        <ele>864</ele>
        <time>2009-05-31T14:45:25Z</time>
      </trkpt>
      <trkpt lat="48.28431" lon="7.16877">
        <ele>864</ele>
        <time>2009-05-31T14:45:11Z</time>
      </trkpt>
      <trkpt lat="48.28413" lon="7.16867">
        <ele>862</ele>
        <time>2009-05-31T14:44:56Z</time>
      </trkpt>
      <trkpt lat="48.28395" lon="7.16872">
        <ele>861</ele>
        <time>2009-05-31T14:44:45Z</time>
      </trkpt>
      <trkpt lat="48.28381" lon="7.16863">
        <ele>861</ele>
        <time>2009-05-31T14:44:31Z</time>
      </trkpt>
      <trkpt lat="48.28371" lon="7.16851">
        <ele>860</ele>
        <time>2009-05-31T14:44:22Z</time>
      </trkpt>
      <trkpt lat="48.28353" lon="7.16838">
        <ele>860</ele>
        <time>2009-05-31T14:44:08Z</time>
      </trkpt>
      <trkpt lat="48.28334" lon="7.16826">
        <ele>859</ele>
        <time>2009-05-31T14:43:54Z</time>
      </trkpt>
      <trkpt lat="48.28331" lon="7.16823">
        <ele>859</ele>
        <time>2009-05-31T14:43:51Z</time>
      </trkpt>
      <trkpt lat="48.28317" lon="7.16799">
        <ele>859</ele>
        <time>2009-05-31T14:43:37Z</time>
      </trkpt>
      <trkpt lat="48.28307" lon="7.16778">
        <ele>858</ele>
        <time>2009-05-31T14:43:25Z</time>
      </trkpt>
      <trkpt lat="48.28304" lon="7.16775">
        <ele>858</ele>
        <time>2009-05-31T14:43:22Z</time>
      </trkpt>
      <trkpt lat="48.28302" lon="7.16771">
        <ele>858</ele>
        <time>2009-05-31T14:43:19Z</time>
      </trkpt>
      <trkpt lat="48.28291" lon="7.16753">
        <ele>858</ele>
        <time>2009-05-31T14:43:07Z</time>
      </trkpt>
      <trkpt lat="48.28285" lon="7.16745">
        <ele>857</ele>
        <time>2009-05-31T14:43:00Z</time>
      </trkpt>
      <trkpt lat="48.2827" lon="7.16735">
        <ele>855</ele>
        <time>2009-05-31T14:42:46Z</time>
      </trkpt>
      <trkpt lat="48.28261" lon="7.1673">
        <ele>856</ele>
        <time>2009-05-31T14:42:41Z</time>
      </trkpt>
      <trkpt lat="48.28254" lon="7.16726">
        <ele>855</ele>
        <time>2009-05-31T14:42:34Z</time>
      </trkpt>
      <trkpt lat="48.28239" lon="7.16712">
        <ele>854</ele>
        <time>2009-05-31T14:42:21Z</time>
      </trkpt>
      <trkpt lat="48.28221" lon="7.16709">
        <ele>854</ele>
        <time>2009-05-31T14:42:05Z</time>
      </trkpt>
      <trkpt lat="48.28214" lon="7.16706">
        <ele>853</ele>
        <time>2009-05-31T14:41:58Z</time>
      </trkpt>
      <trkpt lat="48.282" lon="7.16706">
        <ele>853</ele>
        <time>2009-05-31T14:41:47Z</time>
      </trkpt>
      <trkpt lat="48.28187" lon="7.16709">
        <ele>852</ele>
        <time>2009-05-31T14:41:36Z</time>
      </trkpt>
      <trkpt lat="48.28169" lon="7.16711">
        <ele>851</ele>
        <time>2009-05-31T14:41:24Z</time>
      </trkpt>
      <trkpt lat="48.28151" lon="7.16722">
        <ele>851</ele>
        <time>2009-05-31T14:41:10Z</time>
      </trkpt>
      <trkpt lat="48.28141" lon="7.16733">
        <ele>850</ele>
        <time>2009-05-31T14:40:59Z</time>
      </trkpt>
      <trkpt lat="48.28131" lon="7.16742">
        <ele>850</ele>
        <time>2009-05-31T14:40:48Z</time>
      </trkpt>
      <trkpt lat="48.28117" lon="7.16746">
        <ele>849</ele>
        <time>2009-05-31T14:40:37Z</time>
      </trkpt>
      <trkpt lat="48.28101" lon="7.16748">
        <ele>849</ele>
        <time>2009-05-31T14:40:25Z</time>
      </trkpt>
      <trkpt lat="48.28085" lon="7.16737">
        <ele>849</ele>
        <time>2009-05-31T14:40:11Z</time>
      </trkpt>
      <trkpt lat="48.28073" lon="7.16723">
        <ele>848</ele>
        <time>2009-05-31T14:40:01Z</time>
      </trkpt>
      <trkpt lat="48.28068" lon="7.16718">
        <ele>848</ele>
        <time>2009-05-31T14:39:56Z</time>
      </trkpt>
      <trkpt lat="48.28064" lon="7.16711">
        <ele>849</ele>
        <time>2009-05-31T14:39:49Z</time>
      </trkpt>
      <trkpt lat="48.28052" lon="7.16681">
        <ele>848</ele>
        <time>2009-05-31T14:39:34Z</time>
      </trkpt>
      <trkpt lat="48.28051" lon="7.16676">
        <ele>848</ele>
        <time>2009-05-31T14:39:32Z</time>
      </trkpt>
      <trkpt lat="48.28047" lon="7.16657">
        <ele>847</ele>
        <time>2009-05-31T14:39:21Z</time>
      </trkpt>
      <trkpt lat="48.28044" lon="7.1663">
        <ele>846</ele>
        <time>2009-05-31T14:39:07Z</time>
      </trkpt>
      <trkpt lat="48.28044" lon="7.16622">
        <ele>846</ele>
        <time>2009-05-31T14:39:04Z</time>
      </trkpt>
      <trkpt lat="48.28045" lon="7.16599">
        <ele>845</ele>
        <time>2009-05-31T14:38:54Z</time>
      </trkpt>
      <trkpt lat="48.28045" lon="7.1659">
        <ele>845</ele>
        <time>2009-05-31T14:38:50Z</time>
      </trkpt>
      <trkpt lat="48.28044" lon="7.16561">
        <ele>844</ele>
        <time>2009-05-31T14:38:35Z</time>
      </trkpt>
      <trkpt lat="48.28045" lon="7.1654">
        <ele>843</ele>
        <time>2009-05-31T14:38:21Z</time>
      </trkpt>
      <trkpt lat="48.28045" lon="7.16523">
        <ele>843</ele>
        <time>2009-05-31T14:38:10Z</time>
      </trkpt>
      <trkpt lat="48.28039" lon="7.16503">
        <ele>842</ele>
        <time>2009-05-31T14:37:57Z</time>
      </trkpt>
      <trkpt lat="48.28037" lon="7.16474">
        <ele>841</ele>
        <time>2009-05-31T14:37:45Z</time>
      </trkpt>
      <trkpt lat="48.28037" lon="7.16463">
        <ele>840</ele>
        <time>2009-05-31T14:37:38Z</time>
      </trkpt>
      <trkpt lat="48.28033" lon="7.16433">
        <ele>840</ele>
        <time>2009-05-31T14:37:22Z</time>
      </trkpt>
      <trkpt lat="48.28033" lon="7.16423">
        <ele>839</ele>
        <time>2009-05-31T14:37:17Z</time>
      </trkpt>
      <trkpt lat="48.28028" lon="7.16397">
        <ele>839</ele>
        <time>2009-05-31T14:37:03Z</time>
      </trkpt>
      <trkpt lat="48.28023" lon="7.1638">
        <ele>838</ele>
        <time>2009-05-31T14:36:50Z</time>
      </trkpt>
      <trkpt lat="48.28014" lon="7.16361">
        <ele>838</ele>
        <time>2009-05-31T14:36:37Z</time>
      </trkpt>
      <trkpt lat="48.28" lon="7.16344">
        <ele>837</ele>
        <time>2009-05-31T14:36:25Z</time>
      </trkpt>
      <trkpt lat="48.27986" lon="7.16329">
        <ele>836</ele>
        <time>2009-05-31T14:36:11Z</time>
      </trkpt>
      <trkpt lat="48.27975" lon="7.16313">
        <ele>836</ele>
        <time>2009-05-31T14:35:59Z</time>
      </trkpt>
      <trkpt lat="48.27958" lon="7.16291">
        <ele>836</ele>
        <time>2009-05-31T14:35:43Z</time>
      </trkpt>
      <trkpt lat="48.27944" lon="7.16282">
        <ele>834</ele>
        <time>2009-05-31T14:35:28Z</time>
      </trkpt>
      <trkpt lat="48.27928" lon="7.16269">
        <ele>835</ele>
        <time>2009-05-31T14:35:13Z</time>
      </trkpt>
      <trkpt lat="48.2791" lon="7.16261">
        <ele>834</ele>
        <time>2009-05-31T14:34:57Z</time>
      </trkpt>
      <trkpt lat="48.27895" lon="7.16253">
        <ele>835</ele>
        <time>2009-05-31T14:34:43Z</time>
      </trkpt>
      <trkpt lat="48.27875" lon="7.16243">
        <ele>835</ele>
        <time>2009-05-31T14:34:27Z</time>
      </trkpt>
      <trkpt lat="48.27857" lon="7.16227">
        <ele>836</ele>
        <time>2009-05-31T14:34:12Z</time>
      </trkpt>
      <trkpt lat="48.27854" lon="7.16218">
        <ele>836</ele>
        <time>2009-05-31T14:33:57Z</time>
      </trkpt>
      <trkpt lat="48.2785" lon="7.16202">
        <ele>837</ele>
        <time>2009-05-31T14:33:39Z</time>
      </trkpt>
      <trkpt lat="48.2784" lon="7.16184">
        <ele>838</ele>
        <time>2009-05-31T14:33:26Z</time>
      </trkpt>
      <trkpt lat="48.27823" lon="7.16172">
        <ele>839</ele>
        <time>2009-05-31T14:33:12Z</time>
      </trkpt>
      <trkpt lat="48.2781" lon="7.1616">
        <ele>842</ele>
        <time>2009-05-31T14:33:00Z</time>
      </trkpt>
      <trkpt lat="48.27796" lon="7.16155">
        <ele>842</ele>
        <time>2009-05-31T14:32:48Z</time>
      </trkpt>
      <trkpt lat="48.27774" lon="7.16141">
        <ele>844</ele>
        <time>2009-05-31T14:32:30Z</time>
      </trkpt>
      <trkpt lat="48.27757" lon="7.16125">
        <ele>846</ele>
        <time>2009-05-31T14:32:17Z</time>
      </trkpt>
      <trkpt lat="48.27746" lon="7.16111">
        <ele>846</ele>
        <time>2009-05-31T14:32:05Z</time>
      </trkpt>
      <trkpt lat="48.27734" lon="7.161">
        <ele>846</ele>
        <time>2009-05-31T14:31:51Z</time>
      </trkpt>
      <trkpt lat="48.27719" lon="7.16078">
        <ele>844</ele>
        <time>2009-05-31T14:31:35Z</time>
      </trkpt>
      <trkpt lat="48.27718" lon="7.16078">
        <ele>845</ele>
        <time>2009-05-31T14:31:34Z</time>
      </trkpt>
      <trkpt lat="48.27702" lon="7.16067">
        <ele>843</ele>
        <time>2009-05-31T14:31:19Z</time>
      </trkpt>
      <trkpt lat="48.27688" lon="7.16056">
        <ele>842</ele>
        <time>2009-05-31T14:31:04Z</time>
      </trkpt>
      <trkpt lat="48.27673" lon="7.16046">
        <ele>841</ele>
        <time>2009-05-31T14:30:48Z</time>
      </trkpt>
      <trkpt lat="48.27656" lon="7.16028">
        <ele>838</ele>
        <time>2009-05-31T14:30:31Z</time>
      </trkpt>
      <trkpt lat="48.27644" lon="7.16015">
        <ele>836</ele>
        <time>2009-05-31T14:30:19Z</time>
      </trkpt>
      <trkpt lat="48.27625" lon="7.16007">
        <ele>836</ele>
        <time>2009-05-31T14:30:03Z</time>
      </trkpt>
      <trkpt lat="48.27613" lon="7.15999">
        <ele>836</ele>
        <time>2009-05-31T14:29:47Z</time>
      </trkpt>
      <trkpt lat="48.27593" lon="7.15988">
        <ele>836</ele>
        <time>2009-05-31T14:29:31Z</time>
      </trkpt>
      <trkpt lat="48.27575" lon="7.15975">
        <ele>837</ele>
        <time>2009-05-31T14:29:17Z</time>
      </trkpt>
      <trkpt lat="48.27559" lon="7.15963">
        <ele>838</ele>
        <time>2009-05-31T14:29:04Z</time>
      </trkpt>
      <trkpt lat="48.27545" lon="7.15955">
        <ele>838</ele>
        <time>2009-05-31T14:28:51Z</time>
      </trkpt>
      <trkpt lat="48.27536" lon="7.15945">
        <ele>838</ele>
        <time>2009-05-31T14:28:38Z</time>
      </trkpt>
      <trkpt lat="48.27526" lon="7.15947">
        <ele>838</ele>
        <time>2009-05-31T14:28:06Z</time>
      </trkpt>
      <trkpt lat="48.27508" lon="7.15943">
        <ele>838</ele>
        <time>2009-05-31T14:27:51Z</time>
      </trkpt>
      <trkpt lat="48.27487" lon="7.15934">
        <ele>838</ele>
        <time>2009-05-31T14:27:38Z</time>
      </trkpt>
      <trkpt lat="48.27472" lon="7.15934">
        <ele>839</ele>
        <time>2009-05-31T14:27:26Z</time>
      </trkpt>
      <trkpt lat="48.27458" lon="7.1593">
        <ele>841</ele>
        <time>2009-05-31T14:27:13Z</time>
      </trkpt>
      <trkpt lat="48.27436" lon="7.15919">
        <ele>843</ele>
        <time>2009-05-31T14:26:55Z</time>
      </trkpt>
      <trkpt lat="48.27422" lon="7.15907">
        <ele>845</ele>
        <time>2009-05-31T14:26:42Z</time>
      </trkpt>
      <trkpt lat="48.27404" lon="7.15889">
        <ele>847</ele>
        <time>2009-05-31T14:26:24Z</time>
      </trkpt>
      <trkpt lat="48.27391" lon="7.15866">
        <ele>848</ele>
        <time>2009-05-31T14:26:08Z</time>
      </trkpt>
      <trkpt lat="48.27376" lon="7.15845">
        <ele>849</ele>
        <time>2009-05-31T14:25:51Z</time>
      </trkpt>
      <trkpt lat="48.27359" lon="7.15831">
        <ele>849</ele>
        <time>2009-05-31T14:25:37Z</time>
      </trkpt>
      <trkpt lat="48.27349" lon="7.15815">
        <ele>849</ele>
        <time>2009-05-31T14:25:24Z</time>
      </trkpt>
      <trkpt lat="48.27337" lon="7.15798">
        <ele>848</ele>
        <time>2009-05-31T14:25:10Z</time>
      </trkpt>
      <trkpt lat="48.27324" lon="7.15783">
        <ele>847</ele>
        <time>2009-05-31T14:24:57Z</time>
      </trkpt>
      <trkpt lat="48.27302" lon="7.15772">
        <ele>848</ele>
        <time>2009-05-31T14:24:44Z</time>
      </trkpt>
      <trkpt lat="48.27287" lon="7.15763">
        <ele>848</ele>
        <time>2009-05-31T14:24:29Z</time>
      </trkpt>
      <trkpt lat="48.27285" lon="7.15759">
        <ele>847</ele>
        <time>2009-05-31T14:24:25Z</time>
      </trkpt>
      <trkpt lat="48.27262" lon="7.15747">
        <ele>848</ele>
        <time>2009-05-31T14:24:10Z</time>
      </trkpt>
      <trkpt lat="48.27247" lon="7.15739">
        <ele>848</ele>
        <time>2009-05-31T14:23:56Z</time>
      </trkpt>
      <trkpt lat="48.27229" lon="7.15735">
        <ele>848</ele>
        <time>2009-05-31T14:23:44Z</time>
      </trkpt>
      <trkpt lat="48.27219" lon="7.15711">
        <ele>848</ele>
        <time>2009-05-31T14:23:30Z</time>
      </trkpt>
      <trkpt lat="48.27221" lon="7.15681">
        <ele>847</ele>
        <time>2009-05-31T14:23:15Z</time>
      </trkpt>
      <trkpt lat="48.27231" lon="7.15652">
        <ele>848</ele>
        <time>2009-05-31T14:22:59Z</time>
      </trkpt>
      <trkpt lat="48.27241" lon="7.15623">
        <ele>848</ele>
        <time>2009-05-31T14:22:42Z</time>
      </trkpt>
      <trkpt lat="48.27248" lon="7.15598">
        <ele>848</ele>
        <time>2009-05-31T14:22:28Z</time>
      </trkpt>
      <trkpt lat="48.27252" lon="7.15577">
        <ele>849</ele>
        <time>2009-05-31T14:22:16Z</time>
      </trkpt>
      <trkpt lat="48.27256" lon="7.15542">
        <ele>850</ele>
        <time>2009-05-31T14:21:59Z</time>
      </trkpt>
      <trkpt lat="48.27255" lon="7.15536">
        <ele>850</ele>
        <time>2009-05-31T14:21:56Z</time>
      </trkpt>
      <trkpt lat="48.27255" lon="7.15507">
        <ele>850</ele>
        <time>2009-05-31T14:21:41Z</time>
      </trkpt>
      <trkpt lat="48.27256" lon="7.15493">
        <ele>851</ele>
        <time>2009-05-31T14:21:33Z</time>
      </trkpt>
      <trkpt lat="48.27253" lon="7.15481">
        <ele>851</ele>
        <time>2009-05-31T14:21:15Z</time>
      </trkpt>
      <trkpt lat="48.27251" lon="7.15476">
        <ele>851</ele>
        <time>2009-05-31T14:21:03Z</time>
      </trkpt>
      <trkpt lat="48.27227" lon="7.15483">
        <ele>852</ele>
        <time>2009-05-31T14:20:46Z</time>
      </trkpt>
      <trkpt lat="48.27215" lon="7.15492">
        <ele>854</ele>
        <time>2009-05-31T14:20:30Z</time>
      </trkpt>
      <trkpt lat="48.27198" lon="7.15502">
        <ele>856</ele>
        <time>2009-05-31T14:20:15Z</time>
      </trkpt>
      <trkpt lat="48.27181" lon="7.15517">
        <ele>859</ele>
        <time>2009-05-31T14:20:00Z</time>
      </trkpt>
      <trkpt lat="48.27163" lon="7.15531">
        <ele>861</ele>
        <time>2009-05-31T14:19:47Z</time>
      </trkpt>
      <trkpt lat="48.27135" lon="7.15549">
        <ele>863</ele>
        <time>2009-05-31T14:19:31Z</time>
      </trkpt>
      <trkpt lat="48.27126" lon="7.15556">
        <ele>863</ele>
        <time>2009-05-31T14:19:25Z</time>
      </trkpt>
      <trkpt lat="48.27112" lon="7.15565">
        <ele>866</ele>
        <time>2009-05-31T14:19:10Z</time>
      </trkpt>
      <trkpt lat="48.27097" lon="7.15572">
        <ele>868</ele>
        <time>2009-05-31T14:18:54Z</time>
      </trkpt>
      <trkpt lat="48.27087" lon="7.15572">
        <ele>870</ele>
        <time>2009-05-31T14:18:38Z</time>
      </trkpt>
      <trkpt lat="48.27079" lon="7.15566">
        <ele>872</ele>
        <time>2009-05-31T14:18:18Z</time>
      </trkpt>
      <trkpt lat="48.27069" lon="7.15561">
        <ele>873</ele>
        <time>2009-05-31T14:18:03Z</time>
      </trkpt>
      <trkpt lat="48.27053" lon="7.15558">
        <ele>874</ele>
        <time>2009-05-31T14:17:50Z</time>
      </trkpt>
      <trkpt lat="48.27044" lon="7.15549">
        <ele>874</ele>
        <time>2009-05-31T14:17:38Z</time>
      </trkpt>
      <trkpt lat="48.27019" lon="7.1554">
        <ele>874</ele>
        <time>2009-05-31T14:17:23Z</time>
      </trkpt>
      <trkpt lat="48.27019" lon="7.1554">
        <ele>874</ele>
        <time>2009-05-31T14:17:22Z</time>
      </trkpt>
      <trkpt lat="48.27007" lon="7.15522">
        <ele>875</ele>
        <time>2009-05-31T14:17:07Z</time>
      </trkpt>
      <trkpt lat="48.27006" lon="7.15508">
        <ele>875</ele>
        <time>2009-05-31T14:16:47Z</time>
      </trkpt>
      <trkpt lat="48.27007" lon="7.15504">
        <ele>875</ele>
        <time>2009-05-31T14:16:10Z</time>
      </trkpt>
      <trkpt lat="48.26995" lon="7.15501">
        <ele>875</ele>
        <time>2009-05-31T14:15:56Z</time>
      </trkpt>
      <trkpt lat="48.26993" lon="7.15496">
        <ele>876</ele>
        <time>2009-05-31T14:15:53Z</time>
      </trkpt>
      <trkpt lat="48.26992" lon="7.15491">
        <ele>875</ele>
        <time>2009-05-31T14:15:50Z</time>
      </trkpt>
      <trkpt lat="48.26982" lon="7.15467">
        <ele>876</ele>
        <time>2009-05-31T14:15:37Z</time>
      </trkpt>
      <trkpt lat="48.26971" lon="7.15438">
        <ele>878</ele>
        <time>2009-05-31T14:15:20Z</time>
      </trkpt>
      <trkpt lat="48.26958" lon="7.15428">
        <ele>879</ele>
        <time>2009-05-31T14:15:12Z</time>
      </trkpt>
      <trkpt lat="48.26948" lon="7.15407">
        <ele>882</ele>
        <time>2009-05-31T14:14:57Z</time>
      </trkpt>
      <trkpt lat="48.2693" lon="7.15392">
        <ele>883</ele>
        <time>2009-05-31T14:14:43Z</time>
      </trkpt>
      <trkpt lat="48.26917" lon="7.15385">
        <ele>883</ele>
        <time>2009-05-31T14:14:30Z</time>
      </trkpt>
      <trkpt lat="48.269" lon="7.15379">
        <ele>884</ele>
        <time>2009-05-31T14:14:15Z</time>
      </trkpt>
      <trkpt lat="48.26884" lon="7.15373">
        <ele>883</ele>
        <time>2009-05-31T14:14:03Z</time>
      </trkpt>
      <trkpt lat="48.26862" lon="7.15369">
        <ele>883</ele>
        <time>2009-05-31T14:13:46Z</time>
      </trkpt>
      <trkpt lat="48.26848" lon="7.15368">
        <ele>883</ele>
        <time>2009-05-31T14:13:32Z</time>
      </trkpt>
      <trkpt lat="48.26827" lon="7.15366">
        <ele>884</ele>
        <time>2009-05-31T14:13:19Z</time>
      </trkpt>
      <trkpt lat="48.26813" lon="7.15372">
        <ele>886</ele>
        <time>2009-05-31T14:13:05Z</time>
      </trkpt>
      <trkpt lat="48.26801" lon="7.15367">
        <ele>888</ele>
        <time>2009-05-31T14:12:51Z</time>
      </trkpt>
      <trkpt lat="48.26789" lon="7.15362">
        <ele>891</ele>
        <time>2009-05-31T14:12:36Z</time>
      </trkpt>
      <trkpt lat="48.26784" lon="7.15356">
        <ele>895</ele>
        <time>2009-05-31T14:12:24Z</time>
      </trkpt>
      <trkpt lat="48.26765" lon="7.15349">
        <ele>898</ele>
        <time>2009-05-31T14:12:12Z</time>
      </trkpt>
      <trkpt lat="48.26747" lon="7.15342">
        <ele>899</ele>
        <time>2009-05-31T14:12:01Z</time>
      </trkpt>
      <trkpt lat="48.26744" lon="7.15314">
        <ele>900</ele>
        <time>2009-05-31T14:11:49Z</time>
      </trkpt>
      <trkpt lat="48.26746" lon="7.15297">
        <ele>901</ele>
        <time>2009-05-31T14:11:40Z</time>
      </trkpt>
      <trkpt lat="48.26731" lon="7.1528">
        <ele>904</ele>
        <time>2009-05-31T14:11:26Z</time>
      </trkpt>
      <trkpt lat="48.26729" lon="7.15277">
        <ele>904</ele>
        <time>2009-05-31T14:11:24Z</time>
      </trkpt>
      <trkpt lat="48.26722" lon="7.15257">
        <ele>906</ele>
        <time>2009-05-31T14:11:11Z</time>
      </trkpt>
      <trkpt lat="48.26721" lon="7.15237">
        <ele>909</ele>
        <time>2009-05-31T14:10:57Z</time>
      </trkpt>
      <trkpt lat="48.26722" lon="7.15216">
        <ele>911</ele>
        <time>2009-05-31T14:10:45Z</time>
      </trkpt>
      <trkpt lat="48.26722" lon="7.15198">
        <ele>911</ele>
        <time>2009-05-31T14:10:37Z</time>
      </trkpt>
      <trkpt lat="48.26726" lon="7.15184">
        <ele>912</ele>
        <time>2009-05-31T14:10:31Z</time>
      </trkpt>
      <trkpt lat="48.26726" lon="7.15171">
        <ele>913</ele>
        <time>2009-05-31T14:10:25Z</time>
      </trkpt>
      <trkpt lat="48.26722" lon="7.15159">
        <ele>914</ele>
        <time>2009-05-31T14:10:19Z</time>
      </trkpt>
      <trkpt lat="48.26727" lon="7.15129">
        <ele>915</ele>
        <time>2009-05-31T14:10:03Z</time>
      </trkpt>
      <trkpt lat="48.2673" lon="7.15109">
        <ele>917</ele>
        <time>2009-05-31T14:09:51Z</time>
      </trkpt>
      <trkpt lat="48.26731" lon="7.15104">
        <ele>917</ele>
        <time>2009-05-31T14:09:48Z</time>
      </trkpt>
      <trkpt lat="48.26731" lon="7.15095">
        <ele>918</ele>
        <time>2009-05-31T14:09:43Z</time>
      </trkpt>
      <trkpt lat="48.26732" lon="7.15084">
        <ele>919</ele>
        <time>2009-05-31T14:09:37Z</time>
      </trkpt>
      <trkpt lat="48.26732" lon="7.15079">
        <ele>920</ele>
        <time>2009-05-31T14:09:35Z</time>
      </trkpt>
      <trkpt lat="48.26734" lon="7.15062">
        <ele>921</ele>
        <time>2009-05-31T14:09:26Z</time>
      </trkpt>
      <trkpt lat="48.26733" lon="7.15037">
        <ele>924</ele>
        <time>2009-05-31T14:09:09Z</time>
      </trkpt>
      <trkpt lat="48.26722" lon="7.15018">
        <ele>928</ele>
        <time>2009-05-31T14:08:56Z</time>
      </trkpt>
      <trkpt lat="48.26705" lon="7.15009">
        <ele>929</ele>
        <time>2009-05-31T14:08:46Z</time>
      </trkpt>
      <trkpt lat="48.26698" lon="7.14997">
        <ele>932</ele>
        <time>2009-05-31T14:08:35Z</time>
      </trkpt>
      <trkpt lat="48.26679" lon="7.14997">
        <ele>934</ele>
        <time>2009-05-31T14:08:17Z</time>
      </trkpt>
      <trkpt lat="48.26664" lon="7.14989">
        <ele>936</ele>
        <time>2009-05-31T14:08:05Z</time>
      </trkpt>
      <trkpt lat="48.26642" lon="7.1498">
        <ele>939</ele>
        <time>2009-05-31T14:07:44Z</time>
      </trkpt>
      <trkpt lat="48.26631" lon="7.14975">
        <ele>940</ele>
        <time>2009-05-31T14:07:31Z</time>
      </trkpt>
      <trkpt lat="48.26614" lon="7.14971">
        <ele>941</ele>
        <time>2009-05-31T14:07:20Z</time>
      </trkpt>
      <trkpt lat="48.26602" lon="7.14971">
        <ele>944</ele>
        <time>2009-05-31T14:07:08Z</time>
      </trkpt>
      <trkpt lat="48.26585" lon="7.14972">
        <ele>945</ele>
        <time>2009-05-31T14:06:45Z</time>
      </trkpt>
      <trkpt lat="48.26574" lon="7.14971">
        <ele>948</ele>
        <time>2009-05-31T14:06:31Z</time>
      </trkpt>
      <trkpt lat="48.26561" lon="7.14964">
        <ele>949</ele>
        <time>2009-05-31T14:06:17Z</time>
      </trkpt>
      <trkpt lat="48.26544" lon="7.14951">
        <ele>949</ele>
        <time>2009-05-31T14:06:01Z</time>
      </trkpt>
      <trkpt lat="48.26531" lon="7.14938">
        <ele>949</ele>
        <time>2009-05-31T14:05:46Z</time>
      </trkpt>
      <trkpt lat="48.26521" lon="7.14925">
        <ele>948</ele>
        <time>2009-05-31T14:05:33Z</time>
      </trkpt>
      <trkpt lat="48.26507" lon="7.14911">
        <ele>949</ele>
        <time>2009-05-31T14:05:19Z</time>
      </trkpt>
      <trkpt lat="48.26495" lon="7.14896">
        <ele>948</ele>
        <time>2009-05-31T14:05:04Z</time>
      </trkpt>
      <trkpt lat="48.26487" lon="7.14884">
        <ele>948</ele>
        <time>2009-05-31T14:04:51Z</time>
      </trkpt>
      <trkpt lat="48.26478" lon="7.14868">
        <ele>948</ele>
        <time>2009-05-31T14:04:35Z</time>
      </trkpt>
      <trkpt lat="48.26471" lon="7.14861">
        <ele>948</ele>
        <time>2009-05-31T14:04:14Z</time>
      </trkpt>
      <trkpt lat="48.26466" lon="7.14838">
        <ele>948</ele>
        <time>2009-05-31T14:03:58Z</time>
      </trkpt>
      <trkpt lat="48.26455" lon="7.14815">
        <ele>947</ele>
        <time>2009-05-31T14:03:39Z</time>
      </trkpt>
      <trkpt lat="48.2645" lon="7.14804">
        <ele>947</ele>
        <time>2009-05-31T14:03:29Z</time>
      </trkpt>
      <trkpt lat="48.26444" lon="7.14788">
        <ele>947</ele>
        <time>2009-05-31T14:03:15Z</time>
      </trkpt>
      <trkpt lat="48.26442" lon="7.14782">
        <ele>947</ele>
        <time>2009-05-31T14:03:04Z</time>
      </trkpt>
      <trkpt lat="48.26439" lon="7.14776">
        <ele>947</ele>
        <time>2009-05-31T14:02:57Z</time>
      </trkpt>
      <trkpt lat="48.26435" lon="7.14771">
        <ele>947</ele>
        <time>2009-05-31T14:02:12Z</time>
      </trkpt>
      <trkpt lat="48.26424" lon="7.14766">
        <ele>946</ele>
        <time>2009-05-31T14:01:56Z</time>
      </trkpt>
      <trkpt lat="48.26414" lon="7.14769">
        <ele>944</ele>
        <time>2009-05-31T14:01:44Z</time>
      </trkpt>
      <trkpt lat="48.26402" lon="7.14767">
        <ele>942</ele>
        <time>2009-05-31T14:01:30Z</time>
      </trkpt>
      <trkpt lat="48.26389" lon="7.14769">
        <ele>940</ele>
        <time>2009-05-31T14:01:17Z</time>
      </trkpt>
      <trkpt lat="48.26378" lon="7.14766">
        <ele>937</ele>
        <time>2009-05-31T14:01:02Z</time>
      </trkpt>
      <trkpt lat="48.26366" lon="7.14764">
        <ele>935</ele>
        <time>2009-05-31T14:00:47Z</time>
      </trkpt>
      <trkpt lat="48.26356" lon="7.14763">
        <ele>933</ele>
        <time>2009-05-31T14:00:33Z</time>
      </trkpt>
      <trkpt lat="48.26344" lon="7.14759">
        <ele>930</ele>
        <time>2009-05-31T14:00:19Z</time>
      </trkpt>
      <trkpt lat="48.26332" lon="7.14758">
        <ele>927</ele>
        <time>2009-05-31T14:00:01Z</time>
      </trkpt>
      <trkpt lat="48.26319" lon="7.14756">
        <ele>924</ele>
        <time>2009-05-31T13:59:45Z</time>
      </trkpt>
      <trkpt lat="48.26308" lon="7.14755">
        <ele>921</ele>
        <time>2009-05-31T13:59:31Z</time>
      </trkpt>
      <trkpt lat="48.26297" lon="7.14747">
        <ele>918</ele>
        <time>2009-05-31T13:59:14Z</time>
      </trkpt>
      <trkpt lat="48.26277" lon="7.14742">
        <ele>915</ele>
        <time>2009-05-31T13:58:52Z</time>
      </trkpt>
      <trkpt lat="48.26261" lon="7.14741">
        <ele>912</ele>
        <time>2009-05-31T13:58:35Z</time>
      </trkpt>
      <trkpt lat="48.26244" lon="7.14736">
        <ele>910</ele>
        <time>2009-05-31T13:58:17Z</time>
      </trkpt>
      <trkpt lat="48.2623" lon="7.14732">
        <ele>908</ele>
        <time>2009-05-31T13:58:00Z</time>
      </trkpt>
      <trkpt lat="48.26228" lon="7.14726">
        <ele>908</ele>
        <time>2009-05-31T13:57:55Z</time>
      </trkpt>
      <trkpt lat="48.26236" lon="7.14705">
        <ele>907</ele>
        <time>2009-05-31T13:57:40Z</time>
      </trkpt>
      <trkpt lat="48.26238" lon="7.14702">
        <ele>907</ele>
        <time>2009-05-31T13:57:37Z</time>
      </trkpt>
      <trkpt lat="48.26241" lon="7.14704">
        <ele>907</ele>
        <time>2009-05-31T13:57:03Z</time>
      </trkpt>
      <trkpt lat="48.26239" lon="7.14702">
        <ele>906</ele>
        <time>2009-05-31T13:56:44Z</time>
      </trkpt>
      <trkpt lat="48.26239" lon="7.14702">
        <ele>906</ele>
        <time>2009-05-31T13:56:17Z</time>
      </trkpt>
      <trkpt lat="48.2624" lon="7.14701">
        <ele>906</ele>
        <time>2009-05-31T13:55:57Z</time>
      </trkpt>
      <trkpt lat="48.2624" lon="7.147">
        <ele>905</ele>
        <time>2009-05-31T13:55:43Z</time>
      </trkpt>
      <trkpt lat="48.26241" lon="7.147">
        <ele>906</ele>
        <time>2009-05-31T13:55:04Z</time>
      </trkpt>
      <trkpt lat="48.26241" lon="7.14701">
        <ele>905</ele>
        <time>2009-05-31T13:54:30Z</time>
      </trkpt>
      <trkpt lat="48.2624" lon="7.14702">
        <ele>905</ele>
        <time>2009-05-31T13:53:17Z</time>
      </trkpt>
      <trkpt lat="48.26238" lon="7.14701">
        <ele>905</ele>
        <time>2009-05-31T13:52:17Z</time>
      </trkpt>
      <trkpt lat="48.26238" lon="7.147">
        <ele>905</ele>
        <time>2009-05-31T13:51:12Z</time>
      </trkpt>
      <trkpt lat="48.26239" lon="7.147">
        <ele>905</ele>
        <time>2009-05-31T13:46:30Z</time>
      </trkpt>
      <trkpt lat="48.2624" lon="7.14704">
        <ele>905</ele>
        <time>2009-05-31T13:45:21Z</time>
      </trkpt>
      <trkpt lat="48.26239" lon="7.14704">
        <ele>905</ele>
        <time>2009-05-31T13:44:28Z</time>
      </trkpt>
      <trkpt lat="48.26238" lon="7.14703">
        <ele>905</ele>
        <time>2009-05-31T13:43:58Z</time>
      </trkpt>
      <trkpt lat="48.26239" lon="7.14703">
        <ele>906</ele>
        <time>2009-05-31T13:43:25Z</time>
      </trkpt>
      <trkpt lat="48.26239" lon="7.14702">
        <ele>906</ele>
        <time>2009-05-31T13:42:23Z</time>
      </trkpt>
      <trkpt lat="48.26238" lon="7.14701">
        <ele>906</ele>
        <time>2009-05-31T13:41:08Z</time>
      </trkpt>
      <trkpt lat="48.26237" lon="7.14702">
        <ele>906</ele>
        <time>2009-05-31T13:39:26Z</time>
      </trkpt>
      <trkpt lat="48.26237" lon="7.14702">
        <ele>907</ele>
        <time>2009-05-31T13:38:50Z</time>
      </trkpt>
      <trkpt lat="48.26238" lon="7.14702">
        <ele>906</ele>
        <time>2009-05-31T13:38:15Z</time>
      </trkpt>
      <trkpt lat="48.26237" lon="7.14704">
        <ele>907</ele>
        <time>2009-05-31T13:33:51Z</time>
      </trkpt>
      <trkpt lat="48.26237" lon="7.14702">
        <ele>907</ele>
        <time>2009-05-31T13:32:43Z</time>
      </trkpt>
      <trkpt lat="48.26237" lon="7.14702">
        <ele>907</ele>
        <time>2009-05-31T13:32:06Z</time>
      </trkpt>
      <trkpt lat="48.26237" lon="7.14703">
        <ele>907</ele>
        <time>2009-05-31T13:30:19Z</time>
      </trkpt>
      <trkpt lat="48.26238" lon="7.14702">
        <ele>908</ele>
        <time>2009-05-31T13:28:56Z</time>
      </trkpt>
      <trkpt lat="48.26238" lon="7.14702">
        <ele>908</ele>
        <time>2009-05-31T13:28:25Z</time>
      </trkpt>
      <trkpt lat="48.26237" lon="7.14703">
        <ele>908</ele>
        <time>2009-05-31T13:27:42Z</time>
      </trkpt>
      <trkpt lat="48.26236" lon="7.14702">
        <ele>909</ele>
        <time>2009-05-31T13:23:21Z</time>
      </trkpt>
      <trkpt lat="48.26234" lon="7.14705">
        <ele>909</ele>
        <time>2009-05-31T13:20:18Z</time>
      </trkpt>
      <trkpt lat="48.26236" lon="7.14704">
        <ele>909</ele>
        <time>2009-05-31T13:18:10Z</time>
      </trkpt>
      <trkpt lat="48.26235" lon="7.14705">
        <ele>910</ele>
        <time>2009-05-31T13:03:58Z</time>
      </trkpt>
      <trkpt lat="48.26235" lon="7.14705">
        <ele>911</ele>
        <time>2009-05-31T12:59:24Z</time>
      </trkpt>
      <trkpt lat="48.26235" lon="7.14704">
        <ele>911</ele>
        <time>2009-05-31T12:56:59Z</time>
      </trkpt>
      <trkpt lat="48.26235" lon="7.147">
        <ele>911</ele>
        <time>2009-05-31T12:56:22Z</time>
      </trkpt>
      <trkpt lat="48.26237" lon="7.147">
        <ele>913</ele>
        <time>2009-05-31T12:56:16Z</time>
      </trkpt>
      <trkpt lat="48.26238" lon="7.14705">
        <ele>912</ele>
        <time>2009-05-31T12:55:48Z</time>
      </trkpt>
      <trkpt lat="48.26236" lon="7.14706">
        <ele>911</ele>
        <time>2009-05-31T12:54:35Z</time>
      </trkpt>
      <trkpt lat="48.2624" lon="7.14706">
        <ele>912</ele>
        <time>2009-05-31T12:54:20Z</time>
      </trkpt>
      <trkpt lat="48.2624" lon="7.14703">
        <ele>911</ele>
        <time>2009-05-31T12:53:58Z</time>
      </trkpt>
      <trkpt lat="48.26239" lon="7.14702">
        <ele>912</ele>
        <time>2009-05-31T12:53:23Z</time>
      </trkpt>
      <trkpt lat="48.26239" lon="7.14704">
        <ele>911</ele>
        <time>2009-05-31T12:52:59Z</time>
      </trkpt>
      <trkpt lat="48.26237" lon="7.14703">
        <ele>912</ele>
        <time>2009-05-31T12:52:37Z</time>
      </trkpt>
      <trkpt lat="48.26237" lon="7.14702">
        <ele>912</ele>
        <time>2009-05-31T12:52:08Z</time>
      </trkpt>
      <trkpt lat="48.26237" lon="7.14701">
        <ele>912</ele>
        <time>2009-05-31T12:51:53Z</time>
      </trkpt>
      <trkpt lat="48.26237" lon="7.14702">
        <ele>912</ele>
        <time>2009-05-31T12:51:41Z</time>
      </trkpt>
      <trkpt lat="48.26235" lon="7.14705">
        <ele>912</ele>
        <time>2009-05-31T12:51:24Z</time>
      </trkpt>
      <trkpt lat="48.26229" lon="7.14718">
        <ele>913</ele>
        <time>2009-05-31T12:51:04Z</time>
      </trkpt>
      <trkpt lat="48.26226" lon="7.14729">
        <ele>914</ele>
        <time>2009-05-31T12:50:55Z</time>
      </trkpt>
      <trkpt lat="48.26243" lon="7.14739">
        <ele>915</ele>
        <time>2009-05-31T12:50:35Z</time>
      </trkpt>
      <trkpt lat="48.26245" lon="7.14738">
        <ele>915</ele>
        <time>2009-05-31T12:50:15Z</time>
      </trkpt>
      <trkpt lat="48.26236" lon="7.14739">
        <ele>915</ele>
        <time>2009-05-31T12:50:02Z</time>
      </trkpt>
      <trkpt lat="48.26227" lon="7.14735">
        <ele>913</ele>
        <time>2009-05-31T12:49:56Z</time>
      </trkpt>
      <trkpt lat="48.26224" lon="7.14734">
        <ele>913</ele>
        <time>2009-05-31T12:49:43Z</time>
      </trkpt>
      <trkpt lat="48.26215" lon="7.1474">
        <ele>912</ele>
        <time>2009-05-31T12:49:27Z</time>
      </trkpt>
      <trkpt lat="48.26217" lon="7.14761">
        <ele>911</ele>
        <time>2009-05-31T12:49:13Z</time>
      </trkpt>
      <trkpt lat="48.26224" lon="7.1477">
        <ele>910</ele>
        <time>2009-05-31T12:49:04Z</time>
      </trkpt>
      <trkpt lat="48.26242" lon="7.14788">
        <ele>908</ele>
        <time>2009-05-31T12:48:47Z</time>
      </trkpt>
      <trkpt lat="48.2625" lon="7.148">
        <ele>907</ele>
        <time>2009-05-31T12:48:35Z</time>
      </trkpt>
      <trkpt lat="48.26258" lon="7.14814">
        <ele>904</ele>
        <time>2009-05-31T12:48:20Z</time>
      </trkpt>
      <trkpt lat="48.26258" lon="7.14827">
        <ele>902</ele>
        <time>2009-05-31T12:48:05Z</time>
      </trkpt>
      <trkpt lat="48.26263" lon="7.14818">
        <ele>902</ele>
        <time>2009-05-31T12:47:45Z</time>
      </trkpt>
      <trkpt lat="48.26265" lon="7.14813">
        <ele>902</ele>
        <time>2009-05-31T12:47:26Z</time>
      </trkpt>
      <trkpt lat="48.26251" lon="7.14812">
        <ele>901</ele>
        <time>2009-05-31T12:47:14Z</time>
      </trkpt>
      <trkpt lat="48.26234" lon="7.14805">
        <ele>898</ele>
        <time>2009-05-31T12:47:00Z</time>
      </trkpt>
      <trkpt lat="48.26219" lon="7.14802">
        <ele>897</ele>
        <time>2009-05-31T12:46:47Z</time>
      </trkpt>
      <trkpt lat="48.262" lon="7.14804">
        <ele>896</ele>
        <time>2009-05-31T12:46:32Z</time>
      </trkpt>
      <trkpt lat="48.26181" lon="7.14804">
        <ele>894</ele>
        <time>2009-05-31T12:46:17Z</time>
      </trkpt>
      <trkpt lat="48.26162" lon="7.14809">
        <ele>893</ele>
        <time>2009-05-31T12:46:05Z</time>
      </trkpt>
      <trkpt lat="48.26153" lon="7.14804">
        <ele>892</ele>
        <time>2009-05-31T12:45:54Z</time>
      </trkpt>
      <trkpt lat="48.26134" lon="7.14804">
        <ele>890</ele>
        <time>2009-05-31T12:45:40Z</time>
      </trkpt>
      <trkpt lat="48.26128" lon="7.14803">
        <ele>890</ele>
        <time>2009-05-31T12:45:35Z</time>
      </trkpt>
      <trkpt lat="48.2612" lon="7.148">
        <ele>888</ele>
        <time>2009-05-31T12:45:24Z</time>
      </trkpt>
      <trkpt lat="48.26099" lon="7.14806">
        <ele>886</ele>
        <time>2009-05-31T12:45:09Z</time>
      </trkpt>
      <trkpt lat="48.26078" lon="7.14817">
        <ele>885</ele>
        <time>2009-05-31T12:44:56Z</time>
      </trkpt>
      <trkpt lat="48.26063" lon="7.1482">
        <ele>883</ele>
        <time>2009-05-31T12:44:43Z</time>
      </trkpt>
      <trkpt lat="48.26046" lon="7.14818">
        <ele>882</ele>
        <time>2009-05-31T12:44:30Z</time>
      </trkpt>
      <trkpt lat="48.26036" lon="7.14814">
        <ele>881</ele>
        <time>2009-05-31T12:44:22Z</time>
      </trkpt>
      <trkpt lat="48.26024" lon="7.14807">
        <ele>880</ele>
        <time>2009-05-31T12:44:08Z</time>
      </trkpt>
      <trkpt lat="48.26013" lon="7.14812">
        <ele>879</ele>
        <time>2009-05-31T12:44:02Z</time>
      </trkpt>
      <trkpt lat="48.25997" lon="7.14807">
        <ele>877</ele>
        <time>2009-05-31T12:43:48Z</time>
      </trkpt>
      <trkpt lat="48.25984" lon="7.14795">
        <ele>876</ele>
        <time>2009-05-31T12:43:35Z</time>
      </trkpt>
      <trkpt lat="48.25973" lon="7.14787">
        <ele>875</ele>
        <time>2009-05-31T12:43:24Z</time>
      </trkpt>
      <trkpt lat="48.25958" lon="7.14779">
        <ele>874</ele>
        <time>2009-05-31T12:43:11Z</time>
      </trkpt>
      <trkpt lat="48.25943" lon="7.1478">
        <ele>873</ele>
        <time>2009-05-31T12:43:00Z</time>
      </trkpt>
      <trkpt lat="48.25931" lon="7.14781">
        <ele>871</ele>
        <time>2009-05-31T12:42:48Z</time>
      </trkpt>
      <trkpt lat="48.25915" lon="7.14788">
        <ele>870</ele>
        <time>2009-05-31T12:42:33Z</time>
      </trkpt>
      <trkpt lat="48.25895" lon="7.14796">
        <ele>868</ele>
        <time>2009-05-31T12:42:20Z</time>
      </trkpt>
      <trkpt lat="48.25877" lon="7.148">
        <ele>867</ele>
        <time>2009-05-31T12:42:07Z</time>
      </trkpt>
      <trkpt lat="48.25862" lon="7.14804">
        <ele>865</ele>
        <time>2009-05-31T12:41:54Z</time>
      </trkpt>
      <trkpt lat="48.2584" lon="7.14809">
        <ele>863</ele>
        <time>2009-05-31T12:41:37Z</time>
      </trkpt>
      <trkpt lat="48.25832" lon="7.14809">
        <ele>862</ele>
        <time>2009-05-31T12:41:10Z</time>
      </trkpt>
      <trkpt lat="48.25835" lon="7.14802">
        <ele>863</ele>
        <time>2009-05-31T12:40:43Z</time>
      </trkpt>
      <trkpt lat="48.25837" lon="7.14802">
        <ele>863</ele>
        <time>2009-05-31T12:40:21Z</time>
      </trkpt>
      <trkpt lat="48.25842" lon="7.14792">
        <ele>862</ele>
        <time>2009-05-31T12:39:59Z</time>
      </trkpt>
      <trkpt lat="48.25825" lon="7.14786">
        <ele>861</ele>
        <time>2009-05-31T12:39:43Z</time>
      </trkpt>
      <trkpt lat="48.25812" lon="7.14765">
        <ele>859</ele>
        <time>2009-05-31T12:39:28Z</time>
      </trkpt>
      <trkpt lat="48.25809" lon="7.14758">
        <ele>859</ele>
        <time>2009-05-31T12:39:24Z</time>
      </trkpt>
      <trkpt lat="48.25809" lon="7.14745">
        <ele>858</ele>
        <time>2009-05-31T12:39:18Z</time>
      </trkpt>
      <trkpt lat="48.25807" lon="7.14703">
        <ele>856</ele>
        <time>2009-05-31T12:39:01Z</time>
      </trkpt>
      <trkpt lat="48.25806" lon="7.14699">
        <ele>856</ele>
        <time>2009-05-31T12:38:59Z</time>
      </trkpt>
      <trkpt lat="48.258" lon="7.14679">
        <ele>855</ele>
        <time>2009-05-31T12:38:46Z</time>
      </trkpt>
      <trkpt lat="48.25799" lon="7.14677">
        <ele>855</ele>
        <time>2009-05-31T12:38:44Z</time>
      </trkpt>
      <trkpt lat="48.258" lon="7.14645">
        <ele>854</ele>
        <time>2009-05-31T12:38:28Z</time>
      </trkpt>
      <trkpt lat="48.25798" lon="7.1462">
        <ele>853</ele>
        <time>2009-05-31T12:38:14Z</time>
      </trkpt>
      <trkpt lat="48.25799" lon="7.14595">
        <ele>853</ele>
        <time>2009-05-31T12:38:00Z</time>
      </trkpt>
      <trkpt lat="48.25802" lon="7.14569">
        <ele>853</ele>
        <time>2009-05-31T12:37:46Z</time>
      </trkpt>
      <trkpt lat="48.25808" lon="7.14545">
        <ele>851</ele>
        <time>2009-05-31T12:37:33Z</time>
      </trkpt>
      <trkpt lat="48.2582" lon="7.14501">
        <ele>850</ele>
        <time>2009-05-31T12:37:16Z</time>
      </trkpt>
      <trkpt lat="48.25824" lon="7.14474">
        <ele>850</ele>
        <time>2009-05-31T12:37:04Z</time>
      </trkpt>
      <trkpt lat="48.25815" lon="7.14455">
        <ele>848</ele>
        <time>2009-05-31T12:36:53Z</time>
      </trkpt>
      <trkpt lat="48.25809" lon="7.14448">
        <ele>848</ele>
        <time>2009-05-31T12:36:48Z</time>
      </trkpt>
      <trkpt lat="48.25803" lon="7.14444">
        <ele>848</ele>
        <time>2009-05-31T12:36:43Z</time>
      </trkpt>
      <trkpt lat="48.258" lon="7.14423">
        <ele>847</ele>
        <time>2009-05-31T12:36:29Z</time>
      </trkpt>
      <trkpt lat="48.2579" lon="7.14413">
        <ele>847</ele>
        <time>2009-05-31T12:36:20Z</time>
      </trkpt>
      <trkpt lat="48.25787" lon="7.14394">
        <ele>846</ele>
        <time>2009-05-31T12:36:12Z</time>
      </trkpt>
      <trkpt lat="48.25771" lon="7.14377">
        <ele>846</ele>
        <time>2009-05-31T12:35:56Z</time>
      </trkpt>
      <trkpt lat="48.25762" lon="7.14366">
        <ele>846</ele>
        <time>2009-05-31T12:35:47Z</time>
      </trkpt>
      <trkpt lat="48.25759" lon="7.14358">
        <ele>846</ele>
        <time>2009-05-31T12:35:43Z</time>
      </trkpt>
      <trkpt lat="48.25757" lon="7.14353">
        <ele>846</ele>
        <time>2009-05-31T12:35:40Z</time>
      </trkpt>
      <trkpt lat="48.25752" lon="7.14343">
        <ele>845</ele>
        <time>2009-05-31T12:35:33Z</time>
      </trkpt>
      <trkpt lat="48.25745" lon="7.14315">
        <ele>845</ele>
        <time>2009-05-31T12:35:18Z</time>
      </trkpt>
      <trkpt lat="48.25741" lon="7.14313">
        <ele>845</ele>
        <time>2009-05-31T12:34:51Z</time>
      </trkpt>
      <trkpt lat="48.25744" lon="7.14309">
        <ele>845</ele>
        <time>2009-05-31T12:34:31Z</time>
      </trkpt>
      <trkpt lat="48.25739" lon="7.14303">
        <ele>845</ele>
        <time>2009-05-31T12:34:25Z</time>
      </trkpt>
      <trkpt lat="48.25727" lon="7.14299">
        <ele>844</ele>
        <time>2009-05-31T12:34:16Z</time>
      </trkpt>
      <trkpt lat="48.25713" lon="7.14296">
        <ele>843</ele>
        <time>2009-05-31T12:34:06Z</time>
      </trkpt>
      <trkpt lat="48.25709" lon="7.14291">
        <ele>842</ele>
        <time>2009-05-31T12:34:00Z</time>
      </trkpt>
      <trkpt lat="48.25701" lon="7.14274">
        <ele>841</ele>
        <time>2009-05-31T12:33:47Z</time>
      </trkpt>
      <trkpt lat="48.25695" lon="7.14264">
        <ele>841</ele>
        <time>2009-05-31T12:33:37Z</time>
      </trkpt>
      <trkpt lat="48.25686" lon="7.14245">
        <ele>840</ele>
        <time>2009-05-31T12:33:24Z</time>
      </trkpt>
      <trkpt lat="48.25666" lon="7.1424">
        <ele>839</ele>
        <time>2009-05-31T12:33:10Z</time>
      </trkpt>
      <trkpt lat="48.25646" lon="7.14234">
        <ele>839</ele>
        <time>2009-05-31T12:32:57Z</time>
      </trkpt>
      <trkpt lat="48.25632" lon="7.14219">
        <ele>837</ele>
        <time>2009-05-31T12:32:43Z</time>
      </trkpt>
      <trkpt lat="48.2562" lon="7.14211">
        <ele>837</ele>
        <time>2009-05-31T12:32:33Z</time>
      </trkpt>
      <trkpt lat="48.25606" lon="7.14203">
        <ele>836</ele>
        <time>2009-05-31T12:32:20Z</time>
      </trkpt>
      <trkpt lat="48.25585" lon="7.14205">
        <ele>834</ele>
        <time>2009-05-31T12:32:05Z</time>
      </trkpt>
      <trkpt lat="48.25571" lon="7.14215">
        <ele>833</ele>
        <time>2009-05-31T12:31:54Z</time>
      </trkpt>
      <trkpt lat="48.25555" lon="7.14225">
        <ele>833</ele>
        <time>2009-05-31T12:31:42Z</time>
      </trkpt>
      <trkpt lat="48.25534" lon="7.14227">
        <ele>831</ele>
        <time>2009-05-31T12:31:29Z</time>
      </trkpt>
      <trkpt lat="48.25524" lon="7.14219">
        <ele>832</ele>
        <time>2009-05-31T12:31:17Z</time>
      </trkpt>
      <trkpt lat="48.25509" lon="7.14209">
        <ele>831</ele>
        <time>2009-05-31T12:31:02Z</time>
      </trkpt>
      <trkpt lat="48.25501" lon="7.14204">
        <ele>831</ele>
        <time>2009-05-31T12:30:57Z</time>
      </trkpt>
      <trkpt lat="48.25494" lon="7.1419">
        <ele>831</ele>
        <time>2009-05-31T12:30:47Z</time>
      </trkpt>
      <trkpt lat="48.25482" lon="7.14179">
        <ele>831</ele>
        <time>2009-05-31T12:30:37Z</time>
      </trkpt>
      <trkpt lat="48.25469" lon="7.14166">
        <ele>830</ele>
        <time>2009-05-31T12:30:26Z</time>
      </trkpt>
      <trkpt lat="48.25453" lon="7.1416">
        <ele>830</ele>
        <time>2009-05-31T12:30:14Z</time>
      </trkpt>
      <trkpt lat="48.2544" lon="7.14148">
        <ele>830</ele>
        <time>2009-05-31T12:30:03Z</time>
      </trkpt>
      <trkpt lat="48.25423" lon="7.14124">
        <ele>829</ele>
        <time>2009-05-31T12:29:45Z</time>
      </trkpt>
      <trkpt lat="48.25414" lon="7.1412">
        <ele>828</ele>
        <time>2009-05-31T12:29:38Z</time>
      </trkpt>
      <trkpt lat="48.25408" lon="7.14105">
        <ele>828</ele>
        <time>2009-05-31T12:29:29Z</time>
      </trkpt>
      <trkpt lat="48.25401" lon="7.14087">
        <ele>828</ele>
        <time>2009-05-31T12:29:18Z</time>
      </trkpt>
      <trkpt lat="48.25391" lon="7.14069">
        <ele>828</ele>
        <time>2009-05-31T12:29:06Z</time>
      </trkpt>
      <trkpt lat="48.25389" lon="7.14064">
        <ele>828</ele>
        <time>2009-05-31T12:29:03Z</time>
      </trkpt>
      <trkpt lat="48.2538" lon="7.14051">
        <ele>828</ele>
        <time>2009-05-31T12:28:55Z</time>
      </trkpt>
      <trkpt lat="48.25371" lon="7.14039">
        <ele>827</ele>
        <time>2009-05-31T12:28:45Z</time>
      </trkpt>
      <trkpt lat="48.25368" lon="7.14034">
        <ele>827</ele>
        <time>2009-05-31T12:28:42Z</time>
      </trkpt>
      <trkpt lat="48.25355" lon="7.14019">
        <ele>826</ele>
        <time>2009-05-31T12:28:29Z</time>
      </trkpt>
      <trkpt lat="48.25347" lon="7.14008">
        <ele>826</ele>
        <time>2009-05-31T12:28:18Z</time>
      </trkpt>
      <trkpt lat="48.25331" lon="7.13998">
        <ele>826</ele>
        <time>2009-05-31T12:28:06Z</time>
      </trkpt>
      <trkpt lat="48.2532" lon="7.13972">
        <ele>825</ele>
        <time>2009-05-31T12:27:51Z</time>
      </trkpt>
      <trkpt lat="48.25303" lon="7.13958">
        <ele>825</ele>
        <time>2009-05-31T12:27:36Z</time>
      </trkpt>
      <trkpt lat="48.25296" lon="7.13945">
        <ele>825</ele>
        <time>2009-05-31T12:27:25Z</time>
      </trkpt>
      <trkpt lat="48.25284" lon="7.13932">
        <ele>824</ele>
        <time>2009-05-31T12:27:08Z</time>
      </trkpt>
      <trkpt lat="48.25283" lon="7.13931">
        <ele>824</ele>
        <time>2009-05-31T12:27:07Z</time>
      </trkpt>
      <trkpt lat="48.25282" lon="7.13923">
        <ele>824</ele>
        <time>2009-05-31T12:26:52Z</time>
      </trkpt>
      <trkpt lat="48.25271" lon="7.13924">
        <ele>823</ele>
        <time>2009-05-31T12:26:40Z</time>
      </trkpt>
      <trkpt lat="48.2527" lon="7.13928">
        <ele>823</ele>
        <time>2009-05-31T12:26:38Z</time>
      </trkpt>
      <trkpt lat="48.25261" lon="7.13944">
        <ele>820</ele>
        <time>2009-05-31T12:26:22Z</time>
      </trkpt>
      <trkpt lat="48.25246" lon="7.13968">
        <ele>820</ele>
        <time>2009-05-31T12:26:03Z</time>
      </trkpt>
      <trkpt lat="48.25242" lon="7.13994">
        <ele>819</ele>
        <time>2009-05-31T12:25:46Z</time>
      </trkpt>
      <trkpt lat="48.25228" lon="7.1403">
        <ele>818</ele>
        <time>2009-05-31T12:25:28Z</time>
      </trkpt>
      <trkpt lat="48.25215" lon="7.1405">
        <ele>817</ele>
        <time>2009-05-31T12:25:18Z</time>
      </trkpt>
      <trkpt lat="48.25201" lon="7.14077">
        <ele>817</ele>
        <time>2009-05-31T12:25:01Z</time>
      </trkpt>
      <trkpt lat="48.25188" lon="7.14105">
        <ele>815</ele>
        <time>2009-05-31T12:24:45Z</time>
      </trkpt>
      <trkpt lat="48.25172" lon="7.14125">
        <ele>815</ele>
        <time>2009-05-31T12:24:33Z</time>
      </trkpt>
      <trkpt lat="48.25155" lon="7.14137">
        <ele>814</ele>
        <time>2009-05-31T12:24:22Z</time>
      </trkpt>
      <trkpt lat="48.25146" lon="7.14145">
        <ele>813</ele>
        <time>2009-05-31T12:24:12Z</time>
      </trkpt>
      <trkpt lat="48.25133" lon="7.14155">
        <ele>813</ele>
        <time>2009-05-31T12:23:58Z</time>
      </trkpt>
      <trkpt lat="48.25129" lon="7.14158">
        <ele>812</ele>
        <time>2009-05-31T12:23:54Z</time>
      </trkpt>
      <trkpt lat="48.25119" lon="7.1418">
        <ele>812</ele>
        <time>2009-05-31T12:23:39Z</time>
      </trkpt>
      <trkpt lat="48.2511" lon="7.14208">
        <ele>812</ele>
        <time>2009-05-31T12:23:25Z</time>
      </trkpt>
      <trkpt lat="48.25109" lon="7.1421">
        <ele>811</ele>
        <time>2009-05-31T12:23:24Z</time>
      </trkpt>
      <trkpt lat="48.251" lon="7.14233">
        <ele>811</ele>
        <time>2009-05-31T12:23:11Z</time>
      </trkpt>
      <trkpt lat="48.25088" lon="7.14265">
        <ele>810</ele>
        <time>2009-05-31T12:22:55Z</time>
      </trkpt>
      <trkpt lat="48.25079" lon="7.14296">
        <ele>809</ele>
        <time>2009-05-31T12:22:39Z</time>
      </trkpt>
      <trkpt lat="48.25076" lon="7.1431">
        <ele>809</ele>
        <time>2009-05-31T12:22:31Z</time>
      </trkpt>
      <trkpt lat="48.25066" lon="7.14332">
        <ele>808</ele>
        <time>2009-05-31T12:22:17Z</time>
      </trkpt>
      <trkpt lat="48.25064" lon="7.14337">
        <ele>808</ele>
        <time>2009-05-31T12:22:14Z</time>
      </trkpt>
      <trkpt lat="48.25061" lon="7.14339">
        <ele>808</ele>
        <time>2009-05-31T12:22:11Z</time>
      </trkpt>
      <trkpt lat="48.25046" lon="7.14357">
        <ele>808</ele>
        <time>2009-05-31T12:21:54Z</time>
      </trkpt>
      <trkpt lat="48.25022" lon="7.14362">
        <ele>808</ele>
        <time>2009-05-31T12:21:37Z</time>
      </trkpt>
      <trkpt lat="48.25002" lon="7.14351">
        <ele>807</ele>
        <time>2009-05-31T12:21:21Z</time>
      </trkpt>
      <trkpt lat="48.24979" lon="7.14336">
        <ele>806</ele>
        <time>2009-05-31T12:21:04Z</time>
      </trkpt>
      <trkpt lat="48.2497" lon="7.14328">
        <ele>806</ele>
        <time>2009-05-31T12:20:42Z</time>
      </trkpt>
      <trkpt lat="48.24971" lon="7.14322">
        <ele>806</ele>
        <time>2009-05-31T12:20:14Z</time>
      </trkpt>
      <trkpt lat="48.24955" lon="7.14302">
        <ele>805</ele>
        <time>2009-05-31T12:19:57Z</time>
      </trkpt>
      <trkpt lat="48.2494" lon="7.14281">
        <ele>805</ele>
        <time>2009-05-31T12:19:39Z</time>
      </trkpt>
      <trkpt lat="48.24926" lon="7.14261">
        <ele>805</ele>
        <time>2009-05-31T12:19:23Z</time>
      </trkpt>
      <trkpt lat="48.24924" lon="7.14257">
        <ele>805</ele>
        <time>2009-05-31T12:19:20Z</time>
      </trkpt>
      <trkpt lat="48.24913" lon="7.14228">
        <ele>804</ele>
        <time>2009-05-31T12:19:01Z</time>
      </trkpt>
      <trkpt lat="48.24912" lon="7.14224">
        <ele>804</ele>
        <time>2009-05-31T12:18:59Z</time>
      </trkpt>
      <trkpt lat="48.24907" lon="7.14196">
        <ele>803</ele>
        <time>2009-05-31T12:18:43Z</time>
      </trkpt>
      <trkpt lat="48.24905" lon="7.14166">
        <ele>803</ele>
        <time>2009-05-31T12:18:28Z</time>
      </trkpt>
      <trkpt lat="48.24902" lon="7.14129">
        <ele>802</ele>
        <time>2009-05-31T12:18:08Z</time>
      </trkpt>
      <trkpt lat="48.24899" lon="7.14096">
        <ele>801</ele>
        <time>2009-05-31T12:17:50Z</time>
      </trkpt>
      <trkpt lat="48.24893" lon="7.14075">
        <ele>801</ele>
        <time>2009-05-31T12:17:36Z</time>
      </trkpt>
      <trkpt lat="48.24886" lon="7.1405">
        <ele>801</ele>
        <time>2009-05-31T12:17:21Z</time>
      </trkpt>
      <trkpt lat="48.24883" lon="7.14043">
        <ele>801</ele>
        <time>2009-05-31T12:17:17Z</time>
      </trkpt>
      <trkpt lat="48.24873" lon="7.14016">
        <ele>800</ele>
        <time>2009-05-31T12:17:01Z</time>
      </trkpt>
      <trkpt lat="48.24868" lon="7.14005">
        <ele>800</ele>
        <time>2009-05-31T12:16:54Z</time>
      </trkpt>
      <trkpt lat="48.24868" lon="7.14003">
        <ele>800</ele>
        <time>2009-05-31T12:16:53Z</time>
      </trkpt>
      <trkpt lat="48.24857" lon="7.13974">
        <ele>799</ele>
        <time>2009-05-31T12:16:36Z</time>
      </trkpt>
      <trkpt lat="48.24854" lon="7.13967">
        <ele>800</ele>
        <time>2009-05-31T12:16:23Z</time>
      </trkpt>
      <trkpt lat="48.24854" lon="7.13962">
        <ele>799</ele>
        <time>2009-05-31T12:16:21Z</time>
      </trkpt>
      <trkpt lat="48.24846" lon="7.13952">
        <ele>799</ele>
        <time>2009-05-31T12:16:00Z</time>
      </trkpt>
      <trkpt lat="48.24842" lon="7.13947">
        <ele>799</ele>
        <time>2009-05-31T12:15:46Z</time>
      </trkpt>
      <trkpt lat="48.24823" lon="7.13919">
        <ele>799</ele>
        <time>2009-05-31T12:15:24Z</time>
      </trkpt>
      <trkpt lat="48.24821" lon="7.13918">
        <ele>799</ele>
        <time>2009-05-31T12:15:22Z</time>
      </trkpt>
      <trkpt lat="48.24817" lon="7.13913">
        <ele>799</ele>
        <time>2009-05-31T12:15:18Z</time>
      </trkpt>
      <trkpt lat="48.24805" lon="7.13885">
        <ele>798</ele>
        <time>2009-05-31T12:15:01Z</time>
      </trkpt>
      <trkpt lat="48.2479" lon="7.1386">
        <ele>797</ele>
        <time>2009-05-31T12:14:44Z</time>
      </trkpt>
      <trkpt lat="48.24779" lon="7.13839">
        <ele>796</ele>
        <time>2009-05-31T12:14:31Z</time>
      </trkpt>
      <trkpt lat="48.2477" lon="7.13826">
        <ele>796</ele>
        <time>2009-05-31T12:14:23Z</time>
      </trkpt>
      <trkpt lat="48.24762" lon="7.1382">
        <ele>796</ele>
        <time>2009-05-31T12:14:16Z</time>
      </trkpt>
      <trkpt lat="48.24748" lon="7.138">
        <ele>795</ele>
        <time>2009-05-31T12:14:00Z</time>
      </trkpt>
      <trkpt lat="48.24746" lon="7.13797">
        <ele>795</ele>
        <time>2009-05-31T12:13:58Z</time>
      </trkpt>
      <trkpt lat="48.24733" lon="7.13784">
        <ele>795</ele>
        <time>2009-05-31T12:13:45Z</time>
      </trkpt>
      <trkpt lat="48.24712" lon="7.13774">
        <ele>794</ele>
        <time>2009-05-31T12:13:27Z</time>
      </trkpt>
      <trkpt lat="48.24709" lon="7.13769">
        <ele>793</ele>
        <time>2009-05-31T12:13:23Z</time>
      </trkpt>
      <trkpt lat="48.24704" lon="7.13766">
        <ele>793</ele>
        <time>2009-05-31T12:13:18Z</time>
      </trkpt>
      <trkpt lat="48.2469" lon="7.13752">
        <ele>793</ele>
        <time>2009-05-31T12:13:04Z</time>
      </trkpt>
      <trkpt lat="48.24683" lon="7.13745">
        <ele>793</ele>
        <time>2009-05-31T12:12:59Z</time>
      </trkpt>
      <trkpt lat="48.24676" lon="7.13736">
        <ele>793</ele>
        <time>2009-05-31T12:12:51Z</time>
      </trkpt>
      <trkpt lat="48.24662" lon="7.13721">
        <ele>793</ele>
        <time>2009-05-31T12:12:36Z</time>
      </trkpt>
      <trkpt lat="48.24658" lon="7.13716">
        <ele>792</ele>
        <time>2009-05-31T12:12:33Z</time>
      </trkpt>
      <trkpt lat="48.24643" lon="7.13698">
        <ele>792</ele>
        <time>2009-05-31T12:12:18Z</time>
      </trkpt>
      <trkpt lat="48.24638" lon="7.13692">
        <ele>792</ele>
        <time>2009-05-31T12:12:13Z</time>
      </trkpt>
      <trkpt lat="48.2463" lon="7.13682">
        <ele>792</ele>
        <time>2009-05-31T12:12:06Z</time>
      </trkpt>
      <trkpt lat="48.24624" lon="7.1368">
        <ele>792</ele>
        <time>2009-05-31T12:12:02Z</time>
      </trkpt>
      <trkpt lat="48.24615" lon="7.13668">
        <ele>791</ele>
        <time>2009-05-31T12:11:51Z</time>
      </trkpt>
      <trkpt lat="48.24601" lon="7.13662">
        <ele>790</ele>
        <time>2009-05-31T12:11:40Z</time>
      </trkpt>
      <trkpt lat="48.246" lon="7.13663">
        <ele>790</ele>
        <time>2009-05-31T12:11:39Z</time>
      </trkpt>
      <trkpt lat="48.24583" lon="7.13647">
        <ele>790</ele>
        <time>2009-05-31T12:11:26Z</time>
      </trkpt>
      <trkpt lat="48.24578" lon="7.13646">
        <ele>790</ele>
        <time>2009-05-31T12:11:22Z</time>
      </trkpt>
      <trkpt lat="48.24568" lon="7.1363">
        <ele>789</ele>
        <time>2009-05-31T12:11:08Z</time>
      </trkpt>
      <trkpt lat="48.2455" lon="7.13623">
        <ele>788</ele>
        <time>2009-05-31T12:10:55Z</time>
      </trkpt>
      <trkpt lat="48.24545" lon="7.13616">
        <ele>788</ele>
        <time>2009-05-31T12:10:50Z</time>
      </trkpt>
      <trkpt lat="48.24532" lon="7.13603">
        <ele>788</ele>
        <time>2009-05-31T12:10:36Z</time>
      </trkpt>
      <trkpt lat="48.24517" lon="7.13591">
        <ele>787</ele>
        <time>2009-05-31T12:10:25Z</time>
      </trkpt>
      <trkpt lat="48.24505" lon="7.13575">
        <ele>787</ele>
        <time>2009-05-31T12:10:11Z</time>
      </trkpt>
      <trkpt lat="48.24494" lon="7.13571">
        <ele>786</ele>
        <time>2009-05-31T12:10:01Z</time>
      </trkpt>
      <trkpt lat="48.2448" lon="7.13564">
        <ele>786</ele>
        <time>2009-05-31T12:09:50Z</time>
      </trkpt>
      <trkpt lat="48.24457" lon="7.13552">
        <ele>786</ele>
        <time>2009-05-31T12:09:33Z</time>
      </trkpt>
      <trkpt lat="48.24452" lon="7.13547">
        <ele>786</ele>
        <time>2009-05-31T12:09:29Z</time>
      </trkpt>
      <trkpt lat="48.24449" lon="7.13548">
        <ele>786</ele>
        <time>2009-05-31T12:09:27Z</time>
      </trkpt>
      <trkpt lat="48.24444" lon="7.13538">
        <ele>786</ele>
        <time>2009-05-31T12:09:21Z</time>
      </trkpt>
      <trkpt lat="48.24437" lon="7.13515">
        <ele>786</ele>
        <time>2009-05-31T12:09:08Z</time>
      </trkpt>
      <trkpt lat="48.24433" lon="7.13503">
        <ele>785</ele>
        <time>2009-05-31T12:09:01Z</time>
      </trkpt>
      <trkpt lat="48.24427" lon="7.13492">
        <ele>786</ele>
        <time>2009-05-31T12:08:54Z</time>
      </trkpt>
      <trkpt lat="48.24425" lon="7.13484">
        <ele>785</ele>
        <time>2009-05-31T12:08:50Z</time>
      </trkpt>
      <trkpt lat="48.2442" lon="7.13456">
        <ele>785</ele>
        <time>2009-05-31T12:08:34Z</time>
      </trkpt>
      <trkpt lat="48.24415" lon="7.13432">
        <ele>785</ele>
        <time>2009-05-31T12:08:24Z</time>
      </trkpt>
      <trkpt lat="48.24415" lon="7.13423">
        <ele>785</ele>
        <time>2009-05-31T12:08:19Z</time>
      </trkpt>
      <trkpt lat="48.24403" lon="7.13395">
        <ele>784</ele>
        <time>2009-05-31T12:08:02Z</time>
      </trkpt>
      <trkpt lat="48.24402" lon="7.13379">
        <ele>784</ele>
        <time>2009-05-31T12:07:53Z</time>
      </trkpt>
      <trkpt lat="48.24389" lon="7.13364">
        <ele>783</ele>
        <time>2009-05-31T12:07:38Z</time>
      </trkpt>
      <trkpt lat="48.24383" lon="7.13355">
        <ele>782</ele>
        <time>2009-05-31T12:07:31Z</time>
      </trkpt>
      <trkpt lat="48.24377" lon="7.13337">
        <ele>781</ele>
        <time>2009-05-31T12:07:19Z</time>
      </trkpt>
      <trkpt lat="48.24377" lon="7.13335">
        <ele>781</ele>
        <time>2009-05-31T12:07:18Z</time>
      </trkpt>
      <trkpt lat="48.24376" lon="7.1333">
        <ele>780</ele>
        <time>2009-05-31T12:07:16Z</time>
      </trkpt>
      <trkpt lat="48.24366" lon="7.13311">
        <ele>780</ele>
        <time>2009-05-31T12:07:00Z</time>
      </trkpt>
      <trkpt lat="48.24355" lon="7.13292">
        <ele>779</ele>
        <time>2009-05-31T12:06:45Z</time>
      </trkpt>
      <trkpt lat="48.24347" lon="7.13289">
        <ele>778</ele>
        <time>2009-05-31T12:06:37Z</time>
      </trkpt>
      <trkpt lat="48.24343" lon="7.13284">
        <ele>778</ele>
        <time>2009-05-31T12:06:33Z</time>
      </trkpt>
      <trkpt lat="48.2434" lon="7.13279">
        <ele>778</ele>
        <time>2009-05-31T12:06:29Z</time>
      </trkpt>
      <trkpt lat="48.24338" lon="7.13275">
        <ele>780</ele>
        <time>2009-05-31T12:06:26Z</time>
      </trkpt>
      <trkpt lat="48.24335" lon="7.13245">
        <ele>779</ele>
        <time>2009-05-31T12:06:09Z</time>
      </trkpt>
      <trkpt lat="48.24337" lon="7.13233">
        <ele>779</ele>
        <time>2009-05-31T12:06:01Z</time>
      </trkpt>
      <trkpt lat="48.24339" lon="7.13233">
        <ele>779</ele>
        <time>2009-05-31T12:05:36Z</time>
      </trkpt>
      <trkpt lat="48.24341" lon="7.13236">
        <ele>778</ele>
        <time>2009-05-31T12:05:18Z</time>
      </trkpt>
      <trkpt lat="48.24345" lon="7.13242">
        <ele>778</ele>
        <time>2009-05-31T12:04:51Z</time>
      </trkpt>
      <trkpt lat="48.24341" lon="7.13236">
        <ele>778</ele>
        <time>2009-05-31T12:04:16Z</time>
      </trkpt>
      <trkpt lat="48.24342" lon="7.13238">
        <ele>778</ele>
        <time>2009-05-31T12:03:33Z</time>
      </trkpt>
      <trkpt lat="48.24343" lon="7.13235">
        <ele>777</ele>
        <time>2009-05-31T12:03:11Z</time>
      </trkpt>
      <trkpt lat="48.24344" lon="7.13233">
        <ele>777</ele>
        <time>2009-05-31T12:02:48Z</time>
      </trkpt>
      <trkpt lat="48.24343" lon="7.13234">
        <ele>777</ele>
        <time>2009-05-31T12:01:54Z</time>
      </trkpt>
      <trkpt lat="48.24344" lon="7.13237">
        <ele>777</ele>
        <time>2009-05-31T12:01:23Z</time>
      </trkpt>
      <trkpt lat="48.24342" lon="7.13237">
        <ele>777</ele>
        <time>2009-05-31T12:00:55Z</time>
      </trkpt>
      <trkpt lat="48.24342" lon="7.13236">
        <ele>776</ele>
        <time>2009-05-31T12:00:20Z</time>
      </trkpt>
      <trkpt lat="48.24342" lon="7.13236">
        <ele>777</ele>
        <time>2009-05-31T11:59:55Z</time>
      </trkpt>
      <trkpt lat="48.24342" lon="7.13233">
        <ele>777</ele>
        <time>2009-05-31T11:59:30Z</time>
      </trkpt>
      <trkpt lat="48.2434" lon="7.13236">
        <ele>777</ele>
        <time>2009-05-31T11:59:03Z</time>
      </trkpt>
      <trkpt lat="48.2434" lon="7.13238">
        <ele>776</ele>
        <time>2009-05-31T11:58:30Z</time>
      </trkpt>
      <trkpt lat="48.2434" lon="7.13239">
        <ele>776</ele>
        <time>2009-05-31T11:57:30Z</time>
      </trkpt>
      <trkpt lat="48.24338" lon="7.13237">
        <ele>776</ele>
        <time>2009-05-31T11:56:37Z</time>
      </trkpt>
      <trkpt lat="48.24343" lon="7.13239">
        <ele>774</ele>
        <time>2009-05-31T11:52:38Z</time>
      </trkpt>
      <trkpt lat="48.24338" lon="7.13236">
        <ele>774</ele>
        <time>2009-05-31T11:51:17Z</time>
      </trkpt>
      <trkpt lat="48.24342" lon="7.13237">
        <ele>777</ele>
        <time>2009-05-31T11:51:07Z</time>
      </trkpt>
      <trkpt lat="48.24342" lon="7.13237">
        <ele>771</ele>
        <time>2009-05-31T11:51:06Z</time>
      </trkpt>
      <trkpt lat="48.24341" lon="7.13237">
        <ele>778</ele>
        <time>2009-05-31T11:51:05Z</time>
      </trkpt>
      <trkpt lat="48.24341" lon="7.13237">
        <ele>774</ele>
        <time>2009-05-31T11:51:04Z</time>
      </trkpt>
      <trkpt lat="48.24341" lon="7.13237">
        <ele>771</ele>
        <time>2009-05-31T11:51:03Z</time>
      </trkpt>
      <trkpt lat="48.24341" lon="7.13236">
        <ele>779</ele>
        <time>2009-05-31T11:51:02Z</time>
      </trkpt>
      <trkpt lat="48.2434" lon="7.13235">
        <ele>774</ele>
        <time>2009-05-31T11:50:59Z</time>
      </trkpt>
      <trkpt lat="48.24339" lon="7.13235">
        <ele>771</ele>
        <time>2009-05-31T11:50:58Z</time>
      </trkpt>
      <trkpt lat="48.24339" lon="7.13235">
        <ele>775</ele>
        <time>2009-05-31T11:50:56Z</time>
      </trkpt>
      <trkpt lat="48.24339" lon="7.13235">
        <ele>770</ele>
        <time>2009-05-31T11:50:55Z</time>
      </trkpt>
      <trkpt lat="48.24338" lon="7.13235">
        <ele>774</ele>
        <time>2009-05-31T11:50:54Z</time>
      </trkpt>
      <trkpt lat="48.24338" lon="7.13235">
        <ele>780</ele>
        <time>2009-05-31T11:50:53Z</time>
      </trkpt>
      <trkpt lat="48.24339" lon="7.13235">
        <ele>774</ele>
        <time>2009-05-31T11:50:50Z</time>
      </trkpt>
      <trkpt lat="48.24339" lon="7.13236">
        <ele>780</ele>
        <time>2009-05-31T11:50:49Z</time>
      </trkpt>
      <trkpt lat="48.2434" lon="7.13236">
        <ele>775</ele>
        <time>2009-05-31T11:50:48Z</time>
      </trkpt>
      <trkpt lat="48.2434" lon="7.13236">
        <ele>769</ele>
        <time>2009-05-31T11:50:47Z</time>
      </trkpt>
      <trkpt lat="48.24341" lon="7.13237">
        <ele>775</ele>
        <time>2009-05-31T11:50:43Z</time>
      </trkpt>
      <trkpt lat="48.24341" lon="7.13237">
        <ele>779</ele>
        <time>2009-05-31T11:50:42Z</time>
      </trkpt>
      <trkpt lat="48.24341" lon="7.13236">
        <ele>775</ele>
        <time>2009-05-31T11:50:41Z</time>
      </trkpt>
      <trkpt lat="48.24341" lon="7.13236">
        <ele>770</ele>
        <time>2009-05-31T11:50:40Z</time>
      </trkpt>
      <trkpt lat="48.2434" lon="7.13235">
        <ele>776</ele>
        <time>2009-05-31T11:50:39Z</time>
      </trkpt>
      <trkpt lat="48.2434" lon="7.13234">
        <ele>775</ele>
        <time>2009-05-31T11:50:37Z</time>
      </trkpt>
      <trkpt lat="48.2434" lon="7.13233">
        <ele>772</ele>
        <time>2009-05-31T11:50:35Z</time>
      </trkpt>
      <trkpt lat="48.24341" lon="7.13234">
        <ele>775</ele>
        <time>2009-05-31T11:50:25Z</time>
      </trkpt>
      <trkpt lat="48.24341" lon="7.13234">
        <ele>771</ele>
        <time>2009-05-31T11:50:24Z</time>
      </trkpt>
      <trkpt lat="48.24341" lon="7.13235">
        <ele>780</ele>
        <time>2009-05-31T11:50:23Z</time>
      </trkpt>
      <trkpt lat="48.24341" lon="7.13235">
        <ele>774</ele>
        <time>2009-05-31T11:50:18Z</time>
      </trkpt>
      <trkpt lat="48.24341" lon="7.13234">
        <ele>771</ele>
        <time>2009-05-31T11:50:17Z</time>
      </trkpt>
      <trkpt lat="48.24342" lon="7.13237">
        <ele>774</ele>
        <time>2009-05-31T11:50:05Z</time>
      </trkpt>
      <trkpt lat="48.24342" lon="7.13233">
        <ele>775</ele>
        <time>2009-05-31T11:49:36Z</time>
      </trkpt>
      <trkpt lat="48.24345" lon="7.13233">
        <ele>774</ele>
        <time>2009-05-31T11:48:45Z</time>
      </trkpt>
      <trkpt lat="48.24342" lon="7.13238">
        <ele>775</ele>
        <time>2009-05-31T11:48:24Z</time>
      </trkpt>
      <trkpt lat="48.24337" lon="7.13243">
        <ele>775</ele>
        <time>2009-05-31T11:48:10Z</time>
      </trkpt>
      <trkpt lat="48.24332" lon="7.13261">
        <ele>775</ele>
        <time>2009-05-31T11:47:54Z</time>
      </trkpt>
      <trkpt lat="48.24323" lon="7.13268">
        <ele>775</ele>
        <time>2009-05-31T11:47:40Z</time>
      </trkpt>
      <trkpt lat="48.24323" lon="7.13269">
        <ele>774</ele>
        <time>2009-05-31T11:47:13Z</time>
      </trkpt>
      <trkpt lat="48.24324" lon="7.1327">
        <ele>774</ele>
        <time>2009-05-31T11:46:53Z</time>
      </trkpt>
      <trkpt lat="48.24302" lon="7.1327">
        <ele>774</ele>
        <time>2009-05-31T11:46:36Z</time>
      </trkpt>
      <trkpt lat="48.24285" lon="7.13255">
        <ele>775</ele>
        <time>2009-05-31T11:46:20Z</time>
      </trkpt>
      <trkpt lat="48.2428" lon="7.13247">
        <ele>776</ele>
        <time>2009-05-31T11:46:15Z</time>
      </trkpt>
      <trkpt lat="48.24267" lon="7.13226">
        <ele>777</ele>
        <time>2009-05-31T11:46:02Z</time>
      </trkpt>
      <trkpt lat="48.24261" lon="7.1322">
        <ele>778</ele>
        <time>2009-05-31T11:45:57Z</time>
      </trkpt>
      <trkpt lat="48.24254" lon="7.13214">
        <ele>779</ele>
        <time>2009-05-31T11:45:51Z</time>
      </trkpt>
      <trkpt lat="48.24243" lon="7.13205">
        <ele>779</ele>
        <time>2009-05-31T11:45:44Z</time>
      </trkpt>
      <trkpt lat="48.24228" lon="7.13196">
        <ele>781</ele>
        <time>2009-05-31T11:45:30Z</time>
      </trkpt>
      <trkpt lat="48.24223" lon="7.13196">
        <ele>782</ele>
        <time>2009-05-31T11:45:26Z</time>
      </trkpt>
      <trkpt lat="48.24205" lon="7.13205">
        <ele>783</ele>
        <time>2009-05-31T11:45:13Z</time>
      </trkpt>
      <trkpt lat="48.24188" lon="7.13216">
        <ele>785</ele>
        <time>2009-05-31T11:44:58Z</time>
      </trkpt>
      <trkpt lat="48.24172" lon="7.13227">
        <ele>785</ele>
        <time>2009-05-31T11:44:47Z</time>
      </trkpt>
      <trkpt lat="48.24159" lon="7.13231">
        <ele>786</ele>
        <time>2009-05-31T11:44:37Z</time>
      </trkpt>
      <trkpt lat="48.24142" lon="7.13231">
        <ele>788</ele>
        <time>2009-05-31T11:44:26Z</time>
      </trkpt>
      <trkpt lat="48.24132" lon="7.13236">
        <ele>788</ele>
        <time>2009-05-31T11:44:18Z</time>
      </trkpt>
      <trkpt lat="48.24121" lon="7.1324">
        <ele>788</ele>
        <time>2009-05-31T11:44:11Z</time>
      </trkpt>
      <trkpt lat="48.24118" lon="7.13243">
        <ele>788</ele>
        <time>2009-05-31T11:44:08Z</time>
      </trkpt>
      <trkpt lat="48.24109" lon="7.13251">
        <ele>789</ele>
        <time>2009-05-31T11:44:01Z</time>
      </trkpt>
      <trkpt lat="48.24108" lon="7.13251">
        <ele>789</ele>
        <time>2009-05-31T11:44:00Z</time>
      </trkpt>
      <trkpt lat="48.24093" lon="7.13266">
        <ele>790</ele>
        <time>2009-05-31T11:43:47Z</time>
      </trkpt>
      <trkpt lat="48.24087" lon="7.13273">
        <ele>790</ele>
        <time>2009-05-31T11:43:42Z</time>
      </trkpt>
      <trkpt lat="48.24076" lon="7.13279">
        <ele>790</ele>
        <time>2009-05-31T11:43:34Z</time>
      </trkpt>
      <trkpt lat="48.24067" lon="7.13285">
        <ele>791</ele>
        <time>2009-05-31T11:43:28Z</time>
      </trkpt>
      <trkpt lat="48.24061" lon="7.13285">
        <ele>791</ele>
        <time>2009-05-31T11:43:23Z</time>
      </trkpt>
      <trkpt lat="48.24042" lon="7.13293">
        <ele>792</ele>
        <time>2009-05-31T11:43:10Z</time>
      </trkpt>
      <trkpt lat="48.24031" lon="7.133">
        <ele>791</ele>
        <time>2009-05-31T11:43:01Z</time>
      </trkpt>
      <trkpt lat="48.24027" lon="7.13301">
        <ele>793</ele>
        <time>2009-05-31T11:42:58Z</time>
      </trkpt>
      <trkpt lat="48.2401" lon="7.13305">
        <ele>794</ele>
        <time>2009-05-31T11:42:46Z</time>
      </trkpt>
      <trkpt lat="48.23994" lon="7.13307">
        <ele>795</ele>
        <time>2009-05-31T11:42:34Z</time>
      </trkpt>
      <trkpt lat="48.2398" lon="7.13299">
        <ele>796</ele>
        <time>2009-05-31T11:42:24Z</time>
      </trkpt>
      <trkpt lat="48.23973" lon="7.13286">
        <ele>797</ele>
        <time>2009-05-31T11:42:15Z</time>
      </trkpt>
      <trkpt lat="48.23966" lon="7.13269">
        <ele>798</ele>
        <time>2009-05-31T11:42:06Z</time>
      </trkpt>
      <trkpt lat="48.2396" lon="7.13266">
        <ele>798</ele>
        <time>2009-05-31T11:42:01Z</time>
      </trkpt>
      <trkpt lat="48.23946" lon="7.13255">
        <ele>798</ele>
        <time>2009-05-31T11:41:47Z</time>
      </trkpt>
      <trkpt lat="48.23942" lon="7.13252">
        <ele>798</ele>
        <time>2009-05-31T11:41:42Z</time>
      </trkpt>
      <trkpt lat="48.23936" lon="7.13244">
        <ele>798</ele>
        <time>2009-05-31T11:41:04Z</time>
      </trkpt>
      <trkpt lat="48.23928" lon="7.13234">
        <ele>799</ele>
        <time>2009-05-31T11:40:32Z</time>
      </trkpt>
      <trkpt lat="48.23918" lon="7.13227">
        <ele>800</ele>
        <time>2009-05-31T11:40:11Z</time>
      </trkpt>
      <trkpt lat="48.23918" lon="7.13218">
        <ele>799</ele>
        <time>2009-05-31T11:39:37Z</time>
      </trkpt>
      <trkpt lat="48.23922" lon="7.1323">
        <ele>799</ele>
        <time>2009-05-31T11:39:20Z</time>
      </trkpt>
      <trkpt lat="48.23914" lon="7.13222">
        <ele>799</ele>
        <time>2009-05-31T11:39:06Z</time>
      </trkpt>
      <trkpt lat="48.23901" lon="7.13218">
        <ele>803</ele>
        <time>2009-05-31T11:38:55Z</time>
      </trkpt>
      <trkpt lat="48.23895" lon="7.13209">
        <ele>804</ele>
        <time>2009-05-31T11:38:47Z</time>
      </trkpt>
      <trkpt lat="48.23891" lon="7.13203">
        <ele>805</ele>
        <time>2009-05-31T11:38:43Z</time>
      </trkpt>
      <trkpt lat="48.23891" lon="7.13198">
        <ele>805</ele>
        <time>2009-05-31T11:38:41Z</time>
      </trkpt>
      <trkpt lat="48.23891" lon="7.13189">
        <ele>806</ele>
        <time>2009-05-31T11:38:37Z</time>
      </trkpt>
      <trkpt lat="48.23885" lon="7.13166">
        <ele>807</ele>
        <time>2009-05-31T11:38:25Z</time>
      </trkpt>
      <trkpt lat="48.23879" lon="7.13156">
        <ele>808</ele>
        <time>2009-05-31T11:38:18Z</time>
      </trkpt>
      <trkpt lat="48.23876" lon="7.13142">
        <ele>808</ele>
        <time>2009-05-31T11:38:10Z</time>
      </trkpt>
      <trkpt lat="48.23872" lon="7.13122">
        <ele>810</ele>
        <time>2009-05-31T11:37:58Z</time>
      </trkpt>
      <trkpt lat="48.23867" lon="7.13102">
        <ele>811</ele>
        <time>2009-05-31T11:37:48Z</time>
      </trkpt>
      <trkpt lat="48.23866" lon="7.13076">
        <ele>813</ele>
        <time>2009-05-31T11:37:35Z</time>
      </trkpt>
      <trkpt lat="48.23862" lon="7.13048">
        <ele>816</ele>
        <time>2009-05-31T11:37:19Z</time>
      </trkpt>
      <trkpt lat="48.23859" lon="7.13031">
        <ele>818</ele>
        <time>2009-05-31T11:37:10Z</time>
      </trkpt>
      <trkpt lat="48.23857" lon="7.13027">
        <ele>818</ele>
        <time>2009-05-31T11:37:08Z</time>
      </trkpt>
      <trkpt lat="48.23851" lon="7.12999">
        <ele>819</ele>
        <time>2009-05-31T11:36:53Z</time>
      </trkpt>
      <trkpt lat="48.23853" lon="7.12988">
        <ele>819</ele>
        <time>2009-05-31T11:36:49Z</time>
      </trkpt>
      <trkpt lat="48.23848" lon="7.12972">
        <ele>820</ele>
        <time>2009-05-31T11:36:40Z</time>
      </trkpt>
      <trkpt lat="48.23834" lon="7.12948">
        <ele>823</ele>
        <time>2009-05-31T11:36:25Z</time>
      </trkpt>
      <trkpt lat="48.23828" lon="7.12927">
        <ele>824</ele>
        <time>2009-05-31T11:36:14Z</time>
      </trkpt>
      <trkpt lat="48.23817" lon="7.12909">
        <ele>825</ele>
        <time>2009-05-31T11:36:01Z</time>
      </trkpt>
      <trkpt lat="48.23799" lon="7.12899">
        <ele>826</ele>
        <time>2009-05-31T11:35:46Z</time>
      </trkpt>
      <trkpt lat="48.23788" lon="7.12885">
        <ele>826</ele>
        <time>2009-05-31T11:35:35Z</time>
      </trkpt>
      <trkpt lat="48.23775" lon="7.12878">
        <ele>827</ele>
        <time>2009-05-31T11:35:24Z</time>
      </trkpt>
      <trkpt lat="48.2376" lon="7.12876">
        <ele>829</ele>
        <time>2009-05-31T11:35:09Z</time>
      </trkpt>
      <trkpt lat="48.23754" lon="7.12873">
        <ele>829</ele>
        <time>2009-05-31T11:34:58Z</time>
      </trkpt>
      <trkpt lat="48.23739" lon="7.12866">
        <ele>830</ele>
        <time>2009-05-31T11:34:47Z</time>
      </trkpt>
      <trkpt lat="48.23724" lon="7.1286">
        <ele>831</ele>
        <time>2009-05-31T11:34:36Z</time>
      </trkpt>
      <trkpt lat="48.23703" lon="7.12853">
        <ele>832</ele>
        <time>2009-05-31T11:34:22Z</time>
      </trkpt>
      <trkpt lat="48.23684" lon="7.12853">
        <ele>833</ele>
        <time>2009-05-31T11:34:08Z</time>
      </trkpt>
      <trkpt lat="48.2368" lon="7.12854">
        <ele>834</ele>
        <time>2009-05-31T11:34:04Z</time>
      </trkpt>
      <trkpt lat="48.23663" lon="7.12854">
        <ele>835</ele>
        <time>2009-05-31T11:33:49Z</time>
      </trkpt>
      <trkpt lat="48.2365" lon="7.12851">
        <ele>836</ele>
        <time>2009-05-31T11:33:40Z</time>
      </trkpt>
      <trkpt lat="48.23644" lon="7.12852">
        <ele>836</ele>
        <time>2009-05-31T11:33:36Z</time>
      </trkpt>
      <trkpt lat="48.23632" lon="7.12854">
        <ele>837</ele>
        <time>2009-05-31T11:33:26Z</time>
      </trkpt>
      <trkpt lat="48.23626" lon="7.12855">
        <ele>838</ele>
        <time>2009-05-31T11:33:21Z</time>
      </trkpt>
      <trkpt lat="48.23605" lon="7.12857">
        <ele>839</ele>
        <time>2009-05-31T11:33:07Z</time>
      </trkpt>
      <trkpt lat="48.23585" lon="7.12857">
        <ele>841</ele>
        <time>2009-05-31T11:32:53Z</time>
      </trkpt>
      <trkpt lat="48.23567" lon="7.12865">
        <ele>842</ele>
        <time>2009-05-31T11:32:38Z</time>
      </trkpt>
      <trkpt lat="48.23545" lon="7.12863">
        <ele>843</ele>
        <time>2009-05-31T11:32:23Z</time>
      </trkpt>
      <trkpt lat="48.23531" lon="7.12866">
        <ele>844</ele>
        <time>2009-05-31T11:32:10Z</time>
      </trkpt>
      <trkpt lat="48.23515" lon="7.12863">
        <ele>846</ele>
        <time>2009-05-31T11:31:58Z</time>
      </trkpt>
      <trkpt lat="48.23503" lon="7.12854">
        <ele>847</ele>
        <time>2009-05-31T11:31:47Z</time>
      </trkpt>
      <trkpt lat="48.23489" lon="7.12851">
        <ele>848</ele>
        <time>2009-05-31T11:31:37Z</time>
      </trkpt>
      <trkpt lat="48.23473" lon="7.12844">
        <ele>849</ele>
        <time>2009-05-31T11:31:25Z</time>
      </trkpt>
      <trkpt lat="48.23463" lon="7.12838">
        <ele>850</ele>
        <time>2009-05-31T11:31:15Z</time>
      </trkpt>
      <trkpt lat="48.23446" lon="7.12831">
        <ele>851</ele>
        <time>2009-05-31T11:31:00Z</time>
      </trkpt>
      <trkpt lat="48.23431" lon="7.1283">
        <ele>852</ele>
        <time>2009-05-31T11:30:50Z</time>
      </trkpt>
      <trkpt lat="48.23417" lon="7.1283">
        <ele>853</ele>
        <time>2009-05-31T11:30:38Z</time>
      </trkpt>
      <trkpt lat="48.23402" lon="7.12832">
        <ele>855</ele>
        <time>2009-05-31T11:30:25Z</time>
      </trkpt>
      <trkpt lat="48.234" lon="7.12832">
        <ele>855</ele>
        <time>2009-05-31T11:30:24Z</time>
      </trkpt>
      <trkpt lat="48.23382" lon="7.12837">
        <ele>856</ele>
        <time>2009-05-31T11:30:08Z</time>
      </trkpt>
      <trkpt lat="48.23364" lon="7.12845">
        <ele>858</ele>
        <time>2009-05-31T11:29:54Z</time>
      </trkpt>
      <trkpt lat="48.23349" lon="7.12853">
        <ele>859</ele>
        <time>2009-05-31T11:29:41Z</time>
      </trkpt>
      <trkpt lat="48.2334" lon="7.12852">
        <ele>860</ele>
        <time>2009-05-31T11:29:34Z</time>
      </trkpt>
      <trkpt lat="48.23333" lon="7.12858">
        <ele>861</ele>
        <time>2009-05-31T11:29:20Z</time>
      </trkpt>
      <trkpt lat="48.23329" lon="7.12861">
        <ele>861</ele>
        <time>2009-05-31T11:29:16Z</time>
      </trkpt>
      <trkpt lat="48.23327" lon="7.12862">
        <ele>861</ele>
        <time>2009-05-31T11:29:14Z</time>
      </trkpt>
      <trkpt lat="48.23305" lon="7.12874">
        <ele>863</ele>
        <time>2009-05-31T11:28:58Z</time>
      </trkpt>
      <trkpt lat="48.23301" lon="7.12876">
        <ele>863</ele>
        <time>2009-05-31T11:28:54Z</time>
      </trkpt>
      <trkpt lat="48.23292" lon="7.12889">
        <ele>865</ele>
        <time>2009-05-31T11:28:40Z</time>
      </trkpt>
      <trkpt lat="48.23274" lon="7.12895">
        <ele>867</ele>
        <time>2009-05-31T11:28:26Z</time>
      </trkpt>
      <trkpt lat="48.23262" lon="7.12903">
        <ele>869</ele>
        <time>2009-05-31T11:28:12Z</time>
      </trkpt>
      <trkpt lat="48.23256" lon="7.12903">
        <ele>871</ele>
        <time>2009-05-31T11:27:58Z</time>
      </trkpt>
      <trkpt lat="48.2324" lon="7.12911">
        <ele>873</ele>
        <time>2009-05-31T11:27:42Z</time>
      </trkpt>
      <trkpt lat="48.23222" lon="7.1291">
        <ele>872</ele>
        <time>2009-05-31T11:27:29Z</time>
      </trkpt>
      <trkpt lat="48.23202" lon="7.1291">
        <ele>873</ele>
        <time>2009-05-31T11:27:13Z</time>
      </trkpt>
      <trkpt lat="48.23197" lon="7.12908">
        <ele>873</ele>
        <time>2009-05-31T11:27:03Z</time>
      </trkpt>
      <trkpt lat="48.23191" lon="7.12914">
        <ele>874</ele>
        <time>2009-05-31T11:26:52Z</time>
      </trkpt>
      <trkpt lat="48.23197" lon="7.12936">
        <ele>877</ele>
        <time>2009-05-31T11:26:38Z</time>
      </trkpt>
      <trkpt lat="48.23203" lon="7.12961">
        <ele>878</ele>
        <time>2009-05-31T11:26:25Z</time>
      </trkpt>
      <trkpt lat="48.23199" lon="7.12966">
        <ele>879</ele>
        <time>2009-05-31T11:25:49Z</time>
      </trkpt>
      <trkpt lat="48.23191" lon="7.12984">
        <ele>879</ele>
        <time>2009-05-31T11:25:32Z</time>
      </trkpt>
      <trkpt lat="48.2318" lon="7.12998">
        <ele>880</ele>
        <time>2009-05-31T11:25:20Z</time>
      </trkpt>
      <trkpt lat="48.23161" lon="7.13023">
        <ele>882</ele>
        <time>2009-05-31T11:25:02Z</time>
      </trkpt>
      <trkpt lat="48.23143" lon="7.13047">
        <ele>884</ele>
        <time>2009-05-31T11:24:45Z</time>
      </trkpt>
      <trkpt lat="48.23132" lon="7.13066">
        <ele>886</ele>
        <time>2009-05-31T11:24:33Z</time>
      </trkpt>
      <trkpt lat="48.2312" lon="7.13083">
        <ele>887</ele>
        <time>2009-05-31T11:24:21Z</time>
      </trkpt>
      <trkpt lat="48.23109" lon="7.13102">
        <ele>888</ele>
        <time>2009-05-31T11:24:08Z</time>
      </trkpt>
      <trkpt lat="48.23092" lon="7.1312">
        <ele>890</ele>
        <time>2009-05-31T11:23:54Z</time>
      </trkpt>
      <trkpt lat="48.23085" lon="7.13129">
        <ele>891</ele>
        <time>2009-05-31T11:23:45Z</time>
      </trkpt>
      <trkpt lat="48.2307" lon="7.13148">
        <ele>892</ele>
        <time>2009-05-31T11:23:30Z</time>
      </trkpt>
      <trkpt lat="48.23058" lon="7.13177">
        <ele>894</ele>
        <time>2009-05-31T11:23:12Z</time>
      </trkpt>
      <trkpt lat="48.23057" lon="7.13179">
        <ele>894</ele>
        <time>2009-05-31T11:23:11Z</time>
      </trkpt>
      <trkpt lat="48.23051" lon="7.13205">
        <ele>896</ele>
        <time>2009-05-31T11:22:57Z</time>
      </trkpt>
      <trkpt lat="48.2304" lon="7.13233">
        <ele>897</ele>
        <time>2009-05-31T11:22:41Z</time>
      </trkpt>
      <trkpt lat="48.23036" lon="7.13239">
        <ele>898</ele>
        <time>2009-05-31T11:22:37Z</time>
      </trkpt>
      <trkpt lat="48.23021" lon="7.13251">
        <ele>899</ele>
        <time>2009-05-31T11:22:23Z</time>
      </trkpt>
      <trkpt lat="48.23011" lon="7.13251">
        <ele>900</ele>
        <time>2009-05-31T11:22:10Z</time>
      </trkpt>
      <trkpt lat="48.23012" lon="7.13247">
        <ele>900</ele>
        <time>2009-05-31T11:21:29Z</time>
      </trkpt>
      <trkpt lat="48.22998" lon="7.13255">
        <ele>900</ele>
        <time>2009-05-31T11:21:15Z</time>
      </trkpt>
      <trkpt lat="48.22978" lon="7.13254">
        <ele>901</ele>
        <time>2009-05-31T11:21:02Z</time>
      </trkpt>
      <trkpt lat="48.2296" lon="7.13256">
        <ele>903</ele>
        <time>2009-05-31T11:20:46Z</time>
      </trkpt>
      <trkpt lat="48.22945" lon="7.1326">
        <ele>905</ele>
        <time>2009-05-31T11:20:32Z</time>
      </trkpt>
      <trkpt lat="48.22925" lon="7.13266">
        <ele>906</ele>
        <time>2009-05-31T11:20:18Z</time>
      </trkpt>
      <trkpt lat="48.22908" lon="7.13274">
        <ele>908</ele>
        <time>2009-05-31T11:20:03Z</time>
      </trkpt>
      <trkpt lat="48.22891" lon="7.13284">
        <ele>909</ele>
        <time>2009-05-31T11:19:48Z</time>
      </trkpt>
      <trkpt lat="48.22889" lon="7.13286">
        <ele>910</ele>
        <time>2009-05-31T11:19:46Z</time>
      </trkpt>
      <trkpt lat="48.2288" lon="7.13285">
        <ele>910</ele>
        <time>2009-05-31T11:19:28Z</time>
      </trkpt>
      <trkpt lat="48.22861" lon="7.13284">
        <ele>912</ele>
        <time>2009-05-31T11:19:12Z</time>
      </trkpt>
      <trkpt lat="48.22846" lon="7.13275">
        <ele>913</ele>
        <time>2009-05-31T11:19:01Z</time>
      </trkpt>
      <trkpt lat="48.22831" lon="7.13259">
        <ele>914</ele>
        <time>2009-05-31T11:18:48Z</time>
      </trkpt>
      <trkpt lat="48.22817" lon="7.13241">
        <ele>916</ele>
        <time>2009-05-31T11:18:33Z</time>
      </trkpt>
      <trkpt lat="48.22799" lon="7.13217">
        <ele>918</ele>
        <time>2009-05-31T11:18:15Z</time>
      </trkpt>
      <trkpt lat="48.22788" lon="7.13196">
        <ele>919</ele>
        <time>2009-05-31T11:18:02Z</time>
      </trkpt>
      <trkpt lat="48.22784" lon="7.13189">
        <ele>919</ele>
        <time>2009-05-31T11:17:58Z</time>
      </trkpt>
      <trkpt lat="48.22777" lon="7.13186">
        <ele>920</ele>
        <time>2009-05-31T11:17:51Z</time>
      </trkpt>
      <trkpt lat="48.22772" lon="7.1318">
        <ele>921</ele>
        <time>2009-05-31T11:17:47Z</time>
      </trkpt>
      <trkpt lat="48.22762" lon="7.13165">
        <ele>922</ele>
        <time>2009-05-31T11:17:35Z</time>
      </trkpt>
      <trkpt lat="48.22744" lon="7.13163">
        <ele>924</ele>
        <time>2009-05-31T11:17:22Z</time>
      </trkpt>
      <trkpt lat="48.22736" lon="7.13159">
        <ele>923</ele>
        <time>2009-05-31T11:17:16Z</time>
      </trkpt>
      <trkpt lat="48.22723" lon="7.13149">
        <ele>924</ele>
        <time>2009-05-31T11:17:05Z</time>
      </trkpt>
      <trkpt lat="48.22709" lon="7.13141">
        <ele>925</ele>
        <time>2009-05-31T11:16:54Z</time>
      </trkpt>
      <trkpt lat="48.22704" lon="7.1314">
        <ele>925</ele>
        <time>2009-05-31T11:16:51Z</time>
      </trkpt>
      <trkpt lat="48.22695" lon="7.13139">
        <ele>926</ele>
        <time>2009-05-31T11:16:43Z</time>
      </trkpt>
      <trkpt lat="48.22689" lon="7.1314">
        <ele>927</ele>
        <time>2009-05-31T11:16:38Z</time>
      </trkpt>
      <trkpt lat="48.22674" lon="7.13153">
        <ele>929</ele>
        <time>2009-05-31T11:16:24Z</time>
      </trkpt>
      <trkpt lat="48.22671" lon="7.13158">
        <ele>930</ele>
        <time>2009-05-31T11:16:21Z</time>
      </trkpt>
      <trkpt lat="48.22664" lon="7.13165">
        <ele>930</ele>
        <time>2009-05-31T11:16:14Z</time>
      </trkpt>
      <trkpt lat="48.22652" lon="7.13178">
        <ele>931</ele>
        <time>2009-05-31T11:16:04Z</time>
      </trkpt>
      <trkpt lat="48.2264" lon="7.13192">
        <ele>933</ele>
        <time>2009-05-31T11:15:54Z</time>
      </trkpt>
      <trkpt lat="48.22621" lon="7.13211">
        <ele>935</ele>
        <time>2009-05-31T11:15:40Z</time>
      </trkpt>
      <trkpt lat="48.22619" lon="7.13214">
        <ele>935</ele>
        <time>2009-05-31T11:15:38Z</time>
      </trkpt>
      <trkpt lat="48.2261" lon="7.13226">
        <ele>936</ele>
        <time>2009-05-31T11:15:28Z</time>
      </trkpt>
      <trkpt lat="48.22594" lon="7.13233">
        <ele>937</ele>
        <time>2009-05-31T11:15:17Z</time>
      </trkpt>
      <trkpt lat="48.22573" lon="7.13239">
        <ele>938</ele>
        <time>2009-05-31T11:15:03Z</time>
      </trkpt>
      <trkpt lat="48.22558" lon="7.13228">
        <ele>940</ele>
        <time>2009-05-31T11:14:51Z</time>
      </trkpt>
      <trkpt lat="48.22548" lon="7.13218">
        <ele>940</ele>
        <time>2009-05-31T11:14:44Z</time>
      </trkpt>
      <trkpt lat="48.22533" lon="7.13197">
        <ele>941</ele>
        <time>2009-05-31T11:14:30Z</time>
      </trkpt>
      <trkpt lat="48.22516" lon="7.13175">
        <ele>942</ele>
        <time>2009-05-31T11:14:16Z</time>
      </trkpt>
      <trkpt lat="48.22513" lon="7.13171">
        <ele>942</ele>
        <time>2009-05-31T11:14:14Z</time>
      </trkpt>
      <trkpt lat="48.22496" lon="7.13153">
        <ele>944</ele>
        <time>2009-05-31T11:14:00Z</time>
      </trkpt>
      <trkpt lat="48.22492" lon="7.1315">
        <ele>944</ele>
        <time>2009-05-31T11:13:56Z</time>
      </trkpt>
      <trkpt lat="48.22477" lon="7.13136">
        <ele>945</ele>
        <time>2009-05-31T11:13:43Z</time>
      </trkpt>
      <trkpt lat="48.22474" lon="7.13131">
        <ele>946</ele>
        <time>2009-05-31T11:13:40Z</time>
      </trkpt>
      <trkpt lat="48.22465" lon="7.13121">
        <ele>946</ele>
        <time>2009-05-31T11:13:32Z</time>
      </trkpt>
      <trkpt lat="48.22455" lon="7.13095">
        <ele>947</ele>
        <time>2009-05-31T11:13:19Z</time>
      </trkpt>
      <trkpt lat="48.22446" lon="7.1311">
        <ele>947</ele>
        <time>2009-05-31T11:13:03Z</time>
      </trkpt>
      <trkpt lat="48.22432" lon="7.13092">
        <ele>948</ele>
        <time>2009-05-31T11:12:49Z</time>
      </trkpt>
      <trkpt lat="48.22426" lon="7.13076">
        <ele>948</ele>
        <time>2009-05-31T11:12:40Z</time>
      </trkpt>
      <trkpt lat="48.22423" lon="7.13074">
        <ele>948</ele>
        <time>2009-05-31T11:12:37Z</time>
      </trkpt>
      <trkpt lat="48.22411" lon="7.13077">
        <ele>948</ele>
        <time>2009-05-31T11:12:30Z</time>
      </trkpt>
      <trkpt lat="48.22402" lon="7.13077">
        <ele>949</ele>
        <time>2009-05-31T11:12:22Z</time>
      </trkpt>
      <trkpt lat="48.22406" lon="7.13083">
        <ele>949</ele>
        <time>2009-05-31T11:11:46Z</time>
      </trkpt>
      <trkpt lat="48.22403" lon="7.13083">
        <ele>951</ele>
        <time>2009-05-31T11:11:43Z</time>
      </trkpt>
      <trkpt lat="48.22402" lon="7.13083">
        <ele>946</ele>
        <time>2009-05-31T11:11:42Z</time>
      </trkpt>
      <trkpt lat="48.22401" lon="7.13083">
        <ele>951</ele>
        <time>2009-05-31T11:11:41Z</time>
      </trkpt>
      <trkpt lat="48.224" lon="7.13084">
        <ele>948</ele>
        <time>2009-05-31T11:11:40Z</time>
      </trkpt>
      <trkpt lat="48.22399" lon="7.13085">
        <ele>946</ele>
        <time>2009-05-31T11:11:39Z</time>
      </trkpt>
      <trkpt lat="48.22389" lon="7.13077">
        <ele>950</ele>
        <time>2009-05-31T11:11:18Z</time>
      </trkpt>
      <trkpt lat="48.22389" lon="7.13076">
        <ele>950</ele>
        <time>2009-05-31T11:11:16Z</time>
      </trkpt>
      <trkpt lat="48.22382" lon="7.13066">
        <ele>953</ele>
        <time>2009-05-31T11:11:04Z</time>
      </trkpt>
      <trkpt lat="48.2238" lon="7.13064">
        <ele>953</ele>
        <time>2009-05-31T11:10:58Z</time>
      </trkpt>
      <trkpt lat="48.22376" lon="7.13046">
        <ele>956</ele>
        <time>2009-05-31T11:10:25Z</time>
      </trkpt>
      <trkpt lat="48.2236" lon="7.13056">
        <ele>954</ele>
        <time>2009-05-31T11:10:11Z</time>
      </trkpt>
      <trkpt lat="48.22346" lon="7.13068">
        <ele>953</ele>
        <time>2009-05-31T11:10:03Z</time>
      </trkpt>
      <trkpt lat="48.22332" lon="7.13074">
        <ele>951</ele>
        <time>2009-05-31T11:09:50Z</time>
      </trkpt>
      <trkpt lat="48.22318" lon="7.13064">
        <ele>949</ele>
        <time>2009-05-31T11:09:37Z</time>
      </trkpt>
      <trkpt lat="48.22303" lon="7.13058">
        <ele>948</ele>
        <time>2009-05-31T11:09:25Z</time>
      </trkpt>
      <trkpt lat="48.22298" lon="7.1305">
        <ele>948</ele>
        <time>2009-05-31T11:09:19Z</time>
      </trkpt>
      <trkpt lat="48.22289" lon="7.13026">
        <ele>948</ele>
        <time>2009-05-31T11:09:06Z</time>
      </trkpt>
      <trkpt lat="48.22281" lon="7.13001">
        <ele>948</ele>
        <time>2009-05-31T11:08:51Z</time>
      </trkpt>
      <trkpt lat="48.22275" lon="7.12971">
        <ele>947</ele>
        <time>2009-05-31T11:08:36Z</time>
      </trkpt>
      <trkpt lat="48.2227" lon="7.12956">
        <ele>947</ele>
        <time>2009-05-31T11:08:06Z</time>
      </trkpt>
      <trkpt lat="48.22267" lon="7.12935">
        <ele>945</ele>
        <time>2009-05-31T11:07:50Z</time>
      </trkpt>
      <trkpt lat="48.2226" lon="7.12902">
        <ele>945</ele>
        <time>2009-05-31T11:07:33Z</time>
      </trkpt>
      <trkpt lat="48.2225" lon="7.12873">
        <ele>944</ele>
        <time>2009-05-31T11:07:16Z</time>
      </trkpt>
      <trkpt lat="48.22238" lon="7.12845">
        <ele>941</ele>
        <time>2009-05-31T11:06:59Z</time>
      </trkpt>
      <trkpt lat="48.2222" lon="7.12832">
        <ele>939</ele>
        <time>2009-05-31T11:06:43Z</time>
      </trkpt>
      <trkpt lat="48.22201" lon="7.12822">
        <ele>937</ele>
        <time>2009-05-31T11:06:26Z</time>
      </trkpt>
      <trkpt lat="48.222" lon="7.1282">
        <ele>937</ele>
        <time>2009-05-31T11:06:24Z</time>
      </trkpt>
      <trkpt lat="48.22186" lon="7.12813">
        <ele>936</ele>
        <time>2009-05-31T11:06:11Z</time>
      </trkpt>
      <trkpt lat="48.22175" lon="7.12805">
        <ele>935</ele>
        <time>2009-05-31T11:05:55Z</time>
      </trkpt>
      <trkpt lat="48.22172" lon="7.12804">
        <ele>935</ele>
        <time>2009-05-31T11:05:35Z</time>
      </trkpt>
      <trkpt lat="48.22173" lon="7.12804">
        <ele>936</ele>
        <time>2009-05-31T11:04:55Z</time>
      </trkpt>
      <trkpt lat="48.22172" lon="7.12803">
        <ele>935</ele>
        <time>2009-05-31T11:04:41Z</time>
      </trkpt>
      <trkpt lat="48.22156" lon="7.12787">
        <ele>933</ele>
        <time>2009-05-31T11:04:24Z</time>
      </trkpt>
      <trkpt lat="48.22138" lon="7.12769">
        <ele>931</ele>
        <time>2009-05-31T11:04:06Z</time>
      </trkpt>
      <trkpt lat="48.22122" lon="7.12746">
        <ele>930</ele>
        <time>2009-05-31T11:03:47Z</time>
      </trkpt>
      <trkpt lat="48.22108" lon="7.12726">
        <ele>928</ele>
        <time>2009-05-31T11:03:30Z</time>
      </trkpt>
      <trkpt lat="48.22092" lon="7.12703">
        <ele>926</ele>
        <time>2009-05-31T11:03:12Z</time>
      </trkpt>
      <trkpt lat="48.22078" lon="7.12672">
        <ele>923</ele>
        <time>2009-05-31T11:02:53Z</time>
      </trkpt>
      <trkpt lat="48.22064" lon="7.12651">
        <ele>922</ele>
        <time>2009-05-31T11:02:36Z</time>
      </trkpt>
      <trkpt lat="48.22052" lon="7.12628">
        <ele>919</ele>
        <time>2009-05-31T11:02:20Z</time>
      </trkpt>
      <trkpt lat="48.2204" lon="7.12602">
        <ele>918</ele>
        <time>2009-05-31T11:02:04Z</time>
      </trkpt>
      <trkpt lat="48.22025" lon="7.12582">
        <ele>917</ele>
        <time>2009-05-31T11:01:48Z</time>
      </trkpt>
      <trkpt lat="48.22014" lon="7.12563">
        <ele>916</ele>
        <time>2009-05-31T11:01:35Z</time>
      </trkpt>
      <trkpt lat="48.22005" lon="7.12549">
        <ele>914</ele>
        <time>2009-05-31T11:01:24Z</time>
      </trkpt>
      <trkpt lat="48.21994" lon="7.12531">
        <ele>913</ele>
        <time>2009-05-31T11:01:12Z</time>
      </trkpt>
      <trkpt lat="48.21985" lon="7.12518">
        <ele>912</ele>
        <time>2009-05-31T11:01:01Z</time>
      </trkpt>
      <trkpt lat="48.21973" lon="7.12501">
        <ele>911</ele>
        <time>2009-05-31T11:00:46Z</time>
      </trkpt>
      <trkpt lat="48.21968" lon="7.12492">
        <ele>911</ele>
        <time>2009-05-31T11:00:25Z</time>
      </trkpt>
      <trkpt lat="48.21951" lon="7.12479">
        <ele>909</ele>
        <time>2009-05-31T11:00:08Z</time>
      </trkpt>
      <trkpt lat="48.21937" lon="7.12477">
        <ele>909</ele>
        <time>2009-05-31T10:59:53Z</time>
      </trkpt>
      <trkpt lat="48.21933" lon="7.12477">
        <ele>909</ele>
        <time>2009-05-31T10:59:48Z</time>
      </trkpt>
      <trkpt lat="48.21928" lon="7.12479">
        <ele>908</ele>
        <time>2009-05-31T10:59:43Z</time>
      </trkpt>
      <trkpt lat="48.21925" lon="7.12484">
        <ele>908</ele>
        <time>2009-05-31T10:59:13Z</time>
      </trkpt>
      <trkpt lat="48.21929" lon="7.12484">
        <ele>908</ele>
        <time>2009-05-31T10:57:48Z</time>
      </trkpt>
      <trkpt lat="48.21928" lon="7.12484">
        <ele>909</ele>
        <time>2009-05-31T10:56:45Z</time>
      </trkpt>
      <trkpt lat="48.21927" lon="7.12483">
        <ele>911</ele>
        <time>2009-05-31T10:56:41Z</time>
      </trkpt>
      <trkpt lat="48.21926" lon="7.12483">
        <ele>905</ele>
        <time>2009-05-31T10:56:40Z</time>
      </trkpt>
      <trkpt lat="48.21925" lon="7.12482">
        <ele>910</ele>
        <time>2009-05-31T10:56:39Z</time>
      </trkpt>
      <trkpt lat="48.21924" lon="7.12481">
        <ele>913</ele>
        <time>2009-05-31T10:56:38Z</time>
      </trkpt>
      <trkpt lat="48.21923" lon="7.1248">
        <ele>909</ele>
        <time>2009-05-31T10:56:37Z</time>
      </trkpt>
      <trkpt lat="48.21923" lon="7.1248">
        <ele>904</ele>
        <time>2009-05-31T10:56:36Z</time>
      </trkpt>
      <trkpt lat="48.2192" lon="7.12478">
        <ele>908</ele>
        <time>2009-05-31T10:56:30Z</time>
      </trkpt>
      <trkpt lat="48.2192" lon="7.12479">
        <ele>905</ele>
        <time>2009-05-31T10:56:29Z</time>
      </trkpt>
      <trkpt lat="48.21919" lon="7.12478">
        <ele>913</ele>
        <time>2009-05-31T10:56:28Z</time>
      </trkpt>
      <trkpt lat="48.21921" lon="7.1248">
        <ele>908</ele>
        <time>2009-05-31T10:56:27Z</time>
      </trkpt>
      <trkpt lat="48.21922" lon="7.12481">
        <ele>905</ele>
        <time>2009-05-31T10:56:26Z</time>
      </trkpt>
      <trkpt lat="48.21922" lon="7.12481">
        <ele>909</ele>
        <time>2009-05-31T10:56:25Z</time>
      </trkpt>
      <trkpt lat="48.21921" lon="7.1248">
        <ele>912</ele>
        <time>2009-05-31T10:56:24Z</time>
      </trkpt>
      <trkpt lat="48.21927" lon="7.12485">
        <ele>908</ele>
        <time>2009-05-31T10:54:59Z</time>
      </trkpt>
      <trkpt lat="48.2193" lon="7.12481">
        <ele>908</ele>
        <time>2009-05-31T10:54:34Z</time>
      </trkpt>
      <trkpt lat="48.2193" lon="7.12482">
        <ele>909</ele>
        <time>2009-05-31T10:53:27Z</time>
      </trkpt>
      <trkpt lat="48.21929" lon="7.12482">
        <ele>909</ele>
        <time>2009-05-31T10:52:58Z</time>
      </trkpt>
      <trkpt lat="48.21929" lon="7.12487">
        <ele>909</ele>
        <time>2009-05-31T10:52:22Z</time>
      </trkpt>
      <trkpt lat="48.21917" lon="7.12488">
        <ele>909</ele>
        <time>2009-05-31T10:51:42Z</time>
      </trkpt>
      <trkpt lat="48.21922" lon="7.12464">
        <ele>909</ele>
        <time>2009-05-31T10:51:26Z</time>
      </trkpt>
      <trkpt lat="48.2192" lon="7.12453">
        <ele>909</ele>
        <time>2009-05-31T10:51:21Z</time>
      </trkpt>
      <trkpt lat="48.21913" lon="7.1245">
        <ele>911</ele>
        <time>2009-05-31T10:51:14Z</time>
      </trkpt>
      <trkpt lat="48.21902" lon="7.12464">
        <ele>911</ele>
        <time>2009-05-31T10:51:03Z</time>
      </trkpt>
      <trkpt lat="48.21888" lon="7.12475">
        <ele>911</ele>
        <time>2009-05-31T10:50:53Z</time>
      </trkpt>
      <trkpt lat="48.2188" lon="7.12481">
        <ele>912</ele>
        <time>2009-05-31T10:50:47Z</time>
      </trkpt>
      <trkpt lat="48.21862" lon="7.12496">
        <ele>912</ele>
        <time>2009-05-31T10:50:34Z</time>
      </trkpt>
      <trkpt lat="48.2185" lon="7.12502">
        <ele>913</ele>
        <time>2009-05-31T10:50:23Z</time>
      </trkpt>
      <trkpt lat="48.21839" lon="7.12512">
        <ele>914</ele>
        <time>2009-05-31T10:50:12Z</time>
      </trkpt>
      <trkpt lat="48.21823" lon="7.12521">
        <ele>915</ele>
        <time>2009-05-31T10:50:01Z</time>
      </trkpt>
      <trkpt lat="48.21802" lon="7.12538">
        <ele>916</ele>
        <time>2009-05-31T10:49:47Z</time>
      </trkpt>
      <trkpt lat="48.21787" lon="7.12554">
        <ele>917</ele>
        <time>2009-05-31T10:49:35Z</time>
      </trkpt>
      <trkpt lat="48.21774" lon="7.12558">
        <ele>918</ele>
        <time>2009-05-31T10:49:25Z</time>
      </trkpt>
      <trkpt lat="48.21763" lon="7.12564">
        <ele>918</ele>
        <time>2009-05-31T10:49:17Z</time>
      </trkpt>
      <trkpt lat="48.21749" lon="7.12568">
        <ele>919</ele>
        <time>2009-05-31T10:49:07Z</time>
      </trkpt>
      <trkpt lat="48.21735" lon="7.1257">
        <ele>920</ele>
        <time>2009-05-31T10:48:56Z</time>
      </trkpt>
      <trkpt lat="48.21714" lon="7.12565">
        <ele>921</ele>
        <time>2009-05-31T10:48:43Z</time>
      </trkpt>
      <trkpt lat="48.217" lon="7.12562">
        <ele>922</ele>
        <time>2009-05-31T10:48:33Z</time>
      </trkpt>
      <trkpt lat="48.21696" lon="7.12533">
        <ele>923</ele>
        <time>2009-05-31T10:48:21Z</time>
      </trkpt>
      <trkpt lat="48.21684" lon="7.12515">
        <ele>923</ele>
        <time>2009-05-31T10:48:08Z</time>
      </trkpt>
      <trkpt lat="48.21666" lon="7.12506">
        <ele>924</ele>
        <time>2009-05-31T10:47:56Z</time>
      </trkpt>
      <trkpt lat="48.21656" lon="7.12495">
        <ele>925</ele>
        <time>2009-05-31T10:47:46Z</time>
      </trkpt>
      <trkpt lat="48.21648" lon="7.12479">
        <ele>925</ele>
        <time>2009-05-31T10:47:36Z</time>
      </trkpt>
      <trkpt lat="48.21631" lon="7.1247">
        <ele>927</ele>
        <time>2009-05-31T10:47:25Z</time>
      </trkpt>
      <trkpt lat="48.21621" lon="7.12453">
        <ele>927</ele>
        <time>2009-05-31T10:47:13Z</time>
      </trkpt>
      <trkpt lat="48.21616" lon="7.12447">
        <ele>927</ele>
        <time>2009-05-31T10:47:09Z</time>
      </trkpt>
      <trkpt lat="48.21592" lon="7.12429">
        <ele>928</ele>
        <time>2009-05-31T10:46:51Z</time>
      </trkpt>
      <trkpt lat="48.21582" lon="7.12424">
        <ele>929</ele>
        <time>2009-05-31T10:46:43Z</time>
      </trkpt>
      <trkpt lat="48.21571" lon="7.12389">
        <ele>930</ele>
        <time>2009-05-31T10:46:27Z</time>
      </trkpt>
      <trkpt lat="48.21563" lon="7.12372">
        <ele>930</ele>
        <time>2009-05-31T10:46:17Z</time>
      </trkpt>
      <trkpt lat="48.21551" lon="7.12351">
        <ele>931</ele>
        <time>2009-05-31T10:46:04Z</time>
      </trkpt>
      <trkpt lat="48.21547" lon="7.12345">
        <ele>932</ele>
        <time>2009-05-31T10:46:00Z</time>
      </trkpt>
      <trkpt lat="48.21545" lon="7.12332">
        <ele>932</ele>
        <time>2009-05-31T10:45:54Z</time>
      </trkpt>
      <trkpt lat="48.21536" lon="7.12308">
        <ele>932</ele>
        <time>2009-05-31T10:45:41Z</time>
      </trkpt>
      <trkpt lat="48.21531" lon="7.12278">
        <ele>933</ele>
        <time>2009-05-31T10:45:25Z</time>
      </trkpt>
      <trkpt lat="48.21533" lon="7.12271">
        <ele>933</ele>
        <time>2009-05-31T10:45:21Z</time>
      </trkpt>
      <trkpt lat="48.21533" lon="7.12252">
        <ele>934</ele>
        <time>2009-05-31T10:45:12Z</time>
      </trkpt>
      <trkpt lat="48.21534" lon="7.12221">
        <ele>935</ele>
        <time>2009-05-31T10:44:58Z</time>
      </trkpt>
      <trkpt lat="48.21535" lon="7.1221">
        <ele>935</ele>
        <time>2009-05-31T10:44:52Z</time>
      </trkpt>
      <trkpt lat="48.21538" lon="7.12188">
        <ele>935</ele>
        <time>2009-05-31T10:44:42Z</time>
      </trkpt>
      <trkpt lat="48.21537" lon="7.12158">
        <ele>935</ele>
        <time>2009-05-31T10:44:27Z</time>
      </trkpt>
      <trkpt lat="48.21537" lon="7.1215">
        <ele>935</ele>
        <time>2009-05-31T10:44:22Z</time>
      </trkpt>
      <trkpt lat="48.21533" lon="7.12135">
        <ele>936</ele>
        <time>2009-05-31T10:44:15Z</time>
      </trkpt>
      <trkpt lat="48.21528" lon="7.12115">
        <ele>936</ele>
        <time>2009-05-31T10:44:03Z</time>
      </trkpt>
      <trkpt lat="48.21521" lon="7.12095">
        <ele>937</ele>
        <time>2009-05-31T10:43:53Z</time>
      </trkpt>
      <trkpt lat="48.21518" lon="7.12088">
        <ele>937</ele>
        <time>2009-05-31T10:43:48Z</time>
      </trkpt>
      <trkpt lat="48.21514" lon="7.12079">
        <ele>937</ele>
        <time>2009-05-31T10:43:44Z</time>
      </trkpt>
      <trkpt lat="48.21509" lon="7.12067">
        <ele>940</ele>
        <time>2009-05-31T10:43:38Z</time>
      </trkpt>
      <trkpt lat="48.21502" lon="7.12048">
        <ele>939</ele>
        <time>2009-05-31T10:43:27Z</time>
      </trkpt>
      <trkpt lat="48.21493" lon="7.12043">
        <ele>940</ele>
        <time>2009-05-31T10:43:21Z</time>
      </trkpt>
      <trkpt lat="48.21478" lon="7.12025">
        <ele>942</ele>
        <time>2009-05-31T10:43:07Z</time>
      </trkpt>
      <trkpt lat="48.21466" lon="7.12012">
        <ele>943</ele>
        <time>2009-05-31T10:42:55Z</time>
      </trkpt>
      <trkpt lat="48.21451" lon="7.11991">
        <ele>945</ele>
        <time>2009-05-31T10:42:42Z</time>
      </trkpt>
      <trkpt lat="48.2144" lon="7.1198">
        <ele>946</ele>
        <time>2009-05-31T10:42:33Z</time>
      </trkpt>
      <trkpt lat="48.2143" lon="7.11958">
        <ele>947</ele>
        <time>2009-05-31T10:42:20Z</time>
      </trkpt>
      <trkpt lat="48.21428" lon="7.11954">
        <ele>947</ele>
        <time>2009-05-31T10:42:18Z</time>
      </trkpt>
      <trkpt lat="48.21423" lon="7.11942">
        <ele>947</ele>
        <time>2009-05-31T10:42:10Z</time>
      </trkpt>
      <trkpt lat="48.21411" lon="7.1192">
        <ele>949</ele>
        <time>2009-05-31T10:41:57Z</time>
      </trkpt>
      <trkpt lat="48.21406" lon="7.11912">
        <ele>950</ele>
        <time>2009-05-31T10:41:51Z</time>
      </trkpt>
      <trkpt lat="48.21392" lon="7.11898">
        <ele>951</ele>
        <time>2009-05-31T10:41:39Z</time>
      </trkpt>
      <trkpt lat="48.21374" lon="7.11879">
        <ele>953</ele>
        <time>2009-05-31T10:41:23Z</time>
      </trkpt>
      <trkpt lat="48.21357" lon="7.11864">
        <ele>955</ele>
        <time>2009-05-31T10:41:08Z</time>
      </trkpt>
      <trkpt lat="48.21342" lon="7.11851">
        <ele>955</ele>
        <time>2009-05-31T10:40:55Z</time>
      </trkpt>
      <trkpt lat="48.21325" lon="7.11832">
        <ele>957</ele>
        <time>2009-05-31T10:40:40Z</time>
      </trkpt>
      <trkpt lat="48.21315" lon="7.11814">
        <ele>959</ele>
        <time>2009-05-31T10:40:27Z</time>
      </trkpt>
      <trkpt lat="48.21301" lon="7.11794">
        <ele>960</ele>
        <time>2009-05-31T10:40:12Z</time>
      </trkpt>
      <trkpt lat="48.21287" lon="7.11779">
        <ele>963</ele>
        <time>2009-05-31T10:39:58Z</time>
      </trkpt>
      <trkpt lat="48.21274" lon="7.11766">
        <ele>965</ele>
        <time>2009-05-31T10:39:46Z</time>
      </trkpt>
      <trkpt lat="48.21258" lon="7.1175">
        <ele>965</ele>
        <time>2009-05-31T10:39:33Z</time>
      </trkpt>
      <trkpt lat="48.21246" lon="7.1174">
        <ele>965</ele>
        <time>2009-05-31T10:39:22Z</time>
      </trkpt>
      <trkpt lat="48.21238" lon="7.11733">
        <ele>966</ele>
        <time>2009-05-31T10:39:12Z</time>
      </trkpt>
      <trkpt lat="48.21223" lon="7.1172">
        <ele>967</ele>
        <time>2009-05-31T10:39:00Z</time>
      </trkpt>
      <trkpt lat="48.21209" lon="7.11711">
        <ele>967</ele>
        <time>2009-05-31T10:38:47Z</time>
      </trkpt>
      <trkpt lat="48.21207" lon="7.1171">
        <ele>968</ele>
        <time>2009-05-31T10:38:45Z</time>
      </trkpt>
      <trkpt lat="48.21193" lon="7.11704">
        <ele>970</ele>
        <time>2009-05-31T10:38:34Z</time>
      </trkpt>
      <trkpt lat="48.21172" lon="7.11695">
        <ele>971</ele>
        <time>2009-05-31T10:38:19Z</time>
      </trkpt>
      <trkpt lat="48.21153" lon="7.11692">
        <ele>971</ele>
        <time>2009-05-31T10:38:06Z</time>
      </trkpt>
      <trkpt lat="48.21137" lon="7.11687">
        <ele>970</ele>
        <time>2009-05-31T10:37:53Z</time>
      </trkpt>
      <trkpt lat="48.21124" lon="7.11679">
        <ele>970</ele>
        <time>2009-05-31T10:37:39Z</time>
      </trkpt>
      <trkpt lat="48.21105" lon="7.11671">
        <ele>968</ele>
        <time>2009-05-31T10:37:24Z</time>
      </trkpt>
      <trkpt lat="48.21088" lon="7.11659">
        <ele>968</ele>
        <time>2009-05-31T10:37:08Z</time>
      </trkpt>
      <trkpt lat="48.21076" lon="7.11656">
        <ele>967</ele>
        <time>2009-05-31T10:36:58Z</time>
      </trkpt>
      <trkpt lat="48.21065" lon="7.11647">
        <ele>965</ele>
        <time>2009-05-31T10:36:48Z</time>
      </trkpt>
      <trkpt lat="48.21054" lon="7.11641">
        <ele>965</ele>
        <time>2009-05-31T10:36:36Z</time>
      </trkpt>
      <trkpt lat="48.21048" lon="7.11637">
        <ele>964</ele>
        <time>2009-05-31T10:36:30Z</time>
      </trkpt>
      <trkpt lat="48.21032" lon="7.11628">
        <ele>962</ele>
        <time>2009-05-31T10:36:16Z</time>
      </trkpt>
      <trkpt lat="48.21015" lon="7.1163">
        <ele>960</ele>
        <time>2009-05-31T10:36:03Z</time>
      </trkpt>
      <trkpt lat="48.21013" lon="7.11628">
        <ele>960</ele>
        <time>2009-05-31T10:36:00Z</time>
      </trkpt>
      <trkpt lat="48.21004" lon="7.11626">
        <ele>960</ele>
        <time>2009-05-31T10:35:53Z</time>
      </trkpt>
      <trkpt lat="48.20992" lon="7.11621">
        <ele>960</ele>
        <time>2009-05-31T10:35:38Z</time>
      </trkpt>
      <trkpt lat="48.20989" lon="7.11619">
        <ele>959</ele>
        <time>2009-05-31T10:35:32Z</time>
      </trkpt>
      <trkpt lat="48.20979" lon="7.1162">
        <ele>959</ele>
        <time>2009-05-31T10:35:24Z</time>
      </trkpt>
      <trkpt lat="48.20973" lon="7.11607">
        <ele>958</ele>
        <time>2009-05-31T10:35:14Z</time>
      </trkpt>
      <trkpt lat="48.20966" lon="7.11598">
        <ele>958</ele>
        <time>2009-05-31T10:35:02Z</time>
      </trkpt>
      <trkpt lat="48.20973" lon="7.11589">
        <ele>957</ele>
        <time>2009-05-31T10:34:06Z</time>
      </trkpt>
      <trkpt lat="48.20966" lon="7.11592">
        <ele>957</ele>
        <time>2009-05-31T10:33:46Z</time>
      </trkpt>
      <trkpt lat="48.20946" lon="7.11598">
        <ele>956</ele>
        <time>2009-05-31T10:33:29Z</time>
      </trkpt>
      <trkpt lat="48.20936" lon="7.11588">
        <ele>955</ele>
        <time>2009-05-31T10:33:18Z</time>
      </trkpt>
      <trkpt lat="48.20929" lon="7.11582">
        <ele>954</ele>
        <time>2009-05-31T10:33:07Z</time>
      </trkpt>
      <trkpt lat="48.20918" lon="7.11589">
        <ele>955</ele>
        <time>2009-05-31T10:32:51Z</time>
      </trkpt>
      <trkpt lat="48.20901" lon="7.11596">
        <ele>958</ele>
        <time>2009-05-31T10:32:30Z</time>
      </trkpt>
      <trkpt lat="48.2089" lon="7.11601">
        <ele>959</ele>
        <time>2009-05-31T10:32:17Z</time>
      </trkpt>
      <trkpt lat="48.20883" lon="7.11594">
        <ele>959</ele>
        <time>2009-05-31T10:31:49Z</time>
      </trkpt>
      <trkpt lat="48.20867" lon="7.11586">
        <ele>960</ele>
        <time>2009-05-31T10:31:22Z</time>
      </trkpt>
      <trkpt lat="48.20856" lon="7.11583">
        <ele>960</ele>
        <time>2009-05-31T10:31:12Z</time>
      </trkpt>
      <trkpt lat="48.20833" lon="7.11576">
        <ele>961</ele>
        <time>2009-05-31T10:30:55Z</time>
      </trkpt>
      <trkpt lat="48.20821" lon="7.11573">
        <ele>962</ele>
        <time>2009-05-31T10:30:38Z</time>
      </trkpt>
      <trkpt lat="48.20805" lon="7.11562">
        <ele>962</ele>
        <time>2009-05-31T10:30:21Z</time>
      </trkpt>
      <trkpt lat="48.20792" lon="7.11557">
        <ele>962</ele>
        <time>2009-05-31T10:30:10Z</time>
      </trkpt>
      <trkpt lat="48.20777" lon="7.11556">
        <ele>963</ele>
        <time>2009-05-31T10:29:57Z</time>
      </trkpt>
      <trkpt lat="48.2076" lon="7.11546">
        <ele>963</ele>
        <time>2009-05-31T10:29:41Z</time>
      </trkpt>
      <trkpt lat="48.20748" lon="7.11535">
        <ele>964</ele>
        <time>2009-05-31T10:29:24Z</time>
      </trkpt>
      <trkpt lat="48.2074" lon="7.11524">
        <ele>965</ele>
        <time>2009-05-31T10:29:10Z</time>
      </trkpt>
      <trkpt lat="48.20734" lon="7.11517">
        <ele>965</ele>
        <time>2009-05-31T10:28:59Z</time>
      </trkpt>
      <trkpt lat="48.20727" lon="7.11511">
        <ele>966</ele>
        <time>2009-05-31T10:28:46Z</time>
      </trkpt>
      <trkpt lat="48.20727" lon="7.11509">
        <ele>967</ele>
        <time>2009-05-31T10:28:22Z</time>
      </trkpt>
      <trkpt lat="48.20719" lon="7.11506">
        <ele>967</ele>
        <time>2009-05-31T10:28:02Z</time>
      </trkpt>
      <trkpt lat="48.2071" lon="7.11498">
        <ele>969</ele>
        <time>2009-05-31T10:27:49Z</time>
      </trkpt>
      <trkpt lat="48.20702" lon="7.11484">
        <ele>969</ele>
        <time>2009-05-31T10:27:35Z</time>
      </trkpt>
      <trkpt lat="48.20692" lon="7.11471">
        <ele>971</ele>
        <time>2009-05-31T10:27:23Z</time>
      </trkpt>
      <trkpt lat="48.20684" lon="7.11457">
        <ele>973</ele>
        <time>2009-05-31T10:27:10Z</time>
      </trkpt>
      <trkpt lat="48.20675" lon="7.11446">
        <ele>974</ele>
        <time>2009-05-31T10:26:58Z</time>
      </trkpt>
      <trkpt lat="48.20666" lon="7.11432">
        <ele>975</ele>
        <time>2009-05-31T10:26:45Z</time>
      </trkpt>
      <trkpt lat="48.20663" lon="7.1143">
        <ele>975</ele>
        <time>2009-05-31T10:26:43Z</time>
      </trkpt>
      <trkpt lat="48.20652" lon="7.11413">
        <ele>977</ele>
        <time>2009-05-31T10:26:28Z</time>
      </trkpt>
      <trkpt lat="48.20646" lon="7.11399">
        <ele>979</ele>
        <time>2009-05-31T10:26:17Z</time>
      </trkpt>
      <trkpt lat="48.20646" lon="7.11396">
        <ele>979</ele>
        <time>2009-05-31T10:26:15Z</time>
      </trkpt>
      <trkpt lat="48.20644" lon="7.11391">
        <ele>979</ele>
        <time>2009-05-31T10:25:51Z</time>
      </trkpt>
      <trkpt lat="48.20636" lon="7.1138">
        <ele>980</ele>
        <time>2009-05-31T10:25:39Z</time>
      </trkpt>
      <trkpt lat="48.20633" lon="7.11376">
        <ele>981</ele>
        <time>2009-05-31T10:25:37Z</time>
      </trkpt>
      <trkpt lat="48.20628" lon="7.11368">
        <ele>982</ele>
        <time>2009-05-31T10:25:31Z</time>
      </trkpt>
      <trkpt lat="48.20626" lon="7.11362">
        <ele>982</ele>
        <time>2009-05-31T10:25:27Z</time>
      </trkpt>
      <trkpt lat="48.20622" lon="7.11343">
        <ele>983</ele>
        <time>2009-05-31T10:25:16Z</time>
      </trkpt>
      <trkpt lat="48.20615" lon="7.11327">
        <ele>983</ele>
        <time>2009-05-31T10:25:05Z</time>
      </trkpt>
      <trkpt lat="48.20613" lon="7.11317">
        <ele>983</ele>
        <time>2009-05-31T10:25:00Z</time>
      </trkpt>
      <trkpt lat="48.20611" lon="7.11305">
        <ele>983</ele>
        <time>2009-05-31T10:24:51Z</time>
      </trkpt>
      <trkpt lat="48.20602" lon="7.11297">
        <ele>985</ele>
        <time>2009-05-31T10:24:41Z</time>
      </trkpt>
      <trkpt lat="48.20591" lon="7.11281">
        <ele>985</ele>
        <time>2009-05-31T10:24:26Z</time>
      </trkpt>
      <trkpt lat="48.20585" lon="7.11267">
        <ele>985</ele>
        <time>2009-05-31T10:24:15Z</time>
      </trkpt>
      <trkpt lat="48.20577" lon="7.11252">
        <ele>985</ele>
        <time>2009-05-31T10:24:01Z</time>
      </trkpt>
      <trkpt lat="48.20564" lon="7.11243">
        <ele>987</ele>
        <time>2009-05-31T10:23:49Z</time>
      </trkpt>
      <trkpt lat="48.20555" lon="7.1123">
        <ele>987</ele>
        <time>2009-05-31T10:23:38Z</time>
      </trkpt>
      <trkpt lat="48.20547" lon="7.11222">
        <ele>988</ele>
        <time>2009-05-31T10:23:24Z</time>
      </trkpt>
      <trkpt lat="48.20528" lon="7.11208">
        <ele>989</ele>
        <time>2009-05-31T10:23:09Z</time>
      </trkpt>
      <trkpt lat="48.20522" lon="7.11199">
        <ele>988</ele>
        <time>2009-05-31T10:22:58Z</time>
      </trkpt>
      <trkpt lat="48.20511" lon="7.11199">
        <ele>988</ele>
        <time>2009-05-31T10:22:45Z</time>
      </trkpt>
      <trkpt lat="48.20508" lon="7.11195">
        <ele>987</ele>
        <time>2009-05-31T10:22:27Z</time>
      </trkpt>
      <trkpt lat="48.20508" lon="7.11197">
        <ele>989</ele>
        <time>2009-05-31T10:22:15Z</time>
      </trkpt>
      <trkpt lat="48.20507" lon="7.11207">
        <ele>993</ele>
        <time>2009-05-31T10:22:07Z</time>
      </trkpt>
      <trkpt lat="48.20506" lon="7.11215">
        <ele>996</ele>
        <time>2009-05-31T10:22:00Z</time>
      </trkpt>
      <trkpt lat="48.205" lon="7.11225">
        <ele>998</ele>
        <time>2009-05-31T10:21:46Z</time>
      </trkpt>
      <trkpt lat="48.20489" lon="7.11215">
        <ele>1000</ele>
        <time>2009-05-31T10:21:35Z</time>
      </trkpt>
      <trkpt lat="48.20477" lon="7.11206">
        <ele>999</ele>
        <time>2009-05-31T10:21:24Z</time>
      </trkpt>
      <trkpt lat="48.20464" lon="7.11193">
        <ele>999</ele>
        <time>2009-05-31T10:21:09Z</time>
      </trkpt>
      <trkpt lat="48.20449" lon="7.11182">
        <ele>1000</ele>
        <time>2009-05-31T10:20:56Z</time>
      </trkpt>
      <trkpt lat="48.20439" lon="7.11169">
        <ele>999</ele>
        <time>2009-05-31T10:20:44Z</time>
      </trkpt>
      <trkpt lat="48.20426" lon="7.11156">
        <ele>1000</ele>
        <time>2009-05-31T10:20:29Z</time>
      </trkpt>
      <trkpt lat="48.20419" lon="7.11143">
        <ele>1000</ele>
        <time>2009-05-31T10:20:15Z</time>
      </trkpt>
      <trkpt lat="48.20415" lon="7.11141">
        <ele>1000</ele>
        <time>2009-05-31T10:20:11Z</time>
      </trkpt>
      <trkpt lat="48.20407" lon="7.11127">
        <ele>1000</ele>
        <time>2009-05-31T10:20:00Z</time>
      </trkpt>
      <trkpt lat="48.20403" lon="7.1112">
        <ele>999</ele>
        <time>2009-05-31T10:19:54Z</time>
      </trkpt>
      <trkpt lat="48.20396" lon="7.11102">
        <ele>999</ele>
        <time>2009-05-31T10:19:40Z</time>
      </trkpt>
      <trkpt lat="48.20393" lon="7.11095">
        <ele>999</ele>
        <time>2009-05-31T10:19:35Z</time>
      </trkpt>
      <trkpt lat="48.20392" lon="7.11094">
        <ele>999</ele>
        <time>2009-05-31T10:19:30Z</time>
      </trkpt>
      <trkpt lat="48.20389" lon="7.1109">
        <ele>999</ele>
        <time>2009-05-31T10:19:15Z</time>
      </trkpt>
      <trkpt lat="48.2039" lon="7.11086">
        <ele>999</ele>
        <time>2009-05-31T10:18:41Z</time>
      </trkpt>
      <trkpt lat="48.20391" lon="7.11091">
        <ele>999</ele>
        <time>2009-05-31T10:18:12Z</time>
      </trkpt>
      <trkpt lat="48.20391" lon="7.11095">
        <ele>999</ele>
        <time>2009-05-31T10:17:44Z</time>
      </trkpt>
      <trkpt lat="48.20392" lon="7.11093">
        <ele>999</ele>
        <time>2009-05-31T10:17:07Z</time>
      </trkpt>
      <trkpt lat="48.20388" lon="7.1109">
        <ele>1000</ele>
        <time>2009-05-31T10:16:45Z</time>
      </trkpt>
      <trkpt lat="48.20384" lon="7.11077">
        <ele>1000</ele>
        <time>2009-05-31T10:16:27Z</time>
      </trkpt>
      <trkpt lat="48.20384" lon="7.11065">
        <ele>1000</ele>
        <time>2009-05-31T10:16:20Z</time>
      </trkpt>
      <trkpt lat="48.20384" lon="7.11065">
        <ele>1001</ele>
        <time>2009-05-31T10:15:49Z</time>
      </trkpt>
      <trkpt lat="48.2038" lon="7.11074">
        <ele>1000</ele>
        <time>2009-05-31T10:15:37Z</time>
      </trkpt>
      <trkpt lat="48.20371" lon="7.11063">
        <ele>999</ele>
        <time>2009-05-31T10:15:28Z</time>
      </trkpt>
      <trkpt lat="48.20356" lon="7.11049">
        <ele>998</ele>
        <time>2009-05-31T10:15:14Z</time>
      </trkpt>
      <trkpt lat="48.20346" lon="7.1105">
        <ele>998</ele>
        <time>2009-05-31T10:15:01Z</time>
      </trkpt>
      <trkpt lat="48.20342" lon="7.11067">
        <ele>999</ele>
        <time>2009-05-31T10:14:47Z</time>
      </trkpt>
      <trkpt lat="48.20342" lon="7.11075">
        <ele>999</ele>
        <time>2009-05-31T10:14:19Z</time>
      </trkpt>
      <trkpt lat="48.20344" lon="7.1107">
        <ele>998</ele>
        <time>2009-05-31T10:13:58Z</time>
      </trkpt>
      <trkpt lat="48.20346" lon="7.11071">
        <ele>998</ele>
        <time>2009-05-31T10:13:39Z</time>
      </trkpt>
      <trkpt lat="48.20343" lon="7.11076">
        <ele>999</ele>
        <time>2009-05-31T10:13:16Z</time>
      </trkpt>
      <trkpt lat="48.20345" lon="7.11068">
        <ele>998</ele>
        <time>2009-05-31T10:13:02Z</time>
      </trkpt>
      <trkpt lat="48.20343" lon="7.11063">
        <ele>999</ele>
        <time>2009-05-31T10:12:54Z</time>
      </trkpt>
      <trkpt lat="48.20342" lon="7.11047">
        <ele>998</ele>
        <time>2009-05-31T10:12:39Z</time>
      </trkpt>
      <trkpt lat="48.2034" lon="7.11045">
        <ele>997</ele>
        <time>2009-05-31T10:12:35Z</time>
      </trkpt>
      <trkpt lat="48.20336" lon="7.11037">
        <ele>994</ele>
        <time>2009-05-31T10:12:23Z</time>
      </trkpt>
      <trkpt lat="48.20337" lon="7.11043">
        <ele>995</ele>
        <time>2009-05-31T10:12:12Z</time>
      </trkpt>
      <trkpt lat="48.20344" lon="7.11044">
        <ele>998</ele>
        <time>2009-05-31T10:12:00Z</time>
      </trkpt>
      <trkpt lat="48.2035" lon="7.11043">
        <ele>998</ele>
        <time>2009-05-31T10:11:50Z</time>
      </trkpt>
      <trkpt lat="48.20351" lon="7.11027">
        <ele>999</ele>
        <time>2009-05-31T10:11:32Z</time>
      </trkpt>
      <trkpt lat="48.20342" lon="7.11012">
        <ele>999</ele>
        <time>2009-05-31T10:11:20Z</time>
      </trkpt>
      <trkpt lat="48.20332" lon="7.10994">
        <ele>1000</ele>
        <time>2009-05-31T10:11:07Z</time>
      </trkpt>
      <trkpt lat="48.20319" lon="7.10968">
        <ele>1002</ele>
        <time>2009-05-31T10:10:51Z</time>
      </trkpt>
      <trkpt lat="48.20307" lon="7.10955">
        <ele>1002</ele>
        <time>2009-05-31T10:10:39Z</time>
      </trkpt>
      <trkpt lat="48.20296" lon="7.10937">
        <ele>1002</ele>
        <time>2009-05-31T10:10:25Z</time>
      </trkpt>
      <trkpt lat="48.20281" lon="7.1092">
        <ele>1001</ele>
        <time>2009-05-31T10:10:10Z</time>
      </trkpt>
      <trkpt lat="48.20271" lon="7.10898">
        <ele>1002</ele>
        <time>2009-05-31T10:09:55Z</time>
      </trkpt>
      <trkpt lat="48.20269" lon="7.10894">
        <ele>1002</ele>
        <time>2009-05-31T10:09:52Z</time>
      </trkpt>
      <trkpt lat="48.20254" lon="7.10874">
        <ele>1002</ele>
        <time>2009-05-31T10:09:36Z</time>
      </trkpt>
      <trkpt lat="48.20239" lon="7.10855">
        <ele>1003</ele>
        <time>2009-05-31T10:09:21Z</time>
      </trkpt>
      <trkpt lat="48.20235" lon="7.10847">
        <ele>1003</ele>
        <time>2009-05-31T10:09:16Z</time>
      </trkpt>
      <trkpt lat="48.20222" lon="7.10826">
        <ele>1004</ele>
        <time>2009-05-31T10:09:01Z</time>
      </trkpt>
      <trkpt lat="48.20219" lon="7.10819">
        <ele>1005</ele>
        <time>2009-05-31T10:08:57Z</time>
      </trkpt>
      <trkpt lat="48.2021" lon="7.10808">
        <ele>1006</ele>
        <time>2009-05-31T10:08:46Z</time>
      </trkpt>
      <trkpt lat="48.20194" lon="7.10789">
        <ele>1007</ele>
        <time>2009-05-31T10:08:30Z</time>
      </trkpt>
      <trkpt lat="48.20181" lon="7.10769">
        <ele>1007</ele>
        <time>2009-05-31T10:08:16Z</time>
      </trkpt>
      <trkpt lat="48.20169" lon="7.10758">
        <ele>1006</ele>
        <time>2009-05-31T10:08:00Z</time>
      </trkpt>
      <trkpt lat="48.20166" lon="7.10755">
        <ele>1006</ele>
        <time>2009-05-31T10:07:57Z</time>
      </trkpt>
      <trkpt lat="48.20152" lon="7.10737">
        <ele>1006</ele>
        <time>2009-05-31T10:07:44Z</time>
      </trkpt>
      <trkpt lat="48.20135" lon="7.10727">
        <ele>1006</ele>
        <time>2009-05-31T10:07:31Z</time>
      </trkpt>
      <trkpt lat="48.20126" lon="7.10722">
        <ele>1005</ele>
        <time>2009-05-31T10:07:19Z</time>
      </trkpt>
      <trkpt lat="48.20114" lon="7.10719">
        <ele>1006</ele>
        <time>2009-05-31T10:07:06Z</time>
      </trkpt>
      <trkpt lat="48.201" lon="7.10712">
        <ele>1007</ele>
        <time>2009-05-31T10:06:53Z</time>
      </trkpt>
      <trkpt lat="48.20082" lon="7.10716">
        <ele>1008</ele>
        <time>2009-05-31T10:06:39Z</time>
      </trkpt>
      <trkpt lat="48.20066" lon="7.10716">
        <ele>1009</ele>
        <time>2009-05-31T10:06:25Z</time>
      </trkpt>
      <trkpt lat="48.20041" lon="7.10713">
        <ele>1010</ele>
        <time>2009-05-31T10:06:06Z</time>
      </trkpt>
      <trkpt lat="48.2002" lon="7.10707">
        <ele>1010</ele>
        <time>2009-05-31T10:05:51Z</time>
      </trkpt>
      <trkpt lat="48.20004" lon="7.10699">
        <ele>1011</ele>
        <time>2009-05-31T10:05:37Z</time>
      </trkpt>
      <trkpt lat="48.19992" lon="7.10687">
        <ele>1010</ele>
        <time>2009-05-31T10:05:22Z</time>
      </trkpt>
      <trkpt lat="48.1999" lon="7.10688">
        <ele>1011</ele>
        <time>2009-05-31T10:04:58Z</time>
      </trkpt>
      <trkpt lat="48.19987" lon="7.10685">
        <ele>1011</ele>
        <time>2009-05-31T10:04:37Z</time>
      </trkpt>
      <trkpt lat="48.19976" lon="7.10676">
        <ele>1012</ele>
        <time>2009-05-31T10:04:25Z</time>
      </trkpt>
      <trkpt lat="48.19962" lon="7.10673">
        <ele>1012</ele>
        <time>2009-05-31T10:04:10Z</time>
      </trkpt>
      <trkpt lat="48.19951" lon="7.10683">
        <ele>1011</ele>
        <time>2009-05-31T10:03:53Z</time>
      </trkpt>
      <trkpt lat="48.19945" lon="7.10688">
        <ele>1012</ele>
        <time>2009-05-31T10:03:36Z</time>
      </trkpt>
      <trkpt lat="48.19928" lon="7.10696">
        <ele>1012</ele>
        <time>2009-05-31T10:03:21Z</time>
      </trkpt>
      <trkpt lat="48.19927" lon="7.10696">
        <ele>1012</ele>
        <time>2009-05-31T10:03:20Z</time>
      </trkpt>
      <trkpt lat="48.19921" lon="7.10704">
        <ele>1012</ele>
        <time>2009-05-31T10:03:07Z</time>
      </trkpt>
      <trkpt lat="48.19911" lon="7.1072">
        <ele>1014</ele>
        <time>2009-05-31T10:02:53Z</time>
      </trkpt>
      <trkpt lat="48.19898" lon="7.10731">
        <ele>1018</ele>
        <time>2009-05-31T10:02:39Z</time>
      </trkpt>
      <trkpt lat="48.19892" lon="7.10736">
        <ele>1019</ele>
        <time>2009-05-31T10:02:35Z</time>
      </trkpt>
      <trkpt lat="48.19888" lon="7.10739">
        <ele>1020</ele>
        <time>2009-05-31T10:02:32Z</time>
      </trkpt>
      <trkpt lat="48.19877" lon="7.10745">
        <ele>1022</ele>
        <time>2009-05-31T10:02:20Z</time>
      </trkpt>
      <trkpt lat="48.19864" lon="7.10755">
        <ele>1025</ele>
        <time>2009-05-31T10:02:06Z</time>
      </trkpt>
      <trkpt lat="48.19855" lon="7.10764">
        <ele>1027</ele>
        <time>2009-05-31T10:01:55Z</time>
      </trkpt>
      <trkpt lat="48.19847" lon="7.10774">
        <ele>1029</ele>
        <time>2009-05-31T10:01:44Z</time>
      </trkpt>
      <trkpt lat="48.19826" lon="7.1079">
        <ele>1032</ele>
        <time>2009-05-31T10:01:25Z</time>
      </trkpt>
      <trkpt lat="48.19807" lon="7.10804">
        <ele>1035</ele>
        <time>2009-05-31T10:01:06Z</time>
      </trkpt>
      <trkpt lat="48.19791" lon="7.10815">
        <ele>1038</ele>
        <time>2009-05-31T10:00:50Z</time>
      </trkpt>
      <trkpt lat="48.19782" lon="7.1082">
        <ele>1039</ele>
        <time>2009-05-31T10:00:42Z</time>
      </trkpt>
      <trkpt lat="48.19764" lon="7.1082">
        <ele>1040</ele>
        <time>2009-05-31T10:00:25Z</time>
      </trkpt>
      <trkpt lat="48.19747" lon="7.10809">
        <ele>1041</ele>
        <time>2009-05-31T10:00:09Z</time>
      </trkpt>
      <trkpt lat="48.19736" lon="7.10805">
        <ele>1041</ele>
        <time>2009-05-31T09:59:56Z</time>
      </trkpt>
      <trkpt lat="48.19727" lon="7.10797">
        <ele>1041</ele>
        <time>2009-05-31T09:59:40Z</time>
      </trkpt>
      <trkpt lat="48.19717" lon="7.10786">
        <ele>1041</ele>
        <time>2009-05-31T09:59:26Z</time>
      </trkpt>
      <trkpt lat="48.19701" lon="7.10779">
        <ele>1042</ele>
        <time>2009-05-31T09:59:11Z</time>
      </trkpt>
      <trkpt lat="48.19686" lon="7.10771">
        <ele>1043</ele>
        <time>2009-05-31T09:58:53Z</time>
      </trkpt>
      <trkpt lat="48.19675" lon="7.10769">
        <ele>1044</ele>
        <time>2009-05-31T09:58:31Z</time>
      </trkpt>
      <trkpt lat="48.19677" lon="7.10767">
        <ele>1045</ele>
        <time>2009-05-31T09:58:09Z</time>
      </trkpt>
      <trkpt lat="48.19675" lon="7.10763">
        <ele>1045</ele>
        <time>2009-05-31T09:57:54Z</time>
      </trkpt>
      <trkpt lat="48.19669" lon="7.10765">
        <ele>1046</ele>
        <time>2009-05-31T09:57:39Z</time>
      </trkpt>
      <trkpt lat="48.19666" lon="7.10762">
        <ele>1046</ele>
        <time>2009-05-31T09:57:20Z</time>
      </trkpt>
      <trkpt lat="48.19661" lon="7.10764">
        <ele>1046</ele>
        <time>2009-05-31T09:57:03Z</time>
      </trkpt>
      <trkpt lat="48.19654" lon="7.10772">
        <ele>1047</ele>
        <time>2009-05-31T09:56:47Z</time>
      </trkpt>
      <trkpt lat="48.19647" lon="7.10778">
        <ele>1047</ele>
        <time>2009-05-31T09:56:33Z</time>
      </trkpt>
      <trkpt lat="48.19646" lon="7.10781">
        <ele>1048</ele>
        <time>2009-05-31T09:56:19Z</time>
      </trkpt>
      <trkpt lat="48.19633" lon="7.10799">
        <ele>1048</ele>
        <time>2009-05-31T09:56:04Z</time>
      </trkpt>
      <trkpt lat="48.19622" lon="7.10811">
        <ele>1047</ele>
        <time>2009-05-31T09:55:52Z</time>
      </trkpt>
      <trkpt lat="48.19607" lon="7.10824">
        <ele>1046</ele>
        <time>2009-05-31T09:55:36Z</time>
      </trkpt>
      <trkpt lat="48.19589" lon="7.10831">
        <ele>1045</ele>
        <time>2009-05-31T09:55:21Z</time>
      </trkpt>
      <trkpt lat="48.19578" lon="7.10836">
        <ele>1044</ele>
        <time>2009-05-31T09:55:11Z</time>
      </trkpt>
      <trkpt lat="48.19556" lon="7.10837">
        <ele>1044</ele>
        <time>2009-05-31T09:54:56Z</time>
      </trkpt>
      <trkpt lat="48.19539" lon="7.10849">
        <ele>1042</ele>
        <time>2009-05-31T09:54:40Z</time>
      </trkpt>
      <trkpt lat="48.19537" lon="7.10852">
        <ele>1042</ele>
        <time>2009-05-31T09:54:38Z</time>
      </trkpt>
      <trkpt lat="48.19522" lon="7.10862">
        <ele>1040</ele>
        <time>2009-05-31T09:54:23Z</time>
      </trkpt>
      <trkpt lat="48.19507" lon="7.10861">
        <ele>1038</ele>
        <time>2009-05-31T09:54:06Z</time>
      </trkpt>
      <trkpt lat="48.19496" lon="7.10861">
        <ele>1035</ele>
        <time>2009-05-31T09:53:51Z</time>
      </trkpt>
      <trkpt lat="48.19481" lon="7.10856">
        <ele>1035</ele>
        <time>2009-05-31T09:52:52Z</time>
      </trkpt>
      <trkpt lat="48.19467" lon="7.10859">
        <ele>1033</ele>
        <time>2009-05-31T09:52:36Z</time>
      </trkpt>
      <trkpt lat="48.19465" lon="7.10861">
        <ele>1032</ele>
        <time>2009-05-31T09:52:34Z</time>
      </trkpt>
      <trkpt lat="48.19451" lon="7.10881">
        <ele>1029</ele>
        <time>2009-05-31T09:52:19Z</time>
      </trkpt>
      <trkpt lat="48.19448" lon="7.10894">
        <ele>1027</ele>
        <time>2009-05-31T09:52:10Z</time>
      </trkpt>
      <trkpt lat="48.19442" lon="7.10902">
        <ele>1027</ele>
        <time>2009-05-31T09:52:04Z</time>
      </trkpt>
      <trkpt lat="48.19442" lon="7.10899">
        <ele>1028</ele>
        <time>2009-05-31T09:51:35Z</time>
      </trkpt>
      <trkpt lat="48.19443" lon="7.10898">
        <ele>1028</ele>
        <time>2009-05-31T09:51:08Z</time>
      </trkpt>
      <trkpt lat="48.19444" lon="7.10899">
        <ele>1028</ele>
        <time>2009-05-31T09:50:47Z</time>
      </trkpt>
      <trkpt lat="48.19444" lon="7.10903">
        <ele>1026</ele>
        <time>2009-05-31T09:50:34Z</time>
      </trkpt>
      <trkpt lat="48.19446" lon="7.10916">
        <ele>1024</ele>
        <time>2009-05-31T09:50:29Z</time>
      </trkpt>
      <trkpt lat="48.19445" lon="7.10938">
        <ele>1021</ele>
        <time>2009-05-31T09:50:12Z</time>
      </trkpt>
      <trkpt lat="48.19446" lon="7.10958">
        <ele>1019</ele>
        <time>2009-05-31T09:49:57Z</time>
      </trkpt>
      <trkpt lat="48.19445" lon="7.10966">
        <ele>1017</ele>
        <time>2009-05-31T09:49:40Z</time>
      </trkpt>
      <trkpt lat="48.19445" lon="7.10983">
        <ele>1014</ele>
        <time>2009-05-31T09:49:26Z</time>
      </trkpt>
      <trkpt lat="48.19435" lon="7.10998">
        <ele>1011</ele>
        <time>2009-05-31T09:49:12Z</time>
      </trkpt>
      <trkpt lat="48.19429" lon="7.11008">
        <ele>1010</ele>
        <time>2009-05-31T09:48:31Z</time>
      </trkpt>
      <trkpt lat="48.19422" lon="7.11011">
        <ele>1008</ele>
        <time>2009-05-31T09:48:14Z</time>
      </trkpt>
      <trkpt lat="48.19424" lon="7.11025">
        <ele>1005</ele>
        <time>2009-05-31T09:47:58Z</time>
      </trkpt>
      <trkpt lat="48.19424" lon="7.11039">
        <ele>1002</ele>
        <time>2009-05-31T09:47:43Z</time>
      </trkpt>
      <trkpt lat="48.19429" lon="7.11048">
        <ele>999</ele>
        <time>2009-05-31T09:47:28Z</time>
      </trkpt>
      <trkpt lat="48.19426" lon="7.1106">
        <ele>997</ele>
        <time>2009-05-31T09:47:13Z</time>
      </trkpt>
      <trkpt lat="48.19423" lon="7.11077">
        <ele>993</ele>
        <time>2009-05-31T09:46:59Z</time>
      </trkpt>
      <trkpt lat="48.19415" lon="7.111">
        <ele>990</ele>
        <time>2009-05-31T09:46:41Z</time>
      </trkpt>
      <trkpt lat="48.19415" lon="7.11101">
        <ele>990</ele>
        <time>2009-05-31T09:46:40Z</time>
      </trkpt>
      <trkpt lat="48.19407" lon="7.11114">
        <ele>986</ele>
        <time>2009-05-31T09:46:27Z</time>
      </trkpt>
      <trkpt lat="48.19406" lon="7.11113">
        <ele>987</ele>
        <time>2009-05-31T09:45:59Z</time>
      </trkpt>
      <trkpt lat="48.19401" lon="7.11117">
        <ele>985</ele>
        <time>2009-05-31T09:45:45Z</time>
      </trkpt>
      <trkpt lat="48.19391" lon="7.11116">
        <ele>985</ele>
        <time>2009-05-31T09:45:30Z</time>
      </trkpt>
      <trkpt lat="48.19391" lon="7.11112">
        <ele>985</ele>
        <time>2009-05-31T09:45:18Z</time>
      </trkpt>
      <trkpt lat="48.19391" lon="7.11113">
        <ele>985</ele>
        <time>2009-05-31T09:44:53Z</time>
      </trkpt>
      <trkpt lat="48.19395" lon="7.11109">
        <ele>986</ele>
        <time>2009-05-31T09:44:33Z</time>
      </trkpt>
      <trkpt lat="48.19391" lon="7.11112">
        <ele>985</ele>
        <time>2009-05-31T09:44:18Z</time>
      </trkpt>
      <trkpt lat="48.19392" lon="7.11114">
        <ele>985</ele>
        <time>2009-05-31T09:43:47Z</time>
      </trkpt>
      <trkpt lat="48.19395" lon="7.11125">
        <ele>984</ele>
        <time>2009-05-31T09:43:30Z</time>
      </trkpt>
      <trkpt lat="48.19392" lon="7.11123">
        <ele>984</ele>
        <time>2009-05-31T09:43:14Z</time>
      </trkpt>
      <trkpt lat="48.19378" lon="7.11116">
        <ele>985</ele>
        <time>2009-05-31T09:42:56Z</time>
      </trkpt>
      <trkpt lat="48.19376" lon="7.11114">
        <ele>985</ele>
        <time>2009-05-31T09:42:54Z</time>
      </trkpt>
      <trkpt lat="48.19366" lon="7.11099">
        <ele>987</ele>
        <time>2009-05-31T09:42:39Z</time>
      </trkpt>
      <trkpt lat="48.19362" lon="7.11084">
        <ele>989</ele>
        <time>2009-05-31T09:42:31Z</time>
      </trkpt>
      <trkpt lat="48.19359" lon="7.11053">
        <ele>992</ele>
        <time>2009-05-31T09:42:17Z</time>
      </trkpt>
      <trkpt lat="48.19354" lon="7.11033">
        <ele>993</ele>
        <time>2009-05-31T09:42:04Z</time>
      </trkpt>
      <trkpt lat="48.19353" lon="7.11011">
        <ele>996</ele>
        <time>2009-05-31T09:41:50Z</time>
      </trkpt>
      <trkpt lat="48.19349" lon="7.10989">
        <ele>998</ele>
        <time>2009-05-31T09:41:37Z</time>
      </trkpt>
      <trkpt lat="48.1934" lon="7.10968">
        <ele>999</ele>
        <time>2009-05-31T09:41:23Z</time>
      </trkpt>
      <trkpt lat="48.19337" lon="7.10941">
        <ele>1001</ele>
        <time>2009-05-31T09:41:09Z</time>
      </trkpt>
      <trkpt lat="48.19335" lon="7.10931">
        <ele>1002</ele>
        <time>2009-05-31T09:41:02Z</time>
      </trkpt>
      <trkpt lat="48.19328" lon="7.10907">
        <ele>1003</ele>
        <time>2009-05-31T09:40:48Z</time>
      </trkpt>
      <trkpt lat="48.19322" lon="7.10892">
        <ele>1005</ele>
        <time>2009-05-31T09:40:36Z</time>
      </trkpt>
      <trkpt lat="48.19314" lon="7.10879">
        <ele>1007</ele>
        <time>2009-05-31T09:40:25Z</time>
      </trkpt>
      <trkpt lat="48.19306" lon="7.10853">
        <ele>1008</ele>
        <time>2009-05-31T09:40:10Z</time>
      </trkpt>
      <trkpt lat="48.19302" lon="7.1083">
        <ele>1010</ele>
        <time>2009-05-31T09:39:57Z</time>
      </trkpt>
      <trkpt lat="48.19302" lon="7.10822">
        <ele>1010</ele>
        <time>2009-05-31T09:39:54Z</time>
      </trkpt>
      <trkpt lat="48.19301" lon="7.10814">
        <ele>1010</ele>
        <time>2009-05-31T09:39:50Z</time>
      </trkpt>
      <trkpt lat="48.19297" lon="7.1079">
        <ele>1011</ele>
        <time>2009-05-31T09:39:36Z</time>
      </trkpt>
      <trkpt lat="48.19295" lon="7.10761">
        <ele>1012</ele>
        <time>2009-05-31T09:39:21Z</time>
      </trkpt>
      <trkpt lat="48.19292" lon="7.10735">
        <ele>1012</ele>
        <time>2009-05-31T09:39:06Z</time>
      </trkpt>
      <trkpt lat="48.19292" lon="7.10715">
        <ele>1013</ele>
        <time>2009-05-31T09:38:55Z</time>
      </trkpt>
      <trkpt lat="48.19285" lon="7.10698">
        <ele>1015</ele>
        <time>2009-05-31T09:38:43Z</time>
      </trkpt>
      <trkpt lat="48.19283" lon="7.10689">
        <ele>1015</ele>
        <time>2009-05-31T09:38:38Z</time>
      </trkpt>
      <trkpt lat="48.19286" lon="7.10658">
        <ele>1016</ele>
        <time>2009-05-31T09:38:27Z</time>
      </trkpt>
      <trkpt lat="48.19281" lon="7.10642">
        <ele>1016</ele>
        <time>2009-05-31T09:38:20Z</time>
      </trkpt>
      <trkpt lat="48.19276" lon="7.10615">
        <ele>1017</ele>
        <time>2009-05-31T09:38:06Z</time>
      </trkpt>
      <trkpt lat="48.19266" lon="7.10598">
        <ele>1018</ele>
        <time>2009-05-31T09:37:54Z</time>
      </trkpt>
      <trkpt lat="48.19258" lon="7.10583">
        <ele>1018</ele>
        <time>2009-05-31T09:37:41Z</time>
      </trkpt>
      <trkpt lat="48.19252" lon="7.10564">
        <ele>1019</ele>
        <time>2009-05-31T09:37:28Z</time>
      </trkpt>
      <trkpt lat="48.19236" lon="7.10551">
        <ele>1020</ele>
        <time>2009-05-31T09:37:13Z</time>
      </trkpt>
      <trkpt lat="48.19228" lon="7.10552">
        <ele>1020</ele>
        <time>2009-05-31T09:37:02Z</time>
      </trkpt>
      <trkpt lat="48.19219" lon="7.10544">
        <ele>1022</ele>
        <time>2009-05-31T09:36:50Z</time>
      </trkpt>
      <trkpt lat="48.19206" lon="7.10539">
        <ele>1023</ele>
        <time>2009-05-31T09:36:41Z</time>
      </trkpt>
      <trkpt lat="48.19192" lon="7.10527">
        <ele>1025</ele>
        <time>2009-05-31T09:36:28Z</time>
      </trkpt>
      <trkpt lat="48.19178" lon="7.10521">
        <ele>1027</ele>
        <time>2009-05-31T09:36:17Z</time>
      </trkpt>
      <trkpt lat="48.19169" lon="7.10499">
        <ele>1029</ele>
        <time>2009-05-31T09:36:03Z</time>
      </trkpt>
      <trkpt lat="48.19163" lon="7.10483">
        <ele>1032</ele>
        <time>2009-05-31T09:35:53Z</time>
      </trkpt>
      <trkpt lat="48.19154" lon="7.10467">
        <ele>1035</ele>
        <time>2009-05-31T09:35:41Z</time>
      </trkpt>
      <trkpt lat="48.19146" lon="7.10458">
        <ele>1037</ele>
        <time>2009-05-31T09:35:34Z</time>
      </trkpt>
      <trkpt lat="48.19137" lon="7.10441">
        <ele>1038</ele>
        <time>2009-05-31T09:35:20Z</time>
      </trkpt>
      <trkpt lat="48.19128" lon="7.10418">
        <ele>1041</ele>
        <time>2009-05-31T09:35:06Z</time>
      </trkpt>
      <trkpt lat="48.1912" lon="7.10403">
        <ele>1043</ele>
        <time>2009-05-31T09:34:56Z</time>
      </trkpt>
      <trkpt lat="48.19109" lon="7.10387">
        <ele>1044</ele>
        <time>2009-05-31T09:34:45Z</time>
      </trkpt>
      <trkpt lat="48.19099" lon="7.10369">
        <ele>1046</ele>
        <time>2009-05-31T09:34:31Z</time>
      </trkpt>
      <trkpt lat="48.19098" lon="7.10364">
        <ele>1046</ele>
        <time>2009-05-31T09:34:28Z</time>
      </trkpt>
      <trkpt lat="48.19085" lon="7.10346">
        <ele>1047</ele>
        <time>2009-05-31T09:34:15Z</time>
      </trkpt>
      <trkpt lat="48.19074" lon="7.10325">
        <ele>1047</ele>
        <time>2009-05-31T09:34:01Z</time>
      </trkpt>
      <trkpt lat="48.19066" lon="7.10308">
        <ele>1047</ele>
        <time>2009-05-31T09:33:49Z</time>
      </trkpt>
      <trkpt lat="48.19061" lon="7.10301">
        <ele>1047</ele>
        <time>2009-05-31T09:33:44Z</time>
      </trkpt>
      <trkpt lat="48.19052" lon="7.10276">
        <ele>1046</ele>
        <time>2009-05-31T09:33:29Z</time>
      </trkpt>
      <trkpt lat="48.19047" lon="7.10265">
        <ele>1046</ele>
        <time>2009-05-31T09:33:21Z</time>
      </trkpt>
      <trkpt lat="48.19038" lon="7.10243">
        <ele>1045</ele>
        <time>2009-05-31T09:33:07Z</time>
      </trkpt>
      <trkpt lat="48.19027" lon="7.10219">
        <ele>1043</ele>
        <time>2009-05-31T09:32:52Z</time>
      </trkpt>
      <trkpt lat="48.19017" lon="7.10201">
        <ele>1042</ele>
        <time>2009-05-31T09:32:39Z</time>
      </trkpt>
      <trkpt lat="48.19009" lon="7.10179">
        <ele>1041</ele>
        <time>2009-05-31T09:32:26Z</time>
      </trkpt>
      <trkpt lat="48.19001" lon="7.10162">
        <ele>1040</ele>
        <time>2009-05-31T09:32:16Z</time>
      </trkpt>
      <trkpt lat="48.18996" lon="7.10147">
        <ele>1041</ele>
        <time>2009-05-31T09:32:06Z</time>
      </trkpt>
      <trkpt lat="48.18997" lon="7.10136">
        <ele>1042</ele>
        <time>2009-05-31T09:31:28Z</time>
      </trkpt>
      <trkpt lat="48.18996" lon="7.10144">
        <ele>1043</ele>
        <time>2009-05-31T09:30:38Z</time>
      </trkpt>
      <trkpt lat="48.18984" lon="7.10147">
        <ele>1041</ele>
        <time>2009-05-31T09:30:25Z</time>
      </trkpt>
      <trkpt lat="48.18974" lon="7.10138">
        <ele>1041</ele>
        <time>2009-05-31T09:30:14Z</time>
      </trkpt>
      <trkpt lat="48.1896" lon="7.10134">
        <ele>1042</ele>
        <time>2009-05-31T09:30:03Z</time>
      </trkpt>
      <trkpt lat="48.18937" lon="7.10128">
        <ele>1043</ele>
        <time>2009-05-31T09:29:50Z</time>
      </trkpt>
      <trkpt lat="48.18921" lon="7.10117">
        <ele>1045</ele>
        <time>2009-05-31T09:29:36Z</time>
      </trkpt>
      <trkpt lat="48.18916" lon="7.10115">
        <ele>1046</ele>
        <time>2009-05-31T09:29:32Z</time>
      </trkpt>
      <trkpt lat="48.18914" lon="7.10114">
        <ele>1046</ele>
        <time>2009-05-31T09:29:30Z</time>
      </trkpt>
      <trkpt lat="48.18901" lon="7.10106">
        <ele>1047</ele>
        <time>2009-05-31T09:29:19Z</time>
      </trkpt>
      <trkpt lat="48.18899" lon="7.10104">
        <ele>1047</ele>
        <time>2009-05-31T09:29:17Z</time>
      </trkpt>
      <trkpt lat="48.18883" lon="7.10093">
        <ele>1050</ele>
        <time>2009-05-31T09:29:02Z</time>
      </trkpt>
      <trkpt lat="48.18873" lon="7.10069">
        <ele>1052</ele>
        <time>2009-05-31T09:28:48Z</time>
      </trkpt>
      <trkpt lat="48.1887" lon="7.10063">
        <ele>1052</ele>
        <time>2009-05-31T09:28:44Z</time>
      </trkpt>
      <trkpt lat="48.1886" lon="7.10055">
        <ele>1050</ele>
        <time>2009-05-31T09:28:29Z</time>
      </trkpt>
      <trkpt lat="48.18848" lon="7.10039">
        <ele>1048</ele>
        <time>2009-05-31T09:28:14Z</time>
      </trkpt>
      <trkpt lat="48.18847" lon="7.10038">
        <ele>1048</ele>
        <time>2009-05-31T09:28:13Z</time>
      </trkpt>
      <trkpt lat="48.18835" lon="7.10024">
        <ele>1048</ele>
        <time>2009-05-31T09:28:01Z</time>
      </trkpt>
      <trkpt lat="48.18825" lon="7.10007">
        <ele>1049</ele>
        <time>2009-05-31T09:27:50Z</time>
      </trkpt>
      <trkpt lat="48.18813" lon="7.09999">
        <ele>1049</ele>
        <time>2009-05-31T09:27:37Z</time>
      </trkpt>
      <trkpt lat="48.18803" lon="7.0998">
        <ele>1049</ele>
        <time>2009-05-31T09:27:25Z</time>
      </trkpt>
      <trkpt lat="48.188" lon="7.09955">
        <ele>1050</ele>
        <time>2009-05-31T09:27:12Z</time>
      </trkpt>
      <trkpt lat="48.18796" lon="7.09924">
        <ele>1051</ele>
        <time>2009-05-31T09:26:56Z</time>
      </trkpt>
      <trkpt lat="48.18793" lon="7.09896">
        <ele>1051</ele>
        <time>2009-05-31T09:26:42Z</time>
      </trkpt>
      <trkpt lat="48.18786" lon="7.09876">
        <ele>1052</ele>
        <time>2009-05-31T09:26:28Z</time>
      </trkpt>
      <trkpt lat="48.18785" lon="7.09857">
        <ele>1051</ele>
        <time>2009-05-31T09:26:17Z</time>
      </trkpt>
      <trkpt lat="48.18785" lon="7.09835">
        <ele>1052</ele>
        <time>2009-05-31T09:26:07Z</time>
      </trkpt>
      <trkpt lat="48.18781" lon="7.0981">
        <ele>1052</ele>
        <time>2009-05-31T09:25:53Z</time>
      </trkpt>
      <trkpt lat="48.18776" lon="7.09791">
        <ele>1052</ele>
        <time>2009-05-31T09:25:42Z</time>
      </trkpt>
      <trkpt lat="48.18774" lon="7.09781">
        <ele>1052</ele>
        <time>2009-05-31T09:25:36Z</time>
      </trkpt>
      <trkpt lat="48.18765" lon="7.0976">
        <ele>1052</ele>
        <time>2009-05-31T09:25:24Z</time>
      </trkpt>
      <trkpt lat="48.18763" lon="7.09752">
        <ele>1052</ele>
        <time>2009-05-31T09:25:20Z</time>
      </trkpt>
      <trkpt lat="48.18757" lon="7.09732">
        <ele>1053</ele>
        <time>2009-05-31T09:25:09Z</time>
      </trkpt>
      <trkpt lat="48.1875" lon="7.09716">
        <ele>1053</ele>
        <time>2009-05-31T09:24:57Z</time>
      </trkpt>
      <trkpt lat="48.18751" lon="7.09702">
        <ele>1055</ele>
        <time>2009-05-31T09:24:52Z</time>
      </trkpt>
      <trkpt lat="48.18744" lon="7.09684">
        <ele>1055</ele>
        <time>2009-05-31T09:24:42Z</time>
      </trkpt>
      <trkpt lat="48.18742" lon="7.09677">
        <ele>1056</ele>
        <time>2009-05-31T09:24:38Z</time>
      </trkpt>
      <trkpt lat="48.18732" lon="7.09659">
        <ele>1056</ele>
        <time>2009-05-31T09:24:26Z</time>
      </trkpt>
      <trkpt lat="48.18732" lon="7.09648">
        <ele>1056</ele>
        <time>2009-05-31T09:24:22Z</time>
      </trkpt>
      <trkpt lat="48.18733" lon="7.09636">
        <ele>1056</ele>
        <time>2009-05-31T09:24:19Z</time>
      </trkpt>
      <trkpt lat="48.18728" lon="7.09622">
        <ele>1057</ele>
        <time>2009-05-31T09:24:11Z</time>
      </trkpt>
      <trkpt lat="48.18718" lon="7.09606">
        <ele>1057</ele>
        <time>2009-05-31T09:23:58Z</time>
      </trkpt>
      <trkpt lat="48.18711" lon="7.09604">
        <ele>1057</ele>
        <time>2009-05-31T09:23:51Z</time>
      </trkpt>
      <trkpt lat="48.187" lon="7.09594">
        <ele>1056</ele>
        <time>2009-05-31T09:23:41Z</time>
      </trkpt>
      <trkpt lat="48.187" lon="7.09592">
        <ele>1057</ele>
        <time>2009-05-31T09:23:30Z</time>
      </trkpt>
      <trkpt lat="48.18697" lon="7.09599">
        <ele>1057</ele>
        <time>2009-05-31T09:23:14Z</time>
      </trkpt>
      <trkpt lat="48.18706" lon="7.09591">
        <ele>1057</ele>
        <time>2009-05-31T09:22:41Z</time>
      </trkpt>
      <trkpt lat="48.18707" lon="7.09585">
        <ele>1057</ele>
        <time>2009-05-31T09:22:25Z</time>
      </trkpt>
      <trkpt lat="48.18701" lon="7.09577">
        <ele>1057</ele>
        <time>2009-05-31T09:22:06Z</time>
      </trkpt>
      <trkpt lat="48.1869" lon="7.09569">
        <ele>1056</ele>
        <time>2009-05-31T09:21:58Z</time>
      </trkpt>
      <trkpt lat="48.18679" lon="7.09562">
        <ele>1056</ele>
        <time>2009-05-31T09:21:47Z</time>
      </trkpt>
      <trkpt lat="48.18668" lon="7.09559">
        <ele>1056</ele>
        <time>2009-05-31T09:21:38Z</time>
      </trkpt>
      <trkpt lat="48.18653" lon="7.09552">
        <ele>1057</ele>
        <time>2009-05-31T09:21:26Z</time>
      </trkpt>
      <trkpt lat="48.18641" lon="7.09544">
        <ele>1057</ele>
        <time>2009-05-31T09:21:13Z</time>
      </trkpt>
      <trkpt lat="48.18628" lon="7.09539">
        <ele>1057</ele>
        <time>2009-05-31T09:21:03Z</time>
      </trkpt>
      <trkpt lat="48.18612" lon="7.09523">
        <ele>1057</ele>
        <time>2009-05-31T09:20:49Z</time>
      </trkpt>
      <trkpt lat="48.18607" lon="7.09522">
        <ele>1057</ele>
        <time>2009-05-31T09:20:46Z</time>
      </trkpt>
      <trkpt lat="48.18607" lon="7.09521">
        <ele>1057</ele>
        <time>2009-05-31T09:20:45Z</time>
      </trkpt>
      <trkpt lat="48.18597" lon="7.0951">
        <ele>1058</ele>
        <time>2009-05-31T09:20:34Z</time>
      </trkpt>
      <trkpt lat="48.18582" lon="7.09499">
        <ele>1058</ele>
        <time>2009-05-31T09:20:21Z</time>
      </trkpt>
      <trkpt lat="48.18579" lon="7.09493">
        <ele>1059</ele>
        <time>2009-05-31T09:20:17Z</time>
      </trkpt>
      <trkpt lat="48.18567" lon="7.0948">
        <ele>1058</ele>
        <time>2009-05-31T09:20:05Z</time>
      </trkpt>
      <trkpt lat="48.18556" lon="7.09462">
        <ele>1058</ele>
        <time>2009-05-31T09:19:53Z</time>
      </trkpt>
      <trkpt lat="48.18544" lon="7.0945">
        <ele>1058</ele>
        <time>2009-05-31T09:19:41Z</time>
      </trkpt>
      <trkpt lat="48.18529" lon="7.09435">
        <ele>1058</ele>
        <time>2009-05-31T09:19:28Z</time>
      </trkpt>
      <trkpt lat="48.18524" lon="7.09434">
        <ele>1057</ele>
        <time>2009-05-31T09:19:24Z</time>
      </trkpt>
      <trkpt lat="48.1852" lon="7.09431">
        <ele>1058</ele>
        <time>2009-05-31T09:19:20Z</time>
      </trkpt>
      <trkpt lat="48.18514" lon="7.09425">
        <ele>1058</ele>
        <time>2009-05-31T09:19:14Z</time>
      </trkpt>
      <trkpt lat="48.18507" lon="7.09421">
        <ele>1058</ele>
        <time>2009-05-31T09:19:07Z</time>
      </trkpt>
      <trkpt lat="48.18499" lon="7.09412">
        <ele>1060</ele>
        <time>2009-05-31T09:18:57Z</time>
      </trkpt>
      <trkpt lat="48.18485" lon="7.09408">
        <ele>1060</ele>
        <time>2009-05-31T09:18:48Z</time>
      </trkpt>
      <trkpt lat="48.18479" lon="7.09401">
        <ele>1060</ele>
        <time>2009-05-31T09:18:42Z</time>
      </trkpt>
      <trkpt lat="48.18475" lon="7.09398">
        <ele>1061</ele>
        <time>2009-05-31T09:18:39Z</time>
      </trkpt>
      <trkpt lat="48.18457" lon="7.09399">
        <ele>1062</ele>
        <time>2009-05-31T09:18:28Z</time>
      </trkpt>
      <trkpt lat="48.1845" lon="7.0939">
        <ele>1063</ele>
        <time>2009-05-31T09:18:21Z</time>
      </trkpt>
      <trkpt lat="48.18447" lon="7.09386">
        <ele>1064</ele>
        <time>2009-05-31T09:18:19Z</time>
      </trkpt>
      <trkpt lat="48.18438" lon="7.09379">
        <ele>1065</ele>
        <time>2009-05-31T09:18:11Z</time>
      </trkpt>
      <trkpt lat="48.18428" lon="7.0938">
        <ele>1065</ele>
        <time>2009-05-31T09:18:05Z</time>
      </trkpt>
      <trkpt lat="48.18418" lon="7.09363">
        <ele>1065</ele>
        <time>2009-05-31T09:17:54Z</time>
      </trkpt>
      <trkpt lat="48.18403" lon="7.09358">
        <ele>1066</ele>
        <time>2009-05-31T09:17:43Z</time>
      </trkpt>
      <trkpt lat="48.18391" lon="7.09353">
        <ele>1067</ele>
        <time>2009-05-31T09:17:32Z</time>
      </trkpt>
      <trkpt lat="48.18381" lon="7.09344">
        <ele>1067</ele>
        <time>2009-05-31T09:17:21Z</time>
      </trkpt>
      <trkpt lat="48.18364" lon="7.09347">
        <ele>1069</ele>
        <time>2009-05-31T09:17:08Z</time>
      </trkpt>
      <trkpt lat="48.1835" lon="7.09344">
        <ele>1070</ele>
        <time>2009-05-31T09:16:57Z</time>
      </trkpt>
      <trkpt lat="48.18348" lon="7.09337">
        <ele>1070</ele>
        <time>2009-05-31T09:16:53Z</time>
      </trkpt>
      <trkpt lat="48.18345" lon="7.09332">
        <ele>1071</ele>
        <time>2009-05-31T09:16:49Z</time>
      </trkpt>
      <trkpt lat="48.18337" lon="7.09308">
        <ele>1071</ele>
        <time>2009-05-31T09:16:34Z</time>
      </trkpt>
      <trkpt lat="48.18339" lon="7.09301">
        <ele>1071</ele>
        <time>2009-05-31T09:16:16Z</time>
      </trkpt>
      <trkpt lat="48.18332" lon="7.0928">
        <ele>1072</ele>
        <time>2009-05-31T09:16:04Z</time>
      </trkpt>
      <trkpt lat="48.18325" lon="7.09266">
        <ele>1074</ele>
        <time>2009-05-31T09:15:55Z</time>
      </trkpt>
      <trkpt lat="48.18323" lon="7.09265">
        <ele>1074</ele>
        <time>2009-05-31T09:15:54Z</time>
      </trkpt>
      <trkpt lat="48.18321" lon="7.09261">
        <ele>1076</ele>
        <time>2009-05-31T09:15:51Z</time>
      </trkpt>
      <trkpt lat="48.18317" lon="7.09234">
        <ele>1077</ele>
        <time>2009-05-31T09:15:38Z</time>
      </trkpt>
      <trkpt lat="48.18316" lon="7.09197">
        <ele>1079</ele>
        <time>2009-05-31T09:15:22Z</time>
      </trkpt>
      <trkpt lat="48.18317" lon="7.09195">
        <ele>1079</ele>
        <time>2009-05-31T09:14:49Z</time>
      </trkpt>
      <trkpt lat="48.1832" lon="7.09194">
        <ele>1079</ele>
        <time>2009-05-31T09:14:12Z</time>
      </trkpt>
      <trkpt lat="48.18317" lon="7.09194">
        <ele>1079</ele>
        <time>2009-05-31T09:13:49Z</time>
      </trkpt>
      <trkpt lat="48.1832" lon="7.09198">
        <ele>1079</ele>
        <time>2009-05-31T09:12:53Z</time>
      </trkpt>
      <trkpt lat="48.18318" lon="7.09197">
        <ele>1080</ele>
        <time>2009-05-31T09:12:35Z</time>
      </trkpt>
      <trkpt lat="48.18314" lon="7.09185">
        <ele>1079</ele>
        <time>2009-05-31T09:12:26Z</time>
      </trkpt>
      <trkpt lat="48.18315" lon="7.09163">
        <ele>1079</ele>
        <time>2009-05-31T09:12:14Z</time>
      </trkpt>
      <trkpt lat="48.18318" lon="7.09135">
        <ele>1079</ele>
        <time>2009-05-31T09:12:01Z</time>
      </trkpt>
      <trkpt lat="48.1832" lon="7.09113">
        <ele>1079</ele>
        <time>2009-05-31T09:11:50Z</time>
      </trkpt>
      <trkpt lat="48.18321" lon="7.09088">
        <ele>1079</ele>
        <time>2009-05-31T09:11:38Z</time>
      </trkpt>
      <trkpt lat="48.18321" lon="7.09076">
        <ele>1079</ele>
        <time>2009-05-31T09:11:27Z</time>
      </trkpt>
      <trkpt lat="48.18322" lon="7.09057">
        <ele>1078</ele>
        <time>2009-05-31T09:11:16Z</time>
      </trkpt>
      <trkpt lat="48.18327" lon="7.09026">
        <ele>1079</ele>
        <time>2009-05-31T09:11:04Z</time>
      </trkpt>
      <trkpt lat="48.18326" lon="7.09002">
        <ele>1081</ele>
        <time>2009-05-31T09:10:53Z</time>
      </trkpt>
      <trkpt lat="48.18328" lon="7.08982">
        <ele>1083</ele>
        <time>2009-05-31T09:10:43Z</time>
      </trkpt>
      <trkpt lat="48.18326" lon="7.08962">
        <ele>1082</ele>
        <time>2009-05-31T09:10:31Z</time>
      </trkpt>
      <trkpt lat="48.18326" lon="7.08936">
        <ele>1084</ele>
        <time>2009-05-31T09:10:19Z</time>
      </trkpt>
      <trkpt lat="48.18326" lon="7.08918">
        <ele>1084</ele>
        <time>2009-05-31T09:10:09Z</time>
      </trkpt>
      <trkpt lat="48.18327" lon="7.08904">
        <ele>1084</ele>
        <time>2009-05-31T09:10:00Z</time>
      </trkpt>
      <trkpt lat="48.1832" lon="7.08893">
        <ele>1084</ele>
        <time>2009-05-31T09:09:49Z</time>
      </trkpt>
      <trkpt lat="48.18315" lon="7.08867">
        <ele>1083</ele>
        <time>2009-05-31T09:09:37Z</time>
      </trkpt>
      <trkpt lat="48.18315" lon="7.08852">
        <ele>1084</ele>
        <time>2009-05-31T09:09:31Z</time>
      </trkpt>
      <trkpt lat="48.18303" lon="7.08838">
        <ele>1084</ele>
        <time>2009-05-31T09:09:19Z</time>
      </trkpt>
      <trkpt lat="48.18291" lon="7.08821">
        <ele>1085</ele>
        <time>2009-05-31T09:09:06Z</time>
      </trkpt>
      <trkpt lat="48.18288" lon="7.08807">
        <ele>1085</ele>
        <time>2009-05-31T09:08:58Z</time>
      </trkpt>
      <trkpt lat="48.18283" lon="7.08793">
        <ele>1085</ele>
        <time>2009-05-31T09:08:49Z</time>
      </trkpt>
      <trkpt lat="48.18276" lon="7.0877">
        <ele>1085</ele>
        <time>2009-05-31T09:08:36Z</time>
      </trkpt>
      <trkpt lat="48.18269" lon="7.08752">
        <ele>1085</ele>
        <time>2009-05-31T09:08:23Z</time>
      </trkpt>
      <trkpt lat="48.18258" lon="7.08734">
        <ele>1084</ele>
        <time>2009-05-31T09:08:08Z</time>
      </trkpt>
      <trkpt lat="48.18251" lon="7.08722">
        <ele>1085</ele>
        <time>2009-05-31T09:07:57Z</time>
      </trkpt>
      <trkpt lat="48.18252" lon="7.08711">
        <ele>1085</ele>
        <time>2009-05-31T09:07:53Z</time>
      </trkpt>
      <trkpt lat="48.18242" lon="7.08697">
        <ele>1087</ele>
        <time>2009-05-31T09:07:40Z</time>
      </trkpt>
      <trkpt lat="48.18224" lon="7.08698">
        <ele>1088</ele>
        <time>2009-05-31T09:07:28Z</time>
      </trkpt>
      <trkpt lat="48.18215" lon="7.08709">
        <ele>1089</ele>
        <time>2009-05-31T09:07:14Z</time>
      </trkpt>
      <trkpt lat="48.18198" lon="7.08721">
        <ele>1091</ele>
        <time>2009-05-31T09:07:03Z</time>
      </trkpt>
      <trkpt lat="48.18189" lon="7.08718">
        <ele>1093</ele>
        <time>2009-05-31T09:06:51Z</time>
      </trkpt>
      <trkpt lat="48.18175" lon="7.08733">
        <ele>1094</ele>
        <time>2009-05-31T09:06:40Z</time>
      </trkpt>
      <trkpt lat="48.18156" lon="7.08749">
        <ele>1094</ele>
        <time>2009-05-31T09:06:25Z</time>
      </trkpt>
      <trkpt lat="48.18154" lon="7.08753">
        <ele>1094</ele>
        <time>2009-05-31T09:06:23Z</time>
      </trkpt>
      <trkpt lat="48.18139" lon="7.08762">
        <ele>1093</ele>
        <time>2009-05-31T09:06:09Z</time>
      </trkpt>
      <trkpt lat="48.18135" lon="7.08761">
        <ele>1093</ele>
        <time>2009-05-31T09:06:03Z</time>
      </trkpt>
      <trkpt lat="48.18124" lon="7.08766">
        <ele>1092</ele>
        <time>2009-05-31T09:05:53Z</time>
      </trkpt>
      <trkpt lat="48.18111" lon="7.08768">
        <ele>1092</ele>
        <time>2009-05-31T09:05:42Z</time>
      </trkpt>
      <trkpt lat="48.18106" lon="7.08768">
        <ele>1092</ele>
        <time>2009-05-31T09:05:39Z</time>
      </trkpt>
      <trkpt lat="48.18096" lon="7.08769">
        <ele>1092</ele>
        <time>2009-05-31T09:05:27Z</time>
      </trkpt>
      <trkpt lat="48.18085" lon="7.0878">
        <ele>1091</ele>
        <time>2009-05-31T09:05:12Z</time>
      </trkpt>
      <trkpt lat="48.18072" lon="7.08793">
        <ele>1091</ele>
        <time>2009-05-31T09:05:00Z</time>
      </trkpt>
      <trkpt lat="48.18057" lon="7.08813">
        <ele>1091</ele>
        <time>2009-05-31T09:04:48Z</time>
      </trkpt>
      <trkpt lat="48.18055" lon="7.08814">
        <ele>1091</ele>
        <time>2009-05-31T09:04:45Z</time>
      </trkpt>
      <trkpt lat="48.18041" lon="7.08823">
        <ele>1090</ele>
        <time>2009-05-31T09:04:33Z</time>
      </trkpt>
      <trkpt lat="48.18025" lon="7.08831">
        <ele>1089</ele>
        <time>2009-05-31T09:04:13Z</time>
      </trkpt>
      <trkpt lat="48.18035" lon="7.0883">
        <ele>1088</ele>
        <time>2009-05-31T09:03:48Z</time>
      </trkpt>
      <trkpt lat="48.18033" lon="7.0883">
        <ele>1089</ele>
        <time>2009-05-31T09:03:24Z</time>
      </trkpt>
      <trkpt lat="48.18042" lon="7.08825">
        <ele>1088</ele>
        <time>2009-05-31T09:02:55Z</time>
      </trkpt>
      <trkpt lat="48.18033" lon="7.08842">
        <ele>1087</ele>
        <time>2009-05-31T09:02:43Z</time>
      </trkpt>
      <trkpt lat="48.1802" lon="7.08844">
        <ele>1086</ele>
        <time>2009-05-31T09:02:33Z</time>
      </trkpt>
      <trkpt lat="48.1801" lon="7.08843">
        <ele>1084</ele>
        <time>2009-05-31T09:02:20Z</time>
      </trkpt>
      <trkpt lat="48.17998" lon="7.08846">
        <ele>1083</ele>
        <time>2009-05-31T09:02:09Z</time>
      </trkpt>
      <trkpt lat="48.17984" lon="7.08853">
        <ele>1079</ele>
        <time>2009-05-31T09:01:58Z</time>
      </trkpt>
      <trkpt lat="48.17969" lon="7.08851">
        <ele>1078</ele>
        <time>2009-05-31T09:01:47Z</time>
      </trkpt>
      <trkpt lat="48.17965" lon="7.08843">
        <ele>1077</ele>
        <time>2009-05-31T09:01:41Z</time>
      </trkpt>
      <trkpt lat="48.17964" lon="7.08841">
        <ele>1077</ele>
        <time>2009-05-31T09:01:40Z</time>
      </trkpt>
      <trkpt lat="48.17954" lon="7.08834">
        <ele>1076</ele>
        <time>2009-05-31T09:01:28Z</time>
      </trkpt>
      <trkpt lat="48.17941" lon="7.08821">
        <ele>1074</ele>
        <time>2009-05-31T09:01:15Z</time>
      </trkpt>
      <trkpt lat="48.17935" lon="7.0882">
        <ele>1072</ele>
        <time>2009-05-31T09:01:05Z</time>
      </trkpt>
      <trkpt lat="48.17928" lon="7.08814">
        <ele>1072</ele>
        <time>2009-05-31T09:01:00Z</time>
      </trkpt>
      <trkpt lat="48.17917" lon="7.0881">
        <ele>1071</ele>
        <time>2009-05-31T09:00:47Z</time>
      </trkpt>
      <trkpt lat="48.17905" lon="7.08806">
        <ele>1070</ele>
        <time>2009-05-31T09:00:37Z</time>
      </trkpt>
      <trkpt lat="48.17892" lon="7.08799">
        <ele>1068</ele>
        <time>2009-05-31T09:00:25Z</time>
      </trkpt>
      <trkpt lat="48.17881" lon="7.08791">
        <ele>1067</ele>
        <time>2009-05-31T09:00:14Z</time>
      </trkpt>
      <trkpt lat="48.1787" lon="7.0878">
        <ele>1066</ele>
        <time>2009-05-31T09:00:01Z</time>
      </trkpt>
      <trkpt lat="48.1787" lon="7.08778">
        <ele>1065</ele>
        <time>2009-05-31T09:00:00Z</time>
      </trkpt>
      <trkpt lat="48.17863" lon="7.08772">
        <ele>1065</ele>
        <time>2009-05-31T08:59:50Z</time>
      </trkpt>
      <trkpt lat="48.17849" lon="7.08775">
        <ele>1064</ele>
        <time>2009-05-31T08:59:40Z</time>
      </trkpt>
      <trkpt lat="48.17836" lon="7.08778">
        <ele>1063</ele>
        <time>2009-05-31T08:59:30Z</time>
      </trkpt>
      <trkpt lat="48.17825" lon="7.08777">
        <ele>1062</ele>
        <time>2009-05-31T08:59:19Z</time>
      </trkpt>
      <trkpt lat="48.17818" lon="7.08778">
        <ele>1061</ele>
        <time>2009-05-31T08:59:11Z</time>
      </trkpt>
      <trkpt lat="48.17808" lon="7.08782">
        <ele>1060</ele>
        <time>2009-05-31T08:59:00Z</time>
      </trkpt>
      <trkpt lat="48.17796" lon="7.0879">
        <ele>1060</ele>
        <time>2009-05-31T08:58:49Z</time>
      </trkpt>
      <trkpt lat="48.17783" lon="7.08799">
        <ele>1060</ele>
        <time>2009-05-31T08:58:39Z</time>
      </trkpt>
      <trkpt lat="48.17772" lon="7.08805">
        <ele>1061</ele>
        <time>2009-05-31T08:58:25Z</time>
      </trkpt>
      <trkpt lat="48.17754" lon="7.0881">
        <ele>1060</ele>
        <time>2009-05-31T08:58:13Z</time>
      </trkpt>
      <trkpt lat="48.17742" lon="7.08816">
        <ele>1060</ele>
        <time>2009-05-31T08:58:02Z</time>
      </trkpt>
      <trkpt lat="48.17721" lon="7.08822">
        <ele>1060</ele>
        <time>2009-05-31T08:57:50Z</time>
      </trkpt>
      <trkpt lat="48.1771" lon="7.08812">
        <ele>1060</ele>
        <time>2009-05-31T08:57:38Z</time>
      </trkpt>
      <trkpt lat="48.17695" lon="7.08791">
        <ele>1059</ele>
        <time>2009-05-31T08:57:24Z</time>
      </trkpt>
      <trkpt lat="48.17695" lon="7.08788">
        <ele>1059</ele>
        <time>2009-05-31T08:57:23Z</time>
      </trkpt>
      <trkpt lat="48.17683" lon="7.08783">
        <ele>1058</ele>
        <time>2009-05-31T08:57:13Z</time>
      </trkpt>
      <trkpt lat="48.17671" lon="7.08762">
        <ele>1058</ele>
        <time>2009-05-31T08:57:00Z</time>
      </trkpt>
      <trkpt lat="48.17661" lon="7.08746">
        <ele>1058</ele>
        <time>2009-05-31T08:56:48Z</time>
      </trkpt>
      <trkpt lat="48.17657" lon="7.0873">
        <ele>1057</ele>
        <time>2009-05-31T08:56:38Z</time>
      </trkpt>
      <trkpt lat="48.17647" lon="7.0871">
        <ele>1056</ele>
        <time>2009-05-31T08:56:24Z</time>
      </trkpt>
      <trkpt lat="48.17638" lon="7.08702">
        <ele>1055</ele>
        <time>2009-05-31T08:56:11Z</time>
      </trkpt>
      <trkpt lat="48.17629" lon="7.08688">
        <ele>1054</ele>
        <time>2009-05-31T08:55:59Z</time>
      </trkpt>
      <trkpt lat="48.17619" lon="7.08678">
        <ele>1053</ele>
        <time>2009-05-31T08:55:47Z</time>
      </trkpt>
      <trkpt lat="48.1761" lon="7.0865">
        <ele>1052</ele>
        <time>2009-05-31T08:55:34Z</time>
      </trkpt>
      <trkpt lat="48.17608" lon="7.08643">
        <ele>1052</ele>
        <time>2009-05-31T08:55:30Z</time>
      </trkpt>
      <trkpt lat="48.17595" lon="7.08621">
        <ele>1051</ele>
        <time>2009-05-31T08:55:15Z</time>
      </trkpt>
      <trkpt lat="48.17592" lon="7.08614">
        <ele>1051</ele>
        <time>2009-05-31T08:55:12Z</time>
      </trkpt>
      <trkpt lat="48.17588" lon="7.08613">
        <ele>1050</ele>
        <time>2009-05-31T08:55:07Z</time>
      </trkpt>
      <trkpt lat="48.17583" lon="7.08614">
        <ele>1050</ele>
        <time>2009-05-31T08:54:56Z</time>
      </trkpt>
      <trkpt lat="48.17581" lon="7.08609">
        <ele>1050</ele>
        <time>2009-05-31T08:54:50Z</time>
      </trkpt>
      <trkpt lat="48.1758" lon="7.08606">
        <ele>1050</ele>
        <time>2009-05-31T08:54:48Z</time>
      </trkpt>
      <trkpt lat="48.17569" lon="7.08574">
        <ele>1049</ele>
        <time>2009-05-31T08:54:33Z</time>
      </trkpt>
      <trkpt lat="48.17557" lon="7.08549">
        <ele>1048</ele>
        <time>2009-05-31T08:54:17Z</time>
      </trkpt>
      <trkpt lat="48.17543" lon="7.08549">
        <ele>1047</ele>
        <time>2009-05-31T08:54:05Z</time>
      </trkpt>
      <trkpt lat="48.17523" lon="7.08554">
        <ele>1046</ele>
        <time>2009-05-31T08:53:49Z</time>
      </trkpt>
      <trkpt lat="48.17501" lon="7.08566">
        <ele>1046</ele>
        <time>2009-05-31T08:53:34Z</time>
      </trkpt>
      <trkpt lat="48.17497" lon="7.08567">
        <ele>1045</ele>
        <time>2009-05-31T08:53:31Z</time>
      </trkpt>
      <trkpt lat="48.17487" lon="7.08559">
        <ele>1044</ele>
        <time>2009-05-31T08:53:20Z</time>
      </trkpt>
      <trkpt lat="48.17475" lon="7.08534">
        <ele>1044</ele>
        <time>2009-05-31T08:53:06Z</time>
      </trkpt>
      <trkpt lat="48.17465" lon="7.0853">
        <ele>1043</ele>
        <time>2009-05-31T08:53:00Z</time>
      </trkpt>
      <trkpt lat="48.17456" lon="7.08526">
        <ele>1043</ele>
        <time>2009-05-31T08:52:50Z</time>
      </trkpt>
      <trkpt lat="48.17434" lon="7.08535">
        <ele>1043</ele>
        <time>2009-05-31T08:52:36Z</time>
      </trkpt>
      <trkpt lat="48.17424" lon="7.0853">
        <ele>1043</ele>
        <time>2009-05-31T08:52:27Z</time>
      </trkpt>
      <trkpt lat="48.17415" lon="7.08529">
        <ele>1042</ele>
        <time>2009-05-31T08:52:18Z</time>
      </trkpt>
      <trkpt lat="48.17394" lon="7.08533">
        <ele>1042</ele>
        <time>2009-05-31T08:52:06Z</time>
      </trkpt>
      <trkpt lat="48.17388" lon="7.08535">
        <ele>1041</ele>
        <time>2009-05-31T08:52:00Z</time>
      </trkpt>
      <trkpt lat="48.17377" lon="7.08536">
        <ele>1042</ele>
        <time>2009-05-31T08:51:50Z</time>
      </trkpt>
      <trkpt lat="48.17352" lon="7.08543">
        <ele>1041</ele>
        <time>2009-05-31T08:51:35Z</time>
      </trkpt>
      <trkpt lat="48.17344" lon="7.08544">
        <ele>1041</ele>
        <time>2009-05-31T08:51:26Z</time>
      </trkpt>
      <trkpt lat="48.17325" lon="7.08553">
        <ele>1041</ele>
        <time>2009-05-31T08:51:16Z</time>
      </trkpt>
      <trkpt lat="48.17314" lon="7.08554">
        <ele>1039</ele>
        <time>2009-05-31T08:51:07Z</time>
      </trkpt>
      <trkpt lat="48.1731" lon="7.08553">
        <ele>1040</ele>
        <time>2009-05-31T08:51:03Z</time>
      </trkpt>
      <trkpt lat="48.17306" lon="7.0855">
        <ele>1039</ele>
        <time>2009-05-31T08:50:54Z</time>
      </trkpt>
      <trkpt lat="48.17313" lon="7.08525">
        <ele>1039</ele>
        <time>2009-05-31T08:50:34Z</time>
      </trkpt>
      <trkpt lat="48.17304" lon="7.0852">
        <ele>1038</ele>
        <time>2009-05-31T08:50:24Z</time>
      </trkpt>
      <trkpt lat="48.17288" lon="7.08525">
        <ele>1039</ele>
        <time>2009-05-31T08:50:12Z</time>
      </trkpt>
      <trkpt lat="48.17268" lon="7.08532">
        <ele>1040</ele>
        <time>2009-05-31T08:49:59Z</time>
      </trkpt>
      <trkpt lat="48.17258" lon="7.08538">
        <ele>1042</ele>
        <time>2009-05-31T08:49:47Z</time>
      </trkpt>
      <trkpt lat="48.17251" lon="7.08547">
        <ele>1043</ele>
        <time>2009-05-31T08:49:38Z</time>
      </trkpt>
      <trkpt lat="48.17236" lon="7.08557">
        <ele>1044</ele>
        <time>2009-05-31T08:49:26Z</time>
      </trkpt>
      <trkpt lat="48.1722" lon="7.08571">
        <ele>1045</ele>
        <time>2009-05-31T08:49:14Z</time>
      </trkpt>
      <trkpt lat="48.17214" lon="7.08573">
        <ele>1044</ele>
        <time>2009-05-31T08:49:02Z</time>
      </trkpt>
      <trkpt lat="48.17197" lon="7.08567">
        <ele>1045</ele>
        <time>2009-05-31T08:48:46Z</time>
      </trkpt>
      <trkpt lat="48.17177" lon="7.08555">
        <ele>1044</ele>
        <time>2009-05-31T08:48:27Z</time>
      </trkpt>
      <trkpt lat="48.17169" lon="7.08552">
        <ele>1044</ele>
        <time>2009-05-31T08:48:21Z</time>
      </trkpt>
      <trkpt lat="48.17161" lon="7.0853">
        <ele>1043</ele>
        <time>2009-05-31T08:48:07Z</time>
      </trkpt>
      <trkpt lat="48.17153" lon="7.08502">
        <ele>1042</ele>
        <time>2009-05-31T08:47:51Z</time>
      </trkpt>
      <trkpt lat="48.17147" lon="7.08491">
        <ele>1042</ele>
        <time>2009-05-31T08:47:42Z</time>
      </trkpt>
      <trkpt lat="48.17139" lon="7.08474">
        <ele>1041</ele>
        <time>2009-05-31T08:47:30Z</time>
      </trkpt>
      <trkpt lat="48.17137" lon="7.08464">
        <ele>1040</ele>
        <time>2009-05-31T08:47:24Z</time>
      </trkpt>
      <trkpt lat="48.17132" lon="7.0844">
        <ele>1040</ele>
        <time>2009-05-31T08:47:11Z</time>
      </trkpt>
      <trkpt lat="48.17125" lon="7.08428">
        <ele>1040</ele>
        <time>2009-05-31T08:47:01Z</time>
      </trkpt>
      <trkpt lat="48.17114" lon="7.08419">
        <ele>1039</ele>
        <time>2009-05-31T08:46:46Z</time>
      </trkpt>
      <trkpt lat="48.17109" lon="7.08409">
        <ele>1038</ele>
        <time>2009-05-31T08:46:37Z</time>
      </trkpt>
      <trkpt lat="48.17101" lon="7.08396">
        <ele>1036</ele>
        <time>2009-05-31T08:46:25Z</time>
      </trkpt>
      <trkpt lat="48.17089" lon="7.08386">
        <ele>1034</ele>
        <time>2009-05-31T08:46:10Z</time>
      </trkpt>
      <trkpt lat="48.17084" lon="7.08371">
        <ele>1031</ele>
        <time>2009-05-31T08:45:58Z</time>
      </trkpt>
      <trkpt lat="48.1708" lon="7.08359">
        <ele>1029</ele>
        <time>2009-05-31T08:45:47Z</time>
      </trkpt>
      <trkpt lat="48.17072" lon="7.08347">
        <ele>1027</ele>
        <time>2009-05-31T08:45:36Z</time>
      </trkpt>
      <trkpt lat="48.17064" lon="7.08326">
        <ele>1025</ele>
        <time>2009-05-31T08:45:25Z</time>
      </trkpt>
      <trkpt lat="48.17056" lon="7.08325">
        <ele>1023</ele>
        <time>2009-05-31T08:45:14Z</time>
      </trkpt>
      <trkpt lat="48.17046" lon="7.08311">
        <ele>1022</ele>
        <time>2009-05-31T08:45:02Z</time>
      </trkpt>
      <trkpt lat="48.17039" lon="7.08288">
        <ele>1019</ele>
        <time>2009-05-31T08:44:48Z</time>
      </trkpt>
      <trkpt lat="48.1703" lon="7.08279">
        <ele>1016</ele>
        <time>2009-05-31T08:44:34Z</time>
      </trkpt>
      <trkpt lat="48.17025" lon="7.08276">
        <ele>1015</ele>
        <time>2009-05-31T08:44:27Z</time>
      </trkpt>
      <trkpt lat="48.17018" lon="7.08266">
        <ele>1012</ele>
        <time>2009-05-31T08:44:13Z</time>
      </trkpt>
      <trkpt lat="48.17013" lon="7.08255">
        <ele>1011</ele>
        <time>2009-05-31T08:44:06Z</time>
      </trkpt>
      <trkpt lat="48.17006" lon="7.08234">
        <ele>1008</ele>
        <time>2009-05-31T08:43:51Z</time>
      </trkpt>
      <trkpt lat="48.16998" lon="7.08212">
        <ele>1006</ele>
        <time>2009-05-31T08:43:35Z</time>
      </trkpt>
      <trkpt lat="48.16991" lon="7.08186">
        <ele>1004</ele>
        <time>2009-05-31T08:43:18Z</time>
      </trkpt>
      <trkpt lat="48.1699" lon="7.08176">
        <ele>1002</ele>
        <time>2009-05-31T08:43:13Z</time>
      </trkpt>
      <trkpt lat="48.16986" lon="7.08162">
        <ele>1001</ele>
        <time>2009-05-31T08:43:03Z</time>
      </trkpt>
      <trkpt lat="48.16979" lon="7.08141">
        <ele>998</ele>
        <time>2009-05-31T08:42:49Z</time>
      </trkpt>
      <trkpt lat="48.1698" lon="7.08118">
        <ele>996</ele>
        <time>2009-05-31T08:42:35Z</time>
      </trkpt>
      <trkpt lat="48.16981" lon="7.08115">
        <ele>996</ele>
        <time>2009-05-31T08:42:33Z</time>
      </trkpt>
      <trkpt lat="48.16979" lon="7.08108">
        <ele>994</ele>
        <time>2009-05-31T08:42:19Z</time>
      </trkpt>
      <trkpt lat="48.16977" lon="7.0809">
        <ele>993</ele>
        <time>2009-05-31T08:42:07Z</time>
      </trkpt>
      <trkpt lat="48.1696" lon="7.08087">
        <ele>993</ele>
        <time>2009-05-31T08:41:54Z</time>
      </trkpt>
      <trkpt lat="48.16944" lon="7.08091">
        <ele>991</ele>
        <time>2009-05-31T08:41:41Z</time>
      </trkpt>
      <trkpt lat="48.16932" lon="7.08089">
        <ele>990</ele>
        <time>2009-05-31T08:41:30Z</time>
      </trkpt>
      <trkpt lat="48.16916" lon="7.0809">
        <ele>989</ele>
        <time>2009-05-31T08:41:19Z</time>
      </trkpt>
      <trkpt lat="48.16912" lon="7.0809">
        <ele>988</ele>
        <time>2009-05-31T08:41:16Z</time>
      </trkpt>
      <trkpt lat="48.1691" lon="7.08092">
        <ele>988</ele>
        <time>2009-05-31T08:41:13Z</time>
      </trkpt>
      <trkpt lat="48.16899" lon="7.0809">
        <ele>986</ele>
        <time>2009-05-31T08:41:00Z</time>
      </trkpt>
      <trkpt lat="48.16883" lon="7.08094">
        <ele>983</ele>
        <time>2009-05-31T08:40:46Z</time>
      </trkpt>
      <trkpt lat="48.16876" lon="7.08094">
        <ele>982</ele>
        <time>2009-05-31T08:40:39Z</time>
      </trkpt>
      <trkpt lat="48.16874" lon="7.08092">
        <ele>982</ele>
        <time>2009-05-31T08:40:37Z</time>
      </trkpt>
      <trkpt lat="48.16873" lon="7.08093">
        <ele>981</ele>
        <time>2009-05-31T08:40:35Z</time>
      </trkpt>
      <trkpt lat="48.16868" lon="7.08091">
        <ele>981</ele>
        <time>2009-05-31T08:40:30Z</time>
      </trkpt>
      <trkpt lat="48.16852" lon="7.08088">
        <ele>978</ele>
        <time>2009-05-31T08:40:16Z</time>
      </trkpt>
      <trkpt lat="48.16844" lon="7.08094">
        <ele>976</ele>
        <time>2009-05-31T08:40:06Z</time>
      </trkpt>
      <trkpt lat="48.16828" lon="7.08094">
        <ele>973</ele>
        <time>2009-05-31T08:39:52Z</time>
      </trkpt>
      <trkpt lat="48.16818" lon="7.08101">
        <ele>972</ele>
        <time>2009-05-31T08:39:42Z</time>
      </trkpt>
      <trkpt lat="48.16799" lon="7.08101">
        <ele>970</ele>
        <time>2009-05-31T08:39:25Z</time>
      </trkpt>
      <trkpt lat="48.16796" lon="7.08102">
        <ele>970</ele>
        <time>2009-05-31T08:39:23Z</time>
      </trkpt>
      <trkpt lat="48.1679" lon="7.08098">
        <ele>969</ele>
        <time>2009-05-31T08:39:18Z</time>
      </trkpt>
      <trkpt lat="48.16779" lon="7.08093">
        <ele>969</ele>
        <time>2009-05-31T08:39:08Z</time>
      </trkpt>
      <trkpt lat="48.16776" lon="7.08091">
        <ele>968</ele>
        <time>2009-05-31T08:39:04Z</time>
      </trkpt>
      <trkpt lat="48.1677" lon="7.08089">
        <ele>968</ele>
        <time>2009-05-31T08:38:59Z</time>
      </trkpt>
      <trkpt lat="48.16767" lon="7.08088">
        <ele>968</ele>
        <time>2009-05-31T08:38:57Z</time>
      </trkpt>
      <trkpt lat="48.16752" lon="7.08069">
        <ele>966</ele>
        <time>2009-05-31T08:38:40Z</time>
      </trkpt>
      <trkpt lat="48.16736" lon="7.0806">
        <ele>964</ele>
        <time>2009-05-31T08:38:27Z</time>
      </trkpt>
      <trkpt lat="48.1672" lon="7.08045">
        <ele>964</ele>
        <time>2009-05-31T08:38:12Z</time>
      </trkpt>
      <trkpt lat="48.16711" lon="7.08047">
        <ele>963</ele>
        <time>2009-05-31T08:38:03Z</time>
      </trkpt>
      <trkpt lat="48.16692" lon="7.08044">
        <ele>963</ele>
        <time>2009-05-31T08:37:51Z</time>
      </trkpt>
      <trkpt lat="48.16682" lon="7.08028">
        <ele>962</ele>
        <time>2009-05-31T08:37:40Z</time>
      </trkpt>
      <trkpt lat="48.16677" lon="7.08021">
        <ele>963</ele>
        <time>2009-05-31T08:37:35Z</time>
      </trkpt>
      <trkpt lat="48.16665" lon="7.08013">
        <ele>963</ele>
        <time>2009-05-31T08:37:23Z</time>
      </trkpt>
      <trkpt lat="48.16661" lon="7.08008">
        <ele>962</ele>
        <time>2009-05-31T08:37:19Z</time>
      </trkpt>
      <trkpt lat="48.16661" lon="7.08008">
        <ele>962</ele>
        <time>2009-05-31T08:37:19Z</time>
      </trkpt>
    </trkseg>
  </trk>
  <trk>
    <name><![CDATA[4134]]></name>
    <trkseg>
      <trkpt lat="49.03833" lon="7.94106">
        <ele>158.549957</ele>
      </trkpt>
      <trkpt lat="49.03833" lon="7.94106">
        <ele>158.549957</ele>
      </trkpt>
      <trkpt lat="49.03833" lon="7.94106">
        <ele>158.549957</ele>
      </trkpt>
      <trkpt lat="49.03833" lon="7.94106">
        <ele>158.549957</ele>
      </trkpt>
      <trkpt lat="49.03808" lon="7.93401">
        <ele>158</ele>
      </trkpt>
      <trkpt lat="49.03939" lon="7.92809">
        <ele>160.572479</ele>
      </trkpt>
      <trkpt lat="49.04037" lon="7.92834">
        <ele>162.612595</ele>
      </trkpt>
      <trkpt lat="49.03777" lon="7.91713">
        <ele>173.6008</ele>
      </trkpt>
      <trkpt lat="49.03758" lon="7.91299">
        <ele>170.040237</ele>
      </trkpt>
      <trkpt lat="49.03934" lon="7.90948">
        <ele>174.300064</ele>
      </trkpt>
      <trkpt lat="49.03862" lon="7.90653">
        <ele>170.440018</ele>
      </trkpt>
      <trkpt lat="49.04032" lon="7.90346">
        <ele>172.477982</ele>
      </trkpt>
      <trkpt lat="49.04282" lon="7.90291">
        <ele>169.112381</ele>
      </trkpt>
      <trkpt lat="49.04536" lon="7.9002">
        <ele>170.16983</ele>
      </trkpt>
      <trkpt lat="49.04811" lon="7.88796">
        <ele>179.751282</ele>
      </trkpt>
      <trkpt lat="49.04559" lon="7.88155">
        <ele>178.524216</ele>
      </trkpt>
      <trkpt lat="49.04322" lon="7.87986">
        <ele>201.811874</ele>
      </trkpt>
      <trkpt lat="49.04057" lon="7.87522">
        <ele>219.320724</ele>
      </trkpt>
      <trkpt lat="49.03326" lon="7.86831">
        <ele>248.938904</ele>
      </trkpt>
      <trkpt lat="49.03081" lon="7.86873">
        <ele>261.889709</ele>
      </trkpt>
      <trkpt lat="49.027" lon="7.86579">
        <ele>282.179932</ele>
      </trkpt>
      <trkpt lat="49.02659" lon="7.86205">
        <ele>299.371674</ele>
      </trkpt>
      <trkpt lat="49.02389" lon="7.85573">
        <ele>324.987061</ele>
      </trkpt>
      <trkpt lat="49.02231" lon="7.85429">
        <ele>328.700684</ele>
      </trkpt>
      <trkpt lat="49.02073" lon="7.85573">
        <ele>345.362457</ele>
      </trkpt>
      <trkpt lat="49.01959" lon="7.85506">
        <ele>352.22229</ele>
      </trkpt>
      <trkpt lat="49.0184" lon="7.8512">
        <ele>353.000397</ele>
      </trkpt>
      <trkpt lat="49.02079" lon="7.85115">
        <ele>365.934845</ele>
      </trkpt>
      <trkpt lat="49.0226" lon="7.84936">
        <ele>365.852448</ele>
      </trkpt>
      <trkpt lat="49.02613" lon="7.83693">
        <ele>321.789429</ele>
      </trkpt>
      <trkpt lat="49.02609" lon="7.8309">
        <ele>273.549835</ele>
      </trkpt>
      <trkpt lat="49.0272" lon="7.8303">
        <ele>280.419769</ele>
      </trkpt>
      <trkpt lat="49.02803" lon="7.82545">
        <ele>253.825058</ele>
      </trkpt>
      <trkpt lat="49.03248" lon="7.82329">
        <ele>263.959503</ele>
      </trkpt>
      <trkpt lat="49.03633" lon="7.81729">
        <ele>274.545135</ele>
      </trkpt>
      <trkpt lat="49.03891" lon="7.81657">
        <ele>278.500488</ele>
      </trkpt>
      <trkpt lat="49.04085" lon="7.81411">
        <ele>280.476807</ele>
      </trkpt>
      <trkpt lat="49.04963" lon="7.8136">
        <ele>301.124725</ele>
      </trkpt>
      <trkpt lat="49.05208" lon="7.80492">
        <ele>314.440735</ele>
      </trkpt>
      <trkpt lat="49.05428" lon="7.79871">
        <ele>341.539703</ele>
      </trkpt>
      <trkpt lat="49.05328" lon="7.79343">
        <ele>331.649689</ele>
      </trkpt>
      <trkpt lat="49.04702" lon="7.78647">
        <ele>342.902374</ele>
      </trkpt>
      <trkpt lat="49.04977" lon="7.78151">
        <ele>303.550354</ele>
      </trkpt>
      <trkpt lat="49.04715" lon="7.77521">
        <ele>334.759583</ele>
      </trkpt>
      <trkpt lat="49.04247" lon="7.77177">
        <ele>298.944702</ele>
      </trkpt>
      <trkpt lat="49.04041" lon="7.76655">
        <ele>228.749634</ele>
      </trkpt>
      <trkpt lat="49.03852" lon="7.76495">
        <ele>201.759827</ele>
      </trkpt>
      <trkpt lat="49.03962" lon="7.76215">
        <ele>227.25473</ele>
      </trkpt>
      <trkpt lat="49.04123" lon="7.76191">
        <ele>238.140518</ele>
      </trkpt>
      <trkpt lat="49.03867" lon="7.75482">
        <ele>285.20047</ele>
      </trkpt>
      <trkpt lat="49.03685" lon="7.76011">
        <ele>298.825256</ele>
      </trkpt>
      <trkpt lat="49.03506" lon="7.75729">
        <ele>284.243134</ele>
      </trkpt>
      <trkpt lat="49.03467" lon="7.74862">
        <ele>264.190186</ele>
      </trkpt>
      <trkpt lat="49.03679" lon="7.74644">
        <ele>272.320038</ele>
      </trkpt>
      <trkpt lat="49.03564" lon="7.7432">
        <ele>274.175598</ele>
      </trkpt>
      <trkpt lat="49.03625" lon="7.73967">
        <ele>255.200195</ele>
      </trkpt>
      <trkpt lat="49.03165" lon="7.74015">
        <ele>219.020157</ele>
      </trkpt>
      <trkpt lat="49.02902" lon="7.73453">
        <ele>218.249847</ele>
      </trkpt>
      <trkpt lat="49.03135" lon="7.73036">
        <ele>237.050674</ele>
      </trkpt>
      <trkpt lat="49.03356" lon="7.72884">
        <ele>242.250244</ele>
      </trkpt>
      <trkpt lat="49.04246" lon="7.73025">
        <ele>362.9552</ele>
      </trkpt>
      <trkpt lat="49.04126" lon="7.7279">
        <ele>366.798798</ele>
      </trkpt>
      <trkpt lat="49.04072" lon="7.72277">
        <ele>390.37326</ele>
      </trkpt>
      <trkpt lat="49.04276" lon="7.72049">
        <ele>394.911377</ele>
      </trkpt>
      <trkpt lat="49.04236" lon="7.71209">
        <ele>386.960999</ele>
      </trkpt>
      <trkpt lat="49.04602" lon="7.70473">
        <ele>366.849121</ele>
      </trkpt>
      <trkpt lat="49.0454" lon="7.70107">
        <ele>317.726257</ele>
      </trkpt>
      <trkpt lat="49.04385" lon="7.70042">
        <ele>305.137207</ele>
      </trkpt>
      <trkpt lat="49.03825" lon="7.69679">
        <ele>253.72551</ele>
      </trkpt>
      <trkpt lat="49.0358" lon="7.69099">
        <ele>236.900055</ele>
      </trkpt>
      <trkpt lat="49.03698" lon="7.68279">
        <ele>242.249527</ele>
      </trkpt>
      <trkpt lat="49.03667" lon="7.67478">
        <ele>247.099945</ele>
      </trkpt>
      <trkpt lat="49.03466" lon="7.67139">
        <ele>271.400879</ele>
      </trkpt>
      <trkpt lat="49.03228" lon="7.66871">
        <ele>293.838867</ele>
      </trkpt>
      <trkpt lat="49.03081" lon="7.66918">
        <ele>295.121307</ele>
      </trkpt>
      <trkpt lat="49.02695" lon="7.67141">
        <ele>320.045105</ele>
      </trkpt>
      <trkpt lat="49.02387" lon="7.6713">
        <ele>344.700409</ele>
      </trkpt>
      <trkpt lat="49.02404" lon="7.67515">
        <ele>359.125458</ele>
      </trkpt>
      <trkpt lat="49.02112" lon="7.67906">
        <ele>362.211365</ele>
      </trkpt>
      <trkpt lat="49.02173" lon="7.68207">
        <ele>361.450623</ele>
      </trkpt>
      <trkpt lat="49.01799" lon="7.68353">
        <ele>339.219879</ele>
      </trkpt>
      <trkpt lat="49.01616" lon="7.68574">
        <ele>330.579437</ele>
      </trkpt>
      <trkpt lat="49.01634" lon="7.68822">
        <ele>327.620422</ele>
      </trkpt>
      <trkpt lat="49.01335" lon="7.69212">
        <ele>324.700134</ele>
      </trkpt>
      <trkpt lat="49.00624" lon="7.70802">
        <ele>298.999847</ele>
      </trkpt>
      <trkpt lat="48.99914" lon="7.71269">
        <ele>280.280029</ele>
      </trkpt>
      <trkpt lat="48.99336" lon="7.70647">
        <ele>326.713043</ele>
      </trkpt>
      <trkpt lat="48.99035" lon="7.69942">
        <ele>327.05014</ele>
      </trkpt>
      <trkpt lat="48.98718" lon="7.70015">
        <ele>300.549835</ele>
      </trkpt>
      <trkpt lat="48.98508" lon="7.69737">
        <ele>285.420685</ele>
      </trkpt>
      <trkpt lat="48.97899" lon="7.69112">
        <ele>259.7995</ele>
      </trkpt>
      <trkpt lat="48.9761" lon="7.68569">
        <ele>214.641617</ele>
      </trkpt>
      <trkpt lat="48.97719" lon="7.683">
        <ele>206.800842</ele>
      </trkpt>
      <trkpt lat="48.9793" lon="7.68223">
        <ele>206.53537</ele>
      </trkpt>
      <trkpt lat="48.97495" lon="7.6827">
        <ele>237.999527</ele>
      </trkpt>
      <trkpt lat="48.97294" lon="7.67339">
        <ele>269.439148</ele>
      </trkpt>
      <trkpt lat="48.97225" lon="7.67356">
        <ele>267.69986</ele>
      </trkpt>
      <trkpt lat="48.97103" lon="7.66968">
        <ele>287.724823</ele>
      </trkpt>
      <trkpt lat="48.97386" lon="7.6634">
        <ele>320.412048</ele>
      </trkpt>
      <trkpt lat="48.96928" lon="7.6554">
        <ele>296.831573</ele>
      </trkpt>
      <trkpt lat="48.97045" lon="7.65347">
        <ele>296.390625</ele>
      </trkpt>
      <trkpt lat="48.96723" lon="7.65441">
        <ele>293.469971</ele>
      </trkpt>
      <trkpt lat="48.96626" lon="7.65099">
        <ele>287.047272</ele>
      </trkpt>
      <trkpt lat="48.96391" lon="7.64859">
        <ele>260.838959</ele>
      </trkpt>
      <trkpt lat="48.96255" lon="7.6437">
        <ele>254.6539</ele>
      </trkpt>
      <trkpt lat="48.961" lon="7.64217">
        <ele>251.72464</ele>
      </trkpt>
      <trkpt lat="48.9585" lon="7.63207">
        <ele>233.241028</ele>
      </trkpt>
      <trkpt lat="48.9597" lon="7.62877">
        <ele>222.021057</ele>
      </trkpt>
      <trkpt lat="48.96109" lon="7.62795">
        <ele>214.575668</ele>
      </trkpt>
      <trkpt lat="48.96089" lon="7.62646">
        <ele>197.239822</ele>
      </trkpt>
      <trkpt lat="48.95831" lon="7.62921">
        <ele>195.499893</ele>
      </trkpt>
      <trkpt lat="48.95341" lon="7.63514">
        <ele>189.180038</ele>
      </trkpt>
      <trkpt lat="48.95155" lon="7.63494">
        <ele>201.799881</ele>
      </trkpt>
      <trkpt lat="48.95732" lon="7.62675">
        <ele>206.529861</ele>
      </trkpt>
      <trkpt lat="48.95937" lon="7.62412">
        <ele>225.199219</ele>
      </trkpt>
      <trkpt lat="48.9565" lon="7.62533">
        <ele>259.19989</ele>
      </trkpt>
      <trkpt lat="48.9491" lon="7.61097">
        <ele>321.999969</ele>
      </trkpt>
      <trkpt lat="48.94507" lon="7.61233">
        <ele>289.439941</ele>
      </trkpt>
      <trkpt lat="48.94253" lon="7.61129">
        <ele>266.672546</ele>
      </trkpt>
      <trkpt lat="48.93721" lon="7.61652">
        <ele>223.440018</ele>
      </trkpt>
      <trkpt lat="48.93297" lon="7.61305">
        <ele>206.709976</ele>
      </trkpt>
      <trkpt lat="48.92983" lon="7.60719">
        <ele>247.42746</ele>
      </trkpt>
      <trkpt lat="48.92776" lon="7.60418">
        <ele>245.287384</ele>
      </trkpt>
      <trkpt lat="48.93199" lon="7.60174">
        <ele>231.329971</ele>
      </trkpt>
      <trkpt lat="48.93071" lon="7.60068">
        <ele>228.920273</ele>
      </trkpt>
      <trkpt lat="48.93204" lon="7.59846">
        <ele>246.92424</ele>
      </trkpt>
      <trkpt lat="48.93083" lon="7.59482">
        <ele>249.389069</ele>
      </trkpt>
      <trkpt lat="48.92666" lon="7.59026">
        <ele>204.853104</ele>
      </trkpt>
      <trkpt lat="48.92464" lon="7.5836">
        <ele>192.699936</ele>
      </trkpt>
      <trkpt lat="48.92284" lon="7.58147">
        <ele>187.25032</ele>
      </trkpt>
      <trkpt lat="48.92372" lon="7.57773">
        <ele>197.890808</ele>
      </trkpt>
      <trkpt lat="48.9271" lon="7.57619">
        <ele>188.575073</ele>
      </trkpt>
      <trkpt lat="48.92733" lon="7.56952">
        <ele>204.837204</ele>
      </trkpt>
      <trkpt lat="48.92863" lon="7.56606">
        <ele>190.862869</ele>
      </trkpt>
      <trkpt lat="48.92577" lon="7.5603">
        <ele>230.036819</ele>
      </trkpt>
      <trkpt lat="48.92398" lon="7.55865">
        <ele>279.558563</ele>
      </trkpt>
      <trkpt lat="48.92319" lon="7.55973">
        <ele>298.79953</ele>
      </trkpt>
      <trkpt lat="48.92366" lon="7.55811">
        <ele>299.080505</ele>
      </trkpt>
      <trkpt lat="48.92511" lon="7.55788">
        <ele>286.601349</ele>
      </trkpt>
      <trkpt lat="48.92261" lon="7.55134">
        <ele>329.991241</ele>
      </trkpt>
      <trkpt lat="48.92438" lon="7.54837">
        <ele>345.000153</ele>
      </trkpt>
      <trkpt lat="48.92228" lon="7.54174">
        <ele>346.538666</ele>
      </trkpt>
      <trkpt lat="48.92371" lon="7.53795">
        <ele>345.350067</ele>
      </trkpt>
      <trkpt lat="48.9226" lon="7.53552">
        <ele>335.319702</ele>
      </trkpt>
      <trkpt lat="48.92681" lon="7.53495">
        <ele>331.660797</ele>
      </trkpt>
      <trkpt lat="48.92962" lon="7.53195">
        <ele>337.170044</ele>
      </trkpt>
      <trkpt lat="48.92998" lon="7.52956">
        <ele>327.199219</ele>
      </trkpt>
      <trkpt lat="48.93087" lon="7.52825">
        <ele>334.61969</ele>
      </trkpt>
      <trkpt lat="48.93293" lon="7.5289">
        <ele>326.555878</ele>
      </trkpt>
      <trkpt lat="48.93635" lon="7.53208">
        <ele>304.999664</ele>
      </trkpt>
      <trkpt lat="48.93711" lon="7.53021">
        <ele>308.025696</ele>
      </trkpt>
      <trkpt lat="48.94134" lon="7.52817">
        <ele>331.485474</ele>
      </trkpt>
      <trkpt lat="48.93802" lon="7.52128">
        <ele>376.708923</ele>
      </trkpt>
      <trkpt lat="48.94344" lon="7.51242">
        <ele>388.909912</ele>
      </trkpt>
      <trkpt lat="48.94188" lon="7.50946">
        <ele>348.16037</ele>
      </trkpt>
      <trkpt lat="48.94204" lon="7.50586">
        <ele>336.101837</ele>
      </trkpt>
      <trkpt lat="48.93907" lon="7.50532">
        <ele>270.152649</ele>
      </trkpt>
      <trkpt lat="48.93739" lon="7.50259">
        <ele>279.880066</ele>
      </trkpt>
      <trkpt lat="48.93722" lon="7.49707">
        <ele>263.908264</ele>
      </trkpt>
      <trkpt lat="48.93433" lon="7.49982">
        <ele>239.320023</ele>
      </trkpt>
      <trkpt lat="48.93341" lon="7.49877">
        <ele>203.525421</ele>
      </trkpt>
      <trkpt lat="48.93307" lon="7.49416">
        <ele>207.900146</ele>
      </trkpt>
      <trkpt lat="48.93287" lon="7.49188">
        <ele>215.63945</ele>
      </trkpt>
      <trkpt lat="48.92958" lon="7.48534">
        <ele>244.209869</ele>
      </trkpt>
      <trkpt lat="48.9251" lon="7.48633">
        <ele>274.500153</ele>
      </trkpt>
      <trkpt lat="48.92384" lon="7.48255">
        <ele>280.828278</ele>
      </trkpt>
      <trkpt lat="48.92472" lon="7.48106">
        <ele>270.512939</ele>
      </trkpt>
      <trkpt lat="48.92554" lon="7.47878">
        <ele>270.650085</ele>
      </trkpt>
      <trkpt lat="48.92087" lon="7.48204">
        <ele>335.220276</ele>
      </trkpt>
      <trkpt lat="48.92129" lon="7.48492">
        <ele>352.000397</ele>
      </trkpt>
      <trkpt lat="48.91978" lon="7.48754">
        <ele>342.749756</ele>
      </trkpt>
      <trkpt lat="48.91663" lon="7.48579">
        <ele>291.786804</ele>
      </trkpt>
      <trkpt lat="48.91688" lon="7.48486">
        <ele>287.300201</ele>
      </trkpt>
      <trkpt lat="48.91788" lon="7.48448">
        <ele>277.969849</ele>
      </trkpt>
      <trkpt lat="48.9174" lon="7.48269">
        <ele>260.07486</ele>
      </trkpt>
      <trkpt lat="48.91513" lon="7.48089">
        <ele>219.509995</ele>
      </trkpt>
      <trkpt lat="48.91583" lon="7.47772">
        <ele>227.46994</ele>
      </trkpt>
      <trkpt lat="48.91492" lon="7.47534">
        <ele>246.254868</ele>
      </trkpt>
      <trkpt lat="48.91176" lon="7.47407">
        <ele>277.480042</ele>
      </trkpt>
      <trkpt lat="48.90913" lon="7.46301">
        <ele>289.370453</ele>
      </trkpt>
      <trkpt lat="48.91341" lon="7.46234">
        <ele>318.454346</ele>
      </trkpt>
      <trkpt lat="48.91285" lon="7.4544">
        <ele>307.048553</ele>
      </trkpt>
      <trkpt lat="48.91127" lon="7.44403">
        <ele>232.999283</ele>
      </trkpt>
      <trkpt lat="48.91029" lon="7.44024">
        <ele>214.280029</ele>
      </trkpt>
      <trkpt lat="48.90812" lon="7.43723">
        <ele>206.739853</ele>
      </trkpt>
      <trkpt lat="48.9083" lon="7.43458">
        <ele>201.309952</ele>
      </trkpt>
      <trkpt lat="48.91227" lon="7.41762">
        <ele>205.099869</ele>
      </trkpt>
      <trkpt lat="48.91124" lon="7.41639">
        <ele>206.500015</ele>
      </trkpt>
      <trkpt lat="48.9125" lon="7.41211">
        <ele>209.584976</ele>
      </trkpt>
      <trkpt lat="48.90712" lon="7.40745">
        <ele>222.994614</ele>
      </trkpt>
      <trkpt lat="48.90709" lon="7.40594">
        <ele>218.617554</ele>
      </trkpt>
      <trkpt lat="48.90563" lon="7.39842">
        <ele>236.70047</ele>
      </trkpt>
      <trkpt lat="48.90254" lon="7.39218">
        <ele>235.135025</ele>
      </trkpt>
      <trkpt lat="48.90029" lon="7.3965">
        <ele>292.689972</ele>
      </trkpt>
      <trkpt lat="48.89587" lon="7.39829">
        <ele>294.020294</ele>
      </trkpt>
      <trkpt lat="48.88954" lon="7.38777">
        <ele>229.499985</ele>
      </trkpt>
      <trkpt lat="48.8886" lon="7.38918">
        <ele>228.599991</ele>
      </trkpt>
      <trkpt lat="48.8828" lon="7.38895">
        <ele>219.550018</ele>
      </trkpt>
      <trkpt lat="48.88049" lon="7.39026">
        <ele>218.40007</ele>
      </trkpt>
      <trkpt lat="48.88032" lon="7.38465">
        <ele>220.150146</ele>
      </trkpt>
      <trkpt lat="48.87703" lon="7.37682">
        <ele>245.97966</ele>
      </trkpt>
      <trkpt lat="48.87782" lon="7.37628">
        <ele>243.580124</ele>
      </trkpt>
      <trkpt lat="48.87553" lon="7.36394">
        <ele>229.864868</ele>
      </trkpt>
      <trkpt lat="48.87605" lon="7.35211">
        <ele>243.850067</ele>
      </trkpt>
      <trkpt lat="48.87412" lon="7.34759">
        <ele>233.650116</ele>
      </trkpt>
      <trkpt lat="48.86933" lon="7.33464">
        <ele>253.399734</ele>
      </trkpt>
      <trkpt lat="48.86763" lon="7.33225">
        <ele>260.729767</ele>
      </trkpt>
      <trkpt lat="48.86282" lon="7.33043">
        <ele>288.369934</ele>
      </trkpt>
      <trkpt lat="48.85961" lon="7.3207">
        <ele>337.049652</ele>
      </trkpt>
      <trkpt lat="48.85667" lon="7.31823">
        <ele>344.537415</ele>
      </trkpt>
      <trkpt lat="48.85474" lon="7.31764">
        <ele>326.500641</ele>
      </trkpt>
      <trkpt lat="48.85454" lon="7.30991">
        <ele>247.087418</ele>
      </trkpt>
      <trkpt lat="48.85313" lon="7.30861">
        <ele>238.249832</ele>
      </trkpt>
      <trkpt lat="48.85288" lon="7.30436">
        <ele>259.326965</ele>
      </trkpt>
      <trkpt lat="48.85497" lon="7.29859">
        <ele>285.789215</ele>
      </trkpt>
      <trkpt lat="48.85456" lon="7.30193">
        <ele>264.188446</ele>
      </trkpt>
      <trkpt lat="48.85496" lon="7.30469">
        <ele>282.723907</ele>
      </trkpt>
      <trkpt lat="48.85653" lon="7.30655">
        <ele>302.999054</ele>
      </trkpt>
      <trkpt lat="48.85554" lon="7.30386">
        <ele>315.145355</ele>
      </trkpt>
      <trkpt lat="48.85604" lon="7.29831">
        <ele>339.49823</ele>
      </trkpt>
      <trkpt lat="48.85536" lon="7.29576">
        <ele>345.499603</ele>
      </trkpt>
      <trkpt lat="48.85182" lon="7.293">
        <ele>360.629913</ele>
      </trkpt>
      <trkpt lat="48.84634" lon="7.29288">
        <ele>361.157288</ele>
      </trkpt>
      <trkpt lat="48.84387" lon="7.27812">
        <ele>218.489929</ele>
      </trkpt>
      <trkpt lat="48.84455" lon="7.27579">
        <ele>218.100037</ele>
      </trkpt>
      <trkpt lat="48.84409" lon="7.27391">
        <ele>235.075394</ele>
      </trkpt>
      <trkpt lat="48.84336" lon="7.27684">
        <ele>222.947357</ele>
      </trkpt>
      <trkpt lat="48.83883" lon="7.27699">
        <ele>220.09993</ele>
      </trkpt>
      <trkpt lat="48.83585" lon="7.27988">
        <ele>216.050018</ele>
      </trkpt>
      <trkpt lat="48.83326" lon="7.27864">
        <ele>225.859161</ele>
      </trkpt>
      <trkpt lat="48.82565" lon="7.27931">
        <ele>224.151459</ele>
      </trkpt>
      <trkpt lat="48.82446" lon="7.28026">
        <ele>216.360046</ele>
      </trkpt>
      <trkpt lat="48.81951" lon="7.28029">
        <ele>206.750092</ele>
      </trkpt>
      <trkpt lat="48.81922" lon="7.28173">
        <ele>211.741287</ele>
      </trkpt>
      <trkpt lat="48.81651" lon="7.28458">
        <ele>208.83609</ele>
      </trkpt>
      <trkpt lat="48.81561" lon="7.28412">
        <ele>202.319443</ele>
      </trkpt>
      <trkpt lat="48.80627" lon="7.2942">
        <ele>204.760208</ele>
      </trkpt>
      <trkpt lat="48.80539" lon="7.29981">
        <ele>198.077011</ele>
      </trkpt>
      <trkpt lat="48.80175" lon="7.30655">
        <ele>195.174698</ele>
      </trkpt>
      <trkpt lat="48.79935" lon="7.30898">
        <ele>196.289536</ele>
      </trkpt>
      <trkpt lat="48.79826" lon="7.30765">
        <ele>195.145126</ele>
      </trkpt>
      <trkpt lat="48.79802" lon="7.30861">
        <ele>199.49939</ele>
      </trkpt>
      <trkpt lat="48.7981" lon="7.31036">
        <ele>196.499985</ele>
      </trkpt>
      <trkpt lat="48.79804" lon="7.31284">
        <ele>196.565002</ele>
      </trkpt>
      <trkpt lat="48.79885" lon="7.3214">
        <ele>196.503067</ele>
      </trkpt>
      <trkpt lat="48.79814" lon="7.33047">
        <ele>204.260696</ele>
      </trkpt>
      <trkpt lat="48.79627" lon="7.33411">
        <ele>213.401031</ele>
      </trkpt>
      <trkpt lat="48.79594" lon="7.33779">
        <ele>194.7798</ele>
      </trkpt>
      <trkpt lat="48.79755" lon="7.35403">
        <ele>195.199432</ele>
      </trkpt>
      <trkpt lat="48.80048" lon="7.36621">
        <ele>190.007446</ele>
      </trkpt>
      <trkpt lat="48.80053" lon="7.37248">
        <ele>191.145035</ele>
      </trkpt>
      <trkpt lat="48.80197" lon="7.38408">
        <ele>192.915405</ele>
      </trkpt>
      <trkpt lat="48.80382" lon="7.38879">
        <ele>191.20015</ele>
      </trkpt>
      <trkpt lat="48.80361" lon="7.39173">
        <ele>193.530075</ele>
      </trkpt>
      <trkpt lat="48.80247" lon="7.39466">
        <ele>190.149872</ele>
      </trkpt>
      <trkpt lat="48.80342" lon="7.38916">
        <ele>211.109985</ele>
      </trkpt>
      <trkpt lat="48.80087" lon="7.3852">
        <ele>236.951645</ele>
      </trkpt>
      <trkpt lat="48.79994" lon="7.37941">
        <ele>248.900284</ele>
      </trkpt>
      <trkpt lat="48.79915" lon="7.38438">
        <ele>273.199951</ele>
      </trkpt>
      <trkpt lat="48.7981" lon="7.37975">
        <ele>308.530182</ele>
      </trkpt>
      <trkpt lat="48.79757" lon="7.37854">
        <ele>315.69397</ele>
      </trkpt>
      <trkpt lat="48.79738" lon="7.38046">
        <ele>320.398651</ele>
      </trkpt>
      <trkpt lat="48.79061" lon="7.37541">
        <ele>356.710205</ele>
      </trkpt>
      <trkpt lat="48.78357" lon="7.37217">
        <ele>358.319885</ele>
      </trkpt>
      <trkpt lat="48.78031" lon="7.37042">
        <ele>347.979004</ele>
      </trkpt>
      <trkpt lat="48.78017" lon="7.36192">
        <ele>389.673828</ele>
      </trkpt>
      <trkpt lat="48.78084" lon="7.361">
        <ele>395.930023</ele>
      </trkpt>
      <trkpt lat="48.77803" lon="7.35136">
        <ele>401.220245</ele>
      </trkpt>
      <trkpt lat="48.77715" lon="7.35093">
        <ele>401.940125</ele>
      </trkpt>
      <trkpt lat="48.77598" lon="7.353">
        <ele>389.400055</ele>
      </trkpt>
      <trkpt lat="48.77532" lon="7.36281">
        <ele>371.561859</ele>
      </trkpt>
      <trkpt lat="48.77198" lon="7.35643">
        <ele>365.449799</ele>
      </trkpt>
      <trkpt lat="48.77222" lon="7.35134">
        <ele>409.709991</ele>
      </trkpt>
      <trkpt lat="48.76749" lon="7.34867">
        <ele>369.239471</ele>
      </trkpt>
      <trkpt lat="48.76621" lon="7.34548">
        <ele>374.260254</ele>
      </trkpt>
      <trkpt lat="48.76815" lon="7.34213">
        <ele>367.799011</ele>
      </trkpt>
      <trkpt lat="48.77306" lon="7.34359">
        <ele>394.598175</ele>
      </trkpt>
      <trkpt lat="48.77298" lon="7.33752">
        <ele>395.143341</ele>
      </trkpt>
      <trkpt lat="48.77248" lon="7.33505">
        <ele>369.436096</ele>
      </trkpt>
      <trkpt lat="48.77432" lon="7.32773">
        <ele>384.400513</ele>
      </trkpt>
      <trkpt lat="48.77387" lon="7.32595">
        <ele>372.420044</ele>
      </trkpt>
      <trkpt lat="48.77276" lon="7.32666">
        <ele>384.749817</ele>
      </trkpt>
      <trkpt lat="48.76906" lon="7.31728">
        <ele>378.100159</ele>
      </trkpt>
      <trkpt lat="48.7672" lon="7.317">
        <ele>381.650208</ele>
      </trkpt>
      <trkpt lat="48.76726" lon="7.31561">
        <ele>377.154938</ele>
      </trkpt>
      <trkpt lat="48.76174" lon="7.31089">
        <ele>339.72464</ele>
      </trkpt>
      <trkpt lat="48.76351" lon="7.31164">
        <ele>335.899872</ele>
      </trkpt>
      <trkpt lat="48.75789" lon="7.30334">
        <ele>302.599304</ele>
      </trkpt>
      <trkpt lat="48.7549" lon="7.29522">
        <ele>264.760468</ele>
      </trkpt>
      <trkpt lat="48.7525" lon="7.29325">
        <ele>271.950012</ele>
      </trkpt>
      <trkpt lat="48.73778" lon="7.28834">
        <ele>228.819366</ele>
      </trkpt>
      <trkpt lat="48.73197" lon="7.28796">
        <ele>211.24968</ele>
      </trkpt>
      <trkpt lat="48.72905" lon="7.29952">
        <ele>217.490204</ele>
      </trkpt>
      <trkpt lat="48.72776" lon="7.30032">
        <ele>213.679535</ele>
      </trkpt>
      <trkpt lat="48.72905" lon="7.30381">
        <ele>231.800018</ele>
      </trkpt>
      <trkpt lat="48.72667" lon="7.301">
        <ele>227.12178</ele>
      </trkpt>
      <trkpt lat="48.72464" lon="7.30536">
        <ele>221.617905</ele>
      </trkpt>
      <trkpt lat="48.7215" lon="7.30775">
        <ele>216.20076</ele>
      </trkpt>
      <trkpt lat="48.72106" lon="7.31193">
        <ele>208.600037</ele>
      </trkpt>
      <trkpt lat="48.72194" lon="7.31549">
        <ele>224.882034</ele>
      </trkpt>
      <trkpt lat="48.71984" lon="7.31399">
        <ele>209.199814</ele>
      </trkpt>
      <trkpt lat="48.7208" lon="7.32068">
        <ele>216.174728</ele>
      </trkpt>
      <trkpt lat="48.72151" lon="7.32045">
        <ele>210.550217</ele>
      </trkpt>
      <trkpt lat="48.72643" lon="7.33195">
        <ele>231.478485</ele>
      </trkpt>
      <trkpt lat="48.72965" lon="7.33569">
        <ele>254.749924</ele>
      </trkpt>
      <trkpt lat="48.73007" lon="7.34115">
        <ele>273.337891</ele>
      </trkpt>
      <trkpt lat="48.73364" lon="7.34782">
        <ele>274.144958</ele>
      </trkpt>
      <trkpt lat="48.73285" lon="7.34951">
        <ele>265.775177</ele>
      </trkpt>
      <trkpt lat="48.7275" lon="7.34512">
        <ele>287.340271</ele>
      </trkpt>
      <trkpt lat="48.71702" lon="7.33301">
        <ele>421.748901</ele>
      </trkpt>
      <trkpt lat="48.71172" lon="7.33165">
        <ele>421.599701</ele>
      </trkpt>
      <trkpt lat="48.71509" lon="7.33058">
        <ele>421.276459</ele>
      </trkpt>
      <trkpt lat="48.71287" lon="7.33037">
        <ele>415.994537</ele>
      </trkpt>
      <trkpt lat="48.71076" lon="7.32707">
        <ele>385.251312</ele>
      </trkpt>
      <trkpt lat="48.71499" lon="7.32064">
        <ele>369.854248</ele>
      </trkpt>
      <trkpt lat="48.71427" lon="7.31911">
        <ele>379.63916</ele>
      </trkpt>
      <trkpt lat="48.71101" lon="7.31784">
        <ele>381.351013</ele>
      </trkpt>
      <trkpt lat="48.71029" lon="7.3157">
        <ele>394.289185</ele>
      </trkpt>
      <trkpt lat="48.70782" lon="7.31505">
        <ele>401.889557</ele>
      </trkpt>
      <trkpt lat="48.69827" lon="7.32648">
        <ele>398.949829</ele>
      </trkpt>
      <trkpt lat="48.69622" lon="7.32544">
        <ele>383.460022</ele>
      </trkpt>
      <trkpt lat="48.69727" lon="7.32401">
        <ele>390.01062</ele>
      </trkpt>
      <trkpt lat="48.70074" lon="7.319">
        <ele>376.654022</ele>
      </trkpt>
      <trkpt lat="48.70141" lon="7.31597">
        <ele>383.499603</ele>
      </trkpt>
      <trkpt lat="48.70074" lon="7.31427">
        <ele>387.199524</ele>
      </trkpt>
      <trkpt lat="48.69857" lon="7.31382">
        <ele>411.612823</ele>
      </trkpt>
      <trkpt lat="48.69671" lon="7.31521">
        <ele>415.324799</ele>
      </trkpt>
      <trkpt lat="48.69476" lon="7.31196">
        <ele>426.689911</ele>
      </trkpt>
      <trkpt lat="48.69207" lon="7.31113">
        <ele>433.354706</ele>
      </trkpt>
      <trkpt lat="48.68833" lon="7.31067">
        <ele>446.49054</ele>
      </trkpt>
      <trkpt lat="48.68708" lon="7.31235">
        <ele>458.359192</ele>
      </trkpt>
      <trkpt lat="48.68404" lon="7.31077">
        <ele>463.030609</ele>
      </trkpt>
      <trkpt lat="48.67961" lon="7.31282">
        <ele>455.264648</ele>
      </trkpt>
      <trkpt lat="48.67519" lon="7.31193">
        <ele>456.067291</ele>
      </trkpt>
      <trkpt lat="48.67379" lon="7.30547">
        <ele>471.127777</ele>
      </trkpt>
      <trkpt lat="48.67424" lon="7.30398">
        <ele>497.499084</ele>
      </trkpt>
      <trkpt lat="48.67197" lon="7.3006">
        <ele>481.878387</ele>
      </trkpt>
      <trkpt lat="48.67247" lon="7.29667">
        <ele>522.839172</ele>
      </trkpt>
      <trkpt lat="48.67034" lon="7.29484">
        <ele>490.881927</ele>
      </trkpt>
      <trkpt lat="48.6688" lon="7.28871">
        <ele>513.31958</ele>
      </trkpt>
      <trkpt lat="48.66562" lon="7.2883">
        <ele>500.049408</ele>
      </trkpt>
      <trkpt lat="48.66917" lon="7.29483">
        <ele>443.169952</ele>
      </trkpt>
      <trkpt lat="48.66975" lon="7.29978">
        <ele>390.815155</ele>
      </trkpt>
      <trkpt lat="48.66924" lon="7.30194">
        <ele>373.799805</ele>
      </trkpt>
      <trkpt lat="48.6635" lon="7.30013">
        <ele>453.727478</ele>
      </trkpt>
      <trkpt lat="48.66787" lon="7.30388">
        <ele>445.294189</ele>
      </trkpt>
      <trkpt lat="48.66953" lon="7.30832">
        <ele>437.251068</ele>
      </trkpt>
      <trkpt lat="48.66931" lon="7.31102">
        <ele>452.300293</ele>
      </trkpt>
      <trkpt lat="48.66399" lon="7.31102">
        <ele>466.341583</ele>
      </trkpt>
      <trkpt lat="48.66211" lon="7.30765">
        <ele>528.080811</ele>
      </trkpt>
      <trkpt lat="48.6601" lon="7.30776">
        <ele>495.411224</ele>
      </trkpt>
      <trkpt lat="48.65764" lon="7.30508">
        <ele>534.705688</ele>
      </trkpt>
      <trkpt lat="48.65563" lon="7.30591">
        <ele>506.400879</ele>
      </trkpt>
      <trkpt lat="48.65337" lon="7.30219">
        <ele>513.401917</ele>
      </trkpt>
      <trkpt lat="48.65155" lon="7.30226">
        <ele>509.436279</ele>
      </trkpt>
      <trkpt lat="48.6498" lon="7.29893">
        <ele>503.170105</ele>
      </trkpt>
      <trkpt lat="48.64894" lon="7.30112">
        <ele>493.06955</ele>
      </trkpt>
      <trkpt lat="48.64582" lon="7.30361">
        <ele>464.599365</ele>
      </trkpt>
      <trkpt lat="48.64199" lon="7.30406">
        <ele>470.150635</ele>
      </trkpt>
      <trkpt lat="48.64136" lon="7.30237">
        <ele>467.097229</ele>
      </trkpt>
      <trkpt lat="48.64132" lon="7.29751">
        <ele>473.640533</ele>
      </trkpt>
      <trkpt lat="48.63828" lon="7.29926">
        <ele>479.800385</ele>
      </trkpt>
      <trkpt lat="48.63644" lon="7.29521">
        <ele>484.27652</ele>
      </trkpt>
      <trkpt lat="48.63914" lon="7.28881">
        <ele>487.410461</ele>
      </trkpt>
      <trkpt lat="48.63516" lon="7.28918">
        <ele>469.838959</ele>
      </trkpt>
      <trkpt lat="48.63456" lon="7.28688">
        <ele>474.799042</ele>
      </trkpt>
      <trkpt lat="48.63254" lon="7.284">
        <ele>464.95816</ele>
      </trkpt>
      <trkpt lat="48.63011" lon="7.28248">
        <ele>445.520325</ele>
      </trkpt>
      <trkpt lat="48.62847" lon="7.27947">
        <ele>454.119751</ele>
      </trkpt>
      <trkpt lat="48.62641" lon="7.27924">
        <ele>477.198669</ele>
      </trkpt>
      <trkpt lat="48.62945" lon="7.28313">
        <ele>462.859283</ele>
      </trkpt>
      <trkpt lat="48.63049" lon="7.29209">
        <ele>531.961792</ele>
      </trkpt>
      <trkpt lat="48.6299" lon="7.29917">
        <ele>493.700012</ele>
      </trkpt>
      <trkpt lat="48.628" lon="7.29845">
        <ele>499.605865</ele>
      </trkpt>
      <trkpt lat="48.62541" lon="7.30329">
        <ele>485.010651</ele>
      </trkpt>
      <trkpt lat="48.62274" lon="7.30416">
        <ele>486.28949</ele>
      </trkpt>
      <trkpt lat="48.61988" lon="7.29964">
        <ele>535.280701</ele>
      </trkpt>
      <trkpt lat="48.61636" lon="7.29679">
        <ele>535.823303</ele>
      </trkpt>
      <trkpt lat="48.61246" lon="7.28831">
        <ele>578.535645</ele>
      </trkpt>
      <trkpt lat="48.61104" lon="7.29415">
        <ele>601.100159</ele>
      </trkpt>
      <trkpt lat="48.60611" lon="7.29422">
        <ele>630.670227</ele>
      </trkpt>
      <trkpt lat="48.60533" lon="7.29554">
        <ele>645.275208</ele>
      </trkpt>
      <trkpt lat="48.60606" lon="7.30016">
        <ele>664.773315</ele>
      </trkpt>
      <trkpt lat="48.60517" lon="7.30194">
        <ele>655.499084</ele>
      </trkpt>
      <trkpt lat="48.60359" lon="7.3022">
        <ele>646.948425</ele>
      </trkpt>
      <trkpt lat="48.5991" lon="7.29922">
        <ele>695.80011</ele>
      </trkpt>
      <trkpt lat="48.59553" lon="7.30577">
        <ele>669.87915</ele>
      </trkpt>
      <trkpt lat="48.59883" lon="7.30833">
        <ele>659.249756</ele>
      </trkpt>
      <trkpt lat="48.59654" lon="7.3128">
        <ele>636.198914</ele>
      </trkpt>
      <trkpt lat="48.59042" lon="7.31483">
        <ele>672.450439</ele>
      </trkpt>
      <trkpt lat="48.58828" lon="7.31645">
        <ele>654.209656</ele>
      </trkpt>
      <trkpt lat="48.58143" lon="7.31186">
        <ele>595.075928</ele>
      </trkpt>
      <trkpt lat="48.57879" lon="7.31365">
        <ele>572.999451</ele>
      </trkpt>
      <trkpt lat="48.57703" lon="7.31002">
        <ele>544.500122</ele>
      </trkpt>
      <trkpt lat="48.5736" lon="7.30955">
        <ele>519.29248</ele>
      </trkpt>
      <trkpt lat="48.57212" lon="7.30945">
        <ele>508.724854</ele>
      </trkpt>
      <trkpt lat="48.57007" lon="7.31315">
        <ele>496.225983</ele>
      </trkpt>
      <trkpt lat="48.5676" lon="7.3119">
        <ele>480.812286</ele>
      </trkpt>
      <trkpt lat="48.56445" lon="7.31238">
        <ele>443.400665</ele>
      </trkpt>
      <trkpt lat="48.56321" lon="7.31518">
        <ele>426.360657</ele>
      </trkpt>
      <trkpt lat="48.56067" lon="7.31398">
        <ele>404.699219</ele>
      </trkpt>
      <trkpt lat="48.55375" lon="7.3216">
        <ele>342.599365</ele>
      </trkpt>
      <trkpt lat="48.55585" lon="7.31495">
        <ele>305.7005</ele>
      </trkpt>
      <trkpt lat="48.55217" lon="7.3207">
        <ele>283.579834</ele>
      </trkpt>
      <trkpt lat="48.55067" lon="7.32422">
        <ele>272.620178</ele>
      </trkpt>
      <trkpt lat="48.54884" lon="7.31679">
        <ele>308.450104</ele>
      </trkpt>
      <trkpt lat="48.54744" lon="7.30943">
        <ele>336.687531</ele>
      </trkpt>
      <trkpt lat="48.54451" lon="7.31051">
        <ele>332.327209</ele>
      </trkpt>
      <trkpt lat="48.54157" lon="7.30595">
        <ele>310.030212</ele>
      </trkpt>
      <trkpt lat="48.54193" lon="7.29904">
        <ele>311.858276</ele>
      </trkpt>
      <trkpt lat="48.54278" lon="7.29752">
        <ele>314.679779</ele>
      </trkpt>
      <trkpt lat="48.54141" lon="7.29851">
        <ele>312.229919</ele>
      </trkpt>
      <trkpt lat="48.54013" lon="7.30487">
        <ele>298.600342</ele>
      </trkpt>
      <trkpt lat="48.53804" lon="7.31396">
        <ele>276.120178</ele>
      </trkpt>
      <trkpt lat="48.52915" lon="7.31742">
        <ele>259.73999</ele>
      </trkpt>
      <trkpt lat="48.528" lon="7.3228">
        <ele>244.229874</ele>
      </trkpt>
      <trkpt lat="48.52677" lon="7.32434">
        <ele>239.049866</ele>
      </trkpt>
      <trkpt lat="48.52604" lon="7.32888">
        <ele>239.549957</ele>
      </trkpt>
      <trkpt lat="48.52465" lon="7.32821">
        <ele>237.399963</ele>
      </trkpt>
      <trkpt lat="48.52141" lon="7.32868">
        <ele>241.999496</ele>
      </trkpt>
      <trkpt lat="48.51999" lon="7.30939">
        <ele>252.074783</ele>
      </trkpt>
      <trkpt lat="48.51745" lon="7.30288">
        <ele>263.099426</ele>
      </trkpt>
      <trkpt lat="48.51666" lon="7.29755">
        <ele>257.400208</ele>
      </trkpt>
      <trkpt lat="48.51012" lon="7.30147">
        <ele>327.742004</ele>
      </trkpt>
      <trkpt lat="48.50532" lon="7.30108">
        <ele>396.481995</ele>
      </trkpt>
      <trkpt lat="48.49968" lon="7.30613">
        <ele>487.321075</ele>
      </trkpt>
      <trkpt lat="48.49904" lon="7.31386">
        <ele>543.64032</ele>
      </trkpt>
      <trkpt lat="48.49441" lon="7.31776">
        <ele>528.080688</ele>
      </trkpt>
      <trkpt lat="48.49242" lon="7.3233">
        <ele>515.509949</ele>
      </trkpt>
      <trkpt lat="48.49101" lon="7.31991">
        <ele>545.499939</ele>
      </trkpt>
      <trkpt lat="48.49146" lon="7.31528">
        <ele>576.850098</ele>
      </trkpt>
      <trkpt lat="48.48902" lon="7.30942">
        <ele>630.637329</ele>
      </trkpt>
      <trkpt lat="48.48793" lon="7.3125">
        <ele>633.439636</ele>
      </trkpt>
      <trkpt lat="48.48553" lon="7.3014">
        <ele>688.529968</ele>
      </trkpt>
      <trkpt lat="48.48034" lon="7.29948">
        <ele>719.400269</ele>
      </trkpt>
      <trkpt lat="48.47803" lon="7.30526">
        <ele>719.862732</ele>
      </trkpt>
      <trkpt lat="48.47892" lon="7.31025">
        <ele>658.599487</ele>
      </trkpt>
      <trkpt lat="48.47743" lon="7.30835">
        <ele>672.859985</ele>
      </trkpt>
      <trkpt lat="48.47425" lon="7.31316">
        <ele>651.925171</ele>
      </trkpt>
      <trkpt lat="48.47494" lon="7.31506">
        <ele>643.450073</ele>
      </trkpt>
      <trkpt lat="48.4707" lon="7.31662">
        <ele>683.234619</ele>
      </trkpt>
      <trkpt lat="48.46826" lon="7.31205">
        <ele>698.765381</ele>
      </trkpt>
      <trkpt lat="48.46477" lon="7.31151">
        <ele>681.920532</ele>
      </trkpt>
      <trkpt lat="48.46473" lon="7.31581">
        <ele>670.199951</ele>
      </trkpt>
      <trkpt lat="48.46203" lon="7.31552">
        <ele>660.579407</ele>
      </trkpt>
      <trkpt lat="48.46072" lon="7.3178">
        <ele>649.000549</ele>
      </trkpt>
      <trkpt lat="48.45706" lon="7.31714">
        <ele>644.485168</ele>
      </trkpt>
      <trkpt lat="48.45664" lon="7.31852">
        <ele>638.649902</ele>
      </trkpt>
      <trkpt lat="48.45824" lon="7.32067">
        <ele>633.350891</ele>
      </trkpt>
      <trkpt lat="48.46472" lon="7.31977">
        <ele>600.465027</ele>
      </trkpt>
      <trkpt lat="48.46867" lon="7.32418">
        <ele>596.80011</ele>
      </trkpt>
      <trkpt lat="48.47324" lon="7.32258">
        <ele>599.899353</ele>
      </trkpt>
      <trkpt lat="48.47937" lon="7.32466">
        <ele>638.799988</ele>
      </trkpt>
      <trkpt lat="48.48058" lon="7.32755">
        <ele>640.399536</ele>
      </trkpt>
      <trkpt lat="48.48351" lon="7.32526">
        <ele>634.799377</ele>
      </trkpt>
      <trkpt lat="48.48654" lon="7.33239">
        <ele>629.920349</ele>
      </trkpt>
      <trkpt lat="48.48286" lon="7.34284">
        <ele>611.998901</ele>
      </trkpt>
      <trkpt lat="48.48533" lon="7.35094">
        <ele>561.287842</ele>
      </trkpt>
      <trkpt lat="48.48228" lon="7.35281">
        <ele>556.898193</ele>
      </trkpt>
      <trkpt lat="48.48144" lon="7.35971">
        <ele>538.279907</ele>
      </trkpt>
      <trkpt lat="48.4789" lon="7.35981">
        <ele>520.658875</ele>
      </trkpt>
      <trkpt lat="48.47845" lon="7.36457">
        <ele>496.323212</ele>
      </trkpt>
      <trkpt lat="48.47958" lon="7.37075">
        <ele>455.352051</ele>
      </trkpt>
      <trkpt lat="48.48107" lon="7.37909">
        <ele>407.099335</ele>
      </trkpt>
      <trkpt lat="48.4845" lon="7.38521">
        <ele>394.583893</ele>
      </trkpt>
      <trkpt lat="48.48822" lon="7.38682">
        <ele>372.351196</ele>
      </trkpt>
      <trkpt lat="48.48314" lon="7.39816">
        <ele>371.35025</ele>
      </trkpt>
      <trkpt lat="48.47798" lon="7.39959">
        <ele>387.329071</ele>
      </trkpt>
      <trkpt lat="48.47794" lon="7.40128">
        <ele>368.600159</ele>
      </trkpt>
      <trkpt lat="48.47388" lon="7.40176">
        <ele>405.450226</ele>
      </trkpt>
      <trkpt lat="48.47004" lon="7.40427">
        <ele>374.185577</ele>
      </trkpt>
      <trkpt lat="48.46839" lon="7.40069">
        <ele>377.080353</ele>
      </trkpt>
      <trkpt lat="48.46908" lon="7.3971">
        <ele>388.040802</ele>
      </trkpt>
      <trkpt lat="48.46796" lon="7.39343">
        <ele>402.390076</ele>
      </trkpt>
      <trkpt lat="48.46658" lon="7.39096">
        <ele>389.861176</ele>
      </trkpt>
      <trkpt lat="48.4672" lon="7.3938">
        <ele>348.75058</ele>
      </trkpt>
      <trkpt lat="48.46608" lon="7.39318">
        <ele>322.150024</ele>
      </trkpt>
      <trkpt lat="48.46744" lon="7.39647">
        <ele>320.164337</ele>
      </trkpt>
      <trkpt lat="48.46695" lon="7.40214">
        <ele>298.790314</ele>
      </trkpt>
      <trkpt lat="48.46786" lon="7.40931">
        <ele>310.399292</ele>
      </trkpt>
      <trkpt lat="48.46331" lon="7.41611">
        <ele>327.365204</ele>
      </trkpt>
      <trkpt lat="48.46116" lon="7.41634">
        <ele>327.83017</ele>
      </trkpt>
      <trkpt lat="48.46046" lon="7.41956">
        <ele>331.640045</ele>
      </trkpt>
      <trkpt lat="48.45965" lon="7.41271">
        <ele>375.940155</ele>
      </trkpt>
      <trkpt lat="48.45779" lon="7.41463">
        <ele>385.636749</ele>
      </trkpt>
      <trkpt lat="48.45434" lon="7.41155">
        <ele>403.429932</ele>
      </trkpt>
      <trkpt lat="48.4537" lon="7.4144">
        <ele>412.984833</ele>
      </trkpt>
      <trkpt lat="48.4502" lon="7.41677">
        <ele>438.299744</ele>
      </trkpt>
      <trkpt lat="48.44918" lon="7.41633">
        <ele>446.670654</ele>
      </trkpt>
      <trkpt lat="48.44791" lon="7.41231">
        <ele>482.998444</ele>
      </trkpt>
      <trkpt lat="48.44417" lon="7.40619">
        <ele>455.960236</ele>
      </trkpt>
      <trkpt lat="48.44235" lon="7.40185">
        <ele>497.575684</ele>
      </trkpt>
      <trkpt lat="48.44109" lon="7.41067">
        <ele>550.180359</ele>
      </trkpt>
      <trkpt lat="48.43967" lon="7.41134">
        <ele>572.750488</ele>
      </trkpt>
      <trkpt lat="48.4351" lon="7.40552">
        <ele>630.419617</ele>
      </trkpt>
      <trkpt lat="48.43236" lon="7.40535">
        <ele>659.269043</ele>
      </trkpt>
      <trkpt lat="48.43281" lon="7.40793">
        <ele>621.608521</ele>
      </trkpt>
      <trkpt lat="48.43117" lon="7.41349">
        <ele>621.229492</ele>
      </trkpt>
      <trkpt lat="48.43133" lon="7.41405">
        <ele>623.006531</ele>
      </trkpt>
      <trkpt lat="48.43266" lon="7.4177">
        <ele>647.430115</ele>
      </trkpt>
      <trkpt lat="48.42934" lon="7.4143">
        <ele>724.349243</ele>
      </trkpt>
      <trkpt lat="48.42934" lon="7.40997">
        <ele>749.074219</ele>
      </trkpt>
      <trkpt lat="48.43056" lon="7.40775">
        <ele>754.435425</ele>
      </trkpt>
      <trkpt lat="48.42993" lon="7.40474">
        <ele>753.288818</ele>
      </trkpt>
      <trkpt lat="48.4332" lon="7.40242">
        <ele>751.960449</ele>
      </trkpt>
      <trkpt lat="48.43677" lon="7.40372">
        <ele>761.409912</ele>
      </trkpt>
      <trkpt lat="48.43098" lon="7.39909">
        <ele>721.940491</ele>
      </trkpt>
      <trkpt lat="48.43264" lon="7.39357">
        <ele>683.341064</ele>
      </trkpt>
      <trkpt lat="48.42981" lon="7.39444">
        <ele>683.78125</ele>
      </trkpt>
      <trkpt lat="48.42738" lon="7.39428">
        <ele>677.698975</ele>
      </trkpt>
      <trkpt lat="48.42742" lon="7.39766">
        <ele>691.338623</ele>
      </trkpt>
      <trkpt lat="48.42435" lon="7.39723">
        <ele>685.000427</ele>
      </trkpt>
      <trkpt lat="48.42454" lon="7.39319">
        <ele>677.899231</ele>
      </trkpt>
      <trkpt lat="48.42415" lon="7.39078">
        <ele>675.900879</ele>
      </trkpt>
      <trkpt lat="48.42694" lon="7.38831">
        <ele>659.000244</ele>
      </trkpt>
      <trkpt lat="48.42845" lon="7.38453">
        <ele>666.172791</ele>
      </trkpt>
      <trkpt lat="48.4259" lon="7.38405">
        <ele>696.204041</ele>
      </trkpt>
      <trkpt lat="48.42669" lon="7.38037">
        <ele>703.26239</ele>
      </trkpt>
      <trkpt lat="48.42818" lon="7.37872">
        <ele>690.700623</ele>
      </trkpt>
      <trkpt lat="48.42699" lon="7.37072">
        <ele>688.600342</ele>
      </trkpt>
      <trkpt lat="48.43007" lon="7.36665">
        <ele>722.600952</ele>
      </trkpt>
      <trkpt lat="48.42787" lon="7.36647">
        <ele>747.007385</ele>
      </trkpt>
      <trkpt lat="48.42526" lon="7.36385">
        <ele>774.034729</ele>
      </trkpt>
      <trkpt lat="48.42552" lon="7.35867">
        <ele>796.680054</ele>
      </trkpt>
      <trkpt lat="48.42307" lon="7.3538">
        <ele>806.900696</ele>
      </trkpt>
      <trkpt lat="48.42266" lon="7.35342">
        <ele>807.700256</ele>
      </trkpt>
      <trkpt lat="48.41713" lon="7.35062">
        <ele>795.86084</ele>
      </trkpt>
      <trkpt lat="48.41574" lon="7.34775">
        <ele>791.699219</ele>
      </trkpt>
      <trkpt lat="48.41422" lon="7.34845">
        <ele>776.747253</ele>
      </trkpt>
      <trkpt lat="48.41421" lon="7.3455">
        <ele>760.099731</ele>
      </trkpt>
      <trkpt lat="48.41652" lon="7.34004">
        <ele>723.209595</ele>
      </trkpt>
      <trkpt lat="48.41462" lon="7.34189">
        <ele>703.200867</ele>
      </trkpt>
      <trkpt lat="48.41125" lon="7.34153">
        <ele>651.320068</ele>
      </trkpt>
      <trkpt lat="48.4091" lon="7.34302">
        <ele>629.68689</ele>
      </trkpt>
      <trkpt lat="48.40236" lon="7.33838">
        <ele>559.657898</ele>
      </trkpt>
      <trkpt lat="48.40167" lon="7.33436">
        <ele>556.149719</ele>
      </trkpt>
      <trkpt lat="48.40315" lon="7.3302">
        <ele>568.207581</ele>
      </trkpt>
      <trkpt lat="48.40029" lon="7.32807">
        <ele>592.39978</ele>
      </trkpt>
      <trkpt lat="48.40061" lon="7.32052">
        <ele>636.899658</ele>
      </trkpt>
      <trkpt lat="48.39998" lon="7.32168">
        <ele>634.40033</ele>
      </trkpt>
      <trkpt lat="48.39702" lon="7.3212">
        <ele>634.200195</ele>
      </trkpt>
      <trkpt lat="48.39406" lon="7.31882">
        <ele>677.039673</ele>
      </trkpt>
      <trkpt lat="48.38867" lon="7.31803">
        <ele>741.598389</ele>
      </trkpt>
      <trkpt lat="48.38714" lon="7.3185">
        <ele>749.319275</ele>
      </trkpt>
      <trkpt lat="48.38724" lon="7.32354">
        <ele>748.334717</ele>
      </trkpt>
      <trkpt lat="48.3848" lon="7.31726">
        <ele>804.841248</ele>
      </trkpt>
      <trkpt lat="48.38276" lon="7.3171">
        <ele>810.835205</ele>
      </trkpt>
      <trkpt lat="48.38085" lon="7.32131">
        <ele>772.525818</ele>
      </trkpt>
      <trkpt lat="48.38072" lon="7.32644">
        <ele>749.889954</ele>
      </trkpt>
      <trkpt lat="48.37586" lon="7.33605">
        <ele>714.04895</ele>
      </trkpt>
      <trkpt lat="48.37399" lon="7.34828">
        <ele>708.481567</ele>
      </trkpt>
      <trkpt lat="48.37098" lon="7.35052">
        <ele>678.56543</ele>
      </trkpt>
      <trkpt lat="48.37024" lon="7.35644">
        <ele>661.000488</ele>
      </trkpt>
      <trkpt lat="48.3681" lon="7.35802">
        <ele>675.129211</ele>
      </trkpt>
      <trkpt lat="48.36716" lon="7.36091">
        <ele>663.878235</ele>
      </trkpt>
      <trkpt lat="48.36415" lon="7.36863">
        <ele>595.0802</ele>
      </trkpt>
      <trkpt lat="48.36278" lon="7.36917">
        <ele>586.62915</ele>
      </trkpt>
      <trkpt lat="48.3612" lon="7.36773">
        <ele>576.599731</ele>
      </trkpt>
      <trkpt lat="48.35756" lon="7.3737">
        <ele>514.313171</ele>
      </trkpt>
      <trkpt lat="48.35409" lon="7.37334">
        <ele>490.600739</ele>
      </trkpt>
      <trkpt lat="48.35296" lon="7.37326">
        <ele>468.12558</ele>
      </trkpt>
      <trkpt lat="48.35451" lon="7.37831">
        <ele>439.800018</ele>
      </trkpt>
      <trkpt lat="48.35253" lon="7.38174">
        <ele>429.943817</ele>
      </trkpt>
      <trkpt lat="48.35242" lon="7.38909">
        <ele>403.599945</ele>
      </trkpt>
      <trkpt lat="48.35156" lon="7.39077">
        <ele>394.564636</ele>
      </trkpt>
      <trkpt lat="48.35121" lon="7.38891">
        <ele>405.385376</ele>
      </trkpt>
      <trkpt lat="48.34985" lon="7.38979">
        <ele>396.804779</ele>
      </trkpt>
      <trkpt lat="48.34677" lon="7.38747">
        <ele>367.415497</ele>
      </trkpt>
      <trkpt lat="48.34643" lon="7.39182">
        <ele>346.837616</ele>
      </trkpt>
      <trkpt lat="48.34126" lon="7.38666">
        <ele>388.500488</ele>
      </trkpt>
      <trkpt lat="48.34094" lon="7.38636">
        <ele>385.177124</ele>
      </trkpt>
      <trkpt lat="48.34059" lon="7.3914">
        <ele>397.875275</ele>
      </trkpt>
      <trkpt lat="48.33729" lon="7.3905">
        <ele>425.475037</ele>
      </trkpt>
      <trkpt lat="48.33551" lon="7.39276">
        <ele>439.260406</ele>
      </trkpt>
      <trkpt lat="48.33369" lon="7.3909">
        <ele>456.598877</ele>
      </trkpt>
      <trkpt lat="48.33148" lon="7.39153">
        <ele>453.834778</ele>
      </trkpt>
      <trkpt lat="48.32895" lon="7.39547">
        <ele>495.320099</ele>
      </trkpt>
      <trkpt lat="48.32686" lon="7.39379">
        <ele>524.650574</ele>
      </trkpt>
      <trkpt lat="48.32358" lon="7.39516">
        <ele>551.638</ele>
      </trkpt>
      <trkpt lat="48.32018" lon="7.4003">
        <ele>545.076477</ele>
      </trkpt>
      <trkpt lat="48.31789" lon="7.399">
        <ele>533.232361</ele>
      </trkpt>
      <trkpt lat="48.31554" lon="7.40191">
        <ele>546.176025</ele>
      </trkpt>
      <trkpt lat="48.3137" lon="7.39964">
        <ele>526.120056</ele>
      </trkpt>
      <trkpt lat="48.31199" lon="7.39272">
        <ele>493.520111</ele>
      </trkpt>
      <trkpt lat="48.31166" lon="7.39566">
        <ele>473.97052</ele>
      </trkpt>
      <trkpt lat="48.30852" lon="7.39343">
        <ele>442.086945</ele>
      </trkpt>
      <trkpt lat="48.30498" lon="7.39927">
        <ele>390.660126</ele>
      </trkpt>
      <trkpt lat="48.30418" lon="7.39902">
        <ele>367.383698</ele>
      </trkpt>
      <trkpt lat="48.30403" lon="7.39658">
        <ele>407.876923</ele>
      </trkpt>
      <trkpt lat="48.29803" lon="7.39222">
        <ele>442.031464</ele>
      </trkpt>
      <trkpt lat="48.29837" lon="7.38995">
        <ele>446.924744</ele>
      </trkpt>
      <trkpt lat="48.30067" lon="7.39146">
        <ele>453.29422</ele>
      </trkpt>
      <trkpt lat="48.30206" lon="7.39072">
        <ele>449.335022</ele>
      </trkpt>
      <trkpt lat="48.30176" lon="7.38805">
        <ele>397.97583</ele>
      </trkpt>
      <trkpt lat="48.30758" lon="7.38892">
        <ele>369.499481</ele>
      </trkpt>
      <trkpt lat="48.30536" lon="7.38513">
        <ele>361.937317</ele>
      </trkpt>
      <trkpt lat="48.29519" lon="7.3749">
        <ele>268.520721</ele>
      </trkpt>
      <trkpt lat="48.29384" lon="7.37109">
        <ele>241.185074</ele>
      </trkpt>
      <trkpt lat="48.29255" lon="7.37765">
        <ele>212.810303</ele>
      </trkpt>
      <trkpt lat="48.29214" lon="7.37973">
        <ele>216.300323</ele>
      </trkpt>
      <trkpt lat="48.29119" lon="7.37988">
        <ele>208.349609</ele>
      </trkpt>
      <trkpt lat="48.29047" lon="7.38784">
        <ele>200.736389</ele>
      </trkpt>
      <trkpt lat="48.28801" lon="7.3927">
        <ele>195.219727</ele>
      </trkpt>
      <trkpt lat="48.28775" lon="7.4028">
        <ele>193.200058</ele>
      </trkpt>
      <trkpt lat="48.27822" lon="7.40195">
        <ele>192</ele>
      </trkpt>
      <trkpt lat="48.27298" lon="7.39901">
        <ele>193.579926</ele>
      </trkpt>
      <trkpt lat="48.26906" lon="7.40005">
        <ele>193.280121</ele>
      </trkpt>
      <trkpt lat="48.26859" lon="7.39643">
        <ele>209.400345</ele>
      </trkpt>
      <trkpt lat="48.27606" lon="7.3933">
        <ele>276.858917</ele>
      </trkpt>
      <trkpt lat="48.26996" lon="7.39072">
        <ele>339.605713</ele>
      </trkpt>
      <trkpt lat="48.26572" lon="7.39129">
        <ele>315.91571</ele>
      </trkpt>
      <trkpt lat="48.26168" lon="7.38689">
        <ele>371.636383</ele>
      </trkpt>
      <trkpt lat="48.25946" lon="7.38246">
        <ele>388.781616</ele>
      </trkpt>
      <trkpt lat="48.26262" lon="7.38006">
        <ele>398.439575</ele>
      </trkpt>
      <trkpt lat="48.26136" lon="7.37539">
        <ele>397.597321</ele>
      </trkpt>
      <trkpt lat="48.26042" lon="7.37429">
        <ele>394.984985</ele>
      </trkpt>
      <trkpt lat="48.26032" lon="7.36966">
        <ele>376.900085</ele>
      </trkpt>
      <trkpt lat="48.25919" lon="7.36827">
        <ele>371.605682</ele>
      </trkpt>
      <trkpt lat="48.25777" lon="7.37022">
        <ele>386.340027</ele>
      </trkpt>
      <trkpt lat="48.25522" lon="7.36684">
        <ele>406.020203</ele>
      </trkpt>
      <trkpt lat="48.25375" lon="7.35837">
        <ele>419.778961</ele>
      </trkpt>
      <trkpt lat="48.25187" lon="7.35616">
        <ele>400.629791</ele>
      </trkpt>
      <trkpt lat="48.25299" lon="7.35512">
        <ele>408.505768</ele>
      </trkpt>
      <trkpt lat="48.25244" lon="7.35217">
        <ele>425.680908</ele>
      </trkpt>
      <trkpt lat="48.25493" lon="7.352">
        <ele>422.020111</ele>
      </trkpt>
      <trkpt lat="48.2575" lon="7.34824">
        <ele>374.349365</ele>
      </trkpt>
      <trkpt lat="48.25682" lon="7.34355">
        <ele>390.600464</ele>
      </trkpt>
      <trkpt lat="48.25577" lon="7.34011">
        <ele>403.289948</ele>
      </trkpt>
      <trkpt lat="48.25753" lon="7.33468">
        <ele>413.250244</ele>
      </trkpt>
      <trkpt lat="48.25745" lon="7.33177">
        <ele>413.05011</ele>
      </trkpt>
      <trkpt lat="48.25766" lon="7.33068">
        <ele>400.939301</ele>
      </trkpt>
      <trkpt lat="48.25612" lon="7.32969">
        <ele>395.620056</ele>
      </trkpt>
      <trkpt lat="48.25484" lon="7.33065">
        <ele>407.857971</ele>
      </trkpt>
      <trkpt lat="48.25401" lon="7.33974">
        <ele>474.799194</ele>
      </trkpt>
      <trkpt lat="48.25237" lon="7.33426">
        <ele>509.750122</ele>
      </trkpt>
      <trkpt lat="48.25014" lon="7.33155">
        <ele>540.640869</ele>
      </trkpt>
      <trkpt lat="48.2483" lon="7.33198">
        <ele>584.398376</ele>
      </trkpt>
      <trkpt lat="48.24568" lon="7.3296">
        <ele>587.719849</ele>
      </trkpt>
      <trkpt lat="48.24412" lon="7.32689">
        <ele>579.499756</ele>
      </trkpt>
      <trkpt lat="48.24375" lon="7.32345">
        <ele>590.041992</ele>
      </trkpt>
      <trkpt lat="48.24453" lon="7.32309">
        <ele>584.230408</ele>
      </trkpt>
      <trkpt lat="48.24449" lon="7.32039">
        <ele>600.820679</ele>
      </trkpt>
      <trkpt lat="48.24247" lon="7.31821">
        <ele>637.599548</ele>
      </trkpt>
      <trkpt lat="48.24065" lon="7.31014">
        <ele>624.490967</ele>
      </trkpt>
      <trkpt lat="48.24442" lon="7.30028">
        <ele>658.249084</ele>
      </trkpt>
      <trkpt lat="48.24286" lon="7.29079">
        <ele>686.800354</ele>
      </trkpt>
      <trkpt lat="48.24574" lon="7.28547">
        <ele>705.291199</ele>
      </trkpt>
      <trkpt lat="48.24377" lon="7.27709">
        <ele>747.460632</ele>
      </trkpt>
      <trkpt lat="48.2416" lon="7.27463">
        <ele>768.652405</ele>
      </trkpt>
      <trkpt lat="48.2372" lon="7.26042">
        <ele>885.116089</ele>
      </trkpt>
      <trkpt lat="48.23835" lon="7.25497">
        <ele>847.54834</ele>
      </trkpt>
      <trkpt lat="48.23704" lon="7.25232">
        <ele>826.579834</ele>
      </trkpt>
      <trkpt lat="48.23454" lon="7.24962">
        <ele>807.501465</ele>
      </trkpt>
      <trkpt lat="48.23482" lon="7.24307">
        <ele>761.500061</ele>
      </trkpt>
      <trkpt lat="48.23359" lon="7.23419">
        <ele>738.376526</ele>
      </trkpt>
      <trkpt lat="48.22892" lon="7.23494">
        <ele>735.249878</ele>
      </trkpt>
      <trkpt lat="48.22892" lon="7.23113">
        <ele>749.88031</ele>
      </trkpt>
      <trkpt lat="48.22675" lon="7.2317">
        <ele>744.86261</ele>
      </trkpt>
      <trkpt lat="48.22625" lon="7.22933">
        <ele>745.299133</ele>
      </trkpt>
      <trkpt lat="48.22553" lon="7.23186">
        <ele>757.765381</ele>
      </trkpt>
      <trkpt lat="48.22285" lon="7.23036">
        <ele>780.999878</ele>
      </trkpt>
      <trkpt lat="48.22144" lon="7.2306">
        <ele>786.311707</ele>
      </trkpt>
      <trkpt lat="48.2209" lon="7.22731">
        <ele>797.137756</ele>
      </trkpt>
      <trkpt lat="48.22239" lon="7.22304">
        <ele>799.64856</ele>
      </trkpt>
      <trkpt lat="48.22191" lon="7.21922">
        <ele>802.400146</ele>
      </trkpt>
      <trkpt lat="48.22339" lon="7.21447">
        <ele>812.049133</ele>
      </trkpt>
      <trkpt lat="48.22246" lon="7.21256">
        <ele>833.625244</ele>
      </trkpt>
      <trkpt lat="48.2222" lon="7.21395">
        <ele>814.064453</ele>
      </trkpt>
      <trkpt lat="48.22104" lon="7.21364">
        <ele>811.698669</ele>
      </trkpt>
      <trkpt lat="48.21999" lon="7.21344">
        <ele>835.769348</ele>
      </trkpt>
      <trkpt lat="48.21979" lon="7.21713">
        <ele>826.627686</ele>
      </trkpt>
      <trkpt lat="48.21815" lon="7.22035">
        <ele>795.358765</ele>
      </trkpt>
      <trkpt lat="48.21603" lon="7.21928">
        <ele>811.179932</ele>
      </trkpt>
      <trkpt lat="48.21364" lon="7.22273">
        <ele>845.951355</ele>
      </trkpt>
      <trkpt lat="48.21341" lon="7.22971">
        <ele>839.325195</ele>
      </trkpt>
      <trkpt lat="48.20871" lon="7.22806">
        <ele>820.197266</ele>
      </trkpt>
      <trkpt lat="48.20685" lon="7.22503">
        <ele>783.100037</ele>
      </trkpt>
      <trkpt lat="48.20806" lon="7.2219">
        <ele>776.800476</ele>
      </trkpt>
      <trkpt lat="48.20629" lon="7.22288">
        <ele>753.900879</ele>
      </trkpt>
      <trkpt lat="48.20481" lon="7.2215">
        <ele>737.669861</ele>
      </trkpt>
      <trkpt lat="48.2008" lon="7.22274">
        <ele>761.550354</ele>
      </trkpt>
      <trkpt lat="48.19556" lon="7.2198">
        <ele>810.080078</ele>
      </trkpt>
      <trkpt lat="48.1929" lon="7.21557">
        <ele>834.599915</ele>
      </trkpt>
      <trkpt lat="48.19394" lon="7.20779">
        <ele>844.602051</ele>
      </trkpt>
      <trkpt lat="48.19328" lon="7.20422">
        <ele>847.439941</ele>
      </trkpt>
      <trkpt lat="48.19493" lon="7.20364">
        <ele>896.79895</ele>
      </trkpt>
      <trkpt lat="48.19979" lon="7.20463">
        <ele>961.889709</ele>
      </trkpt>
      <trkpt lat="48.20003" lon="7.20013">
        <ele>970.0401</ele>
      </trkpt>
      <trkpt lat="48.20167" lon="7.19732">
        <ele>994.279236</ele>
      </trkpt>
      <trkpt lat="48.19969" lon="7.19202">
        <ele>1006.919983</ele>
      </trkpt>
      <trkpt lat="48.20179" lon="7.18904">
        <ele>1028.610962</ele>
      </trkpt>
      <trkpt lat="48.2049" lon="7.189">
        <ele>1042.158325</ele>
      </trkpt>
      <trkpt lat="48.20708" lon="7.1865">
        <ele>1046.921143</ele>
      </trkpt>
      <trkpt lat="48.20735" lon="7.17878">
        <ele>1072.269043</ele>
      </trkpt>
      <trkpt lat="48.20162" lon="7.17131">
        <ele>1099.759399</ele>
      </trkpt>
      <trkpt lat="48.20073" lon="7.16664">
        <ele>1096.420898</ele>
      </trkpt>
      <trkpt lat="48.19826" lon="7.15779">
        <ele>1098</ele>
      </trkpt>
      <trkpt lat="48.19354" lon="7.14867">
        <ele>1093.337891</ele>
      </trkpt>
      <trkpt lat="48.19311" lon="7.14614">
        <ele>1078.099487</ele>
      </trkpt>
      <trkpt lat="48.19402" lon="7.14373">
        <ele>1078.571411</ele>
      </trkpt>
      <trkpt lat="48.19217" lon="7.13938">
        <ele>1067.700562</ele>
      </trkpt>
      <trkpt lat="48.19241" lon="7.13792">
        <ele>1076.640503</ele>
      </trkpt>
      <trkpt lat="48.19476" lon="7.13652">
        <ele>1076.280029</ele>
      </trkpt>
      <trkpt lat="48.19484" lon="7.13464">
        <ele>1063.5</ele>
      </trkpt>
      <trkpt lat="48.19301" lon="7.12875">
        <ele>1030.799561</ele>
      </trkpt>
      <trkpt lat="48.18851" lon="7.12073">
        <ele>971.799988</ele>
      </trkpt>
      <trkpt lat="48.19079" lon="7.12114">
        <ele>973.401001</ele>
      </trkpt>
      <trkpt lat="48.19218" lon="7.11803">
        <ele>933.439575</ele>
      </trkpt>
      <trkpt lat="48.19251" lon="7.11449">
        <ele>905.40033</ele>
      </trkpt>
      <trkpt lat="48.19088" lon="7.10794">
        <ele>894.39917</ele>
      </trkpt>
      <trkpt lat="48.18656" lon="7.10337">
        <ele>903.142212</ele>
      </trkpt>
      <trkpt lat="48.18419" lon="7.10302">
        <ele>882.760437</ele>
      </trkpt>
      <trkpt lat="48.1836" lon="7.10209">
        <ele>872.998779</ele>
      </trkpt>
      <trkpt lat="48.18441" lon="7.09873">
        <ele>852.199829</ele>
      </trkpt>
      <trkpt lat="48.18067" lon="7.1021">
        <ele>841.789307</ele>
      </trkpt>
      <trkpt lat="48.17796" lon="7.09882">
        <ele>849.798828</ele>
      </trkpt>
      <trkpt lat="48.1775" lon="7.09474">
        <ele>849.559448</ele>
      </trkpt>
      <trkpt lat="48.17312" lon="7.09394">
        <ele>826.239136</ele>
      </trkpt>
      <trkpt lat="48.17149" lon="7.09527">
        <ele>812.319885</ele>
      </trkpt>
      <trkpt lat="48.17195" lon="7.09834">
        <ele>810.359375</ele>
      </trkpt>
      <trkpt lat="48.16994" lon="7.09553">
        <ele>845.699707</ele>
      </trkpt>
      <trkpt lat="48.16783" lon="7.08646">
        <ele>905.199829</ele>
      </trkpt>
      <trkpt lat="48.16839" lon="7.08274">
        <ele>931.520508</ele>
      </trkpt>
      <trkpt lat="48.16516" lon="7.08123">
        <ele>942.759521</ele>
      </trkpt>
      <trkpt lat="48.16219" lon="7.07578">
        <ele>979.199951</ele>
      </trkpt>
      <trkpt lat="48.15418" lon="7.07115">
        <ele>982.390137</ele>
      </trkpt>
      <trkpt lat="48.14855" lon="7.06661">
        <ele>989.479797</ele>
      </trkpt>
      <trkpt lat="48.14475" lon="7.06929">
        <ele>977.160828</ele>
      </trkpt>
      <trkpt lat="48.14191" lon="7.06715">
        <ele>977.600891</ele>
      </trkpt>
      <trkpt lat="48.13951" lon="7.06512">
        <ele>963.159729</ele>
      </trkpt>
      <trkpt lat="48.13988" lon="7.06711">
        <ele>942.919983</ele>
      </trkpt>
      <trkpt lat="48.13914" lon="7.06657">
        <ele>939.750061</ele>
      </trkpt>
      <trkpt lat="48.14214" lon="7.07242">
        <ele>939.260193</ele>
      </trkpt>
      <trkpt lat="48.14075" lon="7.07337">
        <ele>965.419373</ele>
      </trkpt>
      <trkpt lat="48.1386" lon="7.07197">
        <ele>983.99939</ele>
      </trkpt>
      <trkpt lat="48.1352" lon="7.07375">
        <ele>1041.699707</ele>
      </trkpt>
      <trkpt lat="48.13401" lon="7.07203">
        <ele>1056.021484</ele>
      </trkpt>
      <trkpt lat="48.13377" lon="7.0745">
        <ele>1079.000244</ele>
      </trkpt>
      <trkpt lat="48.1386" lon="7.07863">
        <ele>1063.098999</ele>
      </trkpt>
      <trkpt lat="48.14007" lon="7.08247">
        <ele>1061.001343</ele>
      </trkpt>
      <trkpt lat="48.13971" lon="7.08573">
        <ele>1063.599854</ele>
      </trkpt>
      <trkpt lat="48.144" lon="7.08767">
        <ele>1047.71936</ele>
      </trkpt>
      <trkpt lat="48.14089" lon="7.089">
        <ele>1107.559692</ele>
      </trkpt>
      <trkpt lat="48.13648" lon="7.08874">
        <ele>1141.839966</ele>
      </trkpt>
      <trkpt lat="48.13564" lon="7.09499">
        <ele>1140.840332</ele>
      </trkpt>
      <trkpt lat="48.13342" lon="7.0931">
        <ele>1105.680054</ele>
      </trkpt>
      <trkpt lat="48.12968" lon="7.09323">
        <ele>1119.199829</ele>
      </trkpt>
      <trkpt lat="48.12683" lon="7.09587">
        <ele>1105.039063</ele>
      </trkpt>
      <trkpt lat="48.12788" lon="7.09765">
        <ele>1085.859619</ele>
      </trkpt>
      <trkpt lat="48.12718" lon="7.09819">
        <ele>1075.47998</ele>
      </trkpt>
      <trkpt lat="48.12736" lon="7.09942">
        <ele>1058.900513</ele>
      </trkpt>
      <trkpt lat="48.12498" lon="7.09705">
        <ele>1053.900513</ele>
      </trkpt>
      <trkpt lat="48.12337" lon="7.1">
        <ele>1023.550232</ele>
      </trkpt>
      <trkpt lat="48.12164" lon="7.09816">
        <ele>1042.299438</ele>
      </trkpt>
      <trkpt lat="48.12075" lon="7.10245">
        <ele>1034.178345</ele>
      </trkpt>
      <trkpt lat="48.12137" lon="7.106">
        <ele>1027.798706</ele>
      </trkpt>
      <trkpt lat="48.12048" lon="7.10693">
        <ele>1021.399048</ele>
      </trkpt>
      <trkpt lat="48.1188" lon="7.10597">
        <ele>1015.559875</ele>
      </trkpt>
      <trkpt lat="48.11668" lon="7.09946">
        <ele>1049.158936</ele>
      </trkpt>
      <trkpt lat="48.11484" lon="7.1003">
        <ele>1023.260071</ele>
      </trkpt>
      <trkpt lat="48.11648" lon="7.10321">
        <ele>999.498596</ele>
      </trkpt>
      <trkpt lat="48.11713" lon="7.10508">
        <ele>983.810181</ele>
      </trkpt>
      <trkpt lat="48.11535" lon="7.10344">
        <ele>968.999573</ele>
      </trkpt>
      <trkpt lat="48.114" lon="7.10325">
        <ele>963.400085</ele>
      </trkpt>
      <trkpt lat="48.11228" lon="7.10014">
        <ele>949.301758</ele>
      </trkpt>
      <trkpt lat="48.11063" lon="7.10308">
        <ele>970.099609</ele>
      </trkpt>
      <trkpt lat="48.10589" lon="7.10332">
        <ele>976.600098</ele>
      </trkpt>
      <trkpt lat="48.10093" lon="7.10684">
        <ele>972.550415</ele>
      </trkpt>
      <trkpt lat="48.09733" lon="7.10564">
        <ele>968.60022</ele>
      </trkpt>
      <trkpt lat="48.09733" lon="7.10234">
        <ele>962.389832</ele>
      </trkpt>
      <trkpt lat="48.09484" lon="7.09593">
        <ele>969.020569</ele>
      </trkpt>
      <trkpt lat="48.09578" lon="7.09057">
        <ele>951.600464</ele>
      </trkpt>
      <trkpt lat="48.0979" lon="7.08612">
        <ele>950.230408</ele>
      </trkpt>
      <trkpt lat="48.09627" lon="7.08739">
        <ele>934.119812</ele>
      </trkpt>
      <trkpt lat="48.09477" lon="7.08665">
        <ele>906.021179</ele>
      </trkpt>
      <trkpt lat="48.09293" lon="7.08319">
        <ele>916.279907</ele>
      </trkpt>
      <trkpt lat="48.08957" lon="7.0849">
        <ele>923.297974</ele>
      </trkpt>
      <trkpt lat="48.08766" lon="7.0809">
        <ele>954.749695</ele>
      </trkpt>
      <trkpt lat="48.0909" lon="7.07433">
        <ele>963.400024</ele>
      </trkpt>
      <trkpt lat="48.08651" lon="7.0736">
        <ele>977.999939</ele>
      </trkpt>
      <trkpt lat="48.08581" lon="7.06426">
        <ele>1041.419189</ele>
      </trkpt>
      <trkpt lat="48.08671" lon="7.06326">
        <ele>1054.518921</ele>
      </trkpt>
      <trkpt lat="48.08602" lon="7.06361">
        <ele>1050.240112</ele>
      </trkpt>
      <trkpt lat="48.08586" lon="7.06184">
        <ele>1062.439209</ele>
      </trkpt>
      <trkpt lat="48.08526" lon="7.06011">
        <ele>1063.749146</ele>
      </trkpt>
      <trkpt lat="48.08304" lon="7.06152">
        <ele>1033.001099</ele>
      </trkpt>
      <trkpt lat="48.08228" lon="7.06246">
        <ele>1015.699463</ele>
      </trkpt>
      <trkpt lat="48.07999" lon="7.06891">
        <ele>1027.078125</ele>
      </trkpt>
      <trkpt lat="48.07619" lon="7.0728">
        <ele>1045.278931</ele>
      </trkpt>
      <trkpt lat="48.07464" lon="7.07085">
        <ele>1045.999756</ele>
      </trkpt>
      <trkpt lat="48.07471" lon="7.06373">
        <ele>1060.21875</ele>
      </trkpt>
      <trkpt lat="48.07548" lon="7.06239">
        <ele>1066.480835</ele>
      </trkpt>
      <trkpt lat="48.07562" lon="7.05891">
        <ele>1036.160889</ele>
      </trkpt>
      <trkpt lat="48.07427" lon="7.06107">
        <ele>1029.999268</ele>
      </trkpt>
      <trkpt lat="48.07302" lon="7.05975">
        <ele>982.820313</ele>
      </trkpt>
      <trkpt lat="48.07379" lon="7.05861">
        <ele>990.840271</ele>
      </trkpt>
      <trkpt lat="48.07169" lon="7.05587">
        <ele>1001.040405</ele>
      </trkpt>
      <trkpt lat="48.07195" lon="7.05051">
        <ele>1024.302002</ele>
      </trkpt>
      <trkpt lat="48.0715" lon="7.04832">
        <ele>1017.640076</ele>
      </trkpt>
      <trkpt lat="48.07132" lon="7.05046">
        <ele>997.798889</ele>
      </trkpt>
      <trkpt lat="48.06999" lon="7.05786">
        <ele>932.759155</ele>
      </trkpt>
      <trkpt lat="48.06892" lon="7.05649">
        <ele>919.339844</ele>
      </trkpt>
      <trkpt lat="48.0689" lon="7.05011">
        <ele>894.001282</ele>
      </trkpt>
      <trkpt lat="48.06686" lon="7.05711">
        <ele>861.859924</ele>
      </trkpt>
      <trkpt lat="48.06701" lon="7.05229">
        <ele>833.830078</ele>
      </trkpt>
      <trkpt lat="48.06495" lon="7.05325">
        <ele>812.480103</ele>
      </trkpt>
      <trkpt lat="48.05966" lon="7.05714">
        <ele>749.540527</ele>
      </trkpt>
      <trkpt lat="48.05876" lon="7.05598">
        <ele>729.750977</ele>
      </trkpt>
      <trkpt lat="48.05867" lon="7.05154">
        <ele>773.352234</ele>
      </trkpt>
      <trkpt lat="48.05573" lon="7.0451">
        <ele>801.459229</ele>
      </trkpt>
      <trkpt lat="48.05547" lon="7.04131">
        <ele>816.048279</ele>
      </trkpt>
      <trkpt lat="48.05666" lon="7.0388">
        <ele>808.658203</ele>
      </trkpt>
      <trkpt lat="48.05675" lon="7.03545">
        <ele>776.679749</ele>
      </trkpt>
      <trkpt lat="48.05475" lon="7.03567">
        <ele>753.039063</ele>
      </trkpt>
      <trkpt lat="48.05543" lon="7.03681">
        <ele>746.199585</ele>
      </trkpt>
      <trkpt lat="48.0542" lon="7.04046">
        <ele>714.401978</ele>
      </trkpt>
      <trkpt lat="48.05453" lon="7.03794">
        <ele>707.039795</ele>
      </trkpt>
      <trkpt lat="48.05206" lon="7.03657">
        <ele>698.999512</ele>
      </trkpt>
      <trkpt lat="48.04751" lon="7.04006">
        <ele>777.1922</ele>
      </trkpt>
      <trkpt lat="48.0466" lon="7.04925">
        <ele>817.898621</ele>
      </trkpt>
      <trkpt lat="48.04571" lon="7.05011">
        <ele>816.699585</ele>
      </trkpt>
      <trkpt lat="48.04262" lon="7.04856">
        <ele>864.639709</ele>
      </trkpt>
      <trkpt lat="48.04143" lon="7.04899">
        <ele>878.598999</ele>
      </trkpt>
      <trkpt lat="48.03818" lon="7.04581">
        <ele>928.150269</ele>
      </trkpt>
      <trkpt lat="48.0401" lon="7.05518">
        <ele>953.359619</ele>
      </trkpt>
      <trkpt lat="48.03465" lon="7.04738">
        <ele>995.040039</ele>
      </trkpt>
      <trkpt lat="48.03413" lon="7.05022">
        <ele>983.162231</ele>
      </trkpt>
      <trkpt lat="48.032" lon="7.04365">
        <ele>968.6203</ele>
      </trkpt>
      <trkpt lat="48.0288" lon="7.04034">
        <ele>946.200378</ele>
      </trkpt>
      <trkpt lat="48.02605" lon="7.0415">
        <ele>941.559204</ele>
      </trkpt>
      <trkpt lat="48.02564" lon="7.04388">
        <ele>918.948364</ele>
      </trkpt>
      <trkpt lat="48.02413" lon="7.04791">
        <ele>903.800842</ele>
      </trkpt>
      <trkpt lat="48.02162" lon="7.04749">
        <ele>917.500061</ele>
      </trkpt>
      <trkpt lat="48.02189" lon="7.04523">
        <ele>937.601074</ele>
      </trkpt>
      <trkpt lat="48.02409" lon="7.04428">
        <ele>954.159546</ele>
      </trkpt>
      <trkpt lat="48.02473" lon="7.03964">
        <ele>978.490662</ele>
      </trkpt>
      <trkpt lat="48.02347" lon="7.03416">
        <ele>970.399719</ele>
      </trkpt>
      <trkpt lat="48.02583" lon="7.0302">
        <ele>995.250549</ele>
      </trkpt>
      <trkpt lat="48.02743" lon="7.02961">
        <ele>989.880493</ele>
      </trkpt>
      <trkpt lat="48.02604" lon="7.02942">
        <ele>972.22937</ele>
      </trkpt>
      <trkpt lat="48.02909" lon="7.02767">
        <ele>946.489807</ele>
      </trkpt>
      <trkpt lat="48.02517" lon="7.0288">
        <ele>923.601013</ele>
      </trkpt>
      <trkpt lat="48.02225" lon="7.03425">
        <ele>891.399658</ele>
      </trkpt>
      <trkpt lat="48.02211" lon="7.03645">
        <ele>887.699829</ele>
      </trkpt>
      <trkpt lat="48.02273" lon="7.03892">
        <ele>899.641846</ele>
      </trkpt>
      <trkpt lat="48.0211" lon="7.04046">
        <ele>916.521423</ele>
      </trkpt>
      <trkpt lat="48.01691" lon="7.04049">
        <ele>861.200378</ele>
      </trkpt>
      <trkpt lat="48.01492" lon="7.04293">
        <ele>807.179321</ele>
      </trkpt>
      <trkpt lat="48.01545" lon="7.04526">
        <ele>799.300598</ele>
      </trkpt>
      <trkpt lat="48.01353" lon="7.0471">
        <ele>776.503113</ele>
      </trkpt>
      <trkpt lat="48.01891" lon="7.05779">
        <ele>649.90033</ele>
      </trkpt>
      <trkpt lat="48.0203" lon="7.05791">
        <ele>636.200195</ele>
      </trkpt>
      <trkpt lat="48.01925" lon="7.05943">
        <ele>608.328796</ele>
      </trkpt>
      <trkpt lat="48.01756" lon="7.05887">
        <ele>592.688599</ele>
      </trkpt>
      <trkpt lat="48.01248" lon="7.05318">
        <ele>536.599731</ele>
      </trkpt>
      <trkpt lat="48.01084" lon="7.05129">
        <ele>510.65152</ele>
      </trkpt>
      <trkpt lat="48.01075" lon="7.05229">
        <ele>501.479248</ele>
      </trkpt>
      <trkpt lat="48.00878" lon="7.04305">
        <ele>522.099731</ele>
      </trkpt>
      <trkpt lat="48.00529" lon="7.03468">
        <ele>525.600647</ele>
      </trkpt>
      <trkpt lat="48.00072" lon="7.03072">
        <ele>562.200928</ele>
      </trkpt>
      <trkpt lat="48.00099" lon="7.02638">
        <ele>574.299194</ele>
      </trkpt>
      <trkpt lat="47.99588" lon="7.02217">
        <ele>595.999451</ele>
      </trkpt>
      <trkpt lat="47.99049" lon="7.02068">
        <ele>609.800049</ele>
      </trkpt>
      <trkpt lat="47.98449" lon="7.0176">
        <ele>635.879944</ele>
      </trkpt>
      <trkpt lat="47.98204" lon="7.01819">
        <ele>657.039917</ele>
      </trkpt>
      <trkpt lat="47.9845" lon="7.02196">
        <ele>673.819885</ele>
      </trkpt>
      <trkpt lat="47.98973" lon="7.02632">
        <ele>706.398438</ele>
      </trkpt>
      <trkpt lat="47.9894" lon="7.02776">
        <ele>723.719849</ele>
      </trkpt>
      <trkpt lat="47.99599" lon="7.0307">
        <ele>776.999695</ele>
      </trkpt>
      <trkpt lat="47.99128" lon="7.03035">
        <ele>819.998962</ele>
      </trkpt>
      <trkpt lat="47.98624" lon="7.03238">
        <ele>873.999695</ele>
      </trkpt>
      <trkpt lat="47.98612" lon="7.02969">
        <ele>895.000854</ele>
      </trkpt>
      <trkpt lat="47.98482" lon="7.02749">
        <ele>909.538269</ele>
      </trkpt>
      <trkpt lat="47.9836" lon="7.02752">
        <ele>928.700806</ele>
      </trkpt>
      <trkpt lat="47.98242" lon="7.02889">
        <ele>948.060913</ele>
      </trkpt>
      <trkpt lat="47.98428" lon="7.02852">
        <ele>951.602051</ele>
      </trkpt>
      <trkpt lat="47.97958" lon="7.03555">
        <ele>1056.697876</ele>
      </trkpt>
      <trkpt lat="47.96891" lon="7.03983">
        <ele>1161.879272</ele>
      </trkpt>
      <trkpt lat="47.96743" lon="7.03413">
        <ele>1186.439819</ele>
      </trkpt>
      <trkpt lat="47.96396" lon="7.03523">
        <ele>1221.200317</ele>
      </trkpt>
      <trkpt lat="47.96289" lon="7.03728">
        <ele>1244.600586</ele>
      </trkpt>
      <trkpt lat="47.95973" lon="7.03746">
        <ele>1248.660278</ele>
      </trkpt>
      <trkpt lat="47.95619" lon="7.03487">
        <ele>1245.899536</ele>
      </trkpt>
      <trkpt lat="47.95522" lon="7.03317">
        <ele>1242.47998</ele>
      </trkpt>
      <trkpt lat="47.95197" lon="7.03342">
        <ele>1245.199829</ele>
      </trkpt>
      <trkpt lat="47.94837" lon="7.04443">
        <ele>1213.998535</ele>
      </trkpt>
      <trkpt lat="47.94779" lon="7.04532">
        <ele>1207.880127</ele>
      </trkpt>
      <trkpt lat="47.94733" lon="7.03991">
        <ele>1184.519165</ele>
      </trkpt>
      <trkpt lat="47.94699" lon="7.03847">
        <ele>1175.759155</ele>
      </trkpt>
      <trkpt lat="47.9478" lon="7.0362">
        <ele>1179.99939</ele>
      </trkpt>
      <trkpt lat="47.94514" lon="7.03623">
        <ele>1163.179321</ele>
      </trkpt>
      <trkpt lat="47.94481" lon="7.03111">
        <ele>1178.200684</ele>
      </trkpt>
      <trkpt lat="47.94184" lon="7.0299">
        <ele>1152.280151</ele>
      </trkpt>
      <trkpt lat="47.9406" lon="7.03368">
        <ele>1156.199707</ele>
      </trkpt>
      <trkpt lat="47.93653" lon="7.03091">
        <ele>1136.100952</ele>
      </trkpt>
      <trkpt lat="47.93365" lon="7.02636">
        <ele>1132.300293</ele>
      </trkpt>
      <trkpt lat="47.93046" lon="7.02373">
        <ele>1141.400269</ele>
      </trkpt>
      <trkpt lat="47.92805" lon="7.03116">
        <ele>1154.830566</ele>
      </trkpt>
      <trkpt lat="47.92494" lon="7.03235">
        <ele>1167.209595</ele>
      </trkpt>
      <trkpt lat="47.92352" lon="7.03498">
        <ele>1175.600342</ele>
      </trkpt>
      <trkpt lat="47.92192" lon="7.03349">
        <ele>1170.440186</ele>
      </trkpt>
      <trkpt lat="47.92217" lon="7.03626">
        <ele>1152.898682</ele>
      </trkpt>
      <trkpt lat="47.92055" lon="7.03833">
        <ele>1125.719604</ele>
      </trkpt>
      <trkpt lat="47.91764" lon="7.03894">
        <ele>1098.041382</ele>
      </trkpt>
      <trkpt lat="47.9156" lon="7.04164">
        <ele>1102.398315</ele>
      </trkpt>
      <trkpt lat="47.91302" lon="7.04188">
        <ele>1077.130127</ele>
      </trkpt>
      <trkpt lat="47.91056" lon="7.04702">
        <ele>1071.400391</ele>
      </trkpt>
      <trkpt lat="47.9052" lon="7.04246">
        <ele>991.800293</ele>
      </trkpt>
      <trkpt lat="47.9057" lon="7.04465">
        <ele>1022.000671</ele>
      </trkpt>
      <trkpt lat="47.9074" lon="7.04949">
        <ele>1043.497681</ele>
      </trkpt>
      <trkpt lat="47.90694" lon="7.05427">
        <ele>1059.2771</ele>
      </trkpt>
      <trkpt lat="47.90751" lon="7.05667">
        <ele>1064.1604</ele>
      </trkpt>
      <trkpt lat="47.90889" lon="7.05726">
        <ele>1084.596924</ele>
      </trkpt>
      <trkpt lat="47.90925" lon="7.06158">
        <ele>1081.837158</ele>
      </trkpt>
      <trkpt lat="47.90824" lon="7.06323">
        <ele>1075.359131</ele>
      </trkpt>
      <trkpt lat="47.90318" lon="7.06479">
        <ele>1101.800171</ele>
      </trkpt>
      <trkpt lat="47.90153" lon="7.07214">
        <ele>1098.89856</ele>
      </trkpt>
      <trkpt lat="47.89608" lon="7.06864">
        <ele>1032.210205</ele>
      </trkpt>
      <trkpt lat="47.89369" lon="7.06333">
        <ele>1006.349609</ele>
      </trkpt>
      <trkpt lat="47.89352" lon="7.0585">
        <ele>942.450134</ele>
      </trkpt>
      <trkpt lat="47.89253" lon="7.05847">
        <ele>917.760925</ele>
      </trkpt>
      <trkpt lat="47.88638" lon="7.06141">
        <ele>804.560242</ele>
      </trkpt>
      <trkpt lat="47.88474" lon="7.06514">
        <ele>766.800293</ele>
      </trkpt>
      <trkpt lat="47.88513" lon="7.06002">
        <ele>736.901245</ele>
      </trkpt>
      <trkpt lat="47.88307" lon="7.06285">
        <ele>710.201172</ele>
      </trkpt>
      <trkpt lat="47.88301" lon="7.06003">
        <ele>693.100342</ele>
      </trkpt>
      <trkpt lat="47.88089" lon="7.06005">
        <ele>663.020386</ele>
      </trkpt>
      <trkpt lat="47.88193" lon="7.06114">
        <ele>670.000183</ele>
      </trkpt>
      <trkpt lat="47.88155" lon="7.06486">
        <ele>679.20105</ele>
      </trkpt>
      <trkpt lat="47.88253" lon="7.06856">
        <ele>652.399414</ele>
      </trkpt>
      <trkpt lat="47.88397" lon="7.06956">
        <ele>647.390259</ele>
      </trkpt>
      <trkpt lat="47.88345" lon="7.07012">
        <ele>646.000183</ele>
      </trkpt>
      <trkpt lat="47.88155" lon="7.07042">
        <ele>662.199951</ele>
      </trkpt>
      <trkpt lat="47.87551" lon="7.06599">
        <ele>651.43988</ele>
      </trkpt>
      <trkpt lat="47.87462" lon="7.06685">
        <ele>659.27948</ele>
      </trkpt>
      <trkpt lat="47.87386" lon="7.06785">
        <ele>664.921265</ele>
      </trkpt>
      <trkpt lat="47.87205" lon="7.06695">
        <ele>639.758789</ele>
      </trkpt>
      <trkpt lat="47.87072" lon="7.06422">
        <ele>614.379211</ele>
      </trkpt>
      <trkpt lat="47.86963" lon="7.06004">
        <ele>573.082092</ele>
      </trkpt>
      <trkpt lat="47.86752" lon="7.05858">
        <ele>535.459656</ele>
      </trkpt>
      <trkpt lat="47.86622" lon="7.05967">
        <ele>504.498047</ele>
      </trkpt>
      <trkpt lat="47.86648" lon="7.0611">
        <ele>508.539124</ele>
      </trkpt>
      <trkpt lat="47.86556" lon="7.06042">
        <ele>484.240234</ele>
      </trkpt>
      <trkpt lat="47.864" lon="7.05552">
        <ele>422.159882</ele>
      </trkpt>
      <trkpt lat="47.86212" lon="7.05408">
        <ele>409.220184</ele>
      </trkpt>
      <trkpt lat="47.86033" lon="7.04931">
        <ele>393.999908</ele>
      </trkpt>
      <trkpt lat="47.85945" lon="7.05003">
        <ele>393.280029</ele>
      </trkpt>
      <trkpt lat="47.85784" lon="7.04634">
        <ele>394.340027</ele>
      </trkpt>
      <trkpt lat="47.85297" lon="7.0352">
        <ele>432.700409</ele>
      </trkpt>
      <trkpt lat="47.84881" lon="7.0266">
        <ele>478.401855</ele>
      </trkpt>
      <trkpt lat="47.84654" lon="7.02278">
        <ele>500.199402</ele>
      </trkpt>
      <trkpt lat="47.84562" lon="7.01627">
        <ele>533.879578</ele>
      </trkpt>
      <trkpt lat="47.84706" lon="7.01205">
        <ele>566.239929</ele>
      </trkpt>
      <trkpt lat="47.84411" lon="7.0057">
        <ele>631.699402</ele>
      </trkpt>
      <trkpt lat="47.8405" lon="7.00251">
        <ele>699.918091</ele>
      </trkpt>
      <trkpt lat="47.83942" lon="7.00248">
        <ele>718.641174</ele>
      </trkpt>
      <trkpt lat="47.84185" lon="7.00704">
        <ele>755.537598</ele>
      </trkpt>
      <trkpt lat="47.84114" lon="7.01026">
        <ele>783.740601</ele>
      </trkpt>
      <trkpt lat="47.83792" lon="7.01178">
        <ele>831.356995</ele>
      </trkpt>
      <trkpt lat="47.83731" lon="7.01574">
        <ele>861.621704</ele>
      </trkpt>
      <trkpt lat="47.83178" lon="7.0188">
        <ele>842.980835</ele>
      </trkpt>
      <trkpt lat="47.8337" lon="7.02265">
        <ele>813.698059</ele>
      </trkpt>
      <trkpt lat="47.8339" lon="7.02788">
        <ele>794.598816</ele>
      </trkpt>
      <trkpt lat="47.83478" lon="7.02956">
        <ele>803.349976</ele>
      </trkpt>
      <trkpt lat="47.83177" lon="7.03271">
        <ele>796.799805</ele>
      </trkpt>
      <trkpt lat="47.83235" lon="7.03724">
        <ele>735.220825</ele>
      </trkpt>
      <trkpt lat="47.8303" lon="7.03666">
        <ele>733.161255</ele>
      </trkpt>
      <trkpt lat="47.82933" lon="7.04072">
        <ele>771.479858</ele>
      </trkpt>
      <trkpt lat="47.82384" lon="7.04385">
        <ele>745.349976</ele>
      </trkpt>
      <trkpt lat="47.82374" lon="7.03949">
        <ele>746.2995</ele>
      </trkpt>
      <trkpt lat="47.8188" lon="7.04146">
        <ele>722.01947</ele>
      </trkpt>
      <trkpt lat="47.81707" lon="7.04418">
        <ele>690.350159</ele>
      </trkpt>
      <trkpt lat="47.81255" lon="7.03782">
        <ele>725.522339</ele>
      </trkpt>
      <trkpt lat="47.81096" lon="7.04029">
        <ele>713.959045</ele>
      </trkpt>
      <trkpt lat="47.80962" lon="7.04017">
        <ele>744.900024</ele>
      </trkpt>
      <trkpt lat="47.80401" lon="7.04509">
        <ele>774.280273</ele>
      </trkpt>
      <trkpt lat="47.80495" lon="7.04972">
        <ele>765.102051</ele>
      </trkpt>
      <trkpt lat="47.80212" lon="7.05301">
        <ele>742.239868</ele>
      </trkpt>
      <trkpt lat="47.80458" lon="7.0545">
        <ele>746.599182</ele>
      </trkpt>
      <trkpt lat="47.80504" lon="7.05869">
        <ele>707.399048</ele>
      </trkpt>
      <trkpt lat="47.80376" lon="7.06138">
        <ele>713.40094</ele>
      </trkpt>
      <trkpt lat="47.80665" lon="7.06111">
        <ele>695.259766</ele>
      </trkpt>
      <trkpt lat="47.80937" lon="7.06295">
        <ele>679.119995</ele>
      </trkpt>
      <trkpt lat="47.80852" lon="7.05733">
        <ele>696.93866</ele>
      </trkpt>
      <trkpt lat="47.8099" lon="7.05651">
        <ele>672.549377</ele>
      </trkpt>
      <trkpt lat="47.81287" lon="7.05885">
        <ele>628.998779</ele>
      </trkpt>
      <trkpt lat="47.81429" lon="7.05818">
        <ele>619.200317</ele>
      </trkpt>
      <trkpt lat="47.81548" lon="7.06671">
        <ele>609.000488</ele>
      </trkpt>
      <trkpt lat="47.81141" lon="7.07049">
        <ele>568.778015</ele>
      </trkpt>
      <trkpt lat="47.81095" lon="7.07286">
        <ele>550.400024</ele>
      </trkpt>
      <trkpt lat="47.81189" lon="7.07528">
        <ele>557.580383</ele>
      </trkpt>
      <trkpt lat="47.80927" lon="7.07652">
        <ele>532.800537</ele>
      </trkpt>
      <trkpt lat="47.80987" lon="7.0838">
        <ele>517.510071</ele>
      </trkpt>
      <trkpt lat="47.81108" lon="7.08511">
        <ele>504.312347</ele>
      </trkpt>
      <trkpt lat="47.80982" lon="7.08961">
        <ele>473.499817</ele>
      </trkpt>
      <trkpt lat="47.80993" lon="7.09464">
        <ele>453.30011</ele>
      </trkpt>
      <trkpt lat="47.81041" lon="7.09715">
        <ele>416.702209</ele>
      </trkpt>
      <trkpt lat="47.81234" lon="7.09285">
        <ele>360.300262</ele>
      </trkpt>
      <trkpt lat="47.81305" lon="7.09431">
        <ele>341.839844</ele>
      </trkpt>
      <trkpt lat="47.80949" lon="7.10215">
        <ele>341.199921</ele>
      </trkpt>
      <trkpt lat="47.8085" lon="7.10206">
        <ele>342.059998</ele>
      </trkpt>
      <trkpt lat="47.80982" lon="7.10399">
        <ele>338.100006</ele>
      </trkpt>
      <trkpt lat="47.81131" lon="7.10172">
        <ele>334.110107</ele>
      </trkpt>
    </trkseg>
  </trk>
  <trk>
    <name><![CDATA[secteur Saverne - Dabo - Petite Pierre_49]]></name>
    <trkseg>
      <trkpt lat="48.63039" lon="7.26012">
        <ele>691</ele>
        <time>2013-04-07T07:17:09.000Z</time>
      </trkpt>
      <trkpt lat="48.63039" lon="7.26012">
        <ele>691</ele>
        <time>2013-04-07T07:17:09.000Z</time>
      </trkpt>
      <trkpt lat="48.63039" lon="7.26012">
        <ele>691</ele>
        <time>2013-04-07T07:17:09.000Z</time>
      </trkpt>
      <trkpt lat="48.63039" lon="7.26012">
        <ele>691</ele>
        <time>2013-04-07T07:17:09.000Z</time>
      </trkpt>
      <trkpt lat="48.63037" lon="7.26006">
        <ele>691</ele>
        <time>2013-04-07T07:17:12.000Z</time>
      </trkpt>
      <trkpt lat="48.63033" lon="7.2601">
        <ele>691</ele>
        <time>2013-04-07T07:17:15.000Z</time>
      </trkpt>
      <trkpt lat="48.63038" lon="7.26001">
        <ele>691</ele>
        <time>2013-04-07T07:17:23.000Z</time>
      </trkpt>
      <trkpt lat="48.63038" lon="7.26001">
        <ele>691</ele>
        <time>2013-04-07T07:17:43.000Z</time>
      </trkpt>
      <trkpt lat="48.63039" lon="7.26002">
        <ele>691</ele>
        <time>2013-04-07T07:18:36.000Z</time>
      </trkpt>
      <trkpt lat="48.6304" lon="7.26005">
        <ele>691</ele>
        <time>2013-04-07T07:18:56.000Z</time>
      </trkpt>
      <trkpt lat="48.6304" lon="7.26005">
        <ele>691</ele>
        <time>2013-04-07T07:19:16.000Z</time>
      </trkpt>
      <trkpt lat="48.63041" lon="7.26007">
        <ele>691</ele>
        <time>2013-04-07T07:19:29.000Z</time>
      </trkpt>
      <trkpt lat="48.63041" lon="7.26007">
        <ele>691</ele>
        <time>2013-04-07T07:19:49.000Z</time>
      </trkpt>
      <trkpt lat="48.63042" lon="7.26009">
        <ele>691</ele>
        <time>2013-04-07T07:20:03.000Z</time>
      </trkpt>
      <trkpt lat="48.63045" lon="7.26005">
        <ele>691</ele>
        <time>2013-04-07T07:20:05.000Z</time>
      </trkpt>
      <trkpt lat="48.63051" lon="7.26014">
        <ele>691</ele>
        <time>2013-04-07T07:20:08.000Z</time>
      </trkpt>
      <trkpt lat="48.63054" lon="7.26022">
        <ele>691</ele>
        <time>2013-04-07T07:20:10.000Z</time>
      </trkpt>
      <trkpt lat="48.63057" lon="7.26026">
        <ele>691</ele>
        <time>2013-04-07T07:20:12.000Z</time>
      </trkpt>
      <trkpt lat="48.63062" lon="7.26031">
        <ele>691</ele>
        <time>2013-04-07T07:20:14.000Z</time>
      </trkpt>
      <trkpt lat="48.6307" lon="7.26034">
        <ele>691</ele>
        <time>2013-04-07T07:20:16.000Z</time>
      </trkpt>
      <trkpt lat="48.63055" lon="7.26036">
        <ele>691</ele>
        <time>2013-04-07T07:20:19.000Z</time>
      </trkpt>
      <trkpt lat="48.63074" lon="7.2605">
        <ele>691</ele>
        <time>2013-04-07T07:20:23.000Z</time>
      </trkpt>
      <trkpt lat="48.63074" lon="7.26052">
        <ele>691</ele>
        <time>2013-04-07T07:20:25.000Z</time>
      </trkpt>
      <trkpt lat="48.63074" lon="7.26055">
        <ele>691</ele>
        <time>2013-04-07T07:20:27.000Z</time>
      </trkpt>
      <trkpt lat="48.63079" lon="7.26058">
        <ele>691</ele>
        <time>2013-04-07T07:20:31.000Z</time>
      </trkpt>
      <trkpt lat="48.6308" lon="7.26062">
        <ele>691</ele>
        <time>2013-04-07T07:20:33.000Z</time>
      </trkpt>
      <trkpt lat="48.63082" lon="7.26065">
        <ele>691</ele>
        <time>2013-04-07T07:20:37.000Z</time>
      </trkpt>
      <trkpt lat="48.63082" lon="7.26065">
        <ele>691</ele>
        <time>2013-04-07T07:20:57.000Z</time>
      </trkpt>
      <trkpt lat="48.63083" lon="7.26067">
        <ele>691</ele>
        <time>2013-04-07T07:21:04.000Z</time>
      </trkpt>
      <trkpt lat="48.63083" lon="7.26067">
        <ele>691</ele>
        <time>2013-04-07T07:21:24.000Z</time>
      </trkpt>
      <trkpt lat="48.63083" lon="7.26069">
        <ele>691</ele>
        <time>2013-04-07T07:21:33.000Z</time>
      </trkpt>
      <trkpt lat="48.63083" lon="7.26069">
        <ele>691</ele>
        <time>2013-04-07T07:21:53.000Z</time>
      </trkpt>
      <trkpt lat="48.63085" lon="7.2607">
        <ele>690</ele>
        <time>2013-04-07T07:22:07.000Z</time>
      </trkpt>
      <trkpt lat="48.63087" lon="7.26071">
        <ele>690</ele>
        <time>2013-04-07T07:22:27.000Z</time>
      </trkpt>
      <trkpt lat="48.63087" lon="7.26071">
        <ele>690</ele>
        <time>2013-04-07T07:22:47.000Z</time>
      </trkpt>
      <trkpt lat="48.63085" lon="7.26071">
        <ele>690</ele>
        <time>2013-04-07T07:22:55.000Z</time>
      </trkpt>
      <trkpt lat="48.63077" lon="7.26066">
        <ele>691</ele>
        <time>2013-04-07T07:22:58.000Z</time>
      </trkpt>
      <trkpt lat="48.63075" lon="7.26066">
        <ele>691</ele>
        <time>2013-04-07T07:23:12.000Z</time>
      </trkpt>
      <trkpt lat="48.63074" lon="7.26065">
        <ele>691</ele>
        <time>2013-04-07T07:23:15.000Z</time>
      </trkpt>
      <trkpt lat="48.6307" lon="7.26051">
        <ele>691</ele>
        <time>2013-04-07T07:23:18.000Z</time>
      </trkpt>
      <trkpt lat="48.63064" lon="7.26041">
        <ele>691</ele>
        <time>2013-04-07T07:23:20.000Z</time>
      </trkpt>
      <trkpt lat="48.63049" lon="7.26028">
        <ele>691</ele>
        <time>2013-04-07T07:23:23.000Z</time>
      </trkpt>
      <trkpt lat="48.63044" lon="7.26021">
        <ele>691</ele>
        <time>2013-04-07T07:23:25.000Z</time>
      </trkpt>
      <trkpt lat="48.63042" lon="7.26019">
        <ele>691</ele>
        <time>2013-04-07T07:23:43.000Z</time>
      </trkpt>
      <trkpt lat="48.63042" lon="7.26019">
        <ele>691</ele>
        <time>2013-04-07T07:24:03.000Z</time>
      </trkpt>
      <trkpt lat="48.63041" lon="7.26017">
        <ele>691</ele>
        <time>2013-04-07T07:24:13.000Z</time>
      </trkpt>
      <trkpt lat="48.63041" lon="7.26017">
        <ele>691</ele>
        <time>2013-04-07T07:24:33.000Z</time>
      </trkpt>
      <trkpt lat="48.63042" lon="7.26016">
        <ele>691</ele>
        <time>2013-04-07T07:26:38.000Z</time>
      </trkpt>
      <trkpt lat="48.63043" lon="7.26017">
        <ele>691</ele>
        <time>2013-04-07T07:26:40.000Z</time>
      </trkpt>
      <trkpt lat="48.63049" lon="7.26023">
        <ele>691</ele>
        <time>2013-04-07T07:26:44.000Z</time>
      </trkpt>
      <trkpt lat="48.63054" lon="7.26028">
        <ele>691</ele>
        <time>2013-04-07T07:26:47.000Z</time>
      </trkpt>
      <trkpt lat="48.63055" lon="7.26037">
        <ele>691</ele>
        <time>2013-04-07T07:26:49.000Z</time>
      </trkpt>
      <trkpt lat="48.63057" lon="7.26044">
        <ele>691</ele>
        <time>2013-04-07T07:26:52.000Z</time>
      </trkpt>
      <trkpt lat="48.6306" lon="7.26042">
        <ele>691</ele>
        <time>2013-04-07T07:26:54.000Z</time>
      </trkpt>
      <trkpt lat="48.63064" lon="7.26039">
        <ele>691</ele>
        <time>2013-04-07T07:26:58.000Z</time>
      </trkpt>
      <trkpt lat="48.63065" lon="7.26037">
        <ele>691</ele>
        <time>2013-04-07T07:27:01.000Z</time>
      </trkpt>
      <trkpt lat="48.63067" lon="7.26037">
        <ele>691</ele>
        <time>2013-04-07T07:27:03.000Z</time>
      </trkpt>
      <trkpt lat="48.63068" lon="7.26039">
        <ele>691</ele>
        <time>2013-04-07T07:27:05.000Z</time>
      </trkpt>
      <trkpt lat="48.63068" lon="7.26043">
        <ele>691</ele>
        <time>2013-04-07T07:27:07.000Z</time>
      </trkpt>
      <trkpt lat="48.63069" lon="7.26046">
        <ele>691</ele>
        <time>2013-04-07T07:27:09.000Z</time>
      </trkpt>
      <trkpt lat="48.63071" lon="7.2605">
        <ele>691</ele>
        <time>2013-04-07T07:27:13.000Z</time>
      </trkpt>
      <trkpt lat="48.63071" lon="7.26053">
        <ele>691</ele>
        <time>2013-04-07T07:27:18.000Z</time>
      </trkpt>
      <trkpt lat="48.63073" lon="7.26055">
        <ele>691</ele>
        <time>2013-04-07T07:27:21.000Z</time>
      </trkpt>
      <trkpt lat="48.63075" lon="7.26059">
        <ele>691</ele>
        <time>2013-04-07T07:27:23.000Z</time>
      </trkpt>
      <trkpt lat="48.63077" lon="7.26061">
        <ele>691</ele>
        <time>2013-04-07T07:27:25.000Z</time>
      </trkpt>
      <trkpt lat="48.63079" lon="7.26061">
        <ele>691</ele>
        <time>2013-04-07T07:27:28.000Z</time>
      </trkpt>
      <trkpt lat="48.63079" lon="7.26061">
        <ele>691</ele>
        <time>2013-04-07T07:27:48.000Z</time>
      </trkpt>
      <trkpt lat="48.63099" lon="7.26068">
        <ele>690</ele>
        <time>2013-04-07T07:27:54.000Z</time>
      </trkpt>
      <trkpt lat="48.63099" lon="7.26068">
        <ele>690</ele>
        <time>2013-04-07T07:28:14.000Z</time>
      </trkpt>
      <trkpt lat="48.63079" lon="7.26066">
        <ele>691</ele>
        <time>2013-04-07T07:28:35.000Z</time>
      </trkpt>
      <trkpt lat="48.63079" lon="7.26066">
        <ele>691</ele>
        <time>2013-04-07T07:28:55.000Z</time>
      </trkpt>
      <trkpt lat="48.6308" lon="7.26066">
        <ele>691</ele>
        <time>2013-04-07T07:33:13.000Z</time>
      </trkpt>
      <trkpt lat="48.6308" lon="7.26059">
        <ele>691</ele>
        <time>2013-04-07T07:33:20.000Z</time>
      </trkpt>
      <trkpt lat="48.6308" lon="7.26063">
        <ele>691</ele>
        <time>2013-04-07T07:33:22.000Z</time>
      </trkpt>
      <trkpt lat="48.63084" lon="7.26067">
        <ele>690</ele>
        <time>2013-04-07T07:33:30.000Z</time>
      </trkpt>
      <trkpt lat="48.63086" lon="7.26068">
        <ele>690</ele>
        <time>2013-04-07T07:33:32.000Z</time>
      </trkpt>
      <trkpt lat="48.63086" lon="7.26061">
        <ele>690</ele>
        <time>2013-04-07T07:33:34.000Z</time>
      </trkpt>
      <trkpt lat="48.63083" lon="7.26057">
        <ele>691</ele>
        <time>2013-04-07T07:33:38.000Z</time>
      </trkpt>
      <trkpt lat="48.63073" lon="7.26064">
        <ele>691</ele>
        <time>2013-04-07T07:33:41.000Z</time>
      </trkpt>
      <trkpt lat="48.63081" lon="7.2606">
        <ele>691</ele>
        <time>2013-04-07T07:33:47.000Z</time>
      </trkpt>
      <trkpt lat="48.63078" lon="7.26068">
        <ele>691</ele>
        <time>2013-04-07T07:33:50.000Z</time>
      </trkpt>
      <trkpt lat="48.63085" lon="7.26061">
        <ele>690</ele>
        <time>2013-04-07T07:33:53.000Z</time>
      </trkpt>
      <trkpt lat="48.63084" lon="7.26063">
        <ele>690</ele>
        <time>2013-04-07T07:34:06.000Z</time>
      </trkpt>
      <trkpt lat="48.63084" lon="7.26063">
        <ele>690</ele>
        <time>2013-04-07T07:34:26.000Z</time>
      </trkpt>
      <trkpt lat="48.63087" lon="7.26067">
        <ele>690</ele>
        <time>2013-04-07T07:35:10.000Z</time>
      </trkpt>
      <trkpt lat="48.63081" lon="7.2606">
        <ele>691</ele>
        <time>2013-04-07T07:35:13.000Z</time>
      </trkpt>
      <trkpt lat="48.63081" lon="7.2606">
        <ele>691</ele>
        <time>2013-04-07T07:35:33.000Z</time>
      </trkpt>
      <trkpt lat="48.63098" lon="7.26059">
        <ele>689</ele>
        <time>2013-04-07T07:36:23.000Z</time>
      </trkpt>
      <trkpt lat="48.63107" lon="7.26051">
        <ele>689</ele>
        <time>2013-04-07T07:36:27.000Z</time>
      </trkpt>
      <trkpt lat="48.63092" lon="7.26047">
        <ele>689</ele>
        <time>2013-04-07T07:36:30.000Z</time>
      </trkpt>
      <trkpt lat="48.63086" lon="7.26041">
        <ele>689</ele>
        <time>2013-04-07T07:36:33.000Z</time>
      </trkpt>
      <trkpt lat="48.63056" lon="7.26027">
        <ele>691</ele>
        <time>2013-04-07T07:36:38.000Z</time>
      </trkpt>
      <trkpt lat="48.63053" lon="7.26025">
        <ele>691</ele>
        <time>2013-04-07T07:36:40.000Z</time>
      </trkpt>
      <trkpt lat="48.63049" lon="7.26021">
        <ele>691</ele>
        <time>2013-04-07T07:36:42.000Z</time>
      </trkpt>
      <trkpt lat="48.63042" lon="7.2602">
        <ele>691</ele>
        <time>2013-04-07T07:36:44.000Z</time>
      </trkpt>
      <trkpt lat="48.63037" lon="7.26016">
        <ele>691</ele>
        <time>2013-04-07T07:36:47.000Z</time>
      </trkpt>
      <trkpt lat="48.63031" lon="7.26009">
        <ele>691</ele>
        <time>2013-04-07T07:36:51.000Z</time>
      </trkpt>
      <trkpt lat="48.63025" lon="7.26004">
        <ele>691</ele>
        <time>2013-04-07T07:36:55.000Z</time>
      </trkpt>
      <trkpt lat="48.6302" lon="7.26002">
        <ele>692</ele>
        <time>2013-04-07T07:36:59.000Z</time>
      </trkpt>
      <trkpt lat="48.63017" lon="7.26001">
        <ele>692</ele>
        <time>2013-04-07T07:37:01.000Z</time>
      </trkpt>
      <trkpt lat="48.63015" lon="7.25999">
        <ele>691</ele>
        <time>2013-04-07T07:37:03.000Z</time>
      </trkpt>
      <trkpt lat="48.63009" lon="7.25995">
        <ele>691</ele>
        <time>2013-04-07T07:37:07.000Z</time>
      </trkpt>
      <trkpt lat="48.63004" lon="7.25988">
        <ele>691</ele>
        <time>2013-04-07T07:37:09.000Z</time>
      </trkpt>
      <trkpt lat="48.62995" lon="7.25988">
        <ele>695</ele>
        <time>2013-04-07T07:37:14.000Z</time>
      </trkpt>
      <trkpt lat="48.62994" lon="7.25981">
        <ele>696</ele>
        <time>2013-04-07T07:37:16.000Z</time>
      </trkpt>
      <trkpt lat="48.62989" lon="7.25985">
        <ele>696</ele>
        <time>2013-04-07T07:37:18.000Z</time>
      </trkpt>
      <trkpt lat="48.6299" lon="7.25973">
        <ele>697</ele>
        <time>2013-04-07T07:37:20.000Z</time>
      </trkpt>
      <trkpt lat="48.63003" lon="7.25977">
        <ele>691</ele>
        <time>2013-04-07T07:37:24.000Z</time>
      </trkpt>
      <trkpt lat="48.62977" lon="7.25957">
        <ele>698</ele>
        <time>2013-04-07T07:37:28.000Z</time>
      </trkpt>
      <trkpt lat="48.62976" lon="7.25954">
        <ele>698</ele>
        <time>2013-04-07T07:37:30.000Z</time>
      </trkpt>
      <trkpt lat="48.62971" lon="7.25947">
        <ele>698</ele>
        <time>2013-04-07T07:37:33.000Z</time>
      </trkpt>
      <trkpt lat="48.62968" lon="7.25938">
        <ele>699</ele>
        <time>2013-04-07T07:37:37.000Z</time>
      </trkpt>
      <trkpt lat="48.62965" lon="7.25932">
        <ele>699</ele>
        <time>2013-04-07T07:37:39.000Z</time>
      </trkpt>
      <trkpt lat="48.62962" lon="7.25925">
        <ele>699</ele>
        <time>2013-04-07T07:37:42.000Z</time>
      </trkpt>
      <trkpt lat="48.62958" lon="7.25917">
        <ele>699</ele>
        <time>2013-04-07T07:37:45.000Z</time>
      </trkpt>
      <trkpt lat="48.62955" lon="7.25917">
        <ele>700</ele>
        <time>2013-04-07T07:37:47.000Z</time>
      </trkpt>
      <trkpt lat="48.62951" lon="7.25906">
        <ele>700</ele>
        <time>2013-04-07T07:37:51.000Z</time>
      </trkpt>
      <trkpt lat="48.62946" lon="7.25905">
        <ele>700</ele>
        <time>2013-04-07T07:37:54.000Z</time>
      </trkpt>
      <trkpt lat="48.62942" lon="7.25897">
        <ele>701</ele>
        <time>2013-04-07T07:37:58.000Z</time>
      </trkpt>
      <trkpt lat="48.62937" lon="7.25892">
        <ele>701</ele>
        <time>2013-04-07T07:38:02.000Z</time>
      </trkpt>
      <trkpt lat="48.62933" lon="7.25874">
        <ele>701</ele>
        <time>2013-04-07T07:38:06.000Z</time>
      </trkpt>
      <trkpt lat="48.6293" lon="7.25871">
        <ele>701</ele>
        <time>2013-04-07T07:38:09.000Z</time>
      </trkpt>
      <trkpt lat="48.62929" lon="7.25866">
        <ele>701</ele>
        <time>2013-04-07T07:38:11.000Z</time>
      </trkpt>
      <trkpt lat="48.6294" lon="7.25855">
        <ele>701</ele>
        <time>2013-04-07T07:38:14.000Z</time>
      </trkpt>
      <trkpt lat="48.62923" lon="7.2585">
        <ele>702</ele>
        <time>2013-04-07T07:38:17.000Z</time>
      </trkpt>
      <trkpt lat="48.6292" lon="7.25853">
        <ele>702</ele>
        <time>2013-04-07T07:38:19.000Z</time>
      </trkpt>
      <trkpt lat="48.62919" lon="7.25843">
        <ele>704</ele>
        <time>2013-04-07T07:38:22.000Z</time>
      </trkpt>
      <trkpt lat="48.62925" lon="7.25836">
        <ele>704</ele>
        <time>2013-04-07T07:38:26.000Z</time>
      </trkpt>
      <trkpt lat="48.62918" lon="7.25825">
        <ele>704</ele>
        <time>2013-04-07T07:38:30.000Z</time>
      </trkpt>
      <trkpt lat="48.62911" lon="7.25815">
        <ele>715</ele>
        <time>2013-04-07T07:38:34.000Z</time>
      </trkpt>
      <trkpt lat="48.62908" lon="7.25809">
        <ele>717</ele>
        <time>2013-04-07T07:38:36.000Z</time>
      </trkpt>
      <trkpt lat="48.62907" lon="7.25805">
        <ele>718</ele>
        <time>2013-04-07T07:38:38.000Z</time>
      </trkpt>
      <trkpt lat="48.62904" lon="7.25794">
        <ele>719</ele>
        <time>2013-04-07T07:38:44.000Z</time>
      </trkpt>
      <trkpt lat="48.62903" lon="7.25778">
        <ele>718</ele>
        <time>2013-04-07T07:38:48.000Z</time>
      </trkpt>
      <trkpt lat="48.62903" lon="7.25771">
        <ele>717</ele>
        <time>2013-04-07T07:38:50.000Z</time>
      </trkpt>
      <trkpt lat="48.62901" lon="7.25767">
        <ele>717</ele>
        <time>2013-04-07T07:38:54.000Z</time>
      </trkpt>
      <trkpt lat="48.62899" lon="7.25754">
        <ele>716</ele>
        <time>2013-04-07T07:38:57.000Z</time>
      </trkpt>
      <trkpt lat="48.62896" lon="7.25749">
        <ele>715</ele>
        <time>2013-04-07T07:39:01.000Z</time>
      </trkpt>
      <trkpt lat="48.62895" lon="7.25744">
        <ele>716</ele>
        <time>2013-04-07T07:39:03.000Z</time>
      </trkpt>
      <trkpt lat="48.62891" lon="7.25736">
        <ele>718</ele>
        <time>2013-04-07T07:39:07.000Z</time>
      </trkpt>
      <trkpt lat="48.62888" lon="7.25732">
        <ele>719</ele>
        <time>2013-04-07T07:39:10.000Z</time>
      </trkpt>
      <trkpt lat="48.62888" lon="7.25722">
        <ele>719</ele>
        <time>2013-04-07T07:39:12.000Z</time>
      </trkpt>
      <trkpt lat="48.62887" lon="7.25715">
        <ele>719</ele>
        <time>2013-04-07T07:39:15.000Z</time>
      </trkpt>
      <trkpt lat="48.62886" lon="7.25708">
        <ele>719</ele>
        <time>2013-04-07T07:39:17.000Z</time>
      </trkpt>
      <trkpt lat="48.62885" lon="7.25696">
        <ele>719</ele>
        <time>2013-04-07T07:39:20.000Z</time>
      </trkpt>
      <trkpt lat="48.62882" lon="7.25696">
        <ele>720</ele>
        <time>2013-04-07T07:39:22.000Z</time>
      </trkpt>
      <trkpt lat="48.62881" lon="7.25689">
        <ele>720</ele>
        <time>2013-04-07T07:39:25.000Z</time>
      </trkpt>
      <trkpt lat="48.62886" lon="7.25691">
        <ele>719</ele>
        <time>2013-04-07T07:39:28.000Z</time>
      </trkpt>
      <trkpt lat="48.62879" lon="7.25677">
        <ele>720</ele>
        <time>2013-04-07T07:39:32.000Z</time>
      </trkpt>
      <trkpt lat="48.62877" lon="7.25667">
        <ele>720</ele>
        <time>2013-04-07T07:39:36.000Z</time>
      </trkpt>
      <trkpt lat="48.62872" lon="7.25666">
        <ele>720</ele>
        <time>2013-04-07T07:39:38.000Z</time>
      </trkpt>
      <trkpt lat="48.62871" lon="7.25652">
        <ele>721</ele>
        <time>2013-04-07T07:39:42.000Z</time>
      </trkpt>
      <trkpt lat="48.6287" lon="7.25648">
        <ele>721</ele>
        <time>2013-04-07T07:39:44.000Z</time>
      </trkpt>
      <trkpt lat="48.62867" lon="7.25634">
        <ele>721</ele>
        <time>2013-04-07T07:39:49.000Z</time>
      </trkpt>
      <trkpt lat="48.62867" lon="7.25637">
        <ele>721</ele>
        <time>2013-04-07T07:39:51.000Z</time>
      </trkpt>
      <trkpt lat="48.62864" lon="7.25633">
        <ele>721</ele>
        <time>2013-04-07T07:39:53.000Z</time>
      </trkpt>
      <trkpt lat="48.62861" lon="7.2563">
        <ele>722</ele>
        <time>2013-04-07T07:39:57.000Z</time>
      </trkpt>
      <trkpt lat="48.62862" lon="7.25624">
        <ele>721</ele>
        <time>2013-04-07T07:39:59.000Z</time>
      </trkpt>
      <trkpt lat="48.6286" lon="7.25612">
        <ele>722</ele>
        <time>2013-04-07T07:40:03.000Z</time>
      </trkpt>
      <trkpt lat="48.62858" lon="7.25614">
        <ele>722</ele>
        <time>2013-04-07T07:40:06.000Z</time>
      </trkpt>
      <trkpt lat="48.62854" lon="7.25612">
        <ele>722</ele>
        <time>2013-04-07T07:40:10.000Z</time>
      </trkpt>
      <trkpt lat="48.62852" lon="7.25611">
        <ele>723</ele>
        <time>2013-04-07T07:40:12.000Z</time>
      </trkpt>
      <trkpt lat="48.6285" lon="7.25609">
        <ele>723</ele>
        <time>2013-04-07T07:40:14.000Z</time>
      </trkpt>
      <trkpt lat="48.62843" lon="7.25602">
        <ele>724</ele>
        <time>2013-04-07T07:40:17.000Z</time>
      </trkpt>
      <trkpt lat="48.62837" lon="7.25605">
        <ele>724</ele>
        <time>2013-04-07T07:40:20.000Z</time>
      </trkpt>
      <trkpt lat="48.62836" lon="7.25601">
        <ele>725</ele>
        <time>2013-04-07T07:40:22.000Z</time>
      </trkpt>
      <trkpt lat="48.62829" lon="7.25601">
        <ele>734</ele>
        <time>2013-04-07T07:40:25.000Z</time>
      </trkpt>
      <trkpt lat="48.62822" lon="7.25599">
        <ele>735</ele>
        <time>2013-04-07T07:40:30.000Z</time>
      </trkpt>
      <trkpt lat="48.62819" lon="7.25601">
        <ele>736</ele>
        <time>2013-04-07T07:40:32.000Z</time>
      </trkpt>
      <trkpt lat="48.62817" lon="7.25601">
        <ele>736</ele>
        <time>2013-04-07T07:40:34.000Z</time>
      </trkpt>
      <trkpt lat="48.6281" lon="7.25609">
        <ele>738</ele>
        <time>2013-04-07T07:40:38.000Z</time>
      </trkpt>
      <trkpt lat="48.6281" lon="7.25606">
        <ele>737</ele>
        <time>2013-04-07T07:40:40.000Z</time>
      </trkpt>
      <trkpt lat="48.62804" lon="7.2561">
        <ele>738</ele>
        <time>2013-04-07T07:40:44.000Z</time>
      </trkpt>
      <trkpt lat="48.62799" lon="7.25612">
        <ele>739</ele>
        <time>2013-04-07T07:40:48.000Z</time>
      </trkpt>
      <trkpt lat="48.62797" lon="7.25617">
        <ele>740</ele>
        <time>2013-04-07T07:40:50.000Z</time>
      </trkpt>
      <trkpt lat="48.62793" lon="7.2562">
        <ele>740</ele>
        <time>2013-04-07T07:40:54.000Z</time>
      </trkpt>
      <trkpt lat="48.62789" lon="7.25633">
        <ele>741</ele>
        <time>2013-04-07T07:40:58.000Z</time>
      </trkpt>
      <trkpt lat="48.62787" lon="7.25637">
        <ele>742</ele>
        <time>2013-04-07T07:41:02.000Z</time>
      </trkpt>
      <trkpt lat="48.62785" lon="7.25642">
        <ele>742</ele>
        <time>2013-04-07T07:41:04.000Z</time>
      </trkpt>
      <trkpt lat="48.62783" lon="7.25653">
        <ele>743</ele>
        <time>2013-04-07T07:41:10.000Z</time>
      </trkpt>
      <trkpt lat="48.62783" lon="7.25659">
        <ele>744</ele>
        <time>2013-04-07T07:41:14.000Z</time>
      </trkpt>
      <trkpt lat="48.62782" lon="7.25669">
        <ele>748</ele>
        <time>2013-04-07T07:41:16.000Z</time>
      </trkpt>
      <trkpt lat="48.62781" lon="7.25674">
        <ele>749</ele>
        <time>2013-04-07T07:41:20.000Z</time>
      </trkpt>
      <trkpt lat="48.62781" lon="7.25679">
        <ele>749</ele>
        <time>2013-04-07T07:41:24.000Z</time>
      </trkpt>
      <trkpt lat="48.62779" lon="7.25693">
        <ele>749</ele>
        <time>2013-04-07T07:41:28.000Z</time>
      </trkpt>
      <trkpt lat="48.62804" lon="7.25688">
        <ele>745</ele>
        <time>2013-04-07T07:41:32.000Z</time>
      </trkpt>
      <trkpt lat="48.62778" lon="7.25711">
        <ele>750</ele>
        <time>2013-04-07T07:41:36.000Z</time>
      </trkpt>
      <trkpt lat="48.62777" lon="7.25719">
        <ele>750</ele>
        <time>2013-04-07T07:41:40.000Z</time>
      </trkpt>
      <trkpt lat="48.62776" lon="7.25725">
        <ele>751</ele>
        <time>2013-04-07T07:41:44.000Z</time>
      </trkpt>
      <trkpt lat="48.62774" lon="7.2573">
        <ele>752</ele>
        <time>2013-04-07T07:41:48.000Z</time>
      </trkpt>
      <trkpt lat="48.62786" lon="7.25741">
        <ele>750</ele>
        <time>2013-04-07T07:41:52.000Z</time>
      </trkpt>
      <trkpt lat="48.62769" lon="7.25751">
        <ele>757</ele>
        <time>2013-04-07T07:41:55.000Z</time>
      </trkpt>
      <trkpt lat="48.62768" lon="7.25756">
        <ele>757</ele>
        <time>2013-04-07T07:41:57.000Z</time>
      </trkpt>
      <trkpt lat="48.62767" lon="7.25766">
        <ele>757</ele>
        <time>2013-04-07T07:42:01.000Z</time>
      </trkpt>
      <trkpt lat="48.62762" lon="7.25758">
        <ele>758</ele>
        <time>2013-04-07T07:42:03.000Z</time>
      </trkpt>
      <trkpt lat="48.62766" lon="7.25778">
        <ele>756</ele>
        <time>2013-04-07T07:42:07.000Z</time>
      </trkpt>
      <trkpt lat="48.62765" lon="7.25786">
        <ele>756</ele>
        <time>2013-04-07T07:42:11.000Z</time>
      </trkpt>
      <trkpt lat="48.62764" lon="7.25795">
        <ele>756</ele>
        <time>2013-04-07T07:42:13.000Z</time>
      </trkpt>
      <trkpt lat="48.62769" lon="7.25799">
        <ele>756</ele>
        <time>2013-04-07T07:42:16.000Z</time>
      </trkpt>
      <trkpt lat="48.62761" lon="7.25813">
        <ele>758</ele>
        <time>2013-04-07T07:42:20.000Z</time>
      </trkpt>
      <trkpt lat="48.62762" lon="7.25817">
        <ele>759</ele>
        <time>2013-04-07T07:42:23.000Z</time>
      </trkpt>
      <trkpt lat="48.62758" lon="7.25832">
        <ele>762</ele>
        <time>2013-04-07T07:42:27.000Z</time>
      </trkpt>
      <trkpt lat="48.62757" lon="7.25842">
        <ele>763</ele>
        <time>2013-04-07T07:42:30.000Z</time>
      </trkpt>
      <trkpt lat="48.6275" lon="7.25827">
        <ele>762</ele>
        <time>2013-04-07T07:42:33.000Z</time>
      </trkpt>
      <trkpt lat="48.62755" lon="7.25859">
        <ele>762</ele>
        <time>2013-04-07T07:42:36.000Z</time>
      </trkpt>
      <trkpt lat="48.62754" lon="7.25864">
        <ele>762</ele>
        <time>2013-04-07T07:42:38.000Z</time>
      </trkpt>
      <trkpt lat="48.62753" lon="7.25868">
        <ele>762</ele>
        <time>2013-04-07T07:42:40.000Z</time>
      </trkpt>
      <trkpt lat="48.62753" lon="7.25873">
        <ele>762</ele>
        <time>2013-04-07T07:42:42.000Z</time>
      </trkpt>
      <trkpt lat="48.6275" lon="7.25878">
        <ele>768</ele>
        <time>2013-04-07T07:42:45.000Z</time>
      </trkpt>
      <trkpt lat="48.62749" lon="7.25881">
        <ele>769</ele>
        <time>2013-04-07T07:42:47.000Z</time>
      </trkpt>
      <trkpt lat="48.62745" lon="7.25891">
        <ele>769</ele>
        <time>2013-04-07T07:42:50.000Z</time>
      </trkpt>
      <trkpt lat="48.6274" lon="7.25903">
        <ele>770</ele>
        <time>2013-04-07T07:42:53.000Z</time>
      </trkpt>
      <trkpt lat="48.62735" lon="7.2591">
        <ele>770</ele>
        <time>2013-04-07T07:42:56.000Z</time>
      </trkpt>
      <trkpt lat="48.62729" lon="7.25919">
        <ele>773</ele>
        <time>2013-04-07T07:42:59.000Z</time>
      </trkpt>
      <trkpt lat="48.62727" lon="7.2592">
        <ele>773</ele>
        <time>2013-04-07T07:43:01.000Z</time>
      </trkpt>
      <trkpt lat="48.62724" lon="7.25927">
        <ele>773</ele>
        <time>2013-04-07T07:43:04.000Z</time>
      </trkpt>
      <trkpt lat="48.6272" lon="7.25936">
        <ele>774</ele>
        <time>2013-04-07T07:43:07.000Z</time>
      </trkpt>
      <trkpt lat="48.62715" lon="7.25947">
        <ele>774</ele>
        <time>2013-04-07T07:43:10.000Z</time>
      </trkpt>
      <trkpt lat="48.62709" lon="7.25952">
        <ele>774</ele>
        <time>2013-04-07T07:43:13.000Z</time>
      </trkpt>
      <trkpt lat="48.62714" lon="7.2595">
        <ele>774</ele>
        <time>2013-04-07T07:43:16.000Z</time>
      </trkpt>
      <trkpt lat="48.62695" lon="7.25956">
        <ele>774</ele>
        <time>2013-04-07T07:43:20.000Z</time>
      </trkpt>
      <trkpt lat="48.6269" lon="7.25956">
        <ele>774</ele>
        <time>2013-04-07T07:43:23.000Z</time>
      </trkpt>
      <trkpt lat="48.62682" lon="7.2597">
        <ele>775</ele>
        <time>2013-04-07T07:43:28.000Z</time>
      </trkpt>
      <trkpt lat="48.62679" lon="7.25972">
        <ele>776</ele>
        <time>2013-04-07T07:43:31.000Z</time>
      </trkpt>
      <trkpt lat="48.62675" lon="7.25976">
        <ele>776</ele>
        <time>2013-04-07T07:43:34.000Z</time>
      </trkpt>
      <trkpt lat="48.62672" lon="7.25988">
        <ele>777</ele>
        <time>2013-04-07T07:43:37.000Z</time>
      </trkpt>
      <trkpt lat="48.62668" lon="7.25997">
        <ele>778</ele>
        <time>2013-04-07T07:43:41.000Z</time>
      </trkpt>
      <trkpt lat="48.62664" lon="7.2601">
        <ele>781</ele>
        <time>2013-04-07T07:43:44.000Z</time>
      </trkpt>
      <trkpt lat="48.62662" lon="7.26018">
        <ele>782</ele>
        <time>2013-04-07T07:43:47.000Z</time>
      </trkpt>
      <trkpt lat="48.6266" lon="7.26024">
        <ele>782</ele>
        <time>2013-04-07T07:43:49.000Z</time>
      </trkpt>
      <trkpt lat="48.62656" lon="7.26038">
        <ele>783</ele>
        <time>2013-04-07T07:43:52.000Z</time>
      </trkpt>
      <trkpt lat="48.62652" lon="7.26046">
        <ele>784</ele>
        <time>2013-04-07T07:43:55.000Z</time>
      </trkpt>
      <trkpt lat="48.62648" lon="7.26055">
        <ele>784</ele>
        <time>2013-04-07T07:43:58.000Z</time>
      </trkpt>
      <trkpt lat="48.62644" lon="7.26057">
        <ele>784</ele>
        <time>2013-04-07T07:44:01.000Z</time>
      </trkpt>
      <trkpt lat="48.6264" lon="7.26064">
        <ele>784</ele>
        <time>2013-04-07T07:44:04.000Z</time>
      </trkpt>
      <trkpt lat="48.62652" lon="7.26071">
        <ele>784</ele>
        <time>2013-04-07T07:44:07.000Z</time>
      </trkpt>
      <trkpt lat="48.62629" lon="7.2608">
        <ele>785</ele>
        <time>2013-04-07T07:44:11.000Z</time>
      </trkpt>
      <trkpt lat="48.62649" lon="7.26083">
        <ele>785</ele>
        <time>2013-04-07T07:44:15.000Z</time>
      </trkpt>
      <trkpt lat="48.62619" lon="7.26088">
        <ele>788</ele>
        <time>2013-04-07T07:44:19.000Z</time>
      </trkpt>
      <trkpt lat="48.6265" lon="7.26098">
        <ele>787</ele>
        <time>2013-04-07T07:44:22.000Z</time>
      </trkpt>
      <trkpt lat="48.62608" lon="7.26112">
        <ele>788</ele>
        <time>2013-04-07T07:44:25.000Z</time>
      </trkpt>
      <trkpt lat="48.62603" lon="7.26118">
        <ele>788</ele>
        <time>2013-04-07T07:44:28.000Z</time>
      </trkpt>
      <trkpt lat="48.626" lon="7.26117">
        <ele>788</ele>
        <time>2013-04-07T07:44:31.000Z</time>
      </trkpt>
      <trkpt lat="48.62595" lon="7.26121">
        <ele>789</ele>
        <time>2013-04-07T07:44:34.000Z</time>
      </trkpt>
      <trkpt lat="48.62591" lon="7.26128">
        <ele>789</ele>
        <time>2013-04-07T07:44:37.000Z</time>
      </trkpt>
      <trkpt lat="48.62586" lon="7.2613">
        <ele>789</ele>
        <time>2013-04-07T07:44:39.000Z</time>
      </trkpt>
      <trkpt lat="48.62579" lon="7.26142">
        <ele>790</ele>
        <time>2013-04-07T07:44:42.000Z</time>
      </trkpt>
      <trkpt lat="48.62576" lon="7.26142">
        <ele>790</ele>
        <time>2013-04-07T07:44:44.000Z</time>
      </trkpt>
      <trkpt lat="48.62568" lon="7.26149">
        <ele>790</ele>
        <time>2013-04-07T07:44:47.000Z</time>
      </trkpt>
      <trkpt lat="48.62561" lon="7.26149">
        <ele>790</ele>
        <time>2013-04-07T07:44:50.000Z</time>
      </trkpt>
      <trkpt lat="48.62557" lon="7.26153">
        <ele>790</ele>
        <time>2013-04-07T07:44:52.000Z</time>
      </trkpt>
      <trkpt lat="48.62551" lon="7.26159">
        <ele>790</ele>
        <time>2013-04-07T07:44:54.000Z</time>
      </trkpt>
      <trkpt lat="48.62545" lon="7.26164">
        <ele>790</ele>
        <time>2013-04-07T07:44:56.000Z</time>
      </trkpt>
      <trkpt lat="48.6254" lon="7.26162">
        <ele>790</ele>
        <time>2013-04-07T07:44:59.000Z</time>
      </trkpt>
      <trkpt lat="48.62538" lon="7.26166">
        <ele>790</ele>
        <time>2013-04-07T07:45:01.000Z</time>
      </trkpt>
      <trkpt lat="48.62532" lon="7.26172">
        <ele>791</ele>
        <time>2013-04-07T07:45:04.000Z</time>
      </trkpt>
      <trkpt lat="48.62539" lon="7.26177">
        <ele>791</ele>
        <time>2013-04-07T07:45:07.000Z</time>
      </trkpt>
      <trkpt lat="48.62518" lon="7.26181">
        <ele>791</ele>
        <time>2013-04-07T07:45:11.000Z</time>
      </trkpt>
      <trkpt lat="48.62512" lon="7.26183">
        <ele>791</ele>
        <time>2013-04-07T07:45:14.000Z</time>
      </trkpt>
      <trkpt lat="48.62501" lon="7.26191">
        <ele>792</ele>
        <time>2013-04-07T07:45:18.000Z</time>
      </trkpt>
      <trkpt lat="48.62497" lon="7.26187">
        <ele>793</ele>
        <time>2013-04-07T07:45:20.000Z</time>
      </trkpt>
      <trkpt lat="48.62493" lon="7.26187">
        <ele>793</ele>
        <time>2013-04-07T07:45:22.000Z</time>
      </trkpt>
      <trkpt lat="48.62487" lon="7.26193">
        <ele>794</ele>
        <time>2013-04-07T07:45:25.000Z</time>
      </trkpt>
      <trkpt lat="48.62482" lon="7.26199">
        <ele>794</ele>
        <time>2013-04-07T07:45:29.000Z</time>
      </trkpt>
      <trkpt lat="48.62479" lon="7.26207">
        <ele>794</ele>
        <time>2013-04-07T07:45:32.000Z</time>
      </trkpt>
      <trkpt lat="48.62474" lon="7.26211">
        <ele>794</ele>
        <time>2013-04-07T07:45:35.000Z</time>
      </trkpt>
      <trkpt lat="48.62472" lon="7.26212">
        <ele>795</ele>
        <time>2013-04-07T07:45:37.000Z</time>
      </trkpt>
      <trkpt lat="48.62466" lon="7.26216">
        <ele>795</ele>
        <time>2013-04-07T07:45:40.000Z</time>
      </trkpt>
      <trkpt lat="48.62462" lon="7.26218">
        <ele>795</ele>
        <time>2013-04-07T07:45:42.000Z</time>
      </trkpt>
      <trkpt lat="48.62452" lon="7.26227">
        <ele>795</ele>
        <time>2013-04-07T07:45:46.000Z</time>
      </trkpt>
      <trkpt lat="48.62444" lon="7.26224">
        <ele>796</ele>
        <time>2013-04-07T07:45:50.000Z</time>
      </trkpt>
      <trkpt lat="48.62441" lon="7.2623">
        <ele>796</ele>
        <time>2013-04-07T07:45:52.000Z</time>
      </trkpt>
      <trkpt lat="48.62437" lon="7.26236">
        <ele>796</ele>
        <time>2013-04-07T07:45:55.000Z</time>
      </trkpt>
      <trkpt lat="48.62431" lon="7.26248">
        <ele>797</ele>
        <time>2013-04-07T07:45:59.000Z</time>
      </trkpt>
      <trkpt lat="48.62428" lon="7.26249">
        <ele>797</ele>
        <time>2013-04-07T07:46:02.000Z</time>
      </trkpt>
      <trkpt lat="48.62424" lon="7.26255">
        <ele>799</ele>
        <time>2013-04-07T07:46:06.000Z</time>
      </trkpt>
      <trkpt lat="48.62421" lon="7.2626">
        <ele>799</ele>
        <time>2013-04-07T07:46:09.000Z</time>
      </trkpt>
      <trkpt lat="48.62414" lon="7.26272">
        <ele>800</ele>
        <time>2013-04-07T07:46:13.000Z</time>
      </trkpt>
      <trkpt lat="48.62408" lon="7.26278">
        <ele>800</ele>
        <time>2013-04-07T07:46:18.000Z</time>
      </trkpt>
      <trkpt lat="48.62403" lon="7.26283">
        <ele>801</ele>
        <time>2013-04-07T07:46:22.000Z</time>
      </trkpt>
      <trkpt lat="48.62397" lon="7.26295">
        <ele>801</ele>
        <time>2013-04-07T07:46:28.000Z</time>
      </trkpt>
      <trkpt lat="48.62394" lon="7.26295">
        <ele>801</ele>
        <time>2013-04-07T07:46:30.000Z</time>
      </trkpt>
      <trkpt lat="48.62389" lon="7.26296">
        <ele>801</ele>
        <time>2013-04-07T07:46:33.000Z</time>
      </trkpt>
      <trkpt lat="48.62384" lon="7.26297">
        <ele>801</ele>
        <time>2013-04-07T07:46:37.000Z</time>
      </trkpt>
      <trkpt lat="48.62383" lon="7.26305">
        <ele>801</ele>
        <time>2013-04-07T07:46:39.000Z</time>
      </trkpt>
      <trkpt lat="48.62378" lon="7.2631">
        <ele>801</ele>
        <time>2013-04-07T07:46:41.000Z</time>
      </trkpt>
      <trkpt lat="48.62376" lon="7.26313">
        <ele>801</ele>
        <time>2013-04-07T07:46:45.000Z</time>
      </trkpt>
      <trkpt lat="48.62375" lon="7.26318">
        <ele>802</ele>
        <time>2013-04-07T07:46:47.000Z</time>
      </trkpt>
      <trkpt lat="48.62374" lon="7.26321">
        <ele>802</ele>
        <time>2013-04-07T07:46:49.000Z</time>
      </trkpt>
      <trkpt lat="48.62369" lon="7.26333">
        <ele>802</ele>
        <time>2013-04-07T07:46:53.000Z</time>
      </trkpt>
      <trkpt lat="48.62364" lon="7.26343">
        <ele>804</ele>
        <time>2013-04-07T07:46:57.000Z</time>
      </trkpt>
      <trkpt lat="48.62365" lon="7.26338">
        <ele>804</ele>
        <time>2013-04-07T07:46:59.000Z</time>
      </trkpt>
      <trkpt lat="48.62362" lon="7.26345">
        <ele>804</ele>
        <time>2013-04-07T07:47:03.000Z</time>
      </trkpt>
      <trkpt lat="48.6236" lon="7.26353">
        <ele>804</ele>
        <time>2013-04-07T07:47:05.000Z</time>
      </trkpt>
      <trkpt lat="48.62357" lon="7.26354">
        <ele>804</ele>
        <time>2013-04-07T07:47:08.000Z</time>
      </trkpt>
      <trkpt lat="48.6236" lon="7.26371">
        <ele>804</ele>
        <time>2013-04-07T07:47:11.000Z</time>
      </trkpt>
      <trkpt lat="48.62359" lon="7.26376">
        <ele>804</ele>
        <time>2013-04-07T07:47:14.000Z</time>
      </trkpt>
      <trkpt lat="48.62358" lon="7.26383">
        <ele>804</ele>
        <time>2013-04-07T07:47:16.000Z</time>
      </trkpt>
      <trkpt lat="48.62359" lon="7.26387">
        <ele>804</ele>
        <time>2013-04-07T07:47:18.000Z</time>
      </trkpt>
      <trkpt lat="48.62358" lon="7.26392">
        <ele>804</ele>
        <time>2013-04-07T07:47:20.000Z</time>
      </trkpt>
      <trkpt lat="48.62356" lon="7.26397">
        <ele>804</ele>
        <time>2013-04-07T07:47:23.000Z</time>
      </trkpt>
      <trkpt lat="48.62354" lon="7.26408">
        <ele>804</ele>
        <time>2013-04-07T07:47:26.000Z</time>
      </trkpt>
      <trkpt lat="48.62351" lon="7.26411">
        <ele>805</ele>
        <time>2013-04-07T07:47:28.000Z</time>
      </trkpt>
      <trkpt lat="48.62349" lon="7.26413">
        <ele>805</ele>
        <time>2013-04-07T07:47:30.000Z</time>
      </trkpt>
      <trkpt lat="48.62346" lon="7.26423">
        <ele>806</ele>
        <time>2013-04-07T07:47:33.000Z</time>
      </trkpt>
      <trkpt lat="48.62344" lon="7.2643">
        <ele>806</ele>
        <time>2013-04-07T07:47:35.000Z</time>
      </trkpt>
      <trkpt lat="48.6234" lon="7.26439">
        <ele>806</ele>
        <time>2013-04-07T07:47:38.000Z</time>
      </trkpt>
      <trkpt lat="48.62338" lon="7.26444">
        <ele>806</ele>
        <time>2013-04-07T07:47:40.000Z</time>
      </trkpt>
      <trkpt lat="48.62335" lon="7.26449">
        <ele>806</ele>
        <time>2013-04-07T07:47:43.000Z</time>
      </trkpt>
      <trkpt lat="48.62333" lon="7.26456">
        <ele>813</ele>
        <time>2013-04-07T07:47:45.000Z</time>
      </trkpt>
      <trkpt lat="48.6233" lon="7.26463">
        <ele>813</ele>
        <time>2013-04-07T07:47:48.000Z</time>
      </trkpt>
      <trkpt lat="48.62328" lon="7.26469">
        <ele>813</ele>
        <time>2013-04-07T07:47:51.000Z</time>
      </trkpt>
      <trkpt lat="48.62323" lon="7.26477">
        <ele>814</ele>
        <time>2013-04-07T07:47:54.000Z</time>
      </trkpt>
      <trkpt lat="48.6232" lon="7.26483">
        <ele>814</ele>
        <time>2013-04-07T07:47:57.000Z</time>
      </trkpt>
      <trkpt lat="48.62317" lon="7.26485">
        <ele>814</ele>
        <time>2013-04-07T07:48:00.000Z</time>
      </trkpt>
      <trkpt lat="48.62312" lon="7.265">
        <ele>814</ele>
        <time>2013-04-07T07:48:03.000Z</time>
      </trkpt>
      <trkpt lat="48.6231" lon="7.26504">
        <ele>814</ele>
        <time>2013-04-07T07:48:05.000Z</time>
      </trkpt>
      <trkpt lat="48.62309" lon="7.26514">
        <ele>814</ele>
        <time>2013-04-07T07:48:08.000Z</time>
      </trkpt>
      <trkpt lat="48.62313" lon="7.26517">
        <ele>814</ele>
        <time>2013-04-07T07:48:11.000Z</time>
      </trkpt>
      <trkpt lat="48.62305" lon="7.26532">
        <ele>814</ele>
        <time>2013-04-07T07:48:14.000Z</time>
      </trkpt>
      <trkpt lat="48.62303" lon="7.26543">
        <ele>814</ele>
        <time>2013-04-07T07:48:16.000Z</time>
      </trkpt>
      <trkpt lat="48.62302" lon="7.26536">
        <ele>814</ele>
        <time>2013-04-07T07:48:18.000Z</time>
      </trkpt>
      <trkpt lat="48.62305" lon="7.26559">
        <ele>813</ele>
        <time>2013-04-07T07:48:21.000Z</time>
      </trkpt>
      <trkpt lat="48.62308" lon="7.2656">
        <ele>813</ele>
        <time>2013-04-07T07:48:23.000Z</time>
      </trkpt>
      <trkpt lat="48.62296" lon="7.26556">
        <ele>813</ele>
        <time>2013-04-07T07:48:26.000Z</time>
      </trkpt>
      <trkpt lat="48.6231" lon="7.2658">
        <ele>813</ele>
        <time>2013-04-07T07:48:29.000Z</time>
      </trkpt>
      <trkpt lat="48.62308" lon="7.26583">
        <ele>809</ele>
        <time>2013-04-07T07:48:31.000Z</time>
      </trkpt>
      <trkpt lat="48.62305" lon="7.26593">
        <ele>808</ele>
        <time>2013-04-07T07:48:34.000Z</time>
      </trkpt>
      <trkpt lat="48.62303" lon="7.26597">
        <ele>808</ele>
        <time>2013-04-07T07:48:36.000Z</time>
      </trkpt>
      <trkpt lat="48.62297" lon="7.266">
        <ele>808</ele>
        <time>2013-04-07T07:48:40.000Z</time>
      </trkpt>
      <trkpt lat="48.62293" lon="7.26613">
        <ele>807</ele>
        <time>2013-04-07T07:48:43.000Z</time>
      </trkpt>
      <trkpt lat="48.62293" lon="7.26608">
        <ele>807</ele>
        <time>2013-04-07T07:48:45.000Z</time>
      </trkpt>
      <trkpt lat="48.62293" lon="7.26608">
        <ele>807</ele>
        <time>2013-04-07T07:49:05.000Z</time>
      </trkpt>
      <trkpt lat="48.62292" lon="7.26621">
        <ele>807</ele>
        <time>2013-04-07T07:49:26.000Z</time>
      </trkpt>
      <trkpt lat="48.62292" lon="7.26621">
        <ele>807</ele>
        <time>2013-04-07T07:49:46.000Z</time>
      </trkpt>
      <trkpt lat="48.62291" lon="7.26617">
        <ele>807</ele>
        <time>2013-04-07T07:50:25.000Z</time>
      </trkpt>
      <trkpt lat="48.62291" lon="7.2662">
        <ele>807</ele>
        <time>2013-04-07T07:50:30.000Z</time>
      </trkpt>
      <trkpt lat="48.62292" lon="7.26623">
        <ele>807</ele>
        <time>2013-04-07T07:50:43.000Z</time>
      </trkpt>
      <trkpt lat="48.62291" lon="7.26629">
        <ele>806</ele>
        <time>2013-04-07T07:50:51.000Z</time>
      </trkpt>
      <trkpt lat="48.62295" lon="7.26624">
        <ele>807</ele>
        <time>2013-04-07T07:50:57.000Z</time>
      </trkpt>
      <trkpt lat="48.62295" lon="7.26624">
        <ele>807</ele>
        <time>2013-04-07T07:51:17.000Z</time>
      </trkpt>
      <trkpt lat="48.62292" lon="7.26632">
        <ele>806</ele>
        <time>2013-04-07T07:55:05.000Z</time>
      </trkpt>
      <trkpt lat="48.62292" lon="7.26637">
        <ele>806</ele>
        <time>2013-04-07T07:55:12.000Z</time>
      </trkpt>
      <trkpt lat="48.62294" lon="7.26639">
        <ele>806</ele>
        <time>2013-04-07T07:55:16.000Z</time>
      </trkpt>
      <trkpt lat="48.62294" lon="7.26644">
        <ele>806</ele>
        <time>2013-04-07T07:55:18.000Z</time>
      </trkpt>
      <trkpt lat="48.62297" lon="7.26647">
        <ele>805</ele>
        <time>2013-04-07T07:55:22.000Z</time>
      </trkpt>
      <trkpt lat="48.623" lon="7.26659">
        <ele>805</ele>
        <time>2013-04-07T07:55:26.000Z</time>
      </trkpt>
      <trkpt lat="48.623" lon="7.26659">
        <ele>805</ele>
        <time>2013-04-07T07:55:46.000Z</time>
      </trkpt>
      <trkpt lat="48.62301" lon="7.26655">
        <ele>805</ele>
        <time>2013-04-07T07:56:36.000Z</time>
      </trkpt>
      <trkpt lat="48.62304" lon="7.26659">
        <ele>805</ele>
        <time>2013-04-07T07:56:39.000Z</time>
      </trkpt>
      <trkpt lat="48.62303" lon="7.26663">
        <ele>805</ele>
        <time>2013-04-07T07:56:43.000Z</time>
      </trkpt>
      <trkpt lat="48.62303" lon="7.26663">
        <ele>805</ele>
        <time>2013-04-07T07:57:03.000Z</time>
      </trkpt>
      <trkpt lat="48.62303" lon="7.26667">
        <ele>799</ele>
        <time>2013-04-07T07:57:23.000Z</time>
      </trkpt>
      <trkpt lat="48.62303" lon="7.2667">
        <ele>799</ele>
        <time>2013-04-07T07:57:26.000Z</time>
      </trkpt>
      <trkpt lat="48.62303" lon="7.2667">
        <ele>799</ele>
        <time>2013-04-07T07:57:46.000Z</time>
      </trkpt>
      <trkpt lat="48.62308" lon="7.26671">
        <ele>799</ele>
        <time>2013-04-07T07:58:36.000Z</time>
      </trkpt>
      <trkpt lat="48.62318" lon="7.2667">
        <ele>801</ele>
        <time>2013-04-07T07:58:39.000Z</time>
      </trkpt>
      <trkpt lat="48.62294" lon="7.26724">
        <ele>795</ele>
        <time>2013-04-07T07:58:44.000Z</time>
      </trkpt>
      <trkpt lat="48.62308" lon="7.26759">
        <ele>788</ele>
        <time>2013-04-07T07:58:47.000Z</time>
      </trkpt>
      <trkpt lat="48.62309" lon="7.26767">
        <ele>788</ele>
        <time>2013-04-07T07:58:49.000Z</time>
      </trkpt>
      <trkpt lat="48.62312" lon="7.26778">
        <ele>787</ele>
        <time>2013-04-07T07:58:51.000Z</time>
      </trkpt>
      <trkpt lat="48.62321" lon="7.26769">
        <ele>790</ele>
        <time>2013-04-07T07:58:54.000Z</time>
      </trkpt>
      <trkpt lat="48.62325" lon="7.26782">
        <ele>788</ele>
        <time>2013-04-07T07:58:56.000Z</time>
      </trkpt>
      <trkpt lat="48.62326" lon="7.268">
        <ele>785</ele>
        <time>2013-04-07T07:59:00.000Z</time>
      </trkpt>
      <trkpt lat="48.62327" lon="7.26806">
        <ele>785</ele>
        <time>2013-04-07T07:59:04.000Z</time>
      </trkpt>
      <trkpt lat="48.62324" lon="7.26803">
        <ele>785</ele>
        <time>2013-04-07T07:59:06.000Z</time>
      </trkpt>
      <trkpt lat="48.6232" lon="7.26808">
        <ele>785</ele>
        <time>2013-04-07T07:59:10.000Z</time>
      </trkpt>
      <trkpt lat="48.62315" lon="7.26811">
        <ele>784</ele>
        <time>2013-04-07T07:59:14.000Z</time>
      </trkpt>
      <trkpt lat="48.62322" lon="7.26817">
        <ele>785</ele>
        <time>2013-04-07T07:59:18.000Z</time>
      </trkpt>
      <trkpt lat="48.62305" lon="7.26805">
        <ele>784</ele>
        <time>2013-04-07T07:59:22.000Z</time>
      </trkpt>
      <trkpt lat="48.62302" lon="7.26801">
        <ele>783</ele>
        <time>2013-04-07T07:59:24.000Z</time>
      </trkpt>
      <trkpt lat="48.62294" lon="7.26791">
        <ele>783</ele>
        <time>2013-04-07T07:59:27.000Z</time>
      </trkpt>
      <trkpt lat="48.62292" lon="7.26789">
        <ele>783</ele>
        <time>2013-04-07T07:59:29.000Z</time>
      </trkpt>
      <trkpt lat="48.62285" lon="7.26785">
        <ele>783</ele>
        <time>2013-04-07T07:59:33.000Z</time>
      </trkpt>
      <trkpt lat="48.62283" lon="7.26788">
        <ele>782</ele>
        <time>2013-04-07T07:59:35.000Z</time>
      </trkpt>
      <trkpt lat="48.62277" lon="7.26798">
        <ele>781</ele>
        <time>2013-04-07T07:59:38.000Z</time>
      </trkpt>
      <trkpt lat="48.62273" lon="7.26796">
        <ele>781</ele>
        <time>2013-04-07T07:59:40.000Z</time>
      </trkpt>
      <trkpt lat="48.62268" lon="7.26808">
        <ele>778</ele>
        <time>2013-04-07T07:59:44.000Z</time>
      </trkpt>
      <trkpt lat="48.62265" lon="7.26822">
        <ele>775</ele>
        <time>2013-04-07T07:59:47.000Z</time>
      </trkpt>
      <trkpt lat="48.62262" lon="7.26834">
        <ele>767</ele>
        <time>2013-04-07T07:59:50.000Z</time>
      </trkpt>
      <trkpt lat="48.62262" lon="7.26847">
        <ele>767</ele>
        <time>2013-04-07T07:59:53.000Z</time>
      </trkpt>
      <trkpt lat="48.62264" lon="7.26854">
        <ele>767</ele>
        <time>2013-04-07T07:59:55.000Z</time>
      </trkpt>
      <trkpt lat="48.62267" lon="7.26869">
        <ele>766</ele>
        <time>2013-04-07T07:59:57.000Z</time>
      </trkpt>
      <trkpt lat="48.62271" lon="7.26874">
        <ele>766</ele>
        <time>2013-04-07T07:59:59.000Z</time>
      </trkpt>
      <trkpt lat="48.6227" lon="7.26898">
        <ele>762</ele>
        <time>2013-04-07T08:00:02.000Z</time>
      </trkpt>
      <trkpt lat="48.62269" lon="7.26895">
        <ele>762</ele>
        <time>2013-04-07T08:00:04.000Z</time>
      </trkpt>
      <trkpt lat="48.62268" lon="7.26902">
        <ele>761</ele>
        <time>2013-04-07T08:00:06.000Z</time>
      </trkpt>
      <trkpt lat="48.6227" lon="7.26917">
        <ele>752</ele>
        <time>2013-04-07T08:00:09.000Z</time>
      </trkpt>
      <trkpt lat="48.62273" lon="7.26931">
        <ele>752</ele>
        <time>2013-04-07T08:00:11.000Z</time>
      </trkpt>
      <trkpt lat="48.62276" lon="7.2694">
        <ele>751</ele>
        <time>2013-04-07T08:00:14.000Z</time>
      </trkpt>
      <trkpt lat="48.62279" lon="7.26949">
        <ele>751</ele>
        <time>2013-04-07T08:00:16.000Z</time>
      </trkpt>
      <trkpt lat="48.62286" lon="7.26959">
        <ele>751</ele>
        <time>2013-04-07T08:00:19.000Z</time>
      </trkpt>
      <trkpt lat="48.62292" lon="7.2697">
        <ele>750</ele>
        <time>2013-04-07T08:00:22.000Z</time>
      </trkpt>
      <trkpt lat="48.62303" lon="7.2699">
        <ele>751</ele>
        <time>2013-04-07T08:00:25.000Z</time>
      </trkpt>
      <trkpt lat="48.62312" lon="7.26996">
        <ele>751</ele>
        <time>2013-04-07T08:00:28.000Z</time>
      </trkpt>
      <trkpt lat="48.62311" lon="7.27002">
        <ele>742</ele>
        <time>2013-04-07T08:00:30.000Z</time>
      </trkpt>
      <trkpt lat="48.6231" lon="7.27009">
        <ele>741</ele>
        <time>2013-04-07T08:00:33.000Z</time>
      </trkpt>
      <trkpt lat="48.62307" lon="7.27007">
        <ele>740</ele>
        <time>2013-04-07T08:00:36.000Z</time>
      </trkpt>
      <trkpt lat="48.6231" lon="7.27022">
        <ele>739</ele>
        <time>2013-04-07T08:00:39.000Z</time>
      </trkpt>
      <trkpt lat="48.62318" lon="7.27026">
        <ele>739</ele>
        <time>2013-04-07T08:00:42.000Z</time>
      </trkpt>
      <trkpt lat="48.62321" lon="7.27041">
        <ele>737</ele>
        <time>2013-04-07T08:00:44.000Z</time>
      </trkpt>
      <trkpt lat="48.62325" lon="7.27045">
        <ele>736</ele>
        <time>2013-04-07T08:00:47.000Z</time>
      </trkpt>
      <trkpt lat="48.62331" lon="7.27055">
        <ele>735</ele>
        <time>2013-04-07T08:00:50.000Z</time>
      </trkpt>
      <trkpt lat="48.62336" lon="7.27068">
        <ele>737</ele>
        <time>2013-04-07T08:00:52.000Z</time>
      </trkpt>
      <trkpt lat="48.62341" lon="7.27072">
        <ele>737</ele>
        <time>2013-04-07T08:00:55.000Z</time>
      </trkpt>
      <trkpt lat="48.62346" lon="7.27093">
        <ele>728</ele>
        <time>2013-04-07T08:00:58.000Z</time>
      </trkpt>
      <trkpt lat="48.62358" lon="7.27108">
        <ele>726</ele>
        <time>2013-04-07T08:01:01.000Z</time>
      </trkpt>
      <trkpt lat="48.62365" lon="7.27128">
        <ele>723</ele>
        <time>2013-04-07T08:01:04.000Z</time>
      </trkpt>
      <trkpt lat="48.62368" lon="7.27137">
        <ele>722</ele>
        <time>2013-04-07T08:01:07.000Z</time>
      </trkpt>
      <trkpt lat="48.6237" lon="7.27144">
        <ele>721</ele>
        <time>2013-04-07T08:01:09.000Z</time>
      </trkpt>
      <trkpt lat="48.62376" lon="7.27158">
        <ele>720</ele>
        <time>2013-04-07T08:01:13.000Z</time>
      </trkpt>
      <trkpt lat="48.62389" lon="7.27164">
        <ele>720</ele>
        <time>2013-04-07T08:01:16.000Z</time>
      </trkpt>
      <trkpt lat="48.6241" lon="7.27194">
        <ele>709</ele>
        <time>2013-04-07T08:01:20.000Z</time>
      </trkpt>
      <trkpt lat="48.62424" lon="7.27219">
        <ele>705</ele>
        <time>2013-04-07T08:01:23.000Z</time>
      </trkpt>
      <trkpt lat="48.62438" lon="7.27221">
        <ele>704</ele>
        <time>2013-04-07T08:01:26.000Z</time>
      </trkpt>
      <trkpt lat="48.62444" lon="7.27204">
        <ele>705</ele>
        <time>2013-04-07T08:01:29.000Z</time>
      </trkpt>
      <trkpt lat="48.62458" lon="7.27214">
        <ele>704</ele>
        <time>2013-04-07T08:01:34.000Z</time>
      </trkpt>
      <trkpt lat="48.62477" lon="7.27234">
        <ele>701</ele>
        <time>2013-04-07T08:01:38.000Z</time>
      </trkpt>
      <trkpt lat="48.62476" lon="7.27249">
        <ele>700</ele>
        <time>2013-04-07T08:01:40.000Z</time>
      </trkpt>
      <trkpt lat="48.62471" lon="7.27259">
        <ele>694</ele>
        <time>2013-04-07T08:01:43.000Z</time>
      </trkpt>
      <trkpt lat="48.62486" lon="7.27276">
        <ele>693</ele>
        <time>2013-04-07T08:01:46.000Z</time>
      </trkpt>
      <trkpt lat="48.62498" lon="7.27276">
        <ele>693</ele>
        <time>2013-04-07T08:01:49.000Z</time>
      </trkpt>
      <trkpt lat="48.62508" lon="7.27281">
        <ele>688</ele>
        <time>2013-04-07T08:01:52.000Z</time>
      </trkpt>
      <trkpt lat="48.6251" lon="7.27288">
        <ele>687</ele>
        <time>2013-04-07T08:01:54.000Z</time>
      </trkpt>
      <trkpt lat="48.62507" lon="7.27309">
        <ele>686</ele>
        <time>2013-04-07T08:01:57.000Z</time>
      </trkpt>
      <trkpt lat="48.62517" lon="7.27313">
        <ele>686</ele>
        <time>2013-04-07T08:02:01.000Z</time>
      </trkpt>
      <trkpt lat="48.62529" lon="7.27316">
        <ele>685</ele>
        <time>2013-04-07T08:02:04.000Z</time>
      </trkpt>
      <trkpt lat="48.62531" lon="7.27314">
        <ele>685</ele>
        <time>2013-04-07T08:02:07.000Z</time>
      </trkpt>
      <trkpt lat="48.62522" lon="7.27316">
        <ele>685</ele>
        <time>2013-04-07T08:02:10.000Z</time>
      </trkpt>
      <trkpt lat="48.62552" lon="7.27322">
        <ele>682</ele>
        <time>2013-04-07T08:02:17.000Z</time>
      </trkpt>
      <trkpt lat="48.62612" lon="7.27313">
        <ele>670</ele>
        <time>2013-04-07T08:02:23.000Z</time>
      </trkpt>
      <trkpt lat="48.62632" lon="7.27298">
        <ele>667</ele>
        <time>2013-04-07T08:02:26.000Z</time>
      </trkpt>
      <trkpt lat="48.6265" lon="7.27283">
        <ele>666</ele>
        <time>2013-04-07T08:02:29.000Z</time>
      </trkpt>
      <trkpt lat="48.62661" lon="7.27278">
        <ele>665</ele>
        <time>2013-04-07T08:02:31.000Z</time>
      </trkpt>
      <trkpt lat="48.62675" lon="7.27241">
        <ele>661</ele>
        <time>2013-04-07T08:02:35.000Z</time>
      </trkpt>
      <trkpt lat="48.62681" lon="7.2722">
        <ele>660</ele>
        <time>2013-04-07T08:02:37.000Z</time>
      </trkpt>
      <trkpt lat="48.62688" lon="7.27206">
        <ele>661</ele>
        <time>2013-04-07T08:02:39.000Z</time>
      </trkpt>
      <trkpt lat="48.62679" lon="7.27212">
        <ele>661</ele>
        <time>2013-04-07T08:02:41.000Z</time>
      </trkpt>
      <trkpt lat="48.62712" lon="7.2719">
        <ele>659</ele>
        <time>2013-04-07T08:02:45.000Z</time>
      </trkpt>
      <trkpt lat="48.62721" lon="7.27181">
        <ele>659</ele>
        <time>2013-04-07T08:02:47.000Z</time>
      </trkpt>
      <trkpt lat="48.62733" lon="7.27162">
        <ele>664</ele>
        <time>2013-04-07T08:02:50.000Z</time>
      </trkpt>
      <trkpt lat="48.62746" lon="7.27137">
        <ele>667</ele>
        <time>2013-04-07T08:02:53.000Z</time>
      </trkpt>
      <trkpt lat="48.6275" lon="7.27126">
        <ele>659</ele>
        <time>2013-04-07T08:02:56.000Z</time>
      </trkpt>
      <trkpt lat="48.62753" lon="7.27116">
        <ele>660</ele>
        <time>2013-04-07T08:02:59.000Z</time>
      </trkpt>
      <trkpt lat="48.6276" lon="7.27088">
        <ele>665</ele>
        <time>2013-04-07T08:03:03.000Z</time>
      </trkpt>
      <trkpt lat="48.62768" lon="7.27061">
        <ele>667</ele>
        <time>2013-04-07T08:03:06.000Z</time>
      </trkpt>
      <trkpt lat="48.62772" lon="7.27055">
        <ele>667</ele>
        <time>2013-04-07T08:03:08.000Z</time>
      </trkpt>
      <trkpt lat="48.62777" lon="7.2703">
        <ele>667</ele>
        <time>2013-04-07T08:03:11.000Z</time>
      </trkpt>
      <trkpt lat="48.62781" lon="7.27015">
        <ele>667</ele>
        <time>2013-04-07T08:03:14.000Z</time>
      </trkpt>
      <trkpt lat="48.62782" lon="7.26999">
        <ele>664</ele>
        <time>2013-04-07T08:03:16.000Z</time>
      </trkpt>
      <trkpt lat="48.62782" lon="7.2699">
        <ele>664</ele>
        <time>2013-04-07T08:03:18.000Z</time>
      </trkpt>
      <trkpt lat="48.62784" lon="7.26968">
        <ele>662</ele>
        <time>2013-04-07T08:03:21.000Z</time>
      </trkpt>
      <trkpt lat="48.62785" lon="7.26967">
        <ele>662</ele>
        <time>2013-04-07T08:03:23.000Z</time>
      </trkpt>
      <trkpt lat="48.6279" lon="7.26957">
        <ele>660</ele>
        <time>2013-04-07T08:03:27.000Z</time>
      </trkpt>
      <trkpt lat="48.62815" lon="7.26895">
        <ele>646</ele>
        <time>2013-04-07T08:03:33.000Z</time>
      </trkpt>
      <trkpt lat="48.62831" lon="7.26859">
        <ele>643</ele>
        <time>2013-04-07T08:03:36.000Z</time>
      </trkpt>
      <trkpt lat="48.62836" lon="7.26847">
        <ele>632</ele>
        <time>2013-04-07T08:03:38.000Z</time>
      </trkpt>
      <trkpt lat="48.62848" lon="7.26857">
        <ele>630</ele>
        <time>2013-04-07T08:03:41.000Z</time>
      </trkpt>
      <trkpt lat="48.62859" lon="7.26847">
        <ele>630</ele>
        <time>2013-04-07T08:03:44.000Z</time>
      </trkpt>
      <trkpt lat="48.62859" lon="7.26851">
        <ele>629</ele>
        <time>2013-04-07T08:03:46.000Z</time>
      </trkpt>
      <trkpt lat="48.62865" lon="7.26854">
        <ele>629</ele>
        <time>2013-04-07T08:03:48.000Z</time>
      </trkpt>
      <trkpt lat="48.62851" lon="7.2685">
        <ele>630</ele>
        <time>2013-04-07T08:03:51.000Z</time>
      </trkpt>
      <trkpt lat="48.62866" lon="7.26857">
        <ele>629</ele>
        <time>2013-04-07T08:03:53.000Z</time>
      </trkpt>
      <trkpt lat="48.62884" lon="7.26868">
        <ele>627</ele>
        <time>2013-04-07T08:03:56.000Z</time>
      </trkpt>
      <trkpt lat="48.62883" lon="7.26874">
        <ele>627</ele>
        <time>2013-04-07T08:04:00.000Z</time>
      </trkpt>
      <trkpt lat="48.62888" lon="7.26869">
        <ele>627</ele>
        <time>2013-04-07T08:04:03.000Z</time>
      </trkpt>
      <trkpt lat="48.62893" lon="7.26864">
        <ele>626</ele>
        <time>2013-04-07T08:04:06.000Z</time>
      </trkpt>
      <trkpt lat="48.62901" lon="7.26857">
        <ele>625</ele>
        <time>2013-04-07T08:04:09.000Z</time>
      </trkpt>
      <trkpt lat="48.6291" lon="7.26845">
        <ele>623</ele>
        <time>2013-04-07T08:04:12.000Z</time>
      </trkpt>
      <trkpt lat="48.62916" lon="7.26846">
        <ele>622</ele>
        <time>2013-04-07T08:04:15.000Z</time>
      </trkpt>
      <trkpt lat="48.62911" lon="7.26809">
        <ele>626</ele>
        <time>2013-04-07T08:04:19.000Z</time>
      </trkpt>
      <trkpt lat="48.62922" lon="7.26801">
        <ele>623</ele>
        <time>2013-04-07T08:04:22.000Z</time>
      </trkpt>
      <trkpt lat="48.62926" lon="7.26807">
        <ele>623</ele>
        <time>2013-04-07T08:04:25.000Z</time>
      </trkpt>
      <trkpt lat="48.62934" lon="7.26816">
        <ele>622</ele>
        <time>2013-04-07T08:04:28.000Z</time>
      </trkpt>
      <trkpt lat="48.62941" lon="7.26828">
        <ele>621</ele>
        <time>2013-04-07T08:04:31.000Z</time>
      </trkpt>
      <trkpt lat="48.62931" lon="7.26837">
        <ele>616</ele>
        <time>2013-04-07T08:04:34.000Z</time>
      </trkpt>
      <trkpt lat="48.62963" lon="7.26894">
        <ele>610</ele>
        <time>2013-04-07T08:04:41.000Z</time>
      </trkpt>
      <trkpt lat="48.63009" lon="7.26931">
        <ele>593</ele>
        <time>2013-04-07T08:04:46.000Z</time>
      </trkpt>
      <trkpt lat="48.63013" lon="7.26954">
        <ele>591</ele>
        <time>2013-04-07T08:04:48.000Z</time>
      </trkpt>
      <trkpt lat="48.63019" lon="7.26982">
        <ele>590</ele>
        <time>2013-04-07T08:04:51.000Z</time>
      </trkpt>
      <trkpt lat="48.63014" lon="7.27014">
        <ele>587</ele>
        <time>2013-04-07T08:04:54.000Z</time>
      </trkpt>
      <trkpt lat="48.63018" lon="7.27038">
        <ele>585</ele>
        <time>2013-04-07T08:04:56.000Z</time>
      </trkpt>
      <trkpt lat="48.63014" lon="7.27061">
        <ele>584</ele>
        <time>2013-04-07T08:04:59.000Z</time>
      </trkpt>
      <trkpt lat="48.63008" lon="7.27102">
        <ele>580</ele>
        <time>2013-04-07T08:05:02.000Z</time>
      </trkpt>
      <trkpt lat="48.63011" lon="7.27108">
        <ele>579</ele>
        <time>2013-04-07T08:05:04.000Z</time>
      </trkpt>
      <trkpt lat="48.62999" lon="7.27137">
        <ele>585</ele>
        <time>2013-04-07T08:05:08.000Z</time>
      </trkpt>
      <trkpt lat="48.62995" lon="7.27152">
        <ele>581</ele>
        <time>2013-04-07T08:05:10.000Z</time>
      </trkpt>
      <trkpt lat="48.62987" lon="7.27175">
        <ele>574</ele>
        <time>2013-04-07T08:05:13.000Z</time>
      </trkpt>
      <trkpt lat="48.62986" lon="7.27179">
        <ele>575</ele>
        <time>2013-04-07T08:05:15.000Z</time>
      </trkpt>
      <trkpt lat="48.6298" lon="7.27211">
        <ele>574</ele>
        <time>2013-04-07T08:05:19.000Z</time>
      </trkpt>
      <trkpt lat="48.62975" lon="7.27255">
        <ele>561</ele>
        <time>2013-04-07T08:05:22.000Z</time>
      </trkpt>
      <trkpt lat="48.62968" lon="7.27284">
        <ele>561</ele>
        <time>2013-04-07T08:05:25.000Z</time>
      </trkpt>
      <trkpt lat="48.62965" lon="7.27304">
        <ele>560</ele>
        <time>2013-04-07T08:05:27.000Z</time>
      </trkpt>
      <trkpt lat="48.62953" lon="7.27325">
        <ele>560</ele>
        <time>2013-04-07T08:05:30.000Z</time>
      </trkpt>
      <trkpt lat="48.6294" lon="7.27351">
        <ele>552</ele>
        <time>2013-04-07T08:05:33.000Z</time>
      </trkpt>
      <trkpt lat="48.62931" lon="7.27363">
        <ele>551</ele>
        <time>2013-04-07T08:05:35.000Z</time>
      </trkpt>
      <trkpt lat="48.62922" lon="7.27375">
        <ele>550</ele>
        <time>2013-04-07T08:05:38.000Z</time>
      </trkpt>
      <trkpt lat="48.62913" lon="7.27382">
        <ele>557</ele>
        <time>2013-04-07T08:05:40.000Z</time>
      </trkpt>
      <trkpt lat="48.62901" lon="7.27396">
        <ele>555</ele>
        <time>2013-04-07T08:05:42.000Z</time>
      </trkpt>
      <trkpt lat="48.62888" lon="7.27406">
        <ele>557</ele>
        <time>2013-04-07T08:05:45.000Z</time>
      </trkpt>
      <trkpt lat="48.6288" lon="7.2742">
        <ele>548</ele>
        <time>2013-04-07T08:05:47.000Z</time>
      </trkpt>
      <trkpt lat="48.62875" lon="7.27441">
        <ele>548</ele>
        <time>2013-04-07T08:05:50.000Z</time>
      </trkpt>
      <trkpt lat="48.62872" lon="7.27463">
        <ele>547</ele>
        <time>2013-04-07T08:05:52.000Z</time>
      </trkpt>
      <trkpt lat="48.62865" lon="7.27498">
        <ele>546</ele>
        <time>2013-04-07T08:05:55.000Z</time>
      </trkpt>
      <trkpt lat="48.62872" lon="7.27525">
        <ele>538</ele>
        <time>2013-04-07T08:05:58.000Z</time>
      </trkpt>
      <trkpt lat="48.62862" lon="7.27531">
        <ele>538</ele>
        <time>2013-04-07T08:06:00.000Z</time>
      </trkpt>
      <trkpt lat="48.62857" lon="7.27562">
        <ele>537</ele>
        <time>2013-04-07T08:06:03.000Z</time>
      </trkpt>
      <trkpt lat="48.6286" lon="7.2757">
        <ele>536</ele>
        <time>2013-04-07T08:06:05.000Z</time>
      </trkpt>
      <trkpt lat="48.62855" lon="7.27585">
        <ele>531</ele>
        <time>2013-04-07T08:06:07.000Z</time>
      </trkpt>
      <trkpt lat="48.62855" lon="7.27614">
        <ele>529</ele>
        <time>2013-04-07T08:06:10.000Z</time>
      </trkpt>
      <trkpt lat="48.62852" lon="7.27653">
        <ele>526</ele>
        <time>2013-04-07T08:06:13.000Z</time>
      </trkpt>
      <trkpt lat="48.62854" lon="7.2766">
        <ele>526</ele>
        <time>2013-04-07T08:06:15.000Z</time>
      </trkpt>
      <trkpt lat="48.62858" lon="7.27684">
        <ele>519</ele>
        <time>2013-04-07T08:06:19.000Z</time>
      </trkpt>
      <trkpt lat="48.62856" lon="7.27698">
        <ele>517</ele>
        <time>2013-04-07T08:06:21.000Z</time>
      </trkpt>
      <trkpt lat="48.62857" lon="7.27698">
        <ele>517</ele>
        <time>2013-04-07T08:06:24.000Z</time>
      </trkpt>
      <trkpt lat="48.62863" lon="7.27693">
        <ele>518</ele>
        <time>2013-04-07T08:06:27.000Z</time>
      </trkpt>
      <trkpt lat="48.62868" lon="7.27685">
        <ele>518</ele>
        <time>2013-04-07T08:06:29.000Z</time>
      </trkpt>
      <trkpt lat="48.62874" lon="7.27682">
        <ele>519</ele>
        <time>2013-04-07T08:06:33.000Z</time>
      </trkpt>
      <trkpt lat="48.62877" lon="7.2768">
        <ele>519</ele>
        <time>2013-04-07T08:06:35.000Z</time>
      </trkpt>
      <trkpt lat="48.62878" lon="7.27678">
        <ele>519</ele>
        <time>2013-04-07T08:06:39.000Z</time>
      </trkpt>
      <trkpt lat="48.62877" lon="7.2767">
        <ele>519</ele>
        <time>2013-04-07T08:06:47.000Z</time>
      </trkpt>
      <trkpt lat="48.62877" lon="7.27672">
        <ele>519</ele>
        <time>2013-04-07T08:06:56.000Z</time>
      </trkpt>
      <trkpt lat="48.62866" lon="7.27672">
        <ele>519</ele>
        <time>2013-04-07T08:07:02.000Z</time>
      </trkpt>
      <trkpt lat="48.62881" lon="7.27672">
        <ele>519</ele>
        <time>2013-04-07T08:07:11.000Z</time>
      </trkpt>
      <trkpt lat="48.62875" lon="7.27677">
        <ele>519</ele>
        <time>2013-04-07T08:07:17.000Z</time>
      </trkpt>
      <trkpt lat="48.62881" lon="7.27684">
        <ele>519</ele>
        <time>2013-04-07T08:07:22.000Z</time>
      </trkpt>
      <trkpt lat="48.62883" lon="7.27686">
        <ele>519</ele>
        <time>2013-04-07T08:07:34.000Z</time>
      </trkpt>
      <trkpt lat="48.62884" lon="7.27688">
        <ele>518</ele>
        <time>2013-04-07T08:07:36.000Z</time>
      </trkpt>
      <trkpt lat="48.62883" lon="7.27698">
        <ele>518</ele>
        <time>2013-04-07T08:07:40.000Z</time>
      </trkpt>
      <trkpt lat="48.62883" lon="7.27702">
        <ele>517</ele>
        <time>2013-04-07T08:07:48.000Z</time>
      </trkpt>
      <trkpt lat="48.62883" lon="7.27704">
        <ele>517</ele>
        <time>2013-04-07T08:07:51.000Z</time>
      </trkpt>
      <trkpt lat="48.62892" lon="7.27704">
        <ele>517</ele>
        <time>2013-04-07T08:07:56.000Z</time>
      </trkpt>
      <trkpt lat="48.62883" lon="7.27717">
        <ele>516</ele>
        <time>2013-04-07T08:08:06.000Z</time>
      </trkpt>
      <trkpt lat="48.62883" lon="7.27717">
        <ele>516</ele>
        <time>2013-04-07T08:08:26.000Z</time>
      </trkpt>
      <trkpt lat="48.62884" lon="7.27717">
        <ele>516</ele>
        <time>2013-04-07T08:08:48.000Z</time>
      </trkpt>
      <trkpt lat="48.62884" lon="7.27717">
        <ele>516</ele>
        <time>2013-04-07T08:09:08.000Z</time>
      </trkpt>
      <trkpt lat="48.62885" lon="7.27718">
        <ele>516</ele>
        <time>2013-04-07T08:09:25.000Z</time>
      </trkpt>
      <trkpt lat="48.62868" lon="7.27718">
        <ele>516</ele>
        <time>2013-04-07T08:09:34.000Z</time>
      </trkpt>
      <trkpt lat="48.62868" lon="7.27718">
        <ele>516</ele>
        <time>2013-04-07T08:09:54.000Z</time>
      </trkpt>
      <trkpt lat="48.62886" lon="7.27721">
        <ele>516</ele>
        <time>2013-04-07T08:10:41.000Z</time>
      </trkpt>
      <trkpt lat="48.62886" lon="7.27721">
        <ele>516</ele>
        <time>2013-04-07T08:11:01.000Z</time>
      </trkpt>
      <trkpt lat="48.62885" lon="7.27724">
        <ele>516</ele>
        <time>2013-04-07T08:11:03.000Z</time>
      </trkpt>
      <trkpt lat="48.62884" lon="7.27726">
        <ele>516</ele>
        <time>2013-04-07T08:11:12.000Z</time>
      </trkpt>
      <trkpt lat="48.62883" lon="7.27727">
        <ele>516</ele>
        <time>2013-04-07T08:11:18.000Z</time>
      </trkpt>
      <trkpt lat="48.62883" lon="7.27727">
        <ele>516</ele>
        <time>2013-04-07T08:11:38.000Z</time>
      </trkpt>
      <trkpt lat="48.62881" lon="7.27729">
        <ele>515</ele>
        <time>2013-04-07T08:11:55.000Z</time>
      </trkpt>
      <trkpt lat="48.6288" lon="7.27732">
        <ele>515</ele>
        <time>2013-04-07T08:12:01.000Z</time>
      </trkpt>
      <trkpt lat="48.62879" lon="7.27735">
        <ele>515</ele>
        <time>2013-04-07T08:12:04.000Z</time>
      </trkpt>
      <trkpt lat="48.62879" lon="7.27737">
        <ele>515</ele>
        <time>2013-04-07T08:12:08.000Z</time>
      </trkpt>
      <trkpt lat="48.62853" lon="7.27731">
        <ele>514</ele>
        <time>2013-04-07T08:12:13.000Z</time>
      </trkpt>
      <trkpt lat="48.62881" lon="7.27738">
        <ele>515</ele>
        <time>2013-04-07T08:12:22.000Z</time>
      </trkpt>
      <trkpt lat="48.62881" lon="7.27742">
        <ele>515</ele>
        <time>2013-04-07T08:12:37.000Z</time>
      </trkpt>
      <trkpt lat="48.62881" lon="7.27744">
        <ele>515</ele>
        <time>2013-04-07T08:12:41.000Z</time>
      </trkpt>
      <trkpt lat="48.62881" lon="7.27747">
        <ele>514</ele>
        <time>2013-04-07T08:12:43.000Z</time>
      </trkpt>
      <trkpt lat="48.62879" lon="7.27753">
        <ele>505</ele>
        <time>2013-04-07T08:12:45.000Z</time>
      </trkpt>
      <trkpt lat="48.62877" lon="7.2776">
        <ele>505</ele>
        <time>2013-04-07T08:12:47.000Z</time>
      </trkpt>
      <trkpt lat="48.62877" lon="7.27773">
        <ele>504</ele>
        <time>2013-04-07T08:12:50.000Z</time>
      </trkpt>
      <trkpt lat="48.62877" lon="7.27782">
        <ele>503</ele>
        <time>2013-04-07T08:12:52.000Z</time>
      </trkpt>
      <trkpt lat="48.62877" lon="7.27792">
        <ele>502</ele>
        <time>2013-04-07T08:12:54.000Z</time>
      </trkpt>
      <trkpt lat="48.62878" lon="7.27806">
        <ele>501</ele>
        <time>2013-04-07T08:12:56.000Z</time>
      </trkpt>
      <trkpt lat="48.62881" lon="7.2782">
        <ele>501</ele>
        <time>2013-04-07T08:13:00.000Z</time>
      </trkpt>
      <trkpt lat="48.62885" lon="7.27826">
        <ele>501</ele>
        <time>2013-04-07T08:13:03.000Z</time>
      </trkpt>
      <trkpt lat="48.62887" lon="7.27848">
        <ele>491</ele>
        <time>2013-04-07T08:13:06.000Z</time>
      </trkpt>
      <trkpt lat="48.62888" lon="7.27862">
        <ele>490</ele>
        <time>2013-04-07T08:13:08.000Z</time>
      </trkpt>
      <trkpt lat="48.6289" lon="7.27877">
        <ele>488</ele>
        <time>2013-04-07T08:13:10.000Z</time>
      </trkpt>
      <trkpt lat="48.62877" lon="7.27913">
        <ele>484</ele>
        <time>2013-04-07T08:13:14.000Z</time>
      </trkpt>
      <trkpt lat="48.62873" lon="7.27931">
        <ele>474</ele>
        <time>2013-04-07T08:13:16.000Z</time>
      </trkpt>
      <trkpt lat="48.62871" lon="7.27944">
        <ele>473</ele>
        <time>2013-04-07T08:13:18.000Z</time>
      </trkpt>
      <trkpt lat="48.62869" lon="7.27972">
        <ele>471</ele>
        <time>2013-04-07T08:13:21.000Z</time>
      </trkpt>
      <trkpt lat="48.62871" lon="7.27981">
        <ele>470</ele>
        <time>2013-04-07T08:13:23.000Z</time>
      </trkpt>
      <trkpt lat="48.62872" lon="7.27992">
        <ele>470</ele>
        <time>2013-04-07T08:13:25.000Z</time>
      </trkpt>
      <trkpt lat="48.62876" lon="7.28005">
        <ele>465</ele>
        <time>2013-04-07T08:13:27.000Z</time>
      </trkpt>
      <trkpt lat="48.62879" lon="7.28016">
        <ele>465</ele>
        <time>2013-04-07T08:13:29.000Z</time>
      </trkpt>
      <trkpt lat="48.62885" lon="7.28029">
        <ele>465</ele>
        <time>2013-04-07T08:13:31.000Z</time>
      </trkpt>
      <trkpt lat="48.62898" lon="7.28045">
        <ele>464</ele>
        <time>2013-04-07T08:13:34.000Z</time>
      </trkpt>
      <trkpt lat="48.62901" lon="7.2806">
        <ele>462</ele>
        <time>2013-04-07T08:13:36.000Z</time>
      </trkpt>
      <trkpt lat="48.62907" lon="7.28074">
        <ele>459</ele>
        <time>2013-04-07T08:13:38.000Z</time>
      </trkpt>
      <trkpt lat="48.62915" lon="7.28089">
        <ele>458</ele>
        <time>2013-04-07T08:13:40.000Z</time>
      </trkpt>
      <trkpt lat="48.62928" lon="7.28111">
        <ele>464</ele>
        <time>2013-04-07T08:13:43.000Z</time>
      </trkpt>
      <trkpt lat="48.62939" lon="7.28131">
        <ele>465</ele>
        <time>2013-04-07T08:13:46.000Z</time>
      </trkpt>
      <trkpt lat="48.62947" lon="7.28142">
        <ele>466</ele>
        <time>2013-04-07T08:13:48.000Z</time>
      </trkpt>
      <trkpt lat="48.62954" lon="7.28151">
        <ele>466</ele>
        <time>2013-04-07T08:13:50.000Z</time>
      </trkpt>
      <trkpt lat="48.62963" lon="7.28162">
        <ele>466</ele>
        <time>2013-04-07T08:13:53.000Z</time>
      </trkpt>
      <trkpt lat="48.62966" lon="7.2817">
        <ele>463</ele>
        <time>2013-04-07T08:13:55.000Z</time>
      </trkpt>
      <trkpt lat="48.62973" lon="7.2818">
        <ele>463</ele>
        <time>2013-04-07T08:13:58.000Z</time>
      </trkpt>
      <trkpt lat="48.62976" lon="7.28186">
        <ele>463</ele>
        <time>2013-04-07T08:14:00.000Z</time>
      </trkpt>
      <trkpt lat="48.62978" lon="7.28192">
        <ele>463</ele>
        <time>2013-04-07T08:14:02.000Z</time>
      </trkpt>
      <trkpt lat="48.6298" lon="7.28195">
        <ele>462</ele>
        <time>2013-04-07T08:14:04.000Z</time>
      </trkpt>
      <trkpt lat="48.62984" lon="7.282">
        <ele>462</ele>
        <time>2013-04-07T08:14:06.000Z</time>
      </trkpt>
      <trkpt lat="48.62992" lon="7.28204">
        <ele>461</ele>
        <time>2013-04-07T08:14:09.000Z</time>
      </trkpt>
      <trkpt lat="48.62994" lon="7.2821">
        <ele>461</ele>
        <time>2013-04-07T08:14:11.000Z</time>
      </trkpt>
      <trkpt lat="48.63" lon="7.28213">
        <ele>466</ele>
        <time>2013-04-07T08:14:14.000Z</time>
      </trkpt>
      <trkpt lat="48.63003" lon="7.28217">
        <ele>466</ele>
        <time>2013-04-07T08:14:16.000Z</time>
      </trkpt>
      <trkpt lat="48.63007" lon="7.28218">
        <ele>466</ele>
        <time>2013-04-07T08:14:19.000Z</time>
      </trkpt>
      <trkpt lat="48.6301" lon="7.28229">
        <ele>464</ele>
        <time>2013-04-07T08:14:22.000Z</time>
      </trkpt>
      <trkpt lat="48.63015" lon="7.28233">
        <ele>463</ele>
        <time>2013-04-07T08:14:26.000Z</time>
      </trkpt>
      <trkpt lat="48.6302" lon="7.28242">
        <ele>464</ele>
        <time>2013-04-07T08:14:29.000Z</time>
      </trkpt>
      <trkpt lat="48.63026" lon="7.28244">
        <ele>466</ele>
        <time>2013-04-07T08:14:31.000Z</time>
      </trkpt>
      <trkpt lat="48.63031" lon="7.28247">
        <ele>467</ele>
        <time>2013-04-07T08:14:33.000Z</time>
      </trkpt>
      <trkpt lat="48.63035" lon="7.28252">
        <ele>461</ele>
        <time>2013-04-07T08:14:35.000Z</time>
      </trkpt>
      <trkpt lat="48.63041" lon="7.28255">
        <ele>463</ele>
        <time>2013-04-07T08:14:37.000Z</time>
      </trkpt>
      <trkpt lat="48.63046" lon="7.28258">
        <ele>464</ele>
        <time>2013-04-07T08:14:39.000Z</time>
      </trkpt>
      <trkpt lat="48.6305" lon="7.28267">
        <ele>465</ele>
        <time>2013-04-07T08:14:42.000Z</time>
      </trkpt>
      <trkpt lat="48.63052" lon="7.28277">
        <ele>464</ele>
        <time>2013-04-07T08:14:45.000Z</time>
      </trkpt>
      <trkpt lat="48.63057" lon="7.28281">
        <ele>465</ele>
        <time>2013-04-07T08:14:47.000Z</time>
      </trkpt>
      <trkpt lat="48.63063" lon="7.28287">
        <ele>465</ele>
        <time>2013-04-07T08:14:50.000Z</time>
      </trkpt>
      <trkpt lat="48.63068" lon="7.28292">
        <ele>465</ele>
        <time>2013-04-07T08:14:53.000Z</time>
      </trkpt>
      <trkpt lat="48.6307" lon="7.28297">
        <ele>465</ele>
        <time>2013-04-07T08:14:55.000Z</time>
      </trkpt>
      <trkpt lat="48.63052" lon="7.28297">
        <ele>463</ele>
        <time>2013-04-07T08:14:59.000Z</time>
      </trkpt>
      <trkpt lat="48.63077" lon="7.28309">
        <ele>464</ele>
        <time>2013-04-07T08:15:03.000Z</time>
      </trkpt>
      <trkpt lat="48.63081" lon="7.28314">
        <ele>464</ele>
        <time>2013-04-07T08:15:07.000Z</time>
      </trkpt>
      <trkpt lat="48.63086" lon="7.28315">
        <ele>478</ele>
        <time>2013-04-07T08:15:11.000Z</time>
      </trkpt>
      <trkpt lat="48.63091" lon="7.28316">
        <ele>479</ele>
        <time>2013-04-07T08:15:15.000Z</time>
      </trkpt>
      <trkpt lat="48.63094" lon="7.28324">
        <ele>476</ele>
        <time>2013-04-07T08:15:17.000Z</time>
      </trkpt>
      <trkpt lat="48.63087" lon="7.28327">
        <ele>471</ele>
        <time>2013-04-07T08:15:19.000Z</time>
      </trkpt>
      <trkpt lat="48.63102" lon="7.28331">
        <ele>479</ele>
        <time>2013-04-07T08:15:23.000Z</time>
      </trkpt>
      <trkpt lat="48.63104" lon="7.28332">
        <ele>480</ele>
        <time>2013-04-07T08:15:25.000Z</time>
      </trkpt>
      <trkpt lat="48.63107" lon="7.28338">
        <ele>470</ele>
        <time>2013-04-07T08:15:27.000Z</time>
      </trkpt>
      <trkpt lat="48.63112" lon="7.28336">
        <ele>472</ele>
        <time>2013-04-07T08:15:31.000Z</time>
      </trkpt>
      <trkpt lat="48.63115" lon="7.28342">
        <ele>472</ele>
        <time>2013-04-07T08:15:33.000Z</time>
      </trkpt>
      <trkpt lat="48.63119" lon="7.28355">
        <ele>472</ele>
        <time>2013-04-07T08:15:37.000Z</time>
      </trkpt>
      <trkpt lat="48.6312" lon="7.28351">
        <ele>473</ele>
        <time>2013-04-07T08:15:40.000Z</time>
      </trkpt>
      <trkpt lat="48.63122" lon="7.28364">
        <ele>472</ele>
        <time>2013-04-07T08:15:43.000Z</time>
      </trkpt>
      <trkpt lat="48.63124" lon="7.28372">
        <ele>471</ele>
        <time>2013-04-07T08:15:46.000Z</time>
      </trkpt>
      <trkpt lat="48.63128" lon="7.28375">
        <ele>472</ele>
        <time>2013-04-07T08:15:49.000Z</time>
      </trkpt>
      <trkpt lat="48.63134" lon="7.28383">
        <ele>472</ele>
        <time>2013-04-07T08:15:54.000Z</time>
      </trkpt>
      <trkpt lat="48.63119" lon="7.28377">
        <ele>470</ele>
        <time>2013-04-07T08:15:58.000Z</time>
      </trkpt>
      <trkpt lat="48.63144" lon="7.2839">
        <ele>472</ele>
        <time>2013-04-07T08:16:02.000Z</time>
      </trkpt>
      <trkpt lat="48.63149" lon="7.28392">
        <ele>472</ele>
        <time>2013-04-07T08:16:06.000Z</time>
      </trkpt>
      <trkpt lat="48.63155" lon="7.28403">
        <ele>472</ele>
        <time>2013-04-07T08:16:10.000Z</time>
      </trkpt>
      <trkpt lat="48.63157" lon="7.2841">
        <ele>471</ele>
        <time>2013-04-07T08:16:14.000Z</time>
      </trkpt>
      <trkpt lat="48.6316" lon="7.2841">
        <ele>471</ele>
        <time>2013-04-07T08:16:16.000Z</time>
      </trkpt>
      <trkpt lat="48.63163" lon="7.28415">
        <ele>471</ele>
        <time>2013-04-07T08:16:20.000Z</time>
      </trkpt>
      <trkpt lat="48.63152" lon="7.28408">
        <ele>471</ele>
        <time>2013-04-07T08:16:24.000Z</time>
      </trkpt>
      <trkpt lat="48.63174" lon="7.28411">
        <ele>477</ele>
        <time>2013-04-07T08:16:28.000Z</time>
      </trkpt>
      <trkpt lat="48.63178" lon="7.28407">
        <ele>479</ele>
        <time>2013-04-07T08:16:32.000Z</time>
      </trkpt>
      <trkpt lat="48.63179" lon="7.28409">
        <ele>479</ele>
        <time>2013-04-07T08:16:34.000Z</time>
      </trkpt>
      <trkpt lat="48.63181" lon="7.28409">
        <ele>480</ele>
        <time>2013-04-07T08:16:41.000Z</time>
      </trkpt>
      <trkpt lat="48.63183" lon="7.28409">
        <ele>480</ele>
        <time>2013-04-07T08:16:43.000Z</time>
      </trkpt>
      <trkpt lat="48.63185" lon="7.28409">
        <ele>481</ele>
        <time>2013-04-07T08:16:45.000Z</time>
      </trkpt>
      <trkpt lat="48.63188" lon="7.28408">
        <ele>482</ele>
        <time>2013-04-07T08:16:47.000Z</time>
      </trkpt>
      <trkpt lat="48.63191" lon="7.28407">
        <ele>483</ele>
        <time>2013-04-07T08:16:49.000Z</time>
      </trkpt>
      <trkpt lat="48.63199" lon="7.28405">
        <ele>485</ele>
        <time>2013-04-07T08:16:52.000Z</time>
      </trkpt>
      <trkpt lat="48.632" lon="7.28406">
        <ele>484</ele>
        <time>2013-04-07T08:16:55.000Z</time>
      </trkpt>
      <trkpt lat="48.63201" lon="7.28406">
        <ele>485</ele>
        <time>2013-04-07T08:17:02.000Z</time>
      </trkpt>
      <trkpt lat="48.63202" lon="7.28406">
        <ele>485</ele>
        <time>2013-04-07T08:17:04.000Z</time>
      </trkpt>
      <trkpt lat="48.63204" lon="7.28406">
        <ele>485</ele>
        <time>2013-04-07T08:17:06.000Z</time>
      </trkpt>
      <trkpt lat="48.63215" lon="7.28414">
        <ele>486</ele>
        <time>2013-04-07T08:17:09.000Z</time>
      </trkpt>
      <trkpt lat="48.63226" lon="7.28405">
        <ele>487</ele>
        <time>2013-04-07T08:17:12.000Z</time>
      </trkpt>
      <trkpt lat="48.63234" lon="7.28407">
        <ele>486</ele>
        <time>2013-04-07T08:17:15.000Z</time>
      </trkpt>
      <trkpt lat="48.63237" lon="7.2841">
        <ele>486</ele>
        <time>2013-04-07T08:17:17.000Z</time>
      </trkpt>
      <trkpt lat="48.63242" lon="7.28416">
        <ele>485</ele>
        <time>2013-04-07T08:17:20.000Z</time>
      </trkpt>
      <trkpt lat="48.63245" lon="7.28421">
        <ele>481</ele>
        <time>2013-04-07T08:17:22.000Z</time>
      </trkpt>
      <trkpt lat="48.63248" lon="7.28426">
        <ele>479</ele>
        <time>2013-04-07T08:17:24.000Z</time>
      </trkpt>
      <trkpt lat="48.63249" lon="7.28432">
        <ele>478</ele>
        <time>2013-04-07T08:17:26.000Z</time>
      </trkpt>
      <trkpt lat="48.63251" lon="7.28437">
        <ele>488</ele>
        <time>2013-04-07T08:17:28.000Z</time>
      </trkpt>
      <trkpt lat="48.63253" lon="7.28444">
        <ele>489</ele>
        <time>2013-04-07T08:17:31.000Z</time>
      </trkpt>
      <trkpt lat="48.63254" lon="7.28451">
        <ele>489</ele>
        <time>2013-04-07T08:17:33.000Z</time>
      </trkpt>
      <trkpt lat="48.63255" lon="7.28456">
        <ele>489</ele>
        <time>2013-04-07T08:17:35.000Z</time>
      </trkpt>
      <trkpt lat="48.63256" lon="7.28465">
        <ele>488</ele>
        <time>2013-04-07T08:17:38.000Z</time>
      </trkpt>
      <trkpt lat="48.63258" lon="7.28474">
        <ele>487</ele>
        <time>2013-04-07T08:17:41.000Z</time>
      </trkpt>
      <trkpt lat="48.63261" lon="7.28484">
        <ele>485</ele>
        <time>2013-04-07T08:17:45.000Z</time>
      </trkpt>
      <trkpt lat="48.63264" lon="7.28491">
        <ele>484</ele>
        <time>2013-04-07T08:17:47.000Z</time>
      </trkpt>
      <trkpt lat="48.63256" lon="7.28494">
        <ele>481</ele>
        <time>2013-04-07T08:17:49.000Z</time>
      </trkpt>
      <trkpt lat="48.63269" lon="7.28504">
        <ele>481</ele>
        <time>2013-04-07T08:17:53.000Z</time>
      </trkpt>
      <trkpt lat="48.6327" lon="7.28511">
        <ele>482</ele>
        <time>2013-04-07T08:17:55.000Z</time>
      </trkpt>
      <trkpt lat="48.63271" lon="7.28515">
        <ele>482</ele>
        <time>2013-04-07T08:17:57.000Z</time>
      </trkpt>
      <trkpt lat="48.63274" lon="7.2853">
        <ele>483</ele>
        <time>2013-04-07T08:18:00.000Z</time>
      </trkpt>
      <trkpt lat="48.63276" lon="7.28532">
        <ele>483</ele>
        <time>2013-04-07T08:18:02.000Z</time>
      </trkpt>
      <trkpt lat="48.63281" lon="7.28538">
        <ele>484</ele>
        <time>2013-04-07T08:18:06.000Z</time>
      </trkpt>
      <trkpt lat="48.63277" lon="7.28543">
        <ele>483</ele>
        <time>2013-04-07T08:18:08.000Z</time>
      </trkpt>
      <trkpt lat="48.63285" lon="7.28552">
        <ele>484</ele>
        <time>2013-04-07T08:18:11.000Z</time>
      </trkpt>
      <trkpt lat="48.63278" lon="7.28557">
        <ele>481</ele>
        <time>2013-04-07T08:18:13.000Z</time>
      </trkpt>
      <trkpt lat="48.63284" lon="7.28565">
        <ele>482</ele>
        <time>2013-04-07T08:18:15.000Z</time>
      </trkpt>
      <trkpt lat="48.63291" lon="7.28575">
        <ele>484</ele>
        <time>2013-04-07T08:18:18.000Z</time>
      </trkpt>
      <trkpt lat="48.63292" lon="7.28584">
        <ele>477</ele>
        <time>2013-04-07T08:18:20.000Z</time>
      </trkpt>
      <trkpt lat="48.63297" lon="7.28599">
        <ele>477</ele>
        <time>2013-04-07T08:18:23.000Z</time>
      </trkpt>
      <trkpt lat="48.63303" lon="7.28605">
        <ele>478</ele>
        <time>2013-04-07T08:18:25.000Z</time>
      </trkpt>
      <trkpt lat="48.63305" lon="7.28619">
        <ele>477</ele>
        <time>2013-04-07T08:18:28.000Z</time>
      </trkpt>
      <trkpt lat="48.63309" lon="7.28631">
        <ele>477</ele>
        <time>2013-04-07T08:18:31.000Z</time>
      </trkpt>
      <trkpt lat="48.63314" lon="7.28646">
        <ele>477</ele>
        <time>2013-04-07T08:18:33.000Z</time>
      </trkpt>
      <trkpt lat="48.6332" lon="7.28663">
        <ele>480</ele>
        <time>2013-04-07T08:18:36.000Z</time>
      </trkpt>
      <trkpt lat="48.63329" lon="7.28666">
        <ele>483</ele>
        <time>2013-04-07T08:18:39.000Z</time>
      </trkpt>
      <trkpt lat="48.63334" lon="7.2867">
        <ele>484</ele>
        <time>2013-04-07T08:18:41.000Z</time>
      </trkpt>
      <trkpt lat="48.63342" lon="7.28681">
        <ele>483</ele>
        <time>2013-04-07T08:18:44.000Z</time>
      </trkpt>
      <trkpt lat="48.63348" lon="7.28685">
        <ele>482</ele>
        <time>2013-04-07T08:18:46.000Z</time>
      </trkpt>
      <trkpt lat="48.63356" lon="7.28686">
        <ele>482</ele>
        <time>2013-04-07T08:18:48.000Z</time>
      </trkpt>
      <trkpt lat="48.63365" lon="7.28686">
        <ele>482</ele>
        <time>2013-04-07T08:18:50.000Z</time>
      </trkpt>
      <trkpt lat="48.63377" lon="7.28682">
        <ele>483</ele>
        <time>2013-04-07T08:18:53.000Z</time>
      </trkpt>
      <trkpt lat="48.63388" lon="7.28676">
        <ele>484</ele>
        <time>2013-04-07T08:18:56.000Z</time>
      </trkpt>
      <trkpt lat="48.63395" lon="7.28673">
        <ele>485</ele>
        <time>2013-04-07T08:18:58.000Z</time>
      </trkpt>
      <trkpt lat="48.63402" lon="7.28671">
        <ele>487</ele>
        <time>2013-04-07T08:19:00.000Z</time>
      </trkpt>
      <trkpt lat="48.63409" lon="7.28669">
        <ele>489</ele>
        <time>2013-04-07T08:19:02.000Z</time>
      </trkpt>
      <trkpt lat="48.63415" lon="7.28668">
        <ele>492</ele>
        <time>2013-04-07T08:19:04.000Z</time>
      </trkpt>
      <trkpt lat="48.63419" lon="7.28668">
        <ele>493</ele>
        <time>2013-04-07T08:19:06.000Z</time>
      </trkpt>
      <trkpt lat="48.63424" lon="7.28668">
        <ele>493</ele>
        <time>2013-04-07T08:19:08.000Z</time>
      </trkpt>
      <trkpt lat="48.63428" lon="7.28669">
        <ele>493</ele>
        <time>2013-04-07T08:19:10.000Z</time>
      </trkpt>
      <trkpt lat="48.63432" lon="7.28671">
        <ele>493</ele>
        <time>2013-04-07T08:19:12.000Z</time>
      </trkpt>
      <trkpt lat="48.63435" lon="7.28676">
        <ele>493</ele>
        <time>2013-04-07T08:19:14.000Z</time>
      </trkpt>
      <trkpt lat="48.6344" lon="7.28681">
        <ele>492</ele>
        <time>2013-04-07T08:19:16.000Z</time>
      </trkpt>
      <trkpt lat="48.63442" lon="7.28686">
        <ele>492</ele>
        <time>2013-04-07T08:19:18.000Z</time>
      </trkpt>
      <trkpt lat="48.63445" lon="7.28692">
        <ele>492</ele>
        <time>2013-04-07T08:19:20.000Z</time>
      </trkpt>
      <trkpt lat="48.63446" lon="7.28697">
        <ele>492</ele>
        <time>2013-04-07T08:19:22.000Z</time>
      </trkpt>
      <trkpt lat="48.6344" lon="7.28698">
        <ele>491</ele>
        <time>2013-04-07T08:19:24.000Z</time>
      </trkpt>
      <trkpt lat="48.63452" lon="7.2871">
        <ele>491</ele>
        <time>2013-04-07T08:19:27.000Z</time>
      </trkpt>
      <trkpt lat="48.63454" lon="7.28716">
        <ele>490</ele>
        <time>2013-04-07T08:19:29.000Z</time>
      </trkpt>
      <trkpt lat="48.63456" lon="7.2872">
        <ele>490</ele>
        <time>2013-04-07T08:19:31.000Z</time>
      </trkpt>
      <trkpt lat="48.63457" lon="7.28725">
        <ele>490</ele>
        <time>2013-04-07T08:19:33.000Z</time>
      </trkpt>
      <trkpt lat="48.63459" lon="7.2873">
        <ele>490</ele>
        <time>2013-04-07T08:19:35.000Z</time>
      </trkpt>
      <trkpt lat="48.63459" lon="7.28734">
        <ele>490</ele>
        <time>2013-04-07T08:19:37.000Z</time>
      </trkpt>
      <trkpt lat="48.63461" lon="7.2874">
        <ele>490</ele>
        <time>2013-04-07T08:19:39.000Z</time>
      </trkpt>
      <trkpt lat="48.63463" lon="7.28744">
        <ele>490</ele>
        <time>2013-04-07T08:19:41.000Z</time>
      </trkpt>
      <trkpt lat="48.63465" lon="7.28749">
        <ele>490</ele>
        <time>2013-04-07T08:19:43.000Z</time>
      </trkpt>
      <trkpt lat="48.63461" lon="7.28749">
        <ele>489</ele>
        <time>2013-04-07T08:19:45.000Z</time>
      </trkpt>
      <trkpt lat="48.6347" lon="7.28767">
        <ele>481</ele>
        <time>2013-04-07T08:19:48.000Z</time>
      </trkpt>
      <trkpt lat="48.63451" lon="7.28773">
        <ele>477</ele>
        <time>2013-04-07T08:19:51.000Z</time>
      </trkpt>
      <trkpt lat="48.63475" lon="7.28787">
        <ele>480</ele>
        <time>2013-04-07T08:19:54.000Z</time>
      </trkpt>
      <trkpt lat="48.63477" lon="7.28791">
        <ele>480</ele>
        <time>2013-04-07T08:19:57.000Z</time>
      </trkpt>
      <trkpt lat="48.63478" lon="7.28802">
        <ele>479</ele>
        <time>2013-04-07T08:20:00.000Z</time>
      </trkpt>
      <trkpt lat="48.63482" lon="7.2881">
        <ele>480</ele>
        <time>2013-04-07T08:20:05.000Z</time>
      </trkpt>
      <trkpt lat="48.63484" lon="7.28815">
        <ele>480</ele>
        <time>2013-04-07T08:20:08.000Z</time>
      </trkpt>
      <trkpt lat="48.63486" lon="7.28825">
        <ele>481</ele>
        <time>2013-04-07T08:20:11.000Z</time>
      </trkpt>
      <trkpt lat="48.63491" lon="7.28831">
        <ele>483</ele>
        <time>2013-04-07T08:20:15.000Z</time>
      </trkpt>
      <trkpt lat="48.63475" lon="7.28835">
        <ele>474</ele>
        <time>2013-04-07T08:20:19.000Z</time>
      </trkpt>
      <trkpt lat="48.63495" lon="7.28849">
        <ele>478</ele>
        <time>2013-04-07T08:20:23.000Z</time>
      </trkpt>
      <trkpt lat="48.63495" lon="7.28862">
        <ele>475</ele>
        <time>2013-04-07T08:20:25.000Z</time>
      </trkpt>
      <trkpt lat="48.63499" lon="7.28864">
        <ele>475</ele>
        <time>2013-04-07T08:20:29.000Z</time>
      </trkpt>
      <trkpt lat="48.63498" lon="7.28871">
        <ele>474</ele>
        <time>2013-04-07T08:20:31.000Z</time>
      </trkpt>
      <trkpt lat="48.63501" lon="7.28876">
        <ele>490</ele>
        <time>2013-04-07T08:20:33.000Z</time>
      </trkpt>
      <trkpt lat="48.63504" lon="7.28883">
        <ele>490</ele>
        <time>2013-04-07T08:20:35.000Z</time>
      </trkpt>
      <trkpt lat="48.63507" lon="7.28892">
        <ele>489</ele>
        <time>2013-04-07T08:20:38.000Z</time>
      </trkpt>
      <trkpt lat="48.63511" lon="7.28894">
        <ele>489</ele>
        <time>2013-04-07T08:20:41.000Z</time>
      </trkpt>
      <trkpt lat="48.63517" lon="7.289">
        <ele>489</ele>
        <time>2013-04-07T08:20:44.000Z</time>
      </trkpt>
      <trkpt lat="48.63518" lon="7.28906">
        <ele>488</ele>
        <time>2013-04-07T08:20:46.000Z</time>
      </trkpt>
      <trkpt lat="48.63523" lon="7.28908">
        <ele>489</ele>
        <time>2013-04-07T08:20:50.000Z</time>
      </trkpt>
      <trkpt lat="48.63526" lon="7.28919">
        <ele>483</ele>
        <time>2013-04-07T08:20:52.000Z</time>
      </trkpt>
      <trkpt lat="48.6353" lon="7.28919">
        <ele>483</ele>
        <time>2013-04-07T08:20:55.000Z</time>
      </trkpt>
      <trkpt lat="48.63536" lon="7.28926">
        <ele>484</ele>
        <time>2013-04-07T08:20:59.000Z</time>
      </trkpt>
      <trkpt lat="48.63545" lon="7.28924">
        <ele>485</ele>
        <time>2013-04-07T08:21:03.000Z</time>
      </trkpt>
      <trkpt lat="48.63549" lon="7.28928">
        <ele>485</ele>
        <time>2013-04-07T08:21:06.000Z</time>
      </trkpt>
      <trkpt lat="48.63558" lon="7.28938">
        <ele>485</ele>
        <time>2013-04-07T08:21:09.000Z</time>
      </trkpt>
      <trkpt lat="48.6356" lon="7.28931">
        <ele>486</ele>
        <time>2013-04-07T08:21:11.000Z</time>
      </trkpt>
      <trkpt lat="48.63565" lon="7.28933">
        <ele>487</ele>
        <time>2013-04-07T08:21:14.000Z</time>
      </trkpt>
      <trkpt lat="48.63568" lon="7.28924">
        <ele>489</ele>
        <time>2013-04-07T08:21:23.000Z</time>
      </trkpt>
      <trkpt lat="48.6357" lon="7.28924">
        <ele>489</ele>
        <time>2013-04-07T08:21:30.000Z</time>
      </trkpt>
      <trkpt lat="48.63576" lon="7.2892">
        <ele>492</ele>
        <time>2013-04-07T08:21:34.000Z</time>
      </trkpt>
      <trkpt lat="48.63581" lon="7.2892">
        <ele>494</ele>
        <time>2013-04-07T08:21:37.000Z</time>
      </trkpt>
      <trkpt lat="48.63587" lon="7.28924">
        <ele>493</ele>
        <time>2013-04-07T08:21:41.000Z</time>
      </trkpt>
      <trkpt lat="48.63591" lon="7.2892">
        <ele>493</ele>
        <time>2013-04-07T08:21:45.000Z</time>
      </trkpt>
      <trkpt lat="48.6358" lon="7.28914">
        <ele>496</ele>
        <time>2013-04-07T08:21:49.000Z</time>
      </trkpt>
      <trkpt lat="48.63604" lon="7.28915">
        <ele>504</ele>
        <time>2013-04-07T08:21:53.000Z</time>
      </trkpt>
      <trkpt lat="48.63606" lon="7.28916">
        <ele>504</ele>
        <time>2013-04-07T08:21:55.000Z</time>
      </trkpt>
      <trkpt lat="48.6361" lon="7.28916">
        <ele>505</ele>
        <time>2013-04-07T08:21:57.000Z</time>
      </trkpt>
      <trkpt lat="48.63624" lon="7.28915">
        <ele>507</ele>
        <time>2013-04-07T08:22:00.000Z</time>
      </trkpt>
      <trkpt lat="48.6363" lon="7.28916">
        <ele>507</ele>
        <time>2013-04-07T08:22:05.000Z</time>
      </trkpt>
      <trkpt lat="48.63632" lon="7.28916">
        <ele>507</ele>
        <time>2013-04-07T08:22:08.000Z</time>
      </trkpt>
      <trkpt lat="48.63639" lon="7.28916">
        <ele>507</ele>
        <time>2013-04-07T08:22:11.000Z</time>
      </trkpt>
      <trkpt lat="48.63649" lon="7.28921">
        <ele>494</ele>
        <time>2013-04-07T08:22:14.000Z</time>
      </trkpt>
      <trkpt lat="48.63651" lon="7.28917">
        <ele>495</ele>
        <time>2013-04-07T08:22:16.000Z</time>
      </trkpt>
      <trkpt lat="48.63656" lon="7.28913">
        <ele>506</ele>
        <time>2013-04-07T08:22:18.000Z</time>
      </trkpt>
      <trkpt lat="48.63662" lon="7.28913">
        <ele>505</ele>
        <time>2013-04-07T08:22:21.000Z</time>
      </trkpt>
      <trkpt lat="48.63667" lon="7.28912">
        <ele>506</ele>
        <time>2013-04-07T08:22:23.000Z</time>
      </trkpt>
      <trkpt lat="48.63674" lon="7.28911">
        <ele>508</ele>
        <time>2013-04-07T08:22:26.000Z</time>
      </trkpt>
      <trkpt lat="48.63679" lon="7.28911">
        <ele>509</ele>
        <time>2013-04-07T08:22:28.000Z</time>
      </trkpt>
      <trkpt lat="48.63683" lon="7.28911">
        <ele>510</ele>
        <time>2013-04-07T08:22:30.000Z</time>
      </trkpt>
      <trkpt lat="48.63688" lon="7.28912">
        <ele>511</ele>
        <time>2013-04-07T08:22:32.000Z</time>
      </trkpt>
      <trkpt lat="48.63692" lon="7.28913">
        <ele>512</ele>
        <time>2013-04-07T08:22:34.000Z</time>
      </trkpt>
      <trkpt lat="48.63698" lon="7.28914">
        <ele>513</ele>
        <time>2013-04-07T08:22:37.000Z</time>
      </trkpt>
      <trkpt lat="48.63703" lon="7.28914">
        <ele>513</ele>
        <time>2013-04-07T08:22:39.000Z</time>
      </trkpt>
      <trkpt lat="48.63707" lon="7.28912">
        <ele>513</ele>
        <time>2013-04-07T08:22:41.000Z</time>
      </trkpt>
      <trkpt lat="48.63712" lon="7.2891">
        <ele>514</ele>
        <time>2013-04-07T08:22:44.000Z</time>
      </trkpt>
      <trkpt lat="48.63717" lon="7.28909">
        <ele>514</ele>
        <time>2013-04-07T08:22:46.000Z</time>
      </trkpt>
      <trkpt lat="48.63721" lon="7.28908">
        <ele>513</ele>
        <time>2013-04-07T08:22:48.000Z</time>
      </trkpt>
      <trkpt lat="48.6373" lon="7.28904">
        <ele>513</ele>
        <time>2013-04-07T08:22:50.000Z</time>
      </trkpt>
      <trkpt lat="48.63735" lon="7.2891">
        <ele>511</ele>
        <time>2013-04-07T08:22:52.000Z</time>
      </trkpt>
      <trkpt lat="48.63743" lon="7.2891">
        <ele>509</ele>
        <time>2013-04-07T08:22:55.000Z</time>
      </trkpt>
      <trkpt lat="48.63753" lon="7.28904">
        <ele>511</ele>
        <time>2013-04-07T08:22:58.000Z</time>
      </trkpt>
      <trkpt lat="48.63759" lon="7.28905">
        <ele>512</ele>
        <time>2013-04-07T08:23:01.000Z</time>
      </trkpt>
      <trkpt lat="48.63765" lon="7.28905">
        <ele>513</ele>
        <time>2013-04-07T08:23:03.000Z</time>
      </trkpt>
      <trkpt lat="48.63771" lon="7.28904">
        <ele>514</ele>
        <time>2013-04-07T08:23:05.000Z</time>
      </trkpt>
      <trkpt lat="48.63773" lon="7.28909">
        <ele>514</ele>
        <time>2013-04-07T08:23:07.000Z</time>
      </trkpt>
      <trkpt lat="48.63786" lon="7.289">
        <ele>516</ele>
        <time>2013-04-07T08:23:10.000Z</time>
      </trkpt>
      <trkpt lat="48.63792" lon="7.28903">
        <ele>516</ele>
        <time>2013-04-07T08:23:12.000Z</time>
      </trkpt>
      <trkpt lat="48.63796" lon="7.28899">
        <ele>516</ele>
        <time>2013-04-07T08:23:14.000Z</time>
      </trkpt>
      <trkpt lat="48.63795" lon="7.28892">
        <ele>517</ele>
        <time>2013-04-07T08:23:17.000Z</time>
      </trkpt>
      <trkpt lat="48.6381" lon="7.28895">
        <ele>516</ele>
        <time>2013-04-07T08:23:20.000Z</time>
      </trkpt>
      <trkpt lat="48.63816" lon="7.289">
        <ele>514</ele>
        <time>2013-04-07T08:23:22.000Z</time>
      </trkpt>
      <trkpt lat="48.63823" lon="7.28892">
        <ele>515</ele>
        <time>2013-04-07T08:23:24.000Z</time>
      </trkpt>
      <trkpt lat="48.63829" lon="7.28893">
        <ele>515</ele>
        <time>2013-04-07T08:23:27.000Z</time>
      </trkpt>
      <trkpt lat="48.63838" lon="7.28893">
        <ele>514</ele>
        <time>2013-04-07T08:23:30.000Z</time>
      </trkpt>
      <trkpt lat="48.63849" lon="7.28896">
        <ele>514</ele>
        <time>2013-04-07T08:23:33.000Z</time>
      </trkpt>
      <trkpt lat="48.63858" lon="7.28888">
        <ele>516</ele>
        <time>2013-04-07T08:23:36.000Z</time>
      </trkpt>
      <trkpt lat="48.63871" lon="7.28885">
        <ele>517</ele>
        <time>2013-04-07T08:23:39.000Z</time>
      </trkpt>
      <trkpt lat="48.63889" lon="7.28879">
        <ele>518</ele>
        <time>2013-04-07T08:23:42.000Z</time>
      </trkpt>
      <trkpt lat="48.63875" lon="7.28882">
        <ele>517</ele>
        <time>2013-04-07T08:23:44.000Z</time>
      </trkpt>
      <trkpt lat="48.63885" lon="7.28887">
        <ele>517</ele>
        <time>2013-04-07T08:23:47.000Z</time>
      </trkpt>
      <trkpt lat="48.63905" lon="7.28917">
        <ele>508</ele>
        <time>2013-04-07T08:23:51.000Z</time>
      </trkpt>
      <trkpt lat="48.63903" lon="7.28929">
        <ele>507</ele>
        <time>2013-04-07T08:23:53.000Z</time>
      </trkpt>
      <trkpt lat="48.63901" lon="7.28942">
        <ele>506</ele>
        <time>2013-04-07T08:23:57.000Z</time>
      </trkpt>
      <trkpt lat="48.639" lon="7.28955">
        <ele>506</ele>
        <time>2013-04-07T08:23:59.000Z</time>
      </trkpt>
      <trkpt lat="48.63893" lon="7.2896">
        <ele>505</ele>
        <time>2013-04-07T08:24:02.000Z</time>
      </trkpt>
      <trkpt lat="48.639" lon="7.28967">
        <ele>506</ele>
        <time>2013-04-07T08:24:04.000Z</time>
      </trkpt>
      <trkpt lat="48.63896" lon="7.28976">
        <ele>506</ele>
        <time>2013-04-07T08:24:08.000Z</time>
      </trkpt>
      <trkpt lat="48.63892" lon="7.28981">
        <ele>505</ele>
        <time>2013-04-07T08:24:12.000Z</time>
      </trkpt>
      <trkpt lat="48.63889" lon="7.28986">
        <ele>505</ele>
        <time>2013-04-07T08:24:16.000Z</time>
      </trkpt>
      <trkpt lat="48.63886" lon="7.28996">
        <ele>505</ele>
        <time>2013-04-07T08:24:19.000Z</time>
      </trkpt>
      <trkpt lat="48.63892" lon="7.29003">
        <ele>506</ele>
        <time>2013-04-07T08:24:21.000Z</time>
      </trkpt>
      <trkpt lat="48.63887" lon="7.2901">
        <ele>505</ele>
        <time>2013-04-07T08:24:24.000Z</time>
      </trkpt>
      <trkpt lat="48.63876" lon="7.29025">
        <ele>503</ele>
        <time>2013-04-07T08:24:27.000Z</time>
      </trkpt>
      <trkpt lat="48.63871" lon="7.29033">
        <ele>503</ele>
        <time>2013-04-07T08:24:32.000Z</time>
      </trkpt>
      <trkpt lat="48.6387" lon="7.29033">
        <ele>503</ele>
        <time>2013-04-07T08:24:35.000Z</time>
      </trkpt>
      <trkpt lat="48.6387" lon="7.29035">
        <ele>503</ele>
        <time>2013-04-07T08:24:38.000Z</time>
      </trkpt>
      <trkpt lat="48.6388" lon="7.29039">
        <ele>504</ele>
        <time>2013-04-07T08:24:43.000Z</time>
      </trkpt>
      <trkpt lat="48.63872" lon="7.29038">
        <ele>503</ele>
        <time>2013-04-07T08:24:56.000Z</time>
      </trkpt>
      <trkpt lat="48.63872" lon="7.29038">
        <ele>503</ele>
        <time>2013-04-07T08:25:16.000Z</time>
      </trkpt>
      <trkpt lat="48.6387" lon="7.29041">
        <ele>503</ele>
        <time>2013-04-07T08:25:39.000Z</time>
      </trkpt>
      <trkpt lat="48.63868" lon="7.29035">
        <ele>503</ele>
        <time>2013-04-07T08:25:54.000Z</time>
      </trkpt>
      <trkpt lat="48.63866" lon="7.29043">
        <ele>503</ele>
        <time>2013-04-07T08:25:56.000Z</time>
      </trkpt>
      <trkpt lat="48.63868" lon="7.29047">
        <ele>503</ele>
        <time>2013-04-07T08:25:58.000Z</time>
      </trkpt>
      <trkpt lat="48.6386" lon="7.29058">
        <ele>502</ele>
        <time>2013-04-07T08:26:02.000Z</time>
      </trkpt>
      <trkpt lat="48.63857" lon="7.29065">
        <ele>501</ele>
        <time>2013-04-07T08:26:04.000Z</time>
      </trkpt>
      <trkpt lat="48.63856" lon="7.29066">
        <ele>501</ele>
        <time>2013-04-07T08:26:06.000Z</time>
      </trkpt>
      <trkpt lat="48.6385" lon="7.29074">
        <ele>499</ele>
        <time>2013-04-07T08:26:10.000Z</time>
      </trkpt>
      <trkpt lat="48.63855" lon="7.29081">
        <ele>500</ele>
        <time>2013-04-07T08:26:12.000Z</time>
      </trkpt>
      <trkpt lat="48.63848" lon="7.29086">
        <ele>505</ele>
        <time>2013-04-07T08:26:14.000Z</time>
      </trkpt>
      <trkpt lat="48.6384" lon="7.29092">
        <ele>503</ele>
        <time>2013-04-07T08:26:17.000Z</time>
      </trkpt>
      <trkpt lat="48.63839" lon="7.291">
        <ele>507</ele>
        <time>2013-04-07T08:26:20.000Z</time>
      </trkpt>
      <trkpt lat="48.63832" lon="7.29099">
        <ele>494</ele>
        <time>2013-04-07T08:26:23.000Z</time>
      </trkpt>
      <trkpt lat="48.63831" lon="7.29113">
        <ele>496</ele>
        <time>2013-04-07T08:26:25.000Z</time>
      </trkpt>
      <trkpt lat="48.63819" lon="7.29124">
        <ele>497</ele>
        <time>2013-04-07T08:26:28.000Z</time>
      </trkpt>
      <trkpt lat="48.63815" lon="7.29128">
        <ele>497</ele>
        <time>2013-04-07T08:26:30.000Z</time>
      </trkpt>
      <trkpt lat="48.63813" lon="7.29128">
        <ele>496</ele>
        <time>2013-04-07T08:26:32.000Z</time>
      </trkpt>
      <trkpt lat="48.63811" lon="7.29131">
        <ele>497</ele>
        <time>2013-04-07T08:26:34.000Z</time>
      </trkpt>
      <trkpt lat="48.63804" lon="7.29136">
        <ele>497</ele>
        <time>2013-04-07T08:26:37.000Z</time>
      </trkpt>
      <trkpt lat="48.638" lon="7.29147">
        <ele>497</ele>
        <time>2013-04-07T08:26:39.000Z</time>
      </trkpt>
      <trkpt lat="48.63798" lon="7.29149">
        <ele>497</ele>
        <time>2013-04-07T08:26:41.000Z</time>
      </trkpt>
      <trkpt lat="48.63792" lon="7.2916">
        <ele>497</ele>
        <time>2013-04-07T08:26:44.000Z</time>
      </trkpt>
      <trkpt lat="48.63789" lon="7.29166">
        <ele>496</ele>
        <time>2013-04-07T08:26:47.000Z</time>
      </trkpt>
      <trkpt lat="48.63782" lon="7.29174">
        <ele>509</ele>
        <time>2013-04-07T08:26:50.000Z</time>
      </trkpt>
      <trkpt lat="48.63777" lon="7.29184">
        <ele>509</ele>
        <time>2013-04-07T08:26:52.000Z</time>
      </trkpt>
      <trkpt lat="48.63772" lon="7.29189">
        <ele>509</ele>
        <time>2013-04-07T08:26:55.000Z</time>
      </trkpt>
      <trkpt lat="48.63769" lon="7.29189">
        <ele>508</ele>
        <time>2013-04-07T08:26:57.000Z</time>
      </trkpt>
      <trkpt lat="48.63766" lon="7.29192">
        <ele>508</ele>
        <time>2013-04-07T08:27:00.000Z</time>
      </trkpt>
      <trkpt lat="48.63763" lon="7.29202">
        <ele>510</ele>
        <time>2013-04-07T08:27:02.000Z</time>
      </trkpt>
      <trkpt lat="48.63762" lon="7.29207">
        <ele>511</ele>
        <time>2013-04-07T08:27:04.000Z</time>
      </trkpt>
      <trkpt lat="48.63752" lon="7.29213">
        <ele>511</ele>
        <time>2013-04-07T08:27:07.000Z</time>
      </trkpt>
      <trkpt lat="48.63748" lon="7.29224">
        <ele>497</ele>
        <time>2013-04-07T08:27:10.000Z</time>
      </trkpt>
      <trkpt lat="48.63742" lon="7.29237">
        <ele>501</ele>
        <time>2013-04-07T08:27:13.000Z</time>
      </trkpt>
      <trkpt lat="48.63735" lon="7.29243">
        <ele>500</ele>
        <time>2013-04-07T08:27:16.000Z</time>
      </trkpt>
      <trkpt lat="48.63728" lon="7.2925">
        <ele>508</ele>
        <time>2013-04-07T08:27:19.000Z</time>
      </trkpt>
      <trkpt lat="48.6372" lon="7.29265">
        <ele>507</ele>
        <time>2013-04-07T08:27:22.000Z</time>
      </trkpt>
      <trkpt lat="48.63715" lon="7.29275">
        <ele>506</ele>
        <time>2013-04-07T08:27:24.000Z</time>
      </trkpt>
      <trkpt lat="48.63709" lon="7.29277">
        <ele>506</ele>
        <time>2013-04-07T08:27:26.000Z</time>
      </trkpt>
      <trkpt lat="48.63703" lon="7.29287">
        <ele>506</ele>
        <time>2013-04-07T08:27:29.000Z</time>
      </trkpt>
      <trkpt lat="48.63697" lon="7.29301">
        <ele>506</ele>
        <time>2013-04-07T08:27:31.000Z</time>
      </trkpt>
      <trkpt lat="48.63692" lon="7.2931">
        <ele>506</ele>
        <time>2013-04-07T08:27:34.000Z</time>
      </trkpt>
      <trkpt lat="48.63683" lon="7.29323">
        <ele>505</ele>
        <time>2013-04-07T08:27:37.000Z</time>
      </trkpt>
      <trkpt lat="48.63678" lon="7.29336">
        <ele>509</ele>
        <time>2013-04-07T08:27:39.000Z</time>
      </trkpt>
      <trkpt lat="48.63672" lon="7.29346">
        <ele>509</ele>
        <time>2013-04-07T08:27:43.000Z</time>
      </trkpt>
      <trkpt lat="48.63678" lon="7.29353">
        <ele>513</ele>
        <time>2013-04-07T08:27:45.000Z</time>
      </trkpt>
      <trkpt lat="48.63667" lon="7.29369">
        <ele>514</ele>
        <time>2013-04-07T08:27:48.000Z</time>
      </trkpt>
      <trkpt lat="48.63665" lon="7.29377">
        <ele>494</ele>
        <time>2013-04-07T08:27:50.000Z</time>
      </trkpt>
      <trkpt lat="48.63663" lon="7.29383">
        <ele>494</ele>
        <time>2013-04-07T08:27:52.000Z</time>
      </trkpt>
      <trkpt lat="48.6366" lon="7.29405">
        <ele>499</ele>
        <time>2013-04-07T08:27:55.000Z</time>
      </trkpt>
      <trkpt lat="48.6366" lon="7.29408">
        <ele>501</ele>
        <time>2013-04-07T08:27:57.000Z</time>
      </trkpt>
      <trkpt lat="48.63658" lon="7.29429">
        <ele>501</ele>
        <time>2013-04-07T08:28:00.000Z</time>
      </trkpt>
      <trkpt lat="48.63655" lon="7.2944">
        <ele>499</ele>
        <time>2013-04-07T08:28:03.000Z</time>
      </trkpt>
      <trkpt lat="48.6366" lon="7.29445">
        <ele>499</ele>
        <time>2013-04-07T08:28:05.000Z</time>
      </trkpt>
      <trkpt lat="48.63654" lon="7.29459">
        <ele>498</ele>
        <time>2013-04-07T08:28:09.000Z</time>
      </trkpt>
      <trkpt lat="48.63651" lon="7.29483">
        <ele>501</ele>
        <time>2013-04-07T08:28:12.000Z</time>
      </trkpt>
      <trkpt lat="48.63639" lon="7.29513">
        <ele>498</ele>
        <time>2013-04-07T08:28:16.000Z</time>
      </trkpt>
      <trkpt lat="48.63649" lon="7.29521">
        <ele>500</ele>
        <time>2013-04-07T08:28:19.000Z</time>
      </trkpt>
      <trkpt lat="48.63651" lon="7.29537">
        <ele>499</ele>
        <time>2013-04-07T08:28:22.000Z</time>
      </trkpt>
      <trkpt lat="48.63654" lon="7.29549">
        <ele>500</ele>
        <time>2013-04-07T08:28:24.000Z</time>
      </trkpt>
      <trkpt lat="48.63655" lon="7.29564">
        <ele>502</ele>
        <time>2013-04-07T08:28:27.000Z</time>
      </trkpt>
      <trkpt lat="48.63658" lon="7.29588">
        <ele>505</ele>
        <time>2013-04-07T08:28:30.000Z</time>
      </trkpt>
      <trkpt lat="48.63658" lon="7.29604">
        <ele>500</ele>
        <time>2013-04-07T08:28:32.000Z</time>
      </trkpt>
      <trkpt lat="48.63658" lon="7.29607">
        <ele>499</ele>
        <time>2013-04-07T08:28:34.000Z</time>
      </trkpt>
      <trkpt lat="48.6366" lon="7.29623">
        <ele>497</ele>
        <time>2013-04-07T08:28:37.000Z</time>
      </trkpt>
      <trkpt lat="48.63663" lon="7.29635">
        <ele>497</ele>
        <time>2013-04-07T08:28:40.000Z</time>
      </trkpt>
      <trkpt lat="48.63666" lon="7.2965">
        <ele>499</ele>
        <time>2013-04-07T08:28:43.000Z</time>
      </trkpt>
      <trkpt lat="48.6367" lon="7.29672">
        <ele>509</ele>
        <time>2013-04-07T08:28:46.000Z</time>
      </trkpt>
      <trkpt lat="48.63676" lon="7.29686">
        <ele>511</ele>
        <time>2013-04-07T08:28:49.000Z</time>
      </trkpt>
      <trkpt lat="48.6368" lon="7.29701">
        <ele>512</ele>
        <time>2013-04-07T08:28:52.000Z</time>
      </trkpt>
      <trkpt lat="48.63688" lon="7.2972">
        <ele>511</ele>
        <time>2013-04-07T08:28:55.000Z</time>
      </trkpt>
      <trkpt lat="48.6369" lon="7.29733">
        <ele>509</ele>
        <time>2013-04-07T08:28:57.000Z</time>
      </trkpt>
      <trkpt lat="48.63694" lon="7.2974">
        <ele>509</ele>
        <time>2013-04-07T08:28:59.000Z</time>
      </trkpt>
      <trkpt lat="48.63699" lon="7.29766">
        <ele>504</ele>
        <time>2013-04-07T08:29:03.000Z</time>
      </trkpt>
      <trkpt lat="48.63687" lon="7.29772">
        <ele>502</ele>
        <time>2013-04-07T08:29:05.000Z</time>
      </trkpt>
      <trkpt lat="48.63694" lon="7.29791">
        <ele>503</ele>
        <time>2013-04-07T08:29:08.000Z</time>
      </trkpt>
      <trkpt lat="48.63704" lon="7.29803">
        <ele>503</ele>
        <time>2013-04-07T08:29:10.000Z</time>
      </trkpt>
      <trkpt lat="48.63713" lon="7.29822">
        <ele>504</ele>
        <time>2013-04-07T08:29:12.000Z</time>
      </trkpt>
      <trkpt lat="48.63718" lon="7.29838">
        <ele>500</ele>
        <time>2013-04-07T08:29:15.000Z</time>
      </trkpt>
      <trkpt lat="48.63723" lon="7.29856">
        <ele>499</ele>
        <time>2013-04-07T08:29:18.000Z</time>
      </trkpt>
      <trkpt lat="48.63729" lon="7.2987">
        <ele>499</ele>
        <time>2013-04-07T08:29:21.000Z</time>
      </trkpt>
      <trkpt lat="48.63737" lon="7.2988">
        <ele>499</ele>
        <time>2013-04-07T08:29:24.000Z</time>
      </trkpt>
      <trkpt lat="48.63745" lon="7.29892">
        <ele>499</ele>
        <time>2013-04-07T08:29:27.000Z</time>
      </trkpt>
      <trkpt lat="48.63749" lon="7.29903">
        <ele>499</ele>
        <time>2013-04-07T08:29:30.000Z</time>
      </trkpt>
      <trkpt lat="48.63753" lon="7.29906">
        <ele>501</ele>
        <time>2013-04-07T08:29:34.000Z</time>
      </trkpt>
      <trkpt lat="48.63816" lon="7.29909">
        <ele>496</ele>
        <time>2013-04-07T08:29:42.000Z</time>
      </trkpt>
      <trkpt lat="48.63827" lon="7.29904">
        <ele>495</ele>
        <time>2013-04-07T08:29:44.000Z</time>
      </trkpt>
      <trkpt lat="48.63825" lon="7.29893">
        <ele>498</ele>
        <time>2013-04-07T08:29:46.000Z</time>
      </trkpt>
      <trkpt lat="48.63877" lon="7.29862">
        <ele>494</ele>
        <time>2013-04-07T08:29:52.000Z</time>
      </trkpt>
      <trkpt lat="48.63891" lon="7.2985">
        <ele>494</ele>
        <time>2013-04-07T08:29:54.000Z</time>
      </trkpt>
      <trkpt lat="48.63905" lon="7.29837">
        <ele>495</ele>
        <time>2013-04-07T08:29:56.000Z</time>
      </trkpt>
      <trkpt lat="48.63918" lon="7.29825">
        <ele>497</ele>
        <time>2013-04-07T08:29:58.000Z</time>
      </trkpt>
      <trkpt lat="48.63928" lon="7.29816">
        <ele>498</ele>
        <time>2013-04-07T08:30:00.000Z</time>
      </trkpt>
      <trkpt lat="48.6395" lon="7.29796">
        <ele>499</ele>
        <time>2013-04-07T08:30:03.000Z</time>
      </trkpt>
      <trkpt lat="48.63961" lon="7.29789">
        <ele>499</ele>
        <time>2013-04-07T08:30:05.000Z</time>
      </trkpt>
      <trkpt lat="48.63974" lon="7.29783">
        <ele>498</ele>
        <time>2013-04-07T08:30:07.000Z</time>
      </trkpt>
      <trkpt lat="48.6399" lon="7.2976">
        <ele>501</ele>
        <time>2013-04-07T08:30:10.000Z</time>
      </trkpt>
      <trkpt lat="48.64002" lon="7.2975">
        <ele>502</ele>
        <time>2013-04-07T08:30:13.000Z</time>
      </trkpt>
      <trkpt lat="48.64005" lon="7.29746">
        <ele>503</ele>
        <time>2013-04-07T08:30:15.000Z</time>
      </trkpt>
      <trkpt lat="48.64017" lon="7.29735">
        <ele>503</ele>
        <time>2013-04-07T08:30:18.000Z</time>
      </trkpt>
      <trkpt lat="48.64027" lon="7.29729">
        <ele>503</ele>
        <time>2013-04-07T08:30:20.000Z</time>
      </trkpt>
      <trkpt lat="48.64038" lon="7.2972">
        <ele>503</ele>
        <time>2013-04-07T08:30:23.000Z</time>
      </trkpt>
      <trkpt lat="48.64048" lon="7.29716">
        <ele>502</ele>
        <time>2013-04-07T08:30:25.000Z</time>
      </trkpt>
      <trkpt lat="48.64054" lon="7.2971">
        <ele>502</ele>
        <time>2013-04-07T08:30:27.000Z</time>
      </trkpt>
      <trkpt lat="48.64064" lon="7.297">
        <ele>503</ele>
        <time>2013-04-07T08:30:30.000Z</time>
      </trkpt>
      <trkpt lat="48.64075" lon="7.297">
        <ele>502</ele>
        <time>2013-04-07T08:30:32.000Z</time>
      </trkpt>
      <trkpt lat="48.64084" lon="7.29701">
        <ele>499</ele>
        <time>2013-04-07T08:30:34.000Z</time>
      </trkpt>
      <trkpt lat="48.64113" lon="7.29731">
        <ele>497</ele>
        <time>2013-04-07T08:30:38.000Z</time>
      </trkpt>
      <trkpt lat="48.64116" lon="7.29749">
        <ele>496</ele>
        <time>2013-04-07T08:30:40.000Z</time>
      </trkpt>
      <trkpt lat="48.6412" lon="7.29766">
        <ele>491</ele>
        <time>2013-04-07T08:30:42.000Z</time>
      </trkpt>
      <trkpt lat="48.64124" lon="7.29788">
        <ele>491</ele>
        <time>2013-04-07T08:30:45.000Z</time>
      </trkpt>
      <trkpt lat="48.64123" lon="7.2981">
        <ele>490</ele>
        <time>2013-04-07T08:30:47.000Z</time>
      </trkpt>
      <trkpt lat="48.64112" lon="7.2981">
        <ele>488</ele>
        <time>2013-04-07T08:30:49.000Z</time>
      </trkpt>
      <trkpt lat="48.64124" lon="7.29844">
        <ele>486</ele>
        <time>2013-04-07T08:30:52.000Z</time>
      </trkpt>
      <trkpt lat="48.64116" lon="7.29868">
        <ele>485</ele>
        <time>2013-04-07T08:30:56.000Z</time>
      </trkpt>
      <trkpt lat="48.64115" lon="7.29889">
        <ele>484</ele>
        <time>2013-04-07T08:30:59.000Z</time>
      </trkpt>
      <trkpt lat="48.64115" lon="7.29903">
        <ele>484</ele>
        <time>2013-04-07T08:31:01.000Z</time>
      </trkpt>
      <trkpt lat="48.64115" lon="7.29917">
        <ele>483</ele>
        <time>2013-04-07T08:31:03.000Z</time>
      </trkpt>
      <trkpt lat="48.6411" lon="7.29934">
        <ele>482</ele>
        <time>2013-04-07T08:31:06.000Z</time>
      </trkpt>
      <trkpt lat="48.64109" lon="7.29961">
        <ele>483</ele>
        <time>2013-04-07T08:31:09.000Z</time>
      </trkpt>
      <trkpt lat="48.64109" lon="7.29975">
        <ele>482</ele>
        <time>2013-04-07T08:31:11.000Z</time>
      </trkpt>
      <trkpt lat="48.64108" lon="7.29988">
        <ele>481</ele>
        <time>2013-04-07T08:31:13.000Z</time>
      </trkpt>
      <trkpt lat="48.64107" lon="7.30003">
        <ele>480</ele>
        <time>2013-04-07T08:31:16.000Z</time>
      </trkpt>
      <trkpt lat="48.64106" lon="7.30012">
        <ele>481</ele>
        <time>2013-04-07T08:31:18.000Z</time>
      </trkpt>
      <trkpt lat="48.64107" lon="7.30026">
        <ele>482</ele>
        <time>2013-04-07T08:31:20.000Z</time>
      </trkpt>
      <trkpt lat="48.64108" lon="7.30041">
        <ele>482</ele>
        <time>2013-04-07T08:31:22.000Z</time>
      </trkpt>
      <trkpt lat="48.64109" lon="7.30055">
        <ele>482</ele>
        <time>2013-04-07T08:31:24.000Z</time>
      </trkpt>
      <trkpt lat="48.64111" lon="7.30068">
        <ele>482</ele>
        <time>2013-04-07T08:31:26.000Z</time>
      </trkpt>
      <trkpt lat="48.64114" lon="7.30089">
        <ele>482</ele>
        <time>2013-04-07T08:31:29.000Z</time>
      </trkpt>
      <trkpt lat="48.64116" lon="7.30098">
        <ele>482</ele>
        <time>2013-04-07T08:31:31.000Z</time>
      </trkpt>
      <trkpt lat="48.64117" lon="7.30109">
        <ele>483</ele>
        <time>2013-04-07T08:31:33.000Z</time>
      </trkpt>
      <trkpt lat="48.64123" lon="7.30127">
        <ele>483</ele>
        <time>2013-04-07T08:31:36.000Z</time>
      </trkpt>
      <trkpt lat="48.64128" lon="7.30143">
        <ele>484</ele>
        <time>2013-04-07T08:31:39.000Z</time>
      </trkpt>
      <trkpt lat="48.64134" lon="7.3015">
        <ele>485</ele>
        <time>2013-04-07T08:31:41.000Z</time>
      </trkpt>
      <trkpt lat="48.64135" lon="7.30162">
        <ele>485</ele>
        <time>2013-04-07T08:31:43.000Z</time>
      </trkpt>
      <trkpt lat="48.64136" lon="7.30175">
        <ele>481</ele>
        <time>2013-04-07T08:31:45.000Z</time>
      </trkpt>
      <trkpt lat="48.64139" lon="7.30179">
        <ele>481</ele>
        <time>2013-04-07T08:31:47.000Z</time>
      </trkpt>
      <trkpt lat="48.64143" lon="7.30192">
        <ele>481</ele>
        <time>2013-04-07T08:31:50.000Z</time>
      </trkpt>
      <trkpt lat="48.64146" lon="7.30203">
        <ele>480</ele>
        <time>2013-04-07T08:31:52.000Z</time>
      </trkpt>
      <trkpt lat="48.64145" lon="7.30211">
        <ele>479</ele>
        <time>2013-04-07T08:31:55.000Z</time>
      </trkpt>
      <trkpt lat="48.64145" lon="7.30229">
        <ele>479</ele>
        <time>2013-04-07T08:31:59.000Z</time>
      </trkpt>
      <trkpt lat="48.64152" lon="7.30245">
        <ele>480</ele>
        <time>2013-04-07T08:32:02.000Z</time>
      </trkpt>
      <trkpt lat="48.64158" lon="7.3027">
        <ele>474</ele>
        <time>2013-04-07T08:32:05.000Z</time>
      </trkpt>
      <trkpt lat="48.64161" lon="7.30279">
        <ele>473</ele>
        <time>2013-04-07T08:32:08.000Z</time>
      </trkpt>
      <trkpt lat="48.64164" lon="7.30293">
        <ele>471</ele>
        <time>2013-04-07T08:32:10.000Z</time>
      </trkpt>
      <trkpt lat="48.64168" lon="7.303">
        <ele>487</ele>
        <time>2013-04-07T08:32:13.000Z</time>
      </trkpt>
      <trkpt lat="48.64174" lon="7.30319">
        <ele>483</ele>
        <time>2013-04-07T08:32:16.000Z</time>
      </trkpt>
      <trkpt lat="48.64177" lon="7.3032">
        <ele>484</ele>
        <time>2013-04-07T08:32:18.000Z</time>
      </trkpt>
      <trkpt lat="48.64179" lon="7.30328">
        <ele>483</ele>
        <time>2013-04-07T08:32:20.000Z</time>
      </trkpt>
      <trkpt lat="48.64176" lon="7.30343">
        <ele>478</ele>
        <time>2013-04-07T08:32:23.000Z</time>
      </trkpt>
      <trkpt lat="48.64188" lon="7.30365">
        <ele>480</ele>
        <time>2013-04-07T08:32:26.000Z</time>
      </trkpt>
      <trkpt lat="48.64191" lon="7.30391">
        <ele>479</ele>
        <time>2013-04-07T08:32:30.000Z</time>
      </trkpt>
      <trkpt lat="48.64195" lon="7.30396">
        <ele>479</ele>
        <time>2013-04-07T08:32:32.000Z</time>
      </trkpt>
      <trkpt lat="48.64198" lon="7.30409">
        <ele>478</ele>
        <time>2013-04-07T08:32:34.000Z</time>
      </trkpt>
      <trkpt lat="48.64207" lon="7.30405">
        <ele>480</ele>
        <time>2013-04-07T08:32:37.000Z</time>
      </trkpt>
      <trkpt lat="48.64212" lon="7.304">
        <ele>480</ele>
        <time>2013-04-07T08:32:40.000Z</time>
      </trkpt>
      <trkpt lat="48.64215" lon="7.30395">
        <ele>481</ele>
        <time>2013-04-07T08:32:43.000Z</time>
      </trkpt>
      <trkpt lat="48.64226" lon="7.30396">
        <ele>482</ele>
        <time>2013-04-07T08:32:46.000Z</time>
      </trkpt>
      <trkpt lat="48.64233" lon="7.3039">
        <ele>483</ele>
        <time>2013-04-07T08:32:49.000Z</time>
      </trkpt>
      <trkpt lat="48.64236" lon="7.30395">
        <ele>483</ele>
        <time>2013-04-07T08:32:51.000Z</time>
      </trkpt>
      <trkpt lat="48.64245" lon="7.30388">
        <ele>484</ele>
        <time>2013-04-07T08:32:55.000Z</time>
      </trkpt>
      <trkpt lat="48.64249" lon="7.30386">
        <ele>484</ele>
        <time>2013-04-07T08:32:57.000Z</time>
      </trkpt>
      <trkpt lat="48.64252" lon="7.30393">
        <ele>490</ele>
        <time>2013-04-07T08:32:59.000Z</time>
      </trkpt>
      <trkpt lat="48.64257" lon="7.3039">
        <ele>491</ele>
        <time>2013-04-07T08:33:02.000Z</time>
      </trkpt>
      <trkpt lat="48.6426" lon="7.30392">
        <ele>491</ele>
        <time>2013-04-07T08:33:04.000Z</time>
      </trkpt>
      <trkpt lat="48.64265" lon="7.30389">
        <ele>492</ele>
        <time>2013-04-07T08:33:06.000Z</time>
      </trkpt>
      <trkpt lat="48.64269" lon="7.30388">
        <ele>492</ele>
        <time>2013-04-07T08:33:08.000Z</time>
      </trkpt>
      <trkpt lat="48.64275" lon="7.30387">
        <ele>493</ele>
        <time>2013-04-07T08:33:12.000Z</time>
      </trkpt>
      <trkpt lat="48.64282" lon="7.30387">
        <ele>493</ele>
        <time>2013-04-07T08:33:16.000Z</time>
      </trkpt>
      <trkpt lat="48.64285" lon="7.30386">
        <ele>493</ele>
        <time>2013-04-07T08:33:18.000Z</time>
      </trkpt>
      <trkpt lat="48.64288" lon="7.30386">
        <ele>493</ele>
        <time>2013-04-07T08:33:20.000Z</time>
      </trkpt>
      <trkpt lat="48.64294" lon="7.30378">
        <ele>495</ele>
        <time>2013-04-07T08:33:24.000Z</time>
      </trkpt>
      <trkpt lat="48.64302" lon="7.30386">
        <ele>494</ele>
        <time>2013-04-07T08:33:26.000Z</time>
      </trkpt>
      <trkpt lat="48.64305" lon="7.30384">
        <ele>494</ele>
        <time>2013-04-07T08:33:29.000Z</time>
      </trkpt>
      <trkpt lat="48.64311" lon="7.30385">
        <ele>494</ele>
        <time>2013-04-07T08:33:32.000Z</time>
      </trkpt>
      <trkpt lat="48.64322" lon="7.30386">
        <ele>494</ele>
        <time>2013-04-07T08:33:38.000Z</time>
      </trkpt>
      <trkpt lat="48.64328" lon="7.30385">
        <ele>494</ele>
        <time>2013-04-07T08:33:41.000Z</time>
      </trkpt>
      <trkpt lat="48.64336" lon="7.30388">
        <ele>496</ele>
        <time>2013-04-07T08:33:44.000Z</time>
      </trkpt>
      <trkpt lat="48.64344" lon="7.30389">
        <ele>496</ele>
        <time>2013-04-07T08:33:47.000Z</time>
      </trkpt>
      <trkpt lat="48.64354" lon="7.30391">
        <ele>497</ele>
        <time>2013-04-07T08:33:50.000Z</time>
      </trkpt>
      <trkpt lat="48.64362" lon="7.30387">
        <ele>498</ele>
        <time>2013-04-07T08:33:53.000Z</time>
      </trkpt>
      <trkpt lat="48.64363" lon="7.30395">
        <ele>497</ele>
        <time>2013-04-07T08:33:55.000Z</time>
      </trkpt>
      <trkpt lat="48.6437" lon="7.30397">
        <ele>497</ele>
        <time>2013-04-07T08:33:58.000Z</time>
      </trkpt>
      <trkpt lat="48.64378" lon="7.30393">
        <ele>498</ele>
        <time>2013-04-07T08:34:01.000Z</time>
      </trkpt>
      <trkpt lat="48.64388" lon="7.3039">
        <ele>498</ele>
        <time>2013-04-07T08:34:04.000Z</time>
      </trkpt>
      <trkpt lat="48.64397" lon="7.3039">
        <ele>498</ele>
        <time>2013-04-07T08:34:07.000Z</time>
      </trkpt>
      <trkpt lat="48.64406" lon="7.30383">
        <ele>499</ele>
        <time>2013-04-07T08:34:10.000Z</time>
      </trkpt>
      <trkpt lat="48.64413" lon="7.30381">
        <ele>499</ele>
        <time>2013-04-07T08:34:13.000Z</time>
      </trkpt>
      <trkpt lat="48.64413" lon="7.30375">
        <ele>501</ele>
        <time>2013-04-07T08:34:16.000Z</time>
      </trkpt>
      <trkpt lat="48.6442" lon="7.30372">
        <ele>501</ele>
        <time>2013-04-07T08:34:19.000Z</time>
      </trkpt>
      <trkpt lat="48.64411" lon="7.30368">
        <ele>502</ele>
        <time>2013-04-07T08:34:23.000Z</time>
      </trkpt>
      <trkpt lat="48.64452" lon="7.30369">
        <ele>501</ele>
        <time>2013-04-07T08:34:29.000Z</time>
      </trkpt>
      <trkpt lat="48.6446" lon="7.30366">
        <ele>501</ele>
        <time>2013-04-07T08:34:31.000Z</time>
      </trkpt>
      <trkpt lat="48.64463" lon="7.30369">
        <ele>501</ele>
        <time>2013-04-07T08:34:33.000Z</time>
      </trkpt>
      <trkpt lat="48.64478" lon="7.30364">
        <ele>501</ele>
        <time>2013-04-07T08:34:37.000Z</time>
      </trkpt>
      <trkpt lat="48.64484" lon="7.3036">
        <ele>502</ele>
        <time>2013-04-07T08:34:39.000Z</time>
      </trkpt>
      <trkpt lat="48.64494" lon="7.30354">
        <ele>503</ele>
        <time>2013-04-07T08:34:42.000Z</time>
      </trkpt>
      <trkpt lat="48.64498" lon="7.30359">
        <ele>502</ele>
        <time>2013-04-07T08:34:44.000Z</time>
      </trkpt>
      <trkpt lat="48.6451" lon="7.30348">
        <ele>502</ele>
        <time>2013-04-07T08:34:48.000Z</time>
      </trkpt>
      <trkpt lat="48.64513" lon="7.30352">
        <ele>501</ele>
        <time>2013-04-07T08:34:50.000Z</time>
      </trkpt>
      <trkpt lat="48.64518" lon="7.30346">
        <ele>501</ele>
        <time>2013-04-07T08:34:53.000Z</time>
      </trkpt>
      <trkpt lat="48.6452" lon="7.30345">
        <ele>501</ele>
        <time>2013-04-07T08:34:55.000Z</time>
      </trkpt>
      <trkpt lat="48.64524" lon="7.30343">
        <ele>500</ele>
        <time>2013-04-07T08:34:58.000Z</time>
      </trkpt>
      <trkpt lat="48.64539" lon="7.30339">
        <ele>499</ele>
        <time>2013-04-07T08:35:01.000Z</time>
      </trkpt>
      <trkpt lat="48.6455" lon="7.30339">
        <ele>499</ele>
        <time>2013-04-07T08:35:04.000Z</time>
      </trkpt>
      <trkpt lat="48.64556" lon="7.30341">
        <ele>499</ele>
        <time>2013-04-07T08:35:06.000Z</time>
      </trkpt>
      <trkpt lat="48.64569" lon="7.30348">
        <ele>500</ele>
        <time>2013-04-07T08:35:09.000Z</time>
      </trkpt>
      <trkpt lat="48.64578" lon="7.30342">
        <ele>502</ele>
        <time>2013-04-07T08:35:11.000Z</time>
      </trkpt>
      <trkpt lat="48.64584" lon="7.30348">
        <ele>496</ele>
        <time>2013-04-07T08:35:13.000Z</time>
      </trkpt>
      <trkpt lat="48.64592" lon="7.30342">
        <ele>498</ele>
        <time>2013-04-07T08:35:16.000Z</time>
      </trkpt>
      <trkpt lat="48.64598" lon="7.30339">
        <ele>496</ele>
        <time>2013-04-07T08:35:18.000Z</time>
      </trkpt>
      <trkpt lat="48.64606" lon="7.30339">
        <ele>493</ele>
        <time>2013-04-07T08:35:20.000Z</time>
      </trkpt>
      <trkpt lat="48.64613" lon="7.30335">
        <ele>492</ele>
        <time>2013-04-07T08:35:23.000Z</time>
      </trkpt>
      <trkpt lat="48.64619" lon="7.30323">
        <ele>508</ele>
        <time>2013-04-07T08:35:26.000Z</time>
      </trkpt>
      <trkpt lat="48.64626" lon="7.3031">
        <ele>509</ele>
        <time>2013-04-07T08:35:29.000Z</time>
      </trkpt>
      <trkpt lat="48.64629" lon="7.30302">
        <ele>510</ele>
        <time>2013-04-07T08:35:32.000Z</time>
      </trkpt>
      <trkpt lat="48.64634" lon="7.30285">
        <ele>512</ele>
        <time>2013-04-07T08:35:35.000Z</time>
      </trkpt>
      <trkpt lat="48.64625" lon="7.30287">
        <ele>513</ele>
        <time>2013-04-07T08:35:37.000Z</time>
      </trkpt>
      <trkpt lat="48.64634" lon="7.30281">
        <ele>513</ele>
        <time>2013-04-07T08:35:39.000Z</time>
      </trkpt>
      <trkpt lat="48.64642" lon="7.30271">
        <ele>514</ele>
        <time>2013-04-07T08:35:41.000Z</time>
      </trkpt>
      <trkpt lat="48.64645" lon="7.30266">
        <ele>514</ele>
        <time>2013-04-07T08:35:43.000Z</time>
      </trkpt>
      <trkpt lat="48.64647" lon="7.30261">
        <ele>515</ele>
        <time>2013-04-07T08:35:45.000Z</time>
      </trkpt>
      <trkpt lat="48.6465" lon="7.30255">
        <ele>515</ele>
        <time>2013-04-07T08:35:47.000Z</time>
      </trkpt>
      <trkpt lat="48.64655" lon="7.30246">
        <ele>525</ele>
        <time>2013-04-07T08:35:50.000Z</time>
      </trkpt>
      <trkpt lat="48.64659" lon="7.30239">
        <ele>525</ele>
        <time>2013-04-07T08:35:53.000Z</time>
      </trkpt>
      <trkpt lat="48.64663" lon="7.30237">
        <ele>525</ele>
        <time>2013-04-07T08:35:57.000Z</time>
      </trkpt>
      <trkpt lat="48.64668" lon="7.30223">
        <ele>520</ele>
        <time>2013-04-07T08:36:00.000Z</time>
      </trkpt>
      <trkpt lat="48.6467" lon="7.30223">
        <ele>520</ele>
        <time>2013-04-07T08:36:03.000Z</time>
      </trkpt>
      <trkpt lat="48.64671" lon="7.30223">
        <ele>520</ele>
        <time>2013-04-07T08:36:06.000Z</time>
      </trkpt>
      <trkpt lat="48.64682" lon="7.3023">
        <ele>519</ele>
        <time>2013-04-07T08:36:10.000Z</time>
      </trkpt>
      <trkpt lat="48.64684" lon="7.30223">
        <ele>520</ele>
        <time>2013-04-07T08:36:12.000Z</time>
      </trkpt>
      <trkpt lat="48.64686" lon="7.30226">
        <ele>519</ele>
        <time>2013-04-07T08:36:15.000Z</time>
      </trkpt>
      <trkpt lat="48.64692" lon="7.3023">
        <ele>519</ele>
        <time>2013-04-07T08:36:19.000Z</time>
      </trkpt>
      <trkpt lat="48.64696" lon="7.30232">
        <ele>518</ele>
        <time>2013-04-07T08:36:21.000Z</time>
      </trkpt>
      <trkpt lat="48.64699" lon="7.30232">
        <ele>518</ele>
        <time>2013-04-07T08:36:23.000Z</time>
      </trkpt>
      <trkpt lat="48.64703" lon="7.30232">
        <ele>517</ele>
        <time>2013-04-07T08:36:25.000Z</time>
      </trkpt>
      <trkpt lat="48.64706" lon="7.30232">
        <ele>517</ele>
        <time>2013-04-07T08:36:27.000Z</time>
      </trkpt>
      <trkpt lat="48.64711" lon="7.30231">
        <ele>516</ele>
        <time>2013-04-07T08:36:29.000Z</time>
      </trkpt>
      <trkpt lat="48.64719" lon="7.30229">
        <ele>515</ele>
        <time>2013-04-07T08:36:32.000Z</time>
      </trkpt>
      <trkpt lat="48.64723" lon="7.30228">
        <ele>515</ele>
        <time>2013-04-07T08:36:34.000Z</time>
      </trkpt>
      <trkpt lat="48.64726" lon="7.30225">
        <ele>515</ele>
        <time>2013-04-07T08:36:36.000Z</time>
      </trkpt>
      <trkpt lat="48.6473" lon="7.30221">
        <ele>515</ele>
        <time>2013-04-07T08:36:38.000Z</time>
      </trkpt>
      <trkpt lat="48.64734" lon="7.30217">
        <ele>516</ele>
        <time>2013-04-07T08:36:40.000Z</time>
      </trkpt>
      <trkpt lat="48.64737" lon="7.30212">
        <ele>516</ele>
        <time>2013-04-07T08:36:42.000Z</time>
      </trkpt>
      <trkpt lat="48.6474" lon="7.30208">
        <ele>517</ele>
        <time>2013-04-07T08:36:44.000Z</time>
      </trkpt>
      <trkpt lat="48.64739" lon="7.30199">
        <ele>519</ele>
        <time>2013-04-07T08:36:47.000Z</time>
      </trkpt>
      <trkpt lat="48.64753" lon="7.30193">
        <ele>511</ele>
        <time>2013-04-07T08:36:50.000Z</time>
      </trkpt>
      <trkpt lat="48.64756" lon="7.30189">
        <ele>512</ele>
        <time>2013-04-07T08:36:52.000Z</time>
      </trkpt>
      <trkpt lat="48.64761" lon="7.3018">
        <ele>515</ele>
        <time>2013-04-07T08:36:54.000Z</time>
      </trkpt>
      <trkpt lat="48.64763" lon="7.30179">
        <ele>515</ele>
        <time>2013-04-07T08:36:56.000Z</time>
      </trkpt>
      <trkpt lat="48.64767" lon="7.30175">
        <ele>514</ele>
        <time>2013-04-07T08:36:59.000Z</time>
      </trkpt>
      <trkpt lat="48.64771" lon="7.30171">
        <ele>514</ele>
        <time>2013-04-07T08:37:01.000Z</time>
      </trkpt>
      <trkpt lat="48.64775" lon="7.30168">
        <ele>513</ele>
        <time>2013-04-07T08:37:03.000Z</time>
      </trkpt>
      <trkpt lat="48.64782" lon="7.30157">
        <ele>529</ele>
        <time>2013-04-07T08:37:06.000Z</time>
      </trkpt>
      <trkpt lat="48.64787" lon="7.30153">
        <ele>529</ele>
        <time>2013-04-07T08:37:08.000Z</time>
      </trkpt>
      <trkpt lat="48.6478" lon="7.30157">
        <ele>529</ele>
        <time>2013-04-07T08:37:10.000Z</time>
      </trkpt>
      <trkpt lat="48.64795" lon="7.30152">
        <ele>528</ele>
        <time>2013-04-07T08:37:13.000Z</time>
      </trkpt>
      <trkpt lat="48.64799" lon="7.30146">
        <ele>528</ele>
        <time>2013-04-07T08:37:16.000Z</time>
      </trkpt>
      <trkpt lat="48.64803" lon="7.30146">
        <ele>527</ele>
        <time>2013-04-07T08:37:18.000Z</time>
      </trkpt>
      <trkpt lat="48.64808" lon="7.30141">
        <ele>527</ele>
        <time>2013-04-07T08:37:21.000Z</time>
      </trkpt>
      <trkpt lat="48.64811" lon="7.30141">
        <ele>527</ele>
        <time>2013-04-07T08:37:23.000Z</time>
      </trkpt>
      <trkpt lat="48.64804" lon="7.30144">
        <ele>527</ele>
        <time>2013-04-07T08:37:25.000Z</time>
      </trkpt>
      <trkpt lat="48.64822" lon="7.30135">
        <ele>527</ele>
        <time>2013-04-07T08:37:28.000Z</time>
      </trkpt>
      <trkpt lat="48.64824" lon="7.30135">
        <ele>527</ele>
        <time>2013-04-07T08:37:30.000Z</time>
      </trkpt>
      <trkpt lat="48.64828" lon="7.30132">
        <ele>527</ele>
        <time>2013-04-07T08:37:32.000Z</time>
      </trkpt>
      <trkpt lat="48.64832" lon="7.3013">
        <ele>527</ele>
        <time>2013-04-07T08:37:34.000Z</time>
      </trkpt>
      <trkpt lat="48.64835" lon="7.30128">
        <ele>514</ele>
        <time>2013-04-07T08:37:36.000Z</time>
      </trkpt>
      <trkpt lat="48.64839" lon="7.30125">
        <ele>515</ele>
        <time>2013-04-07T08:37:39.000Z</time>
      </trkpt>
      <trkpt lat="48.64843" lon="7.30122">
        <ele>515</ele>
        <time>2013-04-07T08:37:41.000Z</time>
      </trkpt>
      <trkpt lat="48.64846" lon="7.30119">
        <ele>515</ele>
        <time>2013-04-07T08:37:43.000Z</time>
      </trkpt>
      <trkpt lat="48.6485" lon="7.30116">
        <ele>515</ele>
        <time>2013-04-07T08:37:45.000Z</time>
      </trkpt>
      <trkpt lat="48.64854" lon="7.30112">
        <ele>516</ele>
        <time>2013-04-07T08:37:47.000Z</time>
      </trkpt>
      <trkpt lat="48.64857" lon="7.30108">
        <ele>516</ele>
        <time>2013-04-07T08:37:49.000Z</time>
      </trkpt>
      <trkpt lat="48.64862" lon="7.30101">
        <ele>516</ele>
        <time>2013-04-07T08:37:52.000Z</time>
      </trkpt>
      <trkpt lat="48.64867" lon="7.30094">
        <ele>516</ele>
        <time>2013-04-07T08:37:55.000Z</time>
      </trkpt>
      <trkpt lat="48.64871" lon="7.30089">
        <ele>515</ele>
        <time>2013-04-07T08:37:57.000Z</time>
      </trkpt>
      <trkpt lat="48.64874" lon="7.30084">
        <ele>515</ele>
        <time>2013-04-07T08:37:59.000Z</time>
      </trkpt>
      <trkpt lat="48.64878" lon="7.30079">
        <ele>527</ele>
        <time>2013-04-07T08:38:01.000Z</time>
      </trkpt>
      <trkpt lat="48.64881" lon="7.30074">
        <ele>527</ele>
        <time>2013-04-07T08:38:03.000Z</time>
      </trkpt>
      <trkpt lat="48.64886" lon="7.30065">
        <ele>527</ele>
        <time>2013-04-07T08:38:05.000Z</time>
      </trkpt>
      <trkpt lat="48.6489" lon="7.30058">
        <ele>527</ele>
        <time>2013-04-07T08:38:08.000Z</time>
      </trkpt>
      <trkpt lat="48.64893" lon="7.30051">
        <ele>527</ele>
        <time>2013-04-07T08:38:10.000Z</time>
      </trkpt>
      <trkpt lat="48.64896" lon="7.30045">
        <ele>528</ele>
        <time>2013-04-07T08:38:12.000Z</time>
      </trkpt>
      <trkpt lat="48.64899" lon="7.30045">
        <ele>527</ele>
        <time>2013-04-07T08:38:14.000Z</time>
      </trkpt>
      <trkpt lat="48.64902" lon="7.30038">
        <ele>528</ele>
        <time>2013-04-07T08:38:17.000Z</time>
      </trkpt>
      <trkpt lat="48.64909" lon="7.30029">
        <ele>528</ele>
        <time>2013-04-07T08:38:19.000Z</time>
      </trkpt>
      <trkpt lat="48.64902" lon="7.30025">
        <ele>529</ele>
        <time>2013-04-07T08:38:22.000Z</time>
      </trkpt>
      <trkpt lat="48.64912" lon="7.3002">
        <ele>527</ele>
        <time>2013-04-07T08:38:24.000Z</time>
      </trkpt>
      <trkpt lat="48.64917" lon="7.30005">
        <ele>521</ele>
        <time>2013-04-07T08:38:27.000Z</time>
      </trkpt>
      <trkpt lat="48.64921" lon="7.29998">
        <ele>524</ele>
        <time>2013-04-07T08:38:30.000Z</time>
      </trkpt>
      <trkpt lat="48.64922" lon="7.29995">
        <ele>524</ele>
        <time>2013-04-07T08:38:32.000Z</time>
      </trkpt>
      <trkpt lat="48.64923" lon="7.29989">
        <ele>524</ele>
        <time>2013-04-07T08:38:34.000Z</time>
      </trkpt>
      <trkpt lat="48.64925" lon="7.29982">
        <ele>524</ele>
        <time>2013-04-07T08:38:36.000Z</time>
      </trkpt>
      <trkpt lat="48.64927" lon="7.29977">
        <ele>524</ele>
        <time>2013-04-07T08:38:38.000Z</time>
      </trkpt>
      <trkpt lat="48.64928" lon="7.2997">
        <ele>524</ele>
        <time>2013-04-07T08:38:40.000Z</time>
      </trkpt>
      <trkpt lat="48.6493" lon="7.29963">
        <ele>525</ele>
        <time>2013-04-07T08:38:42.000Z</time>
      </trkpt>
      <trkpt lat="48.6493" lon="7.29955">
        <ele>525</ele>
        <time>2013-04-07T08:38:44.000Z</time>
      </trkpt>
      <trkpt lat="48.64932" lon="7.29937">
        <ele>528</ele>
        <time>2013-04-07T08:38:47.000Z</time>
      </trkpt>
      <trkpt lat="48.64932" lon="7.29936">
        <ele>528</ele>
        <time>2013-04-07T08:38:49.000Z</time>
      </trkpt>
      <trkpt lat="48.64933" lon="7.2993">
        <ele>528</ele>
        <time>2013-04-07T08:38:51.000Z</time>
      </trkpt>
      <trkpt lat="48.64936" lon="7.29914">
        <ele>536</ele>
        <time>2013-04-07T08:38:54.000Z</time>
      </trkpt>
      <trkpt lat="48.64939" lon="7.29907">
        <ele>536</ele>
        <time>2013-04-07T08:38:57.000Z</time>
      </trkpt>
      <trkpt lat="48.64941" lon="7.29903">
        <ele>536</ele>
        <time>2013-04-07T08:38:59.000Z</time>
      </trkpt>
      <trkpt lat="48.64944" lon="7.29892">
        <ele>537</ele>
        <time>2013-04-07T08:39:02.000Z</time>
      </trkpt>
      <trkpt lat="48.64948" lon="7.29885">
        <ele>537</ele>
        <time>2013-04-07T08:39:04.000Z</time>
      </trkpt>
      <trkpt lat="48.6495" lon="7.29883">
        <ele>537</ele>
        <time>2013-04-07T08:39:06.000Z</time>
      </trkpt>
      <trkpt lat="48.64957" lon="7.29876">
        <ele>537</ele>
        <time>2013-04-07T08:39:09.000Z</time>
      </trkpt>
      <trkpt lat="48.6496" lon="7.29878">
        <ele>537</ele>
        <time>2013-04-07T08:39:11.000Z</time>
      </trkpt>
      <trkpt lat="48.64968" lon="7.29889">
        <ele>535</ele>
        <time>2013-04-07T08:39:14.000Z</time>
      </trkpt>
      <trkpt lat="48.64972" lon="7.29879">
        <ele>536</ele>
        <time>2013-04-07T08:39:16.000Z</time>
      </trkpt>
      <trkpt lat="48.64978" lon="7.29881">
        <ele>535</ele>
        <time>2013-04-07T08:39:19.000Z</time>
      </trkpt>
      <trkpt lat="48.64985" lon="7.29886">
        <ele>534</ele>
        <time>2013-04-07T08:39:22.000Z</time>
      </trkpt>
      <trkpt lat="48.64991" lon="7.29888">
        <ele>534</ele>
        <time>2013-04-07T08:39:24.000Z</time>
      </trkpt>
      <trkpt lat="48.64997" lon="7.29899">
        <ele>531</ele>
        <time>2013-04-07T08:39:27.000Z</time>
      </trkpt>
      <trkpt lat="48.65002" lon="7.299">
        <ele>535</ele>
        <time>2013-04-07T08:39:29.000Z</time>
      </trkpt>
      <trkpt lat="48.65006" lon="7.2991">
        <ele>531</ele>
        <time>2013-04-07T08:39:32.000Z</time>
      </trkpt>
      <trkpt lat="48.65011" lon="7.29919">
        <ele>528</ele>
        <time>2013-04-07T08:39:35.000Z</time>
      </trkpt>
      <trkpt lat="48.65014" lon="7.29928">
        <ele>530</ele>
        <time>2013-04-07T08:39:37.000Z</time>
      </trkpt>
      <trkpt lat="48.65015" lon="7.29931">
        <ele>530</ele>
        <time>2013-04-07T08:39:39.000Z</time>
      </trkpt>
      <trkpt lat="48.65018" lon="7.29936">
        <ele>531</ele>
        <time>2013-04-07T08:39:42.000Z</time>
      </trkpt>
      <trkpt lat="48.65023" lon="7.29942">
        <ele>532</ele>
        <time>2013-04-07T08:39:45.000Z</time>
      </trkpt>
      <trkpt lat="48.65023" lon="7.29948">
        <ele>532</ele>
        <time>2013-04-07T08:39:48.000Z</time>
      </trkpt>
      <trkpt lat="48.65033" lon="7.29963">
        <ele>532</ele>
        <time>2013-04-07T08:39:51.000Z</time>
      </trkpt>
      <trkpt lat="48.65036" lon="7.29971">
        <ele>533</ele>
        <time>2013-04-07T08:39:54.000Z</time>
      </trkpt>
      <trkpt lat="48.65039" lon="7.29972">
        <ele>533</ele>
        <time>2013-04-07T08:39:56.000Z</time>
      </trkpt>
      <trkpt lat="48.65033" lon="7.29977">
        <ele>531</ele>
        <time>2013-04-07T08:39:58.000Z</time>
      </trkpt>
      <trkpt lat="48.65044" lon="7.29983">
        <ele>534</ele>
        <time>2013-04-07T08:40:01.000Z</time>
      </trkpt>
      <trkpt lat="48.65045" lon="7.29995">
        <ele>533</ele>
        <time>2013-04-07T08:40:03.000Z</time>
      </trkpt>
      <trkpt lat="48.65048" lon="7.30008">
        <ele>526</ele>
        <time>2013-04-07T08:40:06.000Z</time>
      </trkpt>
      <trkpt lat="48.65052" lon="7.30016">
        <ele>526</ele>
        <time>2013-04-07T08:40:09.000Z</time>
      </trkpt>
      <trkpt lat="48.65054" lon="7.30025">
        <ele>526</ele>
        <time>2013-04-07T08:40:12.000Z</time>
      </trkpt>
      <trkpt lat="48.65055" lon="7.30032">
        <ele>526</ele>
        <time>2013-04-07T08:40:14.000Z</time>
      </trkpt>
      <trkpt lat="48.65057" lon="7.30038">
        <ele>525</ele>
        <time>2013-04-07T08:40:16.000Z</time>
      </trkpt>
      <trkpt lat="48.65057" lon="7.30044">
        <ele>525</ele>
        <time>2013-04-07T08:40:18.000Z</time>
      </trkpt>
      <trkpt lat="48.65058" lon="7.30058">
        <ele>524</ele>
        <time>2013-04-07T08:40:21.000Z</time>
      </trkpt>
      <trkpt lat="48.6506" lon="7.30065">
        <ele>525</ele>
        <time>2013-04-07T08:40:23.000Z</time>
      </trkpt>
      <trkpt lat="48.65062" lon="7.30065">
        <ele>525</ele>
        <time>2013-04-07T08:40:25.000Z</time>
      </trkpt>
      <trkpt lat="48.65068" lon="7.30072">
        <ele>528</ele>
        <time>2013-04-07T08:40:29.000Z</time>
      </trkpt>
      <trkpt lat="48.65071" lon="7.30087">
        <ele>524</ele>
        <time>2013-04-07T08:40:32.000Z</time>
      </trkpt>
      <trkpt lat="48.65074" lon="7.30091">
        <ele>525</ele>
        <time>2013-04-07T08:40:35.000Z</time>
      </trkpt>
      <trkpt lat="48.6507" lon="7.30097">
        <ele>521</ele>
        <time>2013-04-07T08:40:37.000Z</time>
      </trkpt>
      <trkpt lat="48.65076" lon="7.30107">
        <ele>519</ele>
        <time>2013-04-07T08:40:39.000Z</time>
      </trkpt>
      <trkpt lat="48.65075" lon="7.3011">
        <ele>518</ele>
        <time>2013-04-07T08:40:42.000Z</time>
      </trkpt>
      <trkpt lat="48.65082" lon="7.30124">
        <ele>516</ele>
        <time>2013-04-07T08:40:45.000Z</time>
      </trkpt>
      <trkpt lat="48.65087" lon="7.30134">
        <ele>540</ele>
        <time>2013-04-07T08:40:49.000Z</time>
      </trkpt>
      <trkpt lat="48.65089" lon="7.30146">
        <ele>537</ele>
        <time>2013-04-07T08:40:52.000Z</time>
      </trkpt>
      <trkpt lat="48.65079" lon="7.30141">
        <ele>516</ele>
        <time>2013-04-07T08:40:55.000Z</time>
      </trkpt>
      <trkpt lat="48.65098" lon="7.30151">
        <ele>538</ele>
        <time>2013-04-07T08:40:58.000Z</time>
      </trkpt>
      <trkpt lat="48.65101" lon="7.30162">
        <ele>537</ele>
        <time>2013-04-07T08:41:01.000Z</time>
      </trkpt>
      <trkpt lat="48.65103" lon="7.30168">
        <ele>530</ele>
        <time>2013-04-07T08:41:04.000Z</time>
      </trkpt>
      <trkpt lat="48.65104" lon="7.30172">
        <ele>530</ele>
        <time>2013-04-07T08:41:06.000Z</time>
      </trkpt>
      <trkpt lat="48.65111" lon="7.30182">
        <ele>532</ele>
        <time>2013-04-07T08:41:11.000Z</time>
      </trkpt>
      <trkpt lat="48.65116" lon="7.30186">
        <ele>533</ele>
        <time>2013-04-07T08:41:14.000Z</time>
      </trkpt>
      <trkpt lat="48.65118" lon="7.30194">
        <ele>533</ele>
        <time>2013-04-07T08:41:16.000Z</time>
      </trkpt>
      <trkpt lat="48.65123" lon="7.30204">
        <ele>533</ele>
        <time>2013-04-07T08:41:18.000Z</time>
      </trkpt>
      <trkpt lat="48.65131" lon="7.30208">
        <ele>534</ele>
        <time>2013-04-07T08:41:22.000Z</time>
      </trkpt>
      <trkpt lat="48.65134" lon="7.3022">
        <ele>534</ele>
        <time>2013-04-07T08:41:24.000Z</time>
      </trkpt>
      <trkpt lat="48.65139" lon="7.30224">
        <ele>534</ele>
        <time>2013-04-07T08:41:27.000Z</time>
      </trkpt>
      <trkpt lat="48.65144" lon="7.30234">
        <ele>534</ele>
        <time>2013-04-07T08:41:29.000Z</time>
      </trkpt>
      <trkpt lat="48.65145" lon="7.30234">
        <ele>534</ele>
        <time>2013-04-07T08:41:32.000Z</time>
      </trkpt>
      <trkpt lat="48.65162" lon="7.30239">
        <ele>535</ele>
        <time>2013-04-07T08:41:36.000Z</time>
      </trkpt>
      <trkpt lat="48.65162" lon="7.30241">
        <ele>535</ele>
        <time>2013-04-07T08:41:39.000Z</time>
      </trkpt>
      <trkpt lat="48.65178" lon="7.30237">
        <ele>543</ele>
        <time>2013-04-07T08:41:43.000Z</time>
      </trkpt>
      <trkpt lat="48.65187" lon="7.30236">
        <ele>545</ele>
        <time>2013-04-07T08:41:46.000Z</time>
      </trkpt>
      <trkpt lat="48.65193" lon="7.30229">
        <ele>547</ele>
        <time>2013-04-07T08:41:48.000Z</time>
      </trkpt>
      <trkpt lat="48.65197" lon="7.30232">
        <ele>547</ele>
        <time>2013-04-07T08:41:51.000Z</time>
      </trkpt>
      <trkpt lat="48.65206" lon="7.30227">
        <ele>548</ele>
        <time>2013-04-07T08:41:54.000Z</time>
      </trkpt>
      <trkpt lat="48.65213" lon="7.30225">
        <ele>549</ele>
        <time>2013-04-07T08:41:57.000Z</time>
      </trkpt>
      <trkpt lat="48.65218" lon="7.30227">
        <ele>548</ele>
        <time>2013-04-07T08:41:59.000Z</time>
      </trkpt>
      <trkpt lat="48.65226" lon="7.30217">
        <ele>550</ele>
        <time>2013-04-07T08:42:02.000Z</time>
      </trkpt>
      <trkpt lat="48.65231" lon="7.30222">
        <ele>549</ele>
        <time>2013-04-07T08:42:05.000Z</time>
      </trkpt>
      <trkpt lat="48.65241" lon="7.30211">
        <ele>552</ele>
        <time>2013-04-07T08:42:09.000Z</time>
      </trkpt>
      <trkpt lat="48.65247" lon="7.30216">
        <ele>550</ele>
        <time>2013-04-07T08:42:12.000Z</time>
      </trkpt>
      <trkpt lat="48.65257" lon="7.30207">
        <ele>555</ele>
        <time>2013-04-07T08:42:16.000Z</time>
      </trkpt>
      <trkpt lat="48.6526" lon="7.30211">
        <ele>554</ele>
        <time>2013-04-07T08:42:18.000Z</time>
      </trkpt>
      <trkpt lat="48.65265" lon="7.30206">
        <ele>555</ele>
        <time>2013-04-07T08:42:21.000Z</time>
      </trkpt>
      <trkpt lat="48.65271" lon="7.302">
        <ele>557</ele>
        <time>2013-04-07T08:42:23.000Z</time>
      </trkpt>
      <trkpt lat="48.65274" lon="7.30205">
        <ele>555</ele>
        <time>2013-04-07T08:42:25.000Z</time>
      </trkpt>
      <trkpt lat="48.6528" lon="7.30195">
        <ele>557</ele>
        <time>2013-04-07T08:42:28.000Z</time>
      </trkpt>
      <trkpt lat="48.6528" lon="7.30199">
        <ele>557</ele>
        <time>2013-04-07T08:42:30.000Z</time>
      </trkpt>
      <trkpt lat="48.65287" lon="7.30191">
        <ele>558</ele>
        <time>2013-04-07T08:42:34.000Z</time>
      </trkpt>
      <trkpt lat="48.65292" lon="7.30193">
        <ele>558</ele>
        <time>2013-04-07T08:42:36.000Z</time>
      </trkpt>
      <trkpt lat="48.65298" lon="7.30188">
        <ele>558</ele>
        <time>2013-04-07T08:42:39.000Z</time>
      </trkpt>
      <trkpt lat="48.65304" lon="7.3019">
        <ele>558</ele>
        <time>2013-04-07T08:42:42.000Z</time>
      </trkpt>
      <trkpt lat="48.65311" lon="7.30198">
        <ele>557</ele>
        <time>2013-04-07T08:42:45.000Z</time>
      </trkpt>
      <trkpt lat="48.65318" lon="7.30195">
        <ele>558</ele>
        <time>2013-04-07T08:42:47.000Z</time>
      </trkpt>
      <trkpt lat="48.65325" lon="7.30201">
        <ele>557</ele>
        <time>2013-04-07T08:42:50.000Z</time>
      </trkpt>
      <trkpt lat="48.6533" lon="7.30204">
        <ele>556</ele>
        <time>2013-04-07T08:42:52.000Z</time>
      </trkpt>
      <trkpt lat="48.65336" lon="7.30212">
        <ele>563</ele>
        <time>2013-04-07T08:42:55.000Z</time>
      </trkpt>
      <trkpt lat="48.65339" lon="7.30226">
        <ele>558</ele>
        <time>2013-04-07T08:42:57.000Z</time>
      </trkpt>
      <trkpt lat="48.65346" lon="7.30228">
        <ele>559</ele>
        <time>2013-04-07T08:43:00.000Z</time>
      </trkpt>
      <trkpt lat="48.65347" lon="7.30242">
        <ele>554</ele>
        <time>2013-04-07T08:43:02.000Z</time>
      </trkpt>
      <trkpt lat="48.65354" lon="7.3025">
        <ele>545</ele>
        <time>2013-04-07T08:43:06.000Z</time>
      </trkpt>
      <trkpt lat="48.65361" lon="7.30252">
        <ele>546</ele>
        <time>2013-04-07T08:43:08.000Z</time>
      </trkpt>
      <trkpt lat="48.65367" lon="7.3027">
        <ele>547</ele>
        <time>2013-04-07T08:43:11.000Z</time>
      </trkpt>
      <trkpt lat="48.65375" lon="7.30277">
        <ele>548</ele>
        <time>2013-04-07T08:43:14.000Z</time>
      </trkpt>
      <trkpt lat="48.65381" lon="7.3029">
        <ele>548</ele>
        <time>2013-04-07T08:43:17.000Z</time>
      </trkpt>
      <trkpt lat="48.65387" lon="7.30298">
        <ele>548</ele>
        <time>2013-04-07T08:43:21.000Z</time>
      </trkpt>
      <trkpt lat="48.6539" lon="7.30319">
        <ele>547</ele>
        <time>2013-04-07T08:43:24.000Z</time>
      </trkpt>
      <trkpt lat="48.65369" lon="7.30328">
        <ele>541</ele>
        <time>2013-04-07T08:43:27.000Z</time>
      </trkpt>
      <trkpt lat="48.65399" lon="7.30333">
        <ele>549</ele>
        <time>2013-04-07T08:43:30.000Z</time>
      </trkpt>
      <trkpt lat="48.65401" lon="7.30351">
        <ele>539</ele>
        <time>2013-04-07T08:43:32.000Z</time>
      </trkpt>
      <trkpt lat="48.65408" lon="7.30359">
        <ele>539</ele>
        <time>2013-04-07T08:43:35.000Z</time>
      </trkpt>
      <trkpt lat="48.65417" lon="7.30382">
        <ele>556</ele>
        <time>2013-04-07T08:43:39.000Z</time>
      </trkpt>
      <trkpt lat="48.65422" lon="7.30379">
        <ele>557</ele>
        <time>2013-04-07T08:43:41.000Z</time>
      </trkpt>
      <trkpt lat="48.65424" lon="7.30394">
        <ele>554</ele>
        <time>2013-04-07T08:43:43.000Z</time>
      </trkpt>
      <trkpt lat="48.65429" lon="7.30404">
        <ele>552</ele>
        <time>2013-04-07T08:43:46.000Z</time>
      </trkpt>
      <trkpt lat="48.65435" lon="7.30403">
        <ele>554</ele>
        <time>2013-04-07T08:43:48.000Z</time>
      </trkpt>
      <trkpt lat="48.65438" lon="7.30425">
        <ele>547</ele>
        <time>2013-04-07T08:43:51.000Z</time>
      </trkpt>
      <trkpt lat="48.65445" lon="7.30442">
        <ele>548</ele>
        <time>2013-04-07T08:43:55.000Z</time>
      </trkpt>
      <trkpt lat="48.65449" lon="7.30462">
        <ele>547</ele>
        <time>2013-04-07T08:43:58.000Z</time>
      </trkpt>
      <trkpt lat="48.65454" lon="7.30471">
        <ele>547</ele>
        <time>2013-04-07T08:44:01.000Z</time>
      </trkpt>
      <trkpt lat="48.65457" lon="7.30487">
        <ele>546</ele>
        <time>2013-04-07T08:44:03.000Z</time>
      </trkpt>
      <trkpt lat="48.65467" lon="7.30495">
        <ele>548</ele>
        <time>2013-04-07T08:44:07.000Z</time>
      </trkpt>
      <trkpt lat="48.65471" lon="7.30516">
        <ele>539</ele>
        <time>2013-04-07T08:44:10.000Z</time>
      </trkpt>
      <trkpt lat="48.65477" lon="7.30522">
        <ele>540</ele>
        <time>2013-04-07T08:44:13.000Z</time>
      </trkpt>
      <trkpt lat="48.65483" lon="7.30529">
        <ele>540</ele>
        <time>2013-04-07T08:44:15.000Z</time>
      </trkpt>
      <trkpt lat="48.65486" lon="7.30542">
        <ele>538</ele>
        <time>2013-04-07T08:44:17.000Z</time>
      </trkpt>
      <trkpt lat="48.65494" lon="7.30546">
        <ele>538</ele>
        <time>2013-04-07T08:44:20.000Z</time>
      </trkpt>
      <trkpt lat="48.655" lon="7.30562">
        <ele>545</ele>
        <time>2013-04-07T08:44:23.000Z</time>
      </trkpt>
      <trkpt lat="48.65504" lon="7.30563">
        <ele>545</ele>
        <time>2013-04-07T08:44:25.000Z</time>
      </trkpt>
      <trkpt lat="48.65515" lon="7.30568">
        <ele>545</ele>
        <time>2013-04-07T08:44:28.000Z</time>
      </trkpt>
      <trkpt lat="48.6552" lon="7.30579">
        <ele>544</ele>
        <time>2013-04-07T08:44:30.000Z</time>
      </trkpt>
      <trkpt lat="48.65504" lon="7.30573">
        <ele>542</ele>
        <time>2013-04-07T08:44:33.000Z</time>
      </trkpt>
      <trkpt lat="48.65513" lon="7.30575">
        <ele>543</ele>
        <time>2013-04-07T08:44:36.000Z</time>
      </trkpt>
      <trkpt lat="48.65519" lon="7.30573">
        <ele>544</ele>
        <time>2013-04-07T08:44:40.000Z</time>
      </trkpt>
      <trkpt lat="48.65559" lon="7.30575">
        <ele>547</ele>
        <time>2013-04-07T08:44:47.000Z</time>
      </trkpt>
      <trkpt lat="48.65562" lon="7.30574">
        <ele>547</ele>
        <time>2013-04-07T08:44:49.000Z</time>
      </trkpt>
      <trkpt lat="48.65566" lon="7.30569">
        <ele>547</ele>
        <time>2013-04-07T08:44:52.000Z</time>
      </trkpt>
      <trkpt lat="48.65568" lon="7.30567">
        <ele>548</ele>
        <time>2013-04-07T08:44:54.000Z</time>
      </trkpt>
      <trkpt lat="48.6557" lon="7.30564">
        <ele>548</ele>
        <time>2013-04-07T08:44:56.000Z</time>
      </trkpt>
      <trkpt lat="48.65574" lon="7.30561">
        <ele>548</ele>
        <time>2013-04-07T08:45:07.000Z</time>
      </trkpt>
      <trkpt lat="48.65575" lon="7.30559">
        <ele>549</ele>
        <time>2013-04-07T08:45:12.000Z</time>
      </trkpt>
      <trkpt lat="48.6558" lon="7.30559">
        <ele>549</ele>
        <time>2013-04-07T08:45:15.000Z</time>
      </trkpt>
      <trkpt lat="48.65582" lon="7.30557">
        <ele>549</ele>
        <time>2013-04-07T08:45:18.000Z</time>
      </trkpt>
      <trkpt lat="48.65583" lon="7.30556">
        <ele>549</ele>
        <time>2013-04-07T08:45:22.000Z</time>
      </trkpt>
      <trkpt lat="48.65584" lon="7.30554">
        <ele>548</ele>
        <time>2013-04-07T08:45:27.000Z</time>
      </trkpt>
      <trkpt lat="48.65588" lon="7.30551">
        <ele>549</ele>
        <time>2013-04-07T08:45:35.000Z</time>
      </trkpt>
      <trkpt lat="48.65587" lon="7.30547">
        <ele>550</ele>
        <time>2013-04-07T08:45:39.000Z</time>
      </trkpt>
      <trkpt lat="48.65591" lon="7.30538">
        <ele>551</ele>
        <time>2013-04-07T08:45:43.000Z</time>
      </trkpt>
      <trkpt lat="48.65577" lon="7.30539">
        <ele>553</ele>
        <time>2013-04-07T08:45:49.000Z</time>
      </trkpt>
      <trkpt lat="48.65596" lon="7.30533">
        <ele>552</ele>
        <time>2013-04-07T08:45:54.000Z</time>
      </trkpt>
      <trkpt lat="48.65598" lon="7.3053">
        <ele>553</ele>
        <time>2013-04-07T08:45:56.000Z</time>
      </trkpt>
      <trkpt lat="48.65601" lon="7.30525">
        <ele>554</ele>
        <time>2013-04-07T08:46:00.000Z</time>
      </trkpt>
      <trkpt lat="48.65603" lon="7.30522">
        <ele>554</ele>
        <time>2013-04-07T08:46:02.000Z</time>
      </trkpt>
      <trkpt lat="48.65605" lon="7.30516">
        <ele>555</ele>
        <time>2013-04-07T08:46:06.000Z</time>
      </trkpt>
      <trkpt lat="48.65607" lon="7.30513">
        <ele>555</ele>
        <time>2013-04-07T08:46:08.000Z</time>
      </trkpt>
      <trkpt lat="48.65608" lon="7.30515">
        <ele>555</ele>
        <time>2013-04-07T08:46:10.000Z</time>
      </trkpt>
      <trkpt lat="48.65612" lon="7.30506">
        <ele>555</ele>
        <time>2013-04-07T08:46:14.000Z</time>
      </trkpt>
      <trkpt lat="48.65614" lon="7.30505">
        <ele>555</ele>
        <time>2013-04-07T08:46:17.000Z</time>
      </trkpt>
      <trkpt lat="48.65615" lon="7.305">
        <ele>555</ele>
        <time>2013-04-07T08:46:20.000Z</time>
      </trkpt>
      <trkpt lat="48.65618" lon="7.30502">
        <ele>555</ele>
        <time>2013-04-07T08:46:23.000Z</time>
      </trkpt>
      <trkpt lat="48.65619" lon="7.30496">
        <ele>573</ele>
        <time>2013-04-07T08:46:26.000Z</time>
      </trkpt>
      <trkpt lat="48.65621" lon="7.30499">
        <ele>572</ele>
        <time>2013-04-07T08:46:29.000Z</time>
      </trkpt>
      <trkpt lat="48.65622" lon="7.30493">
        <ele>573</ele>
        <time>2013-04-07T08:46:32.000Z</time>
      </trkpt>
      <trkpt lat="48.65626" lon="7.3049">
        <ele>573</ele>
        <time>2013-04-07T08:46:35.000Z</time>
      </trkpt>
      <trkpt lat="48.65627" lon="7.3049">
        <ele>573</ele>
        <time>2013-04-07T08:46:38.000Z</time>
      </trkpt>
      <trkpt lat="48.65628" lon="7.30489">
        <ele>573</ele>
        <time>2013-04-07T08:46:42.000Z</time>
      </trkpt>
      <trkpt lat="48.65629" lon="7.30488">
        <ele>573</ele>
        <time>2013-04-07T08:46:46.000Z</time>
      </trkpt>
      <trkpt lat="48.65631" lon="7.30485">
        <ele>573</ele>
        <time>2013-04-07T08:46:53.000Z</time>
      </trkpt>
      <trkpt lat="48.65633" lon="7.3048">
        <ele>574</ele>
        <time>2013-04-07T08:46:57.000Z</time>
      </trkpt>
      <trkpt lat="48.65636" lon="7.30484">
        <ele>573</ele>
        <time>2013-04-07T08:47:00.000Z</time>
      </trkpt>
      <trkpt lat="48.65638" lon="7.30479">
        <ele>574</ele>
        <time>2013-04-07T08:47:05.000Z</time>
      </trkpt>
      <trkpt lat="48.65629" lon="7.30477">
        <ele>574</ele>
        <time>2013-04-07T08:47:08.000Z</time>
      </trkpt>
      <trkpt lat="48.65639" lon="7.30471">
        <ele>575</ele>
        <time>2013-04-07T08:47:12.000Z</time>
      </trkpt>
      <trkpt lat="48.65645" lon="7.30477">
        <ele>573</ele>
        <time>2013-04-07T08:47:14.000Z</time>
      </trkpt>
      <trkpt lat="48.65648" lon="7.30468">
        <ele>575</ele>
        <time>2013-04-07T08:47:16.000Z</time>
      </trkpt>
      <trkpt lat="48.65651" lon="7.30467">
        <ele>575</ele>
        <time>2013-04-07T08:47:20.000Z</time>
      </trkpt>
      <trkpt lat="48.65652" lon="7.30464">
        <ele>576</ele>
        <time>2013-04-07T08:47:22.000Z</time>
      </trkpt>
      <trkpt lat="48.65659" lon="7.30458">
        <ele>577</ele>
        <time>2013-04-07T08:47:27.000Z</time>
      </trkpt>
      <trkpt lat="48.65659" lon="7.30461">
        <ele>577</ele>
        <time>2013-04-07T08:47:29.000Z</time>
      </trkpt>
      <trkpt lat="48.65664" lon="7.30458">
        <ele>577</ele>
        <time>2013-04-07T08:47:34.000Z</time>
      </trkpt>
      <trkpt lat="48.65665" lon="7.30456">
        <ele>578</ele>
        <time>2013-04-07T08:47:37.000Z</time>
      </trkpt>
      <trkpt lat="48.65669" lon="7.30455">
        <ele>576</ele>
        <time>2013-04-07T08:47:41.000Z</time>
      </trkpt>
      <trkpt lat="48.65672" lon="7.30451">
        <ele>578</ele>
        <time>2013-04-07T08:47:43.000Z</time>
      </trkpt>
      <trkpt lat="48.65677" lon="7.30443">
        <ele>580</ele>
        <time>2013-04-07T08:47:48.000Z</time>
      </trkpt>
      <trkpt lat="48.65677" lon="7.30447">
        <ele>579</ele>
        <time>2013-04-07T08:47:51.000Z</time>
      </trkpt>
      <trkpt lat="48.65681" lon="7.30447">
        <ele>578</ele>
        <time>2013-04-07T08:47:54.000Z</time>
      </trkpt>
      <trkpt lat="48.65683" lon="7.30444">
        <ele>579</ele>
        <time>2013-04-07T08:47:57.000Z</time>
      </trkpt>
      <trkpt lat="48.65684" lon="7.30443">
        <ele>579</ele>
        <time>2013-04-07T08:48:00.000Z</time>
      </trkpt>
      <trkpt lat="48.65691" lon="7.30437">
        <ele>580</ele>
        <time>2013-04-07T08:48:05.000Z</time>
      </trkpt>
      <trkpt lat="48.65692" lon="7.30439">
        <ele>579</ele>
        <time>2013-04-07T08:48:07.000Z</time>
      </trkpt>
      <trkpt lat="48.65694" lon="7.30439">
        <ele>579</ele>
        <time>2013-04-07T08:48:10.000Z</time>
      </trkpt>
      <trkpt lat="48.65695" lon="7.30439">
        <ele>579</ele>
        <time>2013-04-07T08:48:13.000Z</time>
      </trkpt>
      <trkpt lat="48.65657" lon="7.30441">
        <ele>582</ele>
        <time>2013-04-07T08:48:19.000Z</time>
      </trkpt>
      <trkpt lat="48.65699" lon="7.30435">
        <ele>579</ele>
        <time>2013-04-07T08:48:23.000Z</time>
      </trkpt>
      <trkpt lat="48.65683" lon="7.30439">
        <ele>581</ele>
        <time>2013-04-07T08:48:26.000Z</time>
      </trkpt>
      <trkpt lat="48.65704" lon="7.30439">
        <ele>578</ele>
        <time>2013-04-07T08:48:29.000Z</time>
      </trkpt>
      <trkpt lat="48.65705" lon="7.30434">
        <ele>579</ele>
        <time>2013-04-07T08:48:32.000Z</time>
      </trkpt>
      <trkpt lat="48.65708" lon="7.3044">
        <ele>578</ele>
        <time>2013-04-07T08:48:35.000Z</time>
      </trkpt>
      <trkpt lat="48.6571" lon="7.30433">
        <ele>579</ele>
        <time>2013-04-07T08:48:41.000Z</time>
      </trkpt>
      <trkpt lat="48.65714" lon="7.30431">
        <ele>579</ele>
        <time>2013-04-07T08:48:46.000Z</time>
      </trkpt>
      <trkpt lat="48.65713" lon="7.30436">
        <ele>578</ele>
        <time>2013-04-07T08:48:48.000Z</time>
      </trkpt>
      <trkpt lat="48.65718" lon="7.30428">
        <ele>580</ele>
        <time>2013-04-07T08:48:51.000Z</time>
      </trkpt>
      <trkpt lat="48.6572" lon="7.30432">
        <ele>579</ele>
        <time>2013-04-07T08:48:54.000Z</time>
      </trkpt>
      <trkpt lat="48.65724" lon="7.30429">
        <ele>580</ele>
        <time>2013-04-07T08:48:58.000Z</time>
      </trkpt>
      <trkpt lat="48.65708" lon="7.30432">
        <ele>579</ele>
        <time>2013-04-07T08:49:03.000Z</time>
      </trkpt>
      <trkpt lat="48.65732" lon="7.30432">
        <ele>580</ele>
        <time>2013-04-07T08:49:07.000Z</time>
      </trkpt>
      <trkpt lat="48.65712" lon="7.30431">
        <ele>579</ele>
        <time>2013-04-07T08:49:09.000Z</time>
      </trkpt>
      <trkpt lat="48.65728" lon="7.30433">
        <ele>579</ele>
        <time>2013-04-07T08:49:13.000Z</time>
      </trkpt>
      <trkpt lat="48.65741" lon="7.30432">
        <ele>581</ele>
        <time>2013-04-07T08:49:18.000Z</time>
      </trkpt>
      <trkpt lat="48.65744" lon="7.30439">
        <ele>579</ele>
        <time>2013-04-07T08:49:21.000Z</time>
      </trkpt>
      <trkpt lat="48.6575" lon="7.30429">
        <ele>585</ele>
        <time>2013-04-07T08:49:25.000Z</time>
      </trkpt>
      <trkpt lat="48.65751" lon="7.3043">
        <ele>585</ele>
        <time>2013-04-07T08:49:27.000Z</time>
      </trkpt>
      <trkpt lat="48.65756" lon="7.30427">
        <ele>585</ele>
        <time>2013-04-07T08:49:32.000Z</time>
      </trkpt>
      <trkpt lat="48.65747" lon="7.3043">
        <ele>582</ele>
        <time>2013-04-07T08:49:35.000Z</time>
      </trkpt>
      <trkpt lat="48.6576" lon="7.30422">
        <ele>586</ele>
        <time>2013-04-07T08:49:38.000Z</time>
      </trkpt>
      <trkpt lat="48.65755" lon="7.30428">
        <ele>585</ele>
        <time>2013-04-07T08:49:40.000Z</time>
      </trkpt>
      <trkpt lat="48.65765" lon="7.30426">
        <ele>585</ele>
        <time>2013-04-07T08:49:44.000Z</time>
      </trkpt>
      <trkpt lat="48.65749" lon="7.30422">
        <ele>585</ele>
        <time>2013-04-07T08:49:47.000Z</time>
      </trkpt>
      <trkpt lat="48.65771" lon="7.3042">
        <ele>585</ele>
        <time>2013-04-07T08:49:50.000Z</time>
      </trkpt>
      <trkpt lat="48.65771" lon="7.30424">
        <ele>585</ele>
        <time>2013-04-07T08:49:53.000Z</time>
      </trkpt>
      <trkpt lat="48.65775" lon="7.30426">
        <ele>585</ele>
        <time>2013-04-07T08:49:56.000Z</time>
      </trkpt>
      <trkpt lat="48.6578" lon="7.30416">
        <ele>598</ele>
        <time>2013-04-07T08:50:01.000Z</time>
      </trkpt>
      <trkpt lat="48.6578" lon="7.30421">
        <ele>586</ele>
        <time>2013-04-07T08:50:04.000Z</time>
      </trkpt>
      <trkpt lat="48.65784" lon="7.30419">
        <ele>586</ele>
        <time>2013-04-07T08:50:07.000Z</time>
      </trkpt>
      <trkpt lat="48.65786" lon="7.30415">
        <ele>599</ele>
        <time>2013-04-07T08:50:10.000Z</time>
      </trkpt>
      <trkpt lat="48.65789" lon="7.3042">
        <ele>586</ele>
        <time>2013-04-07T08:50:14.000Z</time>
      </trkpt>
      <trkpt lat="48.65784" lon="7.30414">
        <ele>599</ele>
        <time>2013-04-07T08:50:17.000Z</time>
      </trkpt>
      <trkpt lat="48.65793" lon="7.30422">
        <ele>587</ele>
        <time>2013-04-07T08:50:21.000Z</time>
      </trkpt>
      <trkpt lat="48.65799" lon="7.30418">
        <ele>588</ele>
        <time>2013-04-07T08:50:25.000Z</time>
      </trkpt>
      <trkpt lat="48.65803" lon="7.30422">
        <ele>588</ele>
        <time>2013-04-07T08:50:28.000Z</time>
      </trkpt>
      <trkpt lat="48.65813" lon="7.30421">
        <ele>591</ele>
        <time>2013-04-07T08:50:34.000Z</time>
      </trkpt>
      <trkpt lat="48.65813" lon="7.30426">
        <ele>590</ele>
        <time>2013-04-07T08:50:36.000Z</time>
      </trkpt>
      <trkpt lat="48.6582" lon="7.30426">
        <ele>592</ele>
        <time>2013-04-07T08:50:40.000Z</time>
      </trkpt>
      <trkpt lat="48.65828" lon="7.30426">
        <ele>594</ele>
        <time>2013-04-07T08:50:45.000Z</time>
      </trkpt>
      <trkpt lat="48.65822" lon="7.30431">
        <ele>592</ele>
        <time>2013-04-07T08:50:47.000Z</time>
      </trkpt>
      <trkpt lat="48.65835" lon="7.30431">
        <ele>598</ele>
        <time>2013-04-07T08:50:51.000Z</time>
      </trkpt>
      <trkpt lat="48.65839" lon="7.3044">
        <ele>597</ele>
        <time>2013-04-07T08:50:53.000Z</time>
      </trkpt>
      <trkpt lat="48.65842" lon="7.30439">
        <ele>597</ele>
        <time>2013-04-07T08:50:55.000Z</time>
      </trkpt>
      <trkpt lat="48.6585" lon="7.30434">
        <ele>597</ele>
        <time>2013-04-07T08:51:01.000Z</time>
      </trkpt>
      <trkpt lat="48.65851" lon="7.30437">
        <ele>597</ele>
        <time>2013-04-07T08:51:03.000Z</time>
      </trkpt>
      <trkpt lat="48.65858" lon="7.30444">
        <ele>596</ele>
        <time>2013-04-07T08:51:07.000Z</time>
      </trkpt>
      <trkpt lat="48.6586" lon="7.30443">
        <ele>596</ele>
        <time>2013-04-07T08:51:09.000Z</time>
      </trkpt>
      <trkpt lat="48.65868" lon="7.3044">
        <ele>597</ele>
        <time>2013-04-07T08:51:13.000Z</time>
      </trkpt>
      <trkpt lat="48.65868" lon="7.30446">
        <ele>596</ele>
        <time>2013-04-07T08:51:15.000Z</time>
      </trkpt>
      <trkpt lat="48.65874" lon="7.30446">
        <ele>596</ele>
        <time>2013-04-07T08:51:18.000Z</time>
      </trkpt>
      <trkpt lat="48.65881" lon="7.30453">
        <ele>596</ele>
        <time>2013-04-07T08:51:21.000Z</time>
      </trkpt>
      <trkpt lat="48.65891" lon="7.30454">
        <ele>596</ele>
        <time>2013-04-07T08:51:25.000Z</time>
      </trkpt>
      <trkpt lat="48.65897" lon="7.30451">
        <ele>597</ele>
        <time>2013-04-07T08:51:27.000Z</time>
      </trkpt>
      <trkpt lat="48.65905" lon="7.30457">
        <ele>597</ele>
        <time>2013-04-07T08:51:30.000Z</time>
      </trkpt>
      <trkpt lat="48.65913" lon="7.30458">
        <ele>597</ele>
        <time>2013-04-07T08:51:33.000Z</time>
      </trkpt>
      <trkpt lat="48.65916" lon="7.30455">
        <ele>597</ele>
        <time>2013-04-07T08:51:36.000Z</time>
      </trkpt>
      <trkpt lat="48.65905" lon="7.30455">
        <ele>597</ele>
        <time>2013-04-07T08:51:39.000Z</time>
      </trkpt>
      <trkpt lat="48.6592" lon="7.30453">
        <ele>599</ele>
        <time>2013-04-07T08:51:43.000Z</time>
      </trkpt>
      <trkpt lat="48.65927" lon="7.30449">
        <ele>599</ele>
        <time>2013-04-07T08:51:47.000Z</time>
      </trkpt>
      <trkpt lat="48.65925" lon="7.30449">
        <ele>599</ele>
        <time>2013-04-07T08:51:49.000Z</time>
      </trkpt>
      <trkpt lat="48.6592" lon="7.3045">
        <ele>599</ele>
        <time>2013-04-07T08:51:53.000Z</time>
      </trkpt>
      <trkpt lat="48.65917" lon="7.3044">
        <ele>600</ele>
        <time>2013-04-07T08:51:57.000Z</time>
      </trkpt>
      <trkpt lat="48.65938" lon="7.30446">
        <ele>599</ele>
        <time>2013-04-07T08:52:01.000Z</time>
      </trkpt>
      <trkpt lat="48.65908" lon="7.30439">
        <ele>598</ele>
        <time>2013-04-07T08:52:05.000Z</time>
      </trkpt>
      <trkpt lat="48.65903" lon="7.3043">
        <ele>599</ele>
        <time>2013-04-07T08:52:09.000Z</time>
      </trkpt>
      <trkpt lat="48.65899" lon="7.30424">
        <ele>599</ele>
        <time>2013-04-07T08:52:12.000Z</time>
      </trkpt>
      <trkpt lat="48.65895" lon="7.30426">
        <ele>598</ele>
        <time>2013-04-07T08:52:15.000Z</time>
      </trkpt>
      <trkpt lat="48.6589" lon="7.30426">
        <ele>598</ele>
        <time>2013-04-07T08:52:17.000Z</time>
      </trkpt>
      <trkpt lat="48.65889" lon="7.30422">
        <ele>598</ele>
        <time>2013-04-07T08:52:19.000Z</time>
      </trkpt>
      <trkpt lat="48.65881" lon="7.30416">
        <ele>603</ele>
        <time>2013-04-07T08:52:24.000Z</time>
      </trkpt>
      <trkpt lat="48.65878" lon="7.30411">
        <ele>603</ele>
        <time>2013-04-07T08:52:26.000Z</time>
      </trkpt>
      <trkpt lat="48.65872" lon="7.30402">
        <ele>603</ele>
        <time>2013-04-07T08:52:30.000Z</time>
      </trkpt>
      <trkpt lat="48.65868" lon="7.30399">
        <ele>603</ele>
        <time>2013-04-07T08:52:33.000Z</time>
      </trkpt>
      <trkpt lat="48.65863" lon="7.30388">
        <ele>604</ele>
        <time>2013-04-07T08:52:37.000Z</time>
      </trkpt>
      <trkpt lat="48.6586" lon="7.30379">
        <ele>604</ele>
        <time>2013-04-07T08:52:40.000Z</time>
      </trkpt>
      <trkpt lat="48.65863" lon="7.30386">
        <ele>604</ele>
        <time>2013-04-07T08:52:42.000Z</time>
      </trkpt>
      <trkpt lat="48.65852" lon="7.30377">
        <ele>604</ele>
        <time>2013-04-07T08:52:46.000Z</time>
      </trkpt>
      <trkpt lat="48.65848" lon="7.30372">
        <ele>605</ele>
        <time>2013-04-07T08:52:50.000Z</time>
      </trkpt>
      <trkpt lat="48.65845" lon="7.30359">
        <ele>606</ele>
        <time>2013-04-07T08:52:52.000Z</time>
      </trkpt>
      <trkpt lat="48.6584" lon="7.30353">
        <ele>607</ele>
        <time>2013-04-07T08:52:55.000Z</time>
      </trkpt>
      <trkpt lat="48.65836" lon="7.30352">
        <ele>607</ele>
        <time>2013-04-07T08:52:57.000Z</time>
      </trkpt>
      <trkpt lat="48.65833" lon="7.30338">
        <ele>609</ele>
        <time>2013-04-07T08:53:01.000Z</time>
      </trkpt>
      <trkpt lat="48.65825" lon="7.30339">
        <ele>608</ele>
        <time>2013-04-07T08:53:04.000Z</time>
      </trkpt>
      <trkpt lat="48.65823" lon="7.30329">
        <ele>611</ele>
        <time>2013-04-07T08:53:07.000Z</time>
      </trkpt>
      <trkpt lat="48.65821" lon="7.30324">
        <ele>612</ele>
        <time>2013-04-07T08:53:09.000Z</time>
      </trkpt>
      <trkpt lat="48.65818" lon="7.30319">
        <ele>612</ele>
        <time>2013-04-07T08:53:12.000Z</time>
      </trkpt>
      <trkpt lat="48.65833" lon="7.30313">
        <ele>612</ele>
        <time>2013-04-07T08:53:16.000Z</time>
      </trkpt>
      <trkpt lat="48.65815" lon="7.30302">
        <ele>613</ele>
        <time>2013-04-07T08:53:19.000Z</time>
      </trkpt>
      <trkpt lat="48.65852" lon="7.30298">
        <ele>608</ele>
        <time>2013-04-07T08:53:23.000Z</time>
      </trkpt>
      <trkpt lat="48.65807" lon="7.30287">
        <ele>614</ele>
        <time>2013-04-07T08:53:27.000Z</time>
      </trkpt>
      <trkpt lat="48.65807" lon="7.30278">
        <ele>614</ele>
        <time>2013-04-07T08:53:31.000Z</time>
      </trkpt>
      <trkpt lat="48.65805" lon="7.30276">
        <ele>614</ele>
        <time>2013-04-07T08:53:33.000Z</time>
      </trkpt>
      <trkpt lat="48.65805" lon="7.30265">
        <ele>614</ele>
        <time>2013-04-07T08:53:37.000Z</time>
      </trkpt>
      <trkpt lat="48.6581" lon="7.3027">
        <ele>614</ele>
        <time>2013-04-07T08:53:39.000Z</time>
      </trkpt>
      <trkpt lat="48.65801" lon="7.30264">
        <ele>614</ele>
        <time>2013-04-07T08:53:42.000Z</time>
      </trkpt>
      <trkpt lat="48.65797" lon="7.30253">
        <ele>615</ele>
        <time>2013-04-07T08:53:46.000Z</time>
      </trkpt>
      <trkpt lat="48.65812" lon="7.3026">
        <ele>614</ele>
        <time>2013-04-07T08:53:50.000Z</time>
      </trkpt>
      <trkpt lat="48.65796" lon="7.30257">
        <ele>615</ele>
        <time>2013-04-07T08:53:54.000Z</time>
      </trkpt>
      <trkpt lat="48.65782" lon="7.30251">
        <ele>616</ele>
        <time>2013-04-07T08:53:58.000Z</time>
      </trkpt>
      <trkpt lat="48.65776" lon="7.3025">
        <ele>619</ele>
        <time>2013-04-07T08:54:01.000Z</time>
      </trkpt>
      <trkpt lat="48.6577" lon="7.3025">
        <ele>620</ele>
        <time>2013-04-07T08:54:04.000Z</time>
      </trkpt>
      <trkpt lat="48.65765" lon="7.30246">
        <ele>620</ele>
        <time>2013-04-07T08:54:07.000Z</time>
      </trkpt>
      <trkpt lat="48.65762" lon="7.30248">
        <ele>620</ele>
        <time>2013-04-07T08:54:09.000Z</time>
      </trkpt>
      <trkpt lat="48.65765" lon="7.30257">
        <ele>618</ele>
        <time>2013-04-07T08:54:13.000Z</time>
      </trkpt>
      <trkpt lat="48.65755" lon="7.30253">
        <ele>619</ele>
        <time>2013-04-07T08:54:16.000Z</time>
      </trkpt>
      <trkpt lat="48.65747" lon="7.30243">
        <ele>623</ele>
        <time>2013-04-07T08:54:19.000Z</time>
      </trkpt>
      <trkpt lat="48.65744" lon="7.30243">
        <ele>623</ele>
        <time>2013-04-07T08:54:22.000Z</time>
      </trkpt>
      <trkpt lat="48.65736" lon="7.30248">
        <ele>624</ele>
        <time>2013-04-07T08:54:25.000Z</time>
      </trkpt>
      <trkpt lat="48.65734" lon="7.30249">
        <ele>624</ele>
        <time>2013-04-07T08:54:27.000Z</time>
      </trkpt>
      <trkpt lat="48.65727" lon="7.3025">
        <ele>625</ele>
        <time>2013-04-07T08:54:30.000Z</time>
      </trkpt>
      <trkpt lat="48.65723" lon="7.30252">
        <ele>620</ele>
        <time>2013-04-07T08:54:32.000Z</time>
      </trkpt>
      <trkpt lat="48.65718" lon="7.30255">
        <ele>621</ele>
        <time>2013-04-07T08:54:34.000Z</time>
      </trkpt>
      <trkpt lat="48.65714" lon="7.30252">
        <ele>621</ele>
        <time>2013-04-07T08:54:38.000Z</time>
      </trkpt>
      <trkpt lat="48.65707" lon="7.30254">
        <ele>621</ele>
        <time>2013-04-07T08:54:40.000Z</time>
      </trkpt>
      <trkpt lat="48.65703" lon="7.30251">
        <ele>621</ele>
        <time>2013-04-07T08:54:42.000Z</time>
      </trkpt>
      <trkpt lat="48.65697" lon="7.30247">
        <ele>627</ele>
        <time>2013-04-07T08:54:45.000Z</time>
      </trkpt>
      <trkpt lat="48.65686" lon="7.30252">
        <ele>623</ele>
        <time>2013-04-07T08:54:50.000Z</time>
      </trkpt>
      <trkpt lat="48.65683" lon="7.30244">
        <ele>627</ele>
        <time>2013-04-07T08:54:52.000Z</time>
      </trkpt>
      <trkpt lat="48.65678" lon="7.30245">
        <ele>627</ele>
        <time>2013-04-07T08:54:55.000Z</time>
      </trkpt>
      <trkpt lat="48.65671" lon="7.30244">
        <ele>627</ele>
        <time>2013-04-07T08:54:58.000Z</time>
      </trkpt>
      <trkpt lat="48.65666" lon="7.30243">
        <ele>627</ele>
        <time>2013-04-07T08:55:00.000Z</time>
      </trkpt>
      <trkpt lat="48.65654" lon="7.30249">
        <ele>627</ele>
        <time>2013-04-07T08:55:03.000Z</time>
      </trkpt>
      <trkpt lat="48.65649" lon="7.30244">
        <ele>627</ele>
        <time>2013-04-07T08:55:05.000Z</time>
      </trkpt>
      <trkpt lat="48.65642" lon="7.30251">
        <ele>621</ele>
        <time>2013-04-07T08:55:07.000Z</time>
      </trkpt>
      <trkpt lat="48.65636" lon="7.30246">
        <ele>626</ele>
        <time>2013-04-07T08:55:10.000Z</time>
      </trkpt>
      <trkpt lat="48.65627" lon="7.30244">
        <ele>626</ele>
        <time>2013-04-07T08:55:13.000Z</time>
      </trkpt>
      <trkpt lat="48.6562" lon="7.30248">
        <ele>625</ele>
        <time>2013-04-07T08:55:15.000Z</time>
      </trkpt>
      <trkpt lat="48.65614" lon="7.30245">
        <ele>625</ele>
        <time>2013-04-07T08:55:18.000Z</time>
      </trkpt>
      <trkpt lat="48.65604" lon="7.30236">
        <ele>624</ele>
        <time>2013-04-07T08:55:21.000Z</time>
      </trkpt>
      <trkpt lat="48.65597" lon="7.3024">
        <ele>623</ele>
        <time>2013-04-07T08:55:23.000Z</time>
      </trkpt>
      <trkpt lat="48.65589" lon="7.30236">
        <ele>623</ele>
        <time>2013-04-07T08:55:26.000Z</time>
      </trkpt>
      <trkpt lat="48.65582" lon="7.30232">
        <ele>619</ele>
        <time>2013-04-07T08:55:29.000Z</time>
      </trkpt>
      <trkpt lat="48.65574" lon="7.30225">
        <ele>619</ele>
        <time>2013-04-07T08:55:32.000Z</time>
      </trkpt>
      <trkpt lat="48.6557" lon="7.30215">
        <ele>619</ele>
        <time>2013-04-07T08:55:34.000Z</time>
      </trkpt>
      <trkpt lat="48.65555" lon="7.30206">
        <ele>619</ele>
        <time>2013-04-07T08:55:37.000Z</time>
      </trkpt>
      <trkpt lat="48.65554" lon="7.30199">
        <ele>619</ele>
        <time>2013-04-07T08:55:39.000Z</time>
      </trkpt>
      <trkpt lat="48.65551" lon="7.30194">
        <ele>619</ele>
        <time>2013-04-07T08:55:41.000Z</time>
      </trkpt>
      <trkpt lat="48.65543" lon="7.30182">
        <ele>620</ele>
        <time>2013-04-07T08:55:44.000Z</time>
      </trkpt>
      <trkpt lat="48.65551" lon="7.30189">
        <ele>620</ele>
        <time>2013-04-07T08:55:46.000Z</time>
      </trkpt>
      <trkpt lat="48.65555" lon="7.30185">
        <ele>621</ele>
        <time>2013-04-07T08:55:49.000Z</time>
      </trkpt>
      <trkpt lat="48.65555" lon="7.3018">
        <ele>621</ele>
        <time>2013-04-07T08:55:52.000Z</time>
      </trkpt>
      <trkpt lat="48.65535" lon="7.30163">
        <ele>627</ele>
        <time>2013-04-07T08:55:57.000Z</time>
      </trkpt>
      <trkpt lat="48.65505" lon="7.30149">
        <ele>624</ele>
        <time>2013-04-07T08:56:01.000Z</time>
      </trkpt>
      <trkpt lat="48.65492" lon="7.30138">
        <ele>617</ele>
        <time>2013-04-07T08:56:04.000Z</time>
      </trkpt>
      <trkpt lat="48.65491" lon="7.30136">
        <ele>617</ele>
        <time>2013-04-07T08:56:06.000Z</time>
      </trkpt>
      <trkpt lat="48.65487" lon="7.30129">
        <ele>617</ele>
        <time>2013-04-07T08:56:08.000Z</time>
      </trkpt>
      <trkpt lat="48.6549" lon="7.30125">
        <ele>618</ele>
        <time>2013-04-07T08:56:11.000Z</time>
      </trkpt>
      <trkpt lat="48.65474" lon="7.30112">
        <ele>618</ele>
        <time>2013-04-07T08:56:15.000Z</time>
      </trkpt>
      <trkpt lat="48.65466" lon="7.301">
        <ele>618</ele>
        <time>2013-04-07T08:56:18.000Z</time>
      </trkpt>
      <trkpt lat="48.65459" lon="7.30098">
        <ele>617</ele>
        <time>2013-04-07T08:56:20.000Z</time>
      </trkpt>
      <trkpt lat="48.65454" lon="7.30088">
        <ele>617</ele>
        <time>2013-04-07T08:56:23.000Z</time>
      </trkpt>
      <trkpt lat="48.65447" lon="7.30083">
        <ele>626</ele>
        <time>2013-04-07T08:56:25.000Z</time>
      </trkpt>
      <trkpt lat="48.65463" lon="7.30079">
        <ele>629</ele>
        <time>2013-04-07T08:56:28.000Z</time>
      </trkpt>
      <trkpt lat="48.65455" lon="7.30067">
        <ele>629</ele>
        <time>2013-04-07T08:56:31.000Z</time>
      </trkpt>
      <trkpt lat="48.65437" lon="7.30057">
        <ele>627</ele>
        <time>2013-04-07T08:56:34.000Z</time>
      </trkpt>
      <trkpt lat="48.65433" lon="7.3005">
        <ele>628</ele>
        <time>2013-04-07T08:56:36.000Z</time>
      </trkpt>
      <trkpt lat="48.65427" lon="7.30044">
        <ele>629</ele>
        <time>2013-04-07T08:56:39.000Z</time>
      </trkpt>
      <trkpt lat="48.65422" lon="7.30037">
        <ele>629</ele>
        <time>2013-04-07T08:56:42.000Z</time>
      </trkpt>
      <trkpt lat="48.6542" lon="7.30024">
        <ele>631</ele>
        <time>2013-04-07T08:56:44.000Z</time>
      </trkpt>
      <trkpt lat="48.65416" lon="7.30024">
        <ele>625</ele>
        <time>2013-04-07T08:56:46.000Z</time>
      </trkpt>
      <trkpt lat="48.65415" lon="7.3002">
        <ele>626</ele>
        <time>2013-04-07T08:56:48.000Z</time>
      </trkpt>
      <trkpt lat="48.6541" lon="7.30007">
        <ele>629</ele>
        <time>2013-04-07T08:56:51.000Z</time>
      </trkpt>
      <trkpt lat="48.65405" lon="7.30003">
        <ele>628</ele>
        <time>2013-04-07T08:56:54.000Z</time>
      </trkpt>
      <trkpt lat="48.65411" lon="7.3">
        <ele>634</ele>
        <time>2013-04-07T08:56:57.000Z</time>
      </trkpt>
      <trkpt lat="48.65389" lon="7.29989">
        <ele>635</ele>
        <time>2013-04-07T08:57:01.000Z</time>
      </trkpt>
      <trkpt lat="48.65404" lon="7.29985">
        <ele>635</ele>
        <time>2013-04-07T08:57:04.000Z</time>
      </trkpt>
      <trkpt lat="48.65374" lon="7.29969">
        <ele>635</ele>
        <time>2013-04-07T08:57:08.000Z</time>
      </trkpt>
      <trkpt lat="48.65369" lon="7.29964">
        <ele>636</ele>
        <time>2013-04-07T08:57:11.000Z</time>
      </trkpt>
      <trkpt lat="48.65366" lon="7.29963">
        <ele>636</ele>
        <time>2013-04-07T08:57:13.000Z</time>
      </trkpt>
      <trkpt lat="48.6536" lon="7.29955">
        <ele>636</ele>
        <time>2013-04-07T08:57:16.000Z</time>
      </trkpt>
      <trkpt lat="48.65356" lon="7.29954">
        <ele>636</ele>
        <time>2013-04-07T08:57:18.000Z</time>
      </trkpt>
      <trkpt lat="48.6535" lon="7.29953">
        <ele>636</ele>
        <time>2013-04-07T08:57:20.000Z</time>
      </trkpt>
      <trkpt lat="48.65345" lon="7.29949">
        <ele>637</ele>
        <time>2013-04-07T08:57:23.000Z</time>
      </trkpt>
      <trkpt lat="48.65341" lon="7.29938">
        <ele>638</ele>
        <time>2013-04-07T08:57:25.000Z</time>
      </trkpt>
      <trkpt lat="48.65337" lon="7.29937">
        <ele>638</ele>
        <time>2013-04-07T08:57:28.000Z</time>
      </trkpt>
      <trkpt lat="48.6533" lon="7.29936">
        <ele>634</ele>
        <time>2013-04-07T08:57:30.000Z</time>
      </trkpt>
      <trkpt lat="48.65327" lon="7.2993">
        <ele>636</ele>
        <time>2013-04-07T08:57:32.000Z</time>
      </trkpt>
      <trkpt lat="48.65321" lon="7.29921">
        <ele>636</ele>
        <time>2013-04-07T08:57:35.000Z</time>
      </trkpt>
      <trkpt lat="48.65319" lon="7.29922">
        <ele>636</ele>
        <time>2013-04-07T08:57:37.000Z</time>
      </trkpt>
      <trkpt lat="48.65312" lon="7.29921">
        <ele>634</ele>
        <time>2013-04-07T08:57:40.000Z</time>
      </trkpt>
      <trkpt lat="48.65306" lon="7.29908">
        <ele>641</ele>
        <time>2013-04-07T08:57:44.000Z</time>
      </trkpt>
      <trkpt lat="48.65302" lon="7.29901">
        <ele>641</ele>
        <time>2013-04-07T08:57:47.000Z</time>
      </trkpt>
      <trkpt lat="48.65298" lon="7.29903">
        <ele>640</ele>
        <time>2013-04-07T08:57:49.000Z</time>
      </trkpt>
      <trkpt lat="48.65295" lon="7.29898">
        <ele>640</ele>
        <time>2013-04-07T08:57:51.000Z</time>
      </trkpt>
      <trkpt lat="48.65292" lon="7.29897">
        <ele>640</ele>
        <time>2013-04-07T08:57:53.000Z</time>
      </trkpt>
      <trkpt lat="48.65284" lon="7.29893">
        <ele>640</ele>
        <time>2013-04-07T08:57:57.000Z</time>
      </trkpt>
      <trkpt lat="48.65279" lon="7.2988">
        <ele>640</ele>
        <time>2013-04-07T08:58:00.000Z</time>
      </trkpt>
      <trkpt lat="48.65274" lon="7.29878">
        <ele>640</ele>
        <time>2013-04-07T08:58:03.000Z</time>
      </trkpt>
      <trkpt lat="48.65285" lon="7.2987">
        <ele>642</ele>
        <time>2013-04-07T08:58:06.000Z</time>
      </trkpt>
      <trkpt lat="48.65288" lon="7.2987">
        <ele>642</ele>
        <time>2013-04-07T08:58:09.000Z</time>
      </trkpt>
      <trkpt lat="48.65279" lon="7.29863">
        <ele>642</ele>
        <time>2013-04-07T08:58:12.000Z</time>
      </trkpt>
      <trkpt lat="48.65277" lon="7.29844">
        <ele>642</ele>
        <time>2013-04-07T08:58:16.000Z</time>
      </trkpt>
      <trkpt lat="48.65257" lon="7.29831">
        <ele>644</ele>
        <time>2013-04-07T08:58:19.000Z</time>
      </trkpt>
      <trkpt lat="48.65256" lon="7.29827">
        <ele>644</ele>
        <time>2013-04-07T08:58:22.000Z</time>
      </trkpt>
      <trkpt lat="48.65255" lon="7.29816">
        <ele>647</ele>
        <time>2013-04-07T08:58:25.000Z</time>
      </trkpt>
      <trkpt lat="48.65253" lon="7.29809">
        <ele>648</ele>
        <time>2013-04-07T08:58:27.000Z</time>
      </trkpt>
      <trkpt lat="48.65255" lon="7.29794">
        <ele>650</ele>
        <time>2013-04-07T08:58:30.000Z</time>
      </trkpt>
      <trkpt lat="48.65248" lon="7.29791">
        <ele>637</ele>
        <time>2013-04-07T08:58:32.000Z</time>
      </trkpt>
      <trkpt lat="48.65247" lon="7.29776">
        <ele>639</ele>
        <time>2013-04-07T08:58:36.000Z</time>
      </trkpt>
      <trkpt lat="48.65243" lon="7.29773">
        <ele>640</ele>
        <time>2013-04-07T08:58:39.000Z</time>
      </trkpt>
      <trkpt lat="48.6524" lon="7.29768">
        <ele>641</ele>
        <time>2013-04-07T08:58:41.000Z</time>
      </trkpt>
      <trkpt lat="48.65236" lon="7.29756">
        <ele>642</ele>
        <time>2013-04-07T08:58:43.000Z</time>
      </trkpt>
      <trkpt lat="48.65233" lon="7.29754">
        <ele>641</ele>
        <time>2013-04-07T08:58:45.000Z</time>
      </trkpt>
      <trkpt lat="48.65229" lon="7.29741">
        <ele>645</ele>
        <time>2013-04-07T08:58:48.000Z</time>
      </trkpt>
      <trkpt lat="48.65227" lon="7.29739">
        <ele>645</ele>
        <time>2013-04-07T08:58:50.000Z</time>
      </trkpt>
      <trkpt lat="48.65223" lon="7.29735">
        <ele>644</ele>
        <time>2013-04-07T08:58:52.000Z</time>
      </trkpt>
      <trkpt lat="48.6522" lon="7.29723">
        <ele>644</ele>
        <time>2013-04-07T08:58:54.000Z</time>
      </trkpt>
      <trkpt lat="48.65216" lon="7.29722">
        <ele>643</ele>
        <time>2013-04-07T08:58:57.000Z</time>
      </trkpt>
      <trkpt lat="48.65211" lon="7.29709">
        <ele>643</ele>
        <time>2013-04-07T08:59:00.000Z</time>
      </trkpt>
      <trkpt lat="48.65208" lon="7.29697">
        <ele>644</ele>
        <time>2013-04-07T08:59:03.000Z</time>
      </trkpt>
      <trkpt lat="48.65202" lon="7.29692">
        <ele>643</ele>
        <time>2013-04-07T08:59:06.000Z</time>
      </trkpt>
      <trkpt lat="48.65198" lon="7.29684">
        <ele>643</ele>
        <time>2013-04-07T08:59:09.000Z</time>
      </trkpt>
      <trkpt lat="48.65195" lon="7.29672">
        <ele>643</ele>
        <time>2013-04-07T08:59:11.000Z</time>
      </trkpt>
      <trkpt lat="48.65191" lon="7.29672">
        <ele>642</ele>
        <time>2013-04-07T08:59:13.000Z</time>
      </trkpt>
      <trkpt lat="48.65189" lon="7.29662">
        <ele>646</ele>
        <time>2013-04-07T08:59:16.000Z</time>
      </trkpt>
      <trkpt lat="48.65184" lon="7.29662">
        <ele>645</ele>
        <time>2013-04-07T08:59:18.000Z</time>
      </trkpt>
      <trkpt lat="48.65184" lon="7.29651">
        <ele>646</ele>
        <time>2013-04-07T08:59:20.000Z</time>
      </trkpt>
      <trkpt lat="48.65195" lon="7.29646">
        <ele>648</ele>
        <time>2013-04-07T08:59:23.000Z</time>
      </trkpt>
      <trkpt lat="48.65188" lon="7.2964">
        <ele>648</ele>
        <time>2013-04-07T08:59:26.000Z</time>
      </trkpt>
      <trkpt lat="48.65171" lon="7.29621">
        <ele>648</ele>
        <time>2013-04-07T08:59:30.000Z</time>
      </trkpt>
      <trkpt lat="48.65167" lon="7.29614">
        <ele>648</ele>
        <time>2013-04-07T08:59:32.000Z</time>
      </trkpt>
      <trkpt lat="48.65163" lon="7.2961">
        <ele>640</ele>
        <time>2013-04-07T08:59:35.000Z</time>
      </trkpt>
      <trkpt lat="48.65161" lon="7.29596">
        <ele>642</ele>
        <time>2013-04-07T08:59:38.000Z</time>
      </trkpt>
      <trkpt lat="48.65158" lon="7.29589">
        <ele>643</ele>
        <time>2013-04-07T08:59:41.000Z</time>
      </trkpt>
      <trkpt lat="48.65165" lon="7.29597">
        <ele>643</ele>
        <time>2013-04-07T08:59:43.000Z</time>
      </trkpt>
      <trkpt lat="48.65165" lon="7.29592">
        <ele>644</ele>
        <time>2013-04-07T08:59:46.000Z</time>
      </trkpt>
      <trkpt lat="48.65149" lon="7.29573">
        <ele>646</ele>
        <time>2013-04-07T08:59:50.000Z</time>
      </trkpt>
      <trkpt lat="48.65184" lon="7.29566">
        <ele>652</ele>
        <time>2013-04-07T08:59:54.000Z</time>
      </trkpt>
      <trkpt lat="48.65158" lon="7.29559">
        <ele>646</ele>
        <time>2013-04-07T08:59:58.000Z</time>
      </trkpt>
      <trkpt lat="48.6514" lon="7.29545">
        <ele>646</ele>
        <time>2013-04-07T09:00:02.000Z</time>
      </trkpt>
      <trkpt lat="48.65139" lon="7.29542">
        <ele>646</ele>
        <time>2013-04-07T09:00:04.000Z</time>
      </trkpt>
      <trkpt lat="48.65138" lon="7.29539">
        <ele>646</ele>
        <time>2013-04-07T09:00:06.000Z</time>
      </trkpt>
      <trkpt lat="48.65137" lon="7.2953">
        <ele>647</ele>
        <time>2013-04-07T09:00:10.000Z</time>
      </trkpt>
      <trkpt lat="48.65135" lon="7.29512">
        <ele>647</ele>
        <time>2013-04-07T09:00:15.000Z</time>
      </trkpt>
      <trkpt lat="48.65132" lon="7.29509">
        <ele>647</ele>
        <time>2013-04-07T09:00:19.000Z</time>
      </trkpt>
      <trkpt lat="48.65134" lon="7.29504">
        <ele>648</ele>
        <time>2013-04-07T09:00:23.000Z</time>
      </trkpt>
      <trkpt lat="48.65129" lon="7.29498">
        <ele>651</ele>
        <time>2013-04-07T09:00:25.000Z</time>
      </trkpt>
      <trkpt lat="48.65128" lon="7.29489">
        <ele>651</ele>
        <time>2013-04-07T09:00:29.000Z</time>
      </trkpt>
      <trkpt lat="48.65126" lon="7.29484">
        <ele>652</ele>
        <time>2013-04-07T09:00:33.000Z</time>
      </trkpt>
      <trkpt lat="48.65123" lon="7.29468">
        <ele>652</ele>
        <time>2013-04-07T09:00:37.000Z</time>
      </trkpt>
      <trkpt lat="48.65122" lon="7.29473">
        <ele>652</ele>
        <time>2013-04-07T09:00:39.000Z</time>
      </trkpt>
      <trkpt lat="48.6512" lon="7.29466">
        <ele>652</ele>
        <time>2013-04-07T09:00:41.000Z</time>
      </trkpt>
      <trkpt lat="48.65117" lon="7.29463">
        <ele>652</ele>
        <time>2013-04-07T09:00:45.000Z</time>
      </trkpt>
      <trkpt lat="48.65118" lon="7.29454">
        <ele>652</ele>
        <time>2013-04-07T09:00:47.000Z</time>
      </trkpt>
      <trkpt lat="48.65099" lon="7.29453">
        <ele>652</ele>
        <time>2013-04-07T09:00:51.000Z</time>
      </trkpt>
      <trkpt lat="48.65118" lon="7.29448">
        <ele>653</ele>
        <time>2013-04-07T09:00:55.000Z</time>
      </trkpt>
      <trkpt lat="48.65131" lon="7.2945">
        <ele>653</ele>
        <time>2013-04-07T09:00:59.000Z</time>
      </trkpt>
      <trkpt lat="48.65138" lon="7.29452">
        <ele>653</ele>
        <time>2013-04-07T09:01:02.000Z</time>
      </trkpt>
      <trkpt lat="48.65145" lon="7.29453">
        <ele>653</ele>
        <time>2013-04-07T09:01:05.000Z</time>
      </trkpt>
      <trkpt lat="48.65151" lon="7.29456">
        <ele>653</ele>
        <time>2013-04-07T09:01:08.000Z</time>
      </trkpt>
      <trkpt lat="48.65159" lon="7.29448">
        <ele>653</ele>
        <time>2013-04-07T09:01:10.000Z</time>
      </trkpt>
      <trkpt lat="48.65167" lon="7.29453">
        <ele>655</ele>
        <time>2013-04-07T09:01:13.000Z</time>
      </trkpt>
      <trkpt lat="48.65173" lon="7.29453">
        <ele>655</ele>
        <time>2013-04-07T09:01:16.000Z</time>
      </trkpt>
      <trkpt lat="48.65178" lon="7.29454">
        <ele>655</ele>
        <time>2013-04-07T09:01:18.000Z</time>
      </trkpt>
      <trkpt lat="48.65185" lon="7.29456">
        <ele>655</ele>
        <time>2013-04-07T09:01:22.000Z</time>
      </trkpt>
      <trkpt lat="48.65182" lon="7.29444">
        <ele>655</ele>
        <time>2013-04-07T09:01:24.000Z</time>
      </trkpt>
      <trkpt lat="48.65192" lon="7.29455">
        <ele>656</ele>
        <time>2013-04-07T09:01:27.000Z</time>
      </trkpt>
      <trkpt lat="48.65198" lon="7.29459">
        <ele>656</ele>
        <time>2013-04-07T09:01:31.000Z</time>
      </trkpt>
      <trkpt lat="48.65207" lon="7.2947">
        <ele>656</ele>
        <time>2013-04-07T09:01:35.000Z</time>
      </trkpt>
      <trkpt lat="48.65214" lon="7.2947">
        <ele>656</ele>
        <time>2013-04-07T09:01:39.000Z</time>
      </trkpt>
      <trkpt lat="48.65219" lon="7.29477">
        <ele>657</ele>
        <time>2013-04-07T09:01:43.000Z</time>
      </trkpt>
      <trkpt lat="48.6522" lon="7.29473">
        <ele>657</ele>
        <time>2013-04-07T09:01:45.000Z</time>
      </trkpt>
      <trkpt lat="48.65224" lon="7.29478">
        <ele>657</ele>
        <time>2013-04-07T09:01:49.000Z</time>
      </trkpt>
      <trkpt lat="48.65228" lon="7.29481">
        <ele>657</ele>
        <time>2013-04-07T09:01:51.000Z</time>
      </trkpt>
      <trkpt lat="48.6523" lon="7.29479">
        <ele>657</ele>
        <time>2013-04-07T09:01:53.000Z</time>
      </trkpt>
      <trkpt lat="48.65239" lon="7.29474">
        <ele>658</ele>
        <time>2013-04-07T09:01:59.000Z</time>
      </trkpt>
      <trkpt lat="48.65239" lon="7.29479">
        <ele>658</ele>
        <time>2013-04-07T09:02:01.000Z</time>
      </trkpt>
      <trkpt lat="48.65243" lon="7.29481">
        <ele>658</ele>
        <time>2013-04-07T09:02:05.000Z</time>
      </trkpt>
      <trkpt lat="48.65248" lon="7.29485">
        <ele>658</ele>
        <time>2013-04-07T09:02:09.000Z</time>
      </trkpt>
      <trkpt lat="48.65254" lon="7.29486">
        <ele>659</ele>
        <time>2013-04-07T09:02:13.000Z</time>
      </trkpt>
      <trkpt lat="48.65259" lon="7.29489">
        <ele>659</ele>
        <time>2013-04-07T09:02:17.000Z</time>
      </trkpt>
      <trkpt lat="48.65265" lon="7.29489">
        <ele>659</ele>
        <time>2013-04-07T09:02:19.000Z</time>
      </trkpt>
      <trkpt lat="48.65272" lon="7.29486">
        <ele>659</ele>
        <time>2013-04-07T09:02:23.000Z</time>
      </trkpt>
      <trkpt lat="48.65272" lon="7.2949">
        <ele>659</ele>
        <time>2013-04-07T09:02:25.000Z</time>
      </trkpt>
      <trkpt lat="48.65277" lon="7.29489">
        <ele>659</ele>
        <time>2013-04-07T09:02:29.000Z</time>
      </trkpt>
      <trkpt lat="48.65282" lon="7.2949">
        <ele>659</ele>
        <time>2013-04-07T09:02:31.000Z</time>
      </trkpt>
      <trkpt lat="48.65292" lon="7.29497">
        <ele>659</ele>
        <time>2013-04-07T09:02:36.000Z</time>
      </trkpt>
      <trkpt lat="48.65302" lon="7.29514">
        <ele>662</ele>
        <time>2013-04-07T09:02:39.000Z</time>
      </trkpt>
      <trkpt lat="48.65309" lon="7.29523">
        <ele>662</ele>
        <time>2013-04-07T09:02:42.000Z</time>
      </trkpt>
      <trkpt lat="48.65318" lon="7.29534">
        <ele>662</ele>
        <time>2013-04-07T09:02:45.000Z</time>
      </trkpt>
      <trkpt lat="48.65326" lon="7.29544">
        <ele>663</ele>
        <time>2013-04-07T09:02:48.000Z</time>
      </trkpt>
      <trkpt lat="48.65334" lon="7.29553">
        <ele>662</ele>
        <time>2013-04-07T09:02:51.000Z</time>
      </trkpt>
      <trkpt lat="48.65319" lon="7.29556">
        <ele>663</ele>
        <time>2013-04-07T09:02:54.000Z</time>
      </trkpt>
      <trkpt lat="48.65343" lon="7.29574">
        <ele>664</ele>
        <time>2013-04-07T09:02:58.000Z</time>
      </trkpt>
      <trkpt lat="48.65346" lon="7.2959">
        <ele>666</ele>
        <time>2013-04-07T09:03:01.000Z</time>
      </trkpt>
      <trkpt lat="48.65344" lon="7.29592">
        <ele>666</ele>
        <time>2013-04-07T09:03:05.000Z</time>
      </trkpt>
      <trkpt lat="48.65343" lon="7.29598">
        <ele>666</ele>
        <time>2013-04-07T09:03:07.000Z</time>
      </trkpt>
      <trkpt lat="48.65343" lon="7.29595">
        <ele>666</ele>
        <time>2013-04-07T09:03:09.000Z</time>
      </trkpt>
      <trkpt lat="48.6534" lon="7.29608">
        <ele>666</ele>
        <time>2013-04-07T09:03:13.000Z</time>
      </trkpt>
      <trkpt lat="48.65336" lon="7.29621">
        <ele>666</ele>
        <time>2013-04-07T09:03:17.000Z</time>
      </trkpt>
      <trkpt lat="48.65334" lon="7.2962">
        <ele>666</ele>
        <time>2013-04-07T09:03:21.000Z</time>
      </trkpt>
      <trkpt lat="48.65332" lon="7.29628">
        <ele>664</ele>
        <time>2013-04-07T09:03:25.000Z</time>
      </trkpt>
      <trkpt lat="48.65331" lon="7.29632">
        <ele>665</ele>
        <time>2013-04-07T09:03:27.000Z</time>
      </trkpt>
      <trkpt lat="48.6533" lon="7.29641">
        <ele>665</ele>
        <time>2013-04-07T09:03:31.000Z</time>
      </trkpt>
      <trkpt lat="48.65329" lon="7.29645">
        <ele>665</ele>
        <time>2013-04-07T09:03:33.000Z</time>
      </trkpt>
      <trkpt lat="48.65328" lon="7.29653">
        <ele>666</ele>
        <time>2013-04-07T09:03:37.000Z</time>
      </trkpt>
      <trkpt lat="48.65327" lon="7.29656">
        <ele>666</ele>
        <time>2013-04-07T09:03:39.000Z</time>
      </trkpt>
      <trkpt lat="48.65327" lon="7.29659">
        <ele>666</ele>
        <time>2013-04-07T09:03:41.000Z</time>
      </trkpt>
      <trkpt lat="48.65328" lon="7.29666">
        <ele>667</ele>
        <time>2013-04-07T09:03:45.000Z</time>
      </trkpt>
      <trkpt lat="48.65331" lon="7.2968">
        <ele>665</ele>
        <time>2013-04-07T09:03:49.000Z</time>
      </trkpt>
      <trkpt lat="48.65332" lon="7.29681">
        <ele>665</ele>
        <time>2013-04-07T09:03:51.000Z</time>
      </trkpt>
      <trkpt lat="48.65332" lon="7.29689">
        <ele>664</ele>
        <time>2013-04-07T09:04:02.000Z</time>
      </trkpt>
      <trkpt lat="48.65332" lon="7.29689">
        <ele>664</ele>
        <time>2013-04-07T09:04:22.000Z</time>
      </trkpt>
      <trkpt lat="48.65334" lon="7.2969">
        <ele>667</ele>
        <time>2013-04-07T09:04:42.000Z</time>
      </trkpt>
      <trkpt lat="48.65334" lon="7.2969">
        <ele>667</ele>
        <time>2013-04-07T09:05:02.000Z</time>
      </trkpt>
      <trkpt lat="48.65305" lon="7.29684">
        <ele>663</ele>
        <time>2013-04-07T09:10:41.000Z</time>
      </trkpt>
      <trkpt lat="48.65305" lon="7.29684">
        <ele>663</ele>
        <time>2013-04-07T09:11:01.000Z</time>
      </trkpt>
      <trkpt lat="48.65334" lon="7.29695">
        <ele>667</ele>
        <time>2013-04-07T09:12:07.000Z</time>
      </trkpt>
      <trkpt lat="48.65334" lon="7.29695">
        <ele>667</ele>
        <time>2013-04-07T09:12:27.000Z</time>
      </trkpt>
      <trkpt lat="48.65336" lon="7.29695">
        <ele>667</ele>
        <time>2013-04-07T09:14:32.000Z</time>
      </trkpt>
      <trkpt lat="48.65336" lon="7.29697">
        <ele>667</ele>
        <time>2013-04-07T09:14:40.000Z</time>
      </trkpt>
      <trkpt lat="48.65339" lon="7.29704">
        <ele>667</ele>
        <time>2013-04-07T09:14:43.000Z</time>
      </trkpt>
      <trkpt lat="48.65351" lon="7.29743">
        <ele>667</ele>
        <time>2013-04-07T09:14:48.000Z</time>
      </trkpt>
      <trkpt lat="48.65377" lon="7.29765">
        <ele>664</ele>
        <time>2013-04-07T09:14:52.000Z</time>
      </trkpt>
      <trkpt lat="48.65395" lon="7.29788">
        <ele>663</ele>
        <time>2013-04-07T09:14:55.000Z</time>
      </trkpt>
      <trkpt lat="48.65377" lon="7.29796">
        <ele>662</ele>
        <time>2013-04-07T09:14:58.000Z</time>
      </trkpt>
      <trkpt lat="48.6539" lon="7.29816">
        <ele>662</ele>
        <time>2013-04-07T09:15:03.000Z</time>
      </trkpt>
      <trkpt lat="48.65438" lon="7.2984">
        <ele>656</ele>
        <time>2013-04-07T09:15:09.000Z</time>
      </trkpt>
      <trkpt lat="48.65454" lon="7.29847">
        <ele>655</ele>
        <time>2013-04-07T09:15:11.000Z</time>
      </trkpt>
      <trkpt lat="48.65467" lon="7.29849">
        <ele>654</ele>
        <time>2013-04-07T09:15:14.000Z</time>
      </trkpt>
      <trkpt lat="48.65478" lon="7.29855">
        <ele>654</ele>
        <time>2013-04-07T09:15:17.000Z</time>
      </trkpt>
      <trkpt lat="48.65485" lon="7.29863">
        <ele>653</ele>
        <time>2013-04-07T09:15:19.000Z</time>
      </trkpt>
      <trkpt lat="48.65486" lon="7.2988">
        <ele>653</ele>
        <time>2013-04-07T09:15:22.000Z</time>
      </trkpt>
      <trkpt lat="48.65483" lon="7.29885">
        <ele>653</ele>
        <time>2013-04-07T09:15:25.000Z</time>
      </trkpt>
      <trkpt lat="48.65495" lon="7.29895">
        <ele>653</ele>
        <time>2013-04-07T09:15:28.000Z</time>
      </trkpt>
      <trkpt lat="48.65521" lon="7.29919">
        <ele>648</ele>
        <time>2013-04-07T09:15:32.000Z</time>
      </trkpt>
      <trkpt lat="48.6549" lon="7.29928">
        <ele>649</ele>
        <time>2013-04-07T09:15:35.000Z</time>
      </trkpt>
      <trkpt lat="48.65538" lon="7.29956">
        <ele>645</ele>
        <time>2013-04-07T09:15:39.000Z</time>
      </trkpt>
      <trkpt lat="48.65541" lon="7.2997">
        <ele>645</ele>
        <time>2013-04-07T09:15:42.000Z</time>
      </trkpt>
      <trkpt lat="48.65552" lon="7.29984">
        <ele>645</ele>
        <time>2013-04-07T09:15:45.000Z</time>
      </trkpt>
      <trkpt lat="48.65563" lon="7.30001">
        <ele>642</ele>
        <time>2013-04-07T09:15:48.000Z</time>
      </trkpt>
      <trkpt lat="48.65573" lon="7.30016">
        <ele>642</ele>
        <time>2013-04-07T09:15:50.000Z</time>
      </trkpt>
      <trkpt lat="48.65583" lon="7.30031">
        <ele>640</ele>
        <time>2013-04-07T09:15:52.000Z</time>
      </trkpt>
      <trkpt lat="48.65582" lon="7.30042">
        <ele>641</ele>
        <time>2013-04-07T09:15:54.000Z</time>
      </trkpt>
      <trkpt lat="48.65592" lon="7.30048">
        <ele>639</ele>
        <time>2013-04-07T09:15:56.000Z</time>
      </trkpt>
      <trkpt lat="48.6561" lon="7.30055">
        <ele>639</ele>
        <time>2013-04-07T09:15:59.000Z</time>
      </trkpt>
      <trkpt lat="48.65625" lon="7.30057">
        <ele>638</ele>
        <time>2013-04-07T09:16:02.000Z</time>
      </trkpt>
      <trkpt lat="48.65619" lon="7.30062">
        <ele>638</ele>
        <time>2013-04-07T09:16:04.000Z</time>
      </trkpt>
      <trkpt lat="48.65607" lon="7.30059">
        <ele>639</ele>
        <time>2013-04-07T09:16:06.000Z</time>
      </trkpt>
      <trkpt lat="48.65643" lon="7.30079">
        <ele>637</ele>
        <time>2013-04-07T09:16:10.000Z</time>
      </trkpt>
      <trkpt lat="48.65644" lon="7.30075">
        <ele>637</ele>
        <time>2013-04-07T09:16:13.000Z</time>
      </trkpt>
      <trkpt lat="48.65653" lon="7.30088">
        <ele>636</ele>
        <time>2013-04-07T09:16:18.000Z</time>
      </trkpt>
      <trkpt lat="48.65716" lon="7.30122">
        <ele>631</ele>
        <time>2013-04-07T09:16:25.000Z</time>
      </trkpt>
      <trkpt lat="48.65723" lon="7.30153">
        <ele>630</ele>
        <time>2013-04-07T09:16:27.000Z</time>
      </trkpt>
      <trkpt lat="48.65731" lon="7.30159">
        <ele>630</ele>
        <time>2013-04-07T09:16:29.000Z</time>
      </trkpt>
      <trkpt lat="48.65741" lon="7.30163">
        <ele>630</ele>
        <time>2013-04-07T09:16:32.000Z</time>
      </trkpt>
      <trkpt lat="48.65751" lon="7.30181">
        <ele>625</ele>
        <time>2013-04-07T09:16:35.000Z</time>
      </trkpt>
      <trkpt lat="48.65736" lon="7.30181">
        <ele>628</ele>
        <time>2013-04-07T09:16:38.000Z</time>
      </trkpt>
      <trkpt lat="48.6577" lon="7.302">
        <ele>621</ele>
        <time>2013-04-07T09:16:43.000Z</time>
      </trkpt>
      <trkpt lat="48.65801" lon="7.30211">
        <ele>618</ele>
        <time>2013-04-07T09:16:46.000Z</time>
      </trkpt>
      <trkpt lat="48.658" lon="7.30238">
        <ele>618</ele>
        <time>2013-04-07T09:16:49.000Z</time>
      </trkpt>
      <trkpt lat="48.65799" lon="7.30249">
        <ele>618</ele>
        <time>2013-04-07T09:16:51.000Z</time>
      </trkpt>
      <trkpt lat="48.65806" lon="7.30255">
        <ele>614</ele>
        <time>2013-04-07T09:16:53.000Z</time>
      </trkpt>
      <trkpt lat="48.65824" lon="7.30259">
        <ele>614</ele>
        <time>2013-04-07T09:16:56.000Z</time>
      </trkpt>
      <trkpt lat="48.6584" lon="7.30262">
        <ele>610</ele>
        <time>2013-04-07T09:16:58.000Z</time>
      </trkpt>
      <trkpt lat="48.65853" lon="7.30281">
        <ele>608</ele>
        <time>2013-04-07T09:17:00.000Z</time>
      </trkpt>
      <trkpt lat="48.65862" lon="7.30297">
        <ele>607</ele>
        <time>2013-04-07T09:17:02.000Z</time>
      </trkpt>
      <trkpt lat="48.65873" lon="7.30315">
        <ele>607</ele>
        <time>2013-04-07T09:17:05.000Z</time>
      </trkpt>
      <trkpt lat="48.6586" lon="7.30334">
        <ele>606</ele>
        <time>2013-04-07T09:17:08.000Z</time>
      </trkpt>
      <trkpt lat="48.65857" lon="7.30358">
        <ele>605</ele>
        <time>2013-04-07T09:17:11.000Z</time>
      </trkpt>
      <trkpt lat="48.65944" lon="7.30403">
        <ele>601</ele>
        <time>2013-04-07T09:17:18.000Z</time>
      </trkpt>
      <trkpt lat="48.65956" lon="7.30405">
        <ele>601</ele>
        <time>2013-04-07T09:17:20.000Z</time>
      </trkpt>
      <trkpt lat="48.65968" lon="7.30415">
        <ele>601</ele>
        <time>2013-04-07T09:17:22.000Z</time>
      </trkpt>
      <trkpt lat="48.65984" lon="7.30425">
        <ele>600</ele>
        <time>2013-04-07T09:17:25.000Z</time>
      </trkpt>
      <trkpt lat="48.66003" lon="7.30422">
        <ele>600</ele>
        <time>2013-04-07T09:17:28.000Z</time>
      </trkpt>
      <trkpt lat="48.66003" lon="7.3042">
        <ele>600</ele>
        <time>2013-04-07T09:17:30.000Z</time>
      </trkpt>
      <trkpt lat="48.66001" lon="7.30414">
        <ele>600</ele>
        <time>2013-04-07T09:17:32.000Z</time>
      </trkpt>
      <trkpt lat="48.65998" lon="7.30391">
        <ele>601</ele>
        <time>2013-04-07T09:17:35.000Z</time>
      </trkpt>
      <trkpt lat="48.65998" lon="7.30379">
        <ele>601</ele>
        <time>2013-04-07T09:17:37.000Z</time>
      </trkpt>
      <trkpt lat="48.65998" lon="7.30361">
        <ele>600</ele>
        <time>2013-04-07T09:17:39.000Z</time>
      </trkpt>
      <trkpt lat="48.65999" lon="7.30342">
        <ele>600</ele>
        <time>2013-04-07T09:17:42.000Z</time>
      </trkpt>
      <trkpt lat="48.65997" lon="7.30325">
        <ele>599</ele>
        <time>2013-04-07T09:17:44.000Z</time>
      </trkpt>
      <trkpt lat="48.65997" lon="7.30305">
        <ele>599</ele>
        <time>2013-04-07T09:17:46.000Z</time>
      </trkpt>
      <trkpt lat="48.66001" lon="7.30279">
        <ele>592</ele>
        <time>2013-04-07T09:17:49.000Z</time>
      </trkpt>
      <trkpt lat="48.66001" lon="7.30261">
        <ele>593</ele>
        <time>2013-04-07T09:17:51.000Z</time>
      </trkpt>
      <trkpt lat="48.66" lon="7.30249">
        <ele>594</ele>
        <time>2013-04-07T09:17:53.000Z</time>
      </trkpt>
      <trkpt lat="48.66" lon="7.30229">
        <ele>594</ele>
        <time>2013-04-07T09:17:56.000Z</time>
      </trkpt>
      <trkpt lat="48.65998" lon="7.30216">
        <ele>593</ele>
        <time>2013-04-07T09:17:58.000Z</time>
      </trkpt>
      <trkpt lat="48.66" lon="7.30207">
        <ele>592</ele>
        <time>2013-04-07T09:18:00.000Z</time>
      </trkpt>
      <trkpt lat="48.66005" lon="7.30191">
        <ele>583</ele>
        <time>2013-04-07T09:18:03.000Z</time>
      </trkpt>
      <trkpt lat="48.66016" lon="7.30198">
        <ele>583</ele>
        <time>2013-04-07T09:18:06.000Z</time>
      </trkpt>
      <trkpt lat="48.66024" lon="7.30201">
        <ele>582</ele>
        <time>2013-04-07T09:18:08.000Z</time>
      </trkpt>
      <trkpt lat="48.66015" lon="7.30192">
        <ele>583</ele>
        <time>2013-04-07T09:18:10.000Z</time>
      </trkpt>
      <trkpt lat="48.66036" lon="7.3019">
        <ele>580</ele>
        <time>2013-04-07T09:18:13.000Z</time>
      </trkpt>
      <trkpt lat="48.66042" lon="7.30186">
        <ele>579</ele>
        <time>2013-04-07T09:18:15.000Z</time>
      </trkpt>
      <trkpt lat="48.66048" lon="7.30184">
        <ele>578</ele>
        <time>2013-04-07T09:18:17.000Z</time>
      </trkpt>
      <trkpt lat="48.66055" lon="7.30178">
        <ele>576</ele>
        <time>2013-04-07T09:18:20.000Z</time>
      </trkpt>
      <trkpt lat="48.66062" lon="7.30169">
        <ele>574</ele>
        <time>2013-04-07T09:18:23.000Z</time>
      </trkpt>
      <trkpt lat="48.66063" lon="7.30159">
        <ele>570</ele>
        <time>2013-04-07T09:18:25.000Z</time>
      </trkpt>
      <trkpt lat="48.66061" lon="7.30164">
        <ele>570</ele>
        <time>2013-04-07T09:18:28.000Z</time>
      </trkpt>
      <trkpt lat="48.66071" lon="7.30156">
        <ele>568</ele>
        <time>2013-04-07T09:18:31.000Z</time>
      </trkpt>
      <trkpt lat="48.66061" lon="7.30152">
        <ele>570</ele>
        <time>2013-04-07T09:18:34.000Z</time>
      </trkpt>
      <trkpt lat="48.66068" lon="7.30163">
        <ele>569</ele>
        <time>2013-04-07T09:18:38.000Z</time>
      </trkpt>
      <trkpt lat="48.66079" lon="7.30178">
        <ele>571</ele>
        <time>2013-04-07T09:18:41.000Z</time>
      </trkpt>
      <trkpt lat="48.66141" lon="7.30204">
        <ele>557</ele>
        <time>2013-04-07T09:18:47.000Z</time>
      </trkpt>
      <trkpt lat="48.66145" lon="7.30212">
        <ele>558</ele>
        <time>2013-04-07T09:18:49.000Z</time>
      </trkpt>
      <trkpt lat="48.66145" lon="7.30223">
        <ele>559</ele>
        <time>2013-04-07T09:18:51.000Z</time>
      </trkpt>
      <trkpt lat="48.66154" lon="7.30232">
        <ele>559</ele>
        <time>2013-04-07T09:18:54.000Z</time>
      </trkpt>
      <trkpt lat="48.66145" lon="7.30237">
        <ele>560</ele>
        <time>2013-04-07T09:18:56.000Z</time>
      </trkpt>
      <trkpt lat="48.66168" lon="7.30246">
        <ele>556</ele>
        <time>2013-04-07T09:18:59.000Z</time>
      </trkpt>
      <trkpt lat="48.66177" lon="7.30256">
        <ele>558</ele>
        <time>2013-04-07T09:19:02.000Z</time>
      </trkpt>
      <trkpt lat="48.66187" lon="7.30275">
        <ele>557</ele>
        <time>2013-04-07T09:19:05.000Z</time>
      </trkpt>
      <trkpt lat="48.66195" lon="7.3028">
        <ele>556</ele>
        <time>2013-04-07T09:19:08.000Z</time>
      </trkpt>
      <trkpt lat="48.66185" lon="7.30284">
        <ele>558</ele>
        <time>2013-04-07T09:19:11.000Z</time>
      </trkpt>
      <trkpt lat="48.66244" lon="7.30303">
        <ele>554</ele>
        <time>2013-04-07T09:19:17.000Z</time>
      </trkpt>
      <trkpt lat="48.66259" lon="7.30308">
        <ele>543</ele>
        <time>2013-04-07T09:19:20.000Z</time>
      </trkpt>
      <trkpt lat="48.66253" lon="7.30313">
        <ele>545</ele>
        <time>2013-04-07T09:19:22.000Z</time>
      </trkpt>
      <trkpt lat="48.66286" lon="7.3031">
        <ele>539</ele>
        <time>2013-04-07T09:19:27.000Z</time>
      </trkpt>
      <trkpt lat="48.6631" lon="7.30324">
        <ele>538</ele>
        <time>2013-04-07T09:19:30.000Z</time>
      </trkpt>
      <trkpt lat="48.66304" lon="7.30319">
        <ele>538</ele>
        <time>2013-04-07T09:19:33.000Z</time>
      </trkpt>
      <trkpt lat="48.66312" lon="7.30322">
        <ele>538</ele>
        <time>2013-04-07T09:19:38.000Z</time>
      </trkpt>
      <trkpt lat="48.66393" lon="7.30327">
        <ele>517</ele>
        <time>2013-04-07T09:19:46.000Z</time>
      </trkpt>
      <trkpt lat="48.66401" lon="7.30333">
        <ele>518</ele>
        <time>2013-04-07T09:19:48.000Z</time>
      </trkpt>
      <trkpt lat="48.66422" lon="7.3033">
        <ele>514</ele>
        <time>2013-04-07T09:19:51.000Z</time>
      </trkpt>
      <trkpt lat="48.66437" lon="7.30337">
        <ele>521</ele>
        <time>2013-04-07T09:19:54.000Z</time>
      </trkpt>
      <trkpt lat="48.66444" lon="7.30337">
        <ele>521</ele>
        <time>2013-04-07T09:19:57.000Z</time>
      </trkpt>
      <trkpt lat="48.66451" lon="7.30332">
        <ele>502</ele>
        <time>2013-04-07T09:19:59.000Z</time>
      </trkpt>
      <trkpt lat="48.66448" lon="7.30336">
        <ele>520</ele>
        <time>2013-04-07T09:20:02.000Z</time>
      </trkpt>
      <trkpt lat="48.66506" lon="7.30348">
        <ele>505</ele>
        <time>2013-04-07T09:20:09.000Z</time>
      </trkpt>
      <trkpt lat="48.66532" lon="7.3035">
        <ele>504</ele>
        <time>2013-04-07T09:20:12.000Z</time>
      </trkpt>
      <trkpt lat="48.66546" lon="7.30351">
        <ele>502</ele>
        <time>2013-04-07T09:20:15.000Z</time>
      </trkpt>
      <trkpt lat="48.66564" lon="7.30352">
        <ele>499</ele>
        <time>2013-04-07T09:20:18.000Z</time>
      </trkpt>
      <trkpt lat="48.66577" lon="7.30355">
        <ele>498</ele>
        <time>2013-04-07T09:20:20.000Z</time>
      </trkpt>
      <trkpt lat="48.66597" lon="7.30354">
        <ele>488</ele>
        <time>2013-04-07T09:20:23.000Z</time>
      </trkpt>
      <trkpt lat="48.6661" lon="7.30355">
        <ele>487</ele>
        <time>2013-04-07T09:20:25.000Z</time>
      </trkpt>
      <trkpt lat="48.66632" lon="7.30355">
        <ele>485</ele>
        <time>2013-04-07T09:20:28.000Z</time>
      </trkpt>
      <trkpt lat="48.66644" lon="7.30358">
        <ele>483</ele>
        <time>2013-04-07T09:20:30.000Z</time>
      </trkpt>
      <trkpt lat="48.66679" lon="7.30367">
        <ele>472</ele>
        <time>2013-04-07T09:20:34.000Z</time>
      </trkpt>
      <trkpt lat="48.66702" lon="7.30365">
        <ele>470</ele>
        <time>2013-04-07T09:20:37.000Z</time>
      </trkpt>
      <trkpt lat="48.66712" lon="7.30362">
        <ele>468</ele>
        <time>2013-04-07T09:20:39.000Z</time>
      </trkpt>
      <trkpt lat="48.66732" lon="7.30364">
        <ele>466</ele>
        <time>2013-04-07T09:20:42.000Z</time>
      </trkpt>
      <trkpt lat="48.66758" lon="7.30372">
        <ele>452</ele>
        <time>2013-04-07T09:20:45.000Z</time>
      </trkpt>
      <trkpt lat="48.66777" lon="7.30365">
        <ele>449</ele>
        <time>2013-04-07T09:20:48.000Z</time>
      </trkpt>
      <trkpt lat="48.66787" lon="7.30386">
        <ele>450</ele>
        <time>2013-04-07T09:20:50.000Z</time>
      </trkpt>
      <trkpt lat="48.66792" lon="7.30404">
        <ele>451</ele>
        <time>2013-04-07T09:20:53.000Z</time>
      </trkpt>
      <trkpt lat="48.66789" lon="7.30418">
        <ele>466</ele>
        <time>2013-04-07T09:20:55.000Z</time>
      </trkpt>
      <trkpt lat="48.66812" lon="7.30447">
        <ele>464</ele>
        <time>2013-04-07T09:20:59.000Z</time>
      </trkpt>
      <trkpt lat="48.66793" lon="7.30442">
        <ele>467</ele>
        <time>2013-04-07T09:21:01.000Z</time>
      </trkpt>
      <trkpt lat="48.66838" lon="7.30469">
        <ele>444</ele>
        <time>2013-04-07T09:21:05.000Z</time>
      </trkpt>
      <trkpt lat="48.66852" lon="7.30488">
        <ele>446</ele>
        <time>2013-04-07T09:21:08.000Z</time>
      </trkpt>
      <trkpt lat="48.66864" lon="7.30507">
        <ele>453</ele>
        <time>2013-04-07T09:21:10.000Z</time>
      </trkpt>
      <trkpt lat="48.66882" lon="7.30517">
        <ele>449</ele>
        <time>2013-04-07T09:21:13.000Z</time>
      </trkpt>
      <trkpt lat="48.66896" lon="7.30528">
        <ele>447</ele>
        <time>2013-04-07T09:21:16.000Z</time>
      </trkpt>
      <trkpt lat="48.66923" lon="7.30561">
        <ele>430</ele>
        <time>2013-04-07T09:21:20.000Z</time>
      </trkpt>
      <trkpt lat="48.66941" lon="7.30566">
        <ele>427</ele>
        <time>2013-04-07T09:21:23.000Z</time>
      </trkpt>
      <trkpt lat="48.66922" lon="7.30571">
        <ele>434</ele>
        <time>2013-04-07T09:21:25.000Z</time>
      </trkpt>
      <trkpt lat="48.6693" lon="7.30586">
        <ele>440</ele>
        <time>2013-04-07T09:21:28.000Z</time>
      </trkpt>
      <trkpt lat="48.67001" lon="7.30632">
        <ele>407</ele>
        <time>2013-04-07T09:21:35.000Z</time>
      </trkpt>
      <trkpt lat="48.67013" lon="7.30646">
        <ele>409</ele>
        <time>2013-04-07T09:21:38.000Z</time>
      </trkpt>
      <trkpt lat="48.67019" lon="7.30652">
        <ele>409</ele>
        <time>2013-04-07T09:21:40.000Z</time>
      </trkpt>
      <trkpt lat="48.67029" lon="7.30663">
        <ele>406</ele>
        <time>2013-04-07T09:21:43.000Z</time>
      </trkpt>
      <trkpt lat="48.67037" lon="7.30672">
        <ele>410</ele>
        <time>2013-04-07T09:21:45.000Z</time>
      </trkpt>
      <trkpt lat="48.67046" lon="7.3069">
        <ele>408</ele>
        <time>2013-04-07T09:21:47.000Z</time>
      </trkpt>
      <trkpt lat="48.67054" lon="7.30694">
        <ele>406</ele>
        <time>2013-04-07T09:21:49.000Z</time>
      </trkpt>
      <trkpt lat="48.67064" lon="7.30715">
        <ele>406</ele>
        <time>2013-04-07T09:21:52.000Z</time>
      </trkpt>
      <trkpt lat="48.67076" lon="7.30726">
        <ele>404</ele>
        <time>2013-04-07T09:21:55.000Z</time>
      </trkpt>
      <trkpt lat="48.67084" lon="7.30743">
        <ele>392</ele>
        <time>2013-04-07T09:21:58.000Z</time>
      </trkpt>
      <trkpt lat="48.67097" lon="7.3077">
        <ele>388</ele>
        <time>2013-04-07T09:22:01.000Z</time>
      </trkpt>
      <trkpt lat="48.67103" lon="7.30782">
        <ele>387</ele>
        <time>2013-04-07T09:22:03.000Z</time>
      </trkpt>
      <trkpt lat="48.67118" lon="7.30794">
        <ele>385</ele>
        <time>2013-04-07T09:22:06.000Z</time>
      </trkpt>
      <trkpt lat="48.67131" lon="7.30826">
        <ele>382</ele>
        <time>2013-04-07T09:22:09.000Z</time>
      </trkpt>
      <trkpt lat="48.67124" lon="7.30851">
        <ele>388</ele>
        <time>2013-04-07T09:22:13.000Z</time>
      </trkpt>
      <trkpt lat="48.67189" lon="7.30917">
        <ele>366</ele>
        <time>2013-04-07T09:22:21.000Z</time>
      </trkpt>
      <trkpt lat="48.67194" lon="7.30935">
        <ele>366</ele>
        <time>2013-04-07T09:22:23.000Z</time>
      </trkpt>
      <trkpt lat="48.6721" lon="7.30951">
        <ele>365</ele>
        <time>2013-04-07T09:22:26.000Z</time>
      </trkpt>
      <trkpt lat="48.67217" lon="7.30968">
        <ele>364</ele>
        <time>2013-04-07T09:22:29.000Z</time>
      </trkpt>
      <trkpt lat="48.67218" lon="7.30989">
        <ele>363</ele>
        <time>2013-04-07T09:22:31.000Z</time>
      </trkpt>
      <trkpt lat="48.6721" lon="7.30985">
        <ele>364</ele>
        <time>2013-04-07T09:22:33.000Z</time>
      </trkpt>
      <trkpt lat="48.67223" lon="7.30988">
        <ele>363</ele>
        <time>2013-04-07T09:22:36.000Z</time>
      </trkpt>
      <trkpt lat="48.67233" lon="7.30977">
        <ele>362</ele>
        <time>2013-04-07T09:22:39.000Z</time>
      </trkpt>
      <trkpt lat="48.67238" lon="7.30979">
        <ele>361</ele>
        <time>2013-04-07T09:22:41.000Z</time>
      </trkpt>
      <trkpt lat="48.67237" lon="7.30984">
        <ele>361</ele>
        <time>2013-04-07T09:22:45.000Z</time>
      </trkpt>
      <trkpt lat="48.67237" lon="7.30976">
        <ele>362</ele>
        <time>2013-04-07T09:22:55.000Z</time>
      </trkpt>
      <trkpt lat="48.67237" lon="7.30976">
        <ele>362</ele>
        <time>2013-04-07T09:23:15.000Z</time>
      </trkpt>
      <trkpt lat="48.67235" lon="7.30986">
        <ele>361</ele>
        <time>2013-04-07T09:23:42.000Z</time>
      </trkpt>
      <trkpt lat="48.67238" lon="7.30984">
        <ele>361</ele>
        <time>2013-04-07T09:23:52.000Z</time>
      </trkpt>
      <trkpt lat="48.67242" lon="7.30987">
        <ele>360</ele>
        <time>2013-04-07T09:24:00.000Z</time>
      </trkpt>
      <trkpt lat="48.67242" lon="7.30987">
        <ele>360</ele>
        <time>2013-04-07T09:24:20.000Z</time>
      </trkpt>
      <trkpt lat="48.67243" lon="7.30983">
        <ele>360</ele>
        <time>2013-04-07T09:24:35.000Z</time>
      </trkpt>
      <trkpt lat="48.67243" lon="7.30983">
        <ele>360</ele>
        <time>2013-04-07T09:24:55.000Z</time>
      </trkpt>
      <trkpt lat="48.6724" lon="7.3098">
        <ele>361</ele>
        <time>2013-04-07T09:26:14.000Z</time>
      </trkpt>
      <trkpt lat="48.6724" lon="7.3098">
        <ele>361</ele>
        <time>2013-04-07T09:26:34.000Z</time>
      </trkpt>
      <trkpt lat="48.67242" lon="7.30973">
        <ele>362</ele>
        <time>2013-04-07T09:27:01.000Z</time>
      </trkpt>
      <trkpt lat="48.67241" lon="7.30971">
        <ele>362</ele>
        <time>2013-04-07T09:27:06.000Z</time>
      </trkpt>
      <trkpt lat="48.67234" lon="7.30961">
        <ele>363</ele>
        <time>2013-04-07T09:27:09.000Z</time>
      </trkpt>
      <trkpt lat="48.67237" lon="7.30959">
        <ele>363</ele>
        <time>2013-04-07T09:27:11.000Z</time>
      </trkpt>
      <trkpt lat="48.67235" lon="7.30951">
        <ele>364</ele>
        <time>2013-04-07T09:27:15.000Z</time>
      </trkpt>
      <trkpt lat="48.67234" lon="7.30941">
        <ele>364</ele>
        <time>2013-04-07T09:27:18.000Z</time>
      </trkpt>
      <trkpt lat="48.67232" lon="7.30933">
        <ele>365</ele>
        <time>2013-04-07T09:27:22.000Z</time>
      </trkpt>
      <trkpt lat="48.67229" lon="7.30925">
        <ele>365</ele>
        <time>2013-04-07T09:27:26.000Z</time>
      </trkpt>
      <trkpt lat="48.67226" lon="7.30927">
        <ele>365</ele>
        <time>2013-04-07T09:27:28.000Z</time>
      </trkpt>
      <trkpt lat="48.67229" lon="7.30914">
        <ele>368</ele>
        <time>2013-04-07T09:27:32.000Z</time>
      </trkpt>
      <trkpt lat="48.67223" lon="7.3091">
        <ele>368</ele>
        <time>2013-04-07T09:27:36.000Z</time>
      </trkpt>
      <trkpt lat="48.67219" lon="7.30908">
        <ele>368</ele>
        <time>2013-04-07T09:27:39.000Z</time>
      </trkpt>
      <trkpt lat="48.67219" lon="7.30899">
        <ele>369</ele>
        <time>2013-04-07T09:27:48.000Z</time>
      </trkpt>
      <trkpt lat="48.67218" lon="7.30897">
        <ele>369</ele>
        <time>2013-04-07T09:27:52.000Z</time>
      </trkpt>
      <trkpt lat="48.67218" lon="7.30895">
        <ele>369</ele>
        <time>2013-04-07T09:27:54.000Z</time>
      </trkpt>
      <trkpt lat="48.67215" lon="7.30886">
        <ele>369</ele>
        <time>2013-04-07T09:27:59.000Z</time>
      </trkpt>
      <trkpt lat="48.67215" lon="7.30878">
        <ele>370</ele>
        <time>2013-04-07T09:28:03.000Z</time>
      </trkpt>
      <trkpt lat="48.67214" lon="7.30869">
        <ele>370</ele>
        <time>2013-04-07T09:28:07.000Z</time>
      </trkpt>
      <trkpt lat="48.67211" lon="7.30867">
        <ele>370</ele>
        <time>2013-04-07T09:28:09.000Z</time>
      </trkpt>
      <trkpt lat="48.67208" lon="7.30862">
        <ele>370</ele>
        <time>2013-04-07T09:28:12.000Z</time>
      </trkpt>
      <trkpt lat="48.67206" lon="7.30853">
        <ele>370</ele>
        <time>2013-04-07T09:28:16.000Z</time>
      </trkpt>
      <trkpt lat="48.67205" lon="7.30846">
        <ele>370</ele>
        <time>2013-04-07T09:28:19.000Z</time>
      </trkpt>
      <trkpt lat="48.67203" lon="7.30841">
        <ele>370</ele>
        <time>2013-04-07T09:28:21.000Z</time>
      </trkpt>
      <trkpt lat="48.67192" lon="7.30835">
        <ele>369</ele>
        <time>2013-04-07T09:28:24.000Z</time>
      </trkpt>
      <trkpt lat="48.67197" lon="7.30821">
        <ele>373</ele>
        <time>2013-04-07T09:28:28.000Z</time>
      </trkpt>
      <trkpt lat="48.67193" lon="7.30815">
        <ele>373</ele>
        <time>2013-04-07T09:28:31.000Z</time>
      </trkpt>
      <trkpt lat="48.67192" lon="7.30807">
        <ele>373</ele>
        <time>2013-04-07T09:28:34.000Z</time>
      </trkpt>
      <trkpt lat="48.67191" lon="7.30798">
        <ele>373</ele>
        <time>2013-04-07T09:28:36.000Z</time>
      </trkpt>
      <trkpt lat="48.67189" lon="7.30789">
        <ele>373</ele>
        <time>2013-04-07T09:28:40.000Z</time>
      </trkpt>
      <trkpt lat="48.67196" lon="7.30784">
        <ele>374</ele>
        <time>2013-04-07T09:28:42.000Z</time>
      </trkpt>
      <trkpt lat="48.67188" lon="7.30765">
        <ele>372</ele>
        <time>2013-04-07T09:28:45.000Z</time>
      </trkpt>
      <trkpt lat="48.67185" lon="7.30764">
        <ele>372</ele>
        <time>2013-04-07T09:28:47.000Z</time>
      </trkpt>
      <trkpt lat="48.67184" lon="7.30756">
        <ele>371</ele>
        <time>2013-04-07T09:28:49.000Z</time>
      </trkpt>
      <trkpt lat="48.67181" lon="7.30747">
        <ele>373</ele>
        <time>2013-04-07T09:28:53.000Z</time>
      </trkpt>
      <trkpt lat="48.67178" lon="7.30737">
        <ele>373</ele>
        <time>2013-04-07T09:28:56.000Z</time>
      </trkpt>
      <trkpt lat="48.67179" lon="7.30725">
        <ele>376</ele>
        <time>2013-04-07T09:28:58.000Z</time>
      </trkpt>
      <trkpt lat="48.67178" lon="7.30717">
        <ele>376</ele>
        <time>2013-04-07T09:29:01.000Z</time>
      </trkpt>
      <trkpt lat="48.67176" lon="7.30705">
        <ele>377</ele>
        <time>2013-04-07T09:29:05.000Z</time>
      </trkpt>
      <trkpt lat="48.67173" lon="7.30706">
        <ele>377</ele>
        <time>2013-04-07T09:29:07.000Z</time>
      </trkpt>
      <trkpt lat="48.67173" lon="7.30684">
        <ele>375</ele>
        <time>2013-04-07T09:29:10.000Z</time>
      </trkpt>
      <trkpt lat="48.67172" lon="7.30682">
        <ele>374</ele>
        <time>2013-04-07T09:29:12.000Z</time>
      </trkpt>
      <trkpt lat="48.67171" lon="7.30674">
        <ele>372</ele>
        <time>2013-04-07T09:29:16.000Z</time>
      </trkpt>
      <trkpt lat="48.67168" lon="7.30662">
        <ele>372</ele>
        <time>2013-04-07T09:29:19.000Z</time>
      </trkpt>
      <trkpt lat="48.67176" lon="7.30665">
        <ele>375</ele>
        <time>2013-04-07T09:29:21.000Z</time>
      </trkpt>
      <trkpt lat="48.67167" lon="7.30661">
        <ele>370</ele>
        <time>2013-04-07T09:29:25.000Z</time>
      </trkpt>
      <trkpt lat="48.67162" lon="7.30651">
        <ele>372</ele>
        <time>2013-04-07T09:29:27.000Z</time>
      </trkpt>
      <trkpt lat="48.67161" lon="7.30644">
        <ele>373</ele>
        <time>2013-04-07T09:29:30.000Z</time>
      </trkpt>
      <trkpt lat="48.67158" lon="7.30637">
        <ele>374</ele>
        <time>2013-04-07T09:29:32.000Z</time>
      </trkpt>
      <trkpt lat="48.67151" lon="7.30633">
        <ele>375</ele>
        <time>2013-04-07T09:29:35.000Z</time>
      </trkpt>
      <trkpt lat="48.6715" lon="7.30612">
        <ele>376</ele>
        <time>2013-04-07T09:29:38.000Z</time>
      </trkpt>
      <trkpt lat="48.67146" lon="7.30608">
        <ele>376</ele>
        <time>2013-04-07T09:29:41.000Z</time>
      </trkpt>
      <trkpt lat="48.67144" lon="7.30599">
        <ele>376</ele>
        <time>2013-04-07T09:29:44.000Z</time>
      </trkpt>
      <trkpt lat="48.67147" lon="7.30594">
        <ele>376</ele>
        <time>2013-04-07T09:29:47.000Z</time>
      </trkpt>
      <trkpt lat="48.67134" lon="7.30583">
        <ele>377</ele>
        <time>2013-04-07T09:29:50.000Z</time>
      </trkpt>
      <trkpt lat="48.67131" lon="7.30581">
        <ele>377</ele>
        <time>2013-04-07T09:29:52.000Z</time>
      </trkpt>
      <trkpt lat="48.67135" lon="7.30573">
        <ele>377</ele>
        <time>2013-04-07T09:29:54.000Z</time>
      </trkpt>
      <trkpt lat="48.67126" lon="7.30567">
        <ele>377</ele>
        <time>2013-04-07T09:29:56.000Z</time>
      </trkpt>
      <trkpt lat="48.67142" lon="7.30567">
        <ele>377</ele>
        <time>2013-04-07T09:29:59.000Z</time>
      </trkpt>
      <trkpt lat="48.6712" lon="7.30556">
        <ele>377</ele>
        <time>2013-04-07T09:30:02.000Z</time>
      </trkpt>
      <trkpt lat="48.67116" lon="7.30541">
        <ele>377</ele>
        <time>2013-04-07T09:30:05.000Z</time>
      </trkpt>
      <trkpt lat="48.67114" lon="7.30533">
        <ele>377</ele>
        <time>2013-04-07T09:30:08.000Z</time>
      </trkpt>
      <trkpt lat="48.6711" lon="7.30532">
        <ele>376</ele>
        <time>2013-04-07T09:30:11.000Z</time>
      </trkpt>
      <trkpt lat="48.67109" lon="7.30521">
        <ele>376</ele>
        <time>2013-04-07T09:30:13.000Z</time>
      </trkpt>
      <trkpt lat="48.67105" lon="7.30517">
        <ele>376</ele>
        <time>2013-04-07T09:30:16.000Z</time>
      </trkpt>
      <trkpt lat="48.67118" lon="7.30516">
        <ele>377</ele>
        <time>2013-04-07T09:30:19.000Z</time>
      </trkpt>
      <trkpt lat="48.67105" lon="7.30503">
        <ele>375</ele>
        <time>2013-04-07T09:30:22.000Z</time>
      </trkpt>
      <trkpt lat="48.67094" lon="7.30497">
        <ele>376</ele>
        <time>2013-04-07T09:30:24.000Z</time>
      </trkpt>
      <trkpt lat="48.67089" lon="7.30491">
        <ele>376</ele>
        <time>2013-04-07T09:30:27.000Z</time>
      </trkpt>
      <trkpt lat="48.67086" lon="7.30484">
        <ele>377</ele>
        <time>2013-04-07T09:30:29.000Z</time>
      </trkpt>
      <trkpt lat="48.6708" lon="7.3048">
        <ele>377</ele>
        <time>2013-04-07T09:30:32.000Z</time>
      </trkpt>
      <trkpt lat="48.67078" lon="7.30477">
        <ele>378</ele>
        <time>2013-04-07T09:30:34.000Z</time>
      </trkpt>
      <trkpt lat="48.67072" lon="7.30476">
        <ele>379</ele>
        <time>2013-04-07T09:30:37.000Z</time>
      </trkpt>
      <trkpt lat="48.67068" lon="7.30464">
        <ele>380</ele>
        <time>2013-04-07T09:30:40.000Z</time>
      </trkpt>
      <trkpt lat="48.67067" lon="7.30461">
        <ele>380</ele>
        <time>2013-04-07T09:30:43.000Z</time>
      </trkpt>
      <trkpt lat="48.67067" lon="7.30451">
        <ele>380</ele>
        <time>2013-04-07T09:30:46.000Z</time>
      </trkpt>
      <trkpt lat="48.67055" lon="7.30439">
        <ele>381</ele>
        <time>2013-04-07T09:30:49.000Z</time>
      </trkpt>
      <trkpt lat="48.67051" lon="7.30434">
        <ele>381</ele>
        <time>2013-04-07T09:30:53.000Z</time>
      </trkpt>
      <trkpt lat="48.67043" lon="7.30425">
        <ele>381</ele>
        <time>2013-04-07T09:30:56.000Z</time>
      </trkpt>
      <trkpt lat="48.6704" lon="7.30413">
        <ele>383</ele>
        <time>2013-04-07T09:30:59.000Z</time>
      </trkpt>
      <trkpt lat="48.67036" lon="7.30407">
        <ele>383</ele>
        <time>2013-04-07T09:31:02.000Z</time>
      </trkpt>
      <trkpt lat="48.67035" lon="7.30396">
        <ele>383</ele>
        <time>2013-04-07T09:31:04.000Z</time>
      </trkpt>
      <trkpt lat="48.6703" lon="7.30396">
        <ele>383</ele>
        <time>2013-04-07T09:31:07.000Z</time>
      </trkpt>
      <trkpt lat="48.67025" lon="7.30389">
        <ele>383</ele>
        <time>2013-04-07T09:31:10.000Z</time>
      </trkpt>
      <trkpt lat="48.67019" lon="7.30376">
        <ele>383</ele>
        <time>2013-04-07T09:31:14.000Z</time>
      </trkpt>
      <trkpt lat="48.67017" lon="7.30371">
        <ele>383</ele>
        <time>2013-04-07T09:31:16.000Z</time>
      </trkpt>
      <trkpt lat="48.67013" lon="7.30366">
        <ele>383</ele>
        <time>2013-04-07T09:31:19.000Z</time>
      </trkpt>
      <trkpt lat="48.67007" lon="7.30364">
        <ele>383</ele>
        <time>2013-04-07T09:31:21.000Z</time>
      </trkpt>
      <trkpt lat="48.67004" lon="7.30362">
        <ele>383</ele>
        <time>2013-04-07T09:31:23.000Z</time>
      </trkpt>
      <trkpt lat="48.66999" lon="7.30353">
        <ele>386</ele>
        <time>2013-04-07T09:31:26.000Z</time>
      </trkpt>
      <trkpt lat="48.66996" lon="7.3035">
        <ele>385</ele>
        <time>2013-04-07T09:31:28.000Z</time>
      </trkpt>
      <trkpt lat="48.66993" lon="7.30345">
        <ele>385</ele>
        <time>2013-04-07T09:31:30.000Z</time>
      </trkpt>
      <trkpt lat="48.66989" lon="7.30331">
        <ele>383</ele>
        <time>2013-04-07T09:31:33.000Z</time>
      </trkpt>
      <trkpt lat="48.66984" lon="7.30332">
        <ele>384</ele>
        <time>2013-04-07T09:31:36.000Z</time>
      </trkpt>
      <trkpt lat="48.66977" lon="7.30327">
        <ele>386</ele>
        <time>2013-04-07T09:31:39.000Z</time>
      </trkpt>
      <trkpt lat="48.6697" lon="7.3032">
        <ele>387</ele>
        <time>2013-04-07T09:31:41.000Z</time>
      </trkpt>
      <trkpt lat="48.66969" lon="7.30312">
        <ele>387</ele>
        <time>2013-04-07T09:31:44.000Z</time>
      </trkpt>
      <trkpt lat="48.66965" lon="7.30299">
        <ele>388</ele>
        <time>2013-04-07T09:31:47.000Z</time>
      </trkpt>
      <trkpt lat="48.66959" lon="7.30302">
        <ele>388</ele>
        <time>2013-04-07T09:31:49.000Z</time>
      </trkpt>
      <trkpt lat="48.66955" lon="7.30295">
        <ele>388</ele>
        <time>2013-04-07T09:31:52.000Z</time>
      </trkpt>
      <trkpt lat="48.66953" lon="7.3029">
        <ele>388</ele>
        <time>2013-04-07T09:31:54.000Z</time>
      </trkpt>
      <trkpt lat="48.6695" lon="7.30286">
        <ele>388</ele>
        <time>2013-04-07T09:31:56.000Z</time>
      </trkpt>
      <trkpt lat="48.66949" lon="7.30272">
        <ele>388</ele>
        <time>2013-04-07T09:31:59.000Z</time>
      </trkpt>
      <trkpt lat="48.66949" lon="7.30268">
        <ele>388</ele>
        <time>2013-04-07T09:32:01.000Z</time>
      </trkpt>
      <trkpt lat="48.66946" lon="7.30256">
        <ele>387</ele>
        <time>2013-04-07T09:32:04.000Z</time>
      </trkpt>
      <trkpt lat="48.66942" lon="7.30254">
        <ele>387</ele>
        <time>2013-04-07T09:32:06.000Z</time>
      </trkpt>
      <trkpt lat="48.66937" lon="7.30242">
        <ele>388</ele>
        <time>2013-04-07T09:32:10.000Z</time>
      </trkpt>
      <trkpt lat="48.66931" lon="7.3024">
        <ele>387</ele>
        <time>2013-04-07T09:32:14.000Z</time>
      </trkpt>
      <trkpt lat="48.66928" lon="7.30237">
        <ele>387</ele>
        <time>2013-04-07T09:32:16.000Z</time>
      </trkpt>
      <trkpt lat="48.66928" lon="7.30232">
        <ele>387</ele>
        <time>2013-04-07T09:32:18.000Z</time>
      </trkpt>
      <trkpt lat="48.66927" lon="7.30216">
        <ele>388</ele>
        <time>2013-04-07T09:32:22.000Z</time>
      </trkpt>
      <trkpt lat="48.66925" lon="7.30211">
        <ele>388</ele>
        <time>2013-04-07T09:32:25.000Z</time>
      </trkpt>
      <trkpt lat="48.66924" lon="7.30206">
        <ele>388</ele>
        <time>2013-04-07T09:32:27.000Z</time>
      </trkpt>
      <trkpt lat="48.66923" lon="7.302">
        <ele>388</ele>
        <time>2013-04-07T09:32:29.000Z</time>
      </trkpt>
      <trkpt lat="48.66923" lon="7.30185">
        <ele>387</ele>
        <time>2013-04-07T09:32:32.000Z</time>
      </trkpt>
      <trkpt lat="48.6692" lon="7.30174">
        <ele>385</ele>
        <time>2013-04-07T09:32:35.000Z</time>
      </trkpt>
      <trkpt lat="48.6692" lon="7.30171">
        <ele>384</ele>
        <time>2013-04-07T09:32:37.000Z</time>
      </trkpt>
      <trkpt lat="48.66918" lon="7.30162">
        <ele>385</ele>
        <time>2013-04-07T09:32:40.000Z</time>
      </trkpt>
      <trkpt lat="48.66927" lon="7.30164">
        <ele>388</ele>
        <time>2013-04-07T09:32:42.000Z</time>
      </trkpt>
      <trkpt lat="48.66917" lon="7.30156">
        <ele>387</ele>
        <time>2013-04-07T09:32:46.000Z</time>
      </trkpt>
      <trkpt lat="48.66911" lon="7.30154">
        <ele>386</ele>
        <time>2013-04-07T09:32:53.000Z</time>
      </trkpt>
      <trkpt lat="48.6691" lon="7.30149">
        <ele>387</ele>
        <time>2013-04-07T09:33:03.000Z</time>
      </trkpt>
      <trkpt lat="48.66908" lon="7.30153">
        <ele>386</ele>
        <time>2013-04-07T09:33:07.000Z</time>
      </trkpt>
      <trkpt lat="48.66906" lon="7.30152">
        <ele>387</ele>
        <time>2013-04-07T09:33:12.000Z</time>
      </trkpt>
      <trkpt lat="48.66906" lon="7.30152">
        <ele>387</ele>
        <time>2013-04-07T09:33:32.000Z</time>
      </trkpt>
      <trkpt lat="48.66908" lon="7.30147">
        <ele>388</ele>
        <time>2013-04-07T09:33:55.000Z</time>
      </trkpt>
      <trkpt lat="48.66908" lon="7.30147">
        <ele>388</ele>
        <time>2013-04-07T09:34:15.000Z</time>
      </trkpt>
      <trkpt lat="48.66909" lon="7.30143">
        <ele>388</ele>
        <time>2013-04-07T09:34:25.000Z</time>
      </trkpt>
      <trkpt lat="48.66908" lon="7.30146">
        <ele>388</ele>
        <time>2013-04-07T09:34:31.000Z</time>
      </trkpt>
      <trkpt lat="48.66911" lon="7.30137">
        <ele>389</ele>
        <time>2013-04-07T09:34:35.000Z</time>
      </trkpt>
      <trkpt lat="48.66912" lon="7.30138">
        <ele>389</ele>
        <time>2013-04-07T09:34:37.000Z</time>
      </trkpt>
      <trkpt lat="48.66915" lon="7.3012">
        <ele>390</ele>
        <time>2013-04-07T09:34:41.000Z</time>
      </trkpt>
      <trkpt lat="48.66916" lon="7.30118">
        <ele>390</ele>
        <time>2013-04-07T09:34:43.000Z</time>
      </trkpt>
      <trkpt lat="48.66916" lon="7.30115">
        <ele>391</ele>
        <time>2013-04-07T09:34:45.000Z</time>
      </trkpt>
      <trkpt lat="48.66917" lon="7.30105">
        <ele>395</ele>
        <time>2013-04-07T09:34:49.000Z</time>
      </trkpt>
      <trkpt lat="48.66919" lon="7.30089">
        <ele>393</ele>
        <time>2013-04-07T09:34:53.000Z</time>
      </trkpt>
      <trkpt lat="48.6692" lon="7.30088">
        <ele>393</ele>
        <time>2013-04-07T09:34:55.000Z</time>
      </trkpt>
      <trkpt lat="48.66922" lon="7.3008">
        <ele>395</ele>
        <time>2013-04-07T09:34:59.000Z</time>
      </trkpt>
      <trkpt lat="48.66916" lon="7.30076">
        <ele>396</ele>
        <time>2013-04-07T09:35:03.000Z</time>
      </trkpt>
      <trkpt lat="48.66926" lon="7.30066">
        <ele>401</ele>
        <time>2013-04-07T09:35:07.000Z</time>
      </trkpt>
      <trkpt lat="48.66927" lon="7.30062">
        <ele>402</ele>
        <time>2013-04-07T09:35:09.000Z</time>
      </trkpt>
      <trkpt lat="48.66931" lon="7.30048">
        <ele>405</ele>
        <time>2013-04-07T09:35:13.000Z</time>
      </trkpt>
      <trkpt lat="48.6693" lon="7.30051">
        <ele>405</ele>
        <time>2013-04-07T09:35:16.000Z</time>
      </trkpt>
      <trkpt lat="48.66932" lon="7.30037">
        <ele>406</ele>
        <time>2013-04-07T09:35:20.000Z</time>
      </trkpt>
      <trkpt lat="48.66933" lon="7.30036">
        <ele>407</ele>
        <time>2013-04-07T09:35:24.000Z</time>
      </trkpt>
      <trkpt lat="48.66932" lon="7.3003">
        <ele>407</ele>
        <time>2013-04-07T09:35:26.000Z</time>
      </trkpt>
      <trkpt lat="48.66933" lon="7.30016">
        <ele>407</ele>
        <time>2013-04-07T09:35:30.000Z</time>
      </trkpt>
      <trkpt lat="48.66934" lon="7.30013">
        <ele>407</ele>
        <time>2013-04-07T09:35:32.000Z</time>
      </trkpt>
      <trkpt lat="48.66935" lon="7.30006">
        <ele>407</ele>
        <time>2013-04-07T09:35:36.000Z</time>
      </trkpt>
      <trkpt lat="48.66935" lon="7.30002">
        <ele>407</ele>
        <time>2013-04-07T09:35:40.000Z</time>
      </trkpt>
      <trkpt lat="48.66935" lon="7.29988">
        <ele>411</ele>
        <time>2013-04-07T09:35:44.000Z</time>
      </trkpt>
      <trkpt lat="48.6694" lon="7.2998">
        <ele>413</ele>
        <time>2013-04-07T09:35:48.000Z</time>
      </trkpt>
      <trkpt lat="48.66943" lon="7.29975">
        <ele>414</ele>
        <time>2013-04-07T09:35:52.000Z</time>
      </trkpt>
      <trkpt lat="48.66942" lon="7.29972">
        <ele>414</ele>
        <time>2013-04-07T09:35:54.000Z</time>
      </trkpt>
      <trkpt lat="48.66945" lon="7.29971">
        <ele>414</ele>
        <time>2013-04-07T09:35:56.000Z</time>
      </trkpt>
      <trkpt lat="48.66948" lon="7.29955">
        <ele>415</ele>
        <time>2013-04-07T09:36:00.000Z</time>
      </trkpt>
      <trkpt lat="48.66946" lon="7.2996">
        <ele>415</ele>
        <time>2013-04-07T09:36:03.000Z</time>
      </trkpt>
      <trkpt lat="48.6695" lon="7.29946">
        <ele>415</ele>
        <time>2013-04-07T09:36:07.000Z</time>
      </trkpt>
      <trkpt lat="48.66951" lon="7.2994">
        <ele>415</ele>
        <time>2013-04-07T09:36:11.000Z</time>
      </trkpt>
      <trkpt lat="48.66949" lon="7.29937">
        <ele>415</ele>
        <time>2013-04-07T09:36:14.000Z</time>
      </trkpt>
      <trkpt lat="48.66949" lon="7.29932">
        <ele>415</ele>
        <time>2013-04-07T09:36:19.000Z</time>
      </trkpt>
      <trkpt lat="48.66949" lon="7.29927">
        <ele>415</ele>
        <time>2013-04-07T09:36:22.000Z</time>
      </trkpt>
      <trkpt lat="48.6695" lon="7.2992">
        <ele>416</ele>
        <time>2013-04-07T09:36:26.000Z</time>
      </trkpt>
      <trkpt lat="48.66937" lon="7.29918">
        <ele>414</ele>
        <time>2013-04-07T09:36:30.000Z</time>
      </trkpt>
      <trkpt lat="48.66948" lon="7.29905">
        <ele>418</ele>
        <time>2013-04-07T09:36:34.000Z</time>
      </trkpt>
      <trkpt lat="48.66952" lon="7.29907">
        <ele>419</ele>
        <time>2013-04-07T09:36:36.000Z</time>
      </trkpt>
      <trkpt lat="48.66954" lon="7.29892">
        <ele>419</ele>
        <time>2013-04-07T09:36:40.000Z</time>
      </trkpt>
      <trkpt lat="48.66955" lon="7.29892">
        <ele>419</ele>
        <time>2013-04-07T09:36:42.000Z</time>
      </trkpt>
      <trkpt lat="48.66954" lon="7.29888">
        <ele>420</ele>
        <time>2013-04-07T09:36:44.000Z</time>
      </trkpt>
      <trkpt lat="48.66953" lon="7.29881">
        <ele>420</ele>
        <time>2013-04-07T09:36:47.000Z</time>
      </trkpt>
      <trkpt lat="48.66956" lon="7.2987">
        <ele>420</ele>
        <time>2013-04-07T09:36:49.000Z</time>
      </trkpt>
      <trkpt lat="48.66956" lon="7.29868">
        <ele>420</ele>
        <time>2013-04-07T09:36:53.000Z</time>
      </trkpt>
      <trkpt lat="48.66957" lon="7.29862">
        <ele>421</ele>
        <time>2013-04-07T09:36:55.000Z</time>
      </trkpt>
      <trkpt lat="48.66957" lon="7.29854">
        <ele>421</ele>
        <time>2013-04-07T09:36:57.000Z</time>
      </trkpt>
      <trkpt lat="48.66957" lon="7.29851">
        <ele>421</ele>
        <time>2013-04-07T09:37:01.000Z</time>
      </trkpt>
      <trkpt lat="48.66959" lon="7.29851">
        <ele>421</ele>
        <time>2013-04-07T09:37:03.000Z</time>
      </trkpt>
      <trkpt lat="48.66957" lon="7.29844">
        <ele>421</ele>
        <time>2013-04-07T09:37:08.000Z</time>
      </trkpt>
      <trkpt lat="48.66954" lon="7.29838">
        <ele>421</ele>
        <time>2013-04-07T09:37:11.000Z</time>
      </trkpt>
      <trkpt lat="48.66953" lon="7.29835">
        <ele>421</ele>
        <time>2013-04-07T09:37:15.000Z</time>
      </trkpt>
      <trkpt lat="48.66954" lon="7.29826">
        <ele>425</ele>
        <time>2013-04-07T09:37:17.000Z</time>
      </trkpt>
      <trkpt lat="48.66954" lon="7.2982">
        <ele>425</ele>
        <time>2013-04-07T09:37:21.000Z</time>
      </trkpt>
      <trkpt lat="48.66954" lon="7.29816">
        <ele>425</ele>
        <time>2013-04-07T09:37:23.000Z</time>
      </trkpt>
      <trkpt lat="48.66954" lon="7.29813">
        <ele>425</ele>
        <time>2013-04-07T09:37:26.000Z</time>
      </trkpt>
      <trkpt lat="48.66954" lon="7.29808">
        <ele>425</ele>
        <time>2013-04-07T09:37:31.000Z</time>
      </trkpt>
      <trkpt lat="48.66954" lon="7.29803">
        <ele>425</ele>
        <time>2013-04-07T09:37:34.000Z</time>
      </trkpt>
      <trkpt lat="48.66954" lon="7.29799">
        <ele>426</ele>
        <time>2013-04-07T09:37:37.000Z</time>
      </trkpt>
      <trkpt lat="48.66955" lon="7.29799">
        <ele>426</ele>
        <time>2013-04-07T09:37:41.000Z</time>
      </trkpt>
      <trkpt lat="48.66951" lon="7.29787">
        <ele>426</ele>
        <time>2013-04-07T09:37:45.000Z</time>
      </trkpt>
      <trkpt lat="48.66948" lon="7.2978">
        <ele>426</ele>
        <time>2013-04-07T09:37:49.000Z</time>
      </trkpt>
      <trkpt lat="48.66948" lon="7.29772">
        <ele>426</ele>
        <time>2013-04-07T09:37:53.000Z</time>
      </trkpt>
      <trkpt lat="48.66948" lon="7.29759">
        <ele>427</ele>
        <time>2013-04-07T09:37:56.000Z</time>
      </trkpt>
      <trkpt lat="48.66946" lon="7.2976">
        <ele>427</ele>
        <time>2013-04-07T09:37:58.000Z</time>
      </trkpt>
      <trkpt lat="48.66945" lon="7.29758">
        <ele>427</ele>
        <time>2013-04-07T09:38:01.000Z</time>
      </trkpt>
      <trkpt lat="48.66945" lon="7.29752">
        <ele>427</ele>
        <time>2013-04-07T09:38:05.000Z</time>
      </trkpt>
      <trkpt lat="48.66943" lon="7.29744">
        <ele>431</ele>
        <time>2013-04-07T09:38:09.000Z</time>
      </trkpt>
      <trkpt lat="48.66942" lon="7.29737">
        <ele>431</ele>
        <time>2013-04-07T09:38:13.000Z</time>
      </trkpt>
      <trkpt lat="48.66935" lon="7.29741">
        <ele>430</ele>
        <time>2013-04-07T09:38:15.000Z</time>
      </trkpt>
      <trkpt lat="48.66941" lon="7.29726">
        <ele>431</ele>
        <time>2013-04-07T09:38:19.000Z</time>
      </trkpt>
      <trkpt lat="48.6694" lon="7.29724">
        <ele>431</ele>
        <time>2013-04-07T09:38:25.000Z</time>
      </trkpt>
      <trkpt lat="48.66939" lon="7.29721">
        <ele>431</ele>
        <time>2013-04-07T09:38:29.000Z</time>
      </trkpt>
      <trkpt lat="48.66938" lon="7.29718">
        <ele>431</ele>
        <time>2013-04-07T09:38:32.000Z</time>
      </trkpt>
      <trkpt lat="48.66934" lon="7.29715">
        <ele>431</ele>
        <time>2013-04-07T09:38:36.000Z</time>
      </trkpt>
      <trkpt lat="48.66933" lon="7.29707">
        <ele>432</ele>
        <time>2013-04-07T09:38:40.000Z</time>
      </trkpt>
      <trkpt lat="48.66933" lon="7.29704">
        <ele>432</ele>
        <time>2013-04-07T09:38:42.000Z</time>
      </trkpt>
      <trkpt lat="48.66933" lon="7.29697">
        <ele>432</ele>
        <time>2013-04-07T09:38:46.000Z</time>
      </trkpt>
      <trkpt lat="48.66932" lon="7.29695">
        <ele>432</ele>
        <time>2013-04-07T09:38:49.000Z</time>
      </trkpt>
      <trkpt lat="48.66926" lon="7.29694">
        <ele>432</ele>
        <time>2013-04-07T09:38:55.000Z</time>
      </trkpt>
      <trkpt lat="48.66926" lon="7.2969">
        <ele>432</ele>
        <time>2013-04-07T09:38:57.000Z</time>
      </trkpt>
      <trkpt lat="48.66925" lon="7.29687">
        <ele>432</ele>
        <time>2013-04-07T09:38:59.000Z</time>
      </trkpt>
      <trkpt lat="48.66927" lon="7.29671">
        <ele>431</ele>
        <time>2013-04-07T09:39:02.000Z</time>
      </trkpt>
      <trkpt lat="48.66927" lon="7.29663">
        <ele>435</ele>
        <time>2013-04-07T09:39:05.000Z</time>
      </trkpt>
      <trkpt lat="48.66929" lon="7.29654">
        <ele>437</ele>
        <time>2013-04-07T09:39:09.000Z</time>
      </trkpt>
      <trkpt lat="48.66929" lon="7.29649">
        <ele>438</ele>
        <time>2013-04-07T09:39:11.000Z</time>
      </trkpt>
      <trkpt lat="48.66927" lon="7.29645">
        <ele>439</ele>
        <time>2013-04-07T09:39:15.000Z</time>
      </trkpt>
      <trkpt lat="48.66927" lon="7.29638">
        <ele>440</ele>
        <time>2013-04-07T09:39:17.000Z</time>
      </trkpt>
      <trkpt lat="48.66932" lon="7.29636">
        <ele>441</ele>
        <time>2013-04-07T09:39:21.000Z</time>
      </trkpt>
      <trkpt lat="48.66925" lon="7.2963">
        <ele>441</ele>
        <time>2013-04-07T09:39:26.000Z</time>
      </trkpt>
      <trkpt lat="48.66924" lon="7.29621">
        <ele>442</ele>
        <time>2013-04-07T09:39:28.000Z</time>
      </trkpt>
      <trkpt lat="48.66922" lon="7.29625">
        <ele>441</ele>
        <time>2013-04-07T09:39:30.000Z</time>
      </trkpt>
      <trkpt lat="48.66921" lon="7.29619">
        <ele>442</ele>
        <time>2013-04-07T09:39:32.000Z</time>
      </trkpt>
      <trkpt lat="48.6692" lon="7.29613">
        <ele>442</ele>
        <time>2013-04-07T09:39:36.000Z</time>
      </trkpt>
      <trkpt lat="48.66921" lon="7.29607">
        <ele>442</ele>
        <time>2013-04-07T09:39:39.000Z</time>
      </trkpt>
      <trkpt lat="48.66921" lon="7.29604">
        <ele>442</ele>
        <time>2013-04-07T09:39:42.000Z</time>
      </trkpt>
      <trkpt lat="48.6692" lon="7.296">
        <ele>442</ele>
        <time>2013-04-07T09:39:49.000Z</time>
      </trkpt>
      <trkpt lat="48.66919" lon="7.29595">
        <ele>441</ele>
        <time>2013-04-07T09:39:53.000Z</time>
      </trkpt>
      <trkpt lat="48.66919" lon="7.29591">
        <ele>441</ele>
        <time>2013-04-07T09:39:57.000Z</time>
      </trkpt>
      <trkpt lat="48.66918" lon="7.29588">
        <ele>440</ele>
        <time>2013-04-07T09:40:06.000Z</time>
      </trkpt>
      <trkpt lat="48.66917" lon="7.29583">
        <ele>440</ele>
        <time>2013-04-07T09:40:17.000Z</time>
      </trkpt>
      <trkpt lat="48.66916" lon="7.2958">
        <ele>441</ele>
        <time>2013-04-07T09:40:23.000Z</time>
      </trkpt>
      <trkpt lat="48.66928" lon="7.29582">
        <ele>448</ele>
        <time>2013-04-07T09:40:27.000Z</time>
      </trkpt>
      <trkpt lat="48.66912" lon="7.29573">
        <ele>445</ele>
        <time>2013-04-07T09:40:31.000Z</time>
      </trkpt>
      <trkpt lat="48.66912" lon="7.29564">
        <ele>448</ele>
        <time>2013-04-07T09:40:35.000Z</time>
      </trkpt>
      <trkpt lat="48.66912" lon="7.29558">
        <ele>450</ele>
        <time>2013-04-07T09:40:37.000Z</time>
      </trkpt>
      <trkpt lat="48.66911" lon="7.29557">
        <ele>450</ele>
        <time>2013-04-07T09:40:47.000Z</time>
      </trkpt>
      <trkpt lat="48.66908" lon="7.29551">
        <ele>452</ele>
        <time>2013-04-07T09:40:53.000Z</time>
      </trkpt>
      <trkpt lat="48.66907" lon="7.29543">
        <ele>453</ele>
        <time>2013-04-07T09:40:57.000Z</time>
      </trkpt>
      <trkpt lat="48.66909" lon="7.29549">
        <ele>452</ele>
        <time>2013-04-07T09:40:59.000Z</time>
      </trkpt>
      <trkpt lat="48.66904" lon="7.29535">
        <ele>454</ele>
        <time>2013-04-07T09:41:03.000Z</time>
      </trkpt>
      <trkpt lat="48.66901" lon="7.29534">
        <ele>454</ele>
        <time>2013-04-07T09:41:07.000Z</time>
      </trkpt>
      <trkpt lat="48.66901" lon="7.2953">
        <ele>455</ele>
        <time>2013-04-07T09:41:11.000Z</time>
      </trkpt>
      <trkpt lat="48.66901" lon="7.2952">
        <ele>455</ele>
        <time>2013-04-07T09:41:15.000Z</time>
      </trkpt>
      <trkpt lat="48.66901" lon="7.29516">
        <ele>455</ele>
        <time>2013-04-07T09:41:17.000Z</time>
      </trkpt>
      <trkpt lat="48.66913" lon="7.2952">
        <ele>455</ele>
        <time>2013-04-07T09:41:21.000Z</time>
      </trkpt>
      <trkpt lat="48.66899" lon="7.29503">
        <ele>456</ele>
        <time>2013-04-07T09:41:29.000Z</time>
      </trkpt>
      <trkpt lat="48.66896" lon="7.295">
        <ele>456</ele>
        <time>2013-04-07T09:41:33.000Z</time>
      </trkpt>
      <trkpt lat="48.66895" lon="7.29497">
        <ele>461</ele>
        <time>2013-04-07T09:41:36.000Z</time>
      </trkpt>
      <trkpt lat="48.66895" lon="7.29494">
        <ele>461</ele>
        <time>2013-04-07T09:41:39.000Z</time>
      </trkpt>
      <trkpt lat="48.66893" lon="7.2949">
        <ele>462</ele>
        <time>2013-04-07T09:41:43.000Z</time>
      </trkpt>
      <trkpt lat="48.66892" lon="7.29484">
        <ele>462</ele>
        <time>2013-04-07T09:41:45.000Z</time>
      </trkpt>
      <trkpt lat="48.6689" lon="7.29481">
        <ele>462</ele>
        <time>2013-04-07T09:41:50.000Z</time>
      </trkpt>
      <trkpt lat="48.66889" lon="7.29476">
        <ele>463</ele>
        <time>2013-04-07T09:41:53.000Z</time>
      </trkpt>
      <trkpt lat="48.66888" lon="7.29473">
        <ele>463</ele>
        <time>2013-04-07T09:41:56.000Z</time>
      </trkpt>
      <trkpt lat="48.66887" lon="7.2947">
        <ele>463</ele>
        <time>2013-04-07T09:41:58.000Z</time>
      </trkpt>
      <trkpt lat="48.66893" lon="7.29471">
        <ele>463</ele>
        <time>2013-04-07T09:42:01.000Z</time>
      </trkpt>
      <trkpt lat="48.66883" lon="7.29463">
        <ele>464</ele>
        <time>2013-04-07T09:42:04.000Z</time>
      </trkpt>
      <trkpt lat="48.66882" lon="7.29452">
        <ele>465</ele>
        <time>2013-04-07T09:42:08.000Z</time>
      </trkpt>
      <trkpt lat="48.6688" lon="7.29455">
        <ele>464</ele>
        <time>2013-04-07T09:42:12.000Z</time>
      </trkpt>
      <trkpt lat="48.66877" lon="7.29454">
        <ele>464</ele>
        <time>2013-04-07T09:42:15.000Z</time>
      </trkpt>
      <trkpt lat="48.66875" lon="7.2945">
        <ele>465</ele>
        <time>2013-04-07T09:42:18.000Z</time>
      </trkpt>
      <trkpt lat="48.66873" lon="7.29437">
        <ele>465</ele>
        <time>2013-04-07T09:42:22.000Z</time>
      </trkpt>
      <trkpt lat="48.6688" lon="7.29438">
        <ele>465</ele>
        <time>2013-04-07T09:42:26.000Z</time>
      </trkpt>
      <trkpt lat="48.66869" lon="7.29427">
        <ele>465</ele>
        <time>2013-04-07T09:42:30.000Z</time>
      </trkpt>
      <trkpt lat="48.66868" lon="7.29422">
        <ele>465</ele>
        <time>2013-04-07T09:42:35.000Z</time>
      </trkpt>
      <trkpt lat="48.66866" lon="7.2942">
        <ele>465</ele>
        <time>2013-04-07T09:42:38.000Z</time>
      </trkpt>
      <trkpt lat="48.66864" lon="7.29417">
        <ele>465</ele>
        <time>2013-04-07T09:42:44.000Z</time>
      </trkpt>
      <trkpt lat="48.66864" lon="7.2941">
        <ele>472</ele>
        <time>2013-04-07T09:42:48.000Z</time>
      </trkpt>
      <trkpt lat="48.66864" lon="7.29397">
        <ele>473</ele>
        <time>2013-04-07T09:42:52.000Z</time>
      </trkpt>
      <trkpt lat="48.66866" lon="7.29402">
        <ele>473</ele>
        <time>2013-04-07T09:42:57.000Z</time>
      </trkpt>
      <trkpt lat="48.66863" lon="7.29387">
        <ele>474</ele>
        <time>2013-04-07T09:43:01.000Z</time>
      </trkpt>
      <trkpt lat="48.66866" lon="7.29389">
        <ele>474</ele>
        <time>2013-04-07T09:43:03.000Z</time>
      </trkpt>
      <trkpt lat="48.66861" lon="7.2938">
        <ele>474</ele>
        <time>2013-04-07T09:43:06.000Z</time>
      </trkpt>
      <trkpt lat="48.66861" lon="7.29383">
        <ele>474</ele>
        <time>2013-04-07T09:43:09.000Z</time>
      </trkpt>
      <trkpt lat="48.66857" lon="7.2938">
        <ele>474</ele>
        <time>2013-04-07T09:43:11.000Z</time>
      </trkpt>
      <trkpt lat="48.66855" lon="7.29376">
        <ele>474</ele>
        <time>2013-04-07T09:43:15.000Z</time>
      </trkpt>
      <trkpt lat="48.66856" lon="7.29369">
        <ele>475</ele>
        <time>2013-04-07T09:43:17.000Z</time>
      </trkpt>
      <trkpt lat="48.66853" lon="7.29362">
        <ele>475</ele>
        <time>2013-04-07T09:43:21.000Z</time>
      </trkpt>
      <trkpt lat="48.66849" lon="7.29366">
        <ele>474</ele>
        <time>2013-04-07T09:43:23.000Z</time>
      </trkpt>
      <trkpt lat="48.66853" lon="7.29355">
        <ele>475</ele>
        <time>2013-04-07T09:43:27.000Z</time>
      </trkpt>
      <trkpt lat="48.66847" lon="7.29355">
        <ele>475</ele>
        <time>2013-04-07T09:43:29.000Z</time>
      </trkpt>
      <trkpt lat="48.66846" lon="7.2935">
        <ele>475</ele>
        <time>2013-04-07T09:43:32.000Z</time>
      </trkpt>
      <trkpt lat="48.66856" lon="7.29349">
        <ele>476</ele>
        <time>2013-04-07T09:43:35.000Z</time>
      </trkpt>
      <trkpt lat="48.66845" lon="7.29349">
        <ele>475</ele>
        <time>2013-04-07T09:43:43.000Z</time>
      </trkpt>
      <trkpt lat="48.66843" lon="7.29343">
        <ele>475</ele>
        <time>2013-04-07T09:43:49.000Z</time>
      </trkpt>
      <trkpt lat="48.66855" lon="7.29343">
        <ele>476</ele>
        <time>2013-04-07T09:43:52.000Z</time>
      </trkpt>
      <trkpt lat="48.66841" lon="7.29332">
        <ele>478</ele>
        <time>2013-04-07T09:43:55.000Z</time>
      </trkpt>
      <trkpt lat="48.6684" lon="7.29331">
        <ele>478</ele>
        <time>2013-04-07T09:43:58.000Z</time>
      </trkpt>
      <trkpt lat="48.66838" lon="7.29323">
        <ele>480</ele>
        <time>2013-04-07T09:44:02.000Z</time>
      </trkpt>
      <trkpt lat="48.66837" lon="7.29321">
        <ele>481</ele>
        <time>2013-04-07T09:44:04.000Z</time>
      </trkpt>
      <trkpt lat="48.66837" lon="7.29318">
        <ele>482</ele>
        <time>2013-04-07T09:44:06.000Z</time>
      </trkpt>
      <trkpt lat="48.66833" lon="7.29314">
        <ele>483</ele>
        <time>2013-04-07T09:44:10.000Z</time>
      </trkpt>
      <trkpt lat="48.66832" lon="7.29309">
        <ele>481</ele>
        <time>2013-04-07T09:44:14.000Z</time>
      </trkpt>
      <trkpt lat="48.6685" lon="7.29314">
        <ele>485</ele>
        <time>2013-04-07T09:44:18.000Z</time>
      </trkpt>
      <trkpt lat="48.66837" lon="7.293">
        <ele>487</ele>
        <time>2013-04-07T09:44:22.000Z</time>
      </trkpt>
      <trkpt lat="48.66829" lon="7.29296">
        <ele>482</ele>
        <time>2013-04-07T09:44:24.000Z</time>
      </trkpt>
      <trkpt lat="48.66827" lon="7.29281">
        <ele>484</ele>
        <time>2013-04-07T09:44:28.000Z</time>
      </trkpt>
      <trkpt lat="48.66826" lon="7.29286">
        <ele>484</ele>
        <time>2013-04-07T09:44:30.000Z</time>
      </trkpt>
      <trkpt lat="48.66824" lon="7.29275">
        <ele>485</ele>
        <time>2013-04-07T09:44:34.000Z</time>
      </trkpt>
      <trkpt lat="48.6682" lon="7.29278">
        <ele>484</ele>
        <time>2013-04-07T09:44:36.000Z</time>
      </trkpt>
      <trkpt lat="48.66821" lon="7.29271">
        <ele>485</ele>
        <time>2013-04-07T09:44:38.000Z</time>
      </trkpt>
      <trkpt lat="48.66819" lon="7.29259">
        <ele>486</ele>
        <time>2013-04-07T09:44:42.000Z</time>
      </trkpt>
      <trkpt lat="48.66818" lon="7.29251">
        <ele>487</ele>
        <time>2013-04-07T09:44:46.000Z</time>
      </trkpt>
      <trkpt lat="48.66816" lon="7.29252">
        <ele>486</ele>
        <time>2013-04-07T09:44:48.000Z</time>
      </trkpt>
      <trkpt lat="48.66813" lon="7.29251">
        <ele>486</ele>
        <time>2013-04-07T09:44:50.000Z</time>
      </trkpt>
      <trkpt lat="48.66809" lon="7.29243">
        <ele>490</ele>
        <time>2013-04-07T09:44:54.000Z</time>
      </trkpt>
      <trkpt lat="48.66803" lon="7.29241">
        <ele>490</ele>
        <time>2013-04-07T09:44:58.000Z</time>
      </trkpt>
      <trkpt lat="48.66801" lon="7.29228">
        <ele>490</ele>
        <time>2013-04-07T09:45:02.000Z</time>
      </trkpt>
      <trkpt lat="48.668" lon="7.29232">
        <ele>490</ele>
        <time>2013-04-07T09:45:04.000Z</time>
      </trkpt>
      <trkpt lat="48.66798" lon="7.29221">
        <ele>490</ele>
        <time>2013-04-07T09:45:07.000Z</time>
      </trkpt>
      <trkpt lat="48.66792" lon="7.29218">
        <ele>490</ele>
        <time>2013-04-07T09:45:11.000Z</time>
      </trkpt>
      <trkpt lat="48.6679" lon="7.29205">
        <ele>490</ele>
        <time>2013-04-07T09:45:14.000Z</time>
      </trkpt>
      <trkpt lat="48.66788" lon="7.29206">
        <ele>490</ele>
        <time>2013-04-07T09:45:16.000Z</time>
      </trkpt>
      <trkpt lat="48.66796" lon="7.29201">
        <ele>491</ele>
        <time>2013-04-07T09:45:20.000Z</time>
      </trkpt>
      <trkpt lat="48.66784" lon="7.29192">
        <ele>490</ele>
        <time>2013-04-07T09:45:24.000Z</time>
      </trkpt>
      <trkpt lat="48.66781" lon="7.29184">
        <ele>490</ele>
        <time>2013-04-07T09:45:28.000Z</time>
      </trkpt>
      <trkpt lat="48.66781" lon="7.2918">
        <ele>490</ele>
        <time>2013-04-07T09:45:30.000Z</time>
      </trkpt>
      <trkpt lat="48.66795" lon="7.29182">
        <ele>491</ele>
        <time>2013-04-07T09:45:34.000Z</time>
      </trkpt>
      <trkpt lat="48.66785" lon="7.29167">
        <ele>494</ele>
        <time>2013-04-07T09:45:38.000Z</time>
      </trkpt>
      <trkpt lat="48.66777" lon="7.29158">
        <ele>493</ele>
        <time>2013-04-07T09:45:42.000Z</time>
      </trkpt>
      <trkpt lat="48.66775" lon="7.29146">
        <ele>494</ele>
        <time>2013-04-07T09:45:46.000Z</time>
      </trkpt>
      <trkpt lat="48.66773" lon="7.29138">
        <ele>494</ele>
        <time>2013-04-07T09:45:48.000Z</time>
      </trkpt>
      <trkpt lat="48.66772" lon="7.29142">
        <ele>493</ele>
        <time>2013-04-07T09:45:50.000Z</time>
      </trkpt>
      <trkpt lat="48.6677" lon="7.29132">
        <ele>494</ele>
        <time>2013-04-07T09:45:54.000Z</time>
      </trkpt>
      <trkpt lat="48.66765" lon="7.2913">
        <ele>494</ele>
        <time>2013-04-07T09:45:56.000Z</time>
      </trkpt>
      <trkpt lat="48.66763" lon="7.29126">
        <ele>494</ele>
        <time>2013-04-07T09:45:58.000Z</time>
      </trkpt>
      <trkpt lat="48.66759" lon="7.29121">
        <ele>494</ele>
        <time>2013-04-07T09:46:01.000Z</time>
      </trkpt>
      <trkpt lat="48.66755" lon="7.2912">
        <ele>493</ele>
        <time>2013-04-07T09:46:03.000Z</time>
      </trkpt>
      <trkpt lat="48.6675" lon="7.29116">
        <ele>493</ele>
        <time>2013-04-07T09:46:07.000Z</time>
      </trkpt>
      <trkpt lat="48.66752" lon="7.29108">
        <ele>493</ele>
        <time>2013-04-07T09:46:09.000Z</time>
      </trkpt>
      <trkpt lat="48.66746" lon="7.29103">
        <ele>493</ele>
        <time>2013-04-07T09:46:12.000Z</time>
      </trkpt>
      <trkpt lat="48.66743" lon="7.29099">
        <ele>493</ele>
        <time>2013-04-07T09:46:15.000Z</time>
      </trkpt>
      <trkpt lat="48.6674" lon="7.2909">
        <ele>492</ele>
        <time>2013-04-07T09:46:20.000Z</time>
      </trkpt>
      <trkpt lat="48.66738" lon="7.29081">
        <ele>493</ele>
        <time>2013-04-07T09:46:23.000Z</time>
      </trkpt>
      <trkpt lat="48.66727" lon="7.29075">
        <ele>495</ele>
        <time>2013-04-07T09:46:26.000Z</time>
      </trkpt>
      <trkpt lat="48.66733" lon="7.29067">
        <ele>495</ele>
        <time>2013-04-07T09:46:28.000Z</time>
      </trkpt>
      <trkpt lat="48.66733" lon="7.29063">
        <ele>495</ele>
        <time>2013-04-07T09:46:30.000Z</time>
      </trkpt>
      <trkpt lat="48.66736" lon="7.29064">
        <ele>495</ele>
        <time>2013-04-07T09:46:33.000Z</time>
      </trkpt>
      <trkpt lat="48.66727" lon="7.29048">
        <ele>496</ele>
        <time>2013-04-07T09:46:37.000Z</time>
      </trkpt>
      <trkpt lat="48.66725" lon="7.29042">
        <ele>496</ele>
        <time>2013-04-07T09:46:39.000Z</time>
      </trkpt>
      <trkpt lat="48.66722" lon="7.29032">
        <ele>497</ele>
        <time>2013-04-07T09:46:43.000Z</time>
      </trkpt>
      <trkpt lat="48.6672" lon="7.29019">
        <ele>497</ele>
        <time>2013-04-07T09:46:46.000Z</time>
      </trkpt>
      <trkpt lat="48.66717" lon="7.2902">
        <ele>497</ele>
        <time>2013-04-07T09:46:48.000Z</time>
      </trkpt>
      <trkpt lat="48.66714" lon="7.29016">
        <ele>497</ele>
        <time>2013-04-07T09:46:51.000Z</time>
      </trkpt>
      <trkpt lat="48.66713" lon="7.29009">
        <ele>497</ele>
        <time>2013-04-07T09:46:53.000Z</time>
      </trkpt>
      <trkpt lat="48.6671" lon="7.28996">
        <ele>502</ele>
        <time>2013-04-07T09:46:57.000Z</time>
      </trkpt>
      <trkpt lat="48.66706" lon="7.28986">
        <ele>502</ele>
        <time>2013-04-07T09:47:01.000Z</time>
      </trkpt>
      <trkpt lat="48.66702" lon="7.28985">
        <ele>502</ele>
        <time>2013-04-07T09:47:05.000Z</time>
      </trkpt>
      <trkpt lat="48.667" lon="7.28984">
        <ele>502</ele>
        <time>2013-04-07T09:47:07.000Z</time>
      </trkpt>
      <trkpt lat="48.66698" lon="7.28982">
        <ele>502</ele>
        <time>2013-04-07T09:47:09.000Z</time>
      </trkpt>
      <trkpt lat="48.66695" lon="7.2898">
        <ele>503</ele>
        <time>2013-04-07T09:47:11.000Z</time>
      </trkpt>
      <trkpt lat="48.66688" lon="7.2897">
        <ele>503</ele>
        <time>2013-04-07T09:47:15.000Z</time>
      </trkpt>
      <trkpt lat="48.66686" lon="7.28969">
        <ele>503</ele>
        <time>2013-04-07T09:47:17.000Z</time>
      </trkpt>
      <trkpt lat="48.66684" lon="7.28968">
        <ele>503</ele>
        <time>2013-04-07T09:47:19.000Z</time>
      </trkpt>
      <trkpt lat="48.66681" lon="7.28958">
        <ele>504</ele>
        <time>2013-04-07T09:47:23.000Z</time>
      </trkpt>
      <trkpt lat="48.66675" lon="7.28957">
        <ele>504</ele>
        <time>2013-04-07T09:47:27.000Z</time>
      </trkpt>
      <trkpt lat="48.66671" lon="7.28954">
        <ele>504</ele>
        <time>2013-04-07T09:47:31.000Z</time>
      </trkpt>
      <trkpt lat="48.66669" lon="7.28947">
        <ele>504</ele>
        <time>2013-04-07T09:47:33.000Z</time>
      </trkpt>
      <trkpt lat="48.66665" lon="7.28937">
        <ele>507</ele>
        <time>2013-04-07T09:47:37.000Z</time>
      </trkpt>
      <trkpt lat="48.66662" lon="7.28937">
        <ele>507</ele>
        <time>2013-04-07T09:47:41.000Z</time>
      </trkpt>
      <trkpt lat="48.66656" lon="7.28931">
        <ele>507</ele>
        <time>2013-04-07T09:47:45.000Z</time>
      </trkpt>
      <trkpt lat="48.66652" lon="7.2893">
        <ele>507</ele>
        <time>2013-04-07T09:47:49.000Z</time>
      </trkpt>
      <trkpt lat="48.66647" lon="7.28926">
        <ele>507</ele>
        <time>2013-04-07T09:47:53.000Z</time>
      </trkpt>
      <trkpt lat="48.66645" lon="7.28924">
        <ele>507</ele>
        <time>2013-04-07T09:47:55.000Z</time>
      </trkpt>
      <trkpt lat="48.66639" lon="7.28919">
        <ele>507</ele>
        <time>2013-04-07T09:47:59.000Z</time>
      </trkpt>
      <trkpt lat="48.66637" lon="7.28917">
        <ele>508</ele>
        <time>2013-04-07T09:48:01.000Z</time>
      </trkpt>
      <trkpt lat="48.66635" lon="7.28915">
        <ele>512</ele>
        <time>2013-04-07T09:48:03.000Z</time>
      </trkpt>
      <trkpt lat="48.66631" lon="7.28911">
        <ele>513</ele>
        <time>2013-04-07T09:48:07.000Z</time>
      </trkpt>
      <trkpt lat="48.66629" lon="7.28909">
        <ele>513</ele>
        <time>2013-04-07T09:48:09.000Z</time>
      </trkpt>
      <trkpt lat="48.66621" lon="7.28908">
        <ele>513</ele>
        <time>2013-04-07T09:48:13.000Z</time>
      </trkpt>
      <trkpt lat="48.66617" lon="7.28899">
        <ele>514</ele>
        <time>2013-04-07T09:48:17.000Z</time>
      </trkpt>
      <trkpt lat="48.66615" lon="7.28903">
        <ele>514</ele>
        <time>2013-04-07T09:48:19.000Z</time>
      </trkpt>
      <trkpt lat="48.6661" lon="7.28902">
        <ele>514</ele>
        <time>2013-04-07T09:48:21.000Z</time>
      </trkpt>
      <trkpt lat="48.66606" lon="7.28894">
        <ele>514</ele>
        <time>2013-04-07T09:48:25.000Z</time>
      </trkpt>
      <trkpt lat="48.66616" lon="7.289">
        <ele>514</ele>
        <time>2013-04-07T09:48:29.000Z</time>
      </trkpt>
      <trkpt lat="48.66598" lon="7.28891">
        <ele>514</ele>
        <time>2013-04-07T09:48:33.000Z</time>
      </trkpt>
      <trkpt lat="48.66594" lon="7.28886">
        <ele>515</ele>
        <time>2013-04-07T09:48:37.000Z</time>
      </trkpt>
      <trkpt lat="48.66587" lon="7.28886">
        <ele>515</ele>
        <time>2013-04-07T09:48:41.000Z</time>
      </trkpt>
      <trkpt lat="48.66586" lon="7.28885">
        <ele>515</ele>
        <time>2013-04-07T09:48:43.000Z</time>
      </trkpt>
      <trkpt lat="48.66582" lon="7.28881">
        <ele>518</ele>
        <time>2013-04-07T09:48:47.000Z</time>
      </trkpt>
      <trkpt lat="48.66578" lon="7.28873">
        <ele>519</ele>
        <time>2013-04-07T09:48:51.000Z</time>
      </trkpt>
      <trkpt lat="48.66574" lon="7.28871">
        <ele>519</ele>
        <time>2013-04-07T09:48:55.000Z</time>
      </trkpt>
      <trkpt lat="48.66572" lon="7.2887">
        <ele>519</ele>
        <time>2013-04-07T09:48:57.000Z</time>
      </trkpt>
      <trkpt lat="48.6657" lon="7.28868">
        <ele>519</ele>
        <time>2013-04-07T09:48:59.000Z</time>
      </trkpt>
      <trkpt lat="48.66568" lon="7.28866">
        <ele>519</ele>
        <time>2013-04-07T09:49:01.000Z</time>
      </trkpt>
      <trkpt lat="48.6656" lon="7.28864">
        <ele>520</ele>
        <time>2013-04-07T09:49:05.000Z</time>
      </trkpt>
      <trkpt lat="48.6656" lon="7.28859">
        <ele>520</ele>
        <time>2013-04-07T09:49:07.000Z</time>
      </trkpt>
      <trkpt lat="48.66553" lon="7.28854">
        <ele>520</ele>
        <time>2013-04-07T09:49:11.000Z</time>
      </trkpt>
      <trkpt lat="48.66551" lon="7.28854">
        <ele>520</ele>
        <time>2013-04-07T09:49:13.000Z</time>
      </trkpt>
      <trkpt lat="48.66549" lon="7.28853">
        <ele>520</ele>
        <time>2013-04-07T09:49:15.000Z</time>
      </trkpt>
      <trkpt lat="48.66544" lon="7.28855">
        <ele>520</ele>
        <time>2013-04-07T09:49:19.000Z</time>
      </trkpt>
      <trkpt lat="48.66545" lon="7.28858">
        <ele>520</ele>
        <time>2013-04-07T09:49:21.000Z</time>
      </trkpt>
      <trkpt lat="48.66542" lon="7.28859">
        <ele>520</ele>
        <time>2013-04-07T09:49:23.000Z</time>
      </trkpt>
      <trkpt lat="48.66543" lon="7.28865">
        <ele>520</ele>
        <time>2013-04-07T09:49:25.000Z</time>
      </trkpt>
      <trkpt lat="48.66544" lon="7.28863">
        <ele>520</ele>
        <time>2013-04-07T09:49:27.000Z</time>
      </trkpt>
      <trkpt lat="48.66544" lon="7.28871">
        <ele>520</ele>
        <time>2013-04-07T09:49:29.000Z</time>
      </trkpt>
      <trkpt lat="48.66544" lon="7.28874">
        <ele>520</ele>
        <time>2013-04-07T09:49:31.000Z</time>
      </trkpt>
      <trkpt lat="48.66547" lon="7.28888">
        <ele>520</ele>
        <time>2013-04-07T09:49:35.000Z</time>
      </trkpt>
      <trkpt lat="48.66549" lon="7.2889">
        <ele>520</ele>
        <time>2013-04-07T09:49:37.000Z</time>
      </trkpt>
      <trkpt lat="48.66553" lon="7.28894">
        <ele>519</ele>
        <time>2013-04-07T09:49:41.000Z</time>
      </trkpt>
      <trkpt lat="48.66553" lon="7.28899">
        <ele>519</ele>
        <time>2013-04-07T09:49:43.000Z</time>
      </trkpt>
      <trkpt lat="48.66558" lon="7.28902">
        <ele>518</ele>
        <time>2013-04-07T09:49:47.000Z</time>
      </trkpt>
      <trkpt lat="48.66559" lon="7.28908">
        <ele>518</ele>
        <time>2013-04-07T09:49:49.000Z</time>
      </trkpt>
      <trkpt lat="48.66561" lon="7.28915">
        <ele>517</ele>
        <time>2013-04-07T09:49:53.000Z</time>
      </trkpt>
      <trkpt lat="48.66561" lon="7.2892">
        <ele>517</ele>
        <time>2013-04-07T09:49:56.000Z</time>
      </trkpt>
      <trkpt lat="48.66565" lon="7.28925">
        <ele>517</ele>
        <time>2013-04-07T09:49:59.000Z</time>
      </trkpt>
      <trkpt lat="48.66567" lon="7.28928">
        <ele>516</ele>
        <time>2013-04-07T09:50:01.000Z</time>
      </trkpt>
      <trkpt lat="48.6657" lon="7.28931">
        <ele>516</ele>
        <time>2013-04-07T09:50:03.000Z</time>
      </trkpt>
      <trkpt lat="48.66572" lon="7.28934">
        <ele>516</ele>
        <time>2013-04-07T09:50:05.000Z</time>
      </trkpt>
      <trkpt lat="48.66578" lon="7.28945">
        <ele>517</ele>
        <time>2013-04-07T09:50:08.000Z</time>
      </trkpt>
      <trkpt lat="48.66579" lon="7.28942">
        <ele>516</ele>
        <time>2013-04-07T09:50:10.000Z</time>
      </trkpt>
      <trkpt lat="48.66582" lon="7.28953">
        <ele>517</ele>
        <time>2013-04-07T09:50:12.000Z</time>
      </trkpt>
      <trkpt lat="48.66584" lon="7.28953">
        <ele>509</ele>
        <time>2013-04-07T09:50:14.000Z</time>
      </trkpt>
      <trkpt lat="48.66589" lon="7.28962">
        <ele>509</ele>
        <time>2013-04-07T09:50:19.000Z</time>
      </trkpt>
      <trkpt lat="48.66596" lon="7.28968">
        <ele>508</ele>
        <time>2013-04-07T09:50:25.000Z</time>
      </trkpt>
      <trkpt lat="48.66595" lon="7.28975">
        <ele>508</ele>
        <time>2013-04-07T09:50:27.000Z</time>
      </trkpt>
      <trkpt lat="48.66599" lon="7.28973">
        <ele>508</ele>
        <time>2013-04-07T09:50:29.000Z</time>
      </trkpt>
      <trkpt lat="48.66603" lon="7.28977">
        <ele>508</ele>
        <time>2013-04-07T09:50:32.000Z</time>
      </trkpt>
      <trkpt lat="48.66603" lon="7.28989">
        <ele>508</ele>
        <time>2013-04-07T09:50:35.000Z</time>
      </trkpt>
      <trkpt lat="48.66604" lon="7.28995">
        <ele>508</ele>
        <time>2013-04-07T09:50:37.000Z</time>
      </trkpt>
      <trkpt lat="48.66605" lon="7.29002">
        <ele>507</ele>
        <time>2013-04-07T09:50:40.000Z</time>
      </trkpt>
      <trkpt lat="48.66608" lon="7.29016">
        <ele>507</ele>
        <time>2013-04-07T09:50:43.000Z</time>
      </trkpt>
      <trkpt lat="48.6661" lon="7.29018">
        <ele>506</ele>
        <time>2013-04-07T09:50:46.000Z</time>
      </trkpt>
      <trkpt lat="48.66611" lon="7.29028">
        <ele>506</ele>
        <time>2013-04-07T09:50:49.000Z</time>
      </trkpt>
      <trkpt lat="48.66611" lon="7.29034">
        <ele>506</ele>
        <time>2013-04-07T09:50:51.000Z</time>
      </trkpt>
      <trkpt lat="48.66613" lon="7.29044">
        <ele>506</ele>
        <time>2013-04-07T09:50:54.000Z</time>
      </trkpt>
      <trkpt lat="48.66615" lon="7.29053">
        <ele>506</ele>
        <time>2013-04-07T09:50:57.000Z</time>
      </trkpt>
      <trkpt lat="48.66615" lon="7.29062">
        <ele>506</ele>
        <time>2013-04-07T09:50:59.000Z</time>
      </trkpt>
      <trkpt lat="48.66611" lon="7.29057">
        <ele>506</ele>
        <time>2013-04-07T09:51:01.000Z</time>
      </trkpt>
      <trkpt lat="48.66618" lon="7.29076">
        <ele>506</ele>
        <time>2013-04-07T09:51:04.000Z</time>
      </trkpt>
      <trkpt lat="48.66616" lon="7.29072">
        <ele>506</ele>
        <time>2013-04-07T09:51:06.000Z</time>
      </trkpt>
      <trkpt lat="48.66621" lon="7.29089">
        <ele>508</ele>
        <time>2013-04-07T09:51:09.000Z</time>
      </trkpt>
      <trkpt lat="48.66622" lon="7.29098">
        <ele>508</ele>
        <time>2013-04-07T09:51:12.000Z</time>
      </trkpt>
      <trkpt lat="48.66622" lon="7.29102">
        <ele>508</ele>
        <time>2013-04-07T09:51:14.000Z</time>
      </trkpt>
      <trkpt lat="48.66625" lon="7.29119">
        <ele>508</ele>
        <time>2013-04-07T09:51:18.000Z</time>
      </trkpt>
      <trkpt lat="48.66627" lon="7.29124">
        <ele>508</ele>
        <time>2013-04-07T09:51:22.000Z</time>
      </trkpt>
      <trkpt lat="48.66628" lon="7.2913">
        <ele>508</ele>
        <time>2013-04-07T09:51:24.000Z</time>
      </trkpt>
      <trkpt lat="48.66631" lon="7.29134">
        <ele>508</ele>
        <time>2013-04-07T09:51:27.000Z</time>
      </trkpt>
      <trkpt lat="48.66631" lon="7.29144">
        <ele>508</ele>
        <time>2013-04-07T09:51:29.000Z</time>
      </trkpt>
      <trkpt lat="48.66632" lon="7.2915">
        <ele>508</ele>
        <time>2013-04-07T09:51:32.000Z</time>
      </trkpt>
      <trkpt lat="48.66634" lon="7.29159">
        <ele>508</ele>
        <time>2013-04-07T09:51:35.000Z</time>
      </trkpt>
      <trkpt lat="48.66635" lon="7.29165">
        <ele>507</ele>
        <time>2013-04-07T09:51:37.000Z</time>
      </trkpt>
      <trkpt lat="48.66636" lon="7.29168">
        <ele>511</ele>
        <time>2013-04-07T09:51:39.000Z</time>
      </trkpt>
      <trkpt lat="48.66637" lon="7.29176">
        <ele>511</ele>
        <time>2013-04-07T09:51:41.000Z</time>
      </trkpt>
      <trkpt lat="48.66639" lon="7.29184">
        <ele>511</ele>
        <time>2013-04-07T09:51:44.000Z</time>
      </trkpt>
      <trkpt lat="48.66642" lon="7.29191">
        <ele>511</ele>
        <time>2013-04-07T09:51:47.000Z</time>
      </trkpt>
      <trkpt lat="48.66642" lon="7.29201">
        <ele>511</ele>
        <time>2013-04-07T09:51:50.000Z</time>
      </trkpt>
      <trkpt lat="48.66642" lon="7.29206">
        <ele>512</ele>
        <time>2013-04-07T09:51:52.000Z</time>
      </trkpt>
      <trkpt lat="48.66644" lon="7.29216">
        <ele>512</ele>
        <time>2013-04-07T09:51:55.000Z</time>
      </trkpt>
      <trkpt lat="48.66645" lon="7.29218">
        <ele>512</ele>
        <time>2013-04-07T09:51:57.000Z</time>
      </trkpt>
      <trkpt lat="48.66646" lon="7.29232">
        <ele>511</ele>
        <time>2013-04-07T09:52:00.000Z</time>
      </trkpt>
      <trkpt lat="48.66646" lon="7.29238">
        <ele>511</ele>
        <time>2013-04-07T09:52:02.000Z</time>
      </trkpt>
      <trkpt lat="48.66647" lon="7.29246">
        <ele>511</ele>
        <time>2013-04-07T09:52:05.000Z</time>
      </trkpt>
      <trkpt lat="48.66648" lon="7.29252">
        <ele>513</ele>
        <time>2013-04-07T09:52:07.000Z</time>
      </trkpt>
      <trkpt lat="48.66648" lon="7.29257">
        <ele>513</ele>
        <time>2013-04-07T09:52:09.000Z</time>
      </trkpt>
      <trkpt lat="48.66649" lon="7.29264">
        <ele>514</ele>
        <time>2013-04-07T09:52:12.000Z</time>
      </trkpt>
      <trkpt lat="48.66655" lon="7.29264">
        <ele>513</ele>
        <time>2013-04-07T09:52:15.000Z</time>
      </trkpt>
      <trkpt lat="48.66652" lon="7.29276">
        <ele>515</ele>
        <time>2013-04-07T09:52:17.000Z</time>
      </trkpt>
      <trkpt lat="48.6664" lon="7.29277">
        <ele>517</ele>
        <time>2013-04-07T09:52:21.000Z</time>
      </trkpt>
      <trkpt lat="48.66654" lon="7.29296">
        <ele>516</ele>
        <time>2013-04-07T09:52:24.000Z</time>
      </trkpt>
      <trkpt lat="48.66655" lon="7.29305">
        <ele>516</ele>
        <time>2013-04-07T09:52:27.000Z</time>
      </trkpt>
      <trkpt lat="48.66655" lon="7.29311">
        <ele>515</ele>
        <time>2013-04-07T09:52:29.000Z</time>
      </trkpt>
      <trkpt lat="48.66655" lon="7.29317">
        <ele>515</ele>
        <time>2013-04-07T09:52:31.000Z</time>
      </trkpt>
      <trkpt lat="48.66656" lon="7.29322">
        <ele>514</ele>
        <time>2013-04-07T09:52:33.000Z</time>
      </trkpt>
      <trkpt lat="48.66663" lon="7.29325">
        <ele>512</ele>
        <time>2013-04-07T09:52:36.000Z</time>
      </trkpt>
      <trkpt lat="48.66659" lon="7.29337">
        <ele>514</ele>
        <time>2013-04-07T09:52:38.000Z</time>
      </trkpt>
      <trkpt lat="48.6666" lon="7.29342">
        <ele>515</ele>
        <time>2013-04-07T09:52:40.000Z</time>
      </trkpt>
      <trkpt lat="48.6666" lon="7.29348">
        <ele>517</ele>
        <time>2013-04-07T09:52:42.000Z</time>
      </trkpt>
      <trkpt lat="48.66661" lon="7.29353">
        <ele>518</ele>
        <time>2013-04-07T09:52:44.000Z</time>
      </trkpt>
      <trkpt lat="48.66663" lon="7.29359">
        <ele>519</ele>
        <time>2013-04-07T09:52:46.000Z</time>
      </trkpt>
      <trkpt lat="48.66666" lon="7.29365">
        <ele>520</ele>
        <time>2013-04-07T09:52:49.000Z</time>
      </trkpt>
      <trkpt lat="48.66666" lon="7.29373">
        <ele>521</ele>
        <time>2013-04-07T09:52:51.000Z</time>
      </trkpt>
      <trkpt lat="48.66669" lon="7.29378">
        <ele>505</ele>
        <time>2013-04-07T09:52:54.000Z</time>
      </trkpt>
      <trkpt lat="48.66671" lon="7.29386">
        <ele>506</ele>
        <time>2013-04-07T09:52:57.000Z</time>
      </trkpt>
      <trkpt lat="48.66672" lon="7.29396">
        <ele>508</ele>
        <time>2013-04-07T09:52:59.000Z</time>
      </trkpt>
      <trkpt lat="48.66674" lon="7.29403">
        <ele>510</ele>
        <time>2013-04-07T09:53:02.000Z</time>
      </trkpt>
      <trkpt lat="48.66676" lon="7.29412">
        <ele>512</ele>
        <time>2013-04-07T09:53:05.000Z</time>
      </trkpt>
      <trkpt lat="48.66679" lon="7.29413">
        <ele>511</ele>
        <time>2013-04-07T09:53:07.000Z</time>
      </trkpt>
      <trkpt lat="48.66679" lon="7.29428">
        <ele>512</ele>
        <time>2013-04-07T09:53:10.000Z</time>
      </trkpt>
      <trkpt lat="48.66682" lon="7.29437">
        <ele>511</ele>
        <time>2013-04-07T09:53:14.000Z</time>
      </trkpt>
      <trkpt lat="48.66683" lon="7.29449">
        <ele>510</ele>
        <time>2013-04-07T09:53:16.000Z</time>
      </trkpt>
      <trkpt lat="48.66668" lon="7.29453">
        <ele>512</ele>
        <time>2013-04-07T09:53:20.000Z</time>
      </trkpt>
      <trkpt lat="48.66687" lon="7.29467">
        <ele>511</ele>
        <time>2013-04-07T09:53:24.000Z</time>
      </trkpt>
      <trkpt lat="48.66688" lon="7.29477">
        <ele>511</ele>
        <time>2013-04-07T09:53:27.000Z</time>
      </trkpt>
      <trkpt lat="48.66689" lon="7.29483">
        <ele>512</ele>
        <time>2013-04-07T09:53:29.000Z</time>
      </trkpt>
      <trkpt lat="48.66689" lon="7.29489">
        <ele>513</ele>
        <time>2013-04-07T09:53:31.000Z</time>
      </trkpt>
      <trkpt lat="48.66689" lon="7.29496">
        <ele>513</ele>
        <time>2013-04-07T09:53:33.000Z</time>
      </trkpt>
      <trkpt lat="48.66689" lon="7.29502">
        <ele>517</ele>
        <time>2013-04-07T09:53:35.000Z</time>
      </trkpt>
      <trkpt lat="48.66689" lon="7.29509">
        <ele>517</ele>
        <time>2013-04-07T09:53:37.000Z</time>
      </trkpt>
      <trkpt lat="48.66687" lon="7.29521">
        <ele>517</ele>
        <time>2013-04-07T09:53:40.000Z</time>
      </trkpt>
      <trkpt lat="48.66687" lon="7.2953">
        <ele>516</ele>
        <time>2013-04-07T09:53:44.000Z</time>
      </trkpt>
      <trkpt lat="48.66692" lon="7.29528">
        <ele>516</ele>
        <time>2013-04-07T09:53:48.000Z</time>
      </trkpt>
      <trkpt lat="48.66689" lon="7.29536">
        <ele>516</ele>
        <time>2013-04-07T09:53:52.000Z</time>
      </trkpt>
      <trkpt lat="48.66687" lon="7.29548">
        <ele>517</ele>
        <time>2013-04-07T09:53:56.000Z</time>
      </trkpt>
      <trkpt lat="48.66685" lon="7.29542">
        <ele>517</ele>
        <time>2013-04-07T09:53:58.000Z</time>
      </trkpt>
      <trkpt lat="48.66686" lon="7.29556">
        <ele>518</ele>
        <time>2013-04-07T09:54:01.000Z</time>
      </trkpt>
      <trkpt lat="48.66686" lon="7.2955">
        <ele>517</ele>
        <time>2013-04-07T09:54:03.000Z</time>
      </trkpt>
      <trkpt lat="48.66684" lon="7.29563">
        <ele>519</ele>
        <time>2013-04-07T09:54:05.000Z</time>
      </trkpt>
      <trkpt lat="48.66688" lon="7.29557">
        <ele>518</ele>
        <time>2013-04-07T09:54:10.000Z</time>
      </trkpt>
      <trkpt lat="48.66685" lon="7.29565">
        <ele>520</ele>
        <time>2013-04-07T09:54:14.000Z</time>
      </trkpt>
      <trkpt lat="48.66682" lon="7.29571">
        <ele>521</ele>
        <time>2013-04-07T09:54:16.000Z</time>
      </trkpt>
      <trkpt lat="48.66682" lon="7.29578">
        <ele>522</ele>
        <time>2013-04-07T09:54:20.000Z</time>
      </trkpt>
      <trkpt lat="48.66682" lon="7.29581">
        <ele>523</ele>
        <time>2013-04-07T09:54:22.000Z</time>
      </trkpt>
      <trkpt lat="48.66682" lon="7.29584">
        <ele>525</ele>
        <time>2013-04-07T09:54:25.000Z</time>
      </trkpt>
      <trkpt lat="48.66682" lon="7.29588">
        <ele>525</ele>
        <time>2013-04-07T09:54:28.000Z</time>
      </trkpt>
      <trkpt lat="48.66683" lon="7.296">
        <ele>523</ele>
        <time>2013-04-07T09:54:34.000Z</time>
      </trkpt>
      <trkpt lat="48.66682" lon="7.29607">
        <ele>523</ele>
        <time>2013-04-07T09:54:38.000Z</time>
      </trkpt>
      <trkpt lat="48.66682" lon="7.29602">
        <ele>524</ele>
        <time>2013-04-07T09:54:42.000Z</time>
      </trkpt>
      <trkpt lat="48.66683" lon="7.29609">
        <ele>523</ele>
        <time>2013-04-07T09:54:44.000Z</time>
      </trkpt>
      <trkpt lat="48.66683" lon="7.29614">
        <ele>523</ele>
        <time>2013-04-07T09:54:47.000Z</time>
      </trkpt>
      <trkpt lat="48.66683" lon="7.29617">
        <ele>523</ele>
        <time>2013-04-07T09:54:50.000Z</time>
      </trkpt>
      <trkpt lat="48.66682" lon="7.29624">
        <ele>523</ele>
        <time>2013-04-07T09:54:54.000Z</time>
      </trkpt>
      <trkpt lat="48.66681" lon="7.29628">
        <ele>523</ele>
        <time>2013-04-07T09:54:58.000Z</time>
      </trkpt>
      <trkpt lat="48.66682" lon="7.29634">
        <ele>523</ele>
        <time>2013-04-07T09:55:02.000Z</time>
      </trkpt>
      <trkpt lat="48.66679" lon="7.29649">
        <ele>526</ele>
        <time>2013-04-07T09:55:06.000Z</time>
      </trkpt>
      <trkpt lat="48.66679" lon="7.29654">
        <ele>527</ele>
        <time>2013-04-07T09:55:08.000Z</time>
      </trkpt>
      <trkpt lat="48.66678" lon="7.29664">
        <ele>529</ele>
        <time>2013-04-07T09:55:12.000Z</time>
      </trkpt>
      <trkpt lat="48.66684" lon="7.29656">
        <ele>526</ele>
        <time>2013-04-07T09:55:15.000Z</time>
      </trkpt>
      <trkpt lat="48.66678" lon="7.29674">
        <ele>529</ele>
        <time>2013-04-07T09:55:19.000Z</time>
      </trkpt>
      <trkpt lat="48.66676" lon="7.29686">
        <ele>527</ele>
        <time>2013-04-07T09:55:23.000Z</time>
      </trkpt>
      <trkpt lat="48.66673" lon="7.29695">
        <ele>527</ele>
        <time>2013-04-07T09:55:27.000Z</time>
      </trkpt>
      <trkpt lat="48.66671" lon="7.29699">
        <ele>526</ele>
        <time>2013-04-07T09:55:29.000Z</time>
      </trkpt>
      <trkpt lat="48.6667" lon="7.29702">
        <ele>526</ele>
        <time>2013-04-07T09:55:31.000Z</time>
      </trkpt>
      <trkpt lat="48.66669" lon="7.29704">
        <ele>526</ele>
        <time>2013-04-07T09:55:33.000Z</time>
      </trkpt>
      <trkpt lat="48.66671" lon="7.29705">
        <ele>526</ele>
        <time>2013-04-07T09:55:35.000Z</time>
      </trkpt>
      <trkpt lat="48.66664" lon="7.29707">
        <ele>541</ele>
        <time>2013-04-07T09:55:37.000Z</time>
      </trkpt>
      <trkpt lat="48.66661" lon="7.29709">
        <ele>542</ele>
        <time>2013-04-07T09:55:41.000Z</time>
      </trkpt>
      <trkpt lat="48.66655" lon="7.29718">
        <ele>542</ele>
        <time>2013-04-07T09:55:44.000Z</time>
      </trkpt>
      <trkpt lat="48.66648" lon="7.2972">
        <ele>542</ele>
        <time>2013-04-07T09:55:47.000Z</time>
      </trkpt>
      <trkpt lat="48.66645" lon="7.29725">
        <ele>542</ele>
        <time>2013-04-07T09:55:50.000Z</time>
      </trkpt>
      <trkpt lat="48.66643" lon="7.29727">
        <ele>543</ele>
        <time>2013-04-07T09:55:54.000Z</time>
      </trkpt>
      <trkpt lat="48.66663" lon="7.29729">
        <ele>541</ele>
        <time>2013-04-07T09:56:01.000Z</time>
      </trkpt>
      <trkpt lat="48.66636" lon="7.29734">
        <ele>543</ele>
        <time>2013-04-07T09:56:06.000Z</time>
      </trkpt>
      <trkpt lat="48.66634" lon="7.29733">
        <ele>543</ele>
        <time>2013-04-07T09:56:11.000Z</time>
      </trkpt>
      <trkpt lat="48.66633" lon="7.29733">
        <ele>543</ele>
        <time>2013-04-07T09:56:18.000Z</time>
      </trkpt>
      <trkpt lat="48.66628" lon="7.29728">
        <ele>544</ele>
        <time>2013-04-07T09:56:24.000Z</time>
      </trkpt>
      <trkpt lat="48.66627" lon="7.29734">
        <ele>544</ele>
        <time>2013-04-07T09:56:28.000Z</time>
      </trkpt>
      <trkpt lat="48.66623" lon="7.29737">
        <ele>545</ele>
        <time>2013-04-07T09:56:32.000Z</time>
      </trkpt>
      <trkpt lat="48.66623" lon="7.29732">
        <ele>545</ele>
        <time>2013-04-07T09:56:37.000Z</time>
      </trkpt>
      <trkpt lat="48.6662" lon="7.2973">
        <ele>545</ele>
        <time>2013-04-07T09:56:40.000Z</time>
      </trkpt>
      <trkpt lat="48.66618" lon="7.29732">
        <ele>545</ele>
        <time>2013-04-07T09:56:43.000Z</time>
      </trkpt>
      <trkpt lat="48.66616" lon="7.29733">
        <ele>546</ele>
        <time>2013-04-07T09:56:45.000Z</time>
      </trkpt>
      <trkpt lat="48.66614" lon="7.29733">
        <ele>546</ele>
        <time>2013-04-07T09:56:51.000Z</time>
      </trkpt>
      <trkpt lat="48.6661" lon="7.2973">
        <ele>546</ele>
        <time>2013-04-07T09:56:56.000Z</time>
      </trkpt>
      <trkpt lat="48.66607" lon="7.29731">
        <ele>547</ele>
        <time>2013-04-07T09:56:58.000Z</time>
      </trkpt>
      <trkpt lat="48.66604" lon="7.29731">
        <ele>547</ele>
        <time>2013-04-07T09:57:01.000Z</time>
      </trkpt>
      <trkpt lat="48.66602" lon="7.2973">
        <ele>547</ele>
        <time>2013-04-07T09:57:06.000Z</time>
      </trkpt>
      <trkpt lat="48.666" lon="7.2973">
        <ele>547</ele>
        <time>2013-04-07T09:57:09.000Z</time>
      </trkpt>
      <trkpt lat="48.66598" lon="7.29729">
        <ele>547</ele>
        <time>2013-04-07T09:57:12.000Z</time>
      </trkpt>
      <trkpt lat="48.66596" lon="7.29727">
        <ele>547</ele>
        <time>2013-04-07T09:57:15.000Z</time>
      </trkpt>
      <trkpt lat="48.66603" lon="7.29729">
        <ele>547</ele>
        <time>2013-04-07T09:57:20.000Z</time>
      </trkpt>
      <trkpt lat="48.66591" lon="7.2972">
        <ele>548</ele>
        <time>2013-04-07T09:57:26.000Z</time>
      </trkpt>
      <trkpt lat="48.6659" lon="7.2972">
        <ele>548</ele>
        <time>2013-04-07T09:57:29.000Z</time>
      </trkpt>
      <trkpt lat="48.66587" lon="7.29719">
        <ele>548</ele>
        <time>2013-04-07T09:57:33.000Z</time>
      </trkpt>
      <trkpt lat="48.66583" lon="7.29718">
        <ele>556</ele>
        <time>2013-04-07T09:57:37.000Z</time>
      </trkpt>
      <trkpt lat="48.66581" lon="7.29716">
        <ele>557</ele>
        <time>2013-04-07T09:57:40.000Z</time>
      </trkpt>
      <trkpt lat="48.66575" lon="7.29714">
        <ele>557</ele>
        <time>2013-04-07T09:57:46.000Z</time>
      </trkpt>
      <trkpt lat="48.66574" lon="7.2971">
        <ele>557</ele>
        <time>2013-04-07T09:57:49.000Z</time>
      </trkpt>
      <trkpt lat="48.6657" lon="7.29712">
        <ele>557</ele>
        <time>2013-04-07T09:57:52.000Z</time>
      </trkpt>
      <trkpt lat="48.66566" lon="7.29711">
        <ele>558</ele>
        <time>2013-04-07T09:57:56.000Z</time>
      </trkpt>
      <trkpt lat="48.66567" lon="7.29702">
        <ele>558</ele>
        <time>2013-04-07T09:58:00.000Z</time>
      </trkpt>
      <trkpt lat="48.66562" lon="7.29709">
        <ele>558</ele>
        <time>2013-04-07T09:58:03.000Z</time>
      </trkpt>
      <trkpt lat="48.66563" lon="7.29698">
        <ele>559</ele>
        <time>2013-04-07T09:58:06.000Z</time>
      </trkpt>
      <trkpt lat="48.6656" lon="7.29695">
        <ele>559</ele>
        <time>2013-04-07T09:58:09.000Z</time>
      </trkpt>
      <trkpt lat="48.66558" lon="7.29701">
        <ele>559</ele>
        <time>2013-04-07T09:58:12.000Z</time>
      </trkpt>
      <trkpt lat="48.66557" lon="7.29689">
        <ele>560</ele>
        <time>2013-04-07T09:58:15.000Z</time>
      </trkpt>
      <trkpt lat="48.66556" lon="7.29697">
        <ele>559</ele>
        <time>2013-04-07T09:58:18.000Z</time>
      </trkpt>
      <trkpt lat="48.66554" lon="7.29686">
        <ele>560</ele>
        <time>2013-04-07T09:58:21.000Z</time>
      </trkpt>
      <trkpt lat="48.66552" lon="7.29686">
        <ele>560</ele>
        <time>2013-04-07T09:58:25.000Z</time>
      </trkpt>
      <trkpt lat="48.66551" lon="7.29685">
        <ele>560</ele>
        <time>2013-04-07T09:58:28.000Z</time>
      </trkpt>
      <trkpt lat="48.6655" lon="7.29683">
        <ele>560</ele>
        <time>2013-04-07T09:58:31.000Z</time>
      </trkpt>
      <trkpt lat="48.66559" lon="7.29674">
        <ele>560</ele>
        <time>2013-04-07T09:58:34.000Z</time>
      </trkpt>
      <trkpt lat="48.66547" lon="7.29673">
        <ele>561</ele>
        <time>2013-04-07T09:58:37.000Z</time>
      </trkpt>
      <trkpt lat="48.6655" lon="7.29673">
        <ele>561</ele>
        <time>2013-04-07T09:58:40.000Z</time>
      </trkpt>
      <trkpt lat="48.66547" lon="7.29669">
        <ele>561</ele>
        <time>2013-04-07T09:58:52.000Z</time>
      </trkpt>
      <trkpt lat="48.66547" lon="7.29669">
        <ele>561</ele>
        <time>2013-04-07T09:59:12.000Z</time>
      </trkpt>
      <trkpt lat="48.66544" lon="7.29659">
        <ele>567</ele>
        <time>2013-04-07T10:00:41.000Z</time>
      </trkpt>
      <trkpt lat="48.66544" lon="7.29666">
        <ele>567</ele>
        <time>2013-04-07T10:00:44.000Z</time>
      </trkpt>
      <trkpt lat="48.66539" lon="7.29663">
        <ele>568</ele>
        <time>2013-04-07T10:00:46.000Z</time>
      </trkpt>
      <trkpt lat="48.66534" lon="7.29665">
        <ele>568</ele>
        <time>2013-04-07T10:00:50.000Z</time>
      </trkpt>
      <trkpt lat="48.66534" lon="7.2966">
        <ele>568</ele>
        <time>2013-04-07T10:00:52.000Z</time>
      </trkpt>
      <trkpt lat="48.66531" lon="7.29661">
        <ele>569</ele>
        <time>2013-04-07T10:00:55.000Z</time>
      </trkpt>
      <trkpt lat="48.66529" lon="7.29654">
        <ele>569</ele>
        <time>2013-04-07T10:00:57.000Z</time>
      </trkpt>
      <trkpt lat="48.66526" lon="7.29644">
        <ele>569</ele>
        <time>2013-04-07T10:01:01.000Z</time>
      </trkpt>
      <trkpt lat="48.66525" lon="7.29644">
        <ele>569</ele>
        <time>2013-04-07T10:01:03.000Z</time>
      </trkpt>
      <trkpt lat="48.66523" lon="7.29643">
        <ele>569</ele>
        <time>2013-04-07T10:01:06.000Z</time>
      </trkpt>
      <trkpt lat="48.66522" lon="7.29643">
        <ele>569</ele>
        <time>2013-04-07T10:01:09.000Z</time>
      </trkpt>
      <trkpt lat="48.66515" lon="7.2964">
        <ele>570</ele>
        <time>2013-04-07T10:01:14.000Z</time>
      </trkpt>
      <trkpt lat="48.66516" lon="7.29636">
        <ele>570</ele>
        <time>2013-04-07T10:01:16.000Z</time>
      </trkpt>
      <trkpt lat="48.66513" lon="7.29629">
        <ele>570</ele>
        <time>2013-04-07T10:01:18.000Z</time>
      </trkpt>
      <trkpt lat="48.66509" lon="7.2963">
        <ele>570</ele>
        <time>2013-04-07T10:01:22.000Z</time>
      </trkpt>
      <trkpt lat="48.66507" lon="7.29619">
        <ele>571</ele>
        <time>2013-04-07T10:01:25.000Z</time>
      </trkpt>
      <trkpt lat="48.66501" lon="7.2962">
        <ele>571</ele>
        <time>2013-04-07T10:01:29.000Z</time>
      </trkpt>
      <trkpt lat="48.66496" lon="7.29609">
        <ele>576</ele>
        <time>2013-04-07T10:01:33.000Z</time>
      </trkpt>
      <trkpt lat="48.66491" lon="7.29611">
        <ele>576</ele>
        <time>2013-04-07T10:01:37.000Z</time>
      </trkpt>
      <trkpt lat="48.66491" lon="7.29606">
        <ele>576</ele>
        <time>2013-04-07T10:01:39.000Z</time>
      </trkpt>
      <trkpt lat="48.6649" lon="7.29602">
        <ele>576</ele>
        <time>2013-04-07T10:01:41.000Z</time>
      </trkpt>
      <trkpt lat="48.66489" lon="7.296">
        <ele>576</ele>
        <time>2013-04-07T10:01:43.000Z</time>
      </trkpt>
      <trkpt lat="48.66487" lon="7.29598">
        <ele>576</ele>
        <time>2013-04-07T10:01:45.000Z</time>
      </trkpt>
      <trkpt lat="48.66479" lon="7.29596">
        <ele>576</ele>
        <time>2013-04-07T10:01:49.000Z</time>
      </trkpt>
      <trkpt lat="48.66478" lon="7.29589">
        <ele>576</ele>
        <time>2013-04-07T10:01:52.000Z</time>
      </trkpt>
      <trkpt lat="48.66474" lon="7.29582">
        <ele>578</ele>
        <time>2013-04-07T10:01:56.000Z</time>
      </trkpt>
      <trkpt lat="48.66467" lon="7.29582">
        <ele>578</ele>
        <time>2013-04-07T10:01:58.000Z</time>
      </trkpt>
      <trkpt lat="48.66465" lon="7.29575">
        <ele>577</ele>
        <time>2013-04-07T10:02:02.000Z</time>
      </trkpt>
      <trkpt lat="48.66463" lon="7.29569">
        <ele>577</ele>
        <time>2013-04-07T10:02:05.000Z</time>
      </trkpt>
      <trkpt lat="48.66457" lon="7.29568">
        <ele>578</ele>
        <time>2013-04-07T10:02:09.000Z</time>
      </trkpt>
      <trkpt lat="48.66452" lon="7.29566">
        <ele>578</ele>
        <time>2013-04-07T10:02:12.000Z</time>
      </trkpt>
      <trkpt lat="48.66451" lon="7.29557">
        <ele>578</ele>
        <time>2013-04-07T10:02:14.000Z</time>
      </trkpt>
      <trkpt lat="48.6646" lon="7.29555">
        <ele>577</ele>
        <time>2013-04-07T10:02:16.000Z</time>
      </trkpt>
      <trkpt lat="48.66442" lon="7.29549">
        <ele>578</ele>
        <time>2013-04-07T10:02:20.000Z</time>
      </trkpt>
      <trkpt lat="48.66439" lon="7.29545">
        <ele>578</ele>
        <time>2013-04-07T10:02:23.000Z</time>
      </trkpt>
      <trkpt lat="48.66435" lon="7.29542">
        <ele>578</ele>
        <time>2013-04-07T10:02:26.000Z</time>
      </trkpt>
      <trkpt lat="48.66429" lon="7.29532">
        <ele>578</ele>
        <time>2013-04-07T10:02:29.000Z</time>
      </trkpt>
      <trkpt lat="48.66428" lon="7.29534">
        <ele>578</ele>
        <time>2013-04-07T10:02:31.000Z</time>
      </trkpt>
      <trkpt lat="48.66423" lon="7.2952">
        <ele>579</ele>
        <time>2013-04-07T10:02:35.000Z</time>
      </trkpt>
      <trkpt lat="48.66418" lon="7.29513">
        <ele>580</ele>
        <time>2013-04-07T10:02:38.000Z</time>
      </trkpt>
      <trkpt lat="48.66415" lon="7.29519">
        <ele>579</ele>
        <time>2013-04-07T10:02:40.000Z</time>
      </trkpt>
      <trkpt lat="48.6641" lon="7.29514">
        <ele>579</ele>
        <time>2013-04-07T10:02:42.000Z</time>
      </trkpt>
      <trkpt lat="48.66408" lon="7.29509">
        <ele>580</ele>
        <time>2013-04-07T10:02:44.000Z</time>
      </trkpt>
      <trkpt lat="48.66407" lon="7.29501">
        <ele>580</ele>
        <time>2013-04-07T10:02:47.000Z</time>
      </trkpt>
      <trkpt lat="48.66398" lon="7.29497">
        <ele>582</ele>
        <time>2013-04-07T10:02:49.000Z</time>
      </trkpt>
      <trkpt lat="48.66392" lon="7.29491">
        <ele>582</ele>
        <time>2013-04-07T10:02:52.000Z</time>
      </trkpt>
      <trkpt lat="48.66385" lon="7.29484">
        <ele>582</ele>
        <time>2013-04-07T10:02:56.000Z</time>
      </trkpt>
      <trkpt lat="48.6638" lon="7.2948">
        <ele>582</ele>
        <time>2013-04-07T10:02:58.000Z</time>
      </trkpt>
      <trkpt lat="48.66374" lon="7.29464">
        <ele>582</ele>
        <time>2013-04-07T10:03:02.000Z</time>
      </trkpt>
      <trkpt lat="48.66372" lon="7.29463">
        <ele>582</ele>
        <time>2013-04-07T10:03:04.000Z</time>
      </trkpt>
      <trkpt lat="48.66364" lon="7.29459">
        <ele>582</ele>
        <time>2013-04-07T10:03:09.000Z</time>
      </trkpt>
      <trkpt lat="48.66362" lon="7.29454">
        <ele>583</ele>
        <time>2013-04-07T10:03:11.000Z</time>
      </trkpt>
      <trkpt lat="48.66357" lon="7.29438">
        <ele>583</ele>
        <time>2013-04-07T10:03:15.000Z</time>
      </trkpt>
      <trkpt lat="48.66356" lon="7.29441">
        <ele>583</ele>
        <time>2013-04-07T10:03:17.000Z</time>
      </trkpt>
      <trkpt lat="48.66351" lon="7.2943">
        <ele>584</ele>
        <time>2013-04-07T10:03:20.000Z</time>
      </trkpt>
      <trkpt lat="48.66345" lon="7.29432">
        <ele>584</ele>
        <time>2013-04-07T10:03:22.000Z</time>
      </trkpt>
      <trkpt lat="48.66343" lon="7.29419">
        <ele>585</ele>
        <time>2013-04-07T10:03:26.000Z</time>
      </trkpt>
      <trkpt lat="48.66339" lon="7.29403">
        <ele>586</ele>
        <time>2013-04-07T10:03:29.000Z</time>
      </trkpt>
      <trkpt lat="48.66349" lon="7.29413">
        <ele>586</ele>
        <time>2013-04-07T10:03:31.000Z</time>
      </trkpt>
      <trkpt lat="48.6633" lon="7.29397">
        <ele>586</ele>
        <time>2013-04-07T10:03:34.000Z</time>
      </trkpt>
      <trkpt lat="48.66329" lon="7.29392">
        <ele>586</ele>
        <time>2013-04-07T10:03:36.000Z</time>
      </trkpt>
      <trkpt lat="48.66325" lon="7.29375">
        <ele>587</ele>
        <time>2013-04-07T10:03:41.000Z</time>
      </trkpt>
      <trkpt lat="48.66324" lon="7.29379">
        <ele>587</ele>
        <time>2013-04-07T10:03:43.000Z</time>
      </trkpt>
      <trkpt lat="48.6632" lon="7.29367">
        <ele>587</ele>
        <time>2013-04-07T10:03:47.000Z</time>
      </trkpt>
      <trkpt lat="48.66319" lon="7.29365">
        <ele>587</ele>
        <time>2013-04-07T10:03:49.000Z</time>
      </trkpt>
      <trkpt lat="48.66311" lon="7.29362">
        <ele>587</ele>
        <time>2013-04-07T10:03:52.000Z</time>
      </trkpt>
      <trkpt lat="48.66319" lon="7.29356">
        <ele>588</ele>
        <time>2013-04-07T10:03:54.000Z</time>
      </trkpt>
      <trkpt lat="48.66305" lon="7.29348">
        <ele>587</ele>
        <time>2013-04-07T10:03:56.000Z</time>
      </trkpt>
      <trkpt lat="48.66302" lon="7.29337">
        <ele>588</ele>
        <time>2013-04-07T10:03:59.000Z</time>
      </trkpt>
      <trkpt lat="48.66299" lon="7.29329">
        <ele>591</ele>
        <time>2013-04-07T10:04:02.000Z</time>
      </trkpt>
      <trkpt lat="48.6629" lon="7.29326">
        <ele>591</ele>
        <time>2013-04-07T10:04:05.000Z</time>
      </trkpt>
      <trkpt lat="48.66296" lon="7.29315">
        <ele>591</ele>
        <time>2013-04-07T10:04:07.000Z</time>
      </trkpt>
      <trkpt lat="48.6629" lon="7.29305">
        <ele>591</ele>
        <time>2013-04-07T10:04:09.000Z</time>
      </trkpt>
      <trkpt lat="48.66283" lon="7.29296">
        <ele>591</ele>
        <time>2013-04-07T10:04:11.000Z</time>
      </trkpt>
      <trkpt lat="48.66278" lon="7.29291">
        <ele>591</ele>
        <time>2013-04-07T10:04:14.000Z</time>
      </trkpt>
      <trkpt lat="48.66272" lon="7.29272">
        <ele>592</ele>
        <time>2013-04-07T10:04:19.000Z</time>
      </trkpt>
      <trkpt lat="48.66267" lon="7.29272">
        <ele>592</ele>
        <time>2013-04-07T10:04:22.000Z</time>
      </trkpt>
      <trkpt lat="48.66266" lon="7.29258">
        <ele>593</ele>
        <time>2013-04-07T10:04:25.000Z</time>
      </trkpt>
      <trkpt lat="48.66265" lon="7.29255">
        <ele>593</ele>
        <time>2013-04-07T10:04:33.000Z</time>
      </trkpt>
      <trkpt lat="48.66262" lon="7.2925">
        <ele>594</ele>
        <time>2013-04-07T10:04:38.000Z</time>
      </trkpt>
      <trkpt lat="48.66259" lon="7.2924">
        <ele>594</ele>
        <time>2013-04-07T10:04:42.000Z</time>
      </trkpt>
      <trkpt lat="48.66257" lon="7.2923">
        <ele>593</ele>
        <time>2013-04-07T10:04:45.000Z</time>
      </trkpt>
      <trkpt lat="48.66255" lon="7.29223">
        <ele>593</ele>
        <time>2013-04-07T10:04:48.000Z</time>
      </trkpt>
      <trkpt lat="48.66252" lon="7.29214">
        <ele>593</ele>
        <time>2013-04-07T10:04:51.000Z</time>
      </trkpt>
      <trkpt lat="48.66238" lon="7.29209">
        <ele>595</ele>
        <time>2013-04-07T10:04:55.000Z</time>
      </trkpt>
      <trkpt lat="48.66243" lon="7.29203">
        <ele>596</ele>
        <time>2013-04-07T10:04:57.000Z</time>
      </trkpt>
      <trkpt lat="48.66241" lon="7.29195">
        <ele>596</ele>
        <time>2013-04-07T10:05:01.000Z</time>
      </trkpt>
      <trkpt lat="48.66244" lon="7.29196">
        <ele>596</ele>
        <time>2013-04-07T10:05:04.000Z</time>
      </trkpt>
      <trkpt lat="48.66233" lon="7.29183">
        <ele>597</ele>
        <time>2013-04-07T10:05:08.000Z</time>
      </trkpt>
      <trkpt lat="48.66228" lon="7.29182">
        <ele>597</ele>
        <time>2013-04-07T10:05:10.000Z</time>
      </trkpt>
      <trkpt lat="48.66227" lon="7.29179">
        <ele>597</ele>
        <time>2013-04-07T10:05:12.000Z</time>
      </trkpt>
      <trkpt lat="48.66226" lon="7.29177">
        <ele>597</ele>
        <time>2013-04-07T10:05:15.000Z</time>
      </trkpt>
      <trkpt lat="48.66223" lon="7.29175">
        <ele>597</ele>
        <time>2013-04-07T10:05:19.000Z</time>
      </trkpt>
      <trkpt lat="48.66218" lon="7.2917">
        <ele>597</ele>
        <time>2013-04-07T10:05:25.000Z</time>
      </trkpt>
      <trkpt lat="48.66216" lon="7.29156">
        <ele>601</ele>
        <time>2013-04-07T10:05:29.000Z</time>
      </trkpt>
      <trkpt lat="48.66214" lon="7.29163">
        <ele>601</ele>
        <time>2013-04-07T10:05:31.000Z</time>
      </trkpt>
      <trkpt lat="48.66211" lon="7.29153">
        <ele>601</ele>
        <time>2013-04-07T10:05:35.000Z</time>
      </trkpt>
      <trkpt lat="48.66209" lon="7.29142">
        <ele>602</ele>
        <time>2013-04-07T10:05:39.000Z</time>
      </trkpt>
      <trkpt lat="48.66207" lon="7.2914">
        <ele>602</ele>
        <time>2013-04-07T10:05:43.000Z</time>
      </trkpt>
      <trkpt lat="48.66204" lon="7.2913">
        <ele>602</ele>
        <time>2013-04-07T10:05:47.000Z</time>
      </trkpt>
      <trkpt lat="48.66199" lon="7.29127">
        <ele>602</ele>
        <time>2013-04-07T10:05:51.000Z</time>
      </trkpt>
      <trkpt lat="48.66198" lon="7.29124">
        <ele>603</ele>
        <time>2013-04-07T10:05:53.000Z</time>
      </trkpt>
      <trkpt lat="48.66194" lon="7.29116">
        <ele>603</ele>
        <time>2013-04-07T10:05:57.000Z</time>
      </trkpt>
      <trkpt lat="48.66189" lon="7.29102">
        <ele>604</ele>
        <time>2013-04-07T10:06:01.000Z</time>
      </trkpt>
      <trkpt lat="48.66198" lon="7.29105">
        <ele>603</ele>
        <time>2013-04-07T10:06:03.000Z</time>
      </trkpt>
      <trkpt lat="48.66185" lon="7.29095">
        <ele>605</ele>
        <time>2013-04-07T10:06:07.000Z</time>
      </trkpt>
      <trkpt lat="48.66183" lon="7.29088">
        <ele>605</ele>
        <time>2013-04-07T10:06:10.000Z</time>
      </trkpt>
      <trkpt lat="48.66181" lon="7.29083">
        <ele>607</ele>
        <time>2013-04-07T10:06:13.000Z</time>
      </trkpt>
      <trkpt lat="48.6618" lon="7.29083">
        <ele>607</ele>
        <time>2013-04-07T10:06:15.000Z</time>
      </trkpt>
      <trkpt lat="48.66177" lon="7.29077">
        <ele>608</ele>
        <time>2013-04-07T10:06:19.000Z</time>
      </trkpt>
      <trkpt lat="48.66192" lon="7.29086">
        <ele>604</ele>
        <time>2013-04-07T10:06:23.000Z</time>
      </trkpt>
      <trkpt lat="48.66174" lon="7.29078">
        <ele>608</ele>
        <time>2013-04-07T10:06:26.000Z</time>
      </trkpt>
      <trkpt lat="48.66163" lon="7.29074">
        <ele>609</ele>
        <time>2013-04-07T10:06:28.000Z</time>
      </trkpt>
      <trkpt lat="48.66156" lon="7.29066">
        <ele>609</ele>
        <time>2013-04-07T10:06:31.000Z</time>
      </trkpt>
      <trkpt lat="48.66147" lon="7.29066">
        <ele>609</ele>
        <time>2013-04-07T10:06:35.000Z</time>
      </trkpt>
      <trkpt lat="48.66142" lon="7.29067">
        <ele>609</ele>
        <time>2013-04-07T10:06:38.000Z</time>
      </trkpt>
      <trkpt lat="48.6614" lon="7.29059">
        <ele>610</ele>
        <time>2013-04-07T10:06:41.000Z</time>
      </trkpt>
      <trkpt lat="48.66138" lon="7.29055">
        <ele>610</ele>
        <time>2013-04-07T10:06:43.000Z</time>
      </trkpt>
      <trkpt lat="48.66137" lon="7.29053">
        <ele>610</ele>
        <time>2013-04-07T10:06:45.000Z</time>
      </trkpt>
      <trkpt lat="48.66134" lon="7.29052">
        <ele>610</ele>
        <time>2013-04-07T10:06:50.000Z</time>
      </trkpt>
      <trkpt lat="48.66131" lon="7.29042">
        <ele>611</ele>
        <time>2013-04-07T10:06:53.000Z</time>
      </trkpt>
      <trkpt lat="48.66125" lon="7.29038">
        <ele>611</ele>
        <time>2013-04-07T10:06:57.000Z</time>
      </trkpt>
      <trkpt lat="48.6612" lon="7.29035">
        <ele>611</ele>
        <time>2013-04-07T10:07:01.000Z</time>
      </trkpt>
      <trkpt lat="48.66125" lon="7.29027">
        <ele>611</ele>
        <time>2013-04-07T10:07:03.000Z</time>
      </trkpt>
      <trkpt lat="48.66114" lon="7.29024">
        <ele>612</ele>
        <time>2013-04-07T10:07:06.000Z</time>
      </trkpt>
      <trkpt lat="48.6611" lon="7.29014">
        <ele>613</ele>
        <time>2013-04-07T10:07:09.000Z</time>
      </trkpt>
      <trkpt lat="48.66131" lon="7.29021">
        <ele>612</ele>
        <time>2013-04-07T10:07:13.000Z</time>
      </trkpt>
      <trkpt lat="48.66112" lon="7.29013">
        <ele>612</ele>
        <time>2013-04-07T10:07:17.000Z</time>
      </trkpt>
      <trkpt lat="48.66103" lon="7.29008">
        <ele>613</ele>
        <time>2013-04-07T10:07:22.000Z</time>
      </trkpt>
      <trkpt lat="48.66096" lon="7.28995">
        <ele>617</ele>
        <time>2013-04-07T10:07:25.000Z</time>
      </trkpt>
      <trkpt lat="48.66094" lon="7.28996">
        <ele>617</ele>
        <time>2013-04-07T10:07:27.000Z</time>
      </trkpt>
      <trkpt lat="48.66092" lon="7.28995">
        <ele>617</ele>
        <time>2013-04-07T10:07:29.000Z</time>
      </trkpt>
      <trkpt lat="48.6609" lon="7.28994">
        <ele>617</ele>
        <time>2013-04-07T10:07:31.000Z</time>
      </trkpt>
      <trkpt lat="48.66086" lon="7.28991">
        <ele>617</ele>
        <time>2013-04-07T10:07:35.000Z</time>
      </trkpt>
      <trkpt lat="48.6608" lon="7.28983">
        <ele>617</ele>
        <time>2013-04-07T10:07:39.000Z</time>
      </trkpt>
      <trkpt lat="48.66088" lon="7.28988">
        <ele>618</ele>
        <time>2013-04-07T10:07:41.000Z</time>
      </trkpt>
      <trkpt lat="48.66073" lon="7.28979">
        <ele>617</ele>
        <time>2013-04-07T10:07:44.000Z</time>
      </trkpt>
      <trkpt lat="48.66068" lon="7.28977">
        <ele>617</ele>
        <time>2013-04-07T10:07:48.000Z</time>
      </trkpt>
      <trkpt lat="48.66066" lon="7.28976">
        <ele>617</ele>
        <time>2013-04-07T10:07:50.000Z</time>
      </trkpt>
      <trkpt lat="48.66059" lon="7.28973">
        <ele>616</ele>
        <time>2013-04-07T10:07:54.000Z</time>
      </trkpt>
      <trkpt lat="48.66053" lon="7.28962">
        <ele>617</ele>
        <time>2013-04-07T10:07:59.000Z</time>
      </trkpt>
      <trkpt lat="48.6605" lon="7.28963">
        <ele>616</ele>
        <time>2013-04-07T10:08:01.000Z</time>
      </trkpt>
      <trkpt lat="48.66041" lon="7.28963">
        <ele>616</ele>
        <time>2013-04-07T10:08:07.000Z</time>
      </trkpt>
      <trkpt lat="48.66034" lon="7.28957">
        <ele>616</ele>
        <time>2013-04-07T10:08:13.000Z</time>
      </trkpt>
      <trkpt lat="48.66027" lon="7.28953">
        <ele>616</ele>
        <time>2013-04-07T10:08:16.000Z</time>
      </trkpt>
      <trkpt lat="48.66021" lon="7.28949">
        <ele>616</ele>
        <time>2013-04-07T10:08:19.000Z</time>
      </trkpt>
      <trkpt lat="48.66015" lon="7.28937">
        <ele>617</ele>
        <time>2013-04-07T10:08:22.000Z</time>
      </trkpt>
      <trkpt lat="48.66007" lon="7.28934">
        <ele>618</ele>
        <time>2013-04-07T10:08:25.000Z</time>
      </trkpt>
      <trkpt lat="48.66" lon="7.28939">
        <ele>611</ele>
        <time>2013-04-07T10:08:27.000Z</time>
      </trkpt>
      <trkpt lat="48.65996" lon="7.2893">
        <ele>614</ele>
        <time>2013-04-07T10:08:30.000Z</time>
      </trkpt>
      <trkpt lat="48.65992" lon="7.28931">
        <ele>613</ele>
        <time>2013-04-07T10:08:32.000Z</time>
      </trkpt>
      <trkpt lat="48.65989" lon="7.2893">
        <ele>613</ele>
        <time>2013-04-07T10:08:34.000Z</time>
      </trkpt>
      <trkpt lat="48.65984" lon="7.28927">
        <ele>612</ele>
        <time>2013-04-07T10:08:36.000Z</time>
      </trkpt>
      <trkpt lat="48.65979" lon="7.28922">
        <ele>612</ele>
        <time>2013-04-07T10:08:38.000Z</time>
      </trkpt>
      <trkpt lat="48.65974" lon="7.28918">
        <ele>611</ele>
        <time>2013-04-07T10:08:40.000Z</time>
      </trkpt>
      <trkpt lat="48.65963" lon="7.28915">
        <ele>620</ele>
        <time>2013-04-07T10:08:43.000Z</time>
      </trkpt>
      <trkpt lat="48.65964" lon="7.28907">
        <ele>620</ele>
        <time>2013-04-07T10:08:45.000Z</time>
      </trkpt>
      <trkpt lat="48.65961" lon="7.28907">
        <ele>620</ele>
        <time>2013-04-07T10:08:47.000Z</time>
      </trkpt>
      <trkpt lat="48.65956" lon="7.28904">
        <ele>620</ele>
        <time>2013-04-07T10:08:50.000Z</time>
      </trkpt>
      <trkpt lat="48.6595" lon="7.28901">
        <ele>620</ele>
        <time>2013-04-07T10:08:52.000Z</time>
      </trkpt>
      <trkpt lat="48.65945" lon="7.28898">
        <ele>619</ele>
        <time>2013-04-07T10:08:54.000Z</time>
      </trkpt>
      <trkpt lat="48.6594" lon="7.28895">
        <ele>619</ele>
        <time>2013-04-07T10:08:56.000Z</time>
      </trkpt>
      <trkpt lat="48.65936" lon="7.28891">
        <ele>619</ele>
        <time>2013-04-07T10:08:58.000Z</time>
      </trkpt>
      <trkpt lat="48.65931" lon="7.28886">
        <ele>620</ele>
        <time>2013-04-07T10:09:01.000Z</time>
      </trkpt>
      <trkpt lat="48.65925" lon="7.28877">
        <ele>621</ele>
        <time>2013-04-07T10:09:04.000Z</time>
      </trkpt>
      <trkpt lat="48.65921" lon="7.28877">
        <ele>621</ele>
        <time>2013-04-07T10:09:06.000Z</time>
      </trkpt>
      <trkpt lat="48.65915" lon="7.28871">
        <ele>616</ele>
        <time>2013-04-07T10:09:09.000Z</time>
      </trkpt>
      <trkpt lat="48.6591" lon="7.28868">
        <ele>616</ele>
        <time>2013-04-07T10:09:12.000Z</time>
      </trkpt>
      <trkpt lat="48.65904" lon="7.2886">
        <ele>617</ele>
        <time>2013-04-07T10:09:15.000Z</time>
      </trkpt>
      <trkpt lat="48.659" lon="7.2886">
        <ele>616</ele>
        <time>2013-04-07T10:09:17.000Z</time>
      </trkpt>
      <trkpt lat="48.65892" lon="7.28854">
        <ele>617</ele>
        <time>2013-04-07T10:09:20.000Z</time>
      </trkpt>
      <trkpt lat="48.65888" lon="7.28851">
        <ele>616</ele>
        <time>2013-04-07T10:09:22.000Z</time>
      </trkpt>
      <trkpt lat="48.65879" lon="7.2884">
        <ele>616</ele>
        <time>2013-04-07T10:09:25.000Z</time>
      </trkpt>
      <trkpt lat="48.65874" lon="7.28829">
        <ele>624</ele>
        <time>2013-04-07T10:09:29.000Z</time>
      </trkpt>
      <trkpt lat="48.65872" lon="7.28828">
        <ele>624</ele>
        <time>2013-04-07T10:09:31.000Z</time>
      </trkpt>
      <trkpt lat="48.65867" lon="7.28823">
        <ele>623</ele>
        <time>2013-04-07T10:09:35.000Z</time>
      </trkpt>
      <trkpt lat="48.65864" lon="7.28818">
        <ele>623</ele>
        <time>2013-04-07T10:09:37.000Z</time>
      </trkpt>
      <trkpt lat="48.65845" lon="7.28807">
        <ele>622</ele>
        <time>2013-04-07T10:09:41.000Z</time>
      </trkpt>
      <trkpt lat="48.65849" lon="7.28805">
        <ele>623</ele>
        <time>2013-04-07T10:09:44.000Z</time>
      </trkpt>
      <trkpt lat="48.6585" lon="7.28799">
        <ele>624</ele>
        <time>2013-04-07T10:09:47.000Z</time>
      </trkpt>
      <trkpt lat="48.65844" lon="7.28797">
        <ele>624</ele>
        <time>2013-04-07T10:09:50.000Z</time>
      </trkpt>
      <trkpt lat="48.6584" lon="7.28796">
        <ele>624</ele>
        <time>2013-04-07T10:09:52.000Z</time>
      </trkpt>
      <trkpt lat="48.65836" lon="7.28785">
        <ele>624</ele>
        <time>2013-04-07T10:09:55.000Z</time>
      </trkpt>
      <trkpt lat="48.65831" lon="7.2878">
        <ele>618</ele>
        <time>2013-04-07T10:09:58.000Z</time>
      </trkpt>
      <trkpt lat="48.65828" lon="7.28778">
        <ele>618</ele>
        <time>2013-04-07T10:10:00.000Z</time>
      </trkpt>
      <trkpt lat="48.65826" lon="7.28774">
        <ele>619</ele>
        <time>2013-04-07T10:10:02.000Z</time>
      </trkpt>
      <trkpt lat="48.65821" lon="7.28769">
        <ele>619</ele>
        <time>2013-04-07T10:10:05.000Z</time>
      </trkpt>
      <trkpt lat="48.65817" lon="7.28758">
        <ele>620</ele>
        <time>2013-04-07T10:10:08.000Z</time>
      </trkpt>
      <trkpt lat="48.65813" lon="7.28761">
        <ele>619</ele>
        <time>2013-04-07T10:10:11.000Z</time>
      </trkpt>
      <trkpt lat="48.65828" lon="7.28758">
        <ele>622</ele>
        <time>2013-04-07T10:10:15.000Z</time>
      </trkpt>
      <trkpt lat="48.65807" lon="7.28748">
        <ele>626</ele>
        <time>2013-04-07T10:10:19.000Z</time>
      </trkpt>
      <trkpt lat="48.65803" lon="7.28742">
        <ele>627</ele>
        <time>2013-04-07T10:10:23.000Z</time>
      </trkpt>
      <trkpt lat="48.65799" lon="7.28739">
        <ele>626</ele>
        <time>2013-04-07T10:10:27.000Z</time>
      </trkpt>
      <trkpt lat="48.65797" lon="7.28736">
        <ele>626</ele>
        <time>2013-04-07T10:10:31.000Z</time>
      </trkpt>
      <trkpt lat="48.65792" lon="7.28731">
        <ele>626</ele>
        <time>2013-04-07T10:10:35.000Z</time>
      </trkpt>
      <trkpt lat="48.65787" lon="7.28726">
        <ele>626</ele>
        <time>2013-04-07T10:10:39.000Z</time>
      </trkpt>
      <trkpt lat="48.65785" lon="7.28723">
        <ele>627</ele>
        <time>2013-04-07T10:10:41.000Z</time>
      </trkpt>
      <trkpt lat="48.65779" lon="7.28719">
        <ele>627</ele>
        <time>2013-04-07T10:10:45.000Z</time>
      </trkpt>
      <trkpt lat="48.65776" lon="7.28717">
        <ele>627</ele>
        <time>2013-04-07T10:10:47.000Z</time>
      </trkpt>
      <trkpt lat="48.65768" lon="7.28716">
        <ele>626</ele>
        <time>2013-04-07T10:10:50.000Z</time>
      </trkpt>
      <trkpt lat="48.65765" lon="7.28706">
        <ele>628</ele>
        <time>2013-04-07T10:10:53.000Z</time>
      </trkpt>
      <trkpt lat="48.65764" lon="7.28709">
        <ele>627</ele>
        <time>2013-04-07T10:10:55.000Z</time>
      </trkpt>
      <trkpt lat="48.65762" lon="7.28699">
        <ele>628</ele>
        <time>2013-04-07T10:10:57.000Z</time>
      </trkpt>
      <trkpt lat="48.6576" lon="7.287">
        <ele>628</ele>
        <time>2013-04-07T10:10:59.000Z</time>
      </trkpt>
      <trkpt lat="48.65751" lon="7.28699">
        <ele>628</ele>
        <time>2013-04-07T10:11:05.000Z</time>
      </trkpt>
      <trkpt lat="48.65773" lon="7.28698">
        <ele>629</ele>
        <time>2013-04-07T10:11:09.000Z</time>
      </trkpt>
      <trkpt lat="48.65742" lon="7.28688">
        <ele>626</ele>
        <time>2013-04-07T10:11:13.000Z</time>
      </trkpt>
      <trkpt lat="48.65741" lon="7.28686">
        <ele>627</ele>
        <time>2013-04-07T10:11:15.000Z</time>
      </trkpt>
      <trkpt lat="48.65735" lon="7.28685">
        <ele>626</ele>
        <time>2013-04-07T10:11:19.000Z</time>
      </trkpt>
      <trkpt lat="48.6573" lon="7.28684">
        <ele>626</ele>
        <time>2013-04-07T10:11:22.000Z</time>
      </trkpt>
      <trkpt lat="48.65735" lon="7.28676">
        <ele>628</ele>
        <time>2013-04-07T10:11:24.000Z</time>
      </trkpt>
      <trkpt lat="48.6573" lon="7.28673">
        <ele>627</ele>
        <time>2013-04-07T10:11:26.000Z</time>
      </trkpt>
      <trkpt lat="48.65718" lon="7.2867">
        <ele>626</ele>
        <time>2013-04-07T10:11:29.000Z</time>
      </trkpt>
      <trkpt lat="48.65713" lon="7.28668">
        <ele>626</ele>
        <time>2013-04-07T10:11:32.000Z</time>
      </trkpt>
      <trkpt lat="48.65704" lon="7.28667">
        <ele>625</ele>
        <time>2013-04-07T10:11:36.000Z</time>
      </trkpt>
      <trkpt lat="48.657" lon="7.28664">
        <ele>634</ele>
        <time>2013-04-07T10:11:39.000Z</time>
      </trkpt>
      <trkpt lat="48.65696" lon="7.28658">
        <ele>634</ele>
        <time>2013-04-07T10:11:41.000Z</time>
      </trkpt>
      <trkpt lat="48.65692" lon="7.28658">
        <ele>634</ele>
        <time>2013-04-07T10:11:44.000Z</time>
      </trkpt>
      <trkpt lat="48.6569" lon="7.28657">
        <ele>634</ele>
        <time>2013-04-07T10:11:46.000Z</time>
      </trkpt>
      <trkpt lat="48.65681" lon="7.2866">
        <ele>633</ele>
        <time>2013-04-07T10:11:49.000Z</time>
      </trkpt>
      <trkpt lat="48.65681" lon="7.28654">
        <ele>633</ele>
        <time>2013-04-07T10:11:51.000Z</time>
      </trkpt>
      <trkpt lat="48.65676" lon="7.28651">
        <ele>633</ele>
        <time>2013-04-07T10:11:54.000Z</time>
      </trkpt>
      <trkpt lat="48.65668" lon="7.28652">
        <ele>632</ele>
        <time>2013-04-07T10:11:58.000Z</time>
      </trkpt>
      <trkpt lat="48.65663" lon="7.28645">
        <ele>633</ele>
        <time>2013-04-07T10:12:01.000Z</time>
      </trkpt>
      <trkpt lat="48.65685" lon="7.28659">
        <ele>633</ele>
        <time>2013-04-07T10:12:05.000Z</time>
      </trkpt>
      <trkpt lat="48.65649" lon="7.2864">
        <ele>634</ele>
        <time>2013-04-07T10:12:09.000Z</time>
      </trkpt>
      <trkpt lat="48.65641" lon="7.28641">
        <ele>635</ele>
        <time>2013-04-07T10:12:13.000Z</time>
      </trkpt>
      <trkpt lat="48.65635" lon="7.28641">
        <ele>635</ele>
        <time>2013-04-07T10:12:17.000Z</time>
      </trkpt>
      <trkpt lat="48.6563" lon="7.2864">
        <ele>635</ele>
        <time>2013-04-07T10:12:21.000Z</time>
      </trkpt>
      <trkpt lat="48.65629" lon="7.28632">
        <ele>635</ele>
        <time>2013-04-07T10:12:23.000Z</time>
      </trkpt>
      <trkpt lat="48.65623" lon="7.28631">
        <ele>636</ele>
        <time>2013-04-07T10:12:29.000Z</time>
      </trkpt>
      <trkpt lat="48.65616" lon="7.28626">
        <ele>636</ele>
        <time>2013-04-07T10:12:36.000Z</time>
      </trkpt>
      <trkpt lat="48.65612" lon="7.28629">
        <ele>636</ele>
        <time>2013-04-07T10:12:40.000Z</time>
      </trkpt>
      <trkpt lat="48.65606" lon="7.28612">
        <ele>637</ele>
        <time>2013-04-07T10:12:43.000Z</time>
      </trkpt>
      <trkpt lat="48.65602" lon="7.28612">
        <ele>637</ele>
        <time>2013-04-07T10:12:46.000Z</time>
      </trkpt>
      <trkpt lat="48.65606" lon="7.28623">
        <ele>636</ele>
        <time>2013-04-07T10:12:49.000Z</time>
      </trkpt>
      <trkpt lat="48.65592" lon="7.28603">
        <ele>638</ele>
        <time>2013-04-07T10:12:53.000Z</time>
      </trkpt>
      <trkpt lat="48.65588" lon="7.28596">
        <ele>639</ele>
        <time>2013-04-07T10:12:55.000Z</time>
      </trkpt>
      <trkpt lat="48.65583" lon="7.28598">
        <ele>641</ele>
        <time>2013-04-07T10:12:59.000Z</time>
      </trkpt>
      <trkpt lat="48.65582" lon="7.28596">
        <ele>641</ele>
        <time>2013-04-07T10:13:01.000Z</time>
      </trkpt>
      <trkpt lat="48.65577" lon="7.28594">
        <ele>641</ele>
        <time>2013-04-07T10:13:07.000Z</time>
      </trkpt>
      <trkpt lat="48.65569" lon="7.2859">
        <ele>641</ele>
        <time>2013-04-07T10:13:13.000Z</time>
      </trkpt>
      <trkpt lat="48.65565" lon="7.28584">
        <ele>641</ele>
        <time>2013-04-07T10:13:17.000Z</time>
      </trkpt>
      <trkpt lat="48.65563" lon="7.28585">
        <ele>641</ele>
        <time>2013-04-07T10:13:24.000Z</time>
      </trkpt>
      <trkpt lat="48.65563" lon="7.28585">
        <ele>641</ele>
        <time>2013-04-07T10:13:44.000Z</time>
      </trkpt>
      <trkpt lat="48.65575" lon="7.28587">
        <ele>641</ele>
        <time>2013-04-07T10:14:28.000Z</time>
      </trkpt>
      <trkpt lat="48.65562" lon="7.28586">
        <ele>641</ele>
        <time>2013-04-07T10:14:39.000Z</time>
      </trkpt>
      <trkpt lat="48.65554" lon="7.28581">
        <ele>640</ele>
        <time>2013-04-07T10:14:45.000Z</time>
      </trkpt>
      <trkpt lat="48.65556" lon="7.28587">
        <ele>641</ele>
        <time>2013-04-07T10:15:01.000Z</time>
      </trkpt>
      <trkpt lat="48.65556" lon="7.28587">
        <ele>641</ele>
        <time>2013-04-07T10:15:21.000Z</time>
      </trkpt>
      <trkpt lat="48.65549" lon="7.28588">
        <ele>642</ele>
        <time>2013-04-07T10:16:41.000Z</time>
      </trkpt>
      <trkpt lat="48.65549" lon="7.28582">
        <ele>640</ele>
        <time>2013-04-07T10:16:58.000Z</time>
      </trkpt>
      <trkpt lat="48.65549" lon="7.28582">
        <ele>640</ele>
        <time>2013-04-07T10:17:18.000Z</time>
      </trkpt>
      <trkpt lat="48.65547" lon="7.28578">
        <ele>640</ele>
        <time>2013-04-07T10:17:30.000Z</time>
      </trkpt>
      <trkpt lat="48.65546" lon="7.28578">
        <ele>640</ele>
        <time>2013-04-07T10:17:37.000Z</time>
      </trkpt>
      <trkpt lat="48.65542" lon="7.28575">
        <ele>640</ele>
        <time>2013-04-07T10:17:43.000Z</time>
      </trkpt>
      <trkpt lat="48.65549" lon="7.2858">
        <ele>640</ele>
        <time>2013-04-07T10:17:46.000Z</time>
      </trkpt>
      <trkpt lat="48.65537" lon="7.28575">
        <ele>641</ele>
        <time>2013-04-07T10:17:49.000Z</time>
      </trkpt>
      <trkpt lat="48.65536" lon="7.28572">
        <ele>640</ele>
        <time>2013-04-07T10:18:01.000Z</time>
      </trkpt>
      <trkpt lat="48.65536" lon="7.28572">
        <ele>640</ele>
        <time>2013-04-07T10:18:21.000Z</time>
      </trkpt>
      <trkpt lat="48.65555" lon="7.28575">
        <ele>640</ele>
        <time>2013-04-07T10:18:46.000Z</time>
      </trkpt>
      <trkpt lat="48.65555" lon="7.28575">
        <ele>640</ele>
        <time>2013-04-07T10:19:06.000Z</time>
      </trkpt>
      <trkpt lat="48.65533" lon="7.28574">
        <ele>641</ele>
        <time>2013-04-07T10:19:09.000Z</time>
      </trkpt>
      <trkpt lat="48.65533" lon="7.28574">
        <ele>641</ele>
        <time>2013-04-07T10:19:29.000Z</time>
      </trkpt>
      <trkpt lat="48.65541" lon="7.28572">
        <ele>640</ele>
        <time>2013-04-07T10:20:57.000Z</time>
      </trkpt>
      <trkpt lat="48.65541" lon="7.28572">
        <ele>640</ele>
        <time>2013-04-07T10:21:17.000Z</time>
      </trkpt>
      <trkpt lat="48.65532" lon="7.28566">
        <ele>640</ele>
        <time>2013-04-07T10:21:46.000Z</time>
      </trkpt>
      <trkpt lat="48.65532" lon="7.28566">
        <ele>640</ele>
        <time>2013-04-07T10:22:06.000Z</time>
      </trkpt>
      <trkpt lat="48.65532" lon="7.28569">
        <ele>640</ele>
        <time>2013-04-07T10:25:09.000Z</time>
      </trkpt>
      <trkpt lat="48.65532" lon="7.28569">
        <ele>640</ele>
        <time>2013-04-07T10:25:29.000Z</time>
      </trkpt>
      <trkpt lat="48.65533" lon="7.28571">
        <ele>641</ele>
        <time>2013-04-07T10:26:16.000Z</time>
      </trkpt>
      <trkpt lat="48.65533" lon="7.28571">
        <ele>641</ele>
        <time>2013-04-07T10:26:36.000Z</time>
      </trkpt>
      <trkpt lat="48.65534" lon="7.28571">
        <ele>641</ele>
        <time>2013-04-07T10:26:44.000Z</time>
      </trkpt>
      <trkpt lat="48.65534" lon="7.28571">
        <ele>641</ele>
        <time>2013-04-07T10:27:04.000Z</time>
      </trkpt>
      <trkpt lat="48.65537" lon="7.28578">
        <ele>641</ele>
        <time>2013-04-07T10:27:10.000Z</time>
      </trkpt>
      <trkpt lat="48.6556" lon="7.28532">
        <ele>638</ele>
        <time>2013-04-07T10:27:16.000Z</time>
      </trkpt>
      <trkpt lat="48.6557" lon="7.28522">
        <ele>638</ele>
        <time>2013-04-07T10:27:18.000Z</time>
      </trkpt>
      <trkpt lat="48.65589" lon="7.28498">
        <ele>635</ele>
        <time>2013-04-07T10:27:21.000Z</time>
      </trkpt>
      <trkpt lat="48.65583" lon="7.28501">
        <ele>636</ele>
        <time>2013-04-07T10:27:23.000Z</time>
      </trkpt>
      <trkpt lat="48.65582" lon="7.28475">
        <ele>631</ele>
        <time>2013-04-07T10:27:27.000Z</time>
      </trkpt>
      <trkpt lat="48.65639" lon="7.2845">
        <ele>632</ele>
        <time>2013-04-07T10:27:33.000Z</time>
      </trkpt>
      <trkpt lat="48.65646" lon="7.28441">
        <ele>631</ele>
        <time>2013-04-07T10:27:35.000Z</time>
      </trkpt>
      <trkpt lat="48.65657" lon="7.28425">
        <ele>630</ele>
        <time>2013-04-07T10:27:38.000Z</time>
      </trkpt>
      <trkpt lat="48.65666" lon="7.28406">
        <ele>625</ele>
        <time>2013-04-07T10:27:41.000Z</time>
      </trkpt>
      <trkpt lat="48.65674" lon="7.2838">
        <ele>623</ele>
        <time>2013-04-07T10:27:44.000Z</time>
      </trkpt>
      <trkpt lat="48.6568" lon="7.28381">
        <ele>623</ele>
        <time>2013-04-07T10:27:46.000Z</time>
      </trkpt>
      <trkpt lat="48.65688" lon="7.28372">
        <ele>622</ele>
        <time>2013-04-07T10:27:48.000Z</time>
      </trkpt>
      <trkpt lat="48.65698" lon="7.28367">
        <ele>622</ele>
        <time>2013-04-07T10:27:50.000Z</time>
      </trkpt>
      <trkpt lat="48.65711" lon="7.28359">
        <ele>621</ele>
        <time>2013-04-07T10:27:52.000Z</time>
      </trkpt>
      <trkpt lat="48.65719" lon="7.28344">
        <ele>620</ele>
        <time>2013-04-07T10:27:55.000Z</time>
      </trkpt>
      <trkpt lat="48.65733" lon="7.28345">
        <ele>620</ele>
        <time>2013-04-07T10:27:57.000Z</time>
      </trkpt>
      <trkpt lat="48.65745" lon="7.28327">
        <ele>614</ele>
        <time>2013-04-07T10:27:59.000Z</time>
      </trkpt>
      <trkpt lat="48.6576" lon="7.28315">
        <ele>613</ele>
        <time>2013-04-07T10:28:02.000Z</time>
      </trkpt>
      <trkpt lat="48.65758" lon="7.2831">
        <ele>612</ele>
        <time>2013-04-07T10:28:04.000Z</time>
      </trkpt>
      <trkpt lat="48.65764" lon="7.28294">
        <ele>610</ele>
        <time>2013-04-07T10:28:07.000Z</time>
      </trkpt>
      <trkpt lat="48.65774" lon="7.28281">
        <ele>609</ele>
        <time>2013-04-07T10:28:09.000Z</time>
      </trkpt>
      <trkpt lat="48.658" lon="7.28254">
        <ele>608</ele>
        <time>2013-04-07T10:28:13.000Z</time>
      </trkpt>
      <trkpt lat="48.65813" lon="7.28247">
        <ele>601</ele>
        <time>2013-04-07T10:28:15.000Z</time>
      </trkpt>
      <trkpt lat="48.65842" lon="7.28215">
        <ele>598</ele>
        <time>2013-04-07T10:28:19.000Z</time>
      </trkpt>
      <trkpt lat="48.65864" lon="7.282">
        <ele>596</ele>
        <time>2013-04-07T10:28:22.000Z</time>
      </trkpt>
      <trkpt lat="48.65879" lon="7.2819">
        <ele>595</ele>
        <time>2013-04-07T10:28:26.000Z</time>
      </trkpt>
      <trkpt lat="48.65893" lon="7.28173">
        <ele>593</ele>
        <time>2013-04-07T10:28:29.000Z</time>
      </trkpt>
      <trkpt lat="48.65899" lon="7.28152">
        <ele>586</ele>
        <time>2013-04-07T10:28:32.000Z</time>
      </trkpt>
      <trkpt lat="48.65938" lon="7.28157">
        <ele>583</ele>
        <time>2013-04-07T10:28:36.000Z</time>
      </trkpt>
      <trkpt lat="48.65956" lon="7.28152">
        <ele>581</ele>
        <time>2013-04-07T10:28:38.000Z</time>
      </trkpt>
      <trkpt lat="48.65971" lon="7.28145">
        <ele>580</ele>
        <time>2013-04-07T10:28:40.000Z</time>
      </trkpt>
      <trkpt lat="48.65977" lon="7.28158">
        <ele>580</ele>
        <time>2013-04-07T10:28:42.000Z</time>
      </trkpt>
      <trkpt lat="48.65977" lon="7.28156">
        <ele>580</ele>
        <time>2013-04-07T10:28:44.000Z</time>
      </trkpt>
      <trkpt lat="48.65987" lon="7.28156">
        <ele>580</ele>
        <time>2013-04-07T10:28:48.000Z</time>
      </trkpt>
      <trkpt lat="48.65996" lon="7.28156">
        <ele>580</ele>
        <time>2013-04-07T10:28:50.000Z</time>
      </trkpt>
      <trkpt lat="48.66007" lon="7.28148">
        <ele>575</ele>
        <time>2013-04-07T10:28:53.000Z</time>
      </trkpt>
      <trkpt lat="48.66012" lon="7.28149">
        <ele>575</ele>
        <time>2013-04-07T10:28:55.000Z</time>
      </trkpt>
      <trkpt lat="48.66018" lon="7.28146">
        <ele>574</ele>
        <time>2013-04-07T10:28:57.000Z</time>
      </trkpt>
      <trkpt lat="48.66018" lon="7.28142">
        <ele>573</ele>
        <time>2013-04-07T10:28:59.000Z</time>
      </trkpt>
      <trkpt lat="48.66019" lon="7.28125">
        <ele>572</ele>
        <time>2013-04-07T10:29:02.000Z</time>
      </trkpt>
      <trkpt lat="48.66019" lon="7.28104">
        <ele>570</ele>
        <time>2013-04-07T10:29:05.000Z</time>
      </trkpt>
      <trkpt lat="48.66018" lon="7.28104">
        <ele>570</ele>
        <time>2013-04-07T10:29:07.000Z</time>
      </trkpt>
      <trkpt lat="48.66026" lon="7.28099">
        <ele>570</ele>
        <time>2013-04-07T10:29:10.000Z</time>
      </trkpt>
      <trkpt lat="48.66012" lon="7.28066">
        <ele>563</ele>
        <time>2013-04-07T10:29:14.000Z</time>
      </trkpt>
      <trkpt lat="48.66014" lon="7.28022">
        <ele>557</ele>
        <time>2013-04-07T10:29:17.000Z</time>
      </trkpt>
      <trkpt lat="48.6601" lon="7.28018">
        <ele>557</ele>
        <time>2013-04-07T10:29:19.000Z</time>
      </trkpt>
      <trkpt lat="48.66" lon="7.28009">
        <ele>558</ele>
        <time>2013-04-07T10:29:22.000Z</time>
      </trkpt>
      <trkpt lat="48.65991" lon="7.27997">
        <ele>554</ele>
        <time>2013-04-07T10:29:24.000Z</time>
      </trkpt>
      <trkpt lat="48.65986" lon="7.27986">
        <ele>553</ele>
        <time>2013-04-07T10:29:26.000Z</time>
      </trkpt>
      <trkpt lat="48.65981" lon="7.2797">
        <ele>552</ele>
        <time>2013-04-07T10:29:28.000Z</time>
      </trkpt>
      <trkpt lat="48.65974" lon="7.27933">
        <ele>549</ele>
        <time>2013-04-07T10:29:31.000Z</time>
      </trkpt>
      <trkpt lat="48.65967" lon="7.27912">
        <ele>540</ele>
        <time>2013-04-07T10:29:34.000Z</time>
      </trkpt>
      <trkpt lat="48.65924" lon="7.27825">
        <ele>531</ele>
        <time>2013-04-07T10:29:40.000Z</time>
      </trkpt>
      <trkpt lat="48.65914" lon="7.27796">
        <ele>529</ele>
        <time>2013-04-07T10:29:42.000Z</time>
      </trkpt>
      <trkpt lat="48.65902" lon="7.27775">
        <ele>527</ele>
        <time>2013-04-07T10:29:45.000Z</time>
      </trkpt>
      <trkpt lat="48.65891" lon="7.27763">
        <ele>527</ele>
        <time>2013-04-07T10:29:48.000Z</time>
      </trkpt>
      <trkpt lat="48.65886" lon="7.27742">
        <ele>521</ele>
        <time>2013-04-07T10:29:51.000Z</time>
      </trkpt>
      <trkpt lat="48.65873" lon="7.27701">
        <ele>519</ele>
        <time>2013-04-07T10:29:55.000Z</time>
      </trkpt>
      <trkpt lat="48.65868" lon="7.27671">
        <ele>517</ele>
        <time>2013-04-07T10:29:58.000Z</time>
      </trkpt>
      <trkpt lat="48.6587" lon="7.2766">
        <ele>511</ele>
        <time>2013-04-07T10:30:00.000Z</time>
      </trkpt>
      <trkpt lat="48.65875" lon="7.27636">
        <ele>510</ele>
        <time>2013-04-07T10:30:03.000Z</time>
      </trkpt>
      <trkpt lat="48.6589" lon="7.27609">
        <ele>509</ele>
        <time>2013-04-07T10:30:06.000Z</time>
      </trkpt>
      <trkpt lat="48.65893" lon="7.27596">
        <ele>509</ele>
        <time>2013-04-07T10:30:09.000Z</time>
      </trkpt>
      <trkpt lat="48.65902" lon="7.27594">
        <ele>509</ele>
        <time>2013-04-07T10:30:11.000Z</time>
      </trkpt>
      <trkpt lat="48.65912" lon="7.27564">
        <ele>502</ele>
        <time>2013-04-07T10:30:14.000Z</time>
      </trkpt>
      <trkpt lat="48.65927" lon="7.27536">
        <ele>500</ele>
        <time>2013-04-07T10:30:17.000Z</time>
      </trkpt>
      <trkpt lat="48.65938" lon="7.2752">
        <ele>498</ele>
        <time>2013-04-07T10:30:20.000Z</time>
      </trkpt>
      <trkpt lat="48.65944" lon="7.27506">
        <ele>497</ele>
        <time>2013-04-07T10:30:23.000Z</time>
      </trkpt>
      <trkpt lat="48.65924" lon="7.27487">
        <ele>488</ele>
        <time>2013-04-07T10:30:26.000Z</time>
      </trkpt>
      <trkpt lat="48.65902" lon="7.27483">
        <ele>484</ele>
        <time>2013-04-07T10:30:29.000Z</time>
      </trkpt>
      <trkpt lat="48.65881" lon="7.2748">
        <ele>481</ele>
        <time>2013-04-07T10:30:31.000Z</time>
      </trkpt>
      <trkpt lat="48.65872" lon="7.27477">
        <ele>480</ele>
        <time>2013-04-07T10:30:33.000Z</time>
      </trkpt>
      <trkpt lat="48.65844" lon="7.27468">
        <ele>479</ele>
        <time>2013-04-07T10:30:37.000Z</time>
      </trkpt>
      <trkpt lat="48.65829" lon="7.27467">
        <ele>474</ele>
        <time>2013-04-07T10:30:39.000Z</time>
      </trkpt>
      <trkpt lat="48.65816" lon="7.27456">
        <ele>472</ele>
        <time>2013-04-07T10:30:42.000Z</time>
      </trkpt>
      <trkpt lat="48.65796" lon="7.27452">
        <ele>471</ele>
        <time>2013-04-07T10:30:45.000Z</time>
      </trkpt>
      <trkpt lat="48.65784" lon="7.27456">
        <ele>471</ele>
        <time>2013-04-07T10:30:47.000Z</time>
      </trkpt>
      <trkpt lat="48.65777" lon="7.27452">
        <ele>471</ele>
        <time>2013-04-07T10:30:50.000Z</time>
      </trkpt>
      <trkpt lat="48.65769" lon="7.27469">
        <ele>471</ele>
        <time>2013-04-07T10:30:53.000Z</time>
      </trkpt>
      <trkpt lat="48.6576" lon="7.27493">
        <ele>470</ele>
        <time>2013-04-07T10:30:56.000Z</time>
      </trkpt>
      <trkpt lat="48.65755" lon="7.2751">
        <ele>474</ele>
        <time>2013-04-07T10:30:59.000Z</time>
      </trkpt>
      <trkpt lat="48.65747" lon="7.2754">
        <ele>477</ele>
        <time>2013-04-07T10:31:02.000Z</time>
      </trkpt>
      <trkpt lat="48.65732" lon="7.27551">
        <ele>478</ele>
        <time>2013-04-07T10:31:04.000Z</time>
      </trkpt>
      <trkpt lat="48.6573" lon="7.27561">
        <ele>479</ele>
        <time>2013-04-07T10:31:11.000Z</time>
      </trkpt>
      <trkpt lat="48.65728" lon="7.27561">
        <ele>479</ele>
        <time>2013-04-07T10:31:16.000Z</time>
      </trkpt>
      <trkpt lat="48.65726" lon="7.27562">
        <ele>479</ele>
        <time>2013-04-07T10:31:25.000Z</time>
      </trkpt>
      <trkpt lat="48.65742" lon="7.27561">
        <ele>479</ele>
        <time>2013-04-07T10:31:30.000Z</time>
      </trkpt>
      <trkpt lat="48.65722" lon="7.27562">
        <ele>479</ele>
        <time>2013-04-07T10:31:34.000Z</time>
      </trkpt>
      <trkpt lat="48.6573" lon="7.27557">
        <ele>479</ele>
        <time>2013-04-07T10:31:38.000Z</time>
      </trkpt>
      <trkpt lat="48.6573" lon="7.27557">
        <ele>479</ele>
        <time>2013-04-07T10:31:58.000Z</time>
      </trkpt>
      <trkpt lat="48.65722" lon="7.27553">
        <ele>478</ele>
        <time>2013-04-07T10:32:12.000Z</time>
      </trkpt>
      <trkpt lat="48.65722" lon="7.27553">
        <ele>478</ele>
        <time>2013-04-07T10:32:32.000Z</time>
      </trkpt>
      <trkpt lat="48.65723" lon="7.27557">
        <ele>478</ele>
        <time>2013-04-07T10:32:53.000Z</time>
      </trkpt>
      <trkpt lat="48.65723" lon="7.27557">
        <ele>478</ele>
        <time>2013-04-07T10:33:13.000Z</time>
      </trkpt>
      <trkpt lat="48.65725" lon="7.2756">
        <ele>479</ele>
        <time>2013-04-07T10:33:28.000Z</time>
      </trkpt>
      <trkpt lat="48.65724" lon="7.27557">
        <ele>478</ele>
        <time>2013-04-07T10:33:35.000Z</time>
      </trkpt>
      <trkpt lat="48.65733" lon="7.27557">
        <ele>479</ele>
        <time>2013-04-07T10:33:39.000Z</time>
      </trkpt>
      <trkpt lat="48.6572" lon="7.27558">
        <ele>479</ele>
        <time>2013-04-07T10:33:56.000Z</time>
      </trkpt>
      <trkpt lat="48.65725" lon="7.27556">
        <ele>478</ele>
        <time>2013-04-07T10:34:02.000Z</time>
      </trkpt>
      <trkpt lat="48.65725" lon="7.27556">
        <ele>478</ele>
        <time>2013-04-07T10:34:22.000Z</time>
      </trkpt>
      <trkpt lat="48.65719" lon="7.27563">
        <ele>479</ele>
        <time>2013-04-07T10:34:39.000Z</time>
      </trkpt>
      <trkpt lat="48.65718" lon="7.27558">
        <ele>479</ele>
        <time>2013-04-07T10:34:50.000Z</time>
      </trkpt>
      <trkpt lat="48.65719" lon="7.27556">
        <ele>478</ele>
        <time>2013-04-07T10:34:53.000Z</time>
      </trkpt>
      <trkpt lat="48.65711" lon="7.27557">
        <ele>478</ele>
        <time>2013-04-07T10:34:56.000Z</time>
      </trkpt>
      <trkpt lat="48.6572" lon="7.27552">
        <ele>478</ele>
        <time>2013-04-07T10:34:59.000Z</time>
      </trkpt>
      <trkpt lat="48.65717" lon="7.27548">
        <ele>478</ele>
        <time>2013-04-07T10:35:02.000Z</time>
      </trkpt>
      <trkpt lat="48.65719" lon="7.27548">
        <ele>478</ele>
        <time>2013-04-07T10:35:05.000Z</time>
      </trkpt>
      <trkpt lat="48.65721" lon="7.2754">
        <ele>478</ele>
        <time>2013-04-07T10:35:10.000Z</time>
      </trkpt>
      <trkpt lat="48.65716" lon="7.27538">
        <ele>478</ele>
        <time>2013-04-07T10:35:13.000Z</time>
      </trkpt>
      <trkpt lat="48.65718" lon="7.27538">
        <ele>478</ele>
        <time>2013-04-07T10:35:16.000Z</time>
      </trkpt>
      <trkpt lat="48.65718" lon="7.27532">
        <ele>478</ele>
        <time>2013-04-07T10:35:19.000Z</time>
      </trkpt>
      <trkpt lat="48.65718" lon="7.27528">
        <ele>477</ele>
        <time>2013-04-07T10:35:22.000Z</time>
      </trkpt>
      <trkpt lat="48.65727" lon="7.27532">
        <ele>477</ele>
        <time>2013-04-07T10:35:25.000Z</time>
      </trkpt>
      <trkpt lat="48.65718" lon="7.27525">
        <ele>477</ele>
        <time>2013-04-07T10:35:29.000Z</time>
      </trkpt>
      <trkpt lat="48.65717" lon="7.27519">
        <ele>477</ele>
        <time>2013-04-07T10:35:33.000Z</time>
      </trkpt>
      <trkpt lat="48.65715" lon="7.27518">
        <ele>477</ele>
        <time>2013-04-07T10:35:40.000Z</time>
      </trkpt>
      <trkpt lat="48.65714" lon="7.27513">
        <ele>477</ele>
        <time>2013-04-07T10:35:44.000Z</time>
      </trkpt>
      <trkpt lat="48.65714" lon="7.27511">
        <ele>477</ele>
        <time>2013-04-07T10:35:49.000Z</time>
      </trkpt>
      <trkpt lat="48.65714" lon="7.27507">
        <ele>477</ele>
        <time>2013-04-07T10:35:52.000Z</time>
      </trkpt>
      <trkpt lat="48.65713" lon="7.27504">
        <ele>477</ele>
        <time>2013-04-07T10:35:54.000Z</time>
      </trkpt>
      <trkpt lat="48.65712" lon="7.27502">
        <ele>477</ele>
        <time>2013-04-07T10:35:57.000Z</time>
      </trkpt>
      <trkpt lat="48.65712" lon="7.27498">
        <ele>478</ele>
        <time>2013-04-07T10:36:00.000Z</time>
      </trkpt>
      <trkpt lat="48.65711" lon="7.27496">
        <ele>478</ele>
        <time>2013-04-07T10:36:03.000Z</time>
      </trkpt>
      <trkpt lat="48.65708" lon="7.27492">
        <ele>479</ele>
        <time>2013-04-07T10:36:07.000Z</time>
      </trkpt>
      <trkpt lat="48.65701" lon="7.27488">
        <ele>480</ele>
        <time>2013-04-07T10:36:10.000Z</time>
      </trkpt>
      <trkpt lat="48.65704" lon="7.27488">
        <ele>479</ele>
        <time>2013-04-07T10:36:13.000Z</time>
      </trkpt>
      <trkpt lat="48.65702" lon="7.27482">
        <ele>480</ele>
        <time>2013-04-07T10:36:16.000Z</time>
      </trkpt>
      <trkpt lat="48.65704" lon="7.27475">
        <ele>480</ele>
        <time>2013-04-07T10:36:19.000Z</time>
      </trkpt>
      <trkpt lat="48.65702" lon="7.27479">
        <ele>480</ele>
        <time>2013-04-07T10:36:22.000Z</time>
      </trkpt>
      <trkpt lat="48.657" lon="7.27474">
        <ele>480</ele>
        <time>2013-04-07T10:36:25.000Z</time>
      </trkpt>
      <trkpt lat="48.65699" lon="7.27469">
        <ele>480</ele>
        <time>2013-04-07T10:36:28.000Z</time>
      </trkpt>
      <trkpt lat="48.65699" lon="7.27463">
        <ele>481</ele>
        <time>2013-04-07T10:36:33.000Z</time>
      </trkpt>
      <trkpt lat="48.65697" lon="7.2746">
        <ele>481</ele>
        <time>2013-04-07T10:36:37.000Z</time>
      </trkpt>
      <trkpt lat="48.65696" lon="7.27457">
        <ele>481</ele>
        <time>2013-04-07T10:36:40.000Z</time>
      </trkpt>
      <trkpt lat="48.65688" lon="7.27456">
        <ele>482</ele>
        <time>2013-04-07T10:36:43.000Z</time>
      </trkpt>
      <trkpt lat="48.65692" lon="7.27447">
        <ele>483</ele>
        <time>2013-04-07T10:36:46.000Z</time>
      </trkpt>
      <trkpt lat="48.6569" lon="7.2745">
        <ele>483</ele>
        <time>2013-04-07T10:36:49.000Z</time>
      </trkpt>
      <trkpt lat="48.65687" lon="7.27449">
        <ele>483</ele>
        <time>2013-04-07T10:36:52.000Z</time>
      </trkpt>
      <trkpt lat="48.65686" lon="7.27446">
        <ele>484</ele>
        <time>2013-04-07T10:36:56.000Z</time>
      </trkpt>
      <trkpt lat="48.65686" lon="7.27443">
        <ele>484</ele>
        <time>2013-04-07T10:37:00.000Z</time>
      </trkpt>
      <trkpt lat="48.65685" lon="7.27441">
        <ele>485</ele>
        <time>2013-04-07T10:37:03.000Z</time>
      </trkpt>
      <trkpt lat="48.65685" lon="7.27439">
        <ele>485</ele>
        <time>2013-04-07T10:37:06.000Z</time>
      </trkpt>
      <trkpt lat="48.65685" lon="7.27436">
        <ele>486</ele>
        <time>2013-04-07T10:37:11.000Z</time>
      </trkpt>
      <trkpt lat="48.65684" lon="7.27433">
        <ele>486</ele>
        <time>2013-04-07T10:37:14.000Z</time>
      </trkpt>
      <trkpt lat="48.65683" lon="7.2743">
        <ele>487</ele>
        <time>2013-04-07T10:37:16.000Z</time>
      </trkpt>
      <trkpt lat="48.65683" lon="7.27427">
        <ele>488</ele>
        <time>2013-04-07T10:37:19.000Z</time>
      </trkpt>
      <trkpt lat="48.65682" lon="7.27423">
        <ele>488</ele>
        <time>2013-04-07T10:37:23.000Z</time>
      </trkpt>
      <trkpt lat="48.65681" lon="7.27417">
        <ele>490</ele>
        <time>2013-04-07T10:37:28.000Z</time>
      </trkpt>
      <trkpt lat="48.65681" lon="7.27414">
        <ele>491</ele>
        <time>2013-04-07T10:37:31.000Z</time>
      </trkpt>
      <trkpt lat="48.6568" lon="7.27401">
        <ele>490</ele>
        <time>2013-04-07T10:37:37.000Z</time>
      </trkpt>
      <trkpt lat="48.65678" lon="7.27405">
        <ele>491</ele>
        <time>2013-04-07T10:37:41.000Z</time>
      </trkpt>
      <trkpt lat="48.65677" lon="7.27402">
        <ele>491</ele>
        <time>2013-04-07T10:37:45.000Z</time>
      </trkpt>
      <trkpt lat="48.65676" lon="7.27398">
        <ele>490</ele>
        <time>2013-04-07T10:37:48.000Z</time>
      </trkpt>
      <trkpt lat="48.65683" lon="7.27397">
        <ele>489</ele>
        <time>2013-04-07T10:37:51.000Z</time>
      </trkpt>
      <trkpt lat="48.65673" lon="7.27395">
        <ele>490</ele>
        <time>2013-04-07T10:37:54.000Z</time>
      </trkpt>
      <trkpt lat="48.65674" lon="7.27386">
        <ele>489</ele>
        <time>2013-04-07T10:38:05.000Z</time>
      </trkpt>
      <trkpt lat="48.65674" lon="7.27384">
        <ele>489</ele>
        <time>2013-04-07T10:38:08.000Z</time>
      </trkpt>
      <trkpt lat="48.65674" lon="7.27381">
        <ele>489</ele>
        <time>2013-04-07T10:38:11.000Z</time>
      </trkpt>
      <trkpt lat="48.65675" lon="7.27378">
        <ele>489</ele>
        <time>2013-04-07T10:38:14.000Z</time>
      </trkpt>
      <trkpt lat="48.65675" lon="7.27375">
        <ele>489</ele>
        <time>2013-04-07T10:38:17.000Z</time>
      </trkpt>
      <trkpt lat="48.65674" lon="7.27372">
        <ele>489</ele>
        <time>2013-04-07T10:38:20.000Z</time>
      </trkpt>
      <trkpt lat="48.65669" lon="7.2737">
        <ele>489</ele>
        <time>2013-04-07T10:38:31.000Z</time>
      </trkpt>
      <trkpt lat="48.65668" lon="7.27366">
        <ele>490</ele>
        <time>2013-04-07T10:38:34.000Z</time>
      </trkpt>
      <trkpt lat="48.65667" lon="7.27364">
        <ele>490</ele>
        <time>2013-04-07T10:38:38.000Z</time>
      </trkpt>
      <trkpt lat="48.65666" lon="7.27362">
        <ele>506</ele>
        <time>2013-04-07T10:38:41.000Z</time>
      </trkpt>
      <trkpt lat="48.65664" lon="7.2736">
        <ele>505</ele>
        <time>2013-04-07T10:38:45.000Z</time>
      </trkpt>
      <trkpt lat="48.65659" lon="7.27356">
        <ele>505</ele>
        <time>2013-04-07T10:38:49.000Z</time>
      </trkpt>
      <trkpt lat="48.65662" lon="7.27349">
        <ele>504</ele>
        <time>2013-04-07T10:38:52.000Z</time>
      </trkpt>
      <trkpt lat="48.65662" lon="7.27353">
        <ele>505</ele>
        <time>2013-04-07T10:38:57.000Z</time>
      </trkpt>
      <trkpt lat="48.6566" lon="7.27342">
        <ele>503</ele>
        <time>2013-04-07T10:39:01.000Z</time>
      </trkpt>
      <trkpt lat="48.65659" lon="7.27347">
        <ele>504</ele>
        <time>2013-04-07T10:39:08.000Z</time>
      </trkpt>
      <trkpt lat="48.65656" lon="7.27343">
        <ele>504</ele>
        <time>2013-04-07T10:39:12.000Z</time>
      </trkpt>
      <trkpt lat="48.65652" lon="7.27339">
        <ele>505</ele>
        <time>2013-04-07T10:39:15.000Z</time>
      </trkpt>
      <trkpt lat="48.65653" lon="7.27333">
        <ele>504</ele>
        <time>2013-04-07T10:39:22.000Z</time>
      </trkpt>
      <trkpt lat="48.65649" lon="7.2734">
        <ele>505</ele>
        <time>2013-04-07T10:39:25.000Z</time>
      </trkpt>
      <trkpt lat="48.65648" lon="7.27329">
        <ele>506</ele>
        <time>2013-04-07T10:39:30.000Z</time>
      </trkpt>
      <trkpt lat="48.65647" lon="7.27327">
        <ele>506</ele>
        <time>2013-04-07T10:39:33.000Z</time>
      </trkpt>
      <trkpt lat="48.65646" lon="7.27325">
        <ele>506</ele>
        <time>2013-04-07T10:39:41.000Z</time>
      </trkpt>
      <trkpt lat="48.65652" lon="7.27327">
        <ele>505</ele>
        <time>2013-04-07T10:39:47.000Z</time>
      </trkpt>
      <trkpt lat="48.65639" lon="7.27315">
        <ele>508</ele>
        <time>2013-04-07T10:39:54.000Z</time>
      </trkpt>
      <trkpt lat="48.65648" lon="7.27319">
        <ele>506</ele>
        <time>2013-04-07T10:39:58.000Z</time>
      </trkpt>
      <trkpt lat="48.65634" lon="7.27312">
        <ele>509</ele>
        <time>2013-04-07T10:40:04.000Z</time>
      </trkpt>
      <trkpt lat="48.65633" lon="7.27309">
        <ele>509</ele>
        <time>2013-04-07T10:40:07.000Z</time>
      </trkpt>
      <trkpt lat="48.65633" lon="7.27307">
        <ele>509</ele>
        <time>2013-04-07T10:40:11.000Z</time>
      </trkpt>
      <trkpt lat="48.65628" lon="7.27297">
        <ele>510</ele>
        <time>2013-04-07T10:40:16.000Z</time>
      </trkpt>
      <trkpt lat="48.65626" lon="7.27299">
        <ele>510</ele>
        <time>2013-04-07T10:40:22.000Z</time>
      </trkpt>
      <trkpt lat="48.65634" lon="7.27302">
        <ele>509</ele>
        <time>2013-04-07T10:40:25.000Z</time>
      </trkpt>
      <trkpt lat="48.65621" lon="7.27294">
        <ele>511</ele>
        <time>2013-04-07T10:40:32.000Z</time>
      </trkpt>
      <trkpt lat="48.65619" lon="7.27292">
        <ele>511</ele>
        <time>2013-04-07T10:40:36.000Z</time>
      </trkpt>
      <trkpt lat="48.65631" lon="7.273">
        <ele>510</ele>
        <time>2013-04-07T10:40:40.000Z</time>
      </trkpt>
      <trkpt lat="48.65614" lon="7.27292">
        <ele>511</ele>
        <time>2013-04-07T10:40:44.000Z</time>
      </trkpt>
      <trkpt lat="48.65614" lon="7.27287">
        <ele>511</ele>
        <time>2013-04-07T10:40:47.000Z</time>
      </trkpt>
      <trkpt lat="48.65611" lon="7.2728">
        <ele>512</ele>
        <time>2013-04-07T10:40:50.000Z</time>
      </trkpt>
      <trkpt lat="48.65609" lon="7.27287">
        <ele>512</ele>
        <time>2013-04-07T10:40:53.000Z</time>
      </trkpt>
      <trkpt lat="48.65605" lon="7.27286">
        <ele>512</ele>
        <time>2013-04-07T10:40:56.000Z</time>
      </trkpt>
      <trkpt lat="48.65604" lon="7.27282">
        <ele>512</ele>
        <time>2013-04-07T10:40:59.000Z</time>
      </trkpt>
      <trkpt lat="48.65601" lon="7.27279">
        <ele>512</ele>
        <time>2013-04-07T10:41:04.000Z</time>
      </trkpt>
      <trkpt lat="48.65604" lon="7.27278">
        <ele>512</ele>
        <time>2013-04-07T10:41:07.000Z</time>
      </trkpt>
      <trkpt lat="48.65596" lon="7.27278">
        <ele>513</ele>
        <time>2013-04-07T10:41:13.000Z</time>
      </trkpt>
      <trkpt lat="48.65598" lon="7.27272">
        <ele>513</ele>
        <time>2013-04-07T10:41:16.000Z</time>
      </trkpt>
      <trkpt lat="48.65593" lon="7.27277">
        <ele>513</ele>
        <time>2013-04-07T10:41:20.000Z</time>
      </trkpt>
      <trkpt lat="48.65594" lon="7.27269">
        <ele>513</ele>
        <time>2013-04-07T10:41:26.000Z</time>
      </trkpt>
      <trkpt lat="48.65591" lon="7.27264">
        <ele>514</ele>
        <time>2013-04-07T10:41:30.000Z</time>
      </trkpt>
      <trkpt lat="48.65589" lon="7.27264">
        <ele>514</ele>
        <time>2013-04-07T10:41:35.000Z</time>
      </trkpt>
      <trkpt lat="48.65598" lon="7.2727">
        <ele>513</ele>
        <time>2013-04-07T10:41:46.000Z</time>
      </trkpt>
      <trkpt lat="48.65585" lon="7.27265">
        <ele>514</ele>
        <time>2013-04-07T10:41:51.000Z</time>
      </trkpt>
      <trkpt lat="48.65582" lon="7.27262">
        <ele>520</ele>
        <time>2013-04-07T10:41:54.000Z</time>
      </trkpt>
      <trkpt lat="48.6558" lon="7.27261">
        <ele>520</ele>
        <time>2013-04-07T10:41:57.000Z</time>
      </trkpt>
      <trkpt lat="48.65596" lon="7.27259">
        <ele>513</ele>
        <time>2013-04-07T10:42:01.000Z</time>
      </trkpt>
      <trkpt lat="48.65574" lon="7.27261">
        <ele>521</ele>
        <time>2013-04-07T10:42:05.000Z</time>
      </trkpt>
      <trkpt lat="48.65569" lon="7.2726">
        <ele>522</ele>
        <time>2013-04-07T10:42:10.000Z</time>
      </trkpt>
      <trkpt lat="48.65567" lon="7.27256">
        <ele>522</ele>
        <time>2013-04-07T10:42:16.000Z</time>
      </trkpt>
      <trkpt lat="48.65565" lon="7.27253">
        <ele>522</ele>
        <time>2013-04-07T10:42:20.000Z</time>
      </trkpt>
      <trkpt lat="48.65562" lon="7.27249">
        <ele>520</ele>
        <time>2013-04-07T10:42:22.000Z</time>
      </trkpt>
      <trkpt lat="48.65557" lon="7.27244">
        <ele>521</ele>
        <time>2013-04-07T10:42:27.000Z</time>
      </trkpt>
      <trkpt lat="48.65555" lon="7.27246">
        <ele>521</ele>
        <time>2013-04-07T10:42:32.000Z</time>
      </trkpt>
      <trkpt lat="48.65554" lon="7.27241">
        <ele>522</ele>
        <time>2013-04-07T10:42:46.000Z</time>
      </trkpt>
      <trkpt lat="48.65551" lon="7.27238">
        <ele>522</ele>
        <time>2013-04-07T10:42:56.000Z</time>
      </trkpt>
      <trkpt lat="48.65549" lon="7.27241">
        <ele>522</ele>
        <time>2013-04-07T10:42:58.000Z</time>
      </trkpt>
      <trkpt lat="48.65545" lon="7.27242">
        <ele>523</ele>
        <time>2013-04-07T10:43:06.000Z</time>
      </trkpt>
      <trkpt lat="48.65551" lon="7.27247">
        <ele>522</ele>
        <time>2013-04-07T10:43:11.000Z</time>
      </trkpt>
      <trkpt lat="48.65541" lon="7.27242">
        <ele>523</ele>
        <time>2013-04-07T10:43:21.000Z</time>
      </trkpt>
      <trkpt lat="48.65543" lon="7.2725">
        <ele>523</ele>
        <time>2013-04-07T10:43:24.000Z</time>
      </trkpt>
      <trkpt lat="48.65536" lon="7.27242">
        <ele>524</ele>
        <time>2013-04-07T10:43:27.000Z</time>
      </trkpt>
      <trkpt lat="48.65536" lon="7.27252">
        <ele>526</ele>
        <time>2013-04-07T10:43:30.000Z</time>
      </trkpt>
      <trkpt lat="48.65529" lon="7.27253">
        <ele>527</ele>
        <time>2013-04-07T10:43:37.000Z</time>
      </trkpt>
      <trkpt lat="48.65523" lon="7.27251">
        <ele>528</ele>
        <time>2013-04-07T10:43:42.000Z</time>
      </trkpt>
      <trkpt lat="48.6552" lon="7.27249">
        <ele>526</ele>
        <time>2013-04-07T10:43:44.000Z</time>
      </trkpt>
      <trkpt lat="48.65516" lon="7.27247">
        <ele>527</ele>
        <time>2013-04-07T10:43:48.000Z</time>
      </trkpt>
      <trkpt lat="48.6551" lon="7.27245">
        <ele>527</ele>
        <time>2013-04-07T10:43:52.000Z</time>
      </trkpt>
      <trkpt lat="48.65508" lon="7.27244">
        <ele>528</ele>
        <time>2013-04-07T10:43:56.000Z</time>
      </trkpt>
      <trkpt lat="48.65505" lon="7.27243">
        <ele>528</ele>
        <time>2013-04-07T10:43:58.000Z</time>
      </trkpt>
      <trkpt lat="48.65499" lon="7.27232">
        <ele>534</ele>
        <time>2013-04-07T10:44:02.000Z</time>
      </trkpt>
      <trkpt lat="48.65498" lon="7.27234">
        <ele>534</ele>
        <time>2013-04-07T10:44:04.000Z</time>
      </trkpt>
      <trkpt lat="48.65494" lon="7.27232">
        <ele>534</ele>
        <time>2013-04-07T10:44:08.000Z</time>
      </trkpt>
      <trkpt lat="48.65491" lon="7.27229">
        <ele>535</ele>
        <time>2013-04-07T10:44:10.000Z</time>
      </trkpt>
      <trkpt lat="48.65488" lon="7.27226">
        <ele>535</ele>
        <time>2013-04-07T10:44:15.000Z</time>
      </trkpt>
      <trkpt lat="48.65487" lon="7.27224">
        <ele>536</ele>
        <time>2013-04-07T10:44:18.000Z</time>
      </trkpt>
      <trkpt lat="48.65481" lon="7.27223">
        <ele>536</ele>
        <time>2013-04-07T10:44:22.000Z</time>
      </trkpt>
      <trkpt lat="48.65479" lon="7.27221">
        <ele>537</ele>
        <time>2013-04-07T10:44:25.000Z</time>
      </trkpt>
      <trkpt lat="48.65476" lon="7.2722">
        <ele>537</ele>
        <time>2013-04-07T10:44:32.000Z</time>
      </trkpt>
      <trkpt lat="48.65474" lon="7.27216">
        <ele>537</ele>
        <time>2013-04-07T10:44:35.000Z</time>
      </trkpt>
      <trkpt lat="48.6547" lon="7.27216">
        <ele>538</ele>
        <time>2013-04-07T10:44:41.000Z</time>
      </trkpt>
      <trkpt lat="48.65468" lon="7.27212">
        <ele>538</ele>
        <time>2013-04-07T10:44:44.000Z</time>
      </trkpt>
      <trkpt lat="48.65463" lon="7.27212">
        <ele>538</ele>
        <time>2013-04-07T10:44:50.000Z</time>
      </trkpt>
      <trkpt lat="48.65462" lon="7.27209">
        <ele>539</ele>
        <time>2013-04-07T10:44:54.000Z</time>
      </trkpt>
      <trkpt lat="48.65458" lon="7.27206">
        <ele>539</ele>
        <time>2013-04-07T10:45:02.000Z</time>
      </trkpt>
      <trkpt lat="48.65457" lon="7.27202">
        <ele>539</ele>
        <time>2013-04-07T10:45:05.000Z</time>
      </trkpt>
      <trkpt lat="48.65456" lon="7.27201">
        <ele>539</ele>
        <time>2013-04-07T10:45:08.000Z</time>
      </trkpt>
      <trkpt lat="48.65455" lon="7.27199">
        <ele>539</ele>
        <time>2013-04-07T10:45:12.000Z</time>
      </trkpt>
      <trkpt lat="48.65453" lon="7.27197">
        <ele>540</ele>
        <time>2013-04-07T10:45:16.000Z</time>
      </trkpt>
      <trkpt lat="48.65445" lon="7.27195">
        <ele>541</ele>
        <time>2013-04-07T10:45:20.000Z</time>
      </trkpt>
      <trkpt lat="48.65449" lon="7.27192">
        <ele>540</ele>
        <time>2013-04-07T10:45:23.000Z</time>
      </trkpt>
      <trkpt lat="48.65447" lon="7.27188">
        <ele>541</ele>
        <time>2013-04-07T10:45:26.000Z</time>
      </trkpt>
      <trkpt lat="48.65449" lon="7.2718">
        <ele>540</ele>
        <time>2013-04-07T10:45:28.000Z</time>
      </trkpt>
      <trkpt lat="48.65446" lon="7.27179">
        <ele>541</ele>
        <time>2013-04-07T10:45:32.000Z</time>
      </trkpt>
      <trkpt lat="48.65445" lon="7.27176">
        <ele>541</ele>
        <time>2013-04-07T10:45:35.000Z</time>
      </trkpt>
      <trkpt lat="48.65444" lon="7.27174">
        <ele>541</ele>
        <time>2013-04-07T10:45:38.000Z</time>
      </trkpt>
      <trkpt lat="48.65443" lon="7.27172">
        <ele>542</ele>
        <time>2013-04-07T10:45:41.000Z</time>
      </trkpt>
      <trkpt lat="48.65441" lon="7.27171">
        <ele>542</ele>
        <time>2013-04-07T10:45:44.000Z</time>
      </trkpt>
      <trkpt lat="48.65433" lon="7.27164">
        <ele>545</ele>
        <time>2013-04-07T10:45:47.000Z</time>
      </trkpt>
      <trkpt lat="48.65434" lon="7.27169">
        <ele>544</ele>
        <time>2013-04-07T10:45:50.000Z</time>
      </trkpt>
      <trkpt lat="48.65432" lon="7.27164">
        <ele>545</ele>
        <time>2013-04-07T10:45:53.000Z</time>
      </trkpt>
      <trkpt lat="48.65432" lon="7.27161">
        <ele>545</ele>
        <time>2013-04-07T10:46:04.000Z</time>
      </trkpt>
      <trkpt lat="48.65431" lon="7.27164">
        <ele>545</ele>
        <time>2013-04-07T10:46:08.000Z</time>
      </trkpt>
      <trkpt lat="48.65428" lon="7.27164">
        <ele>546</ele>
        <time>2013-04-07T10:46:11.000Z</time>
      </trkpt>
      <trkpt lat="48.65427" lon="7.2716">
        <ele>546</ele>
        <time>2013-04-07T10:46:13.000Z</time>
      </trkpt>
      <trkpt lat="48.65426" lon="7.27158">
        <ele>546</ele>
        <time>2013-04-07T10:46:16.000Z</time>
      </trkpt>
      <trkpt lat="48.6542" lon="7.27157">
        <ele>547</ele>
        <time>2013-04-07T10:46:22.000Z</time>
      </trkpt>
      <trkpt lat="48.65419" lon="7.27154">
        <ele>546</ele>
        <time>2013-04-07T10:46:25.000Z</time>
      </trkpt>
      <trkpt lat="48.65418" lon="7.27152">
        <ele>546</ele>
        <time>2013-04-07T10:46:28.000Z</time>
      </trkpt>
      <trkpt lat="48.65417" lon="7.27151">
        <ele>546</ele>
        <time>2013-04-07T10:46:31.000Z</time>
      </trkpt>
      <trkpt lat="48.65415" lon="7.27149">
        <ele>553</ele>
        <time>2013-04-07T10:46:36.000Z</time>
      </trkpt>
      <trkpt lat="48.65413" lon="7.27148">
        <ele>553</ele>
        <time>2013-04-07T10:46:39.000Z</time>
      </trkpt>
      <trkpt lat="48.65411" lon="7.27146">
        <ele>553</ele>
        <time>2013-04-07T10:46:42.000Z</time>
      </trkpt>
      <trkpt lat="48.65409" lon="7.27145">
        <ele>553</ele>
        <time>2013-04-07T10:46:46.000Z</time>
      </trkpt>
      <trkpt lat="48.65407" lon="7.27144">
        <ele>554</ele>
        <time>2013-04-07T10:46:49.000Z</time>
      </trkpt>
      <trkpt lat="48.65405" lon="7.27142">
        <ele>554</ele>
        <time>2013-04-07T10:46:52.000Z</time>
      </trkpt>
      <trkpt lat="48.65404" lon="7.2714">
        <ele>554</ele>
        <time>2013-04-07T10:46:55.000Z</time>
      </trkpt>
      <trkpt lat="48.65403" lon="7.27137">
        <ele>554</ele>
        <time>2013-04-07T10:46:57.000Z</time>
      </trkpt>
      <trkpt lat="48.65404" lon="7.27134">
        <ele>554</ele>
        <time>2013-04-07T10:47:01.000Z</time>
      </trkpt>
      <trkpt lat="48.65404" lon="7.27134">
        <ele>554</ele>
        <time>2013-04-07T10:47:21.000Z</time>
      </trkpt>
      <trkpt lat="48.65404" lon="7.27127">
        <ele>555</ele>
        <time>2013-04-07T10:47:45.000Z</time>
      </trkpt>
      <trkpt lat="48.65403" lon="7.27124">
        <ele>555</ele>
        <time>2013-04-07T10:47:56.000Z</time>
      </trkpt>
      <trkpt lat="48.65403" lon="7.27124">
        <ele>555</ele>
        <time>2013-04-07T10:48:16.000Z</time>
      </trkpt>
      <trkpt lat="48.65402" lon="7.27122">
        <ele>555</ele>
        <time>2013-04-07T10:49:17.000Z</time>
      </trkpt>
      <trkpt lat="48.65402" lon="7.27122">
        <ele>555</ele>
        <time>2013-04-07T10:49:37.000Z</time>
      </trkpt>
      <trkpt lat="48.6541" lon="7.27125">
        <ele>554</ele>
        <time>2013-04-07T10:49:40.000Z</time>
      </trkpt>
      <trkpt lat="48.6541" lon="7.27125">
        <ele>554</ele>
        <time>2013-04-07T10:50:00.000Z</time>
      </trkpt>
      <trkpt lat="48.65403" lon="7.27124">
        <ele>555</ele>
        <time>2013-04-07T10:50:22.000Z</time>
      </trkpt>
      <trkpt lat="48.65403" lon="7.27119">
        <ele>555</ele>
        <time>2013-04-07T10:50:25.000Z</time>
      </trkpt>
      <trkpt lat="48.65403" lon="7.27119">
        <ele>555</ele>
        <time>2013-04-07T10:50:45.000Z</time>
      </trkpt>
      <trkpt lat="48.65399" lon="7.2712">
        <ele>555</ele>
        <time>2013-04-07T10:51:19.000Z</time>
      </trkpt>
      <trkpt lat="48.65399" lon="7.2712">
        <ele>555</ele>
        <time>2013-04-07T10:51:39.000Z</time>
      </trkpt>
      <trkpt lat="48.65407" lon="7.27112">
        <ele>554</ele>
        <time>2013-04-07T10:54:49.000Z</time>
      </trkpt>
      <trkpt lat="48.6541" lon="7.27111">
        <ele>554</ele>
        <time>2013-04-07T10:54:51.000Z</time>
      </trkpt>
      <trkpt lat="48.65415" lon="7.27103">
        <ele>554</ele>
        <time>2013-04-07T10:54:54.000Z</time>
      </trkpt>
      <trkpt lat="48.65405" lon="7.27094">
        <ele>554</ele>
        <time>2013-04-07T10:54:57.000Z</time>
      </trkpt>
      <trkpt lat="48.65423" lon="7.27084">
        <ele>549</ele>
        <time>2013-04-07T10:55:00.000Z</time>
      </trkpt>
      <trkpt lat="48.65414" lon="7.27083">
        <ele>552</ele>
        <time>2013-04-07T10:55:02.000Z</time>
      </trkpt>
      <trkpt lat="48.65409" lon="7.27072">
        <ele>555</ele>
        <time>2013-04-07T10:55:05.000Z</time>
      </trkpt>
      <trkpt lat="48.65423" lon="7.27058">
        <ele>550</ele>
        <time>2013-04-07T10:55:10.000Z</time>
      </trkpt>
      <trkpt lat="48.65422" lon="7.27048">
        <ele>550</ele>
        <time>2013-04-07T10:55:13.000Z</time>
      </trkpt>
      <trkpt lat="48.6544" lon="7.27038">
        <ele>550</ele>
        <time>2013-04-07T10:55:18.000Z</time>
      </trkpt>
      <trkpt lat="48.6545" lon="7.27016">
        <ele>550</ele>
        <time>2013-04-07T10:55:21.000Z</time>
      </trkpt>
      <trkpt lat="48.65446" lon="7.27016">
        <ele>551</ele>
        <time>2013-04-07T10:55:24.000Z</time>
      </trkpt>
      <trkpt lat="48.65445" lon="7.2701">
        <ele>551</ele>
        <time>2013-04-07T10:55:28.000Z</time>
      </trkpt>
      <trkpt lat="48.65443" lon="7.27007">
        <ele>551</ele>
        <time>2013-04-07T10:55:30.000Z</time>
      </trkpt>
      <trkpt lat="48.65438" lon="7.27002">
        <ele>552</ele>
        <time>2013-04-07T10:55:34.000Z</time>
      </trkpt>
      <trkpt lat="48.65436" lon="7.26993">
        <ele>555</ele>
        <time>2013-04-07T10:55:38.000Z</time>
      </trkpt>
      <trkpt lat="48.65435" lon="7.2699">
        <ele>555</ele>
        <time>2013-04-07T10:55:40.000Z</time>
      </trkpt>
      <trkpt lat="48.65433" lon="7.26987">
        <ele>555</ele>
        <time>2013-04-07T10:55:42.000Z</time>
      </trkpt>
      <trkpt lat="48.65427" lon="7.26981">
        <ele>555</ele>
        <time>2013-04-07T10:55:46.000Z</time>
      </trkpt>
      <trkpt lat="48.65426" lon="7.26973">
        <ele>555</ele>
        <time>2013-04-07T10:55:49.000Z</time>
      </trkpt>
      <trkpt lat="48.65426" lon="7.26968">
        <ele>555</ele>
        <time>2013-04-07T10:55:52.000Z</time>
      </trkpt>
      <trkpt lat="48.65429" lon="7.26959">
        <ele>555</ele>
        <time>2013-04-07T10:55:54.000Z</time>
      </trkpt>
      <trkpt lat="48.65433" lon="7.26951">
        <ele>555</ele>
        <time>2013-04-07T10:55:56.000Z</time>
      </trkpt>
      <trkpt lat="48.65448" lon="7.26935">
        <ele>554</ele>
        <time>2013-04-07T10:55:59.000Z</time>
      </trkpt>
      <trkpt lat="48.65455" lon="7.26924">
        <ele>554</ele>
        <time>2013-04-07T10:56:01.000Z</time>
      </trkpt>
      <trkpt lat="48.65466" lon="7.26914">
        <ele>554</ele>
        <time>2013-04-07T10:56:03.000Z</time>
      </trkpt>
      <trkpt lat="48.65478" lon="7.26902">
        <ele>553</ele>
        <time>2013-04-07T10:56:05.000Z</time>
      </trkpt>
      <trkpt lat="48.65485" lon="7.2688">
        <ele>554</ele>
        <time>2013-04-07T10:56:08.000Z</time>
      </trkpt>
      <trkpt lat="48.65482" lon="7.26864">
        <ele>554</ele>
        <time>2013-04-07T10:56:11.000Z</time>
      </trkpt>
      <trkpt lat="48.65481" lon="7.26862">
        <ele>554</ele>
        <time>2013-04-07T10:56:13.000Z</time>
      </trkpt>
      <trkpt lat="48.6548" lon="7.2686">
        <ele>554</ele>
        <time>2013-04-07T10:56:16.000Z</time>
      </trkpt>
      <trkpt lat="48.65476" lon="7.26848">
        <ele>554</ele>
        <time>2013-04-07T10:56:20.000Z</time>
      </trkpt>
      <trkpt lat="48.65474" lon="7.26847">
        <ele>554</ele>
        <time>2013-04-07T10:56:24.000Z</time>
      </trkpt>
      <trkpt lat="48.65474" lon="7.26843">
        <ele>554</ele>
        <time>2013-04-07T10:56:26.000Z</time>
      </trkpt>
      <trkpt lat="48.65473" lon="7.26836">
        <ele>554</ele>
        <time>2013-04-07T10:56:30.000Z</time>
      </trkpt>
      <trkpt lat="48.6547" lon="7.26829">
        <ele>554</ele>
        <time>2013-04-07T10:56:34.000Z</time>
      </trkpt>
      <trkpt lat="48.6547" lon="7.2682">
        <ele>554</ele>
        <time>2013-04-07T10:56:36.000Z</time>
      </trkpt>
      <trkpt lat="48.65468" lon="7.26817">
        <ele>554</ele>
        <time>2013-04-07T10:56:38.000Z</time>
      </trkpt>
      <trkpt lat="48.65467" lon="7.2681">
        <ele>555</ele>
        <time>2013-04-07T10:56:40.000Z</time>
      </trkpt>
      <trkpt lat="48.65465" lon="7.26786">
        <ele>555</ele>
        <time>2013-04-07T10:56:43.000Z</time>
      </trkpt>
      <trkpt lat="48.65461" lon="7.26764">
        <ele>555</ele>
        <time>2013-04-07T10:56:46.000Z</time>
      </trkpt>
      <trkpt lat="48.65458" lon="7.26749">
        <ele>556</ele>
        <time>2013-04-07T10:56:49.000Z</time>
      </trkpt>
      <trkpt lat="48.65453" lon="7.26744">
        <ele>557</ele>
        <time>2013-04-07T10:56:51.000Z</time>
      </trkpt>
      <trkpt lat="48.65451" lon="7.26738">
        <ele>557</ele>
        <time>2013-04-07T10:56:53.000Z</time>
      </trkpt>
      <trkpt lat="48.65449" lon="7.26722">
        <ele>557</ele>
        <time>2013-04-07T10:56:56.000Z</time>
      </trkpt>
      <trkpt lat="48.65442" lon="7.26713">
        <ele>558</ele>
        <time>2013-04-07T10:56:59.000Z</time>
      </trkpt>
      <trkpt lat="48.65438" lon="7.26706">
        <ele>558</ele>
        <time>2013-04-07T10:57:01.000Z</time>
      </trkpt>
      <trkpt lat="48.65445" lon="7.26706">
        <ele>558</ele>
        <time>2013-04-07T10:57:05.000Z</time>
      </trkpt>
      <trkpt lat="48.65433" lon="7.26702">
        <ele>558</ele>
        <time>2013-04-07T10:57:08.000Z</time>
      </trkpt>
      <trkpt lat="48.65424" lon="7.26698">
        <ele>559</ele>
        <time>2013-04-07T10:57:11.000Z</time>
      </trkpt>
      <trkpt lat="48.65417" lon="7.26698">
        <ele>559</ele>
        <time>2013-04-07T10:57:20.000Z</time>
      </trkpt>
      <trkpt lat="48.65414" lon="7.26695">
        <ele>563</ele>
        <time>2013-04-07T10:57:35.000Z</time>
      </trkpt>
      <trkpt lat="48.65413" lon="7.26691">
        <ele>563</ele>
        <time>2013-04-07T10:57:37.000Z</time>
      </trkpt>
      <trkpt lat="48.65411" lon="7.26689">
        <ele>563</ele>
        <time>2013-04-07T10:57:39.000Z</time>
      </trkpt>
      <trkpt lat="48.65398" lon="7.26686">
        <ele>563</ele>
        <time>2013-04-07T10:57:42.000Z</time>
      </trkpt>
      <trkpt lat="48.6539" lon="7.26681">
        <ele>564</ele>
        <time>2013-04-07T10:57:45.000Z</time>
      </trkpt>
      <trkpt lat="48.6538" lon="7.26684">
        <ele>564</ele>
        <time>2013-04-07T10:57:47.000Z</time>
      </trkpt>
      <trkpt lat="48.6539" lon="7.26677">
        <ele>564</ele>
        <time>2013-04-07T10:57:50.000Z</time>
      </trkpt>
      <trkpt lat="48.65351" lon="7.26666">
        <ele>565</ele>
        <time>2013-04-07T10:57:55.000Z</time>
      </trkpt>
      <trkpt lat="48.65337" lon="7.26655">
        <ele>566</ele>
        <time>2013-04-07T10:57:58.000Z</time>
      </trkpt>
      <trkpt lat="48.65309" lon="7.26647">
        <ele>563</ele>
        <time>2013-04-07T10:58:02.000Z</time>
      </trkpt>
      <trkpt lat="48.65313" lon="7.26642">
        <ele>563</ele>
        <time>2013-04-07T10:58:05.000Z</time>
      </trkpt>
      <trkpt lat="48.6521" lon="7.26596">
        <ele>556</ele>
        <time>2013-04-07T10:58:14.000Z</time>
      </trkpt>
      <trkpt lat="48.65197" lon="7.26599">
        <ele>556</ele>
        <time>2013-04-07T10:58:16.000Z</time>
      </trkpt>
      <trkpt lat="48.65186" lon="7.26591">
        <ele>556</ele>
        <time>2013-04-07T10:58:19.000Z</time>
      </trkpt>
      <trkpt lat="48.65169" lon="7.26581">
        <ele>553</ele>
        <time>2013-04-07T10:58:22.000Z</time>
      </trkpt>
      <trkpt lat="48.65154" lon="7.26571">
        <ele>549</ele>
        <time>2013-04-07T10:58:25.000Z</time>
      </trkpt>
      <trkpt lat="48.65157" lon="7.26584">
        <ele>553</ele>
        <time>2013-04-07T10:58:27.000Z</time>
      </trkpt>
      <trkpt lat="48.65099" lon="7.26564">
        <ele>545</ele>
        <time>2013-04-07T10:58:33.000Z</time>
      </trkpt>
      <trkpt lat="48.65082" lon="7.26582">
        <ele>544</ele>
        <time>2013-04-07T10:58:36.000Z</time>
      </trkpt>
      <trkpt lat="48.65051" lon="7.26603">
        <ele>541</ele>
        <time>2013-04-07T10:58:40.000Z</time>
      </trkpt>
      <trkpt lat="48.65033" lon="7.2661">
        <ele>539</ele>
        <time>2013-04-07T10:58:42.000Z</time>
      </trkpt>
      <trkpt lat="48.65009" lon="7.26606">
        <ele>537</ele>
        <time>2013-04-07T10:58:45.000Z</time>
      </trkpt>
      <trkpt lat="48.65004" lon="7.26619">
        <ele>538</ele>
        <time>2013-04-07T10:58:47.000Z</time>
      </trkpt>
      <trkpt lat="48.64974" lon="7.26595">
        <ele>529</ele>
        <time>2013-04-07T10:58:51.000Z</time>
      </trkpt>
      <trkpt lat="48.64942" lon="7.26599">
        <ele>526</ele>
        <time>2013-04-07T10:58:54.000Z</time>
      </trkpt>
      <trkpt lat="48.64933" lon="7.26598">
        <ele>525</ele>
        <time>2013-04-07T10:58:56.000Z</time>
      </trkpt>
      <trkpt lat="48.64918" lon="7.26606">
        <ele>525</ele>
        <time>2013-04-07T10:58:59.000Z</time>
      </trkpt>
      <trkpt lat="48.64904" lon="7.26618">
        <ele>526</ele>
        <time>2013-04-07T10:59:02.000Z</time>
      </trkpt>
      <trkpt lat="48.64889" lon="7.26633">
        <ele>528</ele>
        <time>2013-04-07T10:59:05.000Z</time>
      </trkpt>
      <trkpt lat="48.64885" lon="7.26629">
        <ele>528</ele>
        <time>2013-04-07T10:59:08.000Z</time>
      </trkpt>
      <trkpt lat="48.64875" lon="7.26639">
        <ele>528</ele>
        <time>2013-04-07T10:59:11.000Z</time>
      </trkpt>
      <trkpt lat="48.64872" lon="7.2664">
        <ele>528</ele>
        <time>2013-04-07T10:59:13.000Z</time>
      </trkpt>
      <trkpt lat="48.64874" lon="7.26629">
        <ele>528</ele>
        <time>2013-04-07T10:59:18.000Z</time>
      </trkpt>
      <trkpt lat="48.64869" lon="7.26622">
        <ele>528</ele>
        <time>2013-04-07T10:59:20.000Z</time>
      </trkpt>
      <trkpt lat="48.64867" lon="7.26625">
        <ele>528</ele>
        <time>2013-04-07T10:59:22.000Z</time>
      </trkpt>
      <trkpt lat="48.64865" lon="7.26615">
        <ele>529</ele>
        <time>2013-04-07T10:59:25.000Z</time>
      </trkpt>
      <trkpt lat="48.64862" lon="7.26614">
        <ele>529</ele>
        <time>2013-04-07T10:59:27.000Z</time>
      </trkpt>
      <trkpt lat="48.64859" lon="7.26604">
        <ele>529</ele>
        <time>2013-04-07T10:59:31.000Z</time>
      </trkpt>
      <trkpt lat="48.64856" lon="7.26597">
        <ele>530</ele>
        <time>2013-04-07T10:59:33.000Z</time>
      </trkpt>
      <trkpt lat="48.64854" lon="7.26598">
        <ele>530</ele>
        <time>2013-04-07T10:59:35.000Z</time>
      </trkpt>
      <trkpt lat="48.64853" lon="7.26582">
        <ele>529</ele>
        <time>2013-04-07T10:59:38.000Z</time>
      </trkpt>
      <trkpt lat="48.64853" lon="7.26584">
        <ele>531</ele>
        <time>2013-04-07T10:59:40.000Z</time>
      </trkpt>
      <trkpt lat="48.64854" lon="7.26574">
        <ele>529</ele>
        <time>2013-04-07T10:59:43.000Z</time>
      </trkpt>
      <trkpt lat="48.64856" lon="7.26558">
        <ele>527</ele>
        <time>2013-04-07T10:59:46.000Z</time>
      </trkpt>
      <trkpt lat="48.64857" lon="7.26552">
        <ele>527</ele>
        <time>2013-04-07T10:59:49.000Z</time>
      </trkpt>
      <trkpt lat="48.6486" lon="7.26539">
        <ele>526</ele>
        <time>2013-04-07T10:59:52.000Z</time>
      </trkpt>
      <trkpt lat="48.64857" lon="7.26544">
        <ele>527</ele>
        <time>2013-04-07T10:59:54.000Z</time>
      </trkpt>
      <trkpt lat="48.6486" lon="7.2653">
        <ele>526</ele>
        <time>2013-04-07T10:59:57.000Z</time>
      </trkpt>
      <trkpt lat="48.64862" lon="7.2652">
        <ele>526</ele>
        <time>2013-04-07T11:00:00.000Z</time>
      </trkpt>
      <trkpt lat="48.64862" lon="7.2651">
        <ele>526</ele>
        <time>2013-04-07T11:00:02.000Z</time>
      </trkpt>
      <trkpt lat="48.64864" lon="7.26501">
        <ele>526</ele>
        <time>2013-04-07T11:00:06.000Z</time>
      </trkpt>
      <trkpt lat="48.64864" lon="7.26495">
        <ele>523</ele>
        <time>2013-04-07T11:00:08.000Z</time>
      </trkpt>
      <trkpt lat="48.64864" lon="7.26488">
        <ele>522</ele>
        <time>2013-04-07T11:00:10.000Z</time>
      </trkpt>
      <trkpt lat="48.64862" lon="7.26481">
        <ele>522</ele>
        <time>2013-04-07T11:00:14.000Z</time>
      </trkpt>
      <trkpt lat="48.64862" lon="7.26474">
        <ele>522</ele>
        <time>2013-04-07T11:00:16.000Z</time>
      </trkpt>
      <trkpt lat="48.64861" lon="7.26468">
        <ele>522</ele>
        <time>2013-04-07T11:00:19.000Z</time>
      </trkpt>
      <trkpt lat="48.64861" lon="7.26464">
        <ele>521</ele>
        <time>2013-04-07T11:00:21.000Z</time>
      </trkpt>
      <trkpt lat="48.64862" lon="7.26451">
        <ele>520</ele>
        <time>2013-04-07T11:00:24.000Z</time>
      </trkpt>
      <trkpt lat="48.64862" lon="7.26449">
        <ele>520</ele>
        <time>2013-04-07T11:00:26.000Z</time>
      </trkpt>
      <trkpt lat="48.64861" lon="7.2644">
        <ele>520</ele>
        <time>2013-04-07T11:00:30.000Z</time>
      </trkpt>
      <trkpt lat="48.64861" lon="7.26444">
        <ele>520</ele>
        <time>2013-04-07T11:00:32.000Z</time>
      </trkpt>
      <trkpt lat="48.64857" lon="7.26433">
        <ele>521</ele>
        <time>2013-04-07T11:00:36.000Z</time>
      </trkpt>
      <trkpt lat="48.64853" lon="7.26431">
        <ele>521</ele>
        <time>2013-04-07T11:00:40.000Z</time>
      </trkpt>
      <trkpt lat="48.6485" lon="7.26426">
        <ele>522</ele>
        <time>2013-04-07T11:00:42.000Z</time>
      </trkpt>
      <trkpt lat="48.64832" lon="7.26403">
        <ele>521</ele>
        <time>2013-04-07T11:00:46.000Z</time>
      </trkpt>
      <trkpt lat="48.64814" lon="7.26392">
        <ele>518</ele>
        <time>2013-04-07T11:00:49.000Z</time>
      </trkpt>
      <trkpt lat="48.64796" lon="7.26384">
        <ele>517</ele>
        <time>2013-04-07T11:00:52.000Z</time>
      </trkpt>
      <trkpt lat="48.64786" lon="7.26374">
        <ele>516</ele>
        <time>2013-04-07T11:00:54.000Z</time>
      </trkpt>
      <trkpt lat="48.64768" lon="7.26367">
        <ele>515</ele>
        <time>2013-04-07T11:00:57.000Z</time>
      </trkpt>
      <trkpt lat="48.64759" lon="7.26364">
        <ele>515</ele>
        <time>2013-04-07T11:00:59.000Z</time>
      </trkpt>
      <trkpt lat="48.64735" lon="7.26352">
        <ele>514</ele>
        <time>2013-04-07T11:01:02.000Z</time>
      </trkpt>
      <trkpt lat="48.64728" lon="7.2634">
        <ele>513</ele>
        <time>2013-04-07T11:01:04.000Z</time>
      </trkpt>
      <trkpt lat="48.64713" lon="7.26321">
        <ele>503</ele>
        <time>2013-04-07T11:01:07.000Z</time>
      </trkpt>
      <trkpt lat="48.64688" lon="7.26304">
        <ele>503</ele>
        <time>2013-04-07T11:01:10.000Z</time>
      </trkpt>
      <trkpt lat="48.64671" lon="7.26302">
        <ele>504</ele>
        <time>2013-04-07T11:01:12.000Z</time>
      </trkpt>
      <trkpt lat="48.64658" lon="7.26299">
        <ele>504</ele>
        <time>2013-04-07T11:01:14.000Z</time>
      </trkpt>
      <trkpt lat="48.64655" lon="7.26288">
        <ele>503</ele>
        <time>2013-04-07T11:01:21.000Z</time>
      </trkpt>
      <trkpt lat="48.64656" lon="7.26285">
        <ele>503</ele>
        <time>2013-04-07T11:01:23.000Z</time>
      </trkpt>
      <trkpt lat="48.64659" lon="7.26281">
        <ele>503</ele>
        <time>2013-04-07T11:01:26.000Z</time>
      </trkpt>
      <trkpt lat="48.64663" lon="7.26281">
        <ele>503</ele>
        <time>2013-04-07T11:01:29.000Z</time>
      </trkpt>
      <trkpt lat="48.6467" lon="7.26283">
        <ele>502</ele>
        <time>2013-04-07T11:01:32.000Z</time>
      </trkpt>
      <trkpt lat="48.64673" lon="7.26287">
        <ele>502</ele>
        <time>2013-04-07T11:01:34.000Z</time>
      </trkpt>
      <trkpt lat="48.64679" lon="7.26283">
        <ele>502</ele>
        <time>2013-04-07T11:01:38.000Z</time>
      </trkpt>
      <trkpt lat="48.64684" lon="7.26273">
        <ele>501</ele>
        <time>2013-04-07T11:01:51.000Z</time>
      </trkpt>
      <trkpt lat="48.64685" lon="7.26277">
        <ele>502</ele>
        <time>2013-04-07T11:01:54.000Z</time>
      </trkpt>
      <trkpt lat="48.64678" lon="7.26281">
        <ele>502</ele>
        <time>2013-04-07T11:01:57.000Z</time>
      </trkpt>
      <trkpt lat="48.64692" lon="7.26278">
        <ele>502</ele>
        <time>2013-04-07T11:02:02.000Z</time>
      </trkpt>
      <trkpt lat="48.64695" lon="7.26278">
        <ele>502</ele>
        <time>2013-04-07T11:02:05.000Z</time>
      </trkpt>
      <trkpt lat="48.64697" lon="7.26279">
        <ele>502</ele>
        <time>2013-04-07T11:02:07.000Z</time>
      </trkpt>
      <trkpt lat="48.64703" lon="7.26276">
        <ele>501</ele>
        <time>2013-04-07T11:02:12.000Z</time>
      </trkpt>
      <trkpt lat="48.64697" lon="7.2628">
        <ele>502</ele>
        <time>2013-04-07T11:02:16.000Z</time>
      </trkpt>
      <trkpt lat="48.64706" lon="7.2627">
        <ele>501</ele>
        <time>2013-04-07T11:02:20.000Z</time>
      </trkpt>
      <trkpt lat="48.64709" lon="7.26271">
        <ele>501</ele>
        <time>2013-04-07T11:02:24.000Z</time>
      </trkpt>
      <trkpt lat="48.64713" lon="7.26272">
        <ele>501</ele>
        <time>2013-04-07T11:02:30.000Z</time>
      </trkpt>
      <trkpt lat="48.64713" lon="7.26267">
        <ele>501</ele>
        <time>2013-04-07T11:02:44.000Z</time>
      </trkpt>
      <trkpt lat="48.64715" lon="7.26257">
        <ele>500</ele>
        <time>2013-04-07T11:02:51.000Z</time>
      </trkpt>
      <trkpt lat="48.64713" lon="7.26264">
        <ele>500</ele>
        <time>2013-04-07T11:02:55.000Z</time>
      </trkpt>
      <trkpt lat="48.6471" lon="7.26264">
        <ele>501</ele>
        <time>2013-04-07T11:03:03.000Z</time>
      </trkpt>
      <trkpt lat="48.64709" lon="7.26259">
        <ele>500</ele>
        <time>2013-04-07T11:03:07.000Z</time>
      </trkpt>
      <trkpt lat="48.64708" lon="7.26257">
        <ele>500</ele>
        <time>2013-04-07T11:03:10.000Z</time>
      </trkpt>
      <trkpt lat="48.64701" lon="7.26258">
        <ele>501</ele>
        <time>2013-04-07T11:03:14.000Z</time>
      </trkpt>
      <trkpt lat="48.64696" lon="7.26252">
        <ele>501</ele>
        <time>2013-04-07T11:03:18.000Z</time>
      </trkpt>
      <trkpt lat="48.64695" lon="7.26251">
        <ele>501</ele>
        <time>2013-04-07T11:03:20.000Z</time>
      </trkpt>
      <trkpt lat="48.64695" lon="7.26244">
        <ele>506</ele>
        <time>2013-04-07T11:03:24.000Z</time>
      </trkpt>
      <trkpt lat="48.64687" lon="7.26247">
        <ele>505</ele>
        <time>2013-04-07T11:03:28.000Z</time>
      </trkpt>
      <trkpt lat="48.64682" lon="7.26246">
        <ele>505</ele>
        <time>2013-04-07T11:03:32.000Z</time>
      </trkpt>
      <trkpt lat="48.64674" lon="7.26252">
        <ele>500</ele>
        <time>2013-04-07T11:03:36.000Z</time>
      </trkpt>
      <trkpt lat="48.64671" lon="7.26251">
        <ele>500</ele>
        <time>2013-04-07T11:03:40.000Z</time>
      </trkpt>
      <trkpt lat="48.64676" lon="7.26242">
        <ele>504</ele>
        <time>2013-04-07T11:03:43.000Z</time>
      </trkpt>
      <trkpt lat="48.64676" lon="7.26237">
        <ele>505</ele>
        <time>2013-04-07T11:03:46.000Z</time>
      </trkpt>
      <trkpt lat="48.64678" lon="7.26239">
        <ele>505</ele>
        <time>2013-04-07T11:03:50.000Z</time>
      </trkpt>
      <trkpt lat="48.64682" lon="7.26246">
        <ele>505</ele>
        <time>2013-04-07T11:03:54.000Z</time>
      </trkpt>
      <trkpt lat="48.64685" lon="7.2624">
        <ele>506</ele>
        <time>2013-04-07T11:03:57.000Z</time>
      </trkpt>
      <trkpt lat="48.64687" lon="7.26238">
        <ele>506</ele>
        <time>2013-04-07T11:03:59.000Z</time>
      </trkpt>
      <trkpt lat="48.64689" lon="7.26237">
        <ele>506</ele>
        <time>2013-04-07T11:04:02.000Z</time>
      </trkpt>
      <trkpt lat="48.64696" lon="7.26227">
        <ele>508</ele>
        <time>2013-04-07T11:04:06.000Z</time>
      </trkpt>
      <trkpt lat="48.64695" lon="7.26234">
        <ele>507</ele>
        <time>2013-04-07T11:04:08.000Z</time>
      </trkpt>
      <trkpt lat="48.64701" lon="7.26223">
        <ele>508</ele>
        <time>2013-04-07T11:04:11.000Z</time>
      </trkpt>
      <trkpt lat="48.64702" lon="7.26226">
        <ele>508</ele>
        <time>2013-04-07T11:04:14.000Z</time>
      </trkpt>
      <trkpt lat="48.64697" lon="7.26231">
        <ele>507</ele>
        <time>2013-04-07T11:04:18.000Z</time>
      </trkpt>
      <trkpt lat="48.64705" lon="7.26233">
        <ele>507</ele>
        <time>2013-04-07T11:04:21.000Z</time>
      </trkpt>
      <trkpt lat="48.64707" lon="7.26229">
        <ele>508</ele>
        <time>2013-04-07T11:04:27.000Z</time>
      </trkpt>
      <trkpt lat="48.64709" lon="7.26226">
        <ele>508</ele>
        <time>2013-04-07T11:04:30.000Z</time>
      </trkpt>
      <trkpt lat="48.64715" lon="7.26219">
        <ele>509</ele>
        <time>2013-04-07T11:04:34.000Z</time>
      </trkpt>
      <trkpt lat="48.64715" lon="7.26223">
        <ele>508</ele>
        <time>2013-04-07T11:04:36.000Z</time>
      </trkpt>
      <trkpt lat="48.64719" lon="7.26222">
        <ele>508</ele>
        <time>2013-04-07T11:04:40.000Z</time>
      </trkpt>
      <trkpt lat="48.64725" lon="7.26216">
        <ele>509</ele>
        <time>2013-04-07T11:04:43.000Z</time>
      </trkpt>
      <trkpt lat="48.6473" lon="7.26216">
        <ele>508</ele>
        <time>2013-04-07T11:04:46.000Z</time>
      </trkpt>
      <trkpt lat="48.6474" lon="7.26206">
        <ele>510</ele>
        <time>2013-04-07T11:04:52.000Z</time>
      </trkpt>
      <trkpt lat="48.6474" lon="7.26211">
        <ele>509</ele>
        <time>2013-04-07T11:04:54.000Z</time>
      </trkpt>
      <trkpt lat="48.64745" lon="7.26205">
        <ele>510</ele>
        <time>2013-04-07T11:04:58.000Z</time>
      </trkpt>
      <trkpt lat="48.64747" lon="7.26205">
        <ele>510</ele>
        <time>2013-04-07T11:05:00.000Z</time>
      </trkpt>
      <trkpt lat="48.64753" lon="7.26206">
        <ele>506</ele>
        <time>2013-04-07T11:05:03.000Z</time>
      </trkpt>
      <trkpt lat="48.64755" lon="7.26201">
        <ele>507</ele>
        <time>2013-04-07T11:05:05.000Z</time>
      </trkpt>
      <trkpt lat="48.64759" lon="7.26197">
        <ele>508</ele>
        <time>2013-04-07T11:05:07.000Z</time>
      </trkpt>
      <trkpt lat="48.64761" lon="7.26198">
        <ele>508</ele>
        <time>2013-04-07T11:05:09.000Z</time>
      </trkpt>
      <trkpt lat="48.64765" lon="7.26197">
        <ele>507</ele>
        <time>2013-04-07T11:05:13.000Z</time>
      </trkpt>
      <trkpt lat="48.64779" lon="7.26191">
        <ele>507</ele>
        <time>2013-04-07T11:05:18.000Z</time>
      </trkpt>
      <trkpt lat="48.64774" lon="7.26194">
        <ele>507</ele>
        <time>2013-04-07T11:05:20.000Z</time>
      </trkpt>
      <trkpt lat="48.64787" lon="7.26193">
        <ele>507</ele>
        <time>2013-04-07T11:05:23.000Z</time>
      </trkpt>
      <trkpt lat="48.64793" lon="7.26182">
        <ele>508</ele>
        <time>2013-04-07T11:05:26.000Z</time>
      </trkpt>
      <trkpt lat="48.64795" lon="7.26181">
        <ele>508</ele>
        <time>2013-04-07T11:05:28.000Z</time>
      </trkpt>
      <trkpt lat="48.64801" lon="7.26178">
        <ele>508</ele>
        <time>2013-04-07T11:05:31.000Z</time>
      </trkpt>
      <trkpt lat="48.64805" lon="7.26176">
        <ele>508</ele>
        <time>2013-04-07T11:05:33.000Z</time>
      </trkpt>
      <trkpt lat="48.64813" lon="7.26167">
        <ele>509</ele>
        <time>2013-04-07T11:05:36.000Z</time>
      </trkpt>
      <trkpt lat="48.64819" lon="7.26168">
        <ele>509</ele>
        <time>2013-04-07T11:05:39.000Z</time>
      </trkpt>
      <trkpt lat="48.64827" lon="7.26173">
        <ele>510</ele>
        <time>2013-04-07T11:05:42.000Z</time>
      </trkpt>
      <trkpt lat="48.64834" lon="7.26164">
        <ele>513</ele>
        <time>2013-04-07T11:05:45.000Z</time>
      </trkpt>
      <trkpt lat="48.64837" lon="7.26168">
        <ele>509</ele>
        <time>2013-04-07T11:05:47.000Z</time>
      </trkpt>
      <trkpt lat="48.64841" lon="7.26166">
        <ele>514</ele>
        <time>2013-04-07T11:05:50.000Z</time>
      </trkpt>
      <trkpt lat="48.64844" lon="7.26164">
        <ele>515</ele>
        <time>2013-04-07T11:05:52.000Z</time>
      </trkpt>
      <trkpt lat="48.6485" lon="7.26165">
        <ele>515</ele>
        <time>2013-04-07T11:05:54.000Z</time>
      </trkpt>
      <trkpt lat="48.64839" lon="7.26159">
        <ele>515</ele>
        <time>2013-04-07T11:05:57.000Z</time>
      </trkpt>
      <trkpt lat="48.64862" lon="7.2616">
        <ele>516</ele>
        <time>2013-04-07T11:06:01.000Z</time>
      </trkpt>
      <trkpt lat="48.64866" lon="7.26166">
        <ele>516</ele>
        <time>2013-04-07T11:06:03.000Z</time>
      </trkpt>
      <trkpt lat="48.64872" lon="7.26154">
        <ele>516</ele>
        <time>2013-04-07T11:06:05.000Z</time>
      </trkpt>
      <trkpt lat="48.64876" lon="7.26153">
        <ele>516</ele>
        <time>2013-04-07T11:06:07.000Z</time>
      </trkpt>
      <trkpt lat="48.64881" lon="7.26145">
        <ele>517</ele>
        <time>2013-04-07T11:06:10.000Z</time>
      </trkpt>
      <trkpt lat="48.64884" lon="7.26144">
        <ele>516</ele>
        <time>2013-04-07T11:06:13.000Z</time>
      </trkpt>
      <trkpt lat="48.64888" lon="7.26138">
        <ele>517</ele>
        <time>2013-04-07T11:06:16.000Z</time>
      </trkpt>
      <trkpt lat="48.64893" lon="7.26132">
        <ele>517</ele>
        <time>2013-04-07T11:06:19.000Z</time>
      </trkpt>
      <trkpt lat="48.64898" lon="7.26127">
        <ele>518</ele>
        <time>2013-04-07T11:06:23.000Z</time>
      </trkpt>
      <trkpt lat="48.64903" lon="7.26126">
        <ele>518</ele>
        <time>2013-04-07T11:06:26.000Z</time>
      </trkpt>
      <trkpt lat="48.64908" lon="7.2612">
        <ele>519</ele>
        <time>2013-04-07T11:06:30.000Z</time>
      </trkpt>
      <trkpt lat="48.64911" lon="7.26118">
        <ele>520</ele>
        <time>2013-04-07T11:06:32.000Z</time>
      </trkpt>
      <trkpt lat="48.64916" lon="7.26113">
        <ele>521</ele>
        <time>2013-04-07T11:06:36.000Z</time>
      </trkpt>
      <trkpt lat="48.64922" lon="7.26111">
        <ele>508</ele>
        <time>2013-04-07T11:06:38.000Z</time>
      </trkpt>
      <trkpt lat="48.64923" lon="7.2611">
        <ele>508</ele>
        <time>2013-04-07T11:06:40.000Z</time>
      </trkpt>
      <trkpt lat="48.64926" lon="7.26101">
        <ele>511</ele>
        <time>2013-04-07T11:06:43.000Z</time>
      </trkpt>
      <trkpt lat="48.6493" lon="7.26091">
        <ele>514</ele>
        <time>2013-04-07T11:06:45.000Z</time>
      </trkpt>
      <trkpt lat="48.64933" lon="7.26091">
        <ele>512</ele>
        <time>2013-04-07T11:06:48.000Z</time>
      </trkpt>
      <trkpt lat="48.64928" lon="7.26085">
        <ele>517</ele>
        <time>2013-04-07T11:06:51.000Z</time>
      </trkpt>
      <trkpt lat="48.64939" lon="7.26074">
        <ele>523</ele>
        <time>2013-04-07T11:06:54.000Z</time>
      </trkpt>
      <trkpt lat="48.64933" lon="7.26077">
        <ele>524</ele>
        <time>2013-04-07T11:06:56.000Z</time>
      </trkpt>
      <trkpt lat="48.64944" lon="7.26063">
        <ele>523</ele>
        <time>2013-04-07T11:06:59.000Z</time>
      </trkpt>
      <trkpt lat="48.64947" lon="7.26055">
        <ele>523</ele>
        <time>2013-04-07T11:07:03.000Z</time>
      </trkpt>
      <trkpt lat="48.64949" lon="7.26049">
        <ele>523</ele>
        <time>2013-04-07T11:07:05.000Z</time>
      </trkpt>
      <trkpt lat="48.64952" lon="7.26043">
        <ele>524</ele>
        <time>2013-04-07T11:07:07.000Z</time>
      </trkpt>
      <trkpt lat="48.64958" lon="7.26032">
        <ele>524</ele>
        <time>2013-04-07T11:07:10.000Z</time>
      </trkpt>
      <trkpt lat="48.64952" lon="7.26034">
        <ele>525</ele>
        <time>2013-04-07T11:07:13.000Z</time>
      </trkpt>
      <trkpt lat="48.64964" lon="7.26022">
        <ele>524</ele>
        <time>2013-04-07T11:07:17.000Z</time>
      </trkpt>
      <trkpt lat="48.64965" lon="7.26023">
        <ele>524</ele>
        <time>2013-04-07T11:07:19.000Z</time>
      </trkpt>
      <trkpt lat="48.64967" lon="7.26017">
        <ele>524</ele>
        <time>2013-04-07T11:07:21.000Z</time>
      </trkpt>
      <trkpt lat="48.6497" lon="7.26009">
        <ele>524</ele>
        <time>2013-04-07T11:07:25.000Z</time>
      </trkpt>
      <trkpt lat="48.64972" lon="7.26006">
        <ele>524</ele>
        <time>2013-04-07T11:07:27.000Z</time>
      </trkpt>
      <trkpt lat="48.64977" lon="7.26003">
        <ele>523</ele>
        <time>2013-04-07T11:07:31.000Z</time>
      </trkpt>
      <trkpt lat="48.64979" lon="7.26001">
        <ele>523</ele>
        <time>2013-04-07T11:07:33.000Z</time>
      </trkpt>
      <trkpt lat="48.64983" lon="7.25988">
        <ele>534</ele>
        <time>2013-04-07T11:07:37.000Z</time>
      </trkpt>
      <trkpt lat="48.64983" lon="7.25993">
        <ele>533</ele>
        <time>2013-04-07T11:07:39.000Z</time>
      </trkpt>
      <trkpt lat="48.64988" lon="7.25988">
        <ele>532</ele>
        <time>2013-04-07T11:07:41.000Z</time>
      </trkpt>
      <trkpt lat="48.6498" lon="7.25982">
        <ele>536</ele>
        <time>2013-04-07T11:07:44.000Z</time>
      </trkpt>
      <trkpt lat="48.64996" lon="7.25977">
        <ele>534</ele>
        <time>2013-04-07T11:07:47.000Z</time>
      </trkpt>
      <trkpt lat="48.65001" lon="7.25972">
        <ele>521</ele>
        <time>2013-04-07T11:07:49.000Z</time>
      </trkpt>
      <trkpt lat="48.65006" lon="7.25968">
        <ele>521</ele>
        <time>2013-04-07T11:07:52.000Z</time>
      </trkpt>
      <trkpt lat="48.65011" lon="7.25959">
        <ele>522</ele>
        <time>2013-04-07T11:07:54.000Z</time>
      </trkpt>
      <trkpt lat="48.65005" lon="7.25953">
        <ele>524</ele>
        <time>2013-04-07T11:07:57.000Z</time>
      </trkpt>
      <trkpt lat="48.65017" lon="7.25947">
        <ele>524</ele>
        <time>2013-04-07T11:08:00.000Z</time>
      </trkpt>
      <trkpt lat="48.65026" lon="7.25943">
        <ele>524</ele>
        <time>2013-04-07T11:08:03.000Z</time>
      </trkpt>
      <trkpt lat="48.65031" lon="7.25932">
        <ele>524</ele>
        <time>2013-04-07T11:08:05.000Z</time>
      </trkpt>
      <trkpt lat="48.65036" lon="7.25927">
        <ele>524</ele>
        <time>2013-04-07T11:08:08.000Z</time>
      </trkpt>
      <trkpt lat="48.6504" lon="7.25921">
        <ele>523</ele>
        <time>2013-04-07T11:08:11.000Z</time>
      </trkpt>
      <trkpt lat="48.65043" lon="7.25914">
        <ele>534</ele>
        <time>2013-04-07T11:08:13.000Z</time>
      </trkpt>
      <trkpt lat="48.65037" lon="7.25918">
        <ele>524</ele>
        <time>2013-04-07T11:08:15.000Z</time>
      </trkpt>
      <trkpt lat="48.65036" lon="7.25904">
        <ele>535</ele>
        <time>2013-04-07T11:08:19.000Z</time>
      </trkpt>
      <trkpt lat="48.65049" lon="7.25894">
        <ele>533</ele>
        <time>2013-04-07T11:08:22.000Z</time>
      </trkpt>
      <trkpt lat="48.6506" lon="7.2588">
        <ele>533</ele>
        <time>2013-04-07T11:08:25.000Z</time>
      </trkpt>
      <trkpt lat="48.65063" lon="7.2588">
        <ele>533</ele>
        <time>2013-04-07T11:08:27.000Z</time>
      </trkpt>
      <trkpt lat="48.6507" lon="7.2586">
        <ele>533</ele>
        <time>2013-04-07T11:08:31.000Z</time>
      </trkpt>
      <trkpt lat="48.65072" lon="7.25856">
        <ele>533</ele>
        <time>2013-04-07T11:08:33.000Z</time>
      </trkpt>
      <trkpt lat="48.65076" lon="7.25842">
        <ele>533</ele>
        <time>2013-04-07T11:08:36.000Z</time>
      </trkpt>
      <trkpt lat="48.65079" lon="7.25835">
        <ele>532</ele>
        <time>2013-04-07T11:08:39.000Z</time>
      </trkpt>
      <trkpt lat="48.65081" lon="7.25834">
        <ele>531</ele>
        <time>2013-04-07T11:08:41.000Z</time>
      </trkpt>
      <trkpt lat="48.65084" lon="7.25829">
        <ele>531</ele>
        <time>2013-04-07T11:08:44.000Z</time>
      </trkpt>
      <trkpt lat="48.65088" lon="7.25816">
        <ele>530</ele>
        <time>2013-04-07T11:08:47.000Z</time>
      </trkpt>
      <trkpt lat="48.65089" lon="7.2581">
        <ele>530</ele>
        <time>2013-04-07T11:08:49.000Z</time>
      </trkpt>
      <trkpt lat="48.65092" lon="7.25802">
        <ele>530</ele>
        <time>2013-04-07T11:08:52.000Z</time>
      </trkpt>
      <trkpt lat="48.65094" lon="7.25795">
        <ele>531</ele>
        <time>2013-04-07T11:08:54.000Z</time>
      </trkpt>
      <trkpt lat="48.65095" lon="7.25787">
        <ele>531</ele>
        <time>2013-04-07T11:08:56.000Z</time>
      </trkpt>
      <trkpt lat="48.65096" lon="7.25777">
        <ele>532</ele>
        <time>2013-04-07T11:08:59.000Z</time>
      </trkpt>
      <trkpt lat="48.65095" lon="7.25772">
        <ele>533</ele>
        <time>2013-04-07T11:09:02.000Z</time>
      </trkpt>
      <trkpt lat="48.65094" lon="7.25752">
        <ele>535</ele>
        <time>2013-04-07T11:09:05.000Z</time>
      </trkpt>
      <trkpt lat="48.65092" lon="7.25754">
        <ele>536</ele>
        <time>2013-04-07T11:09:07.000Z</time>
      </trkpt>
      <trkpt lat="48.65089" lon="7.25736">
        <ele>538</ele>
        <time>2013-04-07T11:09:11.000Z</time>
      </trkpt>
      <trkpt lat="48.65088" lon="7.2573">
        <ele>538</ele>
        <time>2013-04-07T11:09:13.000Z</time>
      </trkpt>
      <trkpt lat="48.65086" lon="7.25727">
        <ele>538</ele>
        <time>2013-04-07T11:09:16.000Z</time>
      </trkpt>
      <trkpt lat="48.65082" lon="7.25718">
        <ele>544</ele>
        <time>2013-04-07T11:09:19.000Z</time>
      </trkpt>
      <trkpt lat="48.65079" lon="7.25712">
        <ele>545</ele>
        <time>2013-04-07T11:09:22.000Z</time>
      </trkpt>
      <trkpt lat="48.65076" lon="7.25692">
        <ele>545</ele>
        <time>2013-04-07T11:09:26.000Z</time>
      </trkpt>
      <trkpt lat="48.65072" lon="7.2569">
        <ele>546</ele>
        <time>2013-04-07T11:09:29.000Z</time>
      </trkpt>
      <trkpt lat="48.6507" lon="7.25681">
        <ele>545</ele>
        <time>2013-04-07T11:09:33.000Z</time>
      </trkpt>
      <trkpt lat="48.65067" lon="7.25676">
        <ele>546</ele>
        <time>2013-04-07T11:09:35.000Z</time>
      </trkpt>
      <trkpt lat="48.65066" lon="7.25668">
        <ele>546</ele>
        <time>2013-04-07T11:09:39.000Z</time>
      </trkpt>
      <trkpt lat="48.65066" lon="7.25665">
        <ele>546</ele>
        <time>2013-04-07T11:09:41.000Z</time>
      </trkpt>
      <trkpt lat="48.65084" lon="7.25673">
        <ele>542</ele>
        <time>2013-04-07T11:09:46.000Z</time>
      </trkpt>
      <trkpt lat="48.65067" lon="7.25656">
        <ele>546</ele>
        <time>2013-04-07T11:09:52.000Z</time>
      </trkpt>
      <trkpt lat="48.65067" lon="7.25656">
        <ele>546</ele>
        <time>2013-04-07T11:10:12.000Z</time>
      </trkpt>
      <trkpt lat="48.65068" lon="7.25658">
        <ele>546</ele>
        <time>2013-04-07T11:10:25.000Z</time>
      </trkpt>
      <trkpt lat="48.65069" lon="7.25647">
        <ele>546</ele>
        <time>2013-04-07T11:10:37.000Z</time>
      </trkpt>
      <trkpt lat="48.65067" lon="7.25648">
        <ele>546</ele>
        <time>2013-04-07T11:10:42.000Z</time>
      </trkpt>
      <trkpt lat="48.65066" lon="7.25646">
        <ele>546</ele>
        <time>2013-04-07T11:10:51.000Z</time>
      </trkpt>
      <trkpt lat="48.65078" lon="7.25646">
        <ele>546</ele>
        <time>2013-04-07T11:11:01.000Z</time>
      </trkpt>
      <trkpt lat="48.65078" lon="7.25646">
        <ele>546</ele>
        <time>2013-04-07T11:11:21.000Z</time>
      </trkpt>
      <trkpt lat="48.65066" lon="7.2564">
        <ele>546</ele>
        <time>2013-04-07T11:11:30.000Z</time>
      </trkpt>
      <trkpt lat="48.65068" lon="7.25644">
        <ele>546</ele>
        <time>2013-04-07T11:11:35.000Z</time>
      </trkpt>
      <trkpt lat="48.65068" lon="7.25644">
        <ele>546</ele>
        <time>2013-04-07T11:11:55.000Z</time>
      </trkpt>
      <trkpt lat="48.65064" lon="7.25647">
        <ele>546</ele>
        <time>2013-04-07T11:11:58.000Z</time>
      </trkpt>
      <trkpt lat="48.65064" lon="7.25647">
        <ele>546</ele>
        <time>2013-04-07T11:12:18.000Z</time>
      </trkpt>
      <trkpt lat="48.65066" lon="7.25644">
        <ele>546</ele>
        <time>2013-04-07T11:12:18.000Z</time>
      </trkpt>
      <trkpt lat="48.65066" lon="7.25644">
        <ele>546</ele>
        <time>2013-04-07T11:12:38.000Z</time>
      </trkpt>
      <trkpt lat="48.65055" lon="7.2564">
        <ele>547</ele>
        <time>2013-04-07T11:12:41.000Z</time>
      </trkpt>
      <trkpt lat="48.65068" lon="7.25643">
        <ele>546</ele>
        <time>2013-04-07T11:12:55.000Z</time>
      </trkpt>
      <trkpt lat="48.65068" lon="7.25643">
        <ele>546</ele>
        <time>2013-04-07T11:13:15.000Z</time>
      </trkpt>
      <trkpt lat="48.65068" lon="7.2564">
        <ele>546</ele>
        <time>2013-04-07T11:13:27.000Z</time>
      </trkpt>
      <trkpt lat="48.65068" lon="7.2564">
        <ele>546</ele>
        <time>2013-04-07T11:13:47.000Z</time>
      </trkpt>
      <trkpt lat="48.65068" lon="7.25639">
        <ele>546</ele>
        <time>2013-04-07T11:14:30.000Z</time>
      </trkpt>
      <trkpt lat="48.65068" lon="7.25639">
        <ele>546</ele>
        <time>2013-04-07T11:14:50.000Z</time>
      </trkpt>
      <trkpt lat="48.65092" lon="7.25643">
        <ele>541</ele>
        <time>2013-04-07T11:14:56.000Z</time>
      </trkpt>
      <trkpt lat="48.65067" lon="7.25633">
        <ele>546</ele>
        <time>2013-04-07T11:15:15.000Z</time>
      </trkpt>
      <trkpt lat="48.65067" lon="7.25633">
        <ele>546</ele>
        <time>2013-04-07T11:15:35.000Z</time>
      </trkpt>
      <trkpt lat="48.65068" lon="7.25635">
        <ele>546</ele>
        <time>2013-04-07T11:15:45.000Z</time>
      </trkpt>
      <trkpt lat="48.65068" lon="7.25635">
        <ele>546</ele>
        <time>2013-04-07T11:16:05.000Z</time>
      </trkpt>
      <trkpt lat="48.65053" lon="7.25636">
        <ele>547</ele>
        <time>2013-04-07T11:16:12.000Z</time>
      </trkpt>
      <trkpt lat="48.65075" lon="7.25646">
        <ele>546</ele>
        <time>2013-04-07T11:16:18.000Z</time>
      </trkpt>
      <trkpt lat="48.65081" lon="7.25648">
        <ele>546</ele>
        <time>2013-04-07T11:16:22.000Z</time>
      </trkpt>
      <trkpt lat="48.6508" lon="7.25652">
        <ele>545</ele>
        <time>2013-04-07T11:16:24.000Z</time>
      </trkpt>
      <trkpt lat="48.6508" lon="7.25652">
        <ele>545</ele>
        <time>2013-04-07T11:16:44.000Z</time>
      </trkpt>
      <trkpt lat="48.65081" lon="7.25645">
        <ele>546</ele>
        <time>2013-04-07T11:16:53.000Z</time>
      </trkpt>
      <trkpt lat="48.65079" lon="7.25649">
        <ele>546</ele>
        <time>2013-04-07T11:16:58.000Z</time>
      </trkpt>
      <trkpt lat="48.65084" lon="7.25652">
        <ele>542</ele>
        <time>2013-04-07T11:17:04.000Z</time>
      </trkpt>
      <trkpt lat="48.65075" lon="7.25655">
        <ele>545</ele>
        <time>2013-04-07T11:17:07.000Z</time>
      </trkpt>
      <trkpt lat="48.65074" lon="7.25651">
        <ele>546</ele>
        <time>2013-04-07T11:17:11.000Z</time>
      </trkpt>
      <trkpt lat="48.65071" lon="7.25649">
        <ele>546</ele>
        <time>2013-04-07T11:17:17.000Z</time>
      </trkpt>
      <trkpt lat="48.6507" lon="7.25644">
        <ele>546</ele>
        <time>2013-04-07T11:17:20.000Z</time>
      </trkpt>
      <trkpt lat="48.65084" lon="7.25647">
        <ele>542</ele>
        <time>2013-04-07T11:17:23.000Z</time>
      </trkpt>
      <trkpt lat="48.65084" lon="7.25647">
        <ele>542</ele>
        <time>2013-04-07T11:17:43.000Z</time>
      </trkpt>
      <trkpt lat="48.65068" lon="7.2565">
        <ele>546</ele>
        <time>2013-04-07T11:18:07.000Z</time>
      </trkpt>
      <trkpt lat="48.65068" lon="7.2565">
        <ele>546</ele>
        <time>2013-04-07T11:18:27.000Z</time>
      </trkpt>
      <trkpt lat="48.65077" lon="7.25646">
        <ele>546</ele>
        <time>2013-04-07T11:18:34.000Z</time>
      </trkpt>
      <trkpt lat="48.6507" lon="7.25653">
        <ele>546</ele>
        <time>2013-04-07T11:18:40.000Z</time>
      </trkpt>
      <trkpt lat="48.65075" lon="7.25648">
        <ele>546</ele>
        <time>2013-04-07T11:18:56.000Z</time>
      </trkpt>
      <trkpt lat="48.65073" lon="7.25649">
        <ele>546</ele>
        <time>2013-04-07T11:19:08.000Z</time>
      </trkpt>
      <trkpt lat="48.65073" lon="7.25649">
        <ele>546</ele>
        <time>2013-04-07T11:19:28.000Z</time>
      </trkpt>
      <trkpt lat="48.65072" lon="7.25649">
        <ele>546</ele>
        <time>2013-04-07T11:19:47.000Z</time>
      </trkpt>
      <trkpt lat="48.65088" lon="7.25655">
        <ele>542</ele>
        <time>2013-04-07T11:19:53.000Z</time>
      </trkpt>
      <trkpt lat="48.65073" lon="7.25644">
        <ele>546</ele>
        <time>2013-04-07T11:20:04.000Z</time>
      </trkpt>
      <trkpt lat="48.65073" lon="7.25644">
        <ele>546</ele>
        <time>2013-04-07T11:20:24.000Z</time>
      </trkpt>
      <trkpt lat="48.6507" lon="7.25647">
        <ele>546</ele>
        <time>2013-04-07T11:20:53.000Z</time>
      </trkpt>
      <trkpt lat="48.65078" lon="7.25639">
        <ele>546</ele>
        <time>2013-04-07T11:20:58.000Z</time>
      </trkpt>
      <trkpt lat="48.65078" lon="7.25639">
        <ele>546</ele>
        <time>2013-04-07T11:21:18.000Z</time>
      </trkpt>
      <trkpt lat="48.65076" lon="7.2564">
        <ele>546</ele>
        <time>2013-04-07T11:21:39.000Z</time>
      </trkpt>
      <trkpt lat="48.65076" lon="7.2564">
        <ele>546</ele>
        <time>2013-04-07T11:21:59.000Z</time>
      </trkpt>
      <trkpt lat="48.65073" lon="7.25641">
        <ele>546</ele>
        <time>2013-04-07T11:22:15.000Z</time>
      </trkpt>
      <trkpt lat="48.65073" lon="7.25641">
        <ele>546</ele>
        <time>2013-04-07T11:22:35.000Z</time>
      </trkpt>
      <trkpt lat="48.65079" lon="7.25648">
        <ele>546</ele>
        <time>2013-04-07T11:22:36.000Z</time>
      </trkpt>
      <trkpt lat="48.65073" lon="7.25638">
        <ele>546</ele>
        <time>2013-04-07T11:22:56.000Z</time>
      </trkpt>
      <trkpt lat="48.65071" lon="7.25643">
        <ele>546</ele>
        <time>2013-04-07T11:22:58.000Z</time>
      </trkpt>
      <trkpt lat="48.65069" lon="7.25647">
        <ele>546</ele>
        <time>2013-04-07T11:23:01.000Z</time>
      </trkpt>
      <trkpt lat="48.65069" lon="7.25647">
        <ele>546</ele>
        <time>2013-04-07T11:23:21.000Z</time>
      </trkpt>
      <trkpt lat="48.65089" lon="7.25644">
        <ele>542</ele>
        <time>2013-04-07T11:23:24.000Z</time>
      </trkpt>
      <trkpt lat="48.65067" lon="7.25645">
        <ele>546</ele>
        <time>2013-04-07T11:23:38.000Z</time>
      </trkpt>
      <trkpt lat="48.65067" lon="7.25641">
        <ele>546</ele>
        <time>2013-04-07T11:23:42.000Z</time>
      </trkpt>
      <trkpt lat="48.65066" lon="7.25638">
        <ele>546</ele>
        <time>2013-04-07T11:23:46.000Z</time>
      </trkpt>
      <trkpt lat="48.65065" lon="7.25635">
        <ele>546</ele>
        <time>2013-04-07T11:23:50.000Z</time>
      </trkpt>
      <trkpt lat="48.65069" lon="7.25637">
        <ele>546</ele>
        <time>2013-04-07T11:23:54.000Z</time>
      </trkpt>
      <trkpt lat="48.65063" lon="7.25624">
        <ele>546</ele>
        <time>2013-04-07T11:23:57.000Z</time>
      </trkpt>
      <trkpt lat="48.65062" lon="7.25624">
        <ele>546</ele>
        <time>2013-04-07T11:24:05.000Z</time>
      </trkpt>
      <trkpt lat="48.65059" lon="7.25617">
        <ele>546</ele>
        <time>2013-04-07T11:24:09.000Z</time>
      </trkpt>
      <trkpt lat="48.65057" lon="7.25616">
        <ele>546</ele>
        <time>2013-04-07T11:24:11.000Z</time>
      </trkpt>
      <trkpt lat="48.65054" lon="7.25611">
        <ele>546</ele>
        <time>2013-04-07T11:24:15.000Z</time>
      </trkpt>
      <trkpt lat="48.65053" lon="7.25603">
        <ele>546</ele>
        <time>2013-04-07T11:24:17.000Z</time>
      </trkpt>
      <trkpt lat="48.65053" lon="7.25595">
        <ele>546</ele>
        <time>2013-04-07T11:24:20.000Z</time>
      </trkpt>
      <trkpt lat="48.65057" lon="7.25587">
        <ele>546</ele>
        <time>2013-04-07T11:24:23.000Z</time>
      </trkpt>
      <trkpt lat="48.65066" lon="7.25583">
        <ele>543</ele>
        <time>2013-04-07T11:24:26.000Z</time>
      </trkpt>
      <trkpt lat="48.65068" lon="7.25585">
        <ele>545</ele>
        <time>2013-04-07T11:24:28.000Z</time>
      </trkpt>
      <trkpt lat="48.6507" lon="7.25586">
        <ele>545</ele>
        <time>2013-04-07T11:24:30.000Z</time>
      </trkpt>
      <trkpt lat="48.65073" lon="7.25586">
        <ele>544</ele>
        <time>2013-04-07T11:24:32.000Z</time>
      </trkpt>
      <trkpt lat="48.65082" lon="7.25591">
        <ele>544</ele>
        <time>2013-04-07T11:24:35.000Z</time>
      </trkpt>
      <trkpt lat="48.65086" lon="7.25586">
        <ele>543</ele>
        <time>2013-04-07T11:24:37.000Z</time>
      </trkpt>
      <trkpt lat="48.65091" lon="7.25589">
        <ele>542</ele>
        <time>2013-04-07T11:24:39.000Z</time>
      </trkpt>
      <trkpt lat="48.65094" lon="7.25592">
        <ele>542</ele>
        <time>2013-04-07T11:24:41.000Z</time>
      </trkpt>
      <trkpt lat="48.65101" lon="7.25588">
        <ele>541</ele>
        <time>2013-04-07T11:24:43.000Z</time>
      </trkpt>
      <trkpt lat="48.65111" lon="7.25576">
        <ele>537</ele>
        <time>2013-04-07T11:24:46.000Z</time>
      </trkpt>
      <trkpt lat="48.65116" lon="7.25572">
        <ele>537</ele>
        <time>2013-04-07T11:24:48.000Z</time>
      </trkpt>
      <trkpt lat="48.6512" lon="7.25577">
        <ele>537</ele>
        <time>2013-04-07T11:24:50.000Z</time>
      </trkpt>
      <trkpt lat="48.65125" lon="7.25579">
        <ele>536</ele>
        <time>2013-04-07T11:24:52.000Z</time>
      </trkpt>
      <trkpt lat="48.65131" lon="7.25576">
        <ele>536</ele>
        <time>2013-04-07T11:24:55.000Z</time>
      </trkpt>
      <trkpt lat="48.65137" lon="7.25571">
        <ele>535</ele>
        <time>2013-04-07T11:24:57.000Z</time>
      </trkpt>
      <trkpt lat="48.65141" lon="7.25579">
        <ele>535</ele>
        <time>2013-04-07T11:24:59.000Z</time>
      </trkpt>
      <trkpt lat="48.65145" lon="7.25576">
        <ele>535</ele>
        <time>2013-04-07T11:25:01.000Z</time>
      </trkpt>
      <trkpt lat="48.65152" lon="7.25578">
        <ele>535</ele>
        <time>2013-04-07T11:25:04.000Z</time>
      </trkpt>
      <trkpt lat="48.65161" lon="7.25579">
        <ele>535</ele>
        <time>2013-04-07T11:25:07.000Z</time>
      </trkpt>
      <trkpt lat="48.65171" lon="7.25587">
        <ele>535</ele>
        <time>2013-04-07T11:25:10.000Z</time>
      </trkpt>
      <trkpt lat="48.65178" lon="7.25592">
        <ele>534</ele>
        <time>2013-04-07T11:25:13.000Z</time>
      </trkpt>
      <trkpt lat="48.65163" lon="7.25581">
        <ele>535</ele>
        <time>2013-04-07T11:25:16.000Z</time>
      </trkpt>
      <trkpt lat="48.65175" lon="7.25585">
        <ele>534</ele>
        <time>2013-04-07T11:25:19.000Z</time>
      </trkpt>
      <trkpt lat="48.65207" lon="7.25589">
        <ele>533</ele>
        <time>2013-04-07T11:25:23.000Z</time>
      </trkpt>
      <trkpt lat="48.65216" lon="7.25586">
        <ele>533</ele>
        <time>2013-04-07T11:25:26.000Z</time>
      </trkpt>
      <trkpt lat="48.65226" lon="7.25584">
        <ele>532</ele>
        <time>2013-04-07T11:25:29.000Z</time>
      </trkpt>
      <trkpt lat="48.65233" lon="7.2558">
        <ele>531</ele>
        <time>2013-04-07T11:25:31.000Z</time>
      </trkpt>
      <trkpt lat="48.65249" lon="7.25578">
        <ele>531</ele>
        <time>2013-04-07T11:25:34.000Z</time>
      </trkpt>
      <trkpt lat="48.65255" lon="7.25568">
        <ele>530</ele>
        <time>2013-04-07T11:25:36.000Z</time>
      </trkpt>
      <trkpt lat="48.65282" lon="7.25556">
        <ele>529</ele>
        <time>2013-04-07T11:25:40.000Z</time>
      </trkpt>
      <trkpt lat="48.65277" lon="7.25546">
        <ele>529</ele>
        <time>2013-04-07T11:25:42.000Z</time>
      </trkpt>
      <trkpt lat="48.65319" lon="7.25536">
        <ele>528</ele>
        <time>2013-04-07T11:25:47.000Z</time>
      </trkpt>
      <trkpt lat="48.65326" lon="7.25535">
        <ele>528</ele>
        <time>2013-04-07T11:25:49.000Z</time>
      </trkpt>
      <trkpt lat="48.65334" lon="7.25528">
        <ele>528</ele>
        <time>2013-04-07T11:25:51.000Z</time>
      </trkpt>
      <trkpt lat="48.6534" lon="7.25523">
        <ele>528</ele>
        <time>2013-04-07T11:25:53.000Z</time>
      </trkpt>
      <trkpt lat="48.65348" lon="7.25518">
        <ele>528</ele>
        <time>2013-04-07T11:25:55.000Z</time>
      </trkpt>
      <trkpt lat="48.65358" lon="7.25506">
        <ele>528</ele>
        <time>2013-04-07T11:25:58.000Z</time>
      </trkpt>
      <trkpt lat="48.65366" lon="7.25499">
        <ele>529</ele>
        <time>2013-04-07T11:26:01.000Z</time>
      </trkpt>
      <trkpt lat="48.65375" lon="7.25488">
        <ele>530</ele>
        <time>2013-04-07T11:26:04.000Z</time>
      </trkpt>
      <trkpt lat="48.65378" lon="7.25485">
        <ele>530</ele>
        <time>2013-04-07T11:26:06.000Z</time>
      </trkpt>
      <trkpt lat="48.65383" lon="7.25478">
        <ele>530</ele>
        <time>2013-04-07T11:26:08.000Z</time>
      </trkpt>
      <trkpt lat="48.65388" lon="7.25472">
        <ele>530</ele>
        <time>2013-04-07T11:26:10.000Z</time>
      </trkpt>
      <trkpt lat="48.65389" lon="7.2546">
        <ele>530</ele>
        <time>2013-04-07T11:26:12.000Z</time>
      </trkpt>
      <trkpt lat="48.65401" lon="7.25453">
        <ele>530</ele>
        <time>2013-04-07T11:26:14.000Z</time>
      </trkpt>
      <trkpt lat="48.65407" lon="7.25446">
        <ele>530</ele>
        <time>2013-04-07T11:26:16.000Z</time>
      </trkpt>
      <trkpt lat="48.65411" lon="7.25438">
        <ele>531</ele>
        <time>2013-04-07T11:26:18.000Z</time>
      </trkpt>
      <trkpt lat="48.65419" lon="7.25421">
        <ele>533</ele>
        <time>2013-04-07T11:26:21.000Z</time>
      </trkpt>
      <trkpt lat="48.65424" lon="7.25415">
        <ele>532</ele>
        <time>2013-04-07T11:26:23.000Z</time>
      </trkpt>
      <trkpt lat="48.6543" lon="7.25409">
        <ele>533</ele>
        <time>2013-04-07T11:26:25.000Z</time>
      </trkpt>
      <trkpt lat="48.65438" lon="7.25407">
        <ele>533</ele>
        <time>2013-04-07T11:26:27.000Z</time>
      </trkpt>
      <trkpt lat="48.65442" lon="7.25412">
        <ele>533</ele>
        <time>2013-04-07T11:26:29.000Z</time>
      </trkpt>
      <trkpt lat="48.65445" lon="7.25411">
        <ele>533</ele>
        <time>2013-04-07T11:26:31.000Z</time>
      </trkpt>
      <trkpt lat="48.65449" lon="7.25412">
        <ele>534</ele>
        <time>2013-04-07T11:26:35.000Z</time>
      </trkpt>
      <trkpt lat="48.65451" lon="7.25412">
        <ele>534</ele>
        <time>2013-04-07T11:26:37.000Z</time>
      </trkpt>
      <trkpt lat="48.65457" lon="7.25415">
        <ele>534</ele>
        <time>2013-04-07T11:26:40.000Z</time>
      </trkpt>
      <trkpt lat="48.65466" lon="7.2542">
        <ele>537</ele>
        <time>2013-04-07T11:26:44.000Z</time>
      </trkpt>
      <trkpt lat="48.65472" lon="7.25422">
        <ele>537</ele>
        <time>2013-04-07T11:26:48.000Z</time>
      </trkpt>
      <trkpt lat="48.65477" lon="7.25421">
        <ele>538</ele>
        <time>2013-04-07T11:26:50.000Z</time>
      </trkpt>
      <trkpt lat="48.65484" lon="7.2542">
        <ele>538</ele>
        <time>2013-04-07T11:26:54.000Z</time>
      </trkpt>
      <trkpt lat="48.65485" lon="7.25425">
        <ele>538</ele>
        <time>2013-04-07T11:26:56.000Z</time>
      </trkpt>
      <trkpt lat="48.65491" lon="7.25427">
        <ele>539</ele>
        <time>2013-04-07T11:27:00.000Z</time>
      </trkpt>
      <trkpt lat="48.65493" lon="7.2543">
        <ele>538</ele>
        <time>2013-04-07T11:27:02.000Z</time>
      </trkpt>
      <trkpt lat="48.65495" lon="7.25432">
        <ele>538</ele>
        <time>2013-04-07T11:27:04.000Z</time>
      </trkpt>
      <trkpt lat="48.65504" lon="7.25434">
        <ele>541</ele>
        <time>2013-04-07T11:27:08.000Z</time>
      </trkpt>
      <trkpt lat="48.65477" lon="7.25433">
        <ele>537</ele>
        <time>2013-04-07T11:27:12.000Z</time>
      </trkpt>
      <trkpt lat="48.65514" lon="7.25438">
        <ele>541</ele>
        <time>2013-04-07T11:27:17.000Z</time>
      </trkpt>
      <trkpt lat="48.65483" lon="7.25436">
        <ele>538</ele>
        <time>2013-04-07T11:27:27.000Z</time>
      </trkpt>
      <trkpt lat="48.65519" lon="7.25435">
        <ele>541</ele>
        <time>2013-04-07T11:27:32.000Z</time>
      </trkpt>
      <trkpt lat="48.65491" lon="7.25434">
        <ele>538</ele>
        <time>2013-04-07T11:27:36.000Z</time>
      </trkpt>
      <trkpt lat="48.65491" lon="7.25434">
        <ele>538</ele>
        <time>2013-04-07T11:27:56.000Z</time>
      </trkpt>
      <trkpt lat="48.65524" lon="7.25437">
        <ele>541</ele>
        <time>2013-04-07T11:28:36.000Z</time>
      </trkpt>
      <trkpt lat="48.65524" lon="7.25437">
        <ele>541</ele>
        <time>2013-04-07T11:28:56.000Z</time>
      </trkpt>
      <trkpt lat="48.65526" lon="7.2544">
        <ele>541</ele>
        <time>2013-04-07T11:29:31.000Z</time>
      </trkpt>
      <trkpt lat="48.65527" lon="7.2544">
        <ele>541</ele>
        <time>2013-04-07T11:29:45.000Z</time>
      </trkpt>
      <trkpt lat="48.6554" lon="7.25448">
        <ele>541</ele>
        <time>2013-04-07T11:29:54.000Z</time>
      </trkpt>
      <trkpt lat="48.65541" lon="7.25445">
        <ele>541</ele>
        <time>2013-04-07T11:29:57.000Z</time>
      </trkpt>
      <trkpt lat="48.65533" lon="7.25449">
        <ele>541</ele>
        <time>2013-04-07T11:30:00.000Z</time>
      </trkpt>
      <trkpt lat="48.6562" lon="7.25462">
        <ele>539</ele>
        <time>2013-04-07T11:30:08.000Z</time>
      </trkpt>
      <trkpt lat="48.65645" lon="7.25472">
        <ele>537</ele>
        <time>2013-04-07T11:30:10.000Z</time>
      </trkpt>
      <trkpt lat="48.65683" lon="7.25467">
        <ele>529</ele>
        <time>2013-04-07T11:30:13.000Z</time>
      </trkpt>
      <trkpt lat="48.65693" lon="7.25452">
        <ele>530</ele>
        <time>2013-04-07T11:30:15.000Z</time>
      </trkpt>
      <trkpt lat="48.65709" lon="7.25456">
        <ele>528</ele>
        <time>2013-04-07T11:30:17.000Z</time>
      </trkpt>
      <trkpt lat="48.65699" lon="7.25446">
        <ele>530</ele>
        <time>2013-04-07T11:30:20.000Z</time>
      </trkpt>
      <trkpt lat="48.65708" lon="7.2544">
        <ele>529</ele>
        <time>2013-04-07T11:30:23.000Z</time>
      </trkpt>
      <trkpt lat="48.65803" lon="7.25429">
        <ele>516</ele>
        <time>2013-04-07T11:30:31.000Z</time>
      </trkpt>
      <trkpt lat="48.65821" lon="7.2544">
        <ele>515</ele>
        <time>2013-04-07T11:30:34.000Z</time>
      </trkpt>
      <trkpt lat="48.65834" lon="7.25448">
        <ele>509</ele>
        <time>2013-04-07T11:30:36.000Z</time>
      </trkpt>
      <trkpt lat="48.65847" lon="7.25462">
        <ele>506</ele>
        <time>2013-04-07T11:30:38.000Z</time>
      </trkpt>
      <trkpt lat="48.65861" lon="7.25463">
        <ele>506</ele>
        <time>2013-04-07T11:30:41.000Z</time>
      </trkpt>
      <trkpt lat="48.6587" lon="7.25477">
        <ele>504</ele>
        <time>2013-04-07T11:30:43.000Z</time>
      </trkpt>
      <trkpt lat="48.65879" lon="7.25483">
        <ele>503</ele>
        <time>2013-04-07T11:30:45.000Z</time>
      </trkpt>
      <trkpt lat="48.65895" lon="7.25504">
        <ele>487</ele>
        <time>2013-04-07T11:30:48.000Z</time>
      </trkpt>
      <trkpt lat="48.65908" lon="7.25499">
        <ele>496</ele>
        <time>2013-04-07T11:30:50.000Z</time>
      </trkpt>
      <trkpt lat="48.65929" lon="7.25498">
        <ele>494</ele>
        <time>2013-04-07T11:30:53.000Z</time>
      </trkpt>
      <trkpt lat="48.65942" lon="7.25497">
        <ele>495</ele>
        <time>2013-04-07T11:30:56.000Z</time>
      </trkpt>
      <trkpt lat="48.65958" lon="7.25492">
        <ele>494</ele>
        <time>2013-04-07T11:30:59.000Z</time>
      </trkpt>
      <trkpt lat="48.6599" lon="7.25471">
        <ele>493</ele>
        <time>2013-04-07T11:31:03.000Z</time>
      </trkpt>
      <trkpt lat="48.66021" lon="7.25453">
        <ele>484</ele>
        <time>2013-04-07T11:31:06.000Z</time>
      </trkpt>
      <trkpt lat="48.66048" lon="7.25434">
        <ele>483</ele>
        <time>2013-04-07T11:31:09.000Z</time>
      </trkpt>
      <trkpt lat="48.66071" lon="7.25424">
        <ele>481</ele>
        <time>2013-04-07T11:31:12.000Z</time>
      </trkpt>
      <trkpt lat="48.66142" lon="7.25374">
        <ele>477</ele>
        <time>2013-04-07T11:31:18.000Z</time>
      </trkpt>
      <trkpt lat="48.66161" lon="7.25348">
        <ele>477</ele>
        <time>2013-04-07T11:31:20.000Z</time>
      </trkpt>
      <trkpt lat="48.66176" lon="7.25319">
        <ele>472</ele>
        <time>2013-04-07T11:31:22.000Z</time>
      </trkpt>
      <trkpt lat="48.66191" lon="7.25299">
        <ele>471</ele>
        <time>2013-04-07T11:31:25.000Z</time>
      </trkpt>
      <trkpt lat="48.66196" lon="7.25286">
        <ele>472</ele>
        <time>2013-04-07T11:31:28.000Z</time>
      </trkpt>
      <trkpt lat="48.66202" lon="7.25286">
        <ele>471</ele>
        <time>2013-04-07T11:31:30.000Z</time>
      </trkpt>
      <trkpt lat="48.66205" lon="7.25284">
        <ele>471</ele>
        <time>2013-04-07T11:31:32.000Z</time>
      </trkpt>
      <trkpt lat="48.66219" lon="7.25274">
        <ele>469</ele>
        <time>2013-04-07T11:31:35.000Z</time>
      </trkpt>
      <trkpt lat="48.6623" lon="7.2528">
        <ele>467</ele>
        <time>2013-04-07T11:31:37.000Z</time>
      </trkpt>
      <trkpt lat="48.66249" lon="7.25283">
        <ele>465</ele>
        <time>2013-04-07T11:31:40.000Z</time>
      </trkpt>
      <trkpt lat="48.66265" lon="7.25311">
        <ele>449</ele>
        <time>2013-04-07T11:31:43.000Z</time>
      </trkpt>
      <trkpt lat="48.66259" lon="7.25307">
        <ele>450</ele>
        <time>2013-04-07T11:31:46.000Z</time>
      </trkpt>
      <trkpt lat="48.66321" lon="7.25321">
        <ele>442</ele>
        <time>2013-04-07T11:31:53.000Z</time>
      </trkpt>
      <trkpt lat="48.66333" lon="7.25324">
        <ele>439</ele>
        <time>2013-04-07T11:31:55.000Z</time>
      </trkpt>
      <trkpt lat="48.66351" lon="7.25321">
        <ele>434</ele>
        <time>2013-04-07T11:31:57.000Z</time>
      </trkpt>
      <trkpt lat="48.66378" lon="7.25303">
        <ele>433</ele>
        <time>2013-04-07T11:32:00.000Z</time>
      </trkpt>
      <trkpt lat="48.66385" lon="7.25305">
        <ele>432</ele>
        <time>2013-04-07T11:32:02.000Z</time>
      </trkpt>
      <trkpt lat="48.66412" lon="7.2529">
        <ele>432</ele>
        <time>2013-04-07T11:32:07.000Z</time>
      </trkpt>
      <trkpt lat="48.66444" lon="7.25304">
        <ele>414</ele>
        <time>2013-04-07T11:32:11.000Z</time>
      </trkpt>
      <trkpt lat="48.66457" lon="7.25299">
        <ele>413</ele>
        <time>2013-04-07T11:32:14.000Z</time>
      </trkpt>
      <trkpt lat="48.66473" lon="7.25301">
        <ele>411</ele>
        <time>2013-04-07T11:32:17.000Z</time>
      </trkpt>
      <trkpt lat="48.66488" lon="7.25284">
        <ele>412</ele>
        <time>2013-04-07T11:32:20.000Z</time>
      </trkpt>
      <trkpt lat="48.66509" lon="7.25253">
        <ele>408</ele>
        <time>2013-04-07T11:32:23.000Z</time>
      </trkpt>
      <trkpt lat="48.66521" lon="7.25238">
        <ele>413</ele>
        <time>2013-04-07T11:32:25.000Z</time>
      </trkpt>
      <trkpt lat="48.66545" lon="7.25215">
        <ele>412</ele>
        <time>2013-04-07T11:32:28.000Z</time>
      </trkpt>
      <trkpt lat="48.66528" lon="7.25211">
        <ele>415</ele>
        <time>2013-04-07T11:32:30.000Z</time>
      </trkpt>
      <trkpt lat="48.6657" lon="7.25196">
        <ele>410</ele>
        <time>2013-04-07T11:32:34.000Z</time>
      </trkpt>
      <trkpt lat="48.66594" lon="7.25192">
        <ele>396</ele>
        <time>2013-04-07T11:32:36.000Z</time>
      </trkpt>
      <trkpt lat="48.66613" lon="7.25188">
        <ele>393</ele>
        <time>2013-04-07T11:32:38.000Z</time>
      </trkpt>
      <trkpt lat="48.66631" lon="7.25172">
        <ele>391</ele>
        <time>2013-04-07T11:32:41.000Z</time>
      </trkpt>
      <trkpt lat="48.66639" lon="7.25171">
        <ele>389</ele>
        <time>2013-04-07T11:32:43.000Z</time>
      </trkpt>
      <trkpt lat="48.66645" lon="7.25163">
        <ele>398</ele>
        <time>2013-04-07T11:32:45.000Z</time>
      </trkpt>
      <trkpt lat="48.66673" lon="7.25156">
        <ele>384</ele>
        <time>2013-04-07T11:32:49.000Z</time>
      </trkpt>
      <trkpt lat="48.6669" lon="7.25152">
        <ele>384</ele>
        <time>2013-04-07T11:32:52.000Z</time>
      </trkpt>
      <trkpt lat="48.66706" lon="7.25142">
        <ele>383</ele>
        <time>2013-04-07T11:32:55.000Z</time>
      </trkpt>
      <trkpt lat="48.66717" lon="7.25141">
        <ele>381</ele>
        <time>2013-04-07T11:32:58.000Z</time>
      </trkpt>
      <trkpt lat="48.66729" lon="7.25132">
        <ele>380</ele>
        <time>2013-04-07T11:33:01.000Z</time>
      </trkpt>
      <trkpt lat="48.66738" lon="7.25132">
        <ele>380</ele>
        <time>2013-04-07T11:33:04.000Z</time>
      </trkpt>
      <trkpt lat="48.66743" lon="7.25122">
        <ele>380</ele>
        <time>2013-04-07T11:33:06.000Z</time>
      </trkpt>
      <trkpt lat="48.66743" lon="7.25108">
        <ele>380</ele>
        <time>2013-04-07T11:33:09.000Z</time>
      </trkpt>
      <trkpt lat="48.66748" lon="7.25109">
        <ele>380</ele>
        <time>2013-04-07T11:33:16.000Z</time>
      </trkpt>
      <trkpt lat="48.66748" lon="7.25109">
        <ele>380</ele>
        <time>2013-04-07T11:33:36.000Z</time>
      </trkpt>
      <trkpt lat="48.66748" lon="7.25112">
        <ele>380</ele>
        <time>2013-04-07T11:33:53.000Z</time>
      </trkpt>
      <trkpt lat="48.66751" lon="7.25107">
        <ele>373</ele>
        <time>2013-04-07T11:33:56.000Z</time>
      </trkpt>
      <trkpt lat="48.66752" lon="7.25103">
        <ele>373</ele>
        <time>2013-04-07T11:34:11.000Z</time>
      </trkpt>
      <trkpt lat="48.66751" lon="7.25103">
        <ele>373</ele>
        <time>2013-04-07T11:34:22.000Z</time>
      </trkpt>
      <trkpt lat="48.66752" lon="7.251">
        <ele>373</ele>
        <time>2013-04-07T11:34:32.000Z</time>
      </trkpt>
      <trkpt lat="48.66755" lon="7.25096">
        <ele>373</ele>
        <time>2013-04-07T11:34:38.000Z</time>
      </trkpt>
      <trkpt lat="48.66752" lon="7.25098">
        <ele>373</ele>
        <time>2013-04-07T11:34:42.000Z</time>
      </trkpt>
      <trkpt lat="48.66752" lon="7.25098">
        <ele>373</ele>
        <time>2013-04-07T11:35:02.000Z</time>
      </trkpt>
      <trkpt lat="48.66754" lon="7.25092">
        <ele>374</ele>
        <time>2013-04-07T11:35:23.000Z</time>
      </trkpt>
      <trkpt lat="48.66753" lon="7.2509">
        <ele>374</ele>
        <time>2013-04-07T11:35:27.000Z</time>
      </trkpt>
      <trkpt lat="48.66758" lon="7.25093">
        <ele>373</ele>
        <time>2013-04-07T11:35:30.000Z</time>
      </trkpt>
      <trkpt lat="48.66758" lon="7.25084">
        <ele>374</ele>
        <time>2013-04-07T11:35:32.000Z</time>
      </trkpt>
      <trkpt lat="48.66763" lon="7.25082">
        <ele>376</ele>
        <time>2013-04-07T11:35:38.000Z</time>
      </trkpt>
      <trkpt lat="48.66765" lon="7.25081">
        <ele>376</ele>
        <time>2013-04-07T11:35:42.000Z</time>
      </trkpt>
      <trkpt lat="48.66768" lon="7.25074">
        <ele>376</ele>
        <time>2013-04-07T11:35:44.000Z</time>
      </trkpt>
      <trkpt lat="48.66761" lon="7.25067">
        <ele>377</ele>
        <time>2013-04-07T11:35:48.000Z</time>
      </trkpt>
      <trkpt lat="48.66774" lon="7.25062">
        <ele>376</ele>
        <time>2013-04-07T11:35:52.000Z</time>
      </trkpt>
      <trkpt lat="48.66776" lon="7.2506">
        <ele>377</ele>
        <time>2013-04-07T11:35:56.000Z</time>
      </trkpt>
      <trkpt lat="48.66779" lon="7.25054">
        <ele>377</ele>
        <time>2013-04-07T11:35:58.000Z</time>
      </trkpt>
      <trkpt lat="48.66779" lon="7.2505">
        <ele>377</ele>
        <time>2013-04-07T11:36:02.000Z</time>
      </trkpt>
      <trkpt lat="48.66782" lon="7.25044">
        <ele>378</ele>
        <time>2013-04-07T11:36:05.000Z</time>
      </trkpt>
      <trkpt lat="48.66784" lon="7.25042">
        <ele>378</ele>
        <time>2013-04-07T11:36:09.000Z</time>
      </trkpt>
      <trkpt lat="48.66793" lon="7.25028">
        <ele>378</ele>
        <time>2013-04-07T11:36:13.000Z</time>
      </trkpt>
      <trkpt lat="48.66796" lon="7.25029">
        <ele>377</ele>
        <time>2013-04-07T11:36:15.000Z</time>
      </trkpt>
      <trkpt lat="48.668" lon="7.25034">
        <ele>376</ele>
        <time>2013-04-07T11:36:17.000Z</time>
      </trkpt>
      <trkpt lat="48.66808" lon="7.2502">
        <ele>376</ele>
        <time>2013-04-07T11:36:20.000Z</time>
      </trkpt>
      <trkpt lat="48.66799" lon="7.25022">
        <ele>377</ele>
        <time>2013-04-07T11:36:22.000Z</time>
      </trkpt>
      <trkpt lat="48.66808" lon="7.25012">
        <ele>376</ele>
        <time>2013-04-07T11:36:25.000Z</time>
      </trkpt>
      <trkpt lat="48.66817" lon="7.25006">
        <ele>374</ele>
        <time>2013-04-07T11:36:27.000Z</time>
      </trkpt>
      <trkpt lat="48.66827" lon="7.25003">
        <ele>372</ele>
        <time>2013-04-07T11:36:29.000Z</time>
      </trkpt>
      <trkpt lat="48.66827" lon="7.24991">
        <ele>379</ele>
        <time>2013-04-07T11:36:32.000Z</time>
      </trkpt>
      <trkpt lat="48.66848" lon="7.24967">
        <ele>371</ele>
        <time>2013-04-07T11:36:36.000Z</time>
      </trkpt>
      <trkpt lat="48.66852" lon="7.24955">
        <ele>372</ele>
        <time>2013-04-07T11:36:38.000Z</time>
      </trkpt>
      <trkpt lat="48.66859" lon="7.24943">
        <ele>373</ele>
        <time>2013-04-07T11:36:41.000Z</time>
      </trkpt>
      <trkpt lat="48.66859" lon="7.24914">
        <ele>378</ele>
        <time>2013-04-07T11:36:44.000Z</time>
      </trkpt>
      <trkpt lat="48.66855" lon="7.24905">
        <ele>379</ele>
        <time>2013-04-07T11:36:47.000Z</time>
      </trkpt>
      <trkpt lat="48.66863" lon="7.24881">
        <ele>378</ele>
        <time>2013-04-07T11:36:50.000Z</time>
      </trkpt>
      <trkpt lat="48.66865" lon="7.2487">
        <ele>378</ele>
        <time>2013-04-07T11:36:53.000Z</time>
      </trkpt>
      <trkpt lat="48.66864" lon="7.24859">
        <ele>379</ele>
        <time>2013-04-07T11:36:55.000Z</time>
      </trkpt>
      <trkpt lat="48.66864" lon="7.24859">
        <ele>379</ele>
        <time>2013-04-07T11:37:15.000Z</time>
      </trkpt>
      <trkpt lat="48.66865" lon="7.24847">
        <ele>379</ele>
        <time>2013-04-07T11:37:27.000Z</time>
      </trkpt>
      <trkpt lat="48.66864" lon="7.2485">
        <ele>379</ele>
        <time>2013-04-07T11:37:29.000Z</time>
      </trkpt>
      <trkpt lat="48.66866" lon="7.24838">
        <ele>379</ele>
        <time>2013-04-07T11:37:32.000Z</time>
      </trkpt>
      <trkpt lat="48.66871" lon="7.24825">
        <ele>383</ele>
        <time>2013-04-07T11:37:34.000Z</time>
      </trkpt>
      <trkpt lat="48.66875" lon="7.24826">
        <ele>382</ele>
        <time>2013-04-07T11:37:36.000Z</time>
      </trkpt>
      <trkpt lat="48.66882" lon="7.24818">
        <ele>380</ele>
        <time>2013-04-07T11:37:39.000Z</time>
      </trkpt>
      <trkpt lat="48.669" lon="7.24802">
        <ele>378</ele>
        <time>2013-04-07T11:37:42.000Z</time>
      </trkpt>
      <trkpt lat="48.66911" lon="7.24795">
        <ele>378</ele>
        <time>2013-04-07T11:37:44.000Z</time>
      </trkpt>
      <trkpt lat="48.66928" lon="7.2478">
        <ele>367</ele>
        <time>2013-04-07T11:37:47.000Z</time>
      </trkpt>
      <trkpt lat="48.66944" lon="7.2477">
        <ele>367</ele>
        <time>2013-04-07T11:37:49.000Z</time>
      </trkpt>
      <trkpt lat="48.6696" lon="7.24758">
        <ele>366</ele>
        <time>2013-04-07T11:37:52.000Z</time>
      </trkpt>
      <trkpt lat="48.66983" lon="7.24757">
        <ele>364</ele>
        <time>2013-04-07T11:37:55.000Z</time>
      </trkpt>
      <trkpt lat="48.66998" lon="7.24746">
        <ele>364</ele>
        <time>2013-04-07T11:37:57.000Z</time>
      </trkpt>
      <trkpt lat="48.66994" lon="7.24736">
        <ele>370</ele>
        <time>2013-04-07T11:38:00.000Z</time>
      </trkpt>
      <trkpt lat="48.67085" lon="7.24723">
        <ele>355</ele>
        <time>2013-04-07T11:38:08.000Z</time>
      </trkpt>
      <trkpt lat="48.67106" lon="7.24715">
        <ele>356</ele>
        <time>2013-04-07T11:38:11.000Z</time>
      </trkpt>
      <trkpt lat="48.67123" lon="7.24697">
        <ele>356</ele>
        <time>2013-04-07T11:38:14.000Z</time>
      </trkpt>
      <trkpt lat="48.67126" lon="7.2468">
        <ele>356</ele>
        <time>2013-04-07T11:38:16.000Z</time>
      </trkpt>
      <trkpt lat="48.67127" lon="7.24652">
        <ele>359</ele>
        <time>2013-04-07T11:38:19.000Z</time>
      </trkpt>
      <trkpt lat="48.67128" lon="7.24646">
        <ele>359</ele>
        <time>2013-04-07T11:38:22.000Z</time>
      </trkpt>
      <trkpt lat="48.67126" lon="7.24623">
        <ele>360</ele>
        <time>2013-04-07T11:38:25.000Z</time>
      </trkpt>
      <trkpt lat="48.67123" lon="7.2461">
        <ele>361</ele>
        <time>2013-04-07T11:38:28.000Z</time>
      </trkpt>
      <trkpt lat="48.67122" lon="7.24586">
        <ele>362</ele>
        <time>2013-04-07T11:38:31.000Z</time>
      </trkpt>
      <trkpt lat="48.67125" lon="7.24567">
        <ele>365</ele>
        <time>2013-04-07T11:38:34.000Z</time>
      </trkpt>
      <trkpt lat="48.67129" lon="7.2455">
        <ele>365</ele>
        <time>2013-04-07T11:38:37.000Z</time>
      </trkpt>
      <trkpt lat="48.67137" lon="7.2454">
        <ele>363</ele>
        <time>2013-04-07T11:38:40.000Z</time>
      </trkpt>
      <trkpt lat="48.67139" lon="7.24534">
        <ele>363</ele>
        <time>2013-04-07T11:38:42.000Z</time>
      </trkpt>
      <trkpt lat="48.67142" lon="7.24514">
        <ele>361</ele>
        <time>2013-04-07T11:38:45.000Z</time>
      </trkpt>
      <trkpt lat="48.67144" lon="7.24505">
        <ele>360</ele>
        <time>2013-04-07T11:38:48.000Z</time>
      </trkpt>
      <trkpt lat="48.67145" lon="7.24494">
        <ele>362</ele>
        <time>2013-04-07T11:38:50.000Z</time>
      </trkpt>
      <trkpt lat="48.67139" lon="7.24486">
        <ele>365</ele>
        <time>2013-04-07T11:38:53.000Z</time>
      </trkpt>
      <trkpt lat="48.67147" lon="7.24463">
        <ele>365</ele>
        <time>2013-04-07T11:38:56.000Z</time>
      </trkpt>
      <trkpt lat="48.67147" lon="7.24454">
        <ele>366</ele>
        <time>2013-04-07T11:38:58.000Z</time>
      </trkpt>
      <trkpt lat="48.67147" lon="7.24439">
        <ele>365</ele>
        <time>2013-04-07T11:39:00.000Z</time>
      </trkpt>
      <trkpt lat="48.67147" lon="7.24434">
        <ele>365</ele>
        <time>2013-04-07T11:39:02.000Z</time>
      </trkpt>
      <trkpt lat="48.67148" lon="7.2442">
        <ele>363</ele>
        <time>2013-04-07T11:39:05.000Z</time>
      </trkpt>
      <trkpt lat="48.67149" lon="7.244">
        <ele>367</ele>
        <time>2013-04-07T11:39:08.000Z</time>
      </trkpt>
      <trkpt lat="48.67152" lon="7.24374">
        <ele>370</ele>
        <time>2013-04-07T11:39:11.000Z</time>
      </trkpt>
      <trkpt lat="48.67156" lon="7.24355">
        <ele>368</ele>
        <time>2013-04-07T11:39:14.000Z</time>
      </trkpt>
      <trkpt lat="48.6716" lon="7.24337">
        <ele>363</ele>
        <time>2013-04-07T11:39:16.000Z</time>
      </trkpt>
      <trkpt lat="48.67163" lon="7.24324">
        <ele>367</ele>
        <time>2013-04-07T11:39:19.000Z</time>
      </trkpt>
      <trkpt lat="48.67168" lon="7.24311">
        <ele>357</ele>
        <time>2013-04-07T11:39:21.000Z</time>
      </trkpt>
      <trkpt lat="48.67172" lon="7.24304">
        <ele>357</ele>
        <time>2013-04-07T11:39:24.000Z</time>
      </trkpt>
      <trkpt lat="48.67181" lon="7.24293">
        <ele>357</ele>
        <time>2013-04-07T11:39:27.000Z</time>
      </trkpt>
      <trkpt lat="48.67185" lon="7.24292">
        <ele>356</ele>
        <time>2013-04-07T11:39:29.000Z</time>
      </trkpt>
      <trkpt lat="48.67178" lon="7.24282">
        <ele>359</ele>
        <time>2013-04-07T11:39:32.000Z</time>
      </trkpt>
      <trkpt lat="48.67189" lon="7.24271">
        <ele>358</ele>
        <time>2013-04-07T11:39:35.000Z</time>
      </trkpt>
      <trkpt lat="48.67206" lon="7.24257">
        <ele>355</ele>
        <time>2013-04-07T11:39:38.000Z</time>
      </trkpt>
      <trkpt lat="48.67211" lon="7.24245">
        <ele>357</ele>
        <time>2013-04-07T11:39:41.000Z</time>
      </trkpt>
      <trkpt lat="48.67209" lon="7.24229">
        <ele>359</ele>
        <time>2013-04-07T11:39:44.000Z</time>
      </trkpt>
      <trkpt lat="48.67218" lon="7.24207">
        <ele>357</ele>
        <time>2013-04-07T11:39:47.000Z</time>
      </trkpt>
      <trkpt lat="48.67219" lon="7.24202">
        <ele>357</ele>
        <time>2013-04-07T11:39:49.000Z</time>
      </trkpt>
      <trkpt lat="48.6722" lon="7.24192">
        <ele>357</ele>
        <time>2013-04-07T11:39:51.000Z</time>
      </trkpt>
      <trkpt lat="48.67222" lon="7.24176">
        <ele>356</ele>
        <time>2013-04-07T11:39:54.000Z</time>
      </trkpt>
      <trkpt lat="48.67222" lon="7.24162">
        <ele>359</ele>
        <time>2013-04-07T11:39:57.000Z</time>
      </trkpt>
      <trkpt lat="48.67222" lon="7.24147">
        <ele>360</ele>
        <time>2013-04-07T11:40:00.000Z</time>
      </trkpt>
      <trkpt lat="48.67225" lon="7.24131">
        <ele>361</ele>
        <time>2013-04-07T11:40:02.000Z</time>
      </trkpt>
      <trkpt lat="48.67226" lon="7.24111">
        <ele>361</ele>
        <time>2013-04-07T11:40:04.000Z</time>
      </trkpt>
      <trkpt lat="48.67212" lon="7.24095">
        <ele>364</ele>
        <time>2013-04-07T11:40:07.000Z</time>
      </trkpt>
      <trkpt lat="48.67229" lon="7.24062">
        <ele>362</ele>
        <time>2013-04-07T11:40:10.000Z</time>
      </trkpt>
      <trkpt lat="48.67237" lon="7.24054">
        <ele>362</ele>
        <time>2013-04-07T11:40:13.000Z</time>
      </trkpt>
      <trkpt lat="48.67232" lon="7.24027">
        <ele>364</ele>
        <time>2013-04-07T11:40:16.000Z</time>
      </trkpt>
      <trkpt lat="48.67234" lon="7.24015">
        <ele>362</ele>
        <time>2013-04-07T11:40:18.000Z</time>
      </trkpt>
      <trkpt lat="48.67235" lon="7.23997">
        <ele>362</ele>
        <time>2013-04-07T11:40:21.000Z</time>
      </trkpt>
      <trkpt lat="48.67237" lon="7.23986">
        <ele>364</ele>
        <time>2013-04-07T11:40:23.000Z</time>
      </trkpt>
      <trkpt lat="48.67242" lon="7.23964">
        <ele>367</ele>
        <time>2013-04-07T11:40:26.000Z</time>
      </trkpt>
      <trkpt lat="48.67244" lon="7.23957">
        <ele>367</ele>
        <time>2013-04-07T11:40:28.000Z</time>
      </trkpt>
      <trkpt lat="48.67249" lon="7.2394">
        <ele>366</ele>
        <time>2013-04-07T11:40:31.000Z</time>
      </trkpt>
      <trkpt lat="48.67257" lon="7.23918">
        <ele>356</ele>
        <time>2013-04-07T11:40:34.000Z</time>
      </trkpt>
      <trkpt lat="48.6726" lon="7.23907">
        <ele>354</ele>
        <time>2013-04-07T11:40:37.000Z</time>
      </trkpt>
      <trkpt lat="48.67265" lon="7.23871">
        <ele>352</ele>
        <time>2013-04-07T11:40:41.000Z</time>
      </trkpt>
      <trkpt lat="48.67271" lon="7.23864">
        <ele>352</ele>
        <time>2013-04-07T11:40:43.000Z</time>
      </trkpt>
      <trkpt lat="48.67278" lon="7.23844">
        <ele>352</ele>
        <time>2013-04-07T11:40:46.000Z</time>
      </trkpt>
      <trkpt lat="48.67278" lon="7.23825">
        <ele>355</ele>
        <time>2013-04-07T11:40:49.000Z</time>
      </trkpt>
      <trkpt lat="48.67279" lon="7.23809">
        <ele>354</ele>
        <time>2013-04-07T11:40:52.000Z</time>
      </trkpt>
      <trkpt lat="48.67299" lon="7.2379">
        <ele>350</ele>
        <time>2013-04-07T11:40:55.000Z</time>
      </trkpt>
      <trkpt lat="48.67304" lon="7.23778">
        <ele>349</ele>
        <time>2013-04-07T11:40:57.000Z</time>
      </trkpt>
      <trkpt lat="48.67318" lon="7.23756">
        <ele>345</ele>
        <time>2013-04-07T11:41:00.000Z</time>
      </trkpt>
      <trkpt lat="48.67324" lon="7.23749">
        <ele>343</ele>
        <time>2013-04-07T11:41:02.000Z</time>
      </trkpt>
      <trkpt lat="48.67332" lon="7.23733">
        <ele>344</ele>
        <time>2013-04-07T11:41:05.000Z</time>
      </trkpt>
      <trkpt lat="48.67342" lon="7.23715">
        <ele>336</ele>
        <time>2013-04-07T11:41:07.000Z</time>
      </trkpt>
      <trkpt lat="48.67347" lon="7.23702">
        <ele>335</ele>
        <time>2013-04-07T11:41:09.000Z</time>
      </trkpt>
      <trkpt lat="48.67352" lon="7.2367">
        <ele>336</ele>
        <time>2013-04-07T11:41:12.000Z</time>
      </trkpt>
      <trkpt lat="48.67351" lon="7.2365">
        <ele>333</ele>
        <time>2013-04-07T11:41:14.000Z</time>
      </trkpt>
      <trkpt lat="48.67349" lon="7.23629">
        <ele>332</ele>
        <time>2013-04-07T11:41:16.000Z</time>
      </trkpt>
      <trkpt lat="48.67349" lon="7.23608">
        <ele>331</ele>
        <time>2013-04-07T11:41:19.000Z</time>
      </trkpt>
      <trkpt lat="48.67347" lon="7.23595">
        <ele>332</ele>
        <time>2013-04-07T11:41:22.000Z</time>
      </trkpt>
      <trkpt lat="48.67321" lon="7.23549">
        <ele>341</ele>
        <time>2013-04-07T11:41:27.000Z</time>
      </trkpt>
      <trkpt lat="48.67316" lon="7.23535">
        <ele>341</ele>
        <time>2013-04-07T11:41:29.000Z</time>
      </trkpt>
      <trkpt lat="48.67332" lon="7.23513">
        <ele>338</ele>
        <time>2013-04-07T11:41:33.000Z</time>
      </trkpt>
      <trkpt lat="48.67358" lon="7.23479">
        <ele>327</ele>
        <time>2013-04-07T11:41:37.000Z</time>
      </trkpt>
      <trkpt lat="48.67358" lon="7.23453">
        <ele>326</ele>
        <time>2013-04-07T11:41:40.000Z</time>
      </trkpt>
      <trkpt lat="48.67363" lon="7.23418">
        <ele>325</ele>
        <time>2013-04-07T11:41:43.000Z</time>
      </trkpt>
      <trkpt lat="48.67343" lon="7.23383">
        <ele>321</ele>
        <time>2013-04-07T11:41:46.000Z</time>
      </trkpt>
      <trkpt lat="48.67355" lon="7.23371">
        <ele>320</ele>
        <time>2013-04-07T11:41:48.000Z</time>
      </trkpt>
      <trkpt lat="48.67326" lon="7.23336">
        <ele>321</ele>
        <time>2013-04-07T11:41:52.000Z</time>
      </trkpt>
      <trkpt lat="48.67327" lon="7.23303">
        <ele>321</ele>
        <time>2013-04-07T11:41:55.000Z</time>
      </trkpt>
      <trkpt lat="48.67312" lon="7.23287">
        <ele>322</ele>
        <time>2013-04-07T11:41:57.000Z</time>
      </trkpt>
      <trkpt lat="48.6731" lon="7.2327">
        <ele>321</ele>
        <time>2013-04-07T11:42:00.000Z</time>
      </trkpt>
      <trkpt lat="48.67308" lon="7.23245">
        <ele>316</ele>
        <time>2013-04-07T11:42:03.000Z</time>
      </trkpt>
      <trkpt lat="48.67308" lon="7.23225">
        <ele>317</ele>
        <time>2013-04-07T11:42:06.000Z</time>
      </trkpt>
      <trkpt lat="48.67308" lon="7.23214">
        <ele>317</ele>
        <time>2013-04-07T11:42:09.000Z</time>
      </trkpt>
      <trkpt lat="48.67309" lon="7.232">
        <ele>317</ele>
        <time>2013-04-07T11:42:12.000Z</time>
      </trkpt>
      <trkpt lat="48.6731" lon="7.23195">
        <ele>316</ele>
        <time>2013-04-07T11:42:14.000Z</time>
      </trkpt>
      <trkpt lat="48.67311" lon="7.23178">
        <ele>315</ele>
        <time>2013-04-07T11:42:17.000Z</time>
      </trkpt>
      <trkpt lat="48.67311" lon="7.23156">
        <ele>312</ele>
        <time>2013-04-07T11:42:20.000Z</time>
      </trkpt>
      <trkpt lat="48.67311" lon="7.23148">
        <ele>313</ele>
        <time>2013-04-07T11:42:22.000Z</time>
      </trkpt>
      <trkpt lat="48.6731" lon="7.2314">
        <ele>314</ele>
        <time>2013-04-07T11:42:25.000Z</time>
      </trkpt>
      <trkpt lat="48.6731" lon="7.23134">
        <ele>314</ele>
        <time>2013-04-07T11:42:27.000Z</time>
      </trkpt>
      <trkpt lat="48.67307" lon="7.23128">
        <ele>314</ele>
        <time>2013-04-07T11:42:30.000Z</time>
      </trkpt>
      <trkpt lat="48.67307" lon="7.23119">
        <ele>314</ele>
        <time>2013-04-07T11:42:34.000Z</time>
      </trkpt>
      <trkpt lat="48.67299" lon="7.23109">
        <ele>315</ele>
        <time>2013-04-07T11:42:37.000Z</time>
      </trkpt>
      <trkpt lat="48.67298" lon="7.23089">
        <ele>315</ele>
        <time>2013-04-07T11:42:40.000Z</time>
      </trkpt>
      <trkpt lat="48.67294" lon="7.23086">
        <ele>316</ele>
        <time>2013-04-07T11:42:42.000Z</time>
      </trkpt>
      <trkpt lat="48.67288" lon="7.23076">
        <ele>314</ele>
        <time>2013-04-07T11:42:45.000Z</time>
      </trkpt>
      <trkpt lat="48.67287" lon="7.23069">
        <ele>314</ele>
        <time>2013-04-07T11:42:48.000Z</time>
      </trkpt>
      <trkpt lat="48.67281" lon="7.23053">
        <ele>314</ele>
        <time>2013-04-07T11:42:51.000Z</time>
      </trkpt>
      <trkpt lat="48.67279" lon="7.23045">
        <ele>314</ele>
        <time>2013-04-07T11:42:53.000Z</time>
      </trkpt>
      <trkpt lat="48.67273" lon="7.23032">
        <ele>314</ele>
        <time>2013-04-07T11:42:56.000Z</time>
      </trkpt>
      <trkpt lat="48.67271" lon="7.23011">
        <ele>314</ele>
        <time>2013-04-07T11:42:59.000Z</time>
      </trkpt>
      <trkpt lat="48.67268" lon="7.23007">
        <ele>315</ele>
        <time>2013-04-07T11:43:01.000Z</time>
      </trkpt>
      <trkpt lat="48.67266" lon="7.22991">
        <ele>312</ele>
        <time>2013-04-07T11:43:04.000Z</time>
      </trkpt>
      <trkpt lat="48.67258" lon="7.2298">
        <ele>312</ele>
        <time>2013-04-07T11:43:07.000Z</time>
      </trkpt>
      <trkpt lat="48.67256" lon="7.22967">
        <ele>310</ele>
        <time>2013-04-07T11:43:09.000Z</time>
      </trkpt>
      <trkpt lat="48.67249" lon="7.22941">
        <ele>319</ele>
        <time>2013-04-07T11:43:12.000Z</time>
      </trkpt>
      <trkpt lat="48.67247" lon="7.22926">
        <ele>314</ele>
        <time>2013-04-07T11:43:14.000Z</time>
      </trkpt>
      <trkpt lat="48.67244" lon="7.22917">
        <ele>310</ele>
        <time>2013-04-07T11:43:16.000Z</time>
      </trkpt>
      <trkpt lat="48.67247" lon="7.22907">
        <ele>312</ele>
        <time>2013-04-07T11:43:19.000Z</time>
      </trkpt>
      <trkpt lat="48.67247" lon="7.22896">
        <ele>315</ele>
        <time>2013-04-07T11:43:21.000Z</time>
      </trkpt>
      <trkpt lat="48.67248" lon="7.22864">
        <ele>315</ele>
        <time>2013-04-07T11:43:24.000Z</time>
      </trkpt>
      <trkpt lat="48.67244" lon="7.22844">
        <ele>310</ele>
        <time>2013-04-07T11:43:27.000Z</time>
      </trkpt>
      <trkpt lat="48.67252" lon="7.22825">
        <ele>302</ele>
        <time>2013-04-07T11:43:30.000Z</time>
      </trkpt>
      <trkpt lat="48.67249" lon="7.22794">
        <ele>312</ele>
        <time>2013-04-07T11:43:33.000Z</time>
      </trkpt>
      <trkpt lat="48.67251" lon="7.22783">
        <ele>300</ele>
        <time>2013-04-07T11:43:35.000Z</time>
      </trkpt>
      <trkpt lat="48.67243" lon="7.22768">
        <ele>307</ele>
        <time>2013-04-07T11:43:38.000Z</time>
      </trkpt>
      <trkpt lat="48.67253" lon="7.22742">
        <ele>296</ele>
        <time>2013-04-07T11:43:41.000Z</time>
      </trkpt>
      <trkpt lat="48.67263" lon="7.22732">
        <ele>298</ele>
        <time>2013-04-07T11:43:43.000Z</time>
      </trkpt>
      <trkpt lat="48.67263" lon="7.22718">
        <ele>298</ele>
        <time>2013-04-07T11:43:46.000Z</time>
      </trkpt>
      <trkpt lat="48.67262" lon="7.22698">
        <ele>298</ele>
        <time>2013-04-07T11:43:49.000Z</time>
      </trkpt>
      <trkpt lat="48.67268" lon="7.22682">
        <ele>298</ele>
        <time>2013-04-07T11:43:52.000Z</time>
      </trkpt>
      <trkpt lat="48.67278" lon="7.22671">
        <ele>299</ele>
        <time>2013-04-07T11:43:54.000Z</time>
      </trkpt>
      <trkpt lat="48.67278" lon="7.22661">
        <ele>301</ele>
        <time>2013-04-07T11:43:56.000Z</time>
      </trkpt>
      <trkpt lat="48.67281" lon="7.22641">
        <ele>302</ele>
        <time>2013-04-07T11:43:59.000Z</time>
      </trkpt>
      <trkpt lat="48.6728" lon="7.22629">
        <ele>303</ele>
        <time>2013-04-07T11:44:01.000Z</time>
      </trkpt>
      <trkpt lat="48.67284" lon="7.22604">
        <ele>303</ele>
        <time>2013-04-07T11:44:04.000Z</time>
      </trkpt>
      <trkpt lat="48.67288" lon="7.22579">
        <ele>308</ele>
        <time>2013-04-07T11:44:07.000Z</time>
      </trkpt>
      <trkpt lat="48.6729" lon="7.22551">
        <ele>309</ele>
        <time>2013-04-07T11:44:10.000Z</time>
      </trkpt>
      <trkpt lat="48.67292" lon="7.22522">
        <ele>311</ele>
        <time>2013-04-07T11:44:13.000Z</time>
      </trkpt>
      <trkpt lat="48.67289" lon="7.22504">
        <ele>311</ele>
        <time>2013-04-07T11:44:15.000Z</time>
      </trkpt>
      <trkpt lat="48.6729" lon="7.22495">
        <ele>317</ele>
        <time>2013-04-07T11:44:17.000Z</time>
      </trkpt>
      <trkpt lat="48.67269" lon="7.22467">
        <ele>316</ele>
        <time>2013-04-07T11:44:21.000Z</time>
      </trkpt>
      <trkpt lat="48.6726" lon="7.22454">
        <ele>316</ele>
        <time>2013-04-07T11:44:23.000Z</time>
      </trkpt>
      <trkpt lat="48.67245" lon="7.22442">
        <ele>315</ele>
        <time>2013-04-07T11:44:26.000Z</time>
      </trkpt>
      <trkpt lat="48.67233" lon="7.22436">
        <ele>316</ele>
        <time>2013-04-07T11:44:28.000Z</time>
      </trkpt>
      <trkpt lat="48.67214" lon="7.22417">
        <ele>318</ele>
        <time>2013-04-07T11:44:31.000Z</time>
      </trkpt>
      <trkpt lat="48.67205" lon="7.22399">
        <ele>318</ele>
        <time>2013-04-07T11:44:34.000Z</time>
      </trkpt>
      <trkpt lat="48.67205" lon="7.22337">
        <ele>316</ele>
        <time>2013-04-07T11:44:39.000Z</time>
      </trkpt>
      <trkpt lat="48.672" lon="7.22315">
        <ele>310</ele>
        <time>2013-04-07T11:44:41.000Z</time>
      </trkpt>
      <trkpt lat="48.67202" lon="7.22294">
        <ele>309</ele>
        <time>2013-04-07T11:44:44.000Z</time>
      </trkpt>
      <trkpt lat="48.67218" lon="7.22256">
        <ele>307</ele>
        <time>2013-04-07T11:44:48.000Z</time>
      </trkpt>
      <trkpt lat="48.67231" lon="7.22239">
        <ele>306</ele>
        <time>2013-04-07T11:44:50.000Z</time>
      </trkpt>
      <trkpt lat="48.67248" lon="7.22218">
        <ele>306</ele>
        <time>2013-04-07T11:44:53.000Z</time>
      </trkpt>
      <trkpt lat="48.67254" lon="7.22202">
        <ele>311</ele>
        <time>2013-04-07T11:44:56.000Z</time>
      </trkpt>
      <trkpt lat="48.67255" lon="7.22176">
        <ele>307</ele>
        <time>2013-04-07T11:44:59.000Z</time>
      </trkpt>
      <trkpt lat="48.67265" lon="7.22158">
        <ele>308</ele>
        <time>2013-04-07T11:45:01.000Z</time>
      </trkpt>
      <trkpt lat="48.67268" lon="7.22135">
        <ele>310</ele>
        <time>2013-04-07T11:45:04.000Z</time>
      </trkpt>
      <trkpt lat="48.67278" lon="7.22122">
        <ele>310</ele>
        <time>2013-04-07T11:45:07.000Z</time>
      </trkpt>
      <trkpt lat="48.67283" lon="7.22108">
        <ele>311</ele>
        <time>2013-04-07T11:45:09.000Z</time>
      </trkpt>
      <trkpt lat="48.67286" lon="7.22093">
        <ele>311</ele>
        <time>2013-04-07T11:45:12.000Z</time>
      </trkpt>
      <trkpt lat="48.67295" lon="7.22081">
        <ele>311</ele>
        <time>2013-04-07T11:45:14.000Z</time>
      </trkpt>
      <trkpt lat="48.67301" lon="7.22066">
        <ele>311</ele>
        <time>2013-04-07T11:45:17.000Z</time>
      </trkpt>
      <trkpt lat="48.67303" lon="7.22057">
        <ele>311</ele>
        <time>2013-04-07T11:45:19.000Z</time>
      </trkpt>
      <trkpt lat="48.67303" lon="7.22054">
        <ele>311</ele>
        <time>2013-04-07T11:45:21.000Z</time>
      </trkpt>
      <trkpt lat="48.67302" lon="7.22042">
        <ele>311</ele>
        <time>2013-04-07T11:45:24.000Z</time>
      </trkpt>
      <trkpt lat="48.67302" lon="7.22034">
        <ele>311</ele>
        <time>2013-04-07T11:45:27.000Z</time>
      </trkpt>
      <trkpt lat="48.67303" lon="7.22023">
        <ele>311</ele>
        <time>2013-04-07T11:45:30.000Z</time>
      </trkpt>
      <trkpt lat="48.67303" lon="7.22008">
        <ele>311</ele>
        <time>2013-04-07T11:45:33.000Z</time>
      </trkpt>
      <trkpt lat="48.6732" lon="7.21997">
        <ele>308</ele>
        <time>2013-04-07T11:45:36.000Z</time>
      </trkpt>
      <trkpt lat="48.67307" lon="7.21993">
        <ele>311</ele>
        <time>2013-04-07T11:45:39.000Z</time>
      </trkpt>
      <trkpt lat="48.67301" lon="7.21987">
        <ele>312</ele>
        <time>2013-04-07T11:45:42.000Z</time>
      </trkpt>
      <trkpt lat="48.67294" lon="7.21977">
        <ele>313</ele>
        <time>2013-04-07T11:45:45.000Z</time>
      </trkpt>
      <trkpt lat="48.6729" lon="7.21978">
        <ele>314</ele>
        <time>2013-04-07T11:45:47.000Z</time>
      </trkpt>
      <trkpt lat="48.6729" lon="7.21968">
        <ele>314</ele>
        <time>2013-04-07T11:45:50.000Z</time>
      </trkpt>
      <trkpt lat="48.67288" lon="7.21962">
        <ele>314</ele>
        <time>2013-04-07T11:45:54.000Z</time>
      </trkpt>
      <trkpt lat="48.67292" lon="7.21956">
        <ele>313</ele>
        <time>2013-04-07T11:45:56.000Z</time>
      </trkpt>
      <trkpt lat="48.67289" lon="7.21947">
        <ele>314</ele>
        <time>2013-04-07T11:45:59.000Z</time>
      </trkpt>
      <trkpt lat="48.67286" lon="7.21938">
        <ele>314</ele>
        <time>2013-04-07T11:46:01.000Z</time>
      </trkpt>
      <trkpt lat="48.67285" lon="7.21931">
        <ele>314</ele>
        <time>2013-04-07T11:46:03.000Z</time>
      </trkpt>
      <trkpt lat="48.67284" lon="7.21916">
        <ele>312</ele>
        <time>2013-04-07T11:46:06.000Z</time>
      </trkpt>
      <trkpt lat="48.67282" lon="7.21914">
        <ele>312</ele>
        <time>2013-04-07T11:46:08.000Z</time>
      </trkpt>
      <trkpt lat="48.67282" lon="7.21907">
        <ele>312</ele>
        <time>2013-04-07T11:46:10.000Z</time>
      </trkpt>
      <trkpt lat="48.67281" lon="7.21893">
        <ele>312</ele>
        <time>2013-04-07T11:46:13.000Z</time>
      </trkpt>
      <trkpt lat="48.67278" lon="7.21892">
        <ele>312</ele>
        <time>2013-04-07T11:46:15.000Z</time>
      </trkpt>
      <trkpt lat="48.67277" lon="7.21883">
        <ele>311</ele>
        <time>2013-04-07T11:46:18.000Z</time>
      </trkpt>
      <trkpt lat="48.67276" lon="7.2188">
        <ele>311</ele>
        <time>2013-04-07T11:46:20.000Z</time>
      </trkpt>
      <trkpt lat="48.67275" lon="7.21872">
        <ele>311</ele>
        <time>2013-04-07T11:46:22.000Z</time>
      </trkpt>
      <trkpt lat="48.6728" lon="7.21871">
        <ele>311</ele>
        <time>2013-04-07T11:46:25.000Z</time>
      </trkpt>
      <trkpt lat="48.67274" lon="7.21863">
        <ele>311</ele>
        <time>2013-04-07T11:46:27.000Z</time>
      </trkpt>
      <trkpt lat="48.67274" lon="7.21852">
        <ele>311</ele>
        <time>2013-04-07T11:46:31.000Z</time>
      </trkpt>
      <trkpt lat="48.67282" lon="7.21855">
        <ele>310</ele>
        <time>2013-04-07T11:46:33.000Z</time>
      </trkpt>
      <trkpt lat="48.67273" lon="7.21847">
        <ele>312</ele>
        <time>2013-04-07T11:46:35.000Z</time>
      </trkpt>
      <trkpt lat="48.67277" lon="7.21841">
        <ele>311</ele>
        <time>2013-04-07T11:46:39.000Z</time>
      </trkpt>
      <trkpt lat="48.67271" lon="7.21836">
        <ele>312</ele>
        <time>2013-04-07T11:46:41.000Z</time>
      </trkpt>
      <trkpt lat="48.6727" lon="7.21828">
        <ele>310</ele>
        <time>2013-04-07T11:46:43.000Z</time>
      </trkpt>
      <trkpt lat="48.67268" lon="7.21823">
        <ele>310</ele>
        <time>2013-04-07T11:46:47.000Z</time>
      </trkpt>
      <trkpt lat="48.67268" lon="7.21815">
        <ele>309</ele>
        <time>2013-04-07T11:46:49.000Z</time>
      </trkpt>
      <trkpt lat="48.67281" lon="7.21812">
        <ele>307</ele>
        <time>2013-04-07T11:46:53.000Z</time>
      </trkpt>
      <trkpt lat="48.67267" lon="7.21793">
        <ele>307</ele>
        <time>2013-04-07T11:46:57.000Z</time>
      </trkpt>
      <trkpt lat="48.67267" lon="7.2179">
        <ele>307</ele>
        <time>2013-04-07T11:46:59.000Z</time>
      </trkpt>
      <trkpt lat="48.67265" lon="7.2178">
        <ele>308</ele>
        <time>2013-04-07T11:47:03.000Z</time>
      </trkpt>
      <trkpt lat="48.67269" lon="7.21774">
        <ele>307</ele>
        <time>2013-04-07T11:47:06.000Z</time>
      </trkpt>
      <trkpt lat="48.67265" lon="7.2177">
        <ele>308</ele>
        <time>2013-04-07T11:47:08.000Z</time>
      </trkpt>
      <trkpt lat="48.6727" lon="7.21762">
        <ele>308</ele>
        <time>2013-04-07T11:47:12.000Z</time>
      </trkpt>
      <trkpt lat="48.67263" lon="7.21756">
        <ele>310</ele>
        <time>2013-04-07T11:47:14.000Z</time>
      </trkpt>
      <trkpt lat="48.67263" lon="7.21749">
        <ele>309</ele>
        <time>2013-04-07T11:47:16.000Z</time>
      </trkpt>
      <trkpt lat="48.67261" lon="7.21743">
        <ele>310</ele>
        <time>2013-04-07T11:47:20.000Z</time>
      </trkpt>
      <trkpt lat="48.6726" lon="7.21736">
        <ele>308</ele>
        <time>2013-04-07T11:47:22.000Z</time>
      </trkpt>
      <trkpt lat="48.67258" lon="7.21723">
        <ele>307</ele>
        <time>2013-04-07T11:47:26.000Z</time>
      </trkpt>
      <trkpt lat="48.67258" lon="7.21725">
        <ele>307</ele>
        <time>2013-04-07T11:47:28.000Z</time>
      </trkpt>
      <trkpt lat="48.67256" lon="7.21719">
        <ele>306</ele>
        <time>2013-04-07T11:47:30.000Z</time>
      </trkpt>
      <trkpt lat="48.67255" lon="7.21712">
        <ele>306</ele>
        <time>2013-04-07T11:47:34.000Z</time>
      </trkpt>
      <trkpt lat="48.67257" lon="7.21704">
        <ele>306</ele>
        <time>2013-04-07T11:47:37.000Z</time>
      </trkpt>
      <trkpt lat="48.67252" lon="7.21691">
        <ele>307</ele>
        <time>2013-04-07T11:47:41.000Z</time>
      </trkpt>
      <trkpt lat="48.67249" lon="7.21685">
        <ele>318</ele>
        <time>2013-04-07T11:47:44.000Z</time>
      </trkpt>
      <trkpt lat="48.67249" lon="7.21675">
        <ele>316</ele>
        <time>2013-04-07T11:47:46.000Z</time>
      </trkpt>
      <trkpt lat="48.67248" lon="7.21669">
        <ele>315</ele>
        <time>2013-04-07T11:47:49.000Z</time>
      </trkpt>
      <trkpt lat="48.67248" lon="7.21658">
        <ele>316</ele>
        <time>2013-04-07T11:47:52.000Z</time>
      </trkpt>
      <trkpt lat="48.67246" lon="7.21656">
        <ele>316</ele>
        <time>2013-04-07T11:47:54.000Z</time>
      </trkpt>
      <trkpt lat="48.6725" lon="7.21646">
        <ele>317</ele>
        <time>2013-04-07T11:47:57.000Z</time>
      </trkpt>
      <trkpt lat="48.67246" lon="7.21639">
        <ele>318</ele>
        <time>2013-04-07T11:48:00.000Z</time>
      </trkpt>
      <trkpt lat="48.67244" lon="7.21629">
        <ele>318</ele>
        <time>2013-04-07T11:48:02.000Z</time>
      </trkpt>
      <trkpt lat="48.67254" lon="7.21628">
        <ele>304</ele>
        <time>2013-04-07T11:48:05.000Z</time>
      </trkpt>
      <trkpt lat="48.67247" lon="7.21616">
        <ele>317</ele>
        <time>2013-04-07T11:48:07.000Z</time>
      </trkpt>
      <trkpt lat="48.67246" lon="7.21604">
        <ele>316</ele>
        <time>2013-04-07T11:48:10.000Z</time>
      </trkpt>
      <trkpt lat="48.67244" lon="7.21596">
        <ele>315</ele>
        <time>2013-04-07T11:48:12.000Z</time>
      </trkpt>
      <trkpt lat="48.67239" lon="7.21592">
        <ele>315</ele>
        <time>2013-04-07T11:48:15.000Z</time>
      </trkpt>
      <trkpt lat="48.67241" lon="7.21576">
        <ele>313</ele>
        <time>2013-04-07T11:48:18.000Z</time>
      </trkpt>
      <trkpt lat="48.67237" lon="7.21566">
        <ele>315</ele>
        <time>2013-04-07T11:48:20.000Z</time>
      </trkpt>
      <trkpt lat="48.67248" lon="7.21561">
        <ele>314</ele>
        <time>2013-04-07T11:48:22.000Z</time>
      </trkpt>
      <trkpt lat="48.67236" lon="7.21545">
        <ele>316</ele>
        <time>2013-04-07T11:48:25.000Z</time>
      </trkpt>
      <trkpt lat="48.67235" lon="7.21537">
        <ele>315</ele>
        <time>2013-04-07T11:48:27.000Z</time>
      </trkpt>
      <trkpt lat="48.67233" lon="7.21527">
        <ele>315</ele>
        <time>2013-04-07T11:48:30.000Z</time>
      </trkpt>
      <trkpt lat="48.67232" lon="7.21519">
        <ele>314</ele>
        <time>2013-04-07T11:48:33.000Z</time>
      </trkpt>
      <trkpt lat="48.67231" lon="7.21511">
        <ele>314</ele>
        <time>2013-04-07T11:48:35.000Z</time>
      </trkpt>
      <trkpt lat="48.67227" lon="7.215">
        <ele>314</ele>
        <time>2013-04-07T11:48:38.000Z</time>
      </trkpt>
      <trkpt lat="48.67225" lon="7.21493">
        <ele>313</ele>
        <time>2013-04-07T11:48:41.000Z</time>
      </trkpt>
      <trkpt lat="48.67223" lon="7.21485">
        <ele>313</ele>
        <time>2013-04-07T11:48:43.000Z</time>
      </trkpt>
      <trkpt lat="48.6722" lon="7.21478">
        <ele>313</ele>
        <time>2013-04-07T11:48:46.000Z</time>
      </trkpt>
      <trkpt lat="48.67216" lon="7.2147">
        <ele>314</ele>
        <time>2013-04-07T11:48:48.000Z</time>
      </trkpt>
      <trkpt lat="48.67211" lon="7.21462">
        <ele>314</ele>
        <time>2013-04-07T11:48:51.000Z</time>
      </trkpt>
      <trkpt lat="48.67209" lon="7.21454">
        <ele>314</ele>
        <time>2013-04-07T11:48:53.000Z</time>
      </trkpt>
      <trkpt lat="48.67207" lon="7.21449">
        <ele>314</ele>
        <time>2013-04-07T11:48:55.000Z</time>
      </trkpt>
      <trkpt lat="48.67203" lon="7.2144">
        <ele>315</ele>
        <time>2013-04-07T11:48:58.000Z</time>
      </trkpt>
      <trkpt lat="48.67197" lon="7.21435">
        <ele>316</ele>
        <time>2013-04-07T11:49:00.000Z</time>
      </trkpt>
      <trkpt lat="48.67193" lon="7.21429">
        <ele>316</ele>
        <time>2013-04-07T11:49:02.000Z</time>
      </trkpt>
      <trkpt lat="48.67189" lon="7.21412">
        <ele>315</ele>
        <time>2013-04-07T11:49:05.000Z</time>
      </trkpt>
      <trkpt lat="48.67183" lon="7.21405">
        <ele>316</ele>
        <time>2013-04-07T11:49:08.000Z</time>
      </trkpt>
      <trkpt lat="48.67179" lon="7.214">
        <ele>316</ele>
        <time>2013-04-07T11:49:10.000Z</time>
      </trkpt>
      <trkpt lat="48.67176" lon="7.21389">
        <ele>315</ele>
        <time>2013-04-07T11:49:13.000Z</time>
      </trkpt>
      <trkpt lat="48.67171" lon="7.21371">
        <ele>314</ele>
        <time>2013-04-07T11:49:16.000Z</time>
      </trkpt>
      <trkpt lat="48.6717" lon="7.21359">
        <ele>314</ele>
        <time>2013-04-07T11:49:19.000Z</time>
      </trkpt>
      <trkpt lat="48.67174" lon="7.21351">
        <ele>314</ele>
        <time>2013-04-07T11:49:21.000Z</time>
      </trkpt>
      <trkpt lat="48.67169" lon="7.21332">
        <ele>316</ele>
        <time>2013-04-07T11:49:24.000Z</time>
      </trkpt>
      <trkpt lat="48.6717" lon="7.21317">
        <ele>314</ele>
        <time>2013-04-07T11:49:27.000Z</time>
      </trkpt>
      <trkpt lat="48.67167" lon="7.21297">
        <ele>325</ele>
        <time>2013-04-07T11:49:30.000Z</time>
      </trkpt>
      <trkpt lat="48.67165" lon="7.2129">
        <ele>325</ele>
        <time>2013-04-07T11:49:32.000Z</time>
      </trkpt>
      <trkpt lat="48.67162" lon="7.21277">
        <ele>323</ele>
        <time>2013-04-07T11:49:35.000Z</time>
      </trkpt>
      <trkpt lat="48.6716" lon="7.21264">
        <ele>321</ele>
        <time>2013-04-07T11:49:37.000Z</time>
      </trkpt>
      <trkpt lat="48.67161" lon="7.21252">
        <ele>317</ele>
        <time>2013-04-07T11:49:40.000Z</time>
      </trkpt>
      <trkpt lat="48.67156" lon="7.21242">
        <ele>317</ele>
        <time>2013-04-07T11:49:42.000Z</time>
      </trkpt>
      <trkpt lat="48.67149" lon="7.21228">
        <ele>320</ele>
        <time>2013-04-07T11:49:45.000Z</time>
      </trkpt>
      <trkpt lat="48.67146" lon="7.21219">
        <ele>320</ele>
        <time>2013-04-07T11:49:47.000Z</time>
      </trkpt>
      <trkpt lat="48.67145" lon="7.2121">
        <ele>320</ele>
        <time>2013-04-07T11:49:49.000Z</time>
      </trkpt>
      <trkpt lat="48.67145" lon="7.2121">
        <ele>320</ele>
        <time>2013-04-07T11:50:09.000Z</time>
      </trkpt>
      <trkpt lat="48.6714" lon="7.21202">
        <ele>320</ele>
        <time>2013-04-07T11:50:12.000Z</time>
      </trkpt>
      <trkpt lat="48.67138" lon="7.21202">
        <ele>321</ele>
        <time>2013-04-07T11:50:14.000Z</time>
      </trkpt>
      <trkpt lat="48.67137" lon="7.21211">
        <ele>321</ele>
        <time>2013-04-07T11:50:17.000Z</time>
      </trkpt>
      <trkpt lat="48.67134" lon="7.21217">
        <ele>321</ele>
        <time>2013-04-07T11:50:20.000Z</time>
      </trkpt>
      <trkpt lat="48.67133" lon="7.21223">
        <ele>321</ele>
        <time>2013-04-07T11:50:22.000Z</time>
      </trkpt>
      <trkpt lat="48.67133" lon="7.21231">
        <ele>321</ele>
        <time>2013-04-07T11:50:25.000Z</time>
      </trkpt>
      <trkpt lat="48.67133" lon="7.21243">
        <ele>321</ele>
        <time>2013-04-07T11:50:27.000Z</time>
      </trkpt>
      <trkpt lat="48.67133" lon="7.21253">
        <ele>326</ele>
        <time>2013-04-07T11:50:30.000Z</time>
      </trkpt>
      <trkpt lat="48.67135" lon="7.21258">
        <ele>326</ele>
        <time>2013-04-07T11:50:32.000Z</time>
      </trkpt>
      <trkpt lat="48.67134" lon="7.21271">
        <ele>327</ele>
        <time>2013-04-07T11:50:35.000Z</time>
      </trkpt>
      <trkpt lat="48.67134" lon="7.21279">
        <ele>328</ele>
        <time>2013-04-07T11:50:37.000Z</time>
      </trkpt>
      <trkpt lat="48.67134" lon="7.21289">
        <ele>328</ele>
        <time>2013-04-07T11:50:40.000Z</time>
      </trkpt>
      <trkpt lat="48.67135" lon="7.21293">
        <ele>328</ele>
        <time>2013-04-07T11:50:43.000Z</time>
      </trkpt>
      <trkpt lat="48.6713" lon="7.21305">
        <ele>330</ele>
        <time>2013-04-07T11:50:46.000Z</time>
      </trkpt>
      <trkpt lat="48.67125" lon="7.21311">
        <ele>331</ele>
        <time>2013-04-07T11:50:50.000Z</time>
      </trkpt>
      <trkpt lat="48.67123" lon="7.21312">
        <ele>332</ele>
        <time>2013-04-07T11:50:53.000Z</time>
      </trkpt>
      <trkpt lat="48.67133" lon="7.21313">
        <ele>329</ele>
        <time>2013-04-07T11:50:56.000Z</time>
      </trkpt>
      <trkpt lat="48.67116" lon="7.21308">
        <ele>333</ele>
        <time>2013-04-07T11:50:59.000Z</time>
      </trkpt>
      <trkpt lat="48.6711" lon="7.2131">
        <ele>335</ele>
        <time>2013-04-07T11:51:02.000Z</time>
      </trkpt>
      <trkpt lat="48.67124" lon="7.2131">
        <ele>331</ele>
        <time>2013-04-07T11:51:06.000Z</time>
      </trkpt>
      <trkpt lat="48.67103" lon="7.21318">
        <ele>338</ele>
        <time>2013-04-07T11:51:10.000Z</time>
      </trkpt>
      <trkpt lat="48.67105" lon="7.21326">
        <ele>339</ele>
        <time>2013-04-07T11:51:14.000Z</time>
      </trkpt>
      <trkpt lat="48.67106" lon="7.21327">
        <ele>339</ele>
        <time>2013-04-07T11:51:16.000Z</time>
      </trkpt>
      <trkpt lat="48.67107" lon="7.21334">
        <ele>344</ele>
        <time>2013-04-07T11:51:20.000Z</time>
      </trkpt>
      <trkpt lat="48.67108" lon="7.21336">
        <ele>343</ele>
        <time>2013-04-07T11:51:22.000Z</time>
      </trkpt>
      <trkpt lat="48.67091" lon="7.21343">
        <ele>348</ele>
        <time>2013-04-07T11:51:26.000Z</time>
      </trkpt>
      <trkpt lat="48.6711" lon="7.21351">
        <ele>342</ele>
        <time>2013-04-07T11:51:30.000Z</time>
      </trkpt>
      <trkpt lat="48.67111" lon="7.21349">
        <ele>342</ele>
        <time>2013-04-07T11:51:33.000Z</time>
      </trkpt>
      <trkpt lat="48.6711" lon="7.21364">
        <ele>342</ele>
        <time>2013-04-07T11:51:37.000Z</time>
      </trkpt>
      <trkpt lat="48.6711" lon="7.21359">
        <ele>342</ele>
        <time>2013-04-07T11:51:39.000Z</time>
      </trkpt>
      <trkpt lat="48.67109" lon="7.21373">
        <ele>342</ele>
        <time>2013-04-07T11:51:42.000Z</time>
      </trkpt>
      <trkpt lat="48.6711" lon="7.21371">
        <ele>342</ele>
        <time>2013-04-07T11:51:46.000Z</time>
      </trkpt>
      <trkpt lat="48.67109" lon="7.21386">
        <ele>343</ele>
        <time>2013-04-07T11:51:50.000Z</time>
      </trkpt>
      <trkpt lat="48.67109" lon="7.21398">
        <ele>345</ele>
        <time>2013-04-07T11:51:54.000Z</time>
      </trkpt>
      <trkpt lat="48.6711" lon="7.21401">
        <ele>345</ele>
        <time>2013-04-07T11:51:58.000Z</time>
      </trkpt>
      <trkpt lat="48.67109" lon="7.21407">
        <ele>346</ele>
        <time>2013-04-07T11:52:00.000Z</time>
      </trkpt>
      <trkpt lat="48.6711" lon="7.21405">
        <ele>345</ele>
        <time>2013-04-07T11:52:02.000Z</time>
      </trkpt>
      <trkpt lat="48.6711" lon="7.2141">
        <ele>345</ele>
        <time>2013-04-07T11:52:06.000Z</time>
      </trkpt>
      <trkpt lat="48.67109" lon="7.21419">
        <ele>350</ele>
        <time>2013-04-07T11:52:08.000Z</time>
      </trkpt>
      <trkpt lat="48.67108" lon="7.21422">
        <ele>350</ele>
        <time>2013-04-07T11:52:11.000Z</time>
      </trkpt>
      <trkpt lat="48.67107" lon="7.21432">
        <ele>350</ele>
        <time>2013-04-07T11:52:13.000Z</time>
      </trkpt>
      <trkpt lat="48.67107" lon="7.21438">
        <ele>350</ele>
        <time>2013-04-07T11:52:16.000Z</time>
      </trkpt>
      <trkpt lat="48.67102" lon="7.21445">
        <ele>350</ele>
        <time>2013-04-07T11:52:20.000Z</time>
      </trkpt>
      <trkpt lat="48.67105" lon="7.21456">
        <ele>350</ele>
        <time>2013-04-07T11:52:22.000Z</time>
      </trkpt>
      <trkpt lat="48.67104" lon="7.21459">
        <ele>350</ele>
        <time>2013-04-07T11:52:25.000Z</time>
      </trkpt>
      <trkpt lat="48.67104" lon="7.21464">
        <ele>351</ele>
        <time>2013-04-07T11:52:27.000Z</time>
      </trkpt>
      <trkpt lat="48.67102" lon="7.21477">
        <ele>353</ele>
        <time>2013-04-07T11:52:32.000Z</time>
      </trkpt>
      <trkpt lat="48.67101" lon="7.21484">
        <ele>355</ele>
        <time>2013-04-07T11:52:34.000Z</time>
      </trkpt>
      <trkpt lat="48.67101" lon="7.21493">
        <ele>357</ele>
        <time>2013-04-07T11:52:38.000Z</time>
      </trkpt>
      <trkpt lat="48.67101" lon="7.21497">
        <ele>357</ele>
        <time>2013-04-07T11:52:40.000Z</time>
      </trkpt>
      <trkpt lat="48.67101" lon="7.2151">
        <ele>360</ele>
        <time>2013-04-07T11:52:44.000Z</time>
      </trkpt>
      <trkpt lat="48.67099" lon="7.2151">
        <ele>360</ele>
        <time>2013-04-07T11:52:46.000Z</time>
      </trkpt>
      <trkpt lat="48.67099" lon="7.21519">
        <ele>359</ele>
        <time>2013-04-07T11:52:48.000Z</time>
      </trkpt>
      <trkpt lat="48.67102" lon="7.21521">
        <ele>358</ele>
        <time>2013-04-07T11:52:52.000Z</time>
      </trkpt>
      <trkpt lat="48.67097" lon="7.21533">
        <ele>358</ele>
        <time>2013-04-07T11:52:55.000Z</time>
      </trkpt>
      <trkpt lat="48.67086" lon="7.21545">
        <ele>360</ele>
        <time>2013-04-07T11:52:59.000Z</time>
      </trkpt>
      <trkpt lat="48.67099" lon="7.21553">
        <ele>359</ele>
        <time>2013-04-07T11:53:02.000Z</time>
      </trkpt>
      <trkpt lat="48.671" lon="7.21561">
        <ele>360</ele>
        <time>2013-04-07T11:53:05.000Z</time>
      </trkpt>
      <trkpt lat="48.67099" lon="7.21569">
        <ele>362</ele>
        <time>2013-04-07T11:53:07.000Z</time>
      </trkpt>
      <trkpt lat="48.67102" lon="7.21573">
        <ele>362</ele>
        <time>2013-04-07T11:53:10.000Z</time>
      </trkpt>
      <trkpt lat="48.67096" lon="7.21585">
        <ele>367</ele>
        <time>2013-04-07T11:53:13.000Z</time>
      </trkpt>
      <trkpt lat="48.67094" lon="7.21595">
        <ele>365</ele>
        <time>2013-04-07T11:53:15.000Z</time>
      </trkpt>
      <trkpt lat="48.67094" lon="7.216">
        <ele>364</ele>
        <time>2013-04-07T11:53:19.000Z</time>
      </trkpt>
      <trkpt lat="48.67093" lon="7.21607">
        <ele>362</ele>
        <time>2013-04-07T11:53:21.000Z</time>
      </trkpt>
      <trkpt lat="48.67093" lon="7.21612">
        <ele>361</ele>
        <time>2013-04-07T11:53:24.000Z</time>
      </trkpt>
      <trkpt lat="48.67091" lon="7.21626">
        <ele>360</ele>
        <time>2013-04-07T11:53:27.000Z</time>
      </trkpt>
      <trkpt lat="48.67088" lon="7.21635">
        <ele>360</ele>
        <time>2013-04-07T11:53:29.000Z</time>
      </trkpt>
      <trkpt lat="48.67087" lon="7.21645">
        <ele>362</ele>
        <time>2013-04-07T11:53:33.000Z</time>
      </trkpt>
      <trkpt lat="48.67087" lon="7.21647">
        <ele>363</ele>
        <time>2013-04-07T11:53:35.000Z</time>
      </trkpt>
      <trkpt lat="48.67086" lon="7.21656">
        <ele>365</ele>
        <time>2013-04-07T11:53:39.000Z</time>
      </trkpt>
      <trkpt lat="48.67084" lon="7.21662">
        <ele>369</ele>
        <time>2013-04-07T11:53:41.000Z</time>
      </trkpt>
      <trkpt lat="48.67084" lon="7.2166">
        <ele>368</ele>
        <time>2013-04-07T11:53:43.000Z</time>
      </trkpt>
      <trkpt lat="48.67082" lon="7.21674">
        <ele>375</ele>
        <time>2013-04-07T11:53:47.000Z</time>
      </trkpt>
      <trkpt lat="48.67079" lon="7.21684">
        <ele>377</ele>
        <time>2013-04-07T11:53:49.000Z</time>
      </trkpt>
      <trkpt lat="48.67078" lon="7.21695">
        <ele>377</ele>
        <time>2013-04-07T11:53:53.000Z</time>
      </trkpt>
      <trkpt lat="48.67076" lon="7.21704">
        <ele>377</ele>
        <time>2013-04-07T11:53:57.000Z</time>
      </trkpt>
      <trkpt lat="48.67077" lon="7.21699">
        <ele>377</ele>
        <time>2013-04-07T11:53:59.000Z</time>
      </trkpt>
      <trkpt lat="48.67075" lon="7.21709">
        <ele>377</ele>
        <time>2013-04-07T11:54:03.000Z</time>
      </trkpt>
      <trkpt lat="48.67073" lon="7.2172">
        <ele>376</ele>
        <time>2013-04-07T11:54:05.000Z</time>
      </trkpt>
      <trkpt lat="48.67072" lon="7.21725">
        <ele>375</ele>
        <time>2013-04-07T11:54:07.000Z</time>
      </trkpt>
      <trkpt lat="48.67071" lon="7.21733">
        <ele>374</ele>
        <time>2013-04-07T11:54:10.000Z</time>
      </trkpt>
      <trkpt lat="48.67068" lon="7.21741">
        <ele>373</ele>
        <time>2013-04-07T11:54:13.000Z</time>
      </trkpt>
      <trkpt lat="48.67065" lon="7.21749">
        <ele>373</ele>
        <time>2013-04-07T11:54:17.000Z</time>
      </trkpt>
      <trkpt lat="48.67064" lon="7.21754">
        <ele>369</ele>
        <time>2013-04-07T11:54:19.000Z</time>
      </trkpt>
      <trkpt lat="48.67062" lon="7.21763">
        <ele>370</ele>
        <time>2013-04-07T11:54:22.000Z</time>
      </trkpt>
      <trkpt lat="48.67058" lon="7.21773">
        <ele>371</ele>
        <time>2013-04-07T11:54:25.000Z</time>
      </trkpt>
      <trkpt lat="48.67057" lon="7.21775">
        <ele>371</ele>
        <time>2013-04-07T11:54:27.000Z</time>
      </trkpt>
      <trkpt lat="48.67056" lon="7.21777">
        <ele>371</ele>
        <time>2013-04-07T11:54:29.000Z</time>
      </trkpt>
      <trkpt lat="48.67055" lon="7.21783">
        <ele>371</ele>
        <time>2013-04-07T11:54:32.000Z</time>
      </trkpt>
      <trkpt lat="48.67053" lon="7.21788">
        <ele>371</ele>
        <time>2013-04-07T11:54:34.000Z</time>
      </trkpt>
      <trkpt lat="48.67048" lon="7.218">
        <ele>371</ele>
        <time>2013-04-07T11:54:36.000Z</time>
      </trkpt>
      <trkpt lat="48.67057" lon="7.21799">
        <ele>370</ele>
        <time>2013-04-07T11:54:39.000Z</time>
      </trkpt>
      <trkpt lat="48.67048" lon="7.21806">
        <ele>371</ele>
        <time>2013-04-07T11:54:43.000Z</time>
      </trkpt>
      <trkpt lat="48.67038" lon="7.21817">
        <ele>372</ele>
        <time>2013-04-07T11:54:47.000Z</time>
      </trkpt>
      <trkpt lat="48.67036" lon="7.21824">
        <ele>373</ele>
        <time>2013-04-07T11:54:49.000Z</time>
      </trkpt>
      <trkpt lat="48.6703" lon="7.21832">
        <ele>374</ele>
        <time>2013-04-07T11:54:53.000Z</time>
      </trkpt>
      <trkpt lat="48.67026" lon="7.21835">
        <ele>369</ele>
        <time>2013-04-07T11:54:56.000Z</time>
      </trkpt>
      <trkpt lat="48.67022" lon="7.21839">
        <ele>370</ele>
        <time>2013-04-07T11:54:58.000Z</time>
      </trkpt>
      <trkpt lat="48.67014" lon="7.21849">
        <ele>372</ele>
        <time>2013-04-07T11:55:01.000Z</time>
      </trkpt>
      <trkpt lat="48.6703" lon="7.21857">
        <ele>366</ele>
        <time>2013-04-07T11:55:05.000Z</time>
      </trkpt>
      <trkpt lat="48.67007" lon="7.2186">
        <ele>370</ele>
        <time>2013-04-07T11:55:08.000Z</time>
      </trkpt>
      <trkpt lat="48.67002" lon="7.21859">
        <ele>371</ele>
        <time>2013-04-07T11:55:11.000Z</time>
      </trkpt>
      <trkpt lat="48.66998" lon="7.2187">
        <ele>381</ele>
        <time>2013-04-07T11:55:13.000Z</time>
      </trkpt>
      <trkpt lat="48.66993" lon="7.21867">
        <ele>382</ele>
        <time>2013-04-07T11:55:16.000Z</time>
      </trkpt>
      <trkpt lat="48.66985" lon="7.21881">
        <ele>381</ele>
        <time>2013-04-07T11:55:20.000Z</time>
      </trkpt>
      <trkpt lat="48.6698" lon="7.21887">
        <ele>380</ele>
        <time>2013-04-07T11:55:22.000Z</time>
      </trkpt>
      <trkpt lat="48.66975" lon="7.2189">
        <ele>380</ele>
        <time>2013-04-07T11:55:25.000Z</time>
      </trkpt>
      <trkpt lat="48.66979" lon="7.21886">
        <ele>381</ele>
        <time>2013-04-07T11:55:27.000Z</time>
      </trkpt>
      <trkpt lat="48.66967" lon="7.21883">
        <ele>382</ele>
        <time>2013-04-07T11:55:30.000Z</time>
      </trkpt>
      <trkpt lat="48.66972" lon="7.21889">
        <ele>381</ele>
        <time>2013-04-07T11:55:33.000Z</time>
      </trkpt>
      <trkpt lat="48.66957" lon="7.21892">
        <ele>382</ele>
        <time>2013-04-07T11:55:38.000Z</time>
      </trkpt>
      <trkpt lat="48.66949" lon="7.21892">
        <ele>383</ele>
        <time>2013-04-07T11:55:42.000Z</time>
      </trkpt>
      <trkpt lat="48.66955" lon="7.21889">
        <ele>383</ele>
        <time>2013-04-07T11:55:44.000Z</time>
      </trkpt>
      <trkpt lat="48.66941" lon="7.21894">
        <ele>383</ele>
        <time>2013-04-07T11:55:48.000Z</time>
      </trkpt>
      <trkpt lat="48.66935" lon="7.21893">
        <ele>383</ele>
        <time>2013-04-07T11:55:51.000Z</time>
      </trkpt>
      <trkpt lat="48.66933" lon="7.21897">
        <ele>383</ele>
        <time>2013-04-07T11:55:53.000Z</time>
      </trkpt>
      <trkpt lat="48.66927" lon="7.21897">
        <ele>383</ele>
        <time>2013-04-07T11:55:57.000Z</time>
      </trkpt>
      <trkpt lat="48.66922" lon="7.21903">
        <ele>382</ele>
        <time>2013-04-07T11:55:59.000Z</time>
      </trkpt>
      <trkpt lat="48.6692" lon="7.21901">
        <ele>382</ele>
        <time>2013-04-07T11:56:01.000Z</time>
      </trkpt>
      <trkpt lat="48.66932" lon="7.21897">
        <ele>383</ele>
        <time>2013-04-07T11:56:05.000Z</time>
      </trkpt>
      <trkpt lat="48.66908" lon="7.21902">
        <ele>386</ele>
        <time>2013-04-07T11:56:09.000Z</time>
      </trkpt>
      <trkpt lat="48.66901" lon="7.219">
        <ele>387</ele>
        <time>2013-04-07T11:56:12.000Z</time>
      </trkpt>
      <trkpt lat="48.66895" lon="7.21905">
        <ele>387</ele>
        <time>2013-04-07T11:56:14.000Z</time>
      </trkpt>
      <trkpt lat="48.6689" lon="7.21901">
        <ele>387</ele>
        <time>2013-04-07T11:56:17.000Z</time>
      </trkpt>
      <trkpt lat="48.66883" lon="7.219">
        <ele>388</ele>
        <time>2013-04-07T11:56:19.000Z</time>
      </trkpt>
      <trkpt lat="48.66901" lon="7.21899">
        <ele>387</ele>
        <time>2013-04-07T11:56:22.000Z</time>
      </trkpt>
      <trkpt lat="48.66871" lon="7.21892">
        <ele>389</ele>
        <time>2013-04-07T11:56:27.000Z</time>
      </trkpt>
      <trkpt lat="48.66866" lon="7.2189">
        <ele>389</ele>
        <time>2013-04-07T11:56:29.000Z</time>
      </trkpt>
      <trkpt lat="48.66859" lon="7.21883">
        <ele>390</ele>
        <time>2013-04-07T11:56:32.000Z</time>
      </trkpt>
      <trkpt lat="48.66852" lon="7.21883">
        <ele>389</ele>
        <time>2013-04-07T11:56:35.000Z</time>
      </trkpt>
      <trkpt lat="48.66847" lon="7.21872">
        <ele>391</ele>
        <time>2013-04-07T11:56:38.000Z</time>
      </trkpt>
      <trkpt lat="48.6684" lon="7.21875">
        <ele>391</ele>
        <time>2013-04-07T11:56:41.000Z</time>
      </trkpt>
      <trkpt lat="48.66837" lon="7.2187">
        <ele>392</ele>
        <time>2013-04-07T11:56:44.000Z</time>
      </trkpt>
      <trkpt lat="48.66833" lon="7.21868">
        <ele>387</ele>
        <time>2013-04-07T11:56:46.000Z</time>
      </trkpt>
      <trkpt lat="48.66838" lon="7.21865">
        <ele>393</ele>
        <time>2013-04-07T11:56:48.000Z</time>
      </trkpt>
      <trkpt lat="48.66834" lon="7.21861">
        <ele>394</ele>
        <time>2013-04-07T11:56:51.000Z</time>
      </trkpt>
      <trkpt lat="48.66819" lon="7.21854">
        <ele>390</ele>
        <time>2013-04-07T11:56:54.000Z</time>
      </trkpt>
      <trkpt lat="48.66829" lon="7.21852">
        <ele>392</ele>
        <time>2013-04-07T11:56:57.000Z</time>
      </trkpt>
      <trkpt lat="48.66809" lon="7.21842">
        <ele>390</ele>
        <time>2013-04-07T11:57:01.000Z</time>
      </trkpt>
      <trkpt lat="48.66813" lon="7.21837">
        <ele>392</ele>
        <time>2013-04-07T11:57:05.000Z</time>
      </trkpt>
      <trkpt lat="48.66795" lon="7.21826">
        <ele>401</ele>
        <time>2013-04-07T11:57:09.000Z</time>
      </trkpt>
      <trkpt lat="48.6679" lon="7.21816">
        <ele>401</ele>
        <time>2013-04-07T11:57:12.000Z</time>
      </trkpt>
      <trkpt lat="48.66787" lon="7.21811">
        <ele>400</ele>
        <time>2013-04-07T11:57:15.000Z</time>
      </trkpt>
      <trkpt lat="48.66782" lon="7.21806">
        <ele>400</ele>
        <time>2013-04-07T11:57:18.000Z</time>
      </trkpt>
      <trkpt lat="48.66778" lon="7.21802">
        <ele>400</ele>
        <time>2013-04-07T11:57:20.000Z</time>
      </trkpt>
      <trkpt lat="48.66773" lon="7.21804">
        <ele>399</ele>
        <time>2013-04-07T11:57:22.000Z</time>
      </trkpt>
      <trkpt lat="48.66769" lon="7.21792">
        <ele>401</ele>
        <time>2013-04-07T11:57:25.000Z</time>
      </trkpt>
      <trkpt lat="48.66765" lon="7.21791">
        <ele>400</ele>
        <time>2013-04-07T11:57:28.000Z</time>
      </trkpt>
      <trkpt lat="48.66761" lon="7.21783">
        <ele>401</ele>
        <time>2013-04-07T11:57:31.000Z</time>
      </trkpt>
      <trkpt lat="48.66756" lon="7.21782">
        <ele>401</ele>
        <time>2013-04-07T11:57:33.000Z</time>
      </trkpt>
      <trkpt lat="48.66753" lon="7.21776">
        <ele>401</ele>
        <time>2013-04-07T11:57:36.000Z</time>
      </trkpt>
      <trkpt lat="48.66751" lon="7.2177">
        <ele>401</ele>
        <time>2013-04-07T11:57:38.000Z</time>
      </trkpt>
      <trkpt lat="48.66747" lon="7.21767">
        <ele>392</ele>
        <time>2013-04-07T11:57:40.000Z</time>
      </trkpt>
      <trkpt lat="48.66745" lon="7.21762">
        <ele>394</ele>
        <time>2013-04-07T11:57:42.000Z</time>
      </trkpt>
      <trkpt lat="48.66742" lon="7.21755">
        <ele>395</ele>
        <time>2013-04-07T11:57:45.000Z</time>
      </trkpt>
      <trkpt lat="48.66739" lon="7.21751">
        <ele>395</ele>
        <time>2013-04-07T11:57:47.000Z</time>
      </trkpt>
      <trkpt lat="48.66734" lon="7.21744">
        <ele>401</ele>
        <time>2013-04-07T11:57:50.000Z</time>
      </trkpt>
      <trkpt lat="48.66732" lon="7.21733">
        <ele>401</ele>
        <time>2013-04-07T11:57:52.000Z</time>
      </trkpt>
      <trkpt lat="48.66727" lon="7.21727">
        <ele>401</ele>
        <time>2013-04-07T11:57:56.000Z</time>
      </trkpt>
      <trkpt lat="48.66724" lon="7.21719">
        <ele>402</ele>
        <time>2013-04-07T11:57:58.000Z</time>
      </trkpt>
      <trkpt lat="48.6672" lon="7.21718">
        <ele>401</ele>
        <time>2013-04-07T11:58:01.000Z</time>
      </trkpt>
      <trkpt lat="48.66715" lon="7.2171">
        <ele>402</ele>
        <time>2013-04-07T11:58:06.000Z</time>
      </trkpt>
      <trkpt lat="48.66713" lon="7.21705">
        <ele>402</ele>
        <time>2013-04-07T11:58:08.000Z</time>
      </trkpt>
      <trkpt lat="48.66708" lon="7.21695">
        <ele>403</ele>
        <time>2013-04-07T11:58:11.000Z</time>
      </trkpt>
      <trkpt lat="48.66711" lon="7.21699">
        <ele>403</ele>
        <time>2013-04-07T11:58:13.000Z</time>
      </trkpt>
      <trkpt lat="48.66707" lon="7.21692">
        <ele>403</ele>
        <time>2013-04-07T11:58:15.000Z</time>
      </trkpt>
      <trkpt lat="48.66705" lon="7.21684">
        <ele>403</ele>
        <time>2013-04-07T11:58:19.000Z</time>
      </trkpt>
      <trkpt lat="48.66698" lon="7.21666">
        <ele>416</ele>
        <time>2013-04-07T11:58:22.000Z</time>
      </trkpt>
      <trkpt lat="48.66694" lon="7.21651">
        <ele>416</ele>
        <time>2013-04-07T11:58:25.000Z</time>
      </trkpt>
      <trkpt lat="48.66689" lon="7.21649">
        <ele>415</ele>
        <time>2013-04-07T11:58:28.000Z</time>
      </trkpt>
      <trkpt lat="48.66684" lon="7.21632">
        <ele>418</ele>
        <time>2013-04-07T11:58:31.000Z</time>
      </trkpt>
      <trkpt lat="48.66682" lon="7.2163">
        <ele>418</ele>
        <time>2013-04-07T11:58:34.000Z</time>
      </trkpt>
      <trkpt lat="48.66681" lon="7.21628">
        <ele>418</ele>
        <time>2013-04-07T11:58:38.000Z</time>
      </trkpt>
      <trkpt lat="48.66679" lon="7.2162">
        <ele>419</ele>
        <time>2013-04-07T11:58:43.000Z</time>
      </trkpt>
      <trkpt lat="48.66674" lon="7.21618">
        <ele>419</ele>
        <time>2013-04-07T11:58:47.000Z</time>
      </trkpt>
      <trkpt lat="48.66672" lon="7.21611">
        <ele>420</ele>
        <time>2013-04-07T11:58:50.000Z</time>
      </trkpt>
      <trkpt lat="48.66669" lon="7.21605">
        <ele>420</ele>
        <time>2013-04-07T11:58:53.000Z</time>
      </trkpt>
      <trkpt lat="48.66665" lon="7.21599">
        <ele>415</ele>
        <time>2013-04-07T11:58:55.000Z</time>
      </trkpt>
      <trkpt lat="48.66656" lon="7.21591">
        <ele>416</ele>
        <time>2013-04-07T11:58:58.000Z</time>
      </trkpt>
      <trkpt lat="48.6665" lon="7.21588">
        <ele>415</ele>
        <time>2013-04-07T11:59:00.000Z</time>
      </trkpt>
      <trkpt lat="48.66654" lon="7.2158">
        <ele>423</ele>
        <time>2013-04-07T11:59:04.000Z</time>
      </trkpt>
      <trkpt lat="48.66635" lon="7.2156">
        <ele>426</ele>
        <time>2013-04-07T11:59:08.000Z</time>
      </trkpt>
      <trkpt lat="48.6663" lon="7.2155">
        <ele>427</ele>
        <time>2013-04-07T11:59:11.000Z</time>
      </trkpt>
      <trkpt lat="48.66625" lon="7.21548">
        <ele>427</ele>
        <time>2013-04-07T11:59:14.000Z</time>
      </trkpt>
      <trkpt lat="48.66621" lon="7.21538">
        <ele>428</ele>
        <time>2013-04-07T11:59:17.000Z</time>
      </trkpt>
      <trkpt lat="48.66618" lon="7.21539">
        <ele>428</ele>
        <time>2013-04-07T11:59:19.000Z</time>
      </trkpt>
      <trkpt lat="48.66613" lon="7.21537">
        <ele>428</ele>
        <time>2013-04-07T11:59:22.000Z</time>
      </trkpt>
      <trkpt lat="48.66609" lon="7.21534">
        <ele>428</ele>
        <time>2013-04-07T11:59:25.000Z</time>
      </trkpt>
      <trkpt lat="48.66607" lon="7.21524">
        <ele>429</ele>
        <time>2013-04-07T11:59:29.000Z</time>
      </trkpt>
      <trkpt lat="48.666" lon="7.21518">
        <ele>430</ele>
        <time>2013-04-07T11:59:32.000Z</time>
      </trkpt>
      <trkpt lat="48.66599" lon="7.21524">
        <ele>429</ele>
        <time>2013-04-07T11:59:34.000Z</time>
      </trkpt>
      <trkpt lat="48.66595" lon="7.21523">
        <ele>429</ele>
        <time>2013-04-07T11:59:38.000Z</time>
      </trkpt>
      <trkpt lat="48.66594" lon="7.21532">
        <ele>428</ele>
        <time>2013-04-07T11:59:41.000Z</time>
      </trkpt>
      <trkpt lat="48.66594" lon="7.21539">
        <ele>427</ele>
        <time>2013-04-07T11:59:45.000Z</time>
      </trkpt>
      <trkpt lat="48.66593" lon="7.21541">
        <ele>427</ele>
        <time>2013-04-07T11:59:49.000Z</time>
      </trkpt>
      <trkpt lat="48.66603" lon="7.21557">
        <ele>425</ele>
        <time>2013-04-07T11:59:53.000Z</time>
      </trkpt>
      <trkpt lat="48.66589" lon="7.21554">
        <ele>425</ele>
        <time>2013-04-07T11:59:56.000Z</time>
      </trkpt>
      <trkpt lat="48.66587" lon="7.21562">
        <ele>424</ele>
        <time>2013-04-07T11:59:58.000Z</time>
      </trkpt>
      <trkpt lat="48.6659" lon="7.21566">
        <ele>423</ele>
        <time>2013-04-07T12:00:00.000Z</time>
      </trkpt>
      <trkpt lat="48.66586" lon="7.21574">
        <ele>421</ele>
        <time>2013-04-07T12:00:03.000Z</time>
      </trkpt>
      <trkpt lat="48.66581" lon="7.21584">
        <ele>419</ele>
        <time>2013-04-07T12:00:07.000Z</time>
      </trkpt>
      <trkpt lat="48.66579" lon="7.21593">
        <ele>422</ele>
        <time>2013-04-07T12:00:11.000Z</time>
      </trkpt>
      <trkpt lat="48.66574" lon="7.21605">
        <ele>424</ele>
        <time>2013-04-07T12:00:14.000Z</time>
      </trkpt>
      <trkpt lat="48.66575" lon="7.21602">
        <ele>423</ele>
        <time>2013-04-07T12:00:16.000Z</time>
      </trkpt>
      <trkpt lat="48.66572" lon="7.21606">
        <ele>424</ele>
        <time>2013-04-07T12:00:18.000Z</time>
      </trkpt>
      <trkpt lat="48.66567" lon="7.21609">
        <ele>425</ele>
        <time>2013-04-07T12:00:22.000Z</time>
      </trkpt>
      <trkpt lat="48.66565" lon="7.21613">
        <ele>425</ele>
        <time>2013-04-07T12:00:24.000Z</time>
      </trkpt>
      <trkpt lat="48.6656" lon="7.21622">
        <ele>426</ele>
        <time>2013-04-07T12:00:28.000Z</time>
      </trkpt>
      <trkpt lat="48.66558" lon="7.21623">
        <ele>426</ele>
        <time>2013-04-07T12:00:32.000Z</time>
      </trkpt>
      <trkpt lat="48.66552" lon="7.21623">
        <ele>427</ele>
        <time>2013-04-07T12:00:35.000Z</time>
      </trkpt>
      <trkpt lat="48.6655" lon="7.21626">
        <ele>427</ele>
        <time>2013-04-07T12:00:37.000Z</time>
      </trkpt>
      <trkpt lat="48.66543" lon="7.21633">
        <ele>428</ele>
        <time>2013-04-07T12:00:41.000Z</time>
      </trkpt>
      <trkpt lat="48.66537" lon="7.21635">
        <ele>429</ele>
        <time>2013-04-07T12:00:44.000Z</time>
      </trkpt>
      <trkpt lat="48.66534" lon="7.21634">
        <ele>429</ele>
        <time>2013-04-07T12:00:46.000Z</time>
      </trkpt>
      <trkpt lat="48.66529" lon="7.21638">
        <ele>430</ele>
        <time>2013-04-07T12:00:49.000Z</time>
      </trkpt>
      <trkpt lat="48.66525" lon="7.21641">
        <ele>431</ele>
        <time>2013-04-07T12:00:51.000Z</time>
      </trkpt>
      <trkpt lat="48.66521" lon="7.21647">
        <ele>431</ele>
        <time>2013-04-07T12:00:53.000Z</time>
      </trkpt>
      <trkpt lat="48.66516" lon="7.21656">
        <ele>432</ele>
        <time>2013-04-07T12:00:55.000Z</time>
      </trkpt>
      <trkpt lat="48.66512" lon="7.21663">
        <ele>434</ele>
        <time>2013-04-07T12:00:58.000Z</time>
      </trkpt>
      <trkpt lat="48.6651" lon="7.21663">
        <ele>434</ele>
        <time>2013-04-07T12:01:00.000Z</time>
      </trkpt>
      <trkpt lat="48.66509" lon="7.21668">
        <ele>431</ele>
        <time>2013-04-07T12:01:04.000Z</time>
      </trkpt>
      <trkpt lat="48.66507" lon="7.21677">
        <ele>429</ele>
        <time>2013-04-07T12:01:06.000Z</time>
      </trkpt>
      <trkpt lat="48.66506" lon="7.21683">
        <ele>427</ele>
        <time>2013-04-07T12:01:09.000Z</time>
      </trkpt>
      <trkpt lat="48.66504" lon="7.21691">
        <ele>425</ele>
        <time>2013-04-07T12:01:11.000Z</time>
      </trkpt>
      <trkpt lat="48.66502" lon="7.21696">
        <ele>424</ele>
        <time>2013-04-07T12:01:13.000Z</time>
      </trkpt>
      <trkpt lat="48.66498" lon="7.21703">
        <ele>441</ele>
        <time>2013-04-07T12:01:16.000Z</time>
      </trkpt>
      <trkpt lat="48.66504" lon="7.21705">
        <ele>422</ele>
        <time>2013-04-07T12:01:18.000Z</time>
      </trkpt>
      <trkpt lat="48.66495" lon="7.21711">
        <ele>441</ele>
        <time>2013-04-07T12:01:20.000Z</time>
      </trkpt>
      <trkpt lat="48.66495" lon="7.21714">
        <ele>441</ele>
        <time>2013-04-07T12:01:23.000Z</time>
      </trkpt>
      <trkpt lat="48.66481" lon="7.2173">
        <ele>440</ele>
        <time>2013-04-07T12:01:27.000Z</time>
      </trkpt>
      <trkpt lat="48.66493" lon="7.21744">
        <ele>433</ele>
        <time>2013-04-07T12:01:30.000Z</time>
      </trkpt>
      <trkpt lat="48.66479" lon="7.21743">
        <ele>439</ele>
        <time>2013-04-07T12:01:32.000Z</time>
      </trkpt>
      <trkpt lat="48.66476" lon="7.21752">
        <ele>433</ele>
        <time>2013-04-07T12:01:36.000Z</time>
      </trkpt>
      <trkpt lat="48.66476" lon="7.21754">
        <ele>433</ele>
        <time>2013-04-07T12:01:38.000Z</time>
      </trkpt>
      <trkpt lat="48.66475" lon="7.21758">
        <ele>434</ele>
        <time>2013-04-07T12:01:42.000Z</time>
      </trkpt>
      <trkpt lat="48.66494" lon="7.21772">
        <ele>431</ele>
        <time>2013-04-07T12:01:46.000Z</time>
      </trkpt>
      <trkpt lat="48.66471" lon="7.21769">
        <ele>434</ele>
        <time>2013-04-07T12:01:49.000Z</time>
      </trkpt>
      <trkpt lat="48.66486" lon="7.2177">
        <ele>432</ele>
        <time>2013-04-07T12:01:51.000Z</time>
      </trkpt>
      <trkpt lat="48.66468" lon="7.21779">
        <ele>435</ele>
        <time>2013-04-07T12:01:53.000Z</time>
      </trkpt>
      <trkpt lat="48.66481" lon="7.21782">
        <ele>432</ele>
        <time>2013-04-07T12:01:56.000Z</time>
      </trkpt>
      <trkpt lat="48.66463" lon="7.2179">
        <ele>435</ele>
        <time>2013-04-07T12:01:59.000Z</time>
      </trkpt>
      <trkpt lat="48.6646" lon="7.21798">
        <ele>435</ele>
        <time>2013-04-07T12:02:01.000Z</time>
      </trkpt>
      <trkpt lat="48.66457" lon="7.21805">
        <ele>435</ele>
        <time>2013-04-07T12:02:04.000Z</time>
      </trkpt>
      <trkpt lat="48.66456" lon="7.21806">
        <ele>435</ele>
        <time>2013-04-07T12:02:06.000Z</time>
      </trkpt>
      <trkpt lat="48.66455" lon="7.2181">
        <ele>435</ele>
        <time>2013-04-07T12:02:09.000Z</time>
      </trkpt>
      <trkpt lat="48.66449" lon="7.21819">
        <ele>436</ele>
        <time>2013-04-07T12:02:12.000Z</time>
      </trkpt>
      <trkpt lat="48.66442" lon="7.2182">
        <ele>437</ele>
        <time>2013-04-07T12:02:15.000Z</time>
      </trkpt>
      <trkpt lat="48.66437" lon="7.21822">
        <ele>438</ele>
        <time>2013-04-07T12:02:21.000Z</time>
      </trkpt>
      <trkpt lat="48.66434" lon="7.21818">
        <ele>439</ele>
        <time>2013-04-07T12:02:24.000Z</time>
      </trkpt>
      <trkpt lat="48.66434" lon="7.21827">
        <ele>439</ele>
        <time>2013-04-07T12:02:27.000Z</time>
      </trkpt>
      <trkpt lat="48.66432" lon="7.21821">
        <ele>439</ele>
        <time>2013-04-07T12:02:30.000Z</time>
      </trkpt>
      <trkpt lat="48.6643" lon="7.21833">
        <ele>440</ele>
        <time>2013-04-07T12:02:32.000Z</time>
      </trkpt>
      <trkpt lat="48.66428" lon="7.21828">
        <ele>440</ele>
        <time>2013-04-07T12:02:34.000Z</time>
      </trkpt>
      <trkpt lat="48.66425" lon="7.21835">
        <ele>438</ele>
        <time>2013-04-07T12:02:37.000Z</time>
      </trkpt>
      <trkpt lat="48.66418" lon="7.21857">
        <ele>432</ele>
        <time>2013-04-07T12:02:41.000Z</time>
      </trkpt>
      <trkpt lat="48.66415" lon="7.21858">
        <ele>444</ele>
        <time>2013-04-07T12:02:44.000Z</time>
      </trkpt>
      <trkpt lat="48.66413" lon="7.21865">
        <ele>444</ele>
        <time>2013-04-07T12:02:46.000Z</time>
      </trkpt>
      <trkpt lat="48.66409" lon="7.21873">
        <ele>443</ele>
        <time>2013-04-07T12:02:49.000Z</time>
      </trkpt>
      <trkpt lat="48.66409" lon="7.21868">
        <ele>444</ele>
        <time>2013-04-07T12:02:51.000Z</time>
      </trkpt>
      <trkpt lat="48.66402" lon="7.21879">
        <ele>443</ele>
        <time>2013-04-07T12:02:54.000Z</time>
      </trkpt>
      <trkpt lat="48.66397" lon="7.21881">
        <ele>443</ele>
        <time>2013-04-07T12:02:58.000Z</time>
      </trkpt>
      <trkpt lat="48.66395" lon="7.21884">
        <ele>443</ele>
        <time>2013-04-07T12:03:00.000Z</time>
      </trkpt>
      <trkpt lat="48.66387" lon="7.2189">
        <ele>444</ele>
        <time>2013-04-07T12:03:04.000Z</time>
      </trkpt>
      <trkpt lat="48.66384" lon="7.21896">
        <ele>443</ele>
        <time>2013-04-07T12:03:06.000Z</time>
      </trkpt>
      <trkpt lat="48.66375" lon="7.21902">
        <ele>444</ele>
        <time>2013-04-07T12:03:10.000Z</time>
      </trkpt>
      <trkpt lat="48.6637" lon="7.21908">
        <ele>445</ele>
        <time>2013-04-07T12:03:12.000Z</time>
      </trkpt>
      <trkpt lat="48.66364" lon="7.21904">
        <ele>446</ele>
        <time>2013-04-07T12:03:14.000Z</time>
      </trkpt>
      <trkpt lat="48.66359" lon="7.21909">
        <ele>446</ele>
        <time>2013-04-07T12:03:17.000Z</time>
      </trkpt>
      <trkpt lat="48.66354" lon="7.21916">
        <ele>447</ele>
        <time>2013-04-07T12:03:19.000Z</time>
      </trkpt>
      <trkpt lat="48.6635" lon="7.2192">
        <ele>441</ele>
        <time>2013-04-07T12:03:22.000Z</time>
      </trkpt>
      <trkpt lat="48.66348" lon="7.21921">
        <ele>441</ele>
        <time>2013-04-07T12:03:26.000Z</time>
      </trkpt>
      <trkpt lat="48.66347" lon="7.21921">
        <ele>442</ele>
        <time>2013-04-07T12:03:30.000Z</time>
      </trkpt>
      <trkpt lat="48.6635" lon="7.21921">
        <ele>441</ele>
        <time>2013-04-07T12:03:32.000Z</time>
      </trkpt>
      <trkpt lat="48.66342" lon="7.21929">
        <ele>442</ele>
        <time>2013-04-07T12:03:38.000Z</time>
      </trkpt>
      <trkpt lat="48.66344" lon="7.21925">
        <ele>442</ele>
        <time>2013-04-07T12:03:48.000Z</time>
      </trkpt>
      <trkpt lat="48.66339" lon="7.21934">
        <ele>441</ele>
        <time>2013-04-07T12:03:54.000Z</time>
      </trkpt>
      <trkpt lat="48.66338" lon="7.21932">
        <ele>441</ele>
        <time>2013-04-07T12:03:59.000Z</time>
      </trkpt>
      <trkpt lat="48.66336" lon="7.21932">
        <ele>442</ele>
        <time>2013-04-07T12:04:02.000Z</time>
      </trkpt>
      <trkpt lat="48.66335" lon="7.21932">
        <ele>442</ele>
        <time>2013-04-07T12:04:06.000Z</time>
      </trkpt>
      <trkpt lat="48.66328" lon="7.2193">
        <ele>452</ele>
        <time>2013-04-07T12:04:11.000Z</time>
      </trkpt>
      <trkpt lat="48.66327" lon="7.21937">
        <ele>452</ele>
        <time>2013-04-07T12:04:13.000Z</time>
      </trkpt>
      <trkpt lat="48.66322" lon="7.21942">
        <ele>453</ele>
        <time>2013-04-07T12:04:16.000Z</time>
      </trkpt>
      <trkpt lat="48.66317" lon="7.21939">
        <ele>453</ele>
        <time>2013-04-07T12:04:18.000Z</time>
      </trkpt>
      <trkpt lat="48.6631" lon="7.21952">
        <ele>454</ele>
        <time>2013-04-07T12:04:21.000Z</time>
      </trkpt>
      <trkpt lat="48.66307" lon="7.21954">
        <ele>454</ele>
        <time>2013-04-07T12:04:24.000Z</time>
      </trkpt>
      <trkpt lat="48.66304" lon="7.21968">
        <ele>454</ele>
        <time>2013-04-07T12:04:27.000Z</time>
      </trkpt>
      <trkpt lat="48.66304" lon="7.21977">
        <ele>453</ele>
        <time>2013-04-07T12:04:30.000Z</time>
      </trkpt>
      <trkpt lat="48.66301" lon="7.21985">
        <ele>452</ele>
        <time>2013-04-07T12:04:32.000Z</time>
      </trkpt>
      <trkpt lat="48.66308" lon="7.21988">
        <ele>451</ele>
        <time>2013-04-07T12:04:35.000Z</time>
      </trkpt>
      <trkpt lat="48.66296" lon="7.21998">
        <ele>453</ele>
        <time>2013-04-07T12:04:38.000Z</time>
      </trkpt>
      <trkpt lat="48.66296" lon="7.22004">
        <ele>449</ele>
        <time>2013-04-07T12:04:40.000Z</time>
      </trkpt>
      <trkpt lat="48.66296" lon="7.22011">
        <ele>449</ele>
        <time>2013-04-07T12:04:44.000Z</time>
      </trkpt>
      <trkpt lat="48.66294" lon="7.22028">
        <ele>449</ele>
        <time>2013-04-07T12:04:47.000Z</time>
      </trkpt>
      <trkpt lat="48.66293" lon="7.22037">
        <ele>449</ele>
        <time>2013-04-07T12:04:50.000Z</time>
      </trkpt>
      <trkpt lat="48.66293" lon="7.22049">
        <ele>449</ele>
        <time>2013-04-07T12:04:53.000Z</time>
      </trkpt>
      <trkpt lat="48.66292" lon="7.22051">
        <ele>449</ele>
        <time>2013-04-07T12:04:56.000Z</time>
      </trkpt>
      <trkpt lat="48.66294" lon="7.22059">
        <ele>448</ele>
        <time>2013-04-07T12:04:59.000Z</time>
      </trkpt>
      <trkpt lat="48.66286" lon="7.22069">
        <ele>450</ele>
        <time>2013-04-07T12:05:02.000Z</time>
      </trkpt>
      <trkpt lat="48.66285" lon="7.22071">
        <ele>450</ele>
        <time>2013-04-07T12:05:04.000Z</time>
      </trkpt>
      <trkpt lat="48.66282" lon="7.22087">
        <ele>447</ele>
        <time>2013-04-07T12:05:07.000Z</time>
      </trkpt>
      <trkpt lat="48.66292" lon="7.22092">
        <ele>444</ele>
        <time>2013-04-07T12:05:11.000Z</time>
      </trkpt>
      <trkpt lat="48.66275" lon="7.22103">
        <ele>447</ele>
        <time>2013-04-07T12:05:15.000Z</time>
      </trkpt>
      <trkpt lat="48.66273" lon="7.2211">
        <ele>447</ele>
        <time>2013-04-07T12:05:18.000Z</time>
      </trkpt>
      <trkpt lat="48.6627" lon="7.22118">
        <ele>446</ele>
        <time>2013-04-07T12:05:21.000Z</time>
      </trkpt>
      <trkpt lat="48.66268" lon="7.22127">
        <ele>446</ele>
        <time>2013-04-07T12:05:25.000Z</time>
      </trkpt>
      <trkpt lat="48.66265" lon="7.2213">
        <ele>446</ele>
        <time>2013-04-07T12:05:27.000Z</time>
      </trkpt>
      <trkpt lat="48.6626" lon="7.22137">
        <ele>446</ele>
        <time>2013-04-07T12:05:31.000Z</time>
      </trkpt>
      <trkpt lat="48.66258" lon="7.22143">
        <ele>446</ele>
        <time>2013-04-07T12:05:33.000Z</time>
      </trkpt>
      <trkpt lat="48.66255" lon="7.22149">
        <ele>447</ele>
        <time>2013-04-07T12:05:36.000Z</time>
      </trkpt>
      <trkpt lat="48.66264" lon="7.22155">
        <ele>446</ele>
        <time>2013-04-07T12:05:39.000Z</time>
      </trkpt>
      <trkpt lat="48.66256" lon="7.22162">
        <ele>448</ele>
        <time>2013-04-07T12:05:43.000Z</time>
      </trkpt>
      <trkpt lat="48.66238" lon="7.22174">
        <ele>450</ele>
        <time>2013-04-07T12:05:47.000Z</time>
      </trkpt>
      <trkpt lat="48.66251" lon="7.22179">
        <ele>442</ele>
        <time>2013-04-07T12:05:51.000Z</time>
      </trkpt>
      <trkpt lat="48.66228" lon="7.22186">
        <ele>450</ele>
        <time>2013-04-07T12:05:55.000Z</time>
      </trkpt>
      <trkpt lat="48.66223" lon="7.22193">
        <ele>450</ele>
        <time>2013-04-07T12:05:59.000Z</time>
      </trkpt>
      <trkpt lat="48.66216" lon="7.22198">
        <ele>450</ele>
        <time>2013-04-07T12:06:05.000Z</time>
      </trkpt>
      <trkpt lat="48.66213" lon="7.22198">
        <ele>451</ele>
        <time>2013-04-07T12:06:07.000Z</time>
      </trkpt>
      <trkpt lat="48.66205" lon="7.22196">
        <ele>452</ele>
        <time>2013-04-07T12:06:11.000Z</time>
      </trkpt>
      <trkpt lat="48.66203" lon="7.22201">
        <ele>451</ele>
        <time>2013-04-07T12:06:13.000Z</time>
      </trkpt>
      <trkpt lat="48.66198" lon="7.22201">
        <ele>452</ele>
        <time>2013-04-07T12:06:17.000Z</time>
      </trkpt>
      <trkpt lat="48.66191" lon="7.22205">
        <ele>452</ele>
        <time>2013-04-07T12:06:21.000Z</time>
      </trkpt>
      <trkpt lat="48.66187" lon="7.22208">
        <ele>452</ele>
        <time>2013-04-07T12:06:23.000Z</time>
      </trkpt>
      <trkpt lat="48.66181" lon="7.22212">
        <ele>452</ele>
        <time>2013-04-07T12:06:25.000Z</time>
      </trkpt>
      <trkpt lat="48.6619" lon="7.22215">
        <ele>451</ele>
        <time>2013-04-07T12:06:27.000Z</time>
      </trkpt>
      <trkpt lat="48.66173" lon="7.22214">
        <ele>452</ele>
        <time>2013-04-07T12:06:30.000Z</time>
      </trkpt>
      <trkpt lat="48.66166" lon="7.2222">
        <ele>459</ele>
        <time>2013-04-07T12:06:32.000Z</time>
      </trkpt>
      <trkpt lat="48.66162" lon="7.22219">
        <ele>459</ele>
        <time>2013-04-07T12:06:35.000Z</time>
      </trkpt>
      <trkpt lat="48.66156" lon="7.22214">
        <ele>461</ele>
        <time>2013-04-07T12:06:37.000Z</time>
      </trkpt>
      <trkpt lat="48.6616" lon="7.22221">
        <ele>459</ele>
        <time>2013-04-07T12:06:40.000Z</time>
      </trkpt>
      <trkpt lat="48.66146" lon="7.22221">
        <ele>460</ele>
        <time>2013-04-07T12:06:43.000Z</time>
      </trkpt>
      <trkpt lat="48.66143" lon="7.22223">
        <ele>460</ele>
        <time>2013-04-07T12:06:45.000Z</time>
      </trkpt>
      <trkpt lat="48.66137" lon="7.22223">
        <ele>461</ele>
        <time>2013-04-07T12:06:49.000Z</time>
      </trkpt>
      <trkpt lat="48.66143" lon="7.2223">
        <ele>459</ele>
        <time>2013-04-07T12:06:51.000Z</time>
      </trkpt>
      <trkpt lat="48.66127" lon="7.22232">
        <ele>461</ele>
        <time>2013-04-07T12:06:55.000Z</time>
      </trkpt>
      <trkpt lat="48.66137" lon="7.22229">
        <ele>460</ele>
        <time>2013-04-07T12:06:57.000Z</time>
      </trkpt>
      <trkpt lat="48.66122" lon="7.22231">
        <ele>461</ele>
        <time>2013-04-07T12:07:01.000Z</time>
      </trkpt>
      <trkpt lat="48.66129" lon="7.22232">
        <ele>461</ele>
        <time>2013-04-07T12:07:04.000Z</time>
      </trkpt>
      <trkpt lat="48.66114" lon="7.22232">
        <ele>462</ele>
        <time>2013-04-07T12:07:07.000Z</time>
      </trkpt>
      <trkpt lat="48.66106" lon="7.22235">
        <ele>461</ele>
        <time>2013-04-07T12:07:11.000Z</time>
      </trkpt>
      <trkpt lat="48.66101" lon="7.22234">
        <ele>462</ele>
        <time>2013-04-07T12:07:15.000Z</time>
      </trkpt>
      <trkpt lat="48.66092" lon="7.22235">
        <ele>461</ele>
        <time>2013-04-07T12:07:19.000Z</time>
      </trkpt>
      <trkpt lat="48.6609" lon="7.22234">
        <ele>461</ele>
        <time>2013-04-07T12:07:21.000Z</time>
      </trkpt>
      <trkpt lat="48.66084" lon="7.22238">
        <ele>460</ele>
        <time>2013-04-07T12:07:25.000Z</time>
      </trkpt>
      <trkpt lat="48.66079" lon="7.2224">
        <ele>464</ele>
        <time>2013-04-07T12:07:27.000Z</time>
      </trkpt>
      <trkpt lat="48.66088" lon="7.22237">
        <ele>460</ele>
        <time>2013-04-07T12:07:30.000Z</time>
      </trkpt>
      <trkpt lat="48.66069" lon="7.22241">
        <ele>467</ele>
        <time>2013-04-07T12:07:33.000Z</time>
      </trkpt>
      <trkpt lat="48.66066" lon="7.22242">
        <ele>468</ele>
        <time>2013-04-07T12:07:36.000Z</time>
      </trkpt>
      <trkpt lat="48.66065" lon="7.22243">
        <ele>468</ele>
        <time>2013-04-07T12:07:38.000Z</time>
      </trkpt>
      <trkpt lat="48.66063" lon="7.22244">
        <ele>469</ele>
        <time>2013-04-07T12:07:41.000Z</time>
      </trkpt>
      <trkpt lat="48.66056" lon="7.22242">
        <ele>471</ele>
        <time>2013-04-07T12:07:44.000Z</time>
      </trkpt>
      <trkpt lat="48.66052" lon="7.22245">
        <ele>471</ele>
        <time>2013-04-07T12:07:47.000Z</time>
      </trkpt>
      <trkpt lat="48.66048" lon="7.22247">
        <ele>472</ele>
        <time>2013-04-07T12:07:50.000Z</time>
      </trkpt>
      <trkpt lat="48.6604" lon="7.22255">
        <ele>457</ele>
        <time>2013-04-07T12:07:53.000Z</time>
      </trkpt>
      <trkpt lat="48.6604" lon="7.2225">
        <ele>457</ele>
        <time>2013-04-07T12:07:56.000Z</time>
      </trkpt>
      <trkpt lat="48.66036" lon="7.22258">
        <ele>458</ele>
        <time>2013-04-07T12:07:59.000Z</time>
      </trkpt>
      <trkpt lat="48.66034" lon="7.22256">
        <ele>458</ele>
        <time>2013-04-07T12:08:02.000Z</time>
      </trkpt>
      <trkpt lat="48.66029" lon="7.22261">
        <ele>459</ele>
        <time>2013-04-07T12:08:06.000Z</time>
      </trkpt>
      <trkpt lat="48.66043" lon="7.22258">
        <ele>457</ele>
        <time>2013-04-07T12:08:10.000Z</time>
      </trkpt>
      <trkpt lat="48.66016" lon="7.22265">
        <ele>461</ele>
        <time>2013-04-07T12:08:14.000Z</time>
      </trkpt>
      <trkpt lat="48.66014" lon="7.22268">
        <ele>461</ele>
        <time>2013-04-07T12:08:16.000Z</time>
      </trkpt>
      <trkpt lat="48.66014" lon="7.22271">
        <ele>460</ele>
        <time>2013-04-07T12:08:18.000Z</time>
      </trkpt>
      <trkpt lat="48.65998" lon="7.22283">
        <ele>470</ele>
        <time>2013-04-07T12:08:22.000Z</time>
      </trkpt>
      <trkpt lat="48.65994" lon="7.22283">
        <ele>470</ele>
        <time>2013-04-07T12:08:24.000Z</time>
      </trkpt>
      <trkpt lat="48.65987" lon="7.22296">
        <ele>469</ele>
        <time>2013-04-07T12:08:27.000Z</time>
      </trkpt>
      <trkpt lat="48.65981" lon="7.22302">
        <ele>469</ele>
        <time>2013-04-07T12:08:30.000Z</time>
      </trkpt>
      <trkpt lat="48.6598" lon="7.22303">
        <ele>469</ele>
        <time>2013-04-07T12:08:32.000Z</time>
      </trkpt>
      <trkpt lat="48.65977" lon="7.22306">
        <ele>469</ele>
        <time>2013-04-07T12:08:35.000Z</time>
      </trkpt>
      <trkpt lat="48.65971" lon="7.2231">
        <ele>469</ele>
        <time>2013-04-07T12:08:38.000Z</time>
      </trkpt>
      <trkpt lat="48.65968" lon="7.22318">
        <ele>469</ele>
        <time>2013-04-07T12:08:41.000Z</time>
      </trkpt>
      <trkpt lat="48.65966" lon="7.22322">
        <ele>469</ele>
        <time>2013-04-07T12:08:43.000Z</time>
      </trkpt>
      <trkpt lat="48.65965" lon="7.22325">
        <ele>469</ele>
        <time>2013-04-07T12:08:45.000Z</time>
      </trkpt>
      <trkpt lat="48.65962" lon="7.22329">
        <ele>469</ele>
        <time>2013-04-07T12:08:47.000Z</time>
      </trkpt>
      <trkpt lat="48.6596" lon="7.22331">
        <ele>469</ele>
        <time>2013-04-07T12:08:49.000Z</time>
      </trkpt>
      <trkpt lat="48.65953" lon="7.22343">
        <ele>463</ele>
        <time>2013-04-07T12:08:53.000Z</time>
      </trkpt>
      <trkpt lat="48.65947" lon="7.22343">
        <ele>464</ele>
        <time>2013-04-07T12:08:57.000Z</time>
      </trkpt>
      <trkpt lat="48.65944" lon="7.22344">
        <ele>465</ele>
        <time>2013-04-07T12:08:59.000Z</time>
      </trkpt>
      <trkpt lat="48.65939" lon="7.22359">
        <ele>465</ele>
        <time>2013-04-07T12:09:02.000Z</time>
      </trkpt>
      <trkpt lat="48.65936" lon="7.22367">
        <ele>464</ele>
        <time>2013-04-07T12:09:05.000Z</time>
      </trkpt>
      <trkpt lat="48.65935" lon="7.22365">
        <ele>465</ele>
        <time>2013-04-07T12:09:08.000Z</time>
      </trkpt>
      <trkpt lat="48.6593" lon="7.22379">
        <ele>465</ele>
        <time>2013-04-07T12:09:11.000Z</time>
      </trkpt>
      <trkpt lat="48.65926" lon="7.22389">
        <ele>465</ele>
        <time>2013-04-07T12:09:16.000Z</time>
      </trkpt>
      <trkpt lat="48.65922" lon="7.22403">
        <ele>468</ele>
        <time>2013-04-07T12:09:19.000Z</time>
      </trkpt>
      <trkpt lat="48.6592" lon="7.22405">
        <ele>469</ele>
        <time>2013-04-07T12:09:21.000Z</time>
      </trkpt>
      <trkpt lat="48.65916" lon="7.22418">
        <ele>474</ele>
        <time>2013-04-07T12:09:25.000Z</time>
      </trkpt>
      <trkpt lat="48.65915" lon="7.22419">
        <ele>475</ele>
        <time>2013-04-07T12:09:27.000Z</time>
      </trkpt>
      <trkpt lat="48.65911" lon="7.22428">
        <ele>476</ele>
        <time>2013-04-07T12:09:31.000Z</time>
      </trkpt>
      <trkpt lat="48.65911" lon="7.22429">
        <ele>476</ele>
        <time>2013-04-07T12:09:33.000Z</time>
      </trkpt>
      <trkpt lat="48.65909" lon="7.22434">
        <ele>477</ele>
        <time>2013-04-07T12:09:37.000Z</time>
      </trkpt>
      <trkpt lat="48.65908" lon="7.2244">
        <ele>477</ele>
        <time>2013-04-07T12:09:39.000Z</time>
      </trkpt>
      <trkpt lat="48.65906" lon="7.22455">
        <ele>478</ele>
        <time>2013-04-07T12:09:43.000Z</time>
      </trkpt>
      <trkpt lat="48.65905" lon="7.22458">
        <ele>478</ele>
        <time>2013-04-07T12:09:47.000Z</time>
      </trkpt>
      <trkpt lat="48.65903" lon="7.22469">
        <ele>478</ele>
        <time>2013-04-07T12:09:51.000Z</time>
      </trkpt>
      <trkpt lat="48.65903" lon="7.22471">
        <ele>478</ele>
        <time>2013-04-07T12:09:53.000Z</time>
      </trkpt>
      <trkpt lat="48.65899" lon="7.22483">
        <ele>477</ele>
        <time>2013-04-07T12:09:57.000Z</time>
      </trkpt>
      <trkpt lat="48.65901" lon="7.22486">
        <ele>477</ele>
        <time>2013-04-07T12:09:59.000Z</time>
      </trkpt>
      <trkpt lat="48.659" lon="7.22481">
        <ele>477</ele>
        <time>2013-04-07T12:10:03.000Z</time>
      </trkpt>
      <trkpt lat="48.65899" lon="7.22484">
        <ele>477</ele>
        <time>2013-04-07T12:10:06.000Z</time>
      </trkpt>
      <trkpt lat="48.65899" lon="7.22477">
        <ele>478</ele>
        <time>2013-04-07T12:10:08.000Z</time>
      </trkpt>
      <trkpt lat="48.65898" lon="7.22474">
        <ele>478</ele>
        <time>2013-04-07T12:10:11.000Z</time>
      </trkpt>
      <trkpt lat="48.65897" lon="7.22472">
        <ele>478</ele>
        <time>2013-04-07T12:10:14.000Z</time>
      </trkpt>
      <trkpt lat="48.65904" lon="7.22475">
        <ele>477</ele>
        <time>2013-04-07T12:10:17.000Z</time>
      </trkpt>
      <trkpt lat="48.65893" lon="7.22473">
        <ele>478</ele>
        <time>2013-04-07T12:10:20.000Z</time>
      </trkpt>
      <trkpt lat="48.65893" lon="7.22462">
        <ele>478</ele>
        <time>2013-04-07T12:10:22.000Z</time>
      </trkpt>
      <trkpt lat="48.65892" lon="7.22455">
        <ele>478</ele>
        <time>2013-04-07T12:10:26.000Z</time>
      </trkpt>
      <trkpt lat="48.65891" lon="7.22442">
        <ele>478</ele>
        <time>2013-04-07T12:10:30.000Z</time>
      </trkpt>
      <trkpt lat="48.65889" lon="7.22435">
        <ele>478</ele>
        <time>2013-04-07T12:10:33.000Z</time>
      </trkpt>
      <trkpt lat="48.65887" lon="7.22428">
        <ele>478</ele>
        <time>2013-04-07T12:10:36.000Z</time>
      </trkpt>
      <trkpt lat="48.65886" lon="7.2242">
        <ele>478</ele>
        <time>2013-04-07T12:10:39.000Z</time>
      </trkpt>
      <trkpt lat="48.65882" lon="7.22417">
        <ele>478</ele>
        <time>2013-04-07T12:10:42.000Z</time>
      </trkpt>
      <trkpt lat="48.65882" lon="7.22411">
        <ele>477</ele>
        <time>2013-04-07T12:10:44.000Z</time>
      </trkpt>
      <trkpt lat="48.65881" lon="7.22406">
        <ele>477</ele>
        <time>2013-04-07T12:10:47.000Z</time>
      </trkpt>
      <trkpt lat="48.6588" lon="7.22398">
        <ele>477</ele>
        <time>2013-04-07T12:10:51.000Z</time>
      </trkpt>
      <trkpt lat="48.65881" lon="7.22388">
        <ele>477</ele>
        <time>2013-04-07T12:10:55.000Z</time>
      </trkpt>
      <trkpt lat="48.65882" lon="7.22366">
        <ele>477</ele>
        <time>2013-04-07T12:10:59.000Z</time>
      </trkpt>
      <trkpt lat="48.65887" lon="7.22364">
        <ele>477</ele>
        <time>2013-04-07T12:11:03.000Z</time>
      </trkpt>
      <trkpt lat="48.65883" lon="7.22343">
        <ele>477</ele>
        <time>2013-04-07T12:11:07.000Z</time>
      </trkpt>
      <trkpt lat="48.65886" lon="7.22337">
        <ele>477</ele>
        <time>2013-04-07T12:11:11.000Z</time>
      </trkpt>
      <trkpt lat="48.65887" lon="7.22332">
        <ele>479</ele>
        <time>2013-04-07T12:11:13.000Z</time>
      </trkpt>
      <trkpt lat="48.65878" lon="7.22328">
        <ele>479</ele>
        <time>2013-04-07T12:11:17.000Z</time>
      </trkpt>
      <trkpt lat="48.6589" lon="7.22319">
        <ele>479</ele>
        <time>2013-04-07T12:11:21.000Z</time>
      </trkpt>
      <trkpt lat="48.659" lon="7.2231">
        <ele>480</ele>
        <time>2013-04-07T12:11:23.000Z</time>
      </trkpt>
      <trkpt lat="48.65899" lon="7.22314">
        <ele>479</ele>
        <time>2013-04-07T12:11:25.000Z</time>
      </trkpt>
      <trkpt lat="48.65903" lon="7.22303">
        <ele>480</ele>
        <time>2013-04-07T12:11:28.000Z</time>
      </trkpt>
      <trkpt lat="48.65907" lon="7.22293">
        <ele>481</ele>
        <time>2013-04-07T12:11:30.000Z</time>
      </trkpt>
      <trkpt lat="48.65909" lon="7.22294">
        <ele>481</ele>
        <time>2013-04-07T12:11:33.000Z</time>
      </trkpt>
      <trkpt lat="48.65907" lon="7.22286">
        <ele>481</ele>
        <time>2013-04-07T12:11:36.000Z</time>
      </trkpt>
      <trkpt lat="48.65912" lon="7.22286">
        <ele>482</ele>
        <time>2013-04-07T12:11:38.000Z</time>
      </trkpt>
      <trkpt lat="48.65907" lon="7.22277">
        <ele>483</ele>
        <time>2013-04-07T12:11:42.000Z</time>
      </trkpt>
      <trkpt lat="48.65918" lon="7.22266">
        <ele>482</ele>
        <time>2013-04-07T12:11:45.000Z</time>
      </trkpt>
      <trkpt lat="48.65918" lon="7.2227">
        <ele>481</ele>
        <time>2013-04-07T12:11:48.000Z</time>
      </trkpt>
      <trkpt lat="48.65919" lon="7.22269">
        <ele>481</ele>
        <time>2013-04-07T12:11:50.000Z</time>
      </trkpt>
      <trkpt lat="48.65921" lon="7.22264">
        <ele>482</ele>
        <time>2013-04-07T12:11:52.000Z</time>
      </trkpt>
      <trkpt lat="48.65922" lon="7.2226">
        <ele>483</ele>
        <time>2013-04-07T12:11:54.000Z</time>
      </trkpt>
      <trkpt lat="48.65923" lon="7.22254">
        <ele>485</ele>
        <time>2013-04-07T12:11:58.000Z</time>
      </trkpt>
      <trkpt lat="48.65924" lon="7.22246">
        <ele>490</ele>
        <time>2013-04-07T12:12:01.000Z</time>
      </trkpt>
      <trkpt lat="48.65927" lon="7.22252">
        <ele>484</ele>
        <time>2013-04-07T12:12:03.000Z</time>
      </trkpt>
      <trkpt lat="48.65929" lon="7.22238">
        <ele>490</ele>
        <time>2013-04-07T12:12:07.000Z</time>
      </trkpt>
      <trkpt lat="48.65932" lon="7.22237">
        <ele>490</ele>
        <time>2013-04-07T12:12:11.000Z</time>
      </trkpt>
      <trkpt lat="48.65934" lon="7.22232">
        <ele>491</ele>
        <time>2013-04-07T12:12:13.000Z</time>
      </trkpt>
      <trkpt lat="48.65939" lon="7.22219">
        <ele>492</ele>
        <time>2013-04-07T12:12:17.000Z</time>
      </trkpt>
      <trkpt lat="48.65939" lon="7.22224">
        <ele>491</ele>
        <time>2013-04-07T12:12:19.000Z</time>
      </trkpt>
      <trkpt lat="48.65944" lon="7.22214">
        <ele>492</ele>
        <time>2013-04-07T12:12:23.000Z</time>
      </trkpt>
      <trkpt lat="48.65948" lon="7.22209">
        <ele>493</ele>
        <time>2013-04-07T12:12:25.000Z</time>
      </trkpt>
      <trkpt lat="48.65936" lon="7.22212">
        <ele>493</ele>
        <time>2013-04-07T12:12:29.000Z</time>
      </trkpt>
      <trkpt lat="48.65958" lon="7.22205">
        <ele>492</ele>
        <time>2013-04-07T12:12:33.000Z</time>
      </trkpt>
      <trkpt lat="48.65963" lon="7.222">
        <ele>492</ele>
        <time>2013-04-07T12:12:37.000Z</time>
      </trkpt>
      <trkpt lat="48.65966" lon="7.22194">
        <ele>493</ele>
        <time>2013-04-07T12:12:39.000Z</time>
      </trkpt>
      <trkpt lat="48.65976" lon="7.22181">
        <ele>494</ele>
        <time>2013-04-07T12:12:43.000Z</time>
      </trkpt>
      <trkpt lat="48.65979" lon="7.22176">
        <ele>494</ele>
        <time>2013-04-07T12:12:45.000Z</time>
      </trkpt>
      <trkpt lat="48.65983" lon="7.22182">
        <ele>494</ele>
        <time>2013-04-07T12:12:48.000Z</time>
      </trkpt>
      <trkpt lat="48.65987" lon="7.22174">
        <ele>494</ele>
        <time>2013-04-07T12:12:51.000Z</time>
      </trkpt>
      <trkpt lat="48.6599" lon="7.22171">
        <ele>495</ele>
        <time>2013-04-07T12:12:53.000Z</time>
      </trkpt>
      <trkpt lat="48.65992" lon="7.22169">
        <ele>495</ele>
        <time>2013-04-07T12:12:56.000Z</time>
      </trkpt>
      <trkpt lat="48.65999" lon="7.22164">
        <ele>498</ele>
        <time>2013-04-07T12:12:59.000Z</time>
      </trkpt>
      <trkpt lat="48.66006" lon="7.22157">
        <ele>498</ele>
        <time>2013-04-07T12:13:03.000Z</time>
      </trkpt>
      <trkpt lat="48.65998" lon="7.2216">
        <ele>500</ele>
        <time>2013-04-07T12:13:05.000Z</time>
      </trkpt>
      <trkpt lat="48.66013" lon="7.22148">
        <ele>500</ele>
        <time>2013-04-07T12:13:09.000Z</time>
      </trkpt>
      <trkpt lat="48.66015" lon="7.22151">
        <ele>500</ele>
        <time>2013-04-07T12:13:11.000Z</time>
      </trkpt>
      <trkpt lat="48.66018" lon="7.22143">
        <ele>501</ele>
        <time>2013-04-07T12:13:13.000Z</time>
      </trkpt>
      <trkpt lat="48.66023" lon="7.22141">
        <ele>501</ele>
        <time>2013-04-07T12:13:17.000Z</time>
      </trkpt>
      <trkpt lat="48.66029" lon="7.22134">
        <ele>501</ele>
        <time>2013-04-07T12:13:21.000Z</time>
      </trkpt>
      <trkpt lat="48.66037" lon="7.22131">
        <ele>501</ele>
        <time>2013-04-07T12:13:25.000Z</time>
      </trkpt>
      <trkpt lat="48.66044" lon="7.22128">
        <ele>501</ele>
        <time>2013-04-07T12:13:28.000Z</time>
      </trkpt>
      <trkpt lat="48.66055" lon="7.22122">
        <ele>502</ele>
        <time>2013-04-07T12:13:31.000Z</time>
      </trkpt>
      <trkpt lat="48.66062" lon="7.22121">
        <ele>502</ele>
        <time>2013-04-07T12:13:33.000Z</time>
      </trkpt>
      <trkpt lat="48.66075" lon="7.22111">
        <ele>503</ele>
        <time>2013-04-07T12:13:36.000Z</time>
      </trkpt>
      <trkpt lat="48.66092" lon="7.22099">
        <ele>498</ele>
        <time>2013-04-07T12:13:38.000Z</time>
      </trkpt>
      <trkpt lat="48.66103" lon="7.22087">
        <ele>497</ele>
        <time>2013-04-07T12:13:41.000Z</time>
      </trkpt>
      <trkpt lat="48.66113" lon="7.22073">
        <ele>503</ele>
        <time>2013-04-07T12:13:43.000Z</time>
      </trkpt>
      <trkpt lat="48.66107" lon="7.22075">
        <ele>504</ele>
        <time>2013-04-07T12:13:45.000Z</time>
      </trkpt>
      <trkpt lat="48.66113" lon="7.22059">
        <ele>504</ele>
        <time>2013-04-07T12:13:48.000Z</time>
      </trkpt>
      <trkpt lat="48.66126" lon="7.22046">
        <ele>502</ele>
        <time>2013-04-07T12:13:51.000Z</time>
      </trkpt>
      <trkpt lat="48.66132" lon="7.22025">
        <ele>503</ele>
        <time>2013-04-07T12:13:54.000Z</time>
      </trkpt>
      <trkpt lat="48.66137" lon="7.22005">
        <ele>502</ele>
        <time>2013-04-07T12:13:57.000Z</time>
      </trkpt>
      <trkpt lat="48.66164" lon="7.21926">
        <ele>507</ele>
        <time>2013-04-07T12:14:03.000Z</time>
      </trkpt>
      <trkpt lat="48.66173" lon="7.21911">
        <ele>502</ele>
        <time>2013-04-07T12:14:05.000Z</time>
      </trkpt>
      <trkpt lat="48.66159" lon="7.21897">
        <ele>511</ele>
        <time>2013-04-07T12:14:08.000Z</time>
      </trkpt>
      <trkpt lat="48.66192" lon="7.21879">
        <ele>497</ele>
        <time>2013-04-07T12:14:12.000Z</time>
      </trkpt>
      <trkpt lat="48.66191" lon="7.21874">
        <ele>498</ele>
        <time>2013-04-07T12:14:14.000Z</time>
      </trkpt>
      <trkpt lat="48.66204" lon="7.21871">
        <ele>496</ele>
        <time>2013-04-07T12:14:17.000Z</time>
      </trkpt>
      <trkpt lat="48.6621" lon="7.21866">
        <ele>495</ele>
        <time>2013-04-07T12:14:19.000Z</time>
      </trkpt>
      <trkpt lat="48.66216" lon="7.21864">
        <ele>495</ele>
        <time>2013-04-07T12:14:22.000Z</time>
      </trkpt>
      <trkpt lat="48.66223" lon="7.21853">
        <ele>494</ele>
        <time>2013-04-07T12:14:24.000Z</time>
      </trkpt>
      <trkpt lat="48.66228" lon="7.21846">
        <ele>493</ele>
        <time>2013-04-07T12:14:27.000Z</time>
      </trkpt>
      <trkpt lat="48.66237" lon="7.21833">
        <ele>491</ele>
        <time>2013-04-07T12:14:30.000Z</time>
      </trkpt>
      <trkpt lat="48.66244" lon="7.21831">
        <ele>492</ele>
        <time>2013-04-07T12:14:32.000Z</time>
      </trkpt>
      <trkpt lat="48.66233" lon="7.21821">
        <ele>498</ele>
        <time>2013-04-07T12:14:35.000Z</time>
      </trkpt>
      <trkpt lat="48.66264" lon="7.218">
        <ele>487</ele>
        <time>2013-04-07T12:14:39.000Z</time>
      </trkpt>
      <trkpt lat="48.66275" lon="7.21795">
        <ele>486</ele>
        <time>2013-04-07T12:14:42.000Z</time>
      </trkpt>
      <trkpt lat="48.66277" lon="7.21792">
        <ele>486</ele>
        <time>2013-04-07T12:14:44.000Z</time>
      </trkpt>
      <trkpt lat="48.66289" lon="7.21764">
        <ele>487</ele>
        <time>2013-04-07T12:14:48.000Z</time>
      </trkpt>
      <trkpt lat="48.66298" lon="7.21745">
        <ele>494</ele>
        <time>2013-04-07T12:14:51.000Z</time>
      </trkpt>
      <trkpt lat="48.66305" lon="7.21734">
        <ele>493</ele>
        <time>2013-04-07T12:14:53.000Z</time>
      </trkpt>
      <trkpt lat="48.66315" lon="7.21725">
        <ele>492</ele>
        <time>2013-04-07T12:14:56.000Z</time>
      </trkpt>
      <trkpt lat="48.66319" lon="7.21708">
        <ele>494</ele>
        <time>2013-04-07T12:14:59.000Z</time>
      </trkpt>
      <trkpt lat="48.66318" lon="7.21696">
        <ele>495</ele>
        <time>2013-04-07T12:15:02.000Z</time>
      </trkpt>
      <trkpt lat="48.66329" lon="7.21677">
        <ele>495</ele>
        <time>2013-04-07T12:15:05.000Z</time>
      </trkpt>
      <trkpt lat="48.6633" lon="7.21668">
        <ele>494</ele>
        <time>2013-04-07T12:15:07.000Z</time>
      </trkpt>
      <trkpt lat="48.66332" lon="7.21659">
        <ele>496</ele>
        <time>2013-04-07T12:15:10.000Z</time>
      </trkpt>
      <trkpt lat="48.66335" lon="7.21656">
        <ele>491</ele>
        <time>2013-04-07T12:15:12.000Z</time>
      </trkpt>
      <trkpt lat="48.66336" lon="7.21644">
        <ele>490</ele>
        <time>2013-04-07T12:15:16.000Z</time>
      </trkpt>
      <trkpt lat="48.66338" lon="7.21636">
        <ele>490</ele>
        <time>2013-04-07T12:15:18.000Z</time>
      </trkpt>
      <trkpt lat="48.66339" lon="7.21633">
        <ele>490</ele>
        <time>2013-04-07T12:15:20.000Z</time>
      </trkpt>
      <trkpt lat="48.6633" lon="7.21632">
        <ele>501</ele>
        <time>2013-04-07T12:15:23.000Z</time>
      </trkpt>
      <trkpt lat="48.66342" lon="7.21609">
        <ele>492</ele>
        <time>2013-04-07T12:15:27.000Z</time>
      </trkpt>
      <trkpt lat="48.66343" lon="7.21602">
        <ele>493</ele>
        <time>2013-04-07T12:15:30.000Z</time>
      </trkpt>
      <trkpt lat="48.66346" lon="7.21591">
        <ele>495</ele>
        <time>2013-04-07T12:15:33.000Z</time>
      </trkpt>
      <trkpt lat="48.66348" lon="7.21584">
        <ele>495</ele>
        <time>2013-04-07T12:15:36.000Z</time>
      </trkpt>
      <trkpt lat="48.6635" lon="7.21575">
        <ele>499</ele>
        <time>2013-04-07T12:15:38.000Z</time>
      </trkpt>
      <trkpt lat="48.66351" lon="7.2157">
        <ele>499</ele>
        <time>2013-04-07T12:15:40.000Z</time>
      </trkpt>
      <trkpt lat="48.66354" lon="7.21561">
        <ele>498</ele>
        <time>2013-04-07T12:15:43.000Z</time>
      </trkpt>
      <trkpt lat="48.66358" lon="7.21559">
        <ele>498</ele>
        <time>2013-04-07T12:15:46.000Z</time>
      </trkpt>
      <trkpt lat="48.66361" lon="7.21549">
        <ele>497</ele>
        <time>2013-04-07T12:15:49.000Z</time>
      </trkpt>
      <trkpt lat="48.66364" lon="7.21541">
        <ele>498</ele>
        <time>2013-04-07T12:15:51.000Z</time>
      </trkpt>
      <trkpt lat="48.66339" lon="7.21537">
        <ele>500</ele>
        <time>2013-04-07T12:15:55.000Z</time>
      </trkpt>
      <trkpt lat="48.66368" lon="7.21528">
        <ele>498</ele>
        <time>2013-04-07T12:15:59.000Z</time>
      </trkpt>
      <trkpt lat="48.66368" lon="7.21532">
        <ele>498</ele>
        <time>2013-04-07T12:16:02.000Z</time>
      </trkpt>
      <trkpt lat="48.66371" lon="7.21524">
        <ele>498</ele>
        <time>2013-04-07T12:16:04.000Z</time>
      </trkpt>
      <trkpt lat="48.6637" lon="7.21528">
        <ele>498</ele>
        <time>2013-04-07T12:16:06.000Z</time>
      </trkpt>
      <trkpt lat="48.66373" lon="7.21524">
        <ele>497</ele>
        <time>2013-04-07T12:16:10.000Z</time>
      </trkpt>
      <trkpt lat="48.66376" lon="7.21513">
        <ele>498</ele>
        <time>2013-04-07T12:16:14.000Z</time>
      </trkpt>
      <trkpt lat="48.66372" lon="7.21517">
        <ele>498</ele>
        <time>2013-04-07T12:16:18.000Z</time>
      </trkpt>
      <trkpt lat="48.66379" lon="7.21503">
        <ele>498</ele>
        <time>2013-04-07T12:16:22.000Z</time>
      </trkpt>
      <trkpt lat="48.6638" lon="7.21506">
        <ele>497</ele>
        <time>2013-04-07T12:16:24.000Z</time>
      </trkpt>
      <trkpt lat="48.66381" lon="7.21499">
        <ele>504</ele>
        <time>2013-04-07T12:16:26.000Z</time>
      </trkpt>
      <trkpt lat="48.66384" lon="7.21497">
        <ele>504</ele>
        <time>2013-04-07T12:16:30.000Z</time>
      </trkpt>
      <trkpt lat="48.6638" lon="7.21488">
        <ele>505</ele>
        <time>2013-04-07T12:16:34.000Z</time>
      </trkpt>
      <trkpt lat="48.66387" lon="7.2149">
        <ele>504</ele>
        <time>2013-04-07T12:16:39.000Z</time>
      </trkpt>
      <trkpt lat="48.66391" lon="7.21474">
        <ele>505</ele>
        <time>2013-04-07T12:16:44.000Z</time>
      </trkpt>
      <trkpt lat="48.66391" lon="7.21473">
        <ele>505</ele>
        <time>2013-04-07T12:16:55.000Z</time>
      </trkpt>
      <trkpt lat="48.66372" lon="7.21466">
        <ele>507</ele>
        <time>2013-04-07T12:17:03.000Z</time>
      </trkpt>
      <trkpt lat="48.66395" lon="7.21465">
        <ele>506</ele>
        <time>2013-04-07T12:17:10.000Z</time>
      </trkpt>
      <trkpt lat="48.66386" lon="7.21466">
        <ele>506</ele>
        <time>2013-04-07T12:17:24.000Z</time>
      </trkpt>
      <trkpt lat="48.66396" lon="7.21459">
        <ele>506</ele>
        <time>2013-04-07T12:17:29.000Z</time>
      </trkpt>
      <trkpt lat="48.66396" lon="7.21458">
        <ele>506</ele>
        <time>2013-04-07T12:17:48.000Z</time>
      </trkpt>
      <trkpt lat="48.66396" lon="7.21458">
        <ele>506</ele>
        <time>2013-04-07T12:18:08.000Z</time>
      </trkpt>
      <trkpt lat="48.66397" lon="7.21458">
        <ele>506</ele>
        <time>2013-04-07T12:18:13.000Z</time>
      </trkpt>
      <trkpt lat="48.66398" lon="7.21458">
        <ele>506</ele>
        <time>2013-04-07T12:18:19.000Z</time>
      </trkpt>
      <trkpt lat="48.66399" lon="7.21458">
        <ele>506</ele>
        <time>2013-04-07T12:18:27.000Z</time>
      </trkpt>
      <trkpt lat="48.66399" lon="7.21458">
        <ele>506</ele>
        <time>2013-04-07T12:18:47.000Z</time>
      </trkpt>
      <trkpt lat="48.66401" lon="7.21458">
        <ele>506</ele>
        <time>2013-04-07T12:19:49.000Z</time>
      </trkpt>
      <trkpt lat="48.66401" lon="7.21458">
        <ele>506</ele>
        <time>2013-04-07T12:20:09.000Z</time>
      </trkpt>
      <trkpt lat="48.66402" lon="7.21459">
        <ele>506</ele>
        <time>2013-04-07T12:20:13.000Z</time>
      </trkpt>
      <trkpt lat="48.66402" lon="7.21459">
        <ele>506</ele>
        <time>2013-04-07T12:20:33.000Z</time>
      </trkpt>
      <trkpt lat="48.66415" lon="7.21459">
        <ele>505</ele>
        <time>2013-04-07T12:20:33.000Z</time>
      </trkpt>
      <trkpt lat="48.66415" lon="7.21459">
        <ele>505</ele>
        <time>2013-04-07T12:20:53.000Z</time>
      </trkpt>
      <trkpt lat="48.66405" lon="7.21462">
        <ele>505</ele>
        <time>2013-04-07T12:21:00.000Z</time>
      </trkpt>
      <trkpt lat="48.66405" lon="7.21459">
        <ele>506</ele>
        <time>2013-04-07T12:21:04.000Z</time>
      </trkpt>
      <trkpt lat="48.66405" lon="7.21459">
        <ele>506</ele>
        <time>2013-04-07T12:21:24.000Z</time>
      </trkpt>
      <trkpt lat="48.66406" lon="7.21448">
        <ele>507</ele>
        <time>2013-04-07T12:21:44.000Z</time>
      </trkpt>
      <trkpt lat="48.66406" lon="7.21448">
        <ele>507</ele>
        <time>2013-04-07T12:22:04.000Z</time>
      </trkpt>
      <trkpt lat="48.66407" lon="7.21451">
        <ele>507</ele>
        <time>2013-04-07T12:22:15.000Z</time>
      </trkpt>
      <trkpt lat="48.66399" lon="7.21451">
        <ele>507</ele>
        <time>2013-04-07T12:22:23.000Z</time>
      </trkpt>
      <trkpt lat="48.66409" lon="7.21452">
        <ele>506</ele>
        <time>2013-04-07T12:22:29.000Z</time>
      </trkpt>
      <trkpt lat="48.66409" lon="7.21452">
        <ele>506</ele>
        <time>2013-04-07T12:22:49.000Z</time>
      </trkpt>
      <trkpt lat="48.6641" lon="7.21447">
        <ele>507</ele>
        <time>2013-04-07T12:22:51.000Z</time>
      </trkpt>
      <trkpt lat="48.66412" lon="7.21442">
        <ele>507</ele>
        <time>2013-04-07T12:22:55.000Z</time>
      </trkpt>
      <trkpt lat="48.66412" lon="7.21442">
        <ele>507</ele>
        <time>2013-04-07T12:23:15.000Z</time>
      </trkpt>
      <trkpt lat="48.66412" lon="7.21448">
        <ele>507</ele>
        <time>2013-04-07T12:23:23.000Z</time>
      </trkpt>
      <trkpt lat="48.66416" lon="7.21442">
        <ele>507</ele>
        <time>2013-04-07T12:23:30.000Z</time>
      </trkpt>
      <trkpt lat="48.66413" lon="7.21447">
        <ele>507</ele>
        <time>2013-04-07T12:23:42.000Z</time>
      </trkpt>
      <trkpt lat="48.66416" lon="7.21449">
        <ele>507</ele>
        <time>2013-04-07T12:23:53.000Z</time>
      </trkpt>
      <trkpt lat="48.66422" lon="7.21425">
        <ele>503</ele>
        <time>2013-04-07T12:23:57.000Z</time>
      </trkpt>
      <trkpt lat="48.66482" lon="7.2135">
        <ele>503</ele>
        <time>2013-04-07T12:24:04.000Z</time>
      </trkpt>
      <trkpt lat="48.66504" lon="7.21329">
        <ele>501</ele>
        <time>2013-04-07T12:24:07.000Z</time>
      </trkpt>
      <trkpt lat="48.66519" lon="7.21319">
        <ele>500</ele>
        <time>2013-04-07T12:24:10.000Z</time>
      </trkpt>
      <trkpt lat="48.6653" lon="7.21307">
        <ele>500</ele>
        <time>2013-04-07T12:24:12.000Z</time>
      </trkpt>
      <trkpt lat="48.66552" lon="7.21297">
        <ele>498</ele>
        <time>2013-04-07T12:24:15.000Z</time>
      </trkpt>
      <trkpt lat="48.66544" lon="7.21293">
        <ele>499</ele>
        <time>2013-04-07T12:24:17.000Z</time>
      </trkpt>
      <trkpt lat="48.66563" lon="7.21295">
        <ele>497</ele>
        <time>2013-04-07T12:24:20.000Z</time>
      </trkpt>
      <trkpt lat="48.66576" lon="7.21297">
        <ele>496</ele>
        <time>2013-04-07T12:24:23.000Z</time>
      </trkpt>
      <trkpt lat="48.66597" lon="7.21299">
        <ele>487</ele>
        <time>2013-04-07T12:24:26.000Z</time>
      </trkpt>
      <trkpt lat="48.66608" lon="7.21289">
        <ele>488</ele>
        <time>2013-04-07T12:24:28.000Z</time>
      </trkpt>
      <trkpt lat="48.66614" lon="7.21296">
        <ele>488</ele>
        <time>2013-04-07T12:24:31.000Z</time>
      </trkpt>
      <trkpt lat="48.66611" lon="7.21284">
        <ele>489</ele>
        <time>2013-04-07T12:24:34.000Z</time>
      </trkpt>
      <trkpt lat="48.66619" lon="7.21282">
        <ele>488</ele>
        <time>2013-04-07T12:24:37.000Z</time>
      </trkpt>
      <trkpt lat="48.66628" lon="7.21271">
        <ele>488</ele>
        <time>2013-04-07T12:24:40.000Z</time>
      </trkpt>
      <trkpt lat="48.66684" lon="7.21225">
        <ele>479</ele>
        <time>2013-04-07T12:24:47.000Z</time>
      </trkpt>
      <trkpt lat="48.66702" lon="7.21186">
        <ele>476</ele>
        <time>2013-04-07T12:24:50.000Z</time>
      </trkpt>
      <trkpt lat="48.66705" lon="7.21162">
        <ele>475</ele>
        <time>2013-04-07T12:24:52.000Z</time>
      </trkpt>
      <trkpt lat="48.66711" lon="7.21139">
        <ele>474</ele>
        <time>2013-04-07T12:24:55.000Z</time>
      </trkpt>
      <trkpt lat="48.66719" lon="7.21112">
        <ele>474</ele>
        <time>2013-04-07T12:24:58.000Z</time>
      </trkpt>
      <trkpt lat="48.66715" lon="7.21058">
        <ele>474</ele>
        <time>2013-04-07T12:25:02.000Z</time>
      </trkpt>
      <trkpt lat="48.66722" lon="7.21021">
        <ele>474</ele>
        <time>2013-04-07T12:25:05.000Z</time>
      </trkpt>
      <trkpt lat="48.66738" lon="7.20994">
        <ele>471</ele>
        <time>2013-04-07T12:25:08.000Z</time>
      </trkpt>
      <trkpt lat="48.66737" lon="7.20964">
        <ele>471</ele>
        <time>2013-04-07T12:25:10.000Z</time>
      </trkpt>
      <trkpt lat="48.66739" lon="7.20938">
        <ele>471</ele>
        <time>2013-04-07T12:25:12.000Z</time>
      </trkpt>
      <trkpt lat="48.66741" lon="7.20913">
        <ele>469</ele>
        <time>2013-04-07T12:25:15.000Z</time>
      </trkpt>
      <trkpt lat="48.6674" lon="7.20904">
        <ele>467</ele>
        <time>2013-04-07T12:25:17.000Z</time>
      </trkpt>
      <trkpt lat="48.66725" lon="7.20886">
        <ele>463</ele>
        <time>2013-04-07T12:25:20.000Z</time>
      </trkpt>
      <trkpt lat="48.66724" lon="7.20896">
        <ele>464</ele>
        <time>2013-04-07T12:25:22.000Z</time>
      </trkpt>
      <trkpt lat="48.66719" lon="7.20904">
        <ele>464</ele>
        <time>2013-04-07T12:25:25.000Z</time>
      </trkpt>
      <trkpt lat="48.66713" lon="7.20922">
        <ele>470</ele>
        <time>2013-04-07T12:25:29.000Z</time>
      </trkpt>
      <trkpt lat="48.6671" lon="7.20918">
        <ele>470</ele>
        <time>2013-04-07T12:25:31.000Z</time>
      </trkpt>
      <trkpt lat="48.66705" lon="7.2092">
        <ele>469</ele>
        <time>2013-04-07T12:25:34.000Z</time>
      </trkpt>
      <trkpt lat="48.66698" lon="7.20919">
        <ele>469</ele>
        <time>2013-04-07T12:25:36.000Z</time>
      </trkpt>
      <trkpt lat="48.66711" lon="7.20912">
        <ele>463</ele>
        <time>2013-04-07T12:25:39.000Z</time>
      </trkpt>
      <trkpt lat="48.66701" lon="7.20895">
        <ele>462</ele>
        <time>2013-04-07T12:25:41.000Z</time>
      </trkpt>
      <trkpt lat="48.66705" lon="7.20884">
        <ele>461</ele>
        <time>2013-04-07T12:25:43.000Z</time>
      </trkpt>
      <trkpt lat="48.66711" lon="7.2085">
        <ele>459</ele>
        <time>2013-04-07T12:25:47.000Z</time>
      </trkpt>
      <trkpt lat="48.66717" lon="7.20837">
        <ele>460</ele>
        <time>2013-04-07T12:25:50.000Z</time>
      </trkpt>
      <trkpt lat="48.66722" lon="7.20823">
        <ele>452</ele>
        <time>2013-04-07T12:25:52.000Z</time>
      </trkpt>
      <trkpt lat="48.66734" lon="7.20801">
        <ele>451</ele>
        <time>2013-04-07T12:25:55.000Z</time>
      </trkpt>
      <trkpt lat="48.66739" lon="7.20789">
        <ele>450</ele>
        <time>2013-04-07T12:25:57.000Z</time>
      </trkpt>
      <trkpt lat="48.66747" lon="7.20756">
        <ele>452</ele>
        <time>2013-04-07T12:26:01.000Z</time>
      </trkpt>
      <trkpt lat="48.66747" lon="7.20729">
        <ele>441</ele>
        <time>2013-04-07T12:26:04.000Z</time>
      </trkpt>
      <trkpt lat="48.66758" lon="7.207">
        <ele>452</ele>
        <time>2013-04-07T12:26:07.000Z</time>
      </trkpt>
      <trkpt lat="48.66759" lon="7.20707">
        <ele>453</ele>
        <time>2013-04-07T12:26:09.000Z</time>
      </trkpt>
      <trkpt lat="48.6676" lon="7.20694">
        <ele>451</ele>
        <time>2013-04-07T12:26:12.000Z</time>
      </trkpt>
      <trkpt lat="48.66761" lon="7.20691">
        <ele>451</ele>
        <time>2013-04-07T12:26:15.000Z</time>
      </trkpt>
      <trkpt lat="48.66763" lon="7.20684">
        <ele>450</ele>
        <time>2013-04-07T12:26:17.000Z</time>
      </trkpt>
      <trkpt lat="48.66751" lon="7.20674">
        <ele>445</ele>
        <time>2013-04-07T12:26:20.000Z</time>
      </trkpt>
      <trkpt lat="48.66777" lon="7.20644">
        <ele>443</ele>
        <time>2013-04-07T12:26:24.000Z</time>
      </trkpt>
      <trkpt lat="48.6678" lon="7.20634">
        <ele>443</ele>
        <time>2013-04-07T12:26:27.000Z</time>
      </trkpt>
      <trkpt lat="48.6678" lon="7.20624">
        <ele>442</ele>
        <time>2013-04-07T12:26:30.000Z</time>
      </trkpt>
      <trkpt lat="48.66777" lon="7.20619">
        <ele>441</ele>
        <time>2013-04-07T12:26:34.000Z</time>
      </trkpt>
      <trkpt lat="48.66775" lon="7.20608">
        <ele>439</ele>
        <time>2013-04-07T12:26:36.000Z</time>
      </trkpt>
      <trkpt lat="48.66783" lon="7.20599">
        <ele>440</ele>
        <time>2013-04-07T12:26:39.000Z</time>
      </trkpt>
      <trkpt lat="48.66789" lon="7.20584">
        <ele>440</ele>
        <time>2013-04-07T12:26:42.000Z</time>
      </trkpt>
      <trkpt lat="48.66799" lon="7.20555">
        <ele>431</ele>
        <time>2013-04-07T12:26:45.000Z</time>
      </trkpt>
      <trkpt lat="48.66813" lon="7.20537">
        <ele>432</ele>
        <time>2013-04-07T12:26:48.000Z</time>
      </trkpt>
      <trkpt lat="48.66825" lon="7.20506">
        <ele>433</ele>
        <time>2013-04-07T12:26:51.000Z</time>
      </trkpt>
      <trkpt lat="48.66829" lon="7.20483">
        <ele>424</ele>
        <time>2013-04-07T12:26:54.000Z</time>
      </trkpt>
      <trkpt lat="48.66828" lon="7.20472">
        <ele>419</ele>
        <time>2013-04-07T12:26:56.000Z</time>
      </trkpt>
      <trkpt lat="48.66838" lon="7.20432">
        <ele>424</ele>
        <time>2013-04-07T12:27:00.000Z</time>
      </trkpt>
      <trkpt lat="48.66875" lon="7.20362">
        <ele>415</ele>
        <time>2013-04-07T12:27:05.000Z</time>
      </trkpt>
      <trkpt lat="48.66882" lon="7.20331">
        <ele>403</ele>
        <time>2013-04-07T12:27:08.000Z</time>
      </trkpt>
      <trkpt lat="48.66961" lon="7.20316">
        <ele>408</ele>
        <time>2013-04-07T12:27:14.000Z</time>
      </trkpt>
      <trkpt lat="48.66998" lon="7.20319">
        <ele>411</ele>
        <time>2013-04-07T12:27:17.000Z</time>
      </trkpt>
      <trkpt lat="48.67025" lon="7.20313">
        <ele>411</ele>
        <time>2013-04-07T12:27:20.000Z</time>
      </trkpt>
      <trkpt lat="48.67012" lon="7.20313">
        <ele>411</ele>
        <time>2013-04-07T12:27:23.000Z</time>
      </trkpt>
      <trkpt lat="48.67039" lon="7.20301">
        <ele>410</ele>
        <time>2013-04-07T12:27:27.000Z</time>
      </trkpt>
      <trkpt lat="48.67042" lon="7.20293">
        <ele>409</ele>
        <time>2013-04-07T12:27:29.000Z</time>
      </trkpt>
      <trkpt lat="48.67048" lon="7.20284">
        <ele>409</ele>
        <time>2013-04-07T12:27:32.000Z</time>
      </trkpt>
      <trkpt lat="48.67052" lon="7.20279">
        <ele>409</ele>
        <time>2013-04-07T12:27:34.000Z</time>
      </trkpt>
      <trkpt lat="48.67056" lon="7.20273">
        <ele>408</ele>
        <time>2013-04-07T12:27:36.000Z</time>
      </trkpt>
      <trkpt lat="48.6706" lon="7.20267">
        <ele>408</ele>
        <time>2013-04-07T12:27:38.000Z</time>
      </trkpt>
      <trkpt lat="48.67071" lon="7.20258">
        <ele>408</ele>
        <time>2013-04-07T12:27:41.000Z</time>
      </trkpt>
      <trkpt lat="48.67074" lon="7.20261">
        <ele>408</ele>
        <time>2013-04-07T12:27:43.000Z</time>
      </trkpt>
      <trkpt lat="48.67078" lon="7.20256">
        <ele>408</ele>
        <time>2013-04-07T12:27:46.000Z</time>
      </trkpt>
      <trkpt lat="48.6708" lon="7.20253">
        <ele>407</ele>
        <time>2013-04-07T12:27:48.000Z</time>
      </trkpt>
      <trkpt lat="48.67085" lon="7.20251">
        <ele>407</ele>
        <time>2013-04-07T12:27:50.000Z</time>
      </trkpt>
      <trkpt lat="48.67093" lon="7.20241">
        <ele>402</ele>
        <time>2013-04-07T12:27:53.000Z</time>
      </trkpt>
      <trkpt lat="48.67086" lon="7.2024">
        <ele>403</ele>
        <time>2013-04-07T12:27:55.000Z</time>
      </trkpt>
      <trkpt lat="48.67095" lon="7.20233">
        <ele>400</ele>
        <time>2013-04-07T12:27:57.000Z</time>
      </trkpt>
      <trkpt lat="48.67112" lon="7.20218">
        <ele>396</ele>
        <time>2013-04-07T12:28:00.000Z</time>
      </trkpt>
      <trkpt lat="48.67128" lon="7.20212">
        <ele>395</ele>
        <time>2013-04-07T12:28:03.000Z</time>
      </trkpt>
      <trkpt lat="48.67136" lon="7.20203">
        <ele>394</ele>
        <time>2013-04-07T12:28:06.000Z</time>
      </trkpt>
      <trkpt lat="48.67142" lon="7.20196">
        <ele>393</ele>
        <time>2013-04-07T12:28:08.000Z</time>
      </trkpt>
      <trkpt lat="48.6715" lon="7.20204">
        <ele>394</ele>
        <time>2013-04-07T12:28:10.000Z</time>
      </trkpt>
      <trkpt lat="48.67166" lon="7.20198">
        <ele>393</ele>
        <time>2013-04-07T12:28:13.000Z</time>
      </trkpt>
      <trkpt lat="48.6717" lon="7.20196">
        <ele>384</ele>
        <time>2013-04-07T12:28:15.000Z</time>
      </trkpt>
      <trkpt lat="48.67168" lon="7.2018">
        <ele>384</ele>
        <time>2013-04-07T12:28:18.000Z</time>
      </trkpt>
      <trkpt lat="48.67159" lon="7.20162">
        <ele>382</ele>
        <time>2013-04-07T12:28:21.000Z</time>
      </trkpt>
      <trkpt lat="48.67167" lon="7.20153">
        <ele>378</ele>
        <time>2013-04-07T12:28:24.000Z</time>
      </trkpt>
      <trkpt lat="48.67181" lon="7.20141">
        <ele>372</ele>
        <time>2013-04-07T12:28:27.000Z</time>
      </trkpt>
      <trkpt lat="48.67192" lon="7.20141">
        <ele>371</ele>
        <time>2013-04-07T12:28:30.000Z</time>
      </trkpt>
      <trkpt lat="48.67284" lon="7.20171">
        <ele>354</ele>
        <time>2013-04-07T12:28:38.000Z</time>
      </trkpt>
      <trkpt lat="48.67296" lon="7.202">
        <ele>352</ele>
        <time>2013-04-07T12:28:41.000Z</time>
      </trkpt>
      <trkpt lat="48.67294" lon="7.20223">
        <ele>352</ele>
        <time>2013-04-07T12:28:43.000Z</time>
      </trkpt>
      <trkpt lat="48.67289" lon="7.20249">
        <ele>353</ele>
        <time>2013-04-07T12:28:46.000Z</time>
      </trkpt>
      <trkpt lat="48.67284" lon="7.20276">
        <ele>352</ele>
        <time>2013-04-07T12:28:48.000Z</time>
      </trkpt>
      <trkpt lat="48.67277" lon="7.20313">
        <ele>353</ele>
        <time>2013-04-07T12:28:51.000Z</time>
      </trkpt>
      <trkpt lat="48.67275" lon="7.20329">
        <ele>354</ele>
        <time>2013-04-07T12:28:55.000Z</time>
      </trkpt>
      <trkpt lat="48.67278" lon="7.20323">
        <ele>353</ele>
        <time>2013-04-07T12:28:58.000Z</time>
      </trkpt>
      <trkpt lat="48.67317" lon="7.2025">
        <ele>344</ele>
        <time>2013-04-07T12:29:05.000Z</time>
      </trkpt>
      <trkpt lat="48.67335" lon="7.20214">
        <ele>329</ele>
        <time>2013-04-07T12:29:08.000Z</time>
      </trkpt>
      <trkpt lat="48.6734" lon="7.2019">
        <ele>331</ele>
        <time>2013-04-07T12:29:10.000Z</time>
      </trkpt>
      <trkpt lat="48.67342" lon="7.20166">
        <ele>333</ele>
        <time>2013-04-07T12:29:12.000Z</time>
      </trkpt>
      <trkpt lat="48.67337" lon="7.20143">
        <ele>328</ele>
        <time>2013-04-07T12:29:14.000Z</time>
      </trkpt>
      <trkpt lat="48.67318" lon="7.20112">
        <ele>341</ele>
        <time>2013-04-07T12:29:17.000Z</time>
      </trkpt>
      <trkpt lat="48.67311" lon="7.20096">
        <ele>340</ele>
        <time>2013-04-07T12:29:19.000Z</time>
      </trkpt>
      <trkpt lat="48.67302" lon="7.20075">
        <ele>332</ele>
        <time>2013-04-07T12:29:21.000Z</time>
      </trkpt>
      <trkpt lat="48.67281" lon="7.20044">
        <ele>333</ele>
        <time>2013-04-07T12:29:24.000Z</time>
      </trkpt>
      <trkpt lat="48.6727" lon="7.20026">
        <ele>332</ele>
        <time>2013-04-07T12:29:26.000Z</time>
      </trkpt>
      <trkpt lat="48.67254" lon="7.20011">
        <ele>333</ele>
        <time>2013-04-07T12:29:28.000Z</time>
      </trkpt>
      <trkpt lat="48.67255" lon="7.20006">
        <ele>333</ele>
        <time>2013-04-07T12:29:31.000Z</time>
      </trkpt>
      <trkpt lat="48.67247" lon="7.19999">
        <ele>332</ele>
        <time>2013-04-07T12:29:36.000Z</time>
      </trkpt>
      <trkpt lat="48.67241" lon="7.1998">
        <ele>329</ele>
        <time>2013-04-07T12:29:39.000Z</time>
      </trkpt>
      <trkpt lat="48.67245" lon="7.19975">
        <ele>328</ele>
        <time>2013-04-07T12:29:41.000Z</time>
      </trkpt>
      <trkpt lat="48.67252" lon="7.19972">
        <ele>319</ele>
        <time>2013-04-07T12:29:43.000Z</time>
      </trkpt>
      <trkpt lat="48.67244" lon="7.19952">
        <ele>324</ele>
        <time>2013-04-07T12:29:46.000Z</time>
      </trkpt>
      <trkpt lat="48.67237" lon="7.1995">
        <ele>324</ele>
        <time>2013-04-07T12:29:49.000Z</time>
      </trkpt>
      <trkpt lat="48.67237" lon="7.19941">
        <ele>322</ele>
        <time>2013-04-07T12:29:51.000Z</time>
      </trkpt>
      <trkpt lat="48.6723" lon="7.19918">
        <ele>320</ele>
        <time>2013-04-07T12:29:55.000Z</time>
      </trkpt>
      <trkpt lat="48.67232" lon="7.19887">
        <ele>311</ele>
        <time>2013-04-07T12:29:58.000Z</time>
      </trkpt>
      <trkpt lat="48.67239" lon="7.19861">
        <ele>307</ele>
        <time>2013-04-07T12:30:01.000Z</time>
      </trkpt>
      <trkpt lat="48.67243" lon="7.19848">
        <ele>305</ele>
        <time>2013-04-07T12:30:03.000Z</time>
      </trkpt>
      <trkpt lat="48.67253" lon="7.19833">
        <ele>298</ele>
        <time>2013-04-07T12:30:06.000Z</time>
      </trkpt>
      <trkpt lat="48.6726" lon="7.19821">
        <ele>293</ele>
        <time>2013-04-07T12:30:08.000Z</time>
      </trkpt>
      <trkpt lat="48.6727" lon="7.19808">
        <ele>290</ele>
        <time>2013-04-07T12:30:10.000Z</time>
      </trkpt>
      <trkpt lat="48.67257" lon="7.19802">
        <ele>290</ele>
        <time>2013-04-07T12:30:13.000Z</time>
      </trkpt>
      <trkpt lat="48.67293" lon="7.19797">
        <ele>288</ele>
        <time>2013-04-07T12:30:17.000Z</time>
      </trkpt>
      <trkpt lat="48.67302" lon="7.19773">
        <ele>286</ele>
        <time>2013-04-07T12:30:20.000Z</time>
      </trkpt>
      <trkpt lat="48.67293" lon="7.19758">
        <ele>285</ele>
        <time>2013-04-07T12:30:22.000Z</time>
      </trkpt>
      <trkpt lat="48.67314" lon="7.19747">
        <ele>276</ele>
        <time>2013-04-07T12:30:25.000Z</time>
      </trkpt>
      <trkpt lat="48.67344" lon="7.19749">
        <ele>276</ele>
        <time>2013-04-07T12:30:28.000Z</time>
      </trkpt>
      <trkpt lat="48.67375" lon="7.19754">
        <ele>279</ele>
        <time>2013-04-07T12:30:31.000Z</time>
      </trkpt>
      <trkpt lat="48.67397" lon="7.19767">
        <ele>277</ele>
        <time>2013-04-07T12:30:34.000Z</time>
      </trkpt>
      <trkpt lat="48.67413" lon="7.19779">
        <ele>278</ele>
        <time>2013-04-07T12:30:36.000Z</time>
      </trkpt>
      <trkpt lat="48.67429" lon="7.19788">
        <ele>271</ele>
        <time>2013-04-07T12:30:39.000Z</time>
      </trkpt>
      <trkpt lat="48.67439" lon="7.19787">
        <ele>270</ele>
        <time>2013-04-07T12:30:41.000Z</time>
      </trkpt>
      <trkpt lat="48.67444" lon="7.19794">
        <ele>271</ele>
        <time>2013-04-07T12:30:43.000Z</time>
      </trkpt>
      <trkpt lat="48.67453" lon="7.19789">
        <ele>269</ele>
        <time>2013-04-07T12:30:46.000Z</time>
      </trkpt>
      <trkpt lat="48.67455" lon="7.19782">
        <ele>269</ele>
        <time>2013-04-07T12:30:48.000Z</time>
      </trkpt>
      <trkpt lat="48.67439" lon="7.19751">
        <ele>269</ele>
        <time>2013-04-07T12:30:52.000Z</time>
      </trkpt>
      <trkpt lat="48.67439" lon="7.19725">
        <ele>261</ele>
        <time>2013-04-07T12:30:54.000Z</time>
      </trkpt>
      <trkpt lat="48.67438" lon="7.19699">
        <ele>259</ele>
        <time>2013-04-07T12:30:56.000Z</time>
      </trkpt>
      <trkpt lat="48.67444" lon="7.19689">
        <ele>258</ele>
        <time>2013-04-07T12:30:58.000Z</time>
      </trkpt>
      <trkpt lat="48.67447" lon="7.19678">
        <ele>258</ele>
        <time>2013-04-07T12:31:02.000Z</time>
      </trkpt>
      <trkpt lat="48.67449" lon="7.19672">
        <ele>258</ele>
        <time>2013-04-07T12:31:05.000Z</time>
      </trkpt>
      <trkpt lat="48.67439" lon="7.19671">
        <ele>258</ele>
        <time>2013-04-07T12:31:08.000Z</time>
      </trkpt>
      <trkpt lat="48.67452" lon="7.19662">
        <ele>256</ele>
        <time>2013-04-07T12:31:13.000Z</time>
      </trkpt>
      <trkpt lat="48.67452" lon="7.19664">
        <ele>256</ele>
        <time>2013-04-07T12:31:16.000Z</time>
      </trkpt>
      <trkpt lat="48.67454" lon="7.19655">
        <ele>256</ele>
        <time>2013-04-07T12:31:26.000Z</time>
      </trkpt>
      <trkpt lat="48.67456" lon="7.1965">
        <ele>256</ele>
        <time>2013-04-07T12:31:44.000Z</time>
      </trkpt>
      <trkpt lat="48.67455" lon="7.19652">
        <ele>256</ele>
        <time>2013-04-07T12:31:49.000Z</time>
      </trkpt>
      <trkpt lat="48.67456" lon="7.19646">
        <ele>256</ele>
        <time>2013-04-07T12:31:53.000Z</time>
      </trkpt>
      <trkpt lat="48.67455" lon="7.19642">
        <ele>256</ele>
        <time>2013-04-07T12:31:59.000Z</time>
      </trkpt>
      <trkpt lat="48.67456" lon="7.19637">
        <ele>256</ele>
        <time>2013-04-07T12:32:10.000Z</time>
      </trkpt>
      <trkpt lat="48.67455" lon="7.19637">
        <ele>256</ele>
        <time>2013-04-07T12:32:24.000Z</time>
      </trkpt>
      <trkpt lat="48.67464" lon="7.19639">
        <ele>256</ele>
        <time>2013-04-07T12:32:36.000Z</time>
      </trkpt>
      <trkpt lat="48.67464" lon="7.19639">
        <ele>256</ele>
        <time>2013-04-07T12:32:56.000Z</time>
      </trkpt>
    </trkseg>
  </trk>
  <trk>
    <name><![CDATA[secteur Saverne - Dabo - Petite Pierre_50]]></name>
    <trkseg>
      <trkpt lat="48.93463" lon="7.8839">
        <ele>149.1</ele>
      </trkpt>
      <trkpt lat="48.93463" lon="7.8839">
        <ele>149.1</ele>
      </trkpt>
      <trkpt lat="48.93463" lon="7.8839">
        <ele>149.1</ele>
        <extensions>
          <visugpx:TrkExtension xmlns:visugpx="https://www.visugpx.com/editgpx/">
            <visugpx:node>434</visugpx:node>
            </visugpx:TrkExtension>
        </extensions>
      </trkpt>
      <trkpt lat="48.93465" lon="7.88387">
        <ele>149.1</ele>
      </trkpt>
      <trkpt lat="48.93466" lon="7.88378">
        <ele>149</ele>
      </trkpt>
      <trkpt lat="48.9347" lon="7.88379">
        <ele>149</ele>
      </trkpt>
      <trkpt lat="48.93475" lon="7.8838">
        <ele>148.8</ele>
      </trkpt>
      <trkpt lat="48.9348" lon="7.88382">
        <ele>148.7</ele>
      </trkpt>
      <trkpt lat="48.93505" lon="7.88398">
        <ele>147.3</ele>
      </trkpt>
      <trkpt lat="48.93515" lon="7.88404">
        <ele>147.3</ele>
      </trkpt>
      <trkpt lat="48.93528" lon="7.88409">
        <ele>147.2</ele>
      </trkpt>
      <trkpt lat="48.93548" lon="7.88411">
        <ele>147</ele>
      </trkpt>
      <trkpt lat="48.93564" lon="7.88412">
        <ele>146.9</ele>
      </trkpt>
      <trkpt lat="48.93591" lon="7.88414">
        <ele>147.2</ele>
      </trkpt>
      <trkpt lat="48.93606" lon="7.88415">
        <ele>147.5</ele>
      </trkpt>
      <trkpt lat="48.93616" lon="7.88416">
        <ele>147.7</ele>
      </trkpt>
      <trkpt lat="48.93662" lon="7.88418">
        <ele>148.9</ele>
      </trkpt>
      <trkpt lat="48.93701" lon="7.8842">
        <ele>151.2</ele>
      </trkpt>
      <trkpt lat="48.93724" lon="7.88425">
        <ele>152.1</ele>
      </trkpt>
      <trkpt lat="48.93739" lon="7.8843">
        <ele>152.7</ele>
      </trkpt>
      <trkpt lat="48.93744" lon="7.88432">
        <ele>152.8</ele>
      </trkpt>
      <trkpt lat="48.93803" lon="7.88443">
        <ele>150.9</ele>
      </trkpt>
      <trkpt lat="48.93807" lon="7.88444">
        <ele>150.8</ele>
        <extensions>
          <visugpx:TrkExtension xmlns:visugpx="https://www.visugpx.com/editgpx/">
            <visugpx:node>1</visugpx:node>
            </visugpx:TrkExtension>
        </extensions>
      </trkpt>
      <trkpt lat="48.93821" lon="7.88445">
        <ele>150.5</ele>
      </trkpt>
      <trkpt lat="48.93828" lon="7.88445">
        <ele>150.4</ele>
      </trkpt>
      <trkpt lat="48.93831" lon="7.88418">
        <ele>150.1</ele>
      </trkpt>
      <trkpt lat="48.93886" lon="7.88427">
        <ele>149</ele>
      </trkpt>
      <trkpt lat="48.93891" lon="7.88428">
        <ele>149</ele>
      </trkpt>
      <trkpt lat="48.93895" lon="7.88425">
        <ele>148.9</ele>
      </trkpt>
      <trkpt lat="48.93931" lon="7.88293">
        <ele>148</ele>
      </trkpt>
      <trkpt lat="48.93934" lon="7.8828">
        <ele>148</ele>
      </trkpt>
      <trkpt lat="48.93936" lon="7.88281">
        <ele>148</ele>
      </trkpt>
      <trkpt lat="48.93941" lon="7.88283">
        <ele>148</ele>
      </trkpt>
      <trkpt lat="48.93944" lon="7.88285">
        <ele>148</ele>
      </trkpt>
      <trkpt lat="48.93969" lon="7.88187">
        <ele>148.3</ele>
      </trkpt>
      <trkpt lat="48.93975" lon="7.8817">
        <ele>148.2</ele>
      </trkpt>
      <trkpt lat="48.93984" lon="7.88156">
        <ele>148.4</ele>
      </trkpt>
      <trkpt lat="48.93996" lon="7.88143">
        <ele>148.4</ele>
      </trkpt>
      <trkpt lat="48.93998" lon="7.88142">
        <ele>148.4</ele>
      </trkpt>
      <trkpt lat="48.94017" lon="7.88128">
        <ele>148</ele>
      </trkpt>
      <trkpt lat="48.94043" lon="7.88113">
        <ele>147.9</ele>
      </trkpt>
      <trkpt lat="48.94072" lon="7.88098">
        <ele>147.1</ele>
      </trkpt>
      <trkpt lat="48.94164" lon="7.88067">
        <ele>147.7</ele>
      </trkpt>
      <trkpt lat="48.94175" lon="7.88065">
        <ele>148.4</ele>
      </trkpt>
      <trkpt lat="48.94254" lon="7.88069">
        <ele>150.1</ele>
      </trkpt>
      <trkpt lat="48.94282" lon="7.88067">
        <ele>150.4</ele>
      </trkpt>
      <trkpt lat="48.94305" lon="7.8806">
        <ele>150.9</ele>
      </trkpt>
      <trkpt lat="48.94325" lon="7.88048">
        <ele>151.2</ele>
      </trkpt>
      <trkpt lat="48.94336" lon="7.88035">
        <ele>153.7</ele>
      </trkpt>
      <trkpt lat="48.94375" lon="7.87993">
        <ele>155.7</ele>
        <extensions>
          <visugpx:TrkExtension xmlns:visugpx="https://www.visugpx.com/editgpx/">
            <visugpx:node>2</visugpx:node>
            </visugpx:TrkExtension>
        </extensions>
      </trkpt>
      <trkpt lat="48.94413" lon="7.87951">
        <ele>156.9</ele>
      </trkpt>
      <trkpt lat="48.94429" lon="7.8794">
        <ele>160.1</ele>
      </trkpt>
      <trkpt lat="48.94469" lon="7.87923">
        <ele>161.5</ele>
      </trkpt>
      <trkpt lat="48.945" lon="7.87915">
        <ele>164.1</ele>
      </trkpt>
      <trkpt lat="48.94525" lon="7.87914">
        <ele>165.2</ele>
      </trkpt>
      <trkpt lat="48.94552" lon="7.87916">
        <ele>165.9</ele>
      </trkpt>
      <trkpt lat="48.94591" lon="7.8792">
        <ele>166.9</ele>
      </trkpt>
      <trkpt lat="48.94674" lon="7.87924">
        <ele>170.1</ele>
      </trkpt>
      <trkpt lat="48.94716" lon="7.87936">
        <ele>171</ele>
      </trkpt>
      <trkpt lat="48.94754" lon="7.87944">
        <ele>175.4</ele>
      </trkpt>
      <trkpt lat="48.94781" lon="7.87949">
        <ele>176.6</ele>
      </trkpt>
      <trkpt lat="48.94824" lon="7.87954">
        <ele>178.8</ele>
      </trkpt>
      <trkpt lat="48.94847" lon="7.87951">
        <ele>186.2</ele>
      </trkpt>
      <trkpt lat="48.94882" lon="7.87942">
        <ele>188.7</ele>
      </trkpt>
      <trkpt lat="48.94896" lon="7.87936">
        <ele>190</ele>
      </trkpt>
      <trkpt lat="48.94915" lon="7.87924">
        <ele>192.5</ele>
      </trkpt>
      <trkpt lat="48.94937" lon="7.87909">
        <ele>195.1</ele>
      </trkpt>
      <trkpt lat="48.94962" lon="7.87887">
        <ele>195.9</ele>
      </trkpt>
      <trkpt lat="48.9498" lon="7.87875">
        <ele>196.3</ele>
      </trkpt>
      <trkpt lat="48.94995" lon="7.87866">
        <ele>196.6</ele>
      </trkpt>
      <trkpt lat="48.95003" lon="7.87865">
        <ele>198.4</ele>
      </trkpt>
      <trkpt lat="48.9501" lon="7.87853">
        <ele>198.4</ele>
      </trkpt>
      <trkpt lat="48.95046" lon="7.87824">
        <ele>197.5</ele>
      </trkpt>
      <trkpt lat="48.95059" lon="7.87814">
        <ele>197.6</ele>
      </trkpt>
      <trkpt lat="48.95061" lon="7.87811">
        <ele>197.6</ele>
      </trkpt>
      <trkpt lat="48.9509" lon="7.87788">
        <ele>197.5</ele>
      </trkpt>
      <trkpt lat="48.95116" lon="7.87763">
        <ele>197.1</ele>
      </trkpt>
      <trkpt lat="48.95148" lon="7.87724">
        <ele>195.4</ele>
      </trkpt>
      <trkpt lat="48.95205" lon="7.87636">
        <ele>194.5</ele>
      </trkpt>
      <trkpt lat="48.95231" lon="7.87587">
        <ele>194.7</ele>
      </trkpt>
      <trkpt lat="48.95253" lon="7.87538">
        <ele>194.5</ele>
      </trkpt>
      <trkpt lat="48.95258" lon="7.87524">
        <ele>194.4</ele>
        <extensions>
          <visugpx:TrkExtension xmlns:visugpx="https://www.visugpx.com/editgpx/">
            <visugpx:node>3</visugpx:node>
            </visugpx:TrkExtension>
        </extensions>
      </trkpt>
      <trkpt lat="48.95278" lon="7.87474">
        <ele>194.6</ele>
      </trkpt>
      <trkpt lat="48.95301" lon="7.87405">
        <ele>195.8</ele>
      </trkpt>
      <trkpt lat="48.95312" lon="7.8741">
        <ele>195.9</ele>
      </trkpt>
      <trkpt lat="48.95455" lon="7.87437">
        <ele>191.1</ele>
      </trkpt>
      <trkpt lat="48.95473" lon="7.87437">
        <ele>190.9</ele>
      </trkpt>
      <trkpt lat="48.9553" lon="7.87416">
        <ele>194.3</ele>
      </trkpt>
      <trkpt lat="48.95607" lon="7.87382">
        <ele>198.4</ele>
      </trkpt>
      <trkpt lat="48.95634" lon="7.87364">
        <ele>199.2</ele>
      </trkpt>
      <trkpt lat="48.95653" lon="7.87348">
        <ele>200.2</ele>
      </trkpt>
      <trkpt lat="48.95699" lon="7.87282">
        <ele>203.5</ele>
      </trkpt>
      <trkpt lat="48.95724" lon="7.87242">
        <ele>205.7</ele>
      </trkpt>
      <trkpt lat="48.95754" lon="7.87183">
        <ele>205.2</ele>
      </trkpt>
      <trkpt lat="48.95787" lon="7.87119">
        <ele>204.9</ele>
      </trkpt>
      <trkpt lat="48.95851" lon="7.87002">
        <ele>205.4</ele>
      </trkpt>
      <trkpt lat="48.95863" lon="7.86988">
        <ele>205.8</ele>
      </trkpt>
      <trkpt lat="48.9587" lon="7.86977">
        <ele>205.7</ele>
      </trkpt>
      <trkpt lat="48.95878" lon="7.86963">
        <ele>205.7</ele>
      </trkpt>
      <trkpt lat="48.95904" lon="7.86923">
        <ele>205.4</ele>
      </trkpt>
      <trkpt lat="48.95929" lon="7.86889">
        <ele>205.6</ele>
      </trkpt>
      <trkpt lat="48.95936" lon="7.86877">
        <ele>205.8</ele>
      </trkpt>
      <trkpt lat="48.95945" lon="7.86864">
        <ele>205.9</ele>
      </trkpt>
      <trkpt lat="48.96037" lon="7.868">
        <ele>204.9</ele>
      </trkpt>
      <trkpt lat="48.96053" lon="7.86786">
        <ele>205</ele>
      </trkpt>
      <trkpt lat="48.96066" lon="7.86769">
        <ele>205.3</ele>
      </trkpt>
      <trkpt lat="48.96078" lon="7.86755">
        <ele>205.7</ele>
      </trkpt>
      <trkpt lat="48.96087" lon="7.86751">
        <ele>205.9</ele>
      </trkpt>
      <trkpt lat="48.96123" lon="7.86758">
        <ele>205.8</ele>
      </trkpt>
      <trkpt lat="48.96139" lon="7.86749">
        <ele>207</ele>
      </trkpt>
      <trkpt lat="48.96203" lon="7.86688">
        <ele>206.7</ele>
      </trkpt>
      <trkpt lat="48.9624" lon="7.86652">
        <ele>207.3</ele>
      </trkpt>
      <trkpt lat="48.96252" lon="7.86638">
        <ele>207.5</ele>
      </trkpt>
      <trkpt lat="48.96257" lon="7.86627">
        <ele>207.9</ele>
      </trkpt>
      <trkpt lat="48.96277" lon="7.8658">
        <ele>210.9</ele>
      </trkpt>
      <trkpt lat="48.96294" lon="7.86555">
        <ele>211.3</ele>
      </trkpt>
      <trkpt lat="48.96313" lon="7.8654">
        <ele>211.5</ele>
        <extensions>
          <visugpx:TrkExtension xmlns:visugpx="https://www.visugpx.com/editgpx/">
            <visugpx:node>4</visugpx:node>
            </visugpx:TrkExtension>
        </extensions>
      </trkpt>
      <trkpt lat="48.96326" lon="7.8653">
        <ele>211.8</ele>
      </trkpt>
      <trkpt lat="48.9637" lon="7.86499">
        <ele>214.5</ele>
      </trkpt>
      <trkpt lat="48.96413" lon="7.86478">
        <ele>215.1</ele>
      </trkpt>
      <trkpt lat="48.96434" lon="7.86468">
        <ele>217.1</ele>
      </trkpt>
      <trkpt lat="48.96503" lon="7.86364">
        <ele>225.4</ele>
      </trkpt>
      <trkpt lat="48.96537" lon="7.86366">
        <ele>225.8</ele>
      </trkpt>
      <trkpt lat="48.96562" lon="7.86424">
        <ele>223.4</ele>
      </trkpt>
      <trkpt lat="48.96593" lon="7.86547">
        <ele>216.9</ele>
      </trkpt>
      <trkpt lat="48.96643" lon="7.86723">
        <ele>204.8</ele>
      </trkpt>
      <trkpt lat="48.96686" lon="7.86772">
        <ele>197.2</ele>
      </trkpt>
      <trkpt lat="48.96734" lon="7.86764">
        <ele>195.5</ele>
      </trkpt>
      <trkpt lat="48.9682" lon="7.86657">
        <ele>194.9</ele>
      </trkpt>
      <trkpt lat="48.96867" lon="7.86528">
        <ele>199.7</ele>
      </trkpt>
      <trkpt lat="48.96916" lon="7.86457">
        <ele>205.4</ele>
      </trkpt>
      <trkpt lat="48.97007" lon="7.86413">
        <ele>208</ele>
      </trkpt>
      <trkpt lat="48.97031" lon="7.8638">
        <ele>208</ele>
      </trkpt>
      <trkpt lat="48.97065" lon="7.86386">
        <ele>206.8</ele>
      </trkpt>
      <trkpt lat="48.97094" lon="7.86346">
        <ele>206</ele>
      </trkpt>
      <trkpt lat="48.97155" lon="7.86307">
        <ele>211.6</ele>
      </trkpt>
      <trkpt lat="48.97194" lon="7.86301">
        <ele>211.7</ele>
      </trkpt>
      <trkpt lat="48.97268" lon="7.86263">
        <ele>210.5</ele>
      </trkpt>
      <trkpt lat="48.97316" lon="7.86264">
        <ele>209.6</ele>
      </trkpt>
      <trkpt lat="48.97319" lon="7.8626">
        <ele>209.4</ele>
        <extensions>
          <visugpx:TrkExtension xmlns:visugpx="https://www.visugpx.com/editgpx/">
            <visugpx:node>5</visugpx:node>
            </visugpx:TrkExtension>
        </extensions>
      </trkpt>
      <trkpt lat="48.974" lon="7.86177">
        <ele>212.3</ele>
      </trkpt>
      <trkpt lat="48.97495" lon="7.86157">
        <ele>211.9</ele>
      </trkpt>
      <trkpt lat="48.97563" lon="7.86099">
        <ele>217.4</ele>
      </trkpt>
      <trkpt lat="48.97595" lon="7.86109">
        <ele>220.3</ele>
      </trkpt>
      <trkpt lat="48.97642" lon="7.861">
        <ele>220.3</ele>
      </trkpt>
      <trkpt lat="48.97724" lon="7.86055">
        <ele>221.3</ele>
      </trkpt>
      <trkpt lat="48.97767" lon="7.86013">
        <ele>223.6</ele>
      </trkpt>
      <trkpt lat="48.9781" lon="7.85982">
        <ele>229.5</ele>
      </trkpt>
      <trkpt lat="48.97862" lon="7.85964">
        <ele>231.4</ele>
      </trkpt>
      <trkpt lat="48.9791" lon="7.85924">
        <ele>232.7</ele>
      </trkpt>
      <trkpt lat="48.97926" lon="7.85896">
        <ele>237.9</ele>
      </trkpt>
      <trkpt lat="48.9795" lon="7.85871">
        <ele>240.9</ele>
      </trkpt>
      <trkpt lat="48.98055" lon="7.85809">
        <ele>245.7</ele>
      </trkpt>
      <trkpt lat="48.98141" lon="7.85691">
        <ele>242.9</ele>
      </trkpt>
      <trkpt lat="48.98158" lon="7.85642">
        <ele>241.7</ele>
      </trkpt>
      <trkpt lat="48.98184" lon="7.8556">
        <ele>240.9</ele>
      </trkpt>
      <trkpt lat="48.98277" lon="7.85372">
        <ele>254.3</ele>
      </trkpt>
      <trkpt lat="48.98291" lon="7.85261">
        <ele>257.7</ele>
      </trkpt>
      <trkpt lat="48.98291" lon="7.85225">
        <ele>258.2</ele>
        <extensions>
          <visugpx:TrkExtension xmlns:visugpx="https://www.visugpx.com/editgpx/">
            <visugpx:node>6</visugpx:node>
            </visugpx:TrkExtension>
        </extensions>
      </trkpt>
      <trkpt lat="48.98291" lon="7.85152">
        <ele>258.2</ele>
      </trkpt>
      <trkpt lat="48.98311" lon="7.85094">
        <ele>256.1</ele>
      </trkpt>
      <trkpt lat="48.98308" lon="7.85043">
        <ele>258.9</ele>
      </trkpt>
      <trkpt lat="48.98317" lon="7.85019">
        <ele>258.8</ele>
      </trkpt>
      <trkpt lat="48.98343" lon="7.85014">
        <ele>254.8</ele>
      </trkpt>
      <trkpt lat="48.98364" lon="7.85007">
        <ele>253.8</ele>
      </trkpt>
      <trkpt lat="48.98385" lon="7.85008">
        <ele>252.7</ele>
      </trkpt>
      <trkpt lat="48.98404" lon="7.85008">
        <ele>251.9</ele>
      </trkpt>
      <trkpt lat="48.98439" lon="7.85014">
        <ele>252.6</ele>
      </trkpt>
      <trkpt lat="48.98467" lon="7.85026">
        <ele>253.7</ele>
      </trkpt>
      <trkpt lat="48.98469" lon="7.85022">
        <ele>253.7</ele>
      </trkpt>
      <trkpt lat="48.98484" lon="7.84987">
        <ele>256.4</ele>
      </trkpt>
      <trkpt lat="48.98484" lon="7.84985">
        <ele>256.5</ele>
      </trkpt>
      <trkpt lat="48.98486" lon="7.84974">
        <ele>257.1</ele>
      </trkpt>
      <trkpt lat="48.98494" lon="7.84943">
        <ele>259.4</ele>
      </trkpt>
      <trkpt lat="48.98496" lon="7.84911">
        <ele>264.6</ele>
      </trkpt>
      <trkpt lat="48.98507" lon="7.84811">
        <ele>288.6</ele>
      </trkpt>
      <trkpt lat="48.98535" lon="7.84766">
        <ele>295.4</ele>
      </trkpt>
      <trkpt lat="48.98527" lon="7.84728">
        <ele>302.7</ele>
      </trkpt>
      <trkpt lat="48.98528" lon="7.84687">
        <ele>305.8</ele>
      </trkpt>
      <trkpt lat="48.9852" lon="7.84662">
        <ele>310.9</ele>
      </trkpt>
      <trkpt lat="48.9851" lon="7.84631">
        <ele>314.9</ele>
      </trkpt>
      <trkpt lat="48.98494" lon="7.84551">
        <ele>312.1</ele>
      </trkpt>
      <trkpt lat="48.98531" lon="7.84572">
        <ele>328.3</ele>
      </trkpt>
      <trkpt lat="48.98535" lon="7.84536">
        <ele>331.8</ele>
      </trkpt>
      <trkpt lat="48.98586" lon="7.84587">
        <ele>339.8</ele>
      </trkpt>
      <trkpt lat="48.98609" lon="7.84612">
        <ele>342.7</ele>
      </trkpt>
      <trkpt lat="48.98678" lon="7.84689">
        <ele>350.9</ele>
      </trkpt>
      <trkpt lat="48.98727" lon="7.84716">
        <ele>351.5</ele>
      </trkpt>
      <trkpt lat="48.98794" lon="7.84681">
        <ele>358.1</ele>
      </trkpt>
      <trkpt lat="48.98825" lon="7.84608">
        <ele>371.6</ele>
      </trkpt>
      <trkpt lat="48.98819" lon="7.8457">
        <ele>378.5</ele>
      </trkpt>
      <trkpt lat="48.9881" lon="7.84559">
        <ele>379.6</ele>
      </trkpt>
      <trkpt lat="48.98806" lon="7.84547">
        <ele>380.4</ele>
      </trkpt>
      <trkpt lat="48.98767" lon="7.84533">
        <ele>381.4</ele>
      </trkpt>
      <trkpt lat="48.98765" lon="7.84517">
        <ele>382.8</ele>
      </trkpt>
      <trkpt lat="48.98739" lon="7.8449">
        <ele>384</ele>
      </trkpt>
      <trkpt lat="48.98722" lon="7.84468">
        <ele>382.6</ele>
      </trkpt>
      <trkpt lat="48.98694" lon="7.84418">
        <ele>381.4</ele>
      </trkpt>
      <trkpt lat="48.98676" lon="7.84376">
        <ele>395.8</ele>
        <extensions>
          <visugpx:TrkExtension xmlns:visugpx="https://www.visugpx.com/editgpx/">
            <visugpx:node>7</visugpx:node>
            </visugpx:TrkExtension>
        </extensions>
      </trkpt>
      <trkpt lat="48.98668" lon="7.84358">
        <ele>398.1</ele>
      </trkpt>
      <trkpt lat="48.98656" lon="7.84326">
        <ele>396.1</ele>
      </trkpt>
      <trkpt lat="48.98636" lon="7.84298">
        <ele>393.7</ele>
      </trkpt>
      <trkpt lat="48.98614" lon="7.84251">
        <ele>393.7</ele>
      </trkpt>
      <trkpt lat="48.98587" lon="7.84203">
        <ele>403.9</ele>
      </trkpt>
      <trkpt lat="48.98549" lon="7.84174">
        <ele>390</ele>
      </trkpt>
      <trkpt lat="48.98511" lon="7.8414">
        <ele>395.1</ele>
      </trkpt>
      <trkpt lat="48.98461" lon="7.84072">
        <ele>392.8</ele>
      </trkpt>
      <trkpt lat="48.98443" lon="7.84036">
        <ele>393.4</ele>
      </trkpt>
      <trkpt lat="48.98437" lon="7.84026">
        <ele>393.6</ele>
      </trkpt>
      <trkpt lat="48.98424" lon="7.83984">
        <ele>400.1</ele>
      </trkpt>
      <trkpt lat="48.98403" lon="7.83929">
        <ele>396</ele>
      </trkpt>
      <trkpt lat="48.98389" lon="7.83901">
        <ele>401.5</ele>
      </trkpt>
      <trkpt lat="48.9838" lon="7.83861">
        <ele>403.4</ele>
      </trkpt>
      <trkpt lat="48.98366" lon="7.83811">
        <ele>410.7</ele>
      </trkpt>
      <trkpt lat="48.98344" lon="7.83755">
        <ele>411.3</ele>
      </trkpt>
      <trkpt lat="48.98338" lon="7.83732">
        <ele>417.7</ele>
      </trkpt>
      <trkpt lat="48.98316" lon="7.8369">
        <ele>413.5</ele>
      </trkpt>
      <trkpt lat="48.98316" lon="7.83677">
        <ele>415.3</ele>
      </trkpt>
      <trkpt lat="48.98316" lon="7.83654">
        <ele>422.4</ele>
      </trkpt>
      <trkpt lat="48.98313" lon="7.83635">
        <ele>423.5</ele>
      </trkpt>
      <trkpt lat="48.98299" lon="7.83621">
        <ele>423.7</ele>
      </trkpt>
      <trkpt lat="48.9831" lon="7.83598">
        <ele>427.6</ele>
      </trkpt>
      <trkpt lat="48.98306" lon="7.83586">
        <ele>427.8</ele>
      </trkpt>
      <trkpt lat="48.98239" lon="7.83448">
        <ele>438.3</ele>
      </trkpt>
      <trkpt lat="48.98211" lon="7.83395">
        <ele>449.2</ele>
      </trkpt>
      <trkpt lat="48.98195" lon="7.83361">
        <ele>450.8</ele>
      </trkpt>
      <trkpt lat="48.98151" lon="7.83259">
        <ele>458.8</ele>
      </trkpt>
      <trkpt lat="48.98143" lon="7.83243">
        <ele>467.5</ele>
      </trkpt>
      <trkpt lat="48.98124" lon="7.83204">
        <ele>467.6</ele>
      </trkpt>
      <trkpt lat="48.98059" lon="7.83054">
        <ele>481.9</ele>
        <extensions>
          <visugpx:TrkExtension xmlns:visugpx="https://www.visugpx.com/editgpx/">
            <visugpx:node>8</visugpx:node>
            </visugpx:TrkExtension>
        </extensions>
      </trkpt>
      <trkpt lat="48.98051" lon="7.83035">
        <ele>483.1</ele>
      </trkpt>
      <trkpt lat="48.98043" lon="7.8301">
        <ele>484.6</ele>
      </trkpt>
      <trkpt lat="48.98018" lon="7.82967">
        <ele>493.7</ele>
      </trkpt>
      <trkpt lat="48.97999" lon="7.82942">
        <ele>485.3</ele>
      </trkpt>
      <trkpt lat="48.97962" lon="7.82929">
        <ele>481.7</ele>
      </trkpt>
      <trkpt lat="48.97957" lon="7.82913">
        <ele>490.5</ele>
      </trkpt>
      <trkpt lat="48.97958" lon="7.82877">
        <ele>492.1</ele>
      </trkpt>
      <trkpt lat="48.97958" lon="7.82847">
        <ele>493.5</ele>
      </trkpt>
      <trkpt lat="48.97956" lon="7.82824">
        <ele>496.8</ele>
      </trkpt>
      <trkpt lat="48.97924" lon="7.82789">
        <ele>495.7</ele>
      </trkpt>
      <trkpt lat="48.97877" lon="7.82735">
        <ele>484.2</ele>
      </trkpt>
      <trkpt lat="48.9784" lon="7.82683">
        <ele>481.2</ele>
      </trkpt>
      <trkpt lat="48.97841" lon="7.82661">
        <ele>479.9</ele>
      </trkpt>
      <trkpt lat="48.97841" lon="7.8265">
        <ele>480.2</ele>
      </trkpt>
      <trkpt lat="48.97835" lon="7.82638">
        <ele>479.9</ele>
      </trkpt>
      <trkpt lat="48.97838" lon="7.82634">
        <ele>479.9</ele>
      </trkpt>
      <trkpt lat="48.97844" lon="7.82627">
        <ele>479.8</ele>
      </trkpt>
      <trkpt lat="48.97851" lon="7.82622">
        <ele>479.9</ele>
      </trkpt>
      <trkpt lat="48.97869" lon="7.82618">
        <ele>480.8</ele>
      </trkpt>
      <trkpt lat="48.97891" lon="7.8261">
        <ele>481.7</ele>
      </trkpt>
      <trkpt lat="48.979" lon="7.82582">
        <ele>476.9</ele>
      </trkpt>
      <trkpt lat="48.97913" lon="7.82563">
        <ele>475.9</ele>
      </trkpt>
      <trkpt lat="48.97928" lon="7.82552">
        <ele>477.2</ele>
      </trkpt>
      <trkpt lat="48.97943" lon="7.82546">
        <ele>476.7</ele>
      </trkpt>
      <trkpt lat="48.97948" lon="7.82547">
        <ele>476.7</ele>
      </trkpt>
      <trkpt lat="48.97967" lon="7.82533">
        <ele>476.1</ele>
      </trkpt>
      <trkpt lat="48.97978" lon="7.82528">
        <ele>476</ele>
      </trkpt>
      <trkpt lat="48.97998" lon="7.8251">
        <ele>474.8</ele>
      </trkpt>
      <trkpt lat="48.98005" lon="7.82504">
        <ele>474.4</ele>
      </trkpt>
      <trkpt lat="48.98011" lon="7.82496">
        <ele>473.6</ele>
      </trkpt>
      <trkpt lat="48.9802" lon="7.82486">
        <ele>473.3</ele>
      </trkpt>
      <trkpt lat="48.9804" lon="7.82471">
        <ele>473.1</ele>
      </trkpt>
      <trkpt lat="48.98051" lon="7.82428">
        <ele>473.1</ele>
      </trkpt>
      <trkpt lat="48.98053" lon="7.82424">
        <ele>473.2</ele>
      </trkpt>
      <trkpt lat="48.98057" lon="7.82418">
        <ele>473.4</ele>
      </trkpt>
      <trkpt lat="48.98054" lon="7.82412">
        <ele>472.5</ele>
      </trkpt>
      <trkpt lat="48.98043" lon="7.82298">
        <ele>471.1</ele>
      </trkpt>
      <trkpt lat="48.9804" lon="7.82285">
        <ele>470.9</ele>
      </trkpt>
      <trkpt lat="48.98036" lon="7.82226">
        <ele>471.3</ele>
      </trkpt>
      <trkpt lat="48.98034" lon="7.822">
        <ele>471.6</ele>
      </trkpt>
      <trkpt lat="48.98029" lon="7.8217">
        <ele>471.6</ele>
      </trkpt>
      <trkpt lat="48.98028" lon="7.82115">
        <ele>474.2</ele>
      </trkpt>
      <trkpt lat="48.98031" lon="7.82076">
        <ele>476.1</ele>
      </trkpt>
      <trkpt lat="48.98042" lon="7.8201">
        <ele>477.3</ele>
        <extensions>
          <visugpx:TrkExtension xmlns:visugpx="https://www.visugpx.com/editgpx/">
            <visugpx:node>9</visugpx:node>
            </visugpx:TrkExtension>
        </extensions>
      </trkpt>
      <trkpt lat="48.98046" lon="7.81985">
        <ele>478.6</ele>
      </trkpt>
      <trkpt lat="48.98058" lon="7.8195">
        <ele>479.1</ele>
      </trkpt>
      <trkpt lat="48.98109" lon="7.81828">
        <ele>485.9</ele>
      </trkpt>
      <trkpt lat="48.98126" lon="7.81785">
        <ele>487.1</ele>
      </trkpt>
      <trkpt lat="48.98139" lon="7.81752">
        <ele>488.3</ele>
      </trkpt>
      <trkpt lat="48.98153" lon="7.81726">
        <ele>489.5</ele>
      </trkpt>
      <trkpt lat="48.98165" lon="7.81707">
        <ele>489.6</ele>
      </trkpt>
      <trkpt lat="48.9818" lon="7.81661">
        <ele>492.4</ele>
      </trkpt>
      <trkpt lat="48.98184" lon="7.81634">
        <ele>492.8</ele>
      </trkpt>
      <trkpt lat="48.98192" lon="7.81623">
        <ele>492.9</ele>
      </trkpt>
      <trkpt lat="48.98195" lon="7.81611">
        <ele>493.1</ele>
      </trkpt>
      <trkpt lat="48.98203" lon="7.81606">
        <ele>493.2</ele>
      </trkpt>
      <trkpt lat="48.98212" lon="7.81601">
        <ele>493.3</ele>
      </trkpt>
      <trkpt lat="48.98228" lon="7.81601">
        <ele>493.6</ele>
      </trkpt>
      <trkpt lat="48.98329" lon="7.81517">
        <ele>497.3</ele>
      </trkpt>
      <trkpt lat="48.98361" lon="7.81485">
        <ele>497.7</ele>
      </trkpt>
      <trkpt lat="48.98432" lon="7.81426">
        <ele>493.9</ele>
      </trkpt>
      <trkpt lat="48.98441" lon="7.81411">
        <ele>494.5</ele>
      </trkpt>
      <trkpt lat="48.98444" lon="7.81393">
        <ele>493.8</ele>
      </trkpt>
      <trkpt lat="48.98442" lon="7.81377">
        <ele>493.7</ele>
      </trkpt>
      <trkpt lat="48.983" lon="7.81081">
        <ele>497.4</ele>
      </trkpt>
      <trkpt lat="48.98274" lon="7.81031">
        <ele>500.2</ele>
      </trkpt>
      <trkpt lat="48.98303" lon="7.81009">
        <ele>497.1</ele>
      </trkpt>
      <trkpt lat="48.98322" lon="7.81">
        <ele>494.2</ele>
      </trkpt>
      <trkpt lat="48.98356" lon="7.80968">
        <ele>483</ele>
      </trkpt>
      <trkpt lat="48.98383" lon="7.80911">
        <ele>479.8</ele>
      </trkpt>
      <trkpt lat="48.98391" lon="7.80882">
        <ele>478.9</ele>
      </trkpt>
      <trkpt lat="48.98401" lon="7.80839">
        <ele>474.2</ele>
      </trkpt>
      <trkpt lat="48.98398" lon="7.80804">
        <ele>474</ele>
      </trkpt>
      <trkpt lat="48.98381" lon="7.80694">
        <ele>468.8</ele>
      </trkpt>
      <trkpt lat="48.98375" lon="7.80675">
        <ele>469.3</ele>
      </trkpt>
      <trkpt lat="48.98346" lon="7.80613">
        <ele>463.2</ele>
      </trkpt>
      <trkpt lat="48.98335" lon="7.80592">
        <ele>465</ele>
      </trkpt>
      <trkpt lat="48.98335" lon="7.80581">
        <ele>464.8</ele>
      </trkpt>
      <trkpt lat="48.98333" lon="7.80568">
        <ele>469.9</ele>
      </trkpt>
      <trkpt lat="48.98335" lon="7.80562">
        <ele>456.2</ele>
      </trkpt>
      <trkpt lat="48.9833" lon="7.80538">
        <ele>469.7</ele>
      </trkpt>
      <trkpt lat="48.98318" lon="7.8051">
        <ele>466.4</ele>
      </trkpt>
      <trkpt lat="48.98316" lon="7.80497">
        <ele>462.6</ele>
      </trkpt>
      <trkpt lat="48.98319" lon="7.8048">
        <ele>463</ele>
      </trkpt>
      <trkpt lat="48.98309" lon="7.80439">
        <ele>462.6</ele>
      </trkpt>
      <trkpt lat="48.98302" lon="7.8042">
        <ele>462.9</ele>
      </trkpt>
      <trkpt lat="48.98301" lon="7.80413">
        <ele>457.7</ele>
        <extensions>
          <visugpx:TrkExtension xmlns:visugpx="https://www.visugpx.com/editgpx/">
            <visugpx:node>10</visugpx:node>
            </visugpx:TrkExtension>
        </extensions>
      </trkpt>
      <trkpt lat="48.98292" lon="7.80316">
        <ele>448</ele>
      </trkpt>
      <trkpt lat="48.98282" lon="7.80252">
        <ele>446.1</ele>
      </trkpt>
      <trkpt lat="48.98271" lon="7.80147">
        <ele>420.3</ele>
      </trkpt>
      <trkpt lat="48.98265" lon="7.80129">
        <ele>417.4</ele>
      </trkpt>
      <trkpt lat="48.98262" lon="7.80115">
        <ele>415.3</ele>
      </trkpt>
      <trkpt lat="48.98239" lon="7.80061">
        <ele>413.8</ele>
      </trkpt>
      <trkpt lat="48.98234" lon="7.80001">
        <ele>402</ele>
      </trkpt>
      <trkpt lat="48.98227" lon="7.79941">
        <ele>391.3</ele>
      </trkpt>
      <trkpt lat="48.98222" lon="7.79916">
        <ele>382.2</ele>
      </trkpt>
      <trkpt lat="48.98215" lon="7.79836">
        <ele>379.1</ele>
      </trkpt>
      <trkpt lat="48.98208" lon="7.79806">
        <ele>372.2</ele>
      </trkpt>
      <trkpt lat="48.98205" lon="7.79754">
        <ele>369.9</ele>
      </trkpt>
      <trkpt lat="48.982" lon="7.79727">
        <ele>363.4</ele>
      </trkpt>
      <trkpt lat="48.98196" lon="7.79691">
        <ele>361.7</ele>
      </trkpt>
      <trkpt lat="48.98191" lon="7.79657">
        <ele>356.3</ele>
      </trkpt>
      <trkpt lat="48.98188" lon="7.79644">
        <ele>355.5</ele>
      </trkpt>
      <trkpt lat="48.98193" lon="7.79626">
        <ele>353.4</ele>
      </trkpt>
      <trkpt lat="48.9819" lon="7.79617">
        <ele>353.1</ele>
      </trkpt>
      <trkpt lat="48.98191" lon="7.79605">
        <ele>352.5</ele>
      </trkpt>
      <trkpt lat="48.98175" lon="7.79529">
        <ele>343.8</ele>
      </trkpt>
      <trkpt lat="48.98172" lon="7.79504">
        <ele>342.4</ele>
      </trkpt>
      <trkpt lat="48.98174" lon="7.79494">
        <ele>340.1</ele>
      </trkpt>
      <trkpt lat="48.98173" lon="7.79489">
        <ele>339.6</ele>
      </trkpt>
      <trkpt lat="48.98178" lon="7.79479">
        <ele>338.3</ele>
      </trkpt>
      <trkpt lat="48.98177" lon="7.79468">
        <ele>337.5</ele>
      </trkpt>
      <trkpt lat="48.98178" lon="7.79463">
        <ele>337.2</ele>
      </trkpt>
      <trkpt lat="48.98167" lon="7.79443">
        <ele>336.5</ele>
      </trkpt>
      <trkpt lat="48.98152" lon="7.7939">
        <ele>337.2</ele>
      </trkpt>
      <trkpt lat="48.9815" lon="7.79369">
        <ele>336.1</ele>
      </trkpt>
      <trkpt lat="48.98154" lon="7.79333">
        <ele>328.3</ele>
      </trkpt>
      <trkpt lat="48.98176" lon="7.79275">
        <ele>320.4</ele>
      </trkpt>
      <trkpt lat="48.98186" lon="7.7925">
        <ele>319.5</ele>
      </trkpt>
      <trkpt lat="48.98187" lon="7.79235">
        <ele>315.3</ele>
      </trkpt>
      <trkpt lat="48.98193" lon="7.79219">
        <ele>314.2</ele>
      </trkpt>
      <trkpt lat="48.98215" lon="7.79208">
        <ele>313.1</ele>
      </trkpt>
      <trkpt lat="48.98287" lon="7.79169">
        <ele>308</ele>
      </trkpt>
      <trkpt lat="48.98462" lon="7.79084">
        <ele>292</ele>
      </trkpt>
      <trkpt lat="48.98494" lon="7.79067">
        <ele>286.8</ele>
        <extensions>
          <visugpx:TrkExtension xmlns:visugpx="https://www.visugpx.com/editgpx/">
            <visugpx:node>11</visugpx:node>
            </visugpx:TrkExtension>
        </extensions>
      </trkpt>
      <trkpt lat="48.98546" lon="7.79041">
        <ele>282.1</ele>
      </trkpt>
      <trkpt lat="48.98644" lon="7.7899">
        <ele>272.3</ele>
      </trkpt>
      <trkpt lat="48.98715" lon="7.78796">
        <ele>263.6</ele>
      </trkpt>
      <trkpt lat="48.98797" lon="7.78638">
        <ele>258.3</ele>
      </trkpt>
      <trkpt lat="48.98895" lon="7.786">
        <ele>251.6</ele>
      </trkpt>
      <trkpt lat="48.98921" lon="7.78579">
        <ele>246.7</ele>
      </trkpt>
      <trkpt lat="48.98989" lon="7.78543">
        <ele>241.4</ele>
      </trkpt>
      <trkpt lat="48.98997" lon="7.78466">
        <ele>237.7</ele>
      </trkpt>
      <trkpt lat="48.98987" lon="7.78359">
        <ele>233.2</ele>
        <extensions>
          <visugpx:TrkExtension xmlns:visugpx="https://www.visugpx.com/editgpx/">
            <visugpx:node>12</visugpx:node>
            </visugpx:TrkExtension>
        </extensions>
      </trkpt>
      <trkpt lat="48.98986" lon="7.78349">
        <ele>232.7</ele>
      </trkpt>
      <trkpt lat="48.99005" lon="7.78199">
        <ele>216.4</ele>
      </trkpt>
      <trkpt lat="48.99008" lon="7.78134">
        <ele>213.2</ele>
      </trkpt>
      <trkpt lat="48.99008" lon="7.78105">
        <ele>213.3</ele>
      </trkpt>
      <trkpt lat="48.99038" lon="7.78105">
        <ele>210.3</ele>
      </trkpt>
      <trkpt lat="48.99104" lon="7.78125">
        <ele>197.7</ele>
      </trkpt>
      <trkpt lat="48.99166" lon="7.78161">
        <ele>192.8</ele>
      </trkpt>
      <trkpt lat="48.99172" lon="7.78159">
        <ele>191</ele>
      </trkpt>
      <trkpt lat="48.99176" lon="7.78171">
        <ele>192</ele>
      </trkpt>
      <trkpt lat="48.99188" lon="7.78192">
        <ele>192.1</ele>
      </trkpt>
      <trkpt lat="48.99195" lon="7.78203">
        <ele>192.2</ele>
      </trkpt>
      <trkpt lat="48.99206" lon="7.78214">
        <ele>192.2</ele>
      </trkpt>
      <trkpt lat="48.99223" lon="7.78222">
        <ele>191.8</ele>
      </trkpt>
      <trkpt lat="48.99235" lon="7.78225">
        <ele>191.6</ele>
      </trkpt>
      <trkpt lat="48.99252" lon="7.78217">
        <ele>189.1</ele>
      </trkpt>
      <trkpt lat="48.99267" lon="7.78228">
        <ele>189.1</ele>
      </trkpt>
      <trkpt lat="48.99274" lon="7.78234">
        <ele>189</ele>
      </trkpt>
      <trkpt lat="48.99281" lon="7.7824">
        <ele>188.9</ele>
      </trkpt>
      <trkpt lat="48.99303" lon="7.78258">
        <ele>189.3</ele>
      </trkpt>
      <trkpt lat="48.99333" lon="7.78285">
        <ele>189.4</ele>
      </trkpt>
      <trkpt lat="48.99349" lon="7.78302">
        <ele>188.3</ele>
      </trkpt>
      <trkpt lat="48.99371" lon="7.78326">
        <ele>188.2</ele>
      </trkpt>
      <trkpt lat="48.99391" lon="7.78355">
        <ele>190.1</ele>
      </trkpt>
      <trkpt lat="48.99414" lon="7.78396">
        <ele>190.5</ele>
      </trkpt>
      <trkpt lat="48.99479" lon="7.78471">
        <ele>190.7</ele>
      </trkpt>
      <trkpt lat="48.99527" lon="7.78514">
        <ele>190.6</ele>
      </trkpt>
      <trkpt lat="48.99566" lon="7.78548">
        <ele>190.8</ele>
      </trkpt>
      <trkpt lat="48.99596" lon="7.78564">
        <ele>189.9</ele>
      </trkpt>
      <trkpt lat="48.99637" lon="7.78575">
        <ele>189.6</ele>
      </trkpt>
      <trkpt lat="48.99672" lon="7.78578">
        <ele>189.5</ele>
      </trkpt>
      <trkpt lat="48.99679" lon="7.78578">
        <ele>189.3</ele>
      </trkpt>
      <trkpt lat="48.99743" lon="7.78587">
        <ele>188.6</ele>
      </trkpt>
      <trkpt lat="48.99757" lon="7.78589">
        <ele>188.6</ele>
      </trkpt>
      <trkpt lat="48.99765" lon="7.7859">
        <ele>188.9</ele>
      </trkpt>
      <trkpt lat="48.99825" lon="7.78611">
        <ele>189.8</ele>
      </trkpt>
      <trkpt lat="48.9989" lon="7.78636">
        <ele>190.4</ele>
      </trkpt>
      <trkpt lat="48.99894" lon="7.78638">
        <ele>190.4</ele>
      </trkpt>
      <trkpt lat="48.99899" lon="7.7864">
        <ele>190.4</ele>
      </trkpt>
      <trkpt lat="48.99921" lon="7.78654">
        <ele>190.3</ele>
      </trkpt>
      <trkpt lat="49.00002" lon="7.7872">
        <ele>190.8</ele>
      </trkpt>
      <trkpt lat="49.00031" lon="7.78738">
        <ele>190.8</ele>
        <extensions>
          <visugpx:TrkExtension xmlns:visugpx="https://www.visugpx.com/editgpx/">
            <visugpx:node>13</visugpx:node>
            </visugpx:TrkExtension>
        </extensions>
      </trkpt>
      <trkpt lat="49.00066" lon="7.78759">
        <ele>192.9</ele>
      </trkpt>
      <trkpt lat="49.0009" lon="7.78785">
        <ele>191.7</ele>
      </trkpt>
      <trkpt lat="49.00128" lon="7.78841">
        <ele>194.8</ele>
      </trkpt>
      <trkpt lat="49.00146" lon="7.78864">
        <ele>194.4</ele>
      </trkpt>
      <trkpt lat="49.00148" lon="7.78866">
        <ele>194.4</ele>
      </trkpt>
      <trkpt lat="49.00172" lon="7.78899">
        <ele>192.1</ele>
      </trkpt>
      <trkpt lat="49.00176" lon="7.78905">
        <ele>192.4</ele>
      </trkpt>
      <trkpt lat="49.00183" lon="7.78913">
        <ele>192.3</ele>
      </trkpt>
      <trkpt lat="49.00187" lon="7.78917">
        <ele>193.9</ele>
      </trkpt>
      <trkpt lat="49.00201" lon="7.78924">
        <ele>193.7</ele>
      </trkpt>
      <trkpt lat="49.00266" lon="7.78958">
        <ele>191.5</ele>
      </trkpt>
      <trkpt lat="49.00342" lon="7.7899">
        <ele>191.5</ele>
      </trkpt>
      <trkpt lat="49.00356" lon="7.78992">
        <ele>191.8</ele>
      </trkpt>
      <trkpt lat="49.00358" lon="7.78987">
        <ele>191.9</ele>
      </trkpt>
      <trkpt lat="49.00361" lon="7.78985">
        <ele>192</ele>
      </trkpt>
      <trkpt lat="49.00365" lon="7.78985">
        <ele>192</ele>
      </trkpt>
      <trkpt lat="49.00368" lon="7.78988">
        <ele>192.1</ele>
      </trkpt>
      <trkpt lat="49.00369" lon="7.78992">
        <ele>192.1</ele>
      </trkpt>
      <trkpt lat="49.0037" lon="7.78997">
        <ele>192.1</ele>
      </trkpt>
      <trkpt lat="49.00381" lon="7.79002">
        <ele>192.9</ele>
      </trkpt>
      <trkpt lat="49.00439" lon="7.79015">
        <ele>196.5</ele>
      </trkpt>
      <trkpt lat="49.00453" lon="7.79017">
        <ele>197.5</ele>
      </trkpt>
      <trkpt lat="49.00461" lon="7.79017">
        <ele>197.9</ele>
      </trkpt>
      <trkpt lat="49.00519" lon="7.79002">
        <ele>201.6</ele>
      </trkpt>
      <trkpt lat="49.00526" lon="7.79">
        <ele>200.6</ele>
      </trkpt>
      <trkpt lat="49.00534" lon="7.78998">
        <ele>199.2</ele>
      </trkpt>
      <trkpt lat="49.00586" lon="7.78981">
        <ele>200.2</ele>
      </trkpt>
      <trkpt lat="49.00615" lon="7.78971">
        <ele>199.3</ele>
      </trkpt>
      <trkpt lat="49.0062" lon="7.7897">
        <ele>199.2</ele>
      </trkpt>
      <trkpt lat="49.00643" lon="7.78962">
        <ele>198.9</ele>
      </trkpt>
      <trkpt lat="49.00683" lon="7.78949">
        <ele>197.8</ele>
      </trkpt>
      <trkpt lat="49.00694" lon="7.78947">
        <ele>197.8</ele>
      </trkpt>
      <trkpt lat="49.00766" lon="7.78923">
        <ele>196.5</ele>
      </trkpt>
      <trkpt lat="49.00782" lon="7.78922">
        <ele>197</ele>
      </trkpt>
      <trkpt lat="49.0085" lon="7.78899">
        <ele>195.2</ele>
      </trkpt>
      <trkpt lat="49.0086" lon="7.78894">
        <ele>195.3</ele>
      </trkpt>
      <trkpt lat="49.0089" lon="7.78885">
        <ele>195.7</ele>
        <extensions>
          <visugpx:TrkExtension xmlns:visugpx="https://www.visugpx.com/editgpx/">
            <visugpx:node>14</visugpx:node>
            </visugpx:TrkExtension>
        </extensions>
      </trkpt>
      <trkpt lat="49.00923" lon="7.78875">
        <ele>199.1</ele>
      </trkpt>
      <trkpt lat="49.00953" lon="7.78866">
        <ele>200.1</ele>
      </trkpt>
      <trkpt lat="49.00981" lon="7.78855">
        <ele>201.3</ele>
      </trkpt>
      <trkpt lat="49.00991" lon="7.78848">
        <ele>201.8</ele>
      </trkpt>
      <trkpt lat="49.01001" lon="7.78837">
        <ele>204.7</ele>
      </trkpt>
      <trkpt lat="49.01018" lon="7.78832">
        <ele>206.1</ele>
      </trkpt>
      <trkpt lat="49.01042" lon="7.78813">
        <ele>209.2</ele>
      </trkpt>
      <trkpt lat="49.01054" lon="7.78805">
        <ele>210.4</ele>
      </trkpt>
      <trkpt lat="49.0106" lon="7.78783">
        <ele>209.3</ele>
      </trkpt>
      <trkpt lat="49.0107" lon="7.78758">
        <ele>209.5</ele>
      </trkpt>
      <trkpt lat="49.0108" lon="7.78746">
        <ele>209.1</ele>
      </trkpt>
      <trkpt lat="49.01088" lon="7.78747">
        <ele>212.2</ele>
      </trkpt>
      <trkpt lat="49.01097" lon="7.78751">
        <ele>217.7</ele>
      </trkpt>
      <trkpt lat="49.01116" lon="7.78771">
        <ele>224.3</ele>
      </trkpt>
      <trkpt lat="49.01133" lon="7.78763">
        <ele>226.6</ele>
      </trkpt>
      <trkpt lat="49.0114" lon="7.78749">
        <ele>221.6</ele>
      </trkpt>
      <trkpt lat="49.01154" lon="7.78752">
        <ele>229.7</ele>
      </trkpt>
      <trkpt lat="49.0116" lon="7.78756">
        <ele>230.5</ele>
      </trkpt>
      <trkpt lat="49.01167" lon="7.78767">
        <ele>237.4</ele>
      </trkpt>
      <trkpt lat="49.01178" lon="7.78769">
        <ele>238.7</ele>
      </trkpt>
      <trkpt lat="49.01188" lon="7.78764">
        <ele>239.4</ele>
      </trkpt>
      <trkpt lat="49.01218" lon="7.78729">
        <ele>237.7</ele>
      </trkpt>
      <trkpt lat="49.01232" lon="7.78714">
        <ele>238.3</ele>
      </trkpt>
      <trkpt lat="49.0124" lon="7.78726">
        <ele>240</ele>
      </trkpt>
      <trkpt lat="49.01245" lon="7.78726">
        <ele>240.4</ele>
      </trkpt>
      <trkpt lat="49.0125" lon="7.78719">
        <ele>253.1</ele>
      </trkpt>
      <trkpt lat="49.01258" lon="7.78697">
        <ele>253</ele>
      </trkpt>
      <trkpt lat="49.01261" lon="7.78663">
        <ele>246.4</ele>
      </trkpt>
      <trkpt lat="49.01262" lon="7.78626">
        <ele>247.1</ele>
      </trkpt>
      <trkpt lat="49.01277" lon="7.78589">
        <ele>245.2</ele>
      </trkpt>
      <trkpt lat="49.01291" lon="7.78569">
        <ele>237.7</ele>
      </trkpt>
      <trkpt lat="49.01315" lon="7.78556">
        <ele>241.6</ele>
      </trkpt>
      <trkpt lat="49.01321" lon="7.78549">
        <ele>240.9</ele>
      </trkpt>
      <trkpt lat="49.01322" lon="7.7854">
        <ele>239.1</ele>
      </trkpt>
      <trkpt lat="49.0133" lon="7.78514">
        <ele>237.1</ele>
      </trkpt>
      <trkpt lat="49.01363" lon="7.78468">
        <ele>241.9</ele>
      </trkpt>
      <trkpt lat="49.01394" lon="7.78415">
        <ele>234.5</ele>
      </trkpt>
      <trkpt lat="49.01403" lon="7.78395">
        <ele>233.7</ele>
        <extensions>
          <visugpx:TrkExtension xmlns:visugpx="https://www.visugpx.com/editgpx/">
            <visugpx:node>15</visugpx:node>
            </visugpx:TrkExtension>
        </extensions>
      </trkpt>
      <trkpt lat="49.01407" lon="7.78385">
        <ele>231.9</ele>
      </trkpt>
      <trkpt lat="49.01414" lon="7.78353">
        <ele>229.5</ele>
      </trkpt>
      <trkpt lat="49.01416" lon="7.78329">
        <ele>229.9</ele>
      </trkpt>
      <trkpt lat="49.01415" lon="7.7823">
        <ele>215.5</ele>
      </trkpt>
      <trkpt lat="49.01413" lon="7.78195">
        <ele>213.1</ele>
      </trkpt>
      <trkpt lat="49.01414" lon="7.78139">
        <ele>210.8</ele>
      </trkpt>
      <trkpt lat="49.0142" lon="7.78093">
        <ele>211.5</ele>
      </trkpt>
      <trkpt lat="49.01423" lon="7.78077">
        <ele>209.7</ele>
      </trkpt>
      <trkpt lat="49.01426" lon="7.78073">
        <ele>209.2</ele>
      </trkpt>
      <trkpt lat="49.0143" lon="7.78072">
        <ele>208.9</ele>
      </trkpt>
      <trkpt lat="49.01448" lon="7.78092">
        <ele>211.6</ele>
      </trkpt>
      <trkpt lat="49.01469" lon="7.78134">
        <ele>212.7</ele>
      </trkpt>
      <trkpt lat="49.01489" lon="7.78156">
        <ele>213.8</ele>
      </trkpt>
      <trkpt lat="49.01511" lon="7.78174">
        <ele>216.5</ele>
      </trkpt>
      <trkpt lat="49.01532" lon="7.78188">
        <ele>217.4</ele>
      </trkpt>
      <trkpt lat="49.01554" lon="7.78197">
        <ele>216.7</ele>
      </trkpt>
      <trkpt lat="49.01567" lon="7.78191">
        <ele>214.8</ele>
      </trkpt>
      <trkpt lat="49.01587" lon="7.78187">
        <ele>214</ele>
      </trkpt>
      <trkpt lat="49.01605" lon="7.78179">
        <ele>215.2</ele>
      </trkpt>
      <trkpt lat="49.01626" lon="7.78155">
        <ele>212.6</ele>
      </trkpt>
      <trkpt lat="49.01645" lon="7.78121">
        <ele>212.8</ele>
      </trkpt>
      <trkpt lat="49.01658" lon="7.78118">
        <ele>213.1</ele>
      </trkpt>
      <trkpt lat="49.0168" lon="7.78069">
        <ele>218.3</ele>
      </trkpt>
      <trkpt lat="49.0171" lon="7.77953">
        <ele>213.9</ele>
      </trkpt>
      <trkpt lat="49.01726" lon="7.77923">
        <ele>212.9</ele>
      </trkpt>
      <trkpt lat="49.0175" lon="7.77906">
        <ele>212</ele>
      </trkpt>
      <trkpt lat="49.01826" lon="7.77923">
        <ele>221.5</ele>
      </trkpt>
      <trkpt lat="49.01876" lon="7.77916">
        <ele>221.7</ele>
      </trkpt>
      <trkpt lat="49.0192" lon="7.77899">
        <ele>234.3</ele>
      </trkpt>
      <trkpt lat="49.0195" lon="7.77852">
        <ele>234.6</ele>
      </trkpt>
      <trkpt lat="49.0201" lon="7.77741">
        <ele>236.6</ele>
      </trkpt>
      <trkpt lat="49.02047" lon="7.77645">
        <ele>240</ele>
      </trkpt>
      <trkpt lat="49.02085" lon="7.77531">
        <ele>254.8</ele>
        <extensions>
          <visugpx:TrkExtension xmlns:visugpx="https://www.visugpx.com/editgpx/">
            <visugpx:node>16</visugpx:node>
            </visugpx:TrkExtension>
        </extensions>
      </trkpt>
      <trkpt lat="49.02109" lon="7.7746">
        <ele>246.9</ele>
      </trkpt>
      <trkpt lat="49.02152" lon="7.77393">
        <ele>241.8</ele>
      </trkpt>
      <trkpt lat="49.02281" lon="7.77304">
        <ele>266.2</ele>
      </trkpt>
      <trkpt lat="49.02321" lon="7.77254">
        <ele>267.3</ele>
      </trkpt>
      <trkpt lat="49.0238" lon="7.77206">
        <ele>263.1</ele>
      </trkpt>
      <trkpt lat="49.02406" lon="7.77208">
        <ele>263.8</ele>
      </trkpt>
      <trkpt lat="49.02421" lon="7.77231">
        <ele>268.6</ele>
      </trkpt>
      <trkpt lat="49.0246" lon="7.77308">
        <ele>284</ele>
      </trkpt>
      <trkpt lat="49.02472" lon="7.77328">
        <ele>285.2</ele>
      </trkpt>
      <trkpt lat="49.0249" lon="7.77327">
        <ele>286.1</ele>
      </trkpt>
      <trkpt lat="49.02495" lon="7.77303">
        <ele>283.5</ele>
      </trkpt>
      <trkpt lat="49.02487" lon="7.77244">
        <ele>270.4</ele>
      </trkpt>
      <trkpt lat="49.02492" lon="7.77207">
        <ele>263.7</ele>
      </trkpt>
      <trkpt lat="49.02508" lon="7.77192">
        <ele>260.6</ele>
      </trkpt>
      <trkpt lat="49.02536" lon="7.77206">
        <ele>264</ele>
      </trkpt>
      <trkpt lat="49.02596" lon="7.77225">
        <ele>270.9</ele>
      </trkpt>
      <trkpt lat="49.02676" lon="7.77234">
        <ele>273.3</ele>
      </trkpt>
      <trkpt lat="49.02762" lon="7.77219">
        <ele>268.7</ele>
      </trkpt>
      <trkpt lat="49.02839" lon="7.77203">
        <ele>264.1</ele>
        <extensions>
          <visugpx:TrkExtension xmlns:visugpx="https://www.visugpx.com/editgpx/">
            <visugpx:node>17</visugpx:node>
            </visugpx:TrkExtension>
        </extensions>
      </trkpt>
      <trkpt lat="49.02855" lon="7.772">
        <ele>263.3</ele>
      </trkpt>
      <trkpt lat="49.02892" lon="7.77188">
        <ele>260.8</ele>
      </trkpt>
      <trkpt lat="49.02908" lon="7.7718">
        <ele>258.6</ele>
      </trkpt>
      <trkpt lat="49.0291" lon="7.77132">
        <ele>250.8</ele>
      </trkpt>
      <trkpt lat="49.02922" lon="7.77071">
        <ele>241.1</ele>
      </trkpt>
      <trkpt lat="49.0294" lon="7.77056">
        <ele>236.7</ele>
      </trkpt>
      <trkpt lat="49.02961" lon="7.77063">
        <ele>235.6</ele>
      </trkpt>
      <trkpt lat="49.02982" lon="7.77095">
        <ele>238.8</ele>
      </trkpt>
      <trkpt lat="49.02995" lon="7.77133">
        <ele>239.6</ele>
      </trkpt>
      <trkpt lat="49.03007" lon="7.77163">
        <ele>232.7</ele>
      </trkpt>
      <trkpt lat="49.03019" lon="7.7716">
        <ele>230.2</ele>
      </trkpt>
      <trkpt lat="49.03029" lon="7.77146">
        <ele>228.3</ele>
      </trkpt>
      <trkpt lat="49.03043" lon="7.77116">
        <ele>226.6</ele>
      </trkpt>
      <trkpt lat="49.03042" lon="7.77083">
        <ele>225.5</ele>
      </trkpt>
      <trkpt lat="49.03034" lon="7.77058">
        <ele>226</ele>
      </trkpt>
      <trkpt lat="49.03021" lon="7.77039">
        <ele>226.3</ele>
      </trkpt>
      <trkpt lat="49.03053" lon="7.76998">
        <ele>219</ele>
      </trkpt>
      <trkpt lat="49.03074" lon="7.76978">
        <ele>217.8</ele>
      </trkpt>
      <trkpt lat="49.03097" lon="7.7695">
        <ele>212.1</ele>
      </trkpt>
      <trkpt lat="49.0312" lon="7.76918">
        <ele>210.6</ele>
      </trkpt>
      <trkpt lat="49.03126" lon="7.76921">
        <ele>210.5</ele>
      </trkpt>
      <trkpt lat="49.0314" lon="7.76928">
        <ele>210.1</ele>
      </trkpt>
      <trkpt lat="49.03144" lon="7.7693">
        <ele>210</ele>
      </trkpt>
      <trkpt lat="49.03176" lon="7.7695">
        <ele>211.7</ele>
      </trkpt>
      <trkpt lat="49.03204" lon="7.76964">
        <ele>213.8</ele>
      </trkpt>
      <trkpt lat="49.03216" lon="7.76965">
        <ele>214.4</ele>
      </trkpt>
      <trkpt lat="49.03217" lon="7.76982">
        <ele>216</ele>
      </trkpt>
      <trkpt lat="49.03245" lon="7.7699">
        <ele>221.3</ele>
      </trkpt>
      <trkpt lat="49.03266" lon="7.7699">
        <ele>222.2</ele>
      </trkpt>
      <trkpt lat="49.03279" lon="7.76993">
        <ele>221.8</ele>
      </trkpt>
      <trkpt lat="49.03292" lon="7.76989">
        <ele>221.7</ele>
      </trkpt>
      <trkpt lat="49.03296" lon="7.7699">
        <ele>222</ele>
      </trkpt>
      <trkpt lat="49.03302" lon="7.76985">
        <ele>222</ele>
      </trkpt>
      <trkpt lat="49.03333" lon="7.76976">
        <ele>223</ele>
      </trkpt>
      <trkpt lat="49.0335" lon="7.76957">
        <ele>223.6</ele>
      </trkpt>
      <trkpt lat="49.0335" lon="7.76958">
        <ele>223.8</ele>
      </trkpt>
      <trkpt lat="49.03414" lon="7.76939">
        <ele>222.8</ele>
      </trkpt>
      <trkpt lat="49.03468" lon="7.76942">
        <ele>232.9</ele>
      </trkpt>
      <trkpt lat="49.03627" lon="7.76925">
        <ele>245.4</ele>
      </trkpt>
      <trkpt lat="49.0366" lon="7.76929">
        <ele>244.5</ele>
      </trkpt>
      <trkpt lat="49.0369" lon="7.76955">
        <ele>246.4</ele>
      </trkpt>
      <trkpt lat="49.03705" lon="7.76999">
        <ele>249.1</ele>
      </trkpt>
      <trkpt lat="49.03718" lon="7.77029">
        <ele>257.5</ele>
      </trkpt>
      <trkpt lat="49.03724" lon="7.77023">
        <ele>256.2</ele>
      </trkpt>
      <trkpt lat="49.03727" lon="7.77012">
        <ele>254.7</ele>
      </trkpt>
      <trkpt lat="49.03727" lon="7.76969">
        <ele>245.5</ele>
      </trkpt>
      <trkpt lat="49.0373" lon="7.7694">
        <ele>242.5</ele>
      </trkpt>
      <trkpt lat="49.03738" lon="7.76879">
        <ele>231.6</ele>
      </trkpt>
      <trkpt lat="49.0374" lon="7.76854">
        <ele>229.1</ele>
      </trkpt>
      <trkpt lat="49.03736" lon="7.76836">
        <ele>227.7</ele>
      </trkpt>
      <trkpt lat="49.03733" lon="7.76832">
        <ele>222.4</ele>
      </trkpt>
      <trkpt lat="49.03726" lon="7.76804">
        <ele>220.1</ele>
      </trkpt>
      <trkpt lat="49.03724" lon="7.7678">
        <ele>218.2</ele>
      </trkpt>
      <trkpt lat="49.03733" lon="7.76762">
        <ele>216.6</ele>
      </trkpt>
      <trkpt lat="49.03742" lon="7.76755">
        <ele>215.5</ele>
      </trkpt>
      <trkpt lat="49.03755" lon="7.76752">
        <ele>215.9</ele>
      </trkpt>
      <trkpt lat="49.0376" lon="7.76754">
        <ele>217.4</ele>
      </trkpt>
      <trkpt lat="49.03774" lon="7.76781">
        <ele>221.9</ele>
      </trkpt>
      <trkpt lat="49.03793" lon="7.76807">
        <ele>224.4</ele>
      </trkpt>
      <trkpt lat="49.03806" lon="7.76834">
        <ele>230.7</ele>
      </trkpt>
      <trkpt lat="49.03813" lon="7.76848">
        <ele>231.1</ele>
      </trkpt>
      <trkpt lat="49.03821" lon="7.76857">
        <ele>231.4</ele>
      </trkpt>
      <trkpt lat="49.03835" lon="7.76866">
        <ele>237.8</ele>
      </trkpt>
      <trkpt lat="49.03852" lon="7.76868">
        <ele>239</ele>
      </trkpt>
      <trkpt lat="49.03861" lon="7.76868">
        <ele>239.9</ele>
      </trkpt>
      <trkpt lat="49.03872" lon="7.76847">
        <ele>240.5</ele>
      </trkpt>
      <trkpt lat="49.03885" lon="7.76822">
        <ele>237.9</ele>
      </trkpt>
      <trkpt lat="49.03896" lon="7.7681">
        <ele>238.5</ele>
      </trkpt>
      <trkpt lat="49.03921" lon="7.76792">
        <ele>247.6</ele>
      </trkpt>
      <trkpt lat="49.03934" lon="7.76769">
        <ele>245.7</ele>
      </trkpt>
      <trkpt lat="49.0394" lon="7.76743">
        <ele>239.3</ele>
      </trkpt>
      <trkpt lat="49.03933" lon="7.76717">
        <ele>238.2</ele>
      </trkpt>
      <trkpt lat="49.03929" lon="7.76679">
        <ele>233.4</ele>
      </trkpt>
      <trkpt lat="49.03913" lon="7.76624">
        <ele>218.7</ele>
      </trkpt>
      <trkpt lat="49.03907" lon="7.76614">
        <ele>218</ele>
      </trkpt>
      <trkpt lat="49.03901" lon="7.76608">
        <ele>217.6</ele>
      </trkpt>
      <trkpt lat="49.03894" lon="7.76597">
        <ele>217.1</ele>
      </trkpt>
      <trkpt lat="49.03898" lon="7.76583">
        <ele>216.8</ele>
      </trkpt>
      <trkpt lat="49.03888" lon="7.76566">
        <ele>215.5</ele>
      </trkpt>
      <trkpt lat="49.0388" lon="7.7655">
        <ele>215</ele>
      </trkpt>
      <trkpt lat="49.03872" lon="7.76535">
        <ele>215.2</ele>
      </trkpt>
      <trkpt lat="49.03866" lon="7.76525">
        <ele>215.6</ele>
      </trkpt>
      <trkpt lat="49.03851" lon="7.76504">
        <ele>217.6</ele>
      </trkpt>
      <trkpt lat="49.03833" lon="7.76516">
        <ele>220.5</ele>
      </trkpt>
      <trkpt lat="49.03814" lon="7.76532">
        <ele>220</ele>
      </trkpt>
      <trkpt lat="49.03803" lon="7.76559">
        <ele>217.8</ele>
      </trkpt>
      <trkpt lat="49.03778" lon="7.76599">
        <ele>211.9</ele>
      </trkpt>
      <trkpt lat="49.03736" lon="7.76626">
        <ele>214.4</ele>
      </trkpt>
      <trkpt lat="49.03689" lon="7.76634">
        <ele>215.3</ele>
      </trkpt>
      <trkpt lat="49.0363" lon="7.76616">
        <ele>223.6</ele>
      </trkpt>
      <trkpt lat="49.03607" lon="7.76619">
        <ele>224.5</ele>
      </trkpt>
      <trkpt lat="49.03574" lon="7.76618">
        <ele>233.8</ele>
      </trkpt>
      <trkpt lat="49.03549" lon="7.76629">
        <ele>234.5</ele>
      </trkpt>
      <trkpt lat="49.03498" lon="7.76656">
        <ele>240.2</ele>
      </trkpt>
      <trkpt lat="49.03464" lon="7.76705">
        <ele>228.2</ele>
      </trkpt>
      <trkpt lat="49.03433" lon="7.76727">
        <ele>225.1</ele>
      </trkpt>
      <trkpt lat="49.03388" lon="7.76741">
        <ele>223.4</ele>
      </trkpt>
      <trkpt lat="49.03298" lon="7.76692">
        <ele>219.5</ele>
      </trkpt>
      <trkpt lat="49.03189" lon="7.76615">
        <ele>211.7</ele>
      </trkpt>
      <trkpt lat="49.03185" lon="7.76612">
        <ele>211.3</ele>
      </trkpt>
      <trkpt lat="49.03148" lon="7.76528">
        <ele>205.6</ele>
      </trkpt>
      <trkpt lat="49.03147" lon="7.76519">
        <ele>206.1</ele>
        <extensions>
          <visugpx:TrkExtension xmlns:visugpx="https://www.visugpx.com/editgpx/">
            <visugpx:node>18</visugpx:node>
            </visugpx:TrkExtension>
        </extensions>
      </trkpt>
      <trkpt lat="49.03143" lon="7.76455">
        <ele>207.2</ele>
      </trkpt>
      <trkpt lat="49.03197" lon="7.76205">
        <ele>213.8</ele>
      </trkpt>
      <trkpt lat="49.03244" lon="7.76088">
        <ele>210.4</ele>
      </trkpt>
      <trkpt lat="49.03253" lon="7.76088">
        <ele>212.8</ele>
      </trkpt>
      <trkpt lat="49.03262" lon="7.76042">
        <ele>215.7</ele>
      </trkpt>
      <trkpt lat="49.03272" lon="7.76015">
        <ele>215.2</ele>
      </trkpt>
      <trkpt lat="49.03275" lon="7.75998">
        <ele>214.9</ele>
      </trkpt>
      <trkpt lat="49.03273" lon="7.75951">
        <ele>216.1</ele>
      </trkpt>
      <trkpt lat="49.03263" lon="7.75871">
        <ele>216.7</ele>
      </trkpt>
      <trkpt lat="49.03264" lon="7.75853">
        <ele>215.8</ele>
      </trkpt>
      <trkpt lat="49.03276" lon="7.75788">
        <ele>221.6</ele>
      </trkpt>
      <trkpt lat="49.03282" lon="7.75745">
        <ele>225</ele>
      </trkpt>
      <trkpt lat="49.03284" lon="7.75734">
        <ele>226</ele>
      </trkpt>
      <trkpt lat="49.03289" lon="7.75697">
        <ele>228</ele>
      </trkpt>
      <trkpt lat="49.03315" lon="7.75462">
        <ele>229.4</ele>
      </trkpt>
      <trkpt lat="49.03351" lon="7.75232">
        <ele>241.6</ele>
      </trkpt>
      <trkpt lat="49.03384" lon="7.75096">
        <ele>251.7</ele>
      </trkpt>
      <trkpt lat="49.03388" lon="7.75017">
        <ele>254.4</ele>
        <extensions>
          <visugpx:TrkExtension xmlns:visugpx="https://www.visugpx.com/editgpx/">
            <visugpx:node>19</visugpx:node>
            </visugpx:TrkExtension>
        </extensions>
      </trkpt>
      <trkpt lat="49.03392" lon="7.74954">
        <ele>256.6</ele>
      </trkpt>
      <trkpt lat="49.03375" lon="7.74847">
        <ele>254.6</ele>
      </trkpt>
      <trkpt lat="49.03383" lon="7.74765">
        <ele>254.2</ele>
      </trkpt>
      <trkpt lat="49.03542" lon="7.74671">
        <ele>273.9</ele>
      </trkpt>
      <trkpt lat="49.03594" lon="7.74664">
        <ele>278.2</ele>
      </trkpt>
      <trkpt lat="49.03619" lon="7.74644">
        <ele>280.1</ele>
      </trkpt>
      <trkpt lat="49.03647" lon="7.74632">
        <ele>281.6</ele>
      </trkpt>
      <trkpt lat="49.03694" lon="7.74624">
        <ele>291.2</ele>
      </trkpt>
      <trkpt lat="49.03675" lon="7.74604">
        <ele>288.1</ele>
      </trkpt>
      <trkpt lat="49.03609" lon="7.74574">
        <ele>277.3</ele>
      </trkpt>
      <trkpt lat="49.03527" lon="7.74554">
        <ele>266</ele>
      </trkpt>
      <trkpt lat="49.03416" lon="7.74614">
        <ele>247.5</ele>
      </trkpt>
      <trkpt lat="49.03394" lon="7.74632">
        <ele>247.1</ele>
      </trkpt>
      <trkpt lat="49.03344" lon="7.74684">
        <ele>242.8</ele>
      </trkpt>
      <trkpt lat="49.03325" lon="7.74709">
        <ele>237.7</ele>
      </trkpt>
      <trkpt lat="49.03305" lon="7.74721">
        <ele>236.9</ele>
      </trkpt>
      <trkpt lat="49.03291" lon="7.74741">
        <ele>235.1</ele>
      </trkpt>
      <trkpt lat="49.03274" lon="7.74756">
        <ele>228.2</ele>
      </trkpt>
      <trkpt lat="49.03265" lon="7.74784">
        <ele>227.8</ele>
      </trkpt>
      <trkpt lat="49.03257" lon="7.74805">
        <ele>226</ele>
      </trkpt>
      <trkpt lat="49.03246" lon="7.74826">
        <ele>218.8</ele>
      </trkpt>
      <trkpt lat="49.03229" lon="7.74848">
        <ele>220.1</ele>
      </trkpt>
      <trkpt lat="49.03225" lon="7.74852">
        <ele>220.4</ele>
      </trkpt>
      <trkpt lat="49.03221" lon="7.74857">
        <ele>220.6</ele>
      </trkpt>
      <trkpt lat="49.03214" lon="7.74868">
        <ele>221.1</ele>
      </trkpt>
      <trkpt lat="49.03203" lon="7.74897">
        <ele>222.3</ele>
      </trkpt>
      <trkpt lat="49.03194" lon="7.7492">
        <ele>224.7</ele>
      </trkpt>
      <trkpt lat="49.03189" lon="7.74913">
        <ele>224.6</ele>
      </trkpt>
      <trkpt lat="49.03175" lon="7.7489">
        <ele>224.3</ele>
      </trkpt>
      <trkpt lat="49.03156" lon="7.74866">
        <ele>229.6</ele>
      </trkpt>
      <trkpt lat="49.03132" lon="7.7483">
        <ele>226.1</ele>
      </trkpt>
      <trkpt lat="49.03117" lon="7.74797">
        <ele>226.9</ele>
      </trkpt>
      <trkpt lat="49.03078" lon="7.74811">
        <ele>235.7</ele>
      </trkpt>
      <trkpt lat="49.03012" lon="7.74803">
        <ele>240.9</ele>
      </trkpt>
      <trkpt lat="49.02959" lon="7.74793">
        <ele>252.9</ele>
      </trkpt>
      <trkpt lat="49.02974" lon="7.74774">
        <ele>252.3</ele>
      </trkpt>
      <trkpt lat="49.02983" lon="7.74759">
        <ele>251.4</ele>
      </trkpt>
      <trkpt lat="49.02985" lon="7.74742">
        <ele>252.8</ele>
      </trkpt>
      <trkpt lat="49.02983" lon="7.74725">
        <ele>254.1</ele>
        <extensions>
          <visugpx:TrkExtension xmlns:visugpx="https://www.visugpx.com/editgpx/">
            <visugpx:node>20</visugpx:node>
            </visugpx:TrkExtension>
        </extensions>
      </trkpt>
      <trkpt lat="49.02983" lon="7.74718">
        <ele>254.3</ele>
      </trkpt>
      <trkpt lat="49.02962" lon="7.74636">
        <ele>252.3</ele>
      </trkpt>
      <trkpt lat="49.02904" lon="7.745">
        <ele>255.5</ele>
      </trkpt>
      <trkpt lat="49.02879" lon="7.74466">
        <ele>254.1</ele>
      </trkpt>
      <trkpt lat="49.02848" lon="7.7436">
        <ele>251.8</ele>
      </trkpt>
      <trkpt lat="49.02845" lon="7.74354">
        <ele>252.3</ele>
      </trkpt>
      <trkpt lat="49.02836" lon="7.74351">
        <ele>253</ele>
      </trkpt>
      <trkpt lat="49.02827" lon="7.74341">
        <ele>260.3</ele>
      </trkpt>
      <trkpt lat="49.02824" lon="7.74334">
        <ele>260.2</ele>
      </trkpt>
      <trkpt lat="49.02825" lon="7.74316">
        <ele>263.4</ele>
      </trkpt>
      <trkpt lat="49.0283" lon="7.7431">
        <ele>264.1</ele>
      </trkpt>
      <trkpt lat="49.02869" lon="7.74288">
        <ele>252.6</ele>
      </trkpt>
      <trkpt lat="49.0289" lon="7.74269">
        <ele>251</ele>
      </trkpt>
      <trkpt lat="49.02895" lon="7.74255">
        <ele>250.4</ele>
      </trkpt>
      <trkpt lat="49.02894" lon="7.74231">
        <ele>251.9</ele>
      </trkpt>
      <trkpt lat="49.02805" lon="7.73981">
        <ele>244</ele>
      </trkpt>
      <trkpt lat="49.02796" lon="7.73953">
        <ele>244</ele>
      </trkpt>
      <trkpt lat="49.02798" lon="7.73921">
        <ele>241</ele>
      </trkpt>
      <trkpt lat="49.02787" lon="7.73909">
        <ele>238.9</ele>
      </trkpt>
      <trkpt lat="49.02765" lon="7.73866">
        <ele>240.3</ele>
      </trkpt>
      <trkpt lat="49.02638" lon="7.73791">
        <ele>271.2</ele>
      </trkpt>
      <trkpt lat="49.0256" lon="7.73743">
        <ele>275.1</ele>
      </trkpt>
      <trkpt lat="49.02521" lon="7.73718">
        <ele>277.5</ele>
      </trkpt>
      <trkpt lat="49.0245" lon="7.73701">
        <ele>290.5</ele>
      </trkpt>
      <trkpt lat="49.02423" lon="7.73702">
        <ele>292.2</ele>
      </trkpt>
      <trkpt lat="49.02385" lon="7.73718">
        <ele>298.3</ele>
      </trkpt>
      <trkpt lat="49.02366" lon="7.73732">
        <ele>299.7</ele>
      </trkpt>
      <trkpt lat="49.02319" lon="7.73806">
        <ele>319.9</ele>
      </trkpt>
      <trkpt lat="49.02256" lon="7.73936">
        <ele>354</ele>
      </trkpt>
      <trkpt lat="49.02223" lon="7.73972">
        <ele>363.2</ele>
      </trkpt>
      <trkpt lat="49.02205" lon="7.73993">
        <ele>366.3</ele>
      </trkpt>
      <trkpt lat="49.02164" lon="7.7398">
        <ele>379.1</ele>
      </trkpt>
      <trkpt lat="49.02087" lon="7.73832">
        <ele>374.6</ele>
      </trkpt>
      <trkpt lat="49.02001" lon="7.73749">
        <ele>370.1</ele>
      </trkpt>
      <trkpt lat="49.01938" lon="7.73774">
        <ele>378.4</ele>
      </trkpt>
      <trkpt lat="49.01873" lon="7.73809">
        <ele>389.2</ele>
      </trkpt>
      <trkpt lat="49.01826" lon="7.73781">
        <ele>401.8</ele>
      </trkpt>
      <trkpt lat="49.01784" lon="7.73684">
        <ele>398.1</ele>
      </trkpt>
      <trkpt lat="49.01728" lon="7.73525">
        <ele>407</ele>
      </trkpt>
      <trkpt lat="49.01653" lon="7.7342">
        <ele>408.3</ele>
      </trkpt>
      <trkpt lat="49.01565" lon="7.73291">
        <ele>407.8</ele>
      </trkpt>
      <trkpt lat="49.01543" lon="7.73285">
        <ele>409.7</ele>
      </trkpt>
      <trkpt lat="49.01538" lon="7.73275">
        <ele>409.5</ele>
        <extensions>
          <visugpx:TrkExtension xmlns:visugpx="https://www.visugpx.com/editgpx/">
            <visugpx:node>21</visugpx:node>
            </visugpx:TrkExtension>
        </extensions>
      </trkpt>
      <trkpt lat="49.01527" lon="7.73252">
        <ele>409.8</ele>
      </trkpt>
      <trkpt lat="49.01461" lon="7.73107">
        <ele>403.6</ele>
      </trkpt>
      <trkpt lat="49.01444" lon="7.73053">
        <ele>398.8</ele>
      </trkpt>
      <trkpt lat="49.01426" lon="7.72847">
        <ele>394.7</ele>
      </trkpt>
      <trkpt lat="49.01423" lon="7.72841">
        <ele>394.8</ele>
      </trkpt>
      <trkpt lat="49.0139" lon="7.72806">
        <ele>394.2</ele>
      </trkpt>
      <trkpt lat="49.01371" lon="7.72787">
        <ele>393.6</ele>
      </trkpt>
      <trkpt lat="49.01294" lon="7.72658">
        <ele>387.2</ele>
      </trkpt>
      <trkpt lat="49.01218" lon="7.72559">
        <ele>381.3</ele>
      </trkpt>
      <trkpt lat="49.01146" lon="7.7251">
        <ele>372</ele>
      </trkpt>
      <trkpt lat="49.01094" lon="7.72494">
        <ele>373.5</ele>
      </trkpt>
      <trkpt lat="49.0102" lon="7.72515">
        <ele>359.6</ele>
      </trkpt>
      <trkpt lat="49.00959" lon="7.72544">
        <ele>349.5</ele>
      </trkpt>
      <trkpt lat="49.00936" lon="7.72543">
        <ele>348</ele>
      </trkpt>
      <trkpt lat="49.00919" lon="7.72455">
        <ele>350.1</ele>
      </trkpt>
      <trkpt lat="49.00906" lon="7.72474">
        <ele>351.1</ele>
      </trkpt>
      <trkpt lat="49.00907" lon="7.72487">
        <ele>349.8</ele>
        <extensions>
          <visugpx:TrkExtension xmlns:visugpx="https://www.visugpx.com/editgpx/">
            <visugpx:node>22</visugpx:node>
            </visugpx:TrkExtension>
        </extensions>
      </trkpt>
      <trkpt lat="49.00906" lon="7.72474">
        <ele>351.1</ele>
      </trkpt>
      <trkpt lat="49.00919" lon="7.72455">
        <ele>350.1</ele>
      </trkpt>
      <trkpt lat="49.00913" lon="7.72381">
        <ele>351.2</ele>
      </trkpt>
      <trkpt lat="49.00928" lon="7.72361">
        <ele>348.8</ele>
      </trkpt>
      <trkpt lat="49.00927" lon="7.72353">
        <ele>348.3</ele>
      </trkpt>
      <trkpt lat="49.00909" lon="7.72336">
        <ele>347.7</ele>
      </trkpt>
      <trkpt lat="49.0089" lon="7.72324">
        <ele>354.1</ele>
      </trkpt>
      <trkpt lat="49.00849" lon="7.72286">
        <ele>361</ele>
      </trkpt>
      <trkpt lat="49.00817" lon="7.72302">
        <ele>368.7</ele>
      </trkpt>
      <trkpt lat="49.00785" lon="7.72278">
        <ele>370.9</ele>
      </trkpt>
      <trkpt lat="49.00743" lon="7.72247">
        <ele>378</ele>
      </trkpt>
      <trkpt lat="49.00746" lon="7.72294">
        <ele>375.7</ele>
      </trkpt>
      <trkpt lat="49.00728" lon="7.72322">
        <ele>375.1</ele>
      </trkpt>
      <trkpt lat="49.00715" lon="7.72333">
        <ele>375.7</ele>
      </trkpt>
      <trkpt lat="49.00692" lon="7.72315">
        <ele>376.9</ele>
      </trkpt>
      <trkpt lat="49.00661" lon="7.72254">
        <ele>382.7</ele>
      </trkpt>
      <trkpt lat="49.00627" lon="7.72153">
        <ele>397.5</ele>
      </trkpt>
      <trkpt lat="49.00582" lon="7.72044">
        <ele>405.7</ele>
      </trkpt>
      <trkpt lat="49.00528" lon="7.71991">
        <ele>416.1</ele>
      </trkpt>
      <trkpt lat="49.00469" lon="7.71958">
        <ele>417.9</ele>
      </trkpt>
      <trkpt lat="49.00425" lon="7.71915">
        <ele>417.1</ele>
      </trkpt>
      <trkpt lat="49.00401" lon="7.71887">
        <ele>410</ele>
      </trkpt>
      <trkpt lat="49.00382" lon="7.7185">
        <ele>408.1</ele>
      </trkpt>
      <trkpt lat="49.00345" lon="7.71808">
        <ele>403.4</ele>
      </trkpt>
      <trkpt lat="49.00323" lon="7.71845">
        <ele>389.9</ele>
      </trkpt>
      <trkpt lat="49.00299" lon="7.71807">
        <ele>380.6</ele>
      </trkpt>
      <trkpt lat="49.0026" lon="7.719">
        <ele>382.4</ele>
      </trkpt>
      <trkpt lat="49.00249" lon="7.71813">
        <ele>360.4</ele>
      </trkpt>
      <trkpt lat="49.00212" lon="7.7185">
        <ele>367.5</ele>
      </trkpt>
      <trkpt lat="49.00205" lon="7.718">
        <ele>356.3</ele>
      </trkpt>
      <trkpt lat="49.0019" lon="7.71801">
        <ele>355.4</ele>
      </trkpt>
      <trkpt lat="49.00173" lon="7.71802">
        <ele>354.8</ele>
      </trkpt>
      <trkpt lat="49.0014" lon="7.71771">
        <ele>351.8</ele>
        <extensions>
          <visugpx:TrkExtension xmlns:visugpx="https://www.visugpx.com/editgpx/">
            <visugpx:node>23</visugpx:node>
            </visugpx:TrkExtension>
        </extensions>
      </trkpt>
      <trkpt lat="49.00106" lon="7.71738">
        <ele>344.8</ele>
      </trkpt>
      <trkpt lat="49.00056" lon="7.71592">
        <ele>334.1</ele>
      </trkpt>
      <trkpt lat="49.0003" lon="7.71456">
        <ele>314.8</ele>
      </trkpt>
      <trkpt lat="49.00007" lon="7.71421">
        <ele>308</ele>
      </trkpt>
      <trkpt lat="48.99934" lon="7.71404">
        <ele>292.5</ele>
      </trkpt>
      <trkpt lat="48.99853" lon="7.71311">
        <ele>299.3</ele>
      </trkpt>
      <trkpt lat="48.99847" lon="7.71282">
        <ele>298.9</ele>
      </trkpt>
      <trkpt lat="48.99827" lon="7.71236">
        <ele>305.7</ele>
      </trkpt>
      <trkpt lat="48.99772" lon="7.7113">
        <ele>310.2</ele>
      </trkpt>
      <trkpt lat="48.99653" lon="7.70957">
        <ele>325.8</ele>
      </trkpt>
      <trkpt lat="48.99588" lon="7.70872">
        <ele>322.7</ele>
      </trkpt>
      <trkpt lat="48.9955" lon="7.70835">
        <ele>330.9</ele>
      </trkpt>
      <trkpt lat="48.99506" lon="7.70809">
        <ele>326.7</ele>
      </trkpt>
      <trkpt lat="48.9943" lon="7.70767">
        <ele>336.1</ele>
        <extensions>
          <visugpx:TrkExtension xmlns:visugpx="https://www.visugpx.com/editgpx/">
            <visugpx:node>24</visugpx:node>
            </visugpx:TrkExtension>
        </extensions>
      </trkpt>
      <trkpt lat="48.99416" lon="7.70759">
        <ele>340</ele>
      </trkpt>
      <trkpt lat="48.99334" lon="7.70646">
        <ele>337.9</ele>
      </trkpt>
      <trkpt lat="48.99258" lon="7.70522">
        <ele>351.5</ele>
      </trkpt>
      <trkpt lat="48.99199" lon="7.70317">
        <ele>367</ele>
      </trkpt>
      <trkpt lat="48.99136" lon="7.70243">
        <ele>366.4</ele>
      </trkpt>
      <trkpt lat="48.99106" lon="7.70213">
        <ele>365.5</ele>
      </trkpt>
      <trkpt lat="48.99088" lon="7.70177">
        <ele>361.4</ele>
      </trkpt>
      <trkpt lat="48.9907" lon="7.70103">
        <ele>357.1</ele>
      </trkpt>
      <trkpt lat="48.99058" lon="7.70001">
        <ele>349.6</ele>
      </trkpt>
      <trkpt lat="48.99019" lon="7.69941">
        <ele>346.1</ele>
      </trkpt>
      <trkpt lat="48.98952" lon="7.69913">
        <ele>344.4</ele>
      </trkpt>
      <trkpt lat="48.98886" lon="7.69892">
        <ele>340.2</ele>
      </trkpt>
      <trkpt lat="48.9882" lon="7.6994">
        <ele>327.7</ele>
      </trkpt>
      <trkpt lat="48.98792" lon="7.69945">
        <ele>325.3</ele>
      </trkpt>
      <trkpt lat="48.98768" lon="7.69942">
        <ele>323.5</ele>
      </trkpt>
      <trkpt lat="48.98741" lon="7.69989">
        <ele>315.8</ele>
      </trkpt>
      <trkpt lat="48.98738" lon="7.69991">
        <ele>315.8</ele>
        <extensions>
          <visugpx:TrkExtension xmlns:visugpx="https://www.visugpx.com/editgpx/">
            <visugpx:node>25</visugpx:node>
            </visugpx:TrkExtension>
        </extensions>
      </trkpt>
      <trkpt lat="48.98717" lon="7.70004">
        <ele>316.4</ele>
      </trkpt>
      <trkpt lat="48.9867" lon="7.69991">
        <ele>314.8</ele>
      </trkpt>
      <trkpt lat="48.98606" lon="7.69952">
        <ele>313</ele>
      </trkpt>
      <trkpt lat="48.9858" lon="7.69925">
        <ele>311.1</ele>
      </trkpt>
      <trkpt lat="48.98564" lon="7.69877">
        <ele>308.9</ele>
      </trkpt>
      <trkpt lat="48.9852" lon="7.69809">
        <ele>304.2</ele>
      </trkpt>
      <trkpt lat="48.9848" lon="7.69737">
        <ele>297.2</ele>
      </trkpt>
      <trkpt lat="48.9842" lon="7.69692">
        <ele>296.3</ele>
      </trkpt>
      <trkpt lat="48.98352" lon="7.69635">
        <ele>291.9</ele>
      </trkpt>
      <trkpt lat="48.98316" lon="7.69599">
        <ele>282.4</ele>
      </trkpt>
      <trkpt lat="48.98289" lon="7.69555">
        <ele>282.7</ele>
      </trkpt>
      <trkpt lat="48.98246" lon="7.69495">
        <ele>276.8</ele>
      </trkpt>
      <trkpt lat="48.98217" lon="7.6946">
        <ele>276.6</ele>
      </trkpt>
      <trkpt lat="48.98143" lon="7.69386">
        <ele>274.6</ele>
      </trkpt>
      <trkpt lat="48.98073" lon="7.6932">
        <ele>270.5</ele>
      </trkpt>
      <trkpt lat="48.9805" lon="7.69285">
        <ele>270.3</ele>
      </trkpt>
      <trkpt lat="48.98043" lon="7.69287">
        <ele>269.1</ele>
      </trkpt>
      <trkpt lat="48.98034" lon="7.69283">
        <ele>268.1</ele>
      </trkpt>
      <trkpt lat="48.97944" lon="7.69166">
        <ele>263</ele>
      </trkpt>
      <trkpt lat="48.97851" lon="7.6902">
        <ele>255.9</ele>
      </trkpt>
      <trkpt lat="48.97827" lon="7.68996">
        <ele>251</ele>
      </trkpt>
      <trkpt lat="48.97805" lon="7.68952">
        <ele>248</ele>
        <extensions>
          <visugpx:TrkExtension xmlns:visugpx="https://www.visugpx.com/editgpx/">
            <visugpx:node>26</visugpx:node>
            </visugpx:TrkExtension>
        </extensions>
      </trkpt>
      <trkpt lat="48.97799" lon="7.6894">
        <ele>248</ele>
      </trkpt>
      <trkpt lat="48.97774" lon="7.68904">
        <ele>248.3</ele>
      </trkpt>
      <trkpt lat="48.97744" lon="7.68873">
        <ele>233.7</ele>
      </trkpt>
      <trkpt lat="48.97713" lon="7.68845">
        <ele>231.6</ele>
      </trkpt>
      <trkpt lat="48.97701" lon="7.68808">
        <ele>234.5</ele>
      </trkpt>
      <trkpt lat="48.97686" lon="7.68701">
        <ele>236.6</ele>
      </trkpt>
      <trkpt lat="48.9768" lon="7.68672">
        <ele>232.5</ele>
      </trkpt>
      <trkpt lat="48.97671" lon="7.68651">
        <ele>232.7</ele>
      </trkpt>
      <trkpt lat="48.97667" lon="7.68643">
        <ele>234</ele>
      </trkpt>
      <trkpt lat="48.97644" lon="7.68621">
        <ele>219.4</ele>
      </trkpt>
      <trkpt lat="48.9762" lon="7.68607">
        <ele>216.8</ele>
      </trkpt>
      <trkpt lat="48.9761" lon="7.6859">
        <ele>215.2</ele>
      </trkpt>
      <trkpt lat="48.97606" lon="7.68558">
        <ele>215.4</ele>
      </trkpt>
      <trkpt lat="48.9761" lon="7.68528">
        <ele>215.6</ele>
      </trkpt>
      <trkpt lat="48.9763" lon="7.68489">
        <ele>213.1</ele>
      </trkpt>
      <trkpt lat="48.97639" lon="7.68465">
        <ele>212</ele>
      </trkpt>
      <trkpt lat="48.97659" lon="7.68428">
        <ele>208.2</ele>
      </trkpt>
      <trkpt lat="48.97666" lon="7.68407">
        <ele>206.4</ele>
      </trkpt>
      <trkpt lat="48.97665" lon="7.68401">
        <ele>206.7</ele>
      </trkpt>
      <trkpt lat="48.97663" lon="7.68391">
        <ele>207</ele>
      </trkpt>
      <trkpt lat="48.97705" lon="7.68373">
        <ele>214.1</ele>
      </trkpt>
      <trkpt lat="48.97699" lon="7.6834">
        <ele>212.7</ele>
      </trkpt>
      <trkpt lat="48.97697" lon="7.68328">
        <ele>217.6</ele>
      </trkpt>
      <trkpt lat="48.97696" lon="7.68297">
        <ele>221.5</ele>
      </trkpt>
      <trkpt lat="48.97708" lon="7.68285">
        <ele>223.2</ele>
      </trkpt>
      <trkpt lat="48.97819" lon="7.68261">
        <ele>221.7</ele>
      </trkpt>
      <trkpt lat="48.97836" lon="7.68254">
        <ele>221.9</ele>
      </trkpt>
      <trkpt lat="48.97872" lon="7.68247">
        <ele>229.1</ele>
      </trkpt>
      <trkpt lat="48.97895" lon="7.68235">
        <ele>228.3</ele>
      </trkpt>
      <trkpt lat="48.97924" lon="7.68223">
        <ele>221.7</ele>
      </trkpt>
      <trkpt lat="48.97934" lon="7.68213">
        <ele>222.5</ele>
      </trkpt>
      <trkpt lat="48.97923" lon="7.68204">
        <ele>224.6</ele>
      </trkpt>
      <trkpt lat="48.97889" lon="7.68213">
        <ele>232.4</ele>
      </trkpt>
      <trkpt lat="48.97823" lon="7.68223">
        <ele>237.5</ele>
      </trkpt>
      <trkpt lat="48.97768" lon="7.68223">
        <ele>240.8</ele>
      </trkpt>
      <trkpt lat="48.97723" lon="7.68218">
        <ele>247.2</ele>
      </trkpt>
      <trkpt lat="48.9769" lon="7.68206">
        <ele>250.6</ele>
      </trkpt>
      <trkpt lat="48.97661" lon="7.6822">
        <ele>249.5</ele>
      </trkpt>
      <trkpt lat="48.97647" lon="7.68241">
        <ele>245.9</ele>
      </trkpt>
      <trkpt lat="48.97615" lon="7.68259">
        <ele>229.3</ele>
      </trkpt>
      <trkpt lat="48.97591" lon="7.6826">
        <ele>233.1</ele>
      </trkpt>
      <trkpt lat="48.97561" lon="7.68283">
        <ele>231</ele>
      </trkpt>
      <trkpt lat="48.97541" lon="7.68292">
        <ele>230.5</ele>
      </trkpt>
      <trkpt lat="48.97504" lon="7.68327">
        <ele>225.7</ele>
      </trkpt>
      <trkpt lat="48.97494" lon="7.68325">
        <ele>226</ele>
      </trkpt>
      <trkpt lat="48.97446" lon="7.68257">
        <ele>230.8</ele>
      </trkpt>
      <trkpt lat="48.97436" lon="7.68215">
        <ele>242</ele>
        <extensions>
          <visugpx:TrkExtension xmlns:visugpx="https://www.visugpx.com/editgpx/">
            <visugpx:node>27</visugpx:node>
            </visugpx:TrkExtension>
        </extensions>
      </trkpt>
      <trkpt lat="48.97429" lon="7.68184">
        <ele>242.7</ele>
      </trkpt>
      <trkpt lat="48.97419" lon="7.68133">
        <ele>252</ele>
      </trkpt>
      <trkpt lat="48.97417" lon="7.68097">
        <ele>251.9</ele>
      </trkpt>
      <trkpt lat="48.97384" lon="7.67991">
        <ele>251.8</ele>
      </trkpt>
      <trkpt lat="48.97351" lon="7.6782">
        <ele>258.9</ele>
      </trkpt>
      <trkpt lat="48.97327" lon="7.67725">
        <ele>256.4</ele>
      </trkpt>
      <trkpt lat="48.97303" lon="7.67581">
        <ele>270.2</ele>
      </trkpt>
      <trkpt lat="48.97296" lon="7.6754">
        <ele>270.1</ele>
      </trkpt>
      <trkpt lat="48.97282" lon="7.67442">
        <ele>276.4</ele>
      </trkpt>
      <trkpt lat="48.97282" lon="7.6738">
        <ele>281.4</ele>
      </trkpt>
      <trkpt lat="48.97276" lon="7.67336">
        <ele>281.8</ele>
      </trkpt>
      <trkpt lat="48.97254" lon="7.67311">
        <ele>284.5</ele>
      </trkpt>
      <trkpt lat="48.97236" lon="7.67322">
        <ele>282.8</ele>
      </trkpt>
      <trkpt lat="48.97219" lon="7.6735">
        <ele>279.5</ele>
      </trkpt>
      <trkpt lat="48.97209" lon="7.67292">
        <ele>285.2</ele>
      </trkpt>
      <trkpt lat="48.97177" lon="7.67146">
        <ele>296.2</ele>
      </trkpt>
      <trkpt lat="48.97165" lon="7.67057">
        <ele>293</ele>
      </trkpt>
      <trkpt lat="48.97146" lon="7.67018">
        <ele>294.1</ele>
      </trkpt>
      <trkpt lat="48.97127" lon="7.66949">
        <ele>297.8</ele>
      </trkpt>
      <trkpt lat="48.97125" lon="7.66859">
        <ele>303.2</ele>
      </trkpt>
      <trkpt lat="48.97144" lon="7.66763">
        <ele>306.3</ele>
      </trkpt>
      <trkpt lat="48.97213" lon="7.66614">
        <ele>312.2</ele>
      </trkpt>
      <trkpt lat="48.97173" lon="7.66647">
        <ele>311.1</ele>
      </trkpt>
      <trkpt lat="48.97134" lon="7.66675">
        <ele>312.1</ele>
      </trkpt>
      <trkpt lat="48.97029" lon="7.66773">
        <ele>316.2</ele>
      </trkpt>
      <trkpt lat="48.96998" lon="7.66782">
        <ele>320.8</ele>
      </trkpt>
      <trkpt lat="48.96951" lon="7.66769">
        <ele>320.6</ele>
      </trkpt>
      <trkpt lat="48.96921" lon="7.66783">
        <ele>320</ele>
        <extensions>
          <visugpx:TrkExtension xmlns:visugpx="https://www.visugpx.com/editgpx/">
            <visugpx:node>28</visugpx:node>
            </visugpx:TrkExtension>
        </extensions>
      </trkpt>
      <trkpt lat="48.9692" lon="7.66783">
        <ele>320</ele>
      </trkpt>
      <trkpt lat="48.96869" lon="7.66799">
        <ele>316.1</ele>
      </trkpt>
      <trkpt lat="48.96845" lon="7.66795">
        <ele>315.7</ele>
      </trkpt>
      <trkpt lat="48.96784" lon="7.6677">
        <ele>310.5</ele>
      </trkpt>
      <trkpt lat="48.96721" lon="7.66771">
        <ele>301</ele>
      </trkpt>
      <trkpt lat="48.96708" lon="7.6677">
        <ele>299.6</ele>
      </trkpt>
      <trkpt lat="48.96694" lon="7.66753">
        <ele>298.6</ele>
      </trkpt>
      <trkpt lat="48.96508" lon="7.66578">
        <ele>295.8</ele>
      </trkpt>
      <trkpt lat="48.96442" lon="7.66532">
        <ele>290.7</ele>
      </trkpt>
      <trkpt lat="48.96448" lon="7.6652">
        <ele>290.4</ele>
      </trkpt>
      <trkpt lat="48.96478" lon="7.66485">
        <ele>288.8</ele>
      </trkpt>
      <trkpt lat="48.96491" lon="7.66463">
        <ele>288.5</ele>
      </trkpt>
      <trkpt lat="48.96519" lon="7.66406">
        <ele>293.8</ele>
      </trkpt>
      <trkpt lat="48.96531" lon="7.66367">
        <ele>295.3</ele>
      </trkpt>
      <trkpt lat="48.96547" lon="7.66267">
        <ele>292.4</ele>
      </trkpt>
      <trkpt lat="48.96557" lon="7.66249">
        <ele>289</ele>
      </trkpt>
      <trkpt lat="48.96664" lon="7.66148">
        <ele>294.6</ele>
      </trkpt>
      <trkpt lat="48.96658" lon="7.66147">
        <ele>293.9</ele>
      </trkpt>
      <trkpt lat="48.96585" lon="7.66182">
        <ele>290.4</ele>
      </trkpt>
      <trkpt lat="48.96561" lon="7.66185">
        <ele>285.5</ele>
      </trkpt>
      <trkpt lat="48.96457" lon="7.66148">
        <ele>273.9</ele>
      </trkpt>
      <trkpt lat="48.96428" lon="7.66127">
        <ele>273.2</ele>
      </trkpt>
      <trkpt lat="48.96391" lon="7.66058">
        <ele>269</ele>
      </trkpt>
      <trkpt lat="48.96247" lon="7.65895">
        <ele>263.7</ele>
      </trkpt>
      <trkpt lat="48.96126" lon="7.65683">
        <ele>259.3</ele>
      </trkpt>
      <trkpt lat="48.96013" lon="7.65458">
        <ele>249</ele>
        <extensions>
          <visugpx:TrkExtension xmlns:visugpx="https://www.visugpx.com/editgpx/">
            <visugpx:node>29</visugpx:node>
            </visugpx:TrkExtension>
        </extensions>
      </trkpt>
      <trkpt lat="48.95977" lon="7.65387">
        <ele>250.3</ele>
      </trkpt>
      <trkpt lat="48.95962" lon="7.65356">
        <ele>250.3</ele>
      </trkpt>
      <trkpt lat="48.95953" lon="7.65309">
        <ele>247.8</ele>
      </trkpt>
      <trkpt lat="48.95953" lon="7.65299">
        <ele>247.5</ele>
      </trkpt>
      <trkpt lat="48.95947" lon="7.65223">
        <ele>243.8</ele>
      </trkpt>
      <trkpt lat="48.95947" lon="7.65062">
        <ele>234.6</ele>
      </trkpt>
      <trkpt lat="48.95948" lon="7.6504">
        <ele>233.6</ele>
      </trkpt>
      <trkpt lat="48.95951" lon="7.65017">
        <ele>232.8</ele>
      </trkpt>
      <trkpt lat="48.95964" lon="7.64964">
        <ele>227.9</ele>
      </trkpt>
      <trkpt lat="48.95965" lon="7.6495">
        <ele>227.4</ele>
      </trkpt>
      <trkpt lat="48.95959" lon="7.64916">
        <ele>223.6</ele>
      </trkpt>
      <trkpt lat="48.95954" lon="7.6487">
        <ele>222.5</ele>
      </trkpt>
      <trkpt lat="48.95956" lon="7.6485">
        <ele>221.8</ele>
      </trkpt>
      <trkpt lat="48.9596" lon="7.64842">
        <ele>221.4</ele>
      </trkpt>
      <trkpt lat="48.95945" lon="7.64783">
        <ele>217.1</ele>
      </trkpt>
      <trkpt lat="48.95937" lon="7.64744">
        <ele>214.7</ele>
      </trkpt>
      <trkpt lat="48.95935" lon="7.64738">
        <ele>214.7</ele>
      </trkpt>
      <trkpt lat="48.95926" lon="7.64731">
        <ele>214.7</ele>
      </trkpt>
      <trkpt lat="48.95905" lon="7.64705">
        <ele>217.3</ele>
      </trkpt>
      <trkpt lat="48.95869" lon="7.64664">
        <ele>214.2</ele>
      </trkpt>
      <trkpt lat="48.95849" lon="7.64641">
        <ele>214.3</ele>
      </trkpt>
      <trkpt lat="48.9581" lon="7.64606">
        <ele>212.8</ele>
      </trkpt>
      <trkpt lat="48.95795" lon="7.64595">
        <ele>212.6</ele>
      </trkpt>
      <trkpt lat="48.9578" lon="7.64585">
        <ele>212.1</ele>
      </trkpt>
      <trkpt lat="48.95763" lon="7.64577">
        <ele>209.2</ele>
      </trkpt>
      <trkpt lat="48.9575" lon="7.64575">
        <ele>209.1</ele>
      </trkpt>
      <trkpt lat="48.95727" lon="7.64575">
        <ele>208.4</ele>
        <extensions>
          <visugpx:TrkExtension xmlns:visugpx="https://www.visugpx.com/editgpx/">
            <visugpx:node>30</visugpx:node>
            </visugpx:TrkExtension>
        </extensions>
      </trkpt>
      <trkpt lat="48.95659" lon="7.64576">
        <ele>206.8</ele>
      </trkpt>
      <trkpt lat="48.95586" lon="7.64581">
        <ele>202.3</ele>
      </trkpt>
      <trkpt lat="48.95555" lon="7.64582">
        <ele>201.8</ele>
      </trkpt>
      <trkpt lat="48.95522" lon="7.64575">
        <ele>201.5</ele>
      </trkpt>
      <trkpt lat="48.95474" lon="7.64557">
        <ele>201.3</ele>
      </trkpt>
      <trkpt lat="48.95469" lon="7.64555">
        <ele>201.3</ele>
      </trkpt>
      <trkpt lat="48.95436" lon="7.64536">
        <ele>201.1</ele>
      </trkpt>
      <trkpt lat="48.95402" lon="7.64514">
        <ele>201.2</ele>
      </trkpt>
      <trkpt lat="48.95401" lon="7.64514">
        <ele>201.3</ele>
      </trkpt>
      <trkpt lat="48.95398" lon="7.64511">
        <ele>201.3</ele>
      </trkpt>
      <trkpt lat="48.95393" lon="7.64505">
        <ele>201.3</ele>
      </trkpt>
      <trkpt lat="48.95348" lon="7.64456">
        <ele>200</ele>
      </trkpt>
      <trkpt lat="48.95314" lon="7.64397">
        <ele>198.2</ele>
      </trkpt>
      <trkpt lat="48.95303" lon="7.64382">
        <ele>198.2</ele>
      </trkpt>
      <trkpt lat="48.95268" lon="7.64338">
        <ele>196.3</ele>
      </trkpt>
      <trkpt lat="48.95266" lon="7.64335">
        <ele>196.1</ele>
        <extensions>
          <visugpx:TrkExtension xmlns:visugpx="https://www.visugpx.com/editgpx/">
            <visugpx:node>31</visugpx:node>
            </visugpx:TrkExtension>
        </extensions>
      </trkpt>
      <trkpt lat="48.9526" lon="7.64327">
        <ele>197</ele>
      </trkpt>
      <trkpt lat="48.95242" lon="7.64301">
        <ele>193.8</ele>
      </trkpt>
      <trkpt lat="48.95239" lon="7.64295">
        <ele>193.9</ele>
      </trkpt>
      <trkpt lat="48.95238" lon="7.6429">
        <ele>194</ele>
      </trkpt>
      <trkpt lat="48.95231" lon="7.64285">
        <ele>193.9</ele>
      </trkpt>
      <trkpt lat="48.95227" lon="7.6428">
        <ele>193.9</ele>
      </trkpt>
      <trkpt lat="48.95214" lon="7.64259">
        <ele>193.6</ele>
      </trkpt>
      <trkpt lat="48.95197" lon="7.64232">
        <ele>194.1</ele>
      </trkpt>
      <trkpt lat="48.95191" lon="7.64226">
        <ele>193.8</ele>
      </trkpt>
      <trkpt lat="48.95179" lon="7.64219">
        <ele>193.3</ele>
      </trkpt>
      <trkpt lat="48.9517" lon="7.64215">
        <ele>193.1</ele>
      </trkpt>
      <trkpt lat="48.9516" lon="7.64206">
        <ele>189.4</ele>
      </trkpt>
      <trkpt lat="48.95155" lon="7.64199">
        <ele>189.4</ele>
      </trkpt>
      <trkpt lat="48.95145" lon="7.64193">
        <ele>189.4</ele>
      </trkpt>
      <trkpt lat="48.95139" lon="7.64191">
        <ele>189.4</ele>
      </trkpt>
      <trkpt lat="48.95144" lon="7.64174">
        <ele>189.5</ele>
      </trkpt>
      <trkpt lat="48.95165" lon="7.64098">
        <ele>190.9</ele>
      </trkpt>
      <trkpt lat="48.95166" lon="7.64093">
        <ele>190.9</ele>
      </trkpt>
      <trkpt lat="48.95166" lon="7.6408">
        <ele>191.4</ele>
      </trkpt>
      <trkpt lat="48.95173" lon="7.64059">
        <ele>195</ele>
      </trkpt>
      <trkpt lat="48.95176" lon="7.64034">
        <ele>195.6</ele>
      </trkpt>
      <trkpt lat="48.95179" lon="7.6402">
        <ele>195.2</ele>
      </trkpt>
      <trkpt lat="48.95179" lon="7.64003">
        <ele>194.2</ele>
      </trkpt>
      <trkpt lat="48.95182" lon="7.63976">
        <ele>195.3</ele>
      </trkpt>
      <trkpt lat="48.95181" lon="7.63956">
        <ele>196</ele>
      </trkpt>
      <trkpt lat="48.9519" lon="7.63919">
        <ele>196.6</ele>
      </trkpt>
      <trkpt lat="48.95198" lon="7.63899">
        <ele>197</ele>
      </trkpt>
      <trkpt lat="48.95201" lon="7.63888">
        <ele>197.1</ele>
      </trkpt>
      <trkpt lat="48.95204" lon="7.63881">
        <ele>197.1</ele>
      </trkpt>
      <trkpt lat="48.95209" lon="7.63858">
        <ele>197.1</ele>
      </trkpt>
      <trkpt lat="48.95218" lon="7.63837">
        <ele>196.5</ele>
      </trkpt>
      <trkpt lat="48.95219" lon="7.6376">
        <ele>195</ele>
      </trkpt>
      <trkpt lat="48.95222" lon="7.6375">
        <ele>194.5</ele>
      </trkpt>
      <trkpt lat="48.95236" lon="7.6373">
        <ele>193.6</ele>
      </trkpt>
      <trkpt lat="48.95234" lon="7.63726">
        <ele>194</ele>
      </trkpt>
      <trkpt lat="48.95227" lon="7.63703">
        <ele>195.2</ele>
      </trkpt>
      <trkpt lat="48.95228" lon="7.63688">
        <ele>195.2</ele>
      </trkpt>
      <trkpt lat="48.95228" lon="7.63673">
        <ele>195.1</ele>
      </trkpt>
      <trkpt lat="48.95225" lon="7.63668">
        <ele>195.3</ele>
      </trkpt>
      <trkpt lat="48.95226" lon="7.63637">
        <ele>196.4</ele>
      </trkpt>
      <trkpt lat="48.95224" lon="7.63624">
        <ele>196.7</ele>
      </trkpt>
      <trkpt lat="48.9523" lon="7.63596">
        <ele>196.4</ele>
      </trkpt>
      <trkpt lat="48.95215" lon="7.63588">
        <ele>197</ele>
      </trkpt>
      <trkpt lat="48.95215" lon="7.63569">
        <ele>197.6</ele>
      </trkpt>
      <trkpt lat="48.95214" lon="7.63552">
        <ele>197.8</ele>
      </trkpt>
      <trkpt lat="48.95212" lon="7.63553">
        <ele>197.8</ele>
      </trkpt>
      <trkpt lat="48.9521" lon="7.63552">
        <ele>197.9</ele>
      </trkpt>
      <trkpt lat="48.95208" lon="7.63551">
        <ele>198</ele>
      </trkpt>
      <trkpt lat="48.95206" lon="7.63549">
        <ele>198</ele>
      </trkpt>
      <trkpt lat="48.95205" lon="7.63543">
        <ele>198.1</ele>
      </trkpt>
      <trkpt lat="48.95205" lon="7.6354">
        <ele>198.1</ele>
      </trkpt>
      <trkpt lat="48.95201" lon="7.63538">
        <ele>198.1</ele>
      </trkpt>
      <trkpt lat="48.95203" lon="7.63531">
        <ele>198.1</ele>
      </trkpt>
      <trkpt lat="48.95199" lon="7.6353">
        <ele>198.2</ele>
      </trkpt>
      <trkpt lat="48.95186" lon="7.63521">
        <ele>198.4</ele>
      </trkpt>
      <trkpt lat="48.95179" lon="7.63516">
        <ele>198.5</ele>
      </trkpt>
      <trkpt lat="48.95174" lon="7.63511">
        <ele>198.7</ele>
      </trkpt>
      <trkpt lat="48.95171" lon="7.63505">
        <ele>198.8</ele>
      </trkpt>
      <trkpt lat="48.95169" lon="7.63496">
        <ele>199.2</ele>
      </trkpt>
      <trkpt lat="48.95171" lon="7.63486">
        <ele>199.4</ele>
      </trkpt>
      <trkpt lat="48.95169" lon="7.63482">
        <ele>199.5</ele>
      </trkpt>
      <trkpt lat="48.9519" lon="7.6343">
        <ele>200.8</ele>
      </trkpt>
      <trkpt lat="48.9521" lon="7.63383">
        <ele>203.2</ele>
      </trkpt>
      <trkpt lat="48.95248" lon="7.63305">
        <ele>207.4</ele>
      </trkpt>
      <trkpt lat="48.95279" lon="7.6325">
        <ele>202.2</ele>
      </trkpt>
      <trkpt lat="48.95299" lon="7.63217">
        <ele>204.1</ele>
      </trkpt>
      <trkpt lat="48.95348" lon="7.63127">
        <ele>197.7</ele>
      </trkpt>
      <trkpt lat="48.95378" lon="7.63083">
        <ele>199.5</ele>
        <extensions>
          <visugpx:TrkExtension xmlns:visugpx="https://www.visugpx.com/editgpx/">
            <visugpx:node>32</visugpx:node>
            </visugpx:TrkExtension>
        </extensions>
      </trkpt>
      <trkpt lat="48.95391" lon="7.63064">
        <ele>199.6</ele>
      </trkpt>
      <trkpt lat="48.95419" lon="7.63027">
        <ele>199.6</ele>
      </trkpt>
      <trkpt lat="48.95527" lon="7.62912">
        <ele>205.3</ele>
      </trkpt>
      <trkpt lat="48.95574" lon="7.62851">
        <ele>203.4</ele>
      </trkpt>
      <trkpt lat="48.95616" lon="7.62794">
        <ele>205</ele>
      </trkpt>
      <trkpt lat="48.95769" lon="7.62676">
        <ele>205</ele>
      </trkpt>
      <trkpt lat="48.95767" lon="7.62671">
        <ele>205.6</ele>
      </trkpt>
      <trkpt lat="48.95765" lon="7.62669">
        <ele>206.1</ele>
      </trkpt>
      <trkpt lat="48.95743" lon="7.62683">
        <ele>209.4</ele>
      </trkpt>
      <trkpt lat="48.95724" lon="7.6269">
        <ele>209.7</ele>
      </trkpt>
      <trkpt lat="48.9572" lon="7.6269">
        <ele>209.9</ele>
      </trkpt>
      <trkpt lat="48.95716" lon="7.62685">
        <ele>210.6</ele>
      </trkpt>
      <trkpt lat="48.95703" lon="7.62691">
        <ele>211.3</ele>
      </trkpt>
      <trkpt lat="48.95654" lon="7.62689">
        <ele>222.5</ele>
      </trkpt>
      <trkpt lat="48.95628" lon="7.62696">
        <ele>222.9</ele>
      </trkpt>
      <trkpt lat="48.95634" lon="7.62686">
        <ele>223.6</ele>
      </trkpt>
      <trkpt lat="48.95639" lon="7.62675">
        <ele>224.2</ele>
      </trkpt>
      <trkpt lat="48.95659" lon="7.62652">
        <ele>235.7</ele>
      </trkpt>
      <trkpt lat="48.95641" lon="7.62636">
        <ele>242.6</ele>
      </trkpt>
      <trkpt lat="48.95623" lon="7.62625">
        <ele>245.9</ele>
      </trkpt>
      <trkpt lat="48.9559" lon="7.6258">
        <ele>264.8</ele>
      </trkpt>
      <trkpt lat="48.95613" lon="7.62556">
        <ele>269</ele>
      </trkpt>
      <trkpt lat="48.95602" lon="7.6255">
        <ele>269.9</ele>
      </trkpt>
      <trkpt lat="48.95593" lon="7.62539">
        <ele>271.8</ele>
      </trkpt>
      <trkpt lat="48.95556" lon="7.6254">
        <ele>272.7</ele>
      </trkpt>
      <trkpt lat="48.95546" lon="7.62515">
        <ele>274.7</ele>
      </trkpt>
      <trkpt lat="48.95526" lon="7.62481">
        <ele>283</ele>
      </trkpt>
      <trkpt lat="48.95538" lon="7.62451">
        <ele>285.9</ele>
      </trkpt>
      <trkpt lat="48.95529" lon="7.62426">
        <ele>285.6</ele>
      </trkpt>
      <trkpt lat="48.95517" lon="7.6238">
        <ele>296.4</ele>
      </trkpt>
      <trkpt lat="48.95457" lon="7.62201">
        <ele>296.3</ele>
      </trkpt>
      <trkpt lat="48.95428" lon="7.62121">
        <ele>301.8</ele>
        <extensions>
          <visugpx:TrkExtension xmlns:visugpx="https://www.visugpx.com/editgpx/">
            <visugpx:node>33</visugpx:node>
            </visugpx:TrkExtension>
        </extensions>
      </trkpt>
      <trkpt lat="48.95427" lon="7.62119">
        <ele>301.8</ele>
      </trkpt>
      <trkpt lat="48.95406" lon="7.62029">
        <ele>294.2</ele>
      </trkpt>
      <trkpt lat="48.9536" lon="7.61913">
        <ele>308.4</ele>
      </trkpt>
      <trkpt lat="48.95312" lon="7.61836">
        <ele>298.3</ele>
      </trkpt>
      <trkpt lat="48.95295" lon="7.61801">
        <ele>304.4</ele>
      </trkpt>
      <trkpt lat="48.95276" lon="7.61777">
        <ele>303.4</ele>
      </trkpt>
      <trkpt lat="48.95224" lon="7.617">
        <ele>296.2</ele>
      </trkpt>
      <trkpt lat="48.95178" lon="7.61626">
        <ele>299.5</ele>
      </trkpt>
      <trkpt lat="48.9515" lon="7.6156">
        <ele>288.5</ele>
      </trkpt>
      <trkpt lat="48.95125" lon="7.61514">
        <ele>286.4</ele>
      </trkpt>
      <trkpt lat="48.95104" lon="7.61471">
        <ele>289.2</ele>
      </trkpt>
      <trkpt lat="48.95078" lon="7.61406">
        <ele>291.1</ele>
      </trkpt>
      <trkpt lat="48.9505" lon="7.61345">
        <ele>296.7</ele>
      </trkpt>
      <trkpt lat="48.95031" lon="7.61301">
        <ele>307.8</ele>
      </trkpt>
      <trkpt lat="48.94955" lon="7.61151">
        <ele>330.6</ele>
      </trkpt>
      <trkpt lat="48.94933" lon="7.61114">
        <ele>333.2</ele>
      </trkpt>
      <trkpt lat="48.94915" lon="7.61106">
        <ele>334.7</ele>
      </trkpt>
      <trkpt lat="48.94896" lon="7.61111">
        <ele>334.9</ele>
      </trkpt>
      <trkpt lat="48.94853" lon="7.61122">
        <ele>337.2</ele>
      </trkpt>
      <trkpt lat="48.94795" lon="7.61107">
        <ele>339.8</ele>
      </trkpt>
      <trkpt lat="48.94771" lon="7.61115">
        <ele>338.4</ele>
      </trkpt>
      <trkpt lat="48.94747" lon="7.6111">
        <ele>334.7</ele>
      </trkpt>
      <trkpt lat="48.94717" lon="7.61113">
        <ele>333.5</ele>
      </trkpt>
      <trkpt lat="48.94683" lon="7.61143">
        <ele>330.7</ele>
      </trkpt>
      <trkpt lat="48.94655" lon="7.61168">
        <ele>320.8</ele>
        <extensions>
          <visugpx:TrkExtension xmlns:visugpx="https://www.visugpx.com/editgpx/">
            <visugpx:node>34</visugpx:node>
            </visugpx:TrkExtension>
        </extensions>
      </trkpt>
      <trkpt lat="48.94619" lon="7.61201">
        <ele>311.9</ele>
      </trkpt>
      <trkpt lat="48.94601" lon="7.6122">
        <ele>308.8</ele>
      </trkpt>
      <trkpt lat="48.94578" lon="7.61237">
        <ele>298.6</ele>
      </trkpt>
      <trkpt lat="48.94577" lon="7.6124">
        <ele>298.6</ele>
      </trkpt>
      <trkpt lat="48.94569" lon="7.61238">
        <ele>298.3</ele>
      </trkpt>
      <trkpt lat="48.94557" lon="7.6124">
        <ele>297.6</ele>
      </trkpt>
      <trkpt lat="48.94556" lon="7.61227">
        <ele>297.8</ele>
      </trkpt>
      <trkpt lat="48.94538" lon="7.6119">
        <ele>297.9</ele>
      </trkpt>
      <trkpt lat="48.94483" lon="7.61121">
        <ele>292.5</ele>
      </trkpt>
      <trkpt lat="48.9447" lon="7.61099">
        <ele>292.8</ele>
      </trkpt>
      <trkpt lat="48.94459" lon="7.61078">
        <ele>296.3</ele>
      </trkpt>
      <trkpt lat="48.94451" lon="7.61059">
        <ele>295.9</ele>
      </trkpt>
      <trkpt lat="48.94429" lon="7.60997">
        <ele>296.7</ele>
      </trkpt>
      <trkpt lat="48.9442" lon="7.60969">
        <ele>302</ele>
      </trkpt>
      <trkpt lat="48.94414" lon="7.60957">
        <ele>290.6</ele>
      </trkpt>
      <trkpt lat="48.94393" lon="7.60931">
        <ele>291.9</ele>
      </trkpt>
      <trkpt lat="48.94353" lon="7.60915">
        <ele>294.1</ele>
      </trkpt>
      <trkpt lat="48.94339" lon="7.60908">
        <ele>290.4</ele>
      </trkpt>
      <trkpt lat="48.94331" lon="7.60903">
        <ele>285.8</ele>
      </trkpt>
      <trkpt lat="48.94291" lon="7.60857">
        <ele>288.5</ele>
      </trkpt>
      <trkpt lat="48.94267" lon="7.60837">
        <ele>286.7</ele>
      </trkpt>
      <trkpt lat="48.94255" lon="7.60825">
        <ele>291.7</ele>
      </trkpt>
      <trkpt lat="48.94244" lon="7.60813">
        <ele>287.3</ele>
      </trkpt>
      <trkpt lat="48.94229" lon="7.60793">
        <ele>289.2</ele>
      </trkpt>
      <trkpt lat="48.94214" lon="7.60778">
        <ele>289.5</ele>
      </trkpt>
      <trkpt lat="48.94208" lon="7.60772">
        <ele>289.2</ele>
      </trkpt>
      <trkpt lat="48.94188" lon="7.60771">
        <ele>287</ele>
      </trkpt>
      <trkpt lat="48.94176" lon="7.60771">
        <ele>286.2</ele>
      </trkpt>
      <trkpt lat="48.94148" lon="7.60772">
        <ele>277.2</ele>
      </trkpt>
      <trkpt lat="48.9413" lon="7.60771">
        <ele>275.3</ele>
      </trkpt>
      <trkpt lat="48.94116" lon="7.60769">
        <ele>274.2</ele>
      </trkpt>
      <trkpt lat="48.941" lon="7.6078">
        <ele>272.8</ele>
      </trkpt>
      <trkpt lat="48.94094" lon="7.60788">
        <ele>272.1</ele>
      </trkpt>
      <trkpt lat="48.94091" lon="7.60783">
        <ele>272.3</ele>
      </trkpt>
      <trkpt lat="48.94083" lon="7.60773">
        <ele>266.8</ele>
      </trkpt>
      <trkpt lat="48.94072" lon="7.60765">
        <ele>267.3</ele>
      </trkpt>
      <trkpt lat="48.94055" lon="7.60753">
        <ele>266</ele>
      </trkpt>
      <trkpt lat="48.94036" lon="7.60741">
        <ele>270.5</ele>
      </trkpt>
      <trkpt lat="48.9402" lon="7.60733">
        <ele>269.3</ele>
      </trkpt>
      <trkpt lat="48.94002" lon="7.60724">
        <ele>269.1</ele>
      </trkpt>
      <trkpt lat="48.93994" lon="7.60718">
        <ele>263.1</ele>
      </trkpt>
      <trkpt lat="48.93976" lon="7.60703">
        <ele>263.3</ele>
      </trkpt>
      <trkpt lat="48.93975" lon="7.60695">
        <ele>263.9</ele>
      </trkpt>
      <trkpt lat="48.93939" lon="7.6065">
        <ele>269.3</ele>
      </trkpt>
      <trkpt lat="48.93931" lon="7.60632">
        <ele>270.4</ele>
      </trkpt>
      <trkpt lat="48.9392" lon="7.60588">
        <ele>270.7</ele>
      </trkpt>
      <trkpt lat="48.93917" lon="7.60581">
        <ele>271.5</ele>
      </trkpt>
      <trkpt lat="48.93902" lon="7.6056">
        <ele>267.8</ele>
      </trkpt>
      <trkpt lat="48.93889" lon="7.60536">
        <ele>267.9</ele>
      </trkpt>
      <trkpt lat="48.93865" lon="7.60504">
        <ele>266</ele>
      </trkpt>
      <trkpt lat="48.93849" lon="7.60482">
        <ele>271.3</ele>
        <extensions>
          <visugpx:TrkExtension xmlns:visugpx="https://www.visugpx.com/editgpx/">
            <visugpx:node>35</visugpx:node>
            </visugpx:TrkExtension>
        </extensions>
      </trkpt>
      <trkpt lat="48.93825" lon="7.60449">
        <ele>262.6</ele>
      </trkpt>
      <trkpt lat="48.93803" lon="7.60411">
        <ele>270</ele>
      </trkpt>
      <trkpt lat="48.93788" lon="7.60379">
        <ele>270.1</ele>
      </trkpt>
      <trkpt lat="48.93778" lon="7.60349">
        <ele>271</ele>
      </trkpt>
      <trkpt lat="48.93773" lon="7.60318">
        <ele>281.8</ele>
      </trkpt>
      <trkpt lat="48.93768" lon="7.60305">
        <ele>283.5</ele>
      </trkpt>
      <trkpt lat="48.93762" lon="7.60299">
        <ele>284.1</ele>
      </trkpt>
      <trkpt lat="48.93731" lon="7.60288">
        <ele>274.1</ele>
      </trkpt>
      <trkpt lat="48.93669" lon="7.60252">
        <ele>277.3</ele>
      </trkpt>
      <trkpt lat="48.93593" lon="7.60184">
        <ele>276.7</ele>
      </trkpt>
      <trkpt lat="48.93567" lon="7.60171">
        <ele>265.6</ele>
      </trkpt>
      <trkpt lat="48.93555" lon="7.60159">
        <ele>271.4</ele>
      </trkpt>
      <trkpt lat="48.93493" lon="7.60069">
        <ele>260.8</ele>
      </trkpt>
      <trkpt lat="48.93473" lon="7.60031">
        <ele>260.9</ele>
      </trkpt>
      <trkpt lat="48.9347" lon="7.60029">
        <ele>260.5</ele>
      </trkpt>
      <trkpt lat="48.93469" lon="7.6003">
        <ele>260.2</ele>
      </trkpt>
      <trkpt lat="48.93458" lon="7.60011">
        <ele>259.2</ele>
      </trkpt>
      <trkpt lat="48.93446" lon="7.59996">
        <ele>262</ele>
      </trkpt>
      <trkpt lat="48.93437" lon="7.59977">
        <ele>261.5</ele>
      </trkpt>
      <trkpt lat="48.93433" lon="7.59966">
        <ele>262.3</ele>
      </trkpt>
      <trkpt lat="48.93431" lon="7.59952">
        <ele>263.3</ele>
      </trkpt>
      <trkpt lat="48.9343" lon="7.59941">
        <ele>263.4</ele>
      </trkpt>
      <trkpt lat="48.93432" lon="7.59929">
        <ele>263.3</ele>
      </trkpt>
      <trkpt lat="48.93449" lon="7.59888">
        <ele>271.9</ele>
      </trkpt>
      <trkpt lat="48.93448" lon="7.59882">
        <ele>272.2</ele>
      </trkpt>
      <trkpt lat="48.93447" lon="7.59879">
        <ele>272.3</ele>
      </trkpt>
      <trkpt lat="48.93446" lon="7.59877">
        <ele>272.4</ele>
      </trkpt>
      <trkpt lat="48.93427" lon="7.59881">
        <ele>270.9</ele>
      </trkpt>
      <trkpt lat="48.93403" lon="7.59893">
        <ele>264.8</ele>
      </trkpt>
      <trkpt lat="48.93375" lon="7.59912">
        <ele>263.8</ele>
      </trkpt>
      <trkpt lat="48.93347" lon="7.59926">
        <ele>254.2</ele>
      </trkpt>
      <trkpt lat="48.93319" lon="7.59936">
        <ele>251.2</ele>
      </trkpt>
      <trkpt lat="48.93302" lon="7.59938">
        <ele>249.8</ele>
      </trkpt>
      <trkpt lat="48.93282" lon="7.59933">
        <ele>249.4</ele>
      </trkpt>
      <trkpt lat="48.9327" lon="7.59921">
        <ele>249.8</ele>
      </trkpt>
      <trkpt lat="48.93253" lon="7.599">
        <ele>255</ele>
      </trkpt>
      <trkpt lat="48.93238" lon="7.59877">
        <ele>249.6</ele>
      </trkpt>
      <trkpt lat="48.93214" lon="7.59846">
        <ele>249.2</ele>
      </trkpt>
      <trkpt lat="48.93209" lon="7.59836">
        <ele>248.8</ele>
      </trkpt>
      <trkpt lat="48.93191" lon="7.59803">
        <ele>252.1</ele>
      </trkpt>
      <trkpt lat="48.93163" lon="7.59744">
        <ele>248.3</ele>
      </trkpt>
      <trkpt lat="48.93137" lon="7.59666">
        <ele>255.8</ele>
      </trkpt>
      <trkpt lat="48.93135" lon="7.59655">
        <ele>255.7</ele>
        <extensions>
          <visugpx:TrkExtension xmlns:visugpx="https://www.visugpx.com/editgpx/">
            <visugpx:node>36</visugpx:node>
            </visugpx:TrkExtension>
        </extensions>
      </trkpt>
      <trkpt lat="48.93113" lon="7.59534">
        <ele>265.1</ele>
      </trkpt>
      <trkpt lat="48.93104" lon="7.59505">
        <ele>264.1</ele>
      </trkpt>
      <trkpt lat="48.93077" lon="7.59491">
        <ele>261.4</ele>
      </trkpt>
      <trkpt lat="48.9306" lon="7.59489">
        <ele>261.8</ele>
      </trkpt>
      <trkpt lat="48.93032" lon="7.59478">
        <ele>260.8</ele>
      </trkpt>
      <trkpt lat="48.93019" lon="7.5947">
        <ele>260.4</ele>
      </trkpt>
      <trkpt lat="48.92907" lon="7.59317">
        <ele>253.9</ele>
      </trkpt>
      <trkpt lat="48.92873" lon="7.59256">
        <ele>253.8</ele>
      </trkpt>
      <trkpt lat="48.92834" lon="7.59183">
        <ele>262.6</ele>
      </trkpt>
      <trkpt lat="48.92804" lon="7.59154">
        <ele>252</ele>
      </trkpt>
      <trkpt lat="48.92708" lon="7.5907">
        <ele>228.5</ele>
      </trkpt>
      <trkpt lat="48.92669" lon="7.59017">
        <ele>221.6</ele>
      </trkpt>
      <trkpt lat="48.92638" lon="7.58952">
        <ele>210.1</ele>
      </trkpt>
      <trkpt lat="48.92627" lon="7.58906">
        <ele>212.7</ele>
      </trkpt>
      <trkpt lat="48.92622" lon="7.58872">
        <ele>212.6</ele>
      </trkpt>
      <trkpt lat="48.9261" lon="7.58826">
        <ele>214.6</ele>
      </trkpt>
      <trkpt lat="48.92556" lon="7.58671">
        <ele>203.9</ele>
      </trkpt>
      <trkpt lat="48.92551" lon="7.58656">
        <ele>206</ele>
        <extensions>
          <visugpx:TrkExtension xmlns:visugpx="https://www.visugpx.com/editgpx/">
            <visugpx:node>37</visugpx:node>
            </visugpx:TrkExtension>
        </extensions>
      </trkpt>
      <trkpt lat="48.92531" lon="7.58595">
        <ele>204.7</ele>
      </trkpt>
      <trkpt lat="48.92516" lon="7.58544">
        <ele>209.2</ele>
      </trkpt>
      <trkpt lat="48.92489" lon="7.58458">
        <ele>196.4</ele>
      </trkpt>
      <trkpt lat="48.92469" lon="7.58391">
        <ele>200.7</ele>
      </trkpt>
      <trkpt lat="48.92458" lon="7.58359">
        <ele>201.2</ele>
      </trkpt>
      <trkpt lat="48.92449" lon="7.58338">
        <ele>199.9</ele>
      </trkpt>
      <trkpt lat="48.92432" lon="7.5833">
        <ele>199.2</ele>
      </trkpt>
      <trkpt lat="48.92428" lon="7.58325">
        <ele>198.5</ele>
      </trkpt>
      <trkpt lat="48.92398" lon="7.58276">
        <ele>192.3</ele>
      </trkpt>
      <trkpt lat="48.92389" lon="7.58267">
        <ele>192.1</ele>
      </trkpt>
      <trkpt lat="48.92385" lon="7.58277">
        <ele>191.2</ele>
      </trkpt>
      <trkpt lat="48.92378" lon="7.58289">
        <ele>190.3</ele>
      </trkpt>
      <trkpt lat="48.92375" lon="7.58294">
        <ele>189.9</ele>
      </trkpt>
      <trkpt lat="48.92372" lon="7.58276">
        <ele>190.2</ele>
      </trkpt>
      <trkpt lat="48.92364" lon="7.58261">
        <ele>189.7</ele>
      </trkpt>
      <trkpt lat="48.92317" lon="7.58212">
        <ele>190.3</ele>
      </trkpt>
      <trkpt lat="48.92295" lon="7.58193">
        <ele>191.5</ele>
      </trkpt>
      <trkpt lat="48.92282" lon="7.58177">
        <ele>192.6</ele>
      </trkpt>
      <trkpt lat="48.92281" lon="7.58166">
        <ele>199.3</ele>
      </trkpt>
      <trkpt lat="48.92284" lon="7.58148">
        <ele>200.2</ele>
      </trkpt>
      <trkpt lat="48.92282" lon="7.58141">
        <ele>200.8</ele>
      </trkpt>
      <trkpt lat="48.92263" lon="7.58121">
        <ele>203.8</ele>
      </trkpt>
      <trkpt lat="48.92255" lon="7.58109">
        <ele>206.4</ele>
      </trkpt>
      <trkpt lat="48.92238" lon="7.58075">
        <ele>219.1</ele>
      </trkpt>
      <trkpt lat="48.92195" lon="7.58024">
        <ele>224.9</ele>
      </trkpt>
      <trkpt lat="48.92171" lon="7.5798">
        <ele>237</ele>
      </trkpt>
      <trkpt lat="48.92132" lon="7.57923">
        <ele>234.9</ele>
        <extensions>
          <visugpx:TrkExtension xmlns:visugpx="https://www.visugpx.com/editgpx/">
            <visugpx:node>39</visugpx:node>
            </visugpx:TrkExtension>
        </extensions>
      </trkpt>
      <trkpt lat="48.92131" lon="7.57921">
        <ele>234.9</ele>
      </trkpt>
      <trkpt lat="48.9208" lon="7.5783">
        <ele>250.3</ele>
      </trkpt>
      <trkpt lat="48.92048" lon="7.57782">
        <ele>253.2</ele>
      </trkpt>
      <trkpt lat="48.92033" lon="7.57752">
        <ele>253.1</ele>
      </trkpt>
      <trkpt lat="48.91999" lon="7.57701">
        <ele>252.2</ele>
      </trkpt>
      <trkpt lat="48.91982" lon="7.57684">
        <ele>253.7</ele>
      </trkpt>
      <trkpt lat="48.91978" lon="7.57677">
        <ele>253.8</ele>
      </trkpt>
      <trkpt lat="48.91973" lon="7.57668">
        <ele>253.1</ele>
      </trkpt>
      <trkpt lat="48.91976" lon="7.57653">
        <ele>260.3</ele>
      </trkpt>
      <trkpt lat="48.91975" lon="7.57637">
        <ele>260.5</ele>
      </trkpt>
      <trkpt lat="48.91972" lon="7.57616">
        <ele>261.7</ele>
      </trkpt>
      <trkpt lat="48.91964" lon="7.57599">
        <ele>261.6</ele>
      </trkpt>
      <trkpt lat="48.91954" lon="7.57571">
        <ele>265.6</ele>
      </trkpt>
      <trkpt lat="48.91945" lon="7.57532">
        <ele>265.6</ele>
      </trkpt>
      <trkpt lat="48.91936" lon="7.57476">
        <ele>268.4</ele>
      </trkpt>
      <trkpt lat="48.91933" lon="7.57446">
        <ele>269.8</ele>
      </trkpt>
      <trkpt lat="48.91933" lon="7.5744">
        <ele>269.5</ele>
      </trkpt>
      <trkpt lat="48.91936" lon="7.57425">
        <ele>268.9</ele>
      </trkpt>
      <trkpt lat="48.9194" lon="7.57403">
        <ele>273.5</ele>
      </trkpt>
      <trkpt lat="48.9194" lon="7.57397">
        <ele>274.2</ele>
        <extensions>
          <visugpx:TrkExtension xmlns:visugpx="https://www.visugpx.com/editgpx/">
            <visugpx:node>40</visugpx:node>
            </visugpx:TrkExtension>
        </extensions>
      </trkpt>
      <trkpt lat="48.91942" lon="7.57372">
        <ele>276.4</ele>
      </trkpt>
      <trkpt lat="48.9194" lon="7.5729">
        <ele>280.4</ele>
      </trkpt>
      <trkpt lat="48.91942" lon="7.57275">
        <ele>280.7</ele>
      </trkpt>
      <trkpt lat="48.91936" lon="7.5724">
        <ele>280.7</ele>
      </trkpt>
      <trkpt lat="48.91917" lon="7.5716">
        <ele>276.3</ele>
      </trkpt>
      <trkpt lat="48.91904" lon="7.57096">
        <ele>266.1</ele>
      </trkpt>
      <trkpt lat="48.919" lon="7.5707">
        <ele>266.2</ele>
      </trkpt>
      <trkpt lat="48.91897" lon="7.5706">
        <ele>265</ele>
      </trkpt>
      <trkpt lat="48.91892" lon="7.57038">
        <ele>264.3</ele>
      </trkpt>
      <trkpt lat="48.91889" lon="7.57032">
        <ele>264.1</ele>
      </trkpt>
      <trkpt lat="48.91876" lon="7.56934">
        <ele>265.1</ele>
      </trkpt>
      <trkpt lat="48.91869" lon="7.56907">
        <ele>264.7</ele>
      </trkpt>
      <trkpt lat="48.91867" lon="7.56878">
        <ele>265</ele>
      </trkpt>
      <trkpt lat="48.91863" lon="7.56839">
        <ele>263.2</ele>
        <extensions>
          <visugpx:TrkExtension xmlns:visugpx="https://www.visugpx.com/editgpx/">
            <visugpx:node>41</visugpx:node>
            </visugpx:TrkExtension>
        </extensions>
      </trkpt>
      <trkpt lat="48.91861" lon="7.56828">
        <ele>263.4</ele>
      </trkpt>
      <trkpt lat="48.91841" lon="7.56696">
        <ele>266.4</ele>
      </trkpt>
      <trkpt lat="48.91823" lon="7.56504">
        <ele>267.5</ele>
      </trkpt>
      <trkpt lat="48.9182" lon="7.56438">
        <ele>268.4</ele>
      </trkpt>
      <trkpt lat="48.91816" lon="7.56391">
        <ele>269.6</ele>
      </trkpt>
      <trkpt lat="48.91812" lon="7.5637">
        <ele>269.6</ele>
      </trkpt>
      <trkpt lat="48.91806" lon="7.56348">
        <ele>270.1</ele>
      </trkpt>
      <trkpt lat="48.91791" lon="7.56311">
        <ele>270</ele>
      </trkpt>
      <trkpt lat="48.91777" lon="7.56277">
        <ele>268.1</ele>
      </trkpt>
      <trkpt lat="48.91758" lon="7.56236">
        <ele>266</ele>
      </trkpt>
      <trkpt lat="48.91732" lon="7.56191">
        <ele>254.2</ele>
      </trkpt>
      <trkpt lat="48.91708" lon="7.56144">
        <ele>254.6</ele>
      </trkpt>
      <trkpt lat="48.91669" lon="7.56076">
        <ele>247</ele>
      </trkpt>
      <trkpt lat="48.91655" lon="7.56058">
        <ele>242.6</ele>
      </trkpt>
      <trkpt lat="48.91656" lon="7.56044">
        <ele>242.9</ele>
      </trkpt>
      <trkpt lat="48.91654" lon="7.5601">
        <ele>244.2</ele>
      </trkpt>
      <trkpt lat="48.91655" lon="7.56001">
        <ele>244.6</ele>
      </trkpt>
      <trkpt lat="48.91657" lon="7.55994">
        <ele>245.7</ele>
      </trkpt>
      <trkpt lat="48.91661" lon="7.55979">
        <ele>245.7</ele>
      </trkpt>
      <trkpt lat="48.91666" lon="7.55936">
        <ele>247.1</ele>
      </trkpt>
      <trkpt lat="48.91679" lon="7.55811">
        <ele>260.3</ele>
      </trkpt>
      <trkpt lat="48.91672" lon="7.55765">
        <ele>259.6</ele>
      </trkpt>
      <trkpt lat="48.91665" lon="7.55741">
        <ele>256.9</ele>
      </trkpt>
      <trkpt lat="48.91645" lon="7.55733">
        <ele>259.3</ele>
      </trkpt>
      <trkpt lat="48.91603" lon="7.55723">
        <ele>261.3</ele>
      </trkpt>
      <trkpt lat="48.91578" lon="7.55739">
        <ele>263.1</ele>
      </trkpt>
      <trkpt lat="48.91555" lon="7.5574">
        <ele>264.9</ele>
      </trkpt>
      <trkpt lat="48.91548" lon="7.55733">
        <ele>265.5</ele>
      </trkpt>
      <trkpt lat="48.91542" lon="7.55718">
        <ele>266.2</ele>
      </trkpt>
      <trkpt lat="48.91536" lon="7.55692">
        <ele>267.2</ele>
      </trkpt>
      <trkpt lat="48.91529" lon="7.55672">
        <ele>268.2</ele>
      </trkpt>
      <trkpt lat="48.91524" lon="7.55661">
        <ele>271.9</ele>
      </trkpt>
      <trkpt lat="48.91512" lon="7.55628">
        <ele>273</ele>
      </trkpt>
      <trkpt lat="48.91487" lon="7.55579">
        <ele>276.7</ele>
      </trkpt>
      <trkpt lat="48.91471" lon="7.55558">
        <ele>276.6</ele>
        <extensions>
          <visugpx:TrkExtension xmlns:visugpx="https://www.visugpx.com/editgpx/">
            <visugpx:node>42</visugpx:node>
            </visugpx:TrkExtension>
        </extensions>
      </trkpt>
      <trkpt lat="48.91456" lon="7.55537">
        <ele>276.9</ele>
      </trkpt>
      <trkpt lat="48.91441" lon="7.55507">
        <ele>277.5</ele>
      </trkpt>
      <trkpt lat="48.91426" lon="7.55469">
        <ele>281.7</ele>
      </trkpt>
      <trkpt lat="48.91382" lon="7.55356">
        <ele>278.1</ele>
      </trkpt>
      <trkpt lat="48.91367" lon="7.55313">
        <ele>281.4</ele>
      </trkpt>
      <trkpt lat="48.91363" lon="7.55303">
        <ele>281.4</ele>
      </trkpt>
      <trkpt lat="48.91306" lon="7.5515">
        <ele>273.9</ele>
      </trkpt>
      <trkpt lat="48.91299" lon="7.55135">
        <ele>272.7</ele>
      </trkpt>
      <trkpt lat="48.91281" lon="7.55121">
        <ele>269.9</ele>
      </trkpt>
      <trkpt lat="48.91277" lon="7.55102">
        <ele>268.9</ele>
      </trkpt>
      <trkpt lat="48.9128" lon="7.55093">
        <ele>269.4</ele>
      </trkpt>
      <trkpt lat="48.91284" lon="7.55079">
        <ele>275.2</ele>
      </trkpt>
      <trkpt lat="48.91259" lon="7.55008">
        <ele>270.5</ele>
      </trkpt>
      <trkpt lat="48.91258" lon="7.54982">
        <ele>276.8</ele>
      </trkpt>
      <trkpt lat="48.91257" lon="7.54973">
        <ele>278.9</ele>
      </trkpt>
      <trkpt lat="48.91239" lon="7.54901">
        <ele>264.2</ele>
      </trkpt>
      <trkpt lat="48.91221" lon="7.5482">
        <ele>267.3</ele>
      </trkpt>
      <trkpt lat="48.91194" lon="7.54722">
        <ele>268.2</ele>
      </trkpt>
      <trkpt lat="48.91185" lon="7.5468">
        <ele>266.3</ele>
      </trkpt>
      <trkpt lat="48.91165" lon="7.54633">
        <ele>249.4</ele>
      </trkpt>
      <trkpt lat="48.9116" lon="7.54611">
        <ele>251.2</ele>
      </trkpt>
      <trkpt lat="48.91158" lon="7.54583">
        <ele>259.5</ele>
      </trkpt>
      <trkpt lat="48.91148" lon="7.5452">
        <ele>255.9</ele>
      </trkpt>
      <trkpt lat="48.91121" lon="7.54444">
        <ele>254.3</ele>
      </trkpt>
      <trkpt lat="48.91113" lon="7.54402">
        <ele>258</ele>
      </trkpt>
      <trkpt lat="48.91111" lon="7.54425">
        <ele>251.4</ele>
      </trkpt>
      <trkpt lat="48.91109" lon="7.54439">
        <ele>251.3</ele>
        <extensions>
          <visugpx:TrkExtension xmlns:visugpx="https://www.visugpx.com/editgpx/">
            <visugpx:node>43</visugpx:node>
            </visugpx:TrkExtension>
        </extensions>
      </trkpt>
      <trkpt lat="48.91111" lon="7.54425">
        <ele>251.4</ele>
      </trkpt>
      <trkpt lat="48.91113" lon="7.54402">
        <ele>258</ele>
      </trkpt>
      <trkpt lat="48.91113" lon="7.54377">
        <ele>260.4</ele>
      </trkpt>
      <trkpt lat="48.91111" lon="7.54352">
        <ele>260.6</ele>
      </trkpt>
      <trkpt lat="48.91106" lon="7.54329">
        <ele>263.2</ele>
      </trkpt>
      <trkpt lat="48.91085" lon="7.54271">
        <ele>263.9</ele>
      </trkpt>
      <trkpt lat="48.91074" lon="7.54234">
        <ele>252.1</ele>
      </trkpt>
      <trkpt lat="48.91072" lon="7.54222">
        <ele>250.7</ele>
      </trkpt>
      <trkpt lat="48.91059" lon="7.5421">
        <ele>249.2</ele>
      </trkpt>
      <trkpt lat="48.91055" lon="7.54195">
        <ele>248.9</ele>
      </trkpt>
      <trkpt lat="48.91045" lon="7.54197">
        <ele>247.9</ele>
      </trkpt>
      <trkpt lat="48.91043" lon="7.54194">
        <ele>247.7</ele>
      </trkpt>
      <trkpt lat="48.91037" lon="7.54166">
        <ele>247.3</ele>
      </trkpt>
      <trkpt lat="48.91032" lon="7.54141">
        <ele>247</ele>
      </trkpt>
      <trkpt lat="48.91032" lon="7.54126">
        <ele>247.2</ele>
      </trkpt>
      <trkpt lat="48.91035" lon="7.541">
        <ele>247.3</ele>
      </trkpt>
      <trkpt lat="48.91038" lon="7.54091">
        <ele>247.5</ele>
      </trkpt>
      <trkpt lat="48.91024" lon="7.5409">
        <ele>246.7</ele>
      </trkpt>
      <trkpt lat="48.9101" lon="7.54099">
        <ele>246.2</ele>
      </trkpt>
      <trkpt lat="48.91001" lon="7.54106">
        <ele>246.1</ele>
      </trkpt>
      <trkpt lat="48.90993" lon="7.54118">
        <ele>240.7</ele>
      </trkpt>
      <trkpt lat="48.90974" lon="7.54133">
        <ele>239.5</ele>
      </trkpt>
      <trkpt lat="48.90972" lon="7.54126">
        <ele>239.6</ele>
      </trkpt>
      <trkpt lat="48.90968" lon="7.54114">
        <ele>239.8</ele>
      </trkpt>
      <trkpt lat="48.90963" lon="7.541">
        <ele>239.8</ele>
      </trkpt>
      <trkpt lat="48.90957" lon="7.54082">
        <ele>242</ele>
      </trkpt>
      <trkpt lat="48.90943" lon="7.54041">
        <ele>241.8</ele>
      </trkpt>
      <trkpt lat="48.90939" lon="7.54024">
        <ele>241.6</ele>
      </trkpt>
      <trkpt lat="48.90933" lon="7.53997">
        <ele>243</ele>
      </trkpt>
      <trkpt lat="48.90924" lon="7.53957">
        <ele>246</ele>
      </trkpt>
      <trkpt lat="48.9092" lon="7.53935">
        <ele>246</ele>
      </trkpt>
      <trkpt lat="48.90917" lon="7.53916">
        <ele>244.3</ele>
      </trkpt>
      <trkpt lat="48.90913" lon="7.53894">
        <ele>242.8</ele>
      </trkpt>
      <trkpt lat="48.90912" lon="7.53889">
        <ele>242.8</ele>
      </trkpt>
      <trkpt lat="48.90909" lon="7.53874">
        <ele>243.1</ele>
      </trkpt>
      <trkpt lat="48.909" lon="7.53824">
        <ele>246.9</ele>
        <extensions>
          <visugpx:TrkExtension xmlns:visugpx="https://www.visugpx.com/editgpx/">
            <visugpx:node>44</visugpx:node>
            </visugpx:TrkExtension>
        </extensions>
      </trkpt>
      <trkpt lat="48.90896" lon="7.53802">
        <ele>246.5</ele>
      </trkpt>
      <trkpt lat="48.90889" lon="7.53752">
        <ele>247.8</ele>
      </trkpt>
      <trkpt lat="48.90883" lon="7.53704">
        <ele>248.8</ele>
      </trkpt>
      <trkpt lat="48.90882" lon="7.53694">
        <ele>248.9</ele>
      </trkpt>
      <trkpt lat="48.90881" lon="7.53684">
        <ele>249</ele>
      </trkpt>
      <trkpt lat="48.90881" lon="7.53666">
        <ele>250</ele>
      </trkpt>
      <trkpt lat="48.90875" lon="7.53602">
        <ele>249.3</ele>
      </trkpt>
      <trkpt lat="48.9086" lon="7.53506">
        <ele>247.2</ele>
      </trkpt>
      <trkpt lat="48.90858" lon="7.53481">
        <ele>247.2</ele>
      </trkpt>
      <trkpt lat="48.90858" lon="7.53467">
        <ele>247.6</ele>
      </trkpt>
      <trkpt lat="48.90859" lon="7.53438">
        <ele>247.3</ele>
      </trkpt>
      <trkpt lat="48.90859" lon="7.53407">
        <ele>245.7</ele>
      </trkpt>
      <trkpt lat="48.90858" lon="7.53387">
        <ele>245.8</ele>
      </trkpt>
      <trkpt lat="48.90855" lon="7.53353">
        <ele>244.2</ele>
      </trkpt>
      <trkpt lat="48.90842" lon="7.53282">
        <ele>239.5</ele>
      </trkpt>
      <trkpt lat="48.90837" lon="7.53264">
        <ele>236.7</ele>
      </trkpt>
      <trkpt lat="48.90835" lon="7.5326">
        <ele>235.6</ele>
      </trkpt>
      <trkpt lat="48.90835" lon="7.53246">
        <ele>232.7</ele>
      </trkpt>
      <trkpt lat="48.90832" lon="7.53224">
        <ele>228.1</ele>
      </trkpt>
      <trkpt lat="48.9083" lon="7.53217">
        <ele>227.4</ele>
      </trkpt>
      <trkpt lat="48.90819" lon="7.53209">
        <ele>226.7</ele>
      </trkpt>
      <trkpt lat="48.90757" lon="7.53142">
        <ele>218.5</ele>
      </trkpt>
      <trkpt lat="48.90746" lon="7.5313">
        <ele>215.2</ele>
      </trkpt>
      <trkpt lat="48.90771" lon="7.53126">
        <ele>217.4</ele>
      </trkpt>
      <trkpt lat="48.90792" lon="7.53118">
        <ele>217.4</ele>
      </trkpt>
      <trkpt lat="48.90806" lon="7.53107">
        <ele>217.2</ele>
      </trkpt>
      <trkpt lat="48.90812" lon="7.53099">
        <ele>217</ele>
      </trkpt>
      <trkpt lat="48.90808" lon="7.53091">
        <ele>216.7</ele>
      </trkpt>
      <trkpt lat="48.90802" lon="7.53068">
        <ele>211.2</ele>
      </trkpt>
      <trkpt lat="48.90791" lon="7.53003">
        <ele>208</ele>
      </trkpt>
      <trkpt lat="48.90788" lon="7.53004">
        <ele>207.8</ele>
      </trkpt>
      <trkpt lat="48.90793" lon="7.53032">
        <ele>209.1</ele>
      </trkpt>
      <trkpt lat="48.90795" lon="7.53055">
        <ele>210.3</ele>
      </trkpt>
      <trkpt lat="48.90795" lon="7.53061">
        <ele>210.5</ele>
        <extensions>
          <visugpx:TrkExtension xmlns:visugpx="https://www.visugpx.com/editgpx/">
            <visugpx:node>45</visugpx:node>
            </visugpx:TrkExtension>
        </extensions>
      </trkpt>
      <trkpt lat="48.90795" lon="7.53055">
        <ele>210.3</ele>
      </trkpt>
      <trkpt lat="48.90793" lon="7.53032">
        <ele>209.1</ele>
      </trkpt>
      <trkpt lat="48.90788" lon="7.53004">
        <ele>207.8</ele>
      </trkpt>
      <trkpt lat="48.9078" lon="7.52935">
        <ele>199.2</ele>
      </trkpt>
      <trkpt lat="48.90773" lon="7.52891">
        <ele>193.8</ele>
      </trkpt>
      <trkpt lat="48.90773" lon="7.52886">
        <ele>193.7</ele>
      </trkpt>
      <trkpt lat="48.90768" lon="7.52887">
        <ele>193.7</ele>
      </trkpt>
      <trkpt lat="48.90762" lon="7.52887">
        <ele>193.6</ele>
      </trkpt>
      <trkpt lat="48.9076" lon="7.52876">
        <ele>193.2</ele>
      </trkpt>
      <trkpt lat="48.90758" lon="7.52869">
        <ele>192.9</ele>
      </trkpt>
      <trkpt lat="48.90748" lon="7.52818">
        <ele>190.6</ele>
      </trkpt>
      <trkpt lat="48.90747" lon="7.52811">
        <ele>190.8</ele>
      </trkpt>
      <trkpt lat="48.9074" lon="7.52787">
        <ele>191</ele>
      </trkpt>
      <trkpt lat="48.9074" lon="7.52784">
        <ele>191</ele>
      </trkpt>
      <trkpt lat="48.90737" lon="7.52776">
        <ele>191</ele>
      </trkpt>
      <trkpt lat="48.90736" lon="7.5277">
        <ele>190.9</ele>
      </trkpt>
      <trkpt lat="48.90734" lon="7.52762">
        <ele>190.8</ele>
      </trkpt>
      <trkpt lat="48.90732" lon="7.52754">
        <ele>190.7</ele>
      </trkpt>
      <trkpt lat="48.90729" lon="7.52746">
        <ele>196.2</ele>
      </trkpt>
      <trkpt lat="48.90726" lon="7.52742">
        <ele>197</ele>
      </trkpt>
      <trkpt lat="48.90729" lon="7.52735">
        <ele>197.3</ele>
      </trkpt>
      <trkpt lat="48.90733" lon="7.52718">
        <ele>199.1</ele>
      </trkpt>
      <trkpt lat="48.90729" lon="7.5272">
        <ele>199.2</ele>
      </trkpt>
      <trkpt lat="48.90725" lon="7.52721">
        <ele>199.5</ele>
      </trkpt>
      <trkpt lat="48.9072" lon="7.52712">
        <ele>200.9</ele>
      </trkpt>
      <trkpt lat="48.90708" lon="7.52688">
        <ele>204.3</ele>
      </trkpt>
      <trkpt lat="48.90706" lon="7.52684">
        <ele>204.9</ele>
      </trkpt>
      <trkpt lat="48.90702" lon="7.52686">
        <ele>205.3</ele>
      </trkpt>
      <trkpt lat="48.90687" lon="7.52713">
        <ele>203.3</ele>
      </trkpt>
      <trkpt lat="48.90682" lon="7.52718">
        <ele>202.8</ele>
      </trkpt>
      <trkpt lat="48.90679" lon="7.52718">
        <ele>202.9</ele>
      </trkpt>
      <trkpt lat="48.90673" lon="7.52713">
        <ele>203.9</ele>
      </trkpt>
      <trkpt lat="48.9067" lon="7.52697">
        <ele>207.4</ele>
      </trkpt>
      <trkpt lat="48.90664" lon="7.52682">
        <ele>212.9</ele>
      </trkpt>
      <trkpt lat="48.90661" lon="7.52659">
        <ele>220.7</ele>
      </trkpt>
      <trkpt lat="48.90667" lon="7.52629">
        <ele>226.8</ele>
      </trkpt>
      <trkpt lat="48.90666" lon="7.52624">
        <ele>224</ele>
      </trkpt>
      <trkpt lat="48.90664" lon="7.52619">
        <ele>224.8</ele>
      </trkpt>
      <trkpt lat="48.90675" lon="7.52615">
        <ele>229.3</ele>
      </trkpt>
      <trkpt lat="48.90681" lon="7.52618">
        <ele>228.4</ele>
      </trkpt>
      <trkpt lat="48.90688" lon="7.52625">
        <ele>226.8</ele>
      </trkpt>
      <trkpt lat="48.90692" lon="7.52626">
        <ele>226.5</ele>
      </trkpt>
      <trkpt lat="48.90724" lon="7.52648">
        <ele>219.4</ele>
      </trkpt>
      <trkpt lat="48.9073" lon="7.52646">
        <ele>218.7</ele>
      </trkpt>
      <trkpt lat="48.90734" lon="7.52643">
        <ele>218.8</ele>
      </trkpt>
      <trkpt lat="48.90741" lon="7.52629">
        <ele>222.9</ele>
      </trkpt>
      <trkpt lat="48.90762" lon="7.52608">
        <ele>217.5</ele>
      </trkpt>
      <trkpt lat="48.90783" lon="7.52591">
        <ele>214.4</ele>
      </trkpt>
      <trkpt lat="48.90794" lon="7.52575">
        <ele>228.9</ele>
        <extensions>
          <visugpx:TrkExtension xmlns:visugpx="https://www.visugpx.com/editgpx/">
            <visugpx:node>46</visugpx:node>
            </visugpx:TrkExtension>
        </extensions>
      </trkpt>
      <trkpt lat="48.9081" lon="7.52554">
        <ele>227.5</ele>
      </trkpt>
      <trkpt lat="48.90849" lon="7.52509">
        <ele>216.8</ele>
      </trkpt>
      <trkpt lat="48.90888" lon="7.5247">
        <ele>226.9</ele>
      </trkpt>
      <trkpt lat="48.90935" lon="7.52413">
        <ele>230.1</ele>
      </trkpt>
      <trkpt lat="48.9095" lon="7.52389">
        <ele>230.1</ele>
      </trkpt>
      <trkpt lat="48.90964" lon="7.52393">
        <ele>227.5</ele>
      </trkpt>
      <trkpt lat="48.90971" lon="7.52394">
        <ele>226.1</ele>
      </trkpt>
      <trkpt lat="48.90979" lon="7.5239">
        <ele>225.3</ele>
      </trkpt>
      <trkpt lat="48.90988" lon="7.52381">
        <ele>225.7</ele>
      </trkpt>
      <trkpt lat="48.90989" lon="7.52368">
        <ele>227.4</ele>
      </trkpt>
      <trkpt lat="48.90988" lon="7.52353">
        <ele>228.4</ele>
      </trkpt>
      <trkpt lat="48.90981" lon="7.52315">
        <ele>239</ele>
      </trkpt>
      <trkpt lat="48.90983" lon="7.52263">
        <ele>241.9</ele>
        <extensions>
          <visugpx:TrkExtension xmlns:visugpx="https://www.visugpx.com/editgpx/">
            <visugpx:node>47</visugpx:node>
            </visugpx:TrkExtension>
        </extensions>
      </trkpt>
      <trkpt lat="48.90984" lon="7.52255">
        <ele>241.2</ele>
      </trkpt>
      <trkpt lat="48.90995" lon="7.52223">
        <ele>249.8</ele>
      </trkpt>
      <trkpt lat="48.91012" lon="7.52196">
        <ele>244.8</ele>
      </trkpt>
      <trkpt lat="48.91028" lon="7.52188">
        <ele>244.9</ele>
      </trkpt>
      <trkpt lat="48.91042" lon="7.522">
        <ele>243.4</ele>
      </trkpt>
      <trkpt lat="48.91082" lon="7.52269">
        <ele>232.3</ele>
      </trkpt>
      <trkpt lat="48.91094" lon="7.52261">
        <ele>232.4</ele>
      </trkpt>
      <trkpt lat="48.91105" lon="7.52247">
        <ele>239</ele>
      </trkpt>
      <trkpt lat="48.91115" lon="7.52223">
        <ele>240.6</ele>
      </trkpt>
      <trkpt lat="48.9112" lon="7.52195">
        <ele>242.2</ele>
      </trkpt>
      <trkpt lat="48.91117" lon="7.5218">
        <ele>243</ele>
      </trkpt>
      <trkpt lat="48.9111" lon="7.52159">
        <ele>247.6</ele>
      </trkpt>
      <trkpt lat="48.91092" lon="7.52112">
        <ele>250.5</ele>
      </trkpt>
      <trkpt lat="48.91084" lon="7.5208">
        <ele>256.1</ele>
      </trkpt>
      <trkpt lat="48.91067" lon="7.52032">
        <ele>262.7</ele>
      </trkpt>
      <trkpt lat="48.91065" lon="7.52019">
        <ele>262.9</ele>
      </trkpt>
      <trkpt lat="48.91065" lon="7.52005">
        <ele>262.6</ele>
      </trkpt>
      <trkpt lat="48.91068" lon="7.51978">
        <ele>268.3</ele>
      </trkpt>
      <trkpt lat="48.91068" lon="7.51951">
        <ele>270.7</ele>
      </trkpt>
      <trkpt lat="48.91066" lon="7.5193">
        <ele>271</ele>
        <extensions>
          <visugpx:TrkExtension xmlns:visugpx="https://www.visugpx.com/editgpx/">
            <visugpx:node>48</visugpx:node>
            </visugpx:TrkExtension>
        </extensions>
      </trkpt>
      <trkpt lat="48.91053" lon="7.51821">
        <ele>284.6</ele>
      </trkpt>
      <trkpt lat="48.91041" lon="7.51738">
        <ele>292.8</ele>
      </trkpt>
      <trkpt lat="48.91036" lon="7.51663">
        <ele>299.7</ele>
      </trkpt>
      <trkpt lat="48.91049" lon="7.51622">
        <ele>301.5</ele>
      </trkpt>
      <trkpt lat="48.91088" lon="7.51568">
        <ele>314.4</ele>
      </trkpt>
      <trkpt lat="48.91101" lon="7.51543">
        <ele>320.1</ele>
      </trkpt>
      <trkpt lat="48.91124" lon="7.51535">
        <ele>322.2</ele>
      </trkpt>
      <trkpt lat="48.91161" lon="7.5155">
        <ele>321.6</ele>
      </trkpt>
      <trkpt lat="48.91216" lon="7.5156">
        <ele>323.3</ele>
      </trkpt>
      <trkpt lat="48.91229" lon="7.51556">
        <ele>323.4</ele>
      </trkpt>
      <trkpt lat="48.9124" lon="7.5153">
        <ele>327.2</ele>
      </trkpt>
      <trkpt lat="48.91257" lon="7.51412">
        <ele>335.5</ele>
      </trkpt>
      <trkpt lat="48.9126" lon="7.51386">
        <ele>330.4</ele>
      </trkpt>
      <trkpt lat="48.91265" lon="7.51327">
        <ele>336.5</ele>
      </trkpt>
      <trkpt lat="48.91265" lon="7.51322">
        <ele>335.8</ele>
        <extensions>
          <visugpx:TrkExtension xmlns:visugpx="https://www.visugpx.com/editgpx/">
            <visugpx:node>49</visugpx:node>
            </visugpx:TrkExtension>
        </extensions>
      </trkpt>
      <trkpt lat="48.91262" lon="7.51285">
        <ele>333.3</ele>
      </trkpt>
      <trkpt lat="48.9124" lon="7.5114">
        <ele>339.1</ele>
      </trkpt>
      <trkpt lat="48.91233" lon="7.51084">
        <ele>335.4</ele>
      </trkpt>
      <trkpt lat="48.91231" lon="7.51061">
        <ele>328.9</ele>
      </trkpt>
      <trkpt lat="48.91226" lon="7.51049">
        <ele>328</ele>
      </trkpt>
      <trkpt lat="48.91208" lon="7.51027">
        <ele>326.6</ele>
      </trkpt>
      <trkpt lat="48.91208" lon="7.51013">
        <ele>325.8</ele>
      </trkpt>
      <trkpt lat="48.91214" lon="7.50999">
        <ele>319.2</ele>
      </trkpt>
      <trkpt lat="48.91228" lon="7.50976">
        <ele>319</ele>
      </trkpt>
      <trkpt lat="48.91274" lon="7.50861">
        <ele>314.3</ele>
      </trkpt>
      <trkpt lat="48.91253" lon="7.50823">
        <ele>311.9</ele>
      </trkpt>
      <trkpt lat="48.91251" lon="7.50797">
        <ele>313.5</ele>
      </trkpt>
      <trkpt lat="48.91251" lon="7.50769">
        <ele>312.8</ele>
      </trkpt>
      <trkpt lat="48.9126" lon="7.50714">
        <ele>316.1</ele>
      </trkpt>
      <trkpt lat="48.91267" lon="7.50673">
        <ele>315.8</ele>
      </trkpt>
      <trkpt lat="48.91273" lon="7.50629">
        <ele>320</ele>
        <extensions>
          <visugpx:TrkExtension xmlns:visugpx="https://www.visugpx.com/editgpx/">
            <visugpx:node>50</visugpx:node>
            </visugpx:TrkExtension>
        </extensions>
      </trkpt>
      <trkpt lat="48.91273" lon="7.50628">
        <ele>320</ele>
      </trkpt>
      <trkpt lat="48.91288" lon="7.50547">
        <ele>321</ele>
      </trkpt>
      <trkpt lat="48.91302" lon="7.50518">
        <ele>321.9</ele>
      </trkpt>
      <trkpt lat="48.91347" lon="7.50448">
        <ele>328.5</ele>
      </trkpt>
      <trkpt lat="48.91375" lon="7.50409">
        <ele>326.2</ele>
      </trkpt>
      <trkpt lat="48.91403" lon="7.50372">
        <ele>327</ele>
      </trkpt>
      <trkpt lat="48.91431" lon="7.50342">
        <ele>334.4</ele>
      </trkpt>
      <trkpt lat="48.91479" lon="7.50276">
        <ele>334.9</ele>
      </trkpt>
      <trkpt lat="48.9152" lon="7.50238">
        <ele>341.3</ele>
      </trkpt>
      <trkpt lat="48.91547" lon="7.50219">
        <ele>343.2</ele>
      </trkpt>
      <trkpt lat="48.91575" lon="7.50206">
        <ele>344.7</ele>
      </trkpt>
      <trkpt lat="48.91585" lon="7.50199">
        <ele>346.8</ele>
      </trkpt>
      <trkpt lat="48.91594" lon="7.50192">
        <ele>346.8</ele>
      </trkpt>
      <trkpt lat="48.91593" lon="7.50156">
        <ele>348.6</ele>
      </trkpt>
      <trkpt lat="48.91577" lon="7.50123">
        <ele>348</ele>
      </trkpt>
      <trkpt lat="48.91547" lon="7.5007">
        <ele>350.7</ele>
        <extensions>
          <visugpx:TrkExtension xmlns:visugpx="https://www.visugpx.com/editgpx/">
            <visugpx:node>51</visugpx:node>
            </visugpx:TrkExtension>
        </extensions>
      </trkpt>
      <trkpt lat="48.91545" lon="7.50066">
        <ele>350.4</ele>
      </trkpt>
      <trkpt lat="48.91527" lon="7.50018">
        <ele>349.5</ele>
      </trkpt>
      <trkpt lat="48.91527" lon="7.49961">
        <ele>355.5</ele>
      </trkpt>
      <trkpt lat="48.91554" lon="7.49837">
        <ele>365.2</ele>
      </trkpt>
      <trkpt lat="48.91585" lon="7.49743">
        <ele>371.9</ele>
      </trkpt>
      <trkpt lat="48.916" lon="7.4969">
        <ele>371</ele>
      </trkpt>
      <trkpt lat="48.91629" lon="7.49646">
        <ele>369.2</ele>
      </trkpt>
      <trkpt lat="48.91674" lon="7.49569">
        <ele>366.1</ele>
      </trkpt>
      <trkpt lat="48.9168" lon="7.49562">
        <ele>364.8</ele>
        <extensions>
          <visugpx:TrkExtension xmlns:visugpx="https://www.visugpx.com/editgpx/">
            <visugpx:node>52</visugpx:node>
            </visugpx:TrkExtension>
        </extensions>
      </trkpt>
      <trkpt lat="48.91692" lon="7.49549">
        <ele>363</ele>
      </trkpt>
      <trkpt lat="48.91737" lon="7.4952">
        <ele>360.8</ele>
      </trkpt>
      <trkpt lat="48.91743" lon="7.49522">
        <ele>360.8</ele>
      </trkpt>
      <trkpt lat="48.91743" lon="7.49518">
        <ele>360.6</ele>
      </trkpt>
      <trkpt lat="48.91744" lon="7.4951">
        <ele>360.1</ele>
      </trkpt>
      <trkpt lat="48.91747" lon="7.49506">
        <ele>359.7</ele>
      </trkpt>
      <trkpt lat="48.91776" lon="7.495">
        <ele>357.3</ele>
      </trkpt>
      <trkpt lat="48.9179" lon="7.49499">
        <ele>356.7</ele>
      </trkpt>
      <trkpt lat="48.91802" lon="7.49491">
        <ele>356.3</ele>
      </trkpt>
      <trkpt lat="48.91817" lon="7.49474">
        <ele>356.1</ele>
      </trkpt>
      <trkpt lat="48.91826" lon="7.4946">
        <ele>356.3</ele>
      </trkpt>
      <trkpt lat="48.91838" lon="7.49434">
        <ele>354.3</ele>
      </trkpt>
      <trkpt lat="48.91854" lon="7.49395">
        <ele>354.8</ele>
      </trkpt>
      <trkpt lat="48.91869" lon="7.49347">
        <ele>354.7</ele>
      </trkpt>
      <trkpt lat="48.91884" lon="7.49274">
        <ele>353.5</ele>
        <extensions>
          <visugpx:TrkExtension xmlns:visugpx="https://www.visugpx.com/editgpx/">
            <visugpx:node>53</visugpx:node>
            </visugpx:TrkExtension>
        </extensions>
      </trkpt>
      <trkpt lat="48.91886" lon="7.4926">
        <ele>353.1</ele>
      </trkpt>
      <trkpt lat="48.91908" lon="7.49164">
        <ele>350.5</ele>
      </trkpt>
      <trkpt lat="48.91911" lon="7.49146">
        <ele>350.9</ele>
      </trkpt>
      <trkpt lat="48.91912" lon="7.49134">
        <ele>351</ele>
      </trkpt>
      <trkpt lat="48.91913" lon="7.49113">
        <ele>350.7</ele>
      </trkpt>
      <trkpt lat="48.91912" lon="7.49042">
        <ele>349.6</ele>
      </trkpt>
      <trkpt lat="48.91913" lon="7.49031">
        <ele>349.4</ele>
      </trkpt>
      <trkpt lat="48.91925" lon="7.49013">
        <ele>347.2</ele>
      </trkpt>
      <trkpt lat="48.91935" lon="7.48987">
        <ele>346.8</ele>
      </trkpt>
      <trkpt lat="48.91938" lon="7.48966">
        <ele>346.4</ele>
      </trkpt>
      <trkpt lat="48.91942" lon="7.48938">
        <ele>346.1</ele>
      </trkpt>
      <trkpt lat="48.91948" lon="7.48912">
        <ele>346.1</ele>
      </trkpt>
      <trkpt lat="48.91969" lon="7.48865">
        <ele>347</ele>
      </trkpt>
      <trkpt lat="48.91975" lon="7.48844">
        <ele>347.8</ele>
      </trkpt>
      <trkpt lat="48.91976" lon="7.4881">
        <ele>347.5</ele>
      </trkpt>
      <trkpt lat="48.91976" lon="7.48776">
        <ele>347.5</ele>
      </trkpt>
      <trkpt lat="48.91976" lon="7.48751">
        <ele>348</ele>
      </trkpt>
      <trkpt lat="48.91975" lon="7.4874">
        <ele>347.3</ele>
      </trkpt>
      <trkpt lat="48.91974" lon="7.48729">
        <ele>346.9</ele>
      </trkpt>
      <trkpt lat="48.91922" lon="7.48736">
        <ele>341.5</ele>
      </trkpt>
      <trkpt lat="48.91897" lon="7.48749">
        <ele>336.4</ele>
      </trkpt>
      <trkpt lat="48.91882" lon="7.48756">
        <ele>339.7</ele>
      </trkpt>
      <trkpt lat="48.91873" lon="7.48754">
        <ele>339.5</ele>
      </trkpt>
      <trkpt lat="48.91811" lon="7.48666">
        <ele>321.4</ele>
        <extensions>
          <visugpx:TrkExtension xmlns:visugpx="https://www.visugpx.com/editgpx/">
            <visugpx:node>54</visugpx:node>
            </visugpx:TrkExtension>
        </extensions>
      </trkpt>
      <trkpt lat="48.91804" lon="7.48657">
        <ele>320.6</ele>
      </trkpt>
      <trkpt lat="48.91744" lon="7.48558">
        <ele>301.4</ele>
      </trkpt>
      <trkpt lat="48.91719" lon="7.48535">
        <ele>297.1</ele>
      </trkpt>
      <trkpt lat="48.91708" lon="7.4853">
        <ele>296.2</ele>
      </trkpt>
      <trkpt lat="48.91699" lon="7.4853">
        <ele>295.8</ele>
      </trkpt>
      <trkpt lat="48.91688" lon="7.48538">
        <ele>296.1</ele>
      </trkpt>
      <trkpt lat="48.9167" lon="7.48561">
        <ele>297.6</ele>
      </trkpt>
      <trkpt lat="48.91664" lon="7.48559">
        <ele>291.6</ele>
      </trkpt>
      <trkpt lat="48.91648" lon="7.48614">
        <ele>295</ele>
      </trkpt>
      <trkpt lat="48.91641" lon="7.48667">
        <ele>298.4</ele>
      </trkpt>
      <trkpt lat="48.91639" lon="7.4871">
        <ele>296</ele>
      </trkpt>
      <trkpt lat="48.91648" lon="7.48753">
        <ele>300.2</ele>
      </trkpt>
      <trkpt lat="48.9166" lon="7.48793">
        <ele>298.9</ele>
      </trkpt>
      <trkpt lat="48.91663" lon="7.48819">
        <ele>302.6</ele>
      </trkpt>
      <trkpt lat="48.91659" lon="7.48834">
        <ele>305.8</ele>
      </trkpt>
      <trkpt lat="48.91652" lon="7.48859">
        <ele>301.5</ele>
      </trkpt>
      <trkpt lat="48.91587" lon="7.4887">
        <ele>292.4</ele>
      </trkpt>
      <trkpt lat="48.91552" lon="7.48912">
        <ele>280</ele>
      </trkpt>
      <trkpt lat="48.91527" lon="7.48921">
        <ele>282.8</ele>
      </trkpt>
      <trkpt lat="48.91506" lon="7.48896">
        <ele>275.7</ele>
      </trkpt>
      <trkpt lat="48.91477" lon="7.48895">
        <ele>266.1</ele>
      </trkpt>
      <trkpt lat="48.91462" lon="7.48866">
        <ele>262.1</ele>
      </trkpt>
      <trkpt lat="48.91432" lon="7.48847">
        <ele>257.4</ele>
      </trkpt>
      <trkpt lat="48.91409" lon="7.48796">
        <ele>240.2</ele>
      </trkpt>
      <trkpt lat="48.91375" lon="7.48805">
        <ele>237.8</ele>
      </trkpt>
      <trkpt lat="48.91335" lon="7.48842">
        <ele>235.4</ele>
      </trkpt>
      <trkpt lat="48.91304" lon="7.48885">
        <ele>234.8</ele>
      </trkpt>
      <trkpt lat="48.91272" lon="7.48907">
        <ele>232.8</ele>
      </trkpt>
      <trkpt lat="48.91256" lon="7.48948">
        <ele>233.8</ele>
        <extensions>
          <visugpx:TrkExtension xmlns:visugpx="https://www.visugpx.com/editgpx/">
            <visugpx:node>55</visugpx:node>
            </visugpx:TrkExtension>
        </extensions>
      </trkpt>
      <trkpt lat="48.91272" lon="7.48907">
        <ele>232.8</ele>
      </trkpt>
      <trkpt lat="48.9124" lon="7.48964">
        <ele>237.2</ele>
      </trkpt>
      <trkpt lat="48.91204" lon="7.48991">
        <ele>240.8</ele>
      </trkpt>
      <trkpt lat="48.91141" lon="7.49148">
        <ele>244</ele>
      </trkpt>
      <trkpt lat="48.91124" lon="7.49323">
        <ele>229.8</ele>
      </trkpt>
      <trkpt lat="48.91118" lon="7.49356">
        <ele>225.6</ele>
      </trkpt>
      <trkpt lat="48.91089" lon="7.49389">
        <ele>222.8</ele>
      </trkpt>
      <trkpt lat="48.91057" lon="7.4942">
        <ele>221.8</ele>
      </trkpt>
      <trkpt lat="48.91016" lon="7.49431">
        <ele>226.6</ele>
      </trkpt>
      <trkpt lat="48.90974" lon="7.49463">
        <ele>238.6</ele>
      </trkpt>
      <trkpt lat="48.90938" lon="7.49514">
        <ele>243</ele>
      </trkpt>
      <trkpt lat="48.90877" lon="7.49625">
        <ele>262.2</ele>
        <extensions>
          <visugpx:TrkExtension xmlns:visugpx="https://www.visugpx.com/editgpx/">
            <visugpx:node>56</visugpx:node>
            </visugpx:TrkExtension>
        </extensions>
      </trkpt>
      <trkpt lat="48.90864" lon="7.49649">
        <ele>264.5</ele>
      </trkpt>
      <trkpt lat="48.90841" lon="7.49663">
        <ele>271.3</ele>
      </trkpt>
      <trkpt lat="48.90816" lon="7.49669">
        <ele>271.3</ele>
      </trkpt>
      <trkpt lat="48.90793" lon="7.49671">
        <ele>268.7</ele>
      </trkpt>
      <trkpt lat="48.90789" lon="7.49663">
        <ele>272.1</ele>
      </trkpt>
      <trkpt lat="48.90738" lon="7.49657">
        <ele>264.8</ele>
      </trkpt>
      <trkpt lat="48.9065" lon="7.49592">
        <ele>253.6</ele>
      </trkpt>
      <trkpt lat="48.90618" lon="7.49616">
        <ele>248.2</ele>
      </trkpt>
      <trkpt lat="48.90603" lon="7.49616">
        <ele>247.2</ele>
        <extensions>
          <visugpx:TrkExtension xmlns:visugpx="https://www.visugpx.com/editgpx/">
            <visugpx:node>57</visugpx:node>
            </visugpx:TrkExtension>
        </extensions>
      </trkpt>
      <trkpt lat="48.90593" lon="7.4961">
        <ele>246.8</ele>
      </trkpt>
      <trkpt lat="48.9058" lon="7.49594">
        <ele>247.1</ele>
      </trkpt>
      <trkpt lat="48.90578" lon="7.49591">
        <ele>246.9</ele>
      </trkpt>
      <trkpt lat="48.90577" lon="7.49549">
        <ele>251.3</ele>
      </trkpt>
      <trkpt lat="48.90598" lon="7.49554">
        <ele>255.8</ele>
      </trkpt>
      <trkpt lat="48.90579" lon="7.49521">
        <ele>253.9</ele>
      </trkpt>
      <trkpt lat="48.90618" lon="7.49542">
        <ele>259.2</ele>
      </trkpt>
      <trkpt lat="48.90606" lon="7.49509">
        <ele>259.7</ele>
      </trkpt>
      <trkpt lat="48.90621" lon="7.49519">
        <ele>261.3</ele>
      </trkpt>
      <trkpt lat="48.90595" lon="7.4942">
        <ele>271.4</ele>
        <extensions>
          <visugpx:TrkExtension xmlns:visugpx="https://www.visugpx.com/editgpx/">
            <visugpx:node>58</visugpx:node>
            </visugpx:TrkExtension>
        </extensions>
      </trkpt>
      <trkpt lat="48.90563" lon="7.49299">
        <ele>282.4</ele>
      </trkpt>
      <trkpt lat="48.90546" lon="7.49298">
        <ele>282.7</ele>
      </trkpt>
      <trkpt lat="48.90516" lon="7.49371">
        <ele>270.8</ele>
      </trkpt>
      <trkpt lat="48.90501" lon="7.49367">
        <ele>271</ele>
      </trkpt>
      <trkpt lat="48.90439" lon="7.49245">
        <ele>288.3</ele>
      </trkpt>
      <trkpt lat="48.90412" lon="7.49221">
        <ele>287.4</ele>
      </trkpt>
      <trkpt lat="48.90354" lon="7.49141">
        <ele>299.5</ele>
      </trkpt>
      <trkpt lat="48.90329" lon="7.49138">
        <ele>304.6</ele>
      </trkpt>
      <trkpt lat="48.90304" lon="7.49164">
        <ele>305.8</ele>
      </trkpt>
      <trkpt lat="48.90298" lon="7.49182">
        <ele>304.7</ele>
      </trkpt>
      <trkpt lat="48.90295" lon="7.49189">
        <ele>305.2</ele>
      </trkpt>
      <trkpt lat="48.90311" lon="7.49243">
        <ele>299.7</ele>
      </trkpt>
      <trkpt lat="48.90316" lon="7.49306">
        <ele>303.2</ele>
      </trkpt>
      <trkpt lat="48.9031" lon="7.49405">
        <ele>309.6</ele>
      </trkpt>
      <trkpt lat="48.90313" lon="7.49419">
        <ele>311.2</ele>
      </trkpt>
      <trkpt lat="48.90313" lon="7.49425">
        <ele>311.7</ele>
      </trkpt>
      <trkpt lat="48.90318" lon="7.49459">
        <ele>314.8</ele>
      </trkpt>
      <trkpt lat="48.90322" lon="7.49545">
        <ele>320.4</ele>
      </trkpt>
      <trkpt lat="48.90317" lon="7.4959">
        <ele>322.3</ele>
      </trkpt>
      <trkpt lat="48.90323" lon="7.49604">
        <ele>323.5</ele>
        <extensions>
          <visugpx:TrkExtension xmlns:visugpx="https://www.visugpx.com/editgpx/">
            <visugpx:node>59</visugpx:node>
            </visugpx:TrkExtension>
        </extensions>
      </trkpt>
      <trkpt lat="48.90325" lon="7.49611">
        <ele>324.6</ele>
      </trkpt>
      <trkpt lat="48.90325" lon="7.49723">
        <ele>333.2</ele>
      </trkpt>
      <trkpt lat="48.90328" lon="7.49777">
        <ele>336</ele>
      </trkpt>
      <trkpt lat="48.90323" lon="7.49801">
        <ele>337.6</ele>
      </trkpt>
      <trkpt lat="48.90322" lon="7.49845">
        <ele>336.1</ele>
      </trkpt>
      <trkpt lat="48.9031" lon="7.4988">
        <ele>336.1</ele>
      </trkpt>
      <trkpt lat="48.90305" lon="7.49916">
        <ele>335.2</ele>
      </trkpt>
      <trkpt lat="48.90302" lon="7.49932">
        <ele>332.3</ele>
      </trkpt>
      <trkpt lat="48.90298" lon="7.49943">
        <ele>332.1</ele>
      </trkpt>
      <trkpt lat="48.9028" lon="7.49966">
        <ele>331.2</ele>
      </trkpt>
      <trkpt lat="48.90271" lon="7.49974">
        <ele>330.4</ele>
      </trkpt>
      <trkpt lat="48.90254" lon="7.49989">
        <ele>327.7</ele>
      </trkpt>
      <trkpt lat="48.9024" lon="7.49992">
        <ele>324.3</ele>
      </trkpt>
      <trkpt lat="48.90232" lon="7.49989">
        <ele>323.7</ele>
      </trkpt>
      <trkpt lat="48.90203" lon="7.4996">
        <ele>322.9</ele>
      </trkpt>
      <trkpt lat="48.90174" lon="7.49953">
        <ele>321.8</ele>
      </trkpt>
      <trkpt lat="48.90162" lon="7.49959">
        <ele>310.3</ele>
      </trkpt>
      <trkpt lat="48.90147" lon="7.49972">
        <ele>307.9</ele>
      </trkpt>
      <trkpt lat="48.90144" lon="7.49974">
        <ele>307.5</ele>
      </trkpt>
      <trkpt lat="48.9012" lon="7.49964">
        <ele>305.8</ele>
      </trkpt>
      <trkpt lat="48.90071" lon="7.49906">
        <ele>305</ele>
      </trkpt>
      <trkpt lat="48.89968" lon="7.49816">
        <ele>293.7</ele>
        <extensions>
          <visugpx:TrkExtension xmlns:visugpx="https://www.visugpx.com/editgpx/">
            <visugpx:node>60</visugpx:node>
            </visugpx:TrkExtension>
        </extensions>
      </trkpt>
      <trkpt lat="48.89957" lon="7.49806">
        <ele>292.1</ele>
      </trkpt>
      <trkpt lat="48.89848" lon="7.49584">
        <ele>276.9</ele>
      </trkpt>
      <trkpt lat="48.89834" lon="7.49562">
        <ele>280.7</ele>
      </trkpt>
      <trkpt lat="48.8971" lon="7.4935">
        <ele>251.8</ele>
      </trkpt>
      <trkpt lat="48.896" lon="7.492">
        <ele>240.6</ele>
        <extensions>
          <visugpx:TrkExtension xmlns:visugpx="https://www.visugpx.com/editgpx/">
            <visugpx:node>61</visugpx:node>
            </visugpx:TrkExtension>
        </extensions>
      </trkpt>
      <trkpt lat="48.89587" lon="7.49183">
        <ele>239.4</ele>
      </trkpt>
      <trkpt lat="48.89538" lon="7.49095">
        <ele>228.6</ele>
      </trkpt>
      <trkpt lat="48.89531" lon="7.49088">
        <ele>227.6</ele>
      </trkpt>
      <trkpt lat="48.89526" lon="7.49088">
        <ele>226.8</ele>
      </trkpt>
      <trkpt lat="48.8952" lon="7.49092">
        <ele>225.9</ele>
      </trkpt>
      <trkpt lat="48.895" lon="7.49032">
        <ele>226.7</ele>
      </trkpt>
      <trkpt lat="48.89494" lon="7.48999">
        <ele>223.6</ele>
      </trkpt>
      <trkpt lat="48.8949" lon="7.48957">
        <ele>220.4</ele>
      </trkpt>
      <trkpt lat="48.89487" lon="7.4894">
        <ele>220.5</ele>
      </trkpt>
      <trkpt lat="48.89482" lon="7.48922">
        <ele>220.7</ele>
      </trkpt>
      <trkpt lat="48.89474" lon="7.48902">
        <ele>219.2</ele>
      </trkpt>
      <trkpt lat="48.89469" lon="7.48894">
        <ele>218.7</ele>
      </trkpt>
      <trkpt lat="48.89423" lon="7.48863">
        <ele>217</ele>
      </trkpt>
      <trkpt lat="48.89385" lon="7.4883">
        <ele>220</ele>
      </trkpt>
      <trkpt lat="48.89374" lon="7.4882">
        <ele>220.9</ele>
      </trkpt>
      <trkpt lat="48.89363" lon="7.48813">
        <ele>221.4</ele>
      </trkpt>
      <trkpt lat="48.89355" lon="7.4881">
        <ele>221.7</ele>
      </trkpt>
      <trkpt lat="48.89331" lon="7.48808">
        <ele>226.1</ele>
      </trkpt>
      <trkpt lat="48.89305" lon="7.48817">
        <ele>226.9</ele>
      </trkpt>
      <trkpt lat="48.89263" lon="7.48836">
        <ele>223.6</ele>
      </trkpt>
      <trkpt lat="48.8922" lon="7.48842">
        <ele>226.2</ele>
      </trkpt>
      <trkpt lat="48.89162" lon="7.48862">
        <ele>227.3</ele>
      </trkpt>
      <trkpt lat="48.89151" lon="7.48864">
        <ele>226.6</ele>
      </trkpt>
      <trkpt lat="48.89143" lon="7.48867">
        <ele>226</ele>
      </trkpt>
      <trkpt lat="48.89092" lon="7.48893">
        <ele>222.8</ele>
      </trkpt>
      <trkpt lat="48.89076" lon="7.48902">
        <ele>220.1</ele>
        <extensions>
          <visugpx:TrkExtension xmlns:visugpx="https://www.visugpx.com/editgpx/">
            <visugpx:node>62</visugpx:node>
            </visugpx:TrkExtension>
        </extensions>
      </trkpt>
      <trkpt lat="48.89047" lon="7.48918">
        <ele>218.9</ele>
      </trkpt>
      <trkpt lat="48.89006" lon="7.48931">
        <ele>218.3</ele>
      </trkpt>
      <trkpt lat="48.88948" lon="7.4896">
        <ele>216.6</ele>
      </trkpt>
      <trkpt lat="48.88921" lon="7.48968">
        <ele>216.2</ele>
      </trkpt>
      <trkpt lat="48.88897" lon="7.48969">
        <ele>214.3</ele>
      </trkpt>
      <trkpt lat="48.88878" lon="7.48967">
        <ele>214.1</ele>
      </trkpt>
      <trkpt lat="48.88807" lon="7.48947">
        <ele>210.8</ele>
      </trkpt>
      <trkpt lat="48.888" lon="7.48943">
        <ele>210.6</ele>
      </trkpt>
      <trkpt lat="48.88762" lon="7.48911">
        <ele>208</ele>
      </trkpt>
      <trkpt lat="48.88748" lon="7.48903">
        <ele>206.7</ele>
      </trkpt>
      <trkpt lat="48.88657" lon="7.48883">
        <ele>204.3</ele>
      </trkpt>
      <trkpt lat="48.88642" lon="7.48878">
        <ele>204.1</ele>
      </trkpt>
      <trkpt lat="48.8862" lon="7.48867">
        <ele>203.9</ele>
      </trkpt>
      <trkpt lat="48.88596" lon="7.48848">
        <ele>203.9</ele>
      </trkpt>
      <trkpt lat="48.8857" lon="7.48833">
        <ele>203.4</ele>
      </trkpt>
      <trkpt lat="48.8856" lon="7.48829">
        <ele>203</ele>
      </trkpt>
      <trkpt lat="48.8855" lon="7.48824">
        <ele>202.7</ele>
      </trkpt>
      <trkpt lat="48.88418" lon="7.48753">
        <ele>198.1</ele>
      </trkpt>
      <trkpt lat="48.88369" lon="7.48719">
        <ele>196.1</ele>
      </trkpt>
      <trkpt lat="48.88349" lon="7.48702">
        <ele>196</ele>
      </trkpt>
      <trkpt lat="48.88328" lon="7.48685">
        <ele>195.6</ele>
      </trkpt>
      <trkpt lat="48.88304" lon="7.4867">
        <ele>195.5</ele>
      </trkpt>
      <trkpt lat="48.88285" lon="7.4866">
        <ele>195.3</ele>
      </trkpt>
      <trkpt lat="48.88232" lon="7.48624">
        <ele>193.2</ele>
      </trkpt>
      <trkpt lat="48.88209" lon="7.48609">
        <ele>192.5</ele>
      </trkpt>
      <trkpt lat="48.88177" lon="7.48589">
        <ele>191</ele>
      </trkpt>
      <trkpt lat="48.88115" lon="7.48561">
        <ele>188.3</ele>
      </trkpt>
      <trkpt lat="48.88103" lon="7.48558">
        <ele>188.2</ele>
      </trkpt>
      <trkpt lat="48.88086" lon="7.48567">
        <ele>188.1</ele>
      </trkpt>
      <trkpt lat="48.88073" lon="7.48574">
        <ele>187.8</ele>
      </trkpt>
      <trkpt lat="48.88005" lon="7.48613">
        <ele>188.2</ele>
      </trkpt>
      <trkpt lat="48.87994" lon="7.48616">
        <ele>187.5</ele>
      </trkpt>
      <trkpt lat="48.8798" lon="7.4862">
        <ele>187.3</ele>
      </trkpt>
      <trkpt lat="48.87935" lon="7.48624">
        <ele>186.7</ele>
      </trkpt>
      <trkpt lat="48.8781" lon="7.48618">
        <ele>186.2</ele>
      </trkpt>
      <trkpt lat="48.87787" lon="7.48618">
        <ele>186.5</ele>
      </trkpt>
      <trkpt lat="48.8776" lon="7.48619">
        <ele>186.8</ele>
      </trkpt>
      <trkpt lat="48.87691" lon="7.48624">
        <ele>187.5</ele>
      </trkpt>
      <trkpt lat="48.87654" lon="7.4862">
        <ele>187.7</ele>
      </trkpt>
      <trkpt lat="48.87618" lon="7.4861">
        <ele>187.9</ele>
        <extensions>
          <visugpx:TrkExtension xmlns:visugpx="https://www.visugpx.com/editgpx/">
            <visugpx:node>63</visugpx:node>
            </visugpx:TrkExtension>
        </extensions>
      </trkpt>
      <trkpt lat="48.87616" lon="7.48609">
        <ele>187.9</ele>
      </trkpt>
      <trkpt lat="48.87539" lon="7.48578">
        <ele>187.1</ele>
      </trkpt>
      <trkpt lat="48.87526" lon="7.48574">
        <ele>187</ele>
      </trkpt>
      <trkpt lat="48.87523" lon="7.48572">
        <ele>186.9</ele>
      </trkpt>
      <trkpt lat="48.87491" lon="7.48557">
        <ele>186.9</ele>
      </trkpt>
      <trkpt lat="48.8746" lon="7.48544">
        <ele>187.2</ele>
      </trkpt>
      <trkpt lat="48.87428" lon="7.48529">
        <ele>187.8</ele>
      </trkpt>
      <trkpt lat="48.87413" lon="7.48523">
        <ele>189.6</ele>
      </trkpt>
      <trkpt lat="48.874" lon="7.48517">
        <ele>189.7</ele>
      </trkpt>
      <trkpt lat="48.87355" lon="7.48498">
        <ele>189.3</ele>
      </trkpt>
      <trkpt lat="48.87333" lon="7.48486">
        <ele>189.4</ele>
      </trkpt>
      <trkpt lat="48.87326" lon="7.48481">
        <ele>189.2</ele>
      </trkpt>
      <trkpt lat="48.87326" lon="7.48481">
        <ele>189.2</ele>
        <extensions>
          <visugpx:TrkExtension xmlns:visugpx="https://www.visugpx.com/editgpx/">
            <visugpx:node>64</visugpx:node>
            </visugpx:TrkExtension>
        </extensions>
      </trkpt>
      <trkpt lat="48.87333" lon="7.48486">
        <ele>189.4</ele>
      </trkpt>
      <trkpt lat="48.87334" lon="7.48473">
        <ele>189</ele>
      </trkpt>
      <trkpt lat="48.87336" lon="7.48421">
        <ele>187.3</ele>
      </trkpt>
      <trkpt lat="48.87337" lon="7.48392">
        <ele>187.3</ele>
      </trkpt>
      <trkpt lat="48.87337" lon="7.48372">
        <ele>187.3</ele>
      </trkpt>
      <trkpt lat="48.87339" lon="7.48345">
        <ele>186.7</ele>
      </trkpt>
      <trkpt lat="48.87339" lon="7.48325">
        <ele>186.4</ele>
      </trkpt>
      <trkpt lat="48.8734" lon="7.48315">
        <ele>186.5</ele>
      </trkpt>
      <trkpt lat="48.8734" lon="7.48303">
        <ele>186.6</ele>
      </trkpt>
      <trkpt lat="48.8734" lon="7.48292">
        <ele>186.7</ele>
      </trkpt>
      <trkpt lat="48.87341" lon="7.48256">
        <ele>186.3</ele>
      </trkpt>
      <trkpt lat="48.87342" lon="7.48228">
        <ele>186.1</ele>
      </trkpt>
      <trkpt lat="48.87341" lon="7.48197">
        <ele>185.9</ele>
      </trkpt>
      <trkpt lat="48.8734" lon="7.48191">
        <ele>185.8</ele>
      </trkpt>
      <trkpt lat="48.87324" lon="7.48079">
        <ele>187.6</ele>
      </trkpt>
      <trkpt lat="48.87322" lon="7.48057">
        <ele>188.3</ele>
      </trkpt>
      <trkpt lat="48.87322" lon="7.4803">
        <ele>189</ele>
      </trkpt>
      <trkpt lat="48.87325" lon="7.48007">
        <ele>189.6</ele>
      </trkpt>
      <trkpt lat="48.87329" lon="7.47995">
        <ele>190.4</ele>
      </trkpt>
      <trkpt lat="48.87333" lon="7.47986">
        <ele>190.8</ele>
      </trkpt>
      <trkpt lat="48.87336" lon="7.4798">
        <ele>191.1</ele>
      </trkpt>
      <trkpt lat="48.87341" lon="7.47971">
        <ele>191.5</ele>
      </trkpt>
      <trkpt lat="48.87353" lon="7.47964">
        <ele>191.7</ele>
      </trkpt>
      <trkpt lat="48.87352" lon="7.4796">
        <ele>191.8</ele>
      </trkpt>
      <trkpt lat="48.87351" lon="7.47946">
        <ele>192.1</ele>
      </trkpt>
      <trkpt lat="48.87351" lon="7.47936">
        <ele>192.3</ele>
      </trkpt>
      <trkpt lat="48.87351" lon="7.47927">
        <ele>192.5</ele>
      </trkpt>
      <trkpt lat="48.8735" lon="7.47921">
        <ele>192.6</ele>
      </trkpt>
      <trkpt lat="48.87349" lon="7.47915">
        <ele>193.6</ele>
      </trkpt>
      <trkpt lat="48.87341" lon="7.47859">
        <ele>194.1</ele>
      </trkpt>
      <trkpt lat="48.87326" lon="7.47817">
        <ele>193.9</ele>
      </trkpt>
      <trkpt lat="48.87321" lon="7.47801">
        <ele>193.8</ele>
      </trkpt>
      <trkpt lat="48.87323" lon="7.4779">
        <ele>193.8</ele>
      </trkpt>
      <trkpt lat="48.8732" lon="7.47745">
        <ele>194.2</ele>
      </trkpt>
      <trkpt lat="48.87323" lon="7.47744">
        <ele>194.2</ele>
      </trkpt>
      <trkpt lat="48.87323" lon="7.47741">
        <ele>194.2</ele>
      </trkpt>
      <trkpt lat="48.87322" lon="7.4773">
        <ele>194.4</ele>
      </trkpt>
      <trkpt lat="48.87326" lon="7.47652">
        <ele>197.7</ele>
      </trkpt>
      <trkpt lat="48.87326" lon="7.47646">
        <ele>198</ele>
      </trkpt>
      <trkpt lat="48.87327" lon="7.47641">
        <ele>198.2</ele>
      </trkpt>
      <trkpt lat="48.87311" lon="7.47639">
        <ele>198.2</ele>
      </trkpt>
      <trkpt lat="48.8731" lon="7.47626">
        <ele>198.7</ele>
      </trkpt>
      <trkpt lat="48.873" lon="7.47552">
        <ele>203.7</ele>
      </trkpt>
      <trkpt lat="48.87294" lon="7.47502">
        <ele>204.9</ele>
      </trkpt>
      <trkpt lat="48.87293" lon="7.47483">
        <ele>207.8</ele>
      </trkpt>
      <trkpt lat="48.87295" lon="7.47477">
        <ele>207.9</ele>
        <extensions>
          <visugpx:TrkExtension xmlns:visugpx="https://www.visugpx.com/editgpx/">
            <visugpx:node>65</visugpx:node>
            </visugpx:TrkExtension>
        </extensions>
      </trkpt>
      <trkpt lat="48.873" lon="7.47466">
        <ele>208.1</ele>
      </trkpt>
      <trkpt lat="48.87383" lon="7.47326">
        <ele>216.8</ele>
      </trkpt>
      <trkpt lat="48.8739" lon="7.47312">
        <ele>217.1</ele>
      </trkpt>
      <trkpt lat="48.87423" lon="7.47254">
        <ele>219.7</ele>
      </trkpt>
      <trkpt lat="48.87428" lon="7.47245">
        <ele>220.1</ele>
      </trkpt>
      <trkpt lat="48.87433" lon="7.47236">
        <ele>220.2</ele>
      </trkpt>
      <trkpt lat="48.87466" lon="7.47185">
        <ele>220.3</ele>
      </trkpt>
      <trkpt lat="48.87474" lon="7.47177">
        <ele>220.2</ele>
      </trkpt>
      <trkpt lat="48.87491" lon="7.47166">
        <ele>220.3</ele>
      </trkpt>
      <trkpt lat="48.87493" lon="7.47165">
        <ele>220.2</ele>
      </trkpt>
      <trkpt lat="48.87564" lon="7.47124">
        <ele>224.5</ele>
      </trkpt>
      <trkpt lat="48.87572" lon="7.4712">
        <ele>224.9</ele>
      </trkpt>
      <trkpt lat="48.87583" lon="7.47114">
        <ele>225.6</ele>
      </trkpt>
      <trkpt lat="48.87595" lon="7.47108">
        <ele>227.6</ele>
      </trkpt>
      <trkpt lat="48.87606" lon="7.47102">
        <ele>227.7</ele>
      </trkpt>
      <trkpt lat="48.87597" lon="7.47048">
        <ele>233.4</ele>
      </trkpt>
      <trkpt lat="48.87595" lon="7.47027">
        <ele>235</ele>
      </trkpt>
      <trkpt lat="48.87589" lon="7.47021">
        <ele>235.7</ele>
      </trkpt>
      <trkpt lat="48.87585" lon="7.47004">
        <ele>238.1</ele>
      </trkpt>
      <trkpt lat="48.87575" lon="7.46967">
        <ele>237</ele>
      </trkpt>
      <trkpt lat="48.87566" lon="7.46945">
        <ele>237.4</ele>
      </trkpt>
      <trkpt lat="48.87552" lon="7.46916">
        <ele>240.2</ele>
      </trkpt>
      <trkpt lat="48.87547" lon="7.46895">
        <ele>240.1</ele>
      </trkpt>
      <trkpt lat="48.87541" lon="7.46848">
        <ele>240.7</ele>
      </trkpt>
      <trkpt lat="48.87515" lon="7.46663">
        <ele>237.1</ele>
      </trkpt>
      <trkpt lat="48.8747" lon="7.46575">
        <ele>231.5</ele>
      </trkpt>
      <trkpt lat="48.8745" lon="7.46528">
        <ele>230.1</ele>
        <extensions>
          <visugpx:TrkExtension xmlns:visugpx="https://www.visugpx.com/editgpx/">
            <visugpx:node>66</visugpx:node>
            </visugpx:TrkExtension>
        </extensions>
      </trkpt>
      <trkpt lat="48.87428" lon="7.46474">
        <ele>227.4</ele>
      </trkpt>
      <trkpt lat="48.87414" lon="7.46423">
        <ele>226.2</ele>
      </trkpt>
      <trkpt lat="48.87396" lon="7.46326">
        <ele>217.8</ele>
      </trkpt>
      <trkpt lat="48.87391" lon="7.46273">
        <ele>213.9</ele>
      </trkpt>
      <trkpt lat="48.87407" lon="7.46233">
        <ele>207.5</ele>
      </trkpt>
      <trkpt lat="48.87406" lon="7.46216">
        <ele>205.6</ele>
      </trkpt>
      <trkpt lat="48.87399" lon="7.46191">
        <ele>203.3</ele>
      </trkpt>
      <trkpt lat="48.87402" lon="7.46184">
        <ele>202.6</ele>
      </trkpt>
      <trkpt lat="48.87428" lon="7.46145">
        <ele>198</ele>
      </trkpt>
      <trkpt lat="48.87454" lon="7.46109">
        <ele>197.6</ele>
      </trkpt>
      <trkpt lat="48.87465" lon="7.46097">
        <ele>197.9</ele>
      </trkpt>
      <trkpt lat="48.87477" lon="7.46086">
        <ele>198.4</ele>
      </trkpt>
      <trkpt lat="48.87572" lon="7.4601">
        <ele>209.4</ele>
      </trkpt>
      <trkpt lat="48.87606" lon="7.4597">
        <ele>214.6</ele>
      </trkpt>
      <trkpt lat="48.87727" lon="7.45772">
        <ele>208.8</ele>
      </trkpt>
      <trkpt lat="48.87729" lon="7.45757">
        <ele>208.1</ele>
      </trkpt>
      <trkpt lat="48.87732" lon="7.45753">
        <ele>207.8</ele>
      </trkpt>
      <trkpt lat="48.87737" lon="7.45748">
        <ele>205.9</ele>
      </trkpt>
      <trkpt lat="48.87745" lon="7.45749">
        <ele>206</ele>
      </trkpt>
      <trkpt lat="48.87748" lon="7.45739">
        <ele>205.9</ele>
      </trkpt>
      <trkpt lat="48.87811" lon="7.45628">
        <ele>207.2</ele>
      </trkpt>
      <trkpt lat="48.87833" lon="7.45598">
        <ele>208.2</ele>
      </trkpt>
      <trkpt lat="48.87841" lon="7.45586">
        <ele>208.9</ele>
      </trkpt>
      <trkpt lat="48.87916" lon="7.45504">
        <ele>216.3</ele>
      </trkpt>
      <trkpt lat="48.87962" lon="7.45451">
        <ele>223.5</ele>
      </trkpt>
      <trkpt lat="48.87973" lon="7.45431">
        <ele>225.3</ele>
      </trkpt>
      <trkpt lat="48.8798" lon="7.45386">
        <ele>234.3</ele>
      </trkpt>
      <trkpt lat="48.8798" lon="7.45382">
        <ele>234.7</ele>
      </trkpt>
      <trkpt lat="48.87982" lon="7.45378">
        <ele>235.2</ele>
      </trkpt>
      <trkpt lat="48.87985" lon="7.45371">
        <ele>236.1</ele>
      </trkpt>
      <trkpt lat="48.87983" lon="7.45364">
        <ele>236.9</ele>
      </trkpt>
      <trkpt lat="48.87986" lon="7.45353">
        <ele>238.9</ele>
      </trkpt>
      <trkpt lat="48.87997" lon="7.45345">
        <ele>242</ele>
      </trkpt>
      <trkpt lat="48.88009" lon="7.45342">
        <ele>243.5</ele>
      </trkpt>
      <trkpt lat="48.88039" lon="7.45344">
        <ele>240.6</ele>
      </trkpt>
      <trkpt lat="48.88056" lon="7.45348">
        <ele>240.4</ele>
      </trkpt>
      <trkpt lat="48.88073" lon="7.45347">
        <ele>241.5</ele>
      </trkpt>
      <trkpt lat="48.88084" lon="7.45343">
        <ele>240.7</ele>
      </trkpt>
      <trkpt lat="48.88059" lon="7.45289">
        <ele>251.4</ele>
      </trkpt>
      <trkpt lat="48.88055" lon="7.45285">
        <ele>251.7</ele>
      </trkpt>
      <trkpt lat="48.88041" lon="7.4526">
        <ele>253.3</ele>
      </trkpt>
      <trkpt lat="48.88032" lon="7.45239">
        <ele>258.8</ele>
      </trkpt>
      <trkpt lat="48.88023" lon="7.45211">
        <ele>259.7</ele>
      </trkpt>
      <trkpt lat="48.87987" lon="7.45061">
        <ele>273.7</ele>
      </trkpt>
      <trkpt lat="48.87976" lon="7.45028">
        <ele>274.9</ele>
      </trkpt>
      <trkpt lat="48.87951" lon="7.4494">
        <ele>277.8</ele>
        <extensions>
          <visugpx:TrkExtension xmlns:visugpx="https://www.visugpx.com/editgpx/">
            <visugpx:node>67</visugpx:node>
            </visugpx:TrkExtension>
        </extensions>
      </trkpt>
      <trkpt lat="48.87949" lon="7.44934">
        <ele>277.8</ele>
      </trkpt>
      <trkpt lat="48.87948" lon="7.44858">
        <ele>279.3</ele>
      </trkpt>
      <trkpt lat="48.87927" lon="7.44774">
        <ele>282</ele>
      </trkpt>
      <trkpt lat="48.87906" lon="7.44673">
        <ele>285.1</ele>
      </trkpt>
      <trkpt lat="48.87898" lon="7.44621">
        <ele>286.8</ele>
      </trkpt>
      <trkpt lat="48.87898" lon="7.44569">
        <ele>293.1</ele>
      </trkpt>
      <trkpt lat="48.87902" lon="7.44503">
        <ele>295.4</ele>
      </trkpt>
      <trkpt lat="48.87902" lon="7.44467">
        <ele>295.6</ele>
      </trkpt>
      <trkpt lat="48.87893" lon="7.44401">
        <ele>295.1</ele>
      </trkpt>
      <trkpt lat="48.87882" lon="7.44357">
        <ele>295.9</ele>
      </trkpt>
      <trkpt lat="48.87857" lon="7.44289">
        <ele>298.1</ele>
      </trkpt>
      <trkpt lat="48.87829" lon="7.44193">
        <ele>296.3</ele>
      </trkpt>
      <trkpt lat="48.87821" lon="7.44132">
        <ele>296.3</ele>
      </trkpt>
      <trkpt lat="48.87818" lon="7.44088">
        <ele>298.3</ele>
      </trkpt>
      <trkpt lat="48.87815" lon="7.44035">
        <ele>298.9</ele>
      </trkpt>
      <trkpt lat="48.87813" lon="7.44017">
        <ele>299.6</ele>
      </trkpt>
      <trkpt lat="48.87795" lon="7.43925">
        <ele>301.8</ele>
      </trkpt>
      <trkpt lat="48.87789" lon="7.43912">
        <ele>302.8</ele>
      </trkpt>
      <trkpt lat="48.87778" lon="7.4389">
        <ele>302.6</ele>
      </trkpt>
      <trkpt lat="48.87774" lon="7.43884">
        <ele>302.7</ele>
      </trkpt>
      <trkpt lat="48.87722" lon="7.43796">
        <ele>303.7</ele>
      </trkpt>
      <trkpt lat="48.87676" lon="7.43675">
        <ele>307.5</ele>
      </trkpt>
      <trkpt lat="48.87643" lon="7.43623">
        <ele>305.3</ele>
      </trkpt>
      <trkpt lat="48.87594" lon="7.43492">
        <ele>308.3</ele>
      </trkpt>
      <trkpt lat="48.87585" lon="7.43461">
        <ele>310.1</ele>
      </trkpt>
      <trkpt lat="48.8757" lon="7.43391">
        <ele>306.4</ele>
      </trkpt>
      <trkpt lat="48.8754" lon="7.43282">
        <ele>309.1</ele>
      </trkpt>
      <trkpt lat="48.87535" lon="7.43264">
        <ele>309</ele>
      </trkpt>
      <trkpt lat="48.87507" lon="7.43209">
        <ele>311.8</ele>
      </trkpt>
      <trkpt lat="48.87453" lon="7.4314">
        <ele>313.3</ele>
      </trkpt>
      <trkpt lat="48.87429" lon="7.43106">
        <ele>314.8</ele>
      </trkpt>
      <trkpt lat="48.87386" lon="7.43056">
        <ele>314.4</ele>
      </trkpt>
      <trkpt lat="48.87358" lon="7.43019">
        <ele>314.5</ele>
      </trkpt>
      <trkpt lat="48.87317" lon="7.42949">
        <ele>312.2</ele>
      </trkpt>
      <trkpt lat="48.87313" lon="7.42941">
        <ele>312.4</ele>
        <extensions>
          <visugpx:TrkExtension xmlns:visugpx="https://www.visugpx.com/editgpx/">
            <visugpx:node>68</visugpx:node>
            </visugpx:TrkExtension>
        </extensions>
      </trkpt>
      <trkpt lat="48.87292" lon="7.42899">
        <ele>316.2</ele>
      </trkpt>
      <trkpt lat="48.87186" lon="7.42712">
        <ele>326.1</ele>
      </trkpt>
      <trkpt lat="48.87163" lon="7.42669">
        <ele>322.3</ele>
      </trkpt>
      <trkpt lat="48.87152" lon="7.4265">
        <ele>320.3</ele>
      </trkpt>
      <trkpt lat="48.87145" lon="7.42634">
        <ele>319.2</ele>
      </trkpt>
      <trkpt lat="48.87121" lon="7.42591">
        <ele>318.1</ele>
      </trkpt>
      <trkpt lat="48.87095" lon="7.42527">
        <ele>317.3</ele>
      </trkpt>
      <trkpt lat="48.87073" lon="7.42468">
        <ele>318.2</ele>
      </trkpt>
      <trkpt lat="48.87069" lon="7.42453">
        <ele>318.5</ele>
      </trkpt>
      <trkpt lat="48.87066" lon="7.42431">
        <ele>318.5</ele>
      </trkpt>
      <trkpt lat="48.87062" lon="7.42411">
        <ele>320.3</ele>
      </trkpt>
      <trkpt lat="48.87062" lon="7.42369">
        <ele>321.2</ele>
      </trkpt>
      <trkpt lat="48.87064" lon="7.4235">
        <ele>320.7</ele>
      </trkpt>
      <trkpt lat="48.87063" lon="7.42346">
        <ele>320.7</ele>
      </trkpt>
      <trkpt lat="48.87063" lon="7.4234">
        <ele>320.5</ele>
      </trkpt>
      <trkpt lat="48.87053" lon="7.42265">
        <ele>321.9</ele>
      </trkpt>
      <trkpt lat="48.87055" lon="7.42175">
        <ele>318.6</ele>
      </trkpt>
      <trkpt lat="48.87033" lon="7.41992">
        <ele>306.8</ele>
      </trkpt>
      <trkpt lat="48.86986" lon="7.41774">
        <ele>312.2</ele>
      </trkpt>
      <trkpt lat="48.86956" lon="7.41645">
        <ele>310.9</ele>
      </trkpt>
      <trkpt lat="48.86941" lon="7.4159">
        <ele>312.8</ele>
      </trkpt>
      <trkpt lat="48.86932" lon="7.41544">
        <ele>311.8</ele>
      </trkpt>
      <trkpt lat="48.86923" lon="7.41496">
        <ele>315.2</ele>
      </trkpt>
      <trkpt lat="48.86918" lon="7.41449">
        <ele>314.2</ele>
      </trkpt>
      <trkpt lat="48.86916" lon="7.41398">
        <ele>326.9</ele>
      </trkpt>
      <trkpt lat="48.86932" lon="7.41266">
        <ele>318</ele>
      </trkpt>
      <trkpt lat="48.86933" lon="7.41233">
        <ele>317.4</ele>
      </trkpt>
      <trkpt lat="48.86931" lon="7.41139">
        <ele>315.2</ele>
      </trkpt>
      <trkpt lat="48.86937" lon="7.41066">
        <ele>313.6</ele>
      </trkpt>
      <trkpt lat="48.86936" lon="7.41036">
        <ele>312</ele>
      </trkpt>
      <trkpt lat="48.8693" lon="7.4099">
        <ele>314.3</ele>
      </trkpt>
      <trkpt lat="48.86926" lon="7.40949">
        <ele>310.7</ele>
      </trkpt>
      <trkpt lat="48.86919" lon="7.40877">
        <ele>308.6</ele>
      </trkpt>
      <trkpt lat="48.86932" lon="7.408">
        <ele>307.4</ele>
      </trkpt>
      <trkpt lat="48.86964" lon="7.40679">
        <ele>304.6</ele>
      </trkpt>
      <trkpt lat="48.86973" lon="7.40634">
        <ele>303.5</ele>
        <extensions>
          <visugpx:TrkExtension xmlns:visugpx="https://www.visugpx.com/editgpx/">
            <visugpx:node>69</visugpx:node>
            </visugpx:TrkExtension>
        </extensions>
      </trkpt>
      <trkpt lat="48.86983" lon="7.40586">
        <ele>300.7</ele>
      </trkpt>
      <trkpt lat="48.87012" lon="7.40429">
        <ele>288.6</ele>
      </trkpt>
      <trkpt lat="48.87012" lon="7.40371">
        <ele>285.1</ele>
      </trkpt>
      <trkpt lat="48.87" lon="7.40253">
        <ele>284.8</ele>
      </trkpt>
      <trkpt lat="48.86999" lon="7.40116">
        <ele>287.5</ele>
      </trkpt>
      <trkpt lat="48.86996" lon="7.40092">
        <ele>286.3</ele>
      </trkpt>
      <trkpt lat="48.86988" lon="7.40045">
        <ele>286.3</ele>
      </trkpt>
      <trkpt lat="48.86969" lon="7.39933">
        <ele>282.8</ele>
      </trkpt>
      <trkpt lat="48.86951" lon="7.39869">
        <ele>281.3</ele>
      </trkpt>
      <trkpt lat="48.86879" lon="7.3968">
        <ele>288.8</ele>
      </trkpt>
      <trkpt lat="48.86793" lon="7.39485">
        <ele>278.5</ele>
      </trkpt>
      <trkpt lat="48.86755" lon="7.39419">
        <ele>277</ele>
      </trkpt>
      <trkpt lat="48.86695" lon="7.39382">
        <ele>279</ele>
      </trkpt>
      <trkpt lat="48.86669" lon="7.39363">
        <ele>279</ele>
      </trkpt>
      <trkpt lat="48.86496" lon="7.39214">
        <ele>288.6</ele>
        <extensions>
          <visugpx:TrkExtension xmlns:visugpx="https://www.visugpx.com/editgpx/">
            <visugpx:node>70</visugpx:node>
            </visugpx:TrkExtension>
        </extensions>
      </trkpt>
      <trkpt lat="48.86494" lon="7.39213">
        <ele>288.6</ele>
      </trkpt>
      <trkpt lat="48.86446" lon="7.3918">
        <ele>288.8</ele>
      </trkpt>
      <trkpt lat="48.86434" lon="7.39126">
        <ele>285.1</ele>
      </trkpt>
      <trkpt lat="48.86428" lon="7.39077">
        <ele>284.4</ele>
      </trkpt>
      <trkpt lat="48.86421" lon="7.39045">
        <ele>283.6</ele>
      </trkpt>
      <trkpt lat="48.864" lon="7.38958">
        <ele>284.7</ele>
      </trkpt>
      <trkpt lat="48.86391" lon="7.38901">
        <ele>285.4</ele>
      </trkpt>
      <trkpt lat="48.86386" lon="7.38877">
        <ele>285.3</ele>
      </trkpt>
      <trkpt lat="48.86368" lon="7.38825">
        <ele>284.8</ele>
      </trkpt>
      <trkpt lat="48.86362" lon="7.38803">
        <ele>284.5</ele>
      </trkpt>
      <trkpt lat="48.8635" lon="7.3874">
        <ele>283.4</ele>
      </trkpt>
      <trkpt lat="48.86347" lon="7.3872">
        <ele>283.3</ele>
      </trkpt>
      <trkpt lat="48.86361" lon="7.38659">
        <ele>282.2</ele>
      </trkpt>
      <trkpt lat="48.86363" lon="7.38636">
        <ele>281.6</ele>
      </trkpt>
      <trkpt lat="48.86364" lon="7.38577">
        <ele>278.4</ele>
      </trkpt>
      <trkpt lat="48.86364" lon="7.38507">
        <ele>277</ele>
      </trkpt>
      <trkpt lat="48.86361" lon="7.38449">
        <ele>273.8</ele>
      </trkpt>
      <trkpt lat="48.86351" lon="7.38367">
        <ele>270.9</ele>
      </trkpt>
      <trkpt lat="48.86344" lon="7.38341">
        <ele>270.8</ele>
      </trkpt>
      <trkpt lat="48.86285" lon="7.38188">
        <ele>267.9</ele>
      </trkpt>
      <trkpt lat="48.86184" lon="7.37952">
        <ele>271.6</ele>
      </trkpt>
      <trkpt lat="48.86184" lon="7.37948">
        <ele>271.5</ele>
      </trkpt>
      <trkpt lat="48.86185" lon="7.37931">
        <ele>271.4</ele>
      </trkpt>
      <trkpt lat="48.86197" lon="7.37838">
        <ele>268.8</ele>
      </trkpt>
      <trkpt lat="48.86212" lon="7.37756">
        <ele>265.2</ele>
      </trkpt>
      <trkpt lat="48.86232" lon="7.37663">
        <ele>261.6</ele>
      </trkpt>
      <trkpt lat="48.86236" lon="7.37635">
        <ele>261.6</ele>
        <extensions>
          <visugpx:TrkExtension xmlns:visugpx="https://www.visugpx.com/editgpx/">
            <visugpx:node>71</visugpx:node>
            </visugpx:TrkExtension>
        </extensions>
      </trkpt>
      <trkpt lat="48.86238" lon="7.37628">
        <ele>261.5</ele>
      </trkpt>
      <trkpt lat="48.86242" lon="7.37579">
        <ele>258.1</ele>
      </trkpt>
      <trkpt lat="48.86241" lon="7.37522">
        <ele>258.2</ele>
      </trkpt>
      <trkpt lat="48.86253" lon="7.37365">
        <ele>248.3</ele>
      </trkpt>
      <trkpt lat="48.86262" lon="7.37327">
        <ele>247.7</ele>
      </trkpt>
      <trkpt lat="48.8628" lon="7.3728">
        <ele>246.2</ele>
      </trkpt>
      <trkpt lat="48.86294" lon="7.37218">
        <ele>245.3</ele>
      </trkpt>
      <trkpt lat="48.86298" lon="7.37175">
        <ele>244.9</ele>
      </trkpt>
      <trkpt lat="48.86296" lon="7.37133">
        <ele>243.8</ele>
      </trkpt>
      <trkpt lat="48.86278" lon="7.37068">
        <ele>243.4</ele>
      </trkpt>
      <trkpt lat="48.86235" lon="7.36994">
        <ele>245.7</ele>
      </trkpt>
      <trkpt lat="48.86217" lon="7.36963">
        <ele>246.3</ele>
      </trkpt>
      <trkpt lat="48.86223" lon="7.36959">
        <ele>246.2</ele>
      </trkpt>
      <trkpt lat="48.86232" lon="7.36955">
        <ele>246.1</ele>
      </trkpt>
      <trkpt lat="48.8624" lon="7.36954">
        <ele>246</ele>
      </trkpt>
      <trkpt lat="48.8624" lon="7.36935">
        <ele>245.8</ele>
      </trkpt>
      <trkpt lat="48.86235" lon="7.36901">
        <ele>246.3</ele>
      </trkpt>
      <trkpt lat="48.86233" lon="7.36889">
        <ele>246.6</ele>
      </trkpt>
      <trkpt lat="48.86265" lon="7.36853">
        <ele>248.6</ele>
      </trkpt>
      <trkpt lat="48.86335" lon="7.3683">
        <ele>253.2</ele>
      </trkpt>
      <trkpt lat="48.86378" lon="7.36794">
        <ele>254.2</ele>
      </trkpt>
      <trkpt lat="48.86403" lon="7.36779">
        <ele>254</ele>
      </trkpt>
      <trkpt lat="48.86407" lon="7.36754">
        <ele>253.5</ele>
      </trkpt>
      <trkpt lat="48.86404" lon="7.36617">
        <ele>264.3</ele>
      </trkpt>
      <trkpt lat="48.864" lon="7.36602">
        <ele>264.6</ele>
      </trkpt>
      <trkpt lat="48.86384" lon="7.36556">
        <ele>267.3</ele>
      </trkpt>
      <trkpt lat="48.86355" lon="7.36461">
        <ele>267.6</ele>
      </trkpt>
      <trkpt lat="48.86329" lon="7.36396">
        <ele>273.7</ele>
      </trkpt>
      <trkpt lat="48.86266" lon="7.36202">
        <ele>270.6</ele>
        <extensions>
          <visugpx:TrkExtension xmlns:visugpx="https://www.visugpx.com/editgpx/">
            <visugpx:node>72</visugpx:node>
            </visugpx:TrkExtension>
        </extensions>
      </trkpt>
      <trkpt lat="48.86253" lon="7.36161">
        <ele>272.5</ele>
      </trkpt>
      <trkpt lat="48.86159" lon="7.35954">
        <ele>272.4</ele>
      </trkpt>
      <trkpt lat="48.86141" lon="7.35921">
        <ele>270.5</ele>
      </trkpt>
      <trkpt lat="48.86021" lon="7.35752">
        <ele>274.6</ele>
      </trkpt>
      <trkpt lat="48.85934" lon="7.35561">
        <ele>270.2</ele>
      </trkpt>
      <trkpt lat="48.85925" lon="7.35541">
        <ele>269</ele>
      </trkpt>
      <trkpt lat="48.8585" lon="7.35448">
        <ele>270.5</ele>
      </trkpt>
      <trkpt lat="48.85676" lon="7.35344">
        <ele>272.5</ele>
      </trkpt>
      <trkpt lat="48.85641" lon="7.35327">
        <ele>275.2</ele>
      </trkpt>
      <trkpt lat="48.85586" lon="7.35321">
        <ele>281.6</ele>
      </trkpt>
      <trkpt lat="48.85571" lon="7.35301">
        <ele>279.7</ele>
      </trkpt>
      <trkpt lat="48.85572" lon="7.35291">
        <ele>279.1</ele>
      </trkpt>
      <trkpt lat="48.85578" lon="7.35282">
        <ele>278.7</ele>
      </trkpt>
      <trkpt lat="48.85646" lon="7.35253">
        <ele>274.5</ele>
      </trkpt>
      <trkpt lat="48.85657" lon="7.35246">
        <ele>274.4</ele>
      </trkpt>
      <trkpt lat="48.8567" lon="7.35236">
        <ele>272.6</ele>
      </trkpt>
      <trkpt lat="48.85666" lon="7.35197">
        <ele>278.9</ele>
      </trkpt>
      <trkpt lat="48.85653" lon="7.35179">
        <ele>279.9</ele>
      </trkpt>
      <trkpt lat="48.85642" lon="7.35168">
        <ele>280.2</ele>
      </trkpt>
      <trkpt lat="48.85623" lon="7.35166">
        <ele>284.6</ele>
      </trkpt>
      <trkpt lat="48.85577" lon="7.35146">
        <ele>287.6</ele>
      </trkpt>
      <trkpt lat="48.85563" lon="7.35146">
        <ele>287.9</ele>
      </trkpt>
      <trkpt lat="48.85543" lon="7.35157">
        <ele>287.7</ele>
      </trkpt>
      <trkpt lat="48.85531" lon="7.35174">
        <ele>280.9</ele>
      </trkpt>
      <trkpt lat="48.85521" lon="7.35174">
        <ele>281.1</ele>
      </trkpt>
      <trkpt lat="48.85503" lon="7.35154">
        <ele>285.8</ele>
      </trkpt>
      <trkpt lat="48.85449" lon="7.35129">
        <ele>290.6</ele>
      </trkpt>
      <trkpt lat="48.85426" lon="7.35098">
        <ele>295.8</ele>
      </trkpt>
      <trkpt lat="48.8544" lon="7.35095">
        <ele>294.7</ele>
      </trkpt>
      <trkpt lat="48.85386" lon="7.35017">
        <ele>310.3</ele>
      </trkpt>
      <trkpt lat="48.85421" lon="7.35032">
        <ele>313.3</ele>
      </trkpt>
      <trkpt lat="48.85394" lon="7.34992">
        <ele>324.1</ele>
      </trkpt>
      <trkpt lat="48.85421" lon="7.35004">
        <ele>321.1</ele>
      </trkpt>
      <trkpt lat="48.85408" lon="7.34984">
        <ele>325</ele>
      </trkpt>
      <trkpt lat="48.85415" lon="7.34983">
        <ele>325.1</ele>
      </trkpt>
      <trkpt lat="48.8544" lon="7.34969">
        <ele>327.3</ele>
      </trkpt>
      <trkpt lat="48.85431" lon="7.34945">
        <ele>330.4</ele>
      </trkpt>
      <trkpt lat="48.85391" lon="7.34856">
        <ele>343.9</ele>
      </trkpt>
      <trkpt lat="48.85363" lon="7.34768">
        <ele>355</ele>
      </trkpt>
      <trkpt lat="48.85344" lon="7.34725">
        <ele>357.2</ele>
        <extensions>
          <visugpx:TrkExtension xmlns:visugpx="https://www.visugpx.com/editgpx/">
            <visugpx:node>73</visugpx:node>
            </visugpx:TrkExtension>
        </extensions>
      </trkpt>
      <trkpt lat="48.85337" lon="7.34708">
        <ele>356.2</ele>
      </trkpt>
      <trkpt lat="48.85324" lon="7.34608">
        <ele>363.7</ele>
      </trkpt>
      <trkpt lat="48.85322" lon="7.34552">
        <ele>364.1</ele>
      </trkpt>
      <trkpt lat="48.8531" lon="7.34463">
        <ele>363.5</ele>
      </trkpt>
      <trkpt lat="48.85312" lon="7.34398">
        <ele>360.2</ele>
      </trkpt>
      <trkpt lat="48.85323" lon="7.34335">
        <ele>358.6</ele>
      </trkpt>
      <trkpt lat="48.85333" lon="7.34299">
        <ele>356.7</ele>
      </trkpt>
      <trkpt lat="48.85342" lon="7.34265">
        <ele>351.4</ele>
      </trkpt>
      <trkpt lat="48.85328" lon="7.34266">
        <ele>354.3</ele>
      </trkpt>
      <trkpt lat="48.85307" lon="7.34259">
        <ele>355.6</ele>
      </trkpt>
      <trkpt lat="48.85293" lon="7.34257">
        <ele>356.7</ele>
      </trkpt>
      <trkpt lat="48.85276" lon="7.34245">
        <ele>354.1</ele>
      </trkpt>
      <trkpt lat="48.85235" lon="7.34214">
        <ele>357.9</ele>
      </trkpt>
      <trkpt lat="48.852" lon="7.34197">
        <ele>358.3</ele>
      </trkpt>
      <trkpt lat="48.85191" lon="7.34195">
        <ele>358.5</ele>
      </trkpt>
      <trkpt lat="48.85167" lon="7.34199">
        <ele>359.1</ele>
      </trkpt>
      <trkpt lat="48.85147" lon="7.34205">
        <ele>361.2</ele>
        <extensions>
          <visugpx:TrkExtension xmlns:visugpx="https://www.visugpx.com/editgpx/">
            <visugpx:node>74</visugpx:node>
            </visugpx:TrkExtension>
        </extensions>
      </trkpt>
      <trkpt lat="48.85137" lon="7.34208">
        <ele>361.3</ele>
      </trkpt>
      <trkpt lat="48.85113" lon="7.34211">
        <ele>361.2</ele>
      </trkpt>
      <trkpt lat="48.85085" lon="7.34212">
        <ele>361.1</ele>
      </trkpt>
      <trkpt lat="48.8508" lon="7.34209">
        <ele>362.6</ele>
      </trkpt>
      <trkpt lat="48.85065" lon="7.34208">
        <ele>362.9</ele>
      </trkpt>
      <trkpt lat="48.85027" lon="7.34191">
        <ele>365.8</ele>
      </trkpt>
      <trkpt lat="48.85006" lon="7.34196">
        <ele>366.5</ele>
      </trkpt>
      <trkpt lat="48.84994" lon="7.34205">
        <ele>367.9</ele>
      </trkpt>
      <trkpt lat="48.85011" lon="7.34209">
        <ele>364.2</ele>
      </trkpt>
      <trkpt lat="48.85021" lon="7.3422">
        <ele>362.7</ele>
      </trkpt>
      <trkpt lat="48.85026" lon="7.3423">
        <ele>361.8</ele>
      </trkpt>
      <trkpt lat="48.85012" lon="7.34229">
        <ele>361.3</ele>
      </trkpt>
      <trkpt lat="48.84963" lon="7.34244">
        <ele>363.7</ele>
      </trkpt>
      <trkpt lat="48.84949" lon="7.34266">
        <ele>347.9</ele>
      </trkpt>
      <trkpt lat="48.84924" lon="7.34298">
        <ele>343.2</ele>
      </trkpt>
      <trkpt lat="48.84883" lon="7.34299">
        <ele>339.2</ele>
      </trkpt>
      <trkpt lat="48.84869" lon="7.34293">
        <ele>339.2</ele>
      </trkpt>
      <trkpt lat="48.8483" lon="7.34266">
        <ele>334.2</ele>
      </trkpt>
      <trkpt lat="48.84803" lon="7.3424">
        <ele>340.2</ele>
      </trkpt>
      <trkpt lat="48.8478" lon="7.34205">
        <ele>339.3</ele>
      </trkpt>
      <trkpt lat="48.84728" lon="7.34162">
        <ele>332.7</ele>
      </trkpt>
      <trkpt lat="48.8467" lon="7.3412">
        <ele>328.8</ele>
      </trkpt>
      <trkpt lat="48.84645" lon="7.34101">
        <ele>325.5</ele>
      </trkpt>
      <trkpt lat="48.84627" lon="7.34092">
        <ele>326</ele>
      </trkpt>
      <trkpt lat="48.84619" lon="7.34095">
        <ele>326.1</ele>
      </trkpt>
      <trkpt lat="48.84614" lon="7.341">
        <ele>326.1</ele>
      </trkpt>
      <trkpt lat="48.84611" lon="7.34117">
        <ele>325.3</ele>
      </trkpt>
      <trkpt lat="48.84612" lon="7.34129">
        <ele>324.7</ele>
      </trkpt>
      <trkpt lat="48.84623" lon="7.34156">
        <ele>322.8</ele>
      </trkpt>
      <trkpt lat="48.8465" lon="7.34207">
        <ele>315.1</ele>
      </trkpt>
      <trkpt lat="48.84668" lon="7.3425">
        <ele>305.2</ele>
      </trkpt>
      <trkpt lat="48.84681" lon="7.34304">
        <ele>306.6</ele>
        <extensions>
          <visugpx:TrkExtension xmlns:visugpx="https://www.visugpx.com/editgpx/">
            <visugpx:node>75</visugpx:node>
            </visugpx:TrkExtension>
        </extensions>
      </trkpt>
      <trkpt lat="48.84682" lon="7.34308">
        <ele>306.5</ele>
      </trkpt>
      <trkpt lat="48.8471" lon="7.34399">
        <ele>298.3</ele>
      </trkpt>
      <trkpt lat="48.84719" lon="7.34429">
        <ele>293.5</ele>
      </trkpt>
      <trkpt lat="48.84724" lon="7.34473">
        <ele>292.2</ele>
      </trkpt>
      <trkpt lat="48.84725" lon="7.34496">
        <ele>290.5</ele>
      </trkpt>
      <trkpt lat="48.84731" lon="7.3454">
        <ele>290.6</ele>
      </trkpt>
      <trkpt lat="48.84731" lon="7.34561">
        <ele>290</ele>
      </trkpt>
      <trkpt lat="48.84707" lon="7.3462">
        <ele>290.3</ele>
      </trkpt>
      <trkpt lat="48.84691" lon="7.34653">
        <ele>290.5</ele>
      </trkpt>
      <trkpt lat="48.84663" lon="7.34678">
        <ele>292.8</ele>
      </trkpt>
      <trkpt lat="48.84648" lon="7.34683">
        <ele>293.8</ele>
      </trkpt>
      <trkpt lat="48.84618" lon="7.34708">
        <ele>295.2</ele>
      </trkpt>
      <trkpt lat="48.84613" lon="7.34726">
        <ele>294.3</ele>
      </trkpt>
      <trkpt lat="48.84611" lon="7.3477">
        <ele>286.5</ele>
      </trkpt>
      <trkpt lat="48.84609" lon="7.34786">
        <ele>285.6</ele>
      </trkpt>
      <trkpt lat="48.84606" lon="7.34798">
        <ele>285.2</ele>
      </trkpt>
      <trkpt lat="48.84597" lon="7.3482">
        <ele>285.4</ele>
      </trkpt>
      <trkpt lat="48.8459" lon="7.34831">
        <ele>286.2</ele>
      </trkpt>
      <trkpt lat="48.84565" lon="7.34848">
        <ele>290.7</ele>
      </trkpt>
      <trkpt lat="48.84564" lon="7.34865">
        <ele>291</ele>
      </trkpt>
      <trkpt lat="48.84568" lon="7.34908">
        <ele>287.4</ele>
      </trkpt>
      <trkpt lat="48.8457" lon="7.34953">
        <ele>283.4</ele>
      </trkpt>
      <trkpt lat="48.84569" lon="7.34969">
        <ele>282.2</ele>
      </trkpt>
      <trkpt lat="48.84565" lon="7.34982">
        <ele>281.1</ele>
      </trkpt>
      <trkpt lat="48.84557" lon="7.35002">
        <ele>276.2</ele>
      </trkpt>
      <trkpt lat="48.84545" lon="7.35072">
        <ele>274.3</ele>
      </trkpt>
      <trkpt lat="48.84502" lon="7.35157">
        <ele>262.7</ele>
      </trkpt>
      <trkpt lat="48.84475" lon="7.35163">
        <ele>266.6</ele>
      </trkpt>
      <trkpt lat="48.8445" lon="7.35175">
        <ele>263.5</ele>
      </trkpt>
      <trkpt lat="48.84409" lon="7.35207">
        <ele>262.7</ele>
      </trkpt>
      <trkpt lat="48.84401" lon="7.35217">
        <ele>262.3</ele>
      </trkpt>
      <trkpt lat="48.84395" lon="7.35235">
        <ele>262</ele>
      </trkpt>
      <trkpt lat="48.84389" lon="7.35254">
        <ele>263</ele>
      </trkpt>
      <trkpt lat="48.84379" lon="7.35263">
        <ele>263.2</ele>
      </trkpt>
      <trkpt lat="48.84326" lon="7.35284">
        <ele>263.8</ele>
      </trkpt>
      <trkpt lat="48.84325" lon="7.35285">
        <ele>263.9</ele>
      </trkpt>
      <trkpt lat="48.8432" lon="7.35287">
        <ele>264.2</ele>
      </trkpt>
      <trkpt lat="48.84313" lon="7.35294">
        <ele>264.8</ele>
      </trkpt>
      <trkpt lat="48.84307" lon="7.35294">
        <ele>264.9</ele>
      </trkpt>
      <trkpt lat="48.84306" lon="7.35294">
        <ele>264.9</ele>
      </trkpt>
      <trkpt lat="48.84276" lon="7.35295">
        <ele>265.5</ele>
      </trkpt>
      <trkpt lat="48.84178" lon="7.35269">
        <ele>270.8</ele>
      </trkpt>
      <trkpt lat="48.84148" lon="7.35271">
        <ele>276.7</ele>
      </trkpt>
      <trkpt lat="48.84108" lon="7.35266">
        <ele>278.3</ele>
      </trkpt>
      <trkpt lat="48.84093" lon="7.35269">
        <ele>278.2</ele>
      </trkpt>
      <trkpt lat="48.84053" lon="7.35295">
        <ele>280.3</ele>
      </trkpt>
      <trkpt lat="48.84002" lon="7.3533">
        <ele>285</ele>
      </trkpt>
      <trkpt lat="48.83985" lon="7.35348">
        <ele>286.6</ele>
        <extensions>
          <visugpx:TrkExtension xmlns:visugpx="https://www.visugpx.com/editgpx/">
            <visugpx:node>76</visugpx:node>
            </visugpx:TrkExtension>
        </extensions>
      </trkpt>
      <trkpt lat="48.83963" lon="7.35369">
        <ele>287</ele>
      </trkpt>
      <trkpt lat="48.83939" lon="7.35389">
        <ele>287.5</ele>
      </trkpt>
      <trkpt lat="48.83876" lon="7.35473">
        <ele>287.4</ele>
      </trkpt>
      <trkpt lat="48.83857" lon="7.35503">
        <ele>292.7</ele>
      </trkpt>
      <trkpt lat="48.8385" lon="7.35514">
        <ele>291.9</ele>
      </trkpt>
      <trkpt lat="48.83843" lon="7.3553">
        <ele>293.3</ele>
      </trkpt>
      <trkpt lat="48.83839" lon="7.35546">
        <ele>294.3</ele>
      </trkpt>
      <trkpt lat="48.83828" lon="7.35607">
        <ele>285.6</ele>
      </trkpt>
      <trkpt lat="48.83822" lon="7.35662">
        <ele>291.4</ele>
      </trkpt>
      <trkpt lat="48.83822" lon="7.35696">
        <ele>291.1</ele>
      </trkpt>
      <trkpt lat="48.8382" lon="7.35744">
        <ele>296.2</ele>
      </trkpt>
      <trkpt lat="48.83823" lon="7.35778">
        <ele>296.1</ele>
      </trkpt>
      <trkpt lat="48.83823" lon="7.35816">
        <ele>297.9</ele>
      </trkpt>
      <trkpt lat="48.83826" lon="7.35832">
        <ele>301.5</ele>
      </trkpt>
      <trkpt lat="48.83827" lon="7.35884">
        <ele>302.5</ele>
      </trkpt>
      <trkpt lat="48.83825" lon="7.35901">
        <ele>304.6</ele>
      </trkpt>
      <trkpt lat="48.83821" lon="7.35912">
        <ele>305.6</ele>
      </trkpt>
      <trkpt lat="48.83818" lon="7.35927">
        <ele>311.5</ele>
      </trkpt>
      <trkpt lat="48.83812" lon="7.35943">
        <ele>312.7</ele>
      </trkpt>
      <trkpt lat="48.83768" lon="7.3596">
        <ele>312.7</ele>
      </trkpt>
      <trkpt lat="48.83744" lon="7.35955">
        <ele>315</ele>
      </trkpt>
      <trkpt lat="48.83726" lon="7.35958">
        <ele>317</ele>
      </trkpt>
      <trkpt lat="48.83712" lon="7.35955">
        <ele>318.2</ele>
      </trkpt>
      <trkpt lat="48.83698" lon="7.35957">
        <ele>320</ele>
      </trkpt>
      <trkpt lat="48.83671" lon="7.35941">
        <ele>320.1</ele>
      </trkpt>
      <trkpt lat="48.83656" lon="7.35922">
        <ele>328</ele>
      </trkpt>
      <trkpt lat="48.8364" lon="7.35906">
        <ele>322</ele>
      </trkpt>
      <trkpt lat="48.83635" lon="7.35906">
        <ele>322.9</ele>
      </trkpt>
      <trkpt lat="48.83623" lon="7.35895">
        <ele>324.2</ele>
      </trkpt>
      <trkpt lat="48.83611" lon="7.35892">
        <ele>326.5</ele>
      </trkpt>
      <trkpt lat="48.83597" lon="7.35881">
        <ele>326.5</ele>
      </trkpt>
      <trkpt lat="48.83582" lon="7.35876">
        <ele>337.1</ele>
      </trkpt>
      <trkpt lat="48.83575" lon="7.35868">
        <ele>335.4</ele>
      </trkpt>
      <trkpt lat="48.83547" lon="7.35856">
        <ele>335.3</ele>
      </trkpt>
      <trkpt lat="48.8353" lon="7.35847">
        <ele>335.3</ele>
      </trkpt>
      <trkpt lat="48.83508" lon="7.35843">
        <ele>334.3</ele>
      </trkpt>
      <trkpt lat="48.83498" lon="7.35847">
        <ele>331.8</ele>
      </trkpt>
      <trkpt lat="48.83495" lon="7.3585">
        <ele>331.8</ele>
      </trkpt>
      <trkpt lat="48.83487" lon="7.35864">
        <ele>332.4</ele>
      </trkpt>
      <trkpt lat="48.83486" lon="7.35877">
        <ele>333.9</ele>
      </trkpt>
      <trkpt lat="48.83485" lon="7.35889">
        <ele>335.9</ele>
      </trkpt>
      <trkpt lat="48.83479" lon="7.35905">
        <ele>337.8</ele>
      </trkpt>
      <trkpt lat="48.83464" lon="7.35907">
        <ele>334.3</ele>
      </trkpt>
      <trkpt lat="48.83456" lon="7.35913">
        <ele>333</ele>
      </trkpt>
      <trkpt lat="48.83443" lon="7.3594">
        <ele>343.3</ele>
      </trkpt>
      <trkpt lat="48.83439" lon="7.35952">
        <ele>344.6</ele>
      </trkpt>
      <trkpt lat="48.83429" lon="7.3597">
        <ele>345.6</ele>
      </trkpt>
      <trkpt lat="48.83422" lon="7.3599">
        <ele>345.5</ele>
      </trkpt>
      <trkpt lat="48.83417" lon="7.3601">
        <ele>351.1</ele>
      </trkpt>
      <trkpt lat="48.8341" lon="7.36067">
        <ele>348.4</ele>
      </trkpt>
      <trkpt lat="48.8341" lon="7.36077">
        <ele>352.4</ele>
      </trkpt>
      <trkpt lat="48.83403" lon="7.36108">
        <ele>355</ele>
      </trkpt>
      <trkpt lat="48.83398" lon="7.36136">
        <ele>356.6</ele>
      </trkpt>
      <trkpt lat="48.83394" lon="7.36149">
        <ele>357.8</ele>
      </trkpt>
      <trkpt lat="48.83393" lon="7.36156">
        <ele>358.5</ele>
        <extensions>
          <visugpx:TrkExtension xmlns:visugpx="https://www.visugpx.com/editgpx/">
            <visugpx:node>77</visugpx:node>
            </visugpx:TrkExtension>
        </extensions>
      </trkpt>
      <trkpt lat="48.83385" lon="7.36225">
        <ele>367.3</ele>
      </trkpt>
      <trkpt lat="48.83374" lon="7.36246">
        <ele>366.9</ele>
      </trkpt>
      <trkpt lat="48.83367" lon="7.3625">
        <ele>366</ele>
      </trkpt>
      <trkpt lat="48.83358" lon="7.36252">
        <ele>373.4</ele>
      </trkpt>
      <trkpt lat="48.83315" lon="7.36248">
        <ele>362.3</ele>
      </trkpt>
      <trkpt lat="48.83301" lon="7.36245">
        <ele>362.9</ele>
      </trkpt>
      <trkpt lat="48.83279" lon="7.36246">
        <ele>366.1</ele>
      </trkpt>
      <trkpt lat="48.83249" lon="7.36232">
        <ele>372.6</ele>
      </trkpt>
      <trkpt lat="48.83221" lon="7.36236">
        <ele>371.5</ele>
      </trkpt>
      <trkpt lat="48.83212" lon="7.36234">
        <ele>371.1</ele>
      </trkpt>
      <trkpt lat="48.83205" lon="7.36229">
        <ele>370.8</ele>
      </trkpt>
      <trkpt lat="48.83182" lon="7.36245">
        <ele>373.9</ele>
      </trkpt>
      <trkpt lat="48.83155" lon="7.36219">
        <ele>372.8</ele>
      </trkpt>
      <trkpt lat="48.8312" lon="7.36186">
        <ele>372.8</ele>
      </trkpt>
      <trkpt lat="48.83107" lon="7.3618">
        <ele>374.4</ele>
      </trkpt>
      <trkpt lat="48.83093" lon="7.36175">
        <ele>377</ele>
      </trkpt>
      <trkpt lat="48.83068" lon="7.36166">
        <ele>383.6</ele>
      </trkpt>
      <trkpt lat="48.83068" lon="7.36159">
        <ele>383.9</ele>
      </trkpt>
      <trkpt lat="48.8309" lon="7.36119">
        <ele>374.7</ele>
      </trkpt>
      <trkpt lat="48.83093" lon="7.36096">
        <ele>377.3</ele>
      </trkpt>
      <trkpt lat="48.83091" lon="7.36074">
        <ele>375.6</ele>
      </trkpt>
      <trkpt lat="48.83037" lon="7.35895">
        <ele>381.3</ele>
      </trkpt>
      <trkpt lat="48.83032" lon="7.35883">
        <ele>381.3</ele>
        <extensions>
          <visugpx:TrkExtension xmlns:visugpx="https://www.visugpx.com/editgpx/">
            <visugpx:node>78</visugpx:node>
            </visugpx:TrkExtension>
        </extensions>
      </trkpt>
      <trkpt lat="48.83007" lon="7.35821">
        <ele>375.6</ele>
      </trkpt>
      <trkpt lat="48.82981" lon="7.35793">
        <ele>385.7</ele>
      </trkpt>
      <trkpt lat="48.8294" lon="7.35754">
        <ele>387.8</ele>
      </trkpt>
      <trkpt lat="48.82893" lon="7.35717">
        <ele>381.3</ele>
      </trkpt>
      <trkpt lat="48.8284" lon="7.35678">
        <ele>377.5</ele>
      </trkpt>
      <trkpt lat="48.82781" lon="7.35644">
        <ele>380.3</ele>
      </trkpt>
      <trkpt lat="48.82756" lon="7.35626">
        <ele>381</ele>
      </trkpt>
      <trkpt lat="48.82711" lon="7.35579">
        <ele>385.6</ele>
      </trkpt>
      <trkpt lat="48.82691" lon="7.35564">
        <ele>387.6</ele>
      </trkpt>
      <trkpt lat="48.82671" lon="7.35528">
        <ele>387</ele>
      </trkpt>
      <trkpt lat="48.82649" lon="7.35517">
        <ele>392.5</ele>
      </trkpt>
      <trkpt lat="48.82585" lon="7.35495">
        <ele>397</ele>
      </trkpt>
      <trkpt lat="48.82554" lon="7.35471">
        <ele>393.7</ele>
        <extensions>
          <visugpx:TrkExtension xmlns:visugpx="https://www.visugpx.com/editgpx/">
            <visugpx:node>79</visugpx:node>
            </visugpx:TrkExtension>
        </extensions>
      </trkpt>
      <trkpt lat="48.82532" lon="7.35455">
        <ele>392.5</ele>
      </trkpt>
      <trkpt lat="48.82482" lon="7.35406">
        <ele>386.7</ele>
      </trkpt>
      <trkpt lat="48.82458" lon="7.35378">
        <ele>383.8</ele>
      </trkpt>
      <trkpt lat="48.82451" lon="7.35373">
        <ele>383.3</ele>
      </trkpt>
      <trkpt lat="48.82444" lon="7.3537">
        <ele>383</ele>
      </trkpt>
      <trkpt lat="48.82436" lon="7.35367">
        <ele>382.5</ele>
      </trkpt>
      <trkpt lat="48.82427" lon="7.35365">
        <ele>382.1</ele>
      </trkpt>
      <trkpt lat="48.82405" lon="7.35375">
        <ele>381.4</ele>
      </trkpt>
      <trkpt lat="48.82342" lon="7.3539">
        <ele>382.6</ele>
      </trkpt>
      <trkpt lat="48.8229" lon="7.35392">
        <ele>388.9</ele>
      </trkpt>
      <trkpt lat="48.82232" lon="7.35379">
        <ele>394.6</ele>
      </trkpt>
      <trkpt lat="48.82186" lon="7.35383">
        <ele>394.5</ele>
      </trkpt>
      <trkpt lat="48.82157" lon="7.35389">
        <ele>396</ele>
      </trkpt>
      <trkpt lat="48.82133" lon="7.35397">
        <ele>396.8</ele>
      </trkpt>
      <trkpt lat="48.82111" lon="7.35408">
        <ele>397.3</ele>
      </trkpt>
      <trkpt lat="48.8209" lon="7.35424">
        <ele>392.1</ele>
      </trkpt>
      <trkpt lat="48.82073" lon="7.35444">
        <ele>396.8</ele>
      </trkpt>
      <trkpt lat="48.82058" lon="7.35468">
        <ele>396.5</ele>
      </trkpt>
      <trkpt lat="48.82054" lon="7.35478">
        <ele>396.3</ele>
      </trkpt>
      <trkpt lat="48.82051" lon="7.35488">
        <ele>396.2</ele>
      </trkpt>
      <trkpt lat="48.82049" lon="7.35504">
        <ele>392.5</ele>
      </trkpt>
      <trkpt lat="48.8205" lon="7.35525">
        <ele>392</ele>
      </trkpt>
      <trkpt lat="48.82048" lon="7.35566">
        <ele>390.4</ele>
      </trkpt>
      <trkpt lat="48.82045" lon="7.35585">
        <ele>385.3</ele>
      </trkpt>
      <trkpt lat="48.82039" lon="7.35604">
        <ele>385.8</ele>
      </trkpt>
      <trkpt lat="48.82029" lon="7.35623">
        <ele>386</ele>
      </trkpt>
      <trkpt lat="48.8201" lon="7.35644">
        <ele>386.8</ele>
      </trkpt>
      <trkpt lat="48.82001" lon="7.35651">
        <ele>387.4</ele>
      </trkpt>
      <trkpt lat="48.81977" lon="7.35664">
        <ele>396.1</ele>
      </trkpt>
      <trkpt lat="48.81956" lon="7.35672">
        <ele>390.8</ele>
      </trkpt>
      <trkpt lat="48.8192" lon="7.35694">
        <ele>392.9</ele>
      </trkpt>
      <trkpt lat="48.81891" lon="7.35715">
        <ele>401.4</ele>
      </trkpt>
      <trkpt lat="48.81876" lon="7.35734">
        <ele>401.9</ele>
      </trkpt>
      <trkpt lat="48.81858" lon="7.35771">
        <ele>397.7</ele>
      </trkpt>
      <trkpt lat="48.81848" lon="7.35798">
        <ele>397.1</ele>
      </trkpt>
      <trkpt lat="48.81843" lon="7.35818">
        <ele>398.7</ele>
      </trkpt>
      <trkpt lat="48.81839" lon="7.35853">
        <ele>393.5</ele>
      </trkpt>
      <trkpt lat="48.81839" lon="7.35901">
        <ele>392</ele>
      </trkpt>
      <trkpt lat="48.81837" lon="7.35939">
        <ele>385.5</ele>
      </trkpt>
      <trkpt lat="48.81829" lon="7.35976">
        <ele>396.4</ele>
      </trkpt>
      <trkpt lat="48.81821" lon="7.35995">
        <ele>394</ele>
      </trkpt>
      <trkpt lat="48.81815" lon="7.36003">
        <ele>387.7</ele>
      </trkpt>
      <trkpt lat="48.81804" lon="7.36009">
        <ele>387.7</ele>
      </trkpt>
      <trkpt lat="48.81742" lon="7.36021">
        <ele>399.7</ele>
      </trkpt>
      <trkpt lat="48.81719" lon="7.36029">
        <ele>399.2</ele>
      </trkpt>
      <trkpt lat="48.81677" lon="7.36055">
        <ele>398.8</ele>
      </trkpt>
      <trkpt lat="48.81654" lon="7.36081">
        <ele>400.8</ele>
      </trkpt>
      <trkpt lat="48.81635" lon="7.36106">
        <ele>399.1</ele>
      </trkpt>
      <trkpt lat="48.81626" lon="7.36125">
        <ele>399.2</ele>
      </trkpt>
      <trkpt lat="48.81624" lon="7.36133">
        <ele>399.1</ele>
      </trkpt>
      <trkpt lat="48.81623" lon="7.36142">
        <ele>398.9</ele>
      </trkpt>
      <trkpt lat="48.81623" lon="7.36163">
        <ele>398.5</ele>
      </trkpt>
      <trkpt lat="48.81625" lon="7.36203">
        <ele>393.9</ele>
      </trkpt>
      <trkpt lat="48.8163" lon="7.36222">
        <ele>392.8</ele>
      </trkpt>
      <trkpt lat="48.81656" lon="7.36304">
        <ele>386.3</ele>
      </trkpt>
      <trkpt lat="48.81663" lon="7.36349">
        <ele>383.3</ele>
      </trkpt>
      <trkpt lat="48.81664" lon="7.36495">
        <ele>378</ele>
      </trkpt>
      <trkpt lat="48.8166" lon="7.36529">
        <ele>373.1</ele>
      </trkpt>
      <trkpt lat="48.81656" lon="7.36545">
        <ele>371.5</ele>
        <extensions>
          <visugpx:TrkExtension xmlns:visugpx="https://www.visugpx.com/editgpx/">
            <visugpx:node>80</visugpx:node>
            </visugpx:TrkExtension>
        </extensions>
      </trkpt>
      <trkpt lat="48.81654" lon="7.36554">
        <ele>370.6</ele>
      </trkpt>
      <trkpt lat="48.81633" lon="7.3661">
        <ele>359</ele>
      </trkpt>
      <trkpt lat="48.81618" lon="7.36637">
        <ele>356.2</ele>
      </trkpt>
      <trkpt lat="48.81613" lon="7.36643">
        <ele>355.5</ele>
      </trkpt>
      <trkpt lat="48.81592" lon="7.36647">
        <ele>353.8</ele>
      </trkpt>
      <trkpt lat="48.81575" lon="7.36639">
        <ele>347.3</ele>
      </trkpt>
      <trkpt lat="48.81533" lon="7.36599">
        <ele>346.3</ele>
      </trkpt>
      <trkpt lat="48.81508" lon="7.36564">
        <ele>355.2</ele>
      </trkpt>
      <trkpt lat="48.81491" lon="7.36537">
        <ele>347.4</ele>
      </trkpt>
      <trkpt lat="48.81468" lon="7.36511">
        <ele>347.9</ele>
      </trkpt>
      <trkpt lat="48.81439" lon="7.36494">
        <ele>353.5</ele>
      </trkpt>
      <trkpt lat="48.81391" lon="7.36473">
        <ele>346.8</ele>
      </trkpt>
      <trkpt lat="48.81369" lon="7.36466">
        <ele>347</ele>
      </trkpt>
      <trkpt lat="48.81346" lon="7.36467">
        <ele>346</ele>
      </trkpt>
      <trkpt lat="48.8131" lon="7.36474">
        <ele>345.4</ele>
      </trkpt>
      <trkpt lat="48.81305" lon="7.3648">
        <ele>345.4</ele>
      </trkpt>
      <trkpt lat="48.81298" lon="7.36494">
        <ele>345.5</ele>
      </trkpt>
      <trkpt lat="48.8129" lon="7.36511">
        <ele>341.3</ele>
      </trkpt>
      <trkpt lat="48.81282" lon="7.36539">
        <ele>340.7</ele>
      </trkpt>
      <trkpt lat="48.81271" lon="7.36582">
        <ele>341.4</ele>
      </trkpt>
      <trkpt lat="48.81267" lon="7.3675">
        <ele>333.3</ele>
      </trkpt>
      <trkpt lat="48.8126" lon="7.36808">
        <ele>322.5</ele>
      </trkpt>
      <trkpt lat="48.81257" lon="7.36856">
        <ele>314.5</ele>
      </trkpt>
      <trkpt lat="48.81252" lon="7.36897">
        <ele>308.2</ele>
      </trkpt>
      <trkpt lat="48.81247" lon="7.3692">
        <ele>304.9</ele>
      </trkpt>
      <trkpt lat="48.81243" lon="7.3693">
        <ele>301.2</ele>
      </trkpt>
      <trkpt lat="48.81239" lon="7.36934">
        <ele>299.8</ele>
      </trkpt>
      <trkpt lat="48.8122" lon="7.36937">
        <ele>297</ele>
      </trkpt>
      <trkpt lat="48.81198" lon="7.36927">
        <ele>296.2</ele>
      </trkpt>
      <trkpt lat="48.81129" lon="7.3687">
        <ele>307.6</ele>
      </trkpt>
      <trkpt lat="48.81111" lon="7.36858">
        <ele>308.3</ele>
      </trkpt>
      <trkpt lat="48.81097" lon="7.36852">
        <ele>309.2</ele>
      </trkpt>
      <trkpt lat="48.81089" lon="7.36853">
        <ele>309.2</ele>
      </trkpt>
      <trkpt lat="48.8108" lon="7.36855">
        <ele>311.7</ele>
      </trkpt>
      <trkpt lat="48.81071" lon="7.36864">
        <ele>310.8</ele>
      </trkpt>
      <trkpt lat="48.81063" lon="7.3688">
        <ele>308.9</ele>
      </trkpt>
      <trkpt lat="48.81051" lon="7.36918">
        <ele>297.2</ele>
      </trkpt>
      <trkpt lat="48.81048" lon="7.36932">
        <ele>297.6</ele>
      </trkpt>
      <trkpt lat="48.81047" lon="7.36958">
        <ele>296.2</ele>
      </trkpt>
      <trkpt lat="48.81053" lon="7.3707">
        <ele>286.9</ele>
      </trkpt>
      <trkpt lat="48.81062" lon="7.37144">
        <ele>282.9</ele>
      </trkpt>
      <trkpt lat="48.81065" lon="7.3718">
        <ele>277.3</ele>
      </trkpt>
      <trkpt lat="48.81064" lon="7.37212">
        <ele>276.5</ele>
      </trkpt>
      <trkpt lat="48.8106" lon="7.37236">
        <ele>275.6</ele>
      </trkpt>
      <trkpt lat="48.81055" lon="7.37249">
        <ele>275.2</ele>
      </trkpt>
      <trkpt lat="48.81044" lon="7.37261">
        <ele>267</ele>
      </trkpt>
      <trkpt lat="48.81037" lon="7.37263">
        <ele>266.6</ele>
      </trkpt>
      <trkpt lat="48.81029" lon="7.37263">
        <ele>266.4</ele>
      </trkpt>
      <trkpt lat="48.80994" lon="7.37246">
        <ele>273.4</ele>
      </trkpt>
      <trkpt lat="48.80961" lon="7.37238">
        <ele>282.9</ele>
      </trkpt>
      <trkpt lat="48.80952" lon="7.37244">
        <ele>283.4</ele>
      </trkpt>
      <trkpt lat="48.80946" lon="7.37253">
        <ele>273</ele>
      </trkpt>
      <trkpt lat="48.80942" lon="7.37269">
        <ele>272.5</ele>
      </trkpt>
      <trkpt lat="48.80942" lon="7.37322">
        <ele>268.9</ele>
      </trkpt>
      <trkpt lat="48.80946" lon="7.3737">
        <ele>258</ele>
      </trkpt>
      <trkpt lat="48.80947" lon="7.37411">
        <ele>256.3</ele>
      </trkpt>
      <trkpt lat="48.80942" lon="7.37458">
        <ele>248.1</ele>
      </trkpt>
      <trkpt lat="48.80934" lon="7.37492">
        <ele>248.8</ele>
      </trkpt>
      <trkpt lat="48.80927" lon="7.37519">
        <ele>243.3</ele>
      </trkpt>
      <trkpt lat="48.80921" lon="7.37534">
        <ele>241</ele>
      </trkpt>
      <trkpt lat="48.80906" lon="7.3756">
        <ele>247.7</ele>
      </trkpt>
      <trkpt lat="48.80866" lon="7.37604">
        <ele>237.8</ele>
      </trkpt>
      <trkpt lat="48.80857" lon="7.3761">
        <ele>237.9</ele>
      </trkpt>
      <trkpt lat="48.80846" lon="7.37611">
        <ele>238.5</ele>
      </trkpt>
      <trkpt lat="48.80815" lon="7.37603">
        <ele>245.5</ele>
      </trkpt>
      <trkpt lat="48.80804" lon="7.37609">
        <ele>245.6</ele>
      </trkpt>
      <trkpt lat="48.808" lon="7.37621">
        <ele>245</ele>
      </trkpt>
      <trkpt lat="48.80793" lon="7.37683">
        <ele>235.7</ele>
      </trkpt>
      <trkpt lat="48.80786" lon="7.37715">
        <ele>234.8</ele>
      </trkpt>
      <trkpt lat="48.80782" lon="7.37727">
        <ele>234.7</ele>
      </trkpt>
      <trkpt lat="48.80774" lon="7.37738">
        <ele>235.1</ele>
      </trkpt>
      <trkpt lat="48.80748" lon="7.37762">
        <ele>235.3</ele>
      </trkpt>
      <trkpt lat="48.80732" lon="7.3777">
        <ele>234.3</ele>
        <extensions>
          <visugpx:TrkExtension xmlns:visugpx="https://www.visugpx.com/editgpx/">
            <visugpx:node>81</visugpx:node>
            </visugpx:TrkExtension>
        </extensions>
      </trkpt>
      <trkpt lat="48.80662" lon="7.37808">
        <ele>237.7</ele>
      </trkpt>
      <trkpt lat="48.80623" lon="7.37826">
        <ele>241.4</ele>
      </trkpt>
      <trkpt lat="48.80599" lon="7.37848">
        <ele>231.9</ele>
      </trkpt>
      <trkpt lat="48.80581" lon="7.37859">
        <ele>239.5</ele>
      </trkpt>
      <trkpt lat="48.80535" lon="7.37937">
        <ele>223.7</ele>
      </trkpt>
      <trkpt lat="48.80514" lon="7.37981">
        <ele>219.2</ele>
      </trkpt>
      <trkpt lat="48.80502" lon="7.38">
        <ele>216.4</ele>
      </trkpt>
      <trkpt lat="48.80488" lon="7.38014">
        <ele>212</ele>
      </trkpt>
      <trkpt lat="48.80463" lon="7.38029">
        <ele>209.3</ele>
      </trkpt>
      <trkpt lat="48.80447" lon="7.3803">
        <ele>209.1</ele>
      </trkpt>
      <trkpt lat="48.80436" lon="7.38028">
        <ele>209.3</ele>
      </trkpt>
      <trkpt lat="48.80424" lon="7.3803">
        <ele>209.2</ele>
      </trkpt>
      <trkpt lat="48.8038" lon="7.38053">
        <ele>199</ele>
      </trkpt>
      <trkpt lat="48.80355" lon="7.38059">
        <ele>196.1</ele>
      </trkpt>
      <trkpt lat="48.8035" lon="7.38057">
        <ele>195.8</ele>
      </trkpt>
      <trkpt lat="48.80342" lon="7.38051">
        <ele>195.9</ele>
      </trkpt>
      <trkpt lat="48.80328" lon="7.38023">
        <ele>192.1</ele>
      </trkpt>
      <trkpt lat="48.80323" lon="7.38018">
        <ele>192.3</ele>
      </trkpt>
      <trkpt lat="48.80302" lon="7.38024">
        <ele>191.2</ele>
      </trkpt>
      <trkpt lat="48.80281" lon="7.38033">
        <ele>190.5</ele>
      </trkpt>
      <trkpt lat="48.80265" lon="7.3804">
        <ele>190.2</ele>
      </trkpt>
      <trkpt lat="48.80246" lon="7.38052">
        <ele>194.7</ele>
      </trkpt>
      <trkpt lat="48.80236" lon="7.38046">
        <ele>195.6</ele>
      </trkpt>
      <trkpt lat="48.80231" lon="7.38012">
        <ele>195.2</ele>
      </trkpt>
      <trkpt lat="48.8022" lon="7.37988">
        <ele>197.8</ele>
      </trkpt>
      <trkpt lat="48.80203" lon="7.37956">
        <ele>200.3</ele>
      </trkpt>
      <trkpt lat="48.8019" lon="7.37954">
        <ele>201.6</ele>
      </trkpt>
      <trkpt lat="48.80184" lon="7.37984">
        <ele>203.2</ele>
      </trkpt>
      <trkpt lat="48.80174" lon="7.37985">
        <ele>204.6</ele>
      </trkpt>
      <trkpt lat="48.80164" lon="7.3797">
        <ele>219.6</ele>
      </trkpt>
      <trkpt lat="48.8016" lon="7.37952">
        <ele>220.3</ele>
      </trkpt>
      <trkpt lat="48.80151" lon="7.37953">
        <ele>221.6</ele>
      </trkpt>
      <trkpt lat="48.80136" lon="7.38011">
        <ele>222.7</ele>
      </trkpt>
      <trkpt lat="48.80129" lon="7.38012">
        <ele>224.9</ele>
      </trkpt>
      <trkpt lat="48.80127" lon="7.37999">
        <ele>226.5</ele>
      </trkpt>
      <trkpt lat="48.8012" lon="7.37992">
        <ele>228.8</ele>
      </trkpt>
      <trkpt lat="48.80105" lon="7.38009">
        <ele>232.9</ele>
      </trkpt>
      <trkpt lat="48.80111" lon="7.37992">
        <ele>231.8</ele>
        <extensions>
          <visugpx:TrkExtension xmlns:visugpx="https://www.visugpx.com/editgpx/">
            <visugpx:node>82</visugpx:node>
            </visugpx:TrkExtension>
        </extensions>
      </trkpt>
      <trkpt lat="48.80105" lon="7.38009">
        <ele>232.9</ele>
      </trkpt>
      <trkpt lat="48.80081" lon="7.38042">
        <ele>250.4</ele>
      </trkpt>
      <trkpt lat="48.80056" lon="7.38068">
        <ele>251.7</ele>
      </trkpt>
      <trkpt lat="48.80039" lon="7.38114">
        <ele>256.6</ele>
      </trkpt>
      <trkpt lat="48.80022" lon="7.38161">
        <ele>262.7</ele>
      </trkpt>
      <trkpt lat="48.80009" lon="7.38205">
        <ele>263.5</ele>
      </trkpt>
      <trkpt lat="48.80007" lon="7.38214">
        <ele>263.9</ele>
      </trkpt>
      <trkpt lat="48.80001" lon="7.38211">
        <ele>264.3</ele>
      </trkpt>
      <trkpt lat="48.79991" lon="7.38188">
        <ele>279.5</ele>
      </trkpt>
      <trkpt lat="48.79984" lon="7.38177">
        <ele>279.3</ele>
      </trkpt>
      <trkpt lat="48.79979" lon="7.38187">
        <ele>280.8</ele>
      </trkpt>
      <trkpt lat="48.7997" lon="7.38233">
        <ele>282.3</ele>
      </trkpt>
      <trkpt lat="48.79949" lon="7.38258">
        <ele>286.2</ele>
      </trkpt>
      <trkpt lat="48.79934" lon="7.38282">
        <ele>287.4</ele>
      </trkpt>
      <trkpt lat="48.7993" lon="7.38316">
        <ele>288.7</ele>
      </trkpt>
      <trkpt lat="48.799" lon="7.38287">
        <ele>296.2</ele>
      </trkpt>
      <trkpt lat="48.79896" lon="7.38291">
        <ele>296.3</ele>
      </trkpt>
      <trkpt lat="48.79888" lon="7.38287">
        <ele>296.6</ele>
      </trkpt>
      <trkpt lat="48.79879" lon="7.38292">
        <ele>296.8</ele>
      </trkpt>
      <trkpt lat="48.79877" lon="7.38293">
        <ele>296.9</ele>
      </trkpt>
      <trkpt lat="48.79872" lon="7.38291">
        <ele>297.1</ele>
      </trkpt>
      <trkpt lat="48.79857" lon="7.38272">
        <ele>299</ele>
      </trkpt>
      <trkpt lat="48.79855" lon="7.3827">
        <ele>299.4</ele>
      </trkpt>
      <trkpt lat="48.7985" lon="7.38266">
        <ele>300.3</ele>
      </trkpt>
      <trkpt lat="48.79848" lon="7.38266">
        <ele>300.5</ele>
      </trkpt>
      <trkpt lat="48.79841" lon="7.38263">
        <ele>301.7</ele>
      </trkpt>
      <trkpt lat="48.79817" lon="7.38208">
        <ele>305.3</ele>
      </trkpt>
      <trkpt lat="48.79806" lon="7.38176">
        <ele>306.7</ele>
      </trkpt>
      <trkpt lat="48.79788" lon="7.38143">
        <ele>313</ele>
      </trkpt>
      <trkpt lat="48.79785" lon="7.38134">
        <ele>313.6</ele>
      </trkpt>
      <trkpt lat="48.7977" lon="7.38113">
        <ele>316.1</ele>
      </trkpt>
      <trkpt lat="48.79767" lon="7.38096">
        <ele>318.9</ele>
      </trkpt>
      <trkpt lat="48.79748" lon="7.38051">
        <ele>329.5</ele>
      </trkpt>
      <trkpt lat="48.79723" lon="7.37999">
        <ele>339.6</ele>
      </trkpt>
      <trkpt lat="48.79706" lon="7.37978">
        <ele>341.7</ele>
      </trkpt>
      <trkpt lat="48.79683" lon="7.37958">
        <ele>344.7</ele>
      </trkpt>
      <trkpt lat="48.79669" lon="7.37937">
        <ele>349.8</ele>
      </trkpt>
      <trkpt lat="48.79652" lon="7.37891">
        <ele>361.2</ele>
      </trkpt>
      <trkpt lat="48.79626" lon="7.37865">
        <ele>363.5</ele>
      </trkpt>
      <trkpt lat="48.79615" lon="7.37846">
        <ele>366</ele>
      </trkpt>
      <trkpt lat="48.79589" lon="7.37812">
        <ele>371.2</ele>
        <extensions>
          <visugpx:TrkExtension xmlns:visugpx="https://www.visugpx.com/editgpx/">
            <visugpx:node>83</visugpx:node>
            </visugpx:TrkExtension>
        </extensions>
      </trkpt>
      <trkpt lat="48.79582" lon="7.37803">
        <ele>377.9</ele>
      </trkpt>
      <trkpt lat="48.79544" lon="7.37763">
        <ele>380.3</ele>
      </trkpt>
      <trkpt lat="48.79538" lon="7.37759">
        <ele>381.1</ele>
      </trkpt>
      <trkpt lat="48.79534" lon="7.37755">
        <ele>381.8</ele>
      </trkpt>
      <trkpt lat="48.79514" lon="7.37744">
        <ele>386.9</ele>
      </trkpt>
      <trkpt lat="48.79509" lon="7.37734">
        <ele>386.4</ele>
      </trkpt>
      <trkpt lat="48.79486" lon="7.37691">
        <ele>390.4</ele>
      </trkpt>
      <trkpt lat="48.79457" lon="7.37657">
        <ele>391.2</ele>
      </trkpt>
      <trkpt lat="48.79442" lon="7.37632">
        <ele>391.3</ele>
      </trkpt>
      <trkpt lat="48.79439" lon="7.37626">
        <ele>391.3</ele>
      </trkpt>
      <trkpt lat="48.79406" lon="7.37583">
        <ele>395.1</ele>
      </trkpt>
      <trkpt lat="48.79375" lon="7.37533">
        <ele>393.1</ele>
      </trkpt>
      <trkpt lat="48.79373" lon="7.37529">
        <ele>393.1</ele>
      </trkpt>
      <trkpt lat="48.79356" lon="7.37518">
        <ele>394.4</ele>
      </trkpt>
      <trkpt lat="48.79326" lon="7.37548">
        <ele>396.5</ele>
      </trkpt>
      <trkpt lat="48.79251" lon="7.37529">
        <ele>396</ele>
      </trkpt>
      <trkpt lat="48.79189" lon="7.37491">
        <ele>386.4</ele>
      </trkpt>
      <trkpt lat="48.79135" lon="7.37449">
        <ele>375.6</ele>
      </trkpt>
      <trkpt lat="48.79126" lon="7.37443">
        <ele>375.1</ele>
      </trkpt>
      <trkpt lat="48.79117" lon="7.37439">
        <ele>374.7</ele>
      </trkpt>
      <trkpt lat="48.79106" lon="7.37437">
        <ele>374.3</ele>
      </trkpt>
      <trkpt lat="48.7907" lon="7.37435">
        <ele>373.7</ele>
      </trkpt>
      <trkpt lat="48.79063" lon="7.37435">
        <ele>374</ele>
      </trkpt>
      <trkpt lat="48.79039" lon="7.37422">
        <ele>375.8</ele>
      </trkpt>
      <trkpt lat="48.78988" lon="7.37379">
        <ele>387.7</ele>
      </trkpt>
      <trkpt lat="48.78938" lon="7.37319">
        <ele>393.7</ele>
      </trkpt>
      <trkpt lat="48.78912" lon="7.37276">
        <ele>401.3</ele>
      </trkpt>
      <trkpt lat="48.78907" lon="7.37273">
        <ele>401.4</ele>
      </trkpt>
      <trkpt lat="48.7884" lon="7.37247">
        <ele>408.5</ele>
      </trkpt>
      <trkpt lat="48.7882" lon="7.37257">
        <ele>408.1</ele>
      </trkpt>
      <trkpt lat="48.78804" lon="7.37275">
        <ele>406.6</ele>
      </trkpt>
      <trkpt lat="48.78784" lon="7.37297">
        <ele>405.6</ele>
      </trkpt>
      <trkpt lat="48.78766" lon="7.37292">
        <ele>406.2</ele>
      </trkpt>
      <trkpt lat="48.78745" lon="7.37275">
        <ele>406.3</ele>
      </trkpt>
      <trkpt lat="48.7871" lon="7.3725">
        <ele>410.7</ele>
        <extensions>
          <visugpx:TrkExtension xmlns:visugpx="https://www.visugpx.com/editgpx/">
            <visugpx:node>84</visugpx:node>
            </visugpx:TrkExtension>
        </extensions>
      </trkpt>
      <trkpt lat="48.78698" lon="7.37242">
        <ele>410.2</ele>
      </trkpt>
      <trkpt lat="48.78688" lon="7.37235">
        <ele>409.8</ele>
      </trkpt>
      <trkpt lat="48.78643" lon="7.37211">
        <ele>406.1</ele>
      </trkpt>
      <trkpt lat="48.78627" lon="7.37195">
        <ele>406</ele>
      </trkpt>
      <trkpt lat="48.78598" lon="7.37165">
        <ele>407.4</ele>
      </trkpt>
      <trkpt lat="48.7855" lon="7.37109">
        <ele>405.7</ele>
      </trkpt>
      <trkpt lat="48.78496" lon="7.37064">
        <ele>403.8</ele>
      </trkpt>
      <trkpt lat="48.78483" lon="7.37047">
        <ele>403.4</ele>
      </trkpt>
      <trkpt lat="48.78421" lon="7.37039">
        <ele>401.3</ele>
      </trkpt>
      <trkpt lat="48.78367" lon="7.3707">
        <ele>394.7</ele>
      </trkpt>
      <trkpt lat="48.78357" lon="7.3707">
        <ele>393.9</ele>
      </trkpt>
      <trkpt lat="48.78315" lon="7.3707">
        <ele>392.8</ele>
      </trkpt>
      <trkpt lat="48.78274" lon="7.37076">
        <ele>393.9</ele>
      </trkpt>
      <trkpt lat="48.78197" lon="7.37078">
        <ele>391.6</ele>
      </trkpt>
      <trkpt lat="48.78171" lon="7.37065">
        <ele>390.3</ele>
        <extensions>
          <visugpx:TrkExtension xmlns:visugpx="https://www.visugpx.com/editgpx/">
            <visugpx:node>85</visugpx:node>
            </visugpx:TrkExtension>
        </extensions>
      </trkpt>
      <trkpt lat="48.78158" lon="7.37058">
        <ele>384.6</ele>
      </trkpt>
      <trkpt lat="48.78129" lon="7.37028">
        <ele>384.1</ele>
      </trkpt>
      <trkpt lat="48.78079" lon="7.36968">
        <ele>375</ele>
      </trkpt>
      <trkpt lat="48.78068" lon="7.36955">
        <ele>374.5</ele>
      </trkpt>
      <trkpt lat="48.78073" lon="7.36943">
        <ele>377</ele>
      </trkpt>
      <trkpt lat="48.78074" lon="7.36935">
        <ele>379</ele>
      </trkpt>
      <trkpt lat="48.78072" lon="7.36926">
        <ele>381</ele>
      </trkpt>
      <trkpt lat="48.78064" lon="7.3692">
        <ele>378.8</ele>
      </trkpt>
      <trkpt lat="48.78049" lon="7.36852">
        <ele>379.2</ele>
      </trkpt>
      <trkpt lat="48.78042" lon="7.36815">
        <ele>379.1</ele>
      </trkpt>
      <trkpt lat="48.78035" lon="7.36751">
        <ele>377.3</ele>
      </trkpt>
      <trkpt lat="48.78062" lon="7.36581">
        <ele>387.9</ele>
      </trkpt>
      <trkpt lat="48.78063" lon="7.36546">
        <ele>386.7</ele>
      </trkpt>
      <trkpt lat="48.78066" lon="7.3651">
        <ele>391.2</ele>
        <extensions>
          <visugpx:TrkExtension xmlns:visugpx="https://www.visugpx.com/editgpx/">
            <visugpx:node>86</visugpx:node>
            </visugpx:TrkExtension>
        </extensions>
      </trkpt>
      <trkpt lat="48.78067" lon="7.36483">
        <ele>391.9</ele>
      </trkpt>
      <trkpt lat="48.78048" lon="7.36352">
        <ele>388.7</ele>
      </trkpt>
      <trkpt lat="48.78028" lon="7.36258">
        <ele>388.9</ele>
      </trkpt>
      <trkpt lat="48.78018" lon="7.36231">
        <ele>389.2</ele>
      </trkpt>
      <trkpt lat="48.78013" lon="7.36214">
        <ele>389.5</ele>
      </trkpt>
      <trkpt lat="48.78015" lon="7.36189">
        <ele>389.1</ele>
      </trkpt>
      <trkpt lat="48.78028" lon="7.36139">
        <ele>390.7</ele>
      </trkpt>
      <trkpt lat="48.78034" lon="7.36129">
        <ele>391.3</ele>
      </trkpt>
      <trkpt lat="48.78065" lon="7.36099">
        <ele>394.3</ele>
      </trkpt>
      <trkpt lat="48.78085" lon="7.36087">
        <ele>398</ele>
      </trkpt>
      <trkpt lat="48.78058" lon="7.35976">
        <ele>394.7</ele>
      </trkpt>
      <trkpt lat="48.78042" lon="7.3591">
        <ele>395.5</ele>
      </trkpt>
      <trkpt lat="48.78031" lon="7.35769">
        <ele>398.6</ele>
      </trkpt>
      <trkpt lat="48.77986" lon="7.35662">
        <ele>395.6</ele>
      </trkpt>
      <trkpt lat="48.77966" lon="7.35565">
        <ele>397.9</ele>
        <extensions>
          <visugpx:TrkExtension xmlns:visugpx="https://www.visugpx.com/editgpx/">
            <visugpx:node>87</visugpx:node>
            </visugpx:TrkExtension>
        </extensions>
      </trkpt>
      <trkpt lat="48.77962" lon="7.35543">
        <ele>398</ele>
      </trkpt>
      <trkpt lat="48.77951" lon="7.35497">
        <ele>401.4</ele>
      </trkpt>
      <trkpt lat="48.77934" lon="7.35435">
        <ele>403.8</ele>
      </trkpt>
      <trkpt lat="48.77921" lon="7.35381">
        <ele>408.3</ele>
      </trkpt>
      <trkpt lat="48.77909" lon="7.35343">
        <ele>406.5</ele>
      </trkpt>
      <trkpt lat="48.77864" lon="7.35254">
        <ele>407.1</ele>
      </trkpt>
      <trkpt lat="48.7784" lon="7.3521">
        <ele>409.5</ele>
      </trkpt>
      <trkpt lat="48.77805" lon="7.35144">
        <ele>410</ele>
      </trkpt>
      <trkpt lat="48.77783" lon="7.35114">
        <ele>410.2</ele>
      </trkpt>
      <trkpt lat="48.77754" lon="7.35092">
        <ele>409.4</ele>
      </trkpt>
      <trkpt lat="48.77747" lon="7.35086">
        <ele>409.6</ele>
      </trkpt>
      <trkpt lat="48.77736" lon="7.35079">
        <ele>411.2</ele>
      </trkpt>
      <trkpt lat="48.77722" lon="7.35087">
        <ele>412</ele>
      </trkpt>
      <trkpt lat="48.77715" lon="7.3507">
        <ele>413.5</ele>
      </trkpt>
      <trkpt lat="48.77705" lon="7.35053">
        <ele>414.3</ele>
      </trkpt>
      <trkpt lat="48.77671" lon="7.35087">
        <ele>418.4</ele>
      </trkpt>
      <trkpt lat="48.77609" lon="7.35158">
        <ele>417.6</ele>
      </trkpt>
      <trkpt lat="48.77581" lon="7.35201">
        <ele>415.9</ele>
      </trkpt>
      <trkpt lat="48.77563" lon="7.35239">
        <ele>413.9</ele>
      </trkpt>
      <trkpt lat="48.7751" lon="7.35354">
        <ele>406.9</ele>
        <extensions>
          <visugpx:TrkExtension xmlns:visugpx="https://www.visugpx.com/editgpx/">
            <visugpx:node>88</visugpx:node>
            </visugpx:TrkExtension>
        </extensions>
      </trkpt>
      <trkpt lat="48.77473" lon="7.35431">
        <ele>408.8</ele>
      </trkpt>
      <trkpt lat="48.77445" lon="7.35567">
        <ele>408.8</ele>
      </trkpt>
      <trkpt lat="48.7741" lon="7.35706">
        <ele>402</ele>
      </trkpt>
      <trkpt lat="48.77404" lon="7.3574">
        <ele>402.3</ele>
      </trkpt>
      <trkpt lat="48.77405" lon="7.35765">
        <ele>399.8</ele>
      </trkpt>
      <trkpt lat="48.77409" lon="7.35785">
        <ele>398.2</ele>
      </trkpt>
      <trkpt lat="48.77419" lon="7.35809">
        <ele>401.6</ele>
      </trkpt>
      <trkpt lat="48.77431" lon="7.35826">
        <ele>401.3</ele>
      </trkpt>
      <trkpt lat="48.77435" lon="7.35853">
        <ele>398.9</ele>
      </trkpt>
      <trkpt lat="48.77433" lon="7.35874">
        <ele>398</ele>
      </trkpt>
      <trkpt lat="48.77435" lon="7.35902">
        <ele>397</ele>
      </trkpt>
      <trkpt lat="48.77454" lon="7.36004">
        <ele>390.7</ele>
      </trkpt>
      <trkpt lat="48.77458" lon="7.36039">
        <ele>390.1</ele>
      </trkpt>
      <trkpt lat="48.77466" lon="7.36065">
        <ele>389.7</ele>
      </trkpt>
      <trkpt lat="48.77481" lon="7.36093">
        <ele>387.4</ele>
      </trkpt>
      <trkpt lat="48.77486" lon="7.36111">
        <ele>386.9</ele>
      </trkpt>
      <trkpt lat="48.77497" lon="7.36167">
        <ele>388.2</ele>
      </trkpt>
      <trkpt lat="48.77497" lon="7.36188">
        <ele>381.5</ele>
      </trkpt>
      <trkpt lat="48.77492" lon="7.362">
        <ele>379</ele>
      </trkpt>
      <trkpt lat="48.77485" lon="7.36199">
        <ele>378.5</ele>
      </trkpt>
      <trkpt lat="48.7748" lon="7.36197">
        <ele>378.1</ele>
      </trkpt>
      <trkpt lat="48.77431" lon="7.36109">
        <ele>384.9</ele>
      </trkpt>
      <trkpt lat="48.77402" lon="7.36055">
        <ele>380.5</ele>
        <extensions>
          <visugpx:TrkExtension xmlns:visugpx="https://www.visugpx.com/editgpx/">
            <visugpx:node>89</visugpx:node>
            </visugpx:TrkExtension>
        </extensions>
      </trkpt>
      <trkpt lat="48.77357" lon="7.3597">
        <ele>382.9</ele>
      </trkpt>
      <trkpt lat="48.77342" lon="7.35946">
        <ele>383.4</ele>
      </trkpt>
      <trkpt lat="48.77295" lon="7.35861">
        <ele>368.4</ele>
      </trkpt>
      <trkpt lat="48.77295" lon="7.3588">
        <ele>367.4</ele>
      </trkpt>
      <trkpt lat="48.77267" lon="7.3582">
        <ele>367.4</ele>
      </trkpt>
      <trkpt lat="48.77237" lon="7.35763">
        <ele>357.7</ele>
      </trkpt>
      <trkpt lat="48.77226" lon="7.35747">
        <ele>362.8</ele>
      </trkpt>
      <trkpt lat="48.77172" lon="7.35697">
        <ele>359.6</ele>
      </trkpt>
      <trkpt lat="48.7715" lon="7.35662">
        <ele>350.2</ele>
      </trkpt>
      <trkpt lat="48.77137" lon="7.35638">
        <ele>345.3</ele>
      </trkpt>
      <trkpt lat="48.77132" lon="7.35587">
        <ele>344.9</ele>
      </trkpt>
      <trkpt lat="48.77128" lon="7.35524">
        <ele>341.9</ele>
        <extensions>
          <visugpx:TrkExtension xmlns:visugpx="https://www.visugpx.com/editgpx/">
            <visugpx:node>90</visugpx:node>
            </visugpx:TrkExtension>
        </extensions>
      </trkpt>
      <trkpt lat="48.77128" lon="7.35517">
        <ele>341.9</ele>
      </trkpt>
      <trkpt lat="48.77129" lon="7.35467">
        <ele>339.3</ele>
      </trkpt>
      <trkpt lat="48.77137" lon="7.35414">
        <ele>342.6</ele>
      </trkpt>
      <trkpt lat="48.77138" lon="7.35387">
        <ele>342</ele>
      </trkpt>
      <trkpt lat="48.7713" lon="7.35354">
        <ele>341.2</ele>
      </trkpt>
      <trkpt lat="48.77134" lon="7.35322">
        <ele>349.9</ele>
      </trkpt>
      <trkpt lat="48.77132" lon="7.35284">
        <ele>352</ele>
      </trkpt>
      <trkpt lat="48.77123" lon="7.35269">
        <ele>352.3</ele>
      </trkpt>
      <trkpt lat="48.77098" lon="7.35267">
        <ele>351</ele>
      </trkpt>
      <trkpt lat="48.77039" lon="7.35257">
        <ele>346.3</ele>
      </trkpt>
      <trkpt lat="48.76986" lon="7.35266">
        <ele>347.5</ele>
      </trkpt>
      <trkpt lat="48.76973" lon="7.35265">
        <ele>345.2</ele>
      </trkpt>
      <trkpt lat="48.7696" lon="7.3526">
        <ele>344.1</ele>
      </trkpt>
      <trkpt lat="48.76939" lon="7.35247">
        <ele>354.6</ele>
        <extensions>
          <visugpx:TrkExtension xmlns:visugpx="https://www.visugpx.com/editgpx/">
            <visugpx:node>91</visugpx:node>
            </visugpx:TrkExtension>
        </extensions>
      </trkpt>
      <trkpt lat="48.76918" lon="7.35233">
        <ele>353.1</ele>
      </trkpt>
      <trkpt lat="48.76906" lon="7.35221">
        <ele>351.9</ele>
      </trkpt>
      <trkpt lat="48.76898" lon="7.3521">
        <ele>353.2</ele>
      </trkpt>
      <trkpt lat="48.76877" lon="7.35175">
        <ele>355.2</ele>
      </trkpt>
      <trkpt lat="48.76867" lon="7.35169">
        <ele>355.3</ele>
      </trkpt>
      <trkpt lat="48.76863" lon="7.35169">
        <ele>355.3</ele>
      </trkpt>
      <trkpt lat="48.76859" lon="7.35173">
        <ele>355.2</ele>
      </trkpt>
      <trkpt lat="48.76858" lon="7.35179">
        <ele>355.1</ele>
      </trkpt>
      <trkpt lat="48.76846" lon="7.35274">
        <ele>345.3</ele>
      </trkpt>
      <trkpt lat="48.76839" lon="7.35316">
        <ele>342.3</ele>
      </trkpt>
      <trkpt lat="48.76832" lon="7.35352">
        <ele>336.3</ele>
      </trkpt>
      <trkpt lat="48.76822" lon="7.35364">
        <ele>333.8</ele>
      </trkpt>
      <trkpt lat="48.76816" lon="7.35365">
        <ele>333.3</ele>
      </trkpt>
      <trkpt lat="48.76805" lon="7.35362">
        <ele>332.7</ele>
      </trkpt>
      <trkpt lat="48.76785" lon="7.3535">
        <ele>331.6</ele>
      </trkpt>
      <trkpt lat="48.76772" lon="7.35334">
        <ele>331</ele>
      </trkpt>
      <trkpt lat="48.76765" lon="7.35321">
        <ele>335.5</ele>
      </trkpt>
      <trkpt lat="48.76758" lon="7.35308">
        <ele>336.5</ele>
      </trkpt>
      <trkpt lat="48.76721" lon="7.35211">
        <ele>330.9</ele>
      </trkpt>
      <trkpt lat="48.76705" lon="7.35177">
        <ele>329.8</ele>
      </trkpt>
      <trkpt lat="48.76697" lon="7.35163">
        <ele>331.3</ele>
      </trkpt>
      <trkpt lat="48.76686" lon="7.35155">
        <ele>329.7</ele>
      </trkpt>
      <trkpt lat="48.76672" lon="7.35146">
        <ele>328.9</ele>
      </trkpt>
      <trkpt lat="48.76664" lon="7.35136">
        <ele>320</ele>
      </trkpt>
      <trkpt lat="48.76641" lon="7.35095">
        <ele>320</ele>
      </trkpt>
      <trkpt lat="48.76628" lon="7.3508">
        <ele>319.7</ele>
      </trkpt>
      <trkpt lat="48.76603" lon="7.35074">
        <ele>316.7</ele>
      </trkpt>
      <trkpt lat="48.76571" lon="7.35091">
        <ele>310</ele>
      </trkpt>
      <trkpt lat="48.76551" lon="7.35105">
        <ele>307.4</ele>
      </trkpt>
      <trkpt lat="48.76543" lon="7.35109">
        <ele>306.7</ele>
      </trkpt>
      <trkpt lat="48.76534" lon="7.35122">
        <ele>305.7</ele>
        <extensions>
          <visugpx:TrkExtension xmlns:visugpx="https://www.visugpx.com/editgpx/">
            <visugpx:node>92</visugpx:node>
            </visugpx:TrkExtension>
        </extensions>
      </trkpt>
      <trkpt lat="48.7653" lon="7.35127">
        <ele>305.3</ele>
      </trkpt>
      <trkpt lat="48.76516" lon="7.35154">
        <ele>302.1</ele>
      </trkpt>
      <trkpt lat="48.76518" lon="7.35173">
        <ele>296.2</ele>
      </trkpt>
      <trkpt lat="48.76501" lon="7.35172">
        <ele>296.5</ele>
      </trkpt>
      <trkpt lat="48.7651" lon="7.35218">
        <ele>291.1</ele>
      </trkpt>
      <trkpt lat="48.76509" lon="7.35247">
        <ele>284.1</ele>
      </trkpt>
      <trkpt lat="48.76495" lon="7.35287">
        <ele>271.1</ele>
      </trkpt>
      <trkpt lat="48.76488" lon="7.35298">
        <ele>269.8</ele>
      </trkpt>
      <trkpt lat="48.76476" lon="7.35318">
        <ele>268.2</ele>
      </trkpt>
      <trkpt lat="48.7647" lon="7.35332">
        <ele>267.8</ele>
      </trkpt>
      <trkpt lat="48.76457" lon="7.35372">
        <ele>263.5</ele>
      </trkpt>
      <trkpt lat="48.76447" lon="7.35361">
        <ele>263.6</ele>
      </trkpt>
      <trkpt lat="48.76414" lon="7.35317">
        <ele>264.4</ele>
      </trkpt>
      <trkpt lat="48.76397" lon="7.35303">
        <ele>264.7</ele>
      </trkpt>
      <trkpt lat="48.7638" lon="7.35296">
        <ele>264.5</ele>
      </trkpt>
      <trkpt lat="48.76376" lon="7.35295">
        <ele>264.4</ele>
      </trkpt>
      <trkpt lat="48.76351" lon="7.35297">
        <ele>263.5</ele>
      </trkpt>
      <trkpt lat="48.76323" lon="7.35301">
        <ele>260.5</ele>
      </trkpt>
      <trkpt lat="48.76281" lon="7.35305">
        <ele>260.1</ele>
      </trkpt>
      <trkpt lat="48.76266" lon="7.35303">
        <ele>259.9</ele>
      </trkpt>
      <trkpt lat="48.76228" lon="7.35293">
        <ele>256.7</ele>
      </trkpt>
      <trkpt lat="48.76194" lon="7.35281">
        <ele>255.7</ele>
        <extensions>
          <visugpx:TrkExtension xmlns:visugpx="https://www.visugpx.com/editgpx/">
            <visugpx:node>93</visugpx:node>
            </visugpx:TrkExtension>
        </extensions>
      </trkpt>
      <trkpt lat="48.76192" lon="7.3528">
        <ele>255.6</ele>
      </trkpt>
      <trkpt lat="48.76158" lon="7.35269">
        <ele>251</ele>
      </trkpt>
      <trkpt lat="48.76149" lon="7.35265">
        <ele>250.6</ele>
      </trkpt>
      <trkpt lat="48.7614" lon="7.35259">
        <ele>250</ele>
      </trkpt>
      <trkpt lat="48.76127" lon="7.35243">
        <ele>251</ele>
      </trkpt>
      <trkpt lat="48.76069" lon="7.35156">
        <ele>243.9</ele>
      </trkpt>
      <trkpt lat="48.76041" lon="7.35126">
        <ele>240.1</ele>
      </trkpt>
      <trkpt lat="48.76028" lon="7.35126">
        <ele>238.7</ele>
      </trkpt>
      <trkpt lat="48.76024" lon="7.35127">
        <ele>238.3</ele>
      </trkpt>
      <trkpt lat="48.7602" lon="7.35135">
        <ele>237.5</ele>
      </trkpt>
      <trkpt lat="48.76019" lon="7.35151">
        <ele>235.9</ele>
      </trkpt>
      <trkpt lat="48.76016" lon="7.35147">
        <ele>235.8</ele>
      </trkpt>
      <trkpt lat="48.76015" lon="7.35132">
        <ele>237.2</ele>
      </trkpt>
      <trkpt lat="48.76011" lon="7.35122">
        <ele>237.4</ele>
      </trkpt>
      <trkpt lat="48.76007" lon="7.35122">
        <ele>237.2</ele>
      </trkpt>
      <trkpt lat="48.76005" lon="7.35131">
        <ele>236.6</ele>
      </trkpt>
      <trkpt lat="48.76003" lon="7.35155">
        <ele>232.6</ele>
      </trkpt>
      <trkpt lat="48.76001" lon="7.35158">
        <ele>231.5</ele>
      </trkpt>
      <trkpt lat="48.75997" lon="7.35152">
        <ele>227.1</ele>
      </trkpt>
      <trkpt lat="48.75995" lon="7.35141">
        <ele>226.9</ele>
      </trkpt>
      <trkpt lat="48.75974" lon="7.35174">
        <ele>225</ele>
      </trkpt>
      <trkpt lat="48.7596" lon="7.35186">
        <ele>223.9</ele>
      </trkpt>
      <trkpt lat="48.75955" lon="7.35188">
        <ele>223.6</ele>
      </trkpt>
      <trkpt lat="48.75945" lon="7.35194">
        <ele>223.1</ele>
      </trkpt>
      <trkpt lat="48.75929" lon="7.35203">
        <ele>222.6</ele>
      </trkpt>
      <trkpt lat="48.75908" lon="7.35221">
        <ele>220.1</ele>
      </trkpt>
      <trkpt lat="48.75892" lon="7.35236">
        <ele>220.1</ele>
      </trkpt>
      <trkpt lat="48.75873" lon="7.35249">
        <ele>220.2</ele>
      </trkpt>
      <trkpt lat="48.75868" lon="7.3525">
        <ele>220</ele>
      </trkpt>
      <trkpt lat="48.75859" lon="7.3525">
        <ele>220</ele>
      </trkpt>
      <trkpt lat="48.75811" lon="7.35243">
        <ele>222.5</ele>
      </trkpt>
      <trkpt lat="48.7578" lon="7.35248">
        <ele>224.2</ele>
      </trkpt>
      <trkpt lat="48.75774" lon="7.3525">
        <ele>224.3</ele>
      </trkpt>
      <trkpt lat="48.7576" lon="7.35254">
        <ele>224.6</ele>
      </trkpt>
      <trkpt lat="48.75749" lon="7.35255">
        <ele>226</ele>
      </trkpt>
      <trkpt lat="48.7574" lon="7.35252">
        <ele>226.1</ele>
      </trkpt>
      <trkpt lat="48.75722" lon="7.35244">
        <ele>227.8</ele>
      </trkpt>
      <trkpt lat="48.75681" lon="7.35231">
        <ele>228.7</ele>
      </trkpt>
      <trkpt lat="48.75658" lon="7.35226">
        <ele>228.6</ele>
      </trkpt>
      <trkpt lat="48.75624" lon="7.35225">
        <ele>228.1</ele>
      </trkpt>
      <trkpt lat="48.75604" lon="7.35227">
        <ele>227.6</ele>
      </trkpt>
      <trkpt lat="48.75599" lon="7.35221">
        <ele>227.7</ele>
      </trkpt>
      <trkpt lat="48.75598" lon="7.35214">
        <ele>227.8</ele>
      </trkpt>
      <trkpt lat="48.75585" lon="7.35224">
        <ele>227.4</ele>
      </trkpt>
      <trkpt lat="48.75576" lon="7.35231">
        <ele>226.4</ele>
      </trkpt>
      <trkpt lat="48.75562" lon="7.35238">
        <ele>226.4</ele>
      </trkpt>
      <trkpt lat="48.75542" lon="7.35243">
        <ele>226.3</ele>
      </trkpt>
      <trkpt lat="48.75526" lon="7.35247">
        <ele>226.1</ele>
      </trkpt>
      <trkpt lat="48.75518" lon="7.35248">
        <ele>225.9</ele>
      </trkpt>
      <trkpt lat="48.75508" lon="7.3525">
        <ele>225.1</ele>
      </trkpt>
      <trkpt lat="48.75501" lon="7.35252">
        <ele>225.1</ele>
      </trkpt>
      <trkpt lat="48.75391" lon="7.35295">
        <ele>235.1</ele>
      </trkpt>
      <trkpt lat="48.75374" lon="7.35298">
        <ele>235.5</ele>
        <extensions>
          <visugpx:TrkExtension xmlns:visugpx="https://www.visugpx.com/editgpx/">
            <visugpx:node>94</visugpx:node>
            </visugpx:TrkExtension>
        </extensions>
      </trkpt>
      <trkpt lat="48.75322" lon="7.35307">
        <ele>236.4</ele>
      </trkpt>
      <trkpt lat="48.75313" lon="7.35309">
        <ele>236.3</ele>
      </trkpt>
      <trkpt lat="48.75295" lon="7.35311">
        <ele>235.9</ele>
      </trkpt>
      <trkpt lat="48.75286" lon="7.3531">
        <ele>235.6</ele>
      </trkpt>
      <trkpt lat="48.75232" lon="7.35301">
        <ele>232.1</ele>
      </trkpt>
      <trkpt lat="48.75089" lon="7.35288">
        <ele>226.7</ele>
      </trkpt>
      <trkpt lat="48.75065" lon="7.35289">
        <ele>225.5</ele>
      </trkpt>
      <trkpt lat="48.75059" lon="7.3529">
        <ele>225.4</ele>
      </trkpt>
      <trkpt lat="48.75025" lon="7.35301">
        <ele>224.8</ele>
      </trkpt>
      <trkpt lat="48.74938" lon="7.35344">
        <ele>222</ele>
      </trkpt>
      <trkpt lat="48.74873" lon="7.35396">
        <ele>219.6</ele>
      </trkpt>
      <trkpt lat="48.74856" lon="7.35414">
        <ele>218.7</ele>
      </trkpt>
      <trkpt lat="48.74796" lon="7.35489">
        <ele>215.9</ele>
        <extensions>
          <visugpx:TrkExtension xmlns:visugpx="https://www.visugpx.com/editgpx/">
            <visugpx:node>95</visugpx:node>
            </visugpx:TrkExtension>
        </extensions>
      </trkpt>
      <trkpt lat="48.74784" lon="7.35503">
        <ele>216.2</ele>
      </trkpt>
      <trkpt lat="48.7473" lon="7.35567">
        <ele>212</ele>
      </trkpt>
      <trkpt lat="48.74688" lon="7.35619">
        <ele>211.1</ele>
      </trkpt>
      <trkpt lat="48.74673" lon="7.35633">
        <ele>210.8</ele>
      </trkpt>
      <trkpt lat="48.74658" lon="7.35641">
        <ele>206.7</ele>
      </trkpt>
      <trkpt lat="48.74648" lon="7.35643">
        <ele>206.5</ele>
      </trkpt>
      <trkpt lat="48.74634" lon="7.3564">
        <ele>205.8</ele>
      </trkpt>
      <trkpt lat="48.7463" lon="7.35639">
        <ele>205.6</ele>
      </trkpt>
      <trkpt lat="48.7461" lon="7.35631">
        <ele>204.8</ele>
      </trkpt>
      <trkpt lat="48.74553" lon="7.35603">
        <ele>198.4</ele>
      </trkpt>
      <trkpt lat="48.74537" lon="7.35593">
        <ele>197.4</ele>
      </trkpt>
      <trkpt lat="48.74531" lon="7.35584">
        <ele>196.8</ele>
      </trkpt>
      <trkpt lat="48.74529" lon="7.35573">
        <ele>194.8</ele>
      </trkpt>
      <trkpt lat="48.74516" lon="7.35579">
        <ele>194.1</ele>
      </trkpt>
      <trkpt lat="48.74503" lon="7.35585">
        <ele>193.7</ele>
      </trkpt>
      <trkpt lat="48.74497" lon="7.35588">
        <ele>192.5</ele>
      </trkpt>
      <trkpt lat="48.74488" lon="7.35592">
        <ele>191.9</ele>
      </trkpt>
      <trkpt lat="48.74476" lon="7.35598">
        <ele>191.2</ele>
      </trkpt>
      <trkpt lat="48.74441" lon="7.35616">
        <ele>189.6</ele>
      </trkpt>
      <trkpt lat="48.74428" lon="7.35626">
        <ele>189.2</ele>
      </trkpt>
      <trkpt lat="48.7438" lon="7.3567">
        <ele>185.2</ele>
      </trkpt>
      <trkpt lat="48.74375" lon="7.35674">
        <ele>185</ele>
      </trkpt>
      <trkpt lat="48.74369" lon="7.35681">
        <ele>184.8</ele>
      </trkpt>
      <trkpt lat="48.7437" lon="7.35687">
        <ele>184.9</ele>
      </trkpt>
      <trkpt lat="48.74371" lon="7.35692">
        <ele>184.9</ele>
      </trkpt>
      <trkpt lat="48.74371" lon="7.35819">
        <ele>185.9</ele>
      </trkpt>
      <trkpt lat="48.74369" lon="7.35843">
        <ele>186.5</ele>
      </trkpt>
      <trkpt lat="48.74369" lon="7.35847">
        <ele>186.5</ele>
      </trkpt>
      <trkpt lat="48.74363" lon="7.35858">
        <ele>186.5</ele>
      </trkpt>
      <trkpt lat="48.74357" lon="7.35874">
        <ele>186.6</ele>
      </trkpt>
      <trkpt lat="48.7435" lon="7.35881">
        <ele>186.7</ele>
      </trkpt>
      <trkpt lat="48.74335" lon="7.35907">
        <ele>187.5</ele>
      </trkpt>
      <trkpt lat="48.74331" lon="7.35913">
        <ele>188</ele>
      </trkpt>
      <trkpt lat="48.74325" lon="7.35925">
        <ele>188.7</ele>
      </trkpt>
      <trkpt lat="48.74304" lon="7.35961">
        <ele>189.7</ele>
      </trkpt>
      <trkpt lat="48.74295" lon="7.35978">
        <ele>190</ele>
      </trkpt>
      <trkpt lat="48.74287" lon="7.35992">
        <ele>190.4</ele>
      </trkpt>
      <trkpt lat="48.74274" lon="7.36013">
        <ele>190.3</ele>
      </trkpt>
      <trkpt lat="48.74229" lon="7.36086">
        <ele>191.8</ele>
      </trkpt>
      <trkpt lat="48.74214" lon="7.36114">
        <ele>193.3</ele>
      </trkpt>
      <trkpt lat="48.74176" lon="7.36045">
        <ele>194.8</ele>
      </trkpt>
      <trkpt lat="48.74128" lon="7.35954">
        <ele>196.8</ele>
      </trkpt>
      <trkpt lat="48.74127" lon="7.35952">
        <ele>196.8</ele>
      </trkpt>
      <trkpt lat="48.74131" lon="7.35946">
        <ele>196.6</ele>
      </trkpt>
      <trkpt lat="48.74127" lon="7.35938">
        <ele>196.7</ele>
      </trkpt>
      <trkpt lat="48.74128" lon="7.35937">
        <ele>196.6</ele>
      </trkpt>
      <trkpt lat="48.74135" lon="7.35928">
        <ele>196.1</ele>
        <extensions>
          <visugpx:TrkExtension xmlns:visugpx="https://www.visugpx.com/editgpx/">
            <visugpx:node>96</visugpx:node>
            </visugpx:TrkExtension>
        </extensions>
      </trkpt>
      <trkpt lat="48.74128" lon="7.35937">
        <ele>196.6</ele>
      </trkpt>
      <trkpt lat="48.74123" lon="7.35932">
        <ele>196.8</ele>
      </trkpt>
      <trkpt lat="48.74114" lon="7.35898">
        <ele>196.1</ele>
      </trkpt>
      <trkpt lat="48.7411" lon="7.3579">
        <ele>195.7</ele>
      </trkpt>
      <trkpt lat="48.74105" lon="7.35788">
        <ele>195.8</ele>
      </trkpt>
      <trkpt lat="48.74108" lon="7.35784">
        <ele>195.7</ele>
      </trkpt>
      <trkpt lat="48.7411" lon="7.3578">
        <ele>195.7</ele>
      </trkpt>
      <trkpt lat="48.74111" lon="7.35768">
        <ele>195.8</ele>
      </trkpt>
      <trkpt lat="48.74106" lon="7.35653">
        <ele>194.8</ele>
      </trkpt>
      <trkpt lat="48.74104" lon="7.35642">
        <ele>194.5</ele>
      </trkpt>
      <trkpt lat="48.74107" lon="7.35617">
        <ele>193.8</ele>
      </trkpt>
      <trkpt lat="48.74109" lon="7.35566">
        <ele>192.4</ele>
      </trkpt>
      <trkpt lat="48.7411" lon="7.35532">
        <ele>192</ele>
      </trkpt>
      <trkpt lat="48.7414" lon="7.3553">
        <ele>190.9</ele>
      </trkpt>
      <trkpt lat="48.74136" lon="7.35435">
        <ele>189.7</ele>
      </trkpt>
      <trkpt lat="48.74135" lon="7.35397">
        <ele>189.2</ele>
        <extensions>
          <visugpx:TrkExtension xmlns:visugpx="https://www.visugpx.com/editgpx/">
            <visugpx:node>97</visugpx:node>
            </visugpx:TrkExtension>
        </extensions>
      </trkpt>
      <trkpt lat="48.74133" lon="7.35353">
        <ele>189.3</ele>
      </trkpt>
      <trkpt lat="48.74132" lon="7.35316">
        <ele>189.8</ele>
      </trkpt>
      <trkpt lat="48.74116" lon="7.35316">
        <ele>190.7</ele>
      </trkpt>
      <trkpt lat="48.74116" lon="7.35284">
        <ele>191</ele>
      </trkpt>
      <trkpt lat="48.74117" lon="7.35257">
        <ele>191.4</ele>
      </trkpt>
      <trkpt lat="48.74114" lon="7.35183">
        <ele>193.3</ele>
      </trkpt>
      <trkpt lat="48.74109" lon="7.35138">
        <ele>193.2</ele>
      </trkpt>
      <trkpt lat="48.74103" lon="7.35098">
        <ele>193.4</ele>
      </trkpt>
      <trkpt lat="48.74099" lon="7.35077">
        <ele>192.5</ele>
      </trkpt>
      <trkpt lat="48.74086" lon="7.35033">
        <ele>190</ele>
      </trkpt>
      <trkpt lat="48.7407" lon="7.34991">
        <ele>193</ele>
      </trkpt>
      <trkpt lat="48.74054" lon="7.34957">
        <ele>195.7</ele>
      </trkpt>
      <trkpt lat="48.74034" lon="7.34925">
        <ele>197</ele>
      </trkpt>
      <trkpt lat="48.73971" lon="7.34858">
        <ele>201.1</ele>
      </trkpt>
      <trkpt lat="48.73872" lon="7.34763">
        <ele>202.9</ele>
      </trkpt>
      <trkpt lat="48.73836" lon="7.34731">
        <ele>197.4</ele>
      </trkpt>
      <trkpt lat="48.73801" lon="7.34705">
        <ele>204.4</ele>
      </trkpt>
      <trkpt lat="48.73791" lon="7.34698">
        <ele>204.9</ele>
      </trkpt>
      <trkpt lat="48.73793" lon="7.34692">
        <ele>204.2</ele>
      </trkpt>
      <trkpt lat="48.73794" lon="7.34693">
        <ele>204.2</ele>
      </trkpt>
      <trkpt lat="48.73796" lon="7.34689">
        <ele>203.6</ele>
      </trkpt>
      <trkpt lat="48.73805" lon="7.34696">
        <ele>203.1</ele>
      </trkpt>
      <trkpt lat="48.73819" lon="7.34707">
        <ele>202.8</ele>
      </trkpt>
      <trkpt lat="48.73824" lon="7.34692">
        <ele>200.3</ele>
      </trkpt>
      <trkpt lat="48.73828" lon="7.34681">
        <ele>197.5</ele>
      </trkpt>
      <trkpt lat="48.73842" lon="7.34643">
        <ele>192.8</ele>
      </trkpt>
      <trkpt lat="48.73849" lon="7.34623">
        <ele>193.2</ele>
      </trkpt>
      <trkpt lat="48.73852" lon="7.34616">
        <ele>193.2</ele>
      </trkpt>
      <trkpt lat="48.73849" lon="7.34612">
        <ele>193</ele>
      </trkpt>
      <trkpt lat="48.7382" lon="7.34575">
        <ele>192.4</ele>
      </trkpt>
      <trkpt lat="48.73813" lon="7.34567">
        <ele>193.3</ele>
      </trkpt>
      <trkpt lat="48.73811" lon="7.34562">
        <ele>193.7</ele>
      </trkpt>
      <trkpt lat="48.73809" lon="7.34555">
        <ele>194.1</ele>
      </trkpt>
      <trkpt lat="48.73806" lon="7.3455">
        <ele>194.4</ele>
      </trkpt>
      <trkpt lat="48.73783" lon="7.3452">
        <ele>195.7</ele>
      </trkpt>
      <trkpt lat="48.73774" lon="7.34503">
        <ele>196.3</ele>
      </trkpt>
      <trkpt lat="48.7377" lon="7.34483">
        <ele>201.1</ele>
      </trkpt>
      <trkpt lat="48.7377" lon="7.34466">
        <ele>202.4</ele>
        <extensions>
          <visugpx:TrkExtension xmlns:visugpx="https://www.visugpx.com/editgpx/">
            <visugpx:node>98</visugpx:node>
            </visugpx:TrkExtension>
        </extensions>
      </trkpt>
      <trkpt lat="48.7377" lon="7.34462">
        <ele>202.8</ele>
      </trkpt>
      <trkpt lat="48.73773" lon="7.34425">
        <ele>206</ele>
      </trkpt>
      <trkpt lat="48.73772" lon="7.34418">
        <ele>206.5</ele>
      </trkpt>
      <trkpt lat="48.73766" lon="7.34407">
        <ele>212.2</ele>
      </trkpt>
      <trkpt lat="48.73755" lon="7.34388">
        <ele>213.5</ele>
      </trkpt>
      <trkpt lat="48.7375" lon="7.34379">
        <ele>214.2</ele>
      </trkpt>
      <trkpt lat="48.7374" lon="7.34363">
        <ele>216.1</ele>
      </trkpt>
      <trkpt lat="48.73733" lon="7.34355">
        <ele>216.8</ele>
      </trkpt>
      <trkpt lat="48.73724" lon="7.3433">
        <ele>226.2</ele>
      </trkpt>
      <trkpt lat="48.73706" lon="7.34308">
        <ele>226</ele>
      </trkpt>
      <trkpt lat="48.73695" lon="7.34299">
        <ele>226.3</ele>
      </trkpt>
      <trkpt lat="48.73673" lon="7.34271">
        <ele>230.7</ele>
      </trkpt>
      <trkpt lat="48.73652" lon="7.34198">
        <ele>238.1</ele>
      </trkpt>
      <trkpt lat="48.73627" lon="7.34149">
        <ele>248.4</ele>
      </trkpt>
      <trkpt lat="48.73624" lon="7.34134">
        <ele>249.2</ele>
      </trkpt>
      <trkpt lat="48.73631" lon="7.34129">
        <ele>250.2</ele>
      </trkpt>
      <trkpt lat="48.73639" lon="7.34126">
        <ele>251.1</ele>
      </trkpt>
      <trkpt lat="48.73634" lon="7.34108">
        <ele>252.2</ele>
      </trkpt>
      <trkpt lat="48.73622" lon="7.34078">
        <ele>261.8</ele>
      </trkpt>
      <trkpt lat="48.73599" lon="7.34038">
        <ele>265.5</ele>
      </trkpt>
      <trkpt lat="48.73554" lon="7.33977">
        <ele>279.1</ele>
      </trkpt>
      <trkpt lat="48.73523" lon="7.33926">
        <ele>282.2</ele>
      </trkpt>
      <trkpt lat="48.73518" lon="7.33915">
        <ele>292.2</ele>
      </trkpt>
      <trkpt lat="48.7351" lon="7.33903">
        <ele>291.8</ele>
      </trkpt>
      <trkpt lat="48.73497" lon="7.33884">
        <ele>279.4</ele>
      </trkpt>
      <trkpt lat="48.73501" lon="7.33876">
        <ele>296.7</ele>
      </trkpt>
      <trkpt lat="48.73505" lon="7.3388">
        <ele>296.4</ele>
      </trkpt>
      <trkpt lat="48.73511" lon="7.33892">
        <ele>294.7</ele>
      </trkpt>
      <trkpt lat="48.7352" lon="7.33899">
        <ele>294.9</ele>
      </trkpt>
      <trkpt lat="48.73539" lon="7.33905">
        <ele>298.2</ele>
      </trkpt>
      <trkpt lat="48.73551" lon="7.33916">
        <ele>299.7</ele>
      </trkpt>
      <trkpt lat="48.73562" lon="7.33932">
        <ele>288.2</ele>
      </trkpt>
      <trkpt lat="48.7357" lon="7.33935">
        <ele>289.4</ele>
      </trkpt>
      <trkpt lat="48.73568" lon="7.33921">
        <ele>292.5</ele>
      </trkpt>
      <trkpt lat="48.73562" lon="7.33885">
        <ele>302.8</ele>
      </trkpt>
      <trkpt lat="48.73554" lon="7.33863">
        <ele>304.5</ele>
      </trkpt>
      <trkpt lat="48.73551" lon="7.33847">
        <ele>305.9</ele>
      </trkpt>
      <trkpt lat="48.73551" lon="7.33838">
        <ele>306.6</ele>
      </trkpt>
      <trkpt lat="48.73554" lon="7.33833">
        <ele>316.3</ele>
      </trkpt>
      <trkpt lat="48.73558" lon="7.33815">
        <ele>317.3</ele>
      </trkpt>
      <trkpt lat="48.73558" lon="7.3378">
        <ele>319.6</ele>
      </trkpt>
      <trkpt lat="48.73554" lon="7.3376">
        <ele>321</ele>
      </trkpt>
      <trkpt lat="48.73553" lon="7.33714">
        <ele>329</ele>
        <extensions>
          <visugpx:TrkExtension xmlns:visugpx="https://www.visugpx.com/editgpx/">
            <visugpx:node>99</visugpx:node>
            </visugpx:TrkExtension>
        </extensions>
      </trkpt>
      <trkpt lat="48.73553" lon="7.33682">
        <ele>331.6</ele>
      </trkpt>
      <trkpt lat="48.7355" lon="7.3367">
        <ele>331.6</ele>
      </trkpt>
      <trkpt lat="48.73552" lon="7.3365">
        <ele>338.7</ele>
      </trkpt>
      <trkpt lat="48.73556" lon="7.33625">
        <ele>340.4</ele>
      </trkpt>
      <trkpt lat="48.73562" lon="7.33608">
        <ele>343.1</ele>
      </trkpt>
      <trkpt lat="48.73555" lon="7.33534">
        <ele>349.5</ele>
      </trkpt>
      <trkpt lat="48.73556" lon="7.33511">
        <ele>351.6</ele>
      </trkpt>
      <trkpt lat="48.7356" lon="7.3349">
        <ele>355</ele>
      </trkpt>
      <trkpt lat="48.73562" lon="7.33474">
        <ele>354.4</ele>
      </trkpt>
      <trkpt lat="48.73562" lon="7.33449">
        <ele>354.5</ele>
      </trkpt>
      <trkpt lat="48.73563" lon="7.33408">
        <ele>357.6</ele>
      </trkpt>
      <trkpt lat="48.73564" lon="7.33397">
        <ele>356.8</ele>
      </trkpt>
      <trkpt lat="48.73562" lon="7.33376">
        <ele>355.5</ele>
      </trkpt>
      <trkpt lat="48.73553" lon="7.33324">
        <ele>356.7</ele>
      </trkpt>
      <trkpt lat="48.73552" lon="7.33313">
        <ele>356.1</ele>
      </trkpt>
      <trkpt lat="48.73552" lon="7.33301">
        <ele>355.9</ele>
      </trkpt>
      <trkpt lat="48.73555" lon="7.33288">
        <ele>356.7</ele>
      </trkpt>
      <trkpt lat="48.73563" lon="7.33276">
        <ele>358.9</ele>
      </trkpt>
      <trkpt lat="48.73571" lon="7.33264">
        <ele>362.6</ele>
      </trkpt>
      <trkpt lat="48.73579" lon="7.33241">
        <ele>368.3</ele>
      </trkpt>
      <trkpt lat="48.73578" lon="7.33173">
        <ele>375.2</ele>
      </trkpt>
      <trkpt lat="48.73575" lon="7.3315">
        <ele>374.9</ele>
      </trkpt>
      <trkpt lat="48.73562" lon="7.33113">
        <ele>373.2</ele>
      </trkpt>
      <trkpt lat="48.73549" lon="7.33071">
        <ele>377.8</ele>
      </trkpt>
      <trkpt lat="48.73533" lon="7.32988">
        <ele>385</ele>
      </trkpt>
      <trkpt lat="48.73522" lon="7.32949">
        <ele>386.6</ele>
      </trkpt>
      <trkpt lat="48.73511" lon="7.32888">
        <ele>396.2</ele>
        <extensions>
          <visugpx:TrkExtension xmlns:visugpx="https://www.visugpx.com/editgpx/">
            <visugpx:node>100</visugpx:node>
            </visugpx:TrkExtension>
        </extensions>
      </trkpt>
      <trkpt lat="48.73502" lon="7.3284">
        <ele>401.6</ele>
      </trkpt>
      <trkpt lat="48.73484" lon="7.32804">
        <ele>393.9</ele>
      </trkpt>
      <trkpt lat="48.73448" lon="7.32735">
        <ele>402</ele>
      </trkpt>
      <trkpt lat="48.73433" lon="7.327">
        <ele>404.7</ele>
      </trkpt>
      <trkpt lat="48.73428" lon="7.32679">
        <ele>405.6</ele>
      </trkpt>
      <trkpt lat="48.73424" lon="7.32665">
        <ele>410</ele>
      </trkpt>
      <trkpt lat="48.73394" lon="7.32613">
        <ele>407.2</ele>
      </trkpt>
      <trkpt lat="48.73378" lon="7.32591">
        <ele>406.7</ele>
      </trkpt>
      <trkpt lat="48.73367" lon="7.32582">
        <ele>417.3</ele>
      </trkpt>
      <trkpt lat="48.73345" lon="7.32566">
        <ele>412.8</ele>
      </trkpt>
      <trkpt lat="48.73341" lon="7.3256">
        <ele>413.9</ele>
      </trkpt>
      <trkpt lat="48.73338" lon="7.32555">
        <ele>415</ele>
      </trkpt>
      <trkpt lat="48.73289" lon="7.32462">
        <ele>404.2</ele>
      </trkpt>
      <trkpt lat="48.73241" lon="7.32368">
        <ele>396.1</ele>
      </trkpt>
      <trkpt lat="48.7321" lon="7.32315">
        <ele>412.1</ele>
      </trkpt>
      <trkpt lat="48.73191" lon="7.3229">
        <ele>412.2</ele>
      </trkpt>
      <trkpt lat="48.73179" lon="7.32269">
        <ele>414.4</ele>
      </trkpt>
      <trkpt lat="48.73145" lon="7.32234">
        <ele>414.3</ele>
      </trkpt>
      <trkpt lat="48.73116" lon="7.32216">
        <ele>412.4</ele>
        <extensions>
          <visugpx:TrkExtension xmlns:visugpx="https://www.visugpx.com/editgpx/">
            <visugpx:node>101</visugpx:node>
            </visugpx:TrkExtension>
        </extensions>
      </trkpt>
      <trkpt lat="48.73081" lon="7.32207">
        <ele>403.9</ele>
      </trkpt>
      <trkpt lat="48.73074" lon="7.32207">
        <ele>403.7</ele>
      </trkpt>
      <trkpt lat="48.73053" lon="7.32216">
        <ele>402</ele>
      </trkpt>
      <trkpt lat="48.72995" lon="7.32257">
        <ele>390</ele>
      </trkpt>
      <trkpt lat="48.72961" lon="7.32273">
        <ele>382.3</ele>
      </trkpt>
      <trkpt lat="48.72958" lon="7.3227">
        <ele>382.2</ele>
      </trkpt>
      <trkpt lat="48.72951" lon="7.32251">
        <ele>382.3</ele>
      </trkpt>
      <trkpt lat="48.72911" lon="7.32103">
        <ele>389.2</ele>
      </trkpt>
      <trkpt lat="48.72908" lon="7.3209">
        <ele>392.8</ele>
      </trkpt>
      <trkpt lat="48.72898" lon="7.32054">
        <ele>394.2</ele>
      </trkpt>
      <trkpt lat="48.7289" lon="7.32022">
        <ele>395.7</ele>
      </trkpt>
      <trkpt lat="48.72889" lon="7.32006">
        <ele>397.1</ele>
      </trkpt>
      <trkpt lat="48.72892" lon="7.31993">
        <ele>401.8</ele>
      </trkpt>
      <trkpt lat="48.7289" lon="7.31986">
        <ele>401</ele>
      </trkpt>
      <trkpt lat="48.72881" lon="7.31946">
        <ele>399.1</ele>
      </trkpt>
      <trkpt lat="48.72878" lon="7.31906">
        <ele>400.2</ele>
      </trkpt>
      <trkpt lat="48.72876" lon="7.31883">
        <ele>400</ele>
      </trkpt>
      <trkpt lat="48.72873" lon="7.31864">
        <ele>399.9</ele>
      </trkpt>
      <trkpt lat="48.72868" lon="7.31838">
        <ele>399.3</ele>
      </trkpt>
      <trkpt lat="48.72858" lon="7.31814">
        <ele>398.6</ele>
      </trkpt>
      <trkpt lat="48.72843" lon="7.31783">
        <ele>397.9</ele>
      </trkpt>
      <trkpt lat="48.72819" lon="7.31738">
        <ele>389.8</ele>
      </trkpt>
      <trkpt lat="48.72805" lon="7.31721">
        <ele>387.5</ele>
      </trkpt>
      <trkpt lat="48.72801" lon="7.3171">
        <ele>387.1</ele>
        <extensions>
          <visugpx:TrkExtension xmlns:visugpx="https://www.visugpx.com/editgpx/">
            <visugpx:node>102</visugpx:node>
            </visugpx:TrkExtension>
        </extensions>
      </trkpt>
      <trkpt lat="48.72792" lon="7.31686">
        <ele>386.5</ele>
      </trkpt>
      <trkpt lat="48.72785" lon="7.31675">
        <ele>386.1</ele>
      </trkpt>
      <trkpt lat="48.72751" lon="7.31624">
        <ele>381.8</ele>
      </trkpt>
      <trkpt lat="48.72739" lon="7.31612">
        <ele>379.5</ele>
      </trkpt>
      <trkpt lat="48.72728" lon="7.316">
        <ele>379.3</ele>
      </trkpt>
      <trkpt lat="48.72711" lon="7.31588">
        <ele>379.2</ele>
      </trkpt>
      <trkpt lat="48.72692" lon="7.31565">
        <ele>375.1</ele>
      </trkpt>
      <trkpt lat="48.72629" lon="7.31543">
        <ele>377.5</ele>
      </trkpt>
      <trkpt lat="48.726" lon="7.31529">
        <ele>378.2</ele>
      </trkpt>
      <trkpt lat="48.72566" lon="7.31508">
        <ele>378.6</ele>
      </trkpt>
      <trkpt lat="48.72549" lon="7.3149">
        <ele>377.5</ele>
      </trkpt>
      <trkpt lat="48.72523" lon="7.31466">
        <ele>377</ele>
      </trkpt>
      <trkpt lat="48.72483" lon="7.31426">
        <ele>374.4</ele>
      </trkpt>
      <trkpt lat="48.72462" lon="7.3141">
        <ele>368.6</ele>
      </trkpt>
      <trkpt lat="48.72461" lon="7.31412">
        <ele>368.6</ele>
      </trkpt>
      <trkpt lat="48.72464" lon="7.31449">
        <ele>371.1</ele>
      </trkpt>
      <trkpt lat="48.7247" lon="7.31482">
        <ele>371.6</ele>
      </trkpt>
      <trkpt lat="48.72483" lon="7.31509">
        <ele>369.2</ele>
      </trkpt>
      <trkpt lat="48.7249" lon="7.31529">
        <ele>366.2</ele>
      </trkpt>
      <trkpt lat="48.72491" lon="7.31536">
        <ele>365</ele>
      </trkpt>
      <trkpt lat="48.7249" lon="7.3154">
        <ele>364.3</ele>
      </trkpt>
      <trkpt lat="48.7248" lon="7.31541">
        <ele>363</ele>
      </trkpt>
      <trkpt lat="48.7249" lon="7.31559">
        <ele>362.8</ele>
      </trkpt>
      <trkpt lat="48.72489" lon="7.31561">
        <ele>362.7</ele>
      </trkpt>
      <trkpt lat="48.72479" lon="7.31563">
        <ele>361.5</ele>
      </trkpt>
      <trkpt lat="48.72477" lon="7.31563">
        <ele>361.2</ele>
      </trkpt>
      <trkpt lat="48.72476" lon="7.31564">
        <ele>361</ele>
      </trkpt>
      <trkpt lat="48.72479" lon="7.31585">
        <ele>352.9</ele>
      </trkpt>
      <trkpt lat="48.72474" lon="7.31582">
        <ele>360.3</ele>
      </trkpt>
      <trkpt lat="48.72476" lon="7.31598">
        <ele>350.2</ele>
      </trkpt>
      <trkpt lat="48.7247" lon="7.31595">
        <ele>348.8</ele>
      </trkpt>
      <trkpt lat="48.72472" lon="7.31607">
        <ele>347.7</ele>
      </trkpt>
      <trkpt lat="48.7247" lon="7.31609">
        <ele>347</ele>
      </trkpt>
      <trkpt lat="48.72471" lon="7.31616">
        <ele>346.2</ele>
      </trkpt>
      <trkpt lat="48.72462" lon="7.31619">
        <ele>344.3</ele>
        <extensions>
          <visugpx:TrkExtension xmlns:visugpx="https://www.visugpx.com/editgpx/">
            <visugpx:node>103</visugpx:node>
            </visugpx:TrkExtension>
        </extensions>
      </trkpt>
      <trkpt lat="48.72464" lon="7.31632">
        <ele>343.3</ele>
      </trkpt>
      <trkpt lat="48.72441" lon="7.31633">
        <ele>339.1</ele>
      </trkpt>
      <trkpt lat="48.72441" lon="7.31635">
        <ele>338.8</ele>
      </trkpt>
      <trkpt lat="48.72441" lon="7.31637">
        <ele>338.4</ele>
      </trkpt>
      <trkpt lat="48.72453" lon="7.31669">
        <ele>327.7</ele>
      </trkpt>
      <trkpt lat="48.72463" lon="7.31696">
        <ele>327.9</ele>
      </trkpt>
      <trkpt lat="48.72464" lon="7.31699">
        <ele>327.7</ele>
      </trkpt>
      <trkpt lat="48.72463" lon="7.317">
        <ele>327.4</ele>
      </trkpt>
      <trkpt lat="48.72454" lon="7.31701">
        <ele>325.8</ele>
      </trkpt>
      <trkpt lat="48.72444" lon="7.31696">
        <ele>324.7</ele>
      </trkpt>
      <trkpt lat="48.72436" lon="7.31692">
        <ele>323.8</ele>
      </trkpt>
      <trkpt lat="48.72423" lon="7.31686">
        <ele>322.5</ele>
      </trkpt>
      <trkpt lat="48.72429" lon="7.31724">
        <ele>318.9</ele>
      </trkpt>
      <trkpt lat="48.72411" lon="7.31705">
        <ele>299.9</ele>
      </trkpt>
      <trkpt lat="48.7241" lon="7.31707">
        <ele>299.5</ele>
      </trkpt>
      <trkpt lat="48.72415" lon="7.31744">
        <ele>302.3</ele>
      </trkpt>
      <trkpt lat="48.72415" lon="7.31764">
        <ele>293</ele>
      </trkpt>
      <trkpt lat="48.72414" lon="7.31772">
        <ele>288.9</ele>
      </trkpt>
      <trkpt lat="48.72374" lon="7.31747">
        <ele>288.8</ele>
      </trkpt>
      <trkpt lat="48.72367" lon="7.31741">
        <ele>286.5</ele>
      </trkpt>
      <trkpt lat="48.72364" lon="7.31736">
        <ele>285.9</ele>
      </trkpt>
      <trkpt lat="48.7236" lon="7.31737">
        <ele>284.2</ele>
      </trkpt>
      <trkpt lat="48.72361" lon="7.31742">
        <ele>283.9</ele>
      </trkpt>
      <trkpt lat="48.72357" lon="7.3174">
        <ele>282.4</ele>
      </trkpt>
      <trkpt lat="48.72352" lon="7.31742">
        <ele>279.6</ele>
      </trkpt>
      <trkpt lat="48.72348" lon="7.3174">
        <ele>278</ele>
      </trkpt>
      <trkpt lat="48.72327" lon="7.31705">
        <ele>257.6</ele>
      </trkpt>
      <trkpt lat="48.72311" lon="7.31668">
        <ele>261.6</ele>
      </trkpt>
      <trkpt lat="48.72286" lon="7.31604">
        <ele>263.4</ele>
      </trkpt>
      <trkpt lat="48.72284" lon="7.3159">
        <ele>263</ele>
        <extensions>
          <visugpx:TrkExtension xmlns:visugpx="https://www.visugpx.com/editgpx/">
            <visugpx:node>104</visugpx:node>
            </visugpx:TrkExtension>
        </extensions>
      </trkpt>
      <trkpt lat="48.72283" lon="7.31581">
        <ele>270</ele>
      </trkpt>
      <trkpt lat="48.72281" lon="7.31573">
        <ele>269.6</ele>
      </trkpt>
      <trkpt lat="48.7228" lon="7.31571">
        <ele>269.4</ele>
      </trkpt>
      <trkpt lat="48.72278" lon="7.31565">
        <ele>269.3</ele>
      </trkpt>
      <trkpt lat="48.72277" lon="7.31561">
        <ele>269.5</ele>
      </trkpt>
      <trkpt lat="48.72275" lon="7.31557">
        <ele>269.4</ele>
      </trkpt>
      <trkpt lat="48.72273" lon="7.31556">
        <ele>268.9</ele>
      </trkpt>
      <trkpt lat="48.7227" lon="7.31554">
        <ele>268.4</ele>
      </trkpt>
      <trkpt lat="48.72266" lon="7.31555">
        <ele>267.2</ele>
      </trkpt>
      <trkpt lat="48.72261" lon="7.31574">
        <ele>259.6</ele>
      </trkpt>
      <trkpt lat="48.72259" lon="7.31574">
        <ele>258.6</ele>
      </trkpt>
      <trkpt lat="48.72247" lon="7.31539">
        <ele>237.7</ele>
      </trkpt>
      <trkpt lat="48.7224" lon="7.31504">
        <ele>246.5</ele>
      </trkpt>
      <trkpt lat="48.72238" lon="7.31505">
        <ele>245</ele>
      </trkpt>
      <trkpt lat="48.72233" lon="7.31524">
        <ele>237.8</ele>
      </trkpt>
      <trkpt lat="48.72232" lon="7.31524">
        <ele>237.5</ele>
      </trkpt>
      <trkpt lat="48.72205" lon="7.31463">
        <ele>239.2</ele>
      </trkpt>
      <trkpt lat="48.72204" lon="7.31465">
        <ele>238.7</ele>
      </trkpt>
      <trkpt lat="48.72203" lon="7.31488">
        <ele>236.3</ele>
      </trkpt>
      <trkpt lat="48.72204" lon="7.31535">
        <ele>228.4</ele>
      </trkpt>
      <trkpt lat="48.72201" lon="7.31531">
        <ele>227.7</ele>
      </trkpt>
      <trkpt lat="48.72187" lon="7.31497">
        <ele>227.9</ele>
      </trkpt>
      <trkpt lat="48.72185" lon="7.31498">
        <ele>226.6</ele>
      </trkpt>
      <trkpt lat="48.72184" lon="7.3151">
        <ele>221.6</ele>
      </trkpt>
      <trkpt lat="48.72182" lon="7.3152">
        <ele>222.3</ele>
      </trkpt>
      <trkpt lat="48.72185" lon="7.31546">
        <ele>223.2</ele>
      </trkpt>
      <trkpt lat="48.72181" lon="7.31543">
        <ele>222.6</ele>
      </trkpt>
      <trkpt lat="48.72174" lon="7.3154">
        <ele>221.7</ele>
      </trkpt>
      <trkpt lat="48.72169" lon="7.31532">
        <ele>221.2</ele>
      </trkpt>
      <trkpt lat="48.72166" lon="7.31529">
        <ele>205.1</ele>
      </trkpt>
      <trkpt lat="48.72162" lon="7.3153">
        <ele>204.9</ele>
      </trkpt>
      <trkpt lat="48.72162" lon="7.31554">
        <ele>203.4</ele>
      </trkpt>
      <trkpt lat="48.72167" lon="7.31588">
        <ele>206</ele>
      </trkpt>
      <trkpt lat="48.72173" lon="7.316">
        <ele>211.6</ele>
      </trkpt>
      <trkpt lat="48.72178" lon="7.31606">
        <ele>213.7</ele>
      </trkpt>
      <trkpt lat="48.72173" lon="7.31608">
        <ele>213.2</ele>
      </trkpt>
      <trkpt lat="48.7217" lon="7.3161">
        <ele>213.1</ele>
      </trkpt>
      <trkpt lat="48.72164" lon="7.31613">
        <ele>201.2</ele>
      </trkpt>
      <trkpt lat="48.72162" lon="7.31614">
        <ele>201.2</ele>
      </trkpt>
      <trkpt lat="48.72157" lon="7.31617">
        <ele>201</ele>
      </trkpt>
      <trkpt lat="48.72155" lon="7.31602">
        <ele>201.5</ele>
      </trkpt>
      <trkpt lat="48.72144" lon="7.31551">
        <ele>203</ele>
      </trkpt>
      <trkpt lat="48.72139" lon="7.3155">
        <ele>202.8</ele>
      </trkpt>
      <trkpt lat="48.72134" lon="7.31543">
        <ele>202.7</ele>
      </trkpt>
      <trkpt lat="48.72126" lon="7.31526">
        <ele>202.6</ele>
      </trkpt>
      <trkpt lat="48.7212" lon="7.31504">
        <ele>202.1</ele>
      </trkpt>
      <trkpt lat="48.72117" lon="7.31499">
        <ele>204.6</ele>
      </trkpt>
      <trkpt lat="48.72109" lon="7.31491">
        <ele>203.5</ele>
      </trkpt>
      <trkpt lat="48.72099" lon="7.31483">
        <ele>202.6</ele>
      </trkpt>
      <trkpt lat="48.72091" lon="7.31483">
        <ele>201.5</ele>
      </trkpt>
      <trkpt lat="48.72077" lon="7.3149">
        <ele>198.6</ele>
      </trkpt>
      <trkpt lat="48.7206" lon="7.31501">
        <ele>202.9</ele>
      </trkpt>
      <trkpt lat="48.72059" lon="7.31495">
        <ele>200.8</ele>
      </trkpt>
      <trkpt lat="48.72058" lon="7.31482">
        <ele>201.3</ele>
      </trkpt>
      <trkpt lat="48.72048" lon="7.31468">
        <ele>202.4</ele>
      </trkpt>
      <trkpt lat="48.72033" lon="7.31452">
        <ele>203.2</ele>
      </trkpt>
      <trkpt lat="48.7203" lon="7.31453">
        <ele>203.4</ele>
      </trkpt>
      <trkpt lat="48.72027" lon="7.31447">
        <ele>203.4</ele>
      </trkpt>
      <trkpt lat="48.72005" lon="7.31427">
        <ele>204.4</ele>
      </trkpt>
      <trkpt lat="48.71999" lon="7.31422">
        <ele>206.5</ele>
      </trkpt>
      <trkpt lat="48.71998" lon="7.31433">
        <ele>208.7</ele>
      </trkpt>
      <trkpt lat="48.71995" lon="7.31434">
        <ele>209</ele>
      </trkpt>
      <trkpt lat="48.71988" lon="7.31436">
        <ele>209.7</ele>
      </trkpt>
      <trkpt lat="48.7198" lon="7.31429">
        <ele>209.9</ele>
      </trkpt>
      <trkpt lat="48.7197" lon="7.31421">
        <ele>210.6</ele>
      </trkpt>
      <trkpt lat="48.71962" lon="7.31422">
        <ele>211.4</ele>
      </trkpt>
      <trkpt lat="48.71957" lon="7.31415">
        <ele>209.3</ele>
      </trkpt>
      <trkpt lat="48.71949" lon="7.3141">
        <ele>209.9</ele>
      </trkpt>
      <trkpt lat="48.71937" lon="7.31412">
        <ele>211.1</ele>
      </trkpt>
      <trkpt lat="48.71929" lon="7.31416">
        <ele>212</ele>
      </trkpt>
      <trkpt lat="48.71882" lon="7.31494">
        <ele>222.4</ele>
      </trkpt>
      <trkpt lat="48.71868" lon="7.31501">
        <ele>230.9</ele>
      </trkpt>
      <trkpt lat="48.71859" lon="7.31496">
        <ele>223.7</ele>
      </trkpt>
      <trkpt lat="48.71853" lon="7.31484">
        <ele>223.7</ele>
      </trkpt>
      <trkpt lat="48.71844" lon="7.31495">
        <ele>225.1</ele>
      </trkpt>
      <trkpt lat="48.71838" lon="7.31498">
        <ele>226.1</ele>
      </trkpt>
      <trkpt lat="48.71831" lon="7.31501">
        <ele>228.3</ele>
      </trkpt>
      <trkpt lat="48.71798" lon="7.31522">
        <ele>238</ele>
      </trkpt>
      <trkpt lat="48.71786" lon="7.31527">
        <ele>239.1</ele>
      </trkpt>
      <trkpt lat="48.71762" lon="7.31524">
        <ele>238.3</ele>
      </trkpt>
      <trkpt lat="48.71733" lon="7.31514">
        <ele>241.4</ele>
        <extensions>
          <visugpx:TrkExtension xmlns:visugpx="https://www.visugpx.com/editgpx/">
            <visugpx:node>105</visugpx:node>
            </visugpx:TrkExtension>
        </extensions>
      </trkpt>
      <trkpt lat="48.7172" lon="7.3151">
        <ele>243.2</ele>
      </trkpt>
      <trkpt lat="48.71706" lon="7.31487">
        <ele>235.1</ele>
      </trkpt>
      <trkpt lat="48.71678" lon="7.31457">
        <ele>235.1</ele>
      </trkpt>
      <trkpt lat="48.7163" lon="7.31378">
        <ele>238.6</ele>
      </trkpt>
      <trkpt lat="48.71533" lon="7.3126">
        <ele>236.2</ele>
      </trkpt>
      <trkpt lat="48.71483" lon="7.31216">
        <ele>233.1</ele>
      </trkpt>
      <trkpt lat="48.71445" lon="7.31204">
        <ele>233.6</ele>
      </trkpt>
      <trkpt lat="48.71415" lon="7.312">
        <ele>242.5</ele>
      </trkpt>
      <trkpt lat="48.71352" lon="7.31112">
        <ele>239.6</ele>
      </trkpt>
      <trkpt lat="48.71299" lon="7.31033">
        <ele>242.6</ele>
      </trkpt>
      <trkpt lat="48.71247" lon="7.30974">
        <ele>243.3</ele>
      </trkpt>
      <trkpt lat="48.71186" lon="7.30943">
        <ele>242.5</ele>
      </trkpt>
      <trkpt lat="48.71093" lon="7.3092">
        <ele>246.3</ele>
      </trkpt>
      <trkpt lat="48.70992" lon="7.30898">
        <ele>238</ele>
      </trkpt>
      <trkpt lat="48.70976" lon="7.30899">
        <ele>238</ele>
      </trkpt>
      <trkpt lat="48.70938" lon="7.30908">
        <ele>238.7</ele>
      </trkpt>
      <trkpt lat="48.70864" lon="7.30927">
        <ele>249.2</ele>
      </trkpt>
      <trkpt lat="48.70801" lon="7.3095">
        <ele>253.3</ele>
      </trkpt>
      <trkpt lat="48.70741" lon="7.30985">
        <ele>255.7</ele>
      </trkpt>
      <trkpt lat="48.70703" lon="7.31021">
        <ele>258.2</ele>
      </trkpt>
      <trkpt lat="48.70679" lon="7.31057">
        <ele>258.7</ele>
      </trkpt>
      <trkpt lat="48.70669" lon="7.31066">
        <ele>258.3</ele>
      </trkpt>
      <trkpt lat="48.70656" lon="7.31073">
        <ele>261.2</ele>
      </trkpt>
      <trkpt lat="48.70643" lon="7.31078">
        <ele>262.8</ele>
      </trkpt>
      <trkpt lat="48.70634" lon="7.31083">
        <ele>263.7</ele>
      </trkpt>
      <trkpt lat="48.70622" lon="7.31094">
        <ele>265.5</ele>
      </trkpt>
      <trkpt lat="48.70601" lon="7.31105">
        <ele>266.4</ele>
      </trkpt>
      <trkpt lat="48.70555" lon="7.31113">
        <ele>269.8</ele>
      </trkpt>
      <trkpt lat="48.70532" lon="7.31134">
        <ele>270.7</ele>
      </trkpt>
      <trkpt lat="48.70552" lon="7.31112">
        <ele>269.9</ele>
      </trkpt>
      <trkpt lat="48.70551" lon="7.31103">
        <ele>269.6</ele>
      </trkpt>
      <trkpt lat="48.70462" lon="7.31124">
        <ele>278</ele>
      </trkpt>
      <trkpt lat="48.70401" lon="7.31057">
        <ele>290.1</ele>
        <extensions>
          <visugpx:TrkExtension xmlns:visugpx="https://www.visugpx.com/editgpx/">
            <visugpx:node>106</visugpx:node>
            </visugpx:TrkExtension>
        </extensions>
      </trkpt>
      <trkpt lat="48.70353" lon="7.31003">
        <ele>295.6</ele>
      </trkpt>
      <trkpt lat="48.70322" lon="7.30993">
        <ele>305.3</ele>
      </trkpt>
      <trkpt lat="48.70281" lon="7.30999">
        <ele>309.3</ele>
      </trkpt>
      <trkpt lat="48.70258" lon="7.30993">
        <ele>305.5</ele>
      </trkpt>
      <trkpt lat="48.70204" lon="7.30973">
        <ele>306.9</ele>
      </trkpt>
      <trkpt lat="48.70185" lon="7.30956">
        <ele>308.3</ele>
      </trkpt>
      <trkpt lat="48.70136" lon="7.30871">
        <ele>330</ele>
      </trkpt>
      <trkpt lat="48.70097" lon="7.30905">
        <ele>323.3</ele>
      </trkpt>
      <trkpt lat="48.70073" lon="7.30913">
        <ele>321.9</ele>
      </trkpt>
      <trkpt lat="48.70013" lon="7.30889">
        <ele>327.8</ele>
      </trkpt>
      <trkpt lat="48.69972" lon="7.30873">
        <ele>332.9</ele>
      </trkpt>
      <trkpt lat="48.69945" lon="7.30873">
        <ele>333</ele>
      </trkpt>
      <trkpt lat="48.70053" lon="7.30829">
        <ele>354.8</ele>
      </trkpt>
      <trkpt lat="48.70079" lon="7.30781">
        <ele>361.4</ele>
      </trkpt>
      <trkpt lat="48.70096" lon="7.30701">
        <ele>380.6</ele>
      </trkpt>
      <trkpt lat="48.7011" lon="7.30689">
        <ele>382.1</ele>
      </trkpt>
      <trkpt lat="48.7013" lon="7.30685">
        <ele>382</ele>
      </trkpt>
      <trkpt lat="48.70121" lon="7.30667">
        <ele>383.7</ele>
      </trkpt>
      <trkpt lat="48.70105" lon="7.30657">
        <ele>398.3</ele>
      </trkpt>
      <trkpt lat="48.70088" lon="7.30656">
        <ele>396.2</ele>
      </trkpt>
      <trkpt lat="48.70067" lon="7.3068">
        <ele>389.7</ele>
      </trkpt>
      <trkpt lat="48.70061" lon="7.307">
        <ele>387.3</ele>
      </trkpt>
      <trkpt lat="48.70034" lon="7.30721">
        <ele>386.2</ele>
      </trkpt>
      <trkpt lat="48.70019" lon="7.30723">
        <ele>386.7</ele>
      </trkpt>
      <trkpt lat="48.69854" lon="7.30721">
        <ele>397.6</ele>
      </trkpt>
      <trkpt lat="48.69783" lon="7.30687">
        <ele>400.3</ele>
      </trkpt>
      <trkpt lat="48.69764" lon="7.30672">
        <ele>403.4</ele>
        <extensions>
          <visugpx:TrkExtension xmlns:visugpx="https://www.visugpx.com/editgpx/">
            <visugpx:node>107</visugpx:node>
            </visugpx:TrkExtension>
        </extensions>
      </trkpt>
      <trkpt lat="48.69719" lon="7.30636">
        <ele>418</ele>
      </trkpt>
      <trkpt lat="48.69671" lon="7.30618">
        <ele>420.3</ele>
      </trkpt>
      <trkpt lat="48.69541" lon="7.30531">
        <ele>437.2</ele>
      </trkpt>
      <trkpt lat="48.69523" lon="7.30515">
        <ele>439.1</ele>
        <extensions>
          <visugpx:TrkExtension xmlns:visugpx="https://www.visugpx.com/editgpx/">
            <visugpx:node>109</visugpx:node>
            </visugpx:TrkExtension>
        </extensions>
      </trkpt>
      <trkpt lat="48.69435" lon="7.30437">
        <ele>454.1</ele>
      </trkpt>
      <trkpt lat="48.69395" lon="7.30386">
        <ele>462.6</ele>
      </trkpt>
      <trkpt lat="48.69436" lon="7.30398">
        <ele>474.2</ele>
      </trkpt>
      <trkpt lat="48.69465" lon="7.30397">
        <ele>479.5</ele>
      </trkpt>
      <trkpt lat="48.69548" lon="7.30416">
        <ele>492.3</ele>
      </trkpt>
      <trkpt lat="48.6956" lon="7.3041">
        <ele>492.9</ele>
      </trkpt>
      <trkpt lat="48.69581" lon="7.30416">
        <ele>488.9</ele>
      </trkpt>
      <trkpt lat="48.69598" lon="7.30426">
        <ele>482.1</ele>
      </trkpt>
      <trkpt lat="48.69629" lon="7.30427">
        <ele>481.7</ele>
      </trkpt>
      <trkpt lat="48.69648" lon="7.30423">
        <ele>486.4</ele>
      </trkpt>
      <trkpt lat="48.69651" lon="7.30422">
        <ele>487.6</ele>
        <extensions>
          <visugpx:TrkExtension xmlns:visugpx="https://www.visugpx.com/editgpx/">
            <visugpx:node>110</visugpx:node>
            </visugpx:TrkExtension>
        </extensions>
      </trkpt>
      <trkpt lat="48.69759" lon="7.30419">
        <ele>503.4</ele>
      </trkpt>
      <trkpt lat="48.69781" lon="7.30436">
        <ele>498.5</ele>
      </trkpt>
      <trkpt lat="48.69811" lon="7.30431">
        <ele>501.5</ele>
      </trkpt>
      <trkpt lat="48.69796" lon="7.30398">
        <ele>512</ele>
      </trkpt>
      <trkpt lat="48.69784" lon="7.30404">
        <ele>511.4</ele>
      </trkpt>
      <trkpt lat="48.69775" lon="7.30371">
        <ele>512.6</ele>
      </trkpt>
      <trkpt lat="48.69709" lon="7.3034">
        <ele>512.9</ele>
      </trkpt>
      <trkpt lat="48.69657" lon="7.30308">
        <ele>519.9</ele>
        <extensions>
          <visugpx:TrkExtension xmlns:visugpx="https://www.visugpx.com/editgpx/">
            <visugpx:node>111</visugpx:node>
            </visugpx:TrkExtension>
        </extensions>
      </trkpt>
      <trkpt lat="48.69635" lon="7.30294">
        <ele>520.6</ele>
      </trkpt>
      <trkpt lat="48.69589" lon="7.30297">
        <ele>521.6</ele>
      </trkpt>
      <trkpt lat="48.69473" lon="7.30229">
        <ele>532.3</ele>
      </trkpt>
      <trkpt lat="48.69453" lon="7.3021">
        <ele>531.8</ele>
      </trkpt>
      <trkpt lat="48.69428" lon="7.30205">
        <ele>531</ele>
      </trkpt>
      <trkpt lat="48.69417" lon="7.30186">
        <ele>532.8</ele>
      </trkpt>
      <trkpt lat="48.69361" lon="7.30161">
        <ele>522.9</ele>
      </trkpt>
      <trkpt lat="48.6933" lon="7.30153">
        <ele>513.4</ele>
      </trkpt>
      <trkpt lat="48.69329" lon="7.30143">
        <ele>511.6</ele>
      </trkpt>
      <trkpt lat="48.69344" lon="7.30107">
        <ele>520.2</ele>
      </trkpt>
      <trkpt lat="48.6935" lon="7.30099">
        <ele>520</ele>
      </trkpt>
      <trkpt lat="48.69349" lon="7.30095">
        <ele>519.4</ele>
      </trkpt>
      <trkpt lat="48.69331" lon="7.30095">
        <ele>511.6</ele>
      </trkpt>
      <trkpt lat="48.69291" lon="7.30105">
        <ele>506.7</ele>
      </trkpt>
      <trkpt lat="48.69277" lon="7.30114">
        <ele>505.3</ele>
      </trkpt>
      <trkpt lat="48.69267" lon="7.30125">
        <ele>504.6</ele>
      </trkpt>
      <trkpt lat="48.6921" lon="7.30119">
        <ele>492.7</ele>
      </trkpt>
      <trkpt lat="48.69175" lon="7.30108">
        <ele>490.8</ele>
      </trkpt>
      <trkpt lat="48.69138" lon="7.30102">
        <ele>488.4</ele>
      </trkpt>
      <trkpt lat="48.69082" lon="7.30086">
        <ele>494.4</ele>
      </trkpt>
      <trkpt lat="48.69032" lon="7.30073">
        <ele>504</ele>
      </trkpt>
      <trkpt lat="48.69023" lon="7.30043">
        <ele>504</ele>
      </trkpt>
      <trkpt lat="48.68996" lon="7.30019">
        <ele>514.4</ele>
      </trkpt>
      <trkpt lat="48.68977" lon="7.3001">
        <ele>516</ele>
        <extensions>
          <visugpx:TrkExtension xmlns:visugpx="https://www.visugpx.com/editgpx/">
            <visugpx:node>112</visugpx:node>
            </visugpx:TrkExtension>
        </extensions>
      </trkpt>
      <trkpt lat="48.6894" lon="7.29994">
        <ele>515.1</ele>
      </trkpt>
      <trkpt lat="48.6893" lon="7.3">
        <ele>518.1</ele>
      </trkpt>
      <trkpt lat="48.68938" lon="7.30043">
        <ele>522.3</ele>
      </trkpt>
      <trkpt lat="48.68921" lon="7.30024">
        <ele>522.5</ele>
      </trkpt>
      <trkpt lat="48.68797" lon="7.30147">
        <ele>549.3</ele>
      </trkpt>
      <trkpt lat="48.68775" lon="7.30214">
        <ele>556.9</ele>
      </trkpt>
      <trkpt lat="48.68761" lon="7.30224">
        <ele>558.3</ele>
      </trkpt>
      <trkpt lat="48.68732" lon="7.3022">
        <ele>560</ele>
      </trkpt>
      <trkpt lat="48.68709" lon="7.30233">
        <ele>559.6</ele>
      </trkpt>
      <trkpt lat="48.68682" lon="7.30231">
        <ele>558.7</ele>
      </trkpt>
      <trkpt lat="48.6864" lon="7.30212">
        <ele>555.8</ele>
        <extensions>
          <visugpx:TrkExtension xmlns:visugpx="https://www.visugpx.com/editgpx/">
            <visugpx:node>113</visugpx:node>
            </visugpx:TrkExtension>
        </extensions>
      </trkpt>
      <trkpt lat="48.68563" lon="7.30177">
        <ele>551.5</ele>
      </trkpt>
      <trkpt lat="48.68554" lon="7.30167">
        <ele>550.4</ele>
      </trkpt>
      <trkpt lat="48.6852" lon="7.30129">
        <ele>550.3</ele>
      </trkpt>
      <trkpt lat="48.68475" lon="7.30104">
        <ele>546.9</ele>
      </trkpt>
      <trkpt lat="48.68453" lon="7.30073">
        <ele>551.4</ele>
      </trkpt>
      <trkpt lat="48.68435" lon="7.30078">
        <ele>552.1</ele>
      </trkpt>
      <trkpt lat="48.68427" lon="7.30079">
        <ele>552.5</ele>
      </trkpt>
      <trkpt lat="48.68406" lon="7.3002">
        <ele>556.7</ele>
      </trkpt>
      <trkpt lat="48.68379" lon="7.29993">
        <ele>555.9</ele>
      </trkpt>
      <trkpt lat="48.68361" lon="7.29986">
        <ele>555.9</ele>
      </trkpt>
      <trkpt lat="48.68345" lon="7.29995">
        <ele>557.7</ele>
      </trkpt>
      <trkpt lat="48.68323" lon="7.30002">
        <ele>554.6</ele>
      </trkpt>
      <trkpt lat="48.68322" lon="7.30011">
        <ele>552.5</ele>
      </trkpt>
      <trkpt lat="48.6831" lon="7.3003">
        <ele>547</ele>
      </trkpt>
      <trkpt lat="48.68281" lon="7.30037">
        <ele>543.8</ele>
      </trkpt>
      <trkpt lat="48.68306" lon="7.30061">
        <ele>542.7</ele>
      </trkpt>
      <trkpt lat="48.68343" lon="7.30088">
        <ele>538.1</ele>
      </trkpt>
      <trkpt lat="48.68348" lon="7.30093">
        <ele>537.3</ele>
      </trkpt>
      <trkpt lat="48.68349" lon="7.30102">
        <ele>536.2</ele>
      </trkpt>
      <trkpt lat="48.68327" lon="7.3011">
        <ele>528.3</ele>
      </trkpt>
      <trkpt lat="48.683" lon="7.30112">
        <ele>525.4</ele>
        <extensions>
          <visugpx:TrkExtension xmlns:visugpx="https://www.visugpx.com/editgpx/">
            <visugpx:node>114</visugpx:node>
            </visugpx:TrkExtension>
        </extensions>
      </trkpt>
      <trkpt lat="48.68289" lon="7.30113">
        <ele>524.4</ele>
      </trkpt>
      <trkpt lat="48.68252" lon="7.3011">
        <ele>523.6</ele>
      </trkpt>
      <trkpt lat="48.68182" lon="7.30089">
        <ele>508.9</ele>
      </trkpt>
      <trkpt lat="48.68122" lon="7.30043">
        <ele>506</ele>
      </trkpt>
      <trkpt lat="48.68077" lon="7.30001">
        <ele>500.9</ele>
      </trkpt>
      <trkpt lat="48.68057" lon="7.29944">
        <ele>500.2</ele>
      </trkpt>
      <trkpt lat="48.68052" lon="7.2993">
        <ele>500.2</ele>
      </trkpt>
      <trkpt lat="48.68026" lon="7.29903">
        <ele>495.5</ele>
      </trkpt>
      <trkpt lat="48.68012" lon="7.29883">
        <ele>494.2</ele>
      </trkpt>
      <trkpt lat="48.67989" lon="7.29878">
        <ele>487.1</ele>
      </trkpt>
      <trkpt lat="48.6795" lon="7.2987">
        <ele>485.3</ele>
      </trkpt>
      <trkpt lat="48.67912" lon="7.29828">
        <ele>480.3</ele>
      </trkpt>
      <trkpt lat="48.67909" lon="7.29824">
        <ele>479.5</ele>
        <extensions>
          <visugpx:TrkExtension xmlns:visugpx="https://www.visugpx.com/editgpx/">
            <visugpx:node>115</visugpx:node>
            </visugpx:TrkExtension>
        </extensions>
      </trkpt>
      <trkpt lat="48.67866" lon="7.29773">
        <ele>474.7</ele>
      </trkpt>
      <trkpt lat="48.67851" lon="7.29771">
        <ele>473.9</ele>
      </trkpt>
      <trkpt lat="48.67808" lon="7.29808">
        <ele>473.5</ele>
      </trkpt>
      <trkpt lat="48.67805" lon="7.2981">
        <ele>473.6</ele>
      </trkpt>
      <trkpt lat="48.67797" lon="7.29847">
        <ele>478.4</ele>
      </trkpt>
      <trkpt lat="48.67799" lon="7.29872">
        <ele>479.3</ele>
      </trkpt>
      <trkpt lat="48.67805" lon="7.29886">
        <ele>479.1</ele>
      </trkpt>
      <trkpt lat="48.67819" lon="7.29913">
        <ele>476.6</ele>
      </trkpt>
      <trkpt lat="48.67825" lon="7.29931">
        <ele>481</ele>
      </trkpt>
      <trkpt lat="48.67829" lon="7.29953">
        <ele>484.8</ele>
      </trkpt>
      <trkpt lat="48.67829" lon="7.2998">
        <ele>485.4</ele>
      </trkpt>
      <trkpt lat="48.67827" lon="7.29996">
        <ele>483.5</ele>
      </trkpt>
      <trkpt lat="48.67818" lon="7.30042">
        <ele>495.6</ele>
      </trkpt>
      <trkpt lat="48.67817" lon="7.30052">
        <ele>496</ele>
      </trkpt>
      <trkpt lat="48.67817" lon="7.30064">
        <ele>495.7</ele>
      </trkpt>
      <trkpt lat="48.67808" lon="7.30074">
        <ele>497.1</ele>
      </trkpt>
      <trkpt lat="48.67802" lon="7.30052">
        <ele>498.3</ele>
      </trkpt>
      <trkpt lat="48.67787" lon="7.29981">
        <ele>492.5</ele>
      </trkpt>
      <trkpt lat="48.67784" lon="7.29972">
        <ele>492.4</ele>
      </trkpt>
      <trkpt lat="48.67775" lon="7.29953">
        <ele>492</ele>
      </trkpt>
      <trkpt lat="48.67744" lon="7.29908">
        <ele>497.2</ele>
      </trkpt>
      <trkpt lat="48.67734" lon="7.2991">
        <ele>498.7</ele>
      </trkpt>
      <trkpt lat="48.67713" lon="7.2991">
        <ele>503</ele>
      </trkpt>
      <trkpt lat="48.677" lon="7.29909">
        <ele>506.2</ele>
      </trkpt>
      <trkpt lat="48.67683" lon="7.29903">
        <ele>510.4</ele>
      </trkpt>
      <trkpt lat="48.6765" lon="7.29889">
        <ele>526.7</ele>
      </trkpt>
      <trkpt lat="48.67606" lon="7.29864">
        <ele>531.5</ele>
      </trkpt>
      <trkpt lat="48.67586" lon="7.29849">
        <ele>533.5</ele>
      </trkpt>
      <trkpt lat="48.67568" lon="7.29832">
        <ele>541.2</ele>
        <extensions>
          <visugpx:TrkExtension xmlns:visugpx="https://www.visugpx.com/editgpx/">
            <visugpx:node>116</visugpx:node>
            </visugpx:TrkExtension>
        </extensions>
      </trkpt>
      <trkpt lat="48.67567" lon="7.29831">
        <ele>541.5</ele>
      </trkpt>
      <trkpt lat="48.67554" lon="7.29817">
        <ele>544.8</ele>
      </trkpt>
      <trkpt lat="48.67536" lon="7.29793">
        <ele>547.4</ele>
      </trkpt>
      <trkpt lat="48.67528" lon="7.29772">
        <ele>548.3</ele>
      </trkpt>
      <trkpt lat="48.6751" lon="7.29743">
        <ele>551.2</ele>
      </trkpt>
      <trkpt lat="48.67508" lon="7.29696">
        <ele>549</ele>
      </trkpt>
      <trkpt lat="48.67504" lon="7.29684">
        <ele>551.5</ele>
      </trkpt>
      <trkpt lat="48.67491" lon="7.29708">
        <ele>561.3</ele>
      </trkpt>
      <trkpt lat="48.67478" lon="7.29725">
        <ele>561.3</ele>
      </trkpt>
      <trkpt lat="48.6747" lon="7.29742">
        <ele>561.4</ele>
      </trkpt>
      <trkpt lat="48.6746" lon="7.29749">
        <ele>562.2</ele>
      </trkpt>
      <trkpt lat="48.67452" lon="7.29762">
        <ele>562.9</ele>
      </trkpt>
      <trkpt lat="48.67443" lon="7.29744">
        <ele>563.7</ele>
      </trkpt>
      <trkpt lat="48.67426" lon="7.29733">
        <ele>564.7</ele>
      </trkpt>
      <trkpt lat="48.67425" lon="7.2971">
        <ele>565.1</ele>
      </trkpt>
      <trkpt lat="48.67425" lon="7.2968">
        <ele>567.9</ele>
      </trkpt>
      <trkpt lat="48.67436" lon="7.29616">
        <ele>572.1</ele>
      </trkpt>
      <trkpt lat="48.67456" lon="7.29546">
        <ele>578.3</ele>
      </trkpt>
      <trkpt lat="48.67464" lon="7.29499">
        <ele>585.8</ele>
      </trkpt>
      <trkpt lat="48.67467" lon="7.29456">
        <ele>588.2</ele>
      </trkpt>
      <trkpt lat="48.67434" lon="7.29481">
        <ele>592.3</ele>
      </trkpt>
      <trkpt lat="48.67439" lon="7.29452">
        <ele>593.2</ele>
      </trkpt>
      <trkpt lat="48.67429" lon="7.29444">
        <ele>596</ele>
      </trkpt>
      <trkpt lat="48.67415" lon="7.29445">
        <ele>602.2</ele>
      </trkpt>
      <trkpt lat="48.67394" lon="7.29427">
        <ele>603</ele>
      </trkpt>
      <trkpt lat="48.67375" lon="7.29399">
        <ele>604</ele>
        <extensions>
          <visugpx:TrkExtension xmlns:visugpx="https://www.visugpx.com/editgpx/">
            <visugpx:node>117</visugpx:node>
            </visugpx:TrkExtension>
        </extensions>
      </trkpt>
      <trkpt lat="48.67375" lon="7.29399">
        <ele>604</ele>
      </trkpt>
      <trkpt lat="48.67348" lon="7.29388">
        <ele>603.3</ele>
      </trkpt>
      <trkpt lat="48.67325" lon="7.29357">
        <ele>602</ele>
      </trkpt>
      <trkpt lat="48.67223" lon="7.29256">
        <ele>601</ele>
      </trkpt>
      <trkpt lat="48.67211" lon="7.29238">
        <ele>599.8</ele>
      </trkpt>
      <trkpt lat="48.67206" lon="7.29235">
        <ele>599.6</ele>
      </trkpt>
      <trkpt lat="48.67201" lon="7.29233">
        <ele>599.5</ele>
      </trkpt>
      <trkpt lat="48.67198" lon="7.29234">
        <ele>599.5</ele>
      </trkpt>
      <trkpt lat="48.67197" lon="7.29243">
        <ele>599.6</ele>
      </trkpt>
      <trkpt lat="48.67192" lon="7.29246">
        <ele>599.6</ele>
      </trkpt>
      <trkpt lat="48.67186" lon="7.29253">
        <ele>599.3</ele>
      </trkpt>
      <trkpt lat="48.67178" lon="7.29231">
        <ele>599.4</ele>
      </trkpt>
      <trkpt lat="48.67172" lon="7.29223">
        <ele>599.2</ele>
      </trkpt>
      <trkpt lat="48.67169" lon="7.2922">
        <ele>599.1</ele>
      </trkpt>
      <trkpt lat="48.67166" lon="7.29225">
        <ele>592.2</ele>
      </trkpt>
      <trkpt lat="48.67165" lon="7.29257">
        <ele>594.7</ele>
      </trkpt>
      <trkpt lat="48.67166" lon="7.29266">
        <ele>590.3</ele>
      </trkpt>
      <trkpt lat="48.67164" lon="7.29266">
        <ele>590.2</ele>
      </trkpt>
      <trkpt lat="48.67106" lon="7.2916">
        <ele>578.5</ele>
      </trkpt>
      <trkpt lat="48.67106" lon="7.2914">
        <ele>578.4</ele>
      </trkpt>
      <trkpt lat="48.67109" lon="7.29115">
        <ele>577</ele>
      </trkpt>
      <trkpt lat="48.67106" lon="7.29101">
        <ele>575</ele>
      </trkpt>
      <trkpt lat="48.6709" lon="7.2911">
        <ele>574.3</ele>
      </trkpt>
      <trkpt lat="48.67076" lon="7.2913">
        <ele>562.2</ele>
      </trkpt>
      <trkpt lat="48.67067" lon="7.29125">
        <ele>561</ele>
      </trkpt>
      <trkpt lat="48.67061" lon="7.29122">
        <ele>560.2</ele>
      </trkpt>
      <trkpt lat="48.67056" lon="7.29111">
        <ele>559.3</ele>
      </trkpt>
      <trkpt lat="48.67051" lon="7.29089">
        <ele>558.4</ele>
      </trkpt>
      <trkpt lat="48.67052" lon="7.29048">
        <ele>552.6</ele>
      </trkpt>
      <trkpt lat="48.67056" lon="7.29016">
        <ele>551.6</ele>
      </trkpt>
      <trkpt lat="48.67062" lon="7.28994">
        <ele>546.9</ele>
      </trkpt>
      <trkpt lat="48.67052" lon="7.28989">
        <ele>544.9</ele>
      </trkpt>
      <trkpt lat="48.67042" lon="7.28996">
        <ele>544</ele>
      </trkpt>
      <trkpt lat="48.67021" lon="7.28993">
        <ele>542.2</ele>
      </trkpt>
      <trkpt lat="48.6701" lon="7.28977">
        <ele>541.4</ele>
      </trkpt>
      <trkpt lat="48.66992" lon="7.28969">
        <ele>534</ele>
      </trkpt>
      <trkpt lat="48.66964" lon="7.2894">
        <ele>531.1</ele>
        <extensions>
          <visugpx:TrkExtension xmlns:visugpx="https://www.visugpx.com/editgpx/">
            <visugpx:node>118</visugpx:node>
            </visugpx:TrkExtension>
        </extensions>
      </trkpt>
      <trkpt lat="48.66899" lon="7.28875">
        <ele>522.6</ele>
      </trkpt>
      <trkpt lat="48.66889" lon="7.28857">
        <ele>522.5</ele>
      </trkpt>
      <trkpt lat="48.6687" lon="7.2881">
        <ele>524.8</ele>
      </trkpt>
      <trkpt lat="48.66848" lon="7.28774">
        <ele>526.7</ele>
      </trkpt>
      <trkpt lat="48.66833" lon="7.28756">
        <ele>530.7</ele>
      </trkpt>
      <trkpt lat="48.66825" lon="7.28695">
        <ele>533.2</ele>
      </trkpt>
      <trkpt lat="48.66814" lon="7.28636">
        <ele>534.4</ele>
      </trkpt>
      <trkpt lat="48.66797" lon="7.28565">
        <ele>535.2</ele>
      </trkpt>
      <trkpt lat="48.66776" lon="7.28497">
        <ele>536.1</ele>
      </trkpt>
      <trkpt lat="48.66745" lon="7.2845">
        <ele>541.1</ele>
      </trkpt>
      <trkpt lat="48.6671" lon="7.28431">
        <ele>542.3</ele>
      </trkpt>
      <trkpt lat="48.66684" lon="7.28405">
        <ele>541</ele>
      </trkpt>
      <trkpt lat="48.66666" lon="7.28396">
        <ele>544.2</ele>
      </trkpt>
      <trkpt lat="48.66596" lon="7.28378">
        <ele>544.9</ele>
      </trkpt>
      <trkpt lat="48.66555" lon="7.28361">
        <ele>547.3</ele>
      </trkpt>
      <trkpt lat="48.66533" lon="7.28347">
        <ele>547.5</ele>
      </trkpt>
      <trkpt lat="48.66506" lon="7.28335">
        <ele>547.2</ele>
      </trkpt>
      <trkpt lat="48.66476" lon="7.28312">
        <ele>549.9</ele>
      </trkpt>
      <trkpt lat="48.66454" lon="7.28299">
        <ele>551.4</ele>
      </trkpt>
      <trkpt lat="48.66434" lon="7.28274">
        <ele>552.9</ele>
      </trkpt>
      <trkpt lat="48.66416" lon="7.28239">
        <ele>558.4</ele>
      </trkpt>
      <trkpt lat="48.6638" lon="7.28158">
        <ele>557</ele>
      </trkpt>
      <trkpt lat="48.66362" lon="7.28138">
        <ele>558</ele>
        <extensions>
          <visugpx:TrkExtension xmlns:visugpx="https://www.visugpx.com/editgpx/">
            <visugpx:node>119</visugpx:node>
            </visugpx:TrkExtension>
        </extensions>
      </trkpt>
      <trkpt lat="48.66348" lon="7.28121">
        <ele>558</ele>
      </trkpt>
      <trkpt lat="48.6631" lon="7.28088">
        <ele>561.6</ele>
      </trkpt>
      <trkpt lat="48.66275" lon="7.28089">
        <ele>562.1</ele>
      </trkpt>
      <trkpt lat="48.66221" lon="7.28101">
        <ele>563.1</ele>
      </trkpt>
      <trkpt lat="48.66093" lon="7.28138">
        <ele>565.8</ele>
      </trkpt>
      <trkpt lat="48.66071" lon="7.2814">
        <ele>569.6</ele>
      </trkpt>
      <trkpt lat="48.66062" lon="7.28147">
        <ele>570.3</ele>
      </trkpt>
      <trkpt lat="48.66038" lon="7.28154">
        <ele>572.2</ele>
      </trkpt>
      <trkpt lat="48.65971" lon="7.28153">
        <ele>579.9</ele>
      </trkpt>
      <trkpt lat="48.65942" lon="7.28159">
        <ele>582.1</ele>
      </trkpt>
      <trkpt lat="48.6593" lon="7.28161">
        <ele>584</ele>
      </trkpt>
      <trkpt lat="48.65918" lon="7.28163">
        <ele>586.6</ele>
      </trkpt>
      <trkpt lat="48.65859" lon="7.28201">
        <ele>596.3</ele>
      </trkpt>
      <trkpt lat="48.65841" lon="7.28217">
        <ele>598</ele>
      </trkpt>
      <trkpt lat="48.65815" lon="7.28242">
        <ele>600.8</ele>
      </trkpt>
      <trkpt lat="48.65752" lon="7.28319">
        <ele>613.8</ele>
      </trkpt>
      <trkpt lat="48.65727" lon="7.28354">
        <ele>621</ele>
      </trkpt>
      <trkpt lat="48.65699" lon="7.28386">
        <ele>623.6</ele>
      </trkpt>
      <trkpt lat="48.65675" lon="7.28417">
        <ele>630.9</ele>
      </trkpt>
      <trkpt lat="48.65647" lon="7.28445">
        <ele>631.6</ele>
        <extensions>
          <visugpx:TrkExtension xmlns:visugpx="https://www.visugpx.com/editgpx/">
            <visugpx:node>120</visugpx:node>
            </visugpx:TrkExtension>
        </extensions>
      </trkpt>
      <trkpt lat="48.65623" lon="7.28467">
        <ele>632.6</ele>
      </trkpt>
      <trkpt lat="48.65599" lon="7.28494">
        <ele>634.2</ele>
      </trkpt>
      <trkpt lat="48.65574" lon="7.28524">
        <ele>637.9</ele>
      </trkpt>
      <trkpt lat="48.65542" lon="7.2857">
        <ele>640.2</ele>
      </trkpt>
      <trkpt lat="48.65536" lon="7.2858">
        <ele>640.7</ele>
      </trkpt>
      <trkpt lat="48.65526" lon="7.28578">
        <ele>641.2</ele>
      </trkpt>
      <trkpt lat="48.65521" lon="7.28581">
        <ele>641.7</ele>
      </trkpt>
      <trkpt lat="48.65495" lon="7.28592">
        <ele>645.9</ele>
      </trkpt>
      <trkpt lat="48.65468" lon="7.28613">
        <ele>647.3</ele>
      </trkpt>
      <trkpt lat="48.65452" lon="7.28629">
        <ele>648</ele>
      </trkpt>
      <trkpt lat="48.65424" lon="7.28646">
        <ele>649.5</ele>
      </trkpt>
      <trkpt lat="48.65381" lon="7.28678">
        <ele>653</ele>
      </trkpt>
      <trkpt lat="48.65355" lon="7.28702">
        <ele>653.7</ele>
      </trkpt>
      <trkpt lat="48.65302" lon="7.28745">
        <ele>657.2</ele>
      </trkpt>
      <trkpt lat="48.6528" lon="7.28768">
        <ele>659.5</ele>
      </trkpt>
      <trkpt lat="48.65235" lon="7.28806">
        <ele>662.8</ele>
      </trkpt>
      <trkpt lat="48.65222" lon="7.28827">
        <ele>663.3</ele>
      </trkpt>
      <trkpt lat="48.65216" lon="7.28841">
        <ele>665.7</ele>
      </trkpt>
      <trkpt lat="48.65215" lon="7.28865">
        <ele>666</ele>
      </trkpt>
      <trkpt lat="48.65211" lon="7.28886">
        <ele>666.3</ele>
      </trkpt>
      <trkpt lat="48.65208" lon="7.28909">
        <ele>666.5</ele>
        <extensions>
          <visugpx:TrkExtension xmlns:visugpx="https://www.visugpx.com/editgpx/">
            <visugpx:node>121</visugpx:node>
            </visugpx:TrkExtension>
        </extensions>
      </trkpt>
      <trkpt lat="48.65205" lon="7.28933">
        <ele>667.5</ele>
      </trkpt>
      <trkpt lat="48.65202" lon="7.28956">
        <ele>667.6</ele>
      </trkpt>
      <trkpt lat="48.65196" lon="7.29006">
        <ele>668</ele>
      </trkpt>
      <trkpt lat="48.65191" lon="7.29024">
        <ele>667.9</ele>
      </trkpt>
      <trkpt lat="48.652" lon="7.29098">
        <ele>666.1</ele>
      </trkpt>
      <trkpt lat="48.65199" lon="7.29129">
        <ele>665.7</ele>
      </trkpt>
      <trkpt lat="48.65194" lon="7.2916">
        <ele>665.7</ele>
      </trkpt>
      <trkpt lat="48.65147" lon="7.29282">
        <ele>663</ele>
      </trkpt>
      <trkpt lat="48.65132" lon="7.29336">
        <ele>658.3</ele>
      </trkpt>
      <trkpt lat="48.65126" lon="7.29372">
        <ele>657.6</ele>
      </trkpt>
      <trkpt lat="48.65123" lon="7.29393">
        <ele>657</ele>
      </trkpt>
      <trkpt lat="48.65114" lon="7.29424">
        <ele>653.4</ele>
      </trkpt>
      <trkpt lat="48.6511" lon="7.29432">
        <ele>653.3</ele>
      </trkpt>
      <trkpt lat="48.65095" lon="7.29449">
        <ele>652.6</ele>
      </trkpt>
      <trkpt lat="48.65043" lon="7.2949">
        <ele>647.8</ele>
      </trkpt>
      <trkpt lat="48.64908" lon="7.29529">
        <ele>649.2</ele>
      </trkpt>
      <trkpt lat="48.64875" lon="7.29548">
        <ele>651.2</ele>
      </trkpt>
      <trkpt lat="48.64874" lon="7.29557">
        <ele>650.7</ele>
      </trkpt>
      <trkpt lat="48.64865" lon="7.29579">
        <ele>651.3</ele>
      </trkpt>
      <trkpt lat="48.64854" lon="7.29593">
        <ele>642.7</ele>
      </trkpt>
      <trkpt lat="48.64846" lon="7.2961">
        <ele>640.6</ele>
      </trkpt>
      <trkpt lat="48.64834" lon="7.29663">
        <ele>638.9</ele>
      </trkpt>
      <trkpt lat="48.64829" lon="7.29685">
        <ele>642.1</ele>
      </trkpt>
      <trkpt lat="48.64824" lon="7.29707">
        <ele>641.2</ele>
      </trkpt>
      <trkpt lat="48.64813" lon="7.29756">
        <ele>628</ele>
      </trkpt>
      <trkpt lat="48.64796" lon="7.29867">
        <ele>611.5</ele>
        <extensions>
          <visugpx:TrkExtension xmlns:visugpx="https://www.visugpx.com/editgpx/">
            <visugpx:node>122</visugpx:node>
            </visugpx:TrkExtension>
        </extensions>
      </trkpt>
      <trkpt lat="48.6479" lon="7.29909">
        <ele>609.2</ele>
      </trkpt>
      <trkpt lat="48.64792" lon="7.29937">
        <ele>593.1</ele>
      </trkpt>
      <trkpt lat="48.64789" lon="7.29965">
        <ele>589.9</ele>
      </trkpt>
      <trkpt lat="48.64785" lon="7.29982">
        <ele>589</ele>
      </trkpt>
      <trkpt lat="48.64775" lon="7.29997">
        <ele>590.8</ele>
      </trkpt>
      <trkpt lat="48.64758" lon="7.30009">
        <ele>583.2</ele>
      </trkpt>
      <trkpt lat="48.64734" lon="7.30017">
        <ele>586.5</ele>
      </trkpt>
      <trkpt lat="48.64708" lon="7.30011">
        <ele>586.1</ele>
      </trkpt>
      <trkpt lat="48.64665" lon="7.30013">
        <ele>596.4</ele>
      </trkpt>
      <trkpt lat="48.64647" lon="7.30023">
        <ele>593.5</ele>
      </trkpt>
      <trkpt lat="48.64626" lon="7.30041">
        <ele>591</ele>
      </trkpt>
      <trkpt lat="48.64606" lon="7.3008">
        <ele>586.3</ele>
      </trkpt>
      <trkpt lat="48.64584" lon="7.30099">
        <ele>573</ele>
      </trkpt>
      <trkpt lat="48.64562" lon="7.30112">
        <ele>576</ele>
      </trkpt>
      <trkpt lat="48.64549" lon="7.30115">
        <ele>575.9</ele>
      </trkpt>
      <trkpt lat="48.64543" lon="7.30121">
        <ele>575.3</ele>
      </trkpt>
      <trkpt lat="48.64533" lon="7.30126">
        <ele>575.1</ele>
      </trkpt>
      <trkpt lat="48.64535" lon="7.30153">
        <ele>571.2</ele>
      </trkpt>
      <trkpt lat="48.64509" lon="7.30168">
        <ele>560.6</ele>
      </trkpt>
      <trkpt lat="48.64496" lon="7.30182">
        <ele>558.4</ele>
      </trkpt>
      <trkpt lat="48.64477" lon="7.30195">
        <ele>553.3</ele>
      </trkpt>
      <trkpt lat="48.64454" lon="7.30216">
        <ele>549.2</ele>
      </trkpt>
      <trkpt lat="48.64422" lon="7.30238">
        <ele>543.1</ele>
      </trkpt>
      <trkpt lat="48.64388" lon="7.30258">
        <ele>528.2</ele>
      </trkpt>
      <trkpt lat="48.64373" lon="7.30258">
        <ele>527</ele>
      </trkpt>
      <trkpt lat="48.6436" lon="7.30267">
        <ele>526.1</ele>
      </trkpt>
      <trkpt lat="48.64356" lon="7.30272">
        <ele>525.6</ele>
        <extensions>
          <visugpx:TrkExtension xmlns:visugpx="https://www.visugpx.com/editgpx/">
            <visugpx:node>123</visugpx:node>
            </visugpx:TrkExtension>
        </extensions>
      </trkpt>
      <trkpt lat="48.64341" lon="7.30286">
        <ele>523.5</ele>
      </trkpt>
      <trkpt lat="48.6432" lon="7.303">
        <ele>515.3</ele>
      </trkpt>
      <trkpt lat="48.643" lon="7.30318">
        <ele>512.7</ele>
      </trkpt>
      <trkpt lat="48.64294" lon="7.30336">
        <ele>499.3</ele>
      </trkpt>
      <trkpt lat="48.6428" lon="7.30353">
        <ele>497.2</ele>
      </trkpt>
      <trkpt lat="48.64249" lon="7.30373">
        <ele>485.8</ele>
      </trkpt>
      <trkpt lat="48.64226" lon="7.30386">
        <ele>482.6</ele>
      </trkpt>
      <trkpt lat="48.64219" lon="7.30396">
        <ele>481.4</ele>
      </trkpt>
      <trkpt lat="48.64197" lon="7.30404">
        <ele>478.3</ele>
      </trkpt>
      <trkpt lat="48.64192" lon="7.30406">
        <ele>477.3</ele>
      </trkpt>
      <trkpt lat="48.64189" lon="7.30382">
        <ele>479.1</ele>
      </trkpt>
      <trkpt lat="48.64183" lon="7.30354">
        <ele>479.5</ele>
      </trkpt>
      <trkpt lat="48.64176" lon="7.30323">
        <ele>482.8</ele>
      </trkpt>
      <trkpt lat="48.64164" lon="7.30307">
        <ele>471</ele>
      </trkpt>
      <trkpt lat="48.64159" lon="7.30279">
        <ele>472.6</ele>
      </trkpt>
      <trkpt lat="48.64156" lon="7.30246">
        <ele>481.2</ele>
      </trkpt>
      <trkpt lat="48.64115" lon="7.30059">
        <ele>483.5</ele>
      </trkpt>
      <trkpt lat="48.64112" lon="7.30027">
        <ele>482.9</ele>
        <extensions>
          <visugpx:TrkExtension xmlns:visugpx="https://www.visugpx.com/editgpx/">
            <visugpx:node>124</visugpx:node>
            </visugpx:TrkExtension>
        </extensions>
      </trkpt>
      <trkpt lat="48.6411" lon="7.29991">
        <ele>481.3</ele>
      </trkpt>
      <trkpt lat="48.64121" lon="7.29924">
        <ele>484.2</ele>
      </trkpt>
      <trkpt lat="48.64138" lon="7.29772">
        <ele>492.8</ele>
      </trkpt>
      <trkpt lat="48.64133" lon="7.29733">
        <ele>498.4</ele>
      </trkpt>
      <trkpt lat="48.64094" lon="7.29709">
        <ele>498.3</ele>
      </trkpt>
      <trkpt lat="48.63952" lon="7.29818">
        <ele>496.1</ele>
      </trkpt>
      <trkpt lat="48.63831" lon="7.29919">
        <ele>488.7</ele>
      </trkpt>
      <trkpt lat="48.63798" lon="7.29934">
        <ele>488.6</ele>
      </trkpt>
      <trkpt lat="48.63745" lon="7.29913">
        <ele>500</ele>
      </trkpt>
      <trkpt lat="48.63718" lon="7.29851">
        <ele>499</ele>
      </trkpt>
      <trkpt lat="48.63666" lon="7.29673">
        <ele>501.2</ele>
      </trkpt>
      <trkpt lat="48.63649" lon="7.29576">
        <ele>502</ele>
      </trkpt>
      <trkpt lat="48.63644" lon="7.29505">
        <ele>500.6</ele>
        <extensions>
          <visugpx:TrkExtension xmlns:visugpx="https://www.visugpx.com/editgpx/">
            <visugpx:node>125</visugpx:node>
            </visugpx:TrkExtension>
        </extensions>
      </trkpt>
      <trkpt lat="48.63644" lon="7.29497">
        <ele>500</ele>
      </trkpt>
      <trkpt lat="48.63651" lon="7.29409">
        <ele>497.1</ele>
      </trkpt>
      <trkpt lat="48.63658" lon="7.29373">
        <ele>492.8</ele>
      </trkpt>
      <trkpt lat="48.63669" lon="7.29318">
        <ele>503.7</ele>
      </trkpt>
      <trkpt lat="48.6371" lon="7.29254">
        <ele>504.3</ele>
      </trkpt>
      <trkpt lat="48.63767" lon="7.29181">
        <ele>505.3</ele>
      </trkpt>
      <trkpt lat="48.63804" lon="7.29123">
        <ele>494.4</ele>
      </trkpt>
      <trkpt lat="48.63889" lon="7.28979">
        <ele>504.9</ele>
      </trkpt>
      <trkpt lat="48.63912" lon="7.28937">
        <ele>507.2</ele>
      </trkpt>
      <trkpt lat="48.63917" lon="7.28898">
        <ele>519</ele>
      </trkpt>
      <trkpt lat="48.63908" lon="7.2887">
        <ele>518.5</ele>
      </trkpt>
      <trkpt lat="48.63881" lon="7.28874">
        <ele>518.3</ele>
      </trkpt>
      <trkpt lat="48.6383" lon="7.28896">
        <ele>514</ele>
      </trkpt>
      <trkpt lat="48.63793" lon="7.28902">
        <ele>515.6</ele>
      </trkpt>
      <trkpt lat="48.63739" lon="7.28909">
        <ele>510.6</ele>
      </trkpt>
      <trkpt lat="48.63688" lon="7.28906">
        <ele>512.2</ele>
      </trkpt>
      <trkpt lat="48.63651" lon="7.28915">
        <ele>506.4</ele>
      </trkpt>
      <trkpt lat="48.63577" lon="7.28945">
        <ele>485.7</ele>
      </trkpt>
      <trkpt lat="48.63537" lon="7.28941">
        <ele>482.9</ele>
      </trkpt>
      <trkpt lat="48.63531" lon="7.28934">
        <ele>482.8</ele>
      </trkpt>
      <trkpt lat="48.63503" lon="7.289">
        <ele>487</ele>
      </trkpt>
      <trkpt lat="48.63485" lon="7.28831">
        <ele>481.3</ele>
      </trkpt>
      <trkpt lat="48.63475" lon="7.28784">
        <ele>480.3</ele>
      </trkpt>
      <trkpt lat="48.63462" lon="7.28738">
        <ele>489.8</ele>
      </trkpt>
      <trkpt lat="48.63461" lon="7.28703">
        <ele>492.6</ele>
      </trkpt>
      <trkpt lat="48.63442" lon="7.28673">
        <ele>493</ele>
      </trkpt>
      <trkpt lat="48.63401" lon="7.28684">
        <ele>484.9</ele>
      </trkpt>
      <trkpt lat="48.63374" lon="7.28699">
        <ele>481</ele>
      </trkpt>
      <trkpt lat="48.63347" lon="7.28697">
        <ele>480.6</ele>
      </trkpt>
      <trkpt lat="48.63323" lon="7.28658">
        <ele>480.2</ele>
      </trkpt>
      <trkpt lat="48.63278" lon="7.28548">
        <ele>482.3</ele>
      </trkpt>
      <trkpt lat="48.63269" lon="7.28503">
        <ele>481.3</ele>
      </trkpt>
      <trkpt lat="48.63271" lon="7.28467">
        <ele>489.8</ele>
      </trkpt>
      <trkpt lat="48.63262" lon="7.28434">
        <ele>489.2</ele>
      </trkpt>
      <trkpt lat="48.63247" lon="7.28419">
        <ele>482</ele>
      </trkpt>
      <trkpt lat="48.63214" lon="7.28424">
        <ele>472.9</ele>
      </trkpt>
      <trkpt lat="48.6318" lon="7.28434">
        <ele>469.4</ele>
      </trkpt>
      <trkpt lat="48.63153" lon="7.28422">
        <ele>461.9</ele>
      </trkpt>
      <trkpt lat="48.63135" lon="7.28405">
        <ele>469.5</ele>
        <extensions>
          <visugpx:TrkExtension xmlns:visugpx="https://www.visugpx.com/editgpx/">
            <visugpx:node>126</visugpx:node>
            </visugpx:TrkExtension>
        </extensions>
      </trkpt>
      <trkpt lat="48.63128" lon="7.28398">
        <ele>469</ele>
      </trkpt>
      <trkpt lat="48.63108" lon="7.28368">
        <ele>469.2</ele>
      </trkpt>
      <trkpt lat="48.63087" lon="7.28342">
        <ele>466.3</ele>
      </trkpt>
      <trkpt lat="48.63064" lon="7.28306">
        <ele>463.5</ele>
      </trkpt>
      <trkpt lat="48.63041" lon="7.28276">
        <ele>462.4</ele>
      </trkpt>
      <trkpt lat="48.6302" lon="7.28243">
        <ele>463.3</ele>
      </trkpt>
      <trkpt lat="48.62989" lon="7.28215">
        <ele>460.7</ele>
      </trkpt>
      <trkpt lat="48.62978" lon="7.28193">
        <ele>462.6</ele>
      </trkpt>
      <trkpt lat="48.62931" lon="7.28116">
        <ele>464.3</ele>
      </trkpt>
      <trkpt lat="48.62887" lon="7.28039">
        <ele>464.7</ele>
      </trkpt>
      <trkpt lat="48.62882" lon="7.28046">
        <ele>464.4</ele>
      </trkpt>
      <trkpt lat="48.62862" lon="7.28074">
        <ele>465.8</ele>
      </trkpt>
      <trkpt lat="48.62861" lon="7.28083">
        <ele>466.1</ele>
      </trkpt>
      <trkpt lat="48.62862" lon="7.28093">
        <ele>470.4</ele>
      </trkpt>
      <trkpt lat="48.6289" lon="7.28149">
        <ele>470.4</ele>
      </trkpt>
      <trkpt lat="48.62908" lon="7.28192">
        <ele>479.7</ele>
      </trkpt>
      <trkpt lat="48.6294" lon="7.28263">
        <ele>472.8</ele>
      </trkpt>
      <trkpt lat="48.62939" lon="7.28294">
        <ele>473.7</ele>
      </trkpt>
      <trkpt lat="48.62956" lon="7.28338">
        <ele>477.5</ele>
      </trkpt>
      <trkpt lat="48.62971" lon="7.28386">
        <ele>475.7</ele>
      </trkpt>
      <trkpt lat="48.62982" lon="7.28419">
        <ele>476</ele>
      </trkpt>
      <trkpt lat="48.63002" lon="7.2848">
        <ele>463.3</ele>
      </trkpt>
      <trkpt lat="48.63011" lon="7.28518">
        <ele>464.2</ele>
      </trkpt>
      <trkpt lat="48.63027" lon="7.28592">
        <ele>468.3</ele>
      </trkpt>
      <trkpt lat="48.63038" lon="7.28666">
        <ele>467.1</ele>
      </trkpt>
      <trkpt lat="48.63048" lon="7.28719">
        <ele>471.5</ele>
      </trkpt>
      <trkpt lat="48.63083" lon="7.28864">
        <ele>487.3</ele>
      </trkpt>
      <trkpt lat="48.63096" lon="7.28897">
        <ele>469.5</ele>
      </trkpt>
      <trkpt lat="48.63108" lon="7.28942">
        <ele>474.3</ele>
      </trkpt>
      <trkpt lat="48.6312" lon="7.28998">
        <ele>475.6</ele>
      </trkpt>
      <trkpt lat="48.63129" lon="7.29056">
        <ele>480.9</ele>
      </trkpt>
      <trkpt lat="48.63141" lon="7.29122">
        <ele>484.1</ele>
      </trkpt>
      <trkpt lat="48.63148" lon="7.29177">
        <ele>484.4</ele>
      </trkpt>
      <trkpt lat="48.63147" lon="7.29226">
        <ele>487.1</ele>
      </trkpt>
      <trkpt lat="48.63146" lon="7.29233">
        <ele>486.7</ele>
        <extensions>
          <visugpx:TrkExtension xmlns:visugpx="https://www.visugpx.com/editgpx/">
            <visugpx:node>127</visugpx:node>
            </visugpx:TrkExtension>
        </extensions>
      </trkpt>
      <trkpt lat="48.63144" lon="7.29268">
        <ele>489.3</ele>
      </trkpt>
      <trkpt lat="48.63134" lon="7.29352">
        <ele>492.5</ele>
      </trkpt>
      <trkpt lat="48.6312" lon="7.29447">
        <ele>490.6</ele>
      </trkpt>
      <trkpt lat="48.63107" lon="7.29529">
        <ele>485.7</ele>
      </trkpt>
      <trkpt lat="48.63094" lon="7.29621">
        <ele>481.1</ele>
      </trkpt>
      <trkpt lat="48.63085" lon="7.29668">
        <ele>492.7</ele>
      </trkpt>
      <trkpt lat="48.6305" lon="7.29795">
        <ele>500.9</ele>
      </trkpt>
      <trkpt lat="48.63031" lon="7.29889">
        <ele>493.4</ele>
      </trkpt>
      <trkpt lat="48.63014" lon="7.29953">
        <ele>485.2</ele>
      </trkpt>
      <trkpt lat="48.63001" lon="7.29966">
        <ele>485.2</ele>
      </trkpt>
      <trkpt lat="48.62989" lon="7.29971">
        <ele>494.8</ele>
      </trkpt>
      <trkpt lat="48.6295" lon="7.29964">
        <ele>495.8</ele>
      </trkpt>
      <trkpt lat="48.62891" lon="7.29926">
        <ele>497.3</ele>
      </trkpt>
      <trkpt lat="48.62821" lon="7.29874">
        <ele>511.6</ele>
      </trkpt>
      <trkpt lat="48.62783" lon="7.29847">
        <ele>515.4</ele>
      </trkpt>
      <trkpt lat="48.62772" lon="7.29853">
        <ele>515.4</ele>
      </trkpt>
      <trkpt lat="48.62761" lon="7.2986">
        <ele>514.8</ele>
      </trkpt>
      <trkpt lat="48.62748" lon="7.29873">
        <ele>517.3</ele>
      </trkpt>
      <trkpt lat="48.62726" lon="7.299">
        <ele>513.9</ele>
      </trkpt>
      <trkpt lat="48.62712" lon="7.29917">
        <ele>503.9</ele>
      </trkpt>
      <trkpt lat="48.62701" lon="7.29928">
        <ele>505.4</ele>
      </trkpt>
      <trkpt lat="48.62694" lon="7.29941">
        <ele>505.2</ele>
      </trkpt>
      <trkpt lat="48.62687" lon="7.29958">
        <ele>503.6</ele>
      </trkpt>
      <trkpt lat="48.62681" lon="7.29977">
        <ele>502.1</ele>
      </trkpt>
      <trkpt lat="48.62662" lon="7.30031">
        <ele>507.1</ele>
      </trkpt>
      <trkpt lat="48.62651" lon="7.30053">
        <ele>505.8</ele>
      </trkpt>
      <trkpt lat="48.62634" lon="7.30083">
        <ele>506.9</ele>
      </trkpt>
      <trkpt lat="48.62622" lon="7.30114">
        <ele>502.2</ele>
      </trkpt>
      <trkpt lat="48.62612" lon="7.30178">
        <ele>496.8</ele>
      </trkpt>
      <trkpt lat="48.62609" lon="7.30188">
        <ele>496.6</ele>
      </trkpt>
      <trkpt lat="48.62606" lon="7.30192">
        <ele>496.8</ele>
      </trkpt>
      <trkpt lat="48.62604" lon="7.302">
        <ele>496</ele>
        <extensions>
          <visugpx:TrkExtension xmlns:visugpx="https://www.visugpx.com/editgpx/">
            <visugpx:node>128</visugpx:node>
            </visugpx:TrkExtension>
        </extensions>
      </trkpt>
      <trkpt lat="48.62598" lon="7.30215">
        <ele>495.5</ele>
      </trkpt>
      <trkpt lat="48.62592" lon="7.30227">
        <ele>495.9</ele>
      </trkpt>
      <trkpt lat="48.62542" lon="7.30299">
        <ele>502.9</ele>
      </trkpt>
      <trkpt lat="48.62532" lon="7.3031">
        <ele>503.3</ele>
      </trkpt>
      <trkpt lat="48.62522" lon="7.30315">
        <ele>504.2</ele>
      </trkpt>
      <trkpt lat="48.62483" lon="7.30324">
        <ele>513.9</ele>
      </trkpt>
      <trkpt lat="48.62446" lon="7.3032">
        <ele>517.9</ele>
      </trkpt>
      <trkpt lat="48.62432" lon="7.30323">
        <ele>516.8</ele>
      </trkpt>
      <trkpt lat="48.6242" lon="7.30328">
        <ele>514.2</ele>
      </trkpt>
      <trkpt lat="48.62371" lon="7.30353">
        <ele>506.3</ele>
      </trkpt>
      <trkpt lat="48.62317" lon="7.30387">
        <ele>502.3</ele>
      </trkpt>
      <trkpt lat="48.62291" lon="7.30392">
        <ele>501.7</ele>
      </trkpt>
      <trkpt lat="48.62284" lon="7.30396">
        <ele>500.6</ele>
      </trkpt>
      <trkpt lat="48.62278" lon="7.30404">
        <ele>498.7</ele>
      </trkpt>
      <trkpt lat="48.62254" lon="7.30389">
        <ele>499.9</ele>
      </trkpt>
      <trkpt lat="48.62245" lon="7.3038">
        <ele>499.7</ele>
      </trkpt>
      <trkpt lat="48.62221" lon="7.30359">
        <ele>504.1</ele>
      </trkpt>
      <trkpt lat="48.62182" lon="7.30339">
        <ele>507.3</ele>
      </trkpt>
      <trkpt lat="48.62148" lon="7.30319">
        <ele>515.4</ele>
      </trkpt>
      <trkpt lat="48.62115" lon="7.3028">
        <ele>517.9</ele>
      </trkpt>
      <trkpt lat="48.62089" lon="7.30233">
        <ele>529.6</ele>
      </trkpt>
      <trkpt lat="48.62058" lon="7.30164">
        <ele>537.3</ele>
      </trkpt>
      <trkpt lat="48.62015" lon="7.30056">
        <ele>549.9</ele>
      </trkpt>
      <trkpt lat="48.62009" lon="7.30025">
        <ele>553.2</ele>
      </trkpt>
      <trkpt lat="48.6198" lon="7.2996">
        <ele>557.2</ele>
      </trkpt>
      <trkpt lat="48.61964" lon="7.29937">
        <ele>559.2</ele>
      </trkpt>
      <trkpt lat="48.61945" lon="7.29915">
        <ele>573.6</ele>
      </trkpt>
      <trkpt lat="48.61937" lon="7.2991">
        <ele>572.1</ele>
      </trkpt>
      <trkpt lat="48.61929" lon="7.29907">
        <ele>570.3</ele>
      </trkpt>
      <trkpt lat="48.61882" lon="7.29929">
        <ele>547.9</ele>
      </trkpt>
      <trkpt lat="48.61862" lon="7.29925">
        <ele>546.9</ele>
      </trkpt>
      <trkpt lat="48.61807" lon="7.29893">
        <ele>552.2</ele>
      </trkpt>
      <trkpt lat="48.61755" lon="7.29844">
        <ele>551.5</ele>
      </trkpt>
      <trkpt lat="48.61686" lon="7.29766">
        <ele>550.4</ele>
      </trkpt>
      <trkpt lat="48.61628" lon="7.2969">
        <ele>546.6</ele>
      </trkpt>
      <trkpt lat="48.61612" lon="7.29658">
        <ele>555.7</ele>
        <extensions>
          <visugpx:TrkExtension xmlns:visugpx="https://www.visugpx.com/editgpx/">
            <visugpx:node>129</visugpx:node>
            </visugpx:TrkExtension>
        </extensions>
      </trkpt>
      <trkpt lat="48.61578" lon="7.29589">
        <ele>548.3</ele>
      </trkpt>
      <trkpt lat="48.61546" lon="7.29503">
        <ele>555</ele>
      </trkpt>
      <trkpt lat="48.61499" lon="7.29402">
        <ele>563.3</ele>
      </trkpt>
      <trkpt lat="48.61436" lon="7.29285">
        <ele>570.2</ele>
      </trkpt>
      <trkpt lat="48.61404" lon="7.29151">
        <ele>574.7</ele>
      </trkpt>
      <trkpt lat="48.61384" lon="7.29087">
        <ele>575.2</ele>
      </trkpt>
      <trkpt lat="48.6135" lon="7.2899">
        <ele>585.5</ele>
      </trkpt>
      <trkpt lat="48.61317" lon="7.28914">
        <ele>589.7</ele>
      </trkpt>
      <trkpt lat="48.61304" lon="7.28885">
        <ele>592.6</ele>
      </trkpt>
      <trkpt lat="48.61267" lon="7.28835">
        <ele>591.2</ele>
      </trkpt>
      <trkpt lat="48.61245" lon="7.28822">
        <ele>596.7</ele>
      </trkpt>
      <trkpt lat="48.61228" lon="7.28826">
        <ele>601.9</ele>
      </trkpt>
      <trkpt lat="48.61202" lon="7.28896">
        <ele>604.5</ele>
      </trkpt>
      <trkpt lat="48.61168" lon="7.29034">
        <ele>603.9</ele>
      </trkpt>
      <trkpt lat="48.61129" lon="7.29133">
        <ele>627.5</ele>
      </trkpt>
      <trkpt lat="48.61094" lon="7.29212">
        <ele>628.7</ele>
      </trkpt>
      <trkpt lat="48.61067" lon="7.29281">
        <ele>649.3</ele>
      </trkpt>
      <trkpt lat="48.61044" lon="7.29325">
        <ele>651.5</ele>
      </trkpt>
      <trkpt lat="48.6096" lon="7.29379">
        <ele>658.2</ele>
      </trkpt>
      <trkpt lat="48.60915" lon="7.29377">
        <ele>663</ele>
      </trkpt>
      <trkpt lat="48.60833" lon="7.29353">
        <ele>666.6</ele>
      </trkpt>
      <trkpt lat="48.60784" lon="7.29327">
        <ele>686.7</ele>
      </trkpt>
      <trkpt lat="48.60733" lon="7.29295">
        <ele>689.6</ele>
      </trkpt>
      <trkpt lat="48.60688" lon="7.29289">
        <ele>691.6</ele>
        <extensions>
          <visugpx:TrkExtension xmlns:visugpx="https://www.visugpx.com/editgpx/">
            <visugpx:node>130</visugpx:node>
            </visugpx:TrkExtension>
        </extensions>
      </trkpt>
      <trkpt lat="48.60653" lon="7.29284">
        <ele>695.2</ele>
      </trkpt>
      <trkpt lat="48.60604" lon="7.29285">
        <ele>695.8</ele>
      </trkpt>
      <trkpt lat="48.60559" lon="7.293">
        <ele>701.8</ele>
      </trkpt>
      <trkpt lat="48.6052" lon="7.29341">
        <ele>695.7</ele>
      </trkpt>
      <trkpt lat="48.60482" lon="7.2936">
        <ele>707.4</ele>
      </trkpt>
      <trkpt lat="48.6043" lon="7.2935">
        <ele>714.2</ele>
      </trkpt>
      <trkpt lat="48.60386" lon="7.29332">
        <ele>728.6</ele>
      </trkpt>
      <trkpt lat="48.60367" lon="7.29318">
        <ele>730.8</ele>
      </trkpt>
      <trkpt lat="48.60327" lon="7.29271">
        <ele>739.3</ele>
      </trkpt>
      <trkpt lat="48.60292" lon="7.29252">
        <ele>740.8</ele>
      </trkpt>
      <trkpt lat="48.60258" lon="7.29256">
        <ele>743.9</ele>
      </trkpt>
      <trkpt lat="48.6023" lon="7.29261">
        <ele>751.1</ele>
      </trkpt>
      <trkpt lat="48.60183" lon="7.2926">
        <ele>758.8</ele>
      </trkpt>
      <trkpt lat="48.60176" lon="7.29281">
        <ele>758</ele>
      </trkpt>
      <trkpt lat="48.60174" lon="7.29306">
        <ele>758.7</ele>
      </trkpt>
      <trkpt lat="48.60179" lon="7.2933">
        <ele>761.1</ele>
      </trkpt>
      <trkpt lat="48.602" lon="7.29386">
        <ele>765.1</ele>
      </trkpt>
      <trkpt lat="48.60217" lon="7.2942">
        <ele>773</ele>
      </trkpt>
      <trkpt lat="48.60234" lon="7.29478">
        <ele>775.1</ele>
      </trkpt>
      <trkpt lat="48.6024" lon="7.29515">
        <ele>780.8</ele>
      </trkpt>
      <trkpt lat="48.60243" lon="7.29552">
        <ele>786.6</ele>
      </trkpt>
      <trkpt lat="48.60242" lon="7.29587">
        <ele>787</ele>
      </trkpt>
      <trkpt lat="48.60238" lon="7.29622">
        <ele>794.4</ele>
      </trkpt>
      <trkpt lat="48.60231" lon="7.29649">
        <ele>795.5</ele>
      </trkpt>
      <trkpt lat="48.60222" lon="7.29671">
        <ele>797.7</ele>
      </trkpt>
      <trkpt lat="48.60208" lon="7.29693">
        <ele>799.8</ele>
      </trkpt>
      <trkpt lat="48.60194" lon="7.297">
        <ele>800.9</ele>
      </trkpt>
      <trkpt lat="48.60178" lon="7.29712">
        <ele>801.4</ele>
      </trkpt>
      <trkpt lat="48.60163" lon="7.29727">
        <ele>805</ele>
      </trkpt>
      <trkpt lat="48.6014" lon="7.29731">
        <ele>805.3</ele>
      </trkpt>
      <trkpt lat="48.60069" lon="7.29686">
        <ele>808.4</ele>
      </trkpt>
      <trkpt lat="48.60019" lon="7.29645">
        <ele>823.4</ele>
      </trkpt>
      <trkpt lat="48.59872" lon="7.29495">
        <ele>851.2</ele>
      </trkpt>
      <trkpt lat="48.59834" lon="7.29486">
        <ele>845.4</ele>
      </trkpt>
      <trkpt lat="48.5979" lon="7.29494">
        <ele>852.4</ele>
      </trkpt>
      <trkpt lat="48.59763" lon="7.29516">
        <ele>839.1</ele>
      </trkpt>
      <trkpt lat="48.59655" lon="7.29702">
        <ele>846.4</ele>
      </trkpt>
      <trkpt lat="48.596" lon="7.29756">
        <ele>839.1</ele>
      </trkpt>
      <trkpt lat="48.59522" lon="7.29797">
        <ele>853.7</ele>
      </trkpt>
      <trkpt lat="48.59483" lon="7.29828">
        <ele>867.8</ele>
      </trkpt>
      <trkpt lat="48.59447" lon="7.29872">
        <ele>865.3</ele>
      </trkpt>
      <trkpt lat="48.59425" lon="7.29914">
        <ele>868.9</ele>
      </trkpt>
      <trkpt lat="48.59408" lon="7.29961">
        <ele>875.5</ele>
      </trkpt>
      <trkpt lat="48.59405" lon="7.29975">
        <ele>873.3</ele>
        <extensions>
          <visugpx:TrkExtension xmlns:visugpx="https://www.visugpx.com/editgpx/">
            <visugpx:node>131</visugpx:node>
            </visugpx:TrkExtension>
        </extensions>
      </trkpt>
      <trkpt lat="48.59392" lon="7.30025">
        <ele>865.9</ele>
      </trkpt>
      <trkpt lat="48.59367" lon="7.30141">
        <ele>856.6</ele>
      </trkpt>
      <trkpt lat="48.59343" lon="7.30206">
        <ele>852.7</ele>
      </trkpt>
      <trkpt lat="48.59298" lon="7.3028">
        <ele>868.7</ele>
      </trkpt>
      <trkpt lat="48.59259" lon="7.30366">
        <ele>863.2</ele>
      </trkpt>
      <trkpt lat="48.5918" lon="7.30554">
        <ele>859.5</ele>
      </trkpt>
      <trkpt lat="48.59165" lon="7.3057">
        <ele>863.2</ele>
      </trkpt>
      <trkpt lat="48.59144" lon="7.30567">
        <ele>863.4</ele>
      </trkpt>
      <trkpt lat="48.59121" lon="7.30538">
        <ele>864.6</ele>
      </trkpt>
      <trkpt lat="48.591" lon="7.30511">
        <ele>866.2</ele>
      </trkpt>
      <trkpt lat="48.59097" lon="7.3051">
        <ele>866.3</ele>
      </trkpt>
      <trkpt lat="48.59094" lon="7.30513">
        <ele>866.2</ele>
      </trkpt>
      <trkpt lat="48.59094" lon="7.30523">
        <ele>865.3</ele>
      </trkpt>
      <trkpt lat="48.59097" lon="7.30537">
        <ele>864</ele>
      </trkpt>
      <trkpt lat="48.59101" lon="7.30547">
        <ele>863</ele>
      </trkpt>
      <trkpt lat="48.59032" lon="7.30535">
        <ele>855.6</ele>
      </trkpt>
      <trkpt lat="48.59003" lon="7.30518">
        <ele>856.7</ele>
      </trkpt>
      <trkpt lat="48.58981" lon="7.30528">
        <ele>843.7</ele>
      </trkpt>
      <trkpt lat="48.58948" lon="7.30509">
        <ele>839.1</ele>
      </trkpt>
      <trkpt lat="48.58918" lon="7.30451">
        <ele>846.6</ele>
      </trkpt>
      <trkpt lat="48.58901" lon="7.30409">
        <ele>825.4</ele>
      </trkpt>
      <trkpt lat="48.58893" lon="7.30369">
        <ele>816.9</ele>
      </trkpt>
      <trkpt lat="48.589" lon="7.30302">
        <ele>812.4</ele>
      </trkpt>
      <trkpt lat="48.58925" lon="7.30216">
        <ele>834.1</ele>
      </trkpt>
      <trkpt lat="48.58953" lon="7.3011">
        <ele>820.6</ele>
      </trkpt>
      <trkpt lat="48.58972" lon="7.30024">
        <ele>809</ele>
        <extensions>
          <visugpx:TrkExtension xmlns:visugpx="https://www.visugpx.com/editgpx/">
            <visugpx:node>132</visugpx:node>
            </visugpx:TrkExtension>
        </extensions>
      </trkpt>
      <trkpt lat="48.58994" lon="7.29923">
        <ele>804.7</ele>
      </trkpt>
      <trkpt lat="48.58992" lon="7.29871">
        <ele>793.9</ele>
      </trkpt>
      <trkpt lat="48.58954" lon="7.2974">
        <ele>783.8</ele>
      </trkpt>
      <trkpt lat="48.58916" lon="7.29643">
        <ele>756</ele>
      </trkpt>
      <trkpt lat="48.58903" lon="7.29601">
        <ele>757.2</ele>
      </trkpt>
      <trkpt lat="48.58874" lon="7.29506">
        <ele>753</ele>
      </trkpt>
      <trkpt lat="48.58841" lon="7.29377">
        <ele>745.9</ele>
      </trkpt>
      <trkpt lat="48.58824" lon="7.2928">
        <ele>710.8</ele>
      </trkpt>
      <trkpt lat="48.58817" lon="7.29215">
        <ele>703.7</ele>
      </trkpt>
      <trkpt lat="48.5881" lon="7.29097">
        <ele>691.3</ele>
      </trkpt>
      <trkpt lat="48.58816" lon="7.29008">
        <ele>680.1</ele>
      </trkpt>
      <trkpt lat="48.58832" lon="7.2892">
        <ele>671.3</ele>
      </trkpt>
      <trkpt lat="48.58854" lon="7.28833">
        <ele>666.2</ele>
        <extensions>
          <visugpx:TrkExtension xmlns:visugpx="https://www.visugpx.com/editgpx/">
            <visugpx:node>134</visugpx:node>
            </visugpx:TrkExtension>
        </extensions>
      </trkpt>
      <trkpt lat="48.5887" lon="7.28771">
        <ele>665</ele>
      </trkpt>
      <trkpt lat="48.58873" lon="7.28747">
        <ele>657.4</ele>
      </trkpt>
      <trkpt lat="48.58876" lon="7.28727">
        <ele>656.9</ele>
      </trkpt>
      <trkpt lat="48.58857" lon="7.28735">
        <ele>655.4</ele>
      </trkpt>
      <trkpt lat="48.58809" lon="7.28755">
        <ele>649.2</ele>
      </trkpt>
      <trkpt lat="48.58699" lon="7.28806">
        <ele>620.9</ele>
      </trkpt>
      <trkpt lat="48.58691" lon="7.28804">
        <ele>619.4</ele>
      </trkpt>
      <trkpt lat="48.58679" lon="7.28776">
        <ele>616.7</ele>
      </trkpt>
      <trkpt lat="48.58674" lon="7.28767">
        <ele>614.5</ele>
      </trkpt>
      <trkpt lat="48.58673" lon="7.28774">
        <ele>615.7</ele>
      </trkpt>
      <trkpt lat="48.58668" lon="7.28787">
        <ele>616.7</ele>
        <extensions>
          <visugpx:TrkExtension xmlns:visugpx="https://www.visugpx.com/editgpx/">
            <visugpx:node>135</visugpx:node>
            </visugpx:TrkExtension>
        </extensions>
      </trkpt>
      <trkpt lat="48.58655" lon="7.28831">
        <ele>604.7</ele>
      </trkpt>
      <trkpt lat="48.58651" lon="7.28848">
        <ele>606</ele>
      </trkpt>
      <trkpt lat="48.58645" lon="7.28882">
        <ele>606.6</ele>
      </trkpt>
      <trkpt lat="48.58641" lon="7.28907">
        <ele>608.3</ele>
      </trkpt>
      <trkpt lat="48.58631" lon="7.28991">
        <ele>615.8</ele>
      </trkpt>
      <trkpt lat="48.58625" lon="7.29026">
        <ele>622.7</ele>
      </trkpt>
      <trkpt lat="48.58617" lon="7.29059">
        <ele>624.2</ele>
      </trkpt>
      <trkpt lat="48.58577" lon="7.29174">
        <ele>632</ele>
      </trkpt>
      <trkpt lat="48.58529" lon="7.29296">
        <ele>638.3</ele>
      </trkpt>
      <trkpt lat="48.58521" lon="7.29331">
        <ele>638</ele>
      </trkpt>
      <trkpt lat="48.58516" lon="7.29362">
        <ele>639.1</ele>
      </trkpt>
      <trkpt lat="48.58517" lon="7.29387">
        <ele>638.7</ele>
      </trkpt>
      <trkpt lat="48.5852" lon="7.2941">
        <ele>637.6</ele>
      </trkpt>
      <trkpt lat="48.58526" lon="7.29441">
        <ele>638.1</ele>
      </trkpt>
      <trkpt lat="48.58543" lon="7.29491">
        <ele>639.5</ele>
      </trkpt>
      <trkpt lat="48.58544" lon="7.29495">
        <ele>639.6</ele>
        <extensions>
          <visugpx:TrkExtension xmlns:visugpx="https://www.visugpx.com/editgpx/">
            <visugpx:node>136</visugpx:node>
            </visugpx:TrkExtension>
        </extensions>
      </trkpt>
      <trkpt lat="48.58566" lon="7.29547">
        <ele>637.4</ele>
      </trkpt>
      <trkpt lat="48.58588" lon="7.29606">
        <ele>643</ele>
      </trkpt>
      <trkpt lat="48.58594" lon="7.29646">
        <ele>640.2</ele>
      </trkpt>
      <trkpt lat="48.58594" lon="7.29681">
        <ele>635.4</ele>
      </trkpt>
      <trkpt lat="48.58593" lon="7.29697">
        <ele>636.3</ele>
      </trkpt>
      <trkpt lat="48.5859" lon="7.29725">
        <ele>634.1</ele>
      </trkpt>
      <trkpt lat="48.58588" lon="7.29742">
        <ele>629.6</ele>
      </trkpt>
      <trkpt lat="48.58578" lon="7.29755">
        <ele>622.8</ele>
      </trkpt>
      <trkpt lat="48.58567" lon="7.29781">
        <ele>619.3</ele>
      </trkpt>
      <trkpt lat="48.58553" lon="7.29834">
        <ele>623</ele>
      </trkpt>
      <trkpt lat="48.58549" lon="7.29878">
        <ele>623.2</ele>
      </trkpt>
      <trkpt lat="48.58534" lon="7.29931">
        <ele>626.1</ele>
      </trkpt>
      <trkpt lat="48.58522" lon="7.29952">
        <ele>626</ele>
      </trkpt>
      <trkpt lat="48.58502" lon="7.29981">
        <ele>625.8</ele>
      </trkpt>
      <trkpt lat="48.58493" lon="7.30016">
        <ele>620.2</ele>
      </trkpt>
      <trkpt lat="48.58481" lon="7.30045">
        <ele>618</ele>
      </trkpt>
      <trkpt lat="48.58452" lon="7.30128">
        <ele>618.8</ele>
      </trkpt>
      <trkpt lat="48.58449" lon="7.30156">
        <ele>618.5</ele>
      </trkpt>
      <trkpt lat="48.58447" lon="7.30206">
        <ele>621.6</ele>
      </trkpt>
      <trkpt lat="48.58439" lon="7.30229">
        <ele>620</ele>
      </trkpt>
      <trkpt lat="48.58427" lon="7.30257">
        <ele>617.3</ele>
        <extensions>
          <visugpx:TrkExtension xmlns:visugpx="https://www.visugpx.com/editgpx/">
            <visugpx:node>137</visugpx:node>
            </visugpx:TrkExtension>
        </extensions>
      </trkpt>
      <trkpt lat="48.58417" lon="7.3028">
        <ele>620.6</ele>
      </trkpt>
      <trkpt lat="48.58418" lon="7.30304">
        <ele>621.5</ele>
      </trkpt>
      <trkpt lat="48.5841" lon="7.30337">
        <ele>612.2</ele>
      </trkpt>
      <trkpt lat="48.58416" lon="7.30395">
        <ele>611.1</ele>
      </trkpt>
      <trkpt lat="48.58409" lon="7.3041">
        <ele>613.6</ele>
      </trkpt>
      <trkpt lat="48.58411" lon="7.30432">
        <ele>614.4</ele>
      </trkpt>
      <trkpt lat="48.5841" lon="7.30468">
        <ele>613.8</ele>
      </trkpt>
      <trkpt lat="48.58381" lon="7.3051">
        <ele>615.5</ele>
      </trkpt>
      <trkpt lat="48.58366" lon="7.30528">
        <ele>614.2</ele>
      </trkpt>
      <trkpt lat="48.5833" lon="7.30547">
        <ele>607.7</ele>
      </trkpt>
      <trkpt lat="48.58297" lon="7.30539">
        <ele>607</ele>
      </trkpt>
      <trkpt lat="48.58256" lon="7.30685">
        <ele>600.3</ele>
      </trkpt>
      <trkpt lat="48.5823" lon="7.30774">
        <ele>584.8</ele>
      </trkpt>
      <trkpt lat="48.58219" lon="7.30854">
        <ele>578.3</ele>
      </trkpt>
      <trkpt lat="48.58219" lon="7.30898">
        <ele>575.7</ele>
      </trkpt>
      <trkpt lat="48.58238" lon="7.30905">
        <ele>577</ele>
      </trkpt>
      <trkpt lat="48.58268" lon="7.30925">
        <ele>577.8</ele>
      </trkpt>
      <trkpt lat="48.58268" lon="7.30972">
        <ele>574.7</ele>
      </trkpt>
      <trkpt lat="48.5826" lon="7.30993">
        <ele>571.8</ele>
      </trkpt>
      <trkpt lat="48.58199" lon="7.31017">
        <ele>575</ele>
      </trkpt>
      <trkpt lat="48.58074" lon="7.31026">
        <ele>571.1</ele>
      </trkpt>
      <trkpt lat="48.58041" lon="7.31">
        <ele>557.6</ele>
      </trkpt>
      <trkpt lat="48.58019" lon="7.31008">
        <ele>564.4</ele>
      </trkpt>
      <trkpt lat="48.58004" lon="7.31049">
        <ele>570.1</ele>
      </trkpt>
      <trkpt lat="48.58003" lon="7.31097">
        <ele>579.7</ele>
      </trkpt>
      <trkpt lat="48.57982" lon="7.31153">
        <ele>578.4</ele>
      </trkpt>
      <trkpt lat="48.57934" lon="7.31187">
        <ele>582.1</ele>
      </trkpt>
      <trkpt lat="48.57911" lon="7.31222">
        <ele>581.9</ele>
      </trkpt>
      <trkpt lat="48.5787" lon="7.31302">
        <ele>589</ele>
      </trkpt>
      <trkpt lat="48.57858" lon="7.3133">
        <ele>589.4</ele>
      </trkpt>
      <trkpt lat="48.57854" lon="7.31365">
        <ele>589.8</ele>
      </trkpt>
      <trkpt lat="48.57856" lon="7.31385">
        <ele>589.5</ele>
      </trkpt>
      <trkpt lat="48.57843" lon="7.31393">
        <ele>589</ele>
      </trkpt>
      <trkpt lat="48.5777" lon="7.3146">
        <ele>587.9</ele>
      </trkpt>
      <trkpt lat="48.57742" lon="7.31474">
        <ele>588.2</ele>
        <extensions>
          <visugpx:TrkExtension xmlns:visugpx="https://www.visugpx.com/editgpx/">
            <visugpx:node>138</visugpx:node>
            </visugpx:TrkExtension>
        </extensions>
      </trkpt>
      <trkpt lat="48.57715" lon="7.31488">
        <ele>587.9</ele>
      </trkpt>
      <trkpt lat="48.57693" lon="7.31509">
        <ele>580.6</ele>
      </trkpt>
      <trkpt lat="48.57691" lon="7.31546">
        <ele>579.2</ele>
      </trkpt>
      <trkpt lat="48.57689" lon="7.31638">
        <ele>575.3</ele>
      </trkpt>
      <trkpt lat="48.57678" lon="7.31683">
        <ele>575.2</ele>
      </trkpt>
      <trkpt lat="48.57655" lon="7.317">
        <ele>568</ele>
      </trkpt>
      <trkpt lat="48.57631" lon="7.31674">
        <ele>566.9</ele>
      </trkpt>
      <trkpt lat="48.57594" lon="7.31627">
        <ele>568.1</ele>
      </trkpt>
      <trkpt lat="48.57573" lon="7.31624">
        <ele>563</ele>
      </trkpt>
      <trkpt lat="48.57562" lon="7.31623">
        <ele>562.6</ele>
      </trkpt>
      <trkpt lat="48.57545" lon="7.31611">
        <ele>562.2</ele>
      </trkpt>
      <trkpt lat="48.57501" lon="7.31607">
        <ele>560.8</ele>
      </trkpt>
      <trkpt lat="48.57411" lon="7.31629">
        <ele>555.3</ele>
      </trkpt>
      <trkpt lat="48.57325" lon="7.31622">
        <ele>553.9</ele>
      </trkpt>
      <trkpt lat="48.57302" lon="7.31621">
        <ele>553</ele>
      </trkpt>
      <trkpt lat="48.57216" lon="7.31668">
        <ele>518.9</ele>
        <extensions>
          <visugpx:TrkExtension xmlns:visugpx="https://www.visugpx.com/editgpx/">
            <visugpx:node>140</visugpx:node>
            </visugpx:TrkExtension>
        </extensions>
      </trkpt>
      <trkpt lat="48.57145" lon="7.31707">
        <ele>505</ele>
      </trkpt>
      <trkpt lat="48.57099" lon="7.31684">
        <ele>508.7</ele>
      </trkpt>
      <trkpt lat="48.57064" lon="7.31681">
        <ele>507.4</ele>
      </trkpt>
      <trkpt lat="48.57064" lon="7.3168">
        <ele>507.5</ele>
        <extensions>
          <visugpx:TrkExtension xmlns:visugpx="https://www.visugpx.com/editgpx/">
            <visugpx:node>141</visugpx:node>
            </visugpx:TrkExtension>
        </extensions>
      </trkpt>
      <trkpt lat="48.56997" lon="7.31672">
        <ele>511.1</ele>
      </trkpt>
      <trkpt lat="48.56939" lon="7.31669">
        <ele>508.1</ele>
      </trkpt>
      <trkpt lat="48.56913" lon="7.31681">
        <ele>513.5</ele>
      </trkpt>
      <trkpt lat="48.56895" lon="7.3172">
        <ele>513.3</ele>
      </trkpt>
      <trkpt lat="48.56887" lon="7.318">
        <ele>507.4</ele>
      </trkpt>
      <trkpt lat="48.56855" lon="7.31911">
        <ele>504.2</ele>
      </trkpt>
      <trkpt lat="48.56845" lon="7.31994">
        <ele>493.7</ele>
      </trkpt>
      <trkpt lat="48.56831" lon="7.32056">
        <ele>498.6</ele>
        <extensions>
          <visugpx:TrkExtension xmlns:visugpx="https://www.visugpx.com/editgpx/">
            <visugpx:node>142</visugpx:node>
            </visugpx:TrkExtension>
        </extensions>
      </trkpt>
      <trkpt lat="48.56827" lon="7.32066">
        <ele>495</ele>
      </trkpt>
      <trkpt lat="48.56811" lon="7.32119">
        <ele>488.5</ele>
      </trkpt>
      <trkpt lat="48.56799" lon="7.32147">
        <ele>487.9</ele>
      </trkpt>
      <trkpt lat="48.56783" lon="7.322">
        <ele>477.1</ele>
      </trkpt>
      <trkpt lat="48.56757" lon="7.32269">
        <ele>467.5</ele>
      </trkpt>
      <trkpt lat="48.56727" lon="7.32336">
        <ele>462.7</ele>
      </trkpt>
      <trkpt lat="48.56721" lon="7.32345">
        <ele>463.3</ele>
      </trkpt>
      <trkpt lat="48.56717" lon="7.32352">
        <ele>463.4</ele>
      </trkpt>
      <trkpt lat="48.56707" lon="7.32364">
        <ele>463.8</ele>
      </trkpt>
      <trkpt lat="48.56674" lon="7.32399">
        <ele>462.7</ele>
      </trkpt>
      <trkpt lat="48.56609" lon="7.32434">
        <ele>458.4</ele>
      </trkpt>
      <trkpt lat="48.56568" lon="7.32461">
        <ele>460.5</ele>
      </trkpt>
      <trkpt lat="48.56557" lon="7.32474">
        <ele>458.8</ele>
      </trkpt>
      <trkpt lat="48.56513" lon="7.32508">
        <ele>445.9</ele>
      </trkpt>
      <trkpt lat="48.56496" lon="7.32519">
        <ele>450</ele>
      </trkpt>
      <trkpt lat="48.56485" lon="7.32532">
        <ele>448.3</ele>
      </trkpt>
      <trkpt lat="48.56459" lon="7.32555">
        <ele>446.6</ele>
        <extensions>
          <visugpx:TrkExtension xmlns:visugpx="https://www.visugpx.com/editgpx/">
            <visugpx:node>143</visugpx:node>
            </visugpx:TrkExtension>
        </extensions>
      </trkpt>
      <trkpt lat="48.56458" lon="7.32556">
        <ele>446.5</ele>
      </trkpt>
      <trkpt lat="48.5643" lon="7.32573">
        <ele>445.1</ele>
      </trkpt>
      <trkpt lat="48.56386" lon="7.32611">
        <ele>440</ele>
      </trkpt>
      <trkpt lat="48.56364" lon="7.32623">
        <ele>440.4</ele>
      </trkpt>
      <trkpt lat="48.56331" lon="7.32647">
        <ele>446</ele>
      </trkpt>
      <trkpt lat="48.56289" lon="7.32695">
        <ele>433.2</ele>
      </trkpt>
      <trkpt lat="48.56258" lon="7.32723">
        <ele>431.3</ele>
      </trkpt>
      <trkpt lat="48.56247" lon="7.3274">
        <ele>435.3</ele>
      </trkpt>
      <trkpt lat="48.56207" lon="7.32808">
        <ele>423.6</ele>
      </trkpt>
      <trkpt lat="48.56161" lon="7.32858">
        <ele>414.2</ele>
      </trkpt>
      <trkpt lat="48.56144" lon="7.3287">
        <ele>410.8</ele>
      </trkpt>
      <trkpt lat="48.56133" lon="7.3288">
        <ele>409</ele>
      </trkpt>
      <trkpt lat="48.561" lon="7.32886">
        <ele>407.7</ele>
      </trkpt>
      <trkpt lat="48.56074" lon="7.32887">
        <ele>400.7</ele>
      </trkpt>
      <trkpt lat="48.56041" lon="7.32885">
        <ele>397.9</ele>
      </trkpt>
      <trkpt lat="48.56008" lon="7.32866">
        <ele>397</ele>
      </trkpt>
      <trkpt lat="48.55966" lon="7.32852">
        <ele>388.3</ele>
      </trkpt>
      <trkpt lat="48.55945" lon="7.32856">
        <ele>387.1</ele>
      </trkpt>
      <trkpt lat="48.5592" lon="7.32851">
        <ele>387.7</ele>
      </trkpt>
      <trkpt lat="48.55904" lon="7.32851">
        <ele>384.1</ele>
      </trkpt>
      <trkpt lat="48.55863" lon="7.32859">
        <ele>380.7</ele>
      </trkpt>
      <trkpt lat="48.55847" lon="7.32858">
        <ele>380.6</ele>
      </trkpt>
      <trkpt lat="48.55794" lon="7.32872">
        <ele>370.2</ele>
      </trkpt>
      <trkpt lat="48.55769" lon="7.32883">
        <ele>367.1</ele>
      </trkpt>
      <trkpt lat="48.55752" lon="7.32892">
        <ele>364.5</ele>
      </trkpt>
      <trkpt lat="48.5574" lon="7.3289">
        <ele>356.4</ele>
      </trkpt>
      <trkpt lat="48.5572" lon="7.32886">
        <ele>355.4</ele>
      </trkpt>
      <trkpt lat="48.55681" lon="7.32868">
        <ele>353.6</ele>
      </trkpt>
      <trkpt lat="48.55678" lon="7.32864">
        <ele>353.8</ele>
        <extensions>
          <visugpx:TrkExtension xmlns:visugpx="https://www.visugpx.com/editgpx/">
            <visugpx:node>144</visugpx:node>
            </visugpx:TrkExtension>
        </extensions>
      </trkpt>
      <trkpt lat="48.55669" lon="7.32853">
        <ele>354.1</ele>
      </trkpt>
      <trkpt lat="48.55659" lon="7.32834">
        <ele>350</ele>
      </trkpt>
      <trkpt lat="48.55654" lon="7.32808">
        <ele>350.6</ele>
      </trkpt>
      <trkpt lat="48.55625" lon="7.32738">
        <ele>355.9</ele>
      </trkpt>
      <trkpt lat="48.55606" lon="7.32705">
        <ele>356.3</ele>
      </trkpt>
      <trkpt lat="48.55592" lon="7.32704">
        <ele>355.6</ele>
      </trkpt>
      <trkpt lat="48.55569" lon="7.32711">
        <ele>345.4</ele>
      </trkpt>
      <trkpt lat="48.55553" lon="7.32713">
        <ele>344.2</ele>
      </trkpt>
      <trkpt lat="48.55536" lon="7.32694">
        <ele>344.6</ele>
      </trkpt>
      <trkpt lat="48.55519" lon="7.32689">
        <ele>344.1</ele>
      </trkpt>
      <trkpt lat="48.55471" lon="7.32678">
        <ele>335.8</ele>
      </trkpt>
      <trkpt lat="48.55453" lon="7.32682">
        <ele>333.5</ele>
      </trkpt>
      <trkpt lat="48.55445" lon="7.32685">
        <ele>332.8</ele>
      </trkpt>
      <trkpt lat="48.55432" lon="7.32695">
        <ele>331.5</ele>
      </trkpt>
      <trkpt lat="48.55418" lon="7.32701">
        <ele>330.4</ele>
      </trkpt>
      <trkpt lat="48.55379" lon="7.32702">
        <ele>320.6</ele>
      </trkpt>
      <trkpt lat="48.55321" lon="7.32743">
        <ele>309.1</ele>
      </trkpt>
      <trkpt lat="48.55299" lon="7.32768">
        <ele>303.9</ele>
      </trkpt>
      <trkpt lat="48.55298" lon="7.32755">
        <ele>304.2</ele>
      </trkpt>
      <trkpt lat="48.55306" lon="7.32708">
        <ele>310</ele>
      </trkpt>
      <trkpt lat="48.55304" lon="7.32695">
        <ele>310.6</ele>
      </trkpt>
      <trkpt lat="48.55296" lon="7.3269">
        <ele>310.3</ele>
      </trkpt>
      <trkpt lat="48.55281" lon="7.32693">
        <ele>309.3</ele>
      </trkpt>
      <trkpt lat="48.55243" lon="7.32706">
        <ele>301</ele>
      </trkpt>
      <trkpt lat="48.55182" lon="7.32726">
        <ele>296.1</ele>
      </trkpt>
      <trkpt lat="48.55146" lon="7.32733">
        <ele>288.8</ele>
      </trkpt>
      <trkpt lat="48.55081" lon="7.32733">
        <ele>280.7</ele>
        <extensions>
          <visugpx:TrkExtension xmlns:visugpx="https://www.visugpx.com/editgpx/">
            <visugpx:node>145</visugpx:node>
            </visugpx:TrkExtension>
        </extensions>
      </trkpt>
      <trkpt lat="48.55076" lon="7.32733">
        <ele>280.6</ele>
      </trkpt>
      <trkpt lat="48.55074" lon="7.32789">
        <ele>280.2</ele>
      </trkpt>
      <trkpt lat="48.55074" lon="7.32813">
        <ele>280.5</ele>
      </trkpt>
      <trkpt lat="48.55081" lon="7.32874">
        <ele>280.4</ele>
      </trkpt>
      <trkpt lat="48.55082" lon="7.32891">
        <ele>280.6</ele>
      </trkpt>
      <trkpt lat="48.55081" lon="7.32904">
        <ele>281.1</ele>
      </trkpt>
      <trkpt lat="48.55068" lon="7.32956">
        <ele>280.4</ele>
      </trkpt>
      <trkpt lat="48.55066" lon="7.32976">
        <ele>280.5</ele>
      </trkpt>
      <trkpt lat="48.55064" lon="7.33004">
        <ele>280.8</ele>
      </trkpt>
      <trkpt lat="48.55038" lon="7.33006">
        <ele>279.9</ele>
      </trkpt>
      <trkpt lat="48.5502" lon="7.33001">
        <ele>279.2</ele>
      </trkpt>
      <trkpt lat="48.55014" lon="7.32999">
        <ele>278.8</ele>
      </trkpt>
      <trkpt lat="48.55008" lon="7.3302">
        <ele>279.1</ele>
      </trkpt>
      <trkpt lat="48.54999" lon="7.33041">
        <ele>276.9</ele>
      </trkpt>
      <trkpt lat="48.54978" lon="7.33072">
        <ele>277</ele>
      </trkpt>
      <trkpt lat="48.54963" lon="7.33095">
        <ele>277</ele>
      </trkpt>
      <trkpt lat="48.54961" lon="7.33092">
        <ele>276.9</ele>
      </trkpt>
      <trkpt lat="48.54954" lon="7.33086">
        <ele>276.6</ele>
      </trkpt>
      <trkpt lat="48.54891" lon="7.3308">
        <ele>272.2</ele>
      </trkpt>
      <trkpt lat="48.54877" lon="7.33076">
        <ele>271.6</ele>
      </trkpt>
      <trkpt lat="48.54856" lon="7.3308">
        <ele>270.6</ele>
      </trkpt>
      <trkpt lat="48.54832" lon="7.33092">
        <ele>268.8</ele>
      </trkpt>
      <trkpt lat="48.54787" lon="7.33135">
        <ele>268.2</ele>
      </trkpt>
      <trkpt lat="48.54771" lon="7.33142">
        <ele>267.9</ele>
      </trkpt>
      <trkpt lat="48.54734" lon="7.33135">
        <ele>265.6</ele>
      </trkpt>
      <trkpt lat="48.54716" lon="7.33135">
        <ele>265.2</ele>
      </trkpt>
      <trkpt lat="48.54681" lon="7.33141">
        <ele>264.3</ele>
      </trkpt>
      <trkpt lat="48.54667" lon="7.33139">
        <ele>264.1</ele>
      </trkpt>
      <trkpt lat="48.54638" lon="7.33123">
        <ele>262.6</ele>
      </trkpt>
      <trkpt lat="48.54632" lon="7.33122">
        <ele>262.5</ele>
      </trkpt>
      <trkpt lat="48.54625" lon="7.33123">
        <ele>262.5</ele>
      </trkpt>
      <trkpt lat="48.54569" lon="7.33131">
        <ele>262.3</ele>
      </trkpt>
      <trkpt lat="48.54567" lon="7.33131">
        <ele>262.4</ele>
        <extensions>
          <visugpx:TrkExtension xmlns:visugpx="https://www.visugpx.com/editgpx/">
            <visugpx:node>146</visugpx:node>
            </visugpx:TrkExtension>
        </extensions>
      </trkpt>
      <trkpt lat="48.5451" lon="7.33127">
        <ele>262.7</ele>
      </trkpt>
      <trkpt lat="48.54477" lon="7.33127">
        <ele>264.4</ele>
      </trkpt>
      <trkpt lat="48.54465" lon="7.3313">
        <ele>264.6</ele>
      </trkpt>
      <trkpt lat="48.54453" lon="7.33135">
        <ele>264.9</ele>
      </trkpt>
      <trkpt lat="48.54409" lon="7.33158">
        <ele>268.3</ele>
      </trkpt>
      <trkpt lat="48.54278" lon="7.33232">
        <ele>281.5</ele>
      </trkpt>
      <trkpt lat="48.5419" lon="7.33309">
        <ele>287.5</ele>
      </trkpt>
      <trkpt lat="48.54181" lon="7.33316">
        <ele>287.8</ele>
      </trkpt>
      <trkpt lat="48.54176" lon="7.33318">
        <ele>288</ele>
      </trkpt>
      <trkpt lat="48.54168" lon="7.33322">
        <ele>288.3</ele>
      </trkpt>
      <trkpt lat="48.54034" lon="7.33364">
        <ele>290.6</ele>
      </trkpt>
      <trkpt lat="48.54024" lon="7.3337">
        <ele>290.6</ele>
      </trkpt>
      <trkpt lat="48.54018" lon="7.33379">
        <ele>290.5</ele>
      </trkpt>
      <trkpt lat="48.54007" lon="7.33404">
        <ele>290.2</ele>
      </trkpt>
      <trkpt lat="48.53994" lon="7.33436">
        <ele>289.8</ele>
      </trkpt>
      <trkpt lat="48.53985" lon="7.33451">
        <ele>289.8</ele>
      </trkpt>
      <trkpt lat="48.53961" lon="7.33481">
        <ele>289.9</ele>
      </trkpt>
      <trkpt lat="48.5394" lon="7.335">
        <ele>290.2</ele>
      </trkpt>
      <trkpt lat="48.53924" lon="7.33511">
        <ele>291.4</ele>
      </trkpt>
      <trkpt lat="48.53909" lon="7.33517">
        <ele>292.7</ele>
      </trkpt>
      <trkpt lat="48.53877" lon="7.33527">
        <ele>293.8</ele>
      </trkpt>
      <trkpt lat="48.53865" lon="7.33531">
        <ele>294.1</ele>
      </trkpt>
      <trkpt lat="48.53847" lon="7.33533">
        <ele>294.3</ele>
      </trkpt>
      <trkpt lat="48.5383" lon="7.33534">
        <ele>296.9</ele>
      </trkpt>
      <trkpt lat="48.5381" lon="7.3353">
        <ele>297.2</ele>
      </trkpt>
      <trkpt lat="48.53799" lon="7.33525">
        <ele>297.5</ele>
      </trkpt>
      <trkpt lat="48.53785" lon="7.33516">
        <ele>297.9</ele>
      </trkpt>
      <trkpt lat="48.53753" lon="7.33476">
        <ele>295.8</ele>
      </trkpt>
      <trkpt lat="48.53716" lon="7.33439">
        <ele>297.3</ele>
      </trkpt>
      <trkpt lat="48.53702" lon="7.33423">
        <ele>297.3</ele>
      </trkpt>
      <trkpt lat="48.53681" lon="7.33388">
        <ele>294.3</ele>
      </trkpt>
      <trkpt lat="48.53603" lon="7.33298">
        <ele>291.7</ele>
      </trkpt>
      <trkpt lat="48.53591" lon="7.33288">
        <ele>291.6</ele>
      </trkpt>
      <trkpt lat="48.53572" lon="7.33277">
        <ele>291.9</ele>
      </trkpt>
      <trkpt lat="48.53561" lon="7.33269">
        <ele>291.8</ele>
        <extensions>
          <visugpx:TrkExtension xmlns:visugpx="https://www.visugpx.com/editgpx/">
            <visugpx:node>147</visugpx:node>
            </visugpx:TrkExtension>
        </extensions>
      </trkpt>
      <trkpt lat="48.53483" lon="7.33208">
        <ele>287.4</ele>
      </trkpt>
      <trkpt lat="48.53466" lon="7.33199">
        <ele>286.6</ele>
      </trkpt>
      <trkpt lat="48.53416" lon="7.33183">
        <ele>280.1</ele>
      </trkpt>
      <trkpt lat="48.53339" lon="7.33181">
        <ele>275.8</ele>
      </trkpt>
      <trkpt lat="48.53315" lon="7.33183">
        <ele>271.5</ele>
      </trkpt>
      <trkpt lat="48.53251" lon="7.33194">
        <ele>267.6</ele>
      </trkpt>
      <trkpt lat="48.53219" lon="7.3321">
        <ele>261.2</ele>
      </trkpt>
      <trkpt lat="48.53205" lon="7.33211">
        <ele>260.4</ele>
      </trkpt>
      <trkpt lat="48.53178" lon="7.33204">
        <ele>258.8</ele>
      </trkpt>
      <trkpt lat="48.5317" lon="7.332">
        <ele>258.3</ele>
      </trkpt>
      <trkpt lat="48.53164" lon="7.33193">
        <ele>254</ele>
      </trkpt>
      <trkpt lat="48.53161" lon="7.33201">
        <ele>254.1</ele>
      </trkpt>
      <trkpt lat="48.53157" lon="7.33207">
        <ele>254.1</ele>
      </trkpt>
      <trkpt lat="48.53133" lon="7.33216">
        <ele>253.8</ele>
      </trkpt>
      <trkpt lat="48.53095" lon="7.33223">
        <ele>252.9</ele>
      </trkpt>
      <trkpt lat="48.53082" lon="7.33228">
        <ele>250.9</ele>
      </trkpt>
      <trkpt lat="48.53021" lon="7.33257">
        <ele>248.8</ele>
      </trkpt>
      <trkpt lat="48.53001" lon="7.33279">
        <ele>248.7</ele>
      </trkpt>
      <trkpt lat="48.52969" lon="7.33321">
        <ele>246.5</ele>
      </trkpt>
      <trkpt lat="48.52917" lon="7.33381">
        <ele>245.1</ele>
      </trkpt>
      <trkpt lat="48.52908" lon="7.33397">
        <ele>243.5</ele>
      </trkpt>
      <trkpt lat="48.52884" lon="7.33449">
        <ele>242.8</ele>
      </trkpt>
      <trkpt lat="48.52858" lon="7.33475">
        <ele>242.6</ele>
      </trkpt>
      <trkpt lat="48.52799" lon="7.33521">
        <ele>241</ele>
      </trkpt>
      <trkpt lat="48.52777" lon="7.33553">
        <ele>240.6</ele>
      </trkpt>
      <trkpt lat="48.52769" lon="7.33561">
        <ele>240.5</ele>
      </trkpt>
      <trkpt lat="48.5276" lon="7.33564">
        <ele>240.5</ele>
      </trkpt>
      <trkpt lat="48.52717" lon="7.33567">
        <ele>239.4</ele>
      </trkpt>
      <trkpt lat="48.52709" lon="7.33578">
        <ele>239.2</ele>
      </trkpt>
      <trkpt lat="48.52673" lon="7.33612">
        <ele>238</ele>
      </trkpt>
      <trkpt lat="48.52669" lon="7.33614">
        <ele>238</ele>
      </trkpt>
      <trkpt lat="48.52667" lon="7.33602">
        <ele>237.8</ele>
      </trkpt>
      <trkpt lat="48.52661" lon="7.33604">
        <ele>236.1</ele>
      </trkpt>
      <trkpt lat="48.52618" lon="7.33674">
        <ele>235.3</ele>
      </trkpt>
      <trkpt lat="48.52605" lon="7.33698">
        <ele>235.1</ele>
      </trkpt>
      <trkpt lat="48.52603" lon="7.33703">
        <ele>235.1</ele>
      </trkpt>
      <trkpt lat="48.52601" lon="7.33709">
        <ele>235</ele>
      </trkpt>
      <trkpt lat="48.52598" lon="7.33732">
        <ele>234.7</ele>
      </trkpt>
      <trkpt lat="48.52598" lon="7.33754">
        <ele>234.3</ele>
      </trkpt>
      <trkpt lat="48.52599" lon="7.33801">
        <ele>234.9</ele>
      </trkpt>
      <trkpt lat="48.52599" lon="7.33853">
        <ele>234.4</ele>
      </trkpt>
      <trkpt lat="48.52599" lon="7.33862">
        <ele>234.5</ele>
      </trkpt>
      <trkpt lat="48.52599" lon="7.33876">
        <ele>234.5</ele>
      </trkpt>
      <trkpt lat="48.52596" lon="7.33938">
        <ele>234</ele>
      </trkpt>
      <trkpt lat="48.52596" lon="7.3396">
        <ele>234.4</ele>
        <extensions>
          <visugpx:TrkExtension xmlns:visugpx="https://www.visugpx.com/editgpx/">
            <visugpx:node>149</visugpx:node>
            </visugpx:TrkExtension>
        </extensions>
      </trkpt>
      <trkpt lat="48.52595" lon="7.34012">
        <ele>233.9</ele>
      </trkpt>
      <trkpt lat="48.52609" lon="7.34145">
        <ele>233.7</ele>
      </trkpt>
      <trkpt lat="48.52612" lon="7.34313">
        <ele>234.6</ele>
      </trkpt>
      <trkpt lat="48.52618" lon="7.34355">
        <ele>234.9</ele>
      </trkpt>
      <trkpt lat="48.52645" lon="7.34479">
        <ele>235.6</ele>
      </trkpt>
      <trkpt lat="48.52653" lon="7.34508">
        <ele>235.9</ele>
      </trkpt>
      <trkpt lat="48.52656" lon="7.34515">
        <ele>235.8</ele>
      </trkpt>
      <trkpt lat="48.52618" lon="7.34608">
        <ele>234.8</ele>
      </trkpt>
      <trkpt lat="48.52606" lon="7.34635">
        <ele>234.5</ele>
      </trkpt>
      <trkpt lat="48.526" lon="7.34649">
        <ele>234.2</ele>
      </trkpt>
      <trkpt lat="48.52596" lon="7.34651">
        <ele>234.1</ele>
      </trkpt>
      <trkpt lat="48.52593" lon="7.34653">
        <ele>234</ele>
      </trkpt>
      <trkpt lat="48.5259" lon="7.34657">
        <ele>233.7</ele>
      </trkpt>
      <trkpt lat="48.52589" lon="7.34662">
        <ele>233.5</ele>
      </trkpt>
      <trkpt lat="48.52588" lon="7.34667">
        <ele>233.3</ele>
      </trkpt>
      <trkpt lat="48.5258" lon="7.34684">
        <ele>232</ele>
      </trkpt>
      <trkpt lat="48.52574" lon="7.34706">
        <ele>231.5</ele>
      </trkpt>
      <trkpt lat="48.5257" lon="7.34719">
        <ele>231.5</ele>
      </trkpt>
      <trkpt lat="48.52537" lon="7.34805">
        <ele>229.5</ele>
      </trkpt>
      <trkpt lat="48.52522" lon="7.34855">
        <ele>228.6</ele>
      </trkpt>
      <trkpt lat="48.52505" lon="7.34937">
        <ele>228.6</ele>
      </trkpt>
      <trkpt lat="48.52488" lon="7.35039">
        <ele>230.1</ele>
      </trkpt>
      <trkpt lat="48.52476" lon="7.35106">
        <ele>231.9</ele>
      </trkpt>
      <trkpt lat="48.5247" lon="7.35153">
        <ele>232.8</ele>
      </trkpt>
      <trkpt lat="48.52469" lon="7.35166">
        <ele>232.9</ele>
      </trkpt>
      <trkpt lat="48.52469" lon="7.35173">
        <ele>233.8</ele>
      </trkpt>
      <trkpt lat="48.52468" lon="7.35187">
        <ele>233.7</ele>
      </trkpt>
      <trkpt lat="48.52469" lon="7.35207">
        <ele>233.7</ele>
      </trkpt>
      <trkpt lat="48.5247" lon="7.35229">
        <ele>234</ele>
      </trkpt>
      <trkpt lat="48.52473" lon="7.35265">
        <ele>234.6</ele>
      </trkpt>
      <trkpt lat="48.52476" lon="7.3529">
        <ele>234.5</ele>
      </trkpt>
      <trkpt lat="48.5248" lon="7.35305">
        <ele>234.9</ele>
      </trkpt>
      <trkpt lat="48.52513" lon="7.35448">
        <ele>239.2</ele>
      </trkpt>
      <trkpt lat="48.52524" lon="7.35512">
        <ele>237.9</ele>
      </trkpt>
      <trkpt lat="48.52524" lon="7.35534">
        <ele>238.1</ele>
      </trkpt>
      <trkpt lat="48.52522" lon="7.35561">
        <ele>237.8</ele>
      </trkpt>
      <trkpt lat="48.52513" lon="7.35607">
        <ele>238.5</ele>
      </trkpt>
      <trkpt lat="48.52507" lon="7.35624">
        <ele>238.9</ele>
        <extensions>
          <visugpx:TrkExtension xmlns:visugpx="https://www.visugpx.com/editgpx/">
            <visugpx:node>150</visugpx:node>
            </visugpx:TrkExtension>
        </extensions>
      </trkpt>
      <trkpt lat="48.52524" lon="7.35862">
        <ele>260.9</ele>
        <extensions>
          <visugpx:TrkExtension xmlns:visugpx="https://www.visugpx.com/editgpx/">
            <visugpx:node>152</visugpx:node>
            </visugpx:TrkExtension>
        </extensions>
      </trkpt>
      <trkpt lat="48.52562" lon="7.36239">
        <ele>313.5</ele>
      </trkpt>
      <trkpt lat="48.52434" lon="7.36476">
        <ele>352.2</ele>
      </trkpt>
      <trkpt lat="48.52465" lon="7.36584">
        <ele>354.9</ele>
      </trkpt>
      <trkpt lat="48.52489" lon="7.36593">
        <ele>362</ele>
      </trkpt>
      <trkpt lat="48.52481" lon="7.36476">
        <ele>359.8</ele>
      </trkpt>
      <trkpt lat="48.52516" lon="7.36476">
        <ele>372.7</ele>
      </trkpt>
      <trkpt lat="48.52513" lon="7.36496">
        <ele>373.3</ele>
      </trkpt>
      <trkpt lat="48.52669" lon="7.36611">
        <ele>400.6</ele>
        <extensions>
          <visugpx:TrkExtension xmlns:visugpx="https://www.visugpx.com/editgpx/">
            <visugpx:node>153</visugpx:node>
            </visugpx:TrkExtension>
        </extensions>
      </trkpt>
      <trkpt lat="48.52691" lon="7.36786">
        <ele>401.6</ele>
      </trkpt>
      <trkpt lat="48.52746" lon="7.36898">
        <ele>400.4</ele>
      </trkpt>
      <trkpt lat="48.52859" lon="7.37102">
        <ele>401.6</ele>
      </trkpt>
      <trkpt lat="48.52961" lon="7.37219">
        <ele>393.8</ele>
      </trkpt>
      <trkpt lat="48.53264" lon="7.37372">
        <ele>372.6</ele>
        <extensions>
          <visugpx:TrkExtension xmlns:visugpx="https://www.visugpx.com/editgpx/">
            <visugpx:node>155</visugpx:node>
            </visugpx:TrkExtension>
        </extensions>
      </trkpt>
      <trkpt lat="48.53268" lon="7.37362">
        <ele>373.5</ele>
      </trkpt>
      <trkpt lat="48.53283" lon="7.37375">
        <ele>372</ele>
      </trkpt>
      <trkpt lat="48.53295" lon="7.37383">
        <ele>371.3</ele>
      </trkpt>
      <trkpt lat="48.53298" lon="7.37385">
        <ele>371.1</ele>
      </trkpt>
      <trkpt lat="48.53312" lon="7.37395">
        <ele>370.2</ele>
      </trkpt>
      <trkpt lat="48.53322" lon="7.37402">
        <ele>369.3</ele>
      </trkpt>
      <trkpt lat="48.53348" lon="7.37453">
        <ele>356.1</ele>
      </trkpt>
      <trkpt lat="48.53366" lon="7.37446">
        <ele>356.1</ele>
      </trkpt>
      <trkpt lat="48.53381" lon="7.37439">
        <ele>356.1</ele>
      </trkpt>
      <trkpt lat="48.53396" lon="7.37435">
        <ele>356.2</ele>
      </trkpt>
      <trkpt lat="48.53393" lon="7.37448">
        <ele>355.1</ele>
      </trkpt>
      <trkpt lat="48.53391" lon="7.37458">
        <ele>354.1</ele>
      </trkpt>
      <trkpt lat="48.53386" lon="7.37475">
        <ele>352.5</ele>
      </trkpt>
      <trkpt lat="48.53389" lon="7.37472">
        <ele>352.7</ele>
      </trkpt>
      <trkpt lat="48.53394" lon="7.37467">
        <ele>353</ele>
      </trkpt>
      <trkpt lat="48.53402" lon="7.37459">
        <ele>353.8</ele>
        <extensions>
          <visugpx:TrkExtension xmlns:visugpx="https://www.visugpx.com/editgpx/">
            <visugpx:node>157</visugpx:node>
            </visugpx:TrkExtension>
        </extensions>
      </trkpt>
      <trkpt lat="48.53398" lon="7.37472">
        <ele>352.3</ele>
      </trkpt>
      <trkpt lat="48.53395" lon="7.3748">
        <ele>351.5</ele>
      </trkpt>
      <trkpt lat="48.5339" lon="7.37495">
        <ele>350.6</ele>
      </trkpt>
      <trkpt lat="48.53399" lon="7.37487">
        <ele>350.3</ele>
      </trkpt>
      <trkpt lat="48.5341" lon="7.37476">
        <ele>351.2</ele>
      </trkpt>
      <trkpt lat="48.5342" lon="7.37468">
        <ele>345.2</ele>
      </trkpt>
      <trkpt lat="48.53417" lon="7.3748">
        <ele>344.6</ele>
      </trkpt>
      <trkpt lat="48.53413" lon="7.37492">
        <ele>347.8</ele>
      </trkpt>
      <trkpt lat="48.5341" lon="7.37507">
        <ele>339.9</ele>
      </trkpt>
      <trkpt lat="48.53408" lon="7.37517">
        <ele>336.4</ele>
      </trkpt>
      <trkpt lat="48.53411" lon="7.37513">
        <ele>337.8</ele>
      </trkpt>
      <trkpt lat="48.53418" lon="7.37507">
        <ele>339.3</ele>
      </trkpt>
      <trkpt lat="48.5343" lon="7.37499">
        <ele>343.6</ele>
      </trkpt>
      <trkpt lat="48.53435" lon="7.37496">
        <ele>343.1</ele>
        <extensions>
          <visugpx:TrkExtension xmlns:visugpx="https://www.visugpx.com/editgpx/">
            <visugpx:node>158</visugpx:node>
            </visugpx:TrkExtension>
        </extensions>
      </trkpt>
      <trkpt lat="48.53441" lon="7.37493">
        <ele>342.5</ele>
      </trkpt>
      <trkpt lat="48.53454" lon="7.3749">
        <ele>340.8</ele>
      </trkpt>
      <trkpt lat="48.53445" lon="7.37508">
        <ele>329</ele>
      </trkpt>
      <trkpt lat="48.53438" lon="7.37522">
        <ele>328.3</ele>
      </trkpt>
      <trkpt lat="48.53428" lon="7.37539">
        <ele>325.5</ele>
      </trkpt>
      <trkpt lat="48.53419" lon="7.37557">
        <ele>322</ele>
      </trkpt>
      <trkpt lat="48.53418" lon="7.37565">
        <ele>320.5</ele>
      </trkpt>
      <trkpt lat="48.53421" lon="7.37564">
        <ele>320.6</ele>
      </trkpt>
      <trkpt lat="48.53435" lon="7.3755">
        <ele>322.7</ele>
      </trkpt>
      <trkpt lat="48.53437" lon="7.37548">
        <ele>322.9</ele>
      </trkpt>
      <trkpt lat="48.53451" lon="7.37536">
        <ele>323.7</ele>
      </trkpt>
      <trkpt lat="48.53456" lon="7.3753">
        <ele>323.9</ele>
      </trkpt>
      <trkpt lat="48.53478" lon="7.37526">
        <ele>322.1</ele>
      </trkpt>
      <trkpt lat="48.5347" lon="7.37542">
        <ele>320.8</ele>
      </trkpt>
      <trkpt lat="48.53467" lon="7.37549">
        <ele>319.9</ele>
      </trkpt>
      <trkpt lat="48.53464" lon="7.37556">
        <ele>319.3</ele>
      </trkpt>
      <trkpt lat="48.53462" lon="7.37568">
        <ele>318</ele>
      </trkpt>
      <trkpt lat="48.53464" lon="7.37572">
        <ele>317.4</ele>
      </trkpt>
      <trkpt lat="48.53467" lon="7.37568">
        <ele>317.4</ele>
      </trkpt>
      <trkpt lat="48.53471" lon="7.37564">
        <ele>317.1</ele>
      </trkpt>
      <trkpt lat="48.53478" lon="7.37558">
        <ele>317.1</ele>
      </trkpt>
      <trkpt lat="48.53479" lon="7.37558">
        <ele>317.1</ele>
        <extensions>
          <visugpx:TrkExtension xmlns:visugpx="https://www.visugpx.com/editgpx/">
            <visugpx:node>159</visugpx:node>
            </visugpx:TrkExtension>
        </extensions>
      </trkpt>
      <trkpt lat="48.53487" lon="7.37549">
        <ele>317.9</ele>
      </trkpt>
      <trkpt lat="48.53496" lon="7.37543">
        <ele>318.4</ele>
      </trkpt>
      <trkpt lat="48.53508" lon="7.37536">
        <ele>306.4</ele>
      </trkpt>
      <trkpt lat="48.53521" lon="7.37533">
        <ele>305.5</ele>
      </trkpt>
      <trkpt lat="48.53531" lon="7.3753">
        <ele>304.4</ele>
      </trkpt>
      <trkpt lat="48.53526" lon="7.37538">
        <ele>304.1</ele>
      </trkpt>
      <trkpt lat="48.53521" lon="7.37545">
        <ele>303.4</ele>
      </trkpt>
      <trkpt lat="48.53517" lon="7.37552">
        <ele>303.1</ele>
      </trkpt>
      <trkpt lat="48.53512" lon="7.3756">
        <ele>302.6</ele>
      </trkpt>
      <trkpt lat="48.53509" lon="7.37568">
        <ele>302.4</ele>
      </trkpt>
      <trkpt lat="48.53507" lon="7.37578">
        <ele>302.4</ele>
      </trkpt>
      <trkpt lat="48.53504" lon="7.37592">
        <ele>297.1</ele>
      </trkpt>
      <trkpt lat="48.53505" lon="7.37608">
        <ele>292</ele>
      </trkpt>
      <trkpt lat="48.53509" lon="7.37599">
        <ele>293.8</ele>
      </trkpt>
      <trkpt lat="48.53514" lon="7.37587">
        <ele>295</ele>
      </trkpt>
      <trkpt lat="48.53524" lon="7.37577">
        <ele>300.5</ele>
      </trkpt>
      <trkpt lat="48.53533" lon="7.37568">
        <ele>299.6</ele>
      </trkpt>
      <trkpt lat="48.53542" lon="7.37562">
        <ele>298.6</ele>
      </trkpt>
      <trkpt lat="48.53551" lon="7.37561">
        <ele>297.1</ele>
      </trkpt>
      <trkpt lat="48.53547" lon="7.37571">
        <ele>296.7</ele>
      </trkpt>
      <trkpt lat="48.53543" lon="7.37578">
        <ele>297</ele>
      </trkpt>
      <trkpt lat="48.53539" lon="7.37589">
        <ele>287.2</ele>
      </trkpt>
      <trkpt lat="48.53538" lon="7.37605">
        <ele>286.7</ele>
      </trkpt>
      <trkpt lat="48.53538" lon="7.37616">
        <ele>285.9</ele>
        <extensions>
          <visugpx:TrkExtension xmlns:visugpx="https://www.visugpx.com/editgpx/">
            <visugpx:node>160</visugpx:node>
            </visugpx:TrkExtension>
        </extensions>
      </trkpt>
      <trkpt lat="48.53538" lon="7.37621">
        <ele>285.5</ele>
      </trkpt>
      <trkpt lat="48.5354" lon="7.37639">
        <ele>284.2</ele>
      </trkpt>
      <trkpt lat="48.53543" lon="7.37661">
        <ele>282.6</ele>
      </trkpt>
      <trkpt lat="48.53546" lon="7.37692">
        <ele>272.7</ele>
      </trkpt>
      <trkpt lat="48.53546" lon="7.37706">
        <ele>271.6</ele>
      </trkpt>
      <trkpt lat="48.5354" lon="7.37739">
        <ele>269.9</ele>
      </trkpt>
      <trkpt lat="48.53538" lon="7.37744">
        <ele>269.9</ele>
        <extensions>
          <visugpx:TrkExtension xmlns:visugpx="https://www.visugpx.com/editgpx/">
            <visugpx:node>162</visugpx:node>
            </visugpx:TrkExtension>
        </extensions>
      </trkpt>
      <trkpt lat="48.5353" lon="7.3777">
        <ele>259</ele>
      </trkpt>
      <trkpt lat="48.53521" lon="7.37805">
        <ele>255</ele>
      </trkpt>
      <trkpt lat="48.5352" lon="7.37808">
        <ele>254.8</ele>
      </trkpt>
      <trkpt lat="48.53516" lon="7.37836">
        <ele>245.8</ele>
      </trkpt>
      <trkpt lat="48.5351" lon="7.37871">
        <ele>240.9</ele>
      </trkpt>
      <trkpt lat="48.53504" lon="7.3789">
        <ele>238.1</ele>
      </trkpt>
      <trkpt lat="48.53501" lon="7.37899">
        <ele>236.7</ele>
        <extensions>
          <visugpx:TrkExtension xmlns:visugpx="https://www.visugpx.com/editgpx/">
            <visugpx:node>163</visugpx:node>
            </visugpx:TrkExtension>
        </extensions>
      </trkpt>
      <trkpt lat="48.53498" lon="7.37911">
        <ele>233.7</ele>
      </trkpt>
      <trkpt lat="48.53488" lon="7.37924">
        <ele>228</ele>
      </trkpt>
      <trkpt lat="48.5348" lon="7.37928">
        <ele>226</ele>
      </trkpt>
      <trkpt lat="48.5347" lon="7.37931">
        <ele>224.6</ele>
      </trkpt>
      <trkpt lat="48.53471" lon="7.37932">
        <ele>224.5</ele>
      </trkpt>
      <trkpt lat="48.53479" lon="7.37948">
        <ele>223.8</ele>
      </trkpt>
      <trkpt lat="48.5348" lon="7.3795">
        <ele>223.6</ele>
      </trkpt>
      <trkpt lat="48.53487" lon="7.37971">
        <ele>221.9</ele>
      </trkpt>
      <trkpt lat="48.53486" lon="7.37989">
        <ele>220.5</ele>
      </trkpt>
      <trkpt lat="48.53487" lon="7.37991">
        <ele>220.4</ele>
        <extensions>
          <visugpx:TrkExtension xmlns:visugpx="https://www.visugpx.com/editgpx/">
            <visugpx:node>164</visugpx:node>
            </visugpx:TrkExtension>
        </extensions>
      </trkpt>
      <trkpt lat="48.53486" lon="7.37989">
        <ele>220</ele>
      </trkpt>
      <trkpt lat="48.53478" lon="7.3798">
        <ele>221.1</ele>
      </trkpt>
      <trkpt lat="48.53459" lon="7.37959">
        <ele>221.7</ele>
      </trkpt>
      <trkpt lat="48.53458" lon="7.37958">
        <ele>221.8</ele>
      </trkpt>
      <trkpt lat="48.53446" lon="7.37948">
        <ele>221.7</ele>
      </trkpt>
      <trkpt lat="48.53442" lon="7.37944">
        <ele>221.7</ele>
      </trkpt>
      <trkpt lat="48.53432" lon="7.37935">
        <ele>221.5</ele>
      </trkpt>
      <trkpt lat="48.5342" lon="7.37922">
        <ele>221.2</ele>
      </trkpt>
      <trkpt lat="48.53406" lon="7.37911">
        <ele>222.4</ele>
      </trkpt>
      <trkpt lat="48.53393" lon="7.37899">
        <ele>223.6</ele>
      </trkpt>
      <trkpt lat="48.5338" lon="7.37888">
        <ele>224</ele>
      </trkpt>
      <trkpt lat="48.53368" lon="7.37877">
        <ele>224.2</ele>
      </trkpt>
      <trkpt lat="48.53359" lon="7.37872">
        <ele>224.2</ele>
      </trkpt>
      <trkpt lat="48.53345" lon="7.37863">
        <ele>224.2</ele>
      </trkpt>
      <trkpt lat="48.53337" lon="7.37858">
        <ele>224.3</ele>
      </trkpt>
      <trkpt lat="48.5332" lon="7.37848">
        <ele>221.5</ele>
      </trkpt>
      <trkpt lat="48.53307" lon="7.37839">
        <ele>221</ele>
      </trkpt>
      <trkpt lat="48.53298" lon="7.37834">
        <ele>220.5</ele>
      </trkpt>
      <trkpt lat="48.53293" lon="7.37832">
        <ele>229</ele>
      </trkpt>
      <trkpt lat="48.53289" lon="7.37847">
        <ele>219.8</ele>
      </trkpt>
      <trkpt lat="48.53288" lon="7.3785">
        <ele>219.6</ele>
      </trkpt>
      <trkpt lat="48.53287" lon="7.37852">
        <ele>219.6</ele>
      </trkpt>
      <trkpt lat="48.53282" lon="7.37872">
        <ele>218.7</ele>
      </trkpt>
      <trkpt lat="48.53282" lon="7.37875">
        <ele>218.6</ele>
      </trkpt>
      <trkpt lat="48.53277" lon="7.37892">
        <ele>217.8</ele>
      </trkpt>
      <trkpt lat="48.53276" lon="7.37894">
        <ele>217.7</ele>
      </trkpt>
      <trkpt lat="48.5327" lon="7.37912">
        <ele>216.8</ele>
      </trkpt>
      <trkpt lat="48.53264" lon="7.37923">
        <ele>215.1</ele>
      </trkpt>
      <trkpt lat="48.53263" lon="7.37926">
        <ele>215.1</ele>
      </trkpt>
      <trkpt lat="48.53261" lon="7.37929">
        <ele>215.1</ele>
      </trkpt>
      <trkpt lat="48.53251" lon="7.37944">
        <ele>215</ele>
      </trkpt>
      <trkpt lat="48.53239" lon="7.37958">
        <ele>214.5</ele>
      </trkpt>
      <trkpt lat="48.53226" lon="7.37968">
        <ele>214.4</ele>
      </trkpt>
      <trkpt lat="48.53211" lon="7.37977">
        <ele>214.4</ele>
      </trkpt>
      <trkpt lat="48.53196" lon="7.37985">
        <ele>214.3</ele>
      </trkpt>
      <trkpt lat="48.53186" lon="7.37991">
        <ele>214.3</ele>
        <extensions>
          <visugpx:TrkExtension xmlns:visugpx="https://www.visugpx.com/editgpx/">
            <visugpx:node>165</visugpx:node>
            </visugpx:TrkExtension>
        </extensions>
      </trkpt>
      <trkpt lat="48.53179" lon="7.37992">
        <ele>214.2</ele>
      </trkpt>
      <trkpt lat="48.53123" lon="7.38019">
        <ele>214.3</ele>
      </trkpt>
      <trkpt lat="48.5305" lon="7.38053">
        <ele>215.2</ele>
      </trkpt>
      <trkpt lat="48.53029" lon="7.38063">
        <ele>215.2</ele>
      </trkpt>
      <trkpt lat="48.53023" lon="7.38066">
        <ele>215.2</ele>
      </trkpt>
      <trkpt lat="48.53015" lon="7.38066">
        <ele>215.2</ele>
      </trkpt>
      <trkpt lat="48.53006" lon="7.38061">
        <ele>215.2</ele>
      </trkpt>
      <trkpt lat="48.52999" lon="7.38059">
        <ele>215.1</ele>
      </trkpt>
      <trkpt lat="48.52988" lon="7.38057">
        <ele>215.1</ele>
      </trkpt>
      <trkpt lat="48.52974" lon="7.38064">
        <ele>215</ele>
      </trkpt>
      <trkpt lat="48.5297" lon="7.3807">
        <ele>215</ele>
      </trkpt>
      <trkpt lat="48.52967" lon="7.38076">
        <ele>215</ele>
      </trkpt>
      <trkpt lat="48.52966" lon="7.38083">
        <ele>215</ele>
      </trkpt>
      <trkpt lat="48.52956" lon="7.38093">
        <ele>215</ele>
      </trkpt>
      <trkpt lat="48.52947" lon="7.38102">
        <ele>215</ele>
      </trkpt>
      <trkpt lat="48.52939" lon="7.38105">
        <ele>215</ele>
      </trkpt>
      <trkpt lat="48.52932" lon="7.38109">
        <ele>215</ele>
      </trkpt>
      <trkpt lat="48.52923" lon="7.38115">
        <ele>215</ele>
      </trkpt>
      <trkpt lat="48.52912" lon="7.38125">
        <ele>215.2</ele>
      </trkpt>
      <trkpt lat="48.52825" lon="7.38217">
        <ele>216.6</ele>
      </trkpt>
      <trkpt lat="48.52821" lon="7.38221">
        <ele>216.6</ele>
      </trkpt>
      <trkpt lat="48.52808" lon="7.38234">
        <ele>216.7</ele>
      </trkpt>
      <trkpt lat="48.528" lon="7.38241">
        <ele>216.7</ele>
      </trkpt>
      <trkpt lat="48.5279" lon="7.38247">
        <ele>216.7</ele>
      </trkpt>
      <trkpt lat="48.52783" lon="7.38249">
        <ele>216.7</ele>
      </trkpt>
      <trkpt lat="48.52781" lon="7.38249">
        <ele>216.7</ele>
      </trkpt>
      <trkpt lat="48.52778" lon="7.38253">
        <ele>218.3</ele>
      </trkpt>
      <trkpt lat="48.52764" lon="7.38263">
        <ele>218.2</ele>
      </trkpt>
      <trkpt lat="48.5274" lon="7.38284">
        <ele>219.6</ele>
      </trkpt>
      <trkpt lat="48.52699" lon="7.38326">
        <ele>221.1</ele>
      </trkpt>
      <trkpt lat="48.52686" lon="7.38338">
        <ele>226.8</ele>
      </trkpt>
      <trkpt lat="48.52675" lon="7.38348">
        <ele>226.9</ele>
      </trkpt>
      <trkpt lat="48.5267" lon="7.38353">
        <ele>227.5</ele>
      </trkpt>
      <trkpt lat="48.52645" lon="7.38363">
        <ele>228</ele>
      </trkpt>
      <trkpt lat="48.52632" lon="7.38374">
        <ele>228.8</ele>
      </trkpt>
      <trkpt lat="48.52595" lon="7.38413">
        <ele>229.7</ele>
      </trkpt>
      <trkpt lat="48.52563" lon="7.38433">
        <ele>231.8</ele>
      </trkpt>
      <trkpt lat="48.52535" lon="7.38457">
        <ele>232.1</ele>
      </trkpt>
      <trkpt lat="48.52508" lon="7.38461">
        <ele>231.1</ele>
      </trkpt>
      <trkpt lat="48.52479" lon="7.38479">
        <ele>228.5</ele>
      </trkpt>
      <trkpt lat="48.52444" lon="7.38512">
        <ele>231</ele>
      </trkpt>
      <trkpt lat="48.52432" lon="7.38525">
        <ele>231.2</ele>
      </trkpt>
      <trkpt lat="48.52418" lon="7.38539">
        <ele>232.1</ele>
      </trkpt>
      <trkpt lat="48.52382" lon="7.38588">
        <ele>237.3</ele>
      </trkpt>
      <trkpt lat="48.52348" lon="7.38655">
        <ele>240</ele>
      </trkpt>
      <trkpt lat="48.52308" lon="7.38697">
        <ele>245.1</ele>
      </trkpt>
      <trkpt lat="48.5226" lon="7.38722">
        <ele>246.2</ele>
      </trkpt>
      <trkpt lat="48.52252" lon="7.38724">
        <ele>246.4</ele>
        <extensions>
          <visugpx:TrkExtension xmlns:visugpx="https://www.visugpx.com/editgpx/">
            <visugpx:node>166</visugpx:node>
            </visugpx:TrkExtension>
        </extensions>
      </trkpt>
      <trkpt lat="48.52135" lon="7.38758">
        <ele>242.2</ele>
      </trkpt>
      <trkpt lat="48.52114" lon="7.3877">
        <ele>241.8</ele>
      </trkpt>
      <trkpt lat="48.5209" lon="7.38791">
        <ele>242.8</ele>
      </trkpt>
      <trkpt lat="48.5205" lon="7.38852">
        <ele>246.5</ele>
      </trkpt>
      <trkpt lat="48.5201" lon="7.38933">
        <ele>251.1</ele>
      </trkpt>
      <trkpt lat="48.51982" lon="7.38974">
        <ele>247.5</ele>
      </trkpt>
      <trkpt lat="48.51922" lon="7.39081">
        <ele>264.8</ele>
      </trkpt>
      <trkpt lat="48.51899" lon="7.39072">
        <ele>258.3</ele>
      </trkpt>
      <trkpt lat="48.51808" lon="7.39061">
        <ele>249</ele>
      </trkpt>
      <trkpt lat="48.51785" lon="7.39072">
        <ele>248</ele>
      </trkpt>
      <trkpt lat="48.51756" lon="7.39095">
        <ele>252.5</ele>
      </trkpt>
      <trkpt lat="48.51745" lon="7.39095">
        <ele>249.6</ele>
      </trkpt>
      <trkpt lat="48.51738" lon="7.39073">
        <ele>245.7</ele>
      </trkpt>
      <trkpt lat="48.51726" lon="7.39061">
        <ele>244.9</ele>
      </trkpt>
      <trkpt lat="48.51709" lon="7.39043">
        <ele>244.3</ele>
      </trkpt>
      <trkpt lat="48.51686" lon="7.3898">
        <ele>244.6</ele>
      </trkpt>
      <trkpt lat="48.51678" lon="7.38957">
        <ele>245.6</ele>
      </trkpt>
      <trkpt lat="48.5167" lon="7.38947">
        <ele>246.1</ele>
      </trkpt>
      <trkpt lat="48.51661" lon="7.38942">
        <ele>249.2</ele>
      </trkpt>
      <trkpt lat="48.51582" lon="7.38938">
        <ele>259.7</ele>
        <extensions>
          <visugpx:TrkExtension xmlns:visugpx="https://www.visugpx.com/editgpx/">
            <visugpx:node>167</visugpx:node>
            </visugpx:TrkExtension>
        </extensions>
      </trkpt>
      <trkpt lat="48.51581" lon="7.38938">
        <ele>259.7</ele>
      </trkpt>
      <trkpt lat="48.51569" lon="7.38933">
        <ele>260.3</ele>
      </trkpt>
      <trkpt lat="48.51559" lon="7.38918">
        <ele>261.2</ele>
      </trkpt>
      <trkpt lat="48.5153" lon="7.3882">
        <ele>280.2</ele>
      </trkpt>
      <trkpt lat="48.51519" lon="7.38804">
        <ele>281.3</ele>
      </trkpt>
      <trkpt lat="48.51482" lon="7.38778">
        <ele>286.5</ele>
      </trkpt>
      <trkpt lat="48.51442" lon="7.38737">
        <ele>295.1</ele>
      </trkpt>
      <trkpt lat="48.51438" lon="7.38725">
        <ele>295.7</ele>
      </trkpt>
      <trkpt lat="48.5142" lon="7.38722">
        <ele>295.9</ele>
      </trkpt>
      <trkpt lat="48.51406" lon="7.38726">
        <ele>297.4</ele>
      </trkpt>
      <trkpt lat="48.51355" lon="7.38759">
        <ele>295.4</ele>
      </trkpt>
      <trkpt lat="48.51303" lon="7.38779">
        <ele>298</ele>
      </trkpt>
      <trkpt lat="48.51271" lon="7.38784">
        <ele>298.4</ele>
      </trkpt>
      <trkpt lat="48.51256" lon="7.38784">
        <ele>298.6</ele>
      </trkpt>
      <trkpt lat="48.51235" lon="7.3878">
        <ele>301.5</ele>
      </trkpt>
      <trkpt lat="48.51212" lon="7.38771">
        <ele>302.5</ele>
      </trkpt>
      <trkpt lat="48.51161" lon="7.38744">
        <ele>309.7</ele>
      </trkpt>
      <trkpt lat="48.51119" lon="7.38721">
        <ele>311</ele>
      </trkpt>
      <trkpt lat="48.51087" lon="7.38694">
        <ele>312.4</ele>
        <extensions>
          <visugpx:TrkExtension xmlns:visugpx="https://www.visugpx.com/editgpx/">
            <visugpx:node>168</visugpx:node>
            </visugpx:TrkExtension>
        </extensions>
      </trkpt>
      <trkpt lat="48.5108" lon="7.38688">
        <ele>312.7</ele>
      </trkpt>
      <trkpt lat="48.51055" lon="7.38666">
        <ele>317.3</ele>
      </trkpt>
      <trkpt lat="48.51024" lon="7.38626">
        <ele>319.1</ele>
      </trkpt>
      <trkpt lat="48.50974" lon="7.38567">
        <ele>327</ele>
      </trkpt>
      <trkpt lat="48.50963" lon="7.3856">
        <ele>327.4</ele>
      </trkpt>
      <trkpt lat="48.50927" lon="7.38547">
        <ele>327.7</ele>
      </trkpt>
      <trkpt lat="48.50889" lon="7.38541">
        <ele>327</ele>
      </trkpt>
      <trkpt lat="48.50886" lon="7.38547">
        <ele>326.7</ele>
      </trkpt>
      <trkpt lat="48.50873" lon="7.38558">
        <ele>326</ele>
      </trkpt>
      <trkpt lat="48.50862" lon="7.38569">
        <ele>325.1</ele>
      </trkpt>
      <trkpt lat="48.50857" lon="7.38581">
        <ele>324.4</ele>
      </trkpt>
      <trkpt lat="48.50852" lon="7.38586">
        <ele>319.7</ele>
      </trkpt>
      <trkpt lat="48.50811" lon="7.38605">
        <ele>318.1</ele>
      </trkpt>
      <trkpt lat="48.50807" lon="7.38609">
        <ele>317.8</ele>
      </trkpt>
      <trkpt lat="48.50806" lon="7.38621">
        <ele>317.2</ele>
      </trkpt>
      <trkpt lat="48.50808" lon="7.38652">
        <ele>315.3</ele>
      </trkpt>
      <trkpt lat="48.50804" lon="7.38657">
        <ele>315.3</ele>
      </trkpt>
      <trkpt lat="48.50779" lon="7.38661">
        <ele>315.3</ele>
      </trkpt>
      <trkpt lat="48.50747" lon="7.38648">
        <ele>315.3</ele>
      </trkpt>
      <trkpt lat="48.50692" lon="7.38624">
        <ele>317</ele>
      </trkpt>
      <trkpt lat="48.50682" lon="7.38619">
        <ele>317.3</ele>
      </trkpt>
      <trkpt lat="48.50674" lon="7.38609">
        <ele>318.1</ele>
      </trkpt>
      <trkpt lat="48.50663" lon="7.38556">
        <ele>323.9</ele>
      </trkpt>
      <trkpt lat="48.50659" lon="7.38548">
        <ele>324.5</ele>
      </trkpt>
      <trkpt lat="48.50662" lon="7.38541">
        <ele>325</ele>
      </trkpt>
      <trkpt lat="48.50664" lon="7.38536">
        <ele>325.4</ele>
      </trkpt>
      <trkpt lat="48.5066" lon="7.38532">
        <ele>325.7</ele>
      </trkpt>
      <trkpt lat="48.50644" lon="7.38526">
        <ele>325.9</ele>
      </trkpt>
      <trkpt lat="48.50621" lon="7.38522">
        <ele>326</ele>
      </trkpt>
      <trkpt lat="48.50564" lon="7.38508">
        <ele>326.7</ele>
      </trkpt>
      <trkpt lat="48.50521" lon="7.38508">
        <ele>326.1</ele>
      </trkpt>
      <trkpt lat="48.50509" lon="7.38503">
        <ele>327.4</ele>
      </trkpt>
      <trkpt lat="48.50494" lon="7.38506">
        <ele>327</ele>
      </trkpt>
      <trkpt lat="48.5047" lon="7.3851">
        <ele>324.3</ele>
      </trkpt>
      <trkpt lat="48.50404" lon="7.3851">
        <ele>324.7</ele>
      </trkpt>
      <trkpt lat="48.50332" lon="7.38519">
        <ele>325</ele>
      </trkpt>
      <trkpt lat="48.50255" lon="7.38512">
        <ele>325.3</ele>
      </trkpt>
      <trkpt lat="48.5021" lon="7.38488">
        <ele>331</ele>
      </trkpt>
      <trkpt lat="48.50172" lon="7.38467">
        <ele>331.8</ele>
      </trkpt>
      <trkpt lat="48.50149" lon="7.3846">
        <ele>333.8</ele>
      </trkpt>
      <trkpt lat="48.50076" lon="7.38436">
        <ele>339.7</ele>
      </trkpt>
      <trkpt lat="48.50062" lon="7.38436">
        <ele>339.7</ele>
      </trkpt>
      <trkpt lat="48.50033" lon="7.38437">
        <ele>340.5</ele>
      </trkpt>
      <trkpt lat="48.49988" lon="7.38449">
        <ele>343.8</ele>
      </trkpt>
      <trkpt lat="48.49985" lon="7.38449">
        <ele>343.9</ele>
      </trkpt>
      <trkpt lat="48.49971" lon="7.38454">
        <ele>343.8</ele>
      </trkpt>
      <trkpt lat="48.49957" lon="7.3846">
        <ele>344</ele>
      </trkpt>
      <trkpt lat="48.49937" lon="7.38475">
        <ele>344</ele>
      </trkpt>
      <trkpt lat="48.49928" lon="7.38478">
        <ele>344.1</ele>
      </trkpt>
      <trkpt lat="48.49921" lon="7.38477">
        <ele>344.2</ele>
      </trkpt>
      <trkpt lat="48.49914" lon="7.38471">
        <ele>346.3</ele>
      </trkpt>
      <trkpt lat="48.49882" lon="7.38435">
        <ele>348</ele>
      </trkpt>
      <trkpt lat="48.49852" lon="7.38414">
        <ele>353.2</ele>
      </trkpt>
      <trkpt lat="48.49836" lon="7.38408">
        <ele>352.9</ele>
      </trkpt>
      <trkpt lat="48.49833" lon="7.38403">
        <ele>353.5</ele>
      </trkpt>
      <trkpt lat="48.49825" lon="7.38376">
        <ele>355.6</ele>
      </trkpt>
      <trkpt lat="48.49824" lon="7.3837">
        <ele>356.1</ele>
      </trkpt>
      <trkpt lat="48.49809" lon="7.38368">
        <ele>355.9</ele>
      </trkpt>
      <trkpt lat="48.49774" lon="7.38352">
        <ele>356.2</ele>
      </trkpt>
      <trkpt lat="48.49766" lon="7.38348">
        <ele>356.4</ele>
      </trkpt>
      <trkpt lat="48.49739" lon="7.38337">
        <ele>356.4</ele>
      </trkpt>
      <trkpt lat="48.49714" lon="7.38333">
        <ele>364.7</ele>
      </trkpt>
      <trkpt lat="48.4968" lon="7.38322">
        <ele>364.3</ele>
      </trkpt>
      <trkpt lat="48.49655" lon="7.38318">
        <ele>363.7</ele>
      </trkpt>
      <trkpt lat="48.49619" lon="7.38327">
        <ele>362.7</ele>
      </trkpt>
      <trkpt lat="48.49607" lon="7.38328">
        <ele>361.1</ele>
        <extensions>
          <visugpx:TrkExtension xmlns:visugpx="https://www.visugpx.com/editgpx/">
            <visugpx:node>169</visugpx:node>
            </visugpx:TrkExtension>
        </extensions>
      </trkpt>
      <trkpt lat="48.49556" lon="7.38333">
        <ele>359.7</ele>
      </trkpt>
      <trkpt lat="48.49511" lon="7.38342">
        <ele>350.1</ele>
      </trkpt>
      <trkpt lat="48.49482" lon="7.38343">
        <ele>349.1</ele>
      </trkpt>
      <trkpt lat="48.49472" lon="7.38344">
        <ele>348.2</ele>
      </trkpt>
      <trkpt lat="48.49426" lon="7.38354">
        <ele>348.1</ele>
      </trkpt>
      <trkpt lat="48.49411" lon="7.38352">
        <ele>346.7</ele>
      </trkpt>
      <trkpt lat="48.49368" lon="7.38336">
        <ele>344.5</ele>
      </trkpt>
      <trkpt lat="48.49341" lon="7.38329">
        <ele>354.1</ele>
      </trkpt>
      <trkpt lat="48.4931" lon="7.38332">
        <ele>353.6</ele>
      </trkpt>
      <trkpt lat="48.49228" lon="7.38331">
        <ele>344.6</ele>
      </trkpt>
      <trkpt lat="48.49191" lon="7.38316">
        <ele>342.8</ele>
      </trkpt>
      <trkpt lat="48.49169" lon="7.38314">
        <ele>340.1</ele>
      </trkpt>
      <trkpt lat="48.49143" lon="7.38317">
        <ele>332.2</ele>
      </trkpt>
      <trkpt lat="48.49109" lon="7.38316">
        <ele>328</ele>
      </trkpt>
      <trkpt lat="48.49095" lon="7.38302">
        <ele>328.6</ele>
      </trkpt>
      <trkpt lat="48.49041" lon="7.3826">
        <ele>324.6</ele>
      </trkpt>
      <trkpt lat="48.4898" lon="7.38222">
        <ele>332.8</ele>
      </trkpt>
      <trkpt lat="48.48927" lon="7.38186">
        <ele>334.1</ele>
      </trkpt>
      <trkpt lat="48.48921" lon="7.38196">
        <ele>332.8</ele>
      </trkpt>
      <trkpt lat="48.48913" lon="7.38228">
        <ele>324.3</ele>
      </trkpt>
      <trkpt lat="48.48909" lon="7.38239">
        <ele>322.2</ele>
      </trkpt>
      <trkpt lat="48.48905" lon="7.38254">
        <ele>322.1</ele>
      </trkpt>
      <trkpt lat="48.48899" lon="7.38287">
        <ele>327.5</ele>
      </trkpt>
      <trkpt lat="48.48903" lon="7.38308">
        <ele>328.1</ele>
      </trkpt>
      <trkpt lat="48.48892" lon="7.38307">
        <ele>329.1</ele>
      </trkpt>
      <trkpt lat="48.48887" lon="7.38307">
        <ele>329.6</ele>
      </trkpt>
      <trkpt lat="48.48878" lon="7.383">
        <ele>330.4</ele>
      </trkpt>
      <trkpt lat="48.48859" lon="7.38274">
        <ele>331.1</ele>
      </trkpt>
      <trkpt lat="48.48831" lon="7.38226">
        <ele>340.7</ele>
      </trkpt>
      <trkpt lat="48.48828" lon="7.38219">
        <ele>341.4</ele>
        <extensions>
          <visugpx:TrkExtension xmlns:visugpx="https://www.visugpx.com/editgpx/">
            <visugpx:node>170</visugpx:node>
            </visugpx:TrkExtension>
        </extensions>
      </trkpt>
      <trkpt lat="48.4881" lon="7.38176">
        <ele>340.7</ele>
      </trkpt>
      <trkpt lat="48.48777" lon="7.38048">
        <ele>344.2</ele>
      </trkpt>
      <trkpt lat="48.4877" lon="7.37975">
        <ele>343.7</ele>
      </trkpt>
      <trkpt lat="48.48764" lon="7.3786">
        <ele>340.9</ele>
      </trkpt>
      <trkpt lat="48.48748" lon="7.37738">
        <ele>349.5</ele>
      </trkpt>
      <trkpt lat="48.4875" lon="7.37707">
        <ele>352.8</ele>
      </trkpt>
      <trkpt lat="48.48747" lon="7.37689">
        <ele>351.8</ele>
      </trkpt>
      <trkpt lat="48.48727" lon="7.37656">
        <ele>352.5</ele>
      </trkpt>
      <trkpt lat="48.48715" lon="7.37628">
        <ele>354.7</ele>
      </trkpt>
      <trkpt lat="48.48708" lon="7.37605">
        <ele>355.3</ele>
      </trkpt>
      <trkpt lat="48.48705" lon="7.37589">
        <ele>355.8</ele>
      </trkpt>
      <trkpt lat="48.48706" lon="7.37576">
        <ele>354.3</ele>
      </trkpt>
      <trkpt lat="48.48704" lon="7.37546">
        <ele>354.2</ele>
      </trkpt>
      <trkpt lat="48.48702" lon="7.37526">
        <ele>354.4</ele>
      </trkpt>
      <trkpt lat="48.48695" lon="7.37511">
        <ele>356.1</ele>
      </trkpt>
      <trkpt lat="48.48691" lon="7.3751">
        <ele>357.1</ele>
      </trkpt>
      <trkpt lat="48.48687" lon="7.37496">
        <ele>357.7</ele>
      </trkpt>
      <trkpt lat="48.4868" lon="7.37483">
        <ele>358.1</ele>
      </trkpt>
      <trkpt lat="48.48673" lon="7.37456">
        <ele>357.1</ele>
      </trkpt>
      <trkpt lat="48.48667" lon="7.37381">
        <ele>356.9</ele>
      </trkpt>
      <trkpt lat="48.48667" lon="7.37333">
        <ele>365.7</ele>
      </trkpt>
      <trkpt lat="48.48637" lon="7.37197">
        <ele>376.3</ele>
      </trkpt>
      <trkpt lat="48.48621" lon="7.3714">
        <ele>371.4</ele>
      </trkpt>
      <trkpt lat="48.48613" lon="7.37118">
        <ele>370.3</ele>
      </trkpt>
      <trkpt lat="48.48596" lon="7.37093">
        <ele>370.3</ele>
      </trkpt>
      <trkpt lat="48.48591" lon="7.37082">
        <ele>368</ele>
      </trkpt>
      <trkpt lat="48.4858" lon="7.3707">
        <ele>373.8</ele>
      </trkpt>
      <trkpt lat="48.48551" lon="7.37039">
        <ele>376.8</ele>
      </trkpt>
      <trkpt lat="48.48508" lon="7.37006">
        <ele>380.7</ele>
      </trkpt>
      <trkpt lat="48.48483" lon="7.3699">
        <ele>388.4</ele>
      </trkpt>
      <trkpt lat="48.48453" lon="7.36962">
        <ele>393.7</ele>
      </trkpt>
      <trkpt lat="48.4843" lon="7.36926">
        <ele>396.2</ele>
      </trkpt>
      <trkpt lat="48.48426" lon="7.36916">
        <ele>397.7</ele>
      </trkpt>
      <trkpt lat="48.48422" lon="7.36901">
        <ele>397.2</ele>
      </trkpt>
      <trkpt lat="48.48412" lon="7.36899">
        <ele>402.1</ele>
      </trkpt>
      <trkpt lat="48.48405" lon="7.36887">
        <ele>403.1</ele>
      </trkpt>
      <trkpt lat="48.48385" lon="7.36893">
        <ele>404.5</ele>
      </trkpt>
      <trkpt lat="48.48332" lon="7.36869">
        <ele>417.1</ele>
      </trkpt>
      <trkpt lat="48.48314" lon="7.36864">
        <ele>418.2</ele>
      </trkpt>
      <trkpt lat="48.48303" lon="7.36851">
        <ele>418.6</ele>
      </trkpt>
      <trkpt lat="48.48268" lon="7.36842">
        <ele>424.4</ele>
      </trkpt>
      <trkpt lat="48.48234" lon="7.36828">
        <ele>431.3</ele>
        <extensions>
          <visugpx:TrkExtension xmlns:visugpx="https://www.visugpx.com/editgpx/">
            <visugpx:node>171</visugpx:node>
            </visugpx:TrkExtension>
        </extensions>
      </trkpt>
      <trkpt lat="48.48233" lon="7.36828">
        <ele>431.5</ele>
      </trkpt>
      <trkpt lat="48.48204" lon="7.36821">
        <ele>435.8</ele>
      </trkpt>
      <trkpt lat="48.48154" lon="7.3681">
        <ele>448.4</ele>
      </trkpt>
      <trkpt lat="48.48112" lon="7.36818">
        <ele>453.3</ele>
      </trkpt>
      <trkpt lat="48.48089" lon="7.36821">
        <ele>458</ele>
      </trkpt>
      <trkpt lat="48.48058" lon="7.36822">
        <ele>465.7</ele>
      </trkpt>
      <trkpt lat="48.48046" lon="7.36817">
        <ele>466.7</ele>
      </trkpt>
      <trkpt lat="48.48029" lon="7.36809">
        <ele>468.1</ele>
      </trkpt>
      <trkpt lat="48.48003" lon="7.36784">
        <ele>469</ele>
      </trkpt>
      <trkpt lat="48.47982" lon="7.3676">
        <ele>474.5</ele>
      </trkpt>
      <trkpt lat="48.47948" lon="7.36709">
        <ele>476.8</ele>
      </trkpt>
      <trkpt lat="48.4794" lon="7.36689">
        <ele>478.4</ele>
      </trkpt>
      <trkpt lat="48.47929" lon="7.36669">
        <ele>482.3</ele>
      </trkpt>
      <trkpt lat="48.47918" lon="7.36656">
        <ele>483.3</ele>
      </trkpt>
      <trkpt lat="48.47909" lon="7.3665">
        <ele>486.8</ele>
      </trkpt>
      <trkpt lat="48.47891" lon="7.3658">
        <ele>490.6</ele>
      </trkpt>
      <trkpt lat="48.47881" lon="7.36534">
        <ele>491.7</ele>
      </trkpt>
      <trkpt lat="48.47861" lon="7.36534">
        <ele>491.9</ele>
      </trkpt>
      <trkpt lat="48.47855" lon="7.36533">
        <ele>492</ele>
      </trkpt>
      <trkpt lat="48.4784" lon="7.36502">
        <ele>494.9</ele>
      </trkpt>
      <trkpt lat="48.47828" lon="7.36485">
        <ele>496.7</ele>
      </trkpt>
      <trkpt lat="48.47804" lon="7.36433">
        <ele>500.1</ele>
      </trkpt>
      <trkpt lat="48.47788" lon="7.36404">
        <ele>507.6</ele>
      </trkpt>
      <trkpt lat="48.47772" lon="7.36359">
        <ele>510.7</ele>
      </trkpt>
      <trkpt lat="48.47735" lon="7.36278">
        <ele>516</ele>
      </trkpt>
      <trkpt lat="48.47721" lon="7.36251">
        <ele>516.2</ele>
      </trkpt>
      <trkpt lat="48.47688" lon="7.36216">
        <ele>520.2</ele>
      </trkpt>
      <trkpt lat="48.47679" lon="7.36202">
        <ele>520.7</ele>
      </trkpt>
      <trkpt lat="48.4767" lon="7.36199">
        <ele>520.1</ele>
      </trkpt>
      <trkpt lat="48.47652" lon="7.3618">
        <ele>509.7</ele>
      </trkpt>
      <trkpt lat="48.47637" lon="7.36145">
        <ele>515.2</ele>
      </trkpt>
      <trkpt lat="48.47607" lon="7.36074">
        <ele>522.1</ele>
      </trkpt>
      <trkpt lat="48.47526" lon="7.35995">
        <ele>518.3</ele>
      </trkpt>
      <trkpt lat="48.4746" lon="7.35977">
        <ele>516.1</ele>
      </trkpt>
      <trkpt lat="48.47397" lon="7.3598">
        <ele>515.2</ele>
      </trkpt>
      <trkpt lat="48.47315" lon="7.35961">
        <ele>520.3</ele>
      </trkpt>
      <trkpt lat="48.47247" lon="7.35933">
        <ele>525.4</ele>
        <extensions>
          <visugpx:TrkExtension xmlns:visugpx="https://www.visugpx.com/editgpx/">
            <visugpx:node>172</visugpx:node>
            </visugpx:TrkExtension>
        </extensions>
      </trkpt>
      <trkpt lat="48.47189" lon="7.35908">
        <ele>533.1</ele>
      </trkpt>
      <trkpt lat="48.47146" lon="7.35917">
        <ele>525.9</ele>
      </trkpt>
      <trkpt lat="48.4709" lon="7.35908">
        <ele>526.7</ele>
      </trkpt>
      <trkpt lat="48.46981" lon="7.35867">
        <ele>533.9</ele>
      </trkpt>
      <trkpt lat="48.46937" lon="7.35876">
        <ele>536.3</ele>
      </trkpt>
      <trkpt lat="48.46875" lon="7.35917">
        <ele>544.5</ele>
      </trkpt>
      <trkpt lat="48.4682" lon="7.35968">
        <ele>552.3</ele>
      </trkpt>
      <trkpt lat="48.46802" lon="7.35971">
        <ele>553.1</ele>
      </trkpt>
      <trkpt lat="48.46783" lon="7.35973">
        <ele>554.3</ele>
      </trkpt>
      <trkpt lat="48.46718" lon="7.3597">
        <ele>561.8</ele>
      </trkpt>
      <trkpt lat="48.4658" lon="7.35948">
        <ele>575.1</ele>
      </trkpt>
      <trkpt lat="48.46531" lon="7.3593">
        <ele>576.3</ele>
        <extensions>
          <visugpx:TrkExtension xmlns:visugpx="https://www.visugpx.com/editgpx/">
            <visugpx:node>173</visugpx:node>
            </visugpx:TrkExtension>
        </extensions>
      </trkpt>
      <trkpt lat="48.46517" lon="7.35925">
        <ele>576.6</ele>
      </trkpt>
      <trkpt lat="48.46432" lon="7.35878">
        <ele>587.9</ele>
      </trkpt>
      <trkpt lat="48.46384" lon="7.35876">
        <ele>597.9</ele>
      </trkpt>
      <trkpt lat="48.46359" lon="7.35919">
        <ele>596.2</ele>
      </trkpt>
      <trkpt lat="48.46354" lon="7.36022">
        <ele>598.6</ele>
      </trkpt>
      <trkpt lat="48.46369" lon="7.36127">
        <ele>598.5</ele>
      </trkpt>
      <trkpt lat="48.46324" lon="7.36089">
        <ele>601.6</ele>
      </trkpt>
      <trkpt lat="48.46258" lon="7.3603">
        <ele>605.3</ele>
      </trkpt>
      <trkpt lat="48.46209" lon="7.35984">
        <ele>608.1</ele>
      </trkpt>
      <trkpt lat="48.46204" lon="7.35975">
        <ele>608.2</ele>
      </trkpt>
      <trkpt lat="48.46199" lon="7.35976">
        <ele>608.1</ele>
      </trkpt>
      <trkpt lat="48.4614" lon="7.3591">
        <ele>611.6</ele>
      </trkpt>
      <trkpt lat="48.46105" lon="7.35863">
        <ele>613.6</ele>
      </trkpt>
      <trkpt lat="48.46099" lon="7.35848">
        <ele>614.7</ele>
      </trkpt>
      <trkpt lat="48.46087" lon="7.35828">
        <ele>617.6</ele>
      </trkpt>
      <trkpt lat="48.46048" lon="7.35774">
        <ele>619.1</ele>
      </trkpt>
      <trkpt lat="48.4604" lon="7.35755">
        <ele>619.6</ele>
      </trkpt>
      <trkpt lat="48.46037" lon="7.35745">
        <ele>624.3</ele>
      </trkpt>
      <trkpt lat="48.46033" lon="7.35732">
        <ele>624.6</ele>
      </trkpt>
      <trkpt lat="48.46033" lon="7.35717">
        <ele>625.2</ele>
      </trkpt>
      <trkpt lat="48.46035" lon="7.35696">
        <ele>626.2</ele>
      </trkpt>
      <trkpt lat="48.46024" lon="7.3566">
        <ele>632.8</ele>
      </trkpt>
      <trkpt lat="48.46015" lon="7.35643">
        <ele>633.6</ele>
      </trkpt>
      <trkpt lat="48.46002" lon="7.35633">
        <ele>634.4</ele>
      </trkpt>
      <trkpt lat="48.45988" lon="7.35626">
        <ele>632.3</ele>
      </trkpt>
      <trkpt lat="48.4597" lon="7.35608">
        <ele>632.4</ele>
      </trkpt>
      <trkpt lat="48.45952" lon="7.35584">
        <ele>631.3</ele>
      </trkpt>
      <trkpt lat="48.45942" lon="7.35564">
        <ele>638.2</ele>
      </trkpt>
      <trkpt lat="48.45933" lon="7.35537">
        <ele>640.6</ele>
      </trkpt>
      <trkpt lat="48.45909" lon="7.35502">
        <ele>636.2</ele>
      </trkpt>
      <trkpt lat="48.45869" lon="7.35433">
        <ele>636.2</ele>
      </trkpt>
      <trkpt lat="48.45848" lon="7.35405">
        <ele>640</ele>
      </trkpt>
      <trkpt lat="48.4584" lon="7.35383">
        <ele>643.3</ele>
      </trkpt>
      <trkpt lat="48.45828" lon="7.35336">
        <ele>636.6</ele>
        <extensions>
          <visugpx:TrkExtension xmlns:visugpx="https://www.visugpx.com/editgpx/">
            <visugpx:node>174</visugpx:node>
            </visugpx:TrkExtension>
        </extensions>
      </trkpt>
      <trkpt lat="48.45825" lon="7.35324">
        <ele>636.7</ele>
      </trkpt>
      <trkpt lat="48.45788" lon="7.35221">
        <ele>638.6</ele>
      </trkpt>
      <trkpt lat="48.45771" lon="7.35166">
        <ele>641.8</ele>
      </trkpt>
      <trkpt lat="48.45759" lon="7.35094">
        <ele>643.7</ele>
      </trkpt>
      <trkpt lat="48.45755" lon="7.35052">
        <ele>651.8</ele>
      </trkpt>
      <trkpt lat="48.45754" lon="7.35016">
        <ele>652</ele>
      </trkpt>
      <trkpt lat="48.45761" lon="7.34954">
        <ele>662.3</ele>
      </trkpt>
      <trkpt lat="48.45754" lon="7.3494">
        <ele>662</ele>
      </trkpt>
      <trkpt lat="48.45737" lon="7.34933">
        <ele>654.9</ele>
      </trkpt>
      <trkpt lat="48.45712" lon="7.34933">
        <ele>654.5</ele>
      </trkpt>
      <trkpt lat="48.4568" lon="7.34936">
        <ele>656.5</ele>
      </trkpt>
      <trkpt lat="48.45647" lon="7.34936">
        <ele>658.5</ele>
      </trkpt>
      <trkpt lat="48.45616" lon="7.3494">
        <ele>658.5</ele>
      </trkpt>
      <trkpt lat="48.45596" lon="7.34945">
        <ele>659.3</ele>
      </trkpt>
      <trkpt lat="48.4557" lon="7.34945">
        <ele>662.2</ele>
      </trkpt>
      <trkpt lat="48.45553" lon="7.34942">
        <ele>662.1</ele>
      </trkpt>
      <trkpt lat="48.45523" lon="7.34913">
        <ele>672.5</ele>
      </trkpt>
      <trkpt lat="48.45489" lon="7.34855">
        <ele>669.7</ele>
      </trkpt>
      <trkpt lat="48.45476" lon="7.34822">
        <ele>674.7</ele>
      </trkpt>
      <trkpt lat="48.45467" lon="7.34762">
        <ele>676.4</ele>
      </trkpt>
      <trkpt lat="48.45456" lon="7.34712">
        <ele>684.2</ele>
      </trkpt>
      <trkpt lat="48.45446" lon="7.34678">
        <ele>685.1</ele>
      </trkpt>
      <trkpt lat="48.45419" lon="7.34616">
        <ele>696.5</ele>
      </trkpt>
      <trkpt lat="48.45408" lon="7.34574">
        <ele>693.6</ele>
      </trkpt>
      <trkpt lat="48.45384" lon="7.34461">
        <ele>702.7</ele>
      </trkpt>
      <trkpt lat="48.45378" lon="7.34382">
        <ele>711.2</ele>
      </trkpt>
      <trkpt lat="48.45368" lon="7.34323">
        <ele>716.8</ele>
      </trkpt>
      <trkpt lat="48.45364" lon="7.34251">
        <ele>718.5</ele>
      </trkpt>
      <trkpt lat="48.45344" lon="7.34105">
        <ele>729.2</ele>
      </trkpt>
      <trkpt lat="48.45341" lon="7.34048">
        <ele>734.8</ele>
      </trkpt>
      <trkpt lat="48.45343" lon="7.33983">
        <ele>737.8</ele>
      </trkpt>
      <trkpt lat="48.4534" lon="7.33905">
        <ele>744.8</ele>
      </trkpt>
      <trkpt lat="48.45307" lon="7.33819">
        <ele>754</ele>
      </trkpt>
      <trkpt lat="48.45192" lon="7.33742">
        <ele>759.5</ele>
        <extensions>
          <visugpx:TrkExtension xmlns:visugpx="https://www.visugpx.com/editgpx/">
            <visugpx:node>175</visugpx:node>
            </visugpx:TrkExtension>
        </extensions>
      </trkpt>
      <trkpt lat="48.45152" lon="7.33716">
        <ele>753.7</ele>
      </trkpt>
      <trkpt lat="48.45124" lon="7.33686">
        <ele>755.4</ele>
      </trkpt>
      <trkpt lat="48.45085" lon="7.33637">
        <ele>767.4</ele>
      </trkpt>
      <trkpt lat="48.45026" lon="7.33532">
        <ele>775.1</ele>
      </trkpt>
      <trkpt lat="48.45009" lon="7.33518">
        <ele>775.1</ele>
      </trkpt>
      <trkpt lat="48.4499" lon="7.3352">
        <ele>776.6</ele>
      </trkpt>
      <trkpt lat="48.44979" lon="7.33529">
        <ele>777.1</ele>
      </trkpt>
      <trkpt lat="48.44972" lon="7.33544">
        <ele>776.6</ele>
      </trkpt>
      <trkpt lat="48.44941" lon="7.33573">
        <ele>778.9</ele>
      </trkpt>
      <trkpt lat="48.44876" lon="7.33621">
        <ele>783.5</ele>
      </trkpt>
      <trkpt lat="48.44808" lon="7.33667">
        <ele>783.3</ele>
      </trkpt>
      <trkpt lat="48.44763" lon="7.33707">
        <ele>782.8</ele>
      </trkpt>
      <trkpt lat="48.44724" lon="7.33727">
        <ele>784.9</ele>
      </trkpt>
      <trkpt lat="48.44695" lon="7.33723">
        <ele>785.3</ele>
      </trkpt>
      <trkpt lat="48.44677" lon="7.33705">
        <ele>786.4</ele>
      </trkpt>
      <trkpt lat="48.44669" lon="7.33674">
        <ele>789</ele>
      </trkpt>
      <trkpt lat="48.44666" lon="7.33553">
        <ele>791.5</ele>
      </trkpt>
      <trkpt lat="48.44681" lon="7.33392">
        <ele>807.5</ele>
      </trkpt>
      <trkpt lat="48.44677" lon="7.33313">
        <ele>811.2</ele>
      </trkpt>
      <trkpt lat="48.44668" lon="7.3326">
        <ele>812</ele>
      </trkpt>
      <trkpt lat="48.44653" lon="7.33209">
        <ele>804.9</ele>
      </trkpt>
      <trkpt lat="48.44634" lon="7.33149">
        <ele>812.5</ele>
      </trkpt>
      <trkpt lat="48.4459" lon="7.33091">
        <ele>811.7</ele>
      </trkpt>
      <trkpt lat="48.44539" lon="7.3304">
        <ele>813.5</ele>
      </trkpt>
      <trkpt lat="48.44486" lon="7.32985">
        <ele>816.8</ele>
      </trkpt>
      <trkpt lat="48.4448" lon="7.32976">
        <ele>817.2</ele>
        <extensions>
          <visugpx:TrkExtension xmlns:visugpx="https://www.visugpx.com/editgpx/">
            <visugpx:node>176</visugpx:node>
            </visugpx:TrkExtension>
        </extensions>
      </trkpt>
      <trkpt lat="48.44451" lon="7.32938">
        <ele>818.1</ele>
      </trkpt>
      <trkpt lat="48.44431" lon="7.32895">
        <ele>825</ele>
      </trkpt>
      <trkpt lat="48.44418" lon="7.32858">
        <ele>828.1</ele>
      </trkpt>
      <trkpt lat="48.4441" lon="7.32834">
        <ele>827.1</ele>
      </trkpt>
      <trkpt lat="48.44398" lon="7.32842">
        <ele>825.8</ele>
      </trkpt>
      <trkpt lat="48.44388" lon="7.3283">
        <ele>831.8</ele>
      </trkpt>
      <trkpt lat="48.44382" lon="7.32816">
        <ele>832.6</ele>
      </trkpt>
      <trkpt lat="48.44375" lon="7.32804">
        <ele>833.3</ele>
      </trkpt>
      <trkpt lat="48.44365" lon="7.32795">
        <ele>833.9</ele>
      </trkpt>
      <trkpt lat="48.44355" lon="7.32794">
        <ele>834.1</ele>
      </trkpt>
      <trkpt lat="48.44327" lon="7.32769">
        <ele>837.8</ele>
      </trkpt>
      <trkpt lat="48.44321" lon="7.32758">
        <ele>838.2</ele>
      </trkpt>
      <trkpt lat="48.44316" lon="7.32745">
        <ele>842</ele>
      </trkpt>
      <trkpt lat="48.44308" lon="7.32735">
        <ele>843.2</ele>
      </trkpt>
      <trkpt lat="48.44278" lon="7.32718">
        <ele>844.5</ele>
      </trkpt>
      <trkpt lat="48.44255" lon="7.32722">
        <ele>844.2</ele>
      </trkpt>
      <trkpt lat="48.44216" lon="7.32702">
        <ele>846.8</ele>
      </trkpt>
      <trkpt lat="48.44195" lon="7.32686">
        <ele>847.6</ele>
      </trkpt>
      <trkpt lat="48.44183" lon="7.32695">
        <ele>847.7</ele>
      </trkpt>
      <trkpt lat="48.44178" lon="7.3271">
        <ele>847.3</ele>
      </trkpt>
      <trkpt lat="48.44171" lon="7.3272">
        <ele>847.1</ele>
      </trkpt>
      <trkpt lat="48.44166" lon="7.32733">
        <ele>850.1</ele>
      </trkpt>
      <trkpt lat="48.44139" lon="7.32768">
        <ele>850.3</ele>
      </trkpt>
      <trkpt lat="48.4409" lon="7.3281">
        <ele>852.9</ele>
      </trkpt>
      <trkpt lat="48.44059" lon="7.32846">
        <ele>859.2</ele>
      </trkpt>
      <trkpt lat="48.44056" lon="7.32849">
        <ele>859.6</ele>
        <extensions>
          <visugpx:TrkExtension xmlns:visugpx="https://www.visugpx.com/editgpx/">
            <visugpx:node>177</visugpx:node>
            </visugpx:TrkExtension>
        </extensions>
      </trkpt>
      <trkpt lat="48.4404" lon="7.32861">
        <ele>861.1</ele>
      </trkpt>
      <trkpt lat="48.44028" lon="7.32907">
        <ele>862.6</ele>
      </trkpt>
      <trkpt lat="48.44022" lon="7.32921">
        <ele>863.6</ele>
      </trkpt>
      <trkpt lat="48.44013" lon="7.32931">
        <ele>864.3</ele>
      </trkpt>
      <trkpt lat="48.44007" lon="7.32932">
        <ele>864.8</ele>
      </trkpt>
      <trkpt lat="48.43992" lon="7.32962">
        <ele>873.4</ele>
      </trkpt>
      <trkpt lat="48.43976" lon="7.32988">
        <ele>873.8</ele>
      </trkpt>
      <trkpt lat="48.43954" lon="7.33008">
        <ele>873.5</ele>
      </trkpt>
      <trkpt lat="48.43871" lon="7.33039">
        <ele>886</ele>
      </trkpt>
      <trkpt lat="48.43695" lon="7.33059">
        <ele>911.8</ele>
      </trkpt>
      <trkpt lat="48.4363" lon="7.32993">
        <ele>922.5</ele>
      </trkpt>
      <trkpt lat="48.43619" lon="7.32974">
        <ele>923.3</ele>
      </trkpt>
      <trkpt lat="48.43597" lon="7.32956">
        <ele>924.4</ele>
      </trkpt>
      <trkpt lat="48.43506" lon="7.32928">
        <ele>931.8</ele>
      </trkpt>
      <trkpt lat="48.4345" lon="7.32908">
        <ele>936.8</ele>
      </trkpt>
      <trkpt lat="48.43433" lon="7.329">
        <ele>937.2</ele>
        <extensions>
          <visugpx:TrkExtension xmlns:visugpx="https://www.visugpx.com/editgpx/">
            <visugpx:node>178</visugpx:node>
            </visugpx:TrkExtension>
        </extensions>
      </trkpt>
      <trkpt lat="48.43389" lon="7.3288">
        <ele>942.6</ele>
      </trkpt>
      <trkpt lat="48.43296" lon="7.32845">
        <ele>945.1</ele>
      </trkpt>
      <trkpt lat="48.4329" lon="7.32836">
        <ele>944.8</ele>
      </trkpt>
      <trkpt lat="48.43249" lon="7.3277">
        <ele>942.1</ele>
      </trkpt>
      <trkpt lat="48.43201" lon="7.3274">
        <ele>943.2</ele>
      </trkpt>
      <trkpt lat="48.43164" lon="7.32713">
        <ele>940.7</ele>
      </trkpt>
      <trkpt lat="48.4314" lon="7.32689">
        <ele>941.8</ele>
      </trkpt>
      <trkpt lat="48.4309" lon="7.32644">
        <ele>946.4</ele>
      </trkpt>
      <trkpt lat="48.43058" lon="7.3262">
        <ele>949.4</ele>
      </trkpt>
      <trkpt lat="48.42983" lon="7.32589">
        <ele>953.6</ele>
      </trkpt>
      <trkpt lat="48.42959" lon="7.32574">
        <ele>955.9</ele>
      </trkpt>
      <trkpt lat="48.42853" lon="7.32519">
        <ele>954.9</ele>
      </trkpt>
      <trkpt lat="48.42805" lon="7.32476">
        <ele>953.1</ele>
      </trkpt>
      <trkpt lat="48.42821" lon="7.32444">
        <ele>953</ele>
      </trkpt>
      <trkpt lat="48.42845" lon="7.32388">
        <ele>954.7</ele>
      </trkpt>
      <trkpt lat="48.4285" lon="7.32371">
        <ele>954.4</ele>
        <extensions>
          <visugpx:TrkExtension xmlns:visugpx="https://www.visugpx.com/editgpx/">
            <visugpx:node>179</visugpx:node>
            </visugpx:TrkExtension>
        </extensions>
      </trkpt>
      <trkpt lat="48.42872" lon="7.32308">
        <ele>952.1</ele>
      </trkpt>
      <trkpt lat="48.42874" lon="7.32294">
        <ele>952</ele>
      </trkpt>
      <trkpt lat="48.42875" lon="7.32245">
        <ele>949.9</ele>
      </trkpt>
      <trkpt lat="48.42894" lon="7.32171">
        <ele>950.6</ele>
      </trkpt>
      <trkpt lat="48.42897" lon="7.32151">
        <ele>950.3</ele>
      </trkpt>
      <trkpt lat="48.42901" lon="7.32072">
        <ele>950.9</ele>
      </trkpt>
      <trkpt lat="48.42903" lon="7.3195">
        <ele>952.1</ele>
      </trkpt>
      <trkpt lat="48.42901" lon="7.31882">
        <ele>953.8</ele>
      </trkpt>
      <trkpt lat="48.42881" lon="7.31779">
        <ele>957.1</ele>
      </trkpt>
      <trkpt lat="48.42875" lon="7.31755">
        <ele>957.6</ele>
      </trkpt>
      <trkpt lat="48.42845" lon="7.31664">
        <ele>958.1</ele>
      </trkpt>
      <trkpt lat="48.42842" lon="7.31654">
        <ele>957.6</ele>
      </trkpt>
      <trkpt lat="48.42835" lon="7.31632">
        <ele>956.1</ele>
      </trkpt>
      <trkpt lat="48.42822" lon="7.31569">
        <ele>952.4</ele>
      </trkpt>
      <trkpt lat="48.42814" lon="7.31521">
        <ele>952</ele>
      </trkpt>
      <trkpt lat="48.42811" lon="7.31505">
        <ele>952.2</ele>
      </trkpt>
      <trkpt lat="48.42807" lon="7.31463">
        <ele>953.1</ele>
      </trkpt>
      <trkpt lat="48.42797" lon="7.31472">
        <ele>952.9</ele>
      </trkpt>
      <trkpt lat="48.42766" lon="7.31493">
        <ele>951.1</ele>
      </trkpt>
      <trkpt lat="48.42755" lon="7.31495">
        <ele>950.1</ele>
      </trkpt>
      <trkpt lat="48.42737" lon="7.31464">
        <ele>949</ele>
      </trkpt>
      <trkpt lat="48.4273" lon="7.31451">
        <ele>949.4</ele>
      </trkpt>
      <trkpt lat="48.42683" lon="7.31399">
        <ele>954.7</ele>
      </trkpt>
      <trkpt lat="48.42645" lon="7.31365">
        <ele>954.1</ele>
      </trkpt>
      <trkpt lat="48.42579" lon="7.31328">
        <ele>954.4</ele>
        <extensions>
          <visugpx:TrkExtension xmlns:visugpx="https://www.visugpx.com/editgpx/">
            <visugpx:node>180</visugpx:node>
            </visugpx:TrkExtension>
        </extensions>
      </trkpt>
      <trkpt lat="48.42436" lon="7.3125">
        <ele>951.7</ele>
      </trkpt>
      <trkpt lat="48.42415" lon="7.31228">
        <ele>945.4</ele>
      </trkpt>
      <trkpt lat="48.42389" lon="7.31179">
        <ele>945.1</ele>
      </trkpt>
      <trkpt lat="48.42339" lon="7.31038">
        <ele>952.4</ele>
      </trkpt>
      <trkpt lat="48.42335" lon="7.31016">
        <ele>952.2</ele>
      </trkpt>
      <trkpt lat="48.42316" lon="7.3097">
        <ele>945.7</ele>
      </trkpt>
      <trkpt lat="48.42282" lon="7.3091">
        <ele>946.9</ele>
      </trkpt>
      <trkpt lat="48.42252" lon="7.30803">
        <ele>949</ele>
      </trkpt>
      <trkpt lat="48.42225" lon="7.30691">
        <ele>940</ele>
      </trkpt>
      <trkpt lat="48.42197" lon="7.30607">
        <ele>939.2</ele>
      </trkpt>
      <trkpt lat="48.42161" lon="7.30509">
        <ele>935.1</ele>
      </trkpt>
      <trkpt lat="48.4203" lon="7.3034">
        <ele>931.1</ele>
      </trkpt>
      <trkpt lat="48.41984" lon="7.30298">
        <ele>928</ele>
      </trkpt>
      <trkpt lat="48.41932" lon="7.30237">
        <ele>935.5</ele>
      </trkpt>
      <trkpt lat="48.41913" lon="7.30221">
        <ele>926.6</ele>
      </trkpt>
      <trkpt lat="48.41887" lon="7.30218">
        <ele>925.2</ele>
      </trkpt>
      <trkpt lat="48.41868" lon="7.30222">
        <ele>922.4</ele>
      </trkpt>
      <trkpt lat="48.41847" lon="7.30218">
        <ele>920.2</ele>
      </trkpt>
      <trkpt lat="48.41822" lon="7.30183">
        <ele>914.7</ele>
      </trkpt>
      <trkpt lat="48.41813" lon="7.3016">
        <ele>924.4</ele>
      </trkpt>
      <trkpt lat="48.41789" lon="7.30118">
        <ele>924.1</ele>
      </trkpt>
      <trkpt lat="48.41766" lon="7.30062">
        <ele>933.4</ele>
      </trkpt>
      <trkpt lat="48.4175" lon="7.3">
        <ele>935</ele>
      </trkpt>
      <trkpt lat="48.41728" lon="7.29884">
        <ele>937.9</ele>
      </trkpt>
      <trkpt lat="48.41721" lon="7.29859">
        <ele>939</ele>
      </trkpt>
      <trkpt lat="48.41711" lon="7.29771">
        <ele>950.1</ele>
      </trkpt>
      <trkpt lat="48.41703" lon="7.29767">
        <ele>948.7</ele>
      </trkpt>
      <trkpt lat="48.41699" lon="7.29748">
        <ele>953.5</ele>
      </trkpt>
      <trkpt lat="48.41694" lon="7.29702">
        <ele>954.5</ele>
      </trkpt>
      <trkpt lat="48.41673" lon="7.29574">
        <ele>958.8</ele>
        <extensions>
          <visugpx:TrkExtension xmlns:visugpx="https://www.visugpx.com/editgpx/">
            <visugpx:node>181</visugpx:node>
            </visugpx:TrkExtension>
        </extensions>
      </trkpt>
      <trkpt lat="48.41671" lon="7.29561">
        <ele>963.3</ele>
      </trkpt>
      <trkpt lat="48.4165" lon="7.29539">
        <ele>953.5</ele>
      </trkpt>
      <trkpt lat="48.41611" lon="7.29519">
        <ele>952</ele>
      </trkpt>
      <trkpt lat="48.41565" lon="7.29488">
        <ele>955</ele>
      </trkpt>
      <trkpt lat="48.41521" lon="7.29455">
        <ele>955.8</ele>
      </trkpt>
      <trkpt lat="48.41504" lon="7.2944">
        <ele>956.6</ele>
      </trkpt>
      <trkpt lat="48.4148" lon="7.29413">
        <ele>956.7</ele>
      </trkpt>
      <trkpt lat="48.41454" lon="7.29389">
        <ele>955.2</ele>
      </trkpt>
      <trkpt lat="48.41444" lon="7.29368">
        <ele>955.8</ele>
      </trkpt>
      <trkpt lat="48.41434" lon="7.29365">
        <ele>955.2</ele>
      </trkpt>
      <trkpt lat="48.41417" lon="7.29359">
        <ele>954.6</ele>
      </trkpt>
      <trkpt lat="48.41385" lon="7.29333">
        <ele>950.8</ele>
      </trkpt>
      <trkpt lat="48.4137" lon="7.29321">
        <ele>949</ele>
      </trkpt>
      <trkpt lat="48.41338" lon="7.29301">
        <ele>947.6</ele>
      </trkpt>
      <trkpt lat="48.41337" lon="7.293">
        <ele>947.8</ele>
      </trkpt>
      <trkpt lat="48.41328" lon="7.29296">
        <ele>939.5</ele>
      </trkpt>
      <trkpt lat="48.41326" lon="7.29288">
        <ele>940.9</ele>
      </trkpt>
      <trkpt lat="48.41309" lon="7.2927">
        <ele>942.7</ele>
      </trkpt>
      <trkpt lat="48.41302" lon="7.29257">
        <ele>943.2</ele>
      </trkpt>
      <trkpt lat="48.41295" lon="7.2925">
        <ele>942.7</ele>
      </trkpt>
      <trkpt lat="48.41276" lon="7.29235">
        <ele>956.2</ele>
      </trkpt>
      <trkpt lat="48.41254" lon="7.29225">
        <ele>955.7</ele>
      </trkpt>
      <trkpt lat="48.41239" lon="7.29213">
        <ele>953.8</ele>
      </trkpt>
      <trkpt lat="48.41212" lon="7.29208">
        <ele>953.9</ele>
      </trkpt>
      <trkpt lat="48.41185" lon="7.29213">
        <ele>952.1</ele>
      </trkpt>
      <trkpt lat="48.41176" lon="7.29213">
        <ele>951.7</ele>
      </trkpt>
      <trkpt lat="48.41142" lon="7.29201">
        <ele>947.4</ele>
      </trkpt>
      <trkpt lat="48.41109" lon="7.29168">
        <ele>947.9</ele>
        <extensions>
          <visugpx:TrkExtension xmlns:visugpx="https://www.visugpx.com/editgpx/">
            <visugpx:node>182</visugpx:node>
            </visugpx:TrkExtension>
        </extensions>
      </trkpt>
      <trkpt lat="48.41095" lon="7.29154">
        <ele>957.9</ele>
      </trkpt>
      <trkpt lat="48.41075" lon="7.29124">
        <ele>953.4</ele>
      </trkpt>
      <trkpt lat="48.4102" lon="7.2903">
        <ele>970.1</ele>
      </trkpt>
      <trkpt lat="48.40995" lon="7.29001">
        <ele>970.4</ele>
      </trkpt>
      <trkpt lat="48.40985" lon="7.28995">
        <ele>975.8</ele>
      </trkpt>
      <trkpt lat="48.40938" lon="7.28991">
        <ele>974.6</ele>
      </trkpt>
      <trkpt lat="48.40905" lon="7.28974">
        <ele>970.2</ele>
      </trkpt>
      <trkpt lat="48.40884" lon="7.28965">
        <ele>970</ele>
      </trkpt>
      <trkpt lat="48.40857" lon="7.28928">
        <ele>971</ele>
      </trkpt>
      <trkpt lat="48.40835" lon="7.28892">
        <ele>979.4</ele>
      </trkpt>
      <trkpt lat="48.40806" lon="7.28825">
        <ele>978.1</ele>
      </trkpt>
      <trkpt lat="48.40774" lon="7.28727">
        <ele>984.4</ele>
      </trkpt>
      <trkpt lat="48.40761" lon="7.28677">
        <ele>985.5</ele>
      </trkpt>
      <trkpt lat="48.40755" lon="7.28646">
        <ele>991.1</ele>
      </trkpt>
      <trkpt lat="48.40751" lon="7.28579">
        <ele>992.2</ele>
      </trkpt>
      <trkpt lat="48.40758" lon="7.2845">
        <ele>1003.2</ele>
      </trkpt>
      <trkpt lat="48.40757" lon="7.28405">
        <ele>1003.2</ele>
      </trkpt>
      <trkpt lat="48.40759" lon="7.28365">
        <ele>1008.5</ele>
      </trkpt>
      <trkpt lat="48.40758" lon="7.28297">
        <ele>1013.6</ele>
      </trkpt>
      <trkpt lat="48.40756" lon="7.28236">
        <ele>1015.7</ele>
      </trkpt>
      <trkpt lat="48.4075" lon="7.2818">
        <ele>1011</ele>
      </trkpt>
      <trkpt lat="48.40744" lon="7.28138">
        <ele>1013.7</ele>
        <extensions>
          <visugpx:TrkExtension xmlns:visugpx="https://www.visugpx.com/editgpx/">
            <visugpx:node>183</visugpx:node>
            </visugpx:TrkExtension>
        </extensions>
      </trkpt>
      <trkpt lat="48.40742" lon="7.28124">
        <ele>1014.2</ele>
      </trkpt>
      <trkpt lat="48.40738" lon="7.27983">
        <ele>1026.2</ele>
      </trkpt>
      <trkpt lat="48.4074" lon="7.27881">
        <ele>1031.1</ele>
      </trkpt>
      <trkpt lat="48.40747" lon="7.27826">
        <ele>1039.4</ele>
      </trkpt>
      <trkpt lat="48.40755" lon="7.27779">
        <ele>1049.9</ele>
      </trkpt>
      <trkpt lat="48.40754" lon="7.2777">
        <ele>1049.6</ele>
      </trkpt>
      <trkpt lat="48.40751" lon="7.27742">
        <ele>1049.4</ele>
      </trkpt>
      <trkpt lat="48.40748" lon="7.27699">
        <ele>1041.5</ele>
      </trkpt>
      <trkpt lat="48.40731" lon="7.27643">
        <ele>1044.3</ele>
      </trkpt>
      <trkpt lat="48.40728" lon="7.27581">
        <ele>1050.5</ele>
      </trkpt>
      <trkpt lat="48.40717" lon="7.27564">
        <ele>1049.6</ele>
      </trkpt>
      <trkpt lat="48.40685" lon="7.27536">
        <ele>1049.5</ele>
      </trkpt>
      <trkpt lat="48.40654" lon="7.27521">
        <ele>1045.8</ele>
      </trkpt>
      <trkpt lat="48.40635" lon="7.27511">
        <ele>1044.7</ele>
      </trkpt>
      <trkpt lat="48.40608" lon="7.27487">
        <ele>1051.8</ele>
      </trkpt>
      <trkpt lat="48.4058" lon="7.27461">
        <ele>1050.6</ele>
      </trkpt>
      <trkpt lat="48.40559" lon="7.27438">
        <ele>1052.6</ele>
      </trkpt>
      <trkpt lat="48.40537" lon="7.27416">
        <ele>1060.5</ele>
      </trkpt>
      <trkpt lat="48.40522" lon="7.27416">
        <ele>1059.5</ele>
      </trkpt>
      <trkpt lat="48.40399" lon="7.27391">
        <ele>1065.5</ele>
      </trkpt>
      <trkpt lat="48.40366" lon="7.27384">
        <ele>1066.2</ele>
      </trkpt>
      <trkpt lat="48.4032" lon="7.27367">
        <ele>1067.5</ele>
      </trkpt>
      <trkpt lat="48.40226" lon="7.27348">
        <ele>1066.7</ele>
      </trkpt>
      <trkpt lat="48.4022" lon="7.27345">
        <ele>1066.4</ele>
        <extensions>
          <visugpx:TrkExtension xmlns:visugpx="https://www.visugpx.com/editgpx/">
            <visugpx:node>184</visugpx:node>
            </visugpx:TrkExtension>
        </extensions>
      </trkpt>
      <trkpt lat="48.40206" lon="7.27338">
        <ele>1065.9</ele>
      </trkpt>
      <trkpt lat="48.40191" lon="7.27325">
        <ele>1072.4</ele>
      </trkpt>
      <trkpt lat="48.4017" lon="7.27307">
        <ele>1072.7</ele>
      </trkpt>
      <trkpt lat="48.40131" lon="7.27246">
        <ele>1075</ele>
      </trkpt>
      <trkpt lat="48.40118" lon="7.27219">
        <ele>1074.8</ele>
      </trkpt>
      <trkpt lat="48.40105" lon="7.27186">
        <ele>1075.5</ele>
      </trkpt>
      <trkpt lat="48.40087" lon="7.2715">
        <ele>1078</ele>
      </trkpt>
      <trkpt lat="48.40087" lon="7.27148">
        <ele>1078.2</ele>
      </trkpt>
      <trkpt lat="48.40079" lon="7.27128">
        <ele>1073.4</ele>
      </trkpt>
      <trkpt lat="48.4007" lon="7.27098">
        <ele>1075.2</ele>
      </trkpt>
      <trkpt lat="48.40066" lon="7.2706">
        <ele>1076.3</ele>
      </trkpt>
      <trkpt lat="48.40059" lon="7.27027">
        <ele>1075.7</ele>
      </trkpt>
      <trkpt lat="48.40051" lon="7.27008">
        <ele>1075.5</ele>
      </trkpt>
      <trkpt lat="48.40039" lon="7.26996">
        <ele>1075.2</ele>
      </trkpt>
      <trkpt lat="48.4003" lon="7.26978">
        <ele>1075</ele>
      </trkpt>
      <trkpt lat="48.40026" lon="7.26957">
        <ele>1075</ele>
      </trkpt>
      <trkpt lat="48.40015" lon="7.26934">
        <ele>1075</ele>
      </trkpt>
      <trkpt lat="48.4001" lon="7.26929">
        <ele>1075</ele>
      </trkpt>
      <trkpt lat="48.40002" lon="7.26912">
        <ele>1074.6</ele>
      </trkpt>
      <trkpt lat="48.39992" lon="7.26897">
        <ele>1073.7</ele>
      </trkpt>
      <trkpt lat="48.39973" lon="7.26846">
        <ele>1072.9</ele>
      </trkpt>
      <trkpt lat="48.39968" lon="7.26823">
        <ele>1073.4</ele>
      </trkpt>
      <trkpt lat="48.39964" lon="7.26811">
        <ele>1073.6</ele>
      </trkpt>
      <trkpt lat="48.39968" lon="7.26803">
        <ele>1073.5</ele>
      </trkpt>
      <trkpt lat="48.39945" lon="7.26783">
        <ele>1074.1</ele>
      </trkpt>
      <trkpt lat="48.39924" lon="7.26762">
        <ele>1075</ele>
      </trkpt>
      <trkpt lat="48.39875" lon="7.26722">
        <ele>1077.8</ele>
      </trkpt>
      <trkpt lat="48.39866" lon="7.26713">
        <ele>1078</ele>
      </trkpt>
      <trkpt lat="48.39861" lon="7.26707">
        <ele>1078.1</ele>
      </trkpt>
      <trkpt lat="48.39857" lon="7.26708">
        <ele>1078.2</ele>
        <extensions>
          <visugpx:TrkExtension xmlns:visugpx="https://www.visugpx.com/editgpx/">
            <visugpx:node>186</visugpx:node>
            </visugpx:TrkExtension>
        </extensions>
      </trkpt>
      <trkpt lat="48.39851" lon="7.2671">
        <ele>1078.3</ele>
      </trkpt>
      <trkpt lat="48.39847" lon="7.26714">
        <ele>1078.4</ele>
      </trkpt>
      <trkpt lat="48.39835" lon="7.26716">
        <ele>1078.6</ele>
      </trkpt>
      <trkpt lat="48.39815" lon="7.26712">
        <ele>1081.8</ele>
      </trkpt>
      <trkpt lat="48.39793" lon="7.26704">
        <ele>1082.5</ele>
      </trkpt>
      <trkpt lat="48.39783" lon="7.26706">
        <ele>1082.8</ele>
      </trkpt>
      <trkpt lat="48.39744" lon="7.26691">
        <ele>1085.2</ele>
      </trkpt>
      <trkpt lat="48.39727" lon="7.26694">
        <ele>1085.3</ele>
      </trkpt>
      <trkpt lat="48.39726" lon="7.26717">
        <ele>1085.4</ele>
      </trkpt>
      <trkpt lat="48.39727" lon="7.26741">
        <ele>1085.5</ele>
      </trkpt>
      <trkpt lat="48.39729" lon="7.26767">
        <ele>1086.2</ele>
        <extensions>
          <visugpx:TrkExtension xmlns:visugpx="https://www.visugpx.com/editgpx/">
            <visugpx:node>187</visugpx:node>
            </visugpx:TrkExtension>
        </extensions>
      </trkpt>
      <trkpt lat="48.3973" lon="7.26782">
        <ele>1086.2</ele>
      </trkpt>
      <trkpt lat="48.39729" lon="7.26797">
        <ele>1086.1</ele>
      </trkpt>
      <trkpt lat="48.39725" lon="7.26809">
        <ele>1086.1</ele>
      </trkpt>
      <trkpt lat="48.39719" lon="7.26822">
        <ele>1086.3</ele>
      </trkpt>
      <trkpt lat="48.3971" lon="7.26825">
        <ele>1087</ele>
      </trkpt>
      <trkpt lat="48.39681" lon="7.26836">
        <ele>1090</ele>
      </trkpt>
      <trkpt lat="48.39661" lon="7.26841">
        <ele>1093.5</ele>
      </trkpt>
      <trkpt lat="48.39644" lon="7.26843">
        <ele>1094</ele>
      </trkpt>
      <trkpt lat="48.39624" lon="7.26847">
        <ele>1094.5</ele>
      </trkpt>
      <trkpt lat="48.39566" lon="7.26867">
        <ele>1097.6</ele>
        <extensions>
          <visugpx:TrkExtension xmlns:visugpx="https://www.visugpx.com/editgpx/">
            <visugpx:node>188</visugpx:node>
            </visugpx:TrkExtension>
        </extensions>
      </trkpt>
      <trkpt lat="48.39563" lon="7.26868">
        <ele>1097.7</ele>
      </trkpt>
      <trkpt lat="48.39542" lon="7.26879">
        <ele>1098.4</ele>
      </trkpt>
      <trkpt lat="48.39533" lon="7.26878">
        <ele>1098.5</ele>
      </trkpt>
      <trkpt lat="48.39524" lon="7.26881">
        <ele>1098.7</ele>
      </trkpt>
      <trkpt lat="48.39517" lon="7.26879">
        <ele>1098.7</ele>
      </trkpt>
      <trkpt lat="48.39508" lon="7.26854">
        <ele>1097.9</ele>
      </trkpt>
      <trkpt lat="48.39499" lon="7.26819">
        <ele>1095.8</ele>
      </trkpt>
      <trkpt lat="48.39491" lon="7.26824">
        <ele>1095.9</ele>
      </trkpt>
      <trkpt lat="48.39473" lon="7.26836">
        <ele>1097.7</ele>
      </trkpt>
      <trkpt lat="48.39469" lon="7.26838">
        <ele>1097.7</ele>
      </trkpt>
      <trkpt lat="48.39449" lon="7.26851">
        <ele>1097.7</ele>
      </trkpt>
      <trkpt lat="48.39446" lon="7.26851">
        <ele>1097.6</ele>
      </trkpt>
      <trkpt lat="48.39423" lon="7.26859">
        <ele>1097.4</ele>
      </trkpt>
      <trkpt lat="48.39413" lon="7.26873">
        <ele>1096.6</ele>
      </trkpt>
      <trkpt lat="48.39406" lon="7.26888">
        <ele>1096.9</ele>
      </trkpt>
      <trkpt lat="48.39392" lon="7.26878">
        <ele>1096.6</ele>
      </trkpt>
      <trkpt lat="48.39361" lon="7.26862">
        <ele>1096.2</ele>
      </trkpt>
      <trkpt lat="48.39313" lon="7.26841">
        <ele>1094.2</ele>
      </trkpt>
      <trkpt lat="48.39311" lon="7.26841">
        <ele>1094.1</ele>
        <extensions>
          <visugpx:TrkExtension xmlns:visugpx="https://www.visugpx.com/editgpx/">
            <visugpx:node>190</visugpx:node>
            </visugpx:TrkExtension>
        </extensions>
      </trkpt>
      <trkpt lat="48.39291" lon="7.26833">
        <ele>1088.5</ele>
      </trkpt>
      <trkpt lat="48.39267" lon="7.26828">
        <ele>1087.2</ele>
      </trkpt>
      <trkpt lat="48.39208" lon="7.26804">
        <ele>1079.8</ele>
      </trkpt>
      <trkpt lat="48.3919" lon="7.26797">
        <ele>1078.7</ele>
      </trkpt>
      <trkpt lat="48.3916" lon="7.26782">
        <ele>1073.3</ele>
      </trkpt>
      <trkpt lat="48.39112" lon="7.26747">
        <ele>1064.9</ele>
      </trkpt>
      <trkpt lat="48.39052" lon="7.267">
        <ele>1061</ele>
      </trkpt>
      <trkpt lat="48.39012" lon="7.26649">
        <ele>1053.4</ele>
      </trkpt>
      <trkpt lat="48.38954" lon="7.26525">
        <ele>1041.5</ele>
        <extensions>
          <visugpx:TrkExtension xmlns:visugpx="https://www.visugpx.com/editgpx/">
            <visugpx:node>192</visugpx:node>
            </visugpx:TrkExtension>
        </extensions>
      </trkpt>
      <trkpt lat="48.38949" lon="7.26514">
        <ele>1041</ele>
      </trkpt>
      <trkpt lat="48.38905" lon="7.26406">
        <ele>1027.7</ele>
      </trkpt>
      <trkpt lat="48.38896" lon="7.26379">
        <ele>1026</ele>
      </trkpt>
      <trkpt lat="48.38884" lon="7.26321">
        <ele>1019.7</ele>
      </trkpt>
      <trkpt lat="48.38877" lon="7.2626">
        <ele>1018.2</ele>
        <extensions>
          <visugpx:TrkExtension xmlns:visugpx="https://www.visugpx.com/editgpx/">
            <visugpx:node>193</visugpx:node>
            </visugpx:TrkExtension>
        </extensions>
      </trkpt>
      <trkpt lat="48.38874" lon="7.26263">
        <ele>1018.5</ele>
      </trkpt>
      <trkpt lat="48.38871" lon="7.26256">
        <ele>1018.6</ele>
      </trkpt>
      <trkpt lat="48.38866" lon="7.26248">
        <ele>1015.1</ele>
      </trkpt>
      <trkpt lat="48.3886" lon="7.26232">
        <ele>1015.2</ele>
      </trkpt>
      <trkpt lat="48.38845" lon="7.26193">
        <ele>1013.9</ele>
      </trkpt>
      <trkpt lat="48.38841" lon="7.2618">
        <ele>1014.1</ele>
      </trkpt>
      <trkpt lat="48.38835" lon="7.26155">
        <ele>1011</ele>
      </trkpt>
      <trkpt lat="48.38829" lon="7.26137">
        <ele>1011.3</ele>
      </trkpt>
      <trkpt lat="48.38793" lon="7.26037">
        <ele>1002</ele>
      </trkpt>
      <trkpt lat="48.38792" lon="7.26035">
        <ele>1001.9</ele>
      </trkpt>
      <trkpt lat="48.38781" lon="7.26017">
        <ele>1001.7</ele>
      </trkpt>
      <trkpt lat="48.3877" lon="7.26006">
        <ele>1001.8</ele>
      </trkpt>
      <trkpt lat="48.38767" lon="7.26004">
        <ele>1001.8</ele>
      </trkpt>
      <trkpt lat="48.38758" lon="7.25999">
        <ele>999.4</ele>
      </trkpt>
      <trkpt lat="48.38752" lon="7.2597">
        <ele>995.4</ele>
      </trkpt>
      <trkpt lat="48.38714" lon="7.25908">
        <ele>987.1</ele>
      </trkpt>
      <trkpt lat="48.38697" lon="7.25878">
        <ele>985.2</ele>
      </trkpt>
      <trkpt lat="48.38677" lon="7.25852">
        <ele>982.5</ele>
      </trkpt>
      <trkpt lat="48.38659" lon="7.25829">
        <ele>979.7</ele>
      </trkpt>
      <trkpt lat="48.38637" lon="7.25778">
        <ele>979.8</ele>
      </trkpt>
      <trkpt lat="48.38635" lon="7.25776">
        <ele>979.9</ele>
      </trkpt>
      <trkpt lat="48.38627" lon="7.2577">
        <ele>980.1</ele>
      </trkpt>
      <trkpt lat="48.38624" lon="7.25768">
        <ele>980.1</ele>
        <extensions>
          <visugpx:TrkExtension xmlns:visugpx="https://www.visugpx.com/editgpx/">
            <visugpx:node>194</visugpx:node>
            </visugpx:TrkExtension>
        </extensions>
      </trkpt>
      <trkpt lat="48.38616" lon="7.25764">
        <ele>980.3</ele>
      </trkpt>
      <trkpt lat="48.38608" lon="7.25761">
        <ele>980.5</ele>
      </trkpt>
      <trkpt lat="48.38599" lon="7.25759">
        <ele>980.5</ele>
      </trkpt>
      <trkpt lat="48.38577" lon="7.25759">
        <ele>980.9</ele>
      </trkpt>
      <trkpt lat="48.38568" lon="7.2576">
        <ele>981.2</ele>
      </trkpt>
      <trkpt lat="48.38557" lon="7.25763">
        <ele>981.4</ele>
      </trkpt>
      <trkpt lat="48.38539" lon="7.25771">
        <ele>981.3</ele>
      </trkpt>
      <trkpt lat="48.38526" lon="7.25783">
        <ele>981.5</ele>
      </trkpt>
      <trkpt lat="48.38496" lon="7.25776">
        <ele>976.6</ele>
      </trkpt>
      <trkpt lat="48.38476" lon="7.25774">
        <ele>976</ele>
      </trkpt>
      <trkpt lat="48.38437" lon="7.25773">
        <ele>973.9</ele>
      </trkpt>
      <trkpt lat="48.38394" lon="7.25776">
        <ele>968.4</ele>
      </trkpt>
      <trkpt lat="48.38372" lon="7.25781">
        <ele>967.6</ele>
      </trkpt>
      <trkpt lat="48.38366" lon="7.25776">
        <ele>967.4</ele>
      </trkpt>
      <trkpt lat="48.38361" lon="7.25767">
        <ele>967.2</ele>
      </trkpt>
      <trkpt lat="48.38349" lon="7.25742">
        <ele>966.4</ele>
      </trkpt>
      <trkpt lat="48.3834" lon="7.25751">
        <ele>966.3</ele>
      </trkpt>
      <trkpt lat="48.38323" lon="7.25811">
        <ele>964.6</ele>
      </trkpt>
      <trkpt lat="48.38321" lon="7.25818">
        <ele>964.1</ele>
      </trkpt>
      <trkpt lat="48.38313" lon="7.25822">
        <ele>964.5</ele>
      </trkpt>
      <trkpt lat="48.38306" lon="7.25827">
        <ele>964.8</ele>
      </trkpt>
      <trkpt lat="48.38301" lon="7.25833">
        <ele>965</ele>
      </trkpt>
      <trkpt lat="48.38287" lon="7.25853">
        <ele>958.7</ele>
      </trkpt>
      <trkpt lat="48.38281" lon="7.25859">
        <ele>958.4</ele>
      </trkpt>
      <trkpt lat="48.38275" lon="7.25864">
        <ele>958</ele>
      </trkpt>
      <trkpt lat="48.38262" lon="7.25873">
        <ele>956.8</ele>
      </trkpt>
      <trkpt lat="48.38256" lon="7.25875">
        <ele>956.2</ele>
      </trkpt>
      <trkpt lat="48.3825" lon="7.25876">
        <ele>951.6</ele>
      </trkpt>
      <trkpt lat="48.38241" lon="7.25874">
        <ele>951.7</ele>
      </trkpt>
      <trkpt lat="48.38209" lon="7.25865">
        <ele>951.2</ele>
      </trkpt>
      <trkpt lat="48.38203" lon="7.25861">
        <ele>951.3</ele>
      </trkpt>
      <trkpt lat="48.38195" lon="7.25858">
        <ele>951.3</ele>
      </trkpt>
      <trkpt lat="48.3817" lon="7.25851">
        <ele>952.1</ele>
      </trkpt>
      <trkpt lat="48.38162" lon="7.25848">
        <ele>945.8</ele>
      </trkpt>
      <trkpt lat="48.38156" lon="7.25844">
        <ele>945.5</ele>
      </trkpt>
      <trkpt lat="48.38149" lon="7.25839">
        <ele>944.2</ele>
      </trkpt>
      <trkpt lat="48.38137" lon="7.25827">
        <ele>950.8</ele>
      </trkpt>
      <trkpt lat="48.3813" lon="7.25818">
        <ele>950</ele>
      </trkpt>
      <trkpt lat="48.38119" lon="7.25801">
        <ele>949.6</ele>
      </trkpt>
      <trkpt lat="48.38109" lon="7.25785">
        <ele>950.1</ele>
        <extensions>
          <visugpx:TrkExtension xmlns:visugpx="https://www.visugpx.com/editgpx/">
            <visugpx:node>195</visugpx:node>
            </visugpx:TrkExtension>
        </extensions>
      </trkpt>
      <trkpt lat="48.38101" lon="7.25771">
        <ele>950.4</ele>
      </trkpt>
      <trkpt lat="48.38079" lon="7.25725">
        <ele>945.1</ele>
      </trkpt>
      <trkpt lat="48.38066" lon="7.25707">
        <ele>945</ele>
      </trkpt>
      <trkpt lat="48.38048" lon="7.25676">
        <ele>944.8</ele>
      </trkpt>
      <trkpt lat="48.38027" lon="7.25636">
        <ele>950.9</ele>
      </trkpt>
      <trkpt lat="48.38012" lon="7.25609">
        <ele>950.5</ele>
      </trkpt>
      <trkpt lat="48.38003" lon="7.2559">
        <ele>947.4</ele>
      </trkpt>
      <trkpt lat="48.37996" lon="7.25578">
        <ele>943.2</ele>
      </trkpt>
      <trkpt lat="48.37977" lon="7.25536">
        <ele>940.4</ele>
      </trkpt>
      <trkpt lat="48.37972" lon="7.2553">
        <ele>940.2</ele>
      </trkpt>
      <trkpt lat="48.37964" lon="7.25521">
        <ele>939.2</ele>
      </trkpt>
      <trkpt lat="48.37948" lon="7.25504">
        <ele>935.5</ele>
      </trkpt>
      <trkpt lat="48.37932" lon="7.25487">
        <ele>936.2</ele>
      </trkpt>
      <trkpt lat="48.37919" lon="7.25471">
        <ele>937.6</ele>
      </trkpt>
      <trkpt lat="48.37906" lon="7.25451">
        <ele>921.8</ele>
      </trkpt>
      <trkpt lat="48.37887" lon="7.25423">
        <ele>921.5</ele>
      </trkpt>
      <trkpt lat="48.37864" lon="7.2539">
        <ele>922.4</ele>
      </trkpt>
      <trkpt lat="48.37849" lon="7.25364">
        <ele>921.8</ele>
      </trkpt>
      <trkpt lat="48.37846" lon="7.25358">
        <ele>921.4</ele>
      </trkpt>
      <trkpt lat="48.37841" lon="7.25358">
        <ele>921</ele>
      </trkpt>
      <trkpt lat="48.37842" lon="7.2535">
        <ele>920.6</ele>
      </trkpt>
      <trkpt lat="48.37844" lon="7.25333">
        <ele>921.3</ele>
      </trkpt>
      <trkpt lat="48.37847" lon="7.2532">
        <ele>923.7</ele>
      </trkpt>
      <trkpt lat="48.37848" lon="7.2531">
        <ele>925.2</ele>
      </trkpt>
      <trkpt lat="48.37848" lon="7.25289">
        <ele>926.9</ele>
      </trkpt>
      <trkpt lat="48.37848" lon="7.25278">
        <ele>927</ele>
      </trkpt>
      <trkpt lat="48.37845" lon="7.25266">
        <ele>926.3</ele>
      </trkpt>
      <trkpt lat="48.37833" lon="7.25233">
        <ele>921.4</ele>
      </trkpt>
      <trkpt lat="48.37827" lon="7.25222">
        <ele>921.2</ele>
      </trkpt>
      <trkpt lat="48.37821" lon="7.25213">
        <ele>921.3</ele>
      </trkpt>
      <trkpt lat="48.37792" lon="7.25177">
        <ele>921.1</ele>
      </trkpt>
      <trkpt lat="48.37776" lon="7.2516">
        <ele>927.3</ele>
      </trkpt>
      <trkpt lat="48.37761" lon="7.25138">
        <ele>927.6</ele>
      </trkpt>
      <trkpt lat="48.37741" lon="7.25106">
        <ele>920</ele>
      </trkpt>
      <trkpt lat="48.37735" lon="7.25094">
        <ele>921.4</ele>
      </trkpt>
      <trkpt lat="48.37725" lon="7.2507">
        <ele>925.8</ele>
      </trkpt>
      <trkpt lat="48.37715" lon="7.2505">
        <ele>924.9</ele>
      </trkpt>
      <trkpt lat="48.3771" lon="7.25038">
        <ele>924.8</ele>
      </trkpt>
      <trkpt lat="48.37706" lon="7.25028">
        <ele>924.7</ele>
      </trkpt>
      <trkpt lat="48.37703" lon="7.25017">
        <ele>924.6</ele>
      </trkpt>
      <trkpt lat="48.37701" lon="7.25006">
        <ele>924.5</ele>
      </trkpt>
      <trkpt lat="48.377" lon="7.24999">
        <ele>925.2</ele>
      </trkpt>
      <trkpt lat="48.37702" lon="7.24987">
        <ele>925.4</ele>
      </trkpt>
      <trkpt lat="48.37702" lon="7.24978">
        <ele>925.3</ele>
      </trkpt>
      <trkpt lat="48.37703" lon="7.24967">
        <ele>925.3</ele>
      </trkpt>
      <trkpt lat="48.37707" lon="7.24945">
        <ele>925.3</ele>
      </trkpt>
      <trkpt lat="48.37715" lon="7.24902">
        <ele>920.3</ele>
      </trkpt>
      <trkpt lat="48.37723" lon="7.24852">
        <ele>917.9</ele>
      </trkpt>
      <trkpt lat="48.37725" lon="7.24843">
        <ele>918.3</ele>
      </trkpt>
      <trkpt lat="48.37734" lon="7.24826">
        <ele>911.9</ele>
      </trkpt>
      <trkpt lat="48.3774" lon="7.24817">
        <ele>911.3</ele>
      </trkpt>
      <trkpt lat="48.37753" lon="7.248">
        <ele>923.8</ele>
      </trkpt>
      <trkpt lat="48.3776" lon="7.24793">
        <ele>923.2</ele>
      </trkpt>
      <trkpt lat="48.37773" lon="7.24783">
        <ele>923.1</ele>
      </trkpt>
      <trkpt lat="48.37787" lon="7.24768">
        <ele>923.5</ele>
      </trkpt>
      <trkpt lat="48.37793" lon="7.24759">
        <ele>924</ele>
      </trkpt>
      <trkpt lat="48.37801" lon="7.24746">
        <ele>913.3</ele>
        <extensions>
          <visugpx:TrkExtension xmlns:visugpx="https://www.visugpx.com/editgpx/">
            <visugpx:node>196</visugpx:node>
            </visugpx:TrkExtension>
        </extensions>
      </trkpt>
      <trkpt lat="48.3782" lon="7.24709">
        <ele>911.2</ele>
      </trkpt>
      <trkpt lat="48.37853" lon="7.24636">
        <ele>912.9</ele>
      </trkpt>
      <trkpt lat="48.37855" lon="7.24632">
        <ele>912.7</ele>
      </trkpt>
      <trkpt lat="48.37874" lon="7.24581">
        <ele>897.5</ele>
      </trkpt>
      <trkpt lat="48.37885" lon="7.24558">
        <ele>898.2</ele>
      </trkpt>
      <trkpt lat="48.37899" lon="7.24538">
        <ele>897.5</ele>
      </trkpt>
      <trkpt lat="48.37911" lon="7.24521">
        <ele>897.4</ele>
      </trkpt>
      <trkpt lat="48.37934" lon="7.24489">
        <ele>912.6</ele>
      </trkpt>
      <trkpt lat="48.37941" lon="7.24479">
        <ele>916.4</ele>
      </trkpt>
      <trkpt lat="48.3794" lon="7.24468">
        <ele>917.1</ele>
      </trkpt>
      <trkpt lat="48.37941" lon="7.24437">
        <ele>916.5</ele>
      </trkpt>
      <trkpt lat="48.37939" lon="7.24423">
        <ele>914.4</ele>
      </trkpt>
      <trkpt lat="48.37928" lon="7.24398">
        <ele>917.1</ele>
      </trkpt>
      <trkpt lat="48.37883" lon="7.24314">
        <ele>899</ele>
      </trkpt>
      <trkpt lat="48.37861" lon="7.24284">
        <ele>895.1</ele>
      </trkpt>
      <trkpt lat="48.37851" lon="7.2427">
        <ele>892.8</ele>
      </trkpt>
      <trkpt lat="48.37826" lon="7.24221">
        <ele>873.1</ele>
      </trkpt>
      <trkpt lat="48.37814" lon="7.24186">
        <ele>874.3</ele>
      </trkpt>
      <trkpt lat="48.37795" lon="7.24024">
        <ele>865</ele>
      </trkpt>
      <trkpt lat="48.37792" lon="7.24005">
        <ele>863.6</ele>
      </trkpt>
      <trkpt lat="48.37786" lon="7.23983">
        <ele>860.8</ele>
      </trkpt>
      <trkpt lat="48.37778" lon="7.23963">
        <ele>859.7</ele>
      </trkpt>
      <trkpt lat="48.37756" lon="7.23919">
        <ele>849.2</ele>
      </trkpt>
      <trkpt lat="48.3771" lon="7.23846">
        <ele>831.4</ele>
      </trkpt>
      <trkpt lat="48.37689" lon="7.23794">
        <ele>832.2</ele>
      </trkpt>
      <trkpt lat="48.37669" lon="7.2373">
        <ele>828.3</ele>
      </trkpt>
      <trkpt lat="48.37664" lon="7.23718">
        <ele>816.4</ele>
      </trkpt>
      <trkpt lat="48.37654" lon="7.23701">
        <ele>814.9</ele>
      </trkpt>
      <trkpt lat="48.37633" lon="7.23677">
        <ele>813.6</ele>
      </trkpt>
      <trkpt lat="48.37607" lon="7.23648">
        <ele>808.8</ele>
      </trkpt>
      <trkpt lat="48.37592" lon="7.23629">
        <ele>807.5</ele>
      </trkpt>
      <trkpt lat="48.37575" lon="7.2361">
        <ele>804.6</ele>
        <extensions>
          <visugpx:TrkExtension xmlns:visugpx="https://www.visugpx.com/editgpx/">
            <visugpx:node>197</visugpx:node>
            </visugpx:TrkExtension>
        </extensions>
      </trkpt>
      <trkpt lat="48.37568" lon="7.23601">
        <ele>804.3</ele>
      </trkpt>
      <trkpt lat="48.3754" lon="7.23579">
        <ele>797.4</ele>
      </trkpt>
      <trkpt lat="48.37505" lon="7.23557">
        <ele>797.6</ele>
      </trkpt>
      <trkpt lat="48.37471" lon="7.23543">
        <ele>792.7</ele>
      </trkpt>
      <trkpt lat="48.37437" lon="7.23531">
        <ele>789.5</ele>
      </trkpt>
      <trkpt lat="48.37434" lon="7.23522">
        <ele>788.4</ele>
      </trkpt>
      <trkpt lat="48.37405" lon="7.23393">
        <ele>758</ele>
      </trkpt>
      <trkpt lat="48.374" lon="7.23353">
        <ele>753.8</ele>
      </trkpt>
      <trkpt lat="48.37401" lon="7.23327">
        <ele>750</ele>
      </trkpt>
      <trkpt lat="48.37413" lon="7.23322">
        <ele>751.8</ele>
      </trkpt>
      <trkpt lat="48.37413" lon="7.23302">
        <ele>747.6</ele>
      </trkpt>
      <trkpt lat="48.3742" lon="7.23225">
        <ele>746.2</ele>
      </trkpt>
      <trkpt lat="48.37426" lon="7.23153">
        <ele>748.8</ele>
      </trkpt>
      <trkpt lat="48.37427" lon="7.23126">
        <ele>749.3</ele>
      </trkpt>
      <trkpt lat="48.37427" lon="7.2312">
        <ele>749.5</ele>
      </trkpt>
      <trkpt lat="48.37426" lon="7.23105">
        <ele>749.9</ele>
      </trkpt>
      <trkpt lat="48.37416" lon="7.23031">
        <ele>747.3</ele>
      </trkpt>
      <trkpt lat="48.37398" lon="7.22917">
        <ele>745.2</ele>
      </trkpt>
      <trkpt lat="48.37394" lon="7.22897">
        <ele>741.5</ele>
      </trkpt>
      <trkpt lat="48.37386" lon="7.22876">
        <ele>739.9</ele>
      </trkpt>
      <trkpt lat="48.37378" lon="7.22857">
        <ele>739.2</ele>
      </trkpt>
      <trkpt lat="48.37363" lon="7.22833">
        <ele>738.4</ele>
      </trkpt>
      <trkpt lat="48.37356" lon="7.22825">
        <ele>738.7</ele>
      </trkpt>
      <trkpt lat="48.37354" lon="7.22811">
        <ele>738.7</ele>
      </trkpt>
      <trkpt lat="48.37354" lon="7.22793">
        <ele>738.7</ele>
      </trkpt>
      <trkpt lat="48.37354" lon="7.2277">
        <ele>739.4</ele>
      </trkpt>
      <trkpt lat="48.37352" lon="7.22767">
        <ele>739.8</ele>
      </trkpt>
      <trkpt lat="48.37335" lon="7.22762">
        <ele>741.6</ele>
      </trkpt>
      <trkpt lat="48.37331" lon="7.22755">
        <ele>741.7</ele>
      </trkpt>
      <trkpt lat="48.37322" lon="7.22731">
        <ele>741.3</ele>
      </trkpt>
      <trkpt lat="48.37318" lon="7.22704">
        <ele>741.5</ele>
      </trkpt>
      <trkpt lat="48.37324" lon="7.22669">
        <ele>746.4</ele>
      </trkpt>
      <trkpt lat="48.37326" lon="7.22621">
        <ele>745.2</ele>
      </trkpt>
      <trkpt lat="48.37318" lon="7.22533">
        <ele>743</ele>
      </trkpt>
      <trkpt lat="48.37309" lon="7.22478">
        <ele>739.7</ele>
      </trkpt>
      <trkpt lat="48.37308" lon="7.22467">
        <ele>739.2</ele>
      </trkpt>
      <trkpt lat="48.37307" lon="7.22414">
        <ele>734.9</ele>
      </trkpt>
      <trkpt lat="48.37311" lon="7.22364">
        <ele>732.3</ele>
      </trkpt>
      <trkpt lat="48.37308" lon="7.22316">
        <ele>726.3</ele>
        <extensions>
          <visugpx:TrkExtension xmlns:visugpx="https://www.visugpx.com/editgpx/">
            <visugpx:node>198</visugpx:node>
            </visugpx:TrkExtension>
        </extensions>
      </trkpt>
      <trkpt lat="48.37305" lon="7.22263">
        <ele>723.7</ele>
      </trkpt>
      <trkpt lat="48.37298" lon="7.22212">
        <ele>717.2</ele>
      </trkpt>
      <trkpt lat="48.37302" lon="7.22187">
        <ele>716.5</ele>
      </trkpt>
      <trkpt lat="48.37301" lon="7.22163">
        <ele>713</ele>
      </trkpt>
      <trkpt lat="48.37292" lon="7.22126">
        <ele>711.8</ele>
      </trkpt>
      <trkpt lat="48.37285" lon="7.22111">
        <ele>711.4</ele>
      </trkpt>
      <trkpt lat="48.3728" lon="7.22107">
        <ele>711.4</ele>
      </trkpt>
      <trkpt lat="48.37274" lon="7.2209">
        <ele>711.2</ele>
      </trkpt>
      <trkpt lat="48.37271" lon="7.22078">
        <ele>709.2</ele>
      </trkpt>
      <trkpt lat="48.37269" lon="7.22045">
        <ele>708.3</ele>
      </trkpt>
      <trkpt lat="48.37263" lon="7.22014">
        <ele>707.8</ele>
      </trkpt>
      <trkpt lat="48.37258" lon="7.22">
        <ele>706.6</ele>
      </trkpt>
      <trkpt lat="48.37242" lon="7.21971">
        <ele>701.2</ele>
      </trkpt>
      <trkpt lat="48.37242" lon="7.21954">
        <ele>700.5</ele>
      </trkpt>
      <trkpt lat="48.37239" lon="7.21942">
        <ele>700.5</ele>
      </trkpt>
      <trkpt lat="48.37233" lon="7.21935">
        <ele>700.3</ele>
      </trkpt>
      <trkpt lat="48.37229" lon="7.21922">
        <ele>700.4</ele>
      </trkpt>
      <trkpt lat="48.37214" lon="7.21912">
        <ele>701.4</ele>
      </trkpt>
      <trkpt lat="48.37213" lon="7.21899">
        <ele>701.5</ele>
      </trkpt>
      <trkpt lat="48.37203" lon="7.21898">
        <ele>701.4</ele>
      </trkpt>
      <trkpt lat="48.37195" lon="7.21911">
        <ele>700.9</ele>
      </trkpt>
      <trkpt lat="48.37182" lon="7.21912">
        <ele>700.1</ele>
      </trkpt>
      <trkpt lat="48.37173" lon="7.21909">
        <ele>699.6</ele>
      </trkpt>
      <trkpt lat="48.37132" lon="7.21894">
        <ele>698.1</ele>
      </trkpt>
      <trkpt lat="48.37112" lon="7.21877">
        <ele>698.4</ele>
      </trkpt>
      <trkpt lat="48.37097" lon="7.2186">
        <ele>700.4</ele>
      </trkpt>
      <trkpt lat="48.37059" lon="7.21776">
        <ele>703.4</ele>
      </trkpt>
      <trkpt lat="48.37033" lon="7.21702">
        <ele>712.1</ele>
      </trkpt>
      <trkpt lat="48.3701" lon="7.21623">
        <ele>717.3</ele>
      </trkpt>
      <trkpt lat="48.36959" lon="7.21508">
        <ele>686.7</ele>
      </trkpt>
      <trkpt lat="48.36909" lon="7.21388">
        <ele>652.8</ele>
      </trkpt>
      <trkpt lat="48.36909" lon="7.21387">
        <ele>652.7</ele>
        <extensions>
          <visugpx:TrkExtension xmlns:visugpx="https://www.visugpx.com/editgpx/">
            <visugpx:node>199</visugpx:node>
            </visugpx:TrkExtension>
        </extensions>
      </trkpt>
      <trkpt lat="48.36894" lon="7.21357">
        <ele>650.3</ele>
      </trkpt>
      <trkpt lat="48.36891" lon="7.21321">
        <ele>653.6</ele>
      </trkpt>
      <trkpt lat="48.36882" lon="7.21267">
        <ele>650.4</ele>
      </trkpt>
      <trkpt lat="48.36869" lon="7.21218">
        <ele>646.8</ele>
      </trkpt>
      <trkpt lat="48.36862" lon="7.21141">
        <ele>643.4</ele>
      </trkpt>
      <trkpt lat="48.36857" lon="7.21121">
        <ele>642.6</ele>
      </trkpt>
      <trkpt lat="48.36839" lon="7.21056">
        <ele>637.8</ele>
      </trkpt>
      <trkpt lat="48.36812" lon="7.20977">
        <ele>614.6</ele>
      </trkpt>
      <trkpt lat="48.36809" lon="7.2097">
        <ele>613.4</ele>
      </trkpt>
      <trkpt lat="48.36805" lon="7.20961">
        <ele>612.4</ele>
      </trkpt>
      <trkpt lat="48.36778" lon="7.20885">
        <ele>606.9</ele>
      </trkpt>
      <trkpt lat="48.36753" lon="7.2082">
        <ele>597.1</ele>
      </trkpt>
      <trkpt lat="48.36741" lon="7.20797">
        <ele>582.2</ele>
      </trkpt>
      <trkpt lat="48.36722" lon="7.20763">
        <ele>580.3</ele>
      </trkpt>
      <trkpt lat="48.36712" lon="7.20746">
        <ele>580.4</ele>
      </trkpt>
      <trkpt lat="48.36676" lon="7.20646">
        <ele>580.8</ele>
      </trkpt>
      <trkpt lat="48.3664" lon="7.2058">
        <ele>577.2</ele>
      </trkpt>
      <trkpt lat="48.36534" lon="7.20375">
        <ele>573.4</ele>
      </trkpt>
      <trkpt lat="48.36529" lon="7.20366">
        <ele>573</ele>
      </trkpt>
      <trkpt lat="48.36471" lon="7.203">
        <ele>559.2</ele>
      </trkpt>
      <trkpt lat="48.36425" lon="7.20228">
        <ele>552.1</ele>
      </trkpt>
      <trkpt lat="48.36421" lon="7.2022">
        <ele>551.9</ele>
        <extensions>
          <visugpx:TrkExtension xmlns:visugpx="https://www.visugpx.com/editgpx/">
            <visugpx:node>200</visugpx:node>
            </visugpx:TrkExtension>
        </extensions>
      </trkpt>
      <trkpt lat="48.3641" lon="7.20195">
        <ele>542.3</ele>
      </trkpt>
      <trkpt lat="48.36383" lon="7.20143">
        <ele>541.2</ele>
      </trkpt>
      <trkpt lat="48.36376" lon="7.20129">
        <ele>541</ele>
      </trkpt>
      <trkpt lat="48.36369" lon="7.2013">
        <ele>540.9</ele>
      </trkpt>
      <trkpt lat="48.36364" lon="7.20122">
        <ele>540.9</ele>
      </trkpt>
      <trkpt lat="48.36361" lon="7.19998">
        <ele>540.7</ele>
      </trkpt>
      <trkpt lat="48.36357" lon="7.19943">
        <ele>540.1</ele>
      </trkpt>
      <trkpt lat="48.3635" lon="7.19899">
        <ele>538</ele>
      </trkpt>
      <trkpt lat="48.36332" lon="7.19844">
        <ele>538.3</ele>
      </trkpt>
      <trkpt lat="48.36326" lon="7.19833">
        <ele>536.6</ele>
      </trkpt>
      <trkpt lat="48.36323" lon="7.19825">
        <ele>537.5</ele>
      </trkpt>
      <trkpt lat="48.363" lon="7.19763">
        <ele>539.5</ele>
      </trkpt>
      <trkpt lat="48.36288" lon="7.19735">
        <ele>541.5</ele>
      </trkpt>
      <trkpt lat="48.36277" lon="7.19717">
        <ele>542.7</ele>
      </trkpt>
      <trkpt lat="48.36264" lon="7.19695">
        <ele>544.1</ele>
      </trkpt>
      <trkpt lat="48.36262" lon="7.19691">
        <ele>544.5</ele>
      </trkpt>
      <trkpt lat="48.36249" lon="7.19671">
        <ele>549.4</ele>
      </trkpt>
      <trkpt lat="48.36192" lon="7.19598">
        <ele>556.8</ele>
      </trkpt>
      <trkpt lat="48.36136" lon="7.19561">
        <ele>564.3</ele>
      </trkpt>
      <trkpt lat="48.36101" lon="7.19513">
        <ele>565.8</ele>
      </trkpt>
      <trkpt lat="48.36046" lon="7.19417">
        <ele>569.4</ele>
      </trkpt>
      <trkpt lat="48.36038" lon="7.19397">
        <ele>568.9</ele>
      </trkpt>
      <trkpt lat="48.36028" lon="7.19384">
        <ele>569.2</ele>
      </trkpt>
      <trkpt lat="48.35982" lon="7.1935">
        <ele>573.3</ele>
      </trkpt>
      <trkpt lat="48.35964" lon="7.19342">
        <ele>573.6</ele>
      </trkpt>
      <trkpt lat="48.35945" lon="7.19342">
        <ele>573.9</ele>
      </trkpt>
      <trkpt lat="48.35935" lon="7.19343">
        <ele>574</ele>
      </trkpt>
      <trkpt lat="48.35918" lon="7.19327">
        <ele>573.2</ele>
      </trkpt>
      <trkpt lat="48.35885" lon="7.19296">
        <ele>575</ele>
      </trkpt>
      <trkpt lat="48.35857" lon="7.19274">
        <ele>575.9</ele>
      </trkpt>
      <trkpt lat="48.35839" lon="7.19265">
        <ele>576.7</ele>
      </trkpt>
      <trkpt lat="48.35823" lon="7.19269">
        <ele>580.9</ele>
      </trkpt>
      <trkpt lat="48.35811" lon="7.19266">
        <ele>581.7</ele>
      </trkpt>
      <trkpt lat="48.358" lon="7.19258">
        <ele>582.5</ele>
      </trkpt>
      <trkpt lat="48.35791" lon="7.19241">
        <ele>582.7</ele>
      </trkpt>
      <trkpt lat="48.35777" lon="7.19222">
        <ele>583.5</ele>
      </trkpt>
      <trkpt lat="48.35744" lon="7.19212">
        <ele>593.7</ele>
      </trkpt>
      <trkpt lat="48.35712" lon="7.19221">
        <ele>596.4</ele>
      </trkpt>
      <trkpt lat="48.35686" lon="7.19207">
        <ele>598.9</ele>
      </trkpt>
      <trkpt lat="48.35674" lon="7.19197">
        <ele>600.1</ele>
      </trkpt>
      <trkpt lat="48.35667" lon="7.19189">
        <ele>601.1</ele>
      </trkpt>
      <trkpt lat="48.35658" lon="7.19171">
        <ele>607.9</ele>
        <extensions>
          <visugpx:TrkExtension xmlns:visugpx="https://www.visugpx.com/editgpx/">
            <visugpx:node>201</visugpx:node>
            </visugpx:TrkExtension>
        </extensions>
      </trkpt>
      <trkpt lat="48.35649" lon="7.19154">
        <ele>608.2</ele>
      </trkpt>
      <trkpt lat="48.35638" lon="7.1914">
        <ele>609</ele>
      </trkpt>
      <trkpt lat="48.35601" lon="7.19134">
        <ele>612.5</ele>
      </trkpt>
      <trkpt lat="48.35579" lon="7.19128">
        <ele>621</ele>
      </trkpt>
      <trkpt lat="48.35564" lon="7.19124">
        <ele>621.3</ele>
      </trkpt>
      <trkpt lat="48.35545" lon="7.19124">
        <ele>622.1</ele>
      </trkpt>
      <trkpt lat="48.35531" lon="7.19122">
        <ele>622.7</ele>
      </trkpt>
      <trkpt lat="48.35488" lon="7.19098">
        <ele>626.7</ele>
      </trkpt>
      <trkpt lat="48.35467" lon="7.19083">
        <ele>627.9</ele>
      </trkpt>
      <trkpt lat="48.35453" lon="7.19074">
        <ele>628</ele>
      </trkpt>
      <trkpt lat="48.35433" lon="7.19061">
        <ele>628.2</ele>
      </trkpt>
      <trkpt lat="48.35417" lon="7.19039">
        <ele>629</ele>
      </trkpt>
      <trkpt lat="48.35399" lon="7.19009">
        <ele>628.4</ele>
      </trkpt>
      <trkpt lat="48.35395" lon="7.18997">
        <ele>632.7</ele>
      </trkpt>
      <trkpt lat="48.3537" lon="7.18933">
        <ele>635.3</ele>
      </trkpt>
      <trkpt lat="48.35334" lon="7.18844">
        <ele>648.7</ele>
      </trkpt>
      <trkpt lat="48.35301" lon="7.18746">
        <ele>657.1</ele>
      </trkpt>
      <trkpt lat="48.35278" lon="7.18678">
        <ele>662.4</ele>
      </trkpt>
      <trkpt lat="48.35272" lon="7.1867">
        <ele>663.7</ele>
      </trkpt>
      <trkpt lat="48.35262" lon="7.18658">
        <ele>669.3</ele>
      </trkpt>
      <trkpt lat="48.35249" lon="7.18649">
        <ele>672.7</ele>
      </trkpt>
      <trkpt lat="48.3521" lon="7.18634">
        <ele>674.9</ele>
      </trkpt>
      <trkpt lat="48.35184" lon="7.18629">
        <ele>675.6</ele>
      </trkpt>
      <trkpt lat="48.35165" lon="7.18629">
        <ele>678.1</ele>
      </trkpt>
      <trkpt lat="48.35148" lon="7.18635">
        <ele>678.1</ele>
      </trkpt>
      <trkpt lat="48.35087" lon="7.18681">
        <ele>671.5</ele>
        <extensions>
          <visugpx:TrkExtension xmlns:visugpx="https://www.visugpx.com/editgpx/">
            <visugpx:node>202</visugpx:node>
            </visugpx:TrkExtension>
        </extensions>
      </trkpt>
      <trkpt lat="48.3503" lon="7.18724">
        <ele>676.1</ele>
      </trkpt>
      <trkpt lat="48.35018" lon="7.18743">
        <ele>675.5</ele>
      </trkpt>
      <trkpt lat="48.3501" lon="7.18764">
        <ele>667.6</ele>
      </trkpt>
      <trkpt lat="48.34997" lon="7.18798">
        <ele>679.6</ele>
      </trkpt>
      <trkpt lat="48.34983" lon="7.18825">
        <ele>676.1</ele>
      </trkpt>
      <trkpt lat="48.34977" lon="7.18824">
        <ele>678.6</ele>
      </trkpt>
      <trkpt lat="48.34966" lon="7.18831">
        <ele>681.9</ele>
      </trkpt>
      <trkpt lat="48.34941" lon="7.18861">
        <ele>679.4</ele>
      </trkpt>
      <trkpt lat="48.34922" lon="7.18898">
        <ele>679.5</ele>
      </trkpt>
      <trkpt lat="48.349" lon="7.18956">
        <ele>687.6</ele>
      </trkpt>
      <trkpt lat="48.34883" lon="7.18987">
        <ele>687.2</ele>
      </trkpt>
      <trkpt lat="48.34877" lon="7.1899">
        <ele>688.6</ele>
      </trkpt>
      <trkpt lat="48.34872" lon="7.18992">
        <ele>689.7</ele>
      </trkpt>
      <trkpt lat="48.34815" lon="7.19096">
        <ele>683.7</ele>
      </trkpt>
      <trkpt lat="48.34795" lon="7.19127">
        <ele>684.2</ele>
      </trkpt>
      <trkpt lat="48.34779" lon="7.19142">
        <ele>684.5</ele>
      </trkpt>
      <trkpt lat="48.34753" lon="7.19154">
        <ele>685</ele>
      </trkpt>
      <trkpt lat="48.34733" lon="7.19155">
        <ele>686.9</ele>
      </trkpt>
      <trkpt lat="48.34718" lon="7.1915">
        <ele>687.3</ele>
      </trkpt>
      <trkpt lat="48.34609" lon="7.1909">
        <ele>686.9</ele>
      </trkpt>
      <trkpt lat="48.34576" lon="7.19078">
        <ele>695.6</ele>
      </trkpt>
      <trkpt lat="48.34551" lon="7.19073">
        <ele>700.9</ele>
      </trkpt>
      <trkpt lat="48.3452" lon="7.19073">
        <ele>699.2</ele>
      </trkpt>
      <trkpt lat="48.34485" lon="7.19071">
        <ele>695.8</ele>
      </trkpt>
      <trkpt lat="48.34452" lon="7.1907">
        <ele>695.9</ele>
        <extensions>
          <visugpx:TrkExtension xmlns:visugpx="https://www.visugpx.com/editgpx/">
            <visugpx:node>203</visugpx:node>
            </visugpx:TrkExtension>
        </extensions>
      </trkpt>
      <trkpt lat="48.34415" lon="7.19068">
        <ele>687.3</ele>
      </trkpt>
      <trkpt lat="48.34373" lon="7.19063">
        <ele>689.1</ele>
      </trkpt>
      <trkpt lat="48.34356" lon="7.19061">
        <ele>687.7</ele>
      </trkpt>
      <trkpt lat="48.34238" lon="7.19042">
        <ele>683.6</ele>
      </trkpt>
      <trkpt lat="48.34224" lon="7.19035">
        <ele>683.8</ele>
      </trkpt>
      <trkpt lat="48.34222" lon="7.19033">
        <ele>683.9</ele>
      </trkpt>
      <trkpt lat="48.34195" lon="7.19011">
        <ele>682.8</ele>
      </trkpt>
      <trkpt lat="48.34179" lon="7.18993">
        <ele>687.1</ele>
      </trkpt>
      <trkpt lat="48.34165" lon="7.1897">
        <ele>679.6</ele>
      </trkpt>
      <trkpt lat="48.34123" lon="7.18886">
        <ele>687.1</ele>
      </trkpt>
      <trkpt lat="48.34096" lon="7.18842">
        <ele>688.1</ele>
      </trkpt>
      <trkpt lat="48.34086" lon="7.18825">
        <ele>691.1</ele>
      </trkpt>
      <trkpt lat="48.34073" lon="7.18802">
        <ele>684.8</ele>
      </trkpt>
      <trkpt lat="48.34045" lon="7.18758">
        <ele>683.8</ele>
      </trkpt>
      <trkpt lat="48.34028" lon="7.18741">
        <ele>685.1</ele>
      </trkpt>
      <trkpt lat="48.3399" lon="7.18713">
        <ele>674.9</ele>
      </trkpt>
      <trkpt lat="48.3398" lon="7.18703">
        <ele>674.7</ele>
      </trkpt>
      <trkpt lat="48.33974" lon="7.18694">
        <ele>674.8</ele>
      </trkpt>
      <trkpt lat="48.33968" lon="7.18691">
        <ele>674.2</ele>
      </trkpt>
      <trkpt lat="48.33963" lon="7.18687">
        <ele>673.8</ele>
      </trkpt>
      <trkpt lat="48.33957" lon="7.1867">
        <ele>673.4</ele>
      </trkpt>
      <trkpt lat="48.33955" lon="7.18665">
        <ele>677.8</ele>
      </trkpt>
      <trkpt lat="48.33952" lon="7.18648">
        <ele>678</ele>
      </trkpt>
      <trkpt lat="48.33943" lon="7.18622">
        <ele>678.7</ele>
      </trkpt>
      <trkpt lat="48.33938" lon="7.18611">
        <ele>678.7</ele>
      </trkpt>
      <trkpt lat="48.339" lon="7.18576">
        <ele>674.2</ele>
      </trkpt>
      <trkpt lat="48.33897" lon="7.18568">
        <ele>673.9</ele>
      </trkpt>
      <trkpt lat="48.33848" lon="7.18535">
        <ele>671.5</ele>
      </trkpt>
      <trkpt lat="48.33831" lon="7.18527">
        <ele>667.5</ele>
      </trkpt>
      <trkpt lat="48.33794" lon="7.18524">
        <ele>667.2</ele>
        <extensions>
          <visugpx:TrkExtension xmlns:visugpx="https://www.visugpx.com/editgpx/">
            <visugpx:node>204</visugpx:node>
            </visugpx:TrkExtension>
        </extensions>
      </trkpt>
      <trkpt lat="48.33742" lon="7.1852">
        <ele>668.7</ele>
      </trkpt>
      <trkpt lat="48.3373" lon="7.18515">
        <ele>668.6</ele>
      </trkpt>
      <trkpt lat="48.33722" lon="7.18505">
        <ele>668.7</ele>
      </trkpt>
      <trkpt lat="48.33713" lon="7.18496">
        <ele>674.3</ele>
      </trkpt>
      <trkpt lat="48.33692" lon="7.18485">
        <ele>674.1</ele>
      </trkpt>
      <trkpt lat="48.33682" lon="7.18481">
        <ele>673.9</ele>
      </trkpt>
      <trkpt lat="48.33666" lon="7.18482">
        <ele>670.9</ele>
      </trkpt>
      <trkpt lat="48.33649" lon="7.18481">
        <ele>670.4</ele>
      </trkpt>
      <trkpt lat="48.33639" lon="7.18478">
        <ele>669.9</ele>
      </trkpt>
      <trkpt lat="48.33609" lon="7.18461">
        <ele>668.7</ele>
      </trkpt>
      <trkpt lat="48.33595" lon="7.18458">
        <ele>668.3</ele>
      </trkpt>
      <trkpt lat="48.33589" lon="7.18456">
        <ele>668.2</ele>
      </trkpt>
      <trkpt lat="48.33566" lon="7.18442">
        <ele>658.6</ele>
      </trkpt>
      <trkpt lat="48.33534" lon="7.18412">
        <ele>658.7</ele>
      </trkpt>
      <trkpt lat="48.3348" lon="7.18328">
        <ele>650.1</ele>
      </trkpt>
      <trkpt lat="48.33455" lon="7.18286">
        <ele>644.6</ele>
        <extensions>
          <visugpx:TrkExtension xmlns:visugpx="https://www.visugpx.com/editgpx/">
            <visugpx:node>205</visugpx:node>
            </visugpx:TrkExtension>
        </extensions>
      </trkpt>
      <trkpt lat="48.3343" lon="7.18244">
        <ele>640</ele>
      </trkpt>
      <trkpt lat="48.33379" lon="7.18174">
        <ele>627.1</ele>
      </trkpt>
      <trkpt lat="48.33376" lon="7.1817">
        <ele>626.7</ele>
      </trkpt>
      <trkpt lat="48.33357" lon="7.18169">
        <ele>623.8</ele>
      </trkpt>
      <trkpt lat="48.33344" lon="7.18173">
        <ele>621.8</ele>
      </trkpt>
      <trkpt lat="48.33335" lon="7.18182">
        <ele>621.8</ele>
      </trkpt>
      <trkpt lat="48.33231" lon="7.18184">
        <ele>615</ele>
      </trkpt>
      <trkpt lat="48.33181" lon="7.18185">
        <ele>618.3</ele>
      </trkpt>
      <trkpt lat="48.33176" lon="7.18179">
        <ele>619.2</ele>
      </trkpt>
      <trkpt lat="48.3316" lon="7.18097">
        <ele>623.9</ele>
      </trkpt>
      <trkpt lat="48.33162" lon="7.18051">
        <ele>625.7</ele>
      </trkpt>
      <trkpt lat="48.3314" lon="7.18044">
        <ele>627.1</ele>
      </trkpt>
      <trkpt lat="48.33041" lon="7.18">
        <ele>639.9</ele>
      </trkpt>
      <trkpt lat="48.32968" lon="7.17953">
        <ele>648.1</ele>
        <extensions>
          <visugpx:TrkExtension xmlns:visugpx="https://www.visugpx.com/editgpx/">
            <visugpx:node>206</visugpx:node>
            </visugpx:TrkExtension>
        </extensions>
      </trkpt>
      <trkpt lat="48.32929" lon="7.17929">
        <ele>650.1</ele>
      </trkpt>
      <trkpt lat="48.329" lon="7.17886">
        <ele>648.8</ele>
      </trkpt>
      <trkpt lat="48.32879" lon="7.17836">
        <ele>648.3</ele>
      </trkpt>
      <trkpt lat="48.3286" lon="7.1781">
        <ele>649.9</ele>
      </trkpt>
      <trkpt lat="48.32844" lon="7.17791">
        <ele>650.4</ele>
      </trkpt>
      <trkpt lat="48.32822" lon="7.17765">
        <ele>645.7</ele>
      </trkpt>
      <trkpt lat="48.32798" lon="7.17744">
        <ele>644</ele>
      </trkpt>
      <trkpt lat="48.32785" lon="7.17743">
        <ele>641.5</ele>
      </trkpt>
      <trkpt lat="48.32757" lon="7.1775">
        <ele>633</ele>
      </trkpt>
      <trkpt lat="48.32719" lon="7.17741">
        <ele>621.8</ele>
      </trkpt>
      <trkpt lat="48.32706" lon="7.17742">
        <ele>619</ele>
      </trkpt>
      <trkpt lat="48.32681" lon="7.17734">
        <ele>614</ele>
      </trkpt>
      <trkpt lat="48.3266" lon="7.17732">
        <ele>606.8</ele>
      </trkpt>
      <trkpt lat="48.32622" lon="7.17739">
        <ele>607.4</ele>
      </trkpt>
      <trkpt lat="48.32617" lon="7.17742">
        <ele>607.5</ele>
      </trkpt>
      <trkpt lat="48.32601" lon="7.17751">
        <ele>607.9</ele>
      </trkpt>
      <trkpt lat="48.32592" lon="7.17762">
        <ele>608.1</ele>
      </trkpt>
      <trkpt lat="48.32583" lon="7.17745">
        <ele>610.8</ele>
      </trkpt>
      <trkpt lat="48.32576" lon="7.17739">
        <ele>613</ele>
      </trkpt>
      <trkpt lat="48.32567" lon="7.17735">
        <ele>614.9</ele>
      </trkpt>
      <trkpt lat="48.32557" lon="7.17736">
        <ele>616.5</ele>
      </trkpt>
      <trkpt lat="48.32461" lon="7.1781">
        <ele>618</ele>
      </trkpt>
      <trkpt lat="48.32452" lon="7.1782">
        <ele>616.4</ele>
      </trkpt>
      <trkpt lat="48.32446" lon="7.17828">
        <ele>615</ele>
      </trkpt>
      <trkpt lat="48.32439" lon="7.17845">
        <ele>613</ele>
        <extensions>
          <visugpx:TrkExtension xmlns:visugpx="https://www.visugpx.com/editgpx/">
            <visugpx:node>207</visugpx:node>
            </visugpx:TrkExtension>
        </extensions>
      </trkpt>
      <trkpt lat="48.32438" lon="7.17846">
        <ele>612.9</ele>
      </trkpt>
      <trkpt lat="48.32433" lon="7.17859">
        <ele>613.5</ele>
      </trkpt>
      <trkpt lat="48.32427" lon="7.17883">
        <ele>614.5</ele>
      </trkpt>
      <trkpt lat="48.32408" lon="7.17962">
        <ele>606.4</ele>
      </trkpt>
      <trkpt lat="48.32388" lon="7.1806">
        <ele>613.8</ele>
      </trkpt>
      <trkpt lat="48.32377" lon="7.18105">
        <ele>619.8</ele>
      </trkpt>
      <trkpt lat="48.32373" lon="7.18113">
        <ele>619.6</ele>
      </trkpt>
      <trkpt lat="48.32369" lon="7.18121">
        <ele>619.6</ele>
      </trkpt>
      <trkpt lat="48.32363" lon="7.18127">
        <ele>619.2</ele>
      </trkpt>
      <trkpt lat="48.32315" lon="7.18148">
        <ele>605.6</ele>
      </trkpt>
      <trkpt lat="48.32277" lon="7.1817">
        <ele>606.5</ele>
      </trkpt>
      <trkpt lat="48.3227" lon="7.18177">
        <ele>605.5</ele>
      </trkpt>
      <trkpt lat="48.32265" lon="7.18186">
        <ele>605.7</ele>
      </trkpt>
      <trkpt lat="48.3226" lon="7.18199">
        <ele>606.7</ele>
      </trkpt>
      <trkpt lat="48.32257" lon="7.18236">
        <ele>606.9</ele>
      </trkpt>
      <trkpt lat="48.32256" lon="7.1828">
        <ele>609.5</ele>
      </trkpt>
      <trkpt lat="48.32259" lon="7.18295">
        <ele>609.7</ele>
      </trkpt>
      <trkpt lat="48.32264" lon="7.1831">
        <ele>609.1</ele>
      </trkpt>
      <trkpt lat="48.32272" lon="7.18323">
        <ele>609.2</ele>
      </trkpt>
      <trkpt lat="48.32302" lon="7.18324">
        <ele>615.2</ele>
      </trkpt>
      <trkpt lat="48.32319" lon="7.18329">
        <ele>619.1</ele>
      </trkpt>
      <trkpt lat="48.32331" lon="7.18343">
        <ele>619.7</ele>
      </trkpt>
      <trkpt lat="48.32335" lon="7.1836">
        <ele>632.2</ele>
      </trkpt>
      <trkpt lat="48.32335" lon="7.18379">
        <ele>632.6</ele>
      </trkpt>
      <trkpt lat="48.32334" lon="7.18388">
        <ele>631.7</ele>
      </trkpt>
      <trkpt lat="48.3233" lon="7.18396">
        <ele>615.6</ele>
      </trkpt>
      <trkpt lat="48.32294" lon="7.18438">
        <ele>610.5</ele>
      </trkpt>
      <trkpt lat="48.32288" lon="7.18447">
        <ele>609.8</ele>
      </trkpt>
      <trkpt lat="48.32279" lon="7.18464">
        <ele>609.2</ele>
      </trkpt>
      <trkpt lat="48.32272" lon="7.18485">
        <ele>608.3</ele>
      </trkpt>
      <trkpt lat="48.3227" lon="7.18499">
        <ele>607.7</ele>
      </trkpt>
      <trkpt lat="48.3227" lon="7.18509">
        <ele>608.2</ele>
      </trkpt>
      <trkpt lat="48.32272" lon="7.1852">
        <ele>608.9</ele>
      </trkpt>
      <trkpt lat="48.32274" lon="7.18525">
        <ele>609.2</ele>
      </trkpt>
      <trkpt lat="48.3231" lon="7.18581">
        <ele>614</ele>
      </trkpt>
      <trkpt lat="48.32335" lon="7.18634">
        <ele>626.9</ele>
      </trkpt>
      <trkpt lat="48.32336" lon="7.18647">
        <ele>624.9</ele>
      </trkpt>
      <trkpt lat="48.32334" lon="7.18665">
        <ele>618.1</ele>
      </trkpt>
      <trkpt lat="48.32326" lon="7.18682">
        <ele>613.7</ele>
      </trkpt>
      <trkpt lat="48.32307" lon="7.18705">
        <ele>611.4</ele>
      </trkpt>
      <trkpt lat="48.32298" lon="7.18721">
        <ele>611.1</ele>
      </trkpt>
      <trkpt lat="48.32294" lon="7.1873">
        <ele>610.9</ele>
      </trkpt>
      <trkpt lat="48.32292" lon="7.18743">
        <ele>610.9</ele>
      </trkpt>
      <trkpt lat="48.32293" lon="7.18766">
        <ele>614.6</ele>
      </trkpt>
      <trkpt lat="48.32295" lon="7.18782">
        <ele>615.1</ele>
      </trkpt>
      <trkpt lat="48.32314" lon="7.18856">
        <ele>621.1</ele>
      </trkpt>
      <trkpt lat="48.32314" lon="7.18879">
        <ele>621.6</ele>
      </trkpt>
      <trkpt lat="48.32309" lon="7.18892">
        <ele>622</ele>
      </trkpt>
      <trkpt lat="48.32307" lon="7.18896">
        <ele>622.1</ele>
      </trkpt>
      <trkpt lat="48.32299" lon="7.189">
        <ele>622.1</ele>
      </trkpt>
      <trkpt lat="48.32291" lon="7.18899">
        <ele>622.1</ele>
        <extensions>
          <visugpx:TrkExtension xmlns:visugpx="https://www.visugpx.com/editgpx/">
            <visugpx:node>208</visugpx:node>
            </visugpx:TrkExtension>
        </extensions>
      </trkpt>
      <trkpt lat="48.32254" lon="7.18892">
        <ele>622.2</ele>
      </trkpt>
      <trkpt lat="48.32229" lon="7.18869">
        <ele>620.9</ele>
      </trkpt>
      <trkpt lat="48.32206" lon="7.18859">
        <ele>621.1</ele>
      </trkpt>
      <trkpt lat="48.32183" lon="7.18854">
        <ele>621.3</ele>
      </trkpt>
      <trkpt lat="48.32157" lon="7.18853">
        <ele>625.3</ele>
      </trkpt>
      <trkpt lat="48.32132" lon="7.18857">
        <ele>628</ele>
      </trkpt>
      <trkpt lat="48.32126" lon="7.18858">
        <ele>628.5</ele>
      </trkpt>
      <trkpt lat="48.32117" lon="7.18859">
        <ele>629.1</ele>
      </trkpt>
      <trkpt lat="48.32082" lon="7.18851">
        <ele>639.2</ele>
      </trkpt>
      <trkpt lat="48.32065" lon="7.18841">
        <ele>641</ele>
      </trkpt>
      <trkpt lat="48.32057" lon="7.18833">
        <ele>639.1</ele>
      </trkpt>
      <trkpt lat="48.32015" lon="7.1878">
        <ele>645.7</ele>
      </trkpt>
      <trkpt lat="48.31993" lon="7.18757">
        <ele>657.2</ele>
      </trkpt>
      <trkpt lat="48.31968" lon="7.18735">
        <ele>653.6</ele>
      </trkpt>
      <trkpt lat="48.31961" lon="7.18733">
        <ele>654.3</ele>
      </trkpt>
      <trkpt lat="48.31946" lon="7.18727">
        <ele>655.8</ele>
      </trkpt>
      <trkpt lat="48.31928" lon="7.18722">
        <ele>657.4</ele>
      </trkpt>
      <trkpt lat="48.31911" lon="7.18722">
        <ele>660</ele>
      </trkpt>
      <trkpt lat="48.31894" lon="7.18725">
        <ele>659.2</ele>
      </trkpt>
      <trkpt lat="48.31857" lon="7.18756">
        <ele>669.4</ele>
      </trkpt>
      <trkpt lat="48.31838" lon="7.18775">
        <ele>670.1</ele>
      </trkpt>
      <trkpt lat="48.31823" lon="7.18794">
        <ele>665.6</ele>
      </trkpt>
      <trkpt lat="48.31806" lon="7.18824">
        <ele>668</ele>
      </trkpt>
      <trkpt lat="48.31793" lon="7.18855">
        <ele>676.1</ele>
      </trkpt>
      <trkpt lat="48.31777" lon="7.18913">
        <ele>677.4</ele>
      </trkpt>
      <trkpt lat="48.31773" lon="7.18941">
        <ele>685.3</ele>
      </trkpt>
      <trkpt lat="48.3177" lon="7.18997">
        <ele>687.4</ele>
      </trkpt>
      <trkpt lat="48.31768" lon="7.19019">
        <ele>695.3</ele>
      </trkpt>
      <trkpt lat="48.31749" lon="7.19074">
        <ele>695.6</ele>
      </trkpt>
      <trkpt lat="48.31736" lon="7.19103">
        <ele>702.1</ele>
      </trkpt>
      <trkpt lat="48.31729" lon="7.19114">
        <ele>702.8</ele>
      </trkpt>
      <trkpt lat="48.31721" lon="7.19121">
        <ele>703.1</ele>
      </trkpt>
      <trkpt lat="48.317" lon="7.19144">
        <ele>703.7</ele>
        <extensions>
          <visugpx:TrkExtension xmlns:visugpx="https://www.visugpx.com/editgpx/">
            <visugpx:node>209</visugpx:node>
            </visugpx:TrkExtension>
        </extensions>
      </trkpt>
      <trkpt lat="48.31664" lon="7.19184">
        <ele>709.8</ele>
      </trkpt>
      <trkpt lat="48.31593" lon="7.19293">
        <ele>730.6</ele>
      </trkpt>
      <trkpt lat="48.31575" lon="7.19329">
        <ele>730.2</ele>
      </trkpt>
      <trkpt lat="48.31572" lon="7.19341">
        <ele>736.3</ele>
      </trkpt>
      <trkpt lat="48.31554" lon="7.19391">
        <ele>743.2</ele>
      </trkpt>
      <trkpt lat="48.31524" lon="7.19445">
        <ele>758.5</ele>
      </trkpt>
      <trkpt lat="48.31498" lon="7.19468">
        <ele>764.7</ele>
      </trkpt>
      <trkpt lat="48.31486" lon="7.19473">
        <ele>765.8</ele>
      </trkpt>
      <trkpt lat="48.31464" lon="7.19476">
        <ele>767.2</ele>
      </trkpt>
      <trkpt lat="48.31454" lon="7.19474">
        <ele>767.8</ele>
      </trkpt>
      <trkpt lat="48.31444" lon="7.19469">
        <ele>768.3</ele>
      </trkpt>
      <trkpt lat="48.31437" lon="7.19459">
        <ele>767.7</ele>
      </trkpt>
      <trkpt lat="48.31412" lon="7.19402">
        <ele>771.1</ele>
      </trkpt>
      <trkpt lat="48.3139" lon="7.19334">
        <ele>770.7</ele>
      </trkpt>
      <trkpt lat="48.31383" lon="7.19316">
        <ele>768</ele>
      </trkpt>
      <trkpt lat="48.31373" lon="7.19301">
        <ele>769.4</ele>
      </trkpt>
      <trkpt lat="48.31347" lon="7.19274">
        <ele>772.5</ele>
      </trkpt>
      <trkpt lat="48.31323" lon="7.19258">
        <ele>778.7</ele>
      </trkpt>
      <trkpt lat="48.31314" lon="7.19283">
        <ele>779.8</ele>
      </trkpt>
      <trkpt lat="48.3129" lon="7.19337">
        <ele>788.1</ele>
      </trkpt>
      <trkpt lat="48.31277" lon="7.19356">
        <ele>788.6</ele>
      </trkpt>
      <trkpt lat="48.31247" lon="7.19386">
        <ele>790.1</ele>
      </trkpt>
      <trkpt lat="48.31235" lon="7.19403">
        <ele>792.2</ele>
      </trkpt>
      <trkpt lat="48.31219" lon="7.19417">
        <ele>801.2</ele>
      </trkpt>
      <trkpt lat="48.31204" lon="7.19427">
        <ele>801.4</ele>
      </trkpt>
      <trkpt lat="48.31168" lon="7.19436">
        <ele>799.7</ele>
      </trkpt>
      <trkpt lat="48.31128" lon="7.19437">
        <ele>798.3</ele>
      </trkpt>
      <trkpt lat="48.31083" lon="7.19446">
        <ele>793.7</ele>
      </trkpt>
      <trkpt lat="48.31075" lon="7.1945">
        <ele>794.1</ele>
      </trkpt>
      <trkpt lat="48.31046" lon="7.19487">
        <ele>796.9</ele>
      </trkpt>
      <trkpt lat="48.31036" lon="7.19492">
        <ele>796.5</ele>
        <extensions>
          <visugpx:TrkExtension xmlns:visugpx="https://www.visugpx.com/editgpx/">
            <visugpx:node>210</visugpx:node>
            </visugpx:TrkExtension>
        </extensions>
      </trkpt>
      <trkpt lat="48.31011" lon="7.19508">
        <ele>803.1</ele>
      </trkpt>
      <trkpt lat="48.31" lon="7.19512">
        <ele>802.6</ele>
      </trkpt>
      <trkpt lat="48.30956" lon="7.1951">
        <ele>797</ele>
      </trkpt>
      <trkpt lat="48.30918" lon="7.19518">
        <ele>793.3</ele>
      </trkpt>
      <trkpt lat="48.30893" lon="7.19518">
        <ele>786.7</ele>
      </trkpt>
      <trkpt lat="48.30865" lon="7.19527">
        <ele>784.8</ele>
      </trkpt>
      <trkpt lat="48.3072" lon="7.1959">
        <ele>766.7</ele>
      </trkpt>
      <trkpt lat="48.30696" lon="7.19604">
        <ele>764.5</ele>
      </trkpt>
      <trkpt lat="48.30664" lon="7.19615">
        <ele>757.9</ele>
      </trkpt>
      <trkpt lat="48.30653" lon="7.19618">
        <ele>757.8</ele>
      </trkpt>
      <trkpt lat="48.30633" lon="7.19614">
        <ele>757.7</ele>
      </trkpt>
      <trkpt lat="48.30621" lon="7.19615">
        <ele>757.7</ele>
      </trkpt>
      <trkpt lat="48.30612" lon="7.19617">
        <ele>757.6</ele>
      </trkpt>
      <trkpt lat="48.30608" lon="7.19614">
        <ele>757.7</ele>
      </trkpt>
      <trkpt lat="48.30573" lon="7.19595">
        <ele>761.2</ele>
      </trkpt>
      <trkpt lat="48.30567" lon="7.19588">
        <ele>761.6</ele>
      </trkpt>
      <trkpt lat="48.30563" lon="7.1958">
        <ele>763.8</ele>
      </trkpt>
      <trkpt lat="48.30553" lon="7.19544">
        <ele>766.1</ele>
      </trkpt>
      <trkpt lat="48.30535" lon="7.19495">
        <ele>767.8</ele>
      </trkpt>
      <trkpt lat="48.30523" lon="7.19466">
        <ele>768.4</ele>
      </trkpt>
      <trkpt lat="48.30513" lon="7.19422">
        <ele>770.9</ele>
      </trkpt>
      <trkpt lat="48.30509" lon="7.19408">
        <ele>769.1</ele>
      </trkpt>
      <trkpt lat="48.30497" lon="7.19382">
        <ele>777.4</ele>
      </trkpt>
      <trkpt lat="48.30485" lon="7.19361">
        <ele>776.6</ele>
      </trkpt>
      <trkpt lat="48.30467" lon="7.19335">
        <ele>777.3</ele>
      </trkpt>
      <trkpt lat="48.30448" lon="7.19314">
        <ele>771.9</ele>
      </trkpt>
      <trkpt lat="48.30429" lon="7.19306">
        <ele>773.1</ele>
      </trkpt>
      <trkpt lat="48.30377" lon="7.19288">
        <ele>781.3</ele>
      </trkpt>
      <trkpt lat="48.30364" lon="7.19281">
        <ele>781.8</ele>
      </trkpt>
      <trkpt lat="48.3034" lon="7.19251">
        <ele>782.6</ele>
      </trkpt>
      <trkpt lat="48.30334" lon="7.1924">
        <ele>778.8</ele>
        <extensions>
          <visugpx:TrkExtension xmlns:visugpx="https://www.visugpx.com/editgpx/">
            <visugpx:node>211</visugpx:node>
            </visugpx:TrkExtension>
        </extensions>
      </trkpt>
      <trkpt lat="48.30333" lon="7.19239">
        <ele>786.2</ele>
      </trkpt>
      <trkpt lat="48.30322" lon="7.19207">
        <ele>788.6</ele>
      </trkpt>
      <trkpt lat="48.30297" lon="7.19131">
        <ele>786.1</ele>
      </trkpt>
      <trkpt lat="48.3029" lon="7.19101">
        <ele>786.2</ele>
      </trkpt>
      <trkpt lat="48.30276" lon="7.1905">
        <ele>784.1</ele>
      </trkpt>
      <trkpt lat="48.30263" lon="7.18993">
        <ele>787</ele>
      </trkpt>
      <trkpt lat="48.30243" lon="7.18924">
        <ele>794.4</ele>
      </trkpt>
      <trkpt lat="48.30228" lon="7.18861">
        <ele>793.4</ele>
      </trkpt>
      <trkpt lat="48.30223" lon="7.18816">
        <ele>794.3</ele>
      </trkpt>
      <trkpt lat="48.30229" lon="7.18766">
        <ele>795.3</ele>
      </trkpt>
      <trkpt lat="48.30231" lon="7.18736">
        <ele>799.1</ele>
      </trkpt>
      <trkpt lat="48.3023" lon="7.18603">
        <ele>808.3</ele>
      </trkpt>
      <trkpt lat="48.30227" lon="7.18579">
        <ele>808.2</ele>
      </trkpt>
      <trkpt lat="48.30211" lon="7.18541">
        <ele>809</ele>
      </trkpt>
      <trkpt lat="48.30173" lon="7.18479">
        <ele>804.8</ele>
      </trkpt>
      <trkpt lat="48.30155" lon="7.18438">
        <ele>809.6</ele>
      </trkpt>
      <trkpt lat="48.3015" lon="7.18417">
        <ele>807.7</ele>
      </trkpt>
      <trkpt lat="48.30142" lon="7.18357">
        <ele>805.9</ele>
      </trkpt>
      <trkpt lat="48.30136" lon="7.18298">
        <ele>802.7</ele>
      </trkpt>
      <trkpt lat="48.30131" lon="7.18274">
        <ele>802.7</ele>
      </trkpt>
      <trkpt lat="48.30123" lon="7.18251">
        <ele>803.9</ele>
      </trkpt>
      <trkpt lat="48.30112" lon="7.18229">
        <ele>799.2</ele>
      </trkpt>
      <trkpt lat="48.30095" lon="7.18207">
        <ele>798.8</ele>
      </trkpt>
      <trkpt lat="48.30063" lon="7.18151">
        <ele>800.8</ele>
      </trkpt>
      <trkpt lat="48.30042" lon="7.18104">
        <ele>800.2</ele>
      </trkpt>
      <trkpt lat="48.30035" lon="7.18081">
        <ele>797.1</ele>
      </trkpt>
      <trkpt lat="48.30027" lon="7.18059">
        <ele>797.2</ele>
      </trkpt>
      <trkpt lat="48.30024" lon="7.18041">
        <ele>796.9</ele>
      </trkpt>
      <trkpt lat="48.30019" lon="7.18019">
        <ele>796.9</ele>
      </trkpt>
      <trkpt lat="48.30005" lon="7.17968">
        <ele>797.4</ele>
      </trkpt>
      <trkpt lat="48.29956" lon="7.17828">
        <ele>788.4</ele>
      </trkpt>
      <trkpt lat="48.29931" lon="7.17744">
        <ele>783.8</ele>
      </trkpt>
      <trkpt lat="48.29919" lon="7.17678">
        <ele>783.8</ele>
      </trkpt>
      <trkpt lat="48.29908" lon="7.17636">
        <ele>780.5</ele>
      </trkpt>
      <trkpt lat="48.29902" lon="7.1762">
        <ele>780</ele>
      </trkpt>
      <trkpt lat="48.29896" lon="7.17608">
        <ele>779.8</ele>
      </trkpt>
      <trkpt lat="48.2987" lon="7.17576">
        <ele>779.8</ele>
      </trkpt>
      <trkpt lat="48.29835" lon="7.17526">
        <ele>782.7</ele>
      </trkpt>
      <trkpt lat="48.29824" lon="7.17519">
        <ele>785.1</ele>
      </trkpt>
      <trkpt lat="48.29784" lon="7.17508">
        <ele>785</ele>
      </trkpt>
      <trkpt lat="48.29767" lon="7.17501">
        <ele>787.4</ele>
      </trkpt>
      <trkpt lat="48.29744" lon="7.17484">
        <ele>799</ele>
      </trkpt>
      <trkpt lat="48.29689" lon="7.17443">
        <ele>806.4</ele>
        <extensions>
          <visugpx:TrkExtension xmlns:visugpx="https://www.visugpx.com/editgpx/">
            <visugpx:node>212</visugpx:node>
            </visugpx:TrkExtension>
        </extensions>
      </trkpt>
      <trkpt lat="48.29636" lon="7.17403">
        <ele>813</ele>
      </trkpt>
      <trkpt lat="48.29598" lon="7.17359">
        <ele>812.3</ele>
      </trkpt>
      <trkpt lat="48.29593" lon="7.17356">
        <ele>812.1</ele>
      </trkpt>
      <trkpt lat="48.29557" lon="7.17353">
        <ele>809.2</ele>
      </trkpt>
      <trkpt lat="48.29547" lon="7.17355">
        <ele>809.3</ele>
      </trkpt>
      <trkpt lat="48.29535" lon="7.17354">
        <ele>809.8</ele>
      </trkpt>
      <trkpt lat="48.29527" lon="7.17351">
        <ele>810.4</ele>
      </trkpt>
      <trkpt lat="48.29512" lon="7.17347">
        <ele>812</ele>
      </trkpt>
      <trkpt lat="48.29467" lon="7.17334">
        <ele>815.6</ele>
      </trkpt>
      <trkpt lat="48.29429" lon="7.17335">
        <ele>820.5</ele>
      </trkpt>
      <trkpt lat="48.29407" lon="7.17339">
        <ele>824.4</ele>
      </trkpt>
      <trkpt lat="48.29363" lon="7.17353">
        <ele>826.5</ele>
      </trkpt>
      <trkpt lat="48.29308" lon="7.17375">
        <ele>829.8</ele>
      </trkpt>
      <trkpt lat="48.29296" lon="7.17376">
        <ele>829.7</ele>
      </trkpt>
      <trkpt lat="48.29281" lon="7.17373">
        <ele>829.8</ele>
      </trkpt>
      <trkpt lat="48.29262" lon="7.17376">
        <ele>829.7</ele>
      </trkpt>
      <trkpt lat="48.29254" lon="7.1738">
        <ele>829.6</ele>
      </trkpt>
      <trkpt lat="48.29236" lon="7.17391">
        <ele>825.7</ele>
      </trkpt>
      <trkpt lat="48.29203" lon="7.17432">
        <ele>830.6</ele>
      </trkpt>
      <trkpt lat="48.29169" lon="7.17484">
        <ele>836.4</ele>
      </trkpt>
      <trkpt lat="48.29112" lon="7.17553">
        <ele>839.5</ele>
      </trkpt>
      <trkpt lat="48.29101" lon="7.1756">
        <ele>840.3</ele>
      </trkpt>
      <trkpt lat="48.29097" lon="7.17563">
        <ele>840.8</ele>
      </trkpt>
      <trkpt lat="48.29088" lon="7.17564">
        <ele>841.2</ele>
      </trkpt>
      <trkpt lat="48.29078" lon="7.17563">
        <ele>844.5</ele>
      </trkpt>
      <trkpt lat="48.29068" lon="7.17562">
        <ele>844.8</ele>
      </trkpt>
      <trkpt lat="48.29007" lon="7.17516">
        <ele>844.8</ele>
      </trkpt>
      <trkpt lat="48.28965" lon="7.17482">
        <ele>847</ele>
      </trkpt>
      <trkpt lat="48.28914" lon="7.17432">
        <ele>853.7</ele>
      </trkpt>
      <trkpt lat="48.28908" lon="7.17426">
        <ele>852.7</ele>
        <extensions>
          <visugpx:TrkExtension xmlns:visugpx="https://www.visugpx.com/editgpx/">
            <visugpx:node>213</visugpx:node>
            </visugpx:TrkExtension>
        </extensions>
      </trkpt>
      <trkpt lat="48.28873" lon="7.17396">
        <ele>847</ele>
      </trkpt>
      <trkpt lat="48.28844" lon="7.17379">
        <ele>848.2</ele>
      </trkpt>
      <trkpt lat="48.28823" lon="7.17365">
        <ele>854</ele>
      </trkpt>
      <trkpt lat="48.28778" lon="7.1735">
        <ele>855.8</ele>
      </trkpt>
      <trkpt lat="48.28769" lon="7.17343">
        <ele>856.6</ele>
      </trkpt>
      <trkpt lat="48.28763" lon="7.17336">
        <ele>857.3</ele>
      </trkpt>
      <trkpt lat="48.2875" lon="7.17317">
        <ele>852.8</ele>
      </trkpt>
      <trkpt lat="48.2874" lon="7.17297">
        <ele>861.4</ele>
      </trkpt>
      <trkpt lat="48.28726" lon="7.17274">
        <ele>861.1</ele>
      </trkpt>
      <trkpt lat="48.28695" lon="7.17227">
        <ele>860.3</ele>
      </trkpt>
      <trkpt lat="48.28653" lon="7.17171">
        <ele>869.6</ele>
      </trkpt>
      <trkpt lat="48.28634" lon="7.17141">
        <ele>867</ele>
      </trkpt>
      <trkpt lat="48.28599" lon="7.1708">
        <ele>865.4</ele>
      </trkpt>
      <trkpt lat="48.28577" lon="7.17037">
        <ele>864.7</ele>
      </trkpt>
      <trkpt lat="48.28568" lon="7.17018">
        <ele>864.6</ele>
      </trkpt>
      <trkpt lat="48.28567" lon="7.17009">
        <ele>864.9</ele>
      </trkpt>
      <trkpt lat="48.28567" lon="7.16988">
        <ele>864.3</ele>
      </trkpt>
      <trkpt lat="48.28565" lon="7.16973">
        <ele>863.3</ele>
      </trkpt>
      <trkpt lat="48.28559" lon="7.16948">
        <ele>862.6</ele>
      </trkpt>
      <trkpt lat="48.28552" lon="7.16932">
        <ele>862.5</ele>
      </trkpt>
      <trkpt lat="48.28549" lon="7.16927">
        <ele>862.4</ele>
      </trkpt>
      <trkpt lat="48.28545" lon="7.1692">
        <ele>862.4</ele>
      </trkpt>
      <trkpt lat="48.2854" lon="7.16914">
        <ele>863.8</ele>
      </trkpt>
      <trkpt lat="48.28512" lon="7.16899">
        <ele>864.2</ele>
      </trkpt>
      <trkpt lat="48.28441" lon="7.1687">
        <ele>869.2</ele>
      </trkpt>
      <trkpt lat="48.28404" lon="7.16859">
        <ele>867</ele>
      </trkpt>
      <trkpt lat="48.28388" lon="7.16855">
        <ele>865.7</ele>
      </trkpt>
      <trkpt lat="48.28366" lon="7.1685">
        <ele>863.9</ele>
      </trkpt>
      <trkpt lat="48.28355" lon="7.16845">
        <ele>863.9</ele>
      </trkpt>
      <trkpt lat="48.28346" lon="7.16835">
        <ele>864.6</ele>
      </trkpt>
      <trkpt lat="48.28296" lon="7.16758">
        <ele>863.6</ele>
      </trkpt>
      <trkpt lat="48.2827" lon="7.16726">
        <ele>872.2</ele>
      </trkpt>
      <trkpt lat="48.28253" lon="7.16718">
        <ele>872.4</ele>
      </trkpt>
      <trkpt lat="48.28216" lon="7.16693">
        <ele>870.3</ele>
      </trkpt>
      <trkpt lat="48.28194" lon="7.16688">
        <ele>870.5</ele>
      </trkpt>
      <trkpt lat="48.2818" lon="7.16689">
        <ele>870.9</ele>
      </trkpt>
      <trkpt lat="48.2817" lon="7.16693">
        <ele>870.2</ele>
      </trkpt>
      <trkpt lat="48.28139" lon="7.16709">
        <ele>860.7</ele>
      </trkpt>
      <trkpt lat="48.28106" lon="7.16733">
        <ele>856.4</ele>
      </trkpt>
      <trkpt lat="48.2809" lon="7.1674">
        <ele>853.7</ele>
      </trkpt>
      <trkpt lat="48.28085" lon="7.16739">
        <ele>853.5</ele>
      </trkpt>
      <trkpt lat="48.28084" lon="7.16739">
        <ele>853.4</ele>
        <extensions>
          <visugpx:TrkExtension xmlns:visugpx="https://www.visugpx.com/editgpx/">
            <visugpx:node>214</visugpx:node>
            </visugpx:TrkExtension>
        </extensions>
      </trkpt>
      <trkpt lat="48.28073" lon="7.16729">
        <ele>844.4</ele>
      </trkpt>
      <trkpt lat="48.28065" lon="7.16719">
        <ele>843.2</ele>
      </trkpt>
      <trkpt lat="48.28055" lon="7.16699">
        <ele>843</ele>
      </trkpt>
      <trkpt lat="48.2805" lon="7.16681">
        <ele>843.7</ele>
      </trkpt>
      <trkpt lat="48.28048" lon="7.16668">
        <ele>843.8</ele>
      </trkpt>
      <trkpt lat="48.28042" lon="7.16592">
        <ele>846.9</ele>
      </trkpt>
      <trkpt lat="48.28041" lon="7.1651">
        <ele>847.9</ele>
      </trkpt>
      <trkpt lat="48.28037" lon="7.16456">
        <ele>850</ele>
      </trkpt>
      <trkpt lat="48.28034" lon="7.16428">
        <ele>849.4</ele>
      </trkpt>
      <trkpt lat="48.28017" lon="7.16379">
        <ele>850</ele>
      </trkpt>
      <trkpt lat="48.28009" lon="7.16362">
        <ele>849.6</ele>
      </trkpt>
      <trkpt lat="48.27996" lon="7.16337">
        <ele>840.8</ele>
      </trkpt>
      <trkpt lat="48.27973" lon="7.16306">
        <ele>837.8</ele>
      </trkpt>
      <trkpt lat="48.27961" lon="7.16293">
        <ele>836.9</ele>
      </trkpt>
      <trkpt lat="48.2794" lon="7.16276">
        <ele>836.4</ele>
      </trkpt>
      <trkpt lat="48.2793" lon="7.16268">
        <ele>836.4</ele>
      </trkpt>
      <trkpt lat="48.2792" lon="7.16262">
        <ele>836.6</ele>
      </trkpt>
      <trkpt lat="48.27915" lon="7.1626">
        <ele>835.3</ele>
      </trkpt>
      <trkpt lat="48.2789" lon="7.16247">
        <ele>836.9</ele>
      </trkpt>
      <trkpt lat="48.27879" lon="7.16241">
        <ele>837.2</ele>
      </trkpt>
      <trkpt lat="48.27869" lon="7.16232">
        <ele>837.5</ele>
      </trkpt>
      <trkpt lat="48.27856" lon="7.16213">
        <ele>837.7</ele>
      </trkpt>
      <trkpt lat="48.2784" lon="7.16184">
        <ele>839.5</ele>
      </trkpt>
      <trkpt lat="48.27791" lon="7.16141">
        <ele>843.6</ele>
      </trkpt>
      <trkpt lat="48.27761" lon="7.16119">
        <ele>844.7</ele>
      </trkpt>
      <trkpt lat="48.27731" lon="7.16087">
        <ele>847.4</ele>
      </trkpt>
      <trkpt lat="48.27709" lon="7.16067">
        <ele>844.9</ele>
      </trkpt>
      <trkpt lat="48.2768" lon="7.16051">
        <ele>845.1</ele>
      </trkpt>
      <trkpt lat="48.27668" lon="7.16042">
        <ele>845</ele>
      </trkpt>
      <trkpt lat="48.27654" lon="7.16025">
        <ele>844.2</ele>
      </trkpt>
      <trkpt lat="48.27643" lon="7.16015">
        <ele>844</ele>
      </trkpt>
      <trkpt lat="48.27632" lon="7.16007">
        <ele>843.6</ele>
      </trkpt>
      <trkpt lat="48.27578" lon="7.1598">
        <ele>841.6</ele>
      </trkpt>
      <trkpt lat="48.27558" lon="7.15964">
        <ele>840.9</ele>
      </trkpt>
      <trkpt lat="48.27525" lon="7.15948">
        <ele>841</ele>
      </trkpt>
      <trkpt lat="48.27493" lon="7.15936">
        <ele>842.1</ele>
      </trkpt>
      <trkpt lat="48.27478" lon="7.15931">
        <ele>842.1</ele>
      </trkpt>
      <trkpt lat="48.27467" lon="7.15932">
        <ele>842</ele>
      </trkpt>
      <trkpt lat="48.27454" lon="7.15931">
        <ele>842.3</ele>
      </trkpt>
      <trkpt lat="48.27441" lon="7.15926">
        <ele>843.1</ele>
      </trkpt>
      <trkpt lat="48.27425" lon="7.15913">
        <ele>846.1</ele>
      </trkpt>
      <trkpt lat="48.27402" lon="7.15884">
        <ele>852.3</ele>
      </trkpt>
      <trkpt lat="48.27397" lon="7.15882">
        <ele>852.7</ele>
      </trkpt>
      <trkpt lat="48.27377" lon="7.15876">
        <ele>854.1</ele>
      </trkpt>
      <trkpt lat="48.27353" lon="7.15873">
        <ele>855.7</ele>
      </trkpt>
      <trkpt lat="48.27341" lon="7.15875">
        <ele>856.2</ele>
      </trkpt>
      <trkpt lat="48.27334" lon="7.15879">
        <ele>856.4</ele>
      </trkpt>
      <trkpt lat="48.27287" lon="7.15915">
        <ele>869.6</ele>
      </trkpt>
      <trkpt lat="48.27267" lon="7.15932">
        <ele>875</ele>
      </trkpt>
      <trkpt lat="48.27236" lon="7.15975">
        <ele>891.1</ele>
      </trkpt>
      <trkpt lat="48.27222" lon="7.1599">
        <ele>892.5</ele>
        <extensions>
          <visugpx:TrkExtension xmlns:visugpx="https://www.visugpx.com/editgpx/">
            <visugpx:node>215</visugpx:node>
            </visugpx:TrkExtension>
        </extensions>
      </trkpt>
      <trkpt lat="48.27213" lon="7.15999">
        <ele>893.9</ele>
      </trkpt>
      <trkpt lat="48.27194" lon="7.16022">
        <ele>899.4</ele>
      </trkpt>
      <trkpt lat="48.27176" lon="7.16037">
        <ele>900.8</ele>
      </trkpt>
      <trkpt lat="48.27137" lon="7.16076">
        <ele>913.2</ele>
      </trkpt>
      <trkpt lat="48.27128" lon="7.16082">
        <ele>914.2</ele>
      </trkpt>
      <trkpt lat="48.27116" lon="7.16086">
        <ele>913.6</ele>
      </trkpt>
      <trkpt lat="48.27104" lon="7.16083">
        <ele>917.1</ele>
      </trkpt>
      <trkpt lat="48.2707" lon="7.16063">
        <ele>923.8</ele>
      </trkpt>
      <trkpt lat="48.2702" lon="7.16041">
        <ele>926.9</ele>
      </trkpt>
      <trkpt lat="48.27014" lon="7.16037">
        <ele>927.3</ele>
      </trkpt>
      <trkpt lat="48.27002" lon="7.16023">
        <ele>928.8</ele>
      </trkpt>
      <trkpt lat="48.26979" lon="7.16013">
        <ele>935.3</ele>
      </trkpt>
      <trkpt lat="48.26944" lon="7.15991">
        <ele>941.6</ele>
      </trkpt>
      <trkpt lat="48.26931" lon="7.15978">
        <ele>942.5</ele>
      </trkpt>
      <trkpt lat="48.269" lon="7.15965">
        <ele>949.2</ele>
      </trkpt>
      <trkpt lat="48.26883" lon="7.15954">
        <ele>949.8</ele>
      </trkpt>
      <trkpt lat="48.26876" lon="7.15947">
        <ele>950.1</ele>
      </trkpt>
      <trkpt lat="48.26856" lon="7.15912">
        <ele>951.7</ele>
      </trkpt>
      <trkpt lat="48.26852" lon="7.15909">
        <ele>952</ele>
      </trkpt>
      <trkpt lat="48.26851" lon="7.15909">
        <ele>952.1</ele>
      </trkpt>
      <trkpt lat="48.26849" lon="7.15905">
        <ele>952.1</ele>
      </trkpt>
      <trkpt lat="48.26848" lon="7.159">
        <ele>952</ele>
      </trkpt>
      <trkpt lat="48.26848" lon="7.15886">
        <ele>951.7</ele>
      </trkpt>
      <trkpt lat="48.26839" lon="7.1585">
        <ele>953.1</ele>
      </trkpt>
      <trkpt lat="48.2683" lon="7.15835">
        <ele>956.7</ele>
      </trkpt>
      <trkpt lat="48.26822" lon="7.15826">
        <ele>959</ele>
      </trkpt>
      <trkpt lat="48.26817" lon="7.15825">
        <ele>959.8</ele>
      </trkpt>
      <trkpt lat="48.26795" lon="7.15801">
        <ele>962.9</ele>
      </trkpt>
      <trkpt lat="48.26785" lon="7.15796">
        <ele>963.9</ele>
      </trkpt>
      <trkpt lat="48.26779" lon="7.15789">
        <ele>964.4</ele>
      </trkpt>
      <trkpt lat="48.26774" lon="7.15781">
        <ele>965</ele>
      </trkpt>
      <trkpt lat="48.26747" lon="7.15755">
        <ele>972.4</ele>
      </trkpt>
      <trkpt lat="48.26717" lon="7.15718">
        <ele>972.2</ele>
      </trkpt>
      <trkpt lat="48.26694" lon="7.15695">
        <ele>972.7</ele>
      </trkpt>
      <trkpt lat="48.26689" lon="7.15689">
        <ele>972.9</ele>
      </trkpt>
      <trkpt lat="48.26676" lon="7.15673">
        <ele>973.9</ele>
      </trkpt>
      <trkpt lat="48.26666" lon="7.15662">
        <ele>974.4</ele>
      </trkpt>
      <trkpt lat="48.26661" lon="7.15657">
        <ele>973.8</ele>
      </trkpt>
      <trkpt lat="48.26655" lon="7.15646">
        <ele>973</ele>
      </trkpt>
      <trkpt lat="48.266" lon="7.15551">
        <ele>972.5</ele>
      </trkpt>
      <trkpt lat="48.26548" lon="7.15433">
        <ele>979.8</ele>
      </trkpt>
      <trkpt lat="48.2653" lon="7.15384">
        <ele>984.5</ele>
      </trkpt>
      <trkpt lat="48.26531" lon="7.15364">
        <ele>984.6</ele>
      </trkpt>
      <trkpt lat="48.26538" lon="7.15325">
        <ele>984.3</ele>
        <extensions>
          <visugpx:TrkExtension xmlns:visugpx="https://www.visugpx.com/editgpx/">
            <visugpx:node>216</visugpx:node>
            </visugpx:TrkExtension>
        </extensions>
      </trkpt>
      <trkpt lat="48.26542" lon="7.15302">
        <ele>983.8</ele>
      </trkpt>
      <trkpt lat="48.2655" lon="7.15236">
        <ele>981.9</ele>
      </trkpt>
      <trkpt lat="48.26562" lon="7.15184">
        <ele>981.4</ele>
      </trkpt>
      <trkpt lat="48.26562" lon="7.15163">
        <ele>978.4</ele>
      </trkpt>
      <trkpt lat="48.26555" lon="7.15124">
        <ele>976.2</ele>
      </trkpt>
      <trkpt lat="48.2655" lon="7.15105">
        <ele>975.2</ele>
      </trkpt>
      <trkpt lat="48.26494" lon="7.14951">
        <ele>951.7</ele>
      </trkpt>
      <trkpt lat="48.26468" lon="7.14862">
        <ele>945</ele>
      </trkpt>
      <trkpt lat="48.26464" lon="7.14841">
        <ele>944.5</ele>
      </trkpt>
      <trkpt lat="48.26454" lon="7.1481">
        <ele>941.5</ele>
      </trkpt>
      <trkpt lat="48.26445" lon="7.14786">
        <ele>941.2</ele>
      </trkpt>
      <trkpt lat="48.26439" lon="7.14775">
        <ele>941</ele>
      </trkpt>
      <trkpt lat="48.26433" lon="7.14768">
        <ele>941</ele>
      </trkpt>
      <trkpt lat="48.26424" lon="7.14765">
        <ele>941.1</ele>
      </trkpt>
      <trkpt lat="48.26389" lon="7.14761">
        <ele>936.2</ele>
      </trkpt>
      <trkpt lat="48.26151" lon="7.14721">
        <ele>904.8</ele>
      </trkpt>
      <trkpt lat="48.26112" lon="7.14704">
        <ele>906.4</ele>
      </trkpt>
      <trkpt lat="48.26086" lon="7.1469">
        <ele>908.3</ele>
      </trkpt>
      <trkpt lat="48.26055" lon="7.14672">
        <ele>912.7</ele>
      </trkpt>
      <trkpt lat="48.26002" lon="7.14615">
        <ele>912.2</ele>
      </trkpt>
      <trkpt lat="48.25986" lon="7.1459">
        <ele>911.4</ele>
      </trkpt>
      <trkpt lat="48.25976" lon="7.14571">
        <ele>909.1</ele>
      </trkpt>
      <trkpt lat="48.25966" lon="7.14553">
        <ele>908.2</ele>
      </trkpt>
      <trkpt lat="48.25962" lon="7.14542">
        <ele>907.9</ele>
      </trkpt>
      <trkpt lat="48.25959" lon="7.14519">
        <ele>907.6</ele>
      </trkpt>
      <trkpt lat="48.25956" lon="7.14473">
        <ele>907.1</ele>
        <extensions>
          <visugpx:TrkExtension xmlns:visugpx="https://www.visugpx.com/editgpx/">
            <visugpx:node>217</visugpx:node>
            </visugpx:TrkExtension>
        </extensions>
      </trkpt>
      <trkpt lat="48.25951" lon="7.14397">
        <ele>908.2</ele>
      </trkpt>
      <trkpt lat="48.25946" lon="7.14347">
        <ele>908.6</ele>
      </trkpt>
      <trkpt lat="48.25937" lon="7.14291">
        <ele>907.6</ele>
      </trkpt>
      <trkpt lat="48.25929" lon="7.14268">
        <ele>907</ele>
      </trkpt>
      <trkpt lat="48.25923" lon="7.14256">
        <ele>906.5</ele>
      </trkpt>
      <trkpt lat="48.25905" lon="7.14231">
        <ele>899.4</ele>
      </trkpt>
      <trkpt lat="48.25862" lon="7.14186">
        <ele>893.3</ele>
      </trkpt>
      <trkpt lat="48.25836" lon="7.14163">
        <ele>887.8</ele>
      </trkpt>
      <trkpt lat="48.25793" lon="7.14132">
        <ele>877.7</ele>
      </trkpt>
      <trkpt lat="48.25758" lon="7.14125">
        <ele>875</ele>
      </trkpt>
      <trkpt lat="48.25737" lon="7.14123">
        <ele>864.8</ele>
      </trkpt>
      <trkpt lat="48.25732" lon="7.14123">
        <ele>864.5</ele>
      </trkpt>
      <trkpt lat="48.25673" lon="7.14144">
        <ele>860.5</ele>
      </trkpt>
      <trkpt lat="48.25644" lon="7.14142">
        <ele>853.4</ele>
      </trkpt>
      <trkpt lat="48.25629" lon="7.14141">
        <ele>852.5</ele>
      </trkpt>
      <trkpt lat="48.25606" lon="7.14129">
        <ele>851.3</ele>
      </trkpt>
      <trkpt lat="48.25595" lon="7.14117">
        <ele>850.5</ele>
      </trkpt>
      <trkpt lat="48.25524" lon="7.14063">
        <ele>847</ele>
      </trkpt>
      <trkpt lat="48.25479" lon="7.14018">
        <ele>847.1</ele>
      </trkpt>
      <trkpt lat="48.25456" lon="7.13982">
        <ele>842.5</ele>
      </trkpt>
      <trkpt lat="48.25446" lon="7.1397">
        <ele>842.3</ele>
        <extensions>
          <visugpx:TrkExtension xmlns:visugpx="https://www.visugpx.com/editgpx/">
            <visugpx:node>218</visugpx:node>
            </visugpx:TrkExtension>
        </extensions>
      </trkpt>
      <trkpt lat="48.25442" lon="7.13965">
        <ele>842.1</ele>
      </trkpt>
      <trkpt lat="48.25429" lon="7.13959">
        <ele>842.3</ele>
      </trkpt>
      <trkpt lat="48.25418" lon="7.1395">
        <ele>842</ele>
      </trkpt>
      <trkpt lat="48.25395" lon="7.13918">
        <ele>840.7</ele>
      </trkpt>
      <trkpt lat="48.25387" lon="7.13914">
        <ele>836.6</ele>
      </trkpt>
      <trkpt lat="48.25376" lon="7.13911">
        <ele>835.7</ele>
      </trkpt>
      <trkpt lat="48.25336" lon="7.13905">
        <ele>834.6</ele>
      </trkpt>
      <trkpt lat="48.25312" lon="7.13906">
        <ele>831.1</ele>
      </trkpt>
      <trkpt lat="48.25287" lon="7.13905">
        <ele>829.6</ele>
      </trkpt>
      <trkpt lat="48.25269" lon="7.13905">
        <ele>829.2</ele>
      </trkpt>
      <trkpt lat="48.2527" lon="7.13901">
        <ele>829.1</ele>
      </trkpt>
      <trkpt lat="48.25269" lon="7.13894">
        <ele>828.8</ele>
      </trkpt>
      <trkpt lat="48.25268" lon="7.13889">
        <ele>828.5</ele>
      </trkpt>
      <trkpt lat="48.25267" lon="7.13885">
        <ele>828.3</ele>
      </trkpt>
      <trkpt lat="48.25261" lon="7.13882">
        <ele>828</ele>
      </trkpt>
      <trkpt lat="48.25255" lon="7.13881">
        <ele>827.9</ele>
      </trkpt>
      <trkpt lat="48.25234" lon="7.13885">
        <ele>831.5</ele>
      </trkpt>
      <trkpt lat="48.25215" lon="7.13895">
        <ele>833.3</ele>
      </trkpt>
      <trkpt lat="48.25196" lon="7.13901">
        <ele>835.9</ele>
      </trkpt>
      <trkpt lat="48.2517" lon="7.13911">
        <ele>842.2</ele>
      </trkpt>
      <trkpt lat="48.25095" lon="7.13935">
        <ele>860.1</ele>
      </trkpt>
      <trkpt lat="48.25042" lon="7.13937">
        <ele>866</ele>
      </trkpt>
      <trkpt lat="48.25037" lon="7.13929">
        <ele>866.2</ele>
      </trkpt>
      <trkpt lat="48.2503" lon="7.13913">
        <ele>866.6</ele>
      </trkpt>
      <trkpt lat="48.2501" lon="7.13851">
        <ele>867.2</ele>
      </trkpt>
      <trkpt lat="48.2499" lon="7.13805">
        <ele>864</ele>
      </trkpt>
      <trkpt lat="48.24961" lon="7.1376">
        <ele>861.8</ele>
      </trkpt>
      <trkpt lat="48.24949" lon="7.13747">
        <ele>859</ele>
      </trkpt>
      <trkpt lat="48.24937" lon="7.13738">
        <ele>858.9</ele>
      </trkpt>
      <trkpt lat="48.24932" lon="7.13732">
        <ele>858.8</ele>
      </trkpt>
      <trkpt lat="48.24928" lon="7.13725">
        <ele>858.6</ele>
      </trkpt>
      <trkpt lat="48.24924" lon="7.13718">
        <ele>858.5</ele>
      </trkpt>
      <trkpt lat="48.2492" lon="7.13705">
        <ele>858.2</ele>
      </trkpt>
      <trkpt lat="48.24866" lon="7.13633">
        <ele>850.9</ele>
      </trkpt>
      <trkpt lat="48.24857" lon="7.13615">
        <ele>850.6</ele>
      </trkpt>
      <trkpt lat="48.24813" lon="7.13456">
        <ele>868.9</ele>
      </trkpt>
      <trkpt lat="48.24805" lon="7.1343">
        <ele>870.8</ele>
      </trkpt>
      <trkpt lat="48.24801" lon="7.13418">
        <ele>871.2</ele>
      </trkpt>
      <trkpt lat="48.24794" lon="7.13392">
        <ele>876.6</ele>
      </trkpt>
      <trkpt lat="48.24785" lon="7.13346">
        <ele>877.6</ele>
      </trkpt>
      <trkpt lat="48.2478" lon="7.13345">
        <ele>877.5</ele>
      </trkpt>
      <trkpt lat="48.24758" lon="7.13324">
        <ele>875.3</ele>
      </trkpt>
      <trkpt lat="48.24737" lon="7.13335">
        <ele>873.1</ele>
      </trkpt>
      <trkpt lat="48.24725" lon="7.13345">
        <ele>869.6</ele>
      </trkpt>
      <trkpt lat="48.24723" lon="7.13349">
        <ele>869</ele>
      </trkpt>
      <trkpt lat="48.24724" lon="7.13355">
        <ele>868.9</ele>
      </trkpt>
      <trkpt lat="48.24713" lon="7.13361">
        <ele>867</ele>
      </trkpt>
      <trkpt lat="48.24705" lon="7.13374">
        <ele>865.8</ele>
      </trkpt>
      <trkpt lat="48.24695" lon="7.13381">
        <ele>864.5</ele>
      </trkpt>
      <trkpt lat="48.2469" lon="7.13377">
        <ele>864</ele>
      </trkpt>
      <trkpt lat="48.24686" lon="7.13378">
        <ele>863.5</ele>
      </trkpt>
      <trkpt lat="48.24683" lon="7.13384">
        <ele>863</ele>
      </trkpt>
      <trkpt lat="48.24677" lon="7.13385">
        <ele>862.4</ele>
      </trkpt>
      <trkpt lat="48.24675" lon="7.13383">
        <ele>862.4</ele>
      </trkpt>
      <trkpt lat="48.24672" lon="7.13374">
        <ele>862.4</ele>
      </trkpt>
      <trkpt lat="48.24658" lon="7.13372">
        <ele>849.4</ele>
      </trkpt>
      <trkpt lat="48.24615" lon="7.13378">
        <ele>845.1</ele>
      </trkpt>
      <trkpt lat="48.24607" lon="7.13379">
        <ele>844.3</ele>
        <extensions>
          <visugpx:TrkExtension xmlns:visugpx="https://www.visugpx.com/editgpx/">
            <visugpx:node>219</visugpx:node>
            </visugpx:TrkExtension>
        </extensions>
      </trkpt>
      <trkpt lat="48.24552" lon="7.13381">
        <ele>828.9</ele>
      </trkpt>
      <trkpt lat="48.24516" lon="7.13362">
        <ele>824.6</ele>
      </trkpt>
      <trkpt lat="48.24488" lon="7.13359">
        <ele>811.1</ele>
      </trkpt>
      <trkpt lat="48.24464" lon="7.13345">
        <ele>808.1</ele>
      </trkpt>
      <trkpt lat="48.24419" lon="7.13327">
        <ele>798.1</ele>
      </trkpt>
      <trkpt lat="48.24395" lon="7.13313">
        <ele>787.6</ele>
      </trkpt>
      <trkpt lat="48.24351" lon="7.13297">
        <ele>781.6</ele>
      </trkpt>
      <trkpt lat="48.24335" lon="7.13293">
        <ele>780.6</ele>
      </trkpt>
      <trkpt lat="48.24333" lon="7.13279">
        <ele>776.2</ele>
      </trkpt>
      <trkpt lat="48.24319" lon="7.13281">
        <ele>776.4</ele>
      </trkpt>
      <trkpt lat="48.2431" lon="7.13278">
        <ele>776.7</ele>
      </trkpt>
      <trkpt lat="48.24293" lon="7.13277">
        <ele>777.2</ele>
      </trkpt>
      <trkpt lat="48.24267" lon="7.13285">
        <ele>777.8</ele>
      </trkpt>
      <trkpt lat="48.24188" lon="7.13301">
        <ele>783.2</ele>
      </trkpt>
      <trkpt lat="48.24097" lon="7.13325">
        <ele>792.8</ele>
      </trkpt>
      <trkpt lat="48.24036" lon="7.13338">
        <ele>799.1</ele>
      </trkpt>
      <trkpt lat="48.24004" lon="7.1335">
        <ele>800.9</ele>
      </trkpt>
      <trkpt lat="48.2388" lon="7.13375">
        <ele>836.3</ele>
      </trkpt>
      <trkpt lat="48.23834" lon="7.13396">
        <ele>844.3</ele>
      </trkpt>
      <trkpt lat="48.23802" lon="7.13407">
        <ele>852.7</ele>
      </trkpt>
      <trkpt lat="48.23796" lon="7.13407">
        <ele>853</ele>
        <extensions>
          <visugpx:TrkExtension xmlns:visugpx="https://www.visugpx.com/editgpx/">
            <visugpx:node>220</visugpx:node>
            </visugpx:TrkExtension>
        </extensions>
      </trkpt>
      <trkpt lat="48.23791" lon="7.13408">
        <ele>853.2</ele>
      </trkpt>
      <trkpt lat="48.23784" lon="7.13406">
        <ele>853.5</ele>
      </trkpt>
      <trkpt lat="48.2372" lon="7.13223">
        <ele>861.5</ele>
      </trkpt>
      <trkpt lat="48.23715" lon="7.13203">
        <ele>862.6</ele>
      </trkpt>
      <trkpt lat="48.23711" lon="7.13175">
        <ele>864</ele>
      </trkpt>
      <trkpt lat="48.23709" lon="7.13099">
        <ele>870.7</ele>
      </trkpt>
      <trkpt lat="48.23707" lon="7.13088">
        <ele>870.9</ele>
      </trkpt>
      <trkpt lat="48.23704" lon="7.1308">
        <ele>872.1</ele>
      </trkpt>
      <trkpt lat="48.237" lon="7.13074">
        <ele>872.1</ele>
      </trkpt>
      <trkpt lat="48.23669" lon="7.13039">
        <ele>872.2</ele>
      </trkpt>
      <trkpt lat="48.23654" lon="7.13034">
        <ele>874.9</ele>
      </trkpt>
      <trkpt lat="48.23621" lon="7.13038">
        <ele>875.9</ele>
      </trkpt>
      <trkpt lat="48.23531" lon="7.13037">
        <ele>884.2</ele>
      </trkpt>
      <trkpt lat="48.23444" lon="7.13031">
        <ele>892</ele>
      </trkpt>
      <trkpt lat="48.23351" lon="7.13014">
        <ele>891.7</ele>
      </trkpt>
      <trkpt lat="48.23228" lon="7.12973">
        <ele>883.4</ele>
      </trkpt>
      <trkpt lat="48.23213" lon="7.12966">
        <ele>884.3</ele>
      </trkpt>
      <trkpt lat="48.23203" lon="7.12964">
        <ele>884.9</ele>
      </trkpt>
      <trkpt lat="48.23182" lon="7.12984">
        <ele>887.5</ele>
      </trkpt>
      <trkpt lat="48.22977" lon="7.1301">
        <ele>936.5</ele>
      </trkpt>
      <trkpt lat="48.22953" lon="7.13004">
        <ele>939.3</ele>
      </trkpt>
      <trkpt lat="48.22848" lon="7.12977">
        <ele>949.1</ele>
      </trkpt>
      <trkpt lat="48.22777" lon="7.12959">
        <ele>956.1</ele>
      </trkpt>
      <trkpt lat="48.22755" lon="7.12949">
        <ele>956.9</ele>
      </trkpt>
      <trkpt lat="48.22736" lon="7.12934">
        <ele>964</ele>
        <extensions>
          <visugpx:TrkExtension xmlns:visugpx="https://www.visugpx.com/editgpx/">
            <visugpx:node>221</visugpx:node>
            </visugpx:TrkExtension>
        </extensions>
      </trkpt>
      <trkpt lat="48.22583" lon="7.12818">
        <ele>992.1</ele>
      </trkpt>
      <trkpt lat="48.2257" lon="7.12802">
        <ele>993.4</ele>
      </trkpt>
      <trkpt lat="48.22509" lon="7.12679">
        <ele>1000.5</ele>
      </trkpt>
      <trkpt lat="48.22494" lon="7.12642">
        <ele>1001.2</ele>
      </trkpt>
      <trkpt lat="48.22493" lon="7.12642">
        <ele>1001.2</ele>
      </trkpt>
      <trkpt lat="48.22384" lon="7.12631">
        <ele>989.1</ele>
      </trkpt>
      <trkpt lat="48.22243" lon="7.12624">
        <ele>956.1</ele>
      </trkpt>
      <trkpt lat="48.22121" lon="7.12543">
        <ele>934.6</ele>
      </trkpt>
      <trkpt lat="48.21976" lon="7.12475">
        <ele>913.9</ele>
      </trkpt>
      <trkpt lat="48.21955" lon="7.12469">
        <ele>914.1</ele>
      </trkpt>
      <trkpt lat="48.21946" lon="7.12469">
        <ele>914.2</ele>
      </trkpt>
      <trkpt lat="48.21939" lon="7.12468">
        <ele>914.3</ele>
      </trkpt>
      <trkpt lat="48.21935" lon="7.12469">
        <ele>914.4</ele>
      </trkpt>
      <trkpt lat="48.21927" lon="7.1247">
        <ele>914.5</ele>
      </trkpt>
      <trkpt lat="48.2192" lon="7.12464">
        <ele>914.5</ele>
      </trkpt>
      <trkpt lat="48.21919" lon="7.1246">
        <ele>914.5</ele>
      </trkpt>
      <trkpt lat="48.21917" lon="7.12456">
        <ele>914.6</ele>
      </trkpt>
      <trkpt lat="48.21888" lon="7.1244">
        <ele>920.1</ele>
      </trkpt>
      <trkpt lat="48.21748" lon="7.12386">
        <ele>946.5</ele>
      </trkpt>
      <trkpt lat="48.21721" lon="7.12372">
        <ele>947.7</ele>
      </trkpt>
      <trkpt lat="48.2165" lon="7.12328">
        <ele>950.4</ele>
      </trkpt>
      <trkpt lat="48.21645" lon="7.12324">
        <ele>950</ele>
        <extensions>
          <visugpx:TrkExtension xmlns:visugpx="https://www.visugpx.com/editgpx/">
            <visugpx:node>222</visugpx:node>
            </visugpx:TrkExtension>
        </extensions>
      </trkpt>
      <trkpt lat="48.21634" lon="7.12316">
        <ele>949.5</ele>
      </trkpt>
      <trkpt lat="48.2162" lon="7.12303">
        <ele>949.1</ele>
      </trkpt>
      <trkpt lat="48.2161" lon="7.12282">
        <ele>948.6</ele>
      </trkpt>
      <trkpt lat="48.21599" lon="7.12257">
        <ele>948.2</ele>
      </trkpt>
      <trkpt lat="48.21566" lon="7.12156">
        <ele>939.5</ele>
      </trkpt>
      <trkpt lat="48.21559" lon="7.12132">
        <ele>938.4</ele>
      </trkpt>
      <trkpt lat="48.21523" lon="7.12041">
        <ele>940.3</ele>
      </trkpt>
      <trkpt lat="48.21507" lon="7.11984">
        <ele>945</ele>
      </trkpt>
      <trkpt lat="48.21475" lon="7.11889">
        <ele>953.9</ele>
      </trkpt>
      <trkpt lat="48.21388" lon="7.11815">
        <ele>954</ele>
      </trkpt>
      <trkpt lat="48.21381" lon="7.11808">
        <ele>954</ele>
      </trkpt>
      <trkpt lat="48.21341" lon="7.11778">
        <ele>955.4</ele>
      </trkpt>
      <trkpt lat="48.21271" lon="7.1168">
        <ele>977</ele>
      </trkpt>
      <trkpt lat="48.21241" lon="7.1159">
        <ele>1001.4</ele>
        <extensions>
          <visugpx:TrkExtension xmlns:visugpx="https://www.visugpx.com/editgpx/">
            <visugpx:node>223</visugpx:node>
            </visugpx:TrkExtension>
        </extensions>
      </trkpt>
      <trkpt lat="48.21236" lon="7.11574">
        <ele>1004.2</ele>
      </trkpt>
      <trkpt lat="48.2122" lon="7.11532">
        <ele>1004.6</ele>
      </trkpt>
      <trkpt lat="48.21114" lon="7.11528">
        <ele>993.1</ele>
      </trkpt>
      <trkpt lat="48.21095" lon="7.11531">
        <ele>991.4</ele>
      </trkpt>
      <trkpt lat="48.21064" lon="7.11548">
        <ele>979.5</ele>
      </trkpt>
      <trkpt lat="48.21056" lon="7.1155">
        <ele>978.9</ele>
        <extensions>
          <visugpx:TrkExtension xmlns:visugpx="https://www.visugpx.com/editgpx/">
            <visugpx:node>224</visugpx:node>
            </visugpx:TrkExtension>
        </extensions>
      </trkpt>
      <trkpt lat="48.21035" lon="7.11556">
        <ele>976.8</ele>
      </trkpt>
      <trkpt lat="48.21029" lon="7.11564">
        <ele>976</ele>
      </trkpt>
      <trkpt lat="48.20977" lon="7.11605">
        <ele>963.5</ele>
      </trkpt>
      <trkpt lat="48.20967" lon="7.11618">
        <ele>962.1</ele>
      </trkpt>
      <trkpt lat="48.20965" lon="7.11615">
        <ele>962.1</ele>
      </trkpt>
      <trkpt lat="48.20961" lon="7.11625">
        <ele>961.6</ele>
      </trkpt>
      <trkpt lat="48.20954" lon="7.11628">
        <ele>961.3</ele>
      </trkpt>
      <trkpt lat="48.20946" lon="7.11632">
        <ele>960.9</ele>
      </trkpt>
      <trkpt lat="48.20935" lon="7.11642">
        <ele>960.5</ele>
      </trkpt>
      <trkpt lat="48.20882" lon="7.11704">
        <ele>969.1</ele>
      </trkpt>
      <trkpt lat="48.20846" lon="7.11743">
        <ele>977.2</ele>
        <extensions>
          <visugpx:TrkExtension xmlns:visugpx="https://www.visugpx.com/editgpx/">
            <visugpx:node>225</visugpx:node>
            </visugpx:TrkExtension>
        </extensions>
      </trkpt>
      <trkpt lat="48.20841" lon="7.11747">
        <ele>979.3</ele>
      </trkpt>
      <trkpt lat="48.20826" lon="7.11759">
        <ele>979.7</ele>
      </trkpt>
      <trkpt lat="48.20821" lon="7.11761">
        <ele>978.7</ele>
      </trkpt>
      <trkpt lat="48.20816" lon="7.11761">
        <ele>977.9</ele>
      </trkpt>
      <trkpt lat="48.20811" lon="7.11756">
        <ele>977.4</ele>
      </trkpt>
      <trkpt lat="48.20787" lon="7.11718">
        <ele>977.9</ele>
      </trkpt>
      <trkpt lat="48.20745" lon="7.11667">
        <ele>979.2</ele>
      </trkpt>
      <trkpt lat="48.20711" lon="7.11621">
        <ele>975</ele>
      </trkpt>
      <trkpt lat="48.20701" lon="7.11608">
        <ele>975.2</ele>
      </trkpt>
      <trkpt lat="48.2069" lon="7.11594">
        <ele>976.2</ele>
      </trkpt>
      <trkpt lat="48.20678" lon="7.11584">
        <ele>977.8</ele>
      </trkpt>
      <trkpt lat="48.20531" lon="7.11402">
        <ele>1001.6</ele>
        <extensions>
          <visugpx:TrkExtension xmlns:visugpx="https://www.visugpx.com/editgpx/">
            <visugpx:node>226</visugpx:node>
            </visugpx:TrkExtension>
        </extensions>
      </trkpt>
      <trkpt lat="48.20485" lon="7.11345">
        <ele>999</ele>
      </trkpt>
      <trkpt lat="48.20415" lon="7.11178">
        <ele>983.9</ele>
      </trkpt>
      <trkpt lat="48.20412" lon="7.11165">
        <ele>988.9</ele>
      </trkpt>
      <trkpt lat="48.20393" lon="7.11103">
        <ele>983.7</ele>
      </trkpt>
      <trkpt lat="48.20389" lon="7.11095">
        <ele>983.6</ele>
      </trkpt>
      <trkpt lat="48.20315" lon="7.1083">
        <ele>1023.1</ele>
        <extensions>
          <visugpx:TrkExtension xmlns:visugpx="https://www.visugpx.com/editgpx/">
            <visugpx:node>227</visugpx:node>
            </visugpx:TrkExtension>
        </extensions>
      </trkpt>
      <trkpt lat="48.20203" lon="7.1074">
        <ele>1013.5</ele>
      </trkpt>
      <trkpt lat="48.20169" lon="7.10742">
        <ele>1011.9</ele>
      </trkpt>
      <trkpt lat="48.20157" lon="7.10731">
        <ele>1012</ele>
      </trkpt>
      <trkpt lat="48.20142" lon="7.10723">
        <ele>1012.3</ele>
      </trkpt>
      <trkpt lat="48.20123" lon="7.10717">
        <ele>1012.3</ele>
      </trkpt>
      <trkpt lat="48.2011" lon="7.10717">
        <ele>1012.1</ele>
      </trkpt>
      <trkpt lat="48.2009" lon="7.10718">
        <ele>1011.7</ele>
      </trkpt>
      <trkpt lat="48.20135" lon="7.10698">
        <ele>1013.3</ele>
      </trkpt>
      <trkpt lat="48.2014" lon="7.10694">
        <ele>1013.5</ele>
        <extensions>
          <visugpx:TrkExtension xmlns:visugpx="https://www.visugpx.com/editgpx/">
            <visugpx:node>228</visugpx:node>
            </visugpx:TrkExtension>
        </extensions>
      </trkpt>
      <trkpt lat="48.20135" lon="7.10698">
        <ele>1013.3</ele>
      </trkpt>
      <trkpt lat="48.2009" lon="7.10718">
        <ele>1011.7</ele>
      </trkpt>
      <trkpt lat="48.20074" lon="7.1072">
        <ele>1011.2</ele>
      </trkpt>
      <trkpt lat="48.2004" lon="7.10715">
        <ele>1011.9</ele>
      </trkpt>
      <trkpt lat="48.20026" lon="7.1071">
        <ele>1012.2</ele>
      </trkpt>
      <trkpt lat="48.2001" lon="7.10701">
        <ele>1012.9</ele>
      </trkpt>
      <trkpt lat="48.19986" lon="7.10682">
        <ele>1016</ele>
      </trkpt>
      <trkpt lat="48.19966" lon="7.10671">
        <ele>1016.3</ele>
      </trkpt>
      <trkpt lat="48.19961" lon="7.10671">
        <ele>1016.3</ele>
      </trkpt>
      <trkpt lat="48.19948" lon="7.10685">
        <ele>1016.5</ele>
      </trkpt>
      <trkpt lat="48.19945" lon="7.10691">
        <ele>1016.4</ele>
      </trkpt>
      <trkpt lat="48.19943" lon="7.10697">
        <ele>1016.3</ele>
      </trkpt>
      <trkpt lat="48.19938" lon="7.10706">
        <ele>1016.2</ele>
      </trkpt>
      <trkpt lat="48.19935" lon="7.10699">
        <ele>1016.5</ele>
      </trkpt>
      <trkpt lat="48.1993" lon="7.10694">
        <ele>1016.8</ele>
      </trkpt>
      <trkpt lat="48.19879" lon="7.10742">
        <ele>1024.8</ele>
      </trkpt>
      <trkpt lat="48.19829" lon="7.10786">
        <ele>1036.5</ele>
      </trkpt>
      <trkpt lat="48.19793" lon="7.10823">
        <ele>1036.7</ele>
      </trkpt>
      <trkpt lat="48.19777" lon="7.10828">
        <ele>1036.9</ele>
      </trkpt>
      <trkpt lat="48.19751" lon="7.10817">
        <ele>1037.2</ele>
      </trkpt>
      <trkpt lat="48.19658" lon="7.10759">
        <ele>1050.5</ele>
      </trkpt>
      <trkpt lat="48.19646" lon="7.10768">
        <ele>1050.2</ele>
      </trkpt>
      <trkpt lat="48.19625" lon="7.10811">
        <ele>1048.6</ele>
      </trkpt>
      <trkpt lat="48.19592" lon="7.10838">
        <ele>1043.1</ele>
      </trkpt>
      <trkpt lat="48.19547" lon="7.10849">
        <ele>1040.2</ele>
      </trkpt>
      <trkpt lat="48.19538" lon="7.10853">
        <ele>1039.7</ele>
        <extensions>
          <visugpx:TrkExtension xmlns:visugpx="https://www.visugpx.com/editgpx/">
            <visugpx:node>229</visugpx:node>
            </visugpx:TrkExtension>
        </extensions>
      </trkpt>
      <trkpt lat="48.19517" lon="7.10863">
        <ele>1039</ele>
      </trkpt>
      <trkpt lat="48.19466" lon="7.10857">
        <ele>1040.5</ele>
      </trkpt>
      <trkpt lat="48.19446" lon="7.10884">
        <ele>1037.6</ele>
      </trkpt>
      <trkpt lat="48.19434" lon="7.10933">
        <ele>1022.1</ele>
      </trkpt>
      <trkpt lat="48.19426" lon="7.1098">
        <ele>1014.5</ele>
      </trkpt>
      <trkpt lat="48.19415" lon="7.11016">
        <ele>1006.2</ele>
      </trkpt>
      <trkpt lat="48.19398" lon="7.11087">
        <ele>986.7</ele>
      </trkpt>
      <trkpt lat="48.19383" lon="7.11125">
        <ele>978.5</ele>
      </trkpt>
      <trkpt lat="48.19363" lon="7.11095">
        <ele>981</ele>
      </trkpt>
      <trkpt lat="48.19357" lon="7.11039">
        <ele>997.6</ele>
      </trkpt>
      <trkpt lat="48.19352" lon="7.10954">
        <ele>1013.5</ele>
      </trkpt>
      <trkpt lat="48.19331" lon="7.1088">
        <ele>1007.6</ele>
      </trkpt>
      <trkpt lat="48.19317" lon="7.10816">
        <ele>1018.3</ele>
      </trkpt>
      <trkpt lat="48.1931" lon="7.10749">
        <ele>1025.7</ele>
      </trkpt>
      <trkpt lat="48.19309" lon="7.10716">
        <ele>1024.4</ele>
        <extensions>
          <visugpx:TrkExtension xmlns:visugpx="https://www.visugpx.com/editgpx/">
            <visugpx:node>230</visugpx:node>
            </visugpx:TrkExtension>
        </extensions>
      </trkpt>
      <trkpt lat="48.19308" lon="7.10676">
        <ele>1028.3</ele>
      </trkpt>
      <trkpt lat="48.19268" lon="7.10549">
        <ele>1047.5</ele>
      </trkpt>
      <trkpt lat="48.19251" lon="7.10517">
        <ele>1052.4</ele>
      </trkpt>
      <trkpt lat="48.19233" lon="7.10507">
        <ele>1040</ele>
      </trkpt>
      <trkpt lat="48.19209" lon="7.10517">
        <ele>1031.2</ele>
      </trkpt>
      <trkpt lat="48.19184" lon="7.10512">
        <ele>1029.6</ele>
      </trkpt>
      <trkpt lat="48.19169" lon="7.10496">
        <ele>1037.4</ele>
      </trkpt>
      <trkpt lat="48.1913" lon="7.10426">
        <ele>1042.7</ele>
      </trkpt>
      <trkpt lat="48.1907" lon="7.10308">
        <ele>1049.4</ele>
      </trkpt>
      <trkpt lat="48.19044" lon="7.1023">
        <ele>1054.6</ele>
      </trkpt>
      <trkpt lat="48.19016" lon="7.10179">
        <ele>1052.5</ele>
      </trkpt>
      <trkpt lat="48.18989" lon="7.10144">
        <ele>1050.8</ele>
      </trkpt>
      <trkpt lat="48.18956" lon="7.10135">
        <ele>1050.1</ele>
      </trkpt>
      <trkpt lat="48.18907" lon="7.10115">
        <ele>1043.6</ele>
      </trkpt>
      <trkpt lat="48.18876" lon="7.10091">
        <ele>1042.5</ele>
      </trkpt>
      <trkpt lat="48.18857" lon="7.10044">
        <ele>1053.6</ele>
      </trkpt>
      <trkpt lat="48.18834" lon="7.10006">
        <ele>1054.3</ele>
      </trkpt>
      <trkpt lat="48.18813" lon="7.0998">
        <ele>1051.7</ele>
      </trkpt>
      <trkpt lat="48.18797" lon="7.09929">
        <ele>1053.2</ele>
      </trkpt>
      <trkpt lat="48.18787" lon="7.09829">
        <ele>1060.9</ele>
      </trkpt>
      <trkpt lat="48.18779" lon="7.0979">
        <ele>1061.1</ele>
      </trkpt>
      <trkpt lat="48.18771" lon="7.09829">
        <ele>1056.2</ele>
        <extensions>
          <visugpx:TrkExtension xmlns:visugpx="https://www.visugpx.com/editgpx/">
            <visugpx:node>231</visugpx:node>
            </visugpx:TrkExtension>
        </extensions>
      </trkpt>
      <trkpt lat="48.18779" lon="7.0979">
        <ele>1061.1</ele>
      </trkpt>
      <trkpt lat="48.18766" lon="7.09726">
        <ele>1064</ele>
      </trkpt>
      <trkpt lat="48.18744" lon="7.09636">
        <ele>1057.1</ele>
      </trkpt>
      <trkpt lat="48.18723" lon="7.09591">
        <ele>1058.8</ele>
      </trkpt>
      <trkpt lat="48.18696" lon="7.09563">
        <ele>1065.1</ele>
      </trkpt>
      <trkpt lat="48.1867" lon="7.09546">
        <ele>1065.3</ele>
      </trkpt>
      <trkpt lat="48.18636" lon="7.09538">
        <ele>1057.3</ele>
      </trkpt>
      <trkpt lat="48.18599" lon="7.09514">
        <ele>1058.1</ele>
      </trkpt>
      <trkpt lat="48.18567" lon="7.09478">
        <ele>1058.4</ele>
      </trkpt>
      <trkpt lat="48.18532" lon="7.09434">
        <ele>1058.4</ele>
      </trkpt>
      <trkpt lat="48.1848" lon="7.09395">
        <ele>1062.5</ele>
      </trkpt>
      <trkpt lat="48.18386" lon="7.09347">
        <ele>1062.5</ele>
      </trkpt>
      <trkpt lat="48.18359" lon="7.09346">
        <ele>1061.4</ele>
      </trkpt>
      <trkpt lat="48.18346" lon="7.09334">
        <ele>1063.7</ele>
      </trkpt>
      <trkpt lat="48.18341" lon="7.09309">
        <ele>1073.4</ele>
      </trkpt>
      <trkpt lat="48.18333" lon="7.09289">
        <ele>1067.6</ele>
      </trkpt>
      <trkpt lat="48.18322" lon="7.09261">
        <ele>1071</ele>
      </trkpt>
      <trkpt lat="48.18318" lon="7.0924">
        <ele>1072</ele>
      </trkpt>
      <trkpt lat="48.18318" lon="7.09229">
        <ele>1071.2</ele>
      </trkpt>
      <trkpt lat="48.18318" lon="7.09207">
        <ele>1070.8</ele>
      </trkpt>
      <trkpt lat="48.18316" lon="7.09186">
        <ele>1072.2</ele>
      </trkpt>
      <trkpt lat="48.18315" lon="7.09143">
        <ele>1071</ele>
      </trkpt>
      <trkpt lat="48.18316" lon="7.0912">
        <ele>1070.3</ele>
      </trkpt>
      <trkpt lat="48.18322" lon="7.09075">
        <ele>1074.6</ele>
      </trkpt>
      <trkpt lat="48.18331" lon="7.09038">
        <ele>1070.6</ele>
      </trkpt>
      <trkpt lat="48.18331" lon="7.09009">
        <ele>1076.4</ele>
      </trkpt>
      <trkpt lat="48.18323" lon="7.08889">
        <ele>1077</ele>
      </trkpt>
      <trkpt lat="48.18319" lon="7.08865">
        <ele>1078.8</ele>
      </trkpt>
      <trkpt lat="48.18291" lon="7.08807">
        <ele>1087.1</ele>
      </trkpt>
      <trkpt lat="48.18269" lon="7.08737">
        <ele>1098.2</ele>
      </trkpt>
      <trkpt lat="48.18262" lon="7.08724">
        <ele>1099.6</ele>
      </trkpt>
      <trkpt lat="48.18253" lon="7.08714">
        <ele>1101</ele>
      </trkpt>
      <trkpt lat="48.18239" lon="7.08701">
        <ele>1101.8</ele>
      </trkpt>
      <trkpt lat="48.18232" lon="7.08696">
        <ele>1102.5</ele>
      </trkpt>
      <trkpt lat="48.18224" lon="7.08698">
        <ele>1102.2</ele>
      </trkpt>
      <trkpt lat="48.18175" lon="7.08737">
        <ele>1096.9</ele>
      </trkpt>
      <trkpt lat="48.18098" lon="7.08766">
        <ele>1092.7</ele>
      </trkpt>
      <trkpt lat="48.18083" lon="7.08777">
        <ele>1097</ele>
      </trkpt>
      <trkpt lat="48.18065" lon="7.08802">
        <ele>1092.6</ele>
      </trkpt>
      <trkpt lat="48.18044" lon="7.08823">
        <ele>1092.2</ele>
      </trkpt>
      <trkpt lat="48.18023" lon="7.08834">
        <ele>1082.5</ele>
      </trkpt>
      <trkpt lat="48.18002" lon="7.08838">
        <ele>1089.6</ele>
      </trkpt>
      <trkpt lat="48.17991" lon="7.08839">
        <ele>1085.6</ele>
      </trkpt>
      <trkpt lat="48.17946" lon="7.08819">
        <ele>1084.4</ele>
      </trkpt>
      <trkpt lat="48.17924" lon="7.08805">
        <ele>1083.1</ele>
      </trkpt>
      <trkpt lat="48.17871" lon="7.08767">
        <ele>1076.7</ele>
      </trkpt>
      <trkpt lat="48.17865" lon="7.08765">
        <ele>1076.7</ele>
      </trkpt>
      <trkpt lat="48.17861" lon="7.08765">
        <ele>1076.7</ele>
        <extensions>
          <visugpx:TrkExtension xmlns:visugpx="https://www.visugpx.com/editgpx/">
            <visugpx:node>232</visugpx:node>
            </visugpx:TrkExtension>
        </extensions>
      </trkpt>
      <trkpt lat="48.1782" lon="7.08774">
        <ele>1074.1</ele>
      </trkpt>
      <trkpt lat="48.17786" lon="7.088">
        <ele>1070.2</ele>
      </trkpt>
      <trkpt lat="48.17769" lon="7.08805">
        <ele>1069.8</ele>
      </trkpt>
      <trkpt lat="48.1774" lon="7.08809">
        <ele>1065.5</ele>
      </trkpt>
      <trkpt lat="48.17721" lon="7.08809">
        <ele>1064.4</ele>
      </trkpt>
      <trkpt lat="48.17705" lon="7.08796">
        <ele>1064.3</ele>
      </trkpt>
      <trkpt lat="48.17679" lon="7.08763">
        <ele>1065.6</ele>
      </trkpt>
      <trkpt lat="48.17641" lon="7.0869">
        <ele>1062.1</ele>
      </trkpt>
      <trkpt lat="48.17609" lon="7.08632">
        <ele>1068.5</ele>
      </trkpt>
      <trkpt lat="48.17583" lon="7.0859">
        <ele>1056.7</ele>
      </trkpt>
      <trkpt lat="48.1757" lon="7.08556">
        <ele>1065.8</ele>
      </trkpt>
      <trkpt lat="48.17564" lon="7.08548">
        <ele>1066.9</ele>
      </trkpt>
      <trkpt lat="48.1756" lon="7.08547">
        <ele>1066.7</ele>
      </trkpt>
      <trkpt lat="48.17511" lon="7.08552">
        <ele>1060.1</ele>
      </trkpt>
      <trkpt lat="48.17473" lon="7.08524">
        <ele>1057.8</ele>
      </trkpt>
      <trkpt lat="48.17403" lon="7.08524">
        <ele>1055.1</ele>
      </trkpt>
      <trkpt lat="48.17335" lon="7.08519">
        <ele>1057.8</ele>
      </trkpt>
      <trkpt lat="48.17311" lon="7.08519">
        <ele>1057.2</ele>
      </trkpt>
      <trkpt lat="48.17275" lon="7.08531">
        <ele>1055.4</ele>
      </trkpt>
      <trkpt lat="48.17234" lon="7.0856">
        <ele>1049.8</ele>
      </trkpt>
      <trkpt lat="48.17219" lon="7.08568">
        <ele>1049.3</ele>
      </trkpt>
      <trkpt lat="48.17213" lon="7.0857">
        <ele>1049.2</ele>
      </trkpt>
      <trkpt lat="48.17206" lon="7.08568">
        <ele>1049.3</ele>
      </trkpt>
      <trkpt lat="48.17189" lon="7.08559">
        <ele>1049.3</ele>
      </trkpt>
      <trkpt lat="48.17175" lon="7.08543">
        <ele>1050.8</ele>
      </trkpt>
      <trkpt lat="48.1716" lon="7.08516">
        <ele>1044.4</ele>
      </trkpt>
      <trkpt lat="48.17141" lon="7.08472">
        <ele>1045.7</ele>
      </trkpt>
      <trkpt lat="48.17124" lon="7.08426">
        <ele>1044.2</ele>
      </trkpt>
      <trkpt lat="48.17106" lon="7.08392">
        <ele>1045.6</ele>
      </trkpt>
      <trkpt lat="48.17014" lon="7.08241">
        <ele>1015.7</ele>
      </trkpt>
      <trkpt lat="48.17003" lon="7.08215">
        <ele>1019.3</ele>
      </trkpt>
      <trkpt lat="48.16993" lon="7.08186">
        <ele>1000.2</ele>
      </trkpt>
      <trkpt lat="48.16992" lon="7.08161">
        <ele>1007</ele>
      </trkpt>
      <trkpt lat="48.16982" lon="7.08095">
        <ele>1006.3</ele>
      </trkpt>
      <trkpt lat="48.16978" lon="7.08082">
        <ele>1014.5</ele>
      </trkpt>
      <trkpt lat="48.16971" lon="7.08075">
        <ele>1014.2</ele>
      </trkpt>
      <trkpt lat="48.16922" lon="7.08071">
        <ele>1003.9</ele>
      </trkpt>
      <trkpt lat="48.16819" lon="7.08088">
        <ele>978.2</ele>
      </trkpt>
      <trkpt lat="48.16808" lon="7.08089">
        <ele>975.5</ele>
      </trkpt>
      <trkpt lat="48.16794" lon="7.08086">
        <ele>973.8</ele>
      </trkpt>
      <trkpt lat="48.16771" lon="7.08076">
        <ele>981.8</ele>
      </trkpt>
      <trkpt lat="48.16712" lon="7.08037">
        <ele>977.2</ele>
      </trkpt>
      <trkpt lat="48.16684" lon="7.08013">
        <ele>977</ele>
        <extensions>
          <visugpx:TrkExtension xmlns:visugpx="https://www.visugpx.com/editgpx/">
            <visugpx:node>233</visugpx:node>
            </visugpx:TrkExtension>
        </extensions>
      </trkpt>
      <trkpt lat="48.16668" lon="7.08">
        <ele>977</ele>
      </trkpt>
      <trkpt lat="48.16645" lon="7.07977">
        <ele>971.9</ele>
      </trkpt>
      <trkpt lat="48.16614" lon="7.07984">
        <ele>968.8</ele>
      </trkpt>
      <trkpt lat="48.16605" lon="7.07982">
        <ele>967.9</ele>
      </trkpt>
      <trkpt lat="48.16594" lon="7.07975">
        <ele>967.2</ele>
      </trkpt>
      <trkpt lat="48.16585" lon="7.07978">
        <ele>966.6</ele>
      </trkpt>
      <trkpt lat="48.16572" lon="7.07987">
        <ele>960</ele>
      </trkpt>
      <trkpt lat="48.16565" lon="7.07992">
        <ele>959.5</ele>
      </trkpt>
      <trkpt lat="48.16559" lon="7.07995">
        <ele>958.8</ele>
      </trkpt>
      <trkpt lat="48.16549" lon="7.07994">
        <ele>957.6</ele>
      </trkpt>
      <trkpt lat="48.16527" lon="7.07969">
        <ele>955.4</ele>
      </trkpt>
      <trkpt lat="48.1652" lon="7.07966">
        <ele>954.9</ele>
      </trkpt>
      <trkpt lat="48.16509" lon="7.07972">
        <ele>954.5</ele>
      </trkpt>
      <trkpt lat="48.16494" lon="7.07959">
        <ele>952.1</ele>
      </trkpt>
      <trkpt lat="48.16491" lon="7.07955">
        <ele>952</ele>
      </trkpt>
      <trkpt lat="48.16487" lon="7.07949">
        <ele>951.9</ele>
      </trkpt>
      <trkpt lat="48.16468" lon="7.07919">
        <ele>952.1</ele>
      </trkpt>
      <trkpt lat="48.16462" lon="7.07913">
        <ele>952</ele>
      </trkpt>
      <trkpt lat="48.1641" lon="7.07893">
        <ele>958.7</ele>
      </trkpt>
      <trkpt lat="48.16366" lon="7.07752">
        <ele>967.4</ele>
      </trkpt>
      <trkpt lat="48.16338" lon="7.07694">
        <ele>970.2</ele>
      </trkpt>
      <trkpt lat="48.16231" lon="7.07565">
        <ele>978.3</ele>
      </trkpt>
      <trkpt lat="48.16164" lon="7.07545">
        <ele>978</ele>
        <extensions>
          <visugpx:TrkExtension xmlns:visugpx="https://www.visugpx.com/editgpx/">
            <visugpx:node>234</visugpx:node>
            </visugpx:TrkExtension>
        </extensions>
      </trkpt>
      <trkpt lat="48.16039" lon="7.07507">
        <ele>976</ele>
      </trkpt>
      <trkpt lat="48.1601" lon="7.07484">
        <ele>977.4</ele>
      </trkpt>
      <trkpt lat="48.15983" lon="7.07492">
        <ele>977.5</ele>
      </trkpt>
      <trkpt lat="48.1596" lon="7.07502">
        <ele>973.1</ele>
      </trkpt>
      <trkpt lat="48.15927" lon="7.07533">
        <ele>971.3</ele>
      </trkpt>
      <trkpt lat="48.15911" lon="7.07535">
        <ele>967</ele>
      </trkpt>
      <trkpt lat="48.15884" lon="7.07509">
        <ele>967.2</ele>
      </trkpt>
      <trkpt lat="48.15792" lon="7.07413">
        <ele>977.2</ele>
      </trkpt>
      <trkpt lat="48.15764" lon="7.07394">
        <ele>976.9</ele>
      </trkpt>
      <trkpt lat="48.15737" lon="7.0739">
        <ele>977.5</ele>
      </trkpt>
      <trkpt lat="48.15707" lon="7.07404">
        <ele>977.5</ele>
      </trkpt>
      <trkpt lat="48.15669" lon="7.07424">
        <ele>972.2</ele>
      </trkpt>
      <trkpt lat="48.15624" lon="7.07439">
        <ele>968.5</ele>
      </trkpt>
      <trkpt lat="48.15489" lon="7.07424">
        <ele>960.2</ele>
      </trkpt>
      <trkpt lat="48.15446" lon="7.07417">
        <ele>955.9</ele>
      </trkpt>
      <trkpt lat="48.15413" lon="7.074">
        <ele>959.4</ele>
      </trkpt>
      <trkpt lat="48.15367" lon="7.0741">
        <ele>956.9</ele>
      </trkpt>
      <trkpt lat="48.15334" lon="7.07415">
        <ele>948.9</ele>
      </trkpt>
      <trkpt lat="48.15307" lon="7.074">
        <ele>949.7</ele>
      </trkpt>
      <trkpt lat="48.15272" lon="7.07368">
        <ele>949.7</ele>
      </trkpt>
      <trkpt lat="48.15217" lon="7.07303">
        <ele>946.8</ele>
      </trkpt>
      <trkpt lat="48.15192" lon="7.0728">
        <ele>946.1</ele>
      </trkpt>
      <trkpt lat="48.15179" lon="7.07256">
        <ele>945.3</ele>
      </trkpt>
      <trkpt lat="48.15146" lon="7.07208">
        <ele>946.9</ele>
      </trkpt>
      <trkpt lat="48.15121" lon="7.07184">
        <ele>946.6</ele>
      </trkpt>
      <trkpt lat="48.15092" lon="7.0716">
        <ele>950</ele>
      </trkpt>
      <trkpt lat="48.15002" lon="7.07094">
        <ele>957</ele>
      </trkpt>
      <trkpt lat="48.14978" lon="7.07087">
        <ele>959.5</ele>
      </trkpt>
      <trkpt lat="48.14956" lon="7.07103">
        <ele>960.4</ele>
      </trkpt>
      <trkpt lat="48.14931" lon="7.07139">
        <ele>961</ele>
        <extensions>
          <visugpx:TrkExtension xmlns:visugpx="https://www.visugpx.com/editgpx/">
            <visugpx:node>235</visugpx:node>
            </visugpx:TrkExtension>
        </extensions>
      </trkpt>
      <trkpt lat="48.14929" lon="7.07141">
        <ele>961.1</ele>
      </trkpt>
      <trkpt lat="48.14911" lon="7.07166">
        <ele>964.6</ele>
      </trkpt>
      <trkpt lat="48.14893" lon="7.07161">
        <ele>965.8</ele>
      </trkpt>
      <trkpt lat="48.14874" lon="7.07152">
        <ele>966.5</ele>
      </trkpt>
      <trkpt lat="48.14864" lon="7.07129">
        <ele>967.4</ele>
      </trkpt>
      <trkpt lat="48.14853" lon="7.07091">
        <ele>970</ele>
      </trkpt>
      <trkpt lat="48.14838" lon="7.07066">
        <ele>975.1</ele>
      </trkpt>
      <trkpt lat="48.14802" lon="7.07035">
        <ele>977.9</ele>
      </trkpt>
      <trkpt lat="48.1476" lon="7.07006">
        <ele>980.2</ele>
      </trkpt>
      <trkpt lat="48.14722" lon="7.06985">
        <ele>986.5</ele>
      </trkpt>
      <trkpt lat="48.14699" lon="7.06963">
        <ele>988.4</ele>
      </trkpt>
      <trkpt lat="48.14678" lon="7.0696">
        <ele>988.8</ele>
      </trkpt>
      <trkpt lat="48.1463" lon="7.07009">
        <ele>985.2</ele>
      </trkpt>
      <trkpt lat="48.14606" lon="7.07008">
        <ele>987.4</ele>
      </trkpt>
      <trkpt lat="48.14576" lon="7.06998">
        <ele>993.5</ele>
      </trkpt>
      <trkpt lat="48.14537" lon="7.06964">
        <ele>994.6</ele>
      </trkpt>
      <trkpt lat="48.14499" lon="7.06922">
        <ele>996.7</ele>
      </trkpt>
      <trkpt lat="48.1445" lon="7.06894">
        <ele>1000.9</ele>
      </trkpt>
      <trkpt lat="48.14403" lon="7.06848">
        <ele>999.6</ele>
      </trkpt>
      <trkpt lat="48.1429" lon="7.06796">
        <ele>998.8</ele>
      </trkpt>
      <trkpt lat="48.14264" lon="7.06778">
        <ele>998.3</ele>
      </trkpt>
      <trkpt lat="48.14187" lon="7.06712">
        <ele>990.1</ele>
      </trkpt>
      <trkpt lat="48.1417" lon="7.06694">
        <ele>990</ele>
      </trkpt>
      <trkpt lat="48.14166" lon="7.06692">
        <ele>979</ele>
        <extensions>
          <visugpx:TrkExtension xmlns:visugpx="https://www.visugpx.com/editgpx/">
            <visugpx:node>236</visugpx:node>
            </visugpx:TrkExtension>
        </extensions>
      </trkpt>
      <trkpt lat="48.14135" lon="7.06675">
        <ele>976.6</ele>
      </trkpt>
      <trkpt lat="48.14103" lon="7.06666">
        <ele>978</ele>
      </trkpt>
      <trkpt lat="48.14076" lon="7.06655">
        <ele>971.1</ele>
      </trkpt>
      <trkpt lat="48.14053" lon="7.0665">
        <ele>971.3</ele>
      </trkpt>
      <trkpt lat="48.14011" lon="7.06623">
        <ele>971.4</ele>
      </trkpt>
      <trkpt lat="48.14003" lon="7.06614">
        <ele>972.2</ele>
      </trkpt>
      <trkpt lat="48.1399" lon="7.06569">
        <ele>974.8</ele>
      </trkpt>
      <trkpt lat="48.13972" lon="7.06528">
        <ele>977</ele>
      </trkpt>
      <trkpt lat="48.13966" lon="7.06524">
        <ele>976.9</ele>
      </trkpt>
      <trkpt lat="48.13961" lon="7.06523">
        <ele>976.6</ele>
      </trkpt>
      <trkpt lat="48.13957" lon="7.06526">
        <ele>976.1</ele>
      </trkpt>
      <trkpt lat="48.13954" lon="7.06533">
        <ele>975.3</ele>
      </trkpt>
      <trkpt lat="48.13954" lon="7.0654">
        <ele>974.6</ele>
      </trkpt>
      <trkpt lat="48.13966" lon="7.06569">
        <ele>973.3</ele>
      </trkpt>
      <trkpt lat="48.13971" lon="7.06596">
        <ele>964.3</ele>
      </trkpt>
      <trkpt lat="48.13968" lon="7.06645">
        <ele>959.8</ele>
      </trkpt>
      <trkpt lat="48.13972" lon="7.06665">
        <ele>959.5</ele>
      </trkpt>
      <trkpt lat="48.13989" lon="7.06692">
        <ele>952.8</ele>
      </trkpt>
      <trkpt lat="48.13991" lon="7.067">
        <ele>951.6</ele>
      </trkpt>
      <trkpt lat="48.13989" lon="7.06705">
        <ele>950.8</ele>
      </trkpt>
      <trkpt lat="48.13986" lon="7.06707">
        <ele>950.5</ele>
      </trkpt>
      <trkpt lat="48.13976" lon="7.06707">
        <ele>949.9</ele>
      </trkpt>
      <trkpt lat="48.13964" lon="7.06704">
        <ele>949.4</ele>
      </trkpt>
      <trkpt lat="48.13941" lon="7.06688">
        <ele>948.2</ele>
      </trkpt>
      <trkpt lat="48.13934" lon="7.06677">
        <ele>947.6</ele>
      </trkpt>
      <trkpt lat="48.13929" lon="7.06672">
        <ele>946.9</ele>
      </trkpt>
      <trkpt lat="48.13923" lon="7.06671">
        <ele>946.2</ele>
      </trkpt>
      <trkpt lat="48.13919" lon="7.06672">
        <ele>945.9</ele>
      </trkpt>
      <trkpt lat="48.13914" lon="7.06678">
        <ele>946.5</ele>
      </trkpt>
      <trkpt lat="48.13912" lon="7.06686">
        <ele>947.1</ele>
      </trkpt>
      <trkpt lat="48.13913" lon="7.06694">
        <ele>947.3</ele>
      </trkpt>
      <trkpt lat="48.13918" lon="7.06708">
        <ele>946.8</ele>
      </trkpt>
      <trkpt lat="48.13938" lon="7.06734">
        <ele>946.1</ele>
      </trkpt>
      <trkpt lat="48.13905" lon="7.06709">
        <ele>947.4</ele>
      </trkpt>
      <trkpt lat="48.13885" lon="7.06713">
        <ele>948.4</ele>
      </trkpt>
      <trkpt lat="48.13852" lon="7.06753">
        <ele>950.3</ele>
      </trkpt>
      <trkpt lat="48.13842" lon="7.06757">
        <ele>951</ele>
      </trkpt>
      <trkpt lat="48.13833" lon="7.06754">
        <ele>953.2</ele>
      </trkpt>
      <trkpt lat="48.13827" lon="7.06743">
        <ele>956.2</ele>
      </trkpt>
      <trkpt lat="48.13829" lon="7.06731">
        <ele>958.9</ele>
      </trkpt>
      <trkpt lat="48.1384" lon="7.06709">
        <ele>951.2</ele>
      </trkpt>
      <trkpt lat="48.13851" lon="7.06694">
        <ele>951.6</ele>
      </trkpt>
      <trkpt lat="48.13857" lon="7.06679">
        <ele>952</ele>
      </trkpt>
      <trkpt lat="48.13855" lon="7.06651">
        <ele>955.2</ele>
      </trkpt>
      <trkpt lat="48.13823" lon="7.06584">
        <ele>961</ele>
      </trkpt>
      <trkpt lat="48.13761" lon="7.06475">
        <ele>975.1</ele>
      </trkpt>
      <trkpt lat="48.13745" lon="7.06433">
        <ele>983.2</ele>
      </trkpt>
      <trkpt lat="48.13733" lon="7.06386">
        <ele>984.8</ele>
        <extensions>
          <visugpx:TrkExtension xmlns:visugpx="https://www.visugpx.com/editgpx/">
            <visugpx:node>237</visugpx:node>
            </visugpx:TrkExtension>
        </extensions>
      </trkpt>
      <trkpt lat="48.13717" lon="7.06325">
        <ele>986.4</ele>
      </trkpt>
      <trkpt lat="48.13697" lon="7.06257">
        <ele>987.2</ele>
      </trkpt>
      <trkpt lat="48.13683" lon="7.06218">
        <ele>987.8</ele>
      </trkpt>
      <trkpt lat="48.13666" lon="7.06181">
        <ele>986.4</ele>
      </trkpt>
      <trkpt lat="48.13644" lon="7.06145">
        <ele>985</ele>
      </trkpt>
      <trkpt lat="48.13635" lon="7.06127">
        <ele>985.1</ele>
      </trkpt>
      <trkpt lat="48.13632" lon="7.06131">
        <ele>985.3</ele>
      </trkpt>
      <trkpt lat="48.1363" lon="7.06137">
        <ele>985.5</ele>
      </trkpt>
      <trkpt lat="48.13629" lon="7.06146">
        <ele>985.7</ele>
      </trkpt>
      <trkpt lat="48.13629" lon="7.06152">
        <ele>985.8</ele>
      </trkpt>
      <trkpt lat="48.1363" lon="7.06157">
        <ele>985.8</ele>
      </trkpt>
      <trkpt lat="48.13637" lon="7.06183">
        <ele>989.4</ele>
      </trkpt>
      <trkpt lat="48.13636" lon="7.06196">
        <ele>990.1</ele>
      </trkpt>
      <trkpt lat="48.13638" lon="7.06217">
        <ele>990.7</ele>
      </trkpt>
      <trkpt lat="48.13644" lon="7.06243">
        <ele>990</ele>
      </trkpt>
      <trkpt lat="48.13645" lon="7.06255">
        <ele>993.3</ele>
      </trkpt>
      <trkpt lat="48.13645" lon="7.06271">
        <ele>994.6</ele>
      </trkpt>
      <trkpt lat="48.1364" lon="7.06318">
        <ele>997</ele>
      </trkpt>
      <trkpt lat="48.13641" lon="7.06339">
        <ele>1001.5</ele>
      </trkpt>
      <trkpt lat="48.13655" lon="7.06437">
        <ele>1010.2</ele>
      </trkpt>
      <trkpt lat="48.13658" lon="7.06529">
        <ele>1019.8</ele>
      </trkpt>
      <trkpt lat="48.13661" lon="7.06575">
        <ele>1018.6</ele>
      </trkpt>
      <trkpt lat="48.13659" lon="7.06592">
        <ele>1019.6</ele>
      </trkpt>
      <trkpt lat="48.13655" lon="7.066">
        <ele>1021.3</ele>
      </trkpt>
      <trkpt lat="48.13637" lon="7.06642">
        <ele>1023.9</ele>
      </trkpt>
      <trkpt lat="48.13609" lon="7.06694">
        <ele>1023</ele>
      </trkpt>
      <trkpt lat="48.13591" lon="7.06717">
        <ele>1023.2</ele>
      </trkpt>
      <trkpt lat="48.13555" lon="7.06754">
        <ele>1029.5</ele>
        <extensions>
          <visugpx:TrkExtension xmlns:visugpx="https://www.visugpx.com/editgpx/">
            <visugpx:node>238</visugpx:node>
            </visugpx:TrkExtension>
        </extensions>
      </trkpt>
      <trkpt lat="48.13525" lon="7.06787">
        <ele>1031.2</ele>
      </trkpt>
      <trkpt lat="48.13498" lon="7.06813">
        <ele>1042.5</ele>
      </trkpt>
      <trkpt lat="48.13469" lon="7.06833">
        <ele>1046.1</ele>
      </trkpt>
      <trkpt lat="48.13459" lon="7.0685">
        <ele>1042.3</ele>
      </trkpt>
      <trkpt lat="48.13434" lon="7.06902">
        <ele>1045.7</ele>
      </trkpt>
      <trkpt lat="48.13421" lon="7.06947">
        <ele>1040.8</ele>
      </trkpt>
      <trkpt lat="48.13408" lon="7.07005">
        <ele>1051.4</ele>
      </trkpt>
      <trkpt lat="48.13405" lon="7.07024">
        <ele>1056.1</ele>
      </trkpt>
      <trkpt lat="48.13403" lon="7.07112">
        <ele>1059.7</ele>
      </trkpt>
      <trkpt lat="48.134" lon="7.07192">
        <ele>1063.3</ele>
      </trkpt>
      <trkpt lat="48.13399" lon="7.07207">
        <ele>1064.6</ele>
      </trkpt>
      <trkpt lat="48.134" lon="7.07265">
        <ele>1067.2</ele>
      </trkpt>
      <trkpt lat="48.13399" lon="7.073">
        <ele>1070.4</ele>
      </trkpt>
      <trkpt lat="48.13397" lon="7.07323">
        <ele>1070.2</ele>
      </trkpt>
      <trkpt lat="48.13391" lon="7.07366">
        <ele>1077.7</ele>
      </trkpt>
      <trkpt lat="48.13388" lon="7.07376">
        <ele>1078.7</ele>
      </trkpt>
      <trkpt lat="48.13384" lon="7.07384">
        <ele>1079.6</ele>
      </trkpt>
      <trkpt lat="48.13379" lon="7.074">
        <ele>1080.8</ele>
      </trkpt>
      <trkpt lat="48.13371" lon="7.07428">
        <ele>1088.9</ele>
      </trkpt>
      <trkpt lat="48.1337" lon="7.07439">
        <ele>1089.5</ele>
      </trkpt>
      <trkpt lat="48.13372" lon="7.07449">
        <ele>1089.7</ele>
      </trkpt>
      <trkpt lat="48.13378" lon="7.07457">
        <ele>1089.6</ele>
      </trkpt>
      <trkpt lat="48.13389" lon="7.07457">
        <ele>1088.3</ele>
      </trkpt>
      <trkpt lat="48.13409" lon="7.07483">
        <ele>1087.7</ele>
      </trkpt>
      <trkpt lat="48.13422" lon="7.07509">
        <ele>1085.4</ele>
      </trkpt>
      <trkpt lat="48.13434" lon="7.07531">
        <ele>1085.2</ele>
      </trkpt>
      <trkpt lat="48.13436" lon="7.0754">
        <ele>1085.6</ele>
      </trkpt>
      <trkpt lat="48.13444" lon="7.07559">
        <ele>1086.6</ele>
      </trkpt>
      <trkpt lat="48.13488" lon="7.07645">
        <ele>1097.1</ele>
      </trkpt>
      <trkpt lat="48.13508" lon="7.07677">
        <ele>1100.7</ele>
      </trkpt>
      <trkpt lat="48.13552" lon="7.07752">
        <ele>1113.1</ele>
      </trkpt>
      <trkpt lat="48.1356" lon="7.07768">
        <ele>1113.2</ele>
      </trkpt>
      <trkpt lat="48.13564" lon="7.07802">
        <ele>1116.9</ele>
      </trkpt>
      <trkpt lat="48.13556" lon="7.07839">
        <ele>1126.5</ele>
      </trkpt>
      <trkpt lat="48.13547" lon="7.07864">
        <ele>1128.9</ele>
        <extensions>
          <visugpx:TrkExtension xmlns:visugpx="https://www.visugpx.com/editgpx/">
            <visugpx:node>240</visugpx:node>
            </visugpx:TrkExtension>
        </extensions>
      </trkpt>
      <trkpt lat="48.13539" lon="7.07888">
        <ele>1131.1</ele>
      </trkpt>
      <trkpt lat="48.13581" lon="7.07974">
        <ele>1142.8</ele>
      </trkpt>
      <trkpt lat="48.13642" lon="7.08088">
        <ele>1143.5</ele>
      </trkpt>
      <trkpt lat="48.13673" lon="7.08151">
        <ele>1136.6</ele>
      </trkpt>
      <trkpt lat="48.13698" lon="7.0824">
        <ele>1137.4</ele>
      </trkpt>
      <trkpt lat="48.13706" lon="7.08282">
        <ele>1138.4</ele>
      </trkpt>
      <trkpt lat="48.13708" lon="7.08294">
        <ele>1138.3</ele>
      </trkpt>
      <trkpt lat="48.13706" lon="7.08301">
        <ele>1138.7</ele>
      </trkpt>
      <trkpt lat="48.13705" lon="7.08315">
        <ele>1139.2</ele>
      </trkpt>
      <trkpt lat="48.13705" lon="7.08329">
        <ele>1139.4</ele>
      </trkpt>
      <trkpt lat="48.13711" lon="7.08374">
        <ele>1141</ele>
      </trkpt>
      <trkpt lat="48.13713" lon="7.0841">
        <ele>1141.1</ele>
      </trkpt>
      <trkpt lat="48.13716" lon="7.08449">
        <ele>1142.2</ele>
      </trkpt>
      <trkpt lat="48.13723" lon="7.08463">
        <ele>1141.5</ele>
      </trkpt>
      <trkpt lat="48.13723" lon="7.08504">
        <ele>1140.6</ele>
      </trkpt>
      <trkpt lat="48.13723" lon="7.08533">
        <ele>1141.3</ele>
      </trkpt>
      <trkpt lat="48.13721" lon="7.08554">
        <ele>1141.3</ele>
      </trkpt>
      <trkpt lat="48.13717" lon="7.0858">
        <ele>1141.2</ele>
      </trkpt>
      <trkpt lat="48.13713" lon="7.08598">
        <ele>1140.7</ele>
      </trkpt>
      <trkpt lat="48.13706" lon="7.08626">
        <ele>1141.3</ele>
      </trkpt>
      <trkpt lat="48.13685" lon="7.08693">
        <ele>1142.1</ele>
      </trkpt>
      <trkpt lat="48.13675" lon="7.08733">
        <ele>1143.1</ele>
      </trkpt>
      <trkpt lat="48.13664" lon="7.08794">
        <ele>1149</ele>
      </trkpt>
      <trkpt lat="48.1366" lon="7.08814">
        <ele>1148.6</ele>
        <extensions>
          <visugpx:TrkExtension xmlns:visugpx="https://www.visugpx.com/editgpx/">
            <visugpx:node>241</visugpx:node>
            </visugpx:TrkExtension>
        </extensions>
      </trkpt>
      <trkpt lat="48.13654" lon="7.08845">
        <ele>1147</ele>
      </trkpt>
      <trkpt lat="48.13648" lon="7.08852">
        <ele>1147</ele>
      </trkpt>
      <trkpt lat="48.13641" lon="7.08855">
        <ele>1147</ele>
      </trkpt>
      <trkpt lat="48.13634" lon="7.08855">
        <ele>1147</ele>
      </trkpt>
      <trkpt lat="48.13628" lon="7.08856">
        <ele>1147</ele>
      </trkpt>
      <trkpt lat="48.13617" lon="7.08863">
        <ele>1146.9</ele>
      </trkpt>
      <trkpt lat="48.13618" lon="7.08878">
        <ele>1146.6</ele>
      </trkpt>
      <trkpt lat="48.13617" lon="7.08888">
        <ele>1146.4</ele>
      </trkpt>
      <trkpt lat="48.13609" lon="7.08907">
        <ele>1145.7</ele>
      </trkpt>
      <trkpt lat="48.13588" lon="7.08957">
        <ele>1143.9</ele>
      </trkpt>
      <trkpt lat="48.13575" lon="7.08974">
        <ele>1138.9</ele>
      </trkpt>
      <trkpt lat="48.13567" lon="7.08988">
        <ele>1138.6</ele>
      </trkpt>
      <trkpt lat="48.13558" lon="7.09011">
        <ele>1136.1</ele>
      </trkpt>
      <trkpt lat="48.13551" lon="7.0903">
        <ele>1135.2</ele>
      </trkpt>
      <trkpt lat="48.13535" lon="7.09066">
        <ele>1133.8</ele>
      </trkpt>
      <trkpt lat="48.13526" lon="7.09107">
        <ele>1131.9</ele>
      </trkpt>
      <trkpt lat="48.13525" lon="7.09136">
        <ele>1131.6</ele>
      </trkpt>
      <trkpt lat="48.13516" lon="7.09155">
        <ele>1129.6</ele>
      </trkpt>
      <trkpt lat="48.13504" lon="7.09195">
        <ele>1129.5</ele>
      </trkpt>
      <trkpt lat="48.13485" lon="7.09234">
        <ele>1122.1</ele>
      </trkpt>
      <trkpt lat="48.13478" lon="7.09245">
        <ele>1121.8</ele>
      </trkpt>
      <trkpt lat="48.13461" lon="7.09264">
        <ele>1121.4</ele>
        <extensions>
          <visugpx:TrkExtension xmlns:visugpx="https://www.visugpx.com/editgpx/">
            <visugpx:node>242</visugpx:node>
            </visugpx:TrkExtension>
        </extensions>
      </trkpt>
      <trkpt lat="48.13452" lon="7.09274">
        <ele>1120.6</ele>
      </trkpt>
      <trkpt lat="48.13426" lon="7.09295">
        <ele>1119.3</ele>
      </trkpt>
      <trkpt lat="48.13421" lon="7.09279">
        <ele>1118.3</ele>
      </trkpt>
      <trkpt lat="48.13407" lon="7.09286">
        <ele>1111.7</ele>
      </trkpt>
      <trkpt lat="48.13407" lon="7.09291">
        <ele>1111.8</ele>
      </trkpt>
      <trkpt lat="48.13405" lon="7.09302">
        <ele>1112.1</ele>
      </trkpt>
      <trkpt lat="48.13402" lon="7.09309">
        <ele>1112.3</ele>
      </trkpt>
      <trkpt lat="48.13384" lon="7.09335">
        <ele>1112.5</ele>
      </trkpt>
      <trkpt lat="48.13372" lon="7.09377">
        <ele>1111.6</ele>
      </trkpt>
      <trkpt lat="48.13363" lon="7.09408">
        <ele>1110.5</ele>
      </trkpt>
      <trkpt lat="48.13361" lon="7.09425">
        <ele>1110.8</ele>
      </trkpt>
      <trkpt lat="48.1336" lon="7.09433">
        <ele>1110.9</ele>
      </trkpt>
      <trkpt lat="48.13358" lon="7.0944">
        <ele>1110.9</ele>
      </trkpt>
      <trkpt lat="48.13347" lon="7.09477">
        <ele>1109.4</ele>
      </trkpt>
      <trkpt lat="48.13345" lon="7.09482">
        <ele>1108.7</ele>
      </trkpt>
      <trkpt lat="48.13339" lon="7.09502">
        <ele>1105.4</ele>
      </trkpt>
      <trkpt lat="48.13334" lon="7.09527">
        <ele>1109.1</ele>
      </trkpt>
      <trkpt lat="48.13332" lon="7.09572">
        <ele>1099.8</ele>
      </trkpt>
      <trkpt lat="48.13322" lon="7.09633">
        <ele>1093.8</ele>
      </trkpt>
      <trkpt lat="48.13321" lon="7.09649">
        <ele>1094</ele>
      </trkpt>
      <trkpt lat="48.13323" lon="7.09666">
        <ele>1095</ele>
      </trkpt>
      <trkpt lat="48.13335" lon="7.0973">
        <ele>1098.2</ele>
      </trkpt>
      <trkpt lat="48.13338" lon="7.09748">
        <ele>1094.9</ele>
      </trkpt>
      <trkpt lat="48.1334" lon="7.09764">
        <ele>1094.1</ele>
      </trkpt>
      <trkpt lat="48.13343" lon="7.09781">
        <ele>1094.1</ele>
      </trkpt>
      <trkpt lat="48.13349" lon="7.09802">
        <ele>1093</ele>
      </trkpt>
      <trkpt lat="48.13373" lon="7.09865">
        <ele>1085.6</ele>
      </trkpt>
      <trkpt lat="48.13377" lon="7.09882">
        <ele>1084.7</ele>
      </trkpt>
      <trkpt lat="48.13385" lon="7.09941">
        <ele>1076.4</ele>
      </trkpt>
      <trkpt lat="48.1339" lon="7.0996">
        <ele>1075.8</ele>
      </trkpt>
      <trkpt lat="48.13394" lon="7.09972">
        <ele>1075.6</ele>
        <extensions>
          <visugpx:TrkExtension xmlns:visugpx="https://www.visugpx.com/editgpx/">
            <visugpx:node>243</visugpx:node>
            </visugpx:TrkExtension>
        </extensions>
      </trkpt>
      <trkpt lat="48.13401" lon="7.0999">
        <ele>1076.3</ele>
      </trkpt>
      <trkpt lat="48.13404" lon="7.1">
        <ele>1076.9</ele>
      </trkpt>
      <trkpt lat="48.1342" lon="7.1004">
        <ele>1079</ele>
      </trkpt>
      <trkpt lat="48.1342" lon="7.10057">
        <ele>1076.6</ele>
      </trkpt>
      <trkpt lat="48.13419" lon="7.10092">
        <ele>1069.2</ele>
      </trkpt>
      <trkpt lat="48.13418" lon="7.10111">
        <ele>1071</ele>
      </trkpt>
      <trkpt lat="48.13414" lon="7.10131">
        <ele>1059.8</ele>
      </trkpt>
      <trkpt lat="48.13399" lon="7.10191">
        <ele>1054.1</ele>
      </trkpt>
      <trkpt lat="48.13396" lon="7.10224">
        <ele>1051.8</ele>
      </trkpt>
      <trkpt lat="48.13398" lon="7.1025">
        <ele>1048.7</ele>
      </trkpt>
      <trkpt lat="48.13398" lon="7.10262">
        <ele>1047.9</ele>
      </trkpt>
      <trkpt lat="48.13397" lon="7.10292">
        <ele>1045</ele>
      </trkpt>
      <trkpt lat="48.13402" lon="7.10323">
        <ele>1044.6</ele>
      </trkpt>
      <trkpt lat="48.13402" lon="7.10326">
        <ele>1044.6</ele>
      </trkpt>
      <trkpt lat="48.13403" lon="7.10334">
        <ele>1042.1</ele>
      </trkpt>
      <trkpt lat="48.13401" lon="7.10345">
        <ele>1041</ele>
      </trkpt>
      <trkpt lat="48.13379" lon="7.10374">
        <ele>1037.1</ele>
      </trkpt>
      <trkpt lat="48.13354" lon="7.10412">
        <ele>1032.6</ele>
      </trkpt>
      <trkpt lat="48.13345" lon="7.1042">
        <ele>1027</ele>
      </trkpt>
      <trkpt lat="48.13323" lon="7.10432">
        <ele>1020.4</ele>
      </trkpt>
      <trkpt lat="48.13298" lon="7.10438">
        <ele>1016.3</ele>
      </trkpt>
      <trkpt lat="48.13285" lon="7.1044">
        <ele>1014.8</ele>
      </trkpt>
      <trkpt lat="48.13255" lon="7.10437">
        <ele>1013.2</ele>
      </trkpt>
      <trkpt lat="48.13242" lon="7.10434">
        <ele>1004.7</ele>
      </trkpt>
      <trkpt lat="48.13218" lon="7.10419">
        <ele>1001.4</ele>
      </trkpt>
      <trkpt lat="48.13194" lon="7.10397">
        <ele>1004.7</ele>
      </trkpt>
      <trkpt lat="48.1317" lon="7.10367">
        <ele>1005.1</ele>
      </trkpt>
      <trkpt lat="48.13157" lon="7.10347">
        <ele>999</ele>
      </trkpt>
      <trkpt lat="48.13144" lon="7.10319">
        <ele>1004.1</ele>
      </trkpt>
      <trkpt lat="48.13138" lon="7.10303">
        <ele>1004.5</ele>
      </trkpt>
      <trkpt lat="48.13132" lon="7.10273">
        <ele>1005.8</ele>
      </trkpt>
      <trkpt lat="48.13123" lon="7.10267">
        <ele>1006</ele>
      </trkpt>
      <trkpt lat="48.13116" lon="7.10268">
        <ele>1006</ele>
      </trkpt>
      <trkpt lat="48.13105" lon="7.10273">
        <ele>1005.9</ele>
      </trkpt>
      <trkpt lat="48.13093" lon="7.10276">
        <ele>1005.9</ele>
      </trkpt>
      <trkpt lat="48.13089" lon="7.10282">
        <ele>1005.2</ele>
      </trkpt>
      <trkpt lat="48.13087" lon="7.10289">
        <ele>1004.4</ele>
      </trkpt>
      <trkpt lat="48.13087" lon="7.10295">
        <ele>1003.7</ele>
      </trkpt>
      <trkpt lat="48.13088" lon="7.10305">
        <ele>1002.4</ele>
      </trkpt>
      <trkpt lat="48.13094" lon="7.10313">
        <ele>1001.6</ele>
      </trkpt>
      <trkpt lat="48.13104" lon="7.10315">
        <ele>1002.1</ele>
      </trkpt>
      <trkpt lat="48.13111" lon="7.10325">
        <ele>1002</ele>
      </trkpt>
      <trkpt lat="48.13112" lon="7.10333">
        <ele>1001.9</ele>
      </trkpt>
      <trkpt lat="48.13111" lon="7.1039">
        <ele>990.9</ele>
      </trkpt>
      <trkpt lat="48.13138" lon="7.10487">
        <ele>978</ele>
      </trkpt>
      <trkpt lat="48.13165" lon="7.10551">
        <ele>965</ele>
        <extensions>
          <visugpx:TrkExtension xmlns:visugpx="https://www.visugpx.com/editgpx/">
            <visugpx:node>244</visugpx:node>
            </visugpx:TrkExtension>
        </extensions>
      </trkpt>
      <trkpt lat="48.13167" lon="7.10557">
        <ele>974.5</ele>
      </trkpt>
      <trkpt lat="48.13169" lon="7.10565">
        <ele>972.4</ele>
      </trkpt>
      <trkpt lat="48.13185" lon="7.10597">
        <ele>963.7</ele>
      </trkpt>
      <trkpt lat="48.13205" lon="7.10628">
        <ele>962.8</ele>
      </trkpt>
      <trkpt lat="48.13235" lon="7.10688">
        <ele>951.3</ele>
      </trkpt>
      <trkpt lat="48.13264" lon="7.10719">
        <ele>956.8</ele>
      </trkpt>
      <trkpt lat="48.13282" lon="7.10791">
        <ele>948.5</ele>
      </trkpt>
      <trkpt lat="48.13285" lon="7.10812">
        <ele>947.3</ele>
      </trkpt>
      <trkpt lat="48.13287" lon="7.10848">
        <ele>941.6</ele>
      </trkpt>
      <trkpt lat="48.13288" lon="7.10885">
        <ele>940.7</ele>
      </trkpt>
      <trkpt lat="48.13284" lon="7.10929">
        <ele>933.9</ele>
      </trkpt>
      <trkpt lat="48.13299" lon="7.11017">
        <ele>927.5</ele>
      </trkpt>
      <trkpt lat="48.13302" lon="7.1107">
        <ele>924.7</ele>
      </trkpt>
      <trkpt lat="48.13302" lon="7.11098">
        <ele>921</ele>
      </trkpt>
      <trkpt lat="48.13297" lon="7.11124">
        <ele>919.4</ele>
      </trkpt>
      <trkpt lat="48.13295" lon="7.11133">
        <ele>919.1</ele>
      </trkpt>
      <trkpt lat="48.13286" lon="7.11161">
        <ele>916.8</ele>
      </trkpt>
      <trkpt lat="48.13277" lon="7.11198">
        <ele>917.3</ele>
      </trkpt>
      <trkpt lat="48.13268" lon="7.11257">
        <ele>911.9</ele>
      </trkpt>
      <trkpt lat="48.13267" lon="7.11286">
        <ele>913.9</ele>
      </trkpt>
      <trkpt lat="48.13266" lon="7.11349">
        <ele>905.1</ele>
      </trkpt>
      <trkpt lat="48.13253" lon="7.11452">
        <ele>897.2</ele>
      </trkpt>
      <trkpt lat="48.13259" lon="7.11486">
        <ele>892.3</ele>
      </trkpt>
      <trkpt lat="48.13258" lon="7.11491">
        <ele>890</ele>
      </trkpt>
      <trkpt lat="48.13254" lon="7.11499">
        <ele>884.7</ele>
      </trkpt>
      <trkpt lat="48.13257" lon="7.11522">
        <ele>888.5</ele>
      </trkpt>
      <trkpt lat="48.13271" lon="7.11595">
        <ele>879.4</ele>
      </trkpt>
      <trkpt lat="48.13273" lon="7.1167">
        <ele>867.2</ele>
      </trkpt>
      <trkpt lat="48.1329" lon="7.11751">
        <ele>853.9</ele>
      </trkpt>
      <trkpt lat="48.13295" lon="7.11782">
        <ele>852.3</ele>
      </trkpt>
      <trkpt lat="48.13296" lon="7.11839">
        <ele>836.4</ele>
      </trkpt>
      <trkpt lat="48.133" lon="7.11853">
        <ele>836</ele>
        <extensions>
          <visugpx:TrkExtension xmlns:visugpx="https://www.visugpx.com/editgpx/">
            <visugpx:node>245</visugpx:node>
            </visugpx:TrkExtension>
        </extensions>
      </trkpt>
      <trkpt lat="48.13302" lon="7.11861">
        <ele>835.4</ele>
      </trkpt>
      <trkpt lat="48.13328" lon="7.11895">
        <ele>835</ele>
      </trkpt>
      <trkpt lat="48.13336" lon="7.11909">
        <ele>841.7</ele>
      </trkpt>
      <trkpt lat="48.13338" lon="7.11923">
        <ele>841</ele>
      </trkpt>
      <trkpt lat="48.13335" lon="7.11932">
        <ele>843.4</ele>
      </trkpt>
      <trkpt lat="48.13316" lon="7.11967">
        <ele>827.1</ele>
      </trkpt>
      <trkpt lat="48.13314" lon="7.11973">
        <ele>827.2</ele>
      </trkpt>
      <trkpt lat="48.13303" lon="7.12028">
        <ele>825.7</ele>
      </trkpt>
      <trkpt lat="48.13294" lon="7.12054">
        <ele>824.3</ele>
      </trkpt>
      <trkpt lat="48.13267" lon="7.12131">
        <ele>821.6</ele>
      </trkpt>
      <trkpt lat="48.13246" lon="7.1218">
        <ele>806.4</ele>
      </trkpt>
      <trkpt lat="48.13239" lon="7.12221">
        <ele>802.9</ele>
      </trkpt>
      <trkpt lat="48.13213" lon="7.12289">
        <ele>801.8</ele>
      </trkpt>
      <trkpt lat="48.13197" lon="7.12315">
        <ele>798.9</ele>
      </trkpt>
      <trkpt lat="48.13179" lon="7.12352">
        <ele>795.7</ele>
      </trkpt>
      <trkpt lat="48.13165" lon="7.12405">
        <ele>777.2</ele>
      </trkpt>
      <trkpt lat="48.13153" lon="7.12542">
        <ele>756.7</ele>
      </trkpt>
      <trkpt lat="48.13141" lon="7.12587">
        <ele>750.4</ele>
      </trkpt>
      <trkpt lat="48.1313" lon="7.12658">
        <ele>745.8</ele>
      </trkpt>
      <trkpt lat="48.13122" lon="7.12693">
        <ele>741.2</ele>
      </trkpt>
      <trkpt lat="48.13115" lon="7.12726">
        <ele>739.2</ele>
      </trkpt>
      <trkpt lat="48.13107" lon="7.12765">
        <ele>733.9</ele>
      </trkpt>
      <trkpt lat="48.13103" lon="7.12799">
        <ele>732.6</ele>
      </trkpt>
      <trkpt lat="48.13103" lon="7.12884">
        <ele>727.1</ele>
      </trkpt>
      <trkpt lat="48.13111" lon="7.1293">
        <ele>723.7</ele>
      </trkpt>
      <trkpt lat="48.13111" lon="7.12948">
        <ele>724</ele>
      </trkpt>
      <trkpt lat="48.13105" lon="7.12997">
        <ele>719.1</ele>
      </trkpt>
      <trkpt lat="48.13105" lon="7.13054">
        <ele>717.4</ele>
      </trkpt>
      <trkpt lat="48.13102" lon="7.13068">
        <ele>715.6</ele>
      </trkpt>
      <trkpt lat="48.13082" lon="7.13107">
        <ele>702.3</ele>
      </trkpt>
      <trkpt lat="48.13039" lon="7.13171">
        <ele>700.3</ele>
      </trkpt>
      <trkpt lat="48.12996" lon="7.13203">
        <ele>689.9</ele>
      </trkpt>
      <trkpt lat="48.12985" lon="7.13217">
        <ele>689.9</ele>
      </trkpt>
      <trkpt lat="48.12959" lon="7.13275">
        <ele>691.3</ele>
      </trkpt>
      <trkpt lat="48.12953" lon="7.13282">
        <ele>690.9</ele>
        <extensions>
          <visugpx:TrkExtension xmlns:visugpx="https://www.visugpx.com/editgpx/">
            <visugpx:node>246</visugpx:node>
            </visugpx:TrkExtension>
        </extensions>
      </trkpt>
      <trkpt lat="48.12925" lon="7.1332">
        <ele>689.1</ele>
      </trkpt>
      <trkpt lat="48.12912" lon="7.13342">
        <ele>684</ele>
      </trkpt>
      <trkpt lat="48.12897" lon="7.13377">
        <ele>680</ele>
      </trkpt>
      <trkpt lat="48.12891" lon="7.13398">
        <ele>680</ele>
      </trkpt>
      <trkpt lat="48.12885" lon="7.13423">
        <ele>678</ele>
      </trkpt>
      <trkpt lat="48.12883" lon="7.13455">
        <ele>676.4</ele>
      </trkpt>
      <trkpt lat="48.12886" lon="7.13477">
        <ele>676.4</ele>
      </trkpt>
      <trkpt lat="48.12883" lon="7.13485">
        <ele>676</ele>
      </trkpt>
      <trkpt lat="48.1288" lon="7.13495">
        <ele>675.4</ele>
      </trkpt>
      <trkpt lat="48.12885" lon="7.13523">
        <ele>670.1</ele>
      </trkpt>
      <trkpt lat="48.12901" lon="7.13586">
        <ele>663.8</ele>
      </trkpt>
      <trkpt lat="48.12899" lon="7.13611">
        <ele>659.7</ele>
      </trkpt>
      <trkpt lat="48.12899" lon="7.13627">
        <ele>657.6</ele>
      </trkpt>
      <trkpt lat="48.12904" lon="7.13653">
        <ele>655.8</ele>
      </trkpt>
      <trkpt lat="48.12915" lon="7.13681">
        <ele>651.8</ele>
      </trkpt>
      <trkpt lat="48.12918" lon="7.13694">
        <ele>652.6</ele>
      </trkpt>
      <trkpt lat="48.12916" lon="7.13707">
        <ele>648.9</ele>
      </trkpt>
      <trkpt lat="48.12917" lon="7.13722">
        <ele>649.8</ele>
      </trkpt>
      <trkpt lat="48.12915" lon="7.13733">
        <ele>646.8</ele>
      </trkpt>
      <trkpt lat="48.12939" lon="7.13763">
        <ele>641.4</ele>
      </trkpt>
      <trkpt lat="48.12947" lon="7.13777">
        <ele>640.1</ele>
      </trkpt>
      <trkpt lat="48.12953" lon="7.13795">
        <ele>638.8</ele>
      </trkpt>
      <trkpt lat="48.12962" lon="7.13831">
        <ele>636.2</ele>
      </trkpt>
      <trkpt lat="48.1298" lon="7.13912">
        <ele>628.5</ele>
      </trkpt>
      <trkpt lat="48.12993" lon="7.13955">
        <ele>626.2</ele>
      </trkpt>
      <trkpt lat="48.1301" lon="7.14">
        <ele>619.6</ele>
      </trkpt>
      <trkpt lat="48.13018" lon="7.14022">
        <ele>615.2</ele>
      </trkpt>
      <trkpt lat="48.13027" lon="7.14088">
        <ele>609.4</ele>
      </trkpt>
      <trkpt lat="48.13062" lon="7.14144">
        <ele>605</ele>
      </trkpt>
      <trkpt lat="48.13071" lon="7.14166">
        <ele>602.7</ele>
      </trkpt>
      <trkpt lat="48.13088" lon="7.14238">
        <ele>596.9</ele>
      </trkpt>
      <trkpt lat="48.13092" lon="7.14292">
        <ele>590.8</ele>
      </trkpt>
      <trkpt lat="48.13083" lon="7.14345">
        <ele>588.8</ele>
      </trkpt>
      <trkpt lat="48.13104" lon="7.14417">
        <ele>584.3</ele>
      </trkpt>
      <trkpt lat="48.13116" lon="7.14483">
        <ele>582.2</ele>
      </trkpt>
      <trkpt lat="48.13118" lon="7.14526">
        <ele>576.5</ele>
      </trkpt>
      <trkpt lat="48.13112" lon="7.14554">
        <ele>575.1</ele>
      </trkpt>
      <trkpt lat="48.13098" lon="7.14575">
        <ele>574.9</ele>
      </trkpt>
      <trkpt lat="48.13077" lon="7.14591">
        <ele>575.9</ele>
      </trkpt>
      <trkpt lat="48.13053" lon="7.1463">
        <ele>576.2</ele>
      </trkpt>
      <trkpt lat="48.1303" lon="7.14684">
        <ele>571.2</ele>
      </trkpt>
      <trkpt lat="48.13019" lon="7.14699">
        <ele>571.3</ele>
      </trkpt>
      <trkpt lat="48.12988" lon="7.14757">
        <ele>567.1</ele>
      </trkpt>
      <trkpt lat="48.12985" lon="7.14772">
        <ele>565.7</ele>
      </trkpt>
      <trkpt lat="48.12917" lon="7.14842">
        <ele>550.3</ele>
      </trkpt>
      <trkpt lat="48.12882" lon="7.14873">
        <ele>541.5</ele>
      </trkpt>
      <trkpt lat="48.12855" lon="7.14912">
        <ele>537.3</ele>
        <extensions>
          <visugpx:TrkExtension xmlns:visugpx="https://www.visugpx.com/editgpx/">
            <visugpx:node>247</visugpx:node>
            </visugpx:TrkExtension>
        </extensions>
      </trkpt>
      <trkpt lat="48.12851" lon="7.14918">
        <ele>534.5</ele>
      </trkpt>
      <trkpt lat="48.12822" lon="7.14976">
        <ele>531.3</ele>
      </trkpt>
      <trkpt lat="48.12806" lon="7.15003">
        <ele>529.4</ele>
      </trkpt>
      <trkpt lat="48.12782" lon="7.15022">
        <ele>528.7</ele>
      </trkpt>
      <trkpt lat="48.12774" lon="7.15036">
        <ele>528.3</ele>
      </trkpt>
      <trkpt lat="48.12769" lon="7.15064">
        <ele>527.4</ele>
      </trkpt>
      <trkpt lat="48.1276" lon="7.15084">
        <ele>525.8</ele>
      </trkpt>
      <trkpt lat="48.12745" lon="7.15111">
        <ele>523.9</ele>
      </trkpt>
      <trkpt lat="48.12732" lon="7.15126">
        <ele>523.5</ele>
      </trkpt>
      <trkpt lat="48.12724" lon="7.1514">
        <ele>523.1</ele>
      </trkpt>
      <trkpt lat="48.12719" lon="7.15155">
        <ele>522.7</ele>
      </trkpt>
      <trkpt lat="48.12716" lon="7.15171">
        <ele>519.8</ele>
      </trkpt>
      <trkpt lat="48.12713" lon="7.1521">
        <ele>519.1</ele>
      </trkpt>
      <trkpt lat="48.12707" lon="7.15268">
        <ele>517.8</ele>
      </trkpt>
      <trkpt lat="48.12703" lon="7.15281">
        <ele>517.6</ele>
      </trkpt>
      <trkpt lat="48.12692" lon="7.1531">
        <ele>516.8</ele>
      </trkpt>
      <trkpt lat="48.12675" lon="7.1534">
        <ele>514</ele>
      </trkpt>
      <trkpt lat="48.12631" lon="7.15413">
        <ele>509.5</ele>
      </trkpt>
      <trkpt lat="48.12622" lon="7.15426">
        <ele>507.5</ele>
      </trkpt>
      <trkpt lat="48.12614" lon="7.15437">
        <ele>507.2</ele>
      </trkpt>
      <trkpt lat="48.12609" lon="7.1544">
        <ele>507.2</ele>
      </trkpt>
      <trkpt lat="48.12604" lon="7.15439">
        <ele>507.2</ele>
      </trkpt>
      <trkpt lat="48.12591" lon="7.15431">
        <ele>507.4</ele>
      </trkpt>
      <trkpt lat="48.12579" lon="7.15429">
        <ele>506.9</ele>
      </trkpt>
      <trkpt lat="48.12554" lon="7.15414">
        <ele>508.6</ele>
      </trkpt>
      <trkpt lat="48.12545" lon="7.15419">
        <ele>506.3</ele>
      </trkpt>
      <trkpt lat="48.12542" lon="7.1542">
        <ele>506.2</ele>
      </trkpt>
      <trkpt lat="48.12537" lon="7.15406">
        <ele>508.6</ele>
      </trkpt>
      <trkpt lat="48.12535" lon="7.15396">
        <ele>508.8</ele>
      </trkpt>
      <trkpt lat="48.12531" lon="7.15399">
        <ele>508.7</ele>
      </trkpt>
      <trkpt lat="48.12516" lon="7.15404">
        <ele>508.3</ele>
      </trkpt>
      <trkpt lat="48.12479" lon="7.15423">
        <ele>511.6</ele>
      </trkpt>
      <trkpt lat="48.12466" lon="7.15431">
        <ele>513.5</ele>
      </trkpt>
      <trkpt lat="48.12458" lon="7.15442">
        <ele>514.7</ele>
      </trkpt>
      <trkpt lat="48.12455" lon="7.15453">
        <ele>515.4</ele>
      </trkpt>
      <trkpt lat="48.12454" lon="7.15474">
        <ele>516.6</ele>
      </trkpt>
      <trkpt lat="48.1244" lon="7.15468">
        <ele>518.2</ele>
      </trkpt>
      <trkpt lat="48.12405" lon="7.15439">
        <ele>530.1</ele>
      </trkpt>
      <trkpt lat="48.12374" lon="7.15408">
        <ele>522.8</ele>
      </trkpt>
      <trkpt lat="48.12364" lon="7.15401">
        <ele>524</ele>
      </trkpt>
      <trkpt lat="48.1235" lon="7.154">
        <ele>526.5</ele>
      </trkpt>
      <trkpt lat="48.12332" lon="7.15386">
        <ele>531.7</ele>
      </trkpt>
      <trkpt lat="48.12311" lon="7.15378">
        <ele>531</ele>
      </trkpt>
      <trkpt lat="48.12294" lon="7.15376">
        <ele>531.7</ele>
      </trkpt>
      <trkpt lat="48.12261" lon="7.15373">
        <ele>533.1</ele>
      </trkpt>
      <trkpt lat="48.1225" lon="7.15378">
        <ele>534.3</ele>
      </trkpt>
      <trkpt lat="48.12236" lon="7.15392">
        <ele>542.2</ele>
      </trkpt>
      <trkpt lat="48.12224" lon="7.15395">
        <ele>542.4</ele>
      </trkpt>
      <trkpt lat="48.12199" lon="7.15397">
        <ele>543.1</ele>
      </trkpt>
      <trkpt lat="48.12187" lon="7.15402">
        <ele>544.3</ele>
        <extensions>
          <visugpx:TrkExtension xmlns:visugpx="https://www.visugpx.com/editgpx/">
            <visugpx:node>248</visugpx:node>
            </visugpx:TrkExtension>
        </extensions>
      </trkpt>
      <trkpt lat="48.12167" lon="7.15411">
        <ele>547.5</ele>
      </trkpt>
      <trkpt lat="48.12147" lon="7.15426">
        <ele>557.5</ele>
      </trkpt>
      <trkpt lat="48.12136" lon="7.1543">
        <ele>559.9</ele>
      </trkpt>
      <trkpt lat="48.12113" lon="7.1542">
        <ele>561.5</ele>
      </trkpt>
      <trkpt lat="48.12085" lon="7.15387">
        <ele>557.1</ele>
      </trkpt>
      <trkpt lat="48.12077" lon="7.15389">
        <ele>568.9</ele>
      </trkpt>
      <trkpt lat="48.12044" lon="7.15421">
        <ele>575.9</ele>
      </trkpt>
      <trkpt lat="48.12018" lon="7.1544">
        <ele>580.3</ele>
      </trkpt>
      <trkpt lat="48.12003" lon="7.15454">
        <ele>581.9</ele>
      </trkpt>
      <trkpt lat="48.11979" lon="7.15472">
        <ele>598.7</ele>
      </trkpt>
      <trkpt lat="48.11981" lon="7.15477">
        <ele>598.4</ele>
      </trkpt>
      <trkpt lat="48.1199" lon="7.15494">
        <ele>596.1</ele>
      </trkpt>
      <trkpt lat="48.11991" lon="7.15499">
        <ele>595.5</ele>
      </trkpt>
      <trkpt lat="48.1199" lon="7.15504">
        <ele>599.2</ele>
      </trkpt>
      <trkpt lat="48.11988" lon="7.15506">
        <ele>600.3</ele>
      </trkpt>
      <trkpt lat="48.11982" lon="7.15504">
        <ele>602.1</ele>
      </trkpt>
      <trkpt lat="48.11971" lon="7.1549">
        <ele>599.8</ele>
      </trkpt>
      <trkpt lat="48.11964" lon="7.1548">
        <ele>601</ele>
      </trkpt>
      <trkpt lat="48.11954" lon="7.15498">
        <ele>603.2</ele>
      </trkpt>
      <trkpt lat="48.11933" lon="7.1552">
        <ele>611.9</ele>
      </trkpt>
      <trkpt lat="48.11933" lon="7.15528">
        <ele>612</ele>
      </trkpt>
      <trkpt lat="48.11935" lon="7.15539">
        <ele>612.3</ele>
      </trkpt>
      <trkpt lat="48.11937" lon="7.15546">
        <ele>612.7</ele>
      </trkpt>
      <trkpt lat="48.11907" lon="7.15536">
        <ele>624.1</ele>
      </trkpt>
      <trkpt lat="48.11894" lon="7.15554">
        <ele>625.9</ele>
      </trkpt>
      <trkpt lat="48.11862" lon="7.15579">
        <ele>630.1</ele>
      </trkpt>
      <trkpt lat="48.11839" lon="7.15607">
        <ele>636.4</ele>
      </trkpt>
      <trkpt lat="48.11826" lon="7.15618">
        <ele>646.6</ele>
      </trkpt>
      <trkpt lat="48.11811" lon="7.15626">
        <ele>648.5</ele>
      </trkpt>
      <trkpt lat="48.11802" lon="7.1563">
        <ele>649.6</ele>
      </trkpt>
      <trkpt lat="48.11797" lon="7.15632">
        <ele>650.3</ele>
      </trkpt>
      <trkpt lat="48.11787" lon="7.15634">
        <ele>651.7</ele>
      </trkpt>
      <trkpt lat="48.11776" lon="7.15636">
        <ele>653.3</ele>
      </trkpt>
      <trkpt lat="48.1177" lon="7.15637">
        <ele>654.2</ele>
      </trkpt>
      <trkpt lat="48.11753" lon="7.15649">
        <ele>658.7</ele>
      </trkpt>
      <trkpt lat="48.11718" lon="7.15664">
        <ele>669.1</ele>
      </trkpt>
      <trkpt lat="48.11695" lon="7.15678">
        <ele>679</ele>
      </trkpt>
      <trkpt lat="48.11694" lon="7.15682">
        <ele>679.2</ele>
      </trkpt>
      <trkpt lat="48.11698" lon="7.15689">
        <ele>679.1</ele>
      </trkpt>
      <trkpt lat="48.11697" lon="7.15694">
        <ele>679.4</ele>
      </trkpt>
      <trkpt lat="48.11692" lon="7.15692">
        <ele>679.7</ele>
      </trkpt>
      <trkpt lat="48.1168" lon="7.15688">
        <ele>680.3</ele>
      </trkpt>
      <trkpt lat="48.11675" lon="7.15689">
        <ele>680.6</ele>
      </trkpt>
      <trkpt lat="48.11669" lon="7.15695">
        <ele>681.1</ele>
      </trkpt>
      <trkpt lat="48.11669" lon="7.15714">
        <ele>682.8</ele>
      </trkpt>
      <trkpt lat="48.11681" lon="7.15759">
        <ele>690.3</ele>
      </trkpt>
      <trkpt lat="48.11684" lon="7.1577">
        <ele>689.7</ele>
      </trkpt>
      <trkpt lat="48.11671" lon="7.1577">
        <ele>690.5</ele>
      </trkpt>
      <trkpt lat="48.11666" lon="7.15771">
        <ele>697.2</ele>
      </trkpt>
      <trkpt lat="48.11647" lon="7.15786">
        <ele>699.2</ele>
      </trkpt>
      <trkpt lat="48.11631" lon="7.15786">
        <ele>700.3</ele>
      </trkpt>
      <trkpt lat="48.1161" lon="7.15793">
        <ele>701.7</ele>
      </trkpt>
      <trkpt lat="48.11598" lon="7.15795">
        <ele>702.3</ele>
      </trkpt>
      <trkpt lat="48.11585" lon="7.15804">
        <ele>702.4</ele>
      </trkpt>
      <trkpt lat="48.11549" lon="7.15799">
        <ele>712.1</ele>
      </trkpt>
      <trkpt lat="48.11536" lon="7.15789">
        <ele>713.6</ele>
      </trkpt>
      <trkpt lat="48.11503" lon="7.15773">
        <ele>717.2</ele>
      </trkpt>
      <trkpt lat="48.11502" lon="7.15769">
        <ele>717.9</ele>
      </trkpt>
      <trkpt lat="48.11495" lon="7.15755">
        <ele>721.8</ele>
      </trkpt>
      <trkpt lat="48.11482" lon="7.15688">
        <ele>726.4</ele>
      </trkpt>
      <trkpt lat="48.11472" lon="7.15667">
        <ele>726.8</ele>
      </trkpt>
      <trkpt lat="48.11461" lon="7.15633">
        <ele>734.8</ele>
      </trkpt>
      <trkpt lat="48.11448" lon="7.15608">
        <ele>737.5</ele>
      </trkpt>
      <trkpt lat="48.11439" lon="7.15599">
        <ele>739.5</ele>
      </trkpt>
      <trkpt lat="48.11426" lon="7.15591">
        <ele>743.1</ele>
      </trkpt>
      <trkpt lat="48.1142" lon="7.15591">
        <ele>744.3</ele>
      </trkpt>
      <trkpt lat="48.11396" lon="7.15588">
        <ele>742.6</ele>
      </trkpt>
      <trkpt lat="48.11384" lon="7.15587">
        <ele>741.4</ele>
      </trkpt>
      <trkpt lat="48.11377" lon="7.15586">
        <ele>741</ele>
      </trkpt>
      <trkpt lat="48.11313" lon="7.15559">
        <ele>745.6</ele>
      </trkpt>
      <trkpt lat="48.11288" lon="7.15537">
        <ele>745.8</ele>
      </trkpt>
      <trkpt lat="48.11259" lon="7.15522">
        <ele>745.2</ele>
      </trkpt>
      <trkpt lat="48.11239" lon="7.1552">
        <ele>742.2</ele>
      </trkpt>
      <trkpt lat="48.1121" lon="7.15524">
        <ele>741</ele>
      </trkpt>
      <trkpt lat="48.11157" lon="7.15525">
        <ele>741.4</ele>
      </trkpt>
      <trkpt lat="48.11149" lon="7.15526">
        <ele>741.7</ele>
        <extensions>
          <visugpx:TrkExtension xmlns:visugpx="https://www.visugpx.com/editgpx/">
            <visugpx:node>250</visugpx:node>
            </visugpx:TrkExtension>
        </extensions>
      </trkpt>
      <trkpt lat="48.1115" lon="7.15531">
        <ele>741.9</ele>
      </trkpt>
      <trkpt lat="48.11111" lon="7.15544">
        <ele>743.9</ele>
      </trkpt>
      <trkpt lat="48.11055" lon="7.15545">
        <ele>750</ele>
      </trkpt>
      <trkpt lat="48.11032" lon="7.15535">
        <ele>750.8</ele>
      </trkpt>
      <trkpt lat="48.10998" lon="7.15517">
        <ele>757</ele>
      </trkpt>
      <trkpt lat="48.10977" lon="7.15496">
        <ele>754.8</ele>
      </trkpt>
      <trkpt lat="48.10978" lon="7.15491">
        <ele>754.8</ele>
      </trkpt>
      <trkpt lat="48.10975" lon="7.15484">
        <ele>755</ele>
      </trkpt>
      <trkpt lat="48.10971" lon="7.1548">
        <ele>755.4</ele>
      </trkpt>
      <trkpt lat="48.1096" lon="7.15469">
        <ele>756.1</ele>
      </trkpt>
      <trkpt lat="48.10941" lon="7.15454">
        <ele>756.9</ele>
      </trkpt>
      <trkpt lat="48.1093" lon="7.15437">
        <ele>757.2</ele>
      </trkpt>
      <trkpt lat="48.10924" lon="7.15431">
        <ele>757.7</ele>
      </trkpt>
      <trkpt lat="48.10915" lon="7.15428">
        <ele>766.3</ele>
      </trkpt>
      <trkpt lat="48.10907" lon="7.15421">
        <ele>766</ele>
      </trkpt>
      <trkpt lat="48.109" lon="7.15417">
        <ele>769.1</ele>
      </trkpt>
      <trkpt lat="48.10892" lon="7.15411">
        <ele>765.2</ele>
      </trkpt>
      <trkpt lat="48.10888" lon="7.15408">
        <ele>766.1</ele>
      </trkpt>
      <trkpt lat="48.10878" lon="7.15406">
        <ele>768.2</ele>
      </trkpt>
      <trkpt lat="48.1087" lon="7.15391">
        <ele>769</ele>
      </trkpt>
      <trkpt lat="48.10856" lon="7.15374">
        <ele>769.6</ele>
        <extensions>
          <visugpx:TrkExtension xmlns:visugpx="https://www.visugpx.com/editgpx/">
            <visugpx:node>251</visugpx:node>
            </visugpx:TrkExtension>
        </extensions>
      </trkpt>
      <trkpt lat="48.10849" lon="7.15365">
        <ele>769.7</ele>
      </trkpt>
      <trkpt lat="48.10832" lon="7.15356">
        <ele>785.3</ele>
      </trkpt>
      <trkpt lat="48.10794" lon="7.1533">
        <ele>777.5</ele>
      </trkpt>
      <trkpt lat="48.10757" lon="7.15324">
        <ele>788.4</ele>
      </trkpt>
      <trkpt lat="48.10712" lon="7.15295">
        <ele>794.4</ele>
      </trkpt>
      <trkpt lat="48.10663" lon="7.15269">
        <ele>799.5</ele>
      </trkpt>
      <trkpt lat="48.10658" lon="7.15287">
        <ele>805.5</ele>
      </trkpt>
      <trkpt lat="48.1067" lon="7.15302">
        <ele>800.5</ele>
        <extensions>
          <visugpx:TrkExtension xmlns:visugpx="https://www.visugpx.com/editgpx/">
            <visugpx:node>252</visugpx:node>
            </visugpx:TrkExtension>
        </extensions>
      </trkpt>
      <trkpt lat="48.10677" lon="7.1531">
        <ele>802.4</ele>
      </trkpt>
      <trkpt lat="48.10698" lon="7.15343">
        <ele>818.3</ele>
      </trkpt>
      <trkpt lat="48.10681" lon="7.15345">
        <ele>819.7</ele>
      </trkpt>
      <trkpt lat="48.10678" lon="7.15356">
        <ele>821.2</ele>
      </trkpt>
      <trkpt lat="48.10686" lon="7.15364">
        <ele>822.1</ele>
      </trkpt>
      <trkpt lat="48.10701" lon="7.15385">
        <ele>824</ele>
      </trkpt>
      <trkpt lat="48.10707" lon="7.15411">
        <ele>826.3</ele>
      </trkpt>
      <trkpt lat="48.10704" lon="7.15426">
        <ele>843.7</ele>
      </trkpt>
      <trkpt lat="48.1069" lon="7.15428">
        <ele>846.3</ele>
      </trkpt>
      <trkpt lat="48.10654" lon="7.1543">
        <ele>858</ele>
        <extensions>
          <visugpx:TrkExtension xmlns:visugpx="https://www.visugpx.com/editgpx/">
            <visugpx:node>254</visugpx:node>
            </visugpx:TrkExtension>
        </extensions>
      </trkpt>
      <trkpt lat="48.10632" lon="7.1543">
        <ele>862.7</ele>
      </trkpt>
      <trkpt lat="48.10596" lon="7.15438">
        <ele>865.4</ele>
      </trkpt>
      <trkpt lat="48.10591" lon="7.15445">
        <ele>866.7</ele>
      </trkpt>
      <trkpt lat="48.10602" lon="7.15458">
        <ele>868.6</ele>
      </trkpt>
      <trkpt lat="48.10589" lon="7.15464">
        <ele>870.5</ele>
      </trkpt>
      <trkpt lat="48.10601" lon="7.15476">
        <ele>872.5</ele>
      </trkpt>
      <trkpt lat="48.10625" lon="7.15508">
        <ele>882</ele>
      </trkpt>
      <trkpt lat="48.10631" lon="7.15537">
        <ele>882.5</ele>
      </trkpt>
      <trkpt lat="48.10628" lon="7.15557">
        <ele>883.4</ele>
      </trkpt>
      <trkpt lat="48.10608" lon="7.15568">
        <ele>884.9</ele>
      </trkpt>
      <trkpt lat="48.10591" lon="7.15565">
        <ele>885.9</ele>
      </trkpt>
      <trkpt lat="48.10564" lon="7.15544">
        <ele>884.8</ele>
      </trkpt>
      <trkpt lat="48.10537" lon="7.15518">
        <ele>884.3</ele>
        <extensions>
          <visugpx:TrkExtension xmlns:visugpx="https://www.visugpx.com/editgpx/">
            <visugpx:node>255</visugpx:node>
            </visugpx:TrkExtension>
        </extensions>
      </trkpt>
      <trkpt lat="48.10527" lon="7.15509">
        <ele>884.5</ele>
      </trkpt>
      <trkpt lat="48.10495" lon="7.15493">
        <ele>882.6</ele>
      </trkpt>
      <trkpt lat="48.1046" lon="7.15486">
        <ele>876.8</ele>
      </trkpt>
      <trkpt lat="48.10429" lon="7.15451">
        <ele>875</ele>
      </trkpt>
      <trkpt lat="48.10388" lon="7.1542">
        <ele>871.7</ele>
      </trkpt>
      <trkpt lat="48.10368" lon="7.15406">
        <ele>869.4</ele>
      </trkpt>
      <trkpt lat="48.10352" lon="7.15392">
        <ele>869.1</ele>
      </trkpt>
      <trkpt lat="48.1033" lon="7.15382">
        <ele>872.1</ele>
      </trkpt>
      <trkpt lat="48.10319" lon="7.15378">
        <ele>872.1</ele>
      </trkpt>
      <trkpt lat="48.10303" lon="7.15377">
        <ele>872.4</ele>
      </trkpt>
      <trkpt lat="48.10291" lon="7.15375">
        <ele>872.8</ele>
      </trkpt>
      <trkpt lat="48.10285" lon="7.15372">
        <ele>873</ele>
      </trkpt>
      <trkpt lat="48.10268" lon="7.1536">
        <ele>874.3</ele>
      </trkpt>
      <trkpt lat="48.10257" lon="7.15354">
        <ele>875.5</ele>
      </trkpt>
      <trkpt lat="48.10246" lon="7.15347">
        <ele>879.8</ele>
      </trkpt>
      <trkpt lat="48.10232" lon="7.15342">
        <ele>880.3</ele>
      </trkpt>
      <trkpt lat="48.10225" lon="7.15339">
        <ele>880.8</ele>
      </trkpt>
      <trkpt lat="48.10218" lon="7.15327">
        <ele>883.5</ele>
      </trkpt>
      <trkpt lat="48.10207" lon="7.15318">
        <ele>884.6</ele>
      </trkpt>
      <trkpt lat="48.10195" lon="7.15301">
        <ele>885.4</ele>
      </trkpt>
      <trkpt lat="48.10184" lon="7.15297">
        <ele>886.3</ele>
      </trkpt>
      <trkpt lat="48.10175" lon="7.15296">
        <ele>887.1</ele>
      </trkpt>
      <trkpt lat="48.10168" lon="7.15298">
        <ele>887.6</ele>
      </trkpt>
      <trkpt lat="48.10153" lon="7.153">
        <ele>897.1</ele>
      </trkpt>
      <trkpt lat="48.10144" lon="7.15298">
        <ele>897.5</ele>
      </trkpt>
      <trkpt lat="48.10123" lon="7.15294">
        <ele>898.5</ele>
      </trkpt>
      <trkpt lat="48.10111" lon="7.15287">
        <ele>899.5</ele>
      </trkpt>
      <trkpt lat="48.10104" lon="7.15279">
        <ele>900.6</ele>
      </trkpt>
      <trkpt lat="48.101" lon="7.15274">
        <ele>901.4</ele>
      </trkpt>
      <trkpt lat="48.10085" lon="7.15266">
        <ele>903.9</ele>
      </trkpt>
      <trkpt lat="48.10073" lon="7.15265">
        <ele>906.1</ele>
      </trkpt>
      <trkpt lat="48.10065" lon="7.15265">
        <ele>905.7</ele>
      </trkpt>
      <trkpt lat="48.10058" lon="7.15263">
        <ele>905.5</ele>
      </trkpt>
      <trkpt lat="48.10054" lon="7.15259">
        <ele>905.6</ele>
      </trkpt>
      <trkpt lat="48.10043" lon="7.15244">
        <ele>908</ele>
      </trkpt>
      <trkpt lat="48.10033" lon="7.15232">
        <ele>908.1</ele>
      </trkpt>
      <trkpt lat="48.10028" lon="7.15226">
        <ele>908.2</ele>
      </trkpt>
      <trkpt lat="48.10021" lon="7.15225">
        <ele>908.4</ele>
      </trkpt>
      <trkpt lat="48.10013" lon="7.15223">
        <ele>908.6</ele>
      </trkpt>
      <trkpt lat="48.10008" lon="7.1522">
        <ele>908.7</ele>
      </trkpt>
      <trkpt lat="48.10002" lon="7.15213">
        <ele>908.8</ele>
      </trkpt>
      <trkpt lat="48.0999" lon="7.15196">
        <ele>913.3</ele>
      </trkpt>
      <trkpt lat="48.09978" lon="7.15182">
        <ele>913.8</ele>
      </trkpt>
      <trkpt lat="48.09965" lon="7.15167">
        <ele>914.6</ele>
      </trkpt>
      <trkpt lat="48.09961" lon="7.15162">
        <ele>914.9</ele>
      </trkpt>
      <trkpt lat="48.09955" lon="7.15159">
        <ele>915.3</ele>
      </trkpt>
      <trkpt lat="48.09951" lon="7.15152">
        <ele>915.5</ele>
      </trkpt>
      <trkpt lat="48.09948" lon="7.15144">
        <ele>915.4</ele>
      </trkpt>
      <trkpt lat="48.09945" lon="7.15133">
        <ele>915.3</ele>
      </trkpt>
      <trkpt lat="48.09941" lon="7.15121">
        <ele>915.2</ele>
      </trkpt>
      <trkpt lat="48.09938" lon="7.15115">
        <ele>915.4</ele>
      </trkpt>
      <trkpt lat="48.09933" lon="7.15107">
        <ele>915.9</ele>
      </trkpt>
      <trkpt lat="48.09924" lon="7.15099">
        <ele>917</ele>
      </trkpt>
      <trkpt lat="48.09903" lon="7.15086">
        <ele>923.4</ele>
      </trkpt>
      <trkpt lat="48.09898" lon="7.15084">
        <ele>924.2</ele>
      </trkpt>
      <trkpt lat="48.09881" lon="7.15078">
        <ele>924.7</ele>
      </trkpt>
      <trkpt lat="48.09863" lon="7.15072">
        <ele>927.3</ele>
      </trkpt>
      <trkpt lat="48.09853" lon="7.15069">
        <ele>928.9</ele>
      </trkpt>
      <trkpt lat="48.09832" lon="7.15068">
        <ele>935.8</ele>
      </trkpt>
      <trkpt lat="48.09814" lon="7.15068">
        <ele>935.9</ele>
      </trkpt>
      <trkpt lat="48.09801" lon="7.15067">
        <ele>935.9</ele>
      </trkpt>
      <trkpt lat="48.09789" lon="7.15066">
        <ele>936</ele>
      </trkpt>
      <trkpt lat="48.09766" lon="7.15068">
        <ele>936.1</ele>
      </trkpt>
      <trkpt lat="48.0974" lon="7.15067">
        <ele>936.8</ele>
      </trkpt>
      <trkpt lat="48.09728" lon="7.15066">
        <ele>936.9</ele>
      </trkpt>
      <trkpt lat="48.09708" lon="7.15057">
        <ele>937.1</ele>
      </trkpt>
      <trkpt lat="48.09694" lon="7.15045">
        <ele>937.4</ele>
      </trkpt>
      <trkpt lat="48.09666" lon="7.15036">
        <ele>937.8</ele>
      </trkpt>
      <trkpt lat="48.09655" lon="7.15033">
        <ele>937.9</ele>
      </trkpt>
      <trkpt lat="48.09638" lon="7.15032">
        <ele>937.9</ele>
      </trkpt>
      <trkpt lat="48.09619" lon="7.15027">
        <ele>938.2</ele>
      </trkpt>
      <trkpt lat="48.09611" lon="7.15026">
        <ele>938.3</ele>
      </trkpt>
      <trkpt lat="48.09605" lon="7.15027">
        <ele>938.4</ele>
        <extensions>
          <visugpx:TrkExtension xmlns:visugpx="https://www.visugpx.com/editgpx/">
            <visugpx:node>256</visugpx:node>
            </visugpx:TrkExtension>
        </extensions>
      </trkpt>
      <trkpt lat="48.09584" lon="7.1503">
        <ele>938.4</ele>
      </trkpt>
      <trkpt lat="48.09544" lon="7.15021">
        <ele>937.1</ele>
      </trkpt>
      <trkpt lat="48.09538" lon="7.15022">
        <ele>937</ele>
      </trkpt>
      <trkpt lat="48.09525" lon="7.15017">
        <ele>937.4</ele>
      </trkpt>
      <trkpt lat="48.09506" lon="7.15021">
        <ele>937.5</ele>
      </trkpt>
      <trkpt lat="48.09501" lon="7.15025">
        <ele>937.1</ele>
      </trkpt>
      <trkpt lat="48.09468" lon="7.15033">
        <ele>936.3</ele>
      </trkpt>
      <trkpt lat="48.09447" lon="7.15045">
        <ele>935.7</ele>
      </trkpt>
      <trkpt lat="48.09375" lon="7.15112">
        <ele>928</ele>
      </trkpt>
      <trkpt lat="48.09364" lon="7.15118">
        <ele>928.1</ele>
      </trkpt>
      <trkpt lat="48.0932" lon="7.15133">
        <ele>933.5</ele>
      </trkpt>
      <trkpt lat="48.09301" lon="7.15143">
        <ele>933.8</ele>
      </trkpt>
      <trkpt lat="48.09286" lon="7.15153">
        <ele>934.4</ele>
      </trkpt>
      <trkpt lat="48.09274" lon="7.15159">
        <ele>935</ele>
      </trkpt>
      <trkpt lat="48.09248" lon="7.15184">
        <ele>931.4</ele>
      </trkpt>
      <trkpt lat="48.09198" lon="7.15194">
        <ele>930.6</ele>
      </trkpt>
      <trkpt lat="48.09163" lon="7.15199">
        <ele>936.6</ele>
      </trkpt>
      <trkpt lat="48.09095" lon="7.15201">
        <ele>938.2</ele>
      </trkpt>
      <trkpt lat="48.09057" lon="7.15215">
        <ele>941.2</ele>
      </trkpt>
      <trkpt lat="48.09022" lon="7.15234">
        <ele>941.8</ele>
      </trkpt>
      <trkpt lat="48.08992" lon="7.15254">
        <ele>939.9</ele>
      </trkpt>
      <trkpt lat="48.08969" lon="7.15275">
        <ele>936.6</ele>
      </trkpt>
      <trkpt lat="48.0894" lon="7.15296">
        <ele>935.7</ele>
      </trkpt>
      <trkpt lat="48.08907" lon="7.1531">
        <ele>937.9</ele>
      </trkpt>
      <trkpt lat="48.08884" lon="7.15329">
        <ele>938.2</ele>
      </trkpt>
      <trkpt lat="48.08864" lon="7.15338">
        <ele>930.5</ele>
      </trkpt>
      <trkpt lat="48.08834" lon="7.15345">
        <ele>934.7</ele>
      </trkpt>
      <trkpt lat="48.08816" lon="7.15354">
        <ele>936.1</ele>
      </trkpt>
      <trkpt lat="48.08763" lon="7.15391">
        <ele>935.1</ele>
      </trkpt>
      <trkpt lat="48.0873" lon="7.15429">
        <ele>933.9</ele>
      </trkpt>
      <trkpt lat="48.08705" lon="7.15444">
        <ele>933.7</ele>
      </trkpt>
      <trkpt lat="48.08689" lon="7.15448">
        <ele>934.3</ele>
      </trkpt>
      <trkpt lat="48.08675" lon="7.1545">
        <ele>934.9</ele>
      </trkpt>
      <trkpt lat="48.08665" lon="7.15456">
        <ele>938.3</ele>
      </trkpt>
      <trkpt lat="48.08633" lon="7.15476">
        <ele>937.7</ele>
      </trkpt>
      <trkpt lat="48.08616" lon="7.15484">
        <ele>937.8</ele>
      </trkpt>
      <trkpt lat="48.08597" lon="7.15488">
        <ele>937.7</ele>
      </trkpt>
      <trkpt lat="48.08576" lon="7.15489">
        <ele>937.6</ele>
      </trkpt>
      <trkpt lat="48.08515" lon="7.15472">
        <ele>937.6</ele>
      </trkpt>
      <trkpt lat="48.08483" lon="7.15466">
        <ele>938.8</ele>
        <extensions>
          <visugpx:TrkExtension xmlns:visugpx="https://www.visugpx.com/editgpx/">
            <visugpx:node>257</visugpx:node>
            </visugpx:TrkExtension>
        </extensions>
      </trkpt>
      <trkpt lat="48.08455" lon="7.15461">
        <ele>939.7</ele>
      </trkpt>
      <trkpt lat="48.08436" lon="7.15454">
        <ele>940.6</ele>
      </trkpt>
      <trkpt lat="48.08403" lon="7.15432">
        <ele>946.2</ele>
      </trkpt>
      <trkpt lat="48.08385" lon="7.15419">
        <ele>946.9</ele>
      </trkpt>
      <trkpt lat="48.08367" lon="7.15401">
        <ele>950.6</ele>
      </trkpt>
      <trkpt lat="48.08359" lon="7.15398">
        <ele>951</ele>
      </trkpt>
      <trkpt lat="48.0832" lon="7.1539">
        <ele>956.7</ele>
      </trkpt>
      <trkpt lat="48.08292" lon="7.15392">
        <ele>958.3</ele>
      </trkpt>
      <trkpt lat="48.08278" lon="7.15389">
        <ele>959.1</ele>
      </trkpt>
      <trkpt lat="48.08285" lon="7.1538">
        <ele>958.8</ele>
      </trkpt>
      <trkpt lat="48.08291" lon="7.15372">
        <ele>958.6</ele>
      </trkpt>
      <trkpt lat="48.08295" lon="7.15361">
        <ele>958.5</ele>
      </trkpt>
      <trkpt lat="48.08297" lon="7.1535">
        <ele>958.4</ele>
      </trkpt>
      <trkpt lat="48.08297" lon="7.15339">
        <ele>958.4</ele>
      </trkpt>
      <trkpt lat="48.08294" lon="7.15328">
        <ele>959.3</ele>
      </trkpt>
      <trkpt lat="48.08291" lon="7.15319">
        <ele>959.5</ele>
      </trkpt>
      <trkpt lat="48.08234" lon="7.15211">
        <ele>969.5</ele>
      </trkpt>
      <trkpt lat="48.0823" lon="7.15199">
        <ele>969.8</ele>
      </trkpt>
      <trkpt lat="48.08229" lon="7.15184">
        <ele>969.8</ele>
      </trkpt>
      <trkpt lat="48.0823" lon="7.15149">
        <ele>971.2</ele>
      </trkpt>
      <trkpt lat="48.08232" lon="7.1513">
        <ele>971.9</ele>
      </trkpt>
      <trkpt lat="48.08223" lon="7.15114">
        <ele>972.5</ele>
      </trkpt>
      <trkpt lat="48.08201" lon="7.15082">
        <ele>976.6</ele>
      </trkpt>
      <trkpt lat="48.08173" lon="7.1508">
        <ele>976.4</ele>
      </trkpt>
      <trkpt lat="48.08138" lon="7.15053">
        <ele>982</ele>
      </trkpt>
      <trkpt lat="48.08095" lon="7.15048">
        <ele>983.4</ele>
      </trkpt>
      <trkpt lat="48.08087" lon="7.15047">
        <ele>983.6</ele>
        <extensions>
          <visugpx:TrkExtension xmlns:visugpx="https://www.visugpx.com/editgpx/">
            <visugpx:node>258</visugpx:node>
            </visugpx:TrkExtension>
        </extensions>
      </trkpt>
      <trkpt lat="48.08041" lon="7.15045">
        <ele>987.2</ele>
      </trkpt>
      <trkpt lat="48.08015" lon="7.15032">
        <ele>988.1</ele>
      </trkpt>
      <trkpt lat="48.08" lon="7.15028">
        <ele>989</ele>
      </trkpt>
      <trkpt lat="48.07954" lon="7.15051">
        <ele>987.7</ele>
      </trkpt>
      <trkpt lat="48.0794" lon="7.15049">
        <ele>987.5</ele>
      </trkpt>
      <trkpt lat="48.07932" lon="7.15036">
        <ele>988</ele>
      </trkpt>
      <trkpt lat="48.07929" lon="7.1502">
        <ele>988.6</ele>
      </trkpt>
      <trkpt lat="48.07943" lon="7.14984">
        <ele>991.9</ele>
      </trkpt>
      <trkpt lat="48.0795" lon="7.14965">
        <ele>992.5</ele>
      </trkpt>
      <trkpt lat="48.07953" lon="7.14943">
        <ele>993.1</ele>
      </trkpt>
      <trkpt lat="48.07955" lon="7.14914">
        <ele>996.3</ele>
      </trkpt>
      <trkpt lat="48.0795" lon="7.14817">
        <ele>999.3</ele>
      </trkpt>
      <trkpt lat="48.07954" lon="7.14798">
        <ele>999.1</ele>
      </trkpt>
      <trkpt lat="48.07961" lon="7.14777">
        <ele>998.9</ele>
      </trkpt>
      <trkpt lat="48.07964" lon="7.14723">
        <ele>996</ele>
      </trkpt>
      <trkpt lat="48.07961" lon="7.14697">
        <ele>995.1</ele>
      </trkpt>
      <trkpt lat="48.07951" lon="7.14642">
        <ele>990.8</ele>
      </trkpt>
      <trkpt lat="48.07944" lon="7.14582">
        <ele>987</ele>
      </trkpt>
      <trkpt lat="48.07944" lon="7.14552">
        <ele>985.6</ele>
      </trkpt>
      <trkpt lat="48.0795" lon="7.14495">
        <ele>981.2</ele>
      </trkpt>
      <trkpt lat="48.07949" lon="7.14464">
        <ele>980.3</ele>
      </trkpt>
      <trkpt lat="48.07927" lon="7.14408">
        <ele>979.4</ele>
      </trkpt>
      <trkpt lat="48.07923" lon="7.14397">
        <ele>979.6</ele>
      </trkpt>
      <trkpt lat="48.07918" lon="7.14394">
        <ele>979.7</ele>
      </trkpt>
      <trkpt lat="48.07903" lon="7.14361">
        <ele>978.6</ele>
      </trkpt>
      <trkpt lat="48.07898" lon="7.14346">
        <ele>978.9</ele>
      </trkpt>
      <trkpt lat="48.07893" lon="7.14335">
        <ele>978.7</ele>
      </trkpt>
      <trkpt lat="48.0789" lon="7.14327">
        <ele>979.5</ele>
      </trkpt>
      <trkpt lat="48.07899" lon="7.14323">
        <ele>980.2</ele>
      </trkpt>
      <trkpt lat="48.07905" lon="7.14318">
        <ele>980.6</ele>
      </trkpt>
      <trkpt lat="48.07915" lon="7.14288">
        <ele>982.2</ele>
      </trkpt>
      <trkpt lat="48.07916" lon="7.14283">
        <ele>982.8</ele>
      </trkpt>
      <trkpt lat="48.07927" lon="7.14227">
        <ele>995.9</ele>
      </trkpt>
      <trkpt lat="48.07935" lon="7.14195">
        <ele>998.5</ele>
      </trkpt>
      <trkpt lat="48.07936" lon="7.14171">
        <ele>999.7</ele>
      </trkpt>
      <trkpt lat="48.07905" lon="7.14118">
        <ele>998.9</ele>
      </trkpt>
      <trkpt lat="48.07872" lon="7.14072">
        <ele>1004.6</ele>
      </trkpt>
      <trkpt lat="48.07843" lon="7.14026">
        <ele>1004.6</ele>
      </trkpt>
      <trkpt lat="48.07828" lon="7.13982">
        <ele>996.4</ele>
      </trkpt>
      <trkpt lat="48.07822" lon="7.13941">
        <ele>996.8</ele>
      </trkpt>
      <trkpt lat="48.07822" lon="7.13935">
        <ele>998</ele>
        <extensions>
          <visugpx:TrkExtension xmlns:visugpx="https://www.visugpx.com/editgpx/">
            <visugpx:node>259</visugpx:node>
            </visugpx:TrkExtension>
        </extensions>
      </trkpt>
      <trkpt lat="48.07822" lon="7.13897">
        <ele>998.1</ele>
      </trkpt>
      <trkpt lat="48.07833" lon="7.13833">
        <ele>1004.7</ele>
      </trkpt>
      <trkpt lat="48.07839" lon="7.13726">
        <ele>1012.9</ele>
      </trkpt>
      <trkpt lat="48.07833" lon="7.13675">
        <ele>1001.5</ele>
      </trkpt>
      <trkpt lat="48.07821" lon="7.13615">
        <ele>997.3</ele>
      </trkpt>
      <trkpt lat="48.078" lon="7.13563">
        <ele>995.3</ele>
      </trkpt>
      <trkpt lat="48.07794" lon="7.13515">
        <ele>994</ele>
      </trkpt>
      <trkpt lat="48.07779" lon="7.13404">
        <ele>981</ele>
      </trkpt>
      <trkpt lat="48.07777" lon="7.13383">
        <ele>980.3</ele>
      </trkpt>
      <trkpt lat="48.07769" lon="7.1337">
        <ele>979.4</ele>
      </trkpt>
      <trkpt lat="48.07765" lon="7.13365">
        <ele>978.9</ele>
      </trkpt>
      <trkpt lat="48.07758" lon="7.13356">
        <ele>977.9</ele>
      </trkpt>
      <trkpt lat="48.07736" lon="7.13334">
        <ele>974.6</ele>
      </trkpt>
      <trkpt lat="48.07695" lon="7.13314">
        <ele>973.2</ele>
      </trkpt>
      <trkpt lat="48.07691" lon="7.133">
        <ele>973.2</ele>
      </trkpt>
      <trkpt lat="48.07681" lon="7.133">
        <ele>973.4</ele>
      </trkpt>
      <trkpt lat="48.07661" lon="7.13259">
        <ele>976.6</ele>
      </trkpt>
      <trkpt lat="48.07614" lon="7.1322">
        <ele>979.1</ele>
      </trkpt>
      <trkpt lat="48.07597" lon="7.1322">
        <ele>979.8</ele>
      </trkpt>
      <trkpt lat="48.07567" lon="7.13234">
        <ele>983</ele>
      </trkpt>
      <trkpt lat="48.07544" lon="7.13227">
        <ele>983.6</ele>
      </trkpt>
      <trkpt lat="48.07537" lon="7.13212">
        <ele>983.8</ele>
      </trkpt>
      <trkpt lat="48.07526" lon="7.13212">
        <ele>983.9</ele>
      </trkpt>
      <trkpt lat="48.07512" lon="7.13199">
        <ele>984.3</ele>
      </trkpt>
      <trkpt lat="48.07488" lon="7.13189">
        <ele>981.8</ele>
      </trkpt>
      <trkpt lat="48.07475" lon="7.13179">
        <ele>981.4</ele>
      </trkpt>
      <trkpt lat="48.07465" lon="7.13171">
        <ele>980.8</ele>
      </trkpt>
      <trkpt lat="48.07453" lon="7.13166">
        <ele>981.2</ele>
      </trkpt>
      <trkpt lat="48.07422" lon="7.13145">
        <ele>980</ele>
      </trkpt>
      <trkpt lat="48.074" lon="7.13136">
        <ele>970.9</ele>
        <extensions>
          <visugpx:TrkExtension xmlns:visugpx="https://www.visugpx.com/editgpx/">
            <visugpx:node>260</visugpx:node>
            </visugpx:TrkExtension>
        </extensions>
      </trkpt>
      <trkpt lat="48.0738" lon="7.13128">
        <ele>968.4</ele>
      </trkpt>
      <trkpt lat="48.07334" lon="7.13119">
        <ele>964.2</ele>
      </trkpt>
      <trkpt lat="48.07294" lon="7.13115">
        <ele>951.8</ele>
      </trkpt>
      <trkpt lat="48.0723" lon="7.13101">
        <ele>940.7</ele>
      </trkpt>
      <trkpt lat="48.07194" lon="7.13106">
        <ele>937.6</ele>
      </trkpt>
      <trkpt lat="48.07176" lon="7.13107">
        <ele>936.5</ele>
      </trkpt>
      <trkpt lat="48.07159" lon="7.13097">
        <ele>932.8</ele>
      </trkpt>
      <trkpt lat="48.07147" lon="7.13104">
        <ele>932.2</ele>
      </trkpt>
      <trkpt lat="48.07124" lon="7.13098">
        <ele>931.8</ele>
      </trkpt>
      <trkpt lat="48.07103" lon="7.13099">
        <ele>931.4</ele>
      </trkpt>
      <trkpt lat="48.07083" lon="7.13089">
        <ele>930.5</ele>
      </trkpt>
      <trkpt lat="48.07016" lon="7.13094">
        <ele>928.1</ele>
      </trkpt>
      <trkpt lat="48.07003" lon="7.131">
        <ele>928</ele>
      </trkpt>
      <trkpt lat="48.06979" lon="7.13104">
        <ele>922.6</ele>
      </trkpt>
      <trkpt lat="48.06958" lon="7.13111">
        <ele>920.7</ele>
      </trkpt>
      <trkpt lat="48.06941" lon="7.13111">
        <ele>919.6</ele>
      </trkpt>
      <trkpt lat="48.06912" lon="7.13097">
        <ele>912</ele>
      </trkpt>
      <trkpt lat="48.06904" lon="7.13096">
        <ele>910.8</ele>
      </trkpt>
      <trkpt lat="48.06882" lon="7.13081">
        <ele>904.7</ele>
      </trkpt>
      <trkpt lat="48.06872" lon="7.13089">
        <ele>904.3</ele>
      </trkpt>
      <trkpt lat="48.06866" lon="7.13108">
        <ele>903.1</ele>
      </trkpt>
      <trkpt lat="48.06863" lon="7.13113">
        <ele>902.7</ele>
      </trkpt>
      <trkpt lat="48.06861" lon="7.13128">
        <ele>902.2</ele>
      </trkpt>
      <trkpt lat="48.06862" lon="7.13135">
        <ele>902</ele>
      </trkpt>
      <trkpt lat="48.06861" lon="7.13146">
        <ele>901.3</ele>
      </trkpt>
      <trkpt lat="48.06851" lon="7.1317">
        <ele>893.3</ele>
      </trkpt>
      <trkpt lat="48.06842" lon="7.13204">
        <ele>891.1</ele>
      </trkpt>
      <trkpt lat="48.06834" lon="7.13243">
        <ele>882.4</ele>
      </trkpt>
      <trkpt lat="48.0683" lon="7.13253">
        <ele>876.8</ele>
      </trkpt>
      <trkpt lat="48.06819" lon="7.13266">
        <ele>871.3</ele>
      </trkpt>
      <trkpt lat="48.06815" lon="7.13274">
        <ele>869.6</ele>
        <extensions>
          <visugpx:TrkExtension xmlns:visugpx="https://www.visugpx.com/editgpx/">
            <visugpx:node>261</visugpx:node>
            </visugpx:TrkExtension>
        </extensions>
      </trkpt>
      <trkpt lat="48.06812" lon="7.13283">
        <ele>868.2</ele>
      </trkpt>
      <trkpt lat="48.06795" lon="7.13303">
        <ele>865.6</ele>
      </trkpt>
      <trkpt lat="48.06783" lon="7.13307">
        <ele>864.5</ele>
      </trkpt>
      <trkpt lat="48.06771" lon="7.13316">
        <ele>862.8</ele>
      </trkpt>
      <trkpt lat="48.06764" lon="7.13316">
        <ele>862.1</ele>
      </trkpt>
      <trkpt lat="48.06759" lon="7.1331">
        <ele>862.4</ele>
      </trkpt>
      <trkpt lat="48.06751" lon="7.13312">
        <ele>861.8</ele>
      </trkpt>
      <trkpt lat="48.06745" lon="7.13319">
        <ele>853.3</ele>
      </trkpt>
      <trkpt lat="48.06737" lon="7.13319">
        <ele>852.3</ele>
      </trkpt>
      <trkpt lat="48.0673" lon="7.13318">
        <ele>851.2</ele>
      </trkpt>
      <trkpt lat="48.06718" lon="7.13322">
        <ele>849.3</ele>
      </trkpt>
      <trkpt lat="48.06723" lon="7.13336">
        <ele>846.9</ele>
      </trkpt>
      <trkpt lat="48.06726" lon="7.13345">
        <ele>847.1</ele>
      </trkpt>
      <trkpt lat="48.06729" lon="7.13369">
        <ele>845.2</ele>
      </trkpt>
      <trkpt lat="48.06736" lon="7.13385">
        <ele>845</ele>
      </trkpt>
      <trkpt lat="48.06723" lon="7.13432">
        <ele>836.3</ele>
      </trkpt>
      <trkpt lat="48.0672" lon="7.13454">
        <ele>833.5</ele>
      </trkpt>
      <trkpt lat="48.06719" lon="7.1346">
        <ele>832.8</ele>
      </trkpt>
      <trkpt lat="48.06709" lon="7.13494">
        <ele>829.7</ele>
      </trkpt>
      <trkpt lat="48.067" lon="7.13518">
        <ele>824.6</ele>
      </trkpt>
      <trkpt lat="48.06696" lon="7.13528">
        <ele>824.5</ele>
      </trkpt>
      <trkpt lat="48.06692" lon="7.13531">
        <ele>824.3</ele>
      </trkpt>
      <trkpt lat="48.06683" lon="7.13535">
        <ele>824</ele>
      </trkpt>
      <trkpt lat="48.06656" lon="7.13541">
        <ele>811.1</ele>
      </trkpt>
      <trkpt lat="48.06626" lon="7.13565">
        <ele>807.8</ele>
      </trkpt>
      <trkpt lat="48.06611" lon="7.136">
        <ele>809.8</ele>
      </trkpt>
      <trkpt lat="48.06594" lon="7.13651">
        <ele>808.3</ele>
      </trkpt>
      <trkpt lat="48.06594" lon="7.13655">
        <ele>807.8</ele>
        <extensions>
          <visugpx:TrkExtension xmlns:visugpx="https://www.visugpx.com/editgpx/">
            <visugpx:node>262</visugpx:node>
            </visugpx:TrkExtension>
        </extensions>
      </trkpt>
      <trkpt lat="48.06593" lon="7.13667">
        <ele>805.6</ele>
      </trkpt>
      <trkpt lat="48.06596" lon="7.13695">
        <ele>807.6</ele>
      </trkpt>
      <trkpt lat="48.06617" lon="7.13766">
        <ele>803.9</ele>
      </trkpt>
      <trkpt lat="48.06624" lon="7.13786">
        <ele>804.5</ele>
      </trkpt>
      <trkpt lat="48.06613" lon="7.13788">
        <ele>804.1</ele>
      </trkpt>
      <trkpt lat="48.06583" lon="7.13768">
        <ele>796.2</ele>
      </trkpt>
      <trkpt lat="48.06553" lon="7.1376">
        <ele>793.4</ele>
      </trkpt>
      <trkpt lat="48.06535" lon="7.13759">
        <ele>790.2</ele>
      </trkpt>
      <trkpt lat="48.06488" lon="7.13764">
        <ele>775.6</ele>
        <extensions>
          <visugpx:TrkExtension xmlns:visugpx="https://www.visugpx.com/editgpx/">
            <visugpx:node>263</visugpx:node>
            </visugpx:TrkExtension>
        </extensions>
      </trkpt>
      <trkpt lat="48.06479" lon="7.13765">
        <ele>775</ele>
      </trkpt>
      <trkpt lat="48.06446" lon="7.1377">
        <ele>770.4</ele>
      </trkpt>
      <trkpt lat="48.06421" lon="7.13772">
        <ele>766.1</ele>
      </trkpt>
      <trkpt lat="48.06418" lon="7.13769">
        <ele>764.7</ele>
      </trkpt>
      <trkpt lat="48.06403" lon="7.13776">
        <ele>756.9</ele>
      </trkpt>
      <trkpt lat="48.06388" lon="7.13788">
        <ele>757.9</ele>
      </trkpt>
      <trkpt lat="48.06375" lon="7.13792">
        <ele>757.3</ele>
      </trkpt>
      <trkpt lat="48.06366" lon="7.13795">
        <ele>756.9</ele>
      </trkpt>
      <trkpt lat="48.06345" lon="7.13793">
        <ele>755.1</ele>
      </trkpt>
      <trkpt lat="48.06318" lon="7.13783">
        <ele>743.2</ele>
      </trkpt>
      <trkpt lat="48.06304" lon="7.13782">
        <ele>742.4</ele>
      </trkpt>
      <trkpt lat="48.06253" lon="7.13766">
        <ele>735.2</ele>
      </trkpt>
      <trkpt lat="48.06251" lon="7.13762">
        <ele>734</ele>
      </trkpt>
      <trkpt lat="48.06231" lon="7.13768">
        <ele>729.2</ele>
      </trkpt>
      <trkpt lat="48.06227" lon="7.13765">
        <ele>728.9</ele>
      </trkpt>
      <trkpt lat="48.06225" lon="7.13765">
        <ele>728.8</ele>
        <extensions>
          <visugpx:TrkExtension xmlns:visugpx="https://www.visugpx.com/editgpx/">
            <visugpx:node>264</visugpx:node>
            </visugpx:TrkExtension>
        </extensions>
      </trkpt>
      <trkpt lat="48.06222" lon="7.13764">
        <ele>728.6</ele>
      </trkpt>
      <trkpt lat="48.06203" lon="7.13769">
        <ele>727.4</ele>
      </trkpt>
      <trkpt lat="48.06194" lon="7.13767">
        <ele>726.5</ele>
      </trkpt>
      <trkpt lat="48.06179" lon="7.13751">
        <ele>723.4</ele>
      </trkpt>
      <trkpt lat="48.06157" lon="7.13734">
        <ele>714.3</ele>
      </trkpt>
      <trkpt lat="48.06139" lon="7.13725">
        <ele>711.3</ele>
      </trkpt>
      <trkpt lat="48.06132" lon="7.13718">
        <ele>710.3</ele>
      </trkpt>
      <trkpt lat="48.06123" lon="7.13703">
        <ele>709.2</ele>
      </trkpt>
      <trkpt lat="48.06106" lon="7.13666">
        <ele>702.4</ele>
      </trkpt>
      <trkpt lat="48.06099" lon="7.13651">
        <ele>701.9</ele>
      </trkpt>
      <trkpt lat="48.06094" lon="7.13641">
        <ele>701.2</ele>
      </trkpt>
      <trkpt lat="48.06078" lon="7.13636">
        <ele>697.3</ele>
      </trkpt>
      <trkpt lat="48.06071" lon="7.13637">
        <ele>697</ele>
      </trkpt>
      <trkpt lat="48.06051" lon="7.13647">
        <ele>695.6</ele>
      </trkpt>
      <trkpt lat="48.06046" lon="7.13654">
        <ele>695.1</ele>
      </trkpt>
      <trkpt lat="48.06037" lon="7.13651">
        <ele>693.8</ele>
        <extensions>
          <visugpx:TrkExtension xmlns:visugpx="https://www.visugpx.com/editgpx/">
            <visugpx:node>265</visugpx:node>
            </visugpx:TrkExtension>
        </extensions>
      </trkpt>
      <trkpt lat="48.0603" lon="7.13648">
        <ele>692.9</ele>
      </trkpt>
      <trkpt lat="48.06022" lon="7.13655">
        <ele>691.5</ele>
      </trkpt>
      <trkpt lat="48.06012" lon="7.13647">
        <ele>690.8</ele>
      </trkpt>
      <trkpt lat="48.06005" lon="7.13637">
        <ele>691.4</ele>
      </trkpt>
      <trkpt lat="48.06001" lon="7.13625">
        <ele>692.1</ele>
      </trkpt>
      <trkpt lat="48.05998" lon="7.13613">
        <ele>679.4</ele>
      </trkpt>
      <trkpt lat="48.05997" lon="7.13581">
        <ele>689.6</ele>
      </trkpt>
      <trkpt lat="48.05987" lon="7.13578">
        <ele>684.8</ele>
      </trkpt>
      <trkpt lat="48.05984" lon="7.1358">
        <ele>683.9</ele>
      </trkpt>
      <trkpt lat="48.05981" lon="7.13589">
        <ele>680.7</ele>
      </trkpt>
      <trkpt lat="48.0598" lon="7.13602">
        <ele>678.5</ele>
      </trkpt>
      <trkpt lat="48.05982" lon="7.13616">
        <ele>676.9</ele>
      </trkpt>
      <trkpt lat="48.06007" lon="7.13702">
        <ele>688.6</ele>
      </trkpt>
      <trkpt lat="48.06007" lon="7.13712">
        <ele>687.8</ele>
      </trkpt>
      <trkpt lat="48.0601" lon="7.1373">
        <ele>685.3</ele>
      </trkpt>
      <trkpt lat="48.06012" lon="7.13773">
        <ele>681.7</ele>
      </trkpt>
      <trkpt lat="48.06011" lon="7.13788">
        <ele>681.7</ele>
      </trkpt>
      <trkpt lat="48.06006" lon="7.13794">
        <ele>680.9</ele>
      </trkpt>
      <trkpt lat="48.06012" lon="7.13809">
        <ele>679.5</ele>
      </trkpt>
      <trkpt lat="48.06008" lon="7.13812">
        <ele>678.2</ele>
      </trkpt>
      <trkpt lat="48.05998" lon="7.13802">
        <ele>659.6</ele>
      </trkpt>
      <trkpt lat="48.0599" lon="7.13799">
        <ele>658.8</ele>
      </trkpt>
      <trkpt lat="48.05985" lon="7.13796">
        <ele>658.1</ele>
      </trkpt>
      <trkpt lat="48.0598" lon="7.13787">
        <ele>657.9</ele>
      </trkpt>
      <trkpt lat="48.05978" lon="7.13775">
        <ele>658.8</ele>
      </trkpt>
      <trkpt lat="48.05978" lon="7.13756">
        <ele>661.5</ele>
      </trkpt>
      <trkpt lat="48.05975" lon="7.13744">
        <ele>665.3</ele>
      </trkpt>
      <trkpt lat="48.05968" lon="7.1373">
        <ele>663.3</ele>
      </trkpt>
      <trkpt lat="48.05955" lon="7.13712">
        <ele>661.1</ele>
      </trkpt>
      <trkpt lat="48.05943" lon="7.13703">
        <ele>659.1</ele>
      </trkpt>
      <trkpt lat="48.05908" lon="7.13661">
        <ele>644.6</ele>
        <extensions>
          <visugpx:TrkExtension xmlns:visugpx="https://www.visugpx.com/editgpx/">
            <visugpx:node>266</visugpx:node>
            </visugpx:TrkExtension>
        </extensions>
      </trkpt>
      <trkpt lat="48.05905" lon="7.13658">
        <ele>643.3</ele>
      </trkpt>
      <trkpt lat="48.05898" lon="7.13644">
        <ele>640.6</ele>
      </trkpt>
      <trkpt lat="48.05884" lon="7.13613">
        <ele>639.6</ele>
      </trkpt>
      <trkpt lat="48.05873" lon="7.13593">
        <ele>638.2</ele>
      </trkpt>
      <trkpt lat="48.05849" lon="7.13563">
        <ele>641.2</ele>
      </trkpt>
      <trkpt lat="48.05819" lon="7.1353">
        <ele>622.6</ele>
      </trkpt>
      <trkpt lat="48.05781" lon="7.13495">
        <ele>623.3</ele>
      </trkpt>
      <trkpt lat="48.05712" lon="7.13444">
        <ele>602.6</ele>
      </trkpt>
      <trkpt lat="48.05696" lon="7.13437">
        <ele>600.6</ele>
      </trkpt>
      <trkpt lat="48.05665" lon="7.13436">
        <ele>585</ele>
      </trkpt>
      <trkpt lat="48.05658" lon="7.13433">
        <ele>585.1</ele>
      </trkpt>
      <trkpt lat="48.0565" lon="7.13429">
        <ele>584</ele>
      </trkpt>
      <trkpt lat="48.05644" lon="7.13421">
        <ele>583.1</ele>
      </trkpt>
      <trkpt lat="48.05605" lon="7.13403">
        <ele>584.2</ele>
      </trkpt>
      <trkpt lat="48.05585" lon="7.1339">
        <ele>583.5</ele>
      </trkpt>
      <trkpt lat="48.0557" lon="7.13375">
        <ele>568.2</ele>
      </trkpt>
      <trkpt lat="48.05553" lon="7.13342">
        <ele>569.5</ele>
      </trkpt>
      <trkpt lat="48.05547" lon="7.13334">
        <ele>568.4</ele>
      </trkpt>
      <trkpt lat="48.05544" lon="7.13332">
        <ele>575.3</ele>
      </trkpt>
      <trkpt lat="48.0554" lon="7.13326">
        <ele>574.6</ele>
      </trkpt>
      <trkpt lat="48.05525" lon="7.13312">
        <ele>572.3</ele>
      </trkpt>
      <trkpt lat="48.05515" lon="7.13305">
        <ele>571.7</ele>
      </trkpt>
      <trkpt lat="48.05507" lon="7.13303">
        <ele>571.1</ele>
      </trkpt>
      <trkpt lat="48.05504" lon="7.13309">
        <ele>569.6</ele>
      </trkpt>
      <trkpt lat="48.05504" lon="7.13313">
        <ele>568.6</ele>
      </trkpt>
      <trkpt lat="48.05513" lon="7.13319">
        <ele>568.6</ele>
      </trkpt>
      <trkpt lat="48.0551" lon="7.13322">
        <ele>567.1</ele>
      </trkpt>
      <trkpt lat="48.05479" lon="7.13335">
        <ele>548.1</ele>
      </trkpt>
      <trkpt lat="48.0547" lon="7.13338">
        <ele>545.4</ele>
      </trkpt>
      <trkpt lat="48.05461" lon="7.13337">
        <ele>543.5</ele>
      </trkpt>
      <trkpt lat="48.05427" lon="7.13323">
        <ele>546.3</ele>
      </trkpt>
      <trkpt lat="48.05397" lon="7.13303">
        <ele>538.7</ele>
      </trkpt>
      <trkpt lat="48.05384" lon="7.13299">
        <ele>538</ele>
      </trkpt>
      <trkpt lat="48.0533" lon="7.13293">
        <ele>522.7</ele>
      </trkpt>
      <trkpt lat="48.05321" lon="7.13288">
        <ele>522.7</ele>
      </trkpt>
      <trkpt lat="48.05293" lon="7.13283">
        <ele>519.7</ele>
      </trkpt>
      <trkpt lat="48.0527" lon="7.13271">
        <ele>517.5</ele>
      </trkpt>
      <trkpt lat="48.05262" lon="7.13259">
        <ele>516.8</ele>
      </trkpt>
      <trkpt lat="48.05252" lon="7.13248">
        <ele>516.5</ele>
      </trkpt>
      <trkpt lat="48.05217" lon="7.13222">
        <ele>513.1</ele>
      </trkpt>
      <trkpt lat="48.05212" lon="7.13222">
        <ele>512.8</ele>
      </trkpt>
      <trkpt lat="48.05207" lon="7.13224">
        <ele>512.3</ele>
      </trkpt>
      <trkpt lat="48.05181" lon="7.13243">
        <ele>507.4</ele>
      </trkpt>
      <trkpt lat="48.0517" lon="7.13247">
        <ele>503.9</ele>
      </trkpt>
      <trkpt lat="48.05155" lon="7.13247">
        <ele>502.8</ele>
      </trkpt>
      <trkpt lat="48.05142" lon="7.13243">
        <ele>502.9</ele>
      </trkpt>
      <trkpt lat="48.0511" lon="7.13233">
        <ele>501</ele>
      </trkpt>
      <trkpt lat="48.05098" lon="7.13226">
        <ele>500.7</ele>
        <extensions>
          <visugpx:TrkExtension xmlns:visugpx="https://www.visugpx.com/editgpx/">
            <visugpx:node>267</visugpx:node>
            </visugpx:TrkExtension>
        </extensions>
      </trkpt>
      <trkpt lat="48.05097" lon="7.13225">
        <ele>500.8</ele>
      </trkpt>
      <trkpt lat="48.05084" lon="7.13223">
        <ele>500.5</ele>
      </trkpt>
      <trkpt lat="48.05066" lon="7.13225">
        <ele>497.2</ele>
      </trkpt>
      <trkpt lat="48.05056" lon="7.13223">
        <ele>497.6</ele>
      </trkpt>
      <trkpt lat="48.04992" lon="7.13248">
        <ele>487.8</ele>
      </trkpt>
      <trkpt lat="48.04983" lon="7.13249">
        <ele>488.8</ele>
      </trkpt>
      <trkpt lat="48.04974" lon="7.13245">
        <ele>489.4</ele>
      </trkpt>
      <trkpt lat="48.04958" lon="7.13245">
        <ele>488.9</ele>
      </trkpt>
      <trkpt lat="48.04949" lon="7.13242">
        <ele>488.2</ele>
      </trkpt>
      <trkpt lat="48.04944" lon="7.13244">
        <ele>487.3</ele>
      </trkpt>
      <trkpt lat="48.04937" lon="7.13251">
        <ele>474.5</ele>
      </trkpt>
      <trkpt lat="48.04931" lon="7.13255">
        <ele>474.8</ele>
      </trkpt>
      <trkpt lat="48.04923" lon="7.13256">
        <ele>475.7</ele>
      </trkpt>
      <trkpt lat="48.04885" lon="7.13247">
        <ele>478.8</ele>
      </trkpt>
      <trkpt lat="48.04852" lon="7.13249">
        <ele>474.1</ele>
      </trkpt>
      <trkpt lat="48.04822" lon="7.13255">
        <ele>460.2</ele>
      </trkpt>
      <trkpt lat="48.04815" lon="7.13265">
        <ele>456.2</ele>
      </trkpt>
      <trkpt lat="48.04793" lon="7.13284">
        <ele>450.5</ele>
      </trkpt>
      <trkpt lat="48.04792" lon="7.13286">
        <ele>450.2</ele>
      </trkpt>
      <trkpt lat="48.04791" lon="7.13301">
        <ele>448.4</ele>
      </trkpt>
      <trkpt lat="48.04786" lon="7.13297">
        <ele>448.4</ele>
      </trkpt>
      <trkpt lat="48.04781" lon="7.13298">
        <ele>447.8</ele>
      </trkpt>
      <trkpt lat="48.04772" lon="7.13296">
        <ele>447.2</ele>
      </trkpt>
      <trkpt lat="48.04768" lon="7.13295">
        <ele>447.1</ele>
      </trkpt>
      <trkpt lat="48.04757" lon="7.13304">
        <ele>444.6</ele>
      </trkpt>
      <trkpt lat="48.04742" lon="7.13289">
        <ele>438</ele>
      </trkpt>
      <trkpt lat="48.04738" lon="7.13297">
        <ele>436.6</ele>
      </trkpt>
      <trkpt lat="48.04715" lon="7.13287">
        <ele>436.3</ele>
      </trkpt>
      <trkpt lat="48.04711" lon="7.1329">
        <ele>435.6</ele>
      </trkpt>
      <trkpt lat="48.04705" lon="7.13267">
        <ele>437.1</ele>
      </trkpt>
      <trkpt lat="48.04677" lon="7.13237">
        <ele>442.9</ele>
      </trkpt>
      <trkpt lat="48.04662" lon="7.13231">
        <ele>433.6</ele>
      </trkpt>
      <trkpt lat="48.04627" lon="7.13231">
        <ele>429.7</ele>
      </trkpt>
      <trkpt lat="48.04604" lon="7.13237">
        <ele>425.6</ele>
      </trkpt>
      <trkpt lat="48.04599" lon="7.1324">
        <ele>424.3</ele>
        <extensions>
          <visugpx:TrkExtension xmlns:visugpx="https://www.visugpx.com/editgpx/">
            <visugpx:node>268</visugpx:node>
            </visugpx:TrkExtension>
        </extensions>
      </trkpt>
      <trkpt lat="48.04573" lon="7.13259">
        <ele>412.6</ele>
      </trkpt>
      <trkpt lat="48.04561" lon="7.13263">
        <ele>409.5</ele>
      </trkpt>
      <trkpt lat="48.04551" lon="7.13269">
        <ele>407.4</ele>
      </trkpt>
      <trkpt lat="48.04527" lon="7.1329">
        <ele>404.1</ele>
      </trkpt>
      <trkpt lat="48.04521" lon="7.13312">
        <ele>402.8</ele>
      </trkpt>
      <trkpt lat="48.04516" lon="7.13325">
        <ele>401.3</ele>
      </trkpt>
      <trkpt lat="48.04495" lon="7.13335">
        <ele>396.6</ele>
      </trkpt>
      <trkpt lat="48.04478" lon="7.13333">
        <ele>394.5</ele>
      </trkpt>
      <trkpt lat="48.04476" lon="7.13343">
        <ele>395.5</ele>
      </trkpt>
      <trkpt lat="48.04458" lon="7.13338">
        <ele>394.3</ele>
      </trkpt>
      <trkpt lat="48.0444" lon="7.13331">
        <ele>391.6</ele>
      </trkpt>
      <trkpt lat="48.04418" lon="7.13319">
        <ele>390.6</ele>
      </trkpt>
      <trkpt lat="48.04409" lon="7.13314">
        <ele>388.8</ele>
      </trkpt>
      <trkpt lat="48.04397" lon="7.13306">
        <ele>388.8</ele>
      </trkpt>
      <trkpt lat="48.04379" lon="7.13291">
        <ele>388.8</ele>
      </trkpt>
      <trkpt lat="48.04367" lon="7.13279">
        <ele>388.9</ele>
      </trkpt>
      <trkpt lat="48.0436" lon="7.13273">
        <ele>389</ele>
      </trkpt>
      <trkpt lat="48.0434" lon="7.13255">
        <ele>389.6</ele>
        <extensions>
          <visugpx:TrkExtension xmlns:visugpx="https://www.visugpx.com/editgpx/">
            <visugpx:node>269</visugpx:node>
            </visugpx:TrkExtension>
        </extensions>
      </trkpt>
      <trkpt lat="48.04306" lon="7.13223">
        <ele>389.8</ele>
      </trkpt>
      <trkpt lat="48.04315" lon="7.13159">
        <ele>391</ele>
      </trkpt>
      <trkpt lat="48.04314" lon="7.13151">
        <ele>390.8</ele>
      </trkpt>
      <trkpt lat="48.04262" lon="7.13125">
        <ele>390</ele>
      </trkpt>
      <trkpt lat="48.04245" lon="7.13121">
        <ele>390.3</ele>
      </trkpt>
      <trkpt lat="48.04248" lon="7.13114">
        <ele>390.4</ele>
      </trkpt>
      <trkpt lat="48.04253" lon="7.13094">
        <ele>390</ele>
      </trkpt>
      <trkpt lat="48.04255" lon="7.13088">
        <ele>390</ele>
      </trkpt>
      <trkpt lat="48.0426" lon="7.1308">
        <ele>390.3</ele>
      </trkpt>
      <trkpt lat="48.04278" lon="7.1308">
        <ele>390.4</ele>
      </trkpt>
      <trkpt lat="48.04289" lon="7.13023">
        <ele>390.9</ele>
      </trkpt>
      <trkpt lat="48.04247" lon="7.12993">
        <ele>392.7</ele>
      </trkpt>
      <trkpt lat="48.04275" lon="7.12905">
        <ele>395</ele>
      </trkpt>
      <trkpt lat="48.04284" lon="7.12881">
        <ele>395</ele>
      </trkpt>
      <trkpt lat="48.04294" lon="7.12859">
        <ele>395.1</ele>
      </trkpt>
      <trkpt lat="48.0431" lon="7.12833">
        <ele>395.8</ele>
      </trkpt>
      <trkpt lat="48.04355" lon="7.12771">
        <ele>396.1</ele>
      </trkpt>
      <trkpt lat="48.04415" lon="7.12683">
        <ele>398.7</ele>
      </trkpt>
      <trkpt lat="48.04446" lon="7.12622">
        <ele>400.1</ele>
      </trkpt>
      <trkpt lat="48.04496" lon="7.12503">
        <ele>402.9</ele>
      </trkpt>
      <trkpt lat="48.04516" lon="7.12438">
        <ele>404.5</ele>
      </trkpt>
      <trkpt lat="48.0452" lon="7.12429">
        <ele>404.6</ele>
      </trkpt>
      <trkpt lat="48.04518" lon="7.12424">
        <ele>404.7</ele>
      </trkpt>
      <trkpt lat="48.0452" lon="7.12404">
        <ele>405.6</ele>
      </trkpt>
      <trkpt lat="48.04525" lon="7.1238">
        <ele>405.9</ele>
      </trkpt>
      <trkpt lat="48.04554" lon="7.12314">
        <ele>407.5</ele>
      </trkpt>
      <trkpt lat="48.04586" lon="7.12232">
        <ele>408.2</ele>
      </trkpt>
      <trkpt lat="48.04607" lon="7.12154">
        <ele>410.8</ele>
      </trkpt>
      <trkpt lat="48.04612" lon="7.12123">
        <ele>411.5</ele>
      </trkpt>
      <trkpt lat="48.04612" lon="7.12087">
        <ele>412.4</ele>
      </trkpt>
      <trkpt lat="48.04609" lon="7.12067">
        <ele>413.8</ele>
        <extensions>
          <visugpx:TrkExtension xmlns:visugpx="https://www.visugpx.com/editgpx/">
            <visugpx:node>270</visugpx:node>
            </visugpx:TrkExtension>
        </extensions>
      </trkpt>
      <trkpt lat="48.04608" lon="7.12061">
        <ele>413.8</ele>
      </trkpt>
      <trkpt lat="48.0459" lon="7.12008">
        <ele>415.2</ele>
      </trkpt>
      <trkpt lat="48.04587" lon="7.11994">
        <ele>415.9</ele>
      </trkpt>
      <trkpt lat="48.04588" lon="7.11978">
        <ele>415.8</ele>
      </trkpt>
      <trkpt lat="48.04595" lon="7.11954">
        <ele>416.3</ele>
      </trkpt>
      <trkpt lat="48.04666" lon="7.11764">
        <ele>421.4</ele>
      </trkpt>
      <trkpt lat="48.04679" lon="7.11725">
        <ele>421.4</ele>
      </trkpt>
      <trkpt lat="48.04689" lon="7.11685">
        <ele>422.4</ele>
      </trkpt>
      <trkpt lat="48.04692" lon="7.11671">
        <ele>422.6</ele>
      </trkpt>
      <trkpt lat="48.0471" lon="7.11654">
        <ele>423.5</ele>
      </trkpt>
      <trkpt lat="48.04724" lon="7.11637">
        <ele>423.2</ele>
      </trkpt>
      <trkpt lat="48.0476" lon="7.11583">
        <ele>422.1</ele>
      </trkpt>
      <trkpt lat="48.04769" lon="7.11574">
        <ele>422.2</ele>
      </trkpt>
      <trkpt lat="48.04802" lon="7.11547">
        <ele>422.3</ele>
      </trkpt>
      <trkpt lat="48.04821" lon="7.11523">
        <ele>422.6</ele>
      </trkpt>
      <trkpt lat="48.04827" lon="7.11515">
        <ele>422.7</ele>
      </trkpt>
      <trkpt lat="48.04845" lon="7.11492">
        <ele>423.2</ele>
      </trkpt>
      <trkpt lat="48.0488" lon="7.11435">
        <ele>423.7</ele>
      </trkpt>
      <trkpt lat="48.04924" lon="7.11387">
        <ele>424.4</ele>
      </trkpt>
      <trkpt lat="48.04928" lon="7.11381">
        <ele>424.6</ele>
      </trkpt>
      <trkpt lat="48.04943" lon="7.11337">
        <ele>425.1</ele>
      </trkpt>
      <trkpt lat="48.04946" lon="7.11333">
        <ele>426.5</ele>
      </trkpt>
      <trkpt lat="48.04953" lon="7.11331">
        <ele>426.7</ele>
      </trkpt>
      <trkpt lat="48.04961" lon="7.11332">
        <ele>426.8</ele>
      </trkpt>
      <trkpt lat="48.04966" lon="7.11333">
        <ele>426.9</ele>
      </trkpt>
      <trkpt lat="48.04969" lon="7.11334">
        <ele>425.6</ele>
      </trkpt>
      <trkpt lat="48.04977" lon="7.11333">
        <ele>427</ele>
      </trkpt>
      <trkpt lat="48.04984" lon="7.11326">
        <ele>427</ele>
      </trkpt>
      <trkpt lat="48.04997" lon="7.113">
        <ele>427.3</ele>
      </trkpt>
      <trkpt lat="48.05022" lon="7.11236">
        <ele>429.4</ele>
      </trkpt>
      <trkpt lat="48.05038" lon="7.11213">
        <ele>429.9</ele>
      </trkpt>
      <trkpt lat="48.05047" lon="7.11203">
        <ele>430.1</ele>
      </trkpt>
      <trkpt lat="48.05059" lon="7.11187">
        <ele>430.1</ele>
      </trkpt>
      <trkpt lat="48.05072" lon="7.11164">
        <ele>430.7</ele>
      </trkpt>
      <trkpt lat="48.05124" lon="7.11062">
        <ele>433.3</ele>
      </trkpt>
      <trkpt lat="48.05142" lon="7.11025">
        <ele>433.8</ele>
      </trkpt>
      <trkpt lat="48.05145" lon="7.11019">
        <ele>434</ele>
      </trkpt>
      <trkpt lat="48.05158" lon="7.10994">
        <ele>435.2</ele>
      </trkpt>
      <trkpt lat="48.05169" lon="7.10979">
        <ele>438.3</ele>
      </trkpt>
      <trkpt lat="48.05174" lon="7.10967">
        <ele>439.1</ele>
      </trkpt>
      <trkpt lat="48.05191" lon="7.10922">
        <ele>439.4</ele>
      </trkpt>
      <trkpt lat="48.05196" lon="7.10899">
        <ele>439.1</ele>
      </trkpt>
      <trkpt lat="48.0521" lon="7.10838">
        <ele>439.2</ele>
      </trkpt>
      <trkpt lat="48.05213" lon="7.10826">
        <ele>439.2</ele>
        <extensions>
          <visugpx:TrkExtension xmlns:visugpx="https://www.visugpx.com/editgpx/">
            <visugpx:node>271</visugpx:node>
            </visugpx:TrkExtension>
        </extensions>
      </trkpt>
      <trkpt lat="48.05217" lon="7.10808">
        <ele>439.3</ele>
      </trkpt>
      <trkpt lat="48.05227" lon="7.10775">
        <ele>439.5</ele>
      </trkpt>
      <trkpt lat="48.05237" lon="7.10739">
        <ele>440.4</ele>
      </trkpt>
      <trkpt lat="48.05253" lon="7.10673">
        <ele>440</ele>
      </trkpt>
      <trkpt lat="48.0526" lon="7.10658">
        <ele>440.3</ele>
      </trkpt>
      <trkpt lat="48.05261" lon="7.10655">
        <ele>440.3</ele>
      </trkpt>
      <trkpt lat="48.05282" lon="7.10615">
        <ele>440.8</ele>
      </trkpt>
      <trkpt lat="48.05317" lon="7.10571">
        <ele>442.6</ele>
      </trkpt>
      <trkpt lat="48.05327" lon="7.10562">
        <ele>442.7</ele>
      </trkpt>
      <trkpt lat="48.05346" lon="7.10544">
        <ele>444.5</ele>
      </trkpt>
      <trkpt lat="48.05357" lon="7.10537">
        <ele>444.8</ele>
      </trkpt>
      <trkpt lat="48.05375" lon="7.10524">
        <ele>445.4</ele>
      </trkpt>
      <trkpt lat="48.05376" lon="7.10522">
        <ele>445.4</ele>
      </trkpt>
      <trkpt lat="48.05378" lon="7.10521">
        <ele>445.5</ele>
      </trkpt>
      <trkpt lat="48.05387" lon="7.10513">
        <ele>445.9</ele>
      </trkpt>
      <trkpt lat="48.05393" lon="7.10504">
        <ele>446.3</ele>
      </trkpt>
      <trkpt lat="48.05402" lon="7.10477">
        <ele>448.3</ele>
      </trkpt>
      <trkpt lat="48.05415" lon="7.10429">
        <ele>450.6</ele>
      </trkpt>
      <trkpt lat="48.05415" lon="7.10425">
        <ele>450.9</ele>
      </trkpt>
      <trkpt lat="48.0542" lon="7.10403">
        <ele>454.1</ele>
      </trkpt>
      <trkpt lat="48.05421" lon="7.104">
        <ele>454.4</ele>
      </trkpt>
      <trkpt lat="48.05426" lon="7.10376">
        <ele>456.1</ele>
      </trkpt>
      <trkpt lat="48.05428" lon="7.10338">
        <ele>456.7</ele>
        <extensions>
          <visugpx:TrkExtension xmlns:visugpx="https://www.visugpx.com/editgpx/">
            <visugpx:node>272</visugpx:node>
            </visugpx:TrkExtension>
        </extensions>
      </trkpt>
      <trkpt lat="48.05428" lon="7.10328">
        <ele>459.4</ele>
      </trkpt>
      <trkpt lat="48.05429" lon="7.10305">
        <ele>461.9</ele>
      </trkpt>
      <trkpt lat="48.05429" lon="7.10297">
        <ele>462.3</ele>
      </trkpt>
      <trkpt lat="48.0543" lon="7.10251">
        <ele>461.3</ele>
      </trkpt>
      <trkpt lat="48.05431" lon="7.10231">
        <ele>464.8</ele>
      </trkpt>
      <trkpt lat="48.05437" lon="7.10238">
        <ele>465.1</ele>
      </trkpt>
      <trkpt lat="48.0544" lon="7.10243">
        <ele>465.5</ele>
      </trkpt>
      <trkpt lat="48.05451" lon="7.10235">
        <ele>467.8</ele>
      </trkpt>
      <trkpt lat="48.05439" lon="7.10188">
        <ele>466.7</ele>
      </trkpt>
      <trkpt lat="48.05436" lon="7.10172">
        <ele>465.4</ele>
      </trkpt>
      <trkpt lat="48.05436" lon="7.1014">
        <ele>467.3</ele>
      </trkpt>
      <trkpt lat="48.05432" lon="7.10106">
        <ele>466.6</ele>
      </trkpt>
      <trkpt lat="48.05432" lon="7.10095">
        <ele>465.6</ele>
      </trkpt>
      <trkpt lat="48.05443" lon="7.1004">
        <ele>468</ele>
      </trkpt>
      <trkpt lat="48.05449" lon="7.10023">
        <ele>468.4</ele>
      </trkpt>
      <trkpt lat="48.05458" lon="7.09968">
        <ele>469.6</ele>
      </trkpt>
      <trkpt lat="48.05455" lon="7.09942">
        <ele>469.5</ele>
      </trkpt>
      <trkpt lat="48.05449" lon="7.09918">
        <ele>468.4</ele>
      </trkpt>
      <trkpt lat="48.05446" lon="7.0992">
        <ele>467.9</ele>
      </trkpt>
      <trkpt lat="48.0544" lon="7.099">
        <ele>470.1</ele>
      </trkpt>
      <trkpt lat="48.05406" lon="7.09803">
        <ele>464.2</ele>
      </trkpt>
      <trkpt lat="48.05402" lon="7.09786">
        <ele>464.6</ele>
      </trkpt>
      <trkpt lat="48.05394" lon="7.09748">
        <ele>466.7</ele>
      </trkpt>
      <trkpt lat="48.05391" lon="7.09734">
        <ele>466.5</ele>
      </trkpt>
      <trkpt lat="48.0542" lon="7.09726">
        <ele>476.6</ele>
      </trkpt>
      <trkpt lat="48.05432" lon="7.09716">
        <ele>479</ele>
      </trkpt>
      <trkpt lat="48.05436" lon="7.0971">
        <ele>479.8</ele>
      </trkpt>
      <trkpt lat="48.05443" lon="7.09687">
        <ele>480.2</ele>
      </trkpt>
      <trkpt lat="48.05449" lon="7.09685">
        <ele>481.4</ele>
      </trkpt>
      <trkpt lat="48.05451" lon="7.09687">
        <ele>481.9</ele>
      </trkpt>
      <trkpt lat="48.05453" lon="7.09691">
        <ele>482.4</ele>
      </trkpt>
      <trkpt lat="48.05457" lon="7.09722">
        <ele>483.2</ele>
      </trkpt>
      <trkpt lat="48.05461" lon="7.09744">
        <ele>484.2</ele>
      </trkpt>
      <trkpt lat="48.0548" lon="7.09815">
        <ele>484.5</ele>
      </trkpt>
      <trkpt lat="48.05487" lon="7.09831">
        <ele>487.2</ele>
      </trkpt>
      <trkpt lat="48.05495" lon="7.09844">
        <ele>485.3</ele>
      </trkpt>
      <trkpt lat="48.05525" lon="7.0988">
        <ele>499.2</ele>
      </trkpt>
      <trkpt lat="48.05536" lon="7.099">
        <ele>499.5</ele>
        <extensions>
          <visugpx:TrkExtension xmlns:visugpx="https://www.visugpx.com/editgpx/">
            <visugpx:node>273</visugpx:node>
            </visugpx:TrkExtension>
        </extensions>
      </trkpt>
      <trkpt lat="48.05539" lon="7.09905">
        <ele>499.9</ele>
      </trkpt>
      <trkpt lat="48.05548" lon="7.09936">
        <ele>495.6</ele>
      </trkpt>
      <trkpt lat="48.05562" lon="7.10004">
        <ele>497.3</ele>
      </trkpt>
      <trkpt lat="48.0558" lon="7.10047">
        <ele>496.6</ele>
      </trkpt>
      <trkpt lat="48.05584" lon="7.10055">
        <ele>508.7</ele>
      </trkpt>
      <trkpt lat="48.05588" lon="7.10058">
        <ele>508.5</ele>
      </trkpt>
      <trkpt lat="48.0559" lon="7.10058">
        <ele>508.7</ele>
      </trkpt>
      <trkpt lat="48.05593" lon="7.10057">
        <ele>508.9</ele>
      </trkpt>
      <trkpt lat="48.05595" lon="7.10055">
        <ele>509.3</ele>
      </trkpt>
      <trkpt lat="48.05597" lon="7.10047">
        <ele>509.9</ele>
      </trkpt>
      <trkpt lat="48.05598" lon="7.0993">
        <ele>516.5</ele>
      </trkpt>
      <trkpt lat="48.05592" lon="7.0988">
        <ele>528.5</ele>
      </trkpt>
      <trkpt lat="48.0557" lon="7.09784">
        <ele>521</ele>
      </trkpt>
      <trkpt lat="48.0556" lon="7.0975">
        <ele>523.1</ele>
      </trkpt>
      <trkpt lat="48.05555" lon="7.09723">
        <ele>521.5</ele>
      </trkpt>
      <trkpt lat="48.05555" lon="7.09711">
        <ele>521.1</ele>
      </trkpt>
      <trkpt lat="48.05556" lon="7.097">
        <ele>521.3</ele>
      </trkpt>
      <trkpt lat="48.05564" lon="7.09663">
        <ele>525.6</ele>
      </trkpt>
      <trkpt lat="48.05579" lon="7.09618">
        <ele>524.7</ele>
      </trkpt>
      <trkpt lat="48.05584" lon="7.09612">
        <ele>546.9</ele>
      </trkpt>
      <trkpt lat="48.05587" lon="7.09612">
        <ele>547.1</ele>
      </trkpt>
      <trkpt lat="48.05591" lon="7.09616">
        <ele>547.8</ele>
      </trkpt>
      <trkpt lat="48.05592" lon="7.09621">
        <ele>548.1</ele>
      </trkpt>
      <trkpt lat="48.05586" lon="7.09664">
        <ele>539.3</ele>
      </trkpt>
      <trkpt lat="48.05586" lon="7.09683">
        <ele>543.2</ele>
      </trkpt>
      <trkpt lat="48.05587" lon="7.09699">
        <ele>545.6</ele>
      </trkpt>
      <trkpt lat="48.05592" lon="7.09718">
        <ele>546</ele>
      </trkpt>
      <trkpt lat="48.05613" lon="7.09779">
        <ele>544.9</ele>
        <extensions>
          <visugpx:TrkExtension xmlns:visugpx="https://www.visugpx.com/editgpx/">
            <visugpx:node>274</visugpx:node>
            </visugpx:TrkExtension>
        </extensions>
      </trkpt>
      <trkpt lat="48.05624" lon="7.0981">
        <ele>545.3</ele>
      </trkpt>
      <trkpt lat="48.05633" lon="7.09824">
        <ele>546.8</ele>
      </trkpt>
      <trkpt lat="48.05654" lon="7.09846">
        <ele>544.8</ele>
      </trkpt>
      <trkpt lat="48.05657" lon="7.09848">
        <ele>545</ele>
      </trkpt>
      <trkpt lat="48.0566" lon="7.09847">
        <ele>546.2</ele>
      </trkpt>
      <trkpt lat="48.05686" lon="7.09843">
        <ele>552.2</ele>
      </trkpt>
      <trkpt lat="48.05722" lon="7.0984">
        <ele>552.4</ele>
      </trkpt>
      <trkpt lat="48.05732" lon="7.09834">
        <ele>553.8</ele>
      </trkpt>
      <trkpt lat="48.05737" lon="7.09828">
        <ele>559.6</ele>
      </trkpt>
      <trkpt lat="48.0574" lon="7.09824">
        <ele>559.7</ele>
      </trkpt>
      <trkpt lat="48.0574" lon="7.09818">
        <ele>560.2</ele>
      </trkpt>
      <trkpt lat="48.05746" lon="7.09788">
        <ele>563.2</ele>
      </trkpt>
      <trkpt lat="48.05748" lon="7.0978">
        <ele>564.2</ele>
      </trkpt>
      <trkpt lat="48.05753" lon="7.0977">
        <ele>563.1</ele>
      </trkpt>
      <trkpt lat="48.05757" lon="7.09759">
        <ele>565.7</ele>
      </trkpt>
      <trkpt lat="48.05769" lon="7.09726">
        <ele>574.3</ele>
      </trkpt>
      <trkpt lat="48.05772" lon="7.0972">
        <ele>575</ele>
      </trkpt>
      <trkpt lat="48.05807" lon="7.09678">
        <ele>580</ele>
      </trkpt>
      <trkpt lat="48.05819" lon="7.09666">
        <ele>591.5</ele>
      </trkpt>
      <trkpt lat="48.05851" lon="7.0965">
        <ele>594.4</ele>
      </trkpt>
      <trkpt lat="48.05864" lon="7.0964">
        <ele>596.4</ele>
      </trkpt>
      <trkpt lat="48.05913" lon="7.09592">
        <ele>604.2</ele>
      </trkpt>
      <trkpt lat="48.05927" lon="7.09574">
        <ele>610.7</ele>
      </trkpt>
      <trkpt lat="48.0594" lon="7.09565">
        <ele>613</ele>
      </trkpt>
      <trkpt lat="48.05947" lon="7.09565">
        <ele>613.5</ele>
      </trkpt>
      <trkpt lat="48.05964" lon="7.09577">
        <ele>613.5</ele>
      </trkpt>
      <trkpt lat="48.05973" lon="7.09587">
        <ele>604.4</ele>
      </trkpt>
      <trkpt lat="48.05986" lon="7.09593">
        <ele>605.7</ele>
      </trkpt>
      <trkpt lat="48.06038" lon="7.096">
        <ele>606.9</ele>
        <extensions>
          <visugpx:TrkExtension xmlns:visugpx="https://www.visugpx.com/editgpx/">
            <visugpx:node>275</visugpx:node>
            </visugpx:TrkExtension>
        </extensions>
      </trkpt>
      <trkpt lat="48.06041" lon="7.09601">
        <ele>606.9</ele>
      </trkpt>
      <trkpt lat="48.06063" lon="7.09596">
        <ele>609.5</ele>
      </trkpt>
      <trkpt lat="48.0608" lon="7.09586">
        <ele>615.8</ele>
      </trkpt>
      <trkpt lat="48.06088" lon="7.09579">
        <ele>618.5</ele>
      </trkpt>
      <trkpt lat="48.06091" lon="7.09572">
        <ele>619.1</ele>
      </trkpt>
      <trkpt lat="48.06091" lon="7.09564">
        <ele>619.8</ele>
      </trkpt>
      <trkpt lat="48.06086" lon="7.09556">
        <ele>620.8</ele>
      </trkpt>
      <trkpt lat="48.06054" lon="7.09544">
        <ele>622.6</ele>
      </trkpt>
      <trkpt lat="48.0605" lon="7.09534">
        <ele>623.4</ele>
      </trkpt>
      <trkpt lat="48.0605" lon="7.09531">
        <ele>623.7</ele>
      </trkpt>
      <trkpt lat="48.0605" lon="7.09526">
        <ele>624.2</ele>
      </trkpt>
      <trkpt lat="48.06057" lon="7.09514">
        <ele>625.9</ele>
      </trkpt>
      <trkpt lat="48.06063" lon="7.09508">
        <ele>627.3</ele>
      </trkpt>
      <trkpt lat="48.06092" lon="7.0949">
        <ele>635.3</ele>
      </trkpt>
      <trkpt lat="48.06119" lon="7.09458">
        <ele>637.5</ele>
      </trkpt>
      <trkpt lat="48.06121" lon="7.09448">
        <ele>638.2</ele>
      </trkpt>
      <trkpt lat="48.0612" lon="7.09443">
        <ele>638.6</ele>
      </trkpt>
      <trkpt lat="48.06117" lon="7.09437">
        <ele>639.2</ele>
      </trkpt>
      <trkpt lat="48.06107" lon="7.09438">
        <ele>639.7</ele>
      </trkpt>
      <trkpt lat="48.06091" lon="7.09442">
        <ele>640.2</ele>
      </trkpt>
      <trkpt lat="48.06087" lon="7.09439">
        <ele>640.7</ele>
      </trkpt>
      <trkpt lat="48.06084" lon="7.09433">
        <ele>641.8</ele>
      </trkpt>
      <trkpt lat="48.06084" lon="7.09428">
        <ele>642.8</ele>
      </trkpt>
      <trkpt lat="48.06086" lon="7.09424">
        <ele>643.7</ele>
      </trkpt>
      <trkpt lat="48.06106" lon="7.09398">
        <ele>650.9</ele>
      </trkpt>
      <trkpt lat="48.0616" lon="7.09344">
        <ele>657.3</ele>
      </trkpt>
      <trkpt lat="48.06168" lon="7.09334">
        <ele>659.6</ele>
      </trkpt>
      <trkpt lat="48.0617" lon="7.09329">
        <ele>662.7</ele>
      </trkpt>
      <trkpt lat="48.0617" lon="7.09322">
        <ele>665.1</ele>
      </trkpt>
      <trkpt lat="48.06182" lon="7.09315">
        <ele>668.4</ele>
      </trkpt>
      <trkpt lat="48.06193" lon="7.09311">
        <ele>670.1</ele>
      </trkpt>
      <trkpt lat="48.06208" lon="7.09309">
        <ele>671.3</ele>
      </trkpt>
      <trkpt lat="48.06224" lon="7.09314">
        <ele>670.9</ele>
      </trkpt>
      <trkpt lat="48.06229" lon="7.09308">
        <ele>671.6</ele>
      </trkpt>
      <trkpt lat="48.06232" lon="7.09307">
        <ele>671.8</ele>
      </trkpt>
      <trkpt lat="48.06238" lon="7.09299">
        <ele>673.1</ele>
      </trkpt>
      <trkpt lat="48.06241" lon="7.09281">
        <ele>676.7</ele>
      </trkpt>
      <trkpt lat="48.06231" lon="7.09259">
        <ele>680</ele>
      </trkpt>
      <trkpt lat="48.06216" lon="7.09234">
        <ele>692.4</ele>
      </trkpt>
      <trkpt lat="48.06193" lon="7.09217">
        <ele>693.2</ele>
      </trkpt>
      <trkpt lat="48.06172" lon="7.09206">
        <ele>694.4</ele>
      </trkpt>
      <trkpt lat="48.06147" lon="7.09198">
        <ele>693.1</ele>
      </trkpt>
      <trkpt lat="48.06144" lon="7.09195">
        <ele>693.4</ele>
      </trkpt>
      <trkpt lat="48.06142" lon="7.09194">
        <ele>693.5</ele>
      </trkpt>
      <trkpt lat="48.06134" lon="7.09193">
        <ele>693.2</ele>
      </trkpt>
      <trkpt lat="48.06118" lon="7.09187">
        <ele>693.5</ele>
      </trkpt>
      <trkpt lat="48.06094" lon="7.0917">
        <ele>696.4</ele>
      </trkpt>
      <trkpt lat="48.0606" lon="7.09128">
        <ele>696</ele>
      </trkpt>
      <trkpt lat="48.06041" lon="7.09092">
        <ele>695.4</ele>
      </trkpt>
      <trkpt lat="48.06038" lon="7.09085">
        <ele>695.2</ele>
      </trkpt>
      <trkpt lat="48.06041" lon="7.09076">
        <ele>696.8</ele>
      </trkpt>
      <trkpt lat="48.0605" lon="7.09063">
        <ele>697.6</ele>
      </trkpt>
      <trkpt lat="48.06059" lon="7.09028">
        <ele>698.1</ele>
      </trkpt>
      <trkpt lat="48.06061" lon="7.09026">
        <ele>698.3</ele>
      </trkpt>
      <trkpt lat="48.0607" lon="7.09026">
        <ele>698.9</ele>
      </trkpt>
      <trkpt lat="48.0608" lon="7.09028">
        <ele>699.3</ele>
      </trkpt>
      <trkpt lat="48.06099" lon="7.09029">
        <ele>708.4</ele>
      </trkpt>
      <trkpt lat="48.06127" lon="7.09036">
        <ele>711.1</ele>
      </trkpt>
      <trkpt lat="48.06155" lon="7.09042">
        <ele>713.2</ele>
      </trkpt>
      <trkpt lat="48.06196" lon="7.09045">
        <ele>722.1</ele>
      </trkpt>
      <trkpt lat="48.06211" lon="7.09048">
        <ele>722.7</ele>
      </trkpt>
      <trkpt lat="48.06225" lon="7.09056">
        <ele>722.8</ele>
      </trkpt>
      <trkpt lat="48.06232" lon="7.0906">
        <ele>722.7</ele>
      </trkpt>
      <trkpt lat="48.06238" lon="7.09063">
        <ele>722.6</ele>
      </trkpt>
      <trkpt lat="48.06243" lon="7.09064">
        <ele>722.5</ele>
      </trkpt>
      <trkpt lat="48.06245" lon="7.09063">
        <ele>722.6</ele>
      </trkpt>
      <trkpt lat="48.06225" lon="7.09036">
        <ele>724.4</ele>
      </trkpt>
      <trkpt lat="48.06207" lon="7.08994">
        <ele>731.1</ele>
      </trkpt>
      <trkpt lat="48.06189" lon="7.08941">
        <ele>732</ele>
      </trkpt>
      <trkpt lat="48.06183" lon="7.08918">
        <ele>731.7</ele>
      </trkpt>
      <trkpt lat="48.06183" lon="7.08899">
        <ele>735.4</ele>
      </trkpt>
      <trkpt lat="48.06187" lon="7.08882">
        <ele>736.7</ele>
      </trkpt>
      <trkpt lat="48.06192" lon="7.08872">
        <ele>737.3</ele>
      </trkpt>
      <trkpt lat="48.06203" lon="7.0886">
        <ele>738.6</ele>
      </trkpt>
      <trkpt lat="48.06204" lon="7.08856">
        <ele>738.8</ele>
      </trkpt>
      <trkpt lat="48.06223" lon="7.08782">
        <ele>745</ele>
      </trkpt>
      <trkpt lat="48.06241" lon="7.08732">
        <ele>750.2</ele>
      </trkpt>
      <trkpt lat="48.06251" lon="7.08696">
        <ele>762</ele>
      </trkpt>
      <trkpt lat="48.06272" lon="7.08591">
        <ele>766.1</ele>
      </trkpt>
      <trkpt lat="48.06276" lon="7.08582">
        <ele>766.8</ele>
      </trkpt>
      <trkpt lat="48.06286" lon="7.08571">
        <ele>768.8</ele>
      </trkpt>
      <trkpt lat="48.06295" lon="7.08557">
        <ele>770.1</ele>
      </trkpt>
      <trkpt lat="48.06316" lon="7.08513">
        <ele>773.5</ele>
        <extensions>
          <visugpx:TrkExtension xmlns:visugpx="https://www.visugpx.com/editgpx/">
            <visugpx:node>276</visugpx:node>
            </visugpx:TrkExtension>
        </extensions>
      </trkpt>
      <trkpt lat="48.06326" lon="7.08492">
        <ele>775.1</ele>
      </trkpt>
      <trkpt lat="48.06334" lon="7.08479">
        <ele>784.9</ele>
      </trkpt>
      <trkpt lat="48.06343" lon="7.08469">
        <ele>786.2</ele>
      </trkpt>
      <trkpt lat="48.06365" lon="7.0845">
        <ele>788.5</ele>
      </trkpt>
      <trkpt lat="48.06381" lon="7.08444">
        <ele>790.8</ele>
      </trkpt>
      <trkpt lat="48.06426" lon="7.0844">
        <ele>806.6</ele>
      </trkpt>
      <trkpt lat="48.06436" lon="7.08437">
        <ele>807.4</ele>
      </trkpt>
      <trkpt lat="48.06438" lon="7.0845">
        <ele>808.3</ele>
      </trkpt>
      <trkpt lat="48.06446" lon="7.08496">
        <ele>808.7</ele>
      </trkpt>
      <trkpt lat="48.06451" lon="7.0851">
        <ele>807.1</ele>
      </trkpt>
      <trkpt lat="48.06472" lon="7.08551">
        <ele>807.6</ele>
      </trkpt>
      <trkpt lat="48.06483" lon="7.08579">
        <ele>808.1</ele>
      </trkpt>
      <trkpt lat="48.06489" lon="7.08589">
        <ele>805.2</ele>
      </trkpt>
      <trkpt lat="48.06493" lon="7.08591">
        <ele>805.8</ele>
      </trkpt>
      <trkpt lat="48.06505" lon="7.08591">
        <ele>811</ele>
      </trkpt>
      <trkpt lat="48.06507" lon="7.08589">
        <ele>811</ele>
      </trkpt>
      <trkpt lat="48.06509" lon="7.08592">
        <ele>811.3</ele>
      </trkpt>
      <trkpt lat="48.06528" lon="7.08595">
        <ele>813.2</ele>
      </trkpt>
      <trkpt lat="48.06536" lon="7.08598">
        <ele>814.1</ele>
      </trkpt>
      <trkpt lat="48.06541" lon="7.08603">
        <ele>814.6</ele>
      </trkpt>
      <trkpt lat="48.06543" lon="7.08606">
        <ele>814.7</ele>
      </trkpt>
      <trkpt lat="48.06566" lon="7.08587">
        <ele>820.5</ele>
      </trkpt>
      <trkpt lat="48.066" lon="7.08583">
        <ele>833.2</ele>
      </trkpt>
      <trkpt lat="48.06629" lon="7.08571">
        <ele>837.8</ele>
        <extensions>
          <visugpx:TrkExtension xmlns:visugpx="https://www.visugpx.com/editgpx/">
            <visugpx:node>277</visugpx:node>
            </visugpx:TrkExtension>
        </extensions>
      </trkpt>
      <trkpt lat="48.06638" lon="7.08568">
        <ele>838.7</ele>
      </trkpt>
      <trkpt lat="48.06654" lon="7.08565">
        <ele>839.6</ele>
      </trkpt>
      <trkpt lat="48.06667" lon="7.0856">
        <ele>845</ele>
      </trkpt>
      <trkpt lat="48.06678" lon="7.0855">
        <ele>846.6</ele>
      </trkpt>
      <trkpt lat="48.0669" lon="7.08534">
        <ele>848.4</ele>
      </trkpt>
      <trkpt lat="48.06726" lon="7.08469">
        <ele>861.2</ele>
      </trkpt>
      <trkpt lat="48.06735" lon="7.08449">
        <ele>863.8</ele>
      </trkpt>
      <trkpt lat="48.06764" lon="7.08365">
        <ele>883.7</ele>
      </trkpt>
      <trkpt lat="48.0678" lon="7.08332">
        <ele>889.6</ele>
      </trkpt>
      <trkpt lat="48.06788" lon="7.08319">
        <ele>890.5</ele>
      </trkpt>
      <trkpt lat="48.06794" lon="7.08312">
        <ele>891.1</ele>
      </trkpt>
      <trkpt lat="48.0681" lon="7.08296">
        <ele>892.4</ele>
      </trkpt>
      <trkpt lat="48.0682" lon="7.0829">
        <ele>893.1</ele>
      </trkpt>
      <trkpt lat="48.06832" lon="7.08281">
        <ele>894.2</ele>
      </trkpt>
      <trkpt lat="48.06861" lon="7.08268">
        <ele>901.1</ele>
      </trkpt>
      <trkpt lat="48.06916" lon="7.08248">
        <ele>908.8</ele>
      </trkpt>
      <trkpt lat="48.06938" lon="7.08242">
        <ele>914.4</ele>
      </trkpt>
      <trkpt lat="48.0697" lon="7.08226">
        <ele>918.1</ele>
      </trkpt>
      <trkpt lat="48.0702" lon="7.08217">
        <ele>926.3</ele>
      </trkpt>
      <trkpt lat="48.0705" lon="7.08208">
        <ele>928.2</ele>
      </trkpt>
      <trkpt lat="48.07093" lon="7.082">
        <ele>935.4</ele>
      </trkpt>
      <trkpt lat="48.07123" lon="7.08205">
        <ele>936.7</ele>
      </trkpt>
      <trkpt lat="48.0716" lon="7.08213">
        <ele>938.2</ele>
      </trkpt>
      <trkpt lat="48.07259" lon="7.08247">
        <ele>955.6</ele>
      </trkpt>
      <trkpt lat="48.07276" lon="7.08251">
        <ele>952.2</ele>
      </trkpt>
      <trkpt lat="48.07337" lon="7.08251">
        <ele>959.6</ele>
      </trkpt>
      <trkpt lat="48.07358" lon="7.08244">
        <ele>962.3</ele>
      </trkpt>
      <trkpt lat="48.0738" lon="7.08242">
        <ele>963.6</ele>
      </trkpt>
      <trkpt lat="48.07405" lon="7.08232">
        <ele>964.7</ele>
        <extensions>
          <visugpx:TrkExtension xmlns:visugpx="https://www.visugpx.com/editgpx/">
            <visugpx:node>278</visugpx:node>
            </visugpx:TrkExtension>
        </extensions>
      </trkpt>
      <trkpt lat="48.0741" lon="7.0823">
        <ele>964.8</ele>
      </trkpt>
      <trkpt lat="48.07434" lon="7.08223">
        <ele>966.8</ele>
      </trkpt>
      <trkpt lat="48.07441" lon="7.0822">
        <ele>966.9</ele>
      </trkpt>
      <trkpt lat="48.07449" lon="7.08213">
        <ele>967</ele>
      </trkpt>
      <trkpt lat="48.07457" lon="7.08188">
        <ele>967.1</ele>
      </trkpt>
      <trkpt lat="48.07476" lon="7.08112">
        <ele>963.6</ele>
      </trkpt>
      <trkpt lat="48.07488" lon="7.08068">
        <ele>957.5</ele>
      </trkpt>
      <trkpt lat="48.07507" lon="7.08011">
        <ele>948.2</ele>
      </trkpt>
      <trkpt lat="48.07521" lon="7.07961">
        <ele>941.7</ele>
      </trkpt>
      <trkpt lat="48.07535" lon="7.07923">
        <ele>940</ele>
      </trkpt>
      <trkpt lat="48.07542" lon="7.07893">
        <ele>938.8</ele>
      </trkpt>
      <trkpt lat="48.0756" lon="7.07838">
        <ele>939.1</ele>
      </trkpt>
      <trkpt lat="48.07567" lon="7.0782">
        <ele>939.9</ele>
      </trkpt>
      <trkpt lat="48.07567" lon="7.07805">
        <ele>940.2</ele>
      </trkpt>
      <trkpt lat="48.07563" lon="7.07783">
        <ele>940.6</ele>
      </trkpt>
      <trkpt lat="48.07559" lon="7.07762">
        <ele>941</ele>
      </trkpt>
      <trkpt lat="48.07551" lon="7.07761">
        <ele>940.7</ele>
      </trkpt>
      <trkpt lat="48.07546" lon="7.07757">
        <ele>940.5</ele>
      </trkpt>
      <trkpt lat="48.07541" lon="7.07749">
        <ele>943.1</ele>
      </trkpt>
      <trkpt lat="48.07528" lon="7.07723">
        <ele>943.3</ele>
      </trkpt>
      <trkpt lat="48.07513" lon="7.07698">
        <ele>943.6</ele>
      </trkpt>
      <trkpt lat="48.07452" lon="7.07621">
        <ele>934.8</ele>
      </trkpt>
      <trkpt lat="48.07418" lon="7.07575">
        <ele>932.9</ele>
        <extensions>
          <visugpx:TrkExtension xmlns:visugpx="https://www.visugpx.com/editgpx/">
            <visugpx:node>279</visugpx:node>
            </visugpx:TrkExtension>
        </extensions>
      </trkpt>
      <trkpt lat="48.07389" lon="7.07533">
        <ele>923.3</ele>
      </trkpt>
      <trkpt lat="48.07375" lon="7.07511">
        <ele>922.1</ele>
      </trkpt>
      <trkpt lat="48.07359" lon="7.07477">
        <ele>930.6</ele>
      </trkpt>
      <trkpt lat="48.07353" lon="7.07468">
        <ele>931.2</ele>
      </trkpt>
      <trkpt lat="48.07347" lon="7.07464">
        <ele>931.1</ele>
      </trkpt>
      <trkpt lat="48.07344" lon="7.07464">
        <ele>930.7</ele>
      </trkpt>
      <trkpt lat="48.0734" lon="7.07466">
        <ele>929.8</ele>
      </trkpt>
      <trkpt lat="48.07332" lon="7.07454">
        <ele>914.3</ele>
      </trkpt>
      <trkpt lat="48.07327" lon="7.07442">
        <ele>917.2</ele>
      </trkpt>
      <trkpt lat="48.07312" lon="7.07405">
        <ele>930.3</ele>
      </trkpt>
      <trkpt lat="48.07289" lon="7.07366">
        <ele>930.8</ele>
      </trkpt>
      <trkpt lat="48.07255" lon="7.07302">
        <ele>945.7</ele>
      </trkpt>
      <trkpt lat="48.07212" lon="7.07242">
        <ele>944.2</ele>
      </trkpt>
      <trkpt lat="48.07198" lon="7.07215">
        <ele>943.8</ele>
      </trkpt>
      <trkpt lat="48.07172" lon="7.07157">
        <ele>949.2</ele>
      </trkpt>
      <trkpt lat="48.07151" lon="7.07099">
        <ele>942.3</ele>
      </trkpt>
      <trkpt lat="48.07133" lon="7.07043">
        <ele>946.1</ele>
      </trkpt>
      <trkpt lat="48.07126" lon="7.07016">
        <ele>946.2</ele>
      </trkpt>
      <trkpt lat="48.07126" lon="7.07005">
        <ele>946.6</ele>
      </trkpt>
      <trkpt lat="48.07129" lon="7.06991">
        <ele>951.7</ele>
      </trkpt>
      <trkpt lat="48.07139" lon="7.06911">
        <ele>958.7</ele>
      </trkpt>
      <trkpt lat="48.07142" lon="7.0688">
        <ele>958.5</ele>
      </trkpt>
      <trkpt lat="48.07128" lon="7.067">
        <ele>968.2</ele>
      </trkpt>
      <trkpt lat="48.07115" lon="7.06596">
        <ele>976.3</ele>
      </trkpt>
      <trkpt lat="48.07114" lon="7.06594">
        <ele>976.1</ele>
        <extensions>
          <visugpx:TrkExtension xmlns:visugpx="https://www.visugpx.com/editgpx/">
            <visugpx:node>281</visugpx:node>
            </visugpx:TrkExtension>
        </extensions>
      </trkpt>
      <trkpt lat="48.07094" lon="7.06538">
        <ele>983.5</ele>
      </trkpt>
      <trkpt lat="48.07049" lon="7.06426">
        <ele>979.1</ele>
      </trkpt>
      <trkpt lat="48.07019" lon="7.06345">
        <ele>983.2</ele>
      </trkpt>
      <trkpt lat="48.07016" lon="7.06334">
        <ele>982.5</ele>
      </trkpt>
      <trkpt lat="48.07015" lon="7.06321">
        <ele>982.6</ele>
      </trkpt>
      <trkpt lat="48.0702" lon="7.06292">
        <ele>983.2</ele>
      </trkpt>
      <trkpt lat="48.07031" lon="7.0627">
        <ele>983.2</ele>
      </trkpt>
      <trkpt lat="48.07048" lon="7.06244">
        <ele>979.1</ele>
      </trkpt>
      <trkpt lat="48.07071" lon="7.0622">
        <ele>980.2</ele>
      </trkpt>
      <trkpt lat="48.07106" lon="7.0619">
        <ele>989.9</ele>
      </trkpt>
      <trkpt lat="48.07169" lon="7.06154">
        <ele>996</ele>
      </trkpt>
      <trkpt lat="48.07201" lon="7.06129">
        <ele>997.7</ele>
      </trkpt>
      <trkpt lat="48.07235" lon="7.06089">
        <ele>1000.4</ele>
      </trkpt>
      <trkpt lat="48.07278" lon="7.06027">
        <ele>1004.4</ele>
      </trkpt>
      <trkpt lat="48.07339" lon="7.0593">
        <ele>1009.6</ele>
      </trkpt>
      <trkpt lat="48.07359" lon="7.05902">
        <ele>1008.2</ele>
      </trkpt>
      <trkpt lat="48.07367" lon="7.05891">
        <ele>1008.9</ele>
      </trkpt>
      <trkpt lat="48.0737" lon="7.05882">
        <ele>1008.9</ele>
      </trkpt>
      <trkpt lat="48.07373" lon="7.05873">
        <ele>1008.8</ele>
      </trkpt>
      <trkpt lat="48.07375" lon="7.05846">
        <ele>1007.9</ele>
      </trkpt>
      <trkpt lat="48.07374" lon="7.05837">
        <ele>1007.7</ele>
      </trkpt>
      <trkpt lat="48.07371" lon="7.05827">
        <ele>1009.6</ele>
      </trkpt>
      <trkpt lat="48.07348" lon="7.05795">
        <ele>1011</ele>
      </trkpt>
      <trkpt lat="48.07337" lon="7.05784">
        <ele>1011.8</ele>
      </trkpt>
      <trkpt lat="48.07307" lon="7.05768">
        <ele>1007.2</ele>
      </trkpt>
      <trkpt lat="48.07294" lon="7.05757">
        <ele>1006.6</ele>
      </trkpt>
      <trkpt lat="48.07245" lon="7.05699">
        <ele>1010.5</ele>
      </trkpt>
      <trkpt lat="48.07221" lon="7.05667">
        <ele>1011</ele>
      </trkpt>
      <trkpt lat="48.0719" lon="7.05617">
        <ele>1016.1</ele>
      </trkpt>
      <trkpt lat="48.07177" lon="7.05586">
        <ele>1015.3</ele>
      </trkpt>
      <trkpt lat="48.07165" lon="7.05538">
        <ele>1010.4</ele>
      </trkpt>
      <trkpt lat="48.07158" lon="7.05496">
        <ele>1016.2</ele>
      </trkpt>
      <trkpt lat="48.07157" lon="7.05476">
        <ele>1013.1</ele>
      </trkpt>
      <trkpt lat="48.07166" lon="7.05369">
        <ele>1013.3</ele>
        <extensions>
          <visugpx:TrkExtension xmlns:visugpx="https://www.visugpx.com/editgpx/">
            <visugpx:node>282</visugpx:node>
            </visugpx:TrkExtension>
        </extensions>
      </trkpt>
      <trkpt lat="48.07167" lon="7.05355">
        <ele>1027.7</ele>
      </trkpt>
      <trkpt lat="48.07172" lon="7.05314">
        <ele>1029.3</ele>
      </trkpt>
      <trkpt lat="48.0718" lon="7.05261">
        <ele>1030.2</ele>
      </trkpt>
      <trkpt lat="48.07181" lon="7.05239">
        <ele>1030.9</ele>
      </trkpt>
      <trkpt lat="48.07178" lon="7.05201">
        <ele>1032.4</ele>
      </trkpt>
      <trkpt lat="48.07184" lon="7.05134">
        <ele>1030.9</ele>
      </trkpt>
      <trkpt lat="48.07194" lon="7.05067">
        <ele>1030.4</ele>
      </trkpt>
      <trkpt lat="48.07194" lon="7.05046">
        <ele>1031.5</ele>
      </trkpt>
      <trkpt lat="48.0719" lon="7.05007">
        <ele>1030.2</ele>
      </trkpt>
      <trkpt lat="48.0719" lon="7.04977">
        <ele>1033.8</ele>
      </trkpt>
      <trkpt lat="48.07189" lon="7.04958">
        <ele>1035.1</ele>
      </trkpt>
      <trkpt lat="48.07185" lon="7.0494">
        <ele>1035</ele>
      </trkpt>
      <trkpt lat="48.07163" lon="7.0486">
        <ele>1017</ele>
      </trkpt>
      <trkpt lat="48.0716" lon="7.04829">
        <ele>1021.2</ele>
      </trkpt>
      <trkpt lat="48.07161" lon="7.04812">
        <ele>1013</ele>
      </trkpt>
      <trkpt lat="48.07175" lon="7.04811">
        <ele>1028.4</ele>
      </trkpt>
      <trkpt lat="48.07201" lon="7.04807">
        <ele>1030</ele>
      </trkpt>
      <trkpt lat="48.07245" lon="7.04792">
        <ele>1032.9</ele>
      </trkpt>
      <trkpt lat="48.07266" lon="7.04788">
        <ele>1045</ele>
      </trkpt>
      <trkpt lat="48.07283" lon="7.04781">
        <ele>1046.1</ele>
      </trkpt>
      <trkpt lat="48.07296" lon="7.04771">
        <ele>1047.2</ele>
      </trkpt>
      <trkpt lat="48.07324" lon="7.0474">
        <ele>1045.8</ele>
      </trkpt>
      <trkpt lat="48.07351" lon="7.04697">
        <ele>1056.9</ele>
      </trkpt>
      <trkpt lat="48.07363" lon="7.04674">
        <ele>1056.7</ele>
        <extensions>
          <visugpx:TrkExtension xmlns:visugpx="https://www.visugpx.com/editgpx/">
            <visugpx:node>283</visugpx:node>
            </visugpx:TrkExtension>
        </extensions>
      </trkpt>
      <trkpt lat="48.07369" lon="7.04661">
        <ele>1050.1</ele>
      </trkpt>
      <trkpt lat="48.07396" lon="7.04617">
        <ele>1052.4</ele>
      </trkpt>
      <trkpt lat="48.07417" lon="7.04593">
        <ele>1065.8</ele>
      </trkpt>
      <trkpt lat="48.07435" lon="7.04568">
        <ele>1067.2</ele>
      </trkpt>
      <trkpt lat="48.07452" lon="7.04534">
        <ele>1070.6</ele>
      </trkpt>
      <trkpt lat="48.07464" lon="7.04494">
        <ele>1068.4</ele>
      </trkpt>
      <trkpt lat="48.07474" lon="7.04434">
        <ele>1069.6</ele>
      </trkpt>
      <trkpt lat="48.07476" lon="7.04406">
        <ele>1072.5</ele>
      </trkpt>
      <trkpt lat="48.07475" lon="7.04399">
        <ele>1072.1</ele>
      </trkpt>
      <trkpt lat="48.07457" lon="7.04343">
        <ele>1070.8</ele>
      </trkpt>
      <trkpt lat="48.07453" lon="7.04315">
        <ele>1078</ele>
      </trkpt>
      <trkpt lat="48.07444" lon="7.04296">
        <ele>1078.3</ele>
      </trkpt>
      <trkpt lat="48.07439" lon="7.04269">
        <ele>1079.6</ele>
      </trkpt>
      <trkpt lat="48.07431" lon="7.04251">
        <ele>1078.9</ele>
      </trkpt>
      <trkpt lat="48.07423" lon="7.04242">
        <ele>1083.2</ele>
      </trkpt>
      <trkpt lat="48.07414" lon="7.04236">
        <ele>1075.6</ele>
      </trkpt>
      <trkpt lat="48.07378" lon="7.04193">
        <ele>1075.6</ele>
      </trkpt>
      <trkpt lat="48.07349" lon="7.04151">
        <ele>1084.8</ele>
      </trkpt>
      <trkpt lat="48.07319" lon="7.04081">
        <ele>1090.4</ele>
      </trkpt>
      <trkpt lat="48.07307" lon="7.04058">
        <ele>1090.7</ele>
      </trkpt>
      <trkpt lat="48.07292" lon="7.04042">
        <ele>1091</ele>
      </trkpt>
      <trkpt lat="48.07281" lon="7.04026">
        <ele>1092.1</ele>
      </trkpt>
      <trkpt lat="48.07279" lon="7.04017">
        <ele>1092.9</ele>
      </trkpt>
      <trkpt lat="48.0728" lon="7.04008">
        <ele>1093.7</ele>
      </trkpt>
      <trkpt lat="48.07274" lon="7.04004">
        <ele>1093.8</ele>
      </trkpt>
      <trkpt lat="48.07257" lon="7.03993">
        <ele>1101.4</ele>
      </trkpt>
      <trkpt lat="48.07219" lon="7.03965">
        <ele>1099</ele>
      </trkpt>
      <trkpt lat="48.07194" lon="7.03938">
        <ele>1099.3</ele>
      </trkpt>
      <trkpt lat="48.07187" lon="7.03923">
        <ele>1099.4</ele>
      </trkpt>
      <trkpt lat="48.07179" lon="7.039">
        <ele>1106.7</ele>
      </trkpt>
      <trkpt lat="48.07173" lon="7.03875">
        <ele>1108.9</ele>
      </trkpt>
      <trkpt lat="48.07171" lon="7.03856">
        <ele>1107.8</ele>
      </trkpt>
      <trkpt lat="48.07171" lon="7.03839">
        <ele>1103.7</ele>
        <extensions>
          <visugpx:TrkExtension xmlns:visugpx="https://www.visugpx.com/editgpx/">
            <visugpx:node>284</visugpx:node>
            </visugpx:TrkExtension>
        </extensions>
      </trkpt>
      <trkpt lat="48.07171" lon="7.03813">
        <ele>1109.8</ele>
      </trkpt>
      <trkpt lat="48.07174" lon="7.03787">
        <ele>1112.1</ele>
      </trkpt>
      <trkpt lat="48.07193" lon="7.03734">
        <ele>1112.9</ele>
      </trkpt>
      <trkpt lat="48.07198" lon="7.03703">
        <ele>1114.7</ele>
      </trkpt>
      <trkpt lat="48.07209" lon="7.03659">
        <ele>1115.4</ele>
      </trkpt>
      <trkpt lat="48.07214" lon="7.03645">
        <ele>1116.8</ele>
      </trkpt>
      <trkpt lat="48.07233" lon="7.03606">
        <ele>1121</ele>
      </trkpt>
      <trkpt lat="48.07248" lon="7.03545">
        <ele>1124.6</ele>
      </trkpt>
      <trkpt lat="48.07249" lon="7.03533">
        <ele>1125.5</ele>
      </trkpt>
      <trkpt lat="48.07245" lon="7.03451">
        <ele>1131.1</ele>
      </trkpt>
      <trkpt lat="48.07245" lon="7.03426">
        <ele>1134.5</ele>
      </trkpt>
      <trkpt lat="48.07241" lon="7.03404">
        <ele>1137</ele>
      </trkpt>
      <trkpt lat="48.07233" lon="7.0338">
        <ele>1137.1</ele>
      </trkpt>
      <trkpt lat="48.07233" lon="7.03371">
        <ele>1137.7</ele>
      </trkpt>
      <trkpt lat="48.07225" lon="7.03332">
        <ele>1148.9</ele>
      </trkpt>
      <trkpt lat="48.07223" lon="7.03326">
        <ele>1149.3</ele>
      </trkpt>
      <trkpt lat="48.07229" lon="7.03328">
        <ele>1149.1</ele>
      </trkpt>
      <trkpt lat="48.07233" lon="7.03329">
        <ele>1148.8</ele>
      </trkpt>
      <trkpt lat="48.07235" lon="7.03321">
        <ele>1149.5</ele>
      </trkpt>
      <trkpt lat="48.07234" lon="7.03301">
        <ele>1152.5</ele>
      </trkpt>
      <trkpt lat="48.07229" lon="7.03293">
        <ele>1153.7</ele>
      </trkpt>
      <trkpt lat="48.07212" lon="7.03279">
        <ele>1154.5</ele>
      </trkpt>
      <trkpt lat="48.07185" lon="7.03241">
        <ele>1170.3</ele>
      </trkpt>
      <trkpt lat="48.07172" lon="7.03238">
        <ele>1167</ele>
      </trkpt>
      <trkpt lat="48.0716" lon="7.03237">
        <ele>1165.2</ele>
      </trkpt>
      <trkpt lat="48.0714" lon="7.03228">
        <ele>1170.7</ele>
      </trkpt>
      <trkpt lat="48.07131" lon="7.03232">
        <ele>1171</ele>
      </trkpt>
      <trkpt lat="48.0712" lon="7.03242">
        <ele>1171</ele>
      </trkpt>
      <trkpt lat="48.07109" lon="7.03248">
        <ele>1171</ele>
      </trkpt>
      <trkpt lat="48.07093" lon="7.03249">
        <ele>1170.3</ele>
      </trkpt>
      <trkpt lat="48.0708" lon="7.03251">
        <ele>1168.7</ele>
      </trkpt>
      <trkpt lat="48.07069" lon="7.03246">
        <ele>1175.4</ele>
      </trkpt>
      <trkpt lat="48.07051" lon="7.03232">
        <ele>1180.5</ele>
      </trkpt>
      <trkpt lat="48.07032" lon="7.03227">
        <ele>1183</ele>
      </trkpt>
      <trkpt lat="48.07007" lon="7.0323">
        <ele>1184.3</ele>
      </trkpt>
      <trkpt lat="48.06989" lon="7.03238">
        <ele>1188.6</ele>
      </trkpt>
      <trkpt lat="48.06963" lon="7.03244">
        <ele>1190.5</ele>
      </trkpt>
      <trkpt lat="48.06973" lon="7.03204">
        <ele>1193.8</ele>
        <extensions>
          <visugpx:TrkExtension xmlns:visugpx="https://www.visugpx.com/editgpx/">
            <visugpx:node>285</visugpx:node>
            </visugpx:TrkExtension>
        </extensions>
      </trkpt>
      <trkpt lat="48.06973" lon="7.03204">
        <ele>1193.8</ele>
      </trkpt>
      <trkpt lat="48.06934" lon="7.03252">
        <ele>1178</ele>
      </trkpt>
      <trkpt lat="48.06915" lon="7.03205">
        <ele>1188.2</ele>
      </trkpt>
      <trkpt lat="48.06902" lon="7.03182">
        <ele>1192.5</ele>
      </trkpt>
      <trkpt lat="48.06886" lon="7.03142">
        <ele>1208.6</ele>
      </trkpt>
      <trkpt lat="48.06856" lon="7.03102">
        <ele>1213.3</ele>
      </trkpt>
      <trkpt lat="48.0684" lon="7.03103">
        <ele>1213</ele>
      </trkpt>
      <trkpt lat="48.06818" lon="7.03088">
        <ele>1208.7</ele>
      </trkpt>
      <trkpt lat="48.06803" lon="7.03087">
        <ele>1204.9</ele>
      </trkpt>
      <trkpt lat="48.06757" lon="7.03098">
        <ele>1206.4</ele>
      </trkpt>
      <trkpt lat="48.06747" lon="7.03104">
        <ele>1207</ele>
      </trkpt>
      <trkpt lat="48.06738" lon="7.03113">
        <ele>1203.6</ele>
      </trkpt>
      <trkpt lat="48.0672" lon="7.03124">
        <ele>1200.9</ele>
      </trkpt>
      <trkpt lat="48.06696" lon="7.03157">
        <ele>1195.9</ele>
      </trkpt>
      <trkpt lat="48.06675" lon="7.03173">
        <ele>1182.4</ele>
        <extensions>
          <visugpx:TrkExtension xmlns:visugpx="https://www.visugpx.com/editgpx/">
            <visugpx:node>286</visugpx:node>
            </visugpx:TrkExtension>
        </extensions>
      </trkpt>
      <trkpt lat="48.06672" lon="7.03176">
        <ele>1182.3</ele>
      </trkpt>
      <trkpt lat="48.06658" lon="7.032">
        <ele>1186</ele>
      </trkpt>
      <trkpt lat="48.06654" lon="7.03218">
        <ele>1182.3</ele>
      </trkpt>
      <trkpt lat="48.06645" lon="7.03238">
        <ele>1179</ele>
      </trkpt>
      <trkpt lat="48.06639" lon="7.03261">
        <ele>1164.1</ele>
      </trkpt>
      <trkpt lat="48.06625" lon="7.03277">
        <ele>1164.1</ele>
      </trkpt>
      <trkpt lat="48.06616" lon="7.03284">
        <ele>1164.3</ele>
      </trkpt>
      <trkpt lat="48.06611" lon="7.03273">
        <ele>1167</ele>
      </trkpt>
      <trkpt lat="48.0659" lon="7.03273">
        <ele>1170.7</ele>
      </trkpt>
      <trkpt lat="48.06568" lon="7.03289">
        <ele>1177.7</ele>
      </trkpt>
      <trkpt lat="48.06556" lon="7.03305">
        <ele>1175.9</ele>
      </trkpt>
      <trkpt lat="48.06537" lon="7.03322">
        <ele>1176.9</ele>
      </trkpt>
      <trkpt lat="48.06505" lon="7.03362">
        <ele>1167.5</ele>
      </trkpt>
      <trkpt lat="48.06492" lon="7.0337">
        <ele>1163.2</ele>
      </trkpt>
      <trkpt lat="48.06483" lon="7.03366">
        <ele>1162.6</ele>
      </trkpt>
      <trkpt lat="48.06473" lon="7.03362">
        <ele>1161.3</ele>
      </trkpt>
      <trkpt lat="48.06469" lon="7.03357">
        <ele>1161.1</ele>
      </trkpt>
      <trkpt lat="48.06466" lon="7.0335">
        <ele>1161.1</ele>
      </trkpt>
      <trkpt lat="48.06465" lon="7.03341">
        <ele>1161.5</ele>
      </trkpt>
      <trkpt lat="48.06468" lon="7.03336">
        <ele>1162.7</ele>
      </trkpt>
      <trkpt lat="48.06471" lon="7.03336">
        <ele>1163.7</ele>
      </trkpt>
      <trkpt lat="48.06483" lon="7.03353">
        <ele>1165.2</ele>
      </trkpt>
      <trkpt lat="48.06489" lon="7.03353">
        <ele>1166.7</ele>
      </trkpt>
      <trkpt lat="48.06493" lon="7.03349">
        <ele>1168.9</ele>
      </trkpt>
      <trkpt lat="48.06495" lon="7.03339">
        <ele>1174</ele>
      </trkpt>
      <trkpt lat="48.06496" lon="7.03334">
        <ele>1176.5</ele>
      </trkpt>
      <trkpt lat="48.0651" lon="7.03284">
        <ele>1183.3</ele>
      </trkpt>
      <trkpt lat="48.06515" lon="7.03259">
        <ele>1187.5</ele>
      </trkpt>
      <trkpt lat="48.06533" lon="7.03237">
        <ele>1196.7</ele>
        <extensions>
          <visugpx:TrkExtension xmlns:visugpx="https://www.visugpx.com/editgpx/">
            <visugpx:node>287</visugpx:node>
            </visugpx:TrkExtension>
        </extensions>
      </trkpt>
      <trkpt lat="48.06557" lon="7.03207">
        <ele>1199.2</ele>
      </trkpt>
      <trkpt lat="48.06555" lon="7.03198">
        <ele>1200.5</ele>
      </trkpt>
      <trkpt lat="48.06514" lon="7.03211">
        <ele>1198.8</ele>
      </trkpt>
      <trkpt lat="48.06521" lon="7.032">
        <ele>1199.7</ele>
      </trkpt>
      <trkpt lat="48.06531" lon="7.03185">
        <ele>1201</ele>
      </trkpt>
      <trkpt lat="48.06544" lon="7.03159">
        <ele>1212.5</ele>
      </trkpt>
      <trkpt lat="48.06549" lon="7.03151">
        <ele>1213.4</ele>
      </trkpt>
      <trkpt lat="48.06563" lon="7.03142">
        <ele>1214.9</ele>
      </trkpt>
      <trkpt lat="48.06565" lon="7.03139">
        <ele>1215.3</ele>
      </trkpt>
      <trkpt lat="48.06564" lon="7.03135">
        <ele>1215.7</ele>
      </trkpt>
      <trkpt lat="48.06561" lon="7.03133">
        <ele>1215.7</ele>
      </trkpt>
      <trkpt lat="48.06548" lon="7.03134">
        <ele>1214.5</ele>
      </trkpt>
      <trkpt lat="48.06526" lon="7.03116">
        <ele>1213.1</ele>
      </trkpt>
      <trkpt lat="48.06522" lon="7.03107">
        <ele>1212.7</ele>
        <extensions>
          <visugpx:TrkExtension xmlns:visugpx="https://www.visugpx.com/editgpx/">
            <visugpx:node>288</visugpx:node>
            </visugpx:TrkExtension>
        </extensions>
      </trkpt>
      <trkpt lat="48.06521" lon="7.03104">
        <ele>1212.5</ele>
      </trkpt>
      <trkpt lat="48.0652" lon="7.03095">
        <ele>1212</ele>
      </trkpt>
      <trkpt lat="48.0652" lon="7.03084">
        <ele>1211.8</ele>
      </trkpt>
      <trkpt lat="48.06523" lon="7.03055">
        <ele>1217.8</ele>
      </trkpt>
      <trkpt lat="48.06545" lon="7.02962">
        <ele>1222.8</ele>
      </trkpt>
      <trkpt lat="48.06543" lon="7.02934">
        <ele>1221.9</ele>
      </trkpt>
      <trkpt lat="48.0654" lon="7.02908">
        <ele>1217.7</ele>
      </trkpt>
      <trkpt lat="48.06541" lon="7.02904">
        <ele>1218</ele>
      </trkpt>
      <trkpt lat="48.06546" lon="7.02898">
        <ele>1219.6</ele>
      </trkpt>
      <trkpt lat="48.06548" lon="7.029">
        <ele>1220.5</ele>
      </trkpt>
      <trkpt lat="48.0655" lon="7.02903">
        <ele>1221.5</ele>
      </trkpt>
      <trkpt lat="48.06552" lon="7.02918">
        <ele>1225.9</ele>
      </trkpt>
      <trkpt lat="48.06558" lon="7.02921">
        <ele>1228.5</ele>
      </trkpt>
      <trkpt lat="48.0656" lon="7.0292">
        <ele>1229.5</ele>
      </trkpt>
      <trkpt lat="48.06563" lon="7.02897">
        <ele>1225.7</ele>
      </trkpt>
      <trkpt lat="48.06562" lon="7.02889">
        <ele>1223.9</ele>
      </trkpt>
      <trkpt lat="48.06566" lon="7.02881">
        <ele>1223.8</ele>
      </trkpt>
      <trkpt lat="48.06569" lon="7.02879">
        <ele>1224.2</ele>
      </trkpt>
      <trkpt lat="48.06572" lon="7.0288">
        <ele>1224.8</ele>
      </trkpt>
      <trkpt lat="48.06579" lon="7.02882">
        <ele>1226.2</ele>
      </trkpt>
      <trkpt lat="48.06562" lon="7.02816">
        <ele>1219.2</ele>
      </trkpt>
      <trkpt lat="48.06527" lon="7.02673">
        <ele>1205.4</ele>
        <extensions>
          <visugpx:TrkExtension xmlns:visugpx="https://www.visugpx.com/editgpx/">
            <visugpx:node>289</visugpx:node>
            </visugpx:TrkExtension>
        </extensions>
      </trkpt>
      <trkpt lat="48.06514" lon="7.02619">
        <ele>1197.7</ele>
      </trkpt>
      <trkpt lat="48.0644" lon="7.02454">
        <ele>1160.4</ele>
      </trkpt>
      <trkpt lat="48.06423" lon="7.02413">
        <ele>1153.7</ele>
      </trkpt>
      <trkpt lat="48.06417" lon="7.02396">
        <ele>1153.9</ele>
      </trkpt>
      <trkpt lat="48.06414" lon="7.02394">
        <ele>1149.8</ele>
      </trkpt>
      <trkpt lat="48.06406" lon="7.02391">
        <ele>1149.4</ele>
      </trkpt>
      <trkpt lat="48.06406" lon="7.02378">
        <ele>1148.6</ele>
      </trkpt>
      <trkpt lat="48.06395" lon="7.02374">
        <ele>1148.3</ele>
        <extensions>
          <visugpx:TrkExtension xmlns:visugpx="https://www.visugpx.com/editgpx/">
            <visugpx:node>290</visugpx:node>
            </visugpx:TrkExtension>
        </extensions>
      </trkpt>
      <trkpt lat="48.06395" lon="7.02366">
        <ele>1148</ele>
      </trkpt>
      <trkpt lat="48.06377" lon="7.02318">
        <ele>1145</ele>
      </trkpt>
      <trkpt lat="48.06377" lon="7.02295">
        <ele>1144.3</ele>
      </trkpt>
      <trkpt lat="48.06371" lon="7.02294">
        <ele>1144.4</ele>
      </trkpt>
      <trkpt lat="48.06368" lon="7.02311">
        <ele>1145</ele>
      </trkpt>
      <trkpt lat="48.06357" lon="7.02384">
        <ele>1147.6</ele>
      </trkpt>
      <trkpt lat="48.0633" lon="7.02397">
        <ele>1149.7</ele>
      </trkpt>
      <trkpt lat="48.06302" lon="7.02435">
        <ele>1143.7</ele>
      </trkpt>
      <trkpt lat="48.06287" lon="7.0245">
        <ele>1143.2</ele>
      </trkpt>
      <trkpt lat="48.06283" lon="7.02454">
        <ele>1142.9</ele>
      </trkpt>
      <trkpt lat="48.06273" lon="7.02471">
        <ele>1140.8</ele>
      </trkpt>
      <trkpt lat="48.06264" lon="7.02479">
        <ele>1139.5</ele>
      </trkpt>
      <trkpt lat="48.06252" lon="7.02484">
        <ele>1138.2</ele>
      </trkpt>
      <trkpt lat="48.06248" lon="7.0249">
        <ele>1142</ele>
        <extensions>
          <visugpx:TrkExtension xmlns:visugpx="https://www.visugpx.com/editgpx/">
            <visugpx:node>291</visugpx:node>
            </visugpx:TrkExtension>
        </extensions>
      </trkpt>
      <trkpt lat="48.06233" lon="7.02509">
        <ele>1132.6</ele>
      </trkpt>
      <trkpt lat="48.06209" lon="7.0253">
        <ele>1132.5</ele>
      </trkpt>
      <trkpt lat="48.06202" lon="7.02539">
        <ele>1131.8</ele>
      </trkpt>
      <trkpt lat="48.06196" lon="7.02549">
        <ele>1130.6</ele>
      </trkpt>
      <trkpt lat="48.06187" lon="7.02578">
        <ele>1127.2</ele>
      </trkpt>
      <trkpt lat="48.06181" lon="7.02588">
        <ele>1109.1</ele>
      </trkpt>
      <trkpt lat="48.06154" lon="7.02591">
        <ele>1113.3</ele>
      </trkpt>
      <trkpt lat="48.06148" lon="7.02596">
        <ele>1109.1</ele>
      </trkpt>
      <trkpt lat="48.06144" lon="7.02603">
        <ele>1105.6</ele>
      </trkpt>
      <trkpt lat="48.06132" lon="7.02603">
        <ele>1104.2</ele>
      </trkpt>
      <trkpt lat="48.06122" lon="7.02612">
        <ele>1101.3</ele>
      </trkpt>
      <trkpt lat="48.0612" lon="7.02613">
        <ele>1101</ele>
      </trkpt>
      <trkpt lat="48.06116" lon="7.02602">
        <ele>1105</ele>
      </trkpt>
      <trkpt lat="48.06111" lon="7.0259">
        <ele>1109.2</ele>
      </trkpt>
      <trkpt lat="48.06099" lon="7.02591">
        <ele>1113.3</ele>
      </trkpt>
      <trkpt lat="48.06092" lon="7.02598">
        <ele>1112.5</ele>
      </trkpt>
      <trkpt lat="48.06089" lon="7.02614">
        <ele>1103</ele>
        <extensions>
          <visugpx:TrkExtension xmlns:visugpx="https://www.visugpx.com/editgpx/">
            <visugpx:node>292</visugpx:node>
            </visugpx:TrkExtension>
        </extensions>
      </trkpt>
      <trkpt lat="48.06089" lon="7.02614">
        <ele>1103</ele>
      </trkpt>
      <trkpt lat="48.06082" lon="7.02623">
        <ele>1088.5</ele>
      </trkpt>
      <trkpt lat="48.06062" lon="7.02615">
        <ele>1089.9</ele>
      </trkpt>
      <trkpt lat="48.06052" lon="7.02614">
        <ele>1087.9</ele>
      </trkpt>
      <trkpt lat="48.06041" lon="7.0261">
        <ele>1086.8</ele>
      </trkpt>
      <trkpt lat="48.06033" lon="7.02604">
        <ele>1087.1</ele>
      </trkpt>
      <trkpt lat="48.06026" lon="7.02594">
        <ele>1088.9</ele>
      </trkpt>
      <trkpt lat="48.06022" lon="7.0257">
        <ele>1123.2</ele>
      </trkpt>
      <trkpt lat="48.06012" lon="7.02562">
        <ele>1123</ele>
      </trkpt>
      <trkpt lat="48.06006" lon="7.02552">
        <ele>1127.9</ele>
      </trkpt>
      <trkpt lat="48.05996" lon="7.02547">
        <ele>1114.4</ele>
      </trkpt>
      <trkpt lat="48.05984" lon="7.02535">
        <ele>1119.2</ele>
      </trkpt>
      <trkpt lat="48.05979" lon="7.02534">
        <ele>1118.8</ele>
      </trkpt>
      <trkpt lat="48.05972" lon="7.02527">
        <ele>1120.4</ele>
      </trkpt>
      <trkpt lat="48.05963" lon="7.02521">
        <ele>1120.4</ele>
      </trkpt>
      <trkpt lat="48.05953" lon="7.02524">
        <ele>1117.9</ele>
      </trkpt>
      <trkpt lat="48.05946" lon="7.02526">
        <ele>1116.7</ele>
      </trkpt>
      <trkpt lat="48.05936" lon="7.02521">
        <ele>1118.1</ele>
      </trkpt>
      <trkpt lat="48.05927" lon="7.02514">
        <ele>1121.5</ele>
      </trkpt>
      <trkpt lat="48.0592" lon="7.02504">
        <ele>1127.5</ele>
      </trkpt>
      <trkpt lat="48.05922" lon="7.02501">
        <ele>1127.5</ele>
      </trkpt>
      <trkpt lat="48.05943" lon="7.02498">
        <ele>1150.9</ele>
      </trkpt>
      <trkpt lat="48.05937" lon="7.02491">
        <ele>1149.7</ele>
      </trkpt>
      <trkpt lat="48.05927" lon="7.02484">
        <ele>1148.5</ele>
      </trkpt>
      <trkpt lat="48.05918" lon="7.02482">
        <ele>1147.8</ele>
      </trkpt>
      <trkpt lat="48.05919" lon="7.02494">
        <ele>1138.4</ele>
      </trkpt>
      <trkpt lat="48.05907" lon="7.025">
        <ele>1126</ele>
      </trkpt>
      <trkpt lat="48.05898" lon="7.02493">
        <ele>1146</ele>
      </trkpt>
      <trkpt lat="48.05885" lon="7.02475">
        <ele>1153.9</ele>
      </trkpt>
      <trkpt lat="48.05882" lon="7.02473">
        <ele>1154.8</ele>
      </trkpt>
      <trkpt lat="48.0587" lon="7.02471">
        <ele>1156.3</ele>
      </trkpt>
      <trkpt lat="48.0586" lon="7.02479">
        <ele>1155</ele>
      </trkpt>
      <trkpt lat="48.05853" lon="7.02494">
        <ele>1152.1</ele>
      </trkpt>
      <trkpt lat="48.05854" lon="7.0251">
        <ele>1128.2</ele>
      </trkpt>
      <trkpt lat="48.05857" lon="7.02523">
        <ele>1123.3</ele>
      </trkpt>
      <trkpt lat="48.0586" lon="7.02531">
        <ele>1120.3</ele>
      </trkpt>
      <trkpt lat="48.0586" lon="7.02533">
        <ele>1119.7</ele>
      </trkpt>
      <trkpt lat="48.05859" lon="7.02534">
        <ele>1119.5</ele>
      </trkpt>
      <trkpt lat="48.05858" lon="7.02534">
        <ele>1119.7</ele>
      </trkpt>
      <trkpt lat="48.0585" lon="7.02531">
        <ele>1122</ele>
      </trkpt>
      <trkpt lat="48.05841" lon="7.0252">
        <ele>1128.4</ele>
      </trkpt>
      <trkpt lat="48.05832" lon="7.02514">
        <ele>1144.4</ele>
      </trkpt>
      <trkpt lat="48.05826" lon="7.02516">
        <ele>1144.3</ele>
      </trkpt>
      <trkpt lat="48.05822" lon="7.02525">
        <ele>1143</ele>
      </trkpt>
      <trkpt lat="48.05809" lon="7.02533">
        <ele>1142.8</ele>
      </trkpt>
      <trkpt lat="48.05808" lon="7.02535">
        <ele>1142.6</ele>
      </trkpt>
      <trkpt lat="48.05802" lon="7.02565">
        <ele>1136.8</ele>
      </trkpt>
      <trkpt lat="48.05793" lon="7.02575">
        <ele>1137.9</ele>
      </trkpt>
      <trkpt lat="48.05767" lon="7.02591">
        <ele>1123.8</ele>
      </trkpt>
      <trkpt lat="48.05756" lon="7.02603">
        <ele>1122.5</ele>
      </trkpt>
      <trkpt lat="48.05744" lon="7.0263">
        <ele>1138.1</ele>
      </trkpt>
      <trkpt lat="48.05741" lon="7.02643">
        <ele>1133.1</ele>
      </trkpt>
      <trkpt lat="48.05717" lon="7.02674">
        <ele>1119.2</ele>
      </trkpt>
      <trkpt lat="48.05708" lon="7.02693">
        <ele>1120</ele>
      </trkpt>
      <trkpt lat="48.05703" lon="7.02719">
        <ele>1116.3</ele>
      </trkpt>
      <trkpt lat="48.05696" lon="7.02731">
        <ele>1116.1</ele>
      </trkpt>
      <trkpt lat="48.05691" lon="7.02753">
        <ele>1096.9</ele>
      </trkpt>
      <trkpt lat="48.05687" lon="7.02757">
        <ele>1098.4</ele>
      </trkpt>
      <trkpt lat="48.05677" lon="7.02756">
        <ele>1105.4</ele>
      </trkpt>
      <trkpt lat="48.05653" lon="7.02766">
        <ele>1115.3</ele>
      </trkpt>
      <trkpt lat="48.05643" lon="7.02777">
        <ele>1113.7</ele>
      </trkpt>
      <trkpt lat="48.05619" lon="7.02781">
        <ele>1116.4</ele>
      </trkpt>
      <trkpt lat="48.056" lon="7.02796">
        <ele>1114.8</ele>
      </trkpt>
      <trkpt lat="48.05593" lon="7.028">
        <ele>1114.1</ele>
        <extensions>
          <visugpx:TrkExtension xmlns:visugpx="https://www.visugpx.com/editgpx/">
            <visugpx:node>293</visugpx:node>
            </visugpx:TrkExtension>
        </extensions>
      </trkpt>
      <trkpt lat="48.05588" lon="7.02803">
        <ele>1113.4</ele>
      </trkpt>
      <trkpt lat="48.05575" lon="7.02807">
        <ele>1122.4</ele>
      </trkpt>
      <trkpt lat="48.05565" lon="7.02804">
        <ele>1124.7</ele>
      </trkpt>
      <trkpt lat="48.05556" lon="7.02811">
        <ele>1123.7</ele>
      </trkpt>
      <trkpt lat="48.05548" lon="7.02823">
        <ele>1122.4</ele>
      </trkpt>
      <trkpt lat="48.05547" lon="7.02827">
        <ele>1121.9</ele>
      </trkpt>
      <trkpt lat="48.05544" lon="7.02852">
        <ele>1092.6</ele>
      </trkpt>
      <trkpt lat="48.05524" lon="7.0286">
        <ele>1092.5</ele>
      </trkpt>
      <trkpt lat="48.05524" lon="7.02864">
        <ele>1091.2</ele>
      </trkpt>
      <trkpt lat="48.05516" lon="7.02864">
        <ele>1092</ele>
      </trkpt>
      <trkpt lat="48.05517" lon="7.02876">
        <ele>1087.6</ele>
      </trkpt>
      <trkpt lat="48.05519" lon="7.02884">
        <ele>1084.9</ele>
      </trkpt>
      <trkpt lat="48.05522" lon="7.02895">
        <ele>1081.7</ele>
      </trkpt>
      <trkpt lat="48.05514" lon="7.02874">
        <ele>1088.4</ele>
      </trkpt>
      <trkpt lat="48.05518" lon="7.0289">
        <ele>1082.9</ele>
      </trkpt>
      <trkpt lat="48.05508" lon="7.02875">
        <ele>1088.2</ele>
      </trkpt>
      <trkpt lat="48.05514" lon="7.02897">
        <ele>1080.2</ele>
      </trkpt>
      <trkpt lat="48.055" lon="7.02875">
        <ele>1092.9</ele>
      </trkpt>
      <trkpt lat="48.05488" lon="7.02869">
        <ele>1095.4</ele>
      </trkpt>
      <trkpt lat="48.05478" lon="7.02861">
        <ele>1097.6</ele>
      </trkpt>
      <trkpt lat="48.05468" lon="7.02859">
        <ele>1097.7</ele>
      </trkpt>
      <trkpt lat="48.05445" lon="7.02861">
        <ele>1097.8</ele>
      </trkpt>
      <trkpt lat="48.05435" lon="7.0286">
        <ele>1098.6</ele>
      </trkpt>
      <trkpt lat="48.05427" lon="7.02858">
        <ele>1099.5</ele>
      </trkpt>
      <trkpt lat="48.05421" lon="7.02869">
        <ele>1097.6</ele>
      </trkpt>
      <trkpt lat="48.05421" lon="7.02882">
        <ele>1095.3</ele>
      </trkpt>
      <trkpt lat="48.05417" lon="7.02897">
        <ele>1093.2</ele>
      </trkpt>
      <trkpt lat="48.05418" lon="7.02912">
        <ele>1091.5</ele>
      </trkpt>
      <trkpt lat="48.05421" lon="7.02926">
        <ele>1081.5</ele>
      </trkpt>
      <trkpt lat="48.05429" lon="7.02909">
        <ele>1091.9</ele>
      </trkpt>
      <trkpt lat="48.05433" lon="7.02905">
        <ele>1092.2</ele>
      </trkpt>
      <trkpt lat="48.05435" lon="7.02896">
        <ele>1093</ele>
      </trkpt>
      <trkpt lat="48.05439" lon="7.02889">
        <ele>1093.7</ele>
      </trkpt>
      <trkpt lat="48.05441" lon="7.02889">
        <ele>1093.6</ele>
      </trkpt>
      <trkpt lat="48.05447" lon="7.02896">
        <ele>1092.3</ele>
      </trkpt>
      <trkpt lat="48.05453" lon="7.02907">
        <ele>1090.4</ele>
      </trkpt>
      <trkpt lat="48.05472" lon="7.02921">
        <ele>1065.8</ele>
      </trkpt>
      <trkpt lat="48.05478" lon="7.02934">
        <ele>1063.7</ele>
      </trkpt>
      <trkpt lat="48.05503" lon="7.0296">
        <ele>1044.7</ele>
      </trkpt>
      <trkpt lat="48.05494" lon="7.02965">
        <ele>1053.6</ele>
      </trkpt>
      <trkpt lat="48.05487" lon="7.02964">
        <ele>1055</ele>
      </trkpt>
      <trkpt lat="48.0547" lon="7.02953">
        <ele>1061</ele>
      </trkpt>
      <trkpt lat="48.05459" lon="7.02952">
        <ele>1063.2</ele>
      </trkpt>
      <trkpt lat="48.0545" lon="7.02965">
        <ele>1062.4</ele>
      </trkpt>
      <trkpt lat="48.05443" lon="7.02985">
        <ele>1061.2</ele>
      </trkpt>
      <trkpt lat="48.05441" lon="7.02999">
        <ele>1060.8</ele>
      </trkpt>
      <trkpt lat="48.05443" lon="7.03017">
        <ele>1033.7</ele>
      </trkpt>
      <trkpt lat="48.05438" lon="7.03046">
        <ele>1024.7</ele>
      </trkpt>
      <trkpt lat="48.05431" lon="7.03062">
        <ele>1021.5</ele>
      </trkpt>
      <trkpt lat="48.05418" lon="7.03075">
        <ele>1020</ele>
      </trkpt>
      <trkpt lat="48.05396" lon="7.03081">
        <ele>1038.4</ele>
      </trkpt>
      <trkpt lat="48.05382" lon="7.03079">
        <ele>1044.7</ele>
      </trkpt>
      <trkpt lat="48.05372" lon="7.03074">
        <ele>1047.8</ele>
      </trkpt>
      <trkpt lat="48.05367" lon="7.03081">
        <ele>1047.6</ele>
      </trkpt>
      <trkpt lat="48.05365" lon="7.0312">
        <ele>1008.3</ele>
      </trkpt>
      <trkpt lat="48.0536" lon="7.03102">
        <ele>1015.5</ele>
      </trkpt>
      <trkpt lat="48.05359" lon="7.03114">
        <ele>1011.6</ele>
      </trkpt>
      <trkpt lat="48.05359" lon="7.03127">
        <ele>1007</ele>
      </trkpt>
      <trkpt lat="48.05357" lon="7.03138">
        <ele>1003.9</ele>
      </trkpt>
      <trkpt lat="48.05357" lon="7.03138">
        <ele>1003.9</ele>
      </trkpt>
      <trkpt lat="48.05354" lon="7.03137">
        <ele>1004.5</ele>
      </trkpt>
      <trkpt lat="48.05333" lon="7.0312">
        <ele>1017.2</ele>
      </trkpt>
      <trkpt lat="48.05329" lon="7.03123">
        <ele>1015.7</ele>
      </trkpt>
      <trkpt lat="48.0532" lon="7.03119">
        <ele>1016.8</ele>
      </trkpt>
      <trkpt lat="48.05282" lon="7.03093">
        <ele>1019.9</ele>
      </trkpt>
      <trkpt lat="48.05285" lon="7.03099">
        <ele>1018.8</ele>
      </trkpt>
      <trkpt lat="48.05283" lon="7.03099">
        <ele>1018.7</ele>
      </trkpt>
      <trkpt lat="48.05281" lon="7.03097">
        <ele>1019.1</ele>
      </trkpt>
      <trkpt lat="48.05273" lon="7.0307">
        <ele>1050.6</ele>
      </trkpt>
      <trkpt lat="48.05263" lon="7.03062">
        <ele>1051</ele>
      </trkpt>
      <trkpt lat="48.0525" lon="7.03057">
        <ele>1052</ele>
      </trkpt>
      <trkpt lat="48.05244" lon="7.03068">
        <ele>1042.8</ele>
      </trkpt>
      <trkpt lat="48.05225" lon="7.03088">
        <ele>1012.7</ele>
      </trkpt>
      <trkpt lat="48.05215" lon="7.03085">
        <ele>1010.8</ele>
      </trkpt>
      <trkpt lat="48.05206" lon="7.03089">
        <ele>1009.4</ele>
      </trkpt>
      <trkpt lat="48.05202" lon="7.03092">
        <ele>1008.8</ele>
      </trkpt>
      <trkpt lat="48.05197" lon="7.03097">
        <ele>1008</ele>
      </trkpt>
      <trkpt lat="48.05186" lon="7.03102">
        <ele>1007.8</ele>
      </trkpt>
      <trkpt lat="48.05167" lon="7.03107">
        <ele>1007.2</ele>
      </trkpt>
      <trkpt lat="48.05148" lon="7.03107">
        <ele>998.5</ele>
      </trkpt>
      <trkpt lat="48.05138" lon="7.03104">
        <ele>997.5</ele>
      </trkpt>
      <trkpt lat="48.05129" lon="7.03095">
        <ele>998.3</ele>
      </trkpt>
      <trkpt lat="48.05118" lon="7.03078">
        <ele>1035</ele>
      </trkpt>
      <trkpt lat="48.05112" lon="7.03073">
        <ele>1034.4</ele>
      </trkpt>
      <trkpt lat="48.051" lon="7.0307">
        <ele>1030.8</ele>
      </trkpt>
      <trkpt lat="48.05092" lon="7.03072">
        <ele>1026</ele>
      </trkpt>
      <trkpt lat="48.05081" lon="7.03068">
        <ele>1024.9</ele>
      </trkpt>
      <trkpt lat="48.05069" lon="7.03068">
        <ele>1028</ele>
      </trkpt>
      <trkpt lat="48.05058" lon="7.0306">
        <ele>1033.8</ele>
      </trkpt>
      <trkpt lat="48.05051" lon="7.03052">
        <ele>1037.2</ele>
      </trkpt>
      <trkpt lat="48.05049" lon="7.0305">
        <ele>1037.9</ele>
      </trkpt>
      <trkpt lat="48.05027" lon="7.03051">
        <ele>1038.4</ele>
      </trkpt>
      <trkpt lat="48.05015" lon="7.03052">
        <ele>1038</ele>
      </trkpt>
      <trkpt lat="48.05004" lon="7.0306">
        <ele>1035.4</ele>
      </trkpt>
      <trkpt lat="48.04981" lon="7.03089">
        <ele>1017.7</ele>
        <extensions>
          <visugpx:TrkExtension xmlns:visugpx="https://www.visugpx.com/editgpx/">
            <visugpx:node>294</visugpx:node>
            </visugpx:TrkExtension>
        </extensions>
      </trkpt>
      <trkpt lat="48.04981" lon="7.03089">
        <ele>1017.7</ele>
      </trkpt>
      <trkpt lat="48.04965" lon="7.03104">
        <ele>1013.6</ele>
      </trkpt>
      <trkpt lat="48.04969" lon="7.03086">
        <ele>1016</ele>
      </trkpt>
      <trkpt lat="48.04968" lon="7.03085">
        <ele>1016</ele>
      </trkpt>
      <trkpt lat="48.04952" lon="7.03094">
        <ele>1014.7</ele>
      </trkpt>
      <trkpt lat="48.04936" lon="7.03082">
        <ele>1031.2</ele>
      </trkpt>
      <trkpt lat="48.04921" lon="7.0306">
        <ele>1033.8</ele>
      </trkpt>
      <trkpt lat="48.04917" lon="7.03053">
        <ele>1035.8</ele>
      </trkpt>
      <trkpt lat="48.04913" lon="7.0305">
        <ele>1021.1</ele>
      </trkpt>
      <trkpt lat="48.04915" lon="7.03058">
        <ele>1020.4</ele>
      </trkpt>
      <trkpt lat="48.0491" lon="7.0305">
        <ele>1020.8</ele>
      </trkpt>
      <trkpt lat="48.04909" lon="7.03051">
        <ele>1020.5</ele>
      </trkpt>
      <trkpt lat="48.04913" lon="7.03061">
        <ele>1020</ele>
      </trkpt>
      <trkpt lat="48.04905" lon="7.03056">
        <ele>1019.3</ele>
      </trkpt>
      <trkpt lat="48.04891" lon="7.03047">
        <ele>1017.8</ele>
      </trkpt>
      <trkpt lat="48.04879" lon="7.03034">
        <ele>1016.9</ele>
      </trkpt>
      <trkpt lat="48.0487" lon="7.03029">
        <ele>1015.1</ele>
      </trkpt>
      <trkpt lat="48.04858" lon="7.03015">
        <ele>1013</ele>
      </trkpt>
      <trkpt lat="48.04847" lon="7.02997">
        <ele>1020.2</ele>
      </trkpt>
      <trkpt lat="48.04837" lon="7.02985">
        <ele>1020.9</ele>
      </trkpt>
      <trkpt lat="48.04821" lon="7.02962">
        <ele>996.8</ele>
      </trkpt>
      <trkpt lat="48.04794" lon="7.02911">
        <ele>1006.7</ele>
      </trkpt>
      <trkpt lat="48.04779" lon="7.02887">
        <ele>1002.4</ele>
      </trkpt>
      <trkpt lat="48.04766" lon="7.02876">
        <ele>999.9</ele>
      </trkpt>
      <trkpt lat="48.04765" lon="7.02881">
        <ele>999</ele>
      </trkpt>
      <trkpt lat="48.04758" lon="7.02875">
        <ele>998.3</ele>
      </trkpt>
      <trkpt lat="48.04749" lon="7.02859">
        <ele>969.7</ele>
      </trkpt>
      <trkpt lat="48.04745" lon="7.02849">
        <ele>973.1</ele>
      </trkpt>
      <trkpt lat="48.04728" lon="7.02829">
        <ele>977.5</ele>
      </trkpt>
      <trkpt lat="48.04718" lon="7.02798">
        <ele>975.7</ele>
      </trkpt>
      <trkpt lat="48.04697" lon="7.02755">
        <ele>973.2</ele>
      </trkpt>
      <trkpt lat="48.04681" lon="7.02733">
        <ele>980.5</ele>
      </trkpt>
      <trkpt lat="48.04672" lon="7.02723">
        <ele>982</ele>
      </trkpt>
      <trkpt lat="48.04669" lon="7.02712">
        <ele>984.8</ele>
      </trkpt>
      <trkpt lat="48.04656" lon="7.02688">
        <ele>969.4</ele>
      </trkpt>
      <trkpt lat="48.04653" lon="7.02684">
        <ele>970</ele>
        <extensions>
          <visugpx:TrkExtension xmlns:visugpx="https://www.visugpx.com/editgpx/">
            <visugpx:node>295</visugpx:node>
            </visugpx:TrkExtension>
        </extensions>
      </trkpt>
      <trkpt lat="48.04619" lon="7.02642">
        <ele>972.5</ele>
      </trkpt>
      <trkpt lat="48.04615" lon="7.02629">
        <ele>972.5</ele>
      </trkpt>
      <trkpt lat="48.04615" lon="7.02623">
        <ele>972.7</ele>
      </trkpt>
      <trkpt lat="48.04617" lon="7.02612">
        <ele>973.1</ele>
      </trkpt>
      <trkpt lat="48.04627" lon="7.02595">
        <ele>974.8</ele>
      </trkpt>
      <trkpt lat="48.04641" lon="7.02582">
        <ele>977.2</ele>
      </trkpt>
      <trkpt lat="48.04664" lon="7.02551">
        <ele>977.7</ele>
      </trkpt>
      <trkpt lat="48.04674" lon="7.02525">
        <ele>995.8</ele>
      </trkpt>
      <trkpt lat="48.04678" lon="7.02509">
        <ele>992.6</ele>
      </trkpt>
      <trkpt lat="48.04682" lon="7.02481">
        <ele>996.6</ele>
      </trkpt>
      <trkpt lat="48.04681" lon="7.0246">
        <ele>998.9</ele>
      </trkpt>
      <trkpt lat="48.04675" lon="7.02439">
        <ele>995.9</ele>
      </trkpt>
      <trkpt lat="48.04673" lon="7.02422">
        <ele>989.5</ele>
      </trkpt>
      <trkpt lat="48.04674" lon="7.02387">
        <ele>1000</ele>
      </trkpt>
      <trkpt lat="48.04676" lon="7.02367">
        <ele>1001.7</ele>
      </trkpt>
      <trkpt lat="48.04683" lon="7.02326">
        <ele>1002.4</ele>
      </trkpt>
      <trkpt lat="48.04682" lon="7.02278">
        <ele>1008.8</ele>
      </trkpt>
      <trkpt lat="48.04679" lon="7.02257">
        <ele>1005</ele>
      </trkpt>
      <trkpt lat="48.04677" lon="7.02246">
        <ele>1006.5</ele>
      </trkpt>
      <trkpt lat="48.0466" lon="7.022">
        <ele>1001.1</ele>
      </trkpt>
      <trkpt lat="48.0466" lon="7.02183">
        <ele>1004.7</ele>
      </trkpt>
      <trkpt lat="48.04663" lon="7.02153">
        <ele>1015</ele>
      </trkpt>
      <trkpt lat="48.0466" lon="7.02133">
        <ele>1018.4</ele>
      </trkpt>
      <trkpt lat="48.04657" lon="7.02125">
        <ele>1019.8</ele>
      </trkpt>
      <trkpt lat="48.04652" lon="7.02116">
        <ele>1021.3</ele>
      </trkpt>
      <trkpt lat="48.04643" lon="7.02108">
        <ele>1022.1</ele>
      </trkpt>
      <trkpt lat="48.04633" lon="7.02101">
        <ele>1022.2</ele>
      </trkpt>
      <trkpt lat="48.04615" lon="7.02094">
        <ele>1022.2</ele>
      </trkpt>
      <trkpt lat="48.04577" lon="7.02083">
        <ele>1030</ele>
      </trkpt>
      <trkpt lat="48.04566" lon="7.0207">
        <ele>1033.3</ele>
      </trkpt>
      <trkpt lat="48.04542" lon="7.0203">
        <ele>1037.6</ele>
      </trkpt>
      <trkpt lat="48.04537" lon="7.02027">
        <ele>1037.7</ele>
      </trkpt>
      <trkpt lat="48.04532" lon="7.0203">
        <ele>1037.4</ele>
      </trkpt>
      <trkpt lat="48.04518" lon="7.02055">
        <ele>1035.7</ele>
      </trkpt>
      <trkpt lat="48.04512" lon="7.02062">
        <ele>1035.2</ele>
      </trkpt>
      <trkpt lat="48.04462" lon="7.02098">
        <ele>1025.2</ele>
      </trkpt>
      <trkpt lat="48.04442" lon="7.02108">
        <ele>1024.2</ele>
      </trkpt>
      <trkpt lat="48.04431" lon="7.02113">
        <ele>1023.9</ele>
      </trkpt>
      <trkpt lat="48.04416" lon="7.02114">
        <ele>1027.3</ele>
      </trkpt>
      <trkpt lat="48.04403" lon="7.02119">
        <ele>1027.7</ele>
      </trkpt>
      <trkpt lat="48.0439" lon="7.02126">
        <ele>1028.1</ele>
      </trkpt>
      <trkpt lat="48.04381" lon="7.0213">
        <ele>1028.6</ele>
      </trkpt>
      <trkpt lat="48.0437" lon="7.02133">
        <ele>1029.2</ele>
      </trkpt>
      <trkpt lat="48.04341" lon="7.02136">
        <ele>1030.6</ele>
      </trkpt>
      <trkpt lat="48.04321" lon="7.02144">
        <ele>1035.7</ele>
      </trkpt>
      <trkpt lat="48.04318" lon="7.02145">
        <ele>1035.8</ele>
      </trkpt>
      <trkpt lat="48.04311" lon="7.02152">
        <ele>1035.5</ele>
      </trkpt>
      <trkpt lat="48.04308" lon="7.02162">
        <ele>1035</ele>
      </trkpt>
      <trkpt lat="48.04297" lon="7.02167">
        <ele>1026.3</ele>
      </trkpt>
      <trkpt lat="48.04291" lon="7.02175">
        <ele>1026</ele>
      </trkpt>
      <trkpt lat="48.04279" lon="7.0218">
        <ele>1026</ele>
      </trkpt>
      <trkpt lat="48.04272" lon="7.02186">
        <ele>1025.9</ele>
      </trkpt>
      <trkpt lat="48.04265" lon="7.02196">
        <ele>1025.3</ele>
      </trkpt>
      <trkpt lat="48.04253" lon="7.02229">
        <ele>1023</ele>
      </trkpt>
      <trkpt lat="48.04251" lon="7.02238">
        <ele>1022.2</ele>
        <extensions>
          <visugpx:TrkExtension xmlns:visugpx="https://www.visugpx.com/editgpx/">
            <visugpx:node>296</visugpx:node>
            </visugpx:TrkExtension>
        </extensions>
      </trkpt>
      <trkpt lat="48.04251" lon="7.02238">
        <ele>1022.2</ele>
      </trkpt>
      <trkpt lat="48.04245" lon="7.02247">
        <ele>1025.6</ele>
      </trkpt>
      <trkpt lat="48.04244" lon="7.02254">
        <ele>1025.9</ele>
      </trkpt>
      <trkpt lat="48.04241" lon="7.02262">
        <ele>1029.6</ele>
      </trkpt>
      <trkpt lat="48.0424" lon="7.02267">
        <ele>1031.3</ele>
      </trkpt>
      <trkpt lat="48.04243" lon="7.02287">
        <ele>1034</ele>
      </trkpt>
      <trkpt lat="48.04242" lon="7.023">
        <ele>1034.3</ele>
      </trkpt>
      <trkpt lat="48.04236" lon="7.02311">
        <ele>1034.2</ele>
      </trkpt>
      <trkpt lat="48.0424" lon="7.02327">
        <ele>1029.9</ele>
      </trkpt>
      <trkpt lat="48.04239" lon="7.02332">
        <ele>1029.7</ele>
      </trkpt>
      <trkpt lat="48.04238" lon="7.02337">
        <ele>1027.8</ele>
      </trkpt>
      <trkpt lat="48.04233" lon="7.02334">
        <ele>1029.4</ele>
      </trkpt>
      <trkpt lat="48.04227" lon="7.02349">
        <ele>1031.4</ele>
      </trkpt>
      <trkpt lat="48.04221" lon="7.02356">
        <ele>1032.8</ele>
      </trkpt>
      <trkpt lat="48.04219" lon="7.02357">
        <ele>1033.3</ele>
      </trkpt>
      <trkpt lat="48.0421" lon="7.02338">
        <ele>1037.3</ele>
      </trkpt>
      <trkpt lat="48.04205" lon="7.0235">
        <ele>1038.2</ele>
      </trkpt>
      <trkpt lat="48.042" lon="7.02354">
        <ele>1039.5</ele>
      </trkpt>
      <trkpt lat="48.04194" lon="7.0234">
        <ele>1043.8</ele>
      </trkpt>
      <trkpt lat="48.04187" lon="7.02328">
        <ele>1050.5</ele>
      </trkpt>
      <trkpt lat="48.04183" lon="7.02335">
        <ele>1050.4</ele>
      </trkpt>
      <trkpt lat="48.04184" lon="7.02351">
        <ele>1046</ele>
      </trkpt>
      <trkpt lat="48.0418" lon="7.02362">
        <ele>1044.1</ele>
      </trkpt>
      <trkpt lat="48.04169" lon="7.0237">
        <ele>1044.1</ele>
      </trkpt>
      <trkpt lat="48.04159" lon="7.02372">
        <ele>1072.6</ele>
      </trkpt>
      <trkpt lat="48.04157" lon="7.02371">
        <ele>1073</ele>
      </trkpt>
      <trkpt lat="48.04157" lon="7.0236">
        <ele>1073.3</ele>
      </trkpt>
      <trkpt lat="48.04153" lon="7.0236">
        <ele>1074</ele>
      </trkpt>
      <trkpt lat="48.04151" lon="7.02367">
        <ele>1074.3</ele>
      </trkpt>
      <trkpt lat="48.04143" lon="7.02377">
        <ele>1075</ele>
      </trkpt>
      <trkpt lat="48.04128" lon="7.02416">
        <ele>1075.5</ele>
      </trkpt>
      <trkpt lat="48.04106" lon="7.02446">
        <ele>1055.9</ele>
      </trkpt>
      <trkpt lat="48.04113" lon="7.02448">
        <ele>1052.9</ele>
      </trkpt>
      <trkpt lat="48.041" lon="7.02456">
        <ele>1053.5</ele>
      </trkpt>
      <trkpt lat="48.04102" lon="7.02461">
        <ele>1051.3</ele>
      </trkpt>
      <trkpt lat="48.04097" lon="7.02461">
        <ele>1052.2</ele>
      </trkpt>
      <trkpt lat="48.04093" lon="7.02461">
        <ele>1052.9</ele>
      </trkpt>
      <trkpt lat="48.04085" lon="7.02456">
        <ele>1056</ele>
      </trkpt>
      <trkpt lat="48.04055" lon="7.02492">
        <ele>1079</ele>
      </trkpt>
      <trkpt lat="48.04046" lon="7.02497">
        <ele>1082.9</ele>
      </trkpt>
      <trkpt lat="48.04037" lon="7.02522">
        <ele>1059.1</ele>
      </trkpt>
      <trkpt lat="48.04029" lon="7.02533">
        <ele>1059.4</ele>
      </trkpt>
      <trkpt lat="48.04018" lon="7.02541">
        <ele>1060.3</ele>
      </trkpt>
      <trkpt lat="48.04012" lon="7.02554">
        <ele>1058.8</ele>
      </trkpt>
      <trkpt lat="48.04007" lon="7.02569">
        <ele>1058.7</ele>
      </trkpt>
      <trkpt lat="48.04" lon="7.026">
        <ele>1079.4</ele>
      </trkpt>
      <trkpt lat="48.04001" lon="7.02617">
        <ele>1045.8</ele>
      </trkpt>
      <trkpt lat="48.04004" lon="7.02633">
        <ele>1045.8</ele>
      </trkpt>
      <trkpt lat="48.04015" lon="7.02656">
        <ele>1049</ele>
      </trkpt>
      <trkpt lat="48.04016" lon="7.02659">
        <ele>1049.2</ele>
      </trkpt>
      <trkpt lat="48.04018" lon="7.0266">
        <ele>1048</ele>
      </trkpt>
      <trkpt lat="48.04016" lon="7.02659">
        <ele>1049.2</ele>
      </trkpt>
      <trkpt lat="48.04015" lon="7.02656">
        <ele>1049</ele>
      </trkpt>
      <trkpt lat="48.04006" lon="7.02638">
        <ele>1046.4</ele>
        <extensions>
          <visugpx:TrkExtension xmlns:visugpx="https://www.visugpx.com/editgpx/">
            <visugpx:node>297</visugpx:node>
            </visugpx:TrkExtension>
        </extensions>
      </trkpt>
      <trkpt lat="48.04015" lon="7.02656">
        <ele>1049</ele>
      </trkpt>
      <trkpt lat="48.04016" lon="7.02659">
        <ele>1049.2</ele>
      </trkpt>
      <trkpt lat="48.04018" lon="7.0266">
        <ele>1048</ele>
      </trkpt>
      <trkpt lat="48.04019" lon="7.02662">
        <ele>1047.6</ele>
      </trkpt>
      <trkpt lat="48.0402" lon="7.02662">
        <ele>1046.9</ele>
      </trkpt>
      <trkpt lat="48.04021" lon="7.02648">
        <ele>1043.7</ele>
      </trkpt>
      <trkpt lat="48.04028" lon="7.02659">
        <ele>1041.3</ele>
      </trkpt>
      <trkpt lat="48.04031" lon="7.02648">
        <ele>1038.7</ele>
      </trkpt>
      <trkpt lat="48.04043" lon="7.02669">
        <ele>1033</ele>
      </trkpt>
      <trkpt lat="48.04045" lon="7.0269">
        <ele>1032.8</ele>
      </trkpt>
      <trkpt lat="48.04052" lon="7.02699">
        <ele>1030.3</ele>
      </trkpt>
      <trkpt lat="48.04057" lon="7.02735">
        <ele>1027.9</ele>
      </trkpt>
      <trkpt lat="48.04055" lon="7.02766">
        <ele>1032</ele>
      </trkpt>
      <trkpt lat="48.04055" lon="7.02787">
        <ele>1033.8</ele>
      </trkpt>
      <trkpt lat="48.04063" lon="7.02818">
        <ele>1026.3</ele>
      </trkpt>
      <trkpt lat="48.04061" lon="7.02826">
        <ele>1025.9</ele>
      </trkpt>
      <trkpt lat="48.04049" lon="7.02837">
        <ele>1028.5</ele>
      </trkpt>
      <trkpt lat="48.04042" lon="7.02848">
        <ele>1032.7</ele>
      </trkpt>
      <trkpt lat="48.04039" lon="7.02857">
        <ele>1033.7</ele>
      </trkpt>
      <trkpt lat="48.04039" lon="7.02877">
        <ele>1031.4</ele>
      </trkpt>
      <trkpt lat="48.04034" lon="7.02908">
        <ele>1032.7</ele>
      </trkpt>
      <trkpt lat="48.04036" lon="7.02924">
        <ele>1016.6</ele>
      </trkpt>
      <trkpt lat="48.04036" lon="7.0294">
        <ele>1014</ele>
      </trkpt>
      <trkpt lat="48.04029" lon="7.02952">
        <ele>1015.2</ele>
      </trkpt>
      <trkpt lat="48.04011" lon="7.02973">
        <ele>1019.3</ele>
      </trkpt>
      <trkpt lat="48.04003" lon="7.02986">
        <ele>1024</ele>
      </trkpt>
      <trkpt lat="48.03982" lon="7.03003">
        <ele>1036</ele>
      </trkpt>
      <trkpt lat="48.03972" lon="7.03015">
        <ele>1037.1</ele>
      </trkpt>
      <trkpt lat="48.03967" lon="7.03026">
        <ele>1036.7</ele>
      </trkpt>
      <trkpt lat="48.0395" lon="7.03047">
        <ele>1036.9</ele>
      </trkpt>
      <trkpt lat="48.03918" lon="7.0307">
        <ele>1041.3</ele>
      </trkpt>
      <trkpt lat="48.03908" lon="7.03071">
        <ele>1059.6</ele>
      </trkpt>
      <trkpt lat="48.03893" lon="7.03077">
        <ele>1066</ele>
      </trkpt>
      <trkpt lat="48.03888" lon="7.03084">
        <ele>1065.2</ele>
      </trkpt>
      <trkpt lat="48.039" lon="7.03099">
        <ele>1061.2</ele>
      </trkpt>
      <trkpt lat="48.03903" lon="7.03106">
        <ele>1062</ele>
      </trkpt>
      <trkpt lat="48.03904" lon="7.03128">
        <ele>1064.6</ele>
      </trkpt>
      <trkpt lat="48.03922" lon="7.03175">
        <ele>1044.6</ele>
      </trkpt>
      <trkpt lat="48.03926" lon="7.03194">
        <ele>1043.2</ele>
      </trkpt>
      <trkpt lat="48.03937" lon="7.03195">
        <ele>1041.1</ele>
      </trkpt>
      <trkpt lat="48.0397" lon="7.03252">
        <ele>1057.8</ele>
      </trkpt>
      <trkpt lat="48.03985" lon="7.03259">
        <ele>1049.6</ele>
      </trkpt>
      <trkpt lat="48.03997" lon="7.03261">
        <ele>1043.8</ele>
      </trkpt>
      <trkpt lat="48.04008" lon="7.03266">
        <ele>1022.8</ele>
      </trkpt>
      <trkpt lat="48.04017" lon="7.03264">
        <ele>1020.4</ele>
      </trkpt>
      <trkpt lat="48.04019" lon="7.03266">
        <ele>1019.7</ele>
      </trkpt>
      <trkpt lat="48.04027" lon="7.0329">
        <ele>1019.9</ele>
      </trkpt>
      <trkpt lat="48.04026" lon="7.03301">
        <ele>1023.1</ele>
      </trkpt>
      <trkpt lat="48.04029" lon="7.03316">
        <ele>1026.1</ele>
      </trkpt>
      <trkpt lat="48.04035" lon="7.03332">
        <ele>1025.1</ele>
      </trkpt>
      <trkpt lat="48.04042" lon="7.03363">
        <ele>1044.2</ele>
      </trkpt>
      <trkpt lat="48.04051" lon="7.03376">
        <ele>1043</ele>
      </trkpt>
      <trkpt lat="48.04061" lon="7.03401">
        <ele>1041.8</ele>
      </trkpt>
      <trkpt lat="48.04078" lon="7.03455">
        <ele>1059.3</ele>
      </trkpt>
      <trkpt lat="48.04084" lon="7.03464">
        <ele>1020.9</ele>
      </trkpt>
      <trkpt lat="48.04086" lon="7.03464">
        <ele>1020.6</ele>
      </trkpt>
      <trkpt lat="48.04087" lon="7.03465">
        <ele>1020.7</ele>
      </trkpt>
      <trkpt lat="48.04089" lon="7.03467">
        <ele>1021</ele>
      </trkpt>
      <trkpt lat="48.04091" lon="7.03468">
        <ele>1020.9</ele>
      </trkpt>
      <trkpt lat="48.04095" lon="7.03469">
        <ele>1020.2</ele>
      </trkpt>
      <trkpt lat="48.04099" lon="7.03477">
        <ele>1021.8</ele>
        <extensions>
          <visugpx:TrkExtension xmlns:visugpx="https://www.visugpx.com/editgpx/">
            <visugpx:node>298</visugpx:node>
            </visugpx:TrkExtension>
        </extensions>
      </trkpt>
      <trkpt lat="48.04095" lon="7.03469">
        <ele>1020.2</ele>
      </trkpt>
      <trkpt lat="48.04091" lon="7.03468">
        <ele>1020.9</ele>
      </trkpt>
      <trkpt lat="48.04089" lon="7.03467">
        <ele>1021</ele>
      </trkpt>
      <trkpt lat="48.04087" lon="7.03465">
        <ele>1020.7</ele>
      </trkpt>
      <trkpt lat="48.04089" lon="7.03467">
        <ele>1021</ele>
      </trkpt>
      <trkpt lat="48.04091" lon="7.03468">
        <ele>1020.9</ele>
      </trkpt>
      <trkpt lat="48.04095" lon="7.03469">
        <ele>1020.2</ele>
      </trkpt>
      <trkpt lat="48.0411" lon="7.03496">
        <ele>1020.9</ele>
      </trkpt>
      <trkpt lat="48.04131" lon="7.03542">
        <ele>1032.2</ele>
      </trkpt>
      <trkpt lat="48.04134" lon="7.03554">
        <ele>1033.1</ele>
      </trkpt>
      <trkpt lat="48.04181" lon="7.03628">
        <ele>1015</ele>
      </trkpt>
      <trkpt lat="48.04198" lon="7.03665">
        <ele>1016.7</ele>
      </trkpt>
      <trkpt lat="48.04239" lon="7.03724">
        <ele>1025.2</ele>
      </trkpt>
      <trkpt lat="48.04265" lon="7.03785">
        <ele>1012</ele>
      </trkpt>
      <trkpt lat="48.04298" lon="7.03843">
        <ele>1023.4</ele>
      </trkpt>
      <trkpt lat="48.04334" lon="7.03898">
        <ele>1000.7</ele>
      </trkpt>
      <trkpt lat="48.04385" lon="7.03966">
        <ele>1005</ele>
      </trkpt>
      <trkpt lat="48.04409" lon="7.04003">
        <ele>1005.3</ele>
      </trkpt>
      <trkpt lat="48.04434" lon="7.04061">
        <ele>990.3</ele>
      </trkpt>
      <trkpt lat="48.0444" lon="7.04087">
        <ele>992.5</ele>
      </trkpt>
      <trkpt lat="48.04442" lon="7.0411">
        <ele>988.7</ele>
      </trkpt>
      <trkpt lat="48.04439" lon="7.04168">
        <ele>987.5</ele>
      </trkpt>
      <trkpt lat="48.04431" lon="7.0423">
        <ele>983.6</ele>
      </trkpt>
      <trkpt lat="48.04424" lon="7.04258">
        <ele>985.7</ele>
      </trkpt>
      <trkpt lat="48.04419" lon="7.04274">
        <ele>978.8</ele>
      </trkpt>
      <trkpt lat="48.04409" lon="7.0429">
        <ele>993.1</ele>
      </trkpt>
      <trkpt lat="48.04395" lon="7.04303">
        <ele>992.3</ele>
      </trkpt>
      <trkpt lat="48.04378" lon="7.04315">
        <ele>992.2</ele>
      </trkpt>
      <trkpt lat="48.0438" lon="7.04313">
        <ele>992.2</ele>
        <extensions>
          <visugpx:TrkExtension xmlns:visugpx="https://www.visugpx.com/editgpx/">
            <visugpx:node>299</visugpx:node>
            </visugpx:TrkExtension>
        </extensions>
      </trkpt>
      <trkpt lat="48.04378" lon="7.04315">
        <ele>992.2</ele>
      </trkpt>
      <trkpt lat="48.04363" lon="7.04325">
        <ele>992.1</ele>
      </trkpt>
      <trkpt lat="48.04349" lon="7.04333">
        <ele>991.6</ele>
      </trkpt>
      <trkpt lat="48.0432" lon="7.04345">
        <ele>985.8</ele>
      </trkpt>
      <trkpt lat="48.04248" lon="7.04343">
        <ele>986.4</ele>
      </trkpt>
      <trkpt lat="48.04223" lon="7.04337">
        <ele>983.4</ele>
      </trkpt>
      <trkpt lat="48.04192" lon="7.04331">
        <ele>992.3</ele>
      </trkpt>
      <trkpt lat="48.04145" lon="7.04314">
        <ele>991.2</ele>
      </trkpt>
      <trkpt lat="48.0412" lon="7.04311">
        <ele>991.7</ele>
      </trkpt>
      <trkpt lat="48.04099" lon="7.04313">
        <ele>990.2</ele>
      </trkpt>
      <trkpt lat="48.04095" lon="7.04313">
        <ele>989.9</ele>
      </trkpt>
      <trkpt lat="48.04086" lon="7.04328">
        <ele>985.3</ele>
      </trkpt>
      <trkpt lat="48.04076" lon="7.04338">
        <ele>984</ele>
      </trkpt>
      <trkpt lat="48.04065" lon="7.04343">
        <ele>985.2</ele>
      </trkpt>
      <trkpt lat="48.04046" lon="7.04356">
        <ele>987</ele>
      </trkpt>
      <trkpt lat="48.04029" lon="7.04373">
        <ele>987.8</ele>
      </trkpt>
      <trkpt lat="48.03996" lon="7.04416">
        <ele>990.8</ele>
      </trkpt>
      <trkpt lat="48.03974" lon="7.04429">
        <ele>985.1</ele>
      </trkpt>
      <trkpt lat="48.03964" lon="7.04432">
        <ele>984.9</ele>
      </trkpt>
      <trkpt lat="48.03953" lon="7.04431">
        <ele>985.4</ele>
      </trkpt>
      <trkpt lat="48.03916" lon="7.0442">
        <ele>992.8</ele>
      </trkpt>
      <trkpt lat="48.039" lon="7.04417">
        <ele>987.1</ele>
      </trkpt>
      <trkpt lat="48.03865" lon="7.04402">
        <ele>997.8</ele>
        <extensions>
          <visugpx:TrkExtension xmlns:visugpx="https://www.visugpx.com/editgpx/">
            <visugpx:node>300</visugpx:node>
            </visugpx:TrkExtension>
        </extensions>
      </trkpt>
      <trkpt lat="48.03852" lon="7.04397">
        <ele>996.6</ele>
      </trkpt>
      <trkpt lat="48.03839" lon="7.0439">
        <ele>997</ele>
      </trkpt>
      <trkpt lat="48.03792" lon="7.04355">
        <ele>993.5</ele>
      </trkpt>
      <trkpt lat="48.03783" lon="7.04344">
        <ele>994</ele>
      </trkpt>
      <trkpt lat="48.03775" lon="7.04325">
        <ele>1010.1</ele>
      </trkpt>
      <trkpt lat="48.03766" lon="7.04314">
        <ele>1010.4</ele>
      </trkpt>
      <trkpt lat="48.03742" lon="7.04298">
        <ele>1010.6</ele>
      </trkpt>
      <trkpt lat="48.0373" lon="7.04299">
        <ele>1010.6</ele>
      </trkpt>
      <trkpt lat="48.03716" lon="7.04296">
        <ele>1011.4</ele>
      </trkpt>
      <trkpt lat="48.03675" lon="7.04297">
        <ele>1010.4</ele>
      </trkpt>
      <trkpt lat="48.03658" lon="7.04292">
        <ele>1013.9</ele>
      </trkpt>
      <trkpt lat="48.03632" lon="7.04292">
        <ele>1014.7</ele>
      </trkpt>
      <trkpt lat="48.03613" lon="7.04298">
        <ele>1013.9</ele>
      </trkpt>
      <trkpt lat="48.03605" lon="7.04302">
        <ele>1012.9</ele>
      </trkpt>
      <trkpt lat="48.03591" lon="7.04302">
        <ele>1012.7</ele>
      </trkpt>
      <trkpt lat="48.03576" lon="7.04307">
        <ele>1018.7</ele>
      </trkpt>
      <trkpt lat="48.03565" lon="7.04315">
        <ele>1018</ele>
      </trkpt>
      <trkpt lat="48.0354" lon="7.04338">
        <ele>1002.9</ele>
        <extensions>
          <visugpx:TrkExtension xmlns:visugpx="https://www.visugpx.com/editgpx/">
            <visugpx:node>301</visugpx:node>
            </visugpx:TrkExtension>
        </extensions>
      </trkpt>
      <trkpt lat="48.0353" lon="7.04348">
        <ele>1004.4</ele>
      </trkpt>
      <trkpt lat="48.035" lon="7.04389">
        <ele>1013.1</ele>
      </trkpt>
      <trkpt lat="48.03483" lon="7.04418">
        <ele>1000.9</ele>
      </trkpt>
      <trkpt lat="48.03478" lon="7.04441">
        <ele>1001.1</ele>
      </trkpt>
      <trkpt lat="48.03476" lon="7.04467">
        <ele>999.6</ele>
      </trkpt>
      <trkpt lat="48.0349" lon="7.04515">
        <ele>992.6</ele>
      </trkpt>
      <trkpt lat="48.03499" lon="7.04529">
        <ele>993.1</ele>
      </trkpt>
      <trkpt lat="48.03516" lon="7.04545">
        <ele>982.3</ele>
      </trkpt>
      <trkpt lat="48.03515" lon="7.04557">
        <ele>983.3</ele>
      </trkpt>
      <trkpt lat="48.03514" lon="7.04565">
        <ele>984.4</ele>
      </trkpt>
      <trkpt lat="48.03512" lon="7.0457">
        <ele>985.5</ele>
      </trkpt>
      <trkpt lat="48.03507" lon="7.04575">
        <ele>987.5</ele>
      </trkpt>
      <trkpt lat="48.03497" lon="7.04586">
        <ele>992.2</ele>
      </trkpt>
      <trkpt lat="48.0349" lon="7.04592">
        <ele>992.4</ele>
      </trkpt>
      <trkpt lat="48.0348" lon="7.04599">
        <ele>992.7</ele>
      </trkpt>
      <trkpt lat="48.03479" lon="7.04601">
        <ele>992.7</ele>
      </trkpt>
      <trkpt lat="48.03476" lon="7.04621">
        <ele>992.6</ele>
      </trkpt>
      <trkpt lat="48.03443" lon="7.0465">
        <ele>993.1</ele>
      </trkpt>
      <trkpt lat="48.03436" lon="7.0465">
        <ele>993.3</ele>
      </trkpt>
      <trkpt lat="48.03423" lon="7.04644">
        <ele>993.6</ele>
      </trkpt>
      <trkpt lat="48.03423" lon="7.04639">
        <ele>993.6</ele>
      </trkpt>
      <trkpt lat="48.03422" lon="7.04612">
        <ele>994.4</ele>
      </trkpt>
      <trkpt lat="48.03424" lon="7.04564">
        <ele>996.2</ele>
      </trkpt>
      <trkpt lat="48.03424" lon="7.04542">
        <ele>996.4</ele>
      </trkpt>
      <trkpt lat="48.03423" lon="7.04516">
        <ele>998</ele>
      </trkpt>
      <trkpt lat="48.03421" lon="7.04511">
        <ele>998.7</ele>
      </trkpt>
      <trkpt lat="48.03416" lon="7.045">
        <ele>1001.1</ele>
      </trkpt>
      <trkpt lat="48.03409" lon="7.04489">
        <ele>1002.4</ele>
      </trkpt>
      <trkpt lat="48.03403" lon="7.0448">
        <ele>1003.3</ele>
      </trkpt>
      <trkpt lat="48.03393" lon="7.04466">
        <ele>1004.4</ele>
      </trkpt>
      <trkpt lat="48.03376" lon="7.04432">
        <ele>1006.7</ele>
      </trkpt>
      <trkpt lat="48.03365" lon="7.04418">
        <ele>1006.7</ele>
      </trkpt>
      <trkpt lat="48.03354" lon="7.044">
        <ele>1018.3</ele>
      </trkpt>
      <trkpt lat="48.03331" lon="7.04364">
        <ele>1015.1</ele>
      </trkpt>
      <trkpt lat="48.03301" lon="7.04311">
        <ele>1031</ele>
      </trkpt>
      <trkpt lat="48.03284" lon="7.04269">
        <ele>1034.4</ele>
      </trkpt>
      <trkpt lat="48.0327" lon="7.04228">
        <ele>1051.3</ele>
      </trkpt>
      <trkpt lat="48.03253" lon="7.04194">
        <ele>1057.6</ele>
      </trkpt>
      <trkpt lat="48.03236" lon="7.0415">
        <ele>1059.1</ele>
      </trkpt>
      <trkpt lat="48.03227" lon="7.04136">
        <ele>1059</ele>
        <extensions>
          <visugpx:TrkExtension xmlns:visugpx="https://www.visugpx.com/editgpx/">
            <visugpx:node>302</visugpx:node>
            </visugpx:TrkExtension>
        </extensions>
      </trkpt>
      <trkpt lat="48.03225" lon="7.04134">
        <ele>1059</ele>
      </trkpt>
      <trkpt lat="48.03209" lon="7.04114">
        <ele>1058.9</ele>
      </trkpt>
      <trkpt lat="48.03194" lon="7.0409">
        <ele>1057.9</ele>
      </trkpt>
      <trkpt lat="48.0316" lon="7.04025">
        <ele>1061</ele>
      </trkpt>
      <trkpt lat="48.03143" lon="7.03975">
        <ele>1072.8</ele>
      </trkpt>
      <trkpt lat="48.03134" lon="7.03944">
        <ele>1073.7</ele>
      </trkpt>
      <trkpt lat="48.03133" lon="7.03921">
        <ele>1076</ele>
      </trkpt>
      <trkpt lat="48.0313" lon="7.03899">
        <ele>1086.4</ele>
      </trkpt>
      <trkpt lat="48.03117" lon="7.03837">
        <ele>1088.1</ele>
      </trkpt>
      <trkpt lat="48.03086" lon="7.03776">
        <ele>1100.9</ele>
      </trkpt>
      <trkpt lat="48.03036" lon="7.03708">
        <ele>1098.4</ele>
      </trkpt>
      <trkpt lat="48.03025" lon="7.03687">
        <ele>1098.9</ele>
      </trkpt>
      <trkpt lat="48.03015" lon="7.03652">
        <ele>1108.3</ele>
      </trkpt>
      <trkpt lat="48.03" lon="7.03615">
        <ele>1113.2</ele>
      </trkpt>
      <trkpt lat="48.02977" lon="7.03579">
        <ele>1111.9</ele>
      </trkpt>
      <trkpt lat="48.02956" lon="7.03537">
        <ele>1114.6</ele>
      </trkpt>
      <trkpt lat="48.02949" lon="7.03505">
        <ele>1117.1</ele>
      </trkpt>
      <trkpt lat="48.02938" lon="7.03468">
        <ele>1129.6</ele>
        <extensions>
          <visugpx:TrkExtension xmlns:visugpx="https://www.visugpx.com/editgpx/">
            <visugpx:node>303</visugpx:node>
            </visugpx:TrkExtension>
        </extensions>
      </trkpt>
      <trkpt lat="48.02936" lon="7.03461">
        <ele>1130.2</ele>
      </trkpt>
      <trkpt lat="48.02932" lon="7.03439">
        <ele>1131.6</ele>
      </trkpt>
      <trkpt lat="48.0293" lon="7.03419">
        <ele>1131.6</ele>
      </trkpt>
      <trkpt lat="48.02932" lon="7.03394">
        <ele>1136.3</ele>
      </trkpt>
      <trkpt lat="48.02936" lon="7.03374">
        <ele>1137.3</ele>
      </trkpt>
      <trkpt lat="48.02935" lon="7.03363">
        <ele>1137</ele>
      </trkpt>
      <trkpt lat="48.0293" lon="7.0335">
        <ele>1135.5</ele>
      </trkpt>
      <trkpt lat="48.02928" lon="7.03333">
        <ele>1132</ele>
      </trkpt>
      <trkpt lat="48.02927" lon="7.03305">
        <ele>1132.5</ele>
      </trkpt>
      <trkpt lat="48.02925" lon="7.03304">
        <ele>1132.4</ele>
      </trkpt>
      <trkpt lat="48.02912" lon="7.03288">
        <ele>1119.7</ele>
      </trkpt>
      <trkpt lat="48.02909" lon="7.03277">
        <ele>1119.1</ele>
      </trkpt>
      <trkpt lat="48.0291" lon="7.0327">
        <ele>1119.2</ele>
      </trkpt>
      <trkpt lat="48.02912" lon="7.03265">
        <ele>1119.6</ele>
      </trkpt>
      <trkpt lat="48.02916" lon="7.03254">
        <ele>1121.1</ele>
      </trkpt>
      <trkpt lat="48.02939" lon="7.0322">
        <ele>1120.2</ele>
      </trkpt>
      <trkpt lat="48.02942" lon="7.03217">
        <ele>1120</ele>
      </trkpt>
      <trkpt lat="48.02944" lon="7.03211">
        <ele>1119.5</ele>
      </trkpt>
      <trkpt lat="48.0301" lon="7.03145">
        <ele>1115.3</ele>
      </trkpt>
      <trkpt lat="48.03013" lon="7.03138">
        <ele>1114.2</ele>
      </trkpt>
      <trkpt lat="48.03029" lon="7.03122">
        <ele>1112.5</ele>
      </trkpt>
      <trkpt lat="48.0305" lon="7.03098">
        <ele>1111.5</ele>
      </trkpt>
      <trkpt lat="48.03072" lon="7.03068">
        <ele>1098.1</ele>
      </trkpt>
      <trkpt lat="48.03069" lon="7.03066">
        <ele>1096.7</ele>
      </trkpt>
      <trkpt lat="48.03047" lon="7.0307">
        <ele>1092.6</ele>
      </trkpt>
      <trkpt lat="48.0304" lon="7.03072">
        <ele>1091.7</ele>
      </trkpt>
      <trkpt lat="48.03048" lon="7.03055">
        <ele>1090.5</ele>
      </trkpt>
      <trkpt lat="48.03057" lon="7.03039">
        <ele>1088.8</ele>
      </trkpt>
      <trkpt lat="48.03068" lon="7.03021">
        <ele>1086.9</ele>
      </trkpt>
      <trkpt lat="48.03082" lon="7.03009">
        <ele>1085.9</ele>
      </trkpt>
      <trkpt lat="48.03076" lon="7.03002">
        <ele>1085.5</ele>
      </trkpt>
      <trkpt lat="48.03049" lon="7.03008">
        <ele>1084</ele>
      </trkpt>
      <trkpt lat="48.0302" lon="7.03018">
        <ele>1079.1</ele>
      </trkpt>
      <trkpt lat="48.03016" lon="7.03015">
        <ele>1077</ele>
      </trkpt>
      <trkpt lat="48.03015" lon="7.03009">
        <ele>1074.9</ele>
      </trkpt>
      <trkpt lat="48.03022" lon="7.02997">
        <ele>1061.1</ele>
      </trkpt>
      <trkpt lat="48.03048" lon="7.02967">
        <ele>1060.9</ele>
      </trkpt>
      <trkpt lat="48.03072" lon="7.02963">
        <ele>1063.7</ele>
      </trkpt>
      <trkpt lat="48.03089" lon="7.02947">
        <ele>1078.3</ele>
      </trkpt>
      <trkpt lat="48.03102" lon="7.02923">
        <ele>1074.1</ele>
      </trkpt>
      <trkpt lat="48.03053" lon="7.02934">
        <ele>1056.5</ele>
      </trkpt>
      <trkpt lat="48.0304" lon="7.0294">
        <ele>1054.7</ele>
      </trkpt>
      <trkpt lat="48.03027" lon="7.02941">
        <ele>1051.8</ele>
      </trkpt>
      <trkpt lat="48.03045" lon="7.02912">
        <ele>1035</ele>
      </trkpt>
      <trkpt lat="48.03061" lon="7.02896">
        <ele>1037.5</ele>
      </trkpt>
      <trkpt lat="48.03076" lon="7.02874">
        <ele>1033.9</ele>
      </trkpt>
      <trkpt lat="48.03037" lon="7.0287">
        <ele>1027.3</ele>
      </trkpt>
      <trkpt lat="48.03025" lon="7.02883">
        <ele>1027.5</ele>
      </trkpt>
      <trkpt lat="48.03038" lon="7.0285">
        <ele>1024.3</ele>
      </trkpt>
      <trkpt lat="48.03011" lon="7.02864">
        <ele>1021.3</ele>
      </trkpt>
      <trkpt lat="48.0298" lon="7.02888">
        <ele>1006.7</ele>
      </trkpt>
      <trkpt lat="48.02998" lon="7.02838">
        <ele>1000.9</ele>
      </trkpt>
      <trkpt lat="48.03011" lon="7.0282">
        <ele>1000.1</ele>
      </trkpt>
      <trkpt lat="48.03048" lon="7.02802">
        <ele>1002.6</ele>
      </trkpt>
      <trkpt lat="48.03072" lon="7.02757">
        <ele>998.4</ele>
      </trkpt>
      <trkpt lat="48.03082" lon="7.02746">
        <ele>993.7</ele>
      </trkpt>
      <trkpt lat="48.03085" lon="7.02732">
        <ele>998.1</ele>
      </trkpt>
      <trkpt lat="48.03071" lon="7.02733">
        <ele>982.4</ele>
      </trkpt>
      <trkpt lat="48.03032" lon="7.02761">
        <ele>991.9</ele>
      </trkpt>
      <trkpt lat="48.02975" lon="7.02782">
        <ele>972.7</ele>
      </trkpt>
      <trkpt lat="48.02936" lon="7.0279">
        <ele>968.3</ele>
      </trkpt>
      <trkpt lat="48.02894" lon="7.02813">
        <ele>957.7</ele>
      </trkpt>
      <trkpt lat="48.02874" lon="7.02816">
        <ele>955.1</ele>
      </trkpt>
      <trkpt lat="48.02868" lon="7.02802">
        <ele>952.6</ele>
      </trkpt>
      <trkpt lat="48.02888" lon="7.02785">
        <ele>951.4</ele>
      </trkpt>
      <trkpt lat="48.02917" lon="7.02752">
        <ele>946.2</ele>
      </trkpt>
      <trkpt lat="48.02925" lon="7.02738">
        <ele>945.4</ele>
      </trkpt>
      <trkpt lat="48.02935" lon="7.02714">
        <ele>945</ele>
      </trkpt>
      <trkpt lat="48.02936" lon="7.02705">
        <ele>943.9</ele>
      </trkpt>
      <trkpt lat="48.02933" lon="7.02701">
        <ele>943</ele>
      </trkpt>
      <trkpt lat="48.02926" lon="7.02698">
        <ele>941.8</ele>
      </trkpt>
      <trkpt lat="48.02923" lon="7.02693">
        <ele>940.5</ele>
      </trkpt>
      <trkpt lat="48.02917" lon="7.02685">
        <ele>937.9</ele>
      </trkpt>
      <trkpt lat="48.02903" lon="7.02666">
        <ele>927.5</ele>
      </trkpt>
      <trkpt lat="48.02892" lon="7.02647">
        <ele>926.6</ele>
      </trkpt>
      <trkpt lat="48.02873" lon="7.02598">
        <ele>926.9</ele>
      </trkpt>
      <trkpt lat="48.02858" lon="7.02555">
        <ele>933.8</ele>
      </trkpt>
      <trkpt lat="48.02851" lon="7.02535">
        <ele>936</ele>
      </trkpt>
      <trkpt lat="48.0285" lon="7.02532">
        <ele>936.4</ele>
      </trkpt>
      <trkpt lat="48.02853" lon="7.02519">
        <ele>937.9</ele>
      </trkpt>
      <trkpt lat="48.02861" lon="7.02496">
        <ele>940.7</ele>
      </trkpt>
      <trkpt lat="48.02862" lon="7.02478">
        <ele>940.1</ele>
      </trkpt>
      <trkpt lat="48.0286" lon="7.02468">
        <ele>939.9</ele>
      </trkpt>
      <trkpt lat="48.02847" lon="7.02453">
        <ele>940.6</ele>
      </trkpt>
      <trkpt lat="48.02833" lon="7.02442">
        <ele>948.3</ele>
      </trkpt>
      <trkpt lat="48.02804" lon="7.02426">
        <ele>950.1</ele>
        <extensions>
          <visugpx:TrkExtension xmlns:visugpx="https://www.visugpx.com/editgpx/">
            <visugpx:node>304</visugpx:node>
            </visugpx:TrkExtension>
        </extensions>
      </trkpt>
      <trkpt lat="48.02802" lon="7.02425">
        <ele>950.4</ele>
      </trkpt>
      <trkpt lat="48.02782" lon="7.02411">
        <ele>963.2</ele>
      </trkpt>
      <trkpt lat="48.0277" lon="7.02384">
        <ele>967.1</ele>
      </trkpt>
      <trkpt lat="48.02768" lon="7.0237">
        <ele>970</ele>
      </trkpt>
      <trkpt lat="48.02769" lon="7.02364">
        <ele>971.3</ele>
      </trkpt>
      <trkpt lat="48.02796" lon="7.02313">
        <ele>987.4</ele>
      </trkpt>
      <trkpt lat="48.02813" lon="7.02295">
        <ele>988</ele>
      </trkpt>
      <trkpt lat="48.02806" lon="7.02291">
        <ele>989.9</ele>
      </trkpt>
      <trkpt lat="48.02781" lon="7.02298">
        <ele>992.6</ele>
      </trkpt>
      <trkpt lat="48.02746" lon="7.02337">
        <ele>990.5</ele>
      </trkpt>
      <trkpt lat="48.02727" lon="7.02365">
        <ele>985</ele>
      </trkpt>
      <trkpt lat="48.02713" lon="7.02377">
        <ele>983.8</ele>
      </trkpt>
      <trkpt lat="48.02699" lon="7.02402">
        <ele>981</ele>
      </trkpt>
      <trkpt lat="48.02688" lon="7.02408">
        <ele>980.4</ele>
      </trkpt>
      <trkpt lat="48.02676" lon="7.02407">
        <ele>979.6</ele>
      </trkpt>
      <trkpt lat="48.02654" lon="7.02389">
        <ele>979.8</ele>
      </trkpt>
      <trkpt lat="48.02631" lon="7.02375">
        <ele>979.6</ele>
      </trkpt>
      <trkpt lat="48.02622" lon="7.02364">
        <ele>979.5</ele>
      </trkpt>
      <trkpt lat="48.02633" lon="7.02363">
        <ele>981.7</ele>
      </trkpt>
      <trkpt lat="48.02655" lon="7.02368">
        <ele>984.3</ele>
      </trkpt>
      <trkpt lat="48.02668" lon="7.02365">
        <ele>989.8</ele>
      </trkpt>
      <trkpt lat="48.0268" lon="7.02355">
        <ele>992</ele>
      </trkpt>
      <trkpt lat="48.02694" lon="7.02332">
        <ele>1007.2</ele>
      </trkpt>
      <trkpt lat="48.02719" lon="7.02261">
        <ele>1013.6</ele>
      </trkpt>
      <trkpt lat="48.02722" lon="7.02239">
        <ele>1028.5</ele>
      </trkpt>
      <trkpt lat="48.02721" lon="7.02236">
        <ele>1029</ele>
      </trkpt>
      <trkpt lat="48.02715" lon="7.02232">
        <ele>1029.9</ele>
      </trkpt>
      <trkpt lat="48.02708" lon="7.0223">
        <ele>1030.4</ele>
      </trkpt>
      <trkpt lat="48.02697" lon="7.02233">
        <ele>1030.1</ele>
      </trkpt>
      <trkpt lat="48.02675" lon="7.02253">
        <ele>1020.1</ele>
      </trkpt>
      <trkpt lat="48.02662" lon="7.02261">
        <ele>1012.5</ele>
      </trkpt>
      <trkpt lat="48.02667" lon="7.0223">
        <ele>1029.4</ele>
      </trkpt>
      <trkpt lat="48.02663" lon="7.02211">
        <ele>1016.6</ele>
      </trkpt>
      <trkpt lat="48.0266" lon="7.02205">
        <ele>1017.2</ele>
      </trkpt>
      <trkpt lat="48.02643" lon="7.02191">
        <ele>1016</ele>
      </trkpt>
      <trkpt lat="48.02629" lon="7.02185">
        <ele>1011.1</ele>
      </trkpt>
      <trkpt lat="48.0262" lon="7.02177">
        <ele>1007.6</ele>
      </trkpt>
      <trkpt lat="48.02613" lon="7.02165">
        <ele>1016.3</ele>
      </trkpt>
      <trkpt lat="48.02608" lon="7.02147">
        <ele>1017</ele>
      </trkpt>
      <trkpt lat="48.02599" lon="7.02121">
        <ele>1020.8</ele>
      </trkpt>
      <trkpt lat="48.02598" lon="7.0211">
        <ele>1021.9</ele>
      </trkpt>
      <trkpt lat="48.02602" lon="7.02053">
        <ele>1033</ele>
      </trkpt>
      <trkpt lat="48.02611" lon="7.02022">
        <ele>1033.8</ele>
      </trkpt>
      <trkpt lat="48.02634" lon="7.01982">
        <ele>1040.9</ele>
      </trkpt>
      <trkpt lat="48.02646" lon="7.0195">
        <ele>1035</ele>
      </trkpt>
      <trkpt lat="48.0265" lon="7.01936">
        <ele>1032.2</ele>
      </trkpt>
      <trkpt lat="48.02651" lon="7.01948">
        <ele>1035.7</ele>
      </trkpt>
      <trkpt lat="48.02659" lon="7.01942">
        <ele>1035.2</ele>
      </trkpt>
      <trkpt lat="48.02673" lon="7.01927">
        <ele>1057.5</ele>
      </trkpt>
      <trkpt lat="48.02673" lon="7.01909">
        <ele>1043.4</ele>
      </trkpt>
      <trkpt lat="48.0268" lon="7.01893">
        <ele>1054.3</ele>
      </trkpt>
      <trkpt lat="48.02685" lon="7.0189">
        <ele>1057</ele>
      </trkpt>
      <trkpt lat="48.02689" lon="7.01879">
        <ele>1058.8</ele>
      </trkpt>
      <trkpt lat="48.02699" lon="7.01824">
        <ele>1045</ele>
      </trkpt>
      <trkpt lat="48.02692" lon="7.01793">
        <ele>1043</ele>
      </trkpt>
      <trkpt lat="48.02693" lon="7.01782">
        <ele>1042.7</ele>
      </trkpt>
      <trkpt lat="48.0271" lon="7.01712">
        <ele>1045.1</ele>
      </trkpt>
      <trkpt lat="48.02715" lon="7.01703">
        <ele>1046.2</ele>
      </trkpt>
      <trkpt lat="48.02726" lon="7.01658">
        <ele>1054.3</ele>
      </trkpt>
      <trkpt lat="48.02733" lon="7.01644">
        <ele>1055.4</ele>
      </trkpt>
      <trkpt lat="48.02744" lon="7.01629">
        <ele>1057.1</ele>
      </trkpt>
      <trkpt lat="48.02745" lon="7.01622">
        <ele>1057.9</ele>
      </trkpt>
      <trkpt lat="48.02744" lon="7.01617">
        <ele>1058.5</ele>
      </trkpt>
      <trkpt lat="48.02739" lon="7.01606">
        <ele>1059.9</ele>
      </trkpt>
      <trkpt lat="48.0272" lon="7.01593">
        <ele>1059.1</ele>
      </trkpt>
      <trkpt lat="48.02708" lon="7.01592">
        <ele>1057.8</ele>
      </trkpt>
      <trkpt lat="48.02697" lon="7.01594">
        <ele>1057.1</ele>
      </trkpt>
      <trkpt lat="48.02681" lon="7.01584">
        <ele>1057.9</ele>
      </trkpt>
      <trkpt lat="48.02652" lon="7.01587">
        <ele>1054.1</ele>
      </trkpt>
      <trkpt lat="48.02642" lon="7.01581">
        <ele>1062.6</ele>
        <extensions>
          <visugpx:TrkExtension xmlns:visugpx="https://www.visugpx.com/editgpx/">
            <visugpx:node>305</visugpx:node>
            </visugpx:TrkExtension>
        </extensions>
      </trkpt>
      <trkpt lat="48.02601" lon="7.0156">
        <ele>1060.8</ele>
      </trkpt>
      <trkpt lat="48.02582" lon="7.01539">
        <ele>1051.1</ele>
      </trkpt>
      <trkpt lat="48.02573" lon="7.01534">
        <ele>1051.1</ele>
      </trkpt>
      <trkpt lat="48.02553" lon="7.01535">
        <ele>1049</ele>
      </trkpt>
      <trkpt lat="48.02534" lon="7.01541">
        <ele>1046.7</ele>
      </trkpt>
      <trkpt lat="48.02532" lon="7.01538">
        <ele>1046.5</ele>
      </trkpt>
      <trkpt lat="48.02537" lon="7.01527">
        <ele>1047.3</ele>
      </trkpt>
      <trkpt lat="48.02527" lon="7.01512">
        <ele>1045.8</ele>
      </trkpt>
      <trkpt lat="48.02526" lon="7.01496">
        <ele>1049</ele>
      </trkpt>
      <trkpt lat="48.02522" lon="7.01484">
        <ele>1049.1</ele>
      </trkpt>
      <trkpt lat="48.02516" lon="7.01485">
        <ele>1047.8</ele>
      </trkpt>
      <trkpt lat="48.02509" lon="7.01489">
        <ele>1045.5</ele>
      </trkpt>
      <trkpt lat="48.02486" lon="7.01476">
        <ele>1043.4</ele>
      </trkpt>
      <trkpt lat="48.02454" lon="7.01477">
        <ele>1043.5</ele>
      </trkpt>
      <trkpt lat="48.0244" lon="7.01473">
        <ele>1043.5</ele>
      </trkpt>
      <trkpt lat="48.02417" lon="7.01477">
        <ele>1042</ele>
      </trkpt>
      <trkpt lat="48.02411" lon="7.01488">
        <ele>1044.1</ele>
      </trkpt>
      <trkpt lat="48.02405" lon="7.01506">
        <ele>1037.7</ele>
      </trkpt>
      <trkpt lat="48.02386" lon="7.01518">
        <ele>1039.9</ele>
      </trkpt>
      <trkpt lat="48.02377" lon="7.01526">
        <ele>1040.6</ele>
      </trkpt>
      <trkpt lat="48.02368" lon="7.01541">
        <ele>1040.1</ele>
      </trkpt>
      <trkpt lat="48.02359" lon="7.0155">
        <ele>1039.8</ele>
      </trkpt>
      <trkpt lat="48.02345" lon="7.01592">
        <ele>1031.9</ele>
      </trkpt>
      <trkpt lat="48.02306" lon="7.01617">
        <ele>1032.1</ele>
      </trkpt>
      <trkpt lat="48.02275" lon="7.01626">
        <ele>1032.4</ele>
      </trkpt>
      <trkpt lat="48.02265" lon="7.01623">
        <ele>1033.5</ele>
      </trkpt>
      <trkpt lat="48.02242" lon="7.01618">
        <ele>1040</ele>
      </trkpt>
      <trkpt lat="48.02229" lon="7.01618">
        <ele>1040.1</ele>
      </trkpt>
      <trkpt lat="48.0222" lon="7.01627">
        <ele>1038.4</ele>
      </trkpt>
      <trkpt lat="48.02207" lon="7.01628">
        <ele>1038.8</ele>
      </trkpt>
      <trkpt lat="48.02183" lon="7.01617">
        <ele>1041.9</ele>
      </trkpt>
      <trkpt lat="48.02176" lon="7.01619">
        <ele>1041.8</ele>
      </trkpt>
      <trkpt lat="48.02173" lon="7.01621">
        <ele>1041.4</ele>
      </trkpt>
      <trkpt lat="48.02169" lon="7.01634">
        <ele>1038.3</ele>
      </trkpt>
      <trkpt lat="48.02169" lon="7.0165">
        <ele>1034.4</ele>
      </trkpt>
      <trkpt lat="48.02167" lon="7.0166">
        <ele>1031.4</ele>
      </trkpt>
      <trkpt lat="48.02164" lon="7.01667">
        <ele>1029.2</ele>
      </trkpt>
      <trkpt lat="48.02154" lon="7.01675">
        <ele>1029.9</ele>
      </trkpt>
      <trkpt lat="48.02145" lon="7.01693">
        <ele>1029.5</ele>
      </trkpt>
      <trkpt lat="48.0214" lon="7.01697">
        <ele>1029.6</ele>
      </trkpt>
      <trkpt lat="48.0213" lon="7.017">
        <ele>1030.4</ele>
      </trkpt>
      <trkpt lat="48.02084" lon="7.01736">
        <ele>1026.1</ele>
      </trkpt>
      <trkpt lat="48.0206" lon="7.01746">
        <ele>1042.6</ele>
      </trkpt>
      <trkpt lat="48.02053" lon="7.01743">
        <ele>1046.3</ele>
      </trkpt>
      <trkpt lat="48.02042" lon="7.01732">
        <ele>1051.6</ele>
      </trkpt>
      <trkpt lat="48.02037" lon="7.01719">
        <ele>1055.1</ele>
      </trkpt>
      <trkpt lat="48.02045" lon="7.0173">
        <ele>1051.2</ele>
      </trkpt>
      <trkpt lat="48.02045" lon="7.01727">
        <ele>1051.8</ele>
      </trkpt>
      <trkpt lat="48.02038" lon="7.01717">
        <ele>1055.3</ele>
      </trkpt>
      <trkpt lat="48.02025" lon="7.01712">
        <ele>1058.7</ele>
      </trkpt>
      <trkpt lat="48.02014" lon="7.01715">
        <ele>1059.5</ele>
      </trkpt>
      <trkpt lat="48.02008" lon="7.01727">
        <ele>1057.2</ele>
      </trkpt>
      <trkpt lat="48.02007" lon="7.01727">
        <ele>1057.3</ele>
        <extensions>
          <visugpx:TrkExtension xmlns:visugpx="https://www.visugpx.com/editgpx/">
            <visugpx:node>306</visugpx:node>
            </visugpx:TrkExtension>
        </extensions>
      </trkpt>
      <trkpt lat="48.01998" lon="7.01737">
        <ele>1065.5</ele>
      </trkpt>
      <trkpt lat="48.01987" lon="7.01746">
        <ele>1065.5</ele>
      </trkpt>
      <trkpt lat="48.01977" lon="7.0175">
        <ele>1052.4</ele>
      </trkpt>
      <trkpt lat="48.01966" lon="7.01747">
        <ele>1073.6</ele>
      </trkpt>
      <trkpt lat="48.01942" lon="7.01731">
        <ele>1078.8</ele>
      </trkpt>
      <trkpt lat="48.0192" lon="7.0173">
        <ele>1079</ele>
      </trkpt>
      <trkpt lat="48.019" lon="7.01734">
        <ele>1090.5</ele>
      </trkpt>
      <trkpt lat="48.01887" lon="7.01744">
        <ele>1092.8</ele>
      </trkpt>
      <trkpt lat="48.01884" lon="7.01757">
        <ele>1074.6</ele>
      </trkpt>
      <trkpt lat="48.01866" lon="7.01786">
        <ele>1073.9</ele>
      </trkpt>
      <trkpt lat="48.01856" lon="7.01793">
        <ele>1073.9</ele>
      </trkpt>
      <trkpt lat="48.01824" lon="7.01802">
        <ele>1083.9</ele>
      </trkpt>
      <trkpt lat="48.01819" lon="7.01808">
        <ele>1082.7</ele>
      </trkpt>
      <trkpt lat="48.01808" lon="7.01828">
        <ele>1080.6</ele>
      </trkpt>
      <trkpt lat="48.018" lon="7.01838">
        <ele>1069.6</ele>
      </trkpt>
      <trkpt lat="48.01795" lon="7.01846">
        <ele>1069.5</ele>
      </trkpt>
      <trkpt lat="48.01794" lon="7.01838">
        <ele>1069.9</ele>
      </trkpt>
      <trkpt lat="48.01794" lon="7.01828">
        <ele>1082.5</ele>
      </trkpt>
      <trkpt lat="48.01791" lon="7.01824">
        <ele>1083.1</ele>
      </trkpt>
      <trkpt lat="48.01787" lon="7.01824">
        <ele>1083.2</ele>
      </trkpt>
      <trkpt lat="48.0177" lon="7.01805">
        <ele>1085.9</ele>
      </trkpt>
      <trkpt lat="48.01752" lon="7.01763">
        <ele>1098.4</ele>
      </trkpt>
      <trkpt lat="48.0175" lon="7.01756">
        <ele>1099.5</ele>
      </trkpt>
      <trkpt lat="48.01751" lon="7.01752">
        <ele>1104.4</ele>
      </trkpt>
      <trkpt lat="48.01764" lon="7.01752">
        <ele>1098.5</ele>
      </trkpt>
      <trkpt lat="48.01785" lon="7.01743">
        <ele>1111.5</ele>
      </trkpt>
      <trkpt lat="48.01785" lon="7.01742">
        <ele>1111.5</ele>
      </trkpt>
      <trkpt lat="48.01785" lon="7.0174">
        <ele>1111.7</ele>
      </trkpt>
      <trkpt lat="48.01778" lon="7.01737">
        <ele>1112.1</ele>
      </trkpt>
      <trkpt lat="48.01761" lon="7.01716">
        <ele>1115.4</ele>
      </trkpt>
      <trkpt lat="48.01742" lon="7.01699">
        <ele>1109.9</ele>
      </trkpt>
      <trkpt lat="48.01718" lon="7.01634">
        <ele>1125.3</ele>
      </trkpt>
      <trkpt lat="48.01708" lon="7.01613">
        <ele>1125.5</ele>
      </trkpt>
      <trkpt lat="48.01698" lon="7.01583">
        <ele>1138</ele>
      </trkpt>
      <trkpt lat="48.01686" lon="7.01558">
        <ele>1138.3</ele>
      </trkpt>
      <trkpt lat="48.0166" lon="7.01519">
        <ele>1126</ele>
      </trkpt>
      <trkpt lat="48.01647" lon="7.01507">
        <ele>1125.3</ele>
      </trkpt>
      <trkpt lat="48.01637" lon="7.01489">
        <ele>1139.4</ele>
      </trkpt>
      <trkpt lat="48.01624" lon="7.01473">
        <ele>1139.2</ele>
        <extensions>
          <visugpx:TrkExtension xmlns:visugpx="https://www.visugpx.com/editgpx/">
            <visugpx:node>307</visugpx:node>
            </visugpx:TrkExtension>
        </extensions>
      </trkpt>
      <trkpt lat="48.01621" lon="7.0147">
        <ele>1139.2</ele>
      </trkpt>
      <trkpt lat="48.0161" lon="7.01447">
        <ele>1142.6</ele>
      </trkpt>
      <trkpt lat="48.01594" lon="7.01426">
        <ele>1145.6</ele>
      </trkpt>
      <trkpt lat="48.01587" lon="7.01412">
        <ele>1153.1</ele>
      </trkpt>
      <trkpt lat="48.01573" lon="7.01393">
        <ele>1150.2</ele>
      </trkpt>
      <trkpt lat="48.01543" lon="7.01365">
        <ele>1151.7</ele>
      </trkpt>
      <trkpt lat="48.01532" lon="7.01361">
        <ele>1151</ele>
      </trkpt>
      <trkpt lat="48.01511" lon="7.01342">
        <ele>1152.3</ele>
      </trkpt>
      <trkpt lat="48.01508" lon="7.0133">
        <ele>1158</ele>
      </trkpt>
      <trkpt lat="48.01498" lon="7.01317">
        <ele>1151.9</ele>
      </trkpt>
      <trkpt lat="48.01493" lon="7.01305">
        <ele>1151.4</ele>
      </trkpt>
      <trkpt lat="48.01491" lon="7.01292">
        <ele>1151.8</ele>
      </trkpt>
      <trkpt lat="48.01491" lon="7.01259">
        <ele>1156.7</ele>
      </trkpt>
      <trkpt lat="48.01491" lon="7.01239">
        <ele>1157.3</ele>
      </trkpt>
      <trkpt lat="48.01495" lon="7.01228">
        <ele>1156</ele>
      </trkpt>
      <trkpt lat="48.01499" lon="7.01216">
        <ele>1155.1</ele>
      </trkpt>
      <trkpt lat="48.01502" lon="7.0121">
        <ele>1168.1</ele>
      </trkpt>
      <trkpt lat="48.01508" lon="7.01206">
        <ele>1168.4</ele>
      </trkpt>
      <trkpt lat="48.01509" lon="7.01198">
        <ele>1168.1</ele>
      </trkpt>
      <trkpt lat="48.01513" lon="7.01185">
        <ele>1167.2</ele>
      </trkpt>
      <trkpt lat="48.01519" lon="7.0117">
        <ele>1167</ele>
      </trkpt>
      <trkpt lat="48.01524" lon="7.01161">
        <ele>1165.1</ele>
      </trkpt>
      <trkpt lat="48.0153" lon="7.01153">
        <ele>1166.2</ele>
      </trkpt>
      <trkpt lat="48.01578" lon="7.0109">
        <ele>1171.9</ele>
      </trkpt>
      <trkpt lat="48.01612" lon="7.01031">
        <ele>1183.8</ele>
      </trkpt>
      <trkpt lat="48.01627" lon="7.00997">
        <ele>1185.7</ele>
      </trkpt>
      <trkpt lat="48.01633" lon="7.00955">
        <ele>1186.9</ele>
      </trkpt>
      <trkpt lat="48.01633" lon="7.00878">
        <ele>1187.7</ele>
        <extensions>
          <visugpx:TrkExtension xmlns:visugpx="https://www.visugpx.com/editgpx/">
            <visugpx:node>308</visugpx:node>
            </visugpx:TrkExtension>
        </extensions>
      </trkpt>
      <trkpt lat="48.01633" lon="7.00858">
        <ele>1188.2</ele>
      </trkpt>
      <trkpt lat="48.01636" lon="7.00789">
        <ele>1191.9</ele>
      </trkpt>
      <trkpt lat="48.01633" lon="7.00754">
        <ele>1193</ele>
      </trkpt>
      <trkpt lat="48.01632" lon="7.00732">
        <ele>1193.1</ele>
      </trkpt>
      <trkpt lat="48.01635" lon="7.00702">
        <ele>1192.8</ele>
      </trkpt>
      <trkpt lat="48.01653" lon="7.00625">
        <ele>1191</ele>
      </trkpt>
      <trkpt lat="48.01664" lon="7.00595">
        <ele>1195.5</ele>
      </trkpt>
      <trkpt lat="48.01677" lon="7.00571">
        <ele>1205.9</ele>
      </trkpt>
      <trkpt lat="48.01712" lon="7.00523">
        <ele>1211.2</ele>
      </trkpt>
      <trkpt lat="48.01723" lon="7.00499">
        <ele>1208.7</ele>
      </trkpt>
      <trkpt lat="48.0175" lon="7.00427">
        <ele>1213.8</ele>
      </trkpt>
      <trkpt lat="48.0176" lon="7.00372">
        <ele>1229.3</ele>
      </trkpt>
      <trkpt lat="48.01769" lon="7.00341">
        <ele>1226.7</ele>
      </trkpt>
      <trkpt lat="48.01771" lon="7.00322">
        <ele>1229</ele>
      </trkpt>
      <trkpt lat="48.01769" lon="7.00295">
        <ele>1232.1</ele>
      </trkpt>
      <trkpt lat="48.01768" lon="7.00254">
        <ele>1229.8</ele>
      </trkpt>
      <trkpt lat="48.01762" lon="7.00237">
        <ele>1232.8</ele>
      </trkpt>
      <trkpt lat="48.01755" lon="7.00197">
        <ele>1238.7</ele>
      </trkpt>
      <trkpt lat="48.01744" lon="7.00158">
        <ele>1226.4</ele>
      </trkpt>
      <trkpt lat="48.01734" lon="7.00121">
        <ele>1221.9</ele>
      </trkpt>
      <trkpt lat="48.01729" lon="7.00088">
        <ele>1226.3</ele>
      </trkpt>
      <trkpt lat="48.01723" lon="7.00031">
        <ele>1229.5</ele>
      </trkpt>
      <trkpt lat="48.01727" lon="6.99968">
        <ele>1233.9</ele>
      </trkpt>
      <trkpt lat="48.01725" lon="6.99917">
        <ele>1235.5</ele>
      </trkpt>
      <trkpt lat="48.01727" lon="6.99887">
        <ele>1233.5</ele>
      </trkpt>
      <trkpt lat="48.0173" lon="6.99881">
        <ele>1233.7</ele>
      </trkpt>
      <trkpt lat="48.01732" lon="6.9986">
        <ele>1234.2</ele>
      </trkpt>
      <trkpt lat="48.01739" lon="6.99819">
        <ele>1234.6</ele>
      </trkpt>
      <trkpt lat="48.01756" lon="6.99778">
        <ele>1249</ele>
        <extensions>
          <visugpx:TrkExtension xmlns:visugpx="https://www.visugpx.com/editgpx/">
            <visugpx:node>309</visugpx:node>
            </visugpx:TrkExtension>
        </extensions>
      </trkpt>
      <trkpt lat="48.01761" lon="6.99767">
        <ele>1247.3</ele>
      </trkpt>
      <trkpt lat="48.01784" lon="6.99736">
        <ele>1242.7</ele>
      </trkpt>
      <trkpt lat="48.01788" lon="6.99733">
        <ele>1243.4</ele>
      </trkpt>
      <trkpt lat="48.01791" lon="6.99728">
        <ele>1243.6</ele>
      </trkpt>
      <trkpt lat="48.01796" lon="6.99725">
        <ele>1244.4</ele>
      </trkpt>
      <trkpt lat="48.01811" lon="6.99702">
        <ele>1244.4</ele>
      </trkpt>
      <trkpt lat="48.01826" lon="6.99689">
        <ele>1245.8</ele>
      </trkpt>
      <trkpt lat="48.01837" lon="6.99675">
        <ele>1257.4</ele>
      </trkpt>
      <trkpt lat="48.0184" lon="6.99658">
        <ele>1252.3</ele>
      </trkpt>
      <trkpt lat="48.01851" lon="6.99633">
        <ele>1253.3</ele>
      </trkpt>
      <trkpt lat="48.01867" lon="6.99606">
        <ele>1252.7</ele>
      </trkpt>
      <trkpt lat="48.01872" lon="6.99603">
        <ele>1253.9</ele>
      </trkpt>
      <trkpt lat="48.01875" lon="6.99594">
        <ele>1254.1</ele>
      </trkpt>
      <trkpt lat="48.0188" lon="6.99587">
        <ele>1255.5</ele>
      </trkpt>
      <trkpt lat="48.01881" lon="6.99582">
        <ele>1243.9</ele>
      </trkpt>
      <trkpt lat="48.01893" lon="6.99556">
        <ele>1244.9</ele>
      </trkpt>
      <trkpt lat="48.01899" lon="6.99546">
        <ele>1244.5</ele>
      </trkpt>
      <trkpt lat="48.01905" lon="6.99526">
        <ele>1244.1</ele>
      </trkpt>
      <trkpt lat="48.01906" lon="6.99507">
        <ele>1246.6</ele>
      </trkpt>
      <trkpt lat="48.01909" lon="6.99497">
        <ele>1243.8</ele>
      </trkpt>
      <trkpt lat="48.01914" lon="6.99485">
        <ele>1238.9</ele>
      </trkpt>
      <trkpt lat="48.01924" lon="6.99471">
        <ele>1258.1</ele>
      </trkpt>
      <trkpt lat="48.01931" lon="6.99452">
        <ele>1257.6</ele>
      </trkpt>
      <trkpt lat="48.01933" lon="6.99427">
        <ele>1253.4</ele>
      </trkpt>
      <trkpt lat="48.01944" lon="6.99364">
        <ele>1250.4</ele>
      </trkpt>
      <trkpt lat="48.01949" lon="6.99345">
        <ele>1250</ele>
      </trkpt>
      <trkpt lat="48.0195" lon="6.9932">
        <ele>1249.4</ele>
      </trkpt>
      <trkpt lat="48.01952" lon="6.99314">
        <ele>1250.3</ele>
      </trkpt>
      <trkpt lat="48.01946" lon="6.99287">
        <ele>1250.4</ele>
      </trkpt>
      <trkpt lat="48.01946" lon="6.99277">
        <ele>1250.6</ele>
      </trkpt>
      <trkpt lat="48.0195" lon="6.99261">
        <ele>1251.3</ele>
      </trkpt>
      <trkpt lat="48.01947" lon="6.99253">
        <ele>1250.6</ele>
      </trkpt>
      <trkpt lat="48.01943" lon="6.99247">
        <ele>1254.4</ele>
      </trkpt>
      <trkpt lat="48.0192" lon="6.99229">
        <ele>1252.2</ele>
      </trkpt>
      <trkpt lat="48.01903" lon="6.99204">
        <ele>1237.8</ele>
      </trkpt>
      <trkpt lat="48.01882" lon="6.99099">
        <ele>1245.9</ele>
      </trkpt>
      <trkpt lat="48.0188" lon="6.99094">
        <ele>1245.6</ele>
        <extensions>
          <visugpx:TrkExtension xmlns:visugpx="https://www.visugpx.com/editgpx/">
            <visugpx:node>310</visugpx:node>
            </visugpx:TrkExtension>
        </extensions>
      </trkpt>
      <trkpt lat="48.01874" lon="6.99071">
        <ele>1245.8</ele>
      </trkpt>
      <trkpt lat="48.01867" lon="6.9904">
        <ele>1245.1</ele>
      </trkpt>
      <trkpt lat="48.01843" lon="6.98959">
        <ele>1241.6</ele>
      </trkpt>
      <trkpt lat="48.01839" lon="6.9894">
        <ele>1240</ele>
      </trkpt>
      <trkpt lat="48.01827" lon="6.98926">
        <ele>1232.8</ele>
      </trkpt>
      <trkpt lat="48.01802" lon="6.98898">
        <ele>1225.3</ele>
      </trkpt>
      <trkpt lat="48.01777" lon="6.98877">
        <ele>1221.9</ele>
      </trkpt>
      <trkpt lat="48.01731" lon="6.98836">
        <ele>1210.4</ele>
      </trkpt>
      <trkpt lat="48.01725" lon="6.98828">
        <ele>1209.6</ele>
      </trkpt>
      <trkpt lat="48.01719" lon="6.9882">
        <ele>1209</ele>
      </trkpt>
      <trkpt lat="48.01711" lon="6.98812">
        <ele>1208.4</ele>
      </trkpt>
      <trkpt lat="48.01695" lon="6.98785">
        <ele>1208.3</ele>
      </trkpt>
      <trkpt lat="48.01686" lon="6.98773">
        <ele>1208.6</ele>
      </trkpt>
      <trkpt lat="48.01676" lon="6.98761">
        <ele>1209.1</ele>
      </trkpt>
      <trkpt lat="48.0166" lon="6.98736">
        <ele>1204.9</ele>
      </trkpt>
      <trkpt lat="48.01653" lon="6.9872">
        <ele>1202</ele>
      </trkpt>
      <trkpt lat="48.01644" lon="6.98708">
        <ele>1200.7</ele>
      </trkpt>
      <trkpt lat="48.01635" lon="6.98688">
        <ele>1199.8</ele>
      </trkpt>
      <trkpt lat="48.01626" lon="6.98678">
        <ele>1199.2</ele>
      </trkpt>
      <trkpt lat="48.01623" lon="6.98671">
        <ele>1199</ele>
      </trkpt>
      <trkpt lat="48.01617" lon="6.9866">
        <ele>1195</ele>
      </trkpt>
      <trkpt lat="48.01612" lon="6.98649">
        <ele>1194.5</ele>
      </trkpt>
      <trkpt lat="48.0161" lon="6.98639">
        <ele>1194.1</ele>
      </trkpt>
      <trkpt lat="48.01607" lon="6.9863">
        <ele>1193.6</ele>
      </trkpt>
      <trkpt lat="48.01599" lon="6.98621">
        <ele>1193.1</ele>
      </trkpt>
      <trkpt lat="48.01588" lon="6.9862">
        <ele>1193.1</ele>
      </trkpt>
      <trkpt lat="48.0158" lon="6.98611">
        <ele>1190.2</ele>
      </trkpt>
      <trkpt lat="48.01569" lon="6.98603">
        <ele>1190</ele>
      </trkpt>
      <trkpt lat="48.01517" lon="6.98579">
        <ele>1186.2</ele>
      </trkpt>
      <trkpt lat="48.01506" lon="6.98571">
        <ele>1186.4</ele>
      </trkpt>
      <trkpt lat="48.01501" lon="6.98566">
        <ele>1185.9</ele>
      </trkpt>
      <trkpt lat="48.01479" lon="6.9856">
        <ele>1189.1</ele>
      </trkpt>
      <trkpt lat="48.01464" lon="6.98566">
        <ele>1190</ele>
      </trkpt>
      <trkpt lat="48.01434" lon="6.98559">
        <ele>1191.7</ele>
      </trkpt>
      <trkpt lat="48.01339" lon="6.98519">
        <ele>1204.5</ele>
      </trkpt>
      <trkpt lat="48.01288" lon="6.98466">
        <ele>1211.8</ele>
      </trkpt>
      <trkpt lat="48.0126" lon="6.98443">
        <ele>1214.9</ele>
      </trkpt>
      <trkpt lat="48.01245" lon="6.98427">
        <ele>1218.7</ele>
        <extensions>
          <visugpx:TrkExtension xmlns:visugpx="https://www.visugpx.com/editgpx/">
            <visugpx:node>311</visugpx:node>
            </visugpx:TrkExtension>
        </extensions>
      </trkpt>
      <trkpt lat="48.01226" lon="6.98407">
        <ele>1224.3</ele>
      </trkpt>
      <trkpt lat="48.01209" lon="6.98397">
        <ele>1224.9</ele>
      </trkpt>
      <trkpt lat="48.01201" lon="6.98383">
        <ele>1225.5</ele>
      </trkpt>
      <trkpt lat="48.01193" lon="6.98374">
        <ele>1226.3</ele>
      </trkpt>
      <trkpt lat="48.01179" lon="6.98366">
        <ele>1227.6</ele>
      </trkpt>
      <trkpt lat="48.01171" lon="6.98336">
        <ele>1233.9</ele>
      </trkpt>
      <trkpt lat="48.01147" lon="6.98363">
        <ele>1232.9</ele>
      </trkpt>
      <trkpt lat="48.01148" lon="6.98349">
        <ele>1234.3</ele>
      </trkpt>
      <trkpt lat="48.01145" lon="6.98334">
        <ele>1235.2</ele>
      </trkpt>
      <trkpt lat="48.01141" lon="6.98324">
        <ele>1244.9</ele>
      </trkpt>
      <trkpt lat="48.01137" lon="6.98319">
        <ele>1245.9</ele>
      </trkpt>
      <trkpt lat="48.01133" lon="6.98324">
        <ele>1246.4</ele>
      </trkpt>
      <trkpt lat="48.01122" lon="6.9833">
        <ele>1248.2</ele>
      </trkpt>
      <trkpt lat="48.01119" lon="6.9833">
        <ele>1248.7</ele>
      </trkpt>
      <trkpt lat="48.01118" lon="6.98312">
        <ele>1249.3</ele>
      </trkpt>
      <trkpt lat="48.01114" lon="6.98292">
        <ele>1250.9</ele>
      </trkpt>
      <trkpt lat="48.01103" lon="6.98305">
        <ele>1251.4</ele>
      </trkpt>
      <trkpt lat="48.01096" lon="6.9831">
        <ele>1251.9</ele>
      </trkpt>
      <trkpt lat="48.01093" lon="6.98292">
        <ele>1253.4</ele>
      </trkpt>
      <trkpt lat="48.01088" lon="6.9828">
        <ele>1255.8</ele>
      </trkpt>
      <trkpt lat="48.01083" lon="6.98277">
        <ele>1273.1</ele>
      </trkpt>
      <trkpt lat="48.01066" lon="6.9829">
        <ele>1273.9</ele>
      </trkpt>
      <trkpt lat="48.01057" lon="6.98287">
        <ele>1275.5</ele>
      </trkpt>
      <trkpt lat="48.01045" lon="6.98288">
        <ele>1277.6</ele>
      </trkpt>
      <trkpt lat="48.01038" lon="6.98286">
        <ele>1279.1</ele>
      </trkpt>
      <trkpt lat="48.01026" lon="6.98288">
        <ele>1281.1</ele>
      </trkpt>
      <trkpt lat="48.01021" lon="6.9828">
        <ele>1282.7</ele>
      </trkpt>
      <trkpt lat="48.00988" lon="6.98281">
        <ele>1291.4</ele>
      </trkpt>
      <trkpt lat="48.00979" lon="6.98277">
        <ele>1291.2</ele>
      </trkpt>
      <trkpt lat="48.0098" lon="6.98267">
        <ele>1292</ele>
      </trkpt>
      <trkpt lat="48.00979" lon="6.9826">
        <ele>1292.4</ele>
      </trkpt>
      <trkpt lat="48.00961" lon="6.9819">
        <ele>1290.3</ele>
      </trkpt>
      <trkpt lat="48.00953" lon="6.98162">
        <ele>1286.4</ele>
      </trkpt>
      <trkpt lat="48.00957" lon="6.98161">
        <ele>1286.4</ele>
      </trkpt>
      <trkpt lat="48.00947" lon="6.98059">
        <ele>1279.2</ele>
        <extensions>
          <visugpx:TrkExtension xmlns:visugpx="https://www.visugpx.com/editgpx/">
            <visugpx:node>312</visugpx:node>
            </visugpx:TrkExtension>
        </extensions>
      </trkpt>
      <trkpt lat="48.00944" lon="6.98019">
        <ele>1277.6</ele>
      </trkpt>
      <trkpt lat="48.00941" lon="6.97972">
        <ele>1270.8</ele>
      </trkpt>
      <trkpt lat="48.00933" lon="6.97933">
        <ele>1269.4</ele>
      </trkpt>
      <trkpt lat="48.00931" lon="6.9787">
        <ele>1260.9</ele>
      </trkpt>
      <trkpt lat="48.00934" lon="6.97834">
        <ele>1261</ele>
      </trkpt>
      <trkpt lat="48.00931" lon="6.97809">
        <ele>1252.2</ele>
      </trkpt>
      <trkpt lat="48.00926" lon="6.97794">
        <ele>1250.4</ele>
      </trkpt>
      <trkpt lat="48.00928" lon="6.97775">
        <ele>1249</ele>
      </trkpt>
      <trkpt lat="48.00927" lon="6.97753">
        <ele>1250.2</ele>
      </trkpt>
      <trkpt lat="48.0093" lon="6.97718">
        <ele>1237.5</ele>
      </trkpt>
      <trkpt lat="48.00927" lon="6.97692">
        <ele>1235.7</ele>
      </trkpt>
      <trkpt lat="48.00926" lon="6.9766">
        <ele>1232.8</ele>
      </trkpt>
      <trkpt lat="48.00929" lon="6.97644">
        <ele>1227</ele>
      </trkpt>
      <trkpt lat="48.00931" lon="6.97626">
        <ele>1223.5</ele>
      </trkpt>
      <trkpt lat="48.0093" lon="6.97619">
        <ele>1223</ele>
      </trkpt>
      <trkpt lat="48.00931" lon="6.97598">
        <ele>1222.7</ele>
      </trkpt>
      <trkpt lat="48.00932" lon="6.97583">
        <ele>1220.6</ele>
      </trkpt>
      <trkpt lat="48.00931" lon="6.97541">
        <ele>1217</ele>
      </trkpt>
      <trkpt lat="48.00929" lon="6.9753">
        <ele>1217.3</ele>
      </trkpt>
      <trkpt lat="48.00922" lon="6.97517">
        <ele>1218.8</ele>
      </trkpt>
      <trkpt lat="48.00913" lon="6.97507">
        <ele>1222</ele>
      </trkpt>
      <trkpt lat="48.00906" lon="6.97495">
        <ele>1217.8</ele>
      </trkpt>
      <trkpt lat="48.00903" lon="6.97493">
        <ele>1216.6</ele>
      </trkpt>
      <trkpt lat="48.009" lon="6.97479">
        <ele>1213.8</ele>
      </trkpt>
      <trkpt lat="48.00898" lon="6.97474">
        <ele>1212.9</ele>
      </trkpt>
      <trkpt lat="48.00892" lon="6.97469">
        <ele>1211.7</ele>
      </trkpt>
      <trkpt lat="48.00873" lon="6.9744">
        <ele>1207.9</ele>
      </trkpt>
      <trkpt lat="48.00863" lon="6.97429">
        <ele>1206</ele>
      </trkpt>
      <trkpt lat="48.00858" lon="6.97426">
        <ele>1205</ele>
      </trkpt>
      <trkpt lat="48.00855" lon="6.9742">
        <ele>1204</ele>
      </trkpt>
      <trkpt lat="48.0084" lon="6.97377">
        <ele>1196.4</ele>
      </trkpt>
      <trkpt lat="48.00816" lon="6.97323">
        <ele>1179.5</ele>
      </trkpt>
      <trkpt lat="48.00809" lon="6.97315">
        <ele>1176.8</ele>
      </trkpt>
      <trkpt lat="48.00806" lon="6.97314">
        <ele>1176.1</ele>
      </trkpt>
      <trkpt lat="48.008" lon="6.9732">
        <ele>1175.4</ele>
      </trkpt>
      <trkpt lat="48.00797" lon="6.9732">
        <ele>1174.8</ele>
      </trkpt>
      <trkpt lat="48.0079" lon="6.9731">
        <ele>1173.2</ele>
      </trkpt>
      <trkpt lat="48.00783" lon="6.9729">
        <ele>1171.6</ele>
      </trkpt>
      <trkpt lat="48.00767" lon="6.97253">
        <ele>1167.5</ele>
      </trkpt>
      <trkpt lat="48.00762" lon="6.97245">
        <ele>1163</ele>
      </trkpt>
      <trkpt lat="48.00757" lon="6.97242">
        <ele>1162.9</ele>
      </trkpt>
      <trkpt lat="48.00754" lon="6.97235">
        <ele>1162.6</ele>
      </trkpt>
      <trkpt lat="48.00746" lon="6.97214">
        <ele>1154.1</ele>
      </trkpt>
      <trkpt lat="48.00747" lon="6.97195">
        <ele>1153.5</ele>
      </trkpt>
      <trkpt lat="48.00745" lon="6.97183">
        <ele>1153.8</ele>
      </trkpt>
      <trkpt lat="48.00742" lon="6.97175">
        <ele>1154.2</ele>
      </trkpt>
      <trkpt lat="48.00733" lon="6.97159">
        <ele>1151.2</ele>
      </trkpt>
      <trkpt lat="48.00719" lon="6.97144">
        <ele>1148.7</ele>
      </trkpt>
      <trkpt lat="48.00711" lon="6.97132">
        <ele>1147.6</ele>
      </trkpt>
      <trkpt lat="48.0069" lon="6.97095">
        <ele>1145.3</ele>
      </trkpt>
      <trkpt lat="48.00685" lon="6.97081">
        <ele>1140.8</ele>
      </trkpt>
      <trkpt lat="48.00684" lon="6.9708">
        <ele>1140.8</ele>
        <extensions>
          <visugpx:TrkExtension xmlns:visugpx="https://www.visugpx.com/editgpx/">
            <visugpx:node>313</visugpx:node>
            </visugpx:TrkExtension>
        </extensions>
      </trkpt>
      <trkpt lat="48.00681" lon="6.97076">
        <ele>1140.7</ele>
      </trkpt>
      <trkpt lat="48.00661" lon="6.97037">
        <ele>1132.3</ele>
      </trkpt>
      <trkpt lat="48.00652" lon="6.97026">
        <ele>1131.6</ele>
      </trkpt>
      <trkpt lat="48.00648" lon="6.97007">
        <ele>1131.7</ele>
      </trkpt>
      <trkpt lat="48.00647" lon="6.9698">
        <ele>1126.3</ele>
      </trkpt>
      <trkpt lat="48.00636" lon="6.96922">
        <ele>1121.8</ele>
      </trkpt>
      <trkpt lat="48.00632" lon="6.96909">
        <ele>1113.5</ele>
      </trkpt>
      <trkpt lat="48.00625" lon="6.96895">
        <ele>1111.6</ele>
      </trkpt>
      <trkpt lat="48.00617" lon="6.96884">
        <ele>1110</ele>
      </trkpt>
      <trkpt lat="48.00616" lon="6.96883">
        <ele>1109.8</ele>
      </trkpt>
      <trkpt lat="48.00613" lon="6.96886">
        <ele>1109.8</ele>
      </trkpt>
      <trkpt lat="48.00607" lon="6.969">
        <ele>1110.1</ele>
      </trkpt>
      <trkpt lat="48.006" lon="6.96914">
        <ele>1109.9</ele>
      </trkpt>
      <trkpt lat="48.00581" lon="6.96948">
        <ele>1099.4</ele>
      </trkpt>
      <trkpt lat="48.0058" lon="6.96939">
        <ele>1100.1</ele>
      </trkpt>
      <trkpt lat="48.00579" lon="6.96909">
        <ele>1100.9</ele>
      </trkpt>
      <trkpt lat="48.00578" lon="6.96907">
        <ele>1099.3</ele>
      </trkpt>
      <trkpt lat="48.00577" lon="6.96907">
        <ele>1098.9</ele>
      </trkpt>
      <trkpt lat="48.00573" lon="6.96921">
        <ele>1102.3</ele>
      </trkpt>
      <trkpt lat="48.00562" lon="6.96939">
        <ele>1096.3</ele>
      </trkpt>
      <trkpt lat="48.00559" lon="6.96913">
        <ele>1091</ele>
      </trkpt>
      <trkpt lat="48.00547" lon="6.96928">
        <ele>1091.6</ele>
      </trkpt>
      <trkpt lat="48.00541" lon="6.96915">
        <ele>1083.3</ele>
      </trkpt>
      <trkpt lat="48.00533" lon="6.96942">
        <ele>1087.4</ele>
      </trkpt>
      <trkpt lat="48.0053" lon="6.96943">
        <ele>1086.5</ele>
      </trkpt>
      <trkpt lat="48.00522" lon="6.96901">
        <ele>1076.6</ele>
      </trkpt>
      <trkpt lat="48.00518" lon="6.96899">
        <ele>1075.6</ele>
      </trkpt>
      <trkpt lat="48.00512" lon="6.96919">
        <ele>1074.5</ele>
      </trkpt>
      <trkpt lat="48.00511" lon="6.9692">
        <ele>1074</ele>
      </trkpt>
      <trkpt lat="48.00489" lon="6.96859">
        <ele>1049.9</ele>
      </trkpt>
      <trkpt lat="48.00485" lon="6.96844">
        <ele>1051.1</ele>
      </trkpt>
      <trkpt lat="48.00484" lon="6.96853">
        <ele>1049.7</ele>
      </trkpt>
      <trkpt lat="48.00478" lon="6.96833">
        <ele>1047.3</ele>
      </trkpt>
      <trkpt lat="48.00473" lon="6.96823">
        <ele>1045</ele>
      </trkpt>
      <trkpt lat="48.00467" lon="6.96828">
        <ele>1043.6</ele>
      </trkpt>
      <trkpt lat="48.00462" lon="6.96829">
        <ele>1042.2</ele>
      </trkpt>
      <trkpt lat="48.00456" lon="6.96822">
        <ele>1040.5</ele>
      </trkpt>
      <trkpt lat="48.00453" lon="6.9682">
        <ele>1039.8</ele>
      </trkpt>
      <trkpt lat="48.00434" lon="6.96818">
        <ele>1035.8</ele>
      </trkpt>
      <trkpt lat="48.00423" lon="6.96812">
        <ele>1034.8</ele>
      </trkpt>
      <trkpt lat="48.00419" lon="6.96804">
        <ele>1035.4</ele>
      </trkpt>
      <trkpt lat="48.00417" lon="6.96797">
        <ele>1035.7</ele>
      </trkpt>
      <trkpt lat="48.00417" lon="6.96782">
        <ele>1035.6</ele>
      </trkpt>
      <trkpt lat="48.00413" lon="6.96772">
        <ele>1024.2</ele>
      </trkpt>
      <trkpt lat="48.00401" lon="6.96752">
        <ele>1025.1</ele>
      </trkpt>
      <trkpt lat="48.00395" lon="6.96733">
        <ele>1025.5</ele>
      </trkpt>
      <trkpt lat="48.00387" lon="6.9671">
        <ele>1024.3</ele>
      </trkpt>
      <trkpt lat="48.00381" lon="6.96687">
        <ele>1024</ele>
      </trkpt>
      <trkpt lat="48.00374" lon="6.96665">
        <ele>1024.4</ele>
      </trkpt>
      <trkpt lat="48.0036" lon="6.96633">
        <ele>1025.3</ele>
      </trkpt>
      <trkpt lat="48.00356" lon="6.96606">
        <ele>1026.9</ele>
      </trkpt>
      <trkpt lat="48.0035" lon="6.96588">
        <ele>1029.6</ele>
      </trkpt>
      <trkpt lat="48.00336" lon="6.96564">
        <ele>1026.8</ele>
      </trkpt>
      <trkpt lat="48.00327" lon="6.96555">
        <ele>1037.7</ele>
      </trkpt>
      <trkpt lat="48.00312" lon="6.96546">
        <ele>1038.5</ele>
      </trkpt>
      <trkpt lat="48.00289" lon="6.96525">
        <ele>1040.9</ele>
      </trkpt>
      <trkpt lat="48.00253" lon="6.96475">
        <ele>1045</ele>
      </trkpt>
      <trkpt lat="48.00241" lon="6.96463">
        <ele>1056.8</ele>
      </trkpt>
      <trkpt lat="48.00228" lon="6.96453">
        <ele>1057.4</ele>
      </trkpt>
      <trkpt lat="48.0019" lon="6.96433">
        <ele>1062.5</ele>
      </trkpt>
      <trkpt lat="48.00169" lon="6.96429">
        <ele>1067</ele>
      </trkpt>
      <trkpt lat="48.00132" lon="6.96434">
        <ele>1062.6</ele>
      </trkpt>
      <trkpt lat="48.00117" lon="6.9644">
        <ele>1061.3</ele>
      </trkpt>
      <trkpt lat="48.00101" lon="6.9644">
        <ele>1061.4</ele>
      </trkpt>
      <trkpt lat="48.00082" lon="6.96435">
        <ele>1058.1</ele>
      </trkpt>
      <trkpt lat="48.00071" lon="6.96437">
        <ele>1056</ele>
        <extensions>
          <visugpx:TrkExtension xmlns:visugpx="https://www.visugpx.com/editgpx/">
            <visugpx:node>314</visugpx:node>
            </visugpx:TrkExtension>
        </extensions>
      </trkpt>
      <trkpt lat="48.00061" lon="6.96439">
        <ele>1053.8</ele>
      </trkpt>
      <trkpt lat="48.0003" lon="6.9643">
        <ele>1052.3</ele>
      </trkpt>
      <trkpt lat="48.00015" lon="6.9642">
        <ele>1054.4</ele>
      </trkpt>
      <trkpt lat="48.00002" lon="6.96408">
        <ele>1065.3</ele>
      </trkpt>
      <trkpt lat="47.99974" lon="6.96388">
        <ele>1067</ele>
      </trkpt>
      <trkpt lat="47.99944" lon="6.96357">
        <ele>1071</ele>
      </trkpt>
      <trkpt lat="47.99907" lon="6.96327">
        <ele>1081.4</ele>
      </trkpt>
      <trkpt lat="47.99857" lon="6.96301">
        <ele>1083.2</ele>
      </trkpt>
      <trkpt lat="47.99834" lon="6.96284">
        <ele>1086.4</ele>
      </trkpt>
      <trkpt lat="47.99819" lon="6.96277">
        <ele>1076.5</ele>
      </trkpt>
      <trkpt lat="47.99791" lon="6.96243">
        <ele>1088.7</ele>
      </trkpt>
      <trkpt lat="47.99786" lon="6.96225">
        <ele>1088.5</ele>
      </trkpt>
      <trkpt lat="47.99785" lon="6.96215">
        <ele>1088.8</ele>
      </trkpt>
      <trkpt lat="47.99788" lon="6.96206">
        <ele>1089.7</ele>
      </trkpt>
      <trkpt lat="47.99792" lon="6.96181">
        <ele>1091.6</ele>
      </trkpt>
      <trkpt lat="47.99792" lon="6.96145">
        <ele>1092.9</ele>
      </trkpt>
      <trkpt lat="47.99792" lon="6.96129">
        <ele>1092.4</ele>
      </trkpt>
      <trkpt lat="47.99794" lon="6.96117">
        <ele>1092.7</ele>
      </trkpt>
      <trkpt lat="47.99796" lon="6.96103">
        <ele>1093.2</ele>
      </trkpt>
      <trkpt lat="47.99802" lon="6.96087">
        <ele>1096</ele>
      </trkpt>
      <trkpt lat="47.99805" lon="6.96073">
        <ele>1089.7</ele>
      </trkpt>
      <trkpt lat="47.99828" lon="6.96054">
        <ele>1092.5</ele>
      </trkpt>
      <trkpt lat="47.99852" lon="6.96016">
        <ele>1113.1</ele>
      </trkpt>
      <trkpt lat="47.99864" lon="6.96005">
        <ele>1116.1</ele>
      </trkpt>
      <trkpt lat="47.99878" lon="6.95979">
        <ele>1107.2</ele>
      </trkpt>
      <trkpt lat="47.99892" lon="6.95933">
        <ele>1104.7</ele>
      </trkpt>
      <trkpt lat="47.99909" lon="6.95904">
        <ele>1095</ele>
      </trkpt>
      <trkpt lat="47.99927" lon="6.95888">
        <ele>1106.9</ele>
      </trkpt>
      <trkpt lat="47.9995" lon="6.95874">
        <ele>1106.7</ele>
      </trkpt>
      <trkpt lat="47.99961" lon="6.95852">
        <ele>1105.1</ele>
      </trkpt>
      <trkpt lat="47.99976" lon="6.9581">
        <ele>1085.4</ele>
      </trkpt>
      <trkpt lat="48.00027" lon="6.95731">
        <ele>1085.7</ele>
      </trkpt>
      <trkpt lat="48.00033" lon="6.95716">
        <ele>1085.7</ele>
      </trkpt>
      <trkpt lat="48.00037" lon="6.95703">
        <ele>1085</ele>
      </trkpt>
      <trkpt lat="48.0005" lon="6.95676">
        <ele>1085.9</ele>
        <extensions>
          <visugpx:TrkExtension xmlns:visugpx="https://www.visugpx.com/editgpx/">
            <visugpx:node>316</visugpx:node>
            </visugpx:TrkExtension>
        </extensions>
      </trkpt>
      <trkpt lat="48.00061" lon="6.9564">
        <ele>1076.9</ele>
      </trkpt>
      <trkpt lat="48.00061" lon="6.95623">
        <ele>1074.9</ele>
      </trkpt>
      <trkpt lat="48.0006" lon="6.9561">
        <ele>1074.2</ele>
      </trkpt>
      <trkpt lat="48.00052" lon="6.95581">
        <ele>1069.2</ele>
      </trkpt>
      <trkpt lat="48.00046" lon="6.95561">
        <ele>1067.1</ele>
      </trkpt>
      <trkpt lat="48.00041" lon="6.95548">
        <ele>1065.9</ele>
      </trkpt>
      <trkpt lat="48.00024" lon="6.95512">
        <ele>1060.9</ele>
      </trkpt>
      <trkpt lat="48.00016" lon="6.95477">
        <ele>1061.2</ele>
      </trkpt>
      <trkpt lat="48.00016" lon="6.95445">
        <ele>1062.5</ele>
      </trkpt>
      <trkpt lat="48.00012" lon="6.95426">
        <ele>1059.1</ele>
      </trkpt>
      <trkpt lat="48.00009" lon="6.95405">
        <ele>1059.1</ele>
      </trkpt>
      <trkpt lat="48.00012" lon="6.95388">
        <ele>1062.3</ele>
      </trkpt>
      <trkpt lat="48.00013" lon="6.95339">
        <ele>1056.6</ele>
      </trkpt>
      <trkpt lat="48.00011" lon="6.95321">
        <ele>1056.6</ele>
      </trkpt>
      <trkpt lat="48.00005" lon="6.95301">
        <ele>1059.3</ele>
      </trkpt>
      <trkpt lat="47.99999" lon="6.95249">
        <ele>1044.4</ele>
        <extensions>
          <visugpx:TrkExtension xmlns:visugpx="https://www.visugpx.com/editgpx/">
            <visugpx:node>317</visugpx:node>
            </visugpx:TrkExtension>
        </extensions>
      </trkpt>
      <trkpt lat="47.99999" lon="6.95247">
        <ele>1042.7</ele>
      </trkpt>
      <trkpt lat="47.99998" lon="6.95209">
        <ele>1027</ele>
      </trkpt>
      <trkpt lat="48.00002" lon="6.95119">
        <ele>1044.2</ele>
      </trkpt>
      <trkpt lat="47.99996" lon="6.95064">
        <ele>1020.3</ele>
      </trkpt>
      <trkpt lat="47.99996" lon="6.95045">
        <ele>1016.6</ele>
      </trkpt>
      <trkpt lat="48.00011" lon="6.94988">
        <ele>1030.6</ele>
      </trkpt>
      <trkpt lat="48.00012" lon="6.9497">
        <ele>1031.4</ele>
      </trkpt>
      <trkpt lat="47.99998" lon="6.94948">
        <ele>1008.1</ele>
      </trkpt>
      <trkpt lat="47.99979" lon="6.94895">
        <ele>995.7</ele>
      </trkpt>
      <trkpt lat="47.99964" lon="6.9494">
        <ele>1000.9</ele>
      </trkpt>
      <trkpt lat="47.99955" lon="6.94962">
        <ele>999.9</ele>
      </trkpt>
      <trkpt lat="47.99955" lon="6.94942">
        <ele>998.2</ele>
      </trkpt>
      <trkpt lat="47.99967" lon="6.94839">
        <ele>988.1</ele>
      </trkpt>
      <trkpt lat="47.99982" lon="6.94746">
        <ele>977.8</ele>
      </trkpt>
      <trkpt lat="47.99983" lon="6.94732">
        <ele>975.5</ele>
      </trkpt>
      <trkpt lat="47.99978" lon="6.94693">
        <ele>970.4</ele>
      </trkpt>
      <trkpt lat="47.99977" lon="6.94678">
        <ele>970.7</ele>
      </trkpt>
      <trkpt lat="47.9998" lon="6.9465">
        <ele>970</ele>
      </trkpt>
      <trkpt lat="47.99983" lon="6.94639">
        <ele>969.5</ele>
      </trkpt>
      <trkpt lat="47.99987" lon="6.94629">
        <ele>969.1</ele>
      </trkpt>
      <trkpt lat="48" lon="6.94607">
        <ele>972.3</ele>
      </trkpt>
      <trkpt lat="48.00017" lon="6.94599">
        <ele>975</ele>
      </trkpt>
      <trkpt lat="48.00023" lon="6.94593">
        <ele>975.1</ele>
      </trkpt>
      <trkpt lat="48.00029" lon="6.94578">
        <ele>970.2</ele>
      </trkpt>
      <trkpt lat="48.00038" lon="6.9456">
        <ele>970.2</ele>
      </trkpt>
      <trkpt lat="48.00034" lon="6.94551">
        <ele>970.3</ele>
      </trkpt>
      <trkpt lat="48.0002" lon="6.94538">
        <ele>971</ele>
      </trkpt>
      <trkpt lat="48.00017" lon="6.94536">
        <ele>971.2</ele>
      </trkpt>
      <trkpt lat="47.99991" lon="6.94549">
        <ele>974.7</ele>
      </trkpt>
      <trkpt lat="47.99981" lon="6.9454">
        <ele>975.7</ele>
      </trkpt>
      <trkpt lat="47.9998" lon="6.9452">
        <ele>976.9</ele>
      </trkpt>
      <trkpt lat="47.99989" lon="6.94474">
        <ele>986.3</ele>
      </trkpt>
      <trkpt lat="47.99984" lon="6.94462">
        <ele>988.2</ele>
      </trkpt>
      <trkpt lat="47.99975" lon="6.94462">
        <ele>989.2</ele>
      </trkpt>
      <trkpt lat="47.99943" lon="6.94487">
        <ele>991.1</ele>
      </trkpt>
      <trkpt lat="47.99925" lon="6.94497">
        <ele>991.3</ele>
      </trkpt>
      <trkpt lat="47.99892" lon="6.94508">
        <ele>985.9</ele>
      </trkpt>
      <trkpt lat="47.99882" lon="6.94508">
        <ele>985.8</ele>
      </trkpt>
      <trkpt lat="47.99873" lon="6.94506">
        <ele>986.4</ele>
      </trkpt>
      <trkpt lat="47.99865" lon="6.945">
        <ele>987.8</ele>
      </trkpt>
      <trkpt lat="47.9986" lon="6.94495">
        <ele>1004.5</ele>
      </trkpt>
      <trkpt lat="47.99858" lon="6.94486">
        <ele>1005.3</ele>
      </trkpt>
      <trkpt lat="47.99857" lon="6.94467">
        <ele>1008.2</ele>
      </trkpt>
      <trkpt lat="47.99855" lon="6.94457">
        <ele>1010.2</ele>
      </trkpt>
      <trkpt lat="47.99848" lon="6.94452">
        <ele>1011.7</ele>
      </trkpt>
      <trkpt lat="47.99835" lon="6.94449">
        <ele>1013.2</ele>
      </trkpt>
      <trkpt lat="47.99806" lon="6.94459">
        <ele>1022</ele>
      </trkpt>
      <trkpt lat="47.99782" lon="6.94464">
        <ele>1023.8</ele>
        <extensions>
          <visugpx:TrkExtension xmlns:visugpx="https://www.visugpx.com/editgpx/">
            <visugpx:node>318</visugpx:node>
            </visugpx:TrkExtension>
        </extensions>
      </trkpt>
      <trkpt lat="47.99763" lon="6.94467">
        <ele>1024.6</ele>
      </trkpt>
      <trkpt lat="47.99744" lon="6.94477">
        <ele>1035.4</ele>
      </trkpt>
      <trkpt lat="47.99716" lon="6.94497">
        <ele>1039.1</ele>
      </trkpt>
      <trkpt lat="47.99703" lon="6.94501">
        <ele>1020.5</ele>
      </trkpt>
      <trkpt lat="47.99676" lon="6.945">
        <ele>1035.5</ele>
      </trkpt>
      <trkpt lat="47.9966" lon="6.94516">
        <ele>1041.1</ele>
      </trkpt>
      <trkpt lat="47.99648" lon="6.94525">
        <ele>1039</ele>
      </trkpt>
      <trkpt lat="47.99641" lon="6.94525">
        <ele>1039.3</ele>
      </trkpt>
      <trkpt lat="47.99621" lon="6.94509">
        <ele>1043.2</ele>
      </trkpt>
      <trkpt lat="47.99613" lon="6.94505">
        <ele>1045.1</ele>
      </trkpt>
      <trkpt lat="47.99599" lon="6.94502">
        <ele>1049.7</ele>
      </trkpt>
      <trkpt lat="47.99589" lon="6.94506">
        <ele>1053.2</ele>
      </trkpt>
      <trkpt lat="47.99564" lon="6.9453">
        <ele>1059.5</ele>
      </trkpt>
      <trkpt lat="47.99544" lon="6.94557">
        <ele>1059.2</ele>
      </trkpt>
      <trkpt lat="47.99529" lon="6.94601">
        <ele>1050.6</ele>
      </trkpt>
      <trkpt lat="47.9952" lon="6.94619">
        <ele>1050.3</ele>
      </trkpt>
      <trkpt lat="47.99515" lon="6.94615">
        <ele>1051.6</ele>
      </trkpt>
      <trkpt lat="47.99485" lon="6.9464">
        <ele>1070.6</ele>
      </trkpt>
      <trkpt lat="47.99489" lon="6.94647">
        <ele>1068.4</ele>
      </trkpt>
      <trkpt lat="47.99485" lon="6.94663">
        <ele>1066.1</ele>
      </trkpt>
      <trkpt lat="47.99466" lon="6.94682">
        <ele>1064.3</ele>
      </trkpt>
      <trkpt lat="47.99455" lon="6.94694">
        <ele>1065.6</ele>
      </trkpt>
      <trkpt lat="47.9945" lon="6.94694">
        <ele>1066.4</ele>
      </trkpt>
      <trkpt lat="47.99444" lon="6.94687">
        <ele>1068.2</ele>
      </trkpt>
      <trkpt lat="47.99443" lon="6.94674">
        <ele>1069.7</ele>
      </trkpt>
      <trkpt lat="47.9944" lon="6.94666">
        <ele>1077.9</ele>
      </trkpt>
      <trkpt lat="47.99443" lon="6.94655">
        <ele>1077.6</ele>
      </trkpt>
      <trkpt lat="47.99465" lon="6.94641">
        <ele>1074.3</ele>
      </trkpt>
      <trkpt lat="47.99461" lon="6.94622">
        <ele>1076.8</ele>
      </trkpt>
      <trkpt lat="47.99451" lon="6.94604">
        <ele>1080.6</ele>
      </trkpt>
      <trkpt lat="47.99451" lon="6.94594">
        <ele>1081.6</ele>
      </trkpt>
      <trkpt lat="47.99457" lon="6.94568">
        <ele>1089.7</ele>
      </trkpt>
      <trkpt lat="47.99456" lon="6.94557">
        <ele>1090.6</ele>
      </trkpt>
      <trkpt lat="47.99461" lon="6.94533">
        <ele>1091.4</ele>
      </trkpt>
      <trkpt lat="47.9945" lon="6.94489">
        <ele>1105.7</ele>
      </trkpt>
      <trkpt lat="47.99441" lon="6.94478">
        <ele>1107.8</ele>
      </trkpt>
      <trkpt lat="47.99445" lon="6.94515">
        <ele>1096.9</ele>
      </trkpt>
      <trkpt lat="47.9944" lon="6.94529">
        <ele>1096.2</ele>
      </trkpt>
      <trkpt lat="47.9943" lon="6.94537">
        <ele>1096.8</ele>
      </trkpt>
      <trkpt lat="47.99421" lon="6.94552">
        <ele>1096.6</ele>
      </trkpt>
      <trkpt lat="47.99411" lon="6.94555">
        <ele>1112.5</ele>
      </trkpt>
      <trkpt lat="47.99407" lon="6.94582">
        <ele>1107</ele>
      </trkpt>
      <trkpt lat="47.99399" lon="6.94589">
        <ele>1100.6</ele>
      </trkpt>
      <trkpt lat="47.99397" lon="6.94585">
        <ele>1100.8</ele>
      </trkpt>
      <trkpt lat="47.9938" lon="6.94593">
        <ele>1101.4</ele>
      </trkpt>
      <trkpt lat="47.99367" lon="6.94606">
        <ele>1101.5</ele>
      </trkpt>
      <trkpt lat="47.99362" lon="6.94592">
        <ele>1104.2</ele>
      </trkpt>
      <trkpt lat="47.99352" lon="6.94573">
        <ele>1117.8</ele>
      </trkpt>
      <trkpt lat="47.99337" lon="6.94563">
        <ele>1119</ele>
      </trkpt>
      <trkpt lat="47.99334" lon="6.94544">
        <ele>1121.4</ele>
      </trkpt>
      <trkpt lat="47.99317" lon="6.94553">
        <ele>1130.9</ele>
      </trkpt>
      <trkpt lat="47.99284" lon="6.94536">
        <ele>1136.8</ele>
      </trkpt>
      <trkpt lat="47.99278" lon="6.94545">
        <ele>1135.4</ele>
      </trkpt>
      <trkpt lat="47.99261" lon="6.94544">
        <ele>1136.5</ele>
      </trkpt>
      <trkpt lat="47.99251" lon="6.94568">
        <ele>1129.3</ele>
      </trkpt>
      <trkpt lat="47.99219" lon="6.94591">
        <ele>1130.8</ele>
      </trkpt>
      <trkpt lat="47.99185" lon="6.94598">
        <ele>1142.7</ele>
      </trkpt>
      <trkpt lat="47.99187" lon="6.94628">
        <ele>1134.3</ele>
      </trkpt>
      <trkpt lat="47.9918" lon="6.94631">
        <ele>1135.1</ele>
      </trkpt>
      <trkpt lat="47.99159" lon="6.94678">
        <ele>1139.7</ele>
      </trkpt>
      <trkpt lat="47.99147" lon="6.94695">
        <ele>1139.9</ele>
      </trkpt>
      <trkpt lat="47.99148" lon="6.94706">
        <ele>1138.8</ele>
      </trkpt>
      <trkpt lat="47.99125" lon="6.94736">
        <ele>1139.9</ele>
      </trkpt>
      <trkpt lat="47.9913" lon="6.94718">
        <ele>1140.1</ele>
      </trkpt>
      <trkpt lat="47.99135" lon="6.94709">
        <ele>1140.1</ele>
      </trkpt>
      <trkpt lat="47.99125" lon="6.94705">
        <ele>1141.7</ele>
      </trkpt>
      <trkpt lat="47.99112" lon="6.94708">
        <ele>1143.3</ele>
      </trkpt>
      <trkpt lat="47.99098" lon="6.94701">
        <ele>1145.3</ele>
      </trkpt>
      <trkpt lat="47.99088" lon="6.94702">
        <ele>1146.1</ele>
      </trkpt>
      <trkpt lat="47.99058" lon="6.9466">
        <ele>1150.3</ele>
      </trkpt>
      <trkpt lat="47.99049" lon="6.94655">
        <ele>1148.8</ele>
      </trkpt>
      <trkpt lat="47.99047" lon="6.94645">
        <ele>1148.9</ele>
      </trkpt>
      <trkpt lat="47.99033" lon="6.94632">
        <ele>1147.4</ele>
      </trkpt>
      <trkpt lat="47.99023" lon="6.94598">
        <ele>1147.2</ele>
      </trkpt>
      <trkpt lat="47.99018" lon="6.94588">
        <ele>1146</ele>
      </trkpt>
      <trkpt lat="47.98975" lon="6.94588">
        <ele>1129.3</ele>
      </trkpt>
      <trkpt lat="47.98937" lon="6.94558">
        <ele>1129.1</ele>
      </trkpt>
      <trkpt lat="47.98898" lon="6.94509">
        <ele>1117.7</ele>
      </trkpt>
      <trkpt lat="47.98854" lon="6.94519">
        <ele>1109.5</ele>
      </trkpt>
      <trkpt lat="47.9882" lon="6.94537">
        <ele>1102.4</ele>
      </trkpt>
      <trkpt lat="47.98781" lon="6.94532">
        <ele>1102.2</ele>
      </trkpt>
      <trkpt lat="47.98729" lon="6.94514">
        <ele>1097.3</ele>
      </trkpt>
      <trkpt lat="47.98691" lon="6.94472">
        <ele>1096.9</ele>
      </trkpt>
      <trkpt lat="47.98664" lon="6.9446">
        <ele>1091.9</ele>
      </trkpt>
      <trkpt lat="47.98654" lon="6.94448">
        <ele>1091.7</ele>
        <extensions>
          <visugpx:TrkExtension xmlns:visugpx="https://www.visugpx.com/editgpx/">
            <visugpx:node>319</visugpx:node>
            </visugpx:TrkExtension>
        </extensions>
      </trkpt>
      <trkpt lat="47.98599" lon="6.94386">
        <ele>1090.5</ele>
      </trkpt>
      <trkpt lat="47.98555" lon="6.9431">
        <ele>1087.8</ele>
      </trkpt>
      <trkpt lat="47.98507" lon="6.94263">
        <ele>1089.1</ele>
      </trkpt>
      <trkpt lat="47.98477" lon="6.94188">
        <ele>1087.7</ele>
      </trkpt>
      <trkpt lat="47.98368" lon="6.94146">
        <ele>1089</ele>
      </trkpt>
      <trkpt lat="47.98279" lon="6.94127">
        <ele>1089.3</ele>
      </trkpt>
      <trkpt lat="47.9825" lon="6.94126">
        <ele>1089.5</ele>
      </trkpt>
      <trkpt lat="47.98212" lon="6.94099">
        <ele>1087.9</ele>
      </trkpt>
      <trkpt lat="47.98198" lon="6.94094">
        <ele>1087.3</ele>
      </trkpt>
      <trkpt lat="47.98181" lon="6.94061">
        <ele>1077.4</ele>
      </trkpt>
      <trkpt lat="47.98156" lon="6.94038">
        <ele>1072.2</ele>
      </trkpt>
      <trkpt lat="47.98104" lon="6.94006">
        <ele>1066.9</ele>
      </trkpt>
      <trkpt lat="47.98063" lon="6.9401">
        <ele>1064.2</ele>
      </trkpt>
      <trkpt lat="47.98042" lon="6.9404">
        <ele>1066.6</ele>
      </trkpt>
      <trkpt lat="47.98025" lon="6.94053">
        <ele>1067.5</ele>
      </trkpt>
      <trkpt lat="47.98" lon="6.94058">
        <ele>1071.3</ele>
      </trkpt>
      <trkpt lat="47.97972" lon="6.94014">
        <ele>1069</ele>
      </trkpt>
      <trkpt lat="47.97947" lon="6.9387">
        <ele>1059.3</ele>
      </trkpt>
      <trkpt lat="47.97946" lon="6.93784">
        <ele>1054.6</ele>
      </trkpt>
      <trkpt lat="47.97963" lon="6.93691">
        <ele>1045.4</ele>
      </trkpt>
      <trkpt lat="47.97925" lon="6.93495">
        <ele>1029.7</ele>
        <extensions>
          <visugpx:TrkExtension xmlns:visugpx="https://www.visugpx.com/editgpx/">
            <visugpx:node>320</visugpx:node>
            </visugpx:TrkExtension>
        </extensions>
      </trkpt>
      <trkpt lat="47.97921" lon="6.93471">
        <ele>1023.1</ele>
      </trkpt>
      <trkpt lat="47.97883" lon="6.93422">
        <ele>1028.3</ele>
      </trkpt>
      <trkpt lat="47.97875" lon="6.93417">
        <ele>1028.7</ele>
      </trkpt>
      <trkpt lat="47.97867" lon="6.93407">
        <ele>1017.7</ele>
      </trkpt>
      <trkpt lat="47.97836" lon="6.93403">
        <ele>1021</ele>
      </trkpt>
      <trkpt lat="47.97805" lon="6.93403">
        <ele>1016.4</ele>
      </trkpt>
      <trkpt lat="47.97762" lon="6.93419">
        <ele>1022</ele>
      </trkpt>
      <trkpt lat="47.97735" lon="6.93442">
        <ele>1018.8</ele>
      </trkpt>
      <trkpt lat="47.97692" lon="6.93483">
        <ele>1019.8</ele>
      </trkpt>
      <trkpt lat="47.97674" lon="6.93496">
        <ele>1019.8</ele>
      </trkpt>
      <trkpt lat="47.97629" lon="6.93518">
        <ele>1025.9</ele>
      </trkpt>
      <trkpt lat="47.97587" lon="6.93551">
        <ele>1029.3</ele>
      </trkpt>
      <trkpt lat="47.97579" lon="6.93556">
        <ele>1031</ele>
      </trkpt>
      <trkpt lat="47.9757" lon="6.93558">
        <ele>1031.3</ele>
      </trkpt>
      <trkpt lat="47.97556" lon="6.93553">
        <ele>1030.8</ele>
      </trkpt>
      <trkpt lat="47.97552" lon="6.93547">
        <ele>1030.3</ele>
      </trkpt>
      <trkpt lat="47.97543" lon="6.9352">
        <ele>1028</ele>
      </trkpt>
      <trkpt lat="47.97531" lon="6.93489">
        <ele>1017.8</ele>
      </trkpt>
      <trkpt lat="47.97517" lon="6.93469">
        <ele>1017.2</ele>
      </trkpt>
      <trkpt lat="47.97507" lon="6.93459">
        <ele>1016.5</ele>
      </trkpt>
      <trkpt lat="47.97477" lon="6.93415">
        <ele>1013.2</ele>
      </trkpt>
      <trkpt lat="47.97467" lon="6.93399">
        <ele>1013</ele>
      </trkpt>
      <trkpt lat="47.9745" lon="6.93349">
        <ele>1012.6</ele>
      </trkpt>
      <trkpt lat="47.97435" lon="6.93321">
        <ele>1008.7</ele>
      </trkpt>
      <trkpt lat="47.97428" lon="6.93311">
        <ele>1008.2</ele>
      </trkpt>
      <trkpt lat="47.97419" lon="6.93304">
        <ele>1007.6</ele>
      </trkpt>
      <trkpt lat="47.97386" lon="6.93288">
        <ele>1014.1</ele>
      </trkpt>
      <trkpt lat="47.97381" lon="6.93283">
        <ele>1014.1</ele>
      </trkpt>
      <trkpt lat="47.97366" lon="6.9325">
        <ele>1014.9</ele>
      </trkpt>
      <trkpt lat="47.97353" lon="6.93225">
        <ele>1012.6</ele>
      </trkpt>
      <trkpt lat="47.97346" lon="6.9323">
        <ele>1013.8</ele>
      </trkpt>
      <trkpt lat="47.97327" lon="6.93208">
        <ele>1018.8</ele>
      </trkpt>
      <trkpt lat="47.97315" lon="6.932">
        <ele>1018.8</ele>
      </trkpt>
      <trkpt lat="47.97291" lon="6.93233">
        <ele>1019.1</ele>
      </trkpt>
      <trkpt lat="47.97279" lon="6.93241">
        <ele>1018.7</ele>
      </trkpt>
      <trkpt lat="47.9725" lon="6.93234">
        <ele>1021.3</ele>
      </trkpt>
      <trkpt lat="47.97215" lon="6.93248">
        <ele>1024.5</ele>
      </trkpt>
      <trkpt lat="47.97197" lon="6.93248">
        <ele>1026.2</ele>
      </trkpt>
      <trkpt lat="47.97181" lon="6.93242">
        <ele>1027.1</ele>
      </trkpt>
      <trkpt lat="47.97163" lon="6.93251">
        <ele>1027.6</ele>
      </trkpt>
      <trkpt lat="47.97158" lon="6.93266">
        <ele>1029.1</ele>
      </trkpt>
      <trkpt lat="47.97158" lon="6.93325">
        <ele>1027.1</ele>
      </trkpt>
      <trkpt lat="47.97155" lon="6.9336">
        <ele>1021.8</ele>
      </trkpt>
      <trkpt lat="47.97151" lon="6.93371">
        <ele>1020.9</ele>
      </trkpt>
      <trkpt lat="47.97149" lon="6.93319">
        <ele>1028.4</ele>
      </trkpt>
      <trkpt lat="47.97138" lon="6.9326">
        <ele>1030.7</ele>
      </trkpt>
      <trkpt lat="47.9712" lon="6.93211">
        <ele>1040.7</ele>
      </trkpt>
      <trkpt lat="47.97104" lon="6.93184">
        <ele>1044.7</ele>
      </trkpt>
      <trkpt lat="47.9708" lon="6.93161">
        <ele>1055.9</ele>
      </trkpt>
      <trkpt lat="47.97057" lon="6.93151">
        <ele>1061.8</ele>
      </trkpt>
      <trkpt lat="47.97016" lon="6.93154">
        <ele>1064.3</ele>
      </trkpt>
      <trkpt lat="47.96999" lon="6.93159">
        <ele>1064.8</ele>
      </trkpt>
      <trkpt lat="47.96977" lon="6.93176">
        <ele>1056.8</ele>
      </trkpt>
      <trkpt lat="47.96976" lon="6.93184">
        <ele>1055.8</ele>
      </trkpt>
      <trkpt lat="47.96972" lon="6.93187">
        <ele>1055.3</ele>
      </trkpt>
      <trkpt lat="47.96972" lon="6.93199">
        <ele>1053.7</ele>
      </trkpt>
      <trkpt lat="47.96968" lon="6.93202">
        <ele>1053.2</ele>
      </trkpt>
      <trkpt lat="47.96967" lon="6.93192">
        <ele>1054.5</ele>
      </trkpt>
      <trkpt lat="47.96971" lon="6.93183">
        <ele>1055.7</ele>
      </trkpt>
      <trkpt lat="47.96963" lon="6.93158">
        <ele>1067.3</ele>
      </trkpt>
      <trkpt lat="47.96958" lon="6.93158">
        <ele>1067.3</ele>
      </trkpt>
      <trkpt lat="47.96952" lon="6.93146">
        <ele>1067.9</ele>
      </trkpt>
      <trkpt lat="47.96942" lon="6.93114">
        <ele>1070</ele>
      </trkpt>
      <trkpt lat="47.96937" lon="6.93101">
        <ele>1070.9</ele>
        <extensions>
          <visugpx:TrkExtension xmlns:visugpx="https://www.visugpx.com/editgpx/">
            <visugpx:node>321</visugpx:node>
            </visugpx:TrkExtension>
        </extensions>
      </trkpt>
      <trkpt lat="47.96931" lon="6.93087">
        <ele>1071.7</ele>
      </trkpt>
      <trkpt lat="47.96916" lon="6.93066">
        <ele>1077.2</ele>
      </trkpt>
      <trkpt lat="47.96878" lon="6.93025">
        <ele>1082.2</ele>
      </trkpt>
      <trkpt lat="47.96865" lon="6.93042">
        <ele>1082</ele>
      </trkpt>
      <trkpt lat="47.96838" lon="6.93064">
        <ele>1081.6</ele>
      </trkpt>
      <trkpt lat="47.96817" lon="6.93072">
        <ele>1089.6</ele>
      </trkpt>
      <trkpt lat="47.96806" lon="6.9308">
        <ele>1091.8</ele>
      </trkpt>
      <trkpt lat="47.96796" lon="6.93071">
        <ele>1094.4</ele>
      </trkpt>
      <trkpt lat="47.96795" lon="6.93055">
        <ele>1095.2</ele>
      </trkpt>
      <trkpt lat="47.96796" lon="6.93039">
        <ele>1095.8</ele>
      </trkpt>
      <trkpt lat="47.96787" lon="6.93047">
        <ele>1096.7</ele>
      </trkpt>
      <trkpt lat="47.96781" lon="6.93049">
        <ele>1097.4</ele>
      </trkpt>
      <trkpt lat="47.96778" lon="6.93045">
        <ele>1097.9</ele>
      </trkpt>
      <trkpt lat="47.96779" lon="6.93034">
        <ele>1098.2</ele>
      </trkpt>
      <trkpt lat="47.96774" lon="6.93014">
        <ele>1100.3</ele>
      </trkpt>
      <trkpt lat="47.96769" lon="6.93001">
        <ele>1102.2</ele>
      </trkpt>
      <trkpt lat="47.96759" lon="6.93008">
        <ele>1104.2</ele>
      </trkpt>
      <trkpt lat="47.96756" lon="6.93015">
        <ele>1103.2</ele>
      </trkpt>
      <trkpt lat="47.96748" lon="6.93021">
        <ele>1107.3</ele>
      </trkpt>
      <trkpt lat="47.96739" lon="6.93021">
        <ele>1107.2</ele>
      </trkpt>
      <trkpt lat="47.96733" lon="6.93014">
        <ele>1107.4</ele>
      </trkpt>
      <trkpt lat="47.96731" lon="6.93004">
        <ele>1107.7</ele>
      </trkpt>
      <trkpt lat="47.96719" lon="6.92981">
        <ele>1112.8</ele>
      </trkpt>
      <trkpt lat="47.96712" lon="6.92975">
        <ele>1113.4</ele>
      </trkpt>
      <trkpt lat="47.9671" lon="6.92963">
        <ele>1114</ele>
      </trkpt>
      <trkpt lat="47.96699" lon="6.9296">
        <ele>1114.6</ele>
      </trkpt>
      <trkpt lat="47.96682" lon="6.92947">
        <ele>1116.6</ele>
      </trkpt>
      <trkpt lat="47.96673" lon="6.92928">
        <ele>1120.5</ele>
      </trkpt>
      <trkpt lat="47.96656" lon="6.92915">
        <ele>1124.4</ele>
      </trkpt>
      <trkpt lat="47.96653" lon="6.92905">
        <ele>1124.2</ele>
      </trkpt>
      <trkpt lat="47.96581" lon="6.92858">
        <ele>1124.8</ele>
      </trkpt>
      <trkpt lat="47.96532" lon="6.92834">
        <ele>1125.8</ele>
      </trkpt>
      <trkpt lat="47.96469" lon="6.92848">
        <ele>1129.3</ele>
      </trkpt>
      <trkpt lat="47.96372" lon="6.92839">
        <ele>1137.2</ele>
      </trkpt>
      <trkpt lat="47.96328" lon="6.92818">
        <ele>1145.7</ele>
      </trkpt>
      <trkpt lat="47.96306" lon="6.92824">
        <ele>1147</ele>
      </trkpt>
      <trkpt lat="47.96271" lon="6.9283">
        <ele>1150</ele>
      </trkpt>
      <trkpt lat="47.96256" lon="6.92826">
        <ele>1151.5</ele>
      </trkpt>
      <trkpt lat="47.96203" lon="6.92826">
        <ele>1159.5</ele>
      </trkpt>
      <trkpt lat="47.96182" lon="6.92817">
        <ele>1161.1</ele>
      </trkpt>
      <trkpt lat="47.96175" lon="6.9281">
        <ele>1161.3</ele>
      </trkpt>
      <trkpt lat="47.96124" lon="6.92718">
        <ele>1167.9</ele>
      </trkpt>
      <trkpt lat="47.9612" lon="6.92706">
        <ele>1168.4</ele>
        <extensions>
          <visugpx:TrkExtension xmlns:visugpx="https://www.visugpx.com/editgpx/">
            <visugpx:node>322</visugpx:node>
            </visugpx:TrkExtension>
        </extensions>
      </trkpt>
      <trkpt lat="47.96117" lon="6.92697">
        <ele>1168.9</ele>
      </trkpt>
      <trkpt lat="47.96105" lon="6.92674">
        <ele>1171.1</ele>
      </trkpt>
      <trkpt lat="47.96103" lon="6.9266">
        <ele>1174.4</ele>
      </trkpt>
      <trkpt lat="47.96099" lon="6.92655">
        <ele>1174.6</ele>
      </trkpt>
      <trkpt lat="47.96085" lon="6.92616">
        <ele>1176.3</ele>
      </trkpt>
      <trkpt lat="47.96067" lon="6.92588">
        <ele>1182.9</ele>
      </trkpt>
      <trkpt lat="47.96059" lon="6.92578">
        <ele>1187.4</ele>
      </trkpt>
      <trkpt lat="47.96052" lon="6.92575">
        <ele>1188.2</ele>
      </trkpt>
      <trkpt lat="47.9605" lon="6.92577">
        <ele>1188.4</ele>
      </trkpt>
      <trkpt lat="47.96044" lon="6.92578">
        <ele>1188.9</ele>
      </trkpt>
      <trkpt lat="47.96036" lon="6.92576">
        <ele>1189.6</ele>
      </trkpt>
      <trkpt lat="47.96025" lon="6.92569">
        <ele>1190.4</ele>
      </trkpt>
      <trkpt lat="47.96017" lon="6.92559">
        <ele>1190.9</ele>
      </trkpt>
      <trkpt lat="47.96008" lon="6.92553">
        <ele>1191.4</ele>
      </trkpt>
      <trkpt lat="47.95999" lon="6.92553">
        <ele>1195</ele>
      </trkpt>
      <trkpt lat="47.95947" lon="6.92548">
        <ele>1195.7</ele>
      </trkpt>
      <trkpt lat="47.95947" lon="6.92556">
        <ele>1195.6</ele>
      </trkpt>
      <trkpt lat="47.95937" lon="6.92567">
        <ele>1195.6</ele>
      </trkpt>
      <trkpt lat="47.95884" lon="6.92614">
        <ele>1187.7</ele>
      </trkpt>
      <trkpt lat="47.95862" lon="6.92628">
        <ele>1186.5</ele>
      </trkpt>
      <trkpt lat="47.95843" lon="6.92635">
        <ele>1186</ele>
      </trkpt>
      <trkpt lat="47.95834" lon="6.92637">
        <ele>1185.9</ele>
      </trkpt>
      <trkpt lat="47.95817" lon="6.92642">
        <ele>1184.1</ele>
      </trkpt>
      <trkpt lat="47.9579" lon="6.92649">
        <ele>1183.5</ele>
      </trkpt>
      <trkpt lat="47.95785" lon="6.92649">
        <ele>1183.4</ele>
      </trkpt>
      <trkpt lat="47.95781" lon="6.92648">
        <ele>1183.3</ele>
      </trkpt>
      <trkpt lat="47.95751" lon="6.92622">
        <ele>1182.9</ele>
      </trkpt>
      <trkpt lat="47.957" lon="6.92563">
        <ele>1174.4</ele>
      </trkpt>
      <trkpt lat="47.95687" lon="6.92556">
        <ele>1173.6</ele>
      </trkpt>
      <trkpt lat="47.95675" lon="6.92559">
        <ele>1172.9</ele>
      </trkpt>
      <trkpt lat="47.9567" lon="6.92548">
        <ele>1173</ele>
      </trkpt>
      <trkpt lat="47.95657" lon="6.92533">
        <ele>1164.2</ele>
      </trkpt>
      <trkpt lat="47.95651" lon="6.92538">
        <ele>1163.7</ele>
      </trkpt>
      <trkpt lat="47.95647" lon="6.92531">
        <ele>1163.5</ele>
      </trkpt>
      <trkpt lat="47.95618" lon="6.92519">
        <ele>1160.5</ele>
      </trkpt>
      <trkpt lat="47.95616" lon="6.92514">
        <ele>1160.2</ele>
      </trkpt>
      <trkpt lat="47.95607" lon="6.92509">
        <ele>1158.7</ele>
      </trkpt>
      <trkpt lat="47.95602" lon="6.92508">
        <ele>1157.9</ele>
      </trkpt>
      <trkpt lat="47.95592" lon="6.92495">
        <ele>1154.9</ele>
      </trkpt>
      <trkpt lat="47.95583" lon="6.92482">
        <ele>1149.1</ele>
      </trkpt>
      <trkpt lat="47.95579" lon="6.92463">
        <ele>1147.7</ele>
      </trkpt>
      <trkpt lat="47.95573" lon="6.92451">
        <ele>1147.6</ele>
      </trkpt>
      <trkpt lat="47.95568" lon="6.92447">
        <ele>1147.4</ele>
      </trkpt>
      <trkpt lat="47.95549" lon="6.92429">
        <ele>1146.6</ele>
      </trkpt>
      <trkpt lat="47.95504" lon="6.924">
        <ele>1145.3</ele>
      </trkpt>
      <trkpt lat="47.95464" lon="6.92385">
        <ele>1141.8</ele>
      </trkpt>
      <trkpt lat="47.95453" lon="6.92384">
        <ele>1141.3</ele>
      </trkpt>
      <trkpt lat="47.95432" lon="6.92373">
        <ele>1140.9</ele>
      </trkpt>
      <trkpt lat="47.95423" lon="6.92373">
        <ele>1140.7</ele>
      </trkpt>
      <trkpt lat="47.954" lon="6.92363">
        <ele>1139.7</ele>
      </trkpt>
      <trkpt lat="47.95353" lon="6.92355">
        <ele>1140.8</ele>
      </trkpt>
      <trkpt lat="47.95325" lon="6.9236">
        <ele>1143.2</ele>
      </trkpt>
      <trkpt lat="47.95316" lon="6.92359">
        <ele>1143.4</ele>
        <extensions>
          <visugpx:TrkExtension xmlns:visugpx="https://www.visugpx.com/editgpx/">
            <visugpx:node>323</visugpx:node>
            </visugpx:TrkExtension>
        </extensions>
      </trkpt>
      <trkpt lat="47.95307" lon="6.92359">
        <ele>1143.6</ele>
      </trkpt>
      <trkpt lat="47.9529" lon="6.92351">
        <ele>1144.4</ele>
      </trkpt>
      <trkpt lat="47.95279" lon="6.9235">
        <ele>1144.9</ele>
      </trkpt>
      <trkpt lat="47.95275" lon="6.92344">
        <ele>1145.4</ele>
      </trkpt>
      <trkpt lat="47.9526" lon="6.92357">
        <ele>1145.5</ele>
      </trkpt>
      <trkpt lat="47.95224" lon="6.9237">
        <ele>1147.4</ele>
      </trkpt>
      <trkpt lat="47.9521" lon="6.92393">
        <ele>1147.4</ele>
      </trkpt>
      <trkpt lat="47.95201" lon="6.92396">
        <ele>1147.8</ele>
      </trkpt>
      <trkpt lat="47.95194" lon="6.92415">
        <ele>1148.3</ele>
      </trkpt>
      <trkpt lat="47.95169" lon="6.9245">
        <ele>1144.4</ele>
      </trkpt>
      <trkpt lat="47.95166" lon="6.92483">
        <ele>1145.8</ele>
      </trkpt>
      <trkpt lat="47.95152" lon="6.9252">
        <ele>1138.6</ele>
      </trkpt>
      <trkpt lat="47.95124" lon="6.92528">
        <ele>1137.6</ele>
      </trkpt>
      <trkpt lat="47.95107" lon="6.9254">
        <ele>1136.9</ele>
      </trkpt>
      <trkpt lat="47.95093" lon="6.92542">
        <ele>1137.1</ele>
      </trkpt>
      <trkpt lat="47.95076" lon="6.92542">
        <ele>1137.7</ele>
      </trkpt>
      <trkpt lat="47.95046" lon="6.92563">
        <ele>1135.5</ele>
      </trkpt>
      <trkpt lat="47.95034" lon="6.92568">
        <ele>1135.1</ele>
      </trkpt>
      <trkpt lat="47.95025" lon="6.92563">
        <ele>1135.1</ele>
      </trkpt>
      <trkpt lat="47.95016" lon="6.92559">
        <ele>1135</ele>
      </trkpt>
      <trkpt lat="47.95003" lon="6.92556">
        <ele>1134.9</ele>
      </trkpt>
      <trkpt lat="47.94993" lon="6.92544">
        <ele>1120.7</ele>
      </trkpt>
      <trkpt lat="47.94984" lon="6.92518">
        <ele>1122.6</ele>
      </trkpt>
      <trkpt lat="47.9498" lon="6.92488">
        <ele>1125.4</ele>
      </trkpt>
      <trkpt lat="47.94976" lon="6.92471">
        <ele>1122.9</ele>
      </trkpt>
      <trkpt lat="47.94975" lon="6.92436">
        <ele>1122.7</ele>
      </trkpt>
      <trkpt lat="47.94981" lon="6.92399">
        <ele>1122.7</ele>
      </trkpt>
      <trkpt lat="47.94995" lon="6.92361">
        <ele>1120.8</ele>
      </trkpt>
      <trkpt lat="47.94999" lon="6.92343">
        <ele>1120.7</ele>
      </trkpt>
      <trkpt lat="47.94991" lon="6.92348">
        <ele>1120.5</ele>
      </trkpt>
      <trkpt lat="47.94971" lon="6.92385">
        <ele>1120.6</ele>
      </trkpt>
      <trkpt lat="47.94965" lon="6.92389">
        <ele>1120.2</ele>
      </trkpt>
      <trkpt lat="47.94961" lon="6.92382">
        <ele>1119.6</ele>
      </trkpt>
      <trkpt lat="47.94953" lon="6.92348">
        <ele>1118.4</ele>
      </trkpt>
      <trkpt lat="47.94958" lon="6.92304">
        <ele>1114.1</ele>
      </trkpt>
      <trkpt lat="47.94964" lon="6.92284">
        <ele>1113</ele>
      </trkpt>
      <trkpt lat="47.9495" lon="6.92257">
        <ele>1112.6</ele>
      </trkpt>
      <trkpt lat="47.94944" lon="6.92276">
        <ele>1113.2</ele>
      </trkpt>
      <trkpt lat="47.94929" lon="6.92304">
        <ele>1113.9</ele>
      </trkpt>
      <trkpt lat="47.94913" lon="6.92326">
        <ele>1116.6</ele>
      </trkpt>
      <trkpt lat="47.94904" lon="6.92325">
        <ele>1118.3</ele>
      </trkpt>
      <trkpt lat="47.949" lon="6.92316">
        <ele>1119.8</ele>
      </trkpt>
      <trkpt lat="47.94899" lon="6.92288">
        <ele>1121.2</ele>
      </trkpt>
      <trkpt lat="47.949" lon="6.92265">
        <ele>1120.1</ele>
      </trkpt>
      <trkpt lat="47.94898" lon="6.92252">
        <ele>1119.7</ele>
      </trkpt>
      <trkpt lat="47.94894" lon="6.92247">
        <ele>1121</ele>
      </trkpt>
      <trkpt lat="47.94886" lon="6.92267">
        <ele>1122.5</ele>
      </trkpt>
      <trkpt lat="47.94864" lon="6.92279">
        <ele>1125.6</ele>
      </trkpt>
      <trkpt lat="47.94858" lon="6.92286">
        <ele>1126</ele>
      </trkpt>
      <trkpt lat="47.94846" lon="6.92286">
        <ele>1127.2</ele>
      </trkpt>
      <trkpt lat="47.94829" lon="6.92279">
        <ele>1134.3</ele>
      </trkpt>
      <trkpt lat="47.94813" lon="6.92261">
        <ele>1135.2</ele>
      </trkpt>
      <trkpt lat="47.94762" lon="6.92157">
        <ele>1140.6</ele>
      </trkpt>
      <trkpt lat="47.94746" lon="6.92136">
        <ele>1142.6</ele>
      </trkpt>
      <trkpt lat="47.94739" lon="6.92118">
        <ele>1142.8</ele>
      </trkpt>
      <trkpt lat="47.94727" lon="6.92117">
        <ele>1142.7</ele>
      </trkpt>
      <trkpt lat="47.94721" lon="6.9211">
        <ele>1142.8</ele>
      </trkpt>
      <trkpt lat="47.94706" lon="6.92112">
        <ele>1142.7</ele>
      </trkpt>
      <trkpt lat="47.94686" lon="6.92081">
        <ele>1144.9</ele>
      </trkpt>
      <trkpt lat="47.94671" lon="6.92077">
        <ele>1145.5</ele>
      </trkpt>
      <trkpt lat="47.9466" lon="6.9207">
        <ele>1145</ele>
      </trkpt>
      <trkpt lat="47.94627" lon="6.92064">
        <ele>1143.4</ele>
        <extensions>
          <visugpx:TrkExtension xmlns:visugpx="https://www.visugpx.com/editgpx/">
            <visugpx:node>324</visugpx:node>
            </visugpx:TrkExtension>
        </extensions>
      </trkpt>
      <trkpt lat="47.94611" lon="6.92061">
        <ele>1142.4</ele>
      </trkpt>
      <trkpt lat="47.94599" lon="6.92053">
        <ele>1142.3</ele>
      </trkpt>
      <trkpt lat="47.94594" lon="6.92057">
        <ele>1141.7</ele>
      </trkpt>
      <trkpt lat="47.94573" lon="6.92053">
        <ele>1135.8</ele>
      </trkpt>
      <trkpt lat="47.94574" lon="6.92036">
        <ele>1137.4</ele>
      </trkpt>
      <trkpt lat="47.9457" lon="6.92022">
        <ele>1139.1</ele>
      </trkpt>
      <trkpt lat="47.94563" lon="6.92007">
        <ele>1140.1</ele>
      </trkpt>
      <trkpt lat="47.94558" lon="6.92002">
        <ele>1139.7</ele>
      </trkpt>
      <trkpt lat="47.94549" lon="6.92016">
        <ele>1137.8</ele>
      </trkpt>
      <trkpt lat="47.94536" lon="6.92012">
        <ele>1137.4</ele>
      </trkpt>
      <trkpt lat="47.94516" lon="6.9201">
        <ele>1138</ele>
      </trkpt>
      <trkpt lat="47.945" lon="6.92005">
        <ele>1140.5</ele>
      </trkpt>
      <trkpt lat="47.94474" lon="6.91987">
        <ele>1138.8</ele>
      </trkpt>
      <trkpt lat="47.94466" lon="6.91973">
        <ele>1138.3</ele>
      </trkpt>
      <trkpt lat="47.94456" lon="6.91964">
        <ele>1137.9</ele>
      </trkpt>
      <trkpt lat="47.94447" lon="6.91963">
        <ele>1137.4</ele>
      </trkpt>
      <trkpt lat="47.94439" lon="6.91957">
        <ele>1137.3</ele>
      </trkpt>
      <trkpt lat="47.94425" lon="6.91957">
        <ele>1136.8</ele>
      </trkpt>
      <trkpt lat="47.94421" lon="6.91967">
        <ele>1135.6</ele>
      </trkpt>
      <trkpt lat="47.94418" lon="6.9198">
        <ele>1133.7</ele>
      </trkpt>
      <trkpt lat="47.94419" lon="6.91999">
        <ele>1129</ele>
      </trkpt>
      <trkpt lat="47.94407" lon="6.91997">
        <ele>1126.1</ele>
      </trkpt>
      <trkpt lat="47.94396" lon="6.91991">
        <ele>1124.4</ele>
      </trkpt>
      <trkpt lat="47.94401" lon="6.91999">
        <ele>1125.2</ele>
      </trkpt>
      <trkpt lat="47.94397" lon="6.92005">
        <ele>1117.1</ele>
      </trkpt>
      <trkpt lat="47.94387" lon="6.92011">
        <ele>1113.8</ele>
      </trkpt>
      <trkpt lat="47.94401" lon="6.92012">
        <ele>1117</ele>
      </trkpt>
      <trkpt lat="47.94392" lon="6.92024">
        <ele>1112.7</ele>
      </trkpt>
      <trkpt lat="47.944" lon="6.92024">
        <ele>1113.8</ele>
      </trkpt>
      <trkpt lat="47.94389" lon="6.92036">
        <ele>1110.2</ele>
      </trkpt>
      <trkpt lat="47.94379" lon="6.92034">
        <ele>1109.7</ele>
      </trkpt>
      <trkpt lat="47.9438" lon="6.92039">
        <ele>1109.2</ele>
      </trkpt>
      <trkpt lat="47.94374" lon="6.9204">
        <ele>1108.6</ele>
      </trkpt>
      <trkpt lat="47.94379" lon="6.92048">
        <ele>1107.9</ele>
      </trkpt>
      <trkpt lat="47.94381" lon="6.92057">
        <ele>1106.9</ele>
      </trkpt>
      <trkpt lat="47.94371" lon="6.92064">
        <ele>1105.9</ele>
      </trkpt>
      <trkpt lat="47.9436" lon="6.9206">
        <ele>1105.6</ele>
      </trkpt>
      <trkpt lat="47.9434" lon="6.92045">
        <ele>1106.4</ele>
      </trkpt>
      <trkpt lat="47.94342" lon="6.92064">
        <ele>1103.7</ele>
      </trkpt>
      <trkpt lat="47.94337" lon="6.92097">
        <ele>1090.7</ele>
      </trkpt>
      <trkpt lat="47.94318" lon="6.92112">
        <ele>1086.9</ele>
      </trkpt>
      <trkpt lat="47.94305" lon="6.92136">
        <ele>1083.1</ele>
      </trkpt>
      <trkpt lat="47.94305" lon="6.92149">
        <ele>1081.8</ele>
      </trkpt>
      <trkpt lat="47.9427" lon="6.92161">
        <ele>1081.2</ele>
      </trkpt>
      <trkpt lat="47.94229" lon="6.92179">
        <ele>1076.5</ele>
      </trkpt>
      <trkpt lat="47.94211" lon="6.92181">
        <ele>1076.1</ele>
      </trkpt>
      <trkpt lat="47.94208" lon="6.92171">
        <ele>1076.2</ele>
      </trkpt>
      <trkpt lat="47.94189" lon="6.92173">
        <ele>1076.1</ele>
      </trkpt>
      <trkpt lat="47.9417" lon="6.92189">
        <ele>1076.2</ele>
      </trkpt>
      <trkpt lat="47.94159" lon="6.92204">
        <ele>1078.6</ele>
      </trkpt>
      <trkpt lat="47.94157" lon="6.92213">
        <ele>1079.1</ele>
      </trkpt>
      <trkpt lat="47.94149" lon="6.92218">
        <ele>1079.3</ele>
      </trkpt>
      <trkpt lat="47.94141" lon="6.92247">
        <ele>1080.1</ele>
      </trkpt>
      <trkpt lat="47.94149" lon="6.92299">
        <ele>1078</ele>
      </trkpt>
      <trkpt lat="47.94145" lon="6.92321">
        <ele>1076.7</ele>
      </trkpt>
      <trkpt lat="47.94121" lon="6.92327">
        <ele>1078.4</ele>
      </trkpt>
      <trkpt lat="47.94081" lon="6.92326">
        <ele>1080</ele>
      </trkpt>
      <trkpt lat="47.94045" lon="6.92334">
        <ele>1066.7</ele>
      </trkpt>
      <trkpt lat="47.94025" lon="6.92329">
        <ele>1077.6</ele>
      </trkpt>
      <trkpt lat="47.9402" lon="6.92327">
        <ele>1077.2</ele>
        <extensions>
          <visugpx:TrkExtension xmlns:visugpx="https://www.visugpx.com/editgpx/">
            <visugpx:node>325</visugpx:node>
            </visugpx:TrkExtension>
        </extensions>
      </trkpt>
      <trkpt lat="47.94011" lon="6.92322">
        <ele>1076.5</ele>
      </trkpt>
      <trkpt lat="47.93978" lon="6.92319">
        <ele>1070.8</ele>
      </trkpt>
      <trkpt lat="47.93948" lon="6.92316">
        <ele>1067</ele>
      </trkpt>
      <trkpt lat="47.93939" lon="6.92309">
        <ele>1066.5</ele>
      </trkpt>
      <trkpt lat="47.93927" lon="6.9228">
        <ele>1069.3</ele>
      </trkpt>
      <trkpt lat="47.93925" lon="6.92243">
        <ele>1071.5</ele>
      </trkpt>
      <trkpt lat="47.93934" lon="6.92209">
        <ele>1070.6</ele>
      </trkpt>
      <trkpt lat="47.93939" lon="6.92182">
        <ele>1068.5</ele>
      </trkpt>
      <trkpt lat="47.93935" lon="6.92188">
        <ele>1068.6</ele>
      </trkpt>
      <trkpt lat="47.93924" lon="6.92228">
        <ele>1071.3</ele>
      </trkpt>
      <trkpt lat="47.93915" lon="6.92228">
        <ele>1064.2</ele>
      </trkpt>
      <trkpt lat="47.93912" lon="6.92217">
        <ele>1062.5</ele>
      </trkpt>
      <trkpt lat="47.93909" lon="6.92202">
        <ele>1061.1</ele>
      </trkpt>
      <trkpt lat="47.93907" lon="6.92181">
        <ele>1060.5</ele>
      </trkpt>
      <trkpt lat="47.93903" lon="6.9217">
        <ele>1060.3</ele>
      </trkpt>
      <trkpt lat="47.93899" lon="6.92168">
        <ele>1060.1</ele>
      </trkpt>
      <trkpt lat="47.93896" lon="6.92158">
        <ele>1055.9</ele>
      </trkpt>
      <trkpt lat="47.93891" lon="6.92155">
        <ele>1055.1</ele>
      </trkpt>
      <trkpt lat="47.93886" lon="6.92158">
        <ele>1054.8</ele>
      </trkpt>
      <trkpt lat="47.93886" lon="6.92172">
        <ele>1059.3</ele>
      </trkpt>
      <trkpt lat="47.93884" lon="6.92197">
        <ele>1059.6</ele>
      </trkpt>
      <trkpt lat="47.93878" lon="6.92209">
        <ele>1059.5</ele>
      </trkpt>
      <trkpt lat="47.93823" lon="6.92199">
        <ele>1058.7</ele>
      </trkpt>
      <trkpt lat="47.93792" lon="6.9221">
        <ele>1062</ele>
      </trkpt>
      <trkpt lat="47.9378" lon="6.92258">
        <ele>1064.2</ele>
      </trkpt>
      <trkpt lat="47.93773" lon="6.92222">
        <ele>1064.9</ele>
      </trkpt>
      <trkpt lat="47.93748" lon="6.92265">
        <ele>1082.6</ele>
      </trkpt>
      <trkpt lat="47.93738" lon="6.92223">
        <ele>1079.5</ele>
      </trkpt>
      <trkpt lat="47.93717" lon="6.92233">
        <ele>1082.3</ele>
      </trkpt>
      <trkpt lat="47.93711" lon="6.92304">
        <ele>1092.1</ele>
      </trkpt>
      <trkpt lat="47.9369" lon="6.92284">
        <ele>1095.3</ele>
      </trkpt>
      <trkpt lat="47.93693" lon="6.92364">
        <ele>1103</ele>
      </trkpt>
      <trkpt lat="47.93662" lon="6.92337">
        <ele>1118.2</ele>
      </trkpt>
      <trkpt lat="47.93661" lon="6.9238">
        <ele>1124.5</ele>
      </trkpt>
      <trkpt lat="47.93618" lon="6.92471">
        <ele>1130.2</ele>
      </trkpt>
      <trkpt lat="47.93595" lon="6.92475">
        <ele>1131.8</ele>
        <extensions>
          <visugpx:TrkExtension xmlns:visugpx="https://www.visugpx.com/editgpx/">
            <visugpx:node>326</visugpx:node>
            </visugpx:TrkExtension>
        </extensions>
      </trkpt>
      <trkpt lat="47.93422" lon="6.92508">
        <ele>1132.9</ele>
      </trkpt>
      <trkpt lat="47.93289" lon="6.92407">
        <ele>1139.3</ele>
      </trkpt>
      <trkpt lat="47.93263" lon="6.92394">
        <ele>1139.5</ele>
      </trkpt>
      <trkpt lat="47.93242" lon="6.92396">
        <ele>1141</ele>
      </trkpt>
      <trkpt lat="47.93143" lon="6.92458">
        <ele>1139.8</ele>
      </trkpt>
      <trkpt lat="47.93107" lon="6.92529">
        <ele>1139.9</ele>
      </trkpt>
      <trkpt lat="47.93081" lon="6.92591">
        <ele>1149.2</ele>
      </trkpt>
      <trkpt lat="47.92991" lon="6.92553">
        <ele>1143.2</ele>
      </trkpt>
      <trkpt lat="47.92955" lon="6.92525">
        <ele>1140.1</ele>
        <extensions>
          <visugpx:TrkExtension xmlns:visugpx="https://www.visugpx.com/editgpx/">
            <visugpx:node>327</visugpx:node>
            </visugpx:TrkExtension>
        </extensions>
      </trkpt>
      <trkpt lat="47.92919" lon="6.92498">
        <ele>1135.4</ele>
      </trkpt>
      <trkpt lat="47.92891" lon="6.92477">
        <ele>1127.3</ele>
      </trkpt>
      <trkpt lat="47.92798" lon="6.92439">
        <ele>1106.7</ele>
      </trkpt>
      <trkpt lat="47.92719" lon="6.9236">
        <ele>1085</ele>
      </trkpt>
      <trkpt lat="47.92695" lon="6.92332">
        <ele>1076.6</ele>
      </trkpt>
      <trkpt lat="47.92664" lon="6.92312">
        <ele>1062.1</ele>
      </trkpt>
      <trkpt lat="47.92647" lon="6.92267">
        <ele>1057.8</ele>
      </trkpt>
      <trkpt lat="47.92633" lon="6.92243">
        <ele>1050.6</ele>
      </trkpt>
      <trkpt lat="47.92613" lon="6.92235">
        <ele>1047</ele>
        <extensions>
          <visugpx:TrkExtension xmlns:visugpx="https://www.visugpx.com/editgpx/">
            <visugpx:node>328</visugpx:node>
            </visugpx:TrkExtension>
        </extensions>
      </trkpt>
      <trkpt lat="47.92611" lon="6.92234">
        <ele>1046.8</ele>
      </trkpt>
      <trkpt lat="47.92582" lon="6.92226">
        <ele>1027.1</ele>
      </trkpt>
      <trkpt lat="47.92577" lon="6.92217">
        <ele>1023.9</ele>
      </trkpt>
      <trkpt lat="47.92566" lon="6.92165">
        <ele>1020.6</ele>
      </trkpt>
      <trkpt lat="47.92557" lon="6.9215">
        <ele>1015.5</ele>
      </trkpt>
      <trkpt lat="47.9255" lon="6.92113">
        <ele>1011.2</ele>
      </trkpt>
      <trkpt lat="47.92535" lon="6.92087">
        <ele>1007.6</ele>
        <extensions>
          <visugpx:TrkExtension xmlns:visugpx="https://www.visugpx.com/editgpx/">
            <visugpx:node>329</visugpx:node>
            </visugpx:TrkExtension>
        </extensions>
      </trkpt>
      <trkpt lat="47.92518" lon="6.92057">
        <ele>998.5</ele>
      </trkpt>
      <trkpt lat="47.92484" lon="6.92046">
        <ele>979.2</ele>
      </trkpt>
      <trkpt lat="47.92458" lon="6.9198">
        <ele>974</ele>
        <extensions>
          <visugpx:TrkExtension xmlns:visugpx="https://www.visugpx.com/editgpx/">
            <visugpx:node>330</visugpx:node>
            </visugpx:TrkExtension>
        </extensions>
      </trkpt>
      <trkpt lat="47.92451" lon="6.9196">
        <ele>972.6</ele>
      </trkpt>
      <trkpt lat="47.92429" lon="6.91915">
        <ele>964.3</ele>
      </trkpt>
      <trkpt lat="47.92405" lon="6.9189">
        <ele>950.3</ele>
      </trkpt>
      <trkpt lat="47.92399" lon="6.91864">
        <ele>946.9</ele>
      </trkpt>
      <trkpt lat="47.92378" lon="6.91854">
        <ele>942.9</ele>
      </trkpt>
      <trkpt lat="47.9237" lon="6.91795">
        <ele>931.9</ele>
        <extensions>
          <visugpx:TrkExtension xmlns:visugpx="https://www.visugpx.com/editgpx/">
            <visugpx:node>332</visugpx:node>
            </visugpx:TrkExtension>
        </extensions>
      </trkpt>
      <trkpt lat="47.92369" lon="6.91784">
        <ele>930.8</ele>
      </trkpt>
      <trkpt lat="47.9235" lon="6.91838">
        <ele>934.5</ele>
      </trkpt>
      <trkpt lat="47.92331" lon="6.91819">
        <ele>918.4</ele>
      </trkpt>
      <trkpt lat="47.92346" lon="6.91781">
        <ele>927.8</ele>
      </trkpt>
      <trkpt lat="47.92324" lon="6.91804">
        <ele>914</ele>
      </trkpt>
      <trkpt lat="47.92329" lon="6.91764">
        <ele>913.6</ele>
      </trkpt>
      <trkpt lat="47.92301" lon="6.91789">
        <ele>909.6</ele>
      </trkpt>
      <trkpt lat="47.92305" lon="6.9175">
        <ele>910.1</ele>
      </trkpt>
      <trkpt lat="47.92286" lon="6.91777">
        <ele>906.9</ele>
      </trkpt>
      <trkpt lat="47.92283" lon="6.91759">
        <ele>905.7</ele>
      </trkpt>
      <trkpt lat="47.92261" lon="6.91769">
        <ele>902.3</ele>
      </trkpt>
      <trkpt lat="47.92266" lon="6.91743">
        <ele>899.1</ele>
      </trkpt>
      <trkpt lat="47.92243" lon="6.91736">
        <ele>898.3</ele>
      </trkpt>
      <trkpt lat="47.9223" lon="6.9174">
        <ele>899.4</ele>
      </trkpt>
      <trkpt lat="47.92221" lon="6.91748">
        <ele>900.1</ele>
      </trkpt>
      <trkpt lat="47.9221" lon="6.91784">
        <ele>898.5</ele>
      </trkpt>
      <trkpt lat="47.92206" lon="6.91791">
        <ele>898.6</ele>
      </trkpt>
      <trkpt lat="47.92201" lon="6.91797">
        <ele>898.8</ele>
      </trkpt>
      <trkpt lat="47.92191" lon="6.91797">
        <ele>899.2</ele>
      </trkpt>
      <trkpt lat="47.92179" lon="6.91791">
        <ele>899.6</ele>
      </trkpt>
      <trkpt lat="47.92172" lon="6.9179">
        <ele>899.8</ele>
      </trkpt>
      <trkpt lat="47.92163" lon="6.91792">
        <ele>903.1</ele>
      </trkpt>
      <trkpt lat="47.92142" lon="6.91802">
        <ele>903.1</ele>
      </trkpt>
      <trkpt lat="47.92133" lon="6.91804">
        <ele>903.2</ele>
      </trkpt>
      <trkpt lat="47.9213" lon="6.91803">
        <ele>903.3</ele>
        <extensions>
          <visugpx:TrkExtension xmlns:visugpx="https://www.visugpx.com/editgpx/">
            <visugpx:node>333</visugpx:node>
            </visugpx:TrkExtension>
        </extensions>
      </trkpt>
      <trkpt lat="47.92105" lon="6.91798">
        <ele>903.7</ele>
      </trkpt>
      <trkpt lat="47.92091" lon="6.91803">
        <ele>903.4</ele>
      </trkpt>
      <trkpt lat="47.9208" lon="6.91816">
        <ele>907.5</ele>
      </trkpt>
      <trkpt lat="47.9207" lon="6.91833">
        <ele>906.2</ele>
      </trkpt>
      <trkpt lat="47.92024" lon="6.91878">
        <ele>902.9</ele>
      </trkpt>
      <trkpt lat="47.92006" lon="6.91902">
        <ele>902.2</ele>
      </trkpt>
      <trkpt lat="47.92003" lon="6.91909">
        <ele>902</ele>
      </trkpt>
      <trkpt lat="47.92001" lon="6.91915">
        <ele>902</ele>
      </trkpt>
      <trkpt lat="47.91963" lon="6.91958">
        <ele>912.5</ele>
      </trkpt>
      <trkpt lat="47.91928" lon="6.91959">
        <ele>917.2</ele>
      </trkpt>
      <trkpt lat="47.91871" lon="6.91978">
        <ele>936.3</ele>
      </trkpt>
      <trkpt lat="47.91852" lon="6.92054">
        <ele>942.4</ele>
      </trkpt>
      <trkpt lat="47.91865" lon="6.92093">
        <ele>948.5</ele>
      </trkpt>
      <trkpt lat="47.91863" lon="6.92126">
        <ele>950.5</ele>
      </trkpt>
      <trkpt lat="47.91854" lon="6.92138">
        <ele>952.7</ele>
      </trkpt>
      <trkpt lat="47.91832" lon="6.92181">
        <ele>967</ele>
      </trkpt>
      <trkpt lat="47.91821" lon="6.9223">
        <ele>972.3</ele>
        <extensions>
          <visugpx:TrkExtension xmlns:visugpx="https://www.visugpx.com/editgpx/">
            <visugpx:node>334</visugpx:node>
            </visugpx:TrkExtension>
        </extensions>
      </trkpt>
      <trkpt lat="47.91814" lon="6.92267">
        <ele>978.2</ele>
      </trkpt>
      <trkpt lat="47.91762" lon="6.92286">
        <ele>980.8</ele>
      </trkpt>
      <trkpt lat="47.9175" lon="6.92313">
        <ele>986</ele>
      </trkpt>
      <trkpt lat="47.91749" lon="6.92333">
        <ele>988.8</ele>
      </trkpt>
      <trkpt lat="47.91752" lon="6.92354">
        <ele>990.5</ele>
      </trkpt>
      <trkpt lat="47.91759" lon="6.92383">
        <ele>993.7</ele>
      </trkpt>
      <trkpt lat="47.91789" lon="6.9248">
        <ele>1009.2</ele>
      </trkpt>
      <trkpt lat="47.91799" lon="6.92518">
        <ele>1020.6</ele>
      </trkpt>
      <trkpt lat="47.91797" lon="6.92529">
        <ele>1022.3</ele>
      </trkpt>
      <trkpt lat="47.91794" lon="6.92533">
        <ele>1023.4</ele>
      </trkpt>
      <trkpt lat="47.9178" lon="6.92547">
        <ele>1027.7</ele>
      </trkpt>
      <trkpt lat="47.91777" lon="6.92552">
        <ele>1029.1</ele>
      </trkpt>
      <trkpt lat="47.91759" lon="6.92609">
        <ele>1043.1</ele>
      </trkpt>
      <trkpt lat="47.91749" lon="6.9262">
        <ele>1059.6</ele>
      </trkpt>
      <trkpt lat="47.9171" lon="6.92653">
        <ele>1063.7</ele>
      </trkpt>
      <trkpt lat="47.91677" lon="6.92673">
        <ele>1069.8</ele>
      </trkpt>
      <trkpt lat="47.9164" lon="6.92684">
        <ele>1078.7</ele>
      </trkpt>
      <trkpt lat="47.91618" lon="6.92698">
        <ele>1081.1</ele>
      </trkpt>
      <trkpt lat="47.91593" lon="6.92709">
        <ele>1083.1</ele>
      </trkpt>
      <trkpt lat="47.91523" lon="6.92725">
        <ele>1098.5</ele>
      </trkpt>
      <trkpt lat="47.91507" lon="6.92722">
        <ele>1099.6</ele>
        <extensions>
          <visugpx:TrkExtension xmlns:visugpx="https://www.visugpx.com/editgpx/">
            <visugpx:node>335</visugpx:node>
            </visugpx:TrkExtension>
        </extensions>
      </trkpt>
      <trkpt lat="47.91484" lon="6.92719">
        <ele>1106.2</ele>
      </trkpt>
      <trkpt lat="47.91443" lon="6.92709">
        <ele>1107.8</ele>
      </trkpt>
      <trkpt lat="47.91413" lon="6.92709">
        <ele>1116.5</ele>
      </trkpt>
      <trkpt lat="47.91395" lon="6.92706">
        <ele>1118</ele>
      </trkpt>
      <trkpt lat="47.91382" lon="6.92701">
        <ele>1119.6</ele>
      </trkpt>
      <trkpt lat="47.91371" lon="6.92701">
        <ele>1120.9</ele>
      </trkpt>
      <trkpt lat="47.91358" lon="6.92708">
        <ele>1121.9</ele>
      </trkpt>
      <trkpt lat="47.91329" lon="6.92711">
        <ele>1139.4</ele>
      </trkpt>
      <trkpt lat="47.91321" lon="6.92714">
        <ele>1139.8</ele>
      </trkpt>
      <trkpt lat="47.91307" lon="6.92713">
        <ele>1142.3</ele>
      </trkpt>
      <trkpt lat="47.91274" lon="6.92722">
        <ele>1149</ele>
      </trkpt>
      <trkpt lat="47.9126" lon="6.92724">
        <ele>1151.8</ele>
      </trkpt>
      <trkpt lat="47.91245" lon="6.92734">
        <ele>1165.9</ele>
      </trkpt>
      <trkpt lat="47.91227" lon="6.92737">
        <ele>1167.7</ele>
      </trkpt>
      <trkpt lat="47.91213" lon="6.92744">
        <ele>1169.8</ele>
      </trkpt>
      <trkpt lat="47.91179" lon="6.92769">
        <ele>1172.6</ele>
      </trkpt>
      <trkpt lat="47.91126" lon="6.92813">
        <ele>1188.3</ele>
      </trkpt>
      <trkpt lat="47.91102" lon="6.92837">
        <ele>1190.3</ele>
      </trkpt>
      <trkpt lat="47.91087" lon="6.92866">
        <ele>1186.6</ele>
      </trkpt>
      <trkpt lat="47.91081" lon="6.92873">
        <ele>1202.4</ele>
      </trkpt>
      <trkpt lat="47.9107" lon="6.92877">
        <ele>1202.6</ele>
      </trkpt>
      <trkpt lat="47.91022" lon="6.9288">
        <ele>1207.3</ele>
      </trkpt>
      <trkpt lat="47.90994" lon="6.9288">
        <ele>1207.5</ele>
      </trkpt>
      <trkpt lat="47.90987" lon="6.92878">
        <ele>1207.1</ele>
      </trkpt>
      <trkpt lat="47.90976" lon="6.92866">
        <ele>1206.7</ele>
      </trkpt>
      <trkpt lat="47.90971" lon="6.92856">
        <ele>1206.7</ele>
      </trkpt>
      <trkpt lat="47.90967" lon="6.92851">
        <ele>1206.5</ele>
      </trkpt>
      <trkpt lat="47.9096" lon="6.92851">
        <ele>1205.4</ele>
      </trkpt>
      <trkpt lat="47.90954" lon="6.92846">
        <ele>1204.8</ele>
      </trkpt>
      <trkpt lat="47.90943" lon="6.92842">
        <ele>1203.4</ele>
      </trkpt>
      <trkpt lat="47.90933" lon="6.9284">
        <ele>1202.2</ele>
      </trkpt>
      <trkpt lat="47.90927" lon="6.92835">
        <ele>1201.4</ele>
      </trkpt>
      <trkpt lat="47.90921" lon="6.92827">
        <ele>1201</ele>
      </trkpt>
      <trkpt lat="47.90913" lon="6.92805">
        <ele>1191.9</ele>
      </trkpt>
      <trkpt lat="47.90912" lon="6.92798">
        <ele>1191.2</ele>
      </trkpt>
      <trkpt lat="47.90899" lon="6.92766">
        <ele>1190.7</ele>
      </trkpt>
      <trkpt lat="47.9088" lon="6.92748">
        <ele>1186.8</ele>
      </trkpt>
      <trkpt lat="47.90819" lon="6.92709">
        <ele>1177.3</ele>
      </trkpt>
      <trkpt lat="47.90798" lon="6.92704">
        <ele>1176.4</ele>
      </trkpt>
      <trkpt lat="47.90736" lon="6.92675">
        <ele>1172.2</ele>
      </trkpt>
      <trkpt lat="47.9072" lon="6.92659">
        <ele>1176.7</ele>
      </trkpt>
      <trkpt lat="47.90693" lon="6.92638">
        <ele>1176.6</ele>
      </trkpt>
      <trkpt lat="47.90637" lon="6.92598">
        <ele>1175.9</ele>
      </trkpt>
      <trkpt lat="47.9062" lon="6.92588">
        <ele>1175</ele>
      </trkpt>
      <trkpt lat="47.9061" lon="6.92577">
        <ele>1175.3</ele>
      </trkpt>
      <trkpt lat="47.90601" lon="6.92552">
        <ele>1174.1</ele>
      </trkpt>
      <trkpt lat="47.90589" lon="6.92502">
        <ele>1167.8</ele>
      </trkpt>
      <trkpt lat="47.90587" lon="6.92477">
        <ele>1163.1</ele>
        <extensions>
          <visugpx:TrkExtension xmlns:visugpx="https://www.visugpx.com/editgpx/">
            <visugpx:node>336</visugpx:node>
            </visugpx:TrkExtension>
        </extensions>
      </trkpt>
      <trkpt lat="47.90587" lon="6.92472">
        <ele>1162.6</ele>
      </trkpt>
      <trkpt lat="47.90583" lon="6.92453">
        <ele>1147.6</ele>
      </trkpt>
      <trkpt lat="47.90565" lon="6.92367">
        <ele>1138.5</ele>
      </trkpt>
      <trkpt lat="47.90541" lon="6.92331">
        <ele>1136.8</ele>
      </trkpt>
      <trkpt lat="47.90523" lon="6.92296">
        <ele>1136.8</ele>
      </trkpt>
      <trkpt lat="47.90482" lon="6.92209">
        <ele>1139.6</ele>
      </trkpt>
      <trkpt lat="47.90451" lon="6.9216">
        <ele>1142</ele>
      </trkpt>
      <trkpt lat="47.9045" lon="6.92145">
        <ele>1142.1</ele>
      </trkpt>
      <trkpt lat="47.90438" lon="6.9208">
        <ele>1142.5</ele>
      </trkpt>
      <trkpt lat="47.90383" lon="6.91963">
        <ele>1146</ele>
      </trkpt>
      <trkpt lat="47.90375" lon="6.91939">
        <ele>1146.9</ele>
      </trkpt>
      <trkpt lat="47.90371" lon="6.91921">
        <ele>1147.7</ele>
      </trkpt>
      <trkpt lat="47.90349" lon="6.91871">
        <ele>1152.9</ele>
      </trkpt>
      <trkpt lat="47.90344" lon="6.91853">
        <ele>1154</ele>
      </trkpt>
      <trkpt lat="47.90311" lon="6.91782">
        <ele>1160.4</ele>
        <extensions>
          <visugpx:TrkExtension xmlns:visugpx="https://www.visugpx.com/editgpx/">
            <visugpx:node>337</visugpx:node>
            </visugpx:TrkExtension>
        </extensions>
      </trkpt>
      <trkpt lat="47.90304" lon="6.91767">
        <ele>1161.5</ele>
      </trkpt>
      <trkpt lat="47.90229" lon="6.91697">
        <ele>1171.9</ele>
      </trkpt>
      <trkpt lat="47.90218" lon="6.91674">
        <ele>1173.1</ele>
      </trkpt>
      <trkpt lat="47.90192" lon="6.91678">
        <ele>1175.1</ele>
      </trkpt>
      <trkpt lat="47.90136" lon="6.91698">
        <ele>1172.7</ele>
      </trkpt>
      <trkpt lat="47.90124" lon="6.91711">
        <ele>1171.7</ele>
      </trkpt>
      <trkpt lat="47.90103" lon="6.91738">
        <ele>1171.4</ele>
      </trkpt>
      <trkpt lat="47.90084" lon="6.91756">
        <ele>1169.3</ele>
      </trkpt>
      <trkpt lat="47.90075" lon="6.91758">
        <ele>1168.1</ele>
      </trkpt>
      <trkpt lat="47.90041" lon="6.9176">
        <ele>1163.8</ele>
        <extensions>
          <visugpx:TrkExtension xmlns:visugpx="https://www.visugpx.com/editgpx/">
            <visugpx:node>338</visugpx:node>
            </visugpx:TrkExtension>
        </extensions>
      </trkpt>
      <trkpt lat="47.89989" lon="6.91762">
        <ele>1163.3</ele>
      </trkpt>
      <trkpt lat="47.89977" lon="6.91761">
        <ele>1163.6</ele>
      </trkpt>
      <trkpt lat="47.89873" lon="6.91681">
        <ele>1157</ele>
      </trkpt>
      <trkpt lat="47.89787" lon="6.91562">
        <ele>1136.4</ele>
        <extensions>
          <visugpx:TrkExtension xmlns:visugpx="https://www.visugpx.com/editgpx/">
            <visugpx:node>339</visugpx:node>
            </visugpx:TrkExtension>
        </extensions>
      </trkpt>
      <trkpt lat="47.8978" lon="6.91554">
        <ele>1136.1</ele>
      </trkpt>
      <trkpt lat="47.8975" lon="6.91402">
        <ele>1111.8</ele>
      </trkpt>
      <trkpt lat="47.89746" lon="6.91252">
        <ele>1099.8</ele>
      </trkpt>
      <trkpt lat="47.89767" lon="6.91097">
        <ele>1079.1</ele>
      </trkpt>
      <trkpt lat="47.89811" lon="6.91007">
        <ele>1058.4</ele>
      </trkpt>
      <trkpt lat="47.89763" lon="6.90759">
        <ele>1013.5</ele>
      </trkpt>
      <trkpt lat="47.89745" lon="6.90665">
        <ele>991.7</ele>
        <extensions>
          <visugpx:TrkExtension xmlns:visugpx="https://www.visugpx.com/editgpx/">
            <visugpx:node>340</visugpx:node>
            </visugpx:TrkExtension>
        </extensions>
      </trkpt>
      <trkpt lat="47.89742" lon="6.90646">
        <ele>994.1</ele>
      </trkpt>
      <trkpt lat="47.89716" lon="6.90438">
        <ele>961.2</ele>
      </trkpt>
      <trkpt lat="47.89687" lon="6.9035">
        <ele>948.1</ele>
      </trkpt>
      <trkpt lat="47.89601" lon="6.90228">
        <ele>913.3</ele>
      </trkpt>
      <trkpt lat="47.89566" lon="6.90213">
        <ele>916.2</ele>
      </trkpt>
      <trkpt lat="47.8955" lon="6.90207">
        <ele>916.2</ele>
      </trkpt>
      <trkpt lat="47.89526" lon="6.90123">
        <ele>898.1</ele>
      </trkpt>
      <trkpt lat="47.89526" lon="6.90061">
        <ele>882.9</ele>
      </trkpt>
      <trkpt lat="47.89454" lon="6.8993">
        <ele>867.7</ele>
      </trkpt>
      <trkpt lat="47.89424" lon="6.8988">
        <ele>849</ele>
      </trkpt>
      <trkpt lat="47.89392" lon="6.89859">
        <ele>844</ele>
      </trkpt>
      <trkpt lat="47.89339" lon="6.89863">
        <ele>840.7</ele>
      </trkpt>
      <trkpt lat="47.89305" lon="6.89857">
        <ele>829.2</ele>
      </trkpt>
      <trkpt lat="47.89295" lon="6.8987">
        <ele>829.5</ele>
      </trkpt>
      <trkpt lat="47.89269" lon="6.89902">
        <ele>830.1</ele>
      </trkpt>
      <trkpt lat="47.8926" lon="6.89905">
        <ele>829.8</ele>
      </trkpt>
      <trkpt lat="47.89254" lon="6.89904">
        <ele>829.6</ele>
        <extensions>
          <visugpx:TrkExtension xmlns:visugpx="https://www.visugpx.com/editgpx/">
            <visugpx:node>341</visugpx:node>
            </visugpx:TrkExtension>
        </extensions>
      </trkpt>
      <trkpt lat="47.89243" lon="6.89902">
        <ele>823.7</ele>
      </trkpt>
      <trkpt lat="47.89145" lon="6.89843">
        <ele>802</ele>
      </trkpt>
      <trkpt lat="47.89127" lon="6.89829">
        <ele>797</ele>
      </trkpt>
      <trkpt lat="47.89113" lon="6.8981">
        <ele>796</ele>
      </trkpt>
      <trkpt lat="47.89108" lon="6.898">
        <ele>796</ele>
      </trkpt>
      <trkpt lat="47.89105" lon="6.89788">
        <ele>796.2</ele>
      </trkpt>
      <trkpt lat="47.89109" lon="6.89775">
        <ele>796.5</ele>
      </trkpt>
      <trkpt lat="47.89106" lon="6.89768">
        <ele>796.5</ele>
      </trkpt>
      <trkpt lat="47.89088" lon="6.89748">
        <ele>797.3</ele>
      </trkpt>
      <trkpt lat="47.89053" lon="6.89744">
        <ele>783.6</ele>
      </trkpt>
      <trkpt lat="47.8904" lon="6.89723">
        <ele>779.8</ele>
      </trkpt>
      <trkpt lat="47.89014" lon="6.89768">
        <ele>769.7</ele>
      </trkpt>
      <trkpt lat="47.89001" lon="6.89782">
        <ele>768.5</ele>
      </trkpt>
      <trkpt lat="47.88984" lon="6.89734">
        <ele>764.3</ele>
      </trkpt>
      <trkpt lat="47.88983" lon="6.89706">
        <ele>763.9</ele>
      </trkpt>
      <trkpt lat="47.88976" lon="6.89655">
        <ele>760.5</ele>
      </trkpt>
      <trkpt lat="47.88949" lon="6.89658">
        <ele>760.5</ele>
      </trkpt>
      <trkpt lat="47.88949" lon="6.89685">
        <ele>763.9</ele>
      </trkpt>
      <trkpt lat="47.88951" lon="6.89741">
        <ele>766.7</ele>
      </trkpt>
      <trkpt lat="47.88948" lon="6.89812">
        <ele>761.7</ele>
      </trkpt>
      <trkpt lat="47.88939" lon="6.89879">
        <ele>749.4</ele>
      </trkpt>
      <trkpt lat="47.88933" lon="6.89885">
        <ele>749</ele>
      </trkpt>
      <trkpt lat="47.88912" lon="6.89917">
        <ele>750.3</ele>
      </trkpt>
      <trkpt lat="47.88908" lon="6.89944">
        <ele>759.9</ele>
      </trkpt>
      <trkpt lat="47.88908" lon="6.89948">
        <ele>760</ele>
        <extensions>
          <visugpx:TrkExtension xmlns:visugpx="https://www.visugpx.com/editgpx/">
            <visugpx:node>342</visugpx:node>
            </visugpx:TrkExtension>
        </extensions>
      </trkpt>
      <trkpt lat="47.88908" lon="6.8997">
        <ele>755.9</ele>
      </trkpt>
      <trkpt lat="47.88897" lon="6.89997">
        <ele>751.2</ele>
      </trkpt>
      <trkpt lat="47.88872" lon="6.90037">
        <ele>755.4</ele>
      </trkpt>
      <trkpt lat="47.88881" lon="6.90059">
        <ele>749.5</ele>
      </trkpt>
      <trkpt lat="47.88853" lon="6.90093">
        <ele>753</ele>
      </trkpt>
      <trkpt lat="47.88849" lon="6.90121">
        <ele>744.9</ele>
      </trkpt>
      <trkpt lat="47.88834" lon="6.90137">
        <ele>745</ele>
      </trkpt>
      <trkpt lat="47.88829" lon="6.90167">
        <ele>752.8</ele>
      </trkpt>
      <trkpt lat="47.88786" lon="6.90221">
        <ele>762.4</ele>
      </trkpt>
      <trkpt lat="47.88775" lon="6.90248">
        <ele>765.9</ele>
      </trkpt>
      <trkpt lat="47.88752" lon="6.90288">
        <ele>758</ele>
      </trkpt>
      <trkpt lat="47.88736" lon="6.90366">
        <ele>793.8</ele>
      </trkpt>
      <trkpt lat="47.88714" lon="6.90511">
        <ele>787</ele>
      </trkpt>
      <trkpt lat="47.88707" lon="6.90631">
        <ele>784.2</ele>
      </trkpt>
      <trkpt lat="47.88692" lon="6.90717">
        <ele>781.7</ele>
      </trkpt>
      <trkpt lat="47.8869" lon="6.90759">
        <ele>777.5</ele>
      </trkpt>
      <trkpt lat="47.88673" lon="6.9083">
        <ele>783.1</ele>
      </trkpt>
      <trkpt lat="47.8865" lon="6.90882">
        <ele>800.8</ele>
      </trkpt>
      <trkpt lat="47.88607" lon="6.90967">
        <ele>793.9</ele>
      </trkpt>
      <trkpt lat="47.8858" lon="6.91034">
        <ele>816.6</ele>
      </trkpt>
      <trkpt lat="47.88561" lon="6.91097">
        <ele>809.2</ele>
        <extensions>
          <visugpx:TrkExtension xmlns:visugpx="https://www.visugpx.com/editgpx/">
            <visugpx:node>343</visugpx:node>
            </visugpx:TrkExtension>
        </extensions>
      </trkpt>
      <trkpt lat="47.8856" lon="6.91101">
        <ele>810.4</ele>
      </trkpt>
      <trkpt lat="47.88559" lon="6.91179">
        <ele>805.4</ele>
      </trkpt>
      <trkpt lat="47.88561" lon="6.91277">
        <ele>798.4</ele>
      </trkpt>
      <trkpt lat="47.88546" lon="6.91358">
        <ele>787.1</ele>
      </trkpt>
      <trkpt lat="47.88518" lon="6.91408">
        <ele>787.4</ele>
      </trkpt>
      <trkpt lat="47.88457" lon="6.91413">
        <ele>808.3</ele>
      </trkpt>
      <trkpt lat="47.88466" lon="6.91395">
        <ele>809.4</ele>
      </trkpt>
      <trkpt lat="47.88449" lon="6.91395">
        <ele>811.2</ele>
      </trkpt>
      <trkpt lat="47.88425" lon="6.91418">
        <ele>799.3</ele>
      </trkpt>
      <trkpt lat="47.88378" lon="6.91396">
        <ele>825.4</ele>
      </trkpt>
      <trkpt lat="47.88301" lon="6.9147">
        <ele>820.2</ele>
      </trkpt>
      <trkpt lat="47.88249" lon="6.91524">
        <ele>818.4</ele>
      </trkpt>
      <trkpt lat="47.88199" lon="6.91533">
        <ele>822.7</ele>
      </trkpt>
      <trkpt lat="47.88166" lon="6.91552">
        <ele>837</ele>
      </trkpt>
      <trkpt lat="47.88154" lon="6.91575">
        <ele>831.1</ele>
      </trkpt>
      <trkpt lat="47.88141" lon="6.91624">
        <ele>822.4</ele>
      </trkpt>
      <trkpt lat="47.88107" lon="6.91696">
        <ele>806.4</ele>
      </trkpt>
      <trkpt lat="47.88093" lon="6.91709">
        <ele>804.8</ele>
      </trkpt>
      <trkpt lat="47.88074" lon="6.91714">
        <ele>804.9</ele>
        <extensions>
          <visugpx:TrkExtension xmlns:visugpx="https://www.visugpx.com/editgpx/">
            <visugpx:node>344</visugpx:node>
            </visugpx:TrkExtension>
        </extensions>
      </trkpt>
      <trkpt lat="47.88074" lon="6.91714">
        <ele>804.9</ele>
      </trkpt>
      <trkpt lat="47.88061" lon="6.9171">
        <ele>805.1</ele>
      </trkpt>
      <trkpt lat="47.88036" lon="6.91693">
        <ele>805.7</ele>
      </trkpt>
      <trkpt lat="47.87995" lon="6.91648">
        <ele>807.1</ele>
      </trkpt>
      <trkpt lat="47.87949" lon="6.91607">
        <ele>803.5</ele>
      </trkpt>
      <trkpt lat="47.87944" lon="6.91585">
        <ele>803.1</ele>
      </trkpt>
      <trkpt lat="47.87939" lon="6.91523">
        <ele>814.2</ele>
      </trkpt>
      <trkpt lat="47.87934" lon="6.91257">
        <ele>843</ele>
      </trkpt>
      <trkpt lat="47.87926" lon="6.91154">
        <ele>849.7</ele>
      </trkpt>
      <trkpt lat="47.87918" lon="6.91098">
        <ele>855.1</ele>
      </trkpt>
      <trkpt lat="47.87899" lon="6.91036">
        <ele>849.2</ele>
      </trkpt>
      <trkpt lat="47.87889" lon="6.91019">
        <ele>850.1</ele>
      </trkpt>
      <trkpt lat="47.87867" lon="6.91011">
        <ele>849.8</ele>
      </trkpt>
      <trkpt lat="47.87842" lon="6.91017">
        <ele>850</ele>
      </trkpt>
      <trkpt lat="47.87829" lon="6.91026">
        <ele>861.1</ele>
      </trkpt>
      <trkpt lat="47.87813" lon="6.9105">
        <ele>862</ele>
      </trkpt>
      <trkpt lat="47.87766" lon="6.91148">
        <ele>857.1</ele>
      </trkpt>
      <trkpt lat="47.87739" lon="6.91185">
        <ele>874.4</ele>
      </trkpt>
      <trkpt lat="47.87731" lon="6.91207">
        <ele>876.7</ele>
      </trkpt>
      <trkpt lat="47.87729" lon="6.91244">
        <ele>867.4</ele>
      </trkpt>
      <trkpt lat="47.87711" lon="6.91408">
        <ele>856.4</ele>
      </trkpt>
      <trkpt lat="47.87701" lon="6.91426">
        <ele>851.2</ele>
      </trkpt>
      <trkpt lat="47.87669" lon="6.9146">
        <ele>853.6</ele>
      </trkpt>
      <trkpt lat="47.87629" lon="6.91516">
        <ele>882.3</ele>
      </trkpt>
      <trkpt lat="47.87611" lon="6.9157">
        <ele>887.1</ele>
      </trkpt>
      <trkpt lat="47.87598" lon="6.91667">
        <ele>887.7</ele>
      </trkpt>
      <trkpt lat="47.87599" lon="6.91773">
        <ele>882.2</ele>
        <extensions>
          <visugpx:TrkExtension xmlns:visugpx="https://www.visugpx.com/editgpx/">
            <visugpx:node>345</visugpx:node>
            </visugpx:TrkExtension>
        </extensions>
      </trkpt>
      <trkpt lat="47.87599" lon="6.91774">
        <ele>882.1</ele>
      </trkpt>
      <trkpt lat="47.8761" lon="6.91853">
        <ele>882.8</ele>
      </trkpt>
      <trkpt lat="47.87613" lon="6.91919">
        <ele>888</ele>
      </trkpt>
      <trkpt lat="47.87636" lon="6.92011">
        <ele>879.9</ele>
      </trkpt>
      <trkpt lat="47.87639" lon="6.92059">
        <ele>883.2</ele>
      </trkpt>
      <trkpt lat="47.87645" lon="6.92098">
        <ele>887.3</ele>
      </trkpt>
      <trkpt lat="47.87711" lon="6.9228">
        <ele>876.5</ele>
      </trkpt>
      <trkpt lat="47.8772" lon="6.92342">
        <ele>882.8</ele>
      </trkpt>
      <trkpt lat="47.87729" lon="6.92466">
        <ele>887.5</ele>
      </trkpt>
      <trkpt lat="47.87726" lon="6.92515">
        <ele>880.4</ele>
      </trkpt>
      <trkpt lat="47.87718" lon="6.92543">
        <ele>879</ele>
      </trkpt>
      <trkpt lat="47.8771" lon="6.92553">
        <ele>878.3</ele>
      </trkpt>
      <trkpt lat="47.87705" lon="6.92553">
        <ele>878.3</ele>
      </trkpt>
      <trkpt lat="47.87665" lon="6.92489">
        <ele>899.9</ele>
      </trkpt>
      <trkpt lat="47.87608" lon="6.92426">
        <ele>908.9</ele>
      </trkpt>
      <trkpt lat="47.87586" lon="6.9241">
        <ele>919.2</ele>
      </trkpt>
      <trkpt lat="47.87545" lon="6.92397">
        <ele>922.8</ele>
      </trkpt>
      <trkpt lat="47.87432" lon="6.92302">
        <ele>935.8</ele>
        <extensions>
          <visugpx:TrkExtension xmlns:visugpx="https://www.visugpx.com/editgpx/">
            <visugpx:node>346</visugpx:node>
            </visugpx:TrkExtension>
        </extensions>
      </trkpt>
      <trkpt lat="47.87428" lon="6.92299">
        <ele>936.1</ele>
      </trkpt>
      <trkpt lat="47.87404" lon="6.92273">
        <ele>923.4</ele>
      </trkpt>
      <trkpt lat="47.87339" lon="6.92168">
        <ele>934.4</ele>
      </trkpt>
      <trkpt lat="47.87259" lon="6.92069">
        <ele>946</ele>
      </trkpt>
      <trkpt lat="47.87232" lon="6.92044">
        <ele>940.4</ele>
      </trkpt>
      <trkpt lat="47.872" lon="6.9202">
        <ele>943.6</ele>
      </trkpt>
      <trkpt lat="47.87172" lon="6.92011">
        <ele>947.8</ele>
      </trkpt>
      <trkpt lat="47.8714" lon="6.92022">
        <ele>950</ele>
      </trkpt>
      <trkpt lat="47.87119" lon="6.92037">
        <ele>950.2</ele>
      </trkpt>
      <trkpt lat="47.87101" lon="6.92057">
        <ele>948.9</ele>
      </trkpt>
      <trkpt lat="47.87053" lon="6.92138">
        <ele>946</ele>
      </trkpt>
      <trkpt lat="47.87" lon="6.92255">
        <ele>937.6</ele>
      </trkpt>
      <trkpt lat="47.86982" lon="6.9224">
        <ele>936.7</ele>
      </trkpt>
      <trkpt lat="47.86991" lon="6.92219">
        <ele>938.5</ele>
      </trkpt>
      <trkpt lat="47.86968" lon="6.9222">
        <ele>935.4</ele>
      </trkpt>
      <trkpt lat="47.86977" lon="6.92191">
        <ele>941</ele>
      </trkpt>
      <trkpt lat="47.86952" lon="6.92124">
        <ele>952.6</ele>
      </trkpt>
      <trkpt lat="47.8695" lon="6.92029">
        <ele>968.5</ele>
      </trkpt>
      <trkpt lat="47.86965" lon="6.92036">
        <ele>971.5</ele>
      </trkpt>
      <trkpt lat="47.8696" lon="6.91931">
        <ele>985</ele>
      </trkpt>
      <trkpt lat="47.86959" lon="6.91816">
        <ele>996.3</ele>
        <extensions>
          <visugpx:TrkExtension xmlns:visugpx="https://www.visugpx.com/editgpx/">
            <visugpx:node>347</visugpx:node>
            </visugpx:TrkExtension>
        </extensions>
      </trkpt>
      <trkpt lat="47.86944" lon="6.91682">
        <ele>999.7</ele>
      </trkpt>
      <trkpt lat="47.86956" lon="6.91543">
        <ele>1016.5</ele>
      </trkpt>
      <trkpt lat="47.8697" lon="6.91494">
        <ele>1035.2</ele>
      </trkpt>
      <trkpt lat="47.86929" lon="6.91456">
        <ele>1032.5</ele>
      </trkpt>
      <trkpt lat="47.86884" lon="6.91401">
        <ele>1027</ele>
      </trkpt>
      <trkpt lat="47.86832" lon="6.91296">
        <ele>1014.8</ele>
      </trkpt>
      <trkpt lat="47.86829" lon="6.91246">
        <ele>1032.8</ele>
      </trkpt>
      <trkpt lat="47.86805" lon="6.91129">
        <ele>1045</ele>
      </trkpt>
      <trkpt lat="47.86777" lon="6.91079">
        <ele>1057.9</ele>
      </trkpt>
      <trkpt lat="47.86754" lon="6.91059">
        <ele>1055</ele>
        <extensions>
          <visugpx:TrkExtension xmlns:visugpx="https://www.visugpx.com/editgpx/">
            <visugpx:node>348</visugpx:node>
            </visugpx:TrkExtension>
        </extensions>
      </trkpt>
      <trkpt lat="47.86731" lon="6.91041">
        <ele>1031</ele>
      </trkpt>
      <trkpt lat="47.86705" lon="6.90999">
        <ele>1050.4</ele>
      </trkpt>
      <trkpt lat="47.86707" lon="6.90945">
        <ele>1059.9</ele>
      </trkpt>
      <trkpt lat="47.86697" lon="6.9093">
        <ele>1059.5</ele>
      </trkpt>
      <trkpt lat="47.86659" lon="6.90916">
        <ele>1060</ele>
      </trkpt>
      <trkpt lat="47.8659" lon="6.90929">
        <ele>1047</ele>
      </trkpt>
      <trkpt lat="47.86562" lon="6.90942">
        <ele>1041.9</ele>
      </trkpt>
      <trkpt lat="47.86529" lon="6.90936">
        <ele>1041</ele>
      </trkpt>
      <trkpt lat="47.86483" lon="6.90883">
        <ele>1048.8</ele>
      </trkpt>
      <trkpt lat="47.86455" lon="6.90877">
        <ele>1048.4</ele>
      </trkpt>
      <trkpt lat="47.86433" lon="6.90897">
        <ele>1044.8</ele>
      </trkpt>
      <trkpt lat="47.86411" lon="6.90925">
        <ele>1039.2</ele>
      </trkpt>
      <trkpt lat="47.86363" lon="6.90976">
        <ele>1042.3</ele>
      </trkpt>
      <trkpt lat="47.86353" lon="6.90982">
        <ele>1042.7</ele>
      </trkpt>
      <trkpt lat="47.86353" lon="6.91013">
        <ele>1048.6</ele>
      </trkpt>
      <trkpt lat="47.86339" lon="6.91038">
        <ele>1050.9</ele>
      </trkpt>
      <trkpt lat="47.86295" lon="6.9106">
        <ele>1058.9</ele>
      </trkpt>
      <trkpt lat="47.86249" lon="6.91045">
        <ele>1071.1</ele>
      </trkpt>
      <trkpt lat="47.86235" lon="6.91032">
        <ele>1069.5</ele>
      </trkpt>
      <trkpt lat="47.86214" lon="6.91028">
        <ele>1072.3</ele>
      </trkpt>
      <trkpt lat="47.86196" lon="6.91017">
        <ele>1073.9</ele>
      </trkpt>
      <trkpt lat="47.86187" lon="6.91005">
        <ele>1074.2</ele>
      </trkpt>
      <trkpt lat="47.86171" lon="6.91001">
        <ele>1075</ele>
      </trkpt>
      <trkpt lat="47.86155" lon="6.90979">
        <ele>1075.4</ele>
      </trkpt>
      <trkpt lat="47.86122" lon="6.90967">
        <ele>1077.4</ele>
        <extensions>
          <visugpx:TrkExtension xmlns:visugpx="https://www.visugpx.com/editgpx/">
            <visugpx:node>349</visugpx:node>
            </visugpx:TrkExtension>
        </extensions>
      </trkpt>
      <trkpt lat="47.8611" lon="6.90964">
        <ele>1078.3</ele>
      </trkpt>
      <trkpt lat="47.8608" lon="6.90959">
        <ele>1090</ele>
      </trkpt>
      <trkpt lat="47.86013" lon="6.90983">
        <ele>1100.4</ele>
      </trkpt>
      <trkpt lat="47.8599" lon="6.90994">
        <ele>1109.3</ele>
      </trkpt>
      <trkpt lat="47.85965" lon="6.90967">
        <ele>1108.4</ele>
      </trkpt>
      <trkpt lat="47.85935" lon="6.90948">
        <ele>1109.1</ele>
      </trkpt>
      <trkpt lat="47.85921" lon="6.90958">
        <ele>1110.3</ele>
      </trkpt>
      <trkpt lat="47.85891" lon="6.9099">
        <ele>1113.3</ele>
      </trkpt>
      <trkpt lat="47.85876" lon="6.91006">
        <ele>1118</ele>
      </trkpt>
      <trkpt lat="47.85867" lon="6.91012">
        <ele>1117.5</ele>
      </trkpt>
      <trkpt lat="47.8584" lon="6.91039">
        <ele>1118</ele>
      </trkpt>
      <trkpt lat="47.85826" lon="6.9106">
        <ele>1111.5</ele>
      </trkpt>
      <trkpt lat="47.85825" lon="6.91062">
        <ele>1111.8</ele>
        <extensions>
          <visugpx:TrkExtension xmlns:visugpx="https://www.visugpx.com/editgpx/">
            <visugpx:node>350</visugpx:node>
            </visugpx:TrkExtension>
        </extensions>
      </trkpt>
      <trkpt lat="47.85804" lon="6.911">
        <ele>1115.7</ele>
      </trkpt>
      <trkpt lat="47.8575" lon="6.91204">
        <ele>1119</ele>
      </trkpt>
      <trkpt lat="47.85741" lon="6.91229">
        <ele>1102.7</ele>
      </trkpt>
      <trkpt lat="47.85715" lon="6.91317">
        <ele>1102.1</ele>
      </trkpt>
      <trkpt lat="47.85688" lon="6.91388">
        <ele>1102.7</ele>
      </trkpt>
      <trkpt lat="47.85653" lon="6.91447">
        <ele>1088.4</ele>
      </trkpt>
      <trkpt lat="47.85642" lon="6.91471">
        <ele>1088.3</ele>
      </trkpt>
      <trkpt lat="47.85639" lon="6.91478">
        <ele>1088.4</ele>
        <extensions>
          <visugpx:TrkExtension xmlns:visugpx="https://www.visugpx.com/editgpx/">
            <visugpx:node>351</visugpx:node>
            </visugpx:TrkExtension>
        </extensions>
      </trkpt>
      <trkpt lat="47.85637" lon="6.91481">
        <ele>1088.3</ele>
      </trkpt>
      <trkpt lat="47.85627" lon="6.91508">
        <ele>1091.7</ele>
      </trkpt>
      <trkpt lat="47.85615" lon="6.91544">
        <ele>1091.2</ele>
      </trkpt>
      <trkpt lat="47.85598" lon="6.91625">
        <ele>1093.5</ele>
      </trkpt>
      <trkpt lat="47.8559" lon="6.91675">
        <ele>1091.4</ele>
      </trkpt>
      <trkpt lat="47.85584" lon="6.91698">
        <ele>1095.1</ele>
      </trkpt>
      <trkpt lat="47.85575" lon="6.91718">
        <ele>1088.5</ele>
      </trkpt>
      <trkpt lat="47.8557" lon="6.91724">
        <ele>1088.7</ele>
      </trkpt>
      <trkpt lat="47.85564" lon="6.91728">
        <ele>1088.7</ele>
      </trkpt>
      <trkpt lat="47.85558" lon="6.91717">
        <ele>1088</ele>
      </trkpt>
      <trkpt lat="47.85541" lon="6.91731">
        <ele>1087.8</ele>
      </trkpt>
      <trkpt lat="47.85524" lon="6.91746">
        <ele>1087.4</ele>
      </trkpt>
      <trkpt lat="47.85491" lon="6.91763">
        <ele>1091.9</ele>
      </trkpt>
      <trkpt lat="47.85468" lon="6.91791">
        <ele>1096.7</ele>
      </trkpt>
      <trkpt lat="47.85463" lon="6.91799">
        <ele>1097.4</ele>
      </trkpt>
      <trkpt lat="47.85459" lon="6.91802">
        <ele>1098</ele>
      </trkpt>
      <trkpt lat="47.85455" lon="6.91812">
        <ele>1098.9</ele>
      </trkpt>
      <trkpt lat="47.85452" lon="6.91823">
        <ele>1099.8</ele>
      </trkpt>
      <trkpt lat="47.8545" lon="6.9189">
        <ele>1099.3</ele>
      </trkpt>
      <trkpt lat="47.8543" lon="6.91936">
        <ele>1090.9</ele>
      </trkpt>
      <trkpt lat="47.85402" lon="6.91964">
        <ele>1107.4</ele>
      </trkpt>
      <trkpt lat="47.85397" lon="6.91971">
        <ele>1106.4</ele>
      </trkpt>
      <trkpt lat="47.85375" lon="6.91982">
        <ele>1110.4</ele>
      </trkpt>
      <trkpt lat="47.85355" lon="6.92006">
        <ele>1098.4</ele>
      </trkpt>
      <trkpt lat="47.85316" lon="6.92034">
        <ele>1123.5</ele>
      </trkpt>
      <trkpt lat="47.85281" lon="6.92064">
        <ele>1129</ele>
      </trkpt>
      <trkpt lat="47.85258" lon="6.92122">
        <ele>1118</ele>
      </trkpt>
      <trkpt lat="47.85253" lon="6.92163">
        <ele>1125.5</ele>
        <extensions>
          <visugpx:TrkExtension xmlns:visugpx="https://www.visugpx.com/editgpx/">
            <visugpx:node>352</visugpx:node>
            </visugpx:TrkExtension>
        </extensions>
      </trkpt>
      <trkpt lat="47.85251" lon="6.92182">
        <ele>1114.2</ele>
      </trkpt>
      <trkpt lat="47.85254" lon="6.92226">
        <ele>1104.8</ele>
      </trkpt>
      <trkpt lat="47.85238" lon="6.92267">
        <ele>1113</ele>
      </trkpt>
      <trkpt lat="47.85211" lon="6.92285">
        <ele>1112.6</ele>
      </trkpt>
      <trkpt lat="47.8518" lon="6.92291">
        <ele>1116.5</ele>
      </trkpt>
      <trkpt lat="47.85141" lon="6.92319">
        <ele>1131.8</ele>
      </trkpt>
      <trkpt lat="47.85085" lon="6.92374">
        <ele>1108</ele>
      </trkpt>
      <trkpt lat="47.85006" lon="6.92429">
        <ele>1106.3</ele>
      </trkpt>
      <trkpt lat="47.84992" lon="6.92451">
        <ele>1097.3</ele>
      </trkpt>
      <trkpt lat="47.84971" lon="6.92447">
        <ele>1096</ele>
      </trkpt>
      <trkpt lat="47.84947" lon="6.92448">
        <ele>1093</ele>
      </trkpt>
      <trkpt lat="47.84922" lon="6.92457">
        <ele>1089.9</ele>
      </trkpt>
      <trkpt lat="47.849" lon="6.92449">
        <ele>1077.5</ele>
      </trkpt>
      <trkpt lat="47.84881" lon="6.92451">
        <ele>1074.1</ele>
      </trkpt>
      <trkpt lat="47.84873" lon="6.92458">
        <ele>1072.7</ele>
      </trkpt>
      <trkpt lat="47.84869" lon="6.92461">
        <ele>1072.2</ele>
      </trkpt>
      <trkpt lat="47.84864" lon="6.92466">
        <ele>1071.8</ele>
      </trkpt>
      <trkpt lat="47.84858" lon="6.92459">
        <ele>1070.7</ele>
      </trkpt>
      <trkpt lat="47.84842" lon="6.92462">
        <ele>1069.4</ele>
      </trkpt>
      <trkpt lat="47.84841" lon="6.92433">
        <ele>1062.8</ele>
      </trkpt>
      <trkpt lat="47.848" lon="6.92433">
        <ele>1046.5</ele>
      </trkpt>
      <trkpt lat="47.84816" lon="6.92409">
        <ele>1039.3</ele>
      </trkpt>
      <trkpt lat="47.84797" lon="6.92417">
        <ele>1044.9</ele>
      </trkpt>
      <trkpt lat="47.848" lon="6.92396">
        <ele>1032.6</ele>
      </trkpt>
      <trkpt lat="47.84787" lon="6.92401">
        <ele>1029.8</ele>
      </trkpt>
      <trkpt lat="47.84792" lon="6.92382">
        <ele>1029.5</ele>
      </trkpt>
      <trkpt lat="47.84773" lon="6.92381">
        <ele>1025.7</ele>
      </trkpt>
      <trkpt lat="47.8474" lon="6.92389">
        <ele>1008.9</ele>
      </trkpt>
      <trkpt lat="47.84724" lon="6.92381">
        <ele>1005.7</ele>
      </trkpt>
      <trkpt lat="47.8472" lon="6.92391">
        <ele>1006.7</ele>
      </trkpt>
      <trkpt lat="47.84691" lon="6.9241">
        <ele>1004.5</ele>
      </trkpt>
      <trkpt lat="47.84662" lon="6.92415">
        <ele>1001.2</ele>
      </trkpt>
      <trkpt lat="47.8463" lon="6.92417">
        <ele>1006.1</ele>
      </trkpt>
      <trkpt lat="47.84614" lon="6.92414">
        <ele>994.9</ele>
      </trkpt>
      <trkpt lat="47.84588" lon="6.92402">
        <ele>994.5</ele>
      </trkpt>
      <trkpt lat="47.84568" lon="6.92381">
        <ele>992.2</ele>
      </trkpt>
      <trkpt lat="47.84557" lon="6.92368">
        <ele>991.8</ele>
      </trkpt>
      <trkpt lat="47.84554" lon="6.92364">
        <ele>991.8</ele>
      </trkpt>
      <trkpt lat="47.84539" lon="6.92371">
        <ele>992.6</ele>
      </trkpt>
      <trkpt lat="47.8453" lon="6.92385">
        <ele>992.5</ele>
      </trkpt>
      <trkpt lat="47.8452" lon="6.92401">
        <ele>991.5</ele>
      </trkpt>
      <trkpt lat="47.845" lon="6.924">
        <ele>994.1</ele>
      </trkpt>
      <trkpt lat="47.84481" lon="6.92398">
        <ele>996.3</ele>
      </trkpt>
      <trkpt lat="47.84455" lon="6.9239">
        <ele>999.5</ele>
      </trkpt>
      <trkpt lat="47.84439" lon="6.92374">
        <ele>1002.8</ele>
      </trkpt>
      <trkpt lat="47.84417" lon="6.92369">
        <ele>1005.3</ele>
      </trkpt>
      <trkpt lat="47.84399" lon="6.92361">
        <ele>1015.8</ele>
      </trkpt>
      <trkpt lat="47.84371" lon="6.92363">
        <ele>1017.4</ele>
      </trkpt>
      <trkpt lat="47.84352" lon="6.92361">
        <ele>1020.8</ele>
      </trkpt>
      <trkpt lat="47.84344" lon="6.9237">
        <ele>1018.3</ele>
      </trkpt>
      <trkpt lat="47.84332" lon="6.92367">
        <ele>1022.2</ele>
      </trkpt>
      <trkpt lat="47.84321" lon="6.92376">
        <ele>1018.2</ele>
      </trkpt>
      <trkpt lat="47.84285" lon="6.9237">
        <ele>1018.7</ele>
      </trkpt>
      <trkpt lat="47.84273" lon="6.9237">
        <ele>1018.5</ele>
        <extensions>
          <visugpx:TrkExtension xmlns:visugpx="https://www.visugpx.com/editgpx/">
            <visugpx:node>353</visugpx:node>
            </visugpx:TrkExtension>
        </extensions>
      </trkpt>
      <trkpt lat="47.84285" lon="6.9237">
        <ele>1018.7</ele>
      </trkpt>
      <trkpt lat="47.8426" lon="6.9237">
        <ele>1018.5</ele>
      </trkpt>
      <trkpt lat="47.84235" lon="6.92358">
        <ele>1008.7</ele>
      </trkpt>
      <trkpt lat="47.84222" lon="6.92355">
        <ele>1005.3</ele>
      </trkpt>
      <trkpt lat="47.84214" lon="6.92342">
        <ele>1005.6</ele>
      </trkpt>
      <trkpt lat="47.84203" lon="6.92321">
        <ele>1028.9</ele>
      </trkpt>
      <trkpt lat="47.84184" lon="6.92278">
        <ele>1032.3</ele>
      </trkpt>
      <trkpt lat="47.84176" lon="6.92217">
        <ele>1052.2</ele>
      </trkpt>
      <trkpt lat="47.84149" lon="6.92141">
        <ele>1035.1</ele>
      </trkpt>
      <trkpt lat="47.84147" lon="6.92015">
        <ele>1050.5</ele>
      </trkpt>
      <trkpt lat="47.8416" lon="6.91946">
        <ele>1059.7</ele>
      </trkpt>
      <trkpt lat="47.84176" lon="6.91918">
        <ele>1072.2</ele>
      </trkpt>
      <trkpt lat="47.8419" lon="6.91885">
        <ele>1081.4</ele>
      </trkpt>
      <trkpt lat="47.84164" lon="6.91804">
        <ele>1080.2</ele>
      </trkpt>
      <trkpt lat="47.84146" lon="6.91802">
        <ele>1079.6</ele>
      </trkpt>
      <trkpt lat="47.84137" lon="6.9181">
        <ele>1078.9</ele>
      </trkpt>
      <trkpt lat="47.84112" lon="6.91791">
        <ele>1078</ele>
      </trkpt>
      <trkpt lat="47.84086" lon="6.9175">
        <ele>1077.2</ele>
      </trkpt>
      <trkpt lat="47.84071" lon="6.91718">
        <ele>1077.1</ele>
      </trkpt>
      <trkpt lat="47.84057" lon="6.91696">
        <ele>1077.8</ele>
      </trkpt>
      <trkpt lat="47.84045" lon="6.91674">
        <ele>1078</ele>
      </trkpt>
      <trkpt lat="47.84004" lon="6.91586">
        <ele>1081.8</ele>
      </trkpt>
      <trkpt lat="47.84001" lon="6.91572">
        <ele>1082</ele>
      </trkpt>
      <trkpt lat="47.83963" lon="6.91481">
        <ele>1084.1</ele>
      </trkpt>
      <trkpt lat="47.83961" lon="6.91476">
        <ele>1084.1</ele>
      </trkpt>
      <trkpt lat="47.83956" lon="6.91467">
        <ele>1084.1</ele>
      </trkpt>
      <trkpt lat="47.83922" lon="6.91441">
        <ele>1083.6</ele>
      </trkpt>
      <trkpt lat="47.83884" lon="6.91403">
        <ele>1082.6</ele>
      </trkpt>
      <trkpt lat="47.83865" lon="6.91387">
        <ele>1083</ele>
      </trkpt>
      <trkpt lat="47.83847" lon="6.91359">
        <ele>1081.3</ele>
      </trkpt>
      <trkpt lat="47.83776" lon="6.91311">
        <ele>1073.9</ele>
      </trkpt>
      <trkpt lat="47.83733" lon="6.91291">
        <ele>1067.9</ele>
      </trkpt>
      <trkpt lat="47.83703" lon="6.91302">
        <ele>1068.5</ele>
      </trkpt>
      <trkpt lat="47.8366" lon="6.91333">
        <ele>1071.5</ele>
        <extensions>
          <visugpx:TrkExtension xmlns:visugpx="https://www.visugpx.com/editgpx/">
            <visugpx:node>354</visugpx:node>
            </visugpx:TrkExtension>
        </extensions>
      </trkpt>
      <trkpt lat="47.83622" lon="6.91362">
        <ele>1070.5</ele>
      </trkpt>
      <trkpt lat="47.83596" lon="6.91375">
        <ele>1068.1</ele>
      </trkpt>
      <trkpt lat="47.83601" lon="6.91346">
        <ele>1062.4</ele>
      </trkpt>
      <trkpt lat="47.83612" lon="6.91325">
        <ele>1051.8</ele>
      </trkpt>
      <trkpt lat="47.83579" lon="6.91344">
        <ele>1045.7</ele>
      </trkpt>
      <trkpt lat="47.83592" lon="6.91303">
        <ele>1047.7</ele>
      </trkpt>
      <trkpt lat="47.83574" lon="6.91315">
        <ele>1032.4</ele>
      </trkpt>
      <trkpt lat="47.83579" lon="6.913">
        <ele>1027.9</ele>
      </trkpt>
      <trkpt lat="47.83581" lon="6.9129">
        <ele>1025.9</ele>
      </trkpt>
      <trkpt lat="47.8357" lon="6.9129">
        <ele>1024.6</ele>
      </trkpt>
      <trkpt lat="47.83555" lon="6.91315">
        <ele>1026.4</ele>
      </trkpt>
      <trkpt lat="47.83552" lon="6.91299">
        <ele>1022.8</ele>
      </trkpt>
      <trkpt lat="47.83556" lon="6.91266">
        <ele>1020</ele>
      </trkpt>
      <trkpt lat="47.83582" lon="6.91228">
        <ele>1006.3</ele>
      </trkpt>
      <trkpt lat="47.83553" lon="6.91237">
        <ele>999.8</ele>
      </trkpt>
      <trkpt lat="47.83531" lon="6.91255">
        <ele>1011.2</ele>
      </trkpt>
      <trkpt lat="47.83513" lon="6.91276">
        <ele>1009.7</ele>
      </trkpt>
      <trkpt lat="47.83489" lon="6.91287">
        <ele>984.6</ele>
      </trkpt>
      <trkpt lat="47.83519" lon="6.91202">
        <ele>983.8</ele>
      </trkpt>
      <trkpt lat="47.83517" lon="6.9119">
        <ele>979.2</ele>
      </trkpt>
      <trkpt lat="47.83508" lon="6.91193">
        <ele>978.1</ele>
      </trkpt>
      <trkpt lat="47.83499" lon="6.91199">
        <ele>955.7</ele>
      </trkpt>
      <trkpt lat="47.83488" lon="6.91203">
        <ele>955.4</ele>
      </trkpt>
      <trkpt lat="47.83462" lon="6.91221">
        <ele>953.5</ele>
      </trkpt>
      <trkpt lat="47.83442" lon="6.91228">
        <ele>949</ele>
      </trkpt>
      <trkpt lat="47.83445" lon="6.91218">
        <ele>948.6</ele>
      </trkpt>
      <trkpt lat="47.83446" lon="6.91201">
        <ele>945.8</ele>
      </trkpt>
      <trkpt lat="47.83455" lon="6.91188">
        <ele>945.9</ele>
      </trkpt>
      <trkpt lat="47.83491" lon="6.91122">
        <ele>929.6</ele>
      </trkpt>
      <trkpt lat="47.83503" lon="6.91099">
        <ele>941.9</ele>
      </trkpt>
      <trkpt lat="47.83511" lon="6.91075">
        <ele>928.6</ele>
      </trkpt>
      <trkpt lat="47.83514" lon="6.91059">
        <ele>927.6</ele>
      </trkpt>
      <trkpt lat="47.83509" lon="6.91054">
        <ele>926.5</ele>
      </trkpt>
      <trkpt lat="47.83503" lon="6.91052">
        <ele>925.8</ele>
      </trkpt>
      <trkpt lat="47.83501" lon="6.91047">
        <ele>924.7</ele>
      </trkpt>
      <trkpt lat="47.83515" lon="6.91033">
        <ele>922.7</ele>
      </trkpt>
      <trkpt lat="47.83543" lon="6.90997">
        <ele>908.3</ele>
      </trkpt>
      <trkpt lat="47.83542" lon="6.9099">
        <ele>907.7</ele>
      </trkpt>
      <trkpt lat="47.83536" lon="6.90989">
        <ele>906.4</ele>
      </trkpt>
      <trkpt lat="47.83531" lon="6.90994">
        <ele>905.7</ele>
      </trkpt>
      <trkpt lat="47.83498" lon="6.91004">
        <ele>902.3</ele>
      </trkpt>
      <trkpt lat="47.83505" lon="6.90985">
        <ele>902.4</ele>
      </trkpt>
      <trkpt lat="47.83529" lon="6.90951">
        <ele>901.2</ele>
      </trkpt>
      <trkpt lat="47.83544" lon="6.90937">
        <ele>902.8</ele>
      </trkpt>
      <trkpt lat="47.83551" lon="6.90909">
        <ele>893.1</ele>
      </trkpt>
      <trkpt lat="47.83549" lon="6.90892">
        <ele>890.7</ele>
      </trkpt>
      <trkpt lat="47.83551" lon="6.90876">
        <ele>889.5</ele>
      </trkpt>
      <trkpt lat="47.83536" lon="6.90886">
        <ele>886.9</ele>
      </trkpt>
      <trkpt lat="47.83527" lon="6.90878">
        <ele>884.2</ele>
      </trkpt>
      <trkpt lat="47.83529" lon="6.9086">
        <ele>882.3</ele>
      </trkpt>
      <trkpt lat="47.83501" lon="6.90852">
        <ele>872.7</ele>
      </trkpt>
      <trkpt lat="47.83474" lon="6.90849">
        <ele>856</ele>
      </trkpt>
      <trkpt lat="47.83442" lon="6.90834">
        <ele>848.7</ele>
      </trkpt>
      <trkpt lat="47.8343" lon="6.90828">
        <ele>839.6</ele>
        <extensions>
          <visugpx:TrkExtension xmlns:visugpx="https://www.visugpx.com/editgpx/">
            <visugpx:node>355</visugpx:node>
            </visugpx:TrkExtension>
        </extensions>
      </trkpt>
      <trkpt lat="47.83417" lon="6.90821">
        <ele>838.7</ele>
      </trkpt>
      <trkpt lat="47.83396" lon="6.9082">
        <ele>831</ele>
      </trkpt>
      <trkpt lat="47.83352" lon="6.90843">
        <ele>831.3</ele>
      </trkpt>
      <trkpt lat="47.83339" lon="6.90852">
        <ele>830.8</ele>
      </trkpt>
      <trkpt lat="47.83322" lon="6.90858">
        <ele>824.9</ele>
      </trkpt>
      <trkpt lat="47.833" lon="6.90858">
        <ele>824.2</ele>
      </trkpt>
      <trkpt lat="47.83269" lon="6.90847">
        <ele>822.1</ele>
      </trkpt>
      <trkpt lat="47.83236" lon="6.90828">
        <ele>826.7</ele>
      </trkpt>
      <trkpt lat="47.83211" lon="6.90798">
        <ele>835.1</ele>
      </trkpt>
      <trkpt lat="47.83205" lon="6.9079">
        <ele>836.4</ele>
      </trkpt>
      <trkpt lat="47.83193" lon="6.90775">
        <ele>839.2</ele>
      </trkpt>
      <trkpt lat="47.83191" lon="6.90772">
        <ele>839.8</ele>
      </trkpt>
      <trkpt lat="47.83187" lon="6.90753">
        <ele>842.6</ele>
      </trkpt>
      <trkpt lat="47.83184" lon="6.90716">
        <ele>843</ele>
      </trkpt>
      <trkpt lat="47.8319" lon="6.90663">
        <ele>846.7</ele>
      </trkpt>
      <trkpt lat="47.83172" lon="6.9066">
        <ele>851</ele>
      </trkpt>
      <trkpt lat="47.83141" lon="6.90636">
        <ele>868.4</ele>
      </trkpt>
      <trkpt lat="47.8312" lon="6.90641">
        <ele>871.8</ele>
      </trkpt>
      <trkpt lat="47.83105" lon="6.90639">
        <ele>874.2</ele>
      </trkpt>
      <trkpt lat="47.83074" lon="6.90655">
        <ele>884.2</ele>
      </trkpt>
      <trkpt lat="47.83037" lon="6.90665">
        <ele>886.6</ele>
      </trkpt>
      <trkpt lat="47.83012" lon="6.90655">
        <ele>886</ele>
      </trkpt>
      <trkpt lat="47.82998" lon="6.90632">
        <ele>892</ele>
      </trkpt>
      <trkpt lat="47.83002" lon="6.90615">
        <ele>893.5</ele>
      </trkpt>
      <trkpt lat="47.83017" lon="6.90598">
        <ele>896.1</ele>
      </trkpt>
      <trkpt lat="47.83052" lon="6.9058">
        <ele>905.3</ele>
      </trkpt>
      <trkpt lat="47.83057" lon="6.90564">
        <ele>906.4</ele>
      </trkpt>
      <trkpt lat="47.83048" lon="6.90563">
        <ele>908.1</ele>
      </trkpt>
      <trkpt lat="47.83013" lon="6.90567">
        <ele>910</ele>
      </trkpt>
      <trkpt lat="47.83008" lon="6.90557">
        <ele>911.9</ele>
      </trkpt>
      <trkpt lat="47.83022" lon="6.90549">
        <ele>912.9</ele>
      </trkpt>
      <trkpt lat="47.83035" lon="6.90548">
        <ele>911.9</ele>
      </trkpt>
      <trkpt lat="47.83032" lon="6.90535">
        <ele>914.6</ele>
      </trkpt>
      <trkpt lat="47.83013" lon="6.90537">
        <ele>916.4</ele>
      </trkpt>
      <trkpt lat="47.83017" lon="6.90496">
        <ele>932.8</ele>
      </trkpt>
      <trkpt lat="47.82992" lon="6.90476">
        <ele>939.7</ele>
      </trkpt>
      <trkpt lat="47.82956" lon="6.90468">
        <ele>940.5</ele>
      </trkpt>
      <trkpt lat="47.8293" lon="6.90424">
        <ele>943.5</ele>
      </trkpt>
      <trkpt lat="47.82855" lon="6.90353">
        <ele>947.1</ele>
      </trkpt>
      <trkpt lat="47.82823" lon="6.90307">
        <ele>945.5</ele>
        <extensions>
          <visugpx:TrkExtension xmlns:visugpx="https://www.visugpx.com/editgpx/">
            <visugpx:node>356</visugpx:node>
            </visugpx:TrkExtension>
        </extensions>
      </trkpt>
      <trkpt lat="47.82756" lon="6.9021">
        <ele>955.9</ele>
      </trkpt>
      <trkpt lat="47.82716" lon="6.90165">
        <ele>959</ele>
      </trkpt>
      <trkpt lat="47.82685" lon="6.90124">
        <ele>960.6</ele>
      </trkpt>
      <trkpt lat="47.82672" lon="6.90117">
        <ele>961.5</ele>
      </trkpt>
      <trkpt lat="47.82648" lon="6.90132">
        <ele>948.9</ele>
      </trkpt>
      <trkpt lat="47.82612" lon="6.90134">
        <ele>946.5</ele>
      </trkpt>
      <trkpt lat="47.82536" lon="6.90124">
        <ele>939.9</ele>
      </trkpt>
      <trkpt lat="47.82502" lon="6.90112">
        <ele>941.1</ele>
      </trkpt>
      <trkpt lat="47.82482" lon="6.90104">
        <ele>938</ele>
      </trkpt>
      <trkpt lat="47.8246" lon="6.90089">
        <ele>937.5</ele>
      </trkpt>
      <trkpt lat="47.82439" lon="6.90082">
        <ele>947.9</ele>
      </trkpt>
      <trkpt lat="47.8243" lon="6.90079">
        <ele>946.2</ele>
      </trkpt>
      <trkpt lat="47.82414" lon="6.9008">
        <ele>942.3</ele>
      </trkpt>
      <trkpt lat="47.82391" lon="6.90086">
        <ele>936.6</ele>
      </trkpt>
      <trkpt lat="47.82383" lon="6.90078">
        <ele>946.4</ele>
      </trkpt>
      <trkpt lat="47.8237" lon="6.90063">
        <ele>947.5</ele>
      </trkpt>
      <trkpt lat="47.82347" lon="6.9002">
        <ele>950.9</ele>
      </trkpt>
      <trkpt lat="47.82328" lon="6.89966">
        <ele>957.9</ele>
      </trkpt>
      <trkpt lat="47.82318" lon="6.89931">
        <ele>960.7</ele>
      </trkpt>
      <trkpt lat="47.82313" lon="6.89907">
        <ele>965.2</ele>
      </trkpt>
      <trkpt lat="47.82312" lon="6.89884">
        <ele>966.2</ele>
      </trkpt>
      <trkpt lat="47.82313" lon="6.89858">
        <ele>967.7</ele>
      </trkpt>
      <trkpt lat="47.82308" lon="6.89826">
        <ele>969.9</ele>
      </trkpt>
      <trkpt lat="47.82291" lon="6.89742">
        <ele>965.3</ele>
      </trkpt>
      <trkpt lat="47.82277" lon="6.89686">
        <ele>962</ele>
      </trkpt>
      <trkpt lat="47.82279" lon="6.89679">
        <ele>961.9</ele>
      </trkpt>
      <trkpt lat="47.82291" lon="6.89665">
        <ele>956.6</ele>
        <extensions>
          <visugpx:TrkExtension xmlns:visugpx="https://www.visugpx.com/editgpx/">
            <visugpx:node>357</visugpx:node>
            </visugpx:TrkExtension>
        </extensions>
      </trkpt>
      <trkpt lat="47.82343" lon="6.89599">
        <ele>961.5</ele>
      </trkpt>
      <trkpt lat="47.82368" lon="6.8955">
        <ele>955.9</ele>
      </trkpt>
      <trkpt lat="47.82383" lon="6.89537">
        <ele>956.5</ele>
      </trkpt>
      <trkpt lat="47.82408" lon="6.89505">
        <ele>957.3</ele>
      </trkpt>
      <trkpt lat="47.82421" lon="6.89467">
        <ele>959.8</ele>
      </trkpt>
      <trkpt lat="47.82425" lon="6.89434">
        <ele>953.1</ele>
      </trkpt>
      <trkpt lat="47.82435" lon="6.89415">
        <ele>945</ele>
      </trkpt>
      <trkpt lat="47.82438" lon="6.89384">
        <ele>944.7</ele>
      </trkpt>
      <trkpt lat="47.82436" lon="6.89352">
        <ele>939.2</ele>
      </trkpt>
      <trkpt lat="47.8244" lon="6.89301">
        <ele>926.6</ele>
      </trkpt>
      <trkpt lat="47.82435" lon="6.89294">
        <ele>924.9</ele>
      </trkpt>
      <trkpt lat="47.82425" lon="6.89296">
        <ele>923.9</ele>
      </trkpt>
      <trkpt lat="47.82418" lon="6.89293">
        <ele>922.7</ele>
      </trkpt>
      <trkpt lat="47.82428" lon="6.89219">
        <ele>904.7</ele>
      </trkpt>
      <trkpt lat="47.82427" lon="6.89171">
        <ele>891.3</ele>
      </trkpt>
      <trkpt lat="47.82437" lon="6.89094">
        <ele>875.4</ele>
      </trkpt>
      <trkpt lat="47.82446" lon="6.89045">
        <ele>861.8</ele>
      </trkpt>
      <trkpt lat="47.82442" lon="6.88998">
        <ele>843.1</ele>
      </trkpt>
      <trkpt lat="47.82444" lon="6.88954">
        <ele>840.8</ele>
      </trkpt>
      <trkpt lat="47.82448" lon="6.8893">
        <ele>838.6</ele>
      </trkpt>
      <trkpt lat="47.82457" lon="6.88904">
        <ele>827.4</ele>
      </trkpt>
      <trkpt lat="47.82467" lon="6.88899">
        <ele>828.4</ele>
      </trkpt>
      <trkpt lat="47.8251" lon="6.88875">
        <ele>829.8</ele>
      </trkpt>
      <trkpt lat="47.82533" lon="6.88884">
        <ele>830.5</ele>
      </trkpt>
      <trkpt lat="47.82561" lon="6.88896">
        <ele>831.4</ele>
      </trkpt>
      <trkpt lat="47.82575" lon="6.88895">
        <ele>831.7</ele>
      </trkpt>
      <trkpt lat="47.82584" lon="6.88887">
        <ele>826.4</ele>
      </trkpt>
      <trkpt lat="47.82596" lon="6.88886">
        <ele>825.6</ele>
      </trkpt>
      <trkpt lat="47.82627" lon="6.88909">
        <ele>826.2</ele>
      </trkpt>
      <trkpt lat="47.82674" lon="6.88922">
        <ele>835.4</ele>
      </trkpt>
      <trkpt lat="47.82707" lon="6.88923">
        <ele>839.8</ele>
      </trkpt>
      <trkpt lat="47.82737" lon="6.88928">
        <ele>835.8</ele>
      </trkpt>
      <trkpt lat="47.82758" lon="6.88921">
        <ele>831.1</ele>
      </trkpt>
      <trkpt lat="47.82779" lon="6.88913">
        <ele>820.7</ele>
      </trkpt>
      <trkpt lat="47.82798" lon="6.88902">
        <ele>820</ele>
      </trkpt>
      <trkpt lat="47.8281" lon="6.88899">
        <ele>820.4</ele>
      </trkpt>
      <trkpt lat="47.82821" lon="6.88892">
        <ele>820.3</ele>
      </trkpt>
      <trkpt lat="47.82823" lon="6.88887">
        <ele>819.8</ele>
      </trkpt>
      <trkpt lat="47.8283" lon="6.88855">
        <ele>817</ele>
      </trkpt>
      <trkpt lat="47.82832" lon="6.88829">
        <ele>814.7</ele>
      </trkpt>
      <trkpt lat="47.82833" lon="6.88819">
        <ele>813</ele>
      </trkpt>
      <trkpt lat="47.82832" lon="6.88769">
        <ele>814.3</ele>
      </trkpt>
      <trkpt lat="47.82815" lon="6.88748">
        <ele>816.3</ele>
      </trkpt>
      <trkpt lat="47.82804" lon="6.88707">
        <ele>815.5</ele>
      </trkpt>
      <trkpt lat="47.82776" lon="6.88675">
        <ele>810.3</ele>
      </trkpt>
      <trkpt lat="47.82746" lon="6.88652">
        <ele>798.9</ele>
      </trkpt>
      <trkpt lat="47.8274" lon="6.8865">
        <ele>798.5</ele>
      </trkpt>
      <trkpt lat="47.82698" lon="6.88645">
        <ele>793.2</ele>
      </trkpt>
      <trkpt lat="47.82672" lon="6.88636">
        <ele>790.8</ele>
      </trkpt>
      <trkpt lat="47.8265" lon="6.88621">
        <ele>778.8</ele>
      </trkpt>
      <trkpt lat="47.82629" lon="6.88585">
        <ele>777.3</ele>
      </trkpt>
      <trkpt lat="47.8261" lon="6.88584">
        <ele>772.7</ele>
      </trkpt>
      <trkpt lat="47.82583" lon="6.88572">
        <ele>763</ele>
      </trkpt>
      <trkpt lat="47.82539" lon="6.88458">
        <ele>766.8</ele>
      </trkpt>
      <trkpt lat="47.82534" lon="6.8845">
        <ele>766.2</ele>
        <extensions>
          <visugpx:TrkExtension xmlns:visugpx="https://www.visugpx.com/editgpx/">
            <visugpx:node>358</visugpx:node>
            </visugpx:TrkExtension>
        </extensions>
      </trkpt>
      <trkpt lat="47.82504" lon="6.88402">
        <ele>767.1</ele>
      </trkpt>
      <trkpt lat="47.82463" lon="6.88384">
        <ele>747.4</ele>
      </trkpt>
      <trkpt lat="47.82437" lon="6.88361">
        <ele>742.9</ele>
      </trkpt>
      <trkpt lat="47.8242" lon="6.88331">
        <ele>734.2</ele>
      </trkpt>
      <trkpt lat="47.82407" lon="6.88284">
        <ele>728.6</ele>
      </trkpt>
      <trkpt lat="47.82388" lon="6.88247">
        <ele>730.3</ele>
      </trkpt>
      <trkpt lat="47.82364" lon="6.88206">
        <ele>726.3</ele>
      </trkpt>
      <trkpt lat="47.82352" lon="6.88156">
        <ele>725.3</ele>
      </trkpt>
      <trkpt lat="47.82327" lon="6.88119">
        <ele>705.7</ele>
      </trkpt>
      <trkpt lat="47.82311" lon="6.88107">
        <ele>705</ele>
      </trkpt>
      <trkpt lat="47.82304" lon="6.88096">
        <ele>704.4</ele>
      </trkpt>
      <trkpt lat="47.82288" lon="6.88075">
        <ele>703.4</ele>
      </trkpt>
      <trkpt lat="47.82269" lon="6.88063">
        <ele>699.9</ele>
      </trkpt>
      <trkpt lat="47.82251" lon="6.88062">
        <ele>697.3</ele>
      </trkpt>
      <trkpt lat="47.82234" lon="6.88064">
        <ele>686.5</ele>
      </trkpt>
      <trkpt lat="47.82223" lon="6.88073">
        <ele>686.1</ele>
      </trkpt>
      <trkpt lat="47.82216" lon="6.88088">
        <ele>691.2</ele>
      </trkpt>
      <trkpt lat="47.82197" lon="6.88078">
        <ele>684.8</ele>
      </trkpt>
      <trkpt lat="47.82157" lon="6.88039">
        <ele>682.6</ele>
      </trkpt>
      <trkpt lat="47.82139" lon="6.88019">
        <ele>681.6</ele>
      </trkpt>
      <trkpt lat="47.82135" lon="6.88015">
        <ele>681.6</ele>
      </trkpt>
      <trkpt lat="47.82083" lon="6.87943">
        <ele>667.7</ele>
      </trkpt>
      <trkpt lat="47.82036" lon="6.87907">
        <ele>660.3</ele>
      </trkpt>
      <trkpt lat="47.82006" lon="6.87881">
        <ele>658.7</ele>
      </trkpt>
      <trkpt lat="47.81979" lon="6.87851">
        <ele>647.7</ele>
      </trkpt>
      <trkpt lat="47.81954" lon="6.8783">
        <ele>642.1</ele>
      </trkpt>
      <trkpt lat="47.81938" lon="6.87819">
        <ele>640.5</ele>
      </trkpt>
      <trkpt lat="47.81931" lon="6.8779">
        <ele>640.4</ele>
      </trkpt>
      <trkpt lat="47.81936" lon="6.87776">
        <ele>640.2</ele>
      </trkpt>
      <trkpt lat="47.81939" lon="6.87766">
        <ele>640</ele>
      </trkpt>
      <trkpt lat="47.81942" lon="6.87758">
        <ele>640.1</ele>
      </trkpt>
      <trkpt lat="47.81947" lon="6.87736">
        <ele>640.7</ele>
      </trkpt>
      <trkpt lat="47.81948" lon="6.87723">
        <ele>641.1</ele>
      </trkpt>
      <trkpt lat="47.81938" lon="6.8769">
        <ele>639.6</ele>
      </trkpt>
      <trkpt lat="47.81934" lon="6.87664">
        <ele>638.2</ele>
      </trkpt>
      <trkpt lat="47.81922" lon="6.87628">
        <ele>639.1</ele>
      </trkpt>
      <trkpt lat="47.81918" lon="6.87603">
        <ele>635.8</ele>
        <extensions>
          <visugpx:TrkExtension xmlns:visugpx="https://www.visugpx.com/editgpx/">
            <visugpx:node>359</visugpx:node>
            </visugpx:TrkExtension>
        </extensions>
      </trkpt>
      <trkpt lat="47.81917" lon="6.87594">
        <ele>632.9</ele>
      </trkpt>
      <trkpt lat="47.81916" lon="6.87573">
        <ele>625.1</ele>
      </trkpt>
      <trkpt lat="47.81917" lon="6.87537">
        <ele>640.5</ele>
      </trkpt>
      <trkpt lat="47.81919" lon="6.87509">
        <ele>634.8</ele>
      </trkpt>
      <trkpt lat="47.8192" lon="6.87488">
        <ele>638</ele>
      </trkpt>
      <trkpt lat="47.81912" lon="6.87463">
        <ele>623.3</ele>
      </trkpt>
      <trkpt lat="47.819" lon="6.87437">
        <ele>623.6</ele>
      </trkpt>
      <trkpt lat="47.81895" lon="6.87428">
        <ele>623.4</ele>
      </trkpt>
      <trkpt lat="47.81894" lon="6.87441">
        <ele>622.3</ele>
      </trkpt>
      <trkpt lat="47.81896" lon="6.8746">
        <ele>621.9</ele>
      </trkpt>
      <trkpt lat="47.81894" lon="6.87481">
        <ele>622.2</ele>
      </trkpt>
      <trkpt lat="47.81882" lon="6.87463">
        <ele>620.2</ele>
      </trkpt>
      <trkpt lat="47.81864" lon="6.87465">
        <ele>617.9</ele>
      </trkpt>
      <trkpt lat="47.8184" lon="6.87492">
        <ele>613.7</ele>
      </trkpt>
      <trkpt lat="47.81837" lon="6.87496">
        <ele>612.5</ele>
      </trkpt>
      <trkpt lat="47.81815" lon="6.87507">
        <ele>607.9</ele>
      </trkpt>
      <trkpt lat="47.81789" lon="6.87554">
        <ele>605.3</ele>
      </trkpt>
      <trkpt lat="47.81777" lon="6.87568">
        <ele>603.7</ele>
      </trkpt>
      <trkpt lat="47.81765" lon="6.87591">
        <ele>602.4</ele>
      </trkpt>
      <trkpt lat="47.81748" lon="6.87616">
        <ele>592.8</ele>
      </trkpt>
      <trkpt lat="47.81739" lon="6.87617">
        <ele>592.4</ele>
      </trkpt>
      <trkpt lat="47.81732" lon="6.87649">
        <ele>592.4</ele>
      </trkpt>
      <trkpt lat="47.81712" lon="6.87666">
        <ele>589.6</ele>
      </trkpt>
      <trkpt lat="47.81701" lon="6.87663">
        <ele>587.6</ele>
      </trkpt>
      <trkpt lat="47.81698" lon="6.87662">
        <ele>587</ele>
      </trkpt>
      <trkpt lat="47.81688" lon="6.87674">
        <ele>583.3</ele>
      </trkpt>
      <trkpt lat="47.81666" lon="6.87671">
        <ele>576.1</ele>
      </trkpt>
      <trkpt lat="47.81645" lon="6.87712">
        <ele>572.6</ele>
      </trkpt>
      <trkpt lat="47.81611" lon="6.87701">
        <ele>570.8</ele>
      </trkpt>
      <trkpt lat="47.81593" lon="6.87725">
        <ele>568.9</ele>
      </trkpt>
      <trkpt lat="47.81568" lon="6.87755">
        <ele>560</ele>
      </trkpt>
      <trkpt lat="47.81551" lon="6.87783">
        <ele>556.3</ele>
      </trkpt>
      <trkpt lat="47.81537" lon="6.87829">
        <ele>553.1</ele>
      </trkpt>
      <trkpt lat="47.81525" lon="6.87854">
        <ele>546</ele>
      </trkpt>
      <trkpt lat="47.81561" lon="6.87864">
        <ele>548.9</ele>
      </trkpt>
      <trkpt lat="47.81574" lon="6.8789">
        <ele>548.3</ele>
      </trkpt>
      <trkpt lat="47.81578" lon="6.8791">
        <ele>549</ele>
      </trkpt>
      <trkpt lat="47.81578" lon="6.87929">
        <ele>546.2</ele>
      </trkpt>
      <trkpt lat="47.81576" lon="6.87958">
        <ele>543.6</ele>
      </trkpt>
      <trkpt lat="47.81583" lon="6.87985">
        <ele>545.9</ele>
        <extensions>
          <visugpx:TrkExtension xmlns:visugpx="https://www.visugpx.com/editgpx/">
            <visugpx:node>360</visugpx:node>
            </visugpx:TrkExtension>
        </extensions>
      </trkpt>
      <trkpt lat="47.81583" lon="6.87985">
        <ele>545.9</ele>
      </trkpt>
      <trkpt lat="47.8157" lon="6.88039">
        <ele>541.5</ele>
      </trkpt>
      <trkpt lat="47.81557" lon="6.88087">
        <ele>542.1</ele>
      </trkpt>
      <trkpt lat="47.81546" lon="6.88104">
        <ele>540.3</ele>
      </trkpt>
      <trkpt lat="47.8153" lon="6.88123">
        <ele>539</ele>
      </trkpt>
      <trkpt lat="47.8152" lon="6.88158">
        <ele>538.3</ele>
      </trkpt>
      <trkpt lat="47.81517" lon="6.88177">
        <ele>538.6</ele>
      </trkpt>
      <trkpt lat="47.81516" lon="6.88183">
        <ele>538.8</ele>
      </trkpt>
      <trkpt lat="47.81513" lon="6.8819">
        <ele>538.8</ele>
      </trkpt>
      <trkpt lat="47.8151" lon="6.882">
        <ele>538.9</ele>
      </trkpt>
      <trkpt lat="47.81507" lon="6.88216">
        <ele>538.5</ele>
      </trkpt>
      <trkpt lat="47.81508" lon="6.88227">
        <ele>537.8</ele>
      </trkpt>
      <trkpt lat="47.81517" lon="6.88254">
        <ele>534.7</ele>
      </trkpt>
      <trkpt lat="47.81518" lon="6.88269">
        <ele>534.7</ele>
      </trkpt>
      <trkpt lat="47.81522" lon="6.88285">
        <ele>534.4</ele>
      </trkpt>
      <trkpt lat="47.81539" lon="6.88309">
        <ele>534.8</ele>
      </trkpt>
      <trkpt lat="47.81552" lon="6.88321">
        <ele>536.5</ele>
      </trkpt>
      <trkpt lat="47.81568" lon="6.88352">
        <ele>537</ele>
      </trkpt>
      <trkpt lat="47.81567" lon="6.8836">
        <ele>536.4</ele>
      </trkpt>
      <trkpt lat="47.81525" lon="6.88402">
        <ele>529</ele>
      </trkpt>
      <trkpt lat="47.81509" lon="6.88426">
        <ele>525.7</ele>
      </trkpt>
      <trkpt lat="47.81493" lon="6.88464">
        <ele>519.7</ele>
      </trkpt>
      <trkpt lat="47.81495" lon="6.88484">
        <ele>521.7</ele>
      </trkpt>
      <trkpt lat="47.81494" lon="6.88497">
        <ele>523.4</ele>
      </trkpt>
      <trkpt lat="47.81484" lon="6.88527">
        <ele>522.9</ele>
      </trkpt>
      <trkpt lat="47.8148" lon="6.88548">
        <ele>523.1</ele>
      </trkpt>
      <trkpt lat="47.8148" lon="6.88613">
        <ele>522.6</ele>
      </trkpt>
      <trkpt lat="47.81482" lon="6.88633">
        <ele>521.9</ele>
      </trkpt>
      <trkpt lat="47.81482" lon="6.88639">
        <ele>521.8</ele>
      </trkpt>
      <trkpt lat="47.81483" lon="6.88651">
        <ele>522</ele>
      </trkpt>
      <trkpt lat="47.8148" lon="6.88713">
        <ele>519.3</ele>
      </trkpt>
      <trkpt lat="47.81485" lon="6.88741">
        <ele>521.1</ele>
      </trkpt>
      <trkpt lat="47.8149" lon="6.88764">
        <ele>521.3</ele>
      </trkpt>
      <trkpt lat="47.81504" lon="6.88807">
        <ele>539.5</ele>
      </trkpt>
      <trkpt lat="47.81503" lon="6.8882">
        <ele>535.7</ele>
      </trkpt>
      <trkpt lat="47.81497" lon="6.88846">
        <ele>523.8</ele>
      </trkpt>
      <trkpt lat="47.81477" lon="6.88881">
        <ele>520.8</ele>
      </trkpt>
      <trkpt lat="47.81464" lon="6.88917">
        <ele>521.7</ele>
      </trkpt>
      <trkpt lat="47.8146" lon="6.88948">
        <ele>521.3</ele>
      </trkpt>
      <trkpt lat="47.81442" lon="6.89012">
        <ele>524</ele>
      </trkpt>
      <trkpt lat="47.81399" lon="6.89108">
        <ele>517.8</ele>
      </trkpt>
      <trkpt lat="47.81369" lon="6.89239">
        <ele>520.4</ele>
      </trkpt>
      <trkpt lat="47.81329" lon="6.8935">
        <ele>510.5</ele>
      </trkpt>
      <trkpt lat="47.81312" lon="6.89416">
        <ele>511.5</ele>
        <extensions>
          <visugpx:TrkExtension xmlns:visugpx="https://www.visugpx.com/editgpx/">
            <visugpx:node>361</visugpx:node>
            </visugpx:TrkExtension>
        </extensions>
      </trkpt>
      <trkpt lat="47.81308" lon="6.89429">
        <ele>512.8</ele>
      </trkpt>
      <trkpt lat="47.81297" lon="6.89483">
        <ele>513.2</ele>
      </trkpt>
      <trkpt lat="47.81294" lon="6.89548">
        <ele>515.6</ele>
      </trkpt>
      <trkpt lat="47.81309" lon="6.89607">
        <ele>517.8</ele>
      </trkpt>
      <trkpt lat="47.81317" lon="6.89644">
        <ele>518</ele>
      </trkpt>
      <trkpt lat="47.81316" lon="6.89672">
        <ele>519</ele>
      </trkpt>
      <trkpt lat="47.81295" lon="6.89772">
        <ele>523.3</ele>
      </trkpt>
      <trkpt lat="47.81274" lon="6.89818">
        <ele>521.9</ele>
      </trkpt>
      <trkpt lat="47.8127" lon="6.89844">
        <ele>528.7</ele>
      </trkpt>
      <trkpt lat="47.81243" lon="6.89902">
        <ele>517.1</ele>
      </trkpt>
      <trkpt lat="47.81232" lon="6.89944">
        <ele>518.3</ele>
      </trkpt>
      <trkpt lat="47.81199" lon="6.90005">
        <ele>519.7</ele>
      </trkpt>
      <trkpt lat="47.81183" lon="6.90052">
        <ele>520.7</ele>
      </trkpt>
      <trkpt lat="47.81179" lon="6.90066">
        <ele>519.5</ele>
      </trkpt>
      <trkpt lat="47.81175" lon="6.90088">
        <ele>520.9</ele>
      </trkpt>
      <trkpt lat="47.81172" lon="6.90136">
        <ele>530.9</ele>
      </trkpt>
      <trkpt lat="47.81166" lon="6.90161">
        <ele>518.6</ele>
      </trkpt>
      <trkpt lat="47.81158" lon="6.90185">
        <ele>517.2</ele>
      </trkpt>
      <trkpt lat="47.81154" lon="6.90197">
        <ele>516.4</ele>
      </trkpt>
      <trkpt lat="47.81124" lon="6.90212">
        <ele>513.5</ele>
      </trkpt>
      <trkpt lat="47.81094" lon="6.90219">
        <ele>510.3</ele>
      </trkpt>
      <trkpt lat="47.81019" lon="6.90279">
        <ele>503.5</ele>
      </trkpt>
      <trkpt lat="47.81009" lon="6.90284">
        <ele>503.3</ele>
      </trkpt>
      <trkpt lat="47.80987" lon="6.90307">
        <ele>500.4</ele>
      </trkpt>
      <trkpt lat="47.80973" lon="6.90324">
        <ele>500.2</ele>
      </trkpt>
      <trkpt lat="47.80964" lon="6.90338">
        <ele>500.1</ele>
      </trkpt>
      <trkpt lat="47.80945" lon="6.90356">
        <ele>499.7</ele>
      </trkpt>
      <trkpt lat="47.80917" lon="6.90394">
        <ele>498.8</ele>
      </trkpt>
      <trkpt lat="47.80917" lon="6.90394">
        <ele>498.8</ele>
        <extensions>
          <visugpx:TrkExtension xmlns:visugpx="https://www.visugpx.com/editgpx/">
            <visugpx:node>362</visugpx:node>
            </visugpx:TrkExtension>
        </extensions>
      </trkpt>
      <trkpt lat="47.80917" lon="6.90394">
        <ele>498.8</ele>
      </trkpt>
      <trkpt lat="47.80887" lon="6.90427">
        <ele>500.6</ele>
      </trkpt>
      <trkpt lat="47.80868" lon="6.90443">
        <ele>501.6</ele>
      </trkpt>
      <trkpt lat="47.80853" lon="6.90449">
        <ele>502</ele>
      </trkpt>
      <trkpt lat="47.80831" lon="6.90469">
        <ele>503.3</ele>
      </trkpt>
      <trkpt lat="47.80823" lon="6.90482">
        <ele>503.2</ele>
      </trkpt>
      <trkpt lat="47.80822" lon="6.90492">
        <ele>503.1</ele>
      </trkpt>
      <trkpt lat="47.80814" lon="6.90493">
        <ele>503.2</ele>
      </trkpt>
      <trkpt lat="47.80808" lon="6.90495">
        <ele>503.2</ele>
      </trkpt>
      <trkpt lat="47.80783" lon="6.90516">
        <ele>502.2</ele>
      </trkpt>
      <trkpt lat="47.80767" lon="6.9053">
        <ele>502.1</ele>
      </trkpt>
      <trkpt lat="47.80765" lon="6.90531">
        <ele>502.1</ele>
      </trkpt>
      <trkpt lat="47.80758" lon="6.90516">
        <ele>502.1</ele>
      </trkpt>
      <trkpt lat="47.80737" lon="6.90468">
        <ele>503.7</ele>
      </trkpt>
      <trkpt lat="47.80733" lon="6.90463">
        <ele>503.9</ele>
      </trkpt>
      <trkpt lat="47.80715" lon="6.90464">
        <ele>503.9</ele>
      </trkpt>
      <trkpt lat="47.80707" lon="6.90469">
        <ele>503.8</ele>
      </trkpt>
      <trkpt lat="47.80704" lon="6.90459">
        <ele>504</ele>
      </trkpt>
      <trkpt lat="47.80677" lon="6.90422">
        <ele>504.7</ele>
      </trkpt>
      <trkpt lat="47.80673" lon="6.90413">
        <ele>505.3</ele>
      </trkpt>
      <trkpt lat="47.8067" lon="6.90404">
        <ele>505.5</ele>
      </trkpt>
      <trkpt lat="47.80666" lon="6.90387">
        <ele>506.9</ele>
      </trkpt>
      <trkpt lat="47.8066" lon="6.90368">
        <ele>507.4</ele>
      </trkpt>
      <trkpt lat="47.80628" lon="6.90311">
        <ele>509.7</ele>
      </trkpt>
      <trkpt lat="47.80621" lon="6.90302">
        <ele>510</ele>
      </trkpt>
      <trkpt lat="47.80574" lon="6.90273">
        <ele>513.2</ele>
      </trkpt>
      <trkpt lat="47.80551" lon="6.90235">
        <ele>516.8</ele>
      </trkpt>
      <trkpt lat="47.80544" lon="6.90239">
        <ele>516.9</ele>
      </trkpt>
      <trkpt lat="47.80524" lon="6.90243">
        <ele>516.7</ele>
      </trkpt>
      <trkpt lat="47.80521" lon="6.90244">
        <ele>516.6</ele>
      </trkpt>
      <trkpt lat="47.80516" lon="6.9025">
        <ele>516.3</ele>
      </trkpt>
      <trkpt lat="47.80514" lon="6.90253">
        <ele>514.7</ele>
      </trkpt>
      <trkpt lat="47.80506" lon="6.90243">
        <ele>516</ele>
      </trkpt>
      <trkpt lat="47.80495" lon="6.9023">
        <ele>523.1</ele>
      </trkpt>
      <trkpt lat="47.80472" lon="6.90196">
        <ele>528.6</ele>
      </trkpt>
      <trkpt lat="47.8046" lon="6.90174">
        <ele>530.8</ele>
      </trkpt>
      <trkpt lat="47.8045" lon="6.90149">
        <ele>536.3</ele>
      </trkpt>
      <trkpt lat="47.80438" lon="6.90096">
        <ele>540</ele>
      </trkpt>
      <trkpt lat="47.8043" lon="6.90067">
        <ele>542.6</ele>
      </trkpt>
      <trkpt lat="47.80421" lon="6.90042">
        <ele>541.7</ele>
      </trkpt>
      <trkpt lat="47.80407" lon="6.90024">
        <ele>555.8</ele>
      </trkpt>
      <trkpt lat="47.80396" lon="6.90004">
        <ele>555.8</ele>
      </trkpt>
      <trkpt lat="47.80355" lon="6.89923">
        <ele>570.6</ele>
        <extensions>
          <visugpx:TrkExtension xmlns:visugpx="https://www.visugpx.com/editgpx/">
            <visugpx:node>363</visugpx:node>
            </visugpx:TrkExtension>
        </extensions>
      </trkpt>
      <trkpt lat="47.8032" lon="6.89854">
        <ele>583.8</ele>
      </trkpt>
      <trkpt lat="47.80291" lon="6.8979">
        <ele>584.3</ele>
      </trkpt>
      <trkpt lat="47.80264" lon="6.89752">
        <ele>587.9</ele>
      </trkpt>
      <trkpt lat="47.80225" lon="6.89645">
        <ele>595.4</ele>
      </trkpt>
      <trkpt lat="47.80194" lon="6.89572">
        <ele>601.7</ele>
      </trkpt>
      <trkpt lat="47.80188" lon="6.89536">
        <ele>602</ele>
      </trkpt>
      <trkpt lat="47.80176" lon="6.89543">
        <ele>602.2</ele>
      </trkpt>
      <trkpt lat="47.80179" lon="6.89524">
        <ele>602.1</ele>
      </trkpt>
      <trkpt lat="47.80166" lon="6.89522">
        <ele>612.3</ele>
      </trkpt>
      <trkpt lat="47.80153" lon="6.89506">
        <ele>611</ele>
      </trkpt>
      <trkpt lat="47.80155" lon="6.89522">
        <ele>613.9</ele>
      </trkpt>
      <trkpt lat="47.8015" lon="6.89543">
        <ele>617</ele>
      </trkpt>
      <trkpt lat="47.80145" lon="6.89545">
        <ele>617.9</ele>
      </trkpt>
      <trkpt lat="47.80138" lon="6.89533">
        <ele>618.7</ele>
      </trkpt>
      <trkpt lat="47.80136" lon="6.89474">
        <ele>614.3</ele>
      </trkpt>
      <trkpt lat="47.80119" lon="6.89435">
        <ele>617</ele>
      </trkpt>
      <trkpt lat="47.80115" lon="6.89391">
        <ele>619.6</ele>
      </trkpt>
      <trkpt lat="47.80097" lon="6.89365">
        <ele>622.6</ele>
      </trkpt>
      <trkpt lat="47.80083" lon="6.89354">
        <ele>637.4</ele>
      </trkpt>
      <trkpt lat="47.80061" lon="6.89268">
        <ele>635.7</ele>
      </trkpt>
      <trkpt lat="47.80059" lon="6.89246">
        <ele>631.4</ele>
      </trkpt>
      <trkpt lat="47.8005" lon="6.89246">
        <ele>633.2</ele>
      </trkpt>
      <trkpt lat="47.80051" lon="6.89194">
        <ele>632.1</ele>
      </trkpt>
      <trkpt lat="47.80048" lon="6.89153">
        <ele>628.4</ele>
      </trkpt>
      <trkpt lat="47.80032" lon="6.8907">
        <ele>627.7</ele>
      </trkpt>
      <trkpt lat="47.7998" lon="6.88979">
        <ele>641.3</ele>
      </trkpt>
      <trkpt lat="47.79898" lon="6.88925">
        <ele>654.1</ele>
        <extensions>
          <visugpx:TrkExtension xmlns:visugpx="https://www.visugpx.com/editgpx/">
            <visugpx:node>364</visugpx:node>
            </visugpx:TrkExtension>
        </extensions>
      </trkpt>
      <trkpt lat="47.79894" lon="6.88922">
        <ele>654.8</ele>
      </trkpt>
      <trkpt lat="47.79828" lon="6.88905">
        <ele>663.2</ele>
      </trkpt>
      <trkpt lat="47.79796" lon="6.88903">
        <ele>668.6</ele>
      </trkpt>
      <trkpt lat="47.79777" lon="6.88897">
        <ele>672.5</ele>
      </trkpt>
      <trkpt lat="47.79762" lon="6.88872">
        <ele>670.9</ele>
      </trkpt>
      <trkpt lat="47.79745" lon="6.88852">
        <ele>678.2</ele>
      </trkpt>
      <trkpt lat="47.79728" lon="6.88839">
        <ele>678.4</ele>
      </trkpt>
      <trkpt lat="47.79719" lon="6.88837">
        <ele>679.4</ele>
      </trkpt>
      <trkpt lat="47.79709" lon="6.88841">
        <ele>680.4</ele>
      </trkpt>
      <trkpt lat="47.79699" lon="6.88863">
        <ele>682.2</ele>
      </trkpt>
      <trkpt lat="47.79692" lon="6.88886">
        <ele>684.4</ele>
      </trkpt>
      <trkpt lat="47.79687" lon="6.88907">
        <ele>686.6</ele>
      </trkpt>
      <trkpt lat="47.79651" lon="6.8891">
        <ele>688.2</ele>
      </trkpt>
      <trkpt lat="47.7961" lon="6.88921">
        <ele>695.8</ele>
      </trkpt>
      <trkpt lat="47.79568" lon="6.88945">
        <ele>693.8</ele>
      </trkpt>
      <trkpt lat="47.79543" lon="6.88953">
        <ele>694.7</ele>
      </trkpt>
      <trkpt lat="47.79519" lon="6.88963">
        <ele>694.7</ele>
      </trkpt>
      <trkpt lat="47.79509" lon="6.88972">
        <ele>694.9</ele>
      </trkpt>
      <trkpt lat="47.79491" lon="6.88996">
        <ele>697.2</ele>
      </trkpt>
      <trkpt lat="47.79476" lon="6.89031">
        <ele>708.4</ele>
      </trkpt>
      <trkpt lat="47.79464" lon="6.89061">
        <ele>711.9</ele>
      </trkpt>
      <trkpt lat="47.79456" lon="6.89067">
        <ele>712.7</ele>
      </trkpt>
      <trkpt lat="47.79449" lon="6.89063">
        <ele>712.9</ele>
      </trkpt>
      <trkpt lat="47.79444" lon="6.89056">
        <ele>712.9</ele>
      </trkpt>
      <trkpt lat="47.79442" lon="6.89041">
        <ele>712.2</ele>
      </trkpt>
      <trkpt lat="47.79442" lon="6.89005">
        <ele>711.6</ele>
      </trkpt>
      <trkpt lat="47.79437" lon="6.88982">
        <ele>706.2</ele>
      </trkpt>
      <trkpt lat="47.79414" lon="6.88941">
        <ele>717.4</ele>
      </trkpt>
      <trkpt lat="47.79379" lon="6.88916">
        <ele>718.8</ele>
      </trkpt>
      <trkpt lat="47.79389" lon="6.88996">
        <ele>724.2</ele>
      </trkpt>
      <trkpt lat="47.7939" lon="6.8902">
        <ele>731.6</ele>
      </trkpt>
      <trkpt lat="47.79383" lon="6.89051">
        <ele>734.9</ele>
      </trkpt>
      <trkpt lat="47.79378" lon="6.89088">
        <ele>738.4</ele>
      </trkpt>
      <trkpt lat="47.79374" lon="6.89091">
        <ele>739.9</ele>
      </trkpt>
      <trkpt lat="47.7936" lon="6.89072">
        <ele>743</ele>
      </trkpt>
      <trkpt lat="47.79349" lon="6.89101">
        <ele>747.5</ele>
      </trkpt>
      <trkpt lat="47.79341" lon="6.89105">
        <ele>748.5</ele>
      </trkpt>
      <trkpt lat="47.79326" lon="6.89084">
        <ele>764.8</ele>
      </trkpt>
      <trkpt lat="47.79293" lon="6.89036">
        <ele>770.2</ele>
      </trkpt>
      <trkpt lat="47.79284" lon="6.89036">
        <ele>771.9</ele>
      </trkpt>
      <trkpt lat="47.79284" lon="6.89048">
        <ele>773.1</ele>
      </trkpt>
      <trkpt lat="47.7929" lon="6.89089">
        <ele>777.1</ele>
      </trkpt>
      <trkpt lat="47.79286" lon="6.89115">
        <ele>777.1</ele>
      </trkpt>
      <trkpt lat="47.79282" lon="6.89119">
        <ele>777.8</ele>
      </trkpt>
      <trkpt lat="47.79277" lon="6.89119">
        <ele>778.9</ele>
      </trkpt>
      <trkpt lat="47.79258" lon="6.89096">
        <ele>787</ele>
      </trkpt>
      <trkpt lat="47.79239" lon="6.89055">
        <ele>795.5</ele>
      </trkpt>
      <trkpt lat="47.79234" lon="6.89047">
        <ele>795</ele>
      </trkpt>
      <trkpt lat="47.79226" lon="6.89056">
        <ele>796.6</ele>
      </trkpt>
      <trkpt lat="47.79225" lon="6.8907">
        <ele>797.7</ele>
      </trkpt>
      <trkpt lat="47.79226" lon="6.89104">
        <ele>803.3</ele>
        <extensions>
          <visugpx:TrkExtension xmlns:visugpx="https://www.visugpx.com/editgpx/">
            <visugpx:node>365</visugpx:node>
            </visugpx:TrkExtension>
        </extensions>
      </trkpt>
      <trkpt lat="47.79208" lon="6.89135">
        <ele>806</ele>
      </trkpt>
      <trkpt lat="47.79199" lon="6.89116">
        <ele>807.4</ele>
      </trkpt>
      <trkpt lat="47.79195" lon="6.89115">
        <ele>808</ele>
      </trkpt>
      <trkpt lat="47.79172" lon="6.89108">
        <ele>811</ele>
      </trkpt>
      <trkpt lat="47.79141" lon="6.89104">
        <ele>826.9</ele>
      </trkpt>
      <trkpt lat="47.79129" lon="6.89109">
        <ele>829</ele>
      </trkpt>
      <trkpt lat="47.79127" lon="6.89117">
        <ele>829.7</ele>
      </trkpt>
      <trkpt lat="47.79129" lon="6.89131">
        <ele>830.2</ele>
      </trkpt>
      <trkpt lat="47.79136" lon="6.89145">
        <ele>829.5</ele>
      </trkpt>
      <trkpt lat="47.79134" lon="6.89162">
        <ele>830</ele>
      </trkpt>
      <trkpt lat="47.79101" lon="6.89175">
        <ele>840</ele>
      </trkpt>
      <trkpt lat="47.79053" lon="6.89161">
        <ele>854.9</ele>
      </trkpt>
      <trkpt lat="47.79029" lon="6.89147">
        <ele>858.5</ele>
      </trkpt>
      <trkpt lat="47.79014" lon="6.8915">
        <ele>862.4</ele>
      </trkpt>
      <trkpt lat="47.79012" lon="6.89174">
        <ele>869.9</ele>
      </trkpt>
      <trkpt lat="47.79015" lon="6.89192">
        <ele>868.1</ele>
      </trkpt>
      <trkpt lat="47.78983" lon="6.89274">
        <ele>893.8</ele>
      </trkpt>
      <trkpt lat="47.78965" lon="6.89273">
        <ele>897.1</ele>
      </trkpt>
      <trkpt lat="47.78948" lon="6.89299">
        <ele>900</ele>
      </trkpt>
      <trkpt lat="47.78944" lon="6.89343">
        <ele>898.1</ele>
      </trkpt>
      <trkpt lat="47.78913" lon="6.89371">
        <ele>919.7</ele>
      </trkpt>
      <trkpt lat="47.78901" lon="6.89427">
        <ele>917.5</ele>
      </trkpt>
      <trkpt lat="47.78912" lon="6.89524">
        <ele>916.5</ele>
      </trkpt>
      <trkpt lat="47.78909" lon="6.89566">
        <ele>914</ele>
      </trkpt>
      <trkpt lat="47.78906" lon="6.8959">
        <ele>907.5</ele>
      </trkpt>
      <trkpt lat="47.78896" lon="6.89594">
        <ele>907.6</ele>
      </trkpt>
      <trkpt lat="47.78844" lon="6.89631">
        <ele>908.2</ele>
      </trkpt>
      <trkpt lat="47.78826" lon="6.89647">
        <ele>912.9</ele>
      </trkpt>
      <trkpt lat="47.78817" lon="6.89655">
        <ele>912.6</ele>
      </trkpt>
      <trkpt lat="47.78788" lon="6.89647">
        <ele>917.2</ele>
      </trkpt>
      <trkpt lat="47.78773" lon="6.89658">
        <ele>918.1</ele>
      </trkpt>
      <trkpt lat="47.78759" lon="6.89688">
        <ele>912.7</ele>
      </trkpt>
      <trkpt lat="47.78748" lon="6.89685">
        <ele>920.8</ele>
      </trkpt>
      <trkpt lat="47.78746" lon="6.89687">
        <ele>920.9</ele>
      </trkpt>
      <trkpt lat="47.78737" lon="6.89698">
        <ele>921.2</ele>
      </trkpt>
      <trkpt lat="47.78714" lon="6.897">
        <ele>921.9</ele>
      </trkpt>
      <trkpt lat="47.78662" lon="6.89676">
        <ele>924.1</ele>
      </trkpt>
      <trkpt lat="47.78643" lon="6.89663">
        <ele>919.8</ele>
      </trkpt>
      <trkpt lat="47.78608" lon="6.89667">
        <ele>926</ele>
      </trkpt>
      <trkpt lat="47.78593" lon="6.89686">
        <ele>926.6</ele>
      </trkpt>
      <trkpt lat="47.7856" lon="6.89695">
        <ele>929.5</ele>
      </trkpt>
      <trkpt lat="47.78533" lon="6.89684">
        <ele>928.8</ele>
      </trkpt>
      <trkpt lat="47.78505" lon="6.89677">
        <ele>926</ele>
      </trkpt>
      <trkpt lat="47.78482" lon="6.89688">
        <ele>923</ele>
      </trkpt>
      <trkpt lat="47.78468" lon="6.89715">
        <ele>924.4</ele>
      </trkpt>
      <trkpt lat="47.78458" lon="6.89726">
        <ele>924.4</ele>
      </trkpt>
      <trkpt lat="47.78458" lon="6.89746">
        <ele>925.7</ele>
      </trkpt>
      <trkpt lat="47.7845" lon="6.89769">
        <ele>936.4</ele>
      </trkpt>
      <trkpt lat="47.78422" lon="6.8978">
        <ele>934.5</ele>
      </trkpt>
      <trkpt lat="47.78387" lon="6.89783">
        <ele>923.2</ele>
      </trkpt>
      <trkpt lat="47.78366" lon="6.89798">
        <ele>921.6</ele>
      </trkpt>
      <trkpt lat="47.7836" lon="6.89819">
        <ele>920.2</ele>
      </trkpt>
      <trkpt lat="47.78366" lon="6.89863">
        <ele>927.2</ele>
      </trkpt>
      <trkpt lat="47.78364" lon="6.89908">
        <ele>928</ele>
      </trkpt>
      <trkpt lat="47.78355" lon="6.8995">
        <ele>936.7</ele>
      </trkpt>
      <trkpt lat="47.78328" lon="6.89962">
        <ele>916.5</ele>
      </trkpt>
      <trkpt lat="47.783" lon="6.89968">
        <ele>913.3</ele>
      </trkpt>
      <trkpt lat="47.78289" lon="6.89993">
        <ele>913.1</ele>
      </trkpt>
      <trkpt lat="47.78288" lon="6.90027">
        <ele>922.9</ele>
      </trkpt>
      <trkpt lat="47.78269" lon="6.9006">
        <ele>920.6</ele>
      </trkpt>
      <trkpt lat="47.78266" lon="6.90089">
        <ele>921.2</ele>
        <extensions>
          <visugpx:TrkExtension xmlns:visugpx="https://www.visugpx.com/editgpx/">
            <visugpx:node>366</visugpx:node>
            </visugpx:TrkExtension>
        </extensions>
      </trkpt>
      <trkpt lat="47.78264" lon="6.90107">
        <ele>923.6</ele>
      </trkpt>
      <trkpt lat="47.7826" lon="6.90114">
        <ele>923.8</ele>
      </trkpt>
      <trkpt lat="47.78255" lon="6.90143">
        <ele>922.8</ele>
      </trkpt>
      <trkpt lat="47.78256" lon="6.90163">
        <ele>918</ele>
      </trkpt>
      <trkpt lat="47.78254" lon="6.90196">
        <ele>922.3</ele>
      </trkpt>
      <trkpt lat="47.78263" lon="6.9022">
        <ele>922.6</ele>
      </trkpt>
      <trkpt lat="47.78269" lon="6.90245">
        <ele>920.4</ele>
      </trkpt>
      <trkpt lat="47.78267" lon="6.9026">
        <ele>917.7</ele>
      </trkpt>
      <trkpt lat="47.78264" lon="6.90267">
        <ele>917.8</ele>
      </trkpt>
      <trkpt lat="47.78261" lon="6.90276">
        <ele>918.1</ele>
      </trkpt>
      <trkpt lat="47.78259" lon="6.9029">
        <ele>917.9</ele>
      </trkpt>
      <trkpt lat="47.78263" lon="6.90312">
        <ele>915.5</ele>
      </trkpt>
      <trkpt lat="47.78268" lon="6.90468">
        <ele>918.3</ele>
      </trkpt>
      <trkpt lat="47.78266" lon="6.90496">
        <ele>914.7</ele>
      </trkpt>
      <trkpt lat="47.78259" lon="6.9056">
        <ele>925.9</ele>
      </trkpt>
      <trkpt lat="47.7825" lon="6.90586">
        <ele>920.5</ele>
      </trkpt>
      <trkpt lat="47.78222" lon="6.90631">
        <ele>917.9</ele>
      </trkpt>
      <trkpt lat="47.78198" lon="6.90691">
        <ele>925.6</ele>
      </trkpt>
      <trkpt lat="47.78191" lon="6.90718">
        <ele>927.1</ele>
      </trkpt>
      <trkpt lat="47.7818" lon="6.9074">
        <ele>926.7</ele>
      </trkpt>
      <trkpt lat="47.78157" lon="6.90768">
        <ele>927.9</ele>
      </trkpt>
      <trkpt lat="47.7813" lon="6.90805">
        <ele>930.3</ele>
      </trkpt>
      <trkpt lat="47.78118" lon="6.90826">
        <ele>930.7</ele>
      </trkpt>
      <trkpt lat="47.78106" lon="6.90845">
        <ele>934.1</ele>
      </trkpt>
      <trkpt lat="47.78098" lon="6.90867">
        <ele>934.9</ele>
      </trkpt>
      <trkpt lat="47.78092" lon="6.90894">
        <ele>935.8</ele>
      </trkpt>
      <trkpt lat="47.78071" lon="6.90948">
        <ele>941.4</ele>
      </trkpt>
      <trkpt lat="47.78069" lon="6.90958">
        <ele>942.1</ele>
      </trkpt>
      <trkpt lat="47.78067" lon="6.91007">
        <ele>944.2</ele>
      </trkpt>
      <trkpt lat="47.78071" lon="6.91027">
        <ele>944</ele>
      </trkpt>
      <trkpt lat="47.78072" lon="6.91043">
        <ele>943.7</ele>
      </trkpt>
      <trkpt lat="47.78067" lon="6.91076">
        <ele>942.7</ele>
      </trkpt>
      <trkpt lat="47.7806" lon="6.91103">
        <ele>940.6</ele>
      </trkpt>
      <trkpt lat="47.78061" lon="6.9112">
        <ele>940.1</ele>
      </trkpt>
      <trkpt lat="47.78056" lon="6.91143">
        <ele>939.4</ele>
      </trkpt>
      <trkpt lat="47.78048" lon="6.91171">
        <ele>934.6</ele>
      </trkpt>
      <trkpt lat="47.78026" lon="6.91206">
        <ele>933.2</ele>
      </trkpt>
      <trkpt lat="47.78021" lon="6.91223">
        <ele>932.2</ele>
      </trkpt>
      <trkpt lat="47.78012" lon="6.91268">
        <ele>924.6</ele>
      </trkpt>
      <trkpt lat="47.77998" lon="6.91311">
        <ele>925.4</ele>
      </trkpt>
      <trkpt lat="47.77992" lon="6.91348">
        <ele>916.4</ele>
      </trkpt>
      <trkpt lat="47.77983" lon="6.91369">
        <ele>917.2</ele>
      </trkpt>
      <trkpt lat="47.77983" lon="6.91378">
        <ele>916.2</ele>
      </trkpt>
      <trkpt lat="47.77986" lon="6.91386">
        <ele>914.6</ele>
      </trkpt>
      <trkpt lat="47.77994" lon="6.91391">
        <ele>912.4</ele>
      </trkpt>
      <trkpt lat="47.78006" lon="6.91388">
        <ele>906.1</ele>
      </trkpt>
      <trkpt lat="47.78012" lon="6.9139">
        <ele>906</ele>
      </trkpt>
      <trkpt lat="47.77995" lon="6.91414">
        <ele>903.4</ele>
      </trkpt>
      <trkpt lat="47.77992" lon="6.9142">
        <ele>901.4</ele>
      </trkpt>
      <trkpt lat="47.77986" lon="6.91427">
        <ele>903.1</ele>
      </trkpt>
      <trkpt lat="47.77957" lon="6.91485">
        <ele>904.8</ele>
      </trkpt>
      <trkpt lat="47.77953" lon="6.91492">
        <ele>905.1</ele>
      </trkpt>
      <trkpt lat="47.77932" lon="6.9163">
        <ele>890.4</ele>
      </trkpt>
      <trkpt lat="47.77915" lon="6.91699">
        <ele>898.1</ele>
      </trkpt>
      <trkpt lat="47.77888" lon="6.91759">
        <ele>893.8</ele>
      </trkpt>
      <trkpt lat="47.77894" lon="6.91786">
        <ele>892.6</ele>
      </trkpt>
      <trkpt lat="47.77881" lon="6.91894">
        <ele>883</ele>
      </trkpt>
      <trkpt lat="47.77852" lon="6.91974">
        <ele>877.5</ele>
      </trkpt>
      <trkpt lat="47.77846" lon="6.92036">
        <ele>869.4</ele>
      </trkpt>
      <trkpt lat="47.7784" lon="6.92058">
        <ele>870.1</ele>
      </trkpt>
      <trkpt lat="47.77821" lon="6.92114">
        <ele>883.5</ele>
      </trkpt>
      <trkpt lat="47.77809" lon="6.92204">
        <ele>870.5</ele>
      </trkpt>
      <trkpt lat="47.77805" lon="6.92218">
        <ele>869.9</ele>
      </trkpt>
      <trkpt lat="47.77787" lon="6.92315">
        <ele>858.2</ele>
      </trkpt>
      <trkpt lat="47.7777" lon="6.9234">
        <ele>857.2</ele>
      </trkpt>
      <trkpt lat="47.77784" lon="6.92378">
        <ele>846.8</ele>
      </trkpt>
      <trkpt lat="47.77785" lon="6.92386">
        <ele>846.1</ele>
        <extensions>
          <visugpx:TrkExtension xmlns:visugpx="https://www.visugpx.com/editgpx/">
            <visugpx:node>367</visugpx:node>
            </visugpx:TrkExtension>
        </extensions>
      </trkpt>
      <trkpt lat="47.77786" lon="6.92403">
        <ele>845.4</ele>
      </trkpt>
      <trkpt lat="47.77794" lon="6.92431">
        <ele>836.1</ele>
      </trkpt>
      <trkpt lat="47.77796" lon="6.92473">
        <ele>834</ele>
      </trkpt>
      <trkpt lat="47.77805" lon="6.92542">
        <ele>823.8</ele>
      </trkpt>
      <trkpt lat="47.77783" lon="6.92625">
        <ele>819.2</ele>
      </trkpt>
      <trkpt lat="47.77785" lon="6.9267">
        <ele>807.6</ele>
      </trkpt>
      <trkpt lat="47.77785" lon="6.92828">
        <ele>779.3</ele>
      </trkpt>
      <trkpt lat="47.77797" lon="6.92845">
        <ele>765.8</ele>
      </trkpt>
      <trkpt lat="47.77808" lon="6.92875">
        <ele>763.3</ele>
      </trkpt>
      <trkpt lat="47.77827" lon="6.92949">
        <ele>753.7</ele>
      </trkpt>
      <trkpt lat="47.77837" lon="6.93006">
        <ele>752.7</ele>
      </trkpt>
      <trkpt lat="47.7784" lon="6.93019">
        <ele>753.4</ele>
      </trkpt>
      <trkpt lat="47.77836" lon="6.93062">
        <ele>752.3</ele>
      </trkpt>
      <trkpt lat="47.77812" lon="6.93191">
        <ele>742.1</ele>
      </trkpt>
      <trkpt lat="47.77801" lon="6.9322">
        <ele>740.9</ele>
      </trkpt>
      <trkpt lat="47.77788" lon="6.9323">
        <ele>740.7</ele>
      </trkpt>
      <trkpt lat="47.77772" lon="6.93234">
        <ele>740.7</ele>
      </trkpt>
      <trkpt lat="47.77758" lon="6.93225">
        <ele>740.8</ele>
      </trkpt>
      <trkpt lat="47.77749" lon="6.93221">
        <ele>742.5</ele>
      </trkpt>
      <trkpt lat="47.77738" lon="6.9322">
        <ele>742.8</ele>
      </trkpt>
      <trkpt lat="47.77732" lon="6.93224">
        <ele>742.8</ele>
      </trkpt>
      <trkpt lat="47.77728" lon="6.93233">
        <ele>742.7</ele>
      </trkpt>
      <trkpt lat="47.77722" lon="6.93252">
        <ele>742</ele>
      </trkpt>
      <trkpt lat="47.77719" lon="6.93278">
        <ele>742.2</ele>
      </trkpt>
      <trkpt lat="47.77721" lon="6.93332">
        <ele>740.8</ele>
      </trkpt>
      <trkpt lat="47.77724" lon="6.93348">
        <ele>741.1</ele>
      </trkpt>
      <trkpt lat="47.77713" lon="6.93389">
        <ele>743.3</ele>
      </trkpt>
      <trkpt lat="47.77702" lon="6.93551">
        <ele>751.4</ele>
      </trkpt>
      <trkpt lat="47.7771" lon="6.93575">
        <ele>750.2</ele>
      </trkpt>
      <trkpt lat="47.77712" lon="6.93625">
        <ele>755.9</ele>
      </trkpt>
      <trkpt lat="47.77706" lon="6.93725">
        <ele>764.6</ele>
      </trkpt>
      <trkpt lat="47.77708" lon="6.93764">
        <ele>769.6</ele>
      </trkpt>
      <trkpt lat="47.77706" lon="6.93814">
        <ele>772.3</ele>
      </trkpt>
      <trkpt lat="47.77698" lon="6.93879">
        <ele>777.7</ele>
      </trkpt>
      <trkpt lat="47.7769" lon="6.93913">
        <ele>780.9</ele>
      </trkpt>
      <trkpt lat="47.77689" lon="6.93925">
        <ele>783.6</ele>
      </trkpt>
      <trkpt lat="47.7769" lon="6.93938">
        <ele>783</ele>
      </trkpt>
      <trkpt lat="47.77698" lon="6.93961">
        <ele>782.4</ele>
      </trkpt>
      <trkpt lat="47.777" lon="6.93987">
        <ele>783.6</ele>
      </trkpt>
      <trkpt lat="47.77705" lon="6.94021">
        <ele>787.6</ele>
      </trkpt>
      <trkpt lat="47.77707" lon="6.94047">
        <ele>788.2</ele>
        <extensions>
          <visugpx:TrkExtension xmlns:visugpx="https://www.visugpx.com/editgpx/">
            <visugpx:node>368</visugpx:node>
            </visugpx:TrkExtension>
        </extensions>
      </trkpt>
      <trkpt lat="47.77708" lon="6.94073">
        <ele>788.9</ele>
      </trkpt>
      <trkpt lat="47.7771" lon="6.94118">
        <ele>794.3</ele>
      </trkpt>
      <trkpt lat="47.77706" lon="6.94144">
        <ele>796.4</ele>
      </trkpt>
      <trkpt lat="47.77707" lon="6.94218">
        <ele>795.6</ele>
      </trkpt>
      <trkpt lat="47.77708" lon="6.94229">
        <ele>795.1</ele>
      </trkpt>
      <trkpt lat="47.77703" lon="6.94259">
        <ele>790.7</ele>
      </trkpt>
      <trkpt lat="47.77697" lon="6.94268">
        <ele>791.5</ele>
      </trkpt>
      <trkpt lat="47.77681" lon="6.94308">
        <ele>790.6</ele>
      </trkpt>
      <trkpt lat="47.77653" lon="6.94409">
        <ele>797.1</ele>
      </trkpt>
      <trkpt lat="47.77603" lon="6.94613">
        <ele>775.7</ele>
      </trkpt>
      <trkpt lat="47.77589" lon="6.94687">
        <ele>764.7</ele>
      </trkpt>
      <trkpt lat="47.77571" lon="6.94756">
        <ele>765.1</ele>
      </trkpt>
      <trkpt lat="47.77566" lon="6.94787">
        <ele>764.1</ele>
      </trkpt>
      <trkpt lat="47.77536" lon="6.94813">
        <ele>765.9</ele>
      </trkpt>
      <trkpt lat="47.77494" lon="6.94835">
        <ele>768</ele>
      </trkpt>
      <trkpt lat="47.77483" lon="6.9484">
        <ele>767</ele>
        <extensions>
          <visugpx:TrkExtension xmlns:visugpx="https://www.visugpx.com/editgpx/">
            <visugpx:node>369</visugpx:node>
            </visugpx:TrkExtension>
        </extensions>
      </trkpt>
      <trkpt lat="47.77432" lon="6.94865">
        <ele>769.1</ele>
      </trkpt>
      <trkpt lat="47.77396" lon="6.94878">
        <ele>778.4</ele>
      </trkpt>
      <trkpt lat="47.77373" lon="6.9488">
        <ele>780.2</ele>
      </trkpt>
      <trkpt lat="47.77346" lon="6.94897">
        <ele>778.4</ele>
      </trkpt>
      <trkpt lat="47.77301" lon="6.94918">
        <ele>771.4</ele>
      </trkpt>
      <trkpt lat="47.77272" lon="6.94944">
        <ele>771.7</ele>
      </trkpt>
      <trkpt lat="47.77262" lon="6.94956">
        <ele>769.5</ele>
      </trkpt>
      <trkpt lat="47.7725" lon="6.94978">
        <ele>763.8</ele>
      </trkpt>
      <trkpt lat="47.77248" lon="6.9498">
        <ele>763.2</ele>
      </trkpt>
      <trkpt lat="47.77243" lon="6.94984">
        <ele>762.2</ele>
      </trkpt>
      <trkpt lat="47.77237" lon="6.94986">
        <ele>762.3</ele>
      </trkpt>
      <trkpt lat="47.77204" lon="6.94986">
        <ele>762.7</ele>
      </trkpt>
      <trkpt lat="47.77202" lon="6.94987">
        <ele>762.4</ele>
      </trkpt>
      <trkpt lat="47.77203" lon="6.9499">
        <ele>762.2</ele>
      </trkpt>
      <trkpt lat="47.77213" lon="6.94999">
        <ele>762.1</ele>
      </trkpt>
      <trkpt lat="47.77214" lon="6.95001">
        <ele>748.3</ele>
      </trkpt>
      <trkpt lat="47.77212" lon="6.95003">
        <ele>748</ele>
      </trkpt>
      <trkpt lat="47.77205" lon="6.95002">
        <ele>747.7</ele>
      </trkpt>
      <trkpt lat="47.77196" lon="6.94997">
        <ele>760.7</ele>
      </trkpt>
      <trkpt lat="47.77194" lon="6.94997">
        <ele>760.3</ele>
      </trkpt>
      <trkpt lat="47.77184" lon="6.94988">
        <ele>759.5</ele>
      </trkpt>
      <trkpt lat="47.77175" lon="6.94981">
        <ele>759.7</ele>
      </trkpt>
      <trkpt lat="47.77165" lon="6.9499">
        <ele>753.1</ele>
      </trkpt>
      <trkpt lat="47.77162" lon="6.9499">
        <ele>753.3</ele>
      </trkpt>
      <trkpt lat="47.77144" lon="6.94976">
        <ele>756.8</ele>
      </trkpt>
      <trkpt lat="47.77112" lon="6.94944">
        <ele>759.9</ele>
      </trkpt>
      <trkpt lat="47.77079" lon="6.94923">
        <ele>763.7</ele>
      </trkpt>
      <trkpt lat="47.77052" lon="6.94927">
        <ele>764.5</ele>
      </trkpt>
      <trkpt lat="47.77028" lon="6.94942">
        <ele>766</ele>
      </trkpt>
      <trkpt lat="47.77022" lon="6.94952">
        <ele>765.7</ele>
      </trkpt>
      <trkpt lat="47.77019" lon="6.94961">
        <ele>765.3</ele>
      </trkpt>
      <trkpt lat="47.77026" lon="6.95007">
        <ele>758.8</ele>
      </trkpt>
      <trkpt lat="47.7703" lon="6.95053">
        <ele>756</ele>
      </trkpt>
      <trkpt lat="47.77037" lon="6.95086">
        <ele>752</ele>
      </trkpt>
      <trkpt lat="47.77039" lon="6.95105">
        <ele>751.2</ele>
      </trkpt>
      <trkpt lat="47.77038" lon="6.95155">
        <ele>750.5</ele>
      </trkpt>
      <trkpt lat="47.77042" lon="6.95202">
        <ele>743.4</ele>
      </trkpt>
      <trkpt lat="47.7704" lon="6.95207">
        <ele>743.2</ele>
      </trkpt>
      <trkpt lat="47.77038" lon="6.95213">
        <ele>742.9</ele>
      </trkpt>
      <trkpt lat="47.77031" lon="6.95219">
        <ele>743</ele>
      </trkpt>
      <trkpt lat="47.77" lon="6.95225">
        <ele>743.6</ele>
      </trkpt>
      <trkpt lat="47.76981" lon="6.95227">
        <ele>749.5</ele>
      </trkpt>
      <trkpt lat="47.76958" lon="6.95225">
        <ele>751.1</ele>
      </trkpt>
      <trkpt lat="47.76859" lon="6.95227">
        <ele>759.1</ele>
      </trkpt>
      <trkpt lat="47.76849" lon="6.9523">
        <ele>758.5</ele>
      </trkpt>
      <trkpt lat="47.76825" lon="6.95253">
        <ele>758.7</ele>
      </trkpt>
      <trkpt lat="47.76822" lon="6.95294">
        <ele>766.2</ele>
      </trkpt>
      <trkpt lat="47.76832" lon="6.95341">
        <ele>760.3</ele>
      </trkpt>
      <trkpt lat="47.76857" lon="6.95377">
        <ele>745.7</ele>
      </trkpt>
      <trkpt lat="47.76883" lon="6.95423">
        <ele>746.1</ele>
      </trkpt>
      <trkpt lat="47.76896" lon="6.95453">
        <ele>745.3</ele>
      </trkpt>
      <trkpt lat="47.76897" lon="6.95529">
        <ele>751.2</ele>
      </trkpt>
      <trkpt lat="47.76906" lon="6.95547">
        <ele>750.9</ele>
      </trkpt>
      <trkpt lat="47.76942" lon="6.95728">
        <ele>731.2</ele>
      </trkpt>
      <trkpt lat="47.76951" lon="6.95808">
        <ele>732.1</ele>
        <extensions>
          <visugpx:TrkExtension xmlns:visugpx="https://www.visugpx.com/editgpx/">
            <visugpx:node>370</visugpx:node>
            </visugpx:TrkExtension>
        </extensions>
      </trkpt>
      <trkpt lat="47.76956" lon="6.95862">
        <ele>732.5</ele>
      </trkpt>
      <trkpt lat="47.76969" lon="6.95938">
        <ele>729.6</ele>
      </trkpt>
      <trkpt lat="47.76969" lon="6.95948">
        <ele>730</ele>
      </trkpt>
      <trkpt lat="47.76966" lon="6.96004">
        <ele>728.5</ele>
      </trkpt>
      <trkpt lat="47.76961" lon="6.96068">
        <ele>728.8</ele>
      </trkpt>
      <trkpt lat="47.76942" lon="6.9612">
        <ele>726.3</ele>
      </trkpt>
      <trkpt lat="47.76919" lon="6.96133">
        <ele>726.6</ele>
      </trkpt>
      <trkpt lat="47.76881" lon="6.96139">
        <ele>726.2</ele>
      </trkpt>
      <trkpt lat="47.76847" lon="6.96126">
        <ele>725.5</ele>
      </trkpt>
      <trkpt lat="47.76821" lon="6.96094">
        <ele>722.3</ele>
      </trkpt>
      <trkpt lat="47.76798" lon="6.96053">
        <ele>733.9</ele>
      </trkpt>
      <trkpt lat="47.76763" lon="6.96043">
        <ele>732.7</ele>
      </trkpt>
      <trkpt lat="47.76723" lon="6.96038">
        <ele>725.7</ele>
      </trkpt>
      <trkpt lat="47.76616" lon="6.96004">
        <ele>725.2</ele>
      </trkpt>
      <trkpt lat="47.76606" lon="6.96031">
        <ele>722.4</ele>
      </trkpt>
      <trkpt lat="47.76586" lon="6.96088">
        <ele>707.7</ele>
      </trkpt>
      <trkpt lat="47.76566" lon="6.96128">
        <ele>713.3</ele>
      </trkpt>
      <trkpt lat="47.76577" lon="6.96357">
        <ele>693.8</ele>
      </trkpt>
      <trkpt lat="47.76588" lon="6.96443">
        <ele>670.4</ele>
        <extensions>
          <visugpx:TrkExtension xmlns:visugpx="https://www.visugpx.com/editgpx/">
            <visugpx:node>371</visugpx:node>
            </visugpx:TrkExtension>
        </extensions>
      </trkpt>
      <trkpt lat="47.7659" lon="6.96458">
        <ele>668.1</ele>
      </trkpt>
      <trkpt lat="47.76571" lon="6.96497">
        <ele>683.9</ele>
      </trkpt>
      <trkpt lat="47.76599" lon="6.96566">
        <ele>666.6</ele>
      </trkpt>
      <trkpt lat="47.7669" lon="6.96741">
        <ele>649.3</ele>
      </trkpt>
      <trkpt lat="47.76693" lon="6.96773">
        <ele>647.3</ele>
      </trkpt>
      <trkpt lat="47.76688" lon="6.96813">
        <ele>646.4</ele>
      </trkpt>
      <trkpt lat="47.76701" lon="6.96889">
        <ele>639.2</ele>
      </trkpt>
      <trkpt lat="47.76747" lon="6.97057">
        <ele>627.2</ele>
      </trkpt>
      <trkpt lat="47.76777" lon="6.97238">
        <ele>598.7</ele>
      </trkpt>
      <trkpt lat="47.7678" lon="6.9739">
        <ele>585.4</ele>
      </trkpt>
      <trkpt lat="47.7676" lon="6.97513">
        <ele>572</ele>
        <extensions>
          <visugpx:TrkExtension xmlns:visugpx="https://www.visugpx.com/editgpx/">
            <visugpx:node>372</visugpx:node>
            </visugpx:TrkExtension>
        </extensions>
      </trkpt>
      <trkpt lat="47.76759" lon="6.97523">
        <ele>569.1</ele>
      </trkpt>
      <trkpt lat="47.76729" lon="6.97591">
        <ele>571.9</ele>
      </trkpt>
      <trkpt lat="47.76775" lon="6.97702">
        <ele>548.9</ele>
      </trkpt>
      <trkpt lat="47.76829" lon="6.97819">
        <ele>539.3</ele>
      </trkpt>
      <trkpt lat="47.76904" lon="6.98006">
        <ele>498.4</ele>
      </trkpt>
      <trkpt lat="47.76904" lon="6.9802">
        <ele>500.3</ele>
      </trkpt>
      <trkpt lat="47.76905" lon="6.98031">
        <ele>501</ele>
      </trkpt>
      <trkpt lat="47.76906" lon="6.98041">
        <ele>500.7</ele>
      </trkpt>
      <trkpt lat="47.76915" lon="6.98083">
        <ele>486.5</ele>
      </trkpt>
      <trkpt lat="47.76921" lon="6.98106">
        <ele>478.5</ele>
      </trkpt>
      <trkpt lat="47.76947" lon="6.98173">
        <ele>472.3</ele>
      </trkpt>
      <trkpt lat="47.76953" lon="6.98188">
        <ele>471</ele>
      </trkpt>
      <trkpt lat="47.76958" lon="6.98197">
        <ele>470.2</ele>
      </trkpt>
      <trkpt lat="47.76991" lon="6.98242">
        <ele>465</ele>
      </trkpt>
      <trkpt lat="47.77001" lon="6.98258">
        <ele>460.3</ele>
      </trkpt>
      <trkpt lat="47.77006" lon="6.9827">
        <ele>458.6</ele>
      </trkpt>
      <trkpt lat="47.7701" lon="6.98278">
        <ele>457.9</ele>
      </trkpt>
      <trkpt lat="47.77047" lon="6.98372">
        <ele>455.1</ele>
      </trkpt>
      <trkpt lat="47.77067" lon="6.98412">
        <ele>454</ele>
      </trkpt>
      <trkpt lat="47.77074" lon="6.98434">
        <ele>452.7</ele>
      </trkpt>
      <trkpt lat="47.77079" lon="6.98463">
        <ele>452.2</ele>
      </trkpt>
      <trkpt lat="47.77084" lon="6.98488">
        <ele>451.5</ele>
      </trkpt>
      <trkpt lat="47.77089" lon="6.98509">
        <ele>450.7</ele>
      </trkpt>
      <trkpt lat="47.77103" lon="6.98546">
        <ele>450</ele>
      </trkpt>
      <trkpt lat="47.7711" lon="6.98561">
        <ele>449.8</ele>
      </trkpt>
      <trkpt lat="47.77122" lon="6.98577">
        <ele>449.9</ele>
      </trkpt>
      <trkpt lat="47.77129" lon="6.98585">
        <ele>448.8</ele>
      </trkpt>
      <trkpt lat="47.77131" lon="6.98589">
        <ele>448.9</ele>
      </trkpt>
      <trkpt lat="47.77156" lon="6.98679">
        <ele>447.4</ele>
      </trkpt>
      <trkpt lat="47.77164" lon="6.987">
        <ele>447.2</ele>
      </trkpt>
      <trkpt lat="47.77216" lon="6.98803">
        <ele>445.7</ele>
      </trkpt>
      <trkpt lat="47.77218" lon="6.9881">
        <ele>445.5</ele>
      </trkpt>
      <trkpt lat="47.77222" lon="6.98811">
        <ele>445.4</ele>
      </trkpt>
      <trkpt lat="47.77229" lon="6.98818">
        <ele>445</ele>
      </trkpt>
      <trkpt lat="47.77236" lon="6.98831">
        <ele>444.3</ele>
      </trkpt>
      <trkpt lat="47.77255" lon="6.98863">
        <ele>438.6</ele>
      </trkpt>
      <trkpt lat="47.77275" lon="6.98892">
        <ele>437.1</ele>
      </trkpt>
      <trkpt lat="47.77289" lon="6.98902">
        <ele>436</ele>
      </trkpt>
      <trkpt lat="47.77293" lon="6.98904">
        <ele>435.6</ele>
      </trkpt>
      <trkpt lat="47.77297" lon="6.98912">
        <ele>435.1</ele>
      </trkpt>
      <trkpt lat="47.77317" lon="6.98958">
        <ele>427.6</ele>
      </trkpt>
      <trkpt lat="47.77317" lon="6.98966">
        <ele>426.9</ele>
      </trkpt>
      <trkpt lat="47.77312" lon="6.98989">
        <ele>425</ele>
      </trkpt>
      <trkpt lat="47.77312" lon="6.99">
        <ele>419.8</ele>
      </trkpt>
      <trkpt lat="47.77318" lon="6.99035">
        <ele>419.1</ele>
      </trkpt>
      <trkpt lat="47.7732" lon="6.99063">
        <ele>417.5</ele>
      </trkpt>
      <trkpt lat="47.7732" lon="6.99072">
        <ele>416.8</ele>
        <extensions>
          <visugpx:TrkExtension xmlns:visugpx="https://www.visugpx.com/editgpx/">
            <visugpx:node>373</visugpx:node>
            </visugpx:TrkExtension>
        </extensions>
      </trkpt>
      <trkpt lat="47.77318" lon="6.99108">
        <ele>414.9</ele>
      </trkpt>
      <trkpt lat="47.77325" lon="6.99134">
        <ele>414.8</ele>
      </trkpt>
      <trkpt lat="47.77326" lon="6.9915">
        <ele>414.5</ele>
      </trkpt>
      <trkpt lat="47.77322" lon="6.99177">
        <ele>413.6</ele>
      </trkpt>
      <trkpt lat="47.77307" lon="6.99201">
        <ele>413.3</ele>
      </trkpt>
      <trkpt lat="47.77292" lon="6.99224">
        <ele>413.1</ele>
      </trkpt>
      <trkpt lat="47.77282" lon="6.99244">
        <ele>413</ele>
      </trkpt>
      <trkpt lat="47.77271" lon="6.9927">
        <ele>412.5</ele>
      </trkpt>
      <trkpt lat="47.77264" lon="6.99297">
        <ele>412.3</ele>
      </trkpt>
      <trkpt lat="47.7726" lon="6.99309">
        <ele>412.2</ele>
      </trkpt>
      <trkpt lat="47.77245" lon="6.99377">
        <ele>411.2</ele>
      </trkpt>
      <trkpt lat="47.77244" lon="6.99383">
        <ele>411.1</ele>
      </trkpt>
      <trkpt lat="47.77259" lon="6.99385">
        <ele>410.6</ele>
      </trkpt>
      <trkpt lat="47.77258" lon="6.9939">
        <ele>410.4</ele>
      </trkpt>
      <trkpt lat="47.77245" lon="6.99441">
        <ele>409.6</ele>
      </trkpt>
      <trkpt lat="47.77215" lon="6.99541">
        <ele>409.5</ele>
      </trkpt>
      <trkpt lat="47.77215" lon="6.99544">
        <ele>409.5</ele>
      </trkpt>
      <trkpt lat="47.77211" lon="6.99555">
        <ele>409.5</ele>
      </trkpt>
      <trkpt lat="47.7721" lon="6.9956">
        <ele>409.5</ele>
      </trkpt>
      <trkpt lat="47.77184" lon="6.99543">
        <ele>409.5</ele>
      </trkpt>
      <trkpt lat="47.77176" lon="6.99539">
        <ele>409.5</ele>
      </trkpt>
      <trkpt lat="47.7717" lon="6.99539">
        <ele>409.5</ele>
      </trkpt>
      <trkpt lat="47.7716" lon="6.99547">
        <ele>410.1</ele>
      </trkpt>
      <trkpt lat="47.77114" lon="6.99624">
        <ele>409.6</ele>
      </trkpt>
      <trkpt lat="47.77106" lon="6.99643">
        <ele>409.6</ele>
      </trkpt>
      <trkpt lat="47.77093" lon="6.99681">
        <ele>409.8</ele>
      </trkpt>
      <trkpt lat="47.77091" lon="6.99687">
        <ele>409.8</ele>
      </trkpt>
      <trkpt lat="47.7709" lon="6.99691">
        <ele>409.8</ele>
      </trkpt>
      <trkpt lat="47.77089" lon="6.99697">
        <ele>409.8</ele>
      </trkpt>
      <trkpt lat="47.77052" lon="6.99779">
        <ele>413.7</ele>
      </trkpt>
      <trkpt lat="47.77004" lon="6.9986">
        <ele>417.1</ele>
      </trkpt>
      <trkpt lat="47.76983" lon="6.99927">
        <ele>425.2</ele>
      </trkpt>
      <trkpt lat="47.76924" lon="7.00009">
        <ele>430</ele>
      </trkpt>
      <trkpt lat="47.76783" lon="7.00081">
        <ele>427.7</ele>
      </trkpt>
      <trkpt lat="47.76768" lon="7.00078">
        <ele>428.3</ele>
      </trkpt>
      <trkpt lat="47.76723" lon="7.00102">
        <ele>427.3</ele>
      </trkpt>
      <trkpt lat="47.76686" lon="7.00146">
        <ele>426.8</ele>
      </trkpt>
      <trkpt lat="47.76621" lon="7.0021">
        <ele>428.9</ele>
      </trkpt>
      <trkpt lat="47.76591" lon="7.0025">
        <ele>432</ele>
      </trkpt>
      <trkpt lat="47.76574" lon="7.00259">
        <ele>433</ele>
        <extensions>
          <visugpx:TrkExtension xmlns:visugpx="https://www.visugpx.com/editgpx/">
            <visugpx:node>374</visugpx:node>
            </visugpx:TrkExtension>
        </extensions>
      </trkpt>
      <trkpt lat="47.76572" lon="7.0026">
        <ele>432.9</ele>
      </trkpt>
      <trkpt lat="47.76557" lon="7.00262">
        <ele>432.2</ele>
      </trkpt>
      <trkpt lat="47.76528" lon="7.00263">
        <ele>430.9</ele>
      </trkpt>
      <trkpt lat="47.76507" lon="7.00256">
        <ele>429.2</ele>
      </trkpt>
      <trkpt lat="47.76505" lon="7.00255">
        <ele>429</ele>
      </trkpt>
      <trkpt lat="47.76494" lon="7.00236">
        <ele>425.8</ele>
      </trkpt>
      <trkpt lat="47.7649" lon="7.00214">
        <ele>424.6</ele>
      </trkpt>
      <trkpt lat="47.76491" lon="7.00201">
        <ele>424.4</ele>
      </trkpt>
      <trkpt lat="47.76447" lon="7.00268">
        <ele>423</ele>
      </trkpt>
      <trkpt lat="47.76408" lon="7.00318">
        <ele>416.2</ele>
      </trkpt>
      <trkpt lat="47.76382" lon="7.00366">
        <ele>414.4</ele>
      </trkpt>
      <trkpt lat="47.76344" lon="7.00445">
        <ele>413.6</ele>
      </trkpt>
      <trkpt lat="47.76323" lon="7.00489">
        <ele>409.2</ele>
      </trkpt>
      <trkpt lat="47.76322" lon="7.00497">
        <ele>409.6</ele>
      </trkpt>
      <trkpt lat="47.76297" lon="7.00549">
        <ele>408.6</ele>
      </trkpt>
      <trkpt lat="47.76219" lon="7.0062">
        <ele>403.6</ele>
      </trkpt>
      <trkpt lat="47.76203" lon="7.00634">
        <ele>403.4</ele>
      </trkpt>
      <trkpt lat="47.76192" lon="7.0064">
        <ele>403.4</ele>
      </trkpt>
      <trkpt lat="47.76091" lon="7.00684">
        <ele>403.7</ele>
      </trkpt>
      <trkpt lat="47.76064" lon="7.00701">
        <ele>406.3</ele>
      </trkpt>
      <trkpt lat="47.7603" lon="7.00727">
        <ele>407.6</ele>
      </trkpt>
      <trkpt lat="47.7602" lon="7.00737">
        <ele>408.2</ele>
      </trkpt>
      <trkpt lat="47.76013" lon="7.00746">
        <ele>408.8</ele>
      </trkpt>
      <trkpt lat="47.76008" lon="7.00758">
        <ele>408.9</ele>
      </trkpt>
      <trkpt lat="47.76001" lon="7.00857">
        <ele>401.3</ele>
      </trkpt>
      <trkpt lat="47.75999" lon="7.00864">
        <ele>401.3</ele>
      </trkpt>
      <trkpt lat="47.75998" lon="7.00869">
        <ele>400.7</ele>
      </trkpt>
      <trkpt lat="47.75995" lon="7.00875">
        <ele>400</ele>
      </trkpt>
      <trkpt lat="47.7593" lon="7.00934">
        <ele>395.3</ele>
      </trkpt>
      <trkpt lat="47.75894" lon="7.00964">
        <ele>394.5</ele>
      </trkpt>
      <trkpt lat="47.75852" lon="7.01014">
        <ele>391.2</ele>
        <extensions>
          <visugpx:TrkExtension xmlns:visugpx="https://www.visugpx.com/editgpx/">
            <visugpx:node>375</visugpx:node>
            </visugpx:TrkExtension>
        </extensions>
      </trkpt>
      <trkpt lat="47.75824" lon="7.01048">
        <ele>392.9</ele>
      </trkpt>
      <trkpt lat="47.75804" lon="7.01068">
        <ele>392.8</ele>
      </trkpt>
      <trkpt lat="47.75791" lon="7.01071">
        <ele>393.4</ele>
      </trkpt>
      <trkpt lat="47.7576" lon="7.01062">
        <ele>394.5</ele>
      </trkpt>
      <trkpt lat="47.75746" lon="7.0107">
        <ele>399.7</ele>
      </trkpt>
      <trkpt lat="47.75736" lon="7.01085">
        <ele>399.3</ele>
      </trkpt>
      <trkpt lat="47.75721" lon="7.01121">
        <ele>402.9</ele>
      </trkpt>
      <trkpt lat="47.75716" lon="7.01225">
        <ele>399.2</ele>
      </trkpt>
      <trkpt lat="47.75695" lon="7.01281">
        <ele>396.2</ele>
      </trkpt>
      <trkpt lat="47.75692" lon="7.01301">
        <ele>395.1</ele>
      </trkpt>
      <trkpt lat="47.7569" lon="7.01331">
        <ele>394.6</ele>
      </trkpt>
      <trkpt lat="47.75686" lon="7.01361">
        <ele>388.7</ele>
      </trkpt>
      <trkpt lat="47.75677" lon="7.01387">
        <ele>386.7</ele>
      </trkpt>
      <trkpt lat="47.75675" lon="7.0139">
        <ele>386.5</ele>
      </trkpt>
      <trkpt lat="47.75664" lon="7.01411">
        <ele>386.8</ele>
      </trkpt>
      <trkpt lat="47.75633" lon="7.0145">
        <ele>384.6</ele>
      </trkpt>
      <trkpt lat="47.7562" lon="7.01469">
        <ele>384.1</ele>
      </trkpt>
      <trkpt lat="47.75608" lon="7.01495">
        <ele>383</ele>
      </trkpt>
      <trkpt lat="47.75583" lon="7.0155">
        <ele>380.7</ele>
      </trkpt>
      <trkpt lat="47.75577" lon="7.01565">
        <ele>379.5</ele>
      </trkpt>
      <trkpt lat="47.75553" lon="7.01664">
        <ele>379.6</ele>
      </trkpt>
      <trkpt lat="47.75543" lon="7.01721">
        <ele>380.3</ele>
      </trkpt>
      <trkpt lat="47.75526" lon="7.01793">
        <ele>380.1</ele>
      </trkpt>
      <trkpt lat="47.75523" lon="7.01814">
        <ele>380.1</ele>
      </trkpt>
      <trkpt lat="47.75523" lon="7.01838">
        <ele>379.5</ele>
      </trkpt>
      <trkpt lat="47.75522" lon="7.01844">
        <ele>379.5</ele>
      </trkpt>
      <trkpt lat="47.75521" lon="7.01849">
        <ele>379.5</ele>
      </trkpt>
      <trkpt lat="47.75526" lon="7.01852">
        <ele>379.3</ele>
      </trkpt>
      <trkpt lat="47.75543" lon="7.01859">
        <ele>378.8</ele>
      </trkpt>
      <trkpt lat="47.75567" lon="7.01861">
        <ele>378.2</ele>
      </trkpt>
      <trkpt lat="47.75574" lon="7.0186">
        <ele>378.1</ele>
      </trkpt>
      <trkpt lat="47.75574" lon="7.01866">
        <ele>378.1</ele>
      </trkpt>
      <trkpt lat="47.7557" lon="7.01883">
        <ele>378.2</ele>
      </trkpt>
      <trkpt lat="47.75531" lon="7.01988">
        <ele>377.9</ele>
      </trkpt>
      <trkpt lat="47.75524" lon="7.02002">
        <ele>377.1</ele>
      </trkpt>
      <trkpt lat="47.75487" lon="7.02051">
        <ele>377.7</ele>
      </trkpt>
      <trkpt lat="47.75455" lon="7.02106">
        <ele>377.9</ele>
      </trkpt>
      <trkpt lat="47.75455" lon="7.02107">
        <ele>377.9</ele>
      </trkpt>
      <trkpt lat="47.7544" lon="7.02132">
        <ele>378.2</ele>
      </trkpt>
      <trkpt lat="47.75395" lon="7.02191">
        <ele>380.7</ele>
      </trkpt>
      <trkpt lat="47.7539" lon="7.02199">
        <ele>380.8</ele>
      </trkpt>
      <trkpt lat="47.75386" lon="7.02205">
        <ele>380.8</ele>
      </trkpt>
      <trkpt lat="47.75379" lon="7.0222">
        <ele>380.9</ele>
      </trkpt>
      <trkpt lat="47.75368" lon="7.02266">
        <ele>381.2</ele>
      </trkpt>
      <trkpt lat="47.75356" lon="7.02306">
        <ele>381.5</ele>
      </trkpt>
      <trkpt lat="47.75336" lon="7.02418">
        <ele>382.7</ele>
      </trkpt>
      <trkpt lat="47.75336" lon="7.0245">
        <ele>381.9</ele>
      </trkpt>
      <trkpt lat="47.75337" lon="7.0247">
        <ele>382.4</ele>
      </trkpt>
      <trkpt lat="47.75342" lon="7.02493">
        <ele>384</ele>
      </trkpt>
      <trkpt lat="47.75351" lon="7.02511">
        <ele>385.5</ele>
      </trkpt>
      <trkpt lat="47.75361" lon="7.02528">
        <ele>385.6</ele>
      </trkpt>
      <trkpt lat="47.75381" lon="7.0256">
        <ele>385.5</ele>
      </trkpt>
      <trkpt lat="47.75415" lon="7.02608">
        <ele>389</ele>
      </trkpt>
      <trkpt lat="47.7544" lon="7.02647">
        <ele>384.3</ele>
        <extensions>
          <visugpx:TrkExtension xmlns:visugpx="https://www.visugpx.com/editgpx/">
            <visugpx:node>376</visugpx:node>
            </visugpx:TrkExtension>
        </extensions>
      </trkpt>
      <trkpt lat="47.75475" lon="7.02701">
        <ele>387</ele>
      </trkpt>
      <trkpt lat="47.75528" lon="7.02808">
        <ele>384.6</ele>
      </trkpt>
      <trkpt lat="47.75561" lon="7.02874">
        <ele>386.1</ele>
      </trkpt>
      <trkpt lat="47.7559" lon="7.02915">
        <ele>381.9</ele>
      </trkpt>
      <trkpt lat="47.75608" lon="7.02946">
        <ele>380.7</ele>
      </trkpt>
      <trkpt lat="47.7562" lon="7.0297">
        <ele>380.2</ele>
      </trkpt>
      <trkpt lat="47.75625" lon="7.02986">
        <ele>379.9</ele>
      </trkpt>
      <trkpt lat="47.75627" lon="7.03025">
        <ele>381.1</ele>
      </trkpt>
      <trkpt lat="47.75636" lon="7.03079">
        <ele>379.7</ele>
      </trkpt>
      <trkpt lat="47.75637" lon="7.03134">
        <ele>380.9</ele>
      </trkpt>
      <trkpt lat="47.75631" lon="7.0322">
        <ele>381.4</ele>
      </trkpt>
      <trkpt lat="47.75624" lon="7.03253">
        <ele>380.5</ele>
      </trkpt>
      <trkpt lat="47.7561" lon="7.03296">
        <ele>380.6</ele>
      </trkpt>
      <trkpt lat="47.75599" lon="7.03326">
        <ele>381.3</ele>
      </trkpt>
      <trkpt lat="47.7558" lon="7.03365">
        <ele>383.1</ele>
      </trkpt>
      <trkpt lat="47.75534" lon="7.03432">
        <ele>382.1</ele>
      </trkpt>
      <trkpt lat="47.755" lon="7.03474">
        <ele>383.1</ele>
      </trkpt>
      <trkpt lat="47.75455" lon="7.03534">
        <ele>386.9</ele>
      </trkpt>
      <trkpt lat="47.7545" lon="7.03533">
        <ele>387</ele>
      </trkpt>
      <trkpt lat="47.75445" lon="7.03536">
        <ele>387.1</ele>
      </trkpt>
      <trkpt lat="47.75414" lon="7.03571">
        <ele>387.7</ele>
      </trkpt>
      <trkpt lat="47.75391" lon="7.03584">
        <ele>387.1</ele>
      </trkpt>
      <trkpt lat="47.75296" lon="7.03597">
        <ele>384.7</ele>
      </trkpt>
      <trkpt lat="47.75272" lon="7.03594">
        <ele>383.6</ele>
      </trkpt>
      <trkpt lat="47.75205" lon="7.03598">
        <ele>381.6</ele>
      </trkpt>
      <trkpt lat="47.75157" lon="7.0361">
        <ele>383.7</ele>
      </trkpt>
      <trkpt lat="47.75099" lon="7.03632">
        <ele>385.1</ele>
      </trkpt>
      <trkpt lat="47.75058" lon="7.03656">
        <ele>389.3</ele>
      </trkpt>
      <trkpt lat="47.75028" lon="7.03679">
        <ele>386.8</ele>
      </trkpt>
      <trkpt lat="47.74977" lon="7.03723">
        <ele>392</ele>
      </trkpt>
      <trkpt lat="47.74949" lon="7.03754">
        <ele>389.5</ele>
        <extensions>
          <visugpx:TrkExtension xmlns:visugpx="https://www.visugpx.com/editgpx/">
            <visugpx:node>377</visugpx:node>
            </visugpx:TrkExtension>
        </extensions>
      </trkpt>
      <trkpt lat="47.74944" lon="7.03759">
        <ele>390</ele>
      </trkpt>
      <trkpt lat="47.74917" lon="7.03793">
        <ele>390.1</ele>
      </trkpt>
      <trkpt lat="47.74886" lon="7.03837">
        <ele>397</ele>
      </trkpt>
      <trkpt lat="47.74839" lon="7.03896">
        <ele>400.7</ele>
      </trkpt>
      <trkpt lat="47.7481" lon="7.0393">
        <ele>403</ele>
      </trkpt>
      <trkpt lat="47.74756" lon="7.03976">
        <ele>403.1</ele>
      </trkpt>
      <trkpt lat="47.74703" lon="7.04012">
        <ele>404.9</ele>
      </trkpt>
      <trkpt lat="47.74682" lon="7.04017">
        <ele>405.7</ele>
      </trkpt>
      <trkpt lat="47.74639" lon="7.04064">
        <ele>404.4</ele>
      </trkpt>
      <trkpt lat="47.74615" lon="7.04093">
        <ele>402.6</ele>
      </trkpt>
      <trkpt lat="47.74589" lon="7.04129">
        <ele>402.3</ele>
      </trkpt>
      <trkpt lat="47.74569" lon="7.04177">
        <ele>401.5</ele>
      </trkpt>
      <trkpt lat="47.74546" lon="7.04242">
        <ele>400.8</ele>
      </trkpt>
      <trkpt lat="47.74519" lon="7.04301">
        <ele>399.8</ele>
      </trkpt>
      <trkpt lat="47.74491" lon="7.04331">
        <ele>400.6</ele>
      </trkpt>
      <trkpt lat="47.74467" lon="7.04376">
        <ele>394.3</ele>
      </trkpt>
      <trkpt lat="47.74447" lon="7.0445">
        <ele>387.8</ele>
      </trkpt>
      <trkpt lat="47.74428" lon="7.0454">
        <ele>384.6</ele>
      </trkpt>
      <trkpt lat="47.74421" lon="7.04565">
        <ele>385.4</ele>
      </trkpt>
      <trkpt lat="47.74408" lon="7.04528">
        <ele>383.7</ele>
      </trkpt>
      <trkpt lat="47.74404" lon="7.04513">
        <ele>383.5</ele>
      </trkpt>
      <trkpt lat="47.74398" lon="7.04519">
        <ele>383.3</ele>
      </trkpt>
      <trkpt lat="47.74366" lon="7.04571">
        <ele>384.2</ele>
      </trkpt>
      <trkpt lat="47.74358" lon="7.04618">
        <ele>387.4</ele>
      </trkpt>
      <trkpt lat="47.74364" lon="7.04642">
        <ele>387.8</ele>
      </trkpt>
      <trkpt lat="47.74367" lon="7.04673">
        <ele>388.9</ele>
      </trkpt>
      <trkpt lat="47.74362" lon="7.04727">
        <ele>389.4</ele>
      </trkpt>
      <trkpt lat="47.74352" lon="7.04765">
        <ele>390.7</ele>
      </trkpt>
      <trkpt lat="47.7431" lon="7.04856">
        <ele>395.8</ele>
      </trkpt>
      <trkpt lat="47.7426" lon="7.04983">
        <ele>397.2</ele>
      </trkpt>
      <trkpt lat="47.74219" lon="7.05145">
        <ele>390.1</ele>
      </trkpt>
      <trkpt lat="47.74208" lon="7.05173">
        <ele>386.6</ele>
      </trkpt>
      <trkpt lat="47.74194" lon="7.05192">
        <ele>386.2</ele>
      </trkpt>
      <trkpt lat="47.74161" lon="7.05231">
        <ele>384.6</ele>
      </trkpt>
      <trkpt lat="47.74152" lon="7.05249">
        <ele>384.1</ele>
      </trkpt>
      <trkpt lat="47.74136" lon="7.05309">
        <ele>380.6</ele>
      </trkpt>
      <trkpt lat="47.74125" lon="7.05366">
        <ele>377.9</ele>
        <extensions>
          <visugpx:TrkExtension xmlns:visugpx="https://www.visugpx.com/editgpx/">
            <visugpx:node>379</visugpx:node>
            </visugpx:TrkExtension>
        </extensions>
      </trkpt>
      <trkpt lat="47.7411" lon="7.05445">
        <ele>376.9</ele>
      </trkpt>
      <trkpt lat="47.7412" lon="7.05452">
        <ele>376.8</ele>
      </trkpt>
      <trkpt lat="47.74141" lon="7.05458">
        <ele>376.4</ele>
      </trkpt>
      <trkpt lat="47.7415" lon="7.05468">
        <ele>376.1</ele>
      </trkpt>
      <trkpt lat="47.74144" lon="7.05483">
        <ele>376.1</ele>
      </trkpt>
      <trkpt lat="47.74142" lon="7.05496">
        <ele>376</ele>
        <extensions>
          <visugpx:TrkExtension xmlns:visugpx="https://www.visugpx.com/editgpx/">
            <visugpx:node>380</visugpx:node>
            </visugpx:TrkExtension>
        </extensions>
      </trkpt>
      <trkpt lat="47.74132" lon="7.05586">
        <ele>374.8</ele>
      </trkpt>
      <trkpt lat="47.74126" lon="7.05605">
        <ele>375.2</ele>
      </trkpt>
      <trkpt lat="47.74115" lon="7.05616">
        <ele>375.6</ele>
      </trkpt>
      <trkpt lat="47.74107" lon="7.05617">
        <ele>376</ele>
      </trkpt>
      <trkpt lat="47.74099" lon="7.05614">
        <ele>376.5</ele>
      </trkpt>
      <trkpt lat="47.74098" lon="7.05614">
        <ele>376.6</ele>
        <extensions>
          <visugpx:TrkExtension xmlns:visugpx="https://www.visugpx.com/editgpx/">
            <visugpx:node>381</visugpx:node>
            </visugpx:TrkExtension>
        </extensions>
      </trkpt>
      <trkpt lat="47.74099" lon="7.05612">
        <ele>376.6</ele>
      </trkpt>
      <trkpt lat="47.74093" lon="7.05607">
        <ele>377.2</ele>
      </trkpt>
      <trkpt lat="47.74091" lon="7.05605">
        <ele>377.4</ele>
      </trkpt>
      <trkpt lat="47.74089" lon="7.05601">
        <ele>377.9</ele>
      </trkpt>
      <trkpt lat="47.74079" lon="7.0562">
        <ele>377.4</ele>
      </trkpt>
      <trkpt lat="47.74069" lon="7.05649">
        <ele>376.7</ele>
      </trkpt>
      <trkpt lat="47.74054" lon="7.05694">
        <ele>375.3</ele>
      </trkpt>
      <trkpt lat="47.74043" lon="7.05733">
        <ele>374.9</ele>
      </trkpt>
      <trkpt lat="47.74037" lon="7.05758">
        <ele>375.1</ele>
      </trkpt>
      <trkpt lat="47.74019" lon="7.05838">
        <ele>378.5</ele>
      </trkpt>
      <trkpt lat="47.74006" lon="7.05884">
        <ele>380.7</ele>
      </trkpt>
      <trkpt lat="47.74004" lon="7.05892">
        <ele>381.5</ele>
      </trkpt>
      <trkpt lat="47.73987" lon="7.05942">
        <ele>385.6</ele>
      </trkpt>
      <trkpt lat="47.73958" lon="7.06016">
        <ele>389</ele>
      </trkpt>
      <trkpt lat="47.73942" lon="7.06051">
        <ele>389</ele>
      </trkpt>
      <trkpt lat="47.73925" lon="7.06082">
        <ele>389</ele>
      </trkpt>
      <trkpt lat="47.73912" lon="7.06107">
        <ele>387.1</ele>
        <extensions>
          <visugpx:TrkExtension xmlns:visugpx="https://www.visugpx.com/editgpx/">
            <visugpx:node>382</visugpx:node>
            </visugpx:TrkExtension>
        </extensions>
      </trkpt>
      <trkpt lat="47.73909" lon="7.06111">
        <ele>387</ele>
      </trkpt>
      <trkpt lat="47.73884" lon="7.06153">
        <ele>386.7</ele>
      </trkpt>
      <trkpt lat="47.73847" lon="7.06219">
        <ele>386.3</ele>
      </trkpt>
      <trkpt lat="47.73825" lon="7.06256">
        <ele>385.3</ele>
      </trkpt>
      <trkpt lat="47.73815" lon="7.0627">
        <ele>384.7</ele>
      </trkpt>
      <trkpt lat="47.73797" lon="7.06308">
        <ele>384.5</ele>
      </trkpt>
      <trkpt lat="47.73791" lon="7.06321">
        <ele>384.8</ele>
      </trkpt>
      <trkpt lat="47.73771" lon="7.06369">
        <ele>387.4</ele>
      </trkpt>
      <trkpt lat="47.73758" lon="7.06411">
        <ele>389.6</ele>
      </trkpt>
      <trkpt lat="47.73739" lon="7.06477">
        <ele>387.6</ele>
      </trkpt>
      <trkpt lat="47.73724" lon="7.06525">
        <ele>385.5</ele>
      </trkpt>
      <trkpt lat="47.73719" lon="7.06542">
        <ele>384.9</ele>
      </trkpt>
      <trkpt lat="47.73715" lon="7.06566">
        <ele>384.4</ele>
      </trkpt>
      <trkpt lat="47.73714" lon="7.06576">
        <ele>384.3</ele>
      </trkpt>
      <trkpt lat="47.73706" lon="7.06602">
        <ele>382.1</ele>
      </trkpt>
      <trkpt lat="47.737" lon="7.06616">
        <ele>381.6</ele>
      </trkpt>
      <trkpt lat="47.7369" lon="7.06632">
        <ele>380.8</ele>
      </trkpt>
      <trkpt lat="47.73671" lon="7.06656">
        <ele>378.2</ele>
      </trkpt>
      <trkpt lat="47.73651" lon="7.06685">
        <ele>374.2</ele>
      </trkpt>
      <trkpt lat="47.73637" lon="7.0672">
        <ele>372.8</ele>
      </trkpt>
      <trkpt lat="47.73568" lon="7.0683">
        <ele>365.8</ele>
      </trkpt>
      <trkpt lat="47.7355" lon="7.06855">
        <ele>364.7</ele>
      </trkpt>
      <trkpt lat="47.73542" lon="7.06859">
        <ele>364.6</ele>
      </trkpt>
      <trkpt lat="47.73528" lon="7.06924">
        <ele>363.1</ele>
      </trkpt>
      <trkpt lat="47.73523" lon="7.06927">
        <ele>363.1</ele>
      </trkpt>
      <trkpt lat="47.73518" lon="7.06934">
        <ele>363</ele>
      </trkpt>
      <trkpt lat="47.73514" lon="7.06943">
        <ele>362.9</ele>
      </trkpt>
      <trkpt lat="47.7351" lon="7.06952">
        <ele>362.8</ele>
      </trkpt>
      <trkpt lat="47.73497" lon="7.06975">
        <ele>361.4</ele>
      </trkpt>
      <trkpt lat="47.73488" lon="7.06989">
        <ele>361.3</ele>
      </trkpt>
      <trkpt lat="47.73474" lon="7.07008">
        <ele>360.5</ele>
      </trkpt>
      <trkpt lat="47.73442" lon="7.07044">
        <ele>360.3</ele>
      </trkpt>
      <trkpt lat="47.73413" lon="7.07076">
        <ele>360.4</ele>
      </trkpt>
      <trkpt lat="47.73407" lon="7.07081">
        <ele>360.5</ele>
      </trkpt>
      <trkpt lat="47.73389" lon="7.07097">
        <ele>361.1</ele>
      </trkpt>
      <trkpt lat="47.73348" lon="7.0713">
        <ele>361.8</ele>
      </trkpt>
      <trkpt lat="47.7333" lon="7.07145">
        <ele>364.1</ele>
      </trkpt>
      <trkpt lat="47.73253" lon="7.07223">
        <ele>367.2</ele>
      </trkpt>
      <trkpt lat="47.73242" lon="7.07239">
        <ele>369.8</ele>
      </trkpt>
      <trkpt lat="47.73226" lon="7.07264">
        <ele>369.5</ele>
      </trkpt>
      <trkpt lat="47.73197" lon="7.07312">
        <ele>369.3</ele>
      </trkpt>
      <trkpt lat="47.73179" lon="7.07339">
        <ele>368</ele>
      </trkpt>
      <trkpt lat="47.73159" lon="7.0736">
        <ele>369.7</ele>
      </trkpt>
      <trkpt lat="47.73138" lon="7.0738">
        <ele>370</ele>
      </trkpt>
      <trkpt lat="47.73104" lon="7.07415">
        <ele>371.4</ele>
      </trkpt>
      <trkpt lat="47.73099" lon="7.07419">
        <ele>372.8</ele>
      </trkpt>
      <trkpt lat="47.73082" lon="7.07432">
        <ele>375.8</ele>
        <extensions>
          <visugpx:TrkExtension xmlns:visugpx="https://www.visugpx.com/editgpx/">
            <visugpx:node>383</visugpx:node>
            </visugpx:TrkExtension>
        </extensions>
      </trkpt>
      <trkpt lat="47.73069" lon="7.07443">
        <ele>377.3</ele>
      </trkpt>
      <trkpt lat="47.73056" lon="7.07455">
        <ele>378.4</ele>
      </trkpt>
      <trkpt lat="47.73043" lon="7.07467">
        <ele>379</ele>
      </trkpt>
      <trkpt lat="47.7303" lon="7.07481">
        <ele>379.5</ele>
      </trkpt>
      <trkpt lat="47.73021" lon="7.07489">
        <ele>379.8</ele>
      </trkpt>
      <trkpt lat="47.72998" lon="7.07515">
        <ele>381.7</ele>
      </trkpt>
      <trkpt lat="47.72979" lon="7.07534">
        <ele>382.3</ele>
      </trkpt>
      <trkpt lat="47.72948" lon="7.07569">
        <ele>382.5</ele>
      </trkpt>
      <trkpt lat="47.72936" lon="7.07582">
        <ele>382.3</ele>
      </trkpt>
      <trkpt lat="47.72926" lon="7.07595">
        <ele>383.4</ele>
      </trkpt>
      <trkpt lat="47.72911" lon="7.07616">
        <ele>381.7</ele>
      </trkpt>
      <trkpt lat="47.72894" lon="7.07639">
        <ele>381.9</ele>
      </trkpt>
      <trkpt lat="47.72876" lon="7.07665">
        <ele>381.4</ele>
      </trkpt>
      <trkpt lat="47.72859" lon="7.07692">
        <ele>382.2</ele>
      </trkpt>
      <trkpt lat="47.72831" lon="7.07746">
        <ele>381.6</ele>
      </trkpt>
      <trkpt lat="47.72829" lon="7.07754">
        <ele>381.8</ele>
      </trkpt>
      <trkpt lat="47.72829" lon="7.07772">
        <ele>381.5</ele>
      </trkpt>
      <trkpt lat="47.72828" lon="7.07778">
        <ele>381.5</ele>
      </trkpt>
      <trkpt lat="47.72826" lon="7.07785">
        <ele>381.5</ele>
      </trkpt>
      <trkpt lat="47.72819" lon="7.078">
        <ele>381.5</ele>
      </trkpt>
      <trkpt lat="47.72805" lon="7.07818">
        <ele>381.4</ele>
      </trkpt>
      <trkpt lat="47.72803" lon="7.07822">
        <ele>381.3</ele>
      </trkpt>
      <trkpt lat="47.728" lon="7.07827">
        <ele>381.2</ele>
      </trkpt>
      <trkpt lat="47.72797" lon="7.0784">
        <ele>380.4</ele>
      </trkpt>
      <trkpt lat="47.72795" lon="7.07846">
        <ele>380.1</ele>
      </trkpt>
      <trkpt lat="47.72791" lon="7.07852">
        <ele>379.9</ele>
      </trkpt>
      <trkpt lat="47.72787" lon="7.07856">
        <ele>379.7</ele>
      </trkpt>
      <trkpt lat="47.72784" lon="7.07858">
        <ele>379.5</ele>
      </trkpt>
      <trkpt lat="47.72779" lon="7.07864">
        <ele>379.3</ele>
      </trkpt>
      <trkpt lat="47.72772" lon="7.07873">
        <ele>379</ele>
      </trkpt>
      <trkpt lat="47.7275" lon="7.0791">
        <ele>376</ele>
      </trkpt>
      <trkpt lat="47.72723" lon="7.07957">
        <ele>375</ele>
      </trkpt>
      <trkpt lat="47.72689" lon="7.08015">
        <ele>373.3</ele>
      </trkpt>
      <trkpt lat="47.72683" lon="7.08025">
        <ele>373.1</ele>
      </trkpt>
      <trkpt lat="47.72641" lon="7.08107">
        <ele>372.8</ele>
      </trkpt>
      <trkpt lat="47.72613" lon="7.0816">
        <ele>373.1</ele>
      </trkpt>
      <trkpt lat="47.72592" lon="7.08196">
        <ele>371.6</ele>
      </trkpt>
      <trkpt lat="47.72568" lon="7.08227">
        <ele>371.8</ele>
      </trkpt>
      <trkpt lat="47.72561" lon="7.08241">
        <ele>371.6</ele>
      </trkpt>
      <trkpt lat="47.72553" lon="7.08265">
        <ele>370.5</ele>
      </trkpt>
      <trkpt lat="47.72541" lon="7.08294">
        <ele>370.5</ele>
      </trkpt>
      <trkpt lat="47.72527" lon="7.08325">
        <ele>370.8</ele>
      </trkpt>
      <trkpt lat="47.72518" lon="7.08346">
        <ele>369.8</ele>
      </trkpt>
      <trkpt lat="47.7251" lon="7.08362">
        <ele>369.5</ele>
      </trkpt>
      <trkpt lat="47.72498" lon="7.0838">
        <ele>371.2</ele>
      </trkpt>
      <trkpt lat="47.72482" lon="7.08408">
        <ele>370.8</ele>
      </trkpt>
      <trkpt lat="47.7247" lon="7.0843">
        <ele>369.1</ele>
      </trkpt>
      <trkpt lat="47.72451" lon="7.08462">
        <ele>368.4</ele>
      </trkpt>
      <trkpt lat="47.72429" lon="7.08514">
        <ele>365.9</ele>
        <extensions>
          <visugpx:TrkExtension xmlns:visugpx="https://www.visugpx.com/editgpx/">
            <visugpx:node>384</visugpx:node>
            </visugpx:TrkExtension>
        </extensions>
      </trkpt>
      <trkpt lat="47.72427" lon="7.08517">
        <ele>365.8</ele>
      </trkpt>
      <trkpt lat="47.72409" lon="7.08562">
        <ele>364.7</ele>
      </trkpt>
      <trkpt lat="47.72402" lon="7.08597">
        <ele>363.6</ele>
      </trkpt>
      <trkpt lat="47.72399" lon="7.08618">
        <ele>363.3</ele>
      </trkpt>
      <trkpt lat="47.72395" lon="7.08638">
        <ele>363</ele>
      </trkpt>
      <trkpt lat="47.72393" lon="7.08654">
        <ele>362.8</ele>
      </trkpt>
      <trkpt lat="47.72388" lon="7.08655">
        <ele>362.9</ele>
      </trkpt>
      <trkpt lat="47.72377" lon="7.08661">
        <ele>363</ele>
      </trkpt>
      <trkpt lat="47.72345" lon="7.08682">
        <ele>362.4</ele>
      </trkpt>
      <trkpt lat="47.72341" lon="7.08706">
        <ele>362</ele>
      </trkpt>
      <trkpt lat="47.72336" lon="7.08721">
        <ele>361.9</ele>
      </trkpt>
      <trkpt lat="47.7233" lon="7.08742">
        <ele>361.1</ele>
      </trkpt>
      <trkpt lat="47.72325" lon="7.08755">
        <ele>361</ele>
      </trkpt>
      <trkpt lat="47.72292" lon="7.0882">
        <ele>359.3</ele>
      </trkpt>
      <trkpt lat="47.72263" lon="7.08882">
        <ele>359</ele>
      </trkpt>
      <trkpt lat="47.72258" lon="7.08894">
        <ele>359.1</ele>
      </trkpt>
      <trkpt lat="47.72251" lon="7.08909">
        <ele>359</ele>
      </trkpt>
      <trkpt lat="47.72231" lon="7.08967">
        <ele>356.4</ele>
      </trkpt>
      <trkpt lat="47.72211" lon="7.09027">
        <ele>355.9</ele>
      </trkpt>
      <trkpt lat="47.72206" lon="7.09042">
        <ele>355.7</ele>
      </trkpt>
      <trkpt lat="47.72203" lon="7.09054">
        <ele>355.5</ele>
      </trkpt>
      <trkpt lat="47.72189" lon="7.09109">
        <ele>354.8</ele>
      </trkpt>
      <trkpt lat="47.72185" lon="7.09148">
        <ele>355</ele>
      </trkpt>
      <trkpt lat="47.72182" lon="7.09172">
        <ele>354.7</ele>
      </trkpt>
      <trkpt lat="47.72182" lon="7.09179">
        <ele>354.6</ele>
      </trkpt>
      <trkpt lat="47.72179" lon="7.09203">
        <ele>354.4</ele>
      </trkpt>
      <trkpt lat="47.72174" lon="7.09238">
        <ele>354.1</ele>
      </trkpt>
      <trkpt lat="47.7216" lon="7.0929">
        <ele>351.6</ele>
      </trkpt>
      <trkpt lat="47.72157" lon="7.09305">
        <ele>351.7</ele>
      </trkpt>
      <trkpt lat="47.72155" lon="7.09324">
        <ele>352.4</ele>
      </trkpt>
      <trkpt lat="47.7215" lon="7.09344">
        <ele>352.2</ele>
      </trkpt>
      <trkpt lat="47.72143" lon="7.09366">
        <ele>351.5</ele>
      </trkpt>
      <trkpt lat="47.72131" lon="7.09398">
        <ele>351.1</ele>
      </trkpt>
      <trkpt lat="47.72123" lon="7.09416">
        <ele>350.9</ele>
      </trkpt>
      <trkpt lat="47.72109" lon="7.09439">
        <ele>350.1</ele>
      </trkpt>
      <trkpt lat="47.72095" lon="7.0946">
        <ele>350</ele>
      </trkpt>
      <trkpt lat="47.72082" lon="7.09482">
        <ele>348.5</ele>
      </trkpt>
      <trkpt lat="47.72073" lon="7.09496">
        <ele>348.8</ele>
      </trkpt>
      <trkpt lat="47.7207" lon="7.09501">
        <ele>349.1</ele>
      </trkpt>
      <trkpt lat="47.7206" lon="7.09524">
        <ele>348.4</ele>
      </trkpt>
      <trkpt lat="47.72056" lon="7.09533">
        <ele>348.3</ele>
      </trkpt>
      <trkpt lat="47.72048" lon="7.09555">
        <ele>348.1</ele>
        <extensions>
          <visugpx:TrkExtension xmlns:visugpx="https://www.visugpx.com/editgpx/">
            <visugpx:node>385</visugpx:node>
            </visugpx:TrkExtension>
        </extensions>
      </trkpt>
      <trkpt lat="47.7204" lon="7.09578">
        <ele>348</ele>
      </trkpt>
      <trkpt lat="47.72034" lon="7.09596">
        <ele>347.9</ele>
      </trkpt>
      <trkpt lat="47.72024" lon="7.09623">
        <ele>348</ele>
      </trkpt>
      <trkpt lat="47.72017" lon="7.09633">
        <ele>348.1</ele>
      </trkpt>
      <trkpt lat="47.72012" lon="7.0964">
        <ele>348.2</ele>
      </trkpt>
      <trkpt lat="47.72007" lon="7.09642">
        <ele>348.3</ele>
      </trkpt>
      <trkpt lat="47.72003" lon="7.09629">
        <ele>348.1</ele>
      </trkpt>
      <trkpt lat="47.71993" lon="7.09602">
        <ele>344.8</ele>
      </trkpt>
      <trkpt lat="47.71986" lon="7.09579">
        <ele>344.2</ele>
      </trkpt>
      <trkpt lat="47.71966" lon="7.09506">
        <ele>341.3</ele>
      </trkpt>
      <trkpt lat="47.71959" lon="7.09484">
        <ele>338.5</ele>
      </trkpt>
      <trkpt lat="47.71955" lon="7.09473">
        <ele>337.9</ele>
      </trkpt>
      <trkpt lat="47.71951" lon="7.09466">
        <ele>337.5</ele>
      </trkpt>
      <trkpt lat="47.71925" lon="7.09423">
        <ele>333.2</ele>
      </trkpt>
      <trkpt lat="47.71912" lon="7.09394">
        <ele>327.3</ele>
      </trkpt>
      <trkpt lat="47.71907" lon="7.09381">
        <ele>326.3</ele>
      </trkpt>
      <trkpt lat="47.71903" lon="7.09368">
        <ele>325.9</ele>
      </trkpt>
      <trkpt lat="47.719" lon="7.0936">
        <ele>325.8</ele>
      </trkpt>
      <trkpt lat="47.71891" lon="7.09339">
        <ele>325.4</ele>
      </trkpt>
      <trkpt lat="47.71874" lon="7.09305">
        <ele>322.4</ele>
      </trkpt>
      <trkpt lat="47.71872" lon="7.09302">
        <ele>322.2</ele>
      </trkpt>
      <trkpt lat="47.7186" lon="7.09288">
        <ele>321.5</ele>
      </trkpt>
      <trkpt lat="47.71848" lon="7.09276">
        <ele>320.5</ele>
      </trkpt>
      <trkpt lat="47.71811" lon="7.09243">
        <ele>314.7</ele>
      </trkpt>
      <trkpt lat="47.71794" lon="7.09227">
        <ele>313.6</ele>
      </trkpt>
      <trkpt lat="47.71777" lon="7.09209">
        <ele>312.9</ele>
      </trkpt>
      <trkpt lat="47.71767" lon="7.09198">
        <ele>312.5</ele>
      </trkpt>
      <trkpt lat="47.7176" lon="7.09186">
        <ele>311.9</ele>
      </trkpt>
      <trkpt lat="47.7173" lon="7.0915">
        <ele>309.1</ele>
        <extensions>
          <visugpx:TrkExtension xmlns:visugpx="https://www.visugpx.com/editgpx/">
            <visugpx:node>387</visugpx:node>
            </visugpx:TrkExtension>
        </extensions>
      </trkpt>
      <trkpt lat="47.71728" lon="7.09146">
        <ele>309.1</ele>
      </trkpt>
      <trkpt lat="47.71725" lon="7.09143">
        <ele>309</ele>
      </trkpt>
      <trkpt lat="47.71719" lon="7.09138">
        <ele>308.9</ele>
      </trkpt>
      <trkpt lat="47.71713" lon="7.09137">
        <ele>308.8</ele>
      </trkpt>
      <trkpt lat="47.71708" lon="7.0914">
        <ele>308.7</ele>
      </trkpt>
      <trkpt lat="47.71712" lon="7.09151">
        <ele>308.8</ele>
      </trkpt>
      <trkpt lat="47.7171" lon="7.09156">
        <ele>308.7</ele>
      </trkpt>
      <trkpt lat="47.71709" lon="7.09165">
        <ele>308.7</ele>
      </trkpt>
      <trkpt lat="47.7171" lon="7.09176">
        <ele>308.5</ele>
      </trkpt>
      <trkpt lat="47.71714" lon="7.09195">
        <ele>308.6</ele>
      </trkpt>
      <trkpt lat="47.71732" lon="7.09257">
        <ele>309</ele>
      </trkpt>
      <trkpt lat="47.71732" lon="7.09263">
        <ele>309</ele>
      </trkpt>
      <trkpt lat="47.71732" lon="7.09273">
        <ele>308.8</ele>
      </trkpt>
      <trkpt lat="47.71729" lon="7.09286">
        <ele>308.7</ele>
      </trkpt>
      <trkpt lat="47.71725" lon="7.09296">
        <ele>308.6</ele>
      </trkpt>
      <trkpt lat="47.71701" lon="7.09352">
        <ele>308.1</ele>
      </trkpt>
      <trkpt lat="47.71689" lon="7.0938">
        <ele>307.9</ele>
        <extensions>
          <visugpx:TrkExtension xmlns:visugpx="https://www.visugpx.com/editgpx/">
            <visugpx:node>388</visugpx:node>
            </visugpx:TrkExtension>
        </extensions>
      </trkpt>
      <trkpt lat="47.71684" lon="7.0939">
        <ele>307.8</ele>
      </trkpt>
      <trkpt lat="47.71677" lon="7.09417">
        <ele>307.4</ele>
      </trkpt>
      <trkpt lat="47.71669" lon="7.09463">
        <ele>309.1</ele>
      </trkpt>
      <trkpt lat="47.71669" lon="7.09477">
        <ele>309.1</ele>
      </trkpt>
      <trkpt lat="47.7167" lon="7.09487">
        <ele>308.9</ele>
      </trkpt>
      <trkpt lat="47.71668" lon="7.09497">
        <ele>308.3</ele>
      </trkpt>
      <trkpt lat="47.71665" lon="7.09515">
        <ele>307.3</ele>
      </trkpt>
      <trkpt lat="47.71659" lon="7.0955">
        <ele>306.9</ele>
      </trkpt>
      <trkpt lat="47.71653" lon="7.09588">
        <ele>307.7</ele>
      </trkpt>
      <trkpt lat="47.71649" lon="7.09608">
        <ele>307.6</ele>
        <extensions>
          <visugpx:TrkExtension xmlns:visugpx="https://www.visugpx.com/editgpx/">
            <visugpx:node>389</visugpx:node>
            </visugpx:TrkExtension>
        </extensions>
      </trkpt>
      <trkpt lat="47.71644" lon="7.09639">
        <ele>307.8</ele>
      </trkpt>
      <trkpt lat="47.71633" lon="7.09692">
        <ele>307.8</ele>
      </trkpt>
      <trkpt lat="47.71628" lon="7.09715">
        <ele>307.5</ele>
      </trkpt>
      <trkpt lat="47.71623" lon="7.09759">
        <ele>306.4</ele>
        <extensions>
          <visugpx:TrkExtension xmlns:visugpx="https://www.visugpx.com/editgpx/">
            <visugpx:node>390</visugpx:node>
            </visugpx:TrkExtension>
        </extensions>
      </trkpt>
      <trkpt lat="47.71622" lon="7.09763">
        <ele>306.4</ele>
      </trkpt>
      <trkpt lat="47.71619" lon="7.09771">
        <ele>306.3</ele>
      </trkpt>
      <trkpt lat="47.71617" lon="7.09773">
        <ele>306.2</ele>
      </trkpt>
      <trkpt lat="47.71614" lon="7.09774">
        <ele>306.1</ele>
      </trkpt>
      <trkpt lat="47.71583" lon="7.09773">
        <ele>304.7</ele>
      </trkpt>
      <trkpt lat="47.71577" lon="7.09774">
        <ele>304.7</ele>
      </trkpt>
      <trkpt lat="47.71574" lon="7.09776">
        <ele>304.6</ele>
      </trkpt>
      <trkpt lat="47.71564" lon="7.09796">
        <ele>304.5</ele>
      </trkpt>
      <trkpt lat="47.7156" lon="7.09801">
        <ele>304.4</ele>
      </trkpt>
      <trkpt lat="47.71545" lon="7.09817">
        <ele>304.4</ele>
      </trkpt>
      <trkpt lat="47.71528" lon="7.09835">
        <ele>304</ele>
      </trkpt>
      <trkpt lat="47.71519" lon="7.09843">
        <ele>304</ele>
      </trkpt>
      <trkpt lat="47.71517" lon="7.09845">
        <ele>304</ele>
        <extensions>
          <visugpx:TrkExtension xmlns:visugpx="https://www.visugpx.com/editgpx/">
            <visugpx:node>391</visugpx:node>
            </visugpx:TrkExtension>
        </extensions>
      </trkpt>
      <trkpt lat="47.71509" lon="7.09855">
        <ele>303.9</ele>
      </trkpt>
      <trkpt lat="47.71505" lon="7.09865">
        <ele>303.9</ele>
      </trkpt>
      <trkpt lat="47.71503" lon="7.09872">
        <ele>303.8</ele>
      </trkpt>
      <trkpt lat="47.71504" lon="7.09874">
        <ele>303.8</ele>
      </trkpt>
      <trkpt lat="47.71507" lon="7.09888">
        <ele>303.7</ele>
      </trkpt>
      <trkpt lat="47.7152" lon="7.09905">
        <ele>303.7</ele>
      </trkpt>
      <trkpt lat="47.71546" lon="7.09943">
        <ele>303.6</ele>
      </trkpt>
      <trkpt lat="47.71553" lon="7.09959">
        <ele>303.6</ele>
      </trkpt>
      <trkpt lat="47.71578" lon="7.10007">
        <ele>303.6</ele>
      </trkpt>
      <trkpt lat="47.7161" lon="7.10058">
        <ele>306</ele>
      </trkpt>
      <trkpt lat="47.71612" lon="7.10063">
        <ele>306</ele>
      </trkpt>
      <trkpt lat="47.71608" lon="7.10095">
        <ele>305.7</ele>
      </trkpt>
      <trkpt lat="47.71608" lon="7.10106">
        <ele>305.8</ele>
        <extensions>
          <visugpx:TrkExtension xmlns:visugpx="https://www.visugpx.com/editgpx/">
            <visugpx:node>392</visugpx:node>
            </visugpx:TrkExtension>
        </extensions>
      </trkpt>
      <trkpt lat="47.71604" lon="7.10154">
        <ele>305.5</ele>
      </trkpt>
      <trkpt lat="47.716" lon="7.102">
        <ele>307.2</ele>
      </trkpt>
      <trkpt lat="47.71594" lon="7.10252">
        <ele>308.6</ele>
      </trkpt>
      <trkpt lat="47.71588" lon="7.10283">
        <ele>311.2</ele>
      </trkpt>
      <trkpt lat="47.71586" lon="7.10289">
        <ele>311.5</ele>
      </trkpt>
      <trkpt lat="47.71579" lon="7.10305">
        <ele>307.3</ele>
      </trkpt>
      <trkpt lat="47.71562" lon="7.1036">
        <ele>308.6</ele>
      </trkpt>
      <trkpt lat="47.71557" lon="7.10376">
        <ele>308.4</ele>
      </trkpt>
      <trkpt lat="47.71549" lon="7.10407">
        <ele>308.3</ele>
      </trkpt>
      <trkpt lat="47.7154" lon="7.10425">
        <ele>309.6</ele>
      </trkpt>
      <trkpt lat="47.71536" lon="7.10429">
        <ele>309.6</ele>
      </trkpt>
      <trkpt lat="47.7153" lon="7.10434">
        <ele>309.7</ele>
      </trkpt>
      <trkpt lat="47.71512" lon="7.10447">
        <ele>309.8</ele>
      </trkpt>
      <trkpt lat="47.7149" lon="7.10468">
        <ele>310</ele>
      </trkpt>
      <trkpt lat="47.71482" lon="7.10486">
        <ele>310.4</ele>
      </trkpt>
      <trkpt lat="47.71476" lon="7.10508">
        <ele>311.9</ele>
      </trkpt>
      <trkpt lat="47.71473" lon="7.10528">
        <ele>312</ele>
      </trkpt>
      <trkpt lat="47.71469" lon="7.10548">
        <ele>312.2</ele>
      </trkpt>
      <trkpt lat="47.71451" lon="7.10591">
        <ele>312</ele>
      </trkpt>
      <trkpt lat="47.71448" lon="7.10598">
        <ele>311.8</ele>
      </trkpt>
      <trkpt lat="47.71418" lon="7.10662">
        <ele>309.6</ele>
      </trkpt>
      <trkpt lat="47.71414" lon="7.10672">
        <ele>307.8</ele>
        <extensions>
          <visugpx:TrkExtension xmlns:visugpx="https://www.visugpx.com/editgpx/">
            <visugpx:node>393</visugpx:node>
            </visugpx:TrkExtension>
        </extensions>
      </trkpt>
      <trkpt lat="47.71375" lon="7.10776">
        <ele>302.3</ele>
      </trkpt>
      <trkpt lat="47.71329" lon="7.10897">
        <ele>298.3</ele>
      </trkpt>
      <trkpt lat="47.71303" lon="7.10962">
        <ele>299.1</ele>
      </trkpt>
      <trkpt lat="47.71282" lon="7.1102">
        <ele>301.2</ele>
      </trkpt>
      <trkpt lat="47.71263" lon="7.11052">
        <ele>300.8</ele>
      </trkpt>
      <trkpt lat="47.71254" lon="7.11066">
        <ele>300.1</ele>
      </trkpt>
      <trkpt lat="47.71225" lon="7.11111">
        <ele>299</ele>
      </trkpt>
      <trkpt lat="47.71219" lon="7.11123">
        <ele>299.3</ele>
      </trkpt>
      <trkpt lat="47.71202" lon="7.11154">
        <ele>299.3</ele>
      </trkpt>
      <trkpt lat="47.71196" lon="7.11171">
        <ele>301.1</ele>
      </trkpt>
      <trkpt lat="47.71181" lon="7.1121">
        <ele>301.2</ele>
      </trkpt>
      <trkpt lat="47.71156" lon="7.11313">
        <ele>300.8</ele>
      </trkpt>
      <trkpt lat="47.71155" lon="7.11325">
        <ele>300.9</ele>
      </trkpt>
      <trkpt lat="47.71155" lon="7.11336">
        <ele>301.1</ele>
      </trkpt>
      <trkpt lat="47.7117" lon="7.11462">
        <ele>306.1</ele>
      </trkpt>
      <trkpt lat="47.71176" lon="7.1148">
        <ele>306.1</ele>
      </trkpt>
      <trkpt lat="47.71179" lon="7.11484">
        <ele>306.2</ele>
        <extensions>
          <visugpx:TrkExtension xmlns:visugpx="https://www.visugpx.com/editgpx/">
            <visugpx:node>394</visugpx:node>
            </visugpx:TrkExtension>
        </extensions>
      </trkpt>
      <trkpt lat="47.71189" lon="7.11493">
        <ele>306.8</ele>
      </trkpt>
      <trkpt lat="47.71231" lon="7.11526">
        <ele>315</ele>
      </trkpt>
      <trkpt lat="47.71239" lon="7.11538">
        <ele>316</ele>
      </trkpt>
      <trkpt lat="47.71241" lon="7.11548">
        <ele>316.9</ele>
      </trkpt>
      <trkpt lat="47.7118" lon="7.11535">
        <ele>311.8</ele>
      </trkpt>
      <trkpt lat="47.71156" lon="7.1153">
        <ele>305.6</ele>
      </trkpt>
      <trkpt lat="47.7115" lon="7.11528">
        <ele>305.5</ele>
      </trkpt>
      <trkpt lat="47.71146" lon="7.11527">
        <ele>305.4</ele>
      </trkpt>
      <trkpt lat="47.71144" lon="7.11527">
        <ele>305.4</ele>
      </trkpt>
      <trkpt lat="47.71137" lon="7.11525">
        <ele>305.2</ele>
      </trkpt>
      <trkpt lat="47.71112" lon="7.1152">
        <ele>304.3</ele>
      </trkpt>
      <trkpt lat="47.71116" lon="7.11555">
        <ele>305.6</ele>
      </trkpt>
      <trkpt lat="47.71117" lon="7.11567">
        <ele>306</ele>
      </trkpt>
      <trkpt lat="47.71117" lon="7.11578">
        <ele>306.1</ele>
      </trkpt>
      <trkpt lat="47.71117" lon="7.11581">
        <ele>306.2</ele>
      </trkpt>
      <trkpt lat="47.71115" lon="7.11589">
        <ele>309.6</ele>
      </trkpt>
      <trkpt lat="47.71112" lon="7.11601">
        <ele>309.8</ele>
      </trkpt>
      <trkpt lat="47.71095" lon="7.11646">
        <ele>311.3</ele>
      </trkpt>
      <trkpt lat="47.71089" lon="7.11657">
        <ele>311.6</ele>
      </trkpt>
      <trkpt lat="47.71076" lon="7.11668">
        <ele>311.5</ele>
      </trkpt>
      <trkpt lat="47.71065" lon="7.1168">
        <ele>310.9</ele>
      </trkpt>
      <trkpt lat="47.71052" lon="7.11696">
        <ele>310.5</ele>
      </trkpt>
      <trkpt lat="47.71024" lon="7.1173">
        <ele>309.8</ele>
        <extensions>
          <visugpx:TrkExtension xmlns:visugpx="https://www.visugpx.com/editgpx/">
            <visugpx:node>395</visugpx:node>
            </visugpx:TrkExtension>
        </extensions>
      </trkpt>
      <trkpt lat="47.71009" lon="7.11748">
        <ele>308.7</ele>
      </trkpt>
      <trkpt lat="47.70999" lon="7.11759">
        <ele>307.4</ele>
      </trkpt>
      <trkpt lat="47.7098" lon="7.11787">
        <ele>306.8</ele>
      </trkpt>
      <trkpt lat="47.7096" lon="7.11816">
        <ele>306.8</ele>
      </trkpt>
      <trkpt lat="47.70941" lon="7.11846">
        <ele>309.6</ele>
      </trkpt>
      <trkpt lat="47.70922" lon="7.11881">
        <ele>311.2</ele>
      </trkpt>
      <trkpt lat="47.70904" lon="7.11916">
        <ele>309.5</ele>
      </trkpt>
      <trkpt lat="47.70889" lon="7.11939">
        <ele>311.6</ele>
      </trkpt>
      <trkpt lat="47.70882" lon="7.11949">
        <ele>311.5</ele>
      </trkpt>
      <trkpt lat="47.70869" lon="7.11964">
        <ele>311.4</ele>
      </trkpt>
      <trkpt lat="47.70861" lon="7.11971">
        <ele>311.4</ele>
      </trkpt>
      <trkpt lat="47.70853" lon="7.11976">
        <ele>311.4</ele>
      </trkpt>
      <trkpt lat="47.70836" lon="7.11985">
        <ele>311.5</ele>
      </trkpt>
      <trkpt lat="47.70811" lon="7.11995">
        <ele>308.4</ele>
      </trkpt>
      <trkpt lat="47.708" lon="7.11995">
        <ele>307.7</ele>
      </trkpt>
      <trkpt lat="47.70789" lon="7.11993">
        <ele>307.3</ele>
      </trkpt>
      <trkpt lat="47.70766" lon="7.11985">
        <ele>307.3</ele>
      </trkpt>
      <trkpt lat="47.70756" lon="7.11983">
        <ele>307.5</ele>
      </trkpt>
      <trkpt lat="47.70746" lon="7.11983">
        <ele>305.3</ele>
      </trkpt>
      <trkpt lat="47.70735" lon="7.11987">
        <ele>304.9</ele>
      </trkpt>
      <trkpt lat="47.70724" lon="7.11994">
        <ele>304</ele>
      </trkpt>
      <trkpt lat="47.70701" lon="7.12004">
        <ele>307.5</ele>
      </trkpt>
      <trkpt lat="47.70689" lon="7.12011">
        <ele>306.6</ele>
      </trkpt>
      <trkpt lat="47.70666" lon="7.12028">
        <ele>302.9</ele>
      </trkpt>
      <trkpt lat="47.70655" lon="7.12037">
        <ele>303.2</ele>
      </trkpt>
      <trkpt lat="47.70635" lon="7.12056">
        <ele>303.5</ele>
      </trkpt>
      <trkpt lat="47.70626" lon="7.12063">
        <ele>303.4</ele>
      </trkpt>
      <trkpt lat="47.70605" lon="7.12086">
        <ele>305.8</ele>
      </trkpt>
      <trkpt lat="47.70592" lon="7.12093">
        <ele>305</ele>
      </trkpt>
      <trkpt lat="47.70587" lon="7.12095">
        <ele>304.9</ele>
      </trkpt>
      <trkpt lat="47.70566" lon="7.12101">
        <ele>302.7</ele>
      </trkpt>
      <trkpt lat="47.70556" lon="7.12105">
        <ele>302.5</ele>
      </trkpt>
      <trkpt lat="47.70547" lon="7.1211">
        <ele>302.3</ele>
      </trkpt>
      <trkpt lat="47.70532" lon="7.12121">
        <ele>302.1</ele>
      </trkpt>
      <trkpt lat="47.70517" lon="7.12138">
        <ele>302.1</ele>
      </trkpt>
      <trkpt lat="47.70511" lon="7.12149">
        <ele>302.2</ele>
      </trkpt>
      <trkpt lat="47.70508" lon="7.12163">
        <ele>302.2</ele>
      </trkpt>
      <trkpt lat="47.70507" lon="7.12176">
        <ele>303</ele>
      </trkpt>
      <trkpt lat="47.70505" lon="7.12202">
        <ele>304</ele>
      </trkpt>
      <trkpt lat="47.70505" lon="7.12231">
        <ele>304.3</ele>
      </trkpt>
      <trkpt lat="47.70505" lon="7.12247">
        <ele>304.1</ele>
      </trkpt>
      <trkpt lat="47.70502" lon="7.12267">
        <ele>304.5</ele>
      </trkpt>
      <trkpt lat="47.70499" lon="7.1228">
        <ele>302.9</ele>
      </trkpt>
      <trkpt lat="47.70492" lon="7.12301">
        <ele>302.9</ele>
      </trkpt>
      <trkpt lat="47.70484" lon="7.12316">
        <ele>303.1</ele>
      </trkpt>
      <trkpt lat="47.70463" lon="7.12368">
        <ele>304.9</ele>
      </trkpt>
      <trkpt lat="47.70457" lon="7.12376">
        <ele>305</ele>
      </trkpt>
      <trkpt lat="47.70448" lon="7.12383">
        <ele>305.2</ele>
      </trkpt>
      <trkpt lat="47.70426" lon="7.12394">
        <ele>305.6</ele>
      </trkpt>
      <trkpt lat="47.70417" lon="7.12398">
        <ele>305.9</ele>
      </trkpt>
      <trkpt lat="47.70432" lon="7.1246">
        <ele>307.7</ele>
      </trkpt>
      <trkpt lat="47.70436" lon="7.12482">
        <ele>308</ele>
      </trkpt>
      <trkpt lat="47.70444" lon="7.12521">
        <ele>309.1</ele>
      </trkpt>
      <trkpt lat="47.70447" lon="7.1254">
        <ele>309.1</ele>
      </trkpt>
      <trkpt lat="47.70449" lon="7.12556">
        <ele>309.2</ele>
      </trkpt>
      <trkpt lat="47.70449" lon="7.12597">
        <ele>309.2</ele>
      </trkpt>
      <trkpt lat="47.70448" lon="7.12615">
        <ele>309.1</ele>
      </trkpt>
      <trkpt lat="47.70447" lon="7.12632">
        <ele>308.9</ele>
      </trkpt>
      <trkpt lat="47.70446" lon="7.12633">
        <ele>308.9</ele>
      </trkpt>
      <trkpt lat="47.70447" lon="7.12649">
        <ele>308.8</ele>
      </trkpt>
      <trkpt lat="47.70448" lon="7.12671">
        <ele>307.6</ele>
      </trkpt>
      <trkpt lat="47.70453" lon="7.12718">
        <ele>307.3</ele>
      </trkpt>
      <trkpt lat="47.70462" lon="7.12766">
        <ele>306.4</ele>
      </trkpt>
      <trkpt lat="47.70469" lon="7.1281">
        <ele>306.6</ele>
        <extensions>
          <visugpx:TrkExtension xmlns:visugpx="https://www.visugpx.com/editgpx/">
            <visugpx:node>396</visugpx:node>
            </visugpx:TrkExtension>
        </extensions>
      </trkpt>
      <trkpt lat="47.70533" lon="7.13227">
        <ele>320.2</ele>
      </trkpt>
      <trkpt lat="47.70552" lon="7.13347">
        <ele>324.1</ele>
      </trkpt>
      <trkpt lat="47.70549" lon="7.13375">
        <ele>325.2</ele>
      </trkpt>
      <trkpt lat="47.70538" lon="7.13431">
        <ele>330.6</ele>
      </trkpt>
      <trkpt lat="47.70525" lon="7.13483">
        <ele>332.5</ele>
      </trkpt>
      <trkpt lat="47.70501" lon="7.13445">
        <ele>331.2</ele>
      </trkpt>
      <trkpt lat="47.7049" lon="7.1344">
        <ele>331.5</ele>
      </trkpt>
      <trkpt lat="47.70397" lon="7.13454">
        <ele>334.8</ele>
      </trkpt>
      <trkpt lat="47.70297" lon="7.13464">
        <ele>340.3</ele>
        <extensions>
          <visugpx:TrkExtension xmlns:visugpx="https://www.visugpx.com/editgpx/">
            <visugpx:node>397</visugpx:node>
            </visugpx:TrkExtension>
        </extensions>
      </trkpt>
      <trkpt lat="47.70194" lon="7.13475">
        <ele>337.5</ele>
      </trkpt>
      <trkpt lat="47.70176" lon="7.1348">
        <ele>336.7</ele>
      </trkpt>
      <trkpt lat="47.70077" lon="7.13562">
        <ele>341.9</ele>
      </trkpt>
      <trkpt lat="47.70039" lon="7.13663">
        <ele>348.8</ele>
      </trkpt>
      <trkpt lat="47.7003" lon="7.13681">
        <ele>351.9</ele>
      </trkpt>
      <trkpt lat="47.70025" lon="7.13675">
        <ele>351.8</ele>
      </trkpt>
      <trkpt lat="47.7002" lon="7.13671">
        <ele>351.7</ele>
      </trkpt>
      <trkpt lat="47.70009" lon="7.13672">
        <ele>351.5</ele>
      </trkpt>
      <trkpt lat="47.69961" lon="7.13698">
        <ele>351.5</ele>
      </trkpt>
      <trkpt lat="47.69943" lon="7.13705">
        <ele>351.4</ele>
      </trkpt>
      <trkpt lat="47.69917" lon="7.13701">
        <ele>350.8</ele>
      </trkpt>
      <trkpt lat="47.69909" lon="7.13697">
        <ele>350.6</ele>
      </trkpt>
      <trkpt lat="47.69904" lon="7.13688">
        <ele>350</ele>
      </trkpt>
      <trkpt lat="47.6989" lon="7.13601">
        <ele>343.9</ele>
      </trkpt>
      <trkpt lat="47.69893" lon="7.13583">
        <ele>339</ele>
      </trkpt>
      <trkpt lat="47.69902" lon="7.13543">
        <ele>336.7</ele>
      </trkpt>
      <trkpt lat="47.69903" lon="7.13526">
        <ele>335.5</ele>
      </trkpt>
      <trkpt lat="47.69897" lon="7.13506">
        <ele>334.4</ele>
      </trkpt>
      <trkpt lat="47.69886" lon="7.1348">
        <ele>326.8</ele>
      </trkpt>
      <trkpt lat="47.69874" lon="7.13462">
        <ele>325.2</ele>
      </trkpt>
      <trkpt lat="47.69859" lon="7.13417">
        <ele>322.1</ele>
      </trkpt>
      <trkpt lat="47.69837" lon="7.13326">
        <ele>313.2</ele>
      </trkpt>
      <trkpt lat="47.69817" lon="7.13253">
        <ele>312.9</ele>
      </trkpt>
      <trkpt lat="47.69811" lon="7.13222">
        <ele>312.2</ele>
      </trkpt>
      <trkpt lat="47.69764" lon="7.13203">
        <ele>310.2</ele>
      </trkpt>
      <trkpt lat="47.69709" lon="7.13202">
        <ele>311.5</ele>
      </trkpt>
      <trkpt lat="47.69699" lon="7.13199">
        <ele>312</ele>
      </trkpt>
      <trkpt lat="47.69694" lon="7.13187">
        <ele>312</ele>
      </trkpt>
      <trkpt lat="47.69661" lon="7.13041">
        <ele>307</ele>
      </trkpt>
      <trkpt lat="47.69598" lon="7.12857">
        <ele>296.7</ele>
      </trkpt>
      <trkpt lat="47.69588" lon="7.12834">
        <ele>295.4</ele>
      </trkpt>
      <trkpt lat="47.69571" lon="7.1277">
        <ele>293.3</ele>
      </trkpt>
      <trkpt lat="47.69566" lon="7.12761">
        <ele>293.3</ele>
      </trkpt>
      <trkpt lat="47.69561" lon="7.12756">
        <ele>293.2</ele>
      </trkpt>
      <trkpt lat="47.69535" lon="7.12774">
        <ele>293.2</ele>
      </trkpt>
      <trkpt lat="47.69519" lon="7.12788">
        <ele>293.3</ele>
      </trkpt>
      <trkpt lat="47.69423" lon="7.1291">
        <ele>291.7</ele>
      </trkpt>
      <trkpt lat="47.69381" lon="7.12971">
        <ele>290.4</ele>
      </trkpt>
      <trkpt lat="47.69352" lon="7.13007">
        <ele>290.5</ele>
      </trkpt>
      <trkpt lat="47.69337" lon="7.1302">
        <ele>290.5</ele>
        <extensions>
          <visugpx:TrkExtension xmlns:visugpx="https://www.visugpx.com/editgpx/">
            <visugpx:node>398</visugpx:node>
            </visugpx:TrkExtension>
        </extensions>
      </trkpt>
      <trkpt lat="47.69316" lon="7.13039">
        <ele>290.1</ele>
      </trkpt>
      <trkpt lat="47.6929" lon="7.13057">
        <ele>290.4</ele>
      </trkpt>
      <trkpt lat="47.69228" lon="7.13086">
        <ele>292.5</ele>
      </trkpt>
      <trkpt lat="47.69211" lon="7.13094">
        <ele>292.4</ele>
      </trkpt>
      <trkpt lat="47.69159" lon="7.13128">
        <ele>290.8</ele>
      </trkpt>
      <trkpt lat="47.69064" lon="7.13195">
        <ele>291</ele>
      </trkpt>
      <trkpt lat="47.69059" lon="7.13195">
        <ele>291</ele>
      </trkpt>
      <trkpt lat="47.69053" lon="7.13194">
        <ele>290.9</ele>
      </trkpt>
      <trkpt lat="47.69049" lon="7.13203">
        <ele>291</ele>
      </trkpt>
      <trkpt lat="47.6895" lon="7.13306">
        <ele>290.1</ele>
      </trkpt>
      <trkpt lat="47.6892" lon="7.13358">
        <ele>290.7</ele>
      </trkpt>
      <trkpt lat="47.68917" lon="7.13373">
        <ele>291</ele>
      </trkpt>
      <trkpt lat="47.68919" lon="7.13382">
        <ele>291.2</ele>
      </trkpt>
      <trkpt lat="47.68961" lon="7.13552">
        <ele>294.1</ele>
      </trkpt>
      <trkpt lat="47.68952" lon="7.13558">
        <ele>294</ele>
      </trkpt>
      <trkpt lat="47.68906" lon="7.13608">
        <ele>292</ele>
      </trkpt>
      <trkpt lat="47.68895" lon="7.13626">
        <ele>291.7</ele>
      </trkpt>
      <trkpt lat="47.68884" lon="7.13679">
        <ele>294.1</ele>
      </trkpt>
      <trkpt lat="47.68865" lon="7.13755">
        <ele>301</ele>
      </trkpt>
      <trkpt lat="47.68865" lon="7.13768">
        <ele>301.2</ele>
      </trkpt>
      <trkpt lat="47.68872" lon="7.13868">
        <ele>307.8</ele>
      </trkpt>
      <trkpt lat="47.68873" lon="7.13912">
        <ele>309.3</ele>
      </trkpt>
      <trkpt lat="47.68861" lon="7.13974">
        <ele>317</ele>
      </trkpt>
      <trkpt lat="47.68854" lon="7.14001">
        <ele>322.7</ele>
        <extensions>
          <visugpx:TrkExtension xmlns:visugpx="https://www.visugpx.com/editgpx/">
            <visugpx:node>399</visugpx:node>
            </visugpx:TrkExtension>
        </extensions>
      </trkpt>
      <trkpt lat="47.68852" lon="7.14008">
        <ele>322.8</ele>
      </trkpt>
      <trkpt lat="47.68835" lon="7.14047">
        <ele>325</ele>
      </trkpt>
      <trkpt lat="47.68825" lon="7.14086">
        <ele>329.7</ele>
      </trkpt>
      <trkpt lat="47.68823" lon="7.14107">
        <ele>329.7</ele>
      </trkpt>
      <trkpt lat="47.68811" lon="7.1415">
        <ele>331.2</ele>
      </trkpt>
      <trkpt lat="47.68805" lon="7.14171">
        <ele>333.8</ele>
      </trkpt>
      <trkpt lat="47.68778" lon="7.14241">
        <ele>333</ele>
      </trkpt>
      <trkpt lat="47.68774" lon="7.14255">
        <ele>334.6</ele>
      </trkpt>
      <trkpt lat="47.68773" lon="7.14271">
        <ele>335.1</ele>
      </trkpt>
      <trkpt lat="47.68773" lon="7.14289">
        <ele>335.9</ele>
      </trkpt>
      <trkpt lat="47.68783" lon="7.14286">
        <ele>336.4</ele>
      </trkpt>
      <trkpt lat="47.6879" lon="7.14291">
        <ele>336.9</ele>
      </trkpt>
      <trkpt lat="47.68802" lon="7.14325">
        <ele>338.4</ele>
      </trkpt>
      <trkpt lat="47.68804" lon="7.14347">
        <ele>339.7</ele>
      </trkpt>
      <trkpt lat="47.68825" lon="7.14446">
        <ele>343.7</ele>
      </trkpt>
      <trkpt lat="47.68824" lon="7.14453">
        <ele>343.9</ele>
      </trkpt>
      <trkpt lat="47.68821" lon="7.14457">
        <ele>344.1</ele>
      </trkpt>
      <trkpt lat="47.68839" lon="7.14515">
        <ele>349.2</ele>
      </trkpt>
      <trkpt lat="47.68819" lon="7.14528">
        <ele>350.7</ele>
      </trkpt>
      <trkpt lat="47.68797" lon="7.14557">
        <ele>352.6</ele>
      </trkpt>
      <trkpt lat="47.68782" lon="7.14592">
        <ele>357</ele>
      </trkpt>
      <trkpt lat="47.68748" lon="7.14673">
        <ele>358.9</ele>
      </trkpt>
      <trkpt lat="47.6872" lon="7.14728">
        <ele>358.6</ele>
      </trkpt>
      <trkpt lat="47.68681" lon="7.14799">
        <ele>358.7</ele>
      </trkpt>
      <trkpt lat="47.68616" lon="7.14895">
        <ele>357.7</ele>
      </trkpt>
      <trkpt lat="47.68595" lon="7.14929">
        <ele>357.4</ele>
        <extensions>
          <visugpx:TrkExtension xmlns:visugpx="https://www.visugpx.com/editgpx/">
            <visugpx:node>401</visugpx:node>
            </visugpx:TrkExtension>
        </extensions>
      </trkpt>
      <trkpt lat="47.68591" lon="7.14924">
        <ele>357.6</ele>
      </trkpt>
      <trkpt lat="47.68554" lon="7.14987">
        <ele>356.4</ele>
      </trkpt>
      <trkpt lat="47.68513" lon="7.15057">
        <ele>354.9</ele>
      </trkpt>
      <trkpt lat="47.68676" lon="7.15449">
        <ele>332.7</ele>
      </trkpt>
      <trkpt lat="47.68699" lon="7.15508">
        <ele>328.1</ele>
      </trkpt>
      <trkpt lat="47.68721" lon="7.1554">
        <ele>326.3</ele>
      </trkpt>
      <trkpt lat="47.68728" lon="7.15541">
        <ele>326.1</ele>
      </trkpt>
      <trkpt lat="47.68735" lon="7.15537">
        <ele>326.2</ele>
      </trkpt>
      <trkpt lat="47.68746" lon="7.15529">
        <ele>326.5</ele>
      </trkpt>
      <trkpt lat="47.68766" lon="7.15534">
        <ele>318.7</ele>
      </trkpt>
      <trkpt lat="47.68778" lon="7.1555">
        <ele>316.9</ele>
      </trkpt>
      <trkpt lat="47.68786" lon="7.15559">
        <ele>316</ele>
      </trkpt>
      <trkpt lat="47.68784" lon="7.15581">
        <ele>316</ele>
      </trkpt>
      <trkpt lat="47.6878" lon="7.15637">
        <ele>311.2</ele>
      </trkpt>
      <trkpt lat="47.68779" lon="7.1565">
        <ele>310.9</ele>
      </trkpt>
      <trkpt lat="47.68772" lon="7.15723">
        <ele>306.7</ele>
      </trkpt>
      <trkpt lat="47.68767" lon="7.15769">
        <ele>305</ele>
      </trkpt>
      <trkpt lat="47.68759" lon="7.15843">
        <ele>304.1</ele>
        <extensions>
          <visugpx:TrkExtension xmlns:visugpx="https://www.visugpx.com/editgpx/">
            <visugpx:node>402</visugpx:node>
            </visugpx:TrkExtension>
        </extensions>
      </trkpt>
      <trkpt lat="47.68757" lon="7.15855">
        <ele>303.6</ele>
      </trkpt>
      <trkpt lat="47.68749" lon="7.1593">
        <ele>301.7</ele>
      </trkpt>
      <trkpt lat="47.68749" lon="7.15933">
        <ele>301.6</ele>
      </trkpt>
      <trkpt lat="47.68749" lon="7.15938">
        <ele>301.5</ele>
      </trkpt>
      <trkpt lat="47.68749" lon="7.15945">
        <ele>301.4</ele>
      </trkpt>
      <trkpt lat="47.68748" lon="7.15954">
        <ele>301.2</ele>
      </trkpt>
      <trkpt lat="47.68747" lon="7.15964">
        <ele>301.1</ele>
      </trkpt>
      <trkpt lat="47.68745" lon="7.15974">
        <ele>300.9</ele>
      </trkpt>
      <trkpt lat="47.68742" lon="7.15986">
        <ele>300.6</ele>
      </trkpt>
      <trkpt lat="47.68738" lon="7.15998">
        <ele>300.5</ele>
      </trkpt>
      <trkpt lat="47.68733" lon="7.16011">
        <ele>300</ele>
      </trkpt>
      <trkpt lat="47.68727" lon="7.16023">
        <ele>300</ele>
      </trkpt>
      <trkpt lat="47.6872" lon="7.16034">
        <ele>300</ele>
      </trkpt>
      <trkpt lat="47.68713" lon="7.16044">
        <ele>300</ele>
      </trkpt>
      <trkpt lat="47.68705" lon="7.16053">
        <ele>300</ele>
      </trkpt>
      <trkpt lat="47.68699" lon="7.16061">
        <ele>300</ele>
      </trkpt>
      <trkpt lat="47.68693" lon="7.16076">
        <ele>299.9</ele>
      </trkpt>
      <trkpt lat="47.68693" lon="7.16083">
        <ele>299.9</ele>
      </trkpt>
      <trkpt lat="47.68694" lon="7.16091">
        <ele>299.3</ele>
      </trkpt>
      <trkpt lat="47.68696" lon="7.16098">
        <ele>299.2</ele>
      </trkpt>
      <trkpt lat="47.68699" lon="7.16105">
        <ele>299.2</ele>
      </trkpt>
      <trkpt lat="47.68702" lon="7.1611">
        <ele>299.1</ele>
      </trkpt>
      <trkpt lat="47.68704" lon="7.16111">
        <ele>299.1</ele>
      </trkpt>
      <trkpt lat="47.68705" lon="7.16113">
        <ele>299.1</ele>
      </trkpt>
      <trkpt lat="47.68707" lon="7.16115">
        <ele>299.1</ele>
      </trkpt>
      <trkpt lat="47.68708" lon="7.16117">
        <ele>299</ele>
      </trkpt>
      <trkpt lat="47.68709" lon="7.1612">
        <ele>299</ele>
      </trkpt>
      <trkpt lat="47.68709" lon="7.16123">
        <ele>299</ele>
      </trkpt>
      <trkpt lat="47.6871" lon="7.16126">
        <ele>299</ele>
      </trkpt>
      <trkpt lat="47.68709" lon="7.16129">
        <ele>299</ele>
      </trkpt>
      <trkpt lat="47.68709" lon="7.16132">
        <ele>299</ele>
      </trkpt>
      <trkpt lat="47.68708" lon="7.16141">
        <ele>298.9</ele>
      </trkpt>
      <trkpt lat="47.68708" lon="7.16147">
        <ele>298.9</ele>
      </trkpt>
      <trkpt lat="47.68708" lon="7.16156">
        <ele>298.8</ele>
      </trkpt>
      <trkpt lat="47.68708" lon="7.16162">
        <ele>298.8</ele>
      </trkpt>
      <trkpt lat="47.68707" lon="7.16169">
        <ele>298.2</ele>
      </trkpt>
      <trkpt lat="47.68704" lon="7.16175">
        <ele>298.1</ele>
      </trkpt>
      <trkpt lat="47.687" lon="7.16185">
        <ele>298.1</ele>
      </trkpt>
      <trkpt lat="47.68695" lon="7.16194">
        <ele>298.1</ele>
      </trkpt>
      <trkpt lat="47.68692" lon="7.16202">
        <ele>298</ele>
      </trkpt>
      <trkpt lat="47.68689" lon="7.16209">
        <ele>298</ele>
      </trkpt>
      <trkpt lat="47.68686" lon="7.16218">
        <ele>298</ele>
      </trkpt>
      <trkpt lat="47.68683" lon="7.16231">
        <ele>298</ele>
      </trkpt>
      <trkpt lat="47.68681" lon="7.16241">
        <ele>298</ele>
      </trkpt>
      <trkpt lat="47.68676" lon="7.16262">
        <ele>297.8</ele>
      </trkpt>
      <trkpt lat="47.68669" lon="7.16292">
        <ele>297.9</ele>
      </trkpt>
      <trkpt lat="47.68648" lon="7.16378">
        <ele>298.5</ele>
      </trkpt>
      <trkpt lat="47.68633" lon="7.16442">
        <ele>297.8</ele>
      </trkpt>
      <trkpt lat="47.68633" lon="7.16447">
        <ele>297.8</ele>
      </trkpt>
      <trkpt lat="47.68632" lon="7.16453">
        <ele>297.8</ele>
      </trkpt>
      <trkpt lat="47.68632" lon="7.16457">
        <ele>297.8</ele>
      </trkpt>
      <trkpt lat="47.68631" lon="7.16464">
        <ele>297.8</ele>
      </trkpt>
      <trkpt lat="47.68634" lon="7.16469">
        <ele>297.8</ele>
      </trkpt>
      <trkpt lat="47.68638" lon="7.16476">
        <ele>297.8</ele>
      </trkpt>
      <trkpt lat="47.68641" lon="7.16481">
        <ele>297.8</ele>
      </trkpt>
      <trkpt lat="47.68698" lon="7.16533">
        <ele>295.5</ele>
      </trkpt>
      <trkpt lat="47.68709" lon="7.16543">
        <ele>295.2</ele>
      </trkpt>
      <trkpt lat="47.68718" lon="7.16552">
        <ele>295</ele>
      </trkpt>
      <trkpt lat="47.68751" lon="7.1658">
        <ele>294</ele>
      </trkpt>
      <trkpt lat="47.68756" lon="7.16584">
        <ele>294</ele>
      </trkpt>
      <trkpt lat="47.68762" lon="7.16589">
        <ele>293.9</ele>
      </trkpt>
      <trkpt lat="47.68768" lon="7.16595">
        <ele>293.9</ele>
      </trkpt>
      <trkpt lat="47.6877" lon="7.16597">
        <ele>293.9</ele>
      </trkpt>
      <trkpt lat="47.68775" lon="7.16601">
        <ele>293.8</ele>
      </trkpt>
      <trkpt lat="47.68781" lon="7.16608">
        <ele>293.8</ele>
      </trkpt>
      <trkpt lat="47.6879" lon="7.16621">
        <ele>293.8</ele>
      </trkpt>
      <trkpt lat="47.68793" lon="7.16625">
        <ele>293.7</ele>
        <extensions>
          <visugpx:TrkExtension xmlns:visugpx="https://www.visugpx.com/editgpx/">
            <visugpx:node>403</visugpx:node>
            </visugpx:TrkExtension>
        </extensions>
      </trkpt>
      <trkpt lat="47.68801" lon="7.16641">
        <ele>293.7</ele>
      </trkpt>
      <trkpt lat="47.68818" lon="7.16669">
        <ele>293.1</ele>
      </trkpt>
      <trkpt lat="47.6882" lon="7.16674">
        <ele>293</ele>
      </trkpt>
      <trkpt lat="47.68824" lon="7.1668">
        <ele>293</ele>
      </trkpt>
      <trkpt lat="47.68825" lon="7.16682">
        <ele>293</ele>
      </trkpt>
      <trkpt lat="47.68826" lon="7.16684">
        <ele>293</ele>
      </trkpt>
      <trkpt lat="47.68833" lon="7.16697">
        <ele>293</ele>
      </trkpt>
      <trkpt lat="47.68852" lon="7.16734">
        <ele>293.2</ele>
      </trkpt>
      <trkpt lat="47.68861" lon="7.16751">
        <ele>294</ele>
      </trkpt>
      <trkpt lat="47.68863" lon="7.16754">
        <ele>294.1</ele>
      </trkpt>
      <trkpt lat="47.68864" lon="7.16758">
        <ele>294.1</ele>
      </trkpt>
      <trkpt lat="47.68864" lon="7.16761">
        <ele>294.1</ele>
      </trkpt>
      <trkpt lat="47.68864" lon="7.16764">
        <ele>294.1</ele>
      </trkpt>
      <trkpt lat="47.6887" lon="7.16771">
        <ele>294.3</ele>
      </trkpt>
      <trkpt lat="47.68882" lon="7.16799">
        <ele>294.7</ele>
      </trkpt>
      <trkpt lat="47.68886" lon="7.16816">
        <ele>294.9</ele>
      </trkpt>
      <trkpt lat="47.68887" lon="7.16823">
        <ele>295.1</ele>
      </trkpt>
      <trkpt lat="47.68888" lon="7.16829">
        <ele>295.1</ele>
      </trkpt>
      <trkpt lat="47.689" lon="7.16849">
        <ele>296.3</ele>
      </trkpt>
      <trkpt lat="47.68911" lon="7.16866">
        <ele>296.4</ele>
      </trkpt>
      <trkpt lat="47.68914" lon="7.16872">
        <ele>296.5</ele>
      </trkpt>
      <trkpt lat="47.68919" lon="7.16884">
        <ele>298.5</ele>
      </trkpt>
      <trkpt lat="47.68923" lon="7.16891">
        <ele>298.6</ele>
      </trkpt>
      <trkpt lat="47.68927" lon="7.16897">
        <ele>298.6</ele>
      </trkpt>
      <trkpt lat="47.68931" lon="7.16901">
        <ele>298.7</ele>
      </trkpt>
      <trkpt lat="47.68936" lon="7.16906">
        <ele>298.7</ele>
      </trkpt>
      <trkpt lat="47.68947" lon="7.16913">
        <ele>298.7</ele>
      </trkpt>
      <trkpt lat="47.68974" lon="7.16934">
        <ele>298.9</ele>
      </trkpt>
      <trkpt lat="47.68969" lon="7.1694">
        <ele>298.9</ele>
      </trkpt>
      <trkpt lat="47.6894" lon="7.16976">
        <ele>298.4</ele>
      </trkpt>
      <trkpt lat="47.68922" lon="7.16999">
        <ele>297.4</ele>
      </trkpt>
      <trkpt lat="47.68924" lon="7.17002">
        <ele>297.1</ele>
      </trkpt>
      <trkpt lat="47.68927" lon="7.17007">
        <ele>297.2</ele>
      </trkpt>
      <trkpt lat="47.68931" lon="7.17011">
        <ele>297.3</ele>
      </trkpt>
      <trkpt lat="47.68938" lon="7.17017">
        <ele>297.4</ele>
      </trkpt>
      <trkpt lat="47.68972" lon="7.17045">
        <ele>297.7</ele>
      </trkpt>
      <trkpt lat="47.69039" lon="7.171">
        <ele>297.9</ele>
      </trkpt>
      <trkpt lat="47.69066" lon="7.17122">
        <ele>298</ele>
      </trkpt>
      <trkpt lat="47.69081" lon="7.17134">
        <ele>298</ele>
      </trkpt>
      <trkpt lat="47.69102" lon="7.17153">
        <ele>298</ele>
      </trkpt>
      <trkpt lat="47.69142" lon="7.17187">
        <ele>297.2</ele>
      </trkpt>
      <trkpt lat="47.69231" lon="7.17265">
        <ele>295.2</ele>
      </trkpt>
      <trkpt lat="47.69286" lon="7.1732">
        <ele>294.7</ele>
      </trkpt>
      <trkpt lat="47.6929" lon="7.17323">
        <ele>294.7</ele>
      </trkpt>
      <trkpt lat="47.69294" lon="7.17328">
        <ele>294.6</ele>
      </trkpt>
      <trkpt lat="47.69292" lon="7.17339">
        <ele>294</ele>
      </trkpt>
      <trkpt lat="47.69291" lon="7.17343">
        <ele>294</ele>
      </trkpt>
      <trkpt lat="47.69284" lon="7.17359">
        <ele>294</ele>
      </trkpt>
      <trkpt lat="47.69259" lon="7.17408">
        <ele>293.9</ele>
      </trkpt>
      <trkpt lat="47.6924" lon="7.17445">
        <ele>293.8</ele>
      </trkpt>
      <trkpt lat="47.69238" lon="7.17451">
        <ele>293.7</ele>
      </trkpt>
      <trkpt lat="47.69229" lon="7.1747">
        <ele>293.6</ele>
      </trkpt>
      <trkpt lat="47.69216" lon="7.17502">
        <ele>293.1</ele>
      </trkpt>
      <trkpt lat="47.69196" lon="7.17548">
        <ele>292.9</ele>
      </trkpt>
      <trkpt lat="47.69184" lon="7.17577">
        <ele>292.6</ele>
      </trkpt>
      <trkpt lat="47.69178" lon="7.17592">
        <ele>291.8</ele>
        <extensions>
          <visugpx:TrkExtension xmlns:visugpx="https://www.visugpx.com/editgpx/">
            <visugpx:node>405</visugpx:node>
            </visugpx:TrkExtension>
        </extensions>
      </trkpt>
      <trkpt lat="47.69174" lon="7.17602">
        <ele>291.7</ele>
      </trkpt>
      <trkpt lat="47.6915" lon="7.17658">
        <ele>290.9</ele>
      </trkpt>
      <trkpt lat="47.69125" lon="7.17713">
        <ele>290.2</ele>
      </trkpt>
      <trkpt lat="47.69107" lon="7.17754">
        <ele>289.6</ele>
      </trkpt>
      <trkpt lat="47.69089" lon="7.17792">
        <ele>289.3</ele>
      </trkpt>
      <trkpt lat="47.6906" lon="7.17859">
        <ele>289.1</ele>
      </trkpt>
      <trkpt lat="47.69028" lon="7.17929">
        <ele>288.5</ele>
      </trkpt>
      <trkpt lat="47.69022" lon="7.17945">
        <ele>288.4</ele>
      </trkpt>
      <trkpt lat="47.69002" lon="7.17992">
        <ele>288</ele>
      </trkpt>
      <trkpt lat="47.6899" lon="7.18017">
        <ele>288.2</ele>
      </trkpt>
      <trkpt lat="47.68984" lon="7.1802">
        <ele>288.3</ele>
      </trkpt>
      <trkpt lat="47.68989" lon="7.18027">
        <ele>288.3</ele>
      </trkpt>
      <trkpt lat="47.69" lon="7.18038">
        <ele>288.1</ele>
      </trkpt>
      <trkpt lat="47.69022" lon="7.18064">
        <ele>287</ele>
      </trkpt>
      <trkpt lat="47.69032" lon="7.18075">
        <ele>286.9</ele>
        <extensions>
          <visugpx:TrkExtension xmlns:visugpx="https://www.visugpx.com/editgpx/">
            <visugpx:node>407</visugpx:node>
            </visugpx:TrkExtension>
        </extensions>
      </trkpt>
      <trkpt lat="47.69046" lon="7.1809">
        <ele>286.1</ele>
      </trkpt>
      <trkpt lat="47.69075" lon="7.18121">
        <ele>285.9</ele>
      </trkpt>
      <trkpt lat="47.69101" lon="7.18149">
        <ele>285.2</ele>
      </trkpt>
      <trkpt lat="47.69129" lon="7.18179">
        <ele>285</ele>
      </trkpt>
      <trkpt lat="47.69157" lon="7.1821">
        <ele>285</ele>
      </trkpt>
      <trkpt lat="47.69168" lon="7.18221">
        <ele>284.8</ele>
      </trkpt>
      <trkpt lat="47.69058" lon="7.18368">
        <ele>283.7</ele>
      </trkpt>
      <trkpt lat="47.68962" lon="7.18633">
        <ele>282.7</ele>
      </trkpt>
      <trkpt lat="47.68965" lon="7.18685">
        <ele>282.9</ele>
      </trkpt>
      <trkpt lat="47.68958" lon="7.18765">
        <ele>283.2</ele>
      </trkpt>
      <trkpt lat="47.68969" lon="7.18812">
        <ele>283.2</ele>
      </trkpt>
      <trkpt lat="47.68965" lon="7.18981">
        <ele>283.7</ele>
      </trkpt>
      <trkpt lat="47.68933" lon="7.19108">
        <ele>282.7</ele>
      </trkpt>
      <trkpt lat="47.68951" lon="7.19187">
        <ele>280.8</ele>
      </trkpt>
      <trkpt lat="47.68994" lon="7.19203">
        <ele>280.6</ele>
      </trkpt>
      <trkpt lat="47.6898" lon="7.19346">
        <ele>280</ele>
      </trkpt>
      <trkpt lat="47.68948" lon="7.19467">
        <ele>280.6</ele>
      </trkpt>
      <trkpt lat="47.68994" lon="7.19473">
        <ele>281.3</ele>
      </trkpt>
      <trkpt lat="47.69026" lon="7.19457">
        <ele>283.2</ele>
      </trkpt>
      <trkpt lat="47.69068" lon="7.19446">
        <ele>284.1</ele>
      </trkpt>
      <trkpt lat="47.69093" lon="7.19467">
        <ele>284.7</ele>
      </trkpt>
      <trkpt lat="47.69076" lon="7.19541">
        <ele>282.5</ele>
      </trkpt>
      <trkpt lat="47.6904" lon="7.19679">
        <ele>280.3</ele>
      </trkpt>
      <trkpt lat="47.69001" lon="7.19763">
        <ele>281</ele>
      </trkpt>
      <trkpt lat="47.68997" lon="7.19885">
        <ele>279.8</ele>
        <extensions>
          <visugpx:TrkExtension xmlns:visugpx="https://www.visugpx.com/editgpx/">
            <visugpx:node>409</visugpx:node>
            </visugpx:TrkExtension>
        </extensions>
      </trkpt>
      <trkpt lat="47.68992" lon="7.19973">
        <ele>279.7</ele>
      </trkpt>
      <trkpt lat="47.68987" lon="7.20152">
        <ele>277.8</ele>
      </trkpt>
      <trkpt lat="47.68987" lon="7.20212">
        <ele>277.3</ele>
      </trkpt>
      <trkpt lat="47.68987" lon="7.20291">
        <ele>277.3</ele>
      </trkpt>
      <trkpt lat="47.69006" lon="7.20557">
        <ele>276.6</ele>
      </trkpt>
      <trkpt lat="47.6901" lon="7.20587">
        <ele>276.3</ele>
      </trkpt>
      <trkpt lat="47.69021" lon="7.20598">
        <ele>276.5</ele>
      </trkpt>
      <trkpt lat="47.69201" lon="7.20594">
        <ele>277.3</ele>
      </trkpt>
      <trkpt lat="47.69217" lon="7.20594">
        <ele>277.4</ele>
      </trkpt>
      <trkpt lat="47.69229" lon="7.20605">
        <ele>277.4</ele>
      </trkpt>
      <trkpt lat="47.69256" lon="7.20656">
        <ele>277.7</ele>
      </trkpt>
      <trkpt lat="47.69278" lon="7.20689">
        <ele>278.2</ele>
      </trkpt>
      <trkpt lat="47.69311" lon="7.20727">
        <ele>278.7</ele>
      </trkpt>
      <trkpt lat="47.69216" lon="7.20871">
        <ele>280.8</ele>
      </trkpt>
      <trkpt lat="47.69162" lon="7.21004">
        <ele>282.8</ele>
      </trkpt>
      <trkpt lat="47.69076" lon="7.21222">
        <ele>281.3</ele>
        <extensions>
          <visugpx:TrkExtension xmlns:visugpx="https://www.visugpx.com/editgpx/">
            <visugpx:node>410</visugpx:node>
            </visugpx:TrkExtension>
        </extensions>
      </trkpt>
      <trkpt lat="47.69022" lon="7.21357">
        <ele>283.7</ele>
      </trkpt>
      <trkpt lat="47.68839" lon="7.2115">
        <ele>274.9</ele>
      </trkpt>
      <trkpt lat="47.68831" lon="7.21151">
        <ele>274.1</ele>
      </trkpt>
      <trkpt lat="47.68757" lon="7.21281">
        <ele>273.5</ele>
      </trkpt>
      <trkpt lat="47.68742" lon="7.21301">
        <ele>272.8</ele>
      </trkpt>
      <trkpt lat="47.68729" lon="7.21313">
        <ele>272.8</ele>
        <extensions>
          <visugpx:TrkExtension xmlns:visugpx="https://www.visugpx.com/editgpx/">
            <visugpx:node>411</visugpx:node>
            </visugpx:TrkExtension>
        </extensions>
      </trkpt>
      <trkpt lat="47.68697" lon="7.21343">
        <ele>272.7</ele>
      </trkpt>
      <trkpt lat="47.68622" lon="7.21429">
        <ele>272.7</ele>
      </trkpt>
      <trkpt lat="47.68608" lon="7.21445">
        <ele>272.8</ele>
      </trkpt>
      <trkpt lat="47.68559" lon="7.2149">
        <ele>272.6</ele>
      </trkpt>
      <trkpt lat="47.6848" lon="7.2156">
        <ele>272.7</ele>
      </trkpt>
      <trkpt lat="47.68465" lon="7.21568">
        <ele>272.7</ele>
      </trkpt>
      <trkpt lat="47.68459" lon="7.21575">
        <ele>272.7</ele>
      </trkpt>
      <trkpt lat="47.68451" lon="7.21568">
        <ele>272.6</ele>
      </trkpt>
      <trkpt lat="47.68444" lon="7.21596">
        <ele>272.6</ele>
      </trkpt>
      <trkpt lat="47.68442" lon="7.21619">
        <ele>272.7</ele>
      </trkpt>
      <trkpt lat="47.68447" lon="7.21684">
        <ele>273.4</ele>
      </trkpt>
      <trkpt lat="47.68444" lon="7.21726">
        <ele>273.6</ele>
      </trkpt>
      <trkpt lat="47.68418" lon="7.21817">
        <ele>273.7</ele>
      </trkpt>
      <trkpt lat="47.68408" lon="7.21844">
        <ele>272.9</ele>
      </trkpt>
      <trkpt lat="47.68389" lon="7.21875">
        <ele>272.9</ele>
      </trkpt>
      <trkpt lat="47.68386" lon="7.21881">
        <ele>272.9</ele>
      </trkpt>
      <trkpt lat="47.6836" lon="7.21914">
        <ele>272.9</ele>
      </trkpt>
      <trkpt lat="47.68317" lon="7.21955">
        <ele>272.5</ele>
      </trkpt>
      <trkpt lat="47.68291" lon="7.21966">
        <ele>272.4</ele>
      </trkpt>
      <trkpt lat="47.68251" lon="7.21988">
        <ele>271.6</ele>
      </trkpt>
      <trkpt lat="47.68202" lon="7.22058">
        <ele>270.3</ele>
      </trkpt>
      <trkpt lat="47.6819" lon="7.22085">
        <ele>270.9</ele>
      </trkpt>
      <trkpt lat="47.68211" lon="7.22126">
        <ele>271</ele>
      </trkpt>
      <trkpt lat="47.68245" lon="7.22194">
        <ele>272.9</ele>
      </trkpt>
      <trkpt lat="47.68286" lon="7.22249">
        <ele>276.1</ele>
      </trkpt>
      <trkpt lat="47.68337" lon="7.22309">
        <ele>281.7</ele>
      </trkpt>
      <trkpt lat="47.68344" lon="7.22315">
        <ele>281.9</ele>
      </trkpt>
      <trkpt lat="47.6842" lon="7.22415">
        <ele>284.1</ele>
      </trkpt>
      <trkpt lat="47.68457" lon="7.22454">
        <ele>285.5</ele>
      </trkpt>
      <trkpt lat="47.68477" lon="7.22476">
        <ele>285.7</ele>
      </trkpt>
      <trkpt lat="47.68471" lon="7.22487">
        <ele>285.7</ele>
      </trkpt>
      <trkpt lat="47.68291" lon="7.22707">
        <ele>285</ele>
      </trkpt>
      <trkpt lat="47.68234" lon="7.22778">
        <ele>287.6</ele>
        <extensions>
          <visugpx:TrkExtension xmlns:visugpx="https://www.visugpx.com/editgpx/">
            <visugpx:node>412</visugpx:node>
            </visugpx:TrkExtension>
        </extensions>
      </trkpt>
      <trkpt lat="47.68173" lon="7.22855">
        <ele>287.8</ele>
      </trkpt>
      <trkpt lat="47.6812" lon="7.22925">
        <ele>288</ele>
      </trkpt>
      <trkpt lat="47.68099" lon="7.22959">
        <ele>288.1</ele>
      </trkpt>
      <trkpt lat="47.68052" lon="7.23036">
        <ele>289.4</ele>
      </trkpt>
      <trkpt lat="47.67903" lon="7.23292">
        <ele>286.5</ele>
      </trkpt>
      <trkpt lat="47.67857" lon="7.23375">
        <ele>287.5</ele>
      </trkpt>
      <trkpt lat="47.67787" lon="7.23521">
        <ele>286.7</ele>
      </trkpt>
      <trkpt lat="47.67775" lon="7.23535">
        <ele>286.6</ele>
      </trkpt>
      <trkpt lat="47.67767" lon="7.23542">
        <ele>286.6</ele>
      </trkpt>
      <trkpt lat="47.67773" lon="7.23547">
        <ele>286.4</ele>
      </trkpt>
      <trkpt lat="47.67891" lon="7.23645">
        <ele>280.7</ele>
      </trkpt>
      <trkpt lat="47.6795" lon="7.23687">
        <ele>278.1</ele>
      </trkpt>
      <trkpt lat="47.67985" lon="7.23715">
        <ele>277.7</ele>
      </trkpt>
      <trkpt lat="47.68024" lon="7.23759">
        <ele>275.8</ele>
      </trkpt>
      <trkpt lat="47.68107" lon="7.23867">
        <ele>272.5</ele>
        <extensions>
          <visugpx:TrkExtension xmlns:visugpx="https://www.visugpx.com/editgpx/">
            <visugpx:node>413</visugpx:node>
            </visugpx:TrkExtension>
        </extensions>
      </trkpt>
      <trkpt lat="47.6816" lon="7.23937">
        <ele>271.3</ele>
      </trkpt>
      <trkpt lat="47.68222" lon="7.24016">
        <ele>269.2</ele>
      </trkpt>
      <trkpt lat="47.68242" lon="7.24045">
        <ele>268.8</ele>
      </trkpt>
      <trkpt lat="47.68256" lon="7.24063">
        <ele>267.2</ele>
      </trkpt>
      <trkpt lat="47.68271" lon="7.24074">
        <ele>267.1</ele>
      </trkpt>
      <trkpt lat="47.68336" lon="7.24101">
        <ele>265.7</ele>
      </trkpt>
      <trkpt lat="47.68404" lon="7.2414">
        <ele>265.4</ele>
      </trkpt>
      <trkpt lat="47.68411" lon="7.24152">
        <ele>265.3</ele>
      </trkpt>
      <trkpt lat="47.68419" lon="7.24171">
        <ele>264.9</ele>
      </trkpt>
      <trkpt lat="47.68439" lon="7.24255">
        <ele>265.5</ele>
      </trkpt>
      <trkpt lat="47.68462" lon="7.24337">
        <ele>268.8</ele>
      </trkpt>
      <trkpt lat="47.68561" lon="7.24568">
        <ele>277.4</ele>
      </trkpt>
      <trkpt lat="47.68568" lon="7.24587">
        <ele>279</ele>
      </trkpt>
      <trkpt lat="47.68543" lon="7.24606">
        <ele>280</ele>
      </trkpt>
      <trkpt lat="47.68507" lon="7.24637">
        <ele>280.8</ele>
      </trkpt>
      <trkpt lat="47.68482" lon="7.24664">
        <ele>281.6</ele>
      </trkpt>
      <trkpt lat="47.68442" lon="7.24713">
        <ele>280.5</ele>
      </trkpt>
      <trkpt lat="47.68411" lon="7.24761">
        <ele>278.3</ele>
        <extensions>
          <visugpx:TrkExtension xmlns:visugpx="https://www.visugpx.com/editgpx/">
            <visugpx:node>414</visugpx:node>
            </visugpx:TrkExtension>
        </extensions>
      </trkpt>
      <trkpt lat="47.68395" lon="7.24785">
        <ele>276.4</ele>
      </trkpt>
      <trkpt lat="47.68374" lon="7.24813">
        <ele>275.3</ele>
      </trkpt>
      <trkpt lat="47.68349" lon="7.24834">
        <ele>273.5</ele>
      </trkpt>
      <trkpt lat="47.68328" lon="7.24849">
        <ele>274.1</ele>
      </trkpt>
      <trkpt lat="47.68251" lon="7.24891">
        <ele>277.4</ele>
      </trkpt>
      <trkpt lat="47.68196" lon="7.24914">
        <ele>278.2</ele>
      </trkpt>
      <trkpt lat="47.68165" lon="7.24918">
        <ele>278</ele>
      </trkpt>
      <trkpt lat="47.68126" lon="7.24905">
        <ele>275.8</ele>
      </trkpt>
      <trkpt lat="47.68096" lon="7.24905">
        <ele>275.2</ele>
      </trkpt>
      <trkpt lat="47.68064" lon="7.2491">
        <ele>274</ele>
      </trkpt>
      <trkpt lat="47.6805" lon="7.24915">
        <ele>273.9</ele>
      </trkpt>
      <trkpt lat="47.68005" lon="7.24941">
        <ele>277.5</ele>
      </trkpt>
      <trkpt lat="47.67973" lon="7.24985">
        <ele>277.8</ele>
      </trkpt>
      <trkpt lat="47.67918" lon="7.2508">
        <ele>283.7</ele>
      </trkpt>
      <trkpt lat="47.6791" lon="7.251">
        <ele>283.5</ele>
      </trkpt>
      <trkpt lat="47.67907" lon="7.25109">
        <ele>283.4</ele>
      </trkpt>
      <trkpt lat="47.67903" lon="7.25121">
        <ele>283.2</ele>
      </trkpt>
      <trkpt lat="47.67883" lon="7.25203">
        <ele>280.5</ele>
      </trkpt>
      <trkpt lat="47.67857" lon="7.2528">
        <ele>276.1</ele>
      </trkpt>
      <trkpt lat="47.67851" lon="7.25306">
        <ele>275</ele>
      </trkpt>
      <trkpt lat="47.67845" lon="7.25368">
        <ele>271.1</ele>
      </trkpt>
      <trkpt lat="47.67843" lon="7.25463">
        <ele>265.6</ele>
      </trkpt>
      <trkpt lat="47.67844" lon="7.25477">
        <ele>264.8</ele>
      </trkpt>
      <trkpt lat="47.67839" lon="7.25488">
        <ele>263.8</ele>
      </trkpt>
      <trkpt lat="47.67787" lon="7.25621">
        <ele>257.5</ele>
      </trkpt>
      <trkpt lat="47.67781" lon="7.25632">
        <ele>257.3</ele>
      </trkpt>
      <trkpt lat="47.67786" lon="7.2564">
        <ele>257.3</ele>
      </trkpt>
      <trkpt lat="47.67787" lon="7.25654">
        <ele>257.1</ele>
      </trkpt>
      <trkpt lat="47.67786" lon="7.2566">
        <ele>257.1</ele>
      </trkpt>
      <trkpt lat="47.67782" lon="7.2567">
        <ele>256.6</ele>
      </trkpt>
      <trkpt lat="47.67774" lon="7.25676">
        <ele>256.5</ele>
      </trkpt>
      <trkpt lat="47.67769" lon="7.25677">
        <ele>256.5</ele>
      </trkpt>
      <trkpt lat="47.67763" lon="7.25674">
        <ele>256.4</ele>
      </trkpt>
      <trkpt lat="47.6775" lon="7.25719">
        <ele>256.7</ele>
      </trkpt>
      <trkpt lat="47.67759" lon="7.25724">
        <ele>256.8</ele>
      </trkpt>
      <trkpt lat="47.67751" lon="7.25735">
        <ele>256.9</ele>
      </trkpt>
      <trkpt lat="47.67743" lon="7.25756">
        <ele>256.9</ele>
      </trkpt>
      <trkpt lat="47.67741" lon="7.25772">
        <ele>256.8</ele>
      </trkpt>
      <trkpt lat="47.67743" lon="7.25782">
        <ele>256.7</ele>
      </trkpt>
      <trkpt lat="47.67742" lon="7.25788">
        <ele>256.7</ele>
      </trkpt>
      <trkpt lat="47.67697" lon="7.25886">
        <ele>256.5</ele>
      </trkpt>
      <trkpt lat="47.67694" lon="7.25889">
        <ele>256.5</ele>
      </trkpt>
      <trkpt lat="47.67686" lon="7.2589">
        <ele>256.4</ele>
      </trkpt>
      <trkpt lat="47.67681" lon="7.25893">
        <ele>256.4</ele>
      </trkpt>
      <trkpt lat="47.67673" lon="7.25906">
        <ele>256.2</ele>
        <extensions>
          <visugpx:TrkExtension xmlns:visugpx="https://www.visugpx.com/editgpx/">
            <visugpx:node>415</visugpx:node>
            </visugpx:TrkExtension>
        </extensions>
      </trkpt>
      <trkpt lat="47.67665" lon="7.25918">
        <ele>256</ele>
      </trkpt>
      <trkpt lat="47.67655" lon="7.25936">
        <ele>255.9</ele>
      </trkpt>
      <trkpt lat="47.6765" lon="7.25964">
        <ele>255.6</ele>
      </trkpt>
      <trkpt lat="47.67647" lon="7.25973">
        <ele>255.5</ele>
      </trkpt>
      <trkpt lat="47.67643" lon="7.25976">
        <ele>255.6</ele>
      </trkpt>
      <trkpt lat="47.67634" lon="7.25978">
        <ele>255.7</ele>
      </trkpt>
      <trkpt lat="47.67629" lon="7.25982">
        <ele>255.8</ele>
      </trkpt>
      <trkpt lat="47.6755" lon="7.26112">
        <ele>256.3</ele>
      </trkpt>
      <trkpt lat="47.67537" lon="7.26127">
        <ele>256.2</ele>
      </trkpt>
      <trkpt lat="47.67529" lon="7.26137">
        <ele>256.2</ele>
      </trkpt>
      <trkpt lat="47.6752" lon="7.2615">
        <ele>256.1</ele>
      </trkpt>
      <trkpt lat="47.67502" lon="7.26177">
        <ele>255.7</ele>
      </trkpt>
      <trkpt lat="47.67496" lon="7.26189">
        <ele>255.8</ele>
      </trkpt>
      <trkpt lat="47.67492" lon="7.26184">
        <ele>255.8</ele>
      </trkpt>
      <trkpt lat="47.6749" lon="7.2618">
        <ele>255.8</ele>
      </trkpt>
      <trkpt lat="47.67473" lon="7.26214">
        <ele>255.7</ele>
      </trkpt>
      <trkpt lat="47.67457" lon="7.2625">
        <ele>256.2</ele>
      </trkpt>
      <trkpt lat="47.67416" lon="7.26355">
        <ele>258.3</ele>
      </trkpt>
      <trkpt lat="47.67408" lon="7.26376">
        <ele>258.3</ele>
      </trkpt>
      <trkpt lat="47.67401" lon="7.26397">
        <ele>258.3</ele>
      </trkpt>
      <trkpt lat="47.67391" lon="7.26395">
        <ele>258.4</ele>
      </trkpt>
      <trkpt lat="47.67376" lon="7.26396">
        <ele>258.5</ele>
      </trkpt>
      <trkpt lat="47.67304" lon="7.26406">
        <ele>259.6</ele>
      </trkpt>
      <trkpt lat="47.6729" lon="7.2641">
        <ele>259.9</ele>
      </trkpt>
      <trkpt lat="47.67251" lon="7.26425">
        <ele>260.8</ele>
      </trkpt>
      <trkpt lat="47.67234" lon="7.26426">
        <ele>261</ele>
      </trkpt>
      <trkpt lat="47.67218" lon="7.26426">
        <ele>261</ele>
      </trkpt>
      <trkpt lat="47.67212" lon="7.26426">
        <ele>261</ele>
      </trkpt>
      <trkpt lat="47.67139" lon="7.26425">
        <ele>261.3</ele>
      </trkpt>
      <trkpt lat="47.67135" lon="7.26426">
        <ele>261.3</ele>
      </trkpt>
      <trkpt lat="47.67131" lon="7.26429">
        <ele>261.3</ele>
      </trkpt>
      <trkpt lat="47.67127" lon="7.26436">
        <ele>261.4</ele>
      </trkpt>
      <trkpt lat="47.67124" lon="7.26444">
        <ele>261.4</ele>
      </trkpt>
      <trkpt lat="47.6712" lon="7.26482">
        <ele>261.7</ele>
      </trkpt>
      <trkpt lat="47.67117" lon="7.26502">
        <ele>262.1</ele>
      </trkpt>
      <trkpt lat="47.67115" lon="7.26512">
        <ele>262.1</ele>
      </trkpt>
      <trkpt lat="47.67102" lon="7.26598">
        <ele>262.9</ele>
      </trkpt>
      <trkpt lat="47.67102" lon="7.26612">
        <ele>263.2</ele>
      </trkpt>
      <trkpt lat="47.67104" lon="7.26617">
        <ele>263.3</ele>
      </trkpt>
      <trkpt lat="47.67121" lon="7.2663">
        <ele>263.6</ele>
      </trkpt>
      <trkpt lat="47.67129" lon="7.26638">
        <ele>263.7</ele>
      </trkpt>
      <trkpt lat="47.67143" lon="7.26661">
        <ele>264.2</ele>
      </trkpt>
      <trkpt lat="47.67147" lon="7.26665">
        <ele>264.3</ele>
      </trkpt>
      <trkpt lat="47.67154" lon="7.26672">
        <ele>266</ele>
      </trkpt>
      <trkpt lat="47.67159" lon="7.26676">
        <ele>266</ele>
      </trkpt>
      <trkpt lat="47.67162" lon="7.26681">
        <ele>266.2</ele>
      </trkpt>
      <trkpt lat="47.67167" lon="7.26704">
        <ele>267.9</ele>
      </trkpt>
      <trkpt lat="47.67169" lon="7.26712">
        <ele>268.3</ele>
      </trkpt>
      <trkpt lat="47.67166" lon="7.26714">
        <ele>267.8</ele>
      </trkpt>
      <trkpt lat="47.6716" lon="7.26716">
        <ele>267.8</ele>
      </trkpt>
      <trkpt lat="47.67117" lon="7.2671">
        <ele>267.6</ele>
      </trkpt>
      <trkpt lat="47.67106" lon="7.26713">
        <ele>267.7</ele>
      </trkpt>
      <trkpt lat="47.67103" lon="7.26716">
        <ele>267.8</ele>
      </trkpt>
      <trkpt lat="47.671" lon="7.26712">
        <ele>267.6</ele>
      </trkpt>
      <trkpt lat="47.67095" lon="7.26707">
        <ele>267.4</ele>
      </trkpt>
      <trkpt lat="47.66988" lon="7.26694">
        <ele>267.3</ele>
      </trkpt>
      <trkpt lat="47.6695" lon="7.26687">
        <ele>267.3</ele>
      </trkpt>
      <trkpt lat="47.66934" lon="7.26742">
        <ele>268.8</ele>
      </trkpt>
      <trkpt lat="47.66922" lon="7.26785">
        <ele>272</ele>
      </trkpt>
      <trkpt lat="47.66907" lon="7.26852">
        <ele>282.5</ele>
      </trkpt>
      <trkpt lat="47.66901" lon="7.26878">
        <ele>285.3</ele>
      </trkpt>
      <trkpt lat="47.66899" lon="7.26888">
        <ele>285.9</ele>
      </trkpt>
      <trkpt lat="47.66888" lon="7.26937">
        <ele>291.3</ele>
      </trkpt>
      <trkpt lat="47.66878" lon="7.26993">
        <ele>293.4</ele>
      </trkpt>
      <trkpt lat="47.66873" lon="7.27041">
        <ele>295.4</ele>
      </trkpt>
      <trkpt lat="47.66866" lon="7.27104">
        <ele>298</ele>
      </trkpt>
      <trkpt lat="47.66857" lon="7.27177">
        <ele>303.6</ele>
      </trkpt>
      <trkpt lat="47.66846" lon="7.27223">
        <ele>306</ele>
      </trkpt>
      <trkpt lat="47.66825" lon="7.27268">
        <ele>319.8</ele>
      </trkpt>
      <trkpt lat="47.66795" lon="7.27328">
        <ele>324.8</ele>
      </trkpt>
      <trkpt lat="47.66767" lon="7.2743">
        <ele>337</ele>
      </trkpt>
      <trkpt lat="47.6674" lon="7.27509">
        <ele>348.9</ele>
      </trkpt>
      <trkpt lat="47.66727" lon="7.27548">
        <ele>355.6</ele>
        <extensions>
          <visugpx:TrkExtension xmlns:visugpx="https://www.visugpx.com/editgpx/">
            <visugpx:node>416</visugpx:node>
            </visugpx:TrkExtension>
        </extensions>
      </trkpt>
      <trkpt lat="47.66684" lon="7.27673">
        <ele>369.2</ele>
      </trkpt>
      <trkpt lat="47.66654" lon="7.27749">
        <ele>374.1</ele>
      </trkpt>
      <trkpt lat="47.66635" lon="7.27775">
        <ele>376.8</ele>
      </trkpt>
      <trkpt lat="47.66532" lon="7.2796">
        <ele>379.9</ele>
      </trkpt>
      <trkpt lat="47.66492" lon="7.28023">
        <ele>375.5</ele>
      </trkpt>
      <trkpt lat="47.66462" lon="7.28055">
        <ele>373.5</ele>
      </trkpt>
      <trkpt lat="47.66328" lon="7.28157">
        <ele>352.4</ele>
      </trkpt>
      <trkpt lat="47.66232" lon="7.28231">
        <ele>344.3</ele>
      </trkpt>
      <trkpt lat="47.66085" lon="7.28355">
        <ele>336.5</ele>
        <extensions>
          <visugpx:TrkExtension xmlns:visugpx="https://www.visugpx.com/editgpx/">
            <visugpx:node>417</visugpx:node>
            </visugpx:TrkExtension>
        </extensions>
      </trkpt>
      <trkpt lat="47.66071" lon="7.28367">
        <ele>334.2</ele>
      </trkpt>
      <trkpt lat="47.66051" lon="7.28382">
        <ele>333.7</ele>
      </trkpt>
      <trkpt lat="47.66041" lon="7.28386">
        <ele>333.6</ele>
      </trkpt>
      <trkpt lat="47.66032" lon="7.28387">
        <ele>333.5</ele>
      </trkpt>
      <trkpt lat="47.66026" lon="7.28387">
        <ele>333.4</ele>
      </trkpt>
      <trkpt lat="47.66018" lon="7.28386">
        <ele>333.4</ele>
      </trkpt>
      <trkpt lat="47.66013" lon="7.28387">
        <ele>333.3</ele>
      </trkpt>
      <trkpt lat="47.65978" lon="7.28386">
        <ele>330.9</ele>
      </trkpt>
      <trkpt lat="47.65896" lon="7.28373">
        <ele>325.4</ele>
      </trkpt>
      <trkpt lat="47.65879" lon="7.28374">
        <ele>324.7</ele>
      </trkpt>
      <trkpt lat="47.65845" lon="7.28387">
        <ele>323.1</ele>
      </trkpt>
      <trkpt lat="47.65833" lon="7.28395">
        <ele>317.5</ele>
      </trkpt>
      <trkpt lat="47.65802" lon="7.28427">
        <ele>313.3</ele>
      </trkpt>
      <trkpt lat="47.65776" lon="7.28449">
        <ele>310.6</ele>
      </trkpt>
      <trkpt lat="47.65698" lon="7.28504">
        <ele>298.8</ele>
      </trkpt>
      <trkpt lat="47.65681" lon="7.28521">
        <ele>297.9</ele>
      </trkpt>
      <trkpt lat="47.65674" lon="7.28543">
        <ele>298.1</ele>
      </trkpt>
      <trkpt lat="47.65647" lon="7.286">
        <ele>295.8</ele>
      </trkpt>
      <trkpt lat="47.65639" lon="7.2861">
        <ele>295.8</ele>
      </trkpt>
      <trkpt lat="47.65621" lon="7.28635">
        <ele>295.8</ele>
      </trkpt>
      <trkpt lat="47.65612" lon="7.28635">
        <ele>295.8</ele>
      </trkpt>
      <trkpt lat="47.6559" lon="7.28677">
        <ele>296.6</ele>
      </trkpt>
      <trkpt lat="47.65578" lon="7.28693">
        <ele>299.8</ele>
      </trkpt>
      <trkpt lat="47.65574" lon="7.287">
        <ele>300.3</ele>
      </trkpt>
      <trkpt lat="47.65561" lon="7.28719">
        <ele>301.3</ele>
      </trkpt>
      <trkpt lat="47.65549" lon="7.28739">
        <ele>302</ele>
      </trkpt>
      <trkpt lat="47.65535" lon="7.28776">
        <ele>305</ele>
      </trkpt>
      <trkpt lat="47.65531" lon="7.28796">
        <ele>305.5</ele>
      </trkpt>
      <trkpt lat="47.65517" lon="7.28955">
        <ele>309.9</ele>
      </trkpt>
      <trkpt lat="47.65514" lon="7.28979">
        <ele>310.1</ele>
      </trkpt>
      <trkpt lat="47.65514" lon="7.29006">
        <ele>311.5</ele>
      </trkpt>
      <trkpt lat="47.65516" lon="7.29031">
        <ele>312.1</ele>
      </trkpt>
      <trkpt lat="47.65512" lon="7.29052">
        <ele>312.9</ele>
      </trkpt>
      <trkpt lat="47.65504" lon="7.2908">
        <ele>314.5</ele>
      </trkpt>
      <trkpt lat="47.65501" lon="7.29116">
        <ele>316.8</ele>
      </trkpt>
      <trkpt lat="47.65502" lon="7.29138">
        <ele>317.7</ele>
      </trkpt>
      <trkpt lat="47.65504" lon="7.29163">
        <ele>318.7</ele>
      </trkpt>
      <trkpt lat="47.65509" lon="7.29194">
        <ele>321.9</ele>
      </trkpt>
      <trkpt lat="47.6551" lon="7.29208">
        <ele>322.7</ele>
      </trkpt>
      <trkpt lat="47.65506" lon="7.29223">
        <ele>323.2</ele>
      </trkpt>
      <trkpt lat="47.65474" lon="7.29274">
        <ele>329.4</ele>
      </trkpt>
      <trkpt lat="47.65456" lon="7.29311">
        <ele>331.9</ele>
      </trkpt>
      <trkpt lat="47.65417" lon="7.29382">
        <ele>339.4</ele>
      </trkpt>
      <trkpt lat="47.6539" lon="7.29417">
        <ele>345.5</ele>
      </trkpt>
      <trkpt lat="47.65384" lon="7.29422">
        <ele>346.3</ele>
      </trkpt>
      <trkpt lat="47.65341" lon="7.29481">
        <ele>350.4</ele>
      </trkpt>
      <trkpt lat="47.65337" lon="7.29489">
        <ele>351.3</ele>
      </trkpt>
      <trkpt lat="47.65332" lon="7.29507">
        <ele>354.4</ele>
      </trkpt>
      <trkpt lat="47.6533" lon="7.29522">
        <ele>356.2</ele>
      </trkpt>
      <trkpt lat="47.65326" lon="7.29607">
        <ele>360.9</ele>
      </trkpt>
      <trkpt lat="47.6532" lon="7.29755">
        <ele>370.7</ele>
      </trkpt>
      <trkpt lat="47.65313" lon="7.29781">
        <ele>370.7</ele>
      </trkpt>
      <trkpt lat="47.65307" lon="7.29807">
        <ele>370.9</ele>
      </trkpt>
      <trkpt lat="47.65295" lon="7.29843">
        <ele>371.4</ele>
      </trkpt>
      <trkpt lat="47.65283" lon="7.29877">
        <ele>371.2</ele>
      </trkpt>
      <trkpt lat="47.65253" lon="7.2994">
        <ele>370.6</ele>
      </trkpt>
      <trkpt lat="47.65242" lon="7.29999">
        <ele>368.8</ele>
      </trkpt>
      <trkpt lat="47.65222" lon="7.30074">
        <ele>365.6</ele>
      </trkpt>
      <trkpt lat="47.65209" lon="7.3011">
        <ele>363</ele>
      </trkpt>
      <trkpt lat="47.65194" lon="7.30183">
        <ele>359.3</ele>
      </trkpt>
      <trkpt lat="47.65193" lon="7.30199">
        <ele>359</ele>
      </trkpt>
      <trkpt lat="47.65194" lon="7.3021">
        <ele>358.8</ele>
      </trkpt>
      <trkpt lat="47.65198" lon="7.30225">
        <ele>358.5</ele>
      </trkpt>
      <trkpt lat="47.65201" lon="7.30257">
        <ele>355.2</ele>
      </trkpt>
      <trkpt lat="47.65202" lon="7.30286">
        <ele>354.6</ele>
      </trkpt>
      <trkpt lat="47.65202" lon="7.30312">
        <ele>353.8</ele>
      </trkpt>
      <trkpt lat="47.65201" lon="7.30333">
        <ele>353.2</ele>
      </trkpt>
      <trkpt lat="47.65187" lon="7.30418">
        <ele>346.1</ele>
      </trkpt>
      <trkpt lat="47.6518" lon="7.3048">
        <ele>344.4</ele>
      </trkpt>
      <trkpt lat="47.65174" lon="7.3051">
        <ele>343</ele>
      </trkpt>
      <trkpt lat="47.65156" lon="7.30561">
        <ele>341.5</ele>
      </trkpt>
      <trkpt lat="47.65143" lon="7.30594">
        <ele>341.9</ele>
        <extensions>
          <visugpx:TrkExtension xmlns:visugpx="https://www.visugpx.com/editgpx/">
            <visugpx:node>418</visugpx:node>
            </visugpx:TrkExtension>
        </extensions>
      </trkpt>
      <trkpt lat="47.65133" lon="7.30618">
        <ele>342</ele>
      </trkpt>
      <trkpt lat="47.65074" lon="7.30776">
        <ele>341.7</ele>
      </trkpt>
      <trkpt lat="47.65056" lon="7.30837">
        <ele>339.4</ele>
      </trkpt>
      <trkpt lat="47.65041" lon="7.30894">
        <ele>338.2</ele>
      </trkpt>
      <trkpt lat="47.64995" lon="7.31083">
        <ele>329.1</ele>
      </trkpt>
      <trkpt lat="47.6494" lon="7.31222">
        <ele>324</ele>
      </trkpt>
      <trkpt lat="47.64875" lon="7.31395">
        <ele>319.2</ele>
      </trkpt>
      <trkpt lat="47.64873" lon="7.31407">
        <ele>319.1</ele>
      </trkpt>
      <trkpt lat="47.64873" lon="7.31422">
        <ele>318.3</ele>
      </trkpt>
      <trkpt lat="47.64848" lon="7.31629">
        <ele>314.1</ele>
      </trkpt>
      <trkpt lat="47.64839" lon="7.31668">
        <ele>313.8</ele>
      </trkpt>
      <trkpt lat="47.64823" lon="7.31725">
        <ele>313.5</ele>
      </trkpt>
      <trkpt lat="47.64814" lon="7.31748">
        <ele>313.4</ele>
      </trkpt>
      <trkpt lat="47.64803" lon="7.3177">
        <ele>312.6</ele>
      </trkpt>
      <trkpt lat="47.64774" lon="7.31814">
        <ele>312.3</ele>
      </trkpt>
      <trkpt lat="47.64753" lon="7.31846">
        <ele>311.6</ele>
      </trkpt>
      <trkpt lat="47.64735" lon="7.31868">
        <ele>310.2</ele>
      </trkpt>
      <trkpt lat="47.64712" lon="7.31887">
        <ele>309.7</ele>
      </trkpt>
      <trkpt lat="47.6472" lon="7.31906">
        <ele>309.7</ele>
      </trkpt>
      <trkpt lat="47.64714" lon="7.31915">
        <ele>309.6</ele>
      </trkpt>
      <trkpt lat="47.6471" lon="7.31953">
        <ele>308.3</ele>
      </trkpt>
      <trkpt lat="47.64706" lon="7.31979">
        <ele>308.1</ele>
      </trkpt>
      <trkpt lat="47.64697" lon="7.32017">
        <ele>307.2</ele>
      </trkpt>
      <trkpt lat="47.6469" lon="7.32035">
        <ele>307.1</ele>
      </trkpt>
      <trkpt lat="47.64657" lon="7.32109">
        <ele>305.6</ele>
      </trkpt>
      <trkpt lat="47.64632" lon="7.32188">
        <ele>306</ele>
      </trkpt>
      <trkpt lat="47.64594" lon="7.32299">
        <ele>306.4</ele>
      </trkpt>
      <trkpt lat="47.64572" lon="7.32372">
        <ele>306</ele>
        <extensions>
          <visugpx:TrkExtension xmlns:visugpx="https://www.visugpx.com/editgpx/">
            <visugpx:node>419</visugpx:node>
            </visugpx:TrkExtension>
        </extensions>
      </trkpt>
      <trkpt lat="47.64564" lon="7.32398">
        <ele>306.2</ele>
      </trkpt>
      <trkpt lat="47.64542" lon="7.32461">
        <ele>307</ele>
      </trkpt>
      <trkpt lat="47.6451" lon="7.32544">
        <ele>307.8</ele>
      </trkpt>
      <trkpt lat="47.64461" lon="7.32626">
        <ele>311.4</ele>
      </trkpt>
      <trkpt lat="47.64422" lon="7.32692">
        <ele>315.8</ele>
      </trkpt>
      <trkpt lat="47.64394" lon="7.32736">
        <ele>327.4</ele>
      </trkpt>
      <trkpt lat="47.64384" lon="7.32754">
        <ele>330.3</ele>
      </trkpt>
      <trkpt lat="47.64373" lon="7.32768">
        <ele>331.2</ele>
      </trkpt>
      <trkpt lat="47.6436" lon="7.32786">
        <ele>331.9</ele>
      </trkpt>
      <trkpt lat="47.64353" lon="7.32795">
        <ele>332.2</ele>
      </trkpt>
      <trkpt lat="47.64333" lon="7.32814">
        <ele>336</ele>
      </trkpt>
      <trkpt lat="47.64308" lon="7.32829">
        <ele>336.5</ele>
      </trkpt>
      <trkpt lat="47.6427" lon="7.32846">
        <ele>337.9</ele>
      </trkpt>
      <trkpt lat="47.64205" lon="7.32895">
        <ele>335.9</ele>
      </trkpt>
      <trkpt lat="47.64189" lon="7.32911">
        <ele>335.2</ele>
      </trkpt>
      <trkpt lat="47.6418" lon="7.32923">
        <ele>335.2</ele>
      </trkpt>
      <trkpt lat="47.64161" lon="7.32963">
        <ele>332.8</ele>
      </trkpt>
      <trkpt lat="47.64158" lon="7.32971">
        <ele>332.9</ele>
      </trkpt>
      <trkpt lat="47.64146" lon="7.33001">
        <ele>333.3</ele>
      </trkpt>
      <trkpt lat="47.6412" lon="7.33073">
        <ele>332.2</ele>
      </trkpt>
      <trkpt lat="47.641" lon="7.33109">
        <ele>333</ele>
      </trkpt>
      <trkpt lat="47.64015" lon="7.33242">
        <ele>335.1</ele>
      </trkpt>
      <trkpt lat="47.63982" lon="7.33299">
        <ele>335.2</ele>
      </trkpt>
      <trkpt lat="47.63944" lon="7.33359">
        <ele>337.4</ele>
      </trkpt>
      <trkpt lat="47.63857" lon="7.33474">
        <ele>342.1</ele>
      </trkpt>
      <trkpt lat="47.6385" lon="7.33484">
        <ele>342.5</ele>
      </trkpt>
      <trkpt lat="47.63782" lon="7.33616">
        <ele>343.3</ele>
      </trkpt>
      <trkpt lat="47.63757" lon="7.33668">
        <ele>342.4</ele>
      </trkpt>
      <trkpt lat="47.63716" lon="7.33775">
        <ele>341.3</ele>
      </trkpt>
      <trkpt lat="47.63687" lon="7.33858">
        <ele>341.1</ele>
      </trkpt>
      <trkpt lat="47.63681" lon="7.33871">
        <ele>341.1</ele>
      </trkpt>
      <trkpt lat="47.63678" lon="7.33878">
        <ele>341</ele>
      </trkpt>
      <trkpt lat="47.63662" lon="7.33904">
        <ele>338.3</ele>
      </trkpt>
      <trkpt lat="47.63612" lon="7.33969">
        <ele>338.1</ele>
      </trkpt>
      <trkpt lat="47.63543" lon="7.34047">
        <ele>335.3</ele>
      </trkpt>
      <trkpt lat="47.6354" lon="7.34052">
        <ele>335.2</ele>
        <extensions>
          <visugpx:TrkExtension xmlns:visugpx="https://www.visugpx.com/editgpx/">
            <visugpx:node>420</visugpx:node>
            </visugpx:TrkExtension>
        </extensions>
      </trkpt>
      <trkpt lat="47.63534" lon="7.3406">
        <ele>335</ele>
      </trkpt>
      <trkpt lat="47.63505" lon="7.34112">
        <ele>334.1</ele>
      </trkpt>
      <trkpt lat="47.63494" lon="7.34127">
        <ele>330.9</ele>
      </trkpt>
      <trkpt lat="47.63468" lon="7.34156">
        <ele>330.2</ele>
      </trkpt>
      <trkpt lat="47.63438" lon="7.34185">
        <ele>328.6</ele>
      </trkpt>
      <trkpt lat="47.63383" lon="7.34234">
        <ele>325.3</ele>
      </trkpt>
      <trkpt lat="47.63329" lon="7.3429">
        <ele>322.2</ele>
      </trkpt>
      <trkpt lat="47.63321" lon="7.34298">
        <ele>322.2</ele>
      </trkpt>
      <trkpt lat="47.63314" lon="7.34314">
        <ele>322.2</ele>
      </trkpt>
      <trkpt lat="47.63308" lon="7.34319">
        <ele>322.1</ele>
      </trkpt>
      <trkpt lat="47.63263" lon="7.34376">
        <ele>321.5</ele>
      </trkpt>
      <trkpt lat="47.6325" lon="7.34399">
        <ele>321</ele>
      </trkpt>
      <trkpt lat="47.63247" lon="7.3441">
        <ele>320.2</ele>
      </trkpt>
      <trkpt lat="47.63246" lon="7.34425">
        <ele>320.3</ele>
      </trkpt>
      <trkpt lat="47.63249" lon="7.34462">
        <ele>320.6</ele>
      </trkpt>
      <trkpt lat="47.63248" lon="7.34469">
        <ele>320.6</ele>
      </trkpt>
      <trkpt lat="47.63246" lon="7.34478">
        <ele>320.5</ele>
      </trkpt>
      <trkpt lat="47.63243" lon="7.34486">
        <ele>320.4</ele>
      </trkpt>
      <trkpt lat="47.63231" lon="7.34506">
        <ele>321.1</ele>
      </trkpt>
      <trkpt lat="47.63189" lon="7.34544">
        <ele>322.3</ele>
      </trkpt>
      <trkpt lat="47.63178" lon="7.3456">
        <ele>322.7</ele>
      </trkpt>
      <trkpt lat="47.63177" lon="7.34566">
        <ele>322.9</ele>
      </trkpt>
      <trkpt lat="47.63177" lon="7.34573">
        <ele>323.1</ele>
      </trkpt>
      <trkpt lat="47.63181" lon="7.34599">
        <ele>323.6</ele>
      </trkpt>
      <trkpt lat="47.63189" lon="7.34635">
        <ele>323.8</ele>
      </trkpt>
      <trkpt lat="47.63144" lon="7.34669">
        <ele>327</ele>
      </trkpt>
      <trkpt lat="47.63072" lon="7.34727">
        <ele>328.7</ele>
      </trkpt>
      <trkpt lat="47.63065" lon="7.34735">
        <ele>328.7</ele>
      </trkpt>
      <trkpt lat="47.63061" lon="7.34729">
        <ele>328.8</ele>
      </trkpt>
      <trkpt lat="47.63056" lon="7.34735">
        <ele>328.9</ele>
      </trkpt>
      <trkpt lat="47.63015" lon="7.34772">
        <ele>330.4</ele>
      </trkpt>
      <trkpt lat="47.6295" lon="7.34828">
        <ele>333.4</ele>
      </trkpt>
      <trkpt lat="47.62872" lon="7.34894">
        <ele>337.3</ele>
      </trkpt>
      <trkpt lat="47.6281" lon="7.3494">
        <ele>342</ele>
      </trkpt>
      <trkpt lat="47.62784" lon="7.34962">
        <ele>343</ele>
      </trkpt>
      <trkpt lat="47.62781" lon="7.34978">
        <ele>343.5</ele>
      </trkpt>
      <trkpt lat="47.62777" lon="7.34995">
        <ele>344.1</ele>
      </trkpt>
      <trkpt lat="47.62775" lon="7.35005">
        <ele>345.8</ele>
      </trkpt>
      <trkpt lat="47.62768" lon="7.35035">
        <ele>346.1</ele>
      </trkpt>
      <trkpt lat="47.62758" lon="7.3507">
        <ele>347.4</ele>
      </trkpt>
      <trkpt lat="47.6275" lon="7.3509">
        <ele>349.5</ele>
      </trkpt>
      <trkpt lat="47.62668" lon="7.35205">
        <ele>352.5</ele>
      </trkpt>
      <trkpt lat="47.62651" lon="7.35229">
        <ele>355.7</ele>
      </trkpt>
      <trkpt lat="47.62634" lon="7.3525">
        <ele>356.7</ele>
      </trkpt>
      <trkpt lat="47.62625" lon="7.35262">
        <ele>357</ele>
      </trkpt>
      <trkpt lat="47.62599" lon="7.35299">
        <ele>357.4</ele>
      </trkpt>
      <trkpt lat="47.62586" lon="7.35313">
        <ele>357.5</ele>
        <extensions>
          <visugpx:TrkExtension xmlns:visugpx="https://www.visugpx.com/editgpx/">
            <visugpx:node>421</visugpx:node>
            </visugpx:TrkExtension>
        </extensions>
      </trkpt>
      <trkpt lat="47.62567" lon="7.35336">
        <ele>358.3</ele>
      </trkpt>
      <trkpt lat="47.62506" lon="7.35389">
        <ele>359.2</ele>
      </trkpt>
      <trkpt lat="47.6247" lon="7.35428">
        <ele>360.4</ele>
      </trkpt>
      <trkpt lat="47.62461" lon="7.35437">
        <ele>360.5</ele>
      </trkpt>
      <trkpt lat="47.62452" lon="7.35445">
        <ele>360.6</ele>
      </trkpt>
      <trkpt lat="47.62366" lon="7.35515">
        <ele>362.4</ele>
      </trkpt>
      <trkpt lat="47.62295" lon="7.35564">
        <ele>363.8</ele>
      </trkpt>
      <trkpt lat="47.62236" lon="7.35609">
        <ele>366.4</ele>
      </trkpt>
      <trkpt lat="47.62197" lon="7.35637">
        <ele>367.6</ele>
      </trkpt>
      <trkpt lat="47.62154" lon="7.35671">
        <ele>371.4</ele>
      </trkpt>
      <trkpt lat="47.6215" lon="7.35676">
        <ele>371.8</ele>
      </trkpt>
      <trkpt lat="47.62175" lon="7.35729">
        <ele>367.9</ele>
      </trkpt>
      <trkpt lat="47.62211" lon="7.3579">
        <ele>365.5</ele>
      </trkpt>
      <trkpt lat="47.62226" lon="7.35804">
        <ele>364.9</ele>
      </trkpt>
      <trkpt lat="47.6232" lon="7.35909">
        <ele>356.1</ele>
      </trkpt>
      <trkpt lat="47.62332" lon="7.35932">
        <ele>354.7</ele>
        <extensions>
          <visugpx:TrkExtension xmlns:visugpx="https://www.visugpx.com/editgpx/">
            <visugpx:node>422</visugpx:node>
            </visugpx:TrkExtension>
        </extensions>
      </trkpt>
      <trkpt lat="47.62382" lon="7.36025">
        <ele>349.7</ele>
      </trkpt>
      <trkpt lat="47.62426" lon="7.36062">
        <ele>346.9</ele>
      </trkpt>
      <trkpt lat="47.62487" lon="7.36117">
        <ele>346.1</ele>
      </trkpt>
      <trkpt lat="47.62619" lon="7.36227">
        <ele>343.8</ele>
      </trkpt>
      <trkpt lat="47.62627" lon="7.36235">
        <ele>343.8</ele>
      </trkpt>
      <trkpt lat="47.62629" lon="7.36241">
        <ele>343.8</ele>
      </trkpt>
      <trkpt lat="47.62629" lon="7.36247">
        <ele>343.8</ele>
      </trkpt>
      <trkpt lat="47.62617" lon="7.36265">
        <ele>343.7</ele>
      </trkpt>
      <trkpt lat="47.62589" lon="7.36302">
        <ele>343.7</ele>
      </trkpt>
      <trkpt lat="47.62534" lon="7.3635">
        <ele>345.7</ele>
      </trkpt>
      <trkpt lat="47.62519" lon="7.36356">
        <ele>346</ele>
      </trkpt>
      <trkpt lat="47.62493" lon="7.36354">
        <ele>346.8</ele>
      </trkpt>
      <trkpt lat="47.62475" lon="7.36356">
        <ele>346.7</ele>
      </trkpt>
      <trkpt lat="47.62441" lon="7.36366">
        <ele>346.5</ele>
      </trkpt>
      <trkpt lat="47.62431" lon="7.36369">
        <ele>346.4</ele>
      </trkpt>
      <trkpt lat="47.62426" lon="7.36371">
        <ele>346.4</ele>
      </trkpt>
      <trkpt lat="47.62416" lon="7.36375">
        <ele>346.3</ele>
      </trkpt>
      <trkpt lat="47.62409" lon="7.36379">
        <ele>346.3</ele>
      </trkpt>
      <trkpt lat="47.62406" lon="7.36381">
        <ele>346.2</ele>
      </trkpt>
      <trkpt lat="47.62377" lon="7.36409">
        <ele>346.3</ele>
      </trkpt>
      <trkpt lat="47.6236" lon="7.36428">
        <ele>347.4</ele>
      </trkpt>
      <trkpt lat="47.62342" lon="7.36455">
        <ele>348.1</ele>
      </trkpt>
      <trkpt lat="47.62316" lon="7.36501">
        <ele>352.1</ele>
      </trkpt>
      <trkpt lat="47.62314" lon="7.36508">
        <ele>352.3</ele>
      </trkpt>
      <trkpt lat="47.62312" lon="7.36506">
        <ele>352.3</ele>
      </trkpt>
      <trkpt lat="47.62279" lon="7.36573">
        <ele>353.9</ele>
      </trkpt>
      <trkpt lat="47.62265" lon="7.36609">
        <ele>354.3</ele>
      </trkpt>
      <trkpt lat="47.62252" lon="7.36653">
        <ele>354.4</ele>
      </trkpt>
      <trkpt lat="47.62239" lon="7.36724">
        <ele>355.8</ele>
      </trkpt>
      <trkpt lat="47.62239" lon="7.36733">
        <ele>355.5</ele>
      </trkpt>
      <trkpt lat="47.62244" lon="7.36746">
        <ele>354.7</ele>
      </trkpt>
      <trkpt lat="47.62245" lon="7.3675">
        <ele>354.5</ele>
      </trkpt>
      <trkpt lat="47.62225" lon="7.36767">
        <ele>355.2</ele>
      </trkpt>
      <trkpt lat="47.62216" lon="7.36768">
        <ele>355.5</ele>
      </trkpt>
      <trkpt lat="47.62206" lon="7.36764">
        <ele>355.9</ele>
      </trkpt>
      <trkpt lat="47.62207" lon="7.36769">
        <ele>355.8</ele>
      </trkpt>
      <trkpt lat="47.62212" lon="7.36797">
        <ele>355.4</ele>
      </trkpt>
      <trkpt lat="47.62265" lon="7.36914">
        <ele>353.8</ele>
      </trkpt>
      <trkpt lat="47.6227" lon="7.36927">
        <ele>354.8</ele>
      </trkpt>
      <trkpt lat="47.62273" lon="7.36933">
        <ele>354.9</ele>
      </trkpt>
      <trkpt lat="47.62273" lon="7.36943">
        <ele>355.1</ele>
      </trkpt>
      <trkpt lat="47.62276" lon="7.36972">
        <ele>355.6</ele>
      </trkpt>
      <trkpt lat="47.62281" lon="7.37001">
        <ele>358.2</ele>
      </trkpt>
      <trkpt lat="47.62293" lon="7.37054">
        <ele>359.6</ele>
      </trkpt>
      <trkpt lat="47.62297" lon="7.37062">
        <ele>359.8</ele>
      </trkpt>
      <trkpt lat="47.62301" lon="7.37063">
        <ele>359.8</ele>
      </trkpt>
      <trkpt lat="47.62303" lon="7.37082">
        <ele>360.1</ele>
      </trkpt>
      <trkpt lat="47.62327" lon="7.37162">
        <ele>366.3</ele>
      </trkpt>
      <trkpt lat="47.62334" lon="7.37179">
        <ele>368.6</ele>
      </trkpt>
      <trkpt lat="47.62338" lon="7.37182">
        <ele>368.9</ele>
      </trkpt>
      <trkpt lat="47.62336" lon="7.37189">
        <ele>369.4</ele>
      </trkpt>
      <trkpt lat="47.62331" lon="7.37199">
        <ele>369.1</ele>
      </trkpt>
      <trkpt lat="47.62323" lon="7.37206">
        <ele>369.4</ele>
      </trkpt>
      <trkpt lat="47.62252" lon="7.37257">
        <ele>371.6</ele>
      </trkpt>
      <trkpt lat="47.62219" lon="7.3728">
        <ele>372.3</ele>
      </trkpt>
      <trkpt lat="47.62189" lon="7.37301">
        <ele>372.5</ele>
      </trkpt>
      <trkpt lat="47.62166" lon="7.37323">
        <ele>371.8</ele>
        <extensions>
          <visugpx:TrkExtension xmlns:visugpx="https://www.visugpx.com/editgpx/">
            <visugpx:node>423</visugpx:node>
            </visugpx:TrkExtension>
        </extensions>
      </trkpt>
      <trkpt lat="47.62134" lon="7.37352">
        <ele>372.1</ele>
      </trkpt>
      <trkpt lat="47.62105" lon="7.37386">
        <ele>372</ele>
      </trkpt>
      <trkpt lat="47.62054" lon="7.3746">
        <ele>371.8</ele>
      </trkpt>
      <trkpt lat="47.62025" lon="7.37504">
        <ele>373.2</ele>
      </trkpt>
      <trkpt lat="47.62001" lon="7.37544">
        <ele>373.8</ele>
      </trkpt>
      <trkpt lat="47.61939" lon="7.37668">
        <ele>376.7</ele>
      </trkpt>
      <trkpt lat="47.61918" lon="7.37709">
        <ele>377.6</ele>
      </trkpt>
      <trkpt lat="47.61903" lon="7.37738">
        <ele>380</ele>
      </trkpt>
      <trkpt lat="47.61852" lon="7.37833">
        <ele>385.3</ele>
      </trkpt>
      <trkpt lat="47.61734" lon="7.38084">
        <ele>382.7</ele>
      </trkpt>
      <trkpt lat="47.61707" lon="7.38133">
        <ele>383.2</ele>
      </trkpt>
      <trkpt lat="47.61696" lon="7.38152">
        <ele>383.2</ele>
      </trkpt>
      <trkpt lat="47.61816" lon="7.38431">
        <ele>388.3</ele>
        <extensions>
          <visugpx:TrkExtension xmlns:visugpx="https://www.visugpx.com/editgpx/">
            <visugpx:node>424</visugpx:node>
            </visugpx:TrkExtension>
        </extensions>
      </trkpt>
      <trkpt lat="47.61843" lon="7.38493">
        <ele>390.5</ele>
      </trkpt>
      <trkpt lat="47.61852" lon="7.38516">
        <ele>391.6</ele>
      </trkpt>
      <trkpt lat="47.61843" lon="7.38525">
        <ele>391.5</ele>
      </trkpt>
      <trkpt lat="47.61779" lon="7.38589">
        <ele>388.9</ele>
      </trkpt>
      <trkpt lat="47.61723" lon="7.38649">
        <ele>390</ele>
      </trkpt>
      <trkpt lat="47.61605" lon="7.38768">
        <ele>393.6</ele>
      </trkpt>
      <trkpt lat="47.61597" lon="7.38782">
        <ele>393.6</ele>
      </trkpt>
      <trkpt lat="47.6157" lon="7.38863">
        <ele>396.1</ele>
      </trkpt>
      <trkpt lat="47.61555" lon="7.38895">
        <ele>396.9</ele>
      </trkpt>
      <trkpt lat="47.61544" lon="7.38916">
        <ele>397</ele>
      </trkpt>
      <trkpt lat="47.61524" lon="7.38958">
        <ele>397.4</ele>
      </trkpt>
      <trkpt lat="47.61506" lon="7.38987">
        <ele>397.2</ele>
      </trkpt>
      <trkpt lat="47.61463" lon="7.39049">
        <ele>399.3</ele>
      </trkpt>
      <trkpt lat="47.6141" lon="7.39157">
        <ele>401.8</ele>
      </trkpt>
      <trkpt lat="47.61393" lon="7.39199">
        <ele>400.8</ele>
      </trkpt>
      <trkpt lat="47.61385" lon="7.39222">
        <ele>400.6</ele>
      </trkpt>
      <trkpt lat="47.61362" lon="7.39283">
        <ele>399.4</ele>
      </trkpt>
      <trkpt lat="47.61293" lon="7.39438">
        <ele>396.4</ele>
      </trkpt>
      <trkpt lat="47.61251" lon="7.39497">
        <ele>395.2</ele>
      </trkpt>
      <trkpt lat="47.61118" lon="7.3963">
        <ele>397.7</ele>
      </trkpt>
      <trkpt lat="47.61056" lon="7.39675">
        <ele>401.5</ele>
      </trkpt>
      <trkpt lat="47.61004" lon="7.39717">
        <ele>403.4</ele>
        <extensions>
          <visugpx:TrkExtension xmlns:visugpx="https://www.visugpx.com/editgpx/">
            <visugpx:node>425</visugpx:node>
            </visugpx:TrkExtension>
        </extensions>
      </trkpt>
      <trkpt lat="47.60989" lon="7.39728">
        <ele>405.2</ele>
      </trkpt>
      <trkpt lat="47.6096" lon="7.3976">
        <ele>404.5</ele>
      </trkpt>
      <trkpt lat="47.60898" lon="7.3987">
        <ele>403.8</ele>
      </trkpt>
      <trkpt lat="47.60883" lon="7.39904">
        <ele>403.7</ele>
      </trkpt>
      <trkpt lat="47.60829" lon="7.40016">
        <ele>406.9</ele>
      </trkpt>
      <trkpt lat="47.6082" lon="7.4006">
        <ele>407.6</ele>
      </trkpt>
      <trkpt lat="47.60811" lon="7.40136">
        <ele>408.7</ele>
      </trkpt>
      <trkpt lat="47.60805" lon="7.40186">
        <ele>408.5</ele>
      </trkpt>
      <trkpt lat="47.60802" lon="7.40204">
        <ele>408.5</ele>
      </trkpt>
      <trkpt lat="47.60785" lon="7.40286">
        <ele>407.6</ele>
      </trkpt>
      <trkpt lat="47.60766" lon="7.40358">
        <ele>406.1</ele>
      </trkpt>
      <trkpt lat="47.60747" lon="7.40422">
        <ele>404.2</ele>
      </trkpt>
      <trkpt lat="47.60737" lon="7.40455">
        <ele>401.9</ele>
      </trkpt>
      <trkpt lat="47.60734" lon="7.40465">
        <ele>401.6</ele>
      </trkpt>
      <trkpt lat="47.6073" lon="7.40478">
        <ele>401.2</ele>
      </trkpt>
      <trkpt lat="47.60719" lon="7.4051">
        <ele>398.5</ele>
      </trkpt>
      <trkpt lat="47.60715" lon="7.4052">
        <ele>398.3</ele>
      </trkpt>
      <trkpt lat="47.60713" lon="7.40525">
        <ele>398.2</ele>
      </trkpt>
      <trkpt lat="47.60705" lon="7.40542">
        <ele>397.8</ele>
      </trkpt>
      <trkpt lat="47.60699" lon="7.40556">
        <ele>397.4</ele>
      </trkpt>
      <trkpt lat="47.60693" lon="7.40568">
        <ele>397.1</ele>
      </trkpt>
      <trkpt lat="47.60685" lon="7.40586">
        <ele>395.1</ele>
      </trkpt>
      <trkpt lat="47.60671" lon="7.40623">
        <ele>394.6</ele>
      </trkpt>
      <trkpt lat="47.60663" lon="7.40649">
        <ele>395.3</ele>
      </trkpt>
      <trkpt lat="47.6066" lon="7.40656">
        <ele>395</ele>
      </trkpt>
      <trkpt lat="47.60655" lon="7.40655">
        <ele>395.3</ele>
      </trkpt>
      <trkpt lat="47.60654" lon="7.40663">
        <ele>395.1</ele>
      </trkpt>
      <trkpt lat="47.60622" lon="7.40763">
        <ele>398.8</ele>
      </trkpt>
      <trkpt lat="47.60567" lon="7.40981">
        <ele>402</ele>
      </trkpt>
      <trkpt lat="47.60543" lon="7.41042">
        <ele>401.5</ele>
      </trkpt>
      <trkpt lat="47.60534" lon="7.41078">
        <ele>401.5</ele>
      </trkpt>
      <trkpt lat="47.60533" lon="7.41086">
        <ele>400.3</ele>
      </trkpt>
      <trkpt lat="47.60532" lon="7.41097">
        <ele>400.2</ele>
      </trkpt>
      <trkpt lat="47.60529" lon="7.41196">
        <ele>398.3</ele>
      </trkpt>
      <trkpt lat="47.60527" lon="7.41201">
        <ele>398.3</ele>
      </trkpt>
      <trkpt lat="47.60526" lon="7.41207">
        <ele>398.3</ele>
      </trkpt>
      <trkpt lat="47.60514" lon="7.41227">
        <ele>398.4</ele>
      </trkpt>
      <trkpt lat="47.60509" lon="7.41233">
        <ele>398.5</ele>
      </trkpt>
      <trkpt lat="47.60505" lon="7.41238">
        <ele>398.6</ele>
      </trkpt>
      <trkpt lat="47.60473" lon="7.41275">
        <ele>398.6</ele>
      </trkpt>
      <trkpt lat="47.60471" lon="7.41278">
        <ele>398.5</ele>
      </trkpt>
      <trkpt lat="47.60468" lon="7.41282">
        <ele>398.5</ele>
      </trkpt>
      <trkpt lat="47.60436" lon="7.41446">
        <ele>397.1</ele>
      </trkpt>
      <trkpt lat="47.60435" lon="7.4145">
        <ele>397.1</ele>
      </trkpt>
      <trkpt lat="47.60437" lon="7.41451">
        <ele>397</ele>
      </trkpt>
      <trkpt lat="47.60438" lon="7.41452">
        <ele>397</ele>
      </trkpt>
      <trkpt lat="47.6044" lon="7.41453">
        <ele>397</ele>
      </trkpt>
      <trkpt lat="47.60443" lon="7.41455">
        <ele>396.9</ele>
      </trkpt>
      <trkpt lat="47.60441" lon="7.41459">
        <ele>396.9</ele>
      </trkpt>
      <trkpt lat="47.60435" lon="7.41518">
        <ele>396.3</ele>
      </trkpt>
      <trkpt lat="47.60435" lon="7.41522">
        <ele>396.2</ele>
      </trkpt>
      <trkpt lat="47.60425" lon="7.41556">
        <ele>395.9</ele>
      </trkpt>
      <trkpt lat="47.60407" lon="7.41594">
        <ele>395.2</ele>
      </trkpt>
      <trkpt lat="47.60396" lon="7.41623">
        <ele>394.3</ele>
      </trkpt>
      <trkpt lat="47.60382" lon="7.41665">
        <ele>393.6</ele>
      </trkpt>
      <trkpt lat="47.60363" lon="7.41728">
        <ele>389.8</ele>
      </trkpt>
      <trkpt lat="47.6034" lon="7.41783">
        <ele>386.3</ele>
      </trkpt>
      <trkpt lat="47.60317" lon="7.41829">
        <ele>383.5</ele>
      </trkpt>
      <trkpt lat="47.60307" lon="7.41856">
        <ele>380.7</ele>
      </trkpt>
      <trkpt lat="47.60276" lon="7.41928">
        <ele>377.1</ele>
      </trkpt>
      <trkpt lat="47.60267" lon="7.41952">
        <ele>376.8</ele>
      </trkpt>
      <trkpt lat="47.60266" lon="7.41978">
        <ele>376.3</ele>
      </trkpt>
      <trkpt lat="47.60269" lon="7.42017">
        <ele>374.2</ele>
      </trkpt>
      <trkpt lat="47.60284" lon="7.42119">
        <ele>370.2</ele>
      </trkpt>
      <trkpt lat="47.60285" lon="7.42155">
        <ele>369.6</ele>
      </trkpt>
      <trkpt lat="47.60283" lon="7.42208">
        <ele>366.5</ele>
        <extensions>
          <visugpx:TrkExtension xmlns:visugpx="https://www.visugpx.com/editgpx/">
            <visugpx:node>427</visugpx:node>
            </visugpx:TrkExtension>
        </extensions>
      </trkpt>
      <trkpt lat="47.60282" lon="7.42243">
        <ele>365.7</ele>
      </trkpt>
      <trkpt lat="47.60275" lon="7.42311">
        <ele>363.5</ele>
      </trkpt>
      <trkpt lat="47.60263" lon="7.42367">
        <ele>362.6</ele>
      </trkpt>
      <trkpt lat="47.60262" lon="7.42391">
        <ele>362.4</ele>
      </trkpt>
      <trkpt lat="47.60235" lon="7.42403">
        <ele>363.2</ele>
      </trkpt>
      <trkpt lat="47.602" lon="7.4242">
        <ele>363.5</ele>
      </trkpt>
      <trkpt lat="47.60174" lon="7.42442">
        <ele>363.9</ele>
      </trkpt>
      <trkpt lat="47.60152" lon="7.42479">
        <ele>368.9</ele>
      </trkpt>
      <trkpt lat="47.60144" lon="7.42499">
        <ele>369</ele>
      </trkpt>
      <trkpt lat="47.60125" lon="7.4252">
        <ele>370.9</ele>
      </trkpt>
      <trkpt lat="47.60106" lon="7.42547">
        <ele>372.4</ele>
      </trkpt>
      <trkpt lat="47.60096" lon="7.42589">
        <ele>373.6</ele>
      </trkpt>
      <trkpt lat="47.6008" lon="7.42628">
        <ele>379.2</ele>
      </trkpt>
      <trkpt lat="47.60072" lon="7.42643">
        <ele>378.6</ele>
        <extensions>
          <visugpx:TrkExtension xmlns:visugpx="https://www.visugpx.com/editgpx/">
            <visugpx:node>428</visugpx:node>
            </visugpx:TrkExtension>
        </extensions>
      </trkpt>
      <trkpt lat="47.6007" lon="7.42641">
        <ele>378.9</ele>
      </trkpt>
      <trkpt lat="47.60066" lon="7.42649">
        <ele>378.5</ele>
      </trkpt>
      <trkpt lat="47.60062" lon="7.42658">
        <ele>378.4</ele>
      </trkpt>
      <trkpt lat="47.60059" lon="7.42667">
        <ele>374.9</ele>
      </trkpt>
      <trkpt lat="47.60055" lon="7.42682">
        <ele>374.8</ele>
      </trkpt>
      <trkpt lat="47.60019" lon="7.42705">
        <ele>375.6</ele>
      </trkpt>
      <trkpt lat="47.59977" lon="7.42731">
        <ele>382.6</ele>
      </trkpt>
      <trkpt lat="47.59948" lon="7.42754">
        <ele>380.9</ele>
      </trkpt>
      <trkpt lat="47.59943" lon="7.42743">
        <ele>386.6</ele>
      </trkpt>
      <trkpt lat="47.59942" lon="7.42728">
        <ele>386.9</ele>
      </trkpt>
      <trkpt lat="47.59939" lon="7.42698">
        <ele>388.7</ele>
      </trkpt>
      <trkpt lat="47.59936" lon="7.42686">
        <ele>390.2</ele>
      </trkpt>
      <trkpt lat="47.59931" lon="7.42683">
        <ele>391.4</ele>
      </trkpt>
      <trkpt lat="47.59925" lon="7.42679">
        <ele>392.7</ele>
      </trkpt>
      <trkpt lat="47.59916" lon="7.42677">
        <ele>398.4</ele>
      </trkpt>
      <trkpt lat="47.59895" lon="7.4267">
        <ele>399.3</ele>
      </trkpt>
      <trkpt lat="47.59892" lon="7.4267">
        <ele>399.6</ele>
      </trkpt>
      <trkpt lat="47.59877" lon="7.42664">
        <ele>402.9</ele>
      </trkpt>
      <trkpt lat="47.59866" lon="7.42661">
        <ele>404.1</ele>
      </trkpt>
      <trkpt lat="47.5986" lon="7.4266">
        <ele>404.7</ele>
      </trkpt>
      <trkpt lat="47.59855" lon="7.42662">
        <ele>405.3</ele>
      </trkpt>
      <trkpt lat="47.59852" lon="7.42662">
        <ele>405.6</ele>
      </trkpt>
      <trkpt lat="47.59846" lon="7.42664">
        <ele>406.6</ele>
      </trkpt>
      <trkpt lat="47.5984" lon="7.42665">
        <ele>407.6</ele>
      </trkpt>
      <trkpt lat="47.59831" lon="7.42668">
        <ele>408.7</ele>
      </trkpt>
      <trkpt lat="47.59824" lon="7.4267">
        <ele>408</ele>
      </trkpt>
      <trkpt lat="47.59818" lon="7.42669">
        <ele>407.6</ele>
      </trkpt>
      <trkpt lat="47.59811" lon="7.42665">
        <ele>409.5</ele>
      </trkpt>
      <trkpt lat="47.59804" lon="7.42663">
        <ele>409.7</ele>
      </trkpt>
      <trkpt lat="47.59796" lon="7.42662">
        <ele>409.8</ele>
      </trkpt>
      <trkpt lat="47.59793" lon="7.42663">
        <ele>409.8</ele>
      </trkpt>
      <trkpt lat="47.59785" lon="7.42663">
        <ele>409.9</ele>
      </trkpt>
      <trkpt lat="47.59776" lon="7.42664">
        <ele>410</ele>
      </trkpt>
      <trkpt lat="47.59764" lon="7.42671">
        <ele>408.2</ele>
      </trkpt>
      <trkpt lat="47.59758" lon="7.42672">
        <ele>408.7</ele>
      </trkpt>
      <trkpt lat="47.59746" lon="7.42669">
        <ele>409</ele>
      </trkpt>
      <trkpt lat="47.59744" lon="7.42669">
        <ele>408.6</ele>
      </trkpt>
      <trkpt lat="47.59734" lon="7.42668">
        <ele>407.1</ele>
      </trkpt>
      <trkpt lat="47.59722" lon="7.42668">
        <ele>406</ele>
      </trkpt>
      <trkpt lat="47.59707" lon="7.42671">
        <ele>405</ele>
      </trkpt>
      <trkpt lat="47.59698" lon="7.42673">
        <ele>404.7</ele>
      </trkpt>
      <trkpt lat="47.59688" lon="7.42678">
        <ele>404.4</ele>
      </trkpt>
      <trkpt lat="47.59677" lon="7.42687">
        <ele>404.1</ele>
      </trkpt>
      <trkpt lat="47.59666" lon="7.42698">
        <ele>400.2</ele>
      </trkpt>
      <trkpt lat="47.59658" lon="7.42705">
        <ele>399.4</ele>
        <extensions>
          <visugpx:TrkExtension xmlns:visugpx="https://www.visugpx.com/editgpx/">
            <visugpx:node>429</visugpx:node>
            </visugpx:TrkExtension>
        </extensions>
      </trkpt>
      <trkpt lat="47.59657" lon="7.42706">
        <ele>399.3</ele>
      </trkpt>
      <trkpt lat="47.59651" lon="7.42712">
        <ele>398.8</ele>
      </trkpt>
      <trkpt lat="47.59644" lon="7.42714">
        <ele>398.5</ele>
      </trkpt>
      <trkpt lat="47.59636" lon="7.42715">
        <ele>398.2</ele>
      </trkpt>
      <trkpt lat="47.59629" lon="7.42713">
        <ele>398.1</ele>
      </trkpt>
      <trkpt lat="47.59622" lon="7.42707">
        <ele>398.3</ele>
      </trkpt>
      <trkpt lat="47.59613" lon="7.42699">
        <ele>398.6</ele>
      </trkpt>
      <trkpt lat="47.596" lon="7.42696">
        <ele>398.6</ele>
      </trkpt>
      <trkpt lat="47.59588" lon="7.42696">
        <ele>398.6</ele>
      </trkpt>
      <trkpt lat="47.59573" lon="7.42697">
        <ele>396.2</ele>
      </trkpt>
      <trkpt lat="47.59559" lon="7.42698">
        <ele>395.7</ele>
      </trkpt>
      <trkpt lat="47.59546" lon="7.42698">
        <ele>395.4</ele>
      </trkpt>
      <trkpt lat="47.59526" lon="7.42714">
        <ele>394.4</ele>
      </trkpt>
      <trkpt lat="47.59523" lon="7.4272">
        <ele>394.1</ele>
      </trkpt>
      <trkpt lat="47.59526" lon="7.42743">
        <ele>393.3</ele>
      </trkpt>
      <trkpt lat="47.59534" lon="7.42791">
        <ele>384.3</ele>
      </trkpt>
      <trkpt lat="47.59537" lon="7.42815">
        <ele>382.6</ele>
      </trkpt>
      <trkpt lat="47.59537" lon="7.42821">
        <ele>382.2</ele>
      </trkpt>
      <trkpt lat="47.59541" lon="7.42828">
        <ele>381.7</ele>
      </trkpt>
      <trkpt lat="47.59548" lon="7.42839">
        <ele>374.9</ele>
      </trkpt>
      <trkpt lat="47.59556" lon="7.42856">
        <ele>374.3</ele>
      </trkpt>
      <trkpt lat="47.59564" lon="7.42881">
        <ele>373.3</ele>
      </trkpt>
      <trkpt lat="47.59572" lon="7.42911">
        <ele>371.4</ele>
      </trkpt>
      <trkpt lat="47.59574" lon="7.42927">
        <ele>369.9</ele>
      </trkpt>
      <trkpt lat="47.59576" lon="7.42942">
        <ele>369.8</ele>
      </trkpt>
      <trkpt lat="47.59577" lon="7.42961">
        <ele>369.6</ele>
      </trkpt>
      <trkpt lat="47.59579" lon="7.42989">
        <ele>369.3</ele>
      </trkpt>
      <trkpt lat="47.5958" lon="7.4301">
        <ele>368.8</ele>
      </trkpt>
      <trkpt lat="47.59582" lon="7.43029">
        <ele>368.6</ele>
      </trkpt>
      <trkpt lat="47.59583" lon="7.43051">
        <ele>368.3</ele>
      </trkpt>
      <trkpt lat="47.59585" lon="7.43073">
        <ele>368.1</ele>
      </trkpt>
      <trkpt lat="47.59587" lon="7.43091">
        <ele>368.4</ele>
      </trkpt>
      <trkpt lat="47.5959" lon="7.43111">
        <ele>369</ele>
      </trkpt>
      <trkpt lat="47.59591" lon="7.43128">
        <ele>369.2</ele>
      </trkpt>
      <trkpt lat="47.59594" lon="7.43158">
        <ele>368.8</ele>
      </trkpt>
      <trkpt lat="47.59594" lon="7.43172">
        <ele>369.1</ele>
      </trkpt>
      <trkpt lat="47.59594" lon="7.43185">
        <ele>369.6</ele>
      </trkpt>
      <trkpt lat="47.59593" lon="7.43202">
        <ele>369.9</ele>
      </trkpt>
      <trkpt lat="47.59592" lon="7.4321">
        <ele>369.8</ele>
      </trkpt>
      <trkpt lat="47.59589" lon="7.43215">
        <ele>369.7</ele>
      </trkpt>
      <trkpt lat="47.59579" lon="7.43221">
        <ele>366.3</ele>
      </trkpt>
      <trkpt lat="47.59573" lon="7.43223">
        <ele>366.2</ele>
      </trkpt>
      <trkpt lat="47.59571" lon="7.43226">
        <ele>366.2</ele>
      </trkpt>
      <trkpt lat="47.59564" lon="7.43234">
        <ele>366.1</ele>
      </trkpt>
      <trkpt lat="47.59558" lon="7.43243">
        <ele>365.9</ele>
      </trkpt>
      <trkpt lat="47.59551" lon="7.43251">
        <ele>363.9</ele>
      </trkpt>
      <trkpt lat="47.59539" lon="7.43277">
        <ele>363</ele>
      </trkpt>
      <trkpt lat="47.59536" lon="7.43286">
        <ele>362.7</ele>
      </trkpt>
      <trkpt lat="47.5953" lon="7.43302">
        <ele>362.3</ele>
      </trkpt>
      <trkpt lat="47.59521" lon="7.43322">
        <ele>361.6</ele>
      </trkpt>
      <trkpt lat="47.59514" lon="7.43337">
        <ele>359.7</ele>
      </trkpt>
      <trkpt lat="47.59501" lon="7.43362">
        <ele>359.2</ele>
      </trkpt>
      <trkpt lat="47.59493" lon="7.43375">
        <ele>360</ele>
      </trkpt>
      <trkpt lat="47.59485" lon="7.43387">
        <ele>359.8</ele>
      </trkpt>
      <trkpt lat="47.59477" lon="7.43399">
        <ele>359.7</ele>
      </trkpt>
      <trkpt lat="47.59472" lon="7.43406">
        <ele>359.7</ele>
      </trkpt>
      <trkpt lat="47.59453" lon="7.43436">
        <ele>358.8</ele>
      </trkpt>
      <trkpt lat="47.59439" lon="7.43461">
        <ele>358.7</ele>
        <extensions>
          <visugpx:TrkExtension xmlns:visugpx="https://www.visugpx.com/editgpx/">
            <visugpx:node>430</visugpx:node>
            </visugpx:TrkExtension>
        </extensions>
      </trkpt>
      <trkpt lat="47.59437" lon="7.43464">
        <ele>358.7</ele>
      </trkpt>
      <trkpt lat="47.59434" lon="7.43473">
        <ele>358.6</ele>
      </trkpt>
      <trkpt lat="47.59424" lon="7.43508">
        <ele>358</ele>
      </trkpt>
      <trkpt lat="47.59412" lon="7.43544">
        <ele>359.2</ele>
      </trkpt>
      <trkpt lat="47.59397" lon="7.43581">
        <ele>358.7</ele>
      </trkpt>
      <trkpt lat="47.59373" lon="7.43633">
        <ele>357.7</ele>
      </trkpt>
      <trkpt lat="47.5935" lon="7.43682">
        <ele>356.3</ele>
      </trkpt>
      <trkpt lat="47.5933" lon="7.43712">
        <ele>357.9</ele>
      </trkpt>
      <trkpt lat="47.59315" lon="7.43732">
        <ele>357.6</ele>
      </trkpt>
      <trkpt lat="47.59295" lon="7.43754">
        <ele>355.7</ele>
      </trkpt>
      <trkpt lat="47.59285" lon="7.43767">
        <ele>355.7</ele>
      </trkpt>
      <trkpt lat="47.59274" lon="7.43784">
        <ele>355.5</ele>
      </trkpt>
      <trkpt lat="47.59259" lon="7.43809">
        <ele>355.1</ele>
      </trkpt>
      <trkpt lat="47.5925" lon="7.43826">
        <ele>355.7</ele>
      </trkpt>
      <trkpt lat="47.59242" lon="7.43836">
        <ele>354.7</ele>
      </trkpt>
      <trkpt lat="47.59217" lon="7.43856">
        <ele>354.3</ele>
      </trkpt>
      <trkpt lat="47.59214" lon="7.43859">
        <ele>354.3</ele>
      </trkpt>
      <trkpt lat="47.59182" lon="7.43888">
        <ele>353.9</ele>
      </trkpt>
      <trkpt lat="47.59159" lon="7.43909">
        <ele>354</ele>
      </trkpt>
      <trkpt lat="47.59147" lon="7.43919">
        <ele>352.7</ele>
      </trkpt>
      <trkpt lat="47.59125" lon="7.43942">
        <ele>352.6</ele>
      </trkpt>
      <trkpt lat="47.59099" lon="7.43971">
        <ele>352.1</ele>
      </trkpt>
      <trkpt lat="47.59069" lon="7.44007">
        <ele>349.7</ele>
      </trkpt>
      <trkpt lat="47.5903" lon="7.44055">
        <ele>347.9</ele>
      </trkpt>
      <trkpt lat="47.59015" lon="7.44073">
        <ele>347.1</ele>
      </trkpt>
      <trkpt lat="47.59011" lon="7.44077">
        <ele>346.9</ele>
      </trkpt>
      <trkpt lat="47.59008" lon="7.4408">
        <ele>346.7</ele>
      </trkpt>
      <trkpt lat="47.58982" lon="7.44111">
        <ele>345.2</ele>
      </trkpt>
      <trkpt lat="47.58955" lon="7.44144">
        <ele>344.7</ele>
      </trkpt>
      <trkpt lat="47.58924" lon="7.44182">
        <ele>342.8</ele>
      </trkpt>
      <trkpt lat="47.58919" lon="7.44189">
        <ele>342.5</ele>
      </trkpt>
      <trkpt lat="47.58886" lon="7.44225">
        <ele>340.1</ele>
      </trkpt>
      <trkpt lat="47.58866" lon="7.44249">
        <ele>339.3</ele>
        <extensions>
          <visugpx:TrkExtension xmlns:visugpx="https://www.visugpx.com/editgpx/">
            <visugpx:node>431</visugpx:node>
            </visugpx:TrkExtension>
        </extensions>
      </trkpt>
      <trkpt lat="47.58852" lon="7.44265">
        <ele>336.5</ele>
      </trkpt>
      <trkpt lat="47.58777" lon="7.44334">
        <ele>331</ele>
      </trkpt>
      <trkpt lat="47.58715" lon="7.44403">
        <ele>329</ele>
      </trkpt>
      <trkpt lat="47.58712" lon="7.44405">
        <ele>328.9</ele>
      </trkpt>
      <trkpt lat="47.58708" lon="7.44391">
        <ele>328.9</ele>
      </trkpt>
      <trkpt lat="47.58697" lon="7.44366">
        <ele>328.9</ele>
      </trkpt>
      <trkpt lat="47.58692" lon="7.44358">
        <ele>329</ele>
      </trkpt>
      <trkpt lat="47.58689" lon="7.44361">
        <ele>328.9</ele>
      </trkpt>
      <trkpt lat="47.58644" lon="7.44404">
        <ele>326.4</ele>
      </trkpt>
      <trkpt lat="47.58643" lon="7.44411">
        <ele>326.3</ele>
      </trkpt>
      <trkpt lat="47.58638" lon="7.44455">
        <ele>323.5</ele>
      </trkpt>
      <trkpt lat="47.58637" lon="7.4446">
        <ele>323.4</ele>
      </trkpt>
      <trkpt lat="47.58634" lon="7.44464">
        <ele>323.2</ele>
      </trkpt>
      <trkpt lat="47.58628" lon="7.44467">
        <ele>323.1</ele>
      </trkpt>
      <trkpt lat="47.58624" lon="7.44468">
        <ele>323</ele>
      </trkpt>
      <trkpt lat="47.58621" lon="7.44466">
        <ele>323</ele>
      </trkpt>
      <trkpt lat="47.58604" lon="7.44452">
        <ele>323.1</ele>
      </trkpt>
      <trkpt lat="47.58599" lon="7.44446">
        <ele>323.1</ele>
      </trkpt>
      <trkpt lat="47.5857" lon="7.4448">
        <ele>321.7</ele>
      </trkpt>
      <trkpt lat="47.58565" lon="7.44485">
        <ele>321.7</ele>
      </trkpt>
      <trkpt lat="47.58548" lon="7.44491">
        <ele>321.8</ele>
      </trkpt>
      <trkpt lat="47.58519" lon="7.44493">
        <ele>321.9</ele>
      </trkpt>
      <trkpt lat="47.58498" lon="7.44493">
        <ele>322.6</ele>
      </trkpt>
      <trkpt lat="47.58428" lon="7.44489">
        <ele>326.3</ele>
      </trkpt>
      <trkpt lat="47.58401" lon="7.44459">
        <ele>328.8</ele>
      </trkpt>
      <trkpt lat="47.58373" lon="7.44419">
        <ele>329.4</ele>
      </trkpt>
      <trkpt lat="47.58353" lon="7.4439">
        <ele>329.2</ele>
      </trkpt>
      <trkpt lat="47.58346" lon="7.44387">
        <ele>329.4</ele>
      </trkpt>
      <trkpt lat="47.5821" lon="7.44517">
        <ele>340.6</ele>
      </trkpt>
      <trkpt lat="47.58163" lon="7.4457">
        <ele>343.3</ele>
      </trkpt>
      <trkpt lat="47.58149" lon="7.44585">
        <ele>342.5</ele>
      </trkpt>
      <trkpt lat="47.58143" lon="7.4459">
        <ele>342.4</ele>
      </trkpt>
      <trkpt lat="47.58046" lon="7.44728">
        <ele>341.8</ele>
        <extensions>
          <visugpx:TrkExtension xmlns:visugpx="https://www.visugpx.com/editgpx/">
            <visugpx:node>432</visugpx:node>
            </visugpx:TrkExtension>
        </extensions>
      </trkpt>
      <trkpt lat="47.57748" lon="7.45151">
        <ele>333</ele>
      </trkpt>
      <trkpt lat="47.57724" lon="7.45172">
        <ele>332</ele>
      </trkpt>
      <trkpt lat="47.57715" lon="7.45176">
        <ele>331.8</ele>
      </trkpt>
      <trkpt lat="47.57702" lon="7.45181">
        <ele>331.6</ele>
      </trkpt>
      <trkpt lat="47.5766" lon="7.45175">
        <ele>330.2</ele>
      </trkpt>
      <trkpt lat="47.57613" lon="7.45154">
        <ele>329.3</ele>
      </trkpt>
      <trkpt lat="47.5755" lon="7.45099">
        <ele>328</ele>
      </trkpt>
      <trkpt lat="47.57506" lon="7.45045">
        <ele>329.5</ele>
      </trkpt>
      <trkpt lat="47.57475" lon="7.45004">
        <ele>328.6</ele>
      </trkpt>
      <trkpt lat="47.57447" lon="7.44986">
        <ele>329.9</ele>
      </trkpt>
      <trkpt lat="47.57379" lon="7.44958">
        <ele>330</ele>
      </trkpt>
      <trkpt lat="47.57323" lon="7.4493">
        <ele>331.1</ele>
      </trkpt>
      <trkpt lat="47.57318" lon="7.44927">
        <ele>331</ele>
        <extensions>
          <visugpx:TrkExtension xmlns:visugpx="https://www.visugpx.com/editgpx/">
            <visugpx:node>433</visugpx:node>
            </visugpx:TrkExtension>
        </extensions>
      </trkpt>
      <trkpt lat="47.57257" lon="7.44887">
        <ele>332.2</ele>
      </trkpt>
      <trkpt lat="47.57114" lon="7.44808">
        <ele>335</ele>
      </trkpt>
      <trkpt lat="47.57101" lon="7.44791">
        <ele>335.4</ele>
      </trkpt>
      <trkpt lat="47.56967" lon="7.44771">
        <ele>335.3</ele>
      </trkpt>
      <trkpt lat="47.56897" lon="7.44742">
        <ele>337.1</ele>
      </trkpt>
      <trkpt lat="47.56876" lon="7.4473">
        <ele>337.2</ele>
      </trkpt>
      <trkpt lat="47.56857" lon="7.44712">
        <ele>337.2</ele>
      </trkpt>
      <trkpt lat="47.56786" lon="7.44627">
        <ele>338</ele>
      </trkpt>
      <trkpt lat="47.56772" lon="7.44609">
        <ele>338.2</ele>
      </trkpt>
      <trkpt lat="47.56751" lon="7.44591">
        <ele>338.7</ele>
        <extensions>
          <visugpx:TrkExtension xmlns:visugpx="https://www.visugpx.com/editgpx/">
            <visugpx:node>435</visugpx:node>
            </visugpx:TrkExtension>
        </extensions>
      </trkpt>
      <trkpt lat="47.56723" lon="7.44566">
        <ele>341.5</ele>
      </trkpt>
      <trkpt lat="47.56699" lon="7.44536">
        <ele>342.5</ele>
      </trkpt>
      <trkpt lat="47.56682" lon="7.44515">
        <ele>343.1</ele>
      </trkpt>
      <trkpt lat="47.56647" lon="7.44471">
        <ele>346.2</ele>
      </trkpt>
      <trkpt lat="47.56604" lon="7.4441">
        <ele>350.2</ele>
      </trkpt>
      <trkpt lat="47.566" lon="7.44404">
        <ele>350.2</ele>
      </trkpt>
      <trkpt lat="47.56599" lon="7.44409">
        <ele>350.1</ele>
      </trkpt>
      <trkpt lat="47.56595" lon="7.44416">
        <ele>349.8</ele>
      </trkpt>
      <trkpt lat="47.56584" lon="7.44427">
        <ele>348.2</ele>
      </trkpt>
      <trkpt lat="47.5657" lon="7.44443">
        <ele>347.9</ele>
        <extensions>
          <visugpx:TrkExtension xmlns:visugpx="https://www.visugpx.com/editgpx/">
            <visugpx:node>436</visugpx:node>
            </visugpx:TrkExtension>
        </extensions>
      </trkpt>
      <trkpt lat="47.56533" lon="7.44482">
        <ele>347.8</ele>
      </trkpt>
      <trkpt lat="47.56531" lon="7.44485">
        <ele>347.8</ele>
      </trkpt>
      <trkpt lat="47.5653" lon="7.44489">
        <ele>347.8</ele>
      </trkpt>
      <trkpt lat="47.56531" lon="7.44494">
        <ele>347.8</ele>
      </trkpt>
      <trkpt lat="47.56532" lon="7.44499">
        <ele>347.8</ele>
      </trkpt>
      <trkpt lat="47.56571" lon="7.44572">
        <ele>344.8</ele>
      </trkpt>
      <trkpt lat="47.56584" lon="7.4459">
        <ele>343</ele>
      </trkpt>
      <trkpt lat="47.56594" lon="7.44602">
        <ele>343</ele>
      </trkpt>
      <trkpt lat="47.56603" lon="7.44614">
        <ele>343</ele>
      </trkpt>
      <trkpt lat="47.56617" lon="7.44634">
        <ele>342.9</ele>
      </trkpt>
      <trkpt lat="47.56623" lon="7.44643">
        <ele>342.8</ele>
      </trkpt>
      <trkpt lat="47.56628" lon="7.44653">
        <ele>342.6</ele>
      </trkpt>
      <trkpt lat="47.56635" lon="7.44669">
        <ele>342.5</ele>
      </trkpt>
      <trkpt lat="47.56648" lon="7.4471">
        <ele>342.7</ele>
      </trkpt>
      <trkpt lat="47.5665" lon="7.44722">
        <ele>342.8</ele>
      </trkpt>
      <trkpt lat="47.56651" lon="7.44744">
        <ele>342.6</ele>
      </trkpt>
      <trkpt lat="47.56648" lon="7.44768">
        <ele>343.2</ele>
      </trkpt>
      <trkpt lat="47.56631" lon="7.44839">
        <ele>344.1</ele>
      </trkpt>
      <trkpt lat="47.56631" lon="7.44848">
        <ele>344.2</ele>
      </trkpt>
      <trkpt lat="47.56627" lon="7.44849">
        <ele>344.4</ele>
      </trkpt>
      <trkpt lat="47.5662" lon="7.44851">
        <ele>344.5</ele>
      </trkpt>
      <trkpt lat="47.56615" lon="7.44856">
        <ele>344.7</ele>
      </trkpt>
      <trkpt lat="47.56571" lon="7.4494">
        <ele>349.9</ele>
      </trkpt>
      <trkpt lat="47.56565" lon="7.44948">
        <ele>350.5</ele>
      </trkpt>
      <trkpt lat="47.56561" lon="7.44953">
        <ele>350.8</ele>
      </trkpt>
      <trkpt lat="47.56444" lon="7.45055">
        <ele>366.1</ele>
      </trkpt>
      <trkpt lat="47.564" lon="7.45092">
        <ele>375</ele>
        <extensions>
          <visugpx:TrkExtension xmlns:visugpx="https://www.visugpx.com/editgpx/">
            <visugpx:node>437</visugpx:node>
            </visugpx:TrkExtension>
        </extensions>
      </trkpt>
      <trkpt lat="47.56313" lon="7.45163">
        <ele>379.5</ele>
      </trkpt>
      <trkpt lat="47.56307" lon="7.45171">
        <ele>382.2</ele>
      </trkpt>
      <trkpt lat="47.56303" lon="7.45183">
        <ele>382.5</ele>
      </trkpt>
      <trkpt lat="47.56302" lon="7.45194">
        <ele>382.7</ele>
      </trkpt>
      <trkpt lat="47.56296" lon="7.45196">
        <ele>382.8</ele>
      </trkpt>
      <trkpt lat="47.56285" lon="7.45201">
        <ele>382.9</ele>
      </trkpt>
      <trkpt lat="47.56276" lon="7.45206">
        <ele>383</ele>
      </trkpt>
      <trkpt lat="47.56273" lon="7.45209">
        <ele>383.1</ele>
      </trkpt>
      <trkpt lat="47.56264" lon="7.45218">
        <ele>383.4</ele>
      </trkpt>
      <trkpt lat="47.56261" lon="7.45223">
        <ele>383.6</ele>
      </trkpt>
      <trkpt lat="47.56259" lon="7.45228">
        <ele>383.7</ele>
      </trkpt>
      <trkpt lat="47.56254" lon="7.45256">
        <ele>384.9</ele>
      </trkpt>
      <trkpt lat="47.56251" lon="7.45266">
        <ele>384.8</ele>
      </trkpt>
      <trkpt lat="47.56259" lon="7.45298">
        <ele>384.6</ele>
      </trkpt>
      <trkpt lat="47.56274" lon="7.45323">
        <ele>384.6</ele>
      </trkpt>
      <trkpt lat="47.56301" lon="7.45336">
        <ele>384.9</ele>
      </trkpt>
      <trkpt lat="47.56339" lon="7.45387">
        <ele>385.1</ele>
      </trkpt>
      <trkpt lat="47.56381" lon="7.45438">
        <ele>383.6</ele>
        <extensions>
          <visugpx:TrkExtension xmlns:visugpx="https://www.visugpx.com/editgpx/">
            <visugpx:node>438</visugpx:node>
            </visugpx:TrkExtension>
        </extensions>
      </trkpt>
      <trkpt lat="47.56425" lon="7.45492">
        <ele>382.2</ele>
      </trkpt>
      <trkpt lat="47.56524" lon="7.45583">
        <ele>378</ele>
      </trkpt>
      <trkpt lat="47.56539" lon="7.45604">
        <ele>376.9</ele>
      </trkpt>
      <trkpt lat="47.56542" lon="7.45612">
        <ele>376.9</ele>
      </trkpt>
      <trkpt lat="47.56547" lon="7.45625">
        <ele>376.8</ele>
      </trkpt>
      <trkpt lat="47.56567" lon="7.45699">
        <ele>375.3</ele>
      </trkpt>
      <trkpt lat="47.56569" lon="7.45709">
        <ele>375.2</ele>
      </trkpt>
      <trkpt lat="47.56573" lon="7.45736">
        <ele>374.7</ele>
      </trkpt>
      <trkpt lat="47.56605" lon="7.45997">
        <ele>369.6</ele>
        <extensions>
          <visugpx:TrkExtension xmlns:visugpx="https://www.visugpx.com/editgpx/">
            <visugpx:node>439</visugpx:node>
            </visugpx:TrkExtension>
        </extensions>
      </trkpt>
      <trkpt lat="47.5661" lon="7.46031">
        <ele>367.9</ele>
      </trkpt>
      <trkpt lat="47.56611" lon="7.4604">
        <ele>367.8</ele>
      </trkpt>
      <trkpt lat="47.56613" lon="7.46049">
        <ele>367.6</ele>
      </trkpt>
      <trkpt lat="47.56622" lon="7.46074">
        <ele>367.4</ele>
      </trkpt>
      <trkpt lat="47.56634" lon="7.461">
        <ele>366.2</ele>
      </trkpt>
      <trkpt lat="47.56638" lon="7.46113">
        <ele>366.1</ele>
      </trkpt>
      <trkpt lat="47.5664" lon="7.4613">
        <ele>366</ele>
      </trkpt>
      <trkpt lat="47.56639" lon="7.46174">
        <ele>364.9</ele>
      </trkpt>
      <trkpt lat="47.56637" lon="7.46199">
        <ele>364.4</ele>
      </trkpt>
      <trkpt lat="47.56636" lon="7.46201">
        <ele>364.4</ele>
      </trkpt>
      <trkpt lat="47.56636" lon="7.46206">
        <ele>364.3</ele>
      </trkpt>
      <trkpt lat="47.56635" lon="7.4621">
        <ele>364.2</ele>
      </trkpt>
      <trkpt lat="47.56633" lon="7.46207">
        <ele>364.2</ele>
      </trkpt>
      <trkpt lat="47.56504" lon="7.46226">
        <ele>362.2</ele>
      </trkpt>
      <trkpt lat="47.56492" lon="7.46229">
        <ele>362.9</ele>
      </trkpt>
      <trkpt lat="47.56482" lon="7.46233">
        <ele>363</ele>
      </trkpt>
      <trkpt lat="47.56479" lon="7.46234">
        <ele>363.1</ele>
      </trkpt>
      <trkpt lat="47.56402" lon="7.46259">
        <ele>365.9</ele>
      </trkpt>
      <trkpt lat="47.5632" lon="7.46277">
        <ele>370.4</ele>
        <extensions>
          <visugpx:TrkExtension xmlns:visugpx="https://www.visugpx.com/editgpx/">
            <visugpx:node>440</visugpx:node>
            </visugpx:TrkExtension>
        </extensions>
      </trkpt>
      <trkpt lat="47.5631" lon="7.46279">
        <ele>370.5</ele>
      </trkpt>
      <trkpt lat="47.56104" lon="7.46322">
        <ele>378.2</ele>
      </trkpt>
      <trkpt lat="47.56047" lon="7.46334">
        <ele>378.4</ele>
      </trkpt>
      <trkpt lat="47.5601" lon="7.46347">
        <ele>378.5</ele>
      </trkpt>
      <trkpt lat="47.55826" lon="7.464">
        <ele>371.1</ele>
      </trkpt>
      <trkpt lat="47.55812" lon="7.46404">
        <ele>371.3</ele>
      </trkpt>
      <trkpt lat="47.55778" lon="7.46412">
        <ele>372.1</ele>
      </trkpt>
      <trkpt lat="47.55748" lon="7.46424">
        <ele>372.8</ele>
      </trkpt>
      <trkpt lat="47.55683" lon="7.46459">
        <ele>372.4</ele>
      </trkpt>
      <trkpt lat="47.55601" lon="7.46514">
        <ele>376.2</ele>
      </trkpt>
      <trkpt lat="47.55492" lon="7.46597">
        <ele>387.6</ele>
      </trkpt>
      <trkpt lat="47.55488" lon="7.46599">
        <ele>387.7</ele>
      </trkpt>
      <trkpt lat="47.55491" lon="7.46618">
        <ele>387.9</ele>
      </trkpt>
      <trkpt lat="47.55496" lon="7.46651">
        <ele>388.1</ele>
      </trkpt>
      <trkpt lat="47.5549" lon="7.46654">
        <ele>388.1</ele>
      </trkpt>
      <trkpt lat="47.55479" lon="7.46664">
        <ele>388.2</ele>
      </trkpt>
      <trkpt lat="47.55447" lon="7.46684">
        <ele>388.6</ele>
      </trkpt>
      <trkpt lat="47.55432" lon="7.46701">
        <ele>388.8</ele>
      </trkpt>
      <trkpt lat="47.55411" lon="7.46735">
        <ele>388.8</ele>
      </trkpt>
      <trkpt lat="47.55403" lon="7.46745">
        <ele>388.8</ele>
      </trkpt>
      <trkpt lat="47.55361" lon="7.46773">
        <ele>386.5</ele>
      </trkpt>
      <trkpt lat="47.55327" lon="7.46807">
        <ele>382.6</ele>
      </trkpt>
      <trkpt lat="47.55259" lon="7.46841">
        <ele>379.1</ele>
        <extensions>
          <visugpx:TrkExtension xmlns:visugpx="https://www.visugpx.com/editgpx/">
            <visugpx:node>441</visugpx:node>
            </visugpx:TrkExtension>
        </extensions>
      </trkpt>
      <trkpt lat="47.55201" lon="7.4687">
        <ele>374.5</ele>
      </trkpt>
      <trkpt lat="47.55122" lon="7.46887">
        <ele>366.5</ele>
      </trkpt>
      <trkpt lat="47.55115" lon="7.4689">
        <ele>366.1</ele>
      </trkpt>
      <trkpt lat="47.55103" lon="7.46898">
        <ele>365.2</ele>
      </trkpt>
      <trkpt lat="47.55091" lon="7.46919">
        <ele>363.4</ele>
      </trkpt>
      <trkpt lat="47.55045" lon="7.47024">
        <ele>359.2</ele>
      </trkpt>
      <trkpt lat="47.55022" lon="7.47062">
        <ele>357.4</ele>
      </trkpt>
      <trkpt lat="47.55009" lon="7.47077">
        <ele>355.7</ele>
      </trkpt>
      <trkpt lat="47.55004" lon="7.47084">
        <ele>354.5</ele>
      </trkpt>
      <trkpt lat="47.55001" lon="7.47094">
        <ele>355.1</ele>
      </trkpt>
      <trkpt lat="47.54998" lon="7.47106">
        <ele>353.2</ele>
      </trkpt>
      <trkpt lat="47.5499" lon="7.47186">
        <ele>352.9</ele>
      </trkpt>
      <trkpt lat="47.54986" lon="7.47202">
        <ele>352.6</ele>
      </trkpt>
      <trkpt lat="47.54983" lon="7.47214">
        <ele>352.6</ele>
      </trkpt>
      <trkpt lat="47.54959" lon="7.47283">
        <ele>351.6</ele>
      </trkpt>
      <trkpt lat="47.54889" lon="7.4742">
        <ele>344.4</ele>
      </trkpt>
      <trkpt lat="47.54887" lon="7.47424">
        <ele>344.4</ele>
      </trkpt>
      <trkpt lat="47.54883" lon="7.47428">
        <ele>344.3</ele>
      </trkpt>
      <trkpt lat="47.54814" lon="7.4749">
        <ele>345.2</ele>
      </trkpt>
      <trkpt lat="47.54809" lon="7.47494">
        <ele>345.4</ele>
      </trkpt>
      <trkpt lat="47.54808" lon="7.47495">
        <ele>345.5</ele>
      </trkpt>
      <trkpt lat="47.54805" lon="7.47501">
        <ele>346</ele>
      </trkpt>
      <trkpt lat="47.54802" lon="7.47511">
        <ele>346.3</ele>
      </trkpt>
      <trkpt lat="47.54799" lon="7.47541">
        <ele>346.9</ele>
      </trkpt>
      <trkpt lat="47.54798" lon="7.47571">
        <ele>347</ele>
      </trkpt>
      <trkpt lat="47.54798" lon="7.47588">
        <ele>348.2</ele>
      </trkpt>
      <trkpt lat="47.54798" lon="7.47598">
        <ele>348.4</ele>
      </trkpt>
      <trkpt lat="47.54799" lon="7.47605">
        <ele>348.4</ele>
      </trkpt>
      <trkpt lat="47.5481" lon="7.47662">
        <ele>348</ele>
      </trkpt>
      <trkpt lat="47.54816" lon="7.47686">
        <ele>349.1</ele>
      </trkpt>
      <trkpt lat="47.54836" lon="7.47733">
        <ele>345.1</ele>
      </trkpt>
      <trkpt lat="47.54861" lon="7.47807">
        <ele>344.2</ele>
      </trkpt>
      <trkpt lat="47.54875" lon="7.47837">
        <ele>343.8</ele>
      </trkpt>
      <trkpt lat="47.5488" lon="7.47848">
        <ele>343.6</ele>
      </trkpt>
      <trkpt lat="47.54889" lon="7.47859">
        <ele>343.3</ele>
      </trkpt>
      <trkpt lat="47.54895" lon="7.47865">
        <ele>343.2</ele>
      </trkpt>
      <trkpt lat="47.54905" lon="7.4788">
        <ele>343.1</ele>
      </trkpt>
      <trkpt lat="47.54914" lon="7.479">
        <ele>342.8</ele>
      </trkpt>
      <trkpt lat="47.54917" lon="7.4791">
        <ele>341.4</ele>
      </trkpt>
      <trkpt lat="47.5493" lon="7.47954">
        <ele>340.9</ele>
      </trkpt>
      <trkpt lat="47.54935" lon="7.47962">
        <ele>340.9</ele>
      </trkpt>
      <trkpt lat="47.54938" lon="7.47965">
        <ele>340.8</ele>
      </trkpt>
      <trkpt lat="47.54938" lon="7.4797">
        <ele>340.9</ele>
      </trkpt>
      <trkpt lat="47.54936" lon="7.47989">
        <ele>341.4</ele>
      </trkpt>
      <trkpt lat="47.54936" lon="7.48007">
        <ele>342.4</ele>
      </trkpt>
      <trkpt lat="47.54935" lon="7.48014">
        <ele>342.4</ele>
      </trkpt>
      <trkpt lat="47.54925" lon="7.48066">
        <ele>343.9</ele>
      </trkpt>
      <trkpt lat="47.54917" lon="7.48088">
        <ele>345.8</ele>
      </trkpt>
      <trkpt lat="47.549" lon="7.48122">
        <ele>348.9</ele>
      </trkpt>
      <trkpt lat="47.54898" lon="7.48128">
        <ele>349.1</ele>
      </trkpt>
      <trkpt lat="47.54879" lon="7.48172">
        <ele>352.5</ele>
      </trkpt>
      <trkpt lat="47.54873" lon="7.48191">
        <ele>353.1</ele>
      </trkpt>
      <trkpt lat="47.54866" lon="7.48218">
        <ele>354.1</ele>
      </trkpt>
      <trkpt lat="47.54853" lon="7.48297">
        <ele>358.7</ele>
      </trkpt>
      <trkpt lat="47.54844" lon="7.48328">
        <ele>361</ele>
      </trkpt>
      <trkpt lat="47.54831" lon="7.48361">
        <ele>364.3</ele>
      </trkpt>
      <trkpt lat="47.54821" lon="7.48389">
        <ele>364.6</ele>
      </trkpt>
      <trkpt lat="47.54804" lon="7.48435">
        <ele>364.7</ele>
      </trkpt>
      <trkpt lat="47.54793" lon="7.48455">
        <ele>364.8</ele>
      </trkpt>
      <trkpt lat="47.54745" lon="7.48517">
        <ele>364.7</ele>
      </trkpt>
      <trkpt lat="47.54742" lon="7.48521">
        <ele>364.8</ele>
      </trkpt>
      <trkpt lat="47.54732" lon="7.48533">
        <ele>365.1</ele>
      </trkpt>
      <trkpt lat="47.54613" lon="7.48688">
        <ele>373.3</ele>
      </trkpt>
      <trkpt lat="47.54603" lon="7.48703">
        <ele>373.7</ele>
      </trkpt>
      <trkpt lat="47.54597" lon="7.48721">
        <ele>374.2</ele>
      </trkpt>
      <trkpt lat="47.54593" lon="7.4873">
        <ele>374.7</ele>
      </trkpt>
      <trkpt lat="47.54588" lon="7.48747">
        <ele>376.2</ele>
      </trkpt>
      <trkpt lat="47.54561" lon="7.4884">
        <ele>376.1</ele>
        <extensions>
          <visugpx:TrkExtension xmlns:visugpx="https://www.visugpx.com/editgpx/">
            <visugpx:node>442</visugpx:node>
            </visugpx:TrkExtension>
        </extensions>
      </trkpt>
      <trkpt lat="47.54559" lon="7.48847">
        <ele>376.1</ele>
      </trkpt>
      <trkpt lat="47.54549" lon="7.48871">
        <ele>376</ele>
      </trkpt>
      <trkpt lat="47.54438" lon="7.49058">
        <ele>372.3</ele>
      </trkpt>
      <trkpt lat="47.54429" lon="7.49072">
        <ele>371.9</ele>
      </trkpt>
      <trkpt lat="47.54419" lon="7.49087">
        <ele>371</ele>
      </trkpt>
      <trkpt lat="47.54396" lon="7.49116">
        <ele>373.1</ele>
      </trkpt>
      <trkpt lat="47.54383" lon="7.49138">
        <ele>373.4</ele>
      </trkpt>
      <trkpt lat="47.54353" lon="7.49223">
        <ele>373.9</ele>
      </trkpt>
      <trkpt lat="47.54341" lon="7.49244">
        <ele>375.1</ele>
      </trkpt>
      <trkpt lat="47.54338" lon="7.49247">
        <ele>375.4</ele>
      </trkpt>
      <trkpt lat="47.54335" lon="7.49248">
        <ele>375.7</ele>
      </trkpt>
      <trkpt lat="47.54333" lon="7.49247">
        <ele>375.8</ele>
      </trkpt>
      <trkpt lat="47.54325" lon="7.49229">
        <ele>374.9</ele>
      </trkpt>
      <trkpt lat="47.5432" lon="7.49207">
        <ele>374.8</ele>
      </trkpt>
      <trkpt lat="47.54264" lon="7.48937">
        <ele>380.7</ele>
      </trkpt>
      <trkpt lat="47.54239" lon="7.48829">
        <ele>381.2</ele>
      </trkpt>
      <trkpt lat="47.54222" lon="7.48772">
        <ele>380.7</ele>
      </trkpt>
      <trkpt lat="47.542" lon="7.48706">
        <ele>381.7</ele>
      </trkpt>
      <trkpt lat="47.54172" lon="7.48634">
        <ele>383.8</ele>
      </trkpt>
      <trkpt lat="47.54145" lon="7.48581">
        <ele>385.4</ele>
      </trkpt>
      <trkpt lat="47.54134" lon="7.48565">
        <ele>385.1</ele>
      </trkpt>
      <trkpt lat="47.54087" lon="7.48495">
        <ele>386.4</ele>
        <extensions>
          <visugpx:TrkExtension xmlns:visugpx="https://www.visugpx.com/editgpx/">
            <visugpx:node>443</visugpx:node>
            </visugpx:TrkExtension>
        </extensions>
      </trkpt>
      <trkpt lat="47.54071" lon="7.48471">
        <ele>386.1</ele>
      </trkpt>
      <trkpt lat="47.53929" lon="7.48273">
        <ele>389.4</ele>
      </trkpt>
      <trkpt lat="47.53921" lon="7.4827">
        <ele>389.3</ele>
      </trkpt>
      <trkpt lat="47.53905" lon="7.48264">
        <ele>387</ele>
      </trkpt>
      <trkpt lat="47.53864" lon="7.48247">
        <ele>387.2</ele>
      </trkpt>
      <trkpt lat="47.53835" lon="7.48236">
        <ele>385.9</ele>
      </trkpt>
      <trkpt lat="47.53803" lon="7.48222">
        <ele>384.4</ele>
      </trkpt>
      <trkpt lat="47.53681" lon="7.48174">
        <ele>384.2</ele>
      </trkpt>
      <trkpt lat="47.53667" lon="7.48167">
        <ele>385</ele>
      </trkpt>
      <trkpt lat="47.53651" lon="7.48156">
        <ele>384.8</ele>
      </trkpt>
      <trkpt lat="47.53574" lon="7.48078">
        <ele>384.4</ele>
      </trkpt>
      <trkpt lat="47.53557" lon="7.48071">
        <ele>383.6</ele>
      </trkpt>
      <trkpt lat="47.53401" lon="7.48085">
        <ele>372.7</ele>
      </trkpt>
      <trkpt lat="47.53301" lon="7.48049">
        <ele>368.8</ele>
      </trkpt>
      <trkpt lat="47.53168" lon="7.47999">
        <ele>364.3</ele>
      </trkpt>
      <trkpt lat="47.5312" lon="7.47981">
        <ele>363.5</ele>
      </trkpt>
      <trkpt lat="47.53118" lon="7.4798">
        <ele>363.5</ele>
      </trkpt>
      <trkpt lat="47.53091" lon="7.47973">
        <ele>362.9</ele>
      </trkpt>
      <trkpt lat="47.53055" lon="7.47959">
        <ele>360.6</ele>
      </trkpt>
      <trkpt lat="47.53018" lon="7.47946">
        <ele>359.8</ele>
      </trkpt>
      <trkpt lat="47.52923" lon="7.47909">
        <ele>355</ele>
      </trkpt>
      <trkpt lat="47.52913" lon="7.47917">
        <ele>354</ele>
      </trkpt>
      <trkpt lat="47.52909" lon="7.47923">
        <ele>354</ele>
      </trkpt>
      <trkpt lat="47.52898" lon="7.47913">
        <ele>354.6</ele>
      </trkpt>
      <trkpt lat="47.52892" lon="7.47909">
        <ele>354.8</ele>
      </trkpt>
      <trkpt lat="47.52884" lon="7.47905">
        <ele>354.9</ele>
      </trkpt>
      <trkpt lat="47.52876" lon="7.47903">
        <ele>355</ele>
      </trkpt>
      <trkpt lat="47.52856" lon="7.47902">
        <ele>355.1</ele>
      </trkpt>
      <trkpt lat="47.52804" lon="7.47918">
        <ele>355.1</ele>
      </trkpt>
      <trkpt lat="47.52785" lon="7.47921">
        <ele>355.3</ele>
      </trkpt>
      <trkpt lat="47.52777" lon="7.47921">
        <ele>355.5</ele>
      </trkpt>
      <trkpt lat="47.52739" lon="7.47922">
        <ele>356.3</ele>
      </trkpt>
      <trkpt lat="47.52673" lon="7.47919">
        <ele>355.1</ele>
      </trkpt>
      <trkpt lat="47.5264" lon="7.47914">
        <ele>356</ele>
      </trkpt>
      <trkpt lat="47.52631" lon="7.47913">
        <ele>356.1</ele>
      </trkpt>
      <trkpt lat="47.52613" lon="7.47911">
        <ele>356.1</ele>
      </trkpt>
      <trkpt lat="47.52609" lon="7.4791">
        <ele>356</ele>
      </trkpt>
      <trkpt lat="47.52606" lon="7.47909">
        <ele>356</ele>
      </trkpt>
      <trkpt lat="47.52603" lon="7.47906">
        <ele>356</ele>
      </trkpt>
      <trkpt lat="47.52557" lon="7.47865">
        <ele>356.3</ele>
      </trkpt>
      <trkpt lat="47.52532" lon="7.47846">
        <ele>356.2</ele>
      </trkpt>
      <trkpt lat="47.52522" lon="7.47838">
        <ele>356.1</ele>
      </trkpt>
      <trkpt lat="47.52508" lon="7.47824">
        <ele>357.2</ele>
      </trkpt>
      <trkpt lat="47.52501" lon="7.47815">
        <ele>357.6</ele>
      </trkpt>
      <trkpt lat="47.52482" lon="7.47793">
        <ele>358</ele>
      </trkpt>
      <trkpt lat="47.52446" lon="7.4775">
        <ele>360</ele>
      </trkpt>
      <trkpt lat="47.52404" lon="7.4771">
        <ele>360.6</ele>
      </trkpt>
      <trkpt lat="47.52369" lon="7.47677">
        <ele>360.7</ele>
      </trkpt>
      <trkpt lat="47.52368" lon="7.47677">
        <ele>360.7</ele>
      </trkpt>
      <trkpt lat="47.52365" lon="7.47677">
        <ele>360.7</ele>
      </trkpt>
      <trkpt lat="47.52364" lon="7.47673">
        <ele>360.7</ele>
      </trkpt>
      <trkpt lat="47.52351" lon="7.47654">
        <ele>361.8</ele>
      </trkpt>
      <trkpt lat="47.5233" lon="7.47632">
        <ele>361.3</ele>
      </trkpt>
      <trkpt lat="47.52314" lon="7.47613">
        <ele>361.4</ele>
      </trkpt>
      <trkpt lat="47.5231" lon="7.47609">
        <ele>361.4</ele>
      </trkpt>
      <trkpt lat="47.52306" lon="7.47604">
        <ele>361.4</ele>
      </trkpt>
      <trkpt lat="47.5233" lon="7.4757">
        <ele>362.1</ele>
      </trkpt>
      <trkpt lat="47.52333" lon="7.47571">
        <ele>362.1</ele>
      </trkpt>
      <trkpt lat="47.52342" lon="7.47556">
        <ele>362.9</ele>
      </trkpt>
      <trkpt lat="47.52328" lon="7.4753">
        <ele>362.6</ele>
      </trkpt>
      <trkpt lat="47.52288" lon="7.47471">
        <ele>363.1</ele>
      </trkpt>
      <trkpt lat="47.52277" lon="7.47454">
        <ele>363.1</ele>
      </trkpt>
      <trkpt lat="47.52255" lon="7.47407">
        <ele>363.7</ele>
      </trkpt>
      <trkpt lat="47.52238" lon="7.47368">
        <ele>364.1</ele>
      </trkpt>
      <trkpt lat="47.52207" lon="7.47313">
        <ele>365.8</ele>
      </trkpt>
      <trkpt lat="47.52175" lon="7.47252">
        <ele>366.7</ele>
      </trkpt>
      <trkpt lat="47.5216" lon="7.47217">
        <ele>366.9</ele>
      </trkpt>
      <trkpt lat="47.52147" lon="7.47183">
        <ele>367.2</ele>
      </trkpt>
      <trkpt lat="47.52109" lon="7.4709">
        <ele>369.3</ele>
        <extensions>
          <visugpx:TrkExtension xmlns:visugpx="https://www.visugpx.com/editgpx/">
            <visugpx:node>444</visugpx:node>
            </visugpx:TrkExtension>
        </extensions>
      </trkpt>
      <trkpt lat="47.52076" lon="7.47009">
        <ele>371.5</ele>
      </trkpt>
      <trkpt lat="47.52065" lon="7.46966">
        <ele>372.1</ele>
      </trkpt>
      <trkpt lat="47.52065" lon="7.46932">
        <ele>372.4</ele>
      </trkpt>
      <trkpt lat="47.52067" lon="7.46913">
        <ele>373.6</ele>
      </trkpt>
      <trkpt lat="47.52068" lon="7.46908">
        <ele>373.6</ele>
      </trkpt>
      <trkpt lat="47.52065" lon="7.46907">
        <ele>373.7</ele>
      </trkpt>
      <trkpt lat="47.5204" lon="7.46902">
        <ele>373.7</ele>
      </trkpt>
      <trkpt lat="47.52029" lon="7.469">
        <ele>373.6</ele>
      </trkpt>
      <trkpt lat="47.52022" lon="7.46898">
        <ele>373.5</ele>
      </trkpt>
      <trkpt lat="47.5198" lon="7.46889">
        <ele>373.6</ele>
      </trkpt>
      <trkpt lat="47.5197" lon="7.46887">
        <ele>373.7</ele>
      </trkpt>
      <trkpt lat="47.51964" lon="7.46901">
        <ele>373.5</ele>
      </trkpt>
      <trkpt lat="47.51962" lon="7.4691">
        <ele>373.4</ele>
      </trkpt>
      <trkpt lat="47.5196" lon="7.46917">
        <ele>372</ele>
      </trkpt>
      <trkpt lat="47.51928" lon="7.46915">
        <ele>373.3</ele>
      </trkpt>
      <trkpt lat="47.51884" lon="7.46897">
        <ele>373.6</ele>
      </trkpt>
      <trkpt lat="47.51853" lon="7.4689">
        <ele>373.3</ele>
      </trkpt>
      <trkpt lat="47.51793" lon="7.46882">
        <ele>372.4</ele>
      </trkpt>
      <trkpt lat="47.51771" lon="7.46863">
        <ele>372.4</ele>
      </trkpt>
      <trkpt lat="47.51748" lon="7.46854">
        <ele>371.6</ele>
      </trkpt>
      <trkpt lat="47.51664" lon="7.46842">
        <ele>373</ele>
      </trkpt>
      <trkpt lat="47.51597" lon="7.46811">
        <ele>375</ele>
      </trkpt>
      <trkpt lat="47.51586" lon="7.46812">
        <ele>375</ele>
      </trkpt>
      <trkpt lat="47.51561" lon="7.46839">
        <ele>378</ele>
      </trkpt>
      <trkpt lat="47.51534" lon="7.46848">
        <ele>380.2</ele>
      </trkpt>
      <trkpt lat="47.51475" lon="7.4686">
        <ele>393.5</ele>
      </trkpt>
      <trkpt lat="47.51461" lon="7.4686">
        <ele>395.7</ele>
      </trkpt>
      <trkpt lat="47.51439" lon="7.46831">
        <ele>398.9</ele>
      </trkpt>
      <trkpt lat="47.51412" lon="7.46793">
        <ele>410.3</ele>
      </trkpt>
      <trkpt lat="47.51364" lon="7.46769">
        <ele>413.6</ele>
      </trkpt>
      <trkpt lat="47.5133" lon="7.46756">
        <ele>420</ele>
      </trkpt>
      <trkpt lat="47.51288" lon="7.46727">
        <ele>420.7</ele>
      </trkpt>
      <trkpt lat="47.51273" lon="7.46702">
        <ele>420.6</ele>
      </trkpt>
      <trkpt lat="47.5126" lon="7.46673">
        <ele>421.1</ele>
      </trkpt>
      <trkpt lat="47.51229" lon="7.46583">
        <ele>427.1</ele>
      </trkpt>
      <trkpt lat="47.51221" lon="7.46576">
        <ele>429.1</ele>
      </trkpt>
      <trkpt lat="47.51215" lon="7.46582">
        <ele>430.3</ele>
      </trkpt>
      <trkpt lat="47.51212" lon="7.46599">
        <ele>430.4</ele>
      </trkpt>
      <trkpt lat="47.51214" lon="7.46628">
        <ele>430.3</ele>
      </trkpt>
      <trkpt lat="47.51227" lon="7.46703">
        <ele>431.1</ele>
      </trkpt>
      <trkpt lat="47.5123" lon="7.46735">
        <ele>431.2</ele>
      </trkpt>
      <trkpt lat="47.51229" lon="7.46752">
        <ele>433.8</ele>
      </trkpt>
      <trkpt lat="47.51225" lon="7.46763">
        <ele>435.1</ele>
      </trkpt>
      <trkpt lat="47.51219" lon="7.46768">
        <ele>436.1</ele>
      </trkpt>
      <trkpt lat="47.51208" lon="7.46766">
        <ele>437.2</ele>
      </trkpt>
      <trkpt lat="47.51194" lon="7.46759">
        <ele>438.5</ele>
      </trkpt>
      <trkpt lat="47.51134" lon="7.46719">
        <ele>445.7</ele>
      </trkpt>
      <trkpt lat="47.5111" lon="7.46702">
        <ele>447.2</ele>
      </trkpt>
      <trkpt lat="47.51089" lon="7.46692">
        <ele>448.6</ele>
      </trkpt>
      <trkpt lat="47.51068" lon="7.46698">
        <ele>450.7</ele>
      </trkpt>
      <trkpt lat="47.51016" lon="7.4678">
        <ele>448.8</ele>
      </trkpt>
      <trkpt lat="47.50954" lon="7.46787">
        <ele>440.6</ele>
      </trkpt>
      <trkpt lat="47.50933" lon="7.46779">
        <ele>439.7</ele>
      </trkpt>
      <trkpt lat="47.50903" lon="7.46743">
        <ele>437.4</ele>
      </trkpt>
      <trkpt lat="47.50899" lon="7.46757">
        <ele>433.7</ele>
      </trkpt>
      <trkpt lat="47.50896" lon="7.46766">
        <ele>432.5</ele>
      </trkpt>
      <trkpt lat="47.5089" lon="7.46774">
        <ele>431.2</ele>
      </trkpt>
      <trkpt lat="47.50869" lon="7.46793">
        <ele>428.5</ele>
      </trkpt>
      <trkpt lat="47.50855" lon="7.46813">
        <ele>425.8</ele>
      </trkpt>
      <trkpt lat="47.5085" lon="7.46823">
        <ele>424</ele>
      </trkpt>
      <trkpt lat="47.50848" lon="7.46844">
        <ele>420.5</ele>
      </trkpt>
      <trkpt lat="47.50848" lon="7.46858">
        <ele>420.9</ele>
      </trkpt>
      <trkpt lat="47.50848" lon="7.46874">
        <ele>420.7</ele>
      </trkpt>
      <trkpt lat="47.50852" lon="7.469">
        <ele>419.3</ele>
      </trkpt>
      <trkpt lat="47.50851" lon="7.46907">
        <ele>418.6</ele>
      </trkpt>
      <trkpt lat="47.50848" lon="7.46912">
        <ele>417.6</ele>
      </trkpt>
      <trkpt lat="47.50832" lon="7.46927">
        <ele>410.9</ele>
      </trkpt>
      <trkpt lat="47.50801" lon="7.46951">
        <ele>407.4</ele>
      </trkpt>
      <trkpt lat="47.50785" lon="7.46969">
        <ele>406.2</ele>
      </trkpt>
      <trkpt lat="47.50779" lon="7.46983">
        <ele>405.4</ele>
      </trkpt>
      <trkpt lat="47.50761" lon="7.47052">
        <ele>401.9</ele>
      </trkpt>
      <trkpt lat="47.50701" lon="7.47241">
        <ele>385.1</ele>
      </trkpt>
      <trkpt lat="47.50676" lon="7.47328">
        <ele>379.3</ele>
        <extensions>
          <visugpx:TrkExtension xmlns:visugpx="https://www.visugpx.com/editgpx/">
            <visugpx:node>445</visugpx:node>
            </visugpx:TrkExtension>
        </extensions>
      </trkpt>
      <trkpt lat="47.50676" lon="7.47328">
        <ele>379.3</ele>
      </trkpt>
      <trkpt lat="47.50661" lon="7.47387">
        <ele>374.3</ele>
      </trkpt>
      <trkpt lat="47.50657" lon="7.47398">
        <ele>374.4</ele>
      </trkpt>
      <trkpt lat="47.50653" lon="7.47408">
        <ele>374.5</ele>
      </trkpt>
      <trkpt lat="47.50626" lon="7.47457">
        <ele>371.6</ele>
      </trkpt>
      <trkpt lat="47.50585" lon="7.4752">
        <ele>368.1</ele>
      </trkpt>
      <trkpt lat="47.50577" lon="7.47536">
        <ele>366.1</ele>
      </trkpt>
      <trkpt lat="47.50576" lon="7.4754">
        <ele>366</ele>
      </trkpt>
      <trkpt lat="47.50508" lon="7.4757">
        <ele>365.8</ele>
      </trkpt>
      <trkpt lat="47.5045" lon="7.47605">
        <ele>367.3</ele>
      </trkpt>
      <trkpt lat="47.50413" lon="7.47623">
        <ele>366.6</ele>
      </trkpt>
      <trkpt lat="47.50342" lon="7.4764">
        <ele>364</ele>
      </trkpt>
      <trkpt lat="47.50274" lon="7.47651">
        <ele>356.2</ele>
      </trkpt>
      <trkpt lat="47.50268" lon="7.47654">
        <ele>355.6</ele>
      </trkpt>
      <trkpt lat="47.50258" lon="7.47663">
        <ele>353.8</ele>
      </trkpt>
      <trkpt lat="47.50222" lon="7.47716">
        <ele>350.6</ele>
      </trkpt>
      <trkpt lat="47.50193" lon="7.47756">
        <ele>349.9</ele>
      </trkpt>
      <trkpt lat="47.50189" lon="7.47764">
        <ele>349.9</ele>
      </trkpt>
      <trkpt lat="47.50185" lon="7.47763">
        <ele>349.9</ele>
      </trkpt>
      <trkpt lat="47.50155" lon="7.47757">
        <ele>349.9</ele>
      </trkpt>
      <trkpt lat="47.50127" lon="7.47748">
        <ele>350</ele>
      </trkpt>
      <trkpt lat="47.50119" lon="7.47745">
        <ele>350</ele>
      </trkpt>
      <trkpt lat="47.50094" lon="7.47735">
        <ele>350</ele>
      </trkpt>
      <trkpt lat="47.50069" lon="7.47728">
        <ele>351.2</ele>
      </trkpt>
      <trkpt lat="47.50004" lon="7.47726">
        <ele>352.2</ele>
      </trkpt>
      <trkpt lat="47.49992" lon="7.47725">
        <ele>350.4</ele>
      </trkpt>
      <trkpt lat="47.49981" lon="7.47724">
        <ele>350</ele>
      </trkpt>
      <trkpt lat="47.49964" lon="7.47717">
        <ele>349.2</ele>
      </trkpt>
      <trkpt lat="47.49948" lon="7.47706">
        <ele>348.5</ele>
      </trkpt>
      <trkpt lat="47.49881" lon="7.47642">
        <ele>344.5</ele>
      </trkpt>
      <trkpt lat="47.49876" lon="7.4764">
        <ele>344.2</ele>
      </trkpt>
      <trkpt lat="47.49864" lon="7.47639">
        <ele>343.5</ele>
      </trkpt>
      <trkpt lat="47.49838" lon="7.47652">
        <ele>340.4</ele>
      </trkpt>
      <trkpt lat="47.49803" lon="7.47671">
        <ele>336.7</ele>
      </trkpt>
      <trkpt lat="47.49795" lon="7.47672">
        <ele>336.7</ele>
      </trkpt>
      <trkpt lat="47.49789" lon="7.47672">
        <ele>336.6</ele>
      </trkpt>
      <trkpt lat="47.49786" lon="7.47677">
        <ele>336.6</ele>
      </trkpt>
      <trkpt lat="47.4977" lon="7.47692">
        <ele>336.6</ele>
      </trkpt>
      <trkpt lat="47.49749" lon="7.47707">
        <ele>336.6</ele>
      </trkpt>
      <trkpt lat="47.49734" lon="7.47717">
        <ele>336.7</ele>
      </trkpt>
      <trkpt lat="47.49723" lon="7.47725">
        <ele>336.7</ele>
      </trkpt>
      <trkpt lat="47.49716" lon="7.47731">
        <ele>336.7</ele>
        <extensions>
          <visugpx:TrkExtension xmlns:visugpx="https://www.visugpx.com/editgpx/">
            <visugpx:node>446</visugpx:node>
            </visugpx:TrkExtension>
        </extensions>
      </trkpt>
      <trkpt lat="47.49705" lon="7.47741">
        <ele>336.6</ele>
      </trkpt>
      <trkpt lat="47.49681" lon="7.47767">
        <ele>336.2</ele>
      </trkpt>
      <trkpt lat="47.49666" lon="7.47789">
        <ele>336.6</ele>
      </trkpt>
      <trkpt lat="47.49663" lon="7.47799">
        <ele>336.6</ele>
      </trkpt>
      <trkpt lat="47.49662" lon="7.47804">
        <ele>336.6</ele>
      </trkpt>
      <trkpt lat="47.49661" lon="7.47812">
        <ele>336.5</ele>
      </trkpt>
      <trkpt lat="47.49663" lon="7.47836">
        <ele>336.3</ele>
      </trkpt>
      <trkpt lat="47.49669" lon="7.47867">
        <ele>336.3</ele>
      </trkpt>
      <trkpt lat="47.4969" lon="7.47929">
        <ele>336.8</ele>
      </trkpt>
      <trkpt lat="47.49695" lon="7.47949">
        <ele>336.8</ele>
      </trkpt>
      <trkpt lat="47.49705" lon="7.48003">
        <ele>336.6</ele>
      </trkpt>
      <trkpt lat="47.49723" lon="7.48098">
        <ele>335.5</ele>
      </trkpt>
      <trkpt lat="47.49726" lon="7.48132">
        <ele>335.7</ele>
      </trkpt>
      <trkpt lat="47.49724" lon="7.48147">
        <ele>335.8</ele>
      </trkpt>
      <trkpt lat="47.49718" lon="7.48159">
        <ele>335.9</ele>
      </trkpt>
      <trkpt lat="47.49712" lon="7.48166">
        <ele>336.1</ele>
      </trkpt>
      <trkpt lat="47.49704" lon="7.48171">
        <ele>336.5</ele>
      </trkpt>
      <trkpt lat="47.49654" lon="7.48186">
        <ele>339</ele>
      </trkpt>
      <trkpt lat="47.4963" lon="7.48193">
        <ele>339.7</ele>
      </trkpt>
      <trkpt lat="47.49613" lon="7.48198">
        <ele>340.1</ele>
      </trkpt>
      <trkpt lat="47.49542" lon="7.48224">
        <ele>344.9</ele>
      </trkpt>
      <trkpt lat="47.49539" lon="7.48225">
        <ele>345</ele>
      </trkpt>
      <trkpt lat="47.49541" lon="7.48245">
        <ele>344.9</ele>
      </trkpt>
      <trkpt lat="47.4955" lon="7.48317">
        <ele>344.2</ele>
      </trkpt>
      <trkpt lat="47.49552" lon="7.48336">
        <ele>344.3</ele>
      </trkpt>
      <trkpt lat="47.49549" lon="7.48336">
        <ele>344.5</ele>
      </trkpt>
      <trkpt lat="47.49531" lon="7.48336">
        <ele>345.3</ele>
      </trkpt>
      <trkpt lat="47.49517" lon="7.48337">
        <ele>346</ele>
      </trkpt>
      <trkpt lat="47.49506" lon="7.48338">
        <ele>346.5</ele>
      </trkpt>
      <trkpt lat="47.49489" lon="7.48339">
        <ele>349.7</ele>
      </trkpt>
      <trkpt lat="47.49453" lon="7.48345">
        <ele>354</ele>
      </trkpt>
      <trkpt lat="47.49449" lon="7.48347">
        <ele>354.4</ele>
      </trkpt>
      <trkpt lat="47.49447" lon="7.4835">
        <ele>354.6</ele>
      </trkpt>
      <trkpt lat="47.49442" lon="7.48348">
        <ele>355.1</ele>
      </trkpt>
      <trkpt lat="47.49436" lon="7.48347">
        <ele>355.6</ele>
      </trkpt>
      <trkpt lat="47.49379" lon="7.48346">
        <ele>365.9</ele>
      </trkpt>
      <trkpt lat="47.49343" lon="7.48347">
        <ele>369.9</ele>
      </trkpt>
      <trkpt lat="47.49298" lon="7.48353">
        <ele>379.1</ele>
      </trkpt>
    </trkseg>
  </trk>
  <trk>
    <name><![CDATA[secteur Saverne - Dabo - Petite Pierre_51]]></name>
    <trkseg>
      <trkpt lat="48.06391" lon="7.0225">
        <ele>1137</ele>
      </trkpt>
      <trkpt lat="48.06391" lon="7.0225">
        <ele>1137</ele>
      </trkpt>
      <trkpt lat="48.06372" lon="7.02417">
        <ele>1139</ele>
      </trkpt>
      <trkpt lat="48.06368" lon="7.0247">
        <ele>1133</ele>
      </trkpt>
      <trkpt lat="48.06348" lon="7.02445">
        <ele>1129</ele>
      </trkpt>
      <trkpt lat="48.06323" lon="7.02434">
        <ele>1132</ele>
      </trkpt>
      <trkpt lat="48.0627" lon="7.02446">
        <ele>1141</ele>
      </trkpt>
      <trkpt lat="48.06231" lon="7.02479">
        <ele>1138</ele>
      </trkpt>
      <trkpt lat="48.06179" lon="7.02511">
        <ele>1148</ele>
      </trkpt>
      <trkpt lat="48.06141" lon="7.02555">
        <ele>1145</ele>
      </trkpt>
      <trkpt lat="48.06105" lon="7.02556">
        <ele>1146</ele>
      </trkpt>
      <trkpt lat="48.06086" lon="7.0255">
        <ele>1147</ele>
      </trkpt>
      <trkpt lat="48.06019" lon="7.02594">
        <ele>1089</ele>
      </trkpt>
      <trkpt lat="48.05941" lon="7.0261">
        <ele>1034</ele>
      </trkpt>
      <trkpt lat="48.05895" lon="7.02606">
        <ele>1029</ele>
      </trkpt>
      <trkpt lat="48.05847" lon="7.02613">
        <ele>1038</ele>
      </trkpt>
      <trkpt lat="48.05795" lon="7.02664">
        <ele>1060</ele>
      </trkpt>
      <trkpt lat="48.05743" lon="7.02804">
        <ele>1056</ele>
      </trkpt>
      <trkpt lat="48.05712" lon="7.02872">
        <ele>1031</ele>
      </trkpt>
      <trkpt lat="48.05655" lon="7.02875">
        <ele>1044</ele>
      </trkpt>
      <trkpt lat="48.05616" lon="7.02927">
        <ele>1035</ele>
      </trkpt>
      <trkpt lat="48.05568" lon="7.03001">
        <ele>990</ele>
      </trkpt>
      <trkpt lat="48.0545" lon="7.03013">
        <ele>1005</ele>
      </trkpt>
      <trkpt lat="48.05377" lon="7.03119">
        <ele>1009</ele>
      </trkpt>
      <trkpt lat="48.05361" lon="7.03177">
        <ele>966</ele>
      </trkpt>
      <trkpt lat="48.05333" lon="7.03188">
        <ele>942</ele>
      </trkpt>
      <trkpt lat="48.05283" lon="7.03155">
        <ele>948</ele>
      </trkpt>
      <trkpt lat="48.05257" lon="7.03128">
        <ele>957</ele>
      </trkpt>
      <trkpt lat="48.05217" lon="7.03082">
        <ele>977</ele>
      </trkpt>
      <trkpt lat="48.05172" lon="7.03111">
        <ele>962</ele>
      </trkpt>
      <trkpt lat="48.05146" lon="7.03126">
        <ele>946</ele>
      </trkpt>
      <trkpt lat="48.05083" lon="7.03089">
        <ele>950</ele>
      </trkpt>
      <trkpt lat="48.05037" lon="7.03062">
        <ele>962</ele>
      </trkpt>
      <trkpt lat="48.05" lon="7.03057">
        <ele>983</ele>
      </trkpt>
      <trkpt lat="48.04968" lon="7.03115">
        <ele>997</ele>
      </trkpt>
      <trkpt lat="48.04956" lon="7.03198">
        <ele>980</ele>
      </trkpt>
      <trkpt lat="48.04912" lon="7.03208">
        <ele>969</ele>
      </trkpt>
      <trkpt lat="48.04879" lon="7.03176">
        <ele>960</ele>
      </trkpt>
      <trkpt lat="48.04843" lon="7.03095">
        <ele>960</ele>
      </trkpt>
      <trkpt lat="48.04812" lon="7.03048">
        <ele>956</ele>
      </trkpt>
      <trkpt lat="48.04765" lon="7.02955">
        <ele>953</ele>
      </trkpt>
      <trkpt lat="48.04732" lon="7.02875">
        <ele>954</ele>
      </trkpt>
      <trkpt lat="48.04688" lon="7.02749">
        <ele>956</ele>
      </trkpt>
      <trkpt lat="48.04645" lon="7.02698">
        <ele>953</ele>
      </trkpt>
      <trkpt lat="48.04608" lon="7.02646">
        <ele>957</ele>
      </trkpt>
      <trkpt lat="48.04623" lon="7.02605">
        <ele>964</ele>
      </trkpt>
      <trkpt lat="48.04663" lon="7.02515">
        <ele>969</ele>
      </trkpt>
      <trkpt lat="48.04666" lon="7.02437">
        <ele>967</ele>
      </trkpt>
      <trkpt lat="48.04675" lon="7.0233">
        <ele>977</ele>
      </trkpt>
      <trkpt lat="48.04673" lon="7.02246">
        <ele>984</ele>
      </trkpt>
      <trkpt lat="48.04654" lon="7.02188">
        <ele>987</ele>
      </trkpt>
      <trkpt lat="48.04657" lon="7.02164">
        <ele>992</ele>
      </trkpt>
      <trkpt lat="48.04638" lon="7.02105">
        <ele>997</ele>
      </trkpt>
      <trkpt lat="48.04585" lon="7.02061">
        <ele>1011</ele>
      </trkpt>
      <trkpt lat="48.04551" lon="7.02044">
        <ele>1020</ele>
      </trkpt>
      <trkpt lat="48.04525" lon="7.02014">
        <ele>1028</ele>
      </trkpt>
      <trkpt lat="48.04437" lon="7.02095">
        <ele>1021</ele>
      </trkpt>
      <trkpt lat="48.0435" lon="7.02126">
        <ele>1026</ele>
      </trkpt>
      <trkpt lat="48.04337" lon="7.0217">
        <ele>1021</ele>
      </trkpt>
      <trkpt lat="48.04296" lon="7.02171">
        <ele>1021</ele>
      </trkpt>
      <trkpt lat="48.04247" lon="7.02238">
        <ele>1017</ele>
      </trkpt>
      <trkpt lat="48.04207" lon="7.023">
        <ele>1041</ele>
      </trkpt>
      <trkpt lat="48.04197" lon="7.02307">
        <ele>1046</ele>
      </trkpt>
      <trkpt lat="48.04161" lon="7.02251">
        <ele>1046</ele>
      </trkpt>
      <trkpt lat="48.04135" lon="7.02266">
        <ele>1065</ele>
      </trkpt>
      <trkpt lat="48.04111" lon="7.02273">
        <ele>1085</ele>
      </trkpt>
      <trkpt lat="48.041" lon="7.02292">
        <ele>1101</ele>
      </trkpt>
      <trkpt lat="48.04032" lon="7.02298">
        <ele>1151</ele>
      </trkpt>
      <trkpt lat="48.04008" lon="7.02311">
        <ele>1170</ele>
      </trkpt>
      <trkpt lat="48.03985" lon="7.02297">
        <ele>1173</ele>
      </trkpt>
      <trkpt lat="48.03948" lon="7.02279">
        <ele>1185</ele>
      </trkpt>
      <trkpt lat="48.03928" lon="7.0228">
        <ele>1198</ele>
      </trkpt>
      <trkpt lat="48.03931" lon="7.02366">
        <ele>1187</ele>
      </trkpt>
      <trkpt lat="48.03881" lon="7.02429">
        <ele>1179</ele>
      </trkpt>
      <trkpt lat="48.03826" lon="7.02457">
        <ele>1206</ele>
      </trkpt>
      <trkpt lat="48.03803" lon="7.02505">
        <ele>1211</ele>
      </trkpt>
      <trkpt lat="48.03782" lon="7.02577">
        <ele>1212</ele>
      </trkpt>
      <trkpt lat="48.0377" lon="7.02629">
        <ele>1210</ele>
      </trkpt>
      <trkpt lat="48.03704" lon="7.02649">
        <ele>1218</ele>
      </trkpt>
      <trkpt lat="48.03654" lon="7.02657">
        <ele>1227</ele>
      </trkpt>
      <trkpt lat="48.03634" lon="7.02631">
        <ele>1228</ele>
      </trkpt>
      <trkpt lat="48.03641" lon="7.02555">
        <ele>1232</ele>
      </trkpt>
      <trkpt lat="48.03601" lon="7.02448">
        <ele>1246</ele>
      </trkpt>
      <trkpt lat="48.03598" lon="7.02389">
        <ele>1253</ele>
      </trkpt>
      <trkpt lat="48.03627" lon="7.02303">
        <ele>1268</ele>
      </trkpt>
      <trkpt lat="48.03659" lon="7.02203">
        <ele>1284</ele>
      </trkpt>
      <trkpt lat="48.03702" lon="7.02062">
        <ele>1304</ele>
      </trkpt>
      <trkpt lat="48.03671" lon="7.01939">
        <ele>1308</ele>
      </trkpt>
      <trkpt lat="48.03641" lon="7.01898">
        <ele>1314</ele>
      </trkpt>
      <trkpt lat="48.03588" lon="7.0189">
        <ele>1297</ele>
      </trkpt>
      <trkpt lat="48.03629" lon="7.01861">
        <ele>1320</ele>
      </trkpt>
      <trkpt lat="48.03679" lon="7.01792">
        <ele>1333</ele>
      </trkpt>
      <trkpt lat="48.03706" lon="7.01721">
        <ele>1343</ele>
      </trkpt>
      <trkpt lat="48.03747" lon="7.01663">
        <ele>1357</ele>
      </trkpt>
      <trkpt lat="48.03782" lon="7.01548">
        <ele>1362</ele>
      </trkpt>
      <trkpt lat="48.03797" lon="7.01508">
        <ele>1358</ele>
      </trkpt>
      <trkpt lat="48.03817" lon="7.01498">
        <ele>1355</ele>
      </trkpt>
      <trkpt lat="48.03824" lon="7.01475">
        <ele>1353</ele>
      </trkpt>
      <trkpt lat="48.03825" lon="7.01451">
        <ele>1350</ele>
      </trkpt>
      <trkpt lat="48.03809" lon="7.01406">
        <ele>1344</ele>
      </trkpt>
      <trkpt lat="48.03806" lon="7.01376">
        <ele>1340</ele>
      </trkpt>
      <trkpt lat="48.03869" lon="7.01293">
        <ele>1330</ele>
      </trkpt>
      <trkpt lat="48.04088" lon="7.01115">
        <ele>1301</ele>
      </trkpt>
      <trkpt lat="48.04132" lon="7.01095">
        <ele>1297</ele>
      </trkpt>
      <trkpt lat="48.04314" lon="7.01191">
        <ele>1276</ele>
      </trkpt>
      <trkpt lat="48.04343" lon="7.01197">
        <ele>1282</ele>
      </trkpt>
      <trkpt lat="48.04431" lon="7.01228">
        <ele>1272</ele>
      </trkpt>
      <trkpt lat="48.04577" lon="7.0133">
        <ele>1277</ele>
      </trkpt>
      <trkpt lat="48.04667" lon="7.01402">
        <ele>1267</ele>
      </trkpt>
      <trkpt lat="48.04722" lon="7.01466">
        <ele>1269</ele>
      </trkpt>
      <trkpt lat="48.04772" lon="7.01494">
        <ele>1267</ele>
      </trkpt>
      <trkpt lat="48.04824" lon="7.01471">
        <ele>1262</ele>
      </trkpt>
      <trkpt lat="48.04937" lon="7.01596">
        <ele>1254</ele>
      </trkpt>
      <trkpt lat="48.0502" lon="7.01663">
        <ele>1238</ele>
      </trkpt>
      <trkpt lat="48.0514" lon="7.01863">
        <ele>1222</ele>
      </trkpt>
      <trkpt lat="48.05179" lon="7.02025">
        <ele>1226</ele>
      </trkpt>
      <trkpt lat="48.05274" lon="7.02091">
        <ele>1228</ele>
      </trkpt>
      <trkpt lat="48.05437" lon="7.02252">
        <ele>1232</ele>
      </trkpt>
      <trkpt lat="48.0559" lon="7.02395">
        <ele>1242</ele>
      </trkpt>
      <trkpt lat="48.05665" lon="7.0237">
        <ele>1233</ele>
      </trkpt>
      <trkpt lat="48.0577" lon="7.02303">
        <ele>1211</ele>
      </trkpt>
      <trkpt lat="48.05866" lon="7.02324">
        <ele>1182</ele>
      </trkpt>
      <trkpt lat="48.05917" lon="7.02392">
        <ele>1158</ele>
      </trkpt>
      <trkpt lat="48.05966" lon="7.02446">
        <ele>1135</ele>
      </trkpt>
      <trkpt lat="48.06066" lon="7.02442">
        <ele>1188</ele>
      </trkpt>
      <trkpt lat="48.06124" lon="7.02487">
        <ele>1177</ele>
      </trkpt>
      <trkpt lat="48.06162" lon="7.02463">
        <ele>1169</ele>
      </trkpt>
      <trkpt lat="48.06198" lon="7.02388">
        <ele>1167</ele>
      </trkpt>
      <trkpt lat="48.06222" lon="7.0239">
        <ele>1161</ele>
      </trkpt>
      <trkpt lat="48.0623" lon="7.02374">
        <ele>1161</ele>
      </trkpt>
      <trkpt lat="48.06297" lon="7.02333">
        <ele>1153</ele>
      </trkpt>
      <trkpt lat="48.06382" lon="7.02283">
        <ele>1138</ele>
      </trkpt>
      <trkpt lat="48.0639" lon="7.02249">
        <ele>1137</ele>
      </trkpt>
    </trkseg>
  </trk>
  <trk>
    <name><![CDATA[NewTrack]]></name>
    <trkseg>
      <trkpt lat="48.13608" lon="7.08874">
        <ele>1146.49</ele>
      </trkpt>
      <trkpt lat="48.13608" lon="7.08874">
        <ele>1146.49</ele>
      </trkpt>
      <trkpt lat="48.13611" lon="7.08835">
        <ele>1148.27</ele>
      </trkpt>
      <trkpt lat="48.136" lon="7.08747">
        <ele>1155.89</ele>
      </trkpt>
      <trkpt lat="48.13574" lon="7.08635">
        <ele>1162.9</ele>
      </trkpt>
      <trkpt lat="48.13504" lon="7.08429">
        <ele>1179.98</ele>
      </trkpt>
      <trkpt lat="48.13419" lon="7.08427">
        <ele>1186.82</ele>
      </trkpt>
      <trkpt lat="48.13338" lon="7.08425">
        <ele>1195.8953253734</ele>
      </trkpt>
      <trkpt lat="48.13277" lon="7.08423">
        <ele>1204.12</ele>
      </trkpt>
      <trkpt lat="48.13176" lon="7.08411">
        <ele>1217.51</ele>
      </trkpt>
      <trkpt lat="48.13136" lon="7.08406">
        <ele>1222.07</ele>
      </trkpt>
      <trkpt lat="48.13015" lon="7.08407">
        <ele>1234.43</ele>
      </trkpt>
      <trkpt lat="48.12934" lon="7.08408">
        <ele>1233.9167379311</ele>
      </trkpt>
      <trkpt lat="48.12929" lon="7.08408">
        <ele>1233.7963512862</ele>
      </trkpt>
      <trkpt lat="48.12918" lon="7.08335">
        <ele>1233.05</ele>
      </trkpt>
      <trkpt lat="48.12833" lon="7.08382">
        <ele>1235.75</ele>
      </trkpt>
      <trkpt lat="48.12743" lon="7.08371">
        <ele>1236.27</ele>
      </trkpt>
      <trkpt lat="48.12699" lon="7.08382">
        <ele>1239.07</ele>
      </trkpt>
      <trkpt lat="48.12639" lon="7.08371">
        <ele>1242.6</ele>
      </trkpt>
      <trkpt lat="48.12494" lon="7.08394">
        <ele>1254.6612582513</ele>
      </trkpt>
      <trkpt lat="48.12461" lon="7.08399">
        <ele>1258.18</ele>
      </trkpt>
      <trkpt lat="48.12418" lon="7.08365">
        <ele>1263.5664805379</ele>
      </trkpt>
      <trkpt lat="48.12349" lon="7.08363">
        <ele>1271.03</ele>
      </trkpt>
      <trkpt lat="48.12259" lon="7.08341">
        <ele>1279.5178602567</ele>
      </trkpt>
      <trkpt lat="48.122" lon="7.08326">
        <ele>1284.24</ele>
      </trkpt>
      <trkpt lat="48.12133" lon="7.08298">
        <ele>1289.17</ele>
      </trkpt>
      <trkpt lat="48.12024" lon="7.08249">
        <ele>1294.54</ele>
      </trkpt>
      <trkpt lat="48.11947" lon="7.08213">
        <ele>1297.02</ele>
      </trkpt>
      <trkpt lat="48.1187" lon="7.08178">
        <ele>1297.27</ele>
      </trkpt>
      <trkpt lat="48.11852" lon="7.0817">
        <ele>1297.08</ele>
      </trkpt>
      <trkpt lat="48.11718" lon="7.08092">
        <ele>1294.2571885084</ele>
      </trkpt>
      <trkpt lat="48.11663" lon="7.0806">
        <ele>1292.95</ele>
      </trkpt>
      <trkpt lat="48.11592" lon="7.08">
        <ele>1292.68</ele>
      </trkpt>
      <trkpt lat="48.11531" lon="7.08002">
        <ele>1295.59</ele>
      </trkpt>
      <trkpt lat="48.11417" lon="7.07937">
        <ele>1299.98</ele>
      </trkpt>
      <trkpt lat="48.11341" lon="7.07894">
        <ele>1299.6407965836</ele>
      </trkpt>
      <trkpt lat="48.11269" lon="7.07852">
        <ele>1296.55</ele>
      </trkpt>
      <trkpt lat="48.11189" lon="7.07813">
        <ele>1291.13</ele>
      </trkpt>
      <trkpt lat="48.11112" lon="7.07775">
        <ele>1288.2497212562</ele>
      </trkpt>
      <trkpt lat="48.11035" lon="7.07737">
        <ele>1288.45</ele>
      </trkpt>
      <trkpt lat="48.11" lon="7.07719">
        <ele>1289.63</ele>
      </trkpt>
      <trkpt lat="48.10877" lon="7.07685">
        <ele>1296.219777626</ele>
      </trkpt>
      <trkpt lat="48.1087" lon="7.07683">
        <ele>1296.16</ele>
      </trkpt>
      <trkpt lat="48.10846" lon="7.07455">
        <ele>1279.99</ele>
      </trkpt>
      <trkpt lat="48.10834" lon="7.07335">
        <ele>1272.12</ele>
      </trkpt>
      <trkpt lat="48.10832" lon="7.07315">
        <ele>1271.54</ele>
      </trkpt>
      <trkpt lat="48.10767" lon="7.07137">
        <ele>1280.81</ele>
      </trkpt>
      <trkpt lat="48.10686" lon="7.07067">
        <ele>1283.34</ele>
      </trkpt>
      <trkpt lat="48.10681" lon="7.07063">
        <ele>1283.55</ele>
      </trkpt>
      <trkpt lat="48.10573" lon="7.06966">
        <ele>1280.53</ele>
      </trkpt>
      <trkpt lat="48.10473" lon="7.06893">
        <ele>1274.6</ele>
      </trkpt>
      <trkpt lat="48.10445" lon="7.06873">
        <ele>1273.71</ele>
      </trkpt>
      <trkpt lat="48.1038" lon="7.0682">
        <ele>1281.02</ele>
      </trkpt>
      <trkpt lat="48.10253" lon="7.06834">
        <ele>1293.3</ele>
      </trkpt>
      <trkpt lat="48.10168" lon="7.06788">
        <ele>1293</ele>
      </trkpt>
      <trkpt lat="48.10092" lon="7.06746">
        <ele>1293.0723616806</ele>
      </trkpt>
      <trkpt lat="48.10087" lon="7.06744">
        <ele>1293.1049778685</ele>
      </trkpt>
      <trkpt lat="48.10036" lon="7.06661">
        <ele>1293.16</ele>
      </trkpt>
      <trkpt lat="48.09972" lon="7.06586">
        <ele>1292.45</ele>
      </trkpt>
      <trkpt lat="48.09928" lon="7.06535">
        <ele>1293.82</ele>
      </trkpt>
      <trkpt lat="48.09822" lon="7.06521">
        <ele>1292.2394173704</ele>
      </trkpt>
      <trkpt lat="48.09741" lon="7.06511">
        <ele>1285.76</ele>
      </trkpt>
      <trkpt lat="48.0971" lon="7.06507">
        <ele>1282.12</ele>
      </trkpt>
      <trkpt lat="48.09637" lon="7.06436">
        <ele>1271.01</ele>
      </trkpt>
      <trkpt lat="48.09566" lon="7.06284">
        <ele>1250.5424413649</ele>
      </trkpt>
      <trkpt lat="48.09544" lon="7.06236">
        <ele>1244.24</ele>
      </trkpt>
      <trkpt lat="48.09431" lon="7.06162">
        <ele>1229.6069940414</ele>
      </trkpt>
      <trkpt lat="48.09357" lon="7.06113">
        <ele>1228.05</ele>
      </trkpt>
      <trkpt lat="48.09292" lon="7.06069">
        <ele>1228.59</ele>
      </trkpt>
      <trkpt lat="48.09263" lon="7.06082">
        <ele>1223.9418249906</ele>
      </trkpt>
      <trkpt lat="48.09229" lon="7.06144">
        <ele>1214.59</ele>
      </trkpt>
      <trkpt lat="48.09243" lon="7.06215">
        <ele>1213.3418666063</ele>
      </trkpt>
      <trkpt lat="48.09262" lon="7.06256">
        <ele>1210.1</ele>
      </trkpt>
      <trkpt lat="48.09217" lon="7.06256">
        <ele>1197.7934990618</ele>
      </trkpt>
      <trkpt lat="48.09195" lon="7.06252">
        <ele>1194.07</ele>
      </trkpt>
      <trkpt lat="48.09199" lon="7.06191">
        <ele>1199.0542929999</ele>
      </trkpt>
      <trkpt lat="48.09204" lon="7.06146">
        <ele>1205.1230323944</ele>
      </trkpt>
      <trkpt lat="48.09195" lon="7.06128">
        <ele>1206.17</ele>
      </trkpt>
      <trkpt lat="48.09181" lon="7.06204">
        <ele>1194.6196950099</ele>
      </trkpt>
      <trkpt lat="48.0916" lon="7.06245">
        <ele>1182.67</ele>
      </trkpt>
      <trkpt lat="48.09163" lon="7.06304">
        <ele>1174.0637493828</ele>
      </trkpt>
      <trkpt lat="48.09178" lon="7.0634">
        <ele>1172.33</ele>
      </trkpt>
      <trkpt lat="48.09234" lon="7.06365">
        <ele>1177.8642930933</ele>
      </trkpt>
      <trkpt lat="48.09272" lon="7.06354">
        <ele>1181.81</ele>
      </trkpt>
      <trkpt lat="48.09312" lon="7.06376">
        <ele>1180.39</ele>
      </trkpt>
      <trkpt lat="48.09269" lon="7.06526">
        <ele>1159.65</ele>
      </trkpt>
      <trkpt lat="48.09253" lon="7.06573">
        <ele>1156.6</ele>
      </trkpt>
      <trkpt lat="48.09144" lon="7.06607">
        <ele>1127.68</ele>
      </trkpt>
      <trkpt lat="48.09081" lon="7.06636">
        <ele>1117.6356203231</ele>
      </trkpt>
      <trkpt lat="48.09053" lon="7.06663">
        <ele>1114.25</ele>
      </trkpt>
      <trkpt lat="48.09029" lon="7.06661">
        <ele>1111.517117052</ele>
      </trkpt>
      <trkpt lat="48.09001" lon="7.06689">
        <ele>1107.56</ele>
      </trkpt>
      <trkpt lat="48.08907" lon="7.06732">
        <ele>1100.72</ele>
      </trkpt>
      <trkpt lat="48.08904" lon="7.06786">
        <ele>1099.5873595567</ele>
      </trkpt>
      <trkpt lat="48.08893" lon="7.06869">
        <ele>1102.05</ele>
      </trkpt>
      <trkpt lat="48.08905" lon="7.06889">
        <ele>1104.4506407456</ele>
      </trkpt>
      <trkpt lat="48.08925" lon="7.06875">
        <ele>1108.62</ele>
      </trkpt>
      <trkpt lat="48.0905" lon="7.06889">
        <ele>1137.9821909337</ele>
      </trkpt>
      <trkpt lat="48.09131" lon="7.06898">
        <ele>1153.22</ele>
      </trkpt>
      <trkpt lat="48.09141" lon="7.06899">
        <ele>1154.4743690175</ele>
      </trkpt>
      <trkpt lat="48.09182" lon="7.06926">
        <ele>1158.88</ele>
      </trkpt>
      <trkpt lat="48.09219" lon="7.06921">
        <ele>1163.078103915</ele>
      </trkpt>
      <trkpt lat="48.09245" lon="7.06907">
        <ele>1166.2883372435</ele>
      </trkpt>
      <trkpt lat="48.09286" lon="7.06918">
        <ele>1170.29</ele>
      </trkpt>
      <trkpt lat="48.09348" lon="7.06934">
        <ele>1170.67</ele>
      </trkpt>
      <trkpt lat="48.09373" lon="7.06977">
        <ele>1165.1079541053</ele>
      </trkpt>
      <trkpt lat="48.09398" lon="7.0701">
        <ele>1158.14</ele>
      </trkpt>
      <trkpt lat="48.09413" lon="7.07073">
        <ele>1148.5208581588</ele>
      </trkpt>
      <trkpt lat="48.09437" lon="7.07153">
        <ele>1140.08</ele>
      </trkpt>
      <trkpt lat="48.09487" lon="7.07258">
        <ele>1138.3056992183</ele>
      </trkpt>
      <trkpt lat="48.095" lon="7.07284">
        <ele>1137.51</ele>
      </trkpt>
      <trkpt lat="48.09533" lon="7.0741">
        <ele>1127.93</ele>
      </trkpt>
      <trkpt lat="48.09557" lon="7.07502">
        <ele>1125.47</ele>
      </trkpt>
      <trkpt lat="48.09673" lon="7.07578">
        <ele>1136.81</ele>
      </trkpt>
      <trkpt lat="48.09769" lon="7.07575">
        <ele>1147.39</ele>
      </trkpt>
      <trkpt lat="48.09841" lon="7.07605">
        <ele>1151.57</ele>
      </trkpt>
      <trkpt lat="48.09921" lon="7.07668">
        <ele>1144.62</ele>
      </trkpt>
      <trkpt lat="48.09958" lon="7.07698">
        <ele>1138.7</ele>
      </trkpt>
      <trkpt lat="48.09988" lon="7.07745">
        <ele>1132.0873610636</ele>
      </trkpt>
      <trkpt lat="48.10034" lon="7.07717">
        <ele>1125.88</ele>
      </trkpt>
      <trkpt lat="48.1009" lon="7.07663">
        <ele>1117.52</ele>
      </trkpt>
      <trkpt lat="48.10142" lon="7.0765">
        <ele>1099.8300812326</ele>
      </trkpt>
      <trkpt lat="48.1018" lon="7.07661">
        <ele>1084.87</ele>
      </trkpt>
      <trkpt lat="48.10203" lon="7.07618">
        <ele>1074.9135845177</ele>
      </trkpt>
      <trkpt lat="48.10208" lon="7.07676">
        <ele>1070.5696610199</ele>
      </trkpt>
      <trkpt lat="48.10233" lon="7.07704">
        <ele>1072.62</ele>
      </trkpt>
      <trkpt lat="48.10199" lon="7.0773">
        <ele>1079.24</ele>
      </trkpt>
      <trkpt lat="48.10183" lon="7.07837">
        <ele>1073.81</ele>
      </trkpt>
      <trkpt lat="48.10259" lon="7.07934">
        <ele>1068.89</ele>
      </trkpt>
      <trkpt lat="48.10269" lon="7.0799">
        <ele>1072.6356303004</ele>
      </trkpt>
      <trkpt lat="48.10258" lon="7.08077">
        <ele>1082.79</ele>
      </trkpt>
      <trkpt lat="48.10252" lon="7.08204">
        <ele>1097.08</ele>
      </trkpt>
      <trkpt lat="48.10258" lon="7.08344">
        <ele>1100.43</ele>
      </trkpt>
      <trkpt lat="48.10261" lon="7.08397">
        <ele>1101.42</ele>
      </trkpt>
      <trkpt lat="48.10251" lon="7.08569">
        <ele>1107.28</ele>
      </trkpt>
      <trkpt lat="48.10244" lon="7.08705">
        <ele>1112.6530958032</ele>
      </trkpt>
      <trkpt lat="48.10239" lon="7.08816">
        <ele>1114.69</ele>
      </trkpt>
      <trkpt lat="48.10227" lon="7.08945">
        <ele>1113.32</ele>
      </trkpt>
      <trkpt lat="48.10222" lon="7.09">
        <ele>1112.91</ele>
      </trkpt>
      <trkpt lat="48.10213" lon="7.09118">
        <ele>1112</ele>
      </trkpt>
      <trkpt lat="48.10252" lon="7.09249">
        <ele>1115.38</ele>
      </trkpt>
      <trkpt lat="48.10302" lon="7.0932">
        <ele>1117.75</ele>
      </trkpt>
      <trkpt lat="48.10368" lon="7.09391">
        <ele>1126.926409482</ele>
      </trkpt>
      <trkpt lat="48.10397" lon="7.09352">
        <ele>1130.23</ele>
      </trkpt>
      <trkpt lat="48.10478" lon="7.09388">
        <ele>1127.8239400532</ele>
      </trkpt>
      <trkpt lat="48.10512" lon="7.09404">
        <ele>1124.51</ele>
      </trkpt>
      <trkpt lat="48.10615" lon="7.09451">
        <ele>1113.89</ele>
      </trkpt>
      <trkpt lat="48.10714" lon="7.09458">
        <ele>1105.72</ele>
      </trkpt>
      <trkpt lat="48.10727" lon="7.09459">
        <ele>1104.75</ele>
      </trkpt>
      <trkpt lat="48.10827" lon="7.09519">
        <ele>1083.57</ele>
      </trkpt>
      <trkpt lat="48.10936" lon="7.09451">
        <ele>1073.84</ele>
      </trkpt>
      <trkpt lat="48.11002" lon="7.09382">
        <ele>1059.91</ele>
      </trkpt>
      <trkpt lat="48.11004" lon="7.09341">
        <ele>1061.37</ele>
      </trkpt>
      <trkpt lat="48.11047" lon="7.09168">
        <ele>1056.38</ele>
      </trkpt>
      <trkpt lat="48.11062" lon="7.09198">
        <ele>1047.15</ele>
      </trkpt>
      <trkpt lat="48.1104" lon="7.09333">
        <ele>1034.8291939896</ele>
      </trkpt>
      <trkpt lat="48.11041" lon="7.09391">
        <ele>1035.94</ele>
      </trkpt>
      <trkpt lat="48.10991" lon="7.09522">
        <ele>1035.37</ele>
      </trkpt>
      <trkpt lat="48.10971" lon="7.09573">
        <ele>1032.57</ele>
      </trkpt>
      <trkpt lat="48.1097" lon="7.09657">
        <ele>1026.3920738025</ele>
      </trkpt>
      <trkpt lat="48.1101" lon="7.09702">
        <ele>1014.68</ele>
      </trkpt>
      <trkpt lat="48.11034" lon="7.09734">
        <ele>1003.79</ele>
      </trkpt>
      <trkpt lat="48.11077" lon="7.09835">
        <ele>992.99</ele>
      </trkpt>
      <trkpt lat="48.11159" lon="7.09946">
        <ele>974.62</ele>
      </trkpt>
      <trkpt lat="48.11211" lon="7.10013">
        <ele>964.37303315339</ele>
      </trkpt>
      <trkpt lat="48.11226" lon="7.10002">
        <ele>962.16</ele>
      </trkpt>
      <trkpt lat="48.11271" lon="7.10011">
        <ele>957.59433345164</ele>
      </trkpt>
      <trkpt lat="48.11302" lon="7.09951">
        <ele>958.91</ele>
      </trkpt>
      <trkpt lat="48.11342" lon="7.09942">
        <ele>966.76</ele>
      </trkpt>
      <trkpt lat="48.11398" lon="7.09891">
        <ele>977.06</ele>
      </trkpt>
      <trkpt lat="48.115" lon="7.09807">
        <ele>989.6</ele>
      </trkpt>
      <trkpt lat="48.1155" lon="7.09781">
        <ele>1002.79</ele>
      </trkpt>
      <trkpt lat="48.11659" lon="7.0968">
        <ele>1013.49</ele>
      </trkpt>
      <trkpt lat="48.11612" lon="7.09783">
        <ele>1027.89</ele>
      </trkpt>
      <trkpt lat="48.11562" lon="7.09905">
        <ele>1040.56</ele>
      </trkpt>
      <trkpt lat="48.11546" lon="7.09944">
        <ele>1040.9577017357</ele>
      </trkpt>
      <trkpt lat="48.11562" lon="7.09959">
        <ele>1042.01</ele>
      </trkpt>
      <trkpt lat="48.11626" lon="7.09944">
        <ele>1055.5675803836</ele>
      </trkpt>
      <trkpt lat="48.1167" lon="7.09946">
        <ele>1063.01</ele>
      </trkpt>
      <trkpt lat="48.11699" lon="7.10064">
        <ele>1057.12</ele>
      </trkpt>
      <trkpt lat="48.11727" lon="7.10177">
        <ele>1053.48</ele>
      </trkpt>
      <trkpt lat="48.11755" lon="7.10288">
        <ele>1034.89</ele>
      </trkpt>
      <trkpt lat="48.11796" lon="7.10395">
        <ele>1029.8251050238</ele>
      </trkpt>
      <trkpt lat="48.11822" lon="7.10464">
        <ele>1030.02</ele>
      </trkpt>
      <trkpt lat="48.11881" lon="7.10579">
        <ele>1026.16</ele>
      </trkpt>
      <trkpt lat="48.11948" lon="7.10631">
        <ele>1032.51</ele>
      </trkpt>
      <trkpt lat="48.12024" lon="7.1068">
        <ele>1029.61</ele>
      </trkpt>
      <trkpt lat="48.12082" lon="7.1068">
        <ele>1027.49</ele>
      </trkpt>
      <trkpt lat="48.12137" lon="7.10584">
        <ele>1033.49</ele>
      </trkpt>
      <trkpt lat="48.12133" lon="7.10513">
        <ele>1038.42</ele>
      </trkpt>
      <trkpt lat="48.12088" lon="7.10349">
        <ele>1042.09</ele>
      </trkpt>
      <trkpt lat="48.12077" lon="7.10223">
        <ele>1041.16</ele>
      </trkpt>
      <trkpt lat="48.1212" lon="7.10112">
        <ele>1043.18</ele>
      </trkpt>
      <trkpt lat="48.12119" lon="7.10009">
        <ele>1052.49</ele>
      </trkpt>
      <trkpt lat="48.12122" lon="7.09891">
        <ele>1061.06</ele>
      </trkpt>
      <trkpt lat="48.12177" lon="7.09809">
        <ele>1060.51</ele>
      </trkpt>
      <trkpt lat="48.12232" lon="7.09796">
        <ele>1060.43</ele>
      </trkpt>
      <trkpt lat="48.12272" lon="7.09878">
        <ele>1041.3351163113</ele>
      </trkpt>
      <trkpt lat="48.12289" lon="7.09929">
        <ele>1031.4517700491</ele>
      </trkpt>
      <trkpt lat="48.12311" lon="7.09938">
        <ele>1030.28</ele>
      </trkpt>
      <trkpt lat="48.12331" lon="7.09901">
        <ele>1035.95</ele>
      </trkpt>
      <trkpt lat="48.12322" lon="7.09794">
        <ele>1056.7662586847</ele>
      </trkpt>
      <trkpt lat="48.12321" lon="7.09758">
        <ele>1062.3753706238</ele>
      </trkpt>
      <trkpt lat="48.12358" lon="7.09768">
        <ele>1066.43</ele>
      </trkpt>
      <trkpt lat="48.12379" lon="7.09775">
        <ele>1065.4454739571</ele>
      </trkpt>
      <trkpt lat="48.12402" lon="7.09758">
        <ele>1062.8224565465</ele>
      </trkpt>
      <trkpt lat="48.12431" lon="7.09758">
        <ele>1061.04</ele>
      </trkpt>
      <trkpt lat="48.1246" lon="7.09728">
        <ele>1063.4726994859</ele>
      </trkpt>
      <trkpt lat="48.12474" lon="7.09689">
        <ele>1066.34</ele>
      </trkpt>
      <trkpt lat="48.12478" lon="7.09629">
        <ele>1066.4594404716</ele>
      </trkpt>
      <trkpt lat="48.12543" lon="7.0961">
        <ele>1063.67</ele>
      </trkpt>
      <trkpt lat="48.12576" lon="7.09556">
        <ele>1065.99</ele>
      </trkpt>
      <trkpt lat="48.12629" lon="7.09496">
        <ele>1071.79</ele>
      </trkpt>
      <trkpt lat="48.12675" lon="7.09449">
        <ele>1073.85</ele>
      </trkpt>
      <trkpt lat="48.12746" lon="7.09343">
        <ele>1074.1920722072</ele>
      </trkpt>
      <trkpt lat="48.12783" lon="7.09277">
        <ele>1073.35</ele>
      </trkpt>
      <trkpt lat="48.12837" lon="7.09183">
        <ele>1072.4473625746</ele>
      </trkpt>
      <trkpt lat="48.12851" lon="7.09159">
        <ele>1072.9147015546</ele>
      </trkpt>
      <trkpt lat="48.12897" lon="7.09144">
        <ele>1075.97</ele>
      </trkpt>
      <trkpt lat="48.12965" lon="7.09135">
        <ele>1083.24</ele>
      </trkpt>
      <trkpt lat="48.13038" lon="7.09097">
        <ele>1080.87</ele>
      </trkpt>
      <trkpt lat="48.13086" lon="7.0906">
        <ele>1078.06</ele>
      </trkpt>
      <trkpt lat="48.13169" lon="7.0905">
        <ele>1085.44</ele>
      </trkpt>
      <trkpt lat="48.1323" lon="7.09069">
        <ele>1091.28</ele>
      </trkpt>
      <trkpt lat="48.133" lon="7.09129">
        <ele>1097.3825894652</ele>
      </trkpt>
      <trkpt lat="48.13339" lon="7.09174">
        <ele>1101.88</ele>
      </trkpt>
      <trkpt lat="48.13359" lon="7.09217">
        <ele>1105.8009072517</ele>
      </trkpt>
      <trkpt lat="48.13386" lon="7.09221">
        <ele>1108.68</ele>
      </trkpt>
      <trkpt lat="48.13464" lon="7.09131">
        <ele>1118.75</ele>
      </trkpt>
      <trkpt lat="48.13502" lon="7.09112">
        <ele>1126.69</ele>
      </trkpt>
      <trkpt lat="48.13525" lon="7.09011">
        <ele>1135.3691784626</ele>
      </trkpt>
      <trkpt lat="48.13562" lon="7.08966">
        <ele>1139.24</ele>
      </trkpt>
      <trkpt lat="48.13603" lon="7.08934">
        <ele>1143.8</ele>
      </trkpt>
    </trkseg>
  </trk>
  <trk>
    <name><![CDATA[secteur Saverne - Dabo - Petite Pierre_53]]></name>
    <trkseg>
      <trkpt lat="48.67867" lon="7.29771">
        <ele>469.9</ele>
        <time>2020-08-18T13:44:01Z</time>
      </trkpt>
      <trkpt lat="48.67862" lon="7.29774">
        <ele>473.8</ele>
        <time>2020-08-18T13:44:06Z</time>
      </trkpt>
      <trkpt lat="48.67857" lon="7.29775">
        <ele>474.8</ele>
        <time>2020-08-18T13:44:08Z</time>
      </trkpt>
      <trkpt lat="48.67848" lon="7.29777">
        <ele>476.1</ele>
        <time>2020-08-18T13:44:11Z</time>
      </trkpt>
      <trkpt lat="48.67843" lon="7.29779">
        <ele>475.3</ele>
        <time>2020-08-18T13:44:13Z</time>
      </trkpt>
      <trkpt lat="48.67839" lon="7.29785">
        <ele>474.8</ele>
        <time>2020-08-18T13:44:15Z</time>
      </trkpt>
      <trkpt lat="48.67829" lon="7.29797">
        <ele>473.7</ele>
        <time>2020-08-18T13:44:18Z</time>
      </trkpt>
      <trkpt lat="48.6782" lon="7.29804">
        <ele>473.3</ele>
        <time>2020-08-18T13:44:20Z</time>
      </trkpt>
      <trkpt lat="48.67812" lon="7.29813">
        <ele>472.5</ele>
        <time>2020-08-18T13:44:22Z</time>
      </trkpt>
      <trkpt lat="48.67807" lon="7.29824">
        <ele>472.3</ele>
        <time>2020-08-18T13:44:24Z</time>
      </trkpt>
      <trkpt lat="48.67803" lon="7.29837">
        <ele>472.3</ele>
        <time>2020-08-18T13:44:26Z</time>
      </trkpt>
      <trkpt lat="48.67801" lon="7.2985">
        <ele>472.4</ele>
        <time>2020-08-18T13:44:28Z</time>
      </trkpt>
      <trkpt lat="48.67802" lon="7.2987">
        <ele>472.2</ele>
        <time>2020-08-18T13:44:31Z</time>
      </trkpt>
      <trkpt lat="48.67806" lon="7.2988">
        <ele>472.5</ele>
        <time>2020-08-18T13:44:33Z</time>
      </trkpt>
      <trkpt lat="48.67814" lon="7.29897">
        <ele>473.6</ele>
        <time>2020-08-18T13:44:36Z</time>
      </trkpt>
      <trkpt lat="48.67821" lon="7.29916">
        <ele>474.6</ele>
        <time>2020-08-18T13:44:39Z</time>
      </trkpt>
      <trkpt lat="48.67825" lon="7.29928">
        <ele>474.9</ele>
        <time>2020-08-18T13:44:41Z</time>
      </trkpt>
      <trkpt lat="48.67828" lon="7.29942">
        <ele>475.7</ele>
        <time>2020-08-18T13:44:43Z</time>
      </trkpt>
      <trkpt lat="48.6783" lon="7.29956">
        <ele>476.5</ele>
        <time>2020-08-18T13:44:45Z</time>
      </trkpt>
      <trkpt lat="48.6783" lon="7.2997">
        <ele>477.2</ele>
        <time>2020-08-18T13:44:47Z</time>
      </trkpt>
      <trkpt lat="48.67829" lon="7.29984">
        <ele>477.8</ele>
        <time>2020-08-18T13:44:49Z</time>
      </trkpt>
      <trkpt lat="48.67827" lon="7.29998">
        <ele>478.4</ele>
        <time>2020-08-18T13:44:51Z</time>
      </trkpt>
      <trkpt lat="48.67824" lon="7.30012">
        <ele>478.9</ele>
        <time>2020-08-18T13:44:53Z</time>
      </trkpt>
      <trkpt lat="48.67821" lon="7.30025">
        <ele>479</ele>
        <time>2020-08-18T13:44:55Z</time>
      </trkpt>
      <trkpt lat="48.67818" lon="7.3004">
        <ele>479.3</ele>
        <time>2020-08-18T13:44:57Z</time>
      </trkpt>
      <trkpt lat="48.6781" lon="7.30055">
        <ele>480</ele>
        <time>2020-08-18T13:45:00Z</time>
      </trkpt>
      <trkpt lat="48.67805" lon="7.30058">
        <ele>480.3</ele>
        <time>2020-08-18T13:45:03Z</time>
      </trkpt>
      <trkpt lat="48.67802" lon="7.30049">
        <ele>481.3</ele>
        <time>2020-08-18T13:45:06Z</time>
      </trkpt>
      <trkpt lat="48.67805" lon="7.30057">
        <ele>484.7</ele>
        <time>2020-08-18T13:45:20Z</time>
      </trkpt>
      <trkpt lat="48.6781" lon="7.30072">
        <ele>485</ele>
        <time>2020-08-18T13:45:23Z</time>
      </trkpt>
      <trkpt lat="48.67813" lon="7.30082">
        <ele>485.3</ele>
        <time>2020-08-18T13:45:25Z</time>
      </trkpt>
      <trkpt lat="48.67818" lon="7.30098">
        <ele>485.6</ele>
        <time>2020-08-18T13:45:28Z</time>
      </trkpt>
      <trkpt lat="48.67823" lon="7.30109">
        <ele>486.2</ele>
        <time>2020-08-18T13:45:30Z</time>
      </trkpt>
      <trkpt lat="48.67827" lon="7.30122">
        <ele>486.3</ele>
        <time>2020-08-18T13:45:32Z</time>
      </trkpt>
      <trkpt lat="48.67829" lon="7.30135">
        <ele>486.6</ele>
        <time>2020-08-18T13:45:34Z</time>
      </trkpt>
      <trkpt lat="48.6783" lon="7.30145">
        <ele>486.5</ele>
        <time>2020-08-18T13:45:36Z</time>
      </trkpt>
      <trkpt lat="48.67831" lon="7.30152">
        <ele>486.7</ele>
        <time>2020-08-18T13:45:38Z</time>
      </trkpt>
      <trkpt lat="48.67834" lon="7.30159">
        <ele>486.9</ele>
        <time>2020-08-18T13:45:40Z</time>
      </trkpt>
      <trkpt lat="48.67838" lon="7.30168">
        <ele>487.1</ele>
        <time>2020-08-18T13:45:42Z</time>
      </trkpt>
      <trkpt lat="48.67845" lon="7.30181">
        <ele>486.8</ele>
        <time>2020-08-18T13:45:45Z</time>
      </trkpt>
      <trkpt lat="48.67849" lon="7.30189">
        <ele>487.5</ele>
        <time>2020-08-18T13:45:47Z</time>
      </trkpt>
      <trkpt lat="48.67852" lon="7.30195">
        <ele>488.6</ele>
        <time>2020-08-18T13:45:50Z</time>
      </trkpt>
      <trkpt lat="48.67856" lon="7.30199">
        <ele>491</ele>
        <time>2020-08-18T13:45:57Z</time>
      </trkpt>
      <trkpt lat="48.67862" lon="7.30206">
        <ele>492.4</ele>
        <time>2020-08-18T13:46:00Z</time>
      </trkpt>
      <trkpt lat="48.67868" lon="7.30214">
        <ele>492.9</ele>
        <time>2020-08-18T13:46:02Z</time>
      </trkpt>
      <trkpt lat="48.67874" lon="7.30225">
        <ele>493</ele>
        <time>2020-08-18T13:46:04Z</time>
      </trkpt>
      <trkpt lat="48.67879" lon="7.30233">
        <ele>492.2</ele>
        <time>2020-08-18T13:46:06Z</time>
      </trkpt>
      <trkpt lat="48.67885" lon="7.30246">
        <ele>492.3</ele>
        <time>2020-08-18T13:46:08Z</time>
      </trkpt>
      <trkpt lat="48.67891" lon="7.30259">
        <ele>491.8</ele>
        <time>2020-08-18T13:46:10Z</time>
      </trkpt>
      <trkpt lat="48.67897" lon="7.3027">
        <ele>491.5</ele>
        <time>2020-08-18T13:46:12Z</time>
      </trkpt>
      <trkpt lat="48.67902" lon="7.3028">
        <ele>491.5</ele>
        <time>2020-08-18T13:46:14Z</time>
      </trkpt>
      <trkpt lat="48.67908" lon="7.30289">
        <ele>492</ele>
        <time>2020-08-18T13:46:16Z</time>
      </trkpt>
      <trkpt lat="48.67914" lon="7.30304">
        <ele>492</ele>
        <time>2020-08-18T13:46:19Z</time>
      </trkpt>
      <trkpt lat="48.67919" lon="7.30316">
        <ele>493.1</ele>
        <time>2020-08-18T13:46:21Z</time>
      </trkpt>
      <trkpt lat="48.67924" lon="7.30325">
        <ele>493</ele>
        <time>2020-08-18T13:46:23Z</time>
      </trkpt>
      <trkpt lat="48.67929" lon="7.30337">
        <ele>493.3</ele>
        <time>2020-08-18T13:46:25Z</time>
      </trkpt>
      <trkpt lat="48.67933" lon="7.30348">
        <ele>494</ele>
        <time>2020-08-18T13:46:27Z</time>
      </trkpt>
      <trkpt lat="48.67936" lon="7.30357">
        <ele>494.2</ele>
        <time>2020-08-18T13:46:29Z</time>
      </trkpt>
      <trkpt lat="48.6794" lon="7.30366">
        <ele>494.9</ele>
        <time>2020-08-18T13:46:31Z</time>
      </trkpt>
      <trkpt lat="48.67944" lon="7.30376">
        <ele>495.3</ele>
        <time>2020-08-18T13:46:33Z</time>
      </trkpt>
      <trkpt lat="48.67951" lon="7.30391">
        <ele>496.2</ele>
        <time>2020-08-18T13:46:36Z</time>
      </trkpt>
      <trkpt lat="48.67956" lon="7.304">
        <ele>496.5</ele>
        <time>2020-08-18T13:46:38Z</time>
      </trkpt>
      <trkpt lat="48.67961" lon="7.30408">
        <ele>496.3</ele>
        <time>2020-08-18T13:46:40Z</time>
      </trkpt>
      <trkpt lat="48.67964" lon="7.30416">
        <ele>496</ele>
        <time>2020-08-18T13:46:42Z</time>
      </trkpt>
      <trkpt lat="48.67967" lon="7.30425">
        <ele>494.3</ele>
        <time>2020-08-18T13:46:45Z</time>
      </trkpt>
      <trkpt lat="48.6797" lon="7.30433">
        <ele>492.6</ele>
        <time>2020-08-18T13:46:47Z</time>
      </trkpt>
      <trkpt lat="48.67975" lon="7.30442">
        <ele>491.7</ele>
        <time>2020-08-18T13:46:49Z</time>
      </trkpt>
      <trkpt lat="48.67979" lon="7.30452">
        <ele>491</ele>
        <time>2020-08-18T13:46:51Z</time>
      </trkpt>
      <trkpt lat="48.67983" lon="7.30462">
        <ele>490.3</ele>
        <time>2020-08-18T13:46:53Z</time>
      </trkpt>
      <trkpt lat="48.6799" lon="7.3048">
        <ele>489.7</ele>
        <time>2020-08-18T13:46:56Z</time>
      </trkpt>
      <trkpt lat="48.67994" lon="7.3049">
        <ele>489.3</ele>
        <time>2020-08-18T13:46:58Z</time>
      </trkpt>
      <trkpt lat="48.67998" lon="7.30497">
        <ele>487.7</ele>
        <time>2020-08-18T13:47:10Z</time>
      </trkpt>
      <trkpt lat="48.68002" lon="7.30503">
        <ele>487.3</ele>
        <time>2020-08-18T13:47:12Z</time>
      </trkpt>
      <trkpt lat="48.68005" lon="7.30514">
        <ele>487.2</ele>
        <time>2020-08-18T13:47:14Z</time>
      </trkpt>
      <trkpt lat="48.68011" lon="7.30526">
        <ele>487</ele>
        <time>2020-08-18T13:47:16Z</time>
      </trkpt>
      <trkpt lat="48.68017" lon="7.30541">
        <ele>487.5</ele>
        <time>2020-08-18T13:47:18Z</time>
      </trkpt>
      <trkpt lat="48.68021" lon="7.30556">
        <ele>487.8</ele>
        <time>2020-08-18T13:47:20Z</time>
      </trkpt>
      <trkpt lat="48.68029" lon="7.3058">
        <ele>489.4</ele>
        <time>2020-08-18T13:47:23Z</time>
      </trkpt>
      <trkpt lat="48.68036" lon="7.30605">
        <ele>489.4</ele>
        <time>2020-08-18T13:47:26Z</time>
      </trkpt>
      <trkpt lat="48.68043" lon="7.30623">
        <ele>489.5</ele>
        <time>2020-08-18T13:47:28Z</time>
      </trkpt>
      <trkpt lat="48.68048" lon="7.30639">
        <ele>489.5</ele>
        <time>2020-08-18T13:47:30Z</time>
      </trkpt>
      <trkpt lat="48.68054" lon="7.30654">
        <ele>488.9</ele>
        <time>2020-08-18T13:47:33Z</time>
      </trkpt>
      <trkpt lat="48.68053" lon="7.30666">
        <ele>489.4</ele>
        <time>2020-08-18T13:47:35Z</time>
      </trkpt>
      <trkpt lat="48.68057" lon="7.30677">
        <ele>489.5</ele>
        <time>2020-08-18T13:47:37Z</time>
      </trkpt>
      <trkpt lat="48.68062" lon="7.30697">
        <ele>489.5</ele>
        <time>2020-08-18T13:47:40Z</time>
      </trkpt>
      <trkpt lat="48.68064" lon="7.30715">
        <ele>489.3</ele>
        <time>2020-08-18T13:47:42Z</time>
      </trkpt>
      <trkpt lat="48.68064" lon="7.3073">
        <ele>488.6</ele>
        <time>2020-08-18T13:47:44Z</time>
      </trkpt>
      <trkpt lat="48.68066" lon="7.30745">
        <ele>488.6</ele>
        <time>2020-08-18T13:47:46Z</time>
      </trkpt>
      <trkpt lat="48.68068" lon="7.30762">
        <ele>487.9</ele>
        <time>2020-08-18T13:47:48Z</time>
      </trkpt>
      <trkpt lat="48.68068" lon="7.30787">
        <ele>487.7</ele>
        <time>2020-08-18T13:47:51Z</time>
      </trkpt>
      <trkpt lat="48.68066" lon="7.30806">
        <ele>487.6</ele>
        <time>2020-08-18T13:47:53Z</time>
      </trkpt>
      <trkpt lat="48.68064" lon="7.30823">
        <ele>487.4</ele>
        <time>2020-08-18T13:47:55Z</time>
      </trkpt>
      <trkpt lat="48.68061" lon="7.30839">
        <ele>486.6</ele>
        <time>2020-08-18T13:47:57Z</time>
      </trkpt>
      <trkpt lat="48.68057" lon="7.30852">
        <ele>485.8</ele>
        <time>2020-08-18T13:47:59Z</time>
      </trkpt>
      <trkpt lat="48.68049" lon="7.30872">
        <ele>483.9</ele>
        <time>2020-08-18T13:48:02Z</time>
      </trkpt>
      <trkpt lat="48.68043" lon="7.30888">
        <ele>482.8</ele>
        <time>2020-08-18T13:48:04Z</time>
      </trkpt>
      <trkpt lat="48.68038" lon="7.30904">
        <ele>482.1</ele>
        <time>2020-08-18T13:48:06Z</time>
      </trkpt>
      <trkpt lat="48.68034" lon="7.30922">
        <ele>482.1</ele>
        <time>2020-08-18T13:48:08Z</time>
      </trkpt>
      <trkpt lat="48.68032" lon="7.30939">
        <ele>481.5</ele>
        <time>2020-08-18T13:48:10Z</time>
      </trkpt>
      <trkpt lat="48.6803" lon="7.30953">
        <ele>481.9</ele>
        <time>2020-08-18T13:48:12Z</time>
      </trkpt>
      <trkpt lat="48.68029" lon="7.30969">
        <ele>482</ele>
        <time>2020-08-18T13:48:14Z</time>
      </trkpt>
      <trkpt lat="48.68029" lon="7.30984">
        <ele>482</ele>
        <time>2020-08-18T13:48:16Z</time>
      </trkpt>
      <trkpt lat="48.68035" lon="7.31011">
        <ele>482.2</ele>
        <time>2020-08-18T13:48:19Z</time>
      </trkpt>
      <trkpt lat="48.6804" lon="7.31031">
        <ele>482.7</ele>
        <time>2020-08-18T13:48:21Z</time>
      </trkpt>
      <trkpt lat="48.68045" lon="7.31045">
        <ele>482.8</ele>
        <time>2020-08-18T13:48:23Z</time>
      </trkpt>
      <trkpt lat="48.68057" lon="7.31067">
        <ele>483.1</ele>
        <time>2020-08-18T13:48:26Z</time>
      </trkpt>
      <trkpt lat="48.68066" lon="7.3108">
        <ele>483.3</ele>
        <time>2020-08-18T13:48:28Z</time>
      </trkpt>
      <trkpt lat="48.68074" lon="7.31091">
        <ele>483.5</ele>
        <time>2020-08-18T13:48:30Z</time>
      </trkpt>
      <trkpt lat="48.68081" lon="7.31101">
        <ele>483.1</ele>
        <time>2020-08-18T13:48:32Z</time>
      </trkpt>
      <trkpt lat="48.6809" lon="7.31108">
        <ele>483</ele>
        <time>2020-08-18T13:48:34Z</time>
      </trkpt>
      <trkpt lat="48.68097" lon="7.31114">
        <ele>482.3</ele>
        <time>2020-08-18T13:48:36Z</time>
      </trkpt>
      <trkpt lat="48.68108" lon="7.31123">
        <ele>481</ele>
        <time>2020-08-18T13:48:39Z</time>
      </trkpt>
      <trkpt lat="48.68116" lon="7.31134">
        <ele>480.2</ele>
        <time>2020-08-18T13:48:41Z</time>
      </trkpt>
      <trkpt lat="48.68121" lon="7.31147">
        <ele>479.5</ele>
        <time>2020-08-18T13:48:43Z</time>
      </trkpt>
      <trkpt lat="48.68124" lon="7.31156">
        <ele>479.2</ele>
        <time>2020-08-18T13:48:45Z</time>
      </trkpt>
      <trkpt lat="48.68122" lon="7.31164">
        <ele>474.1</ele>
        <time>2020-08-18T13:49:04Z</time>
      </trkpt>
      <trkpt lat="48.68119" lon="7.31168">
        <ele>473.4</ele>
        <time>2020-08-18T13:49:06Z</time>
      </trkpt>
      <trkpt lat="48.68114" lon="7.31173">
        <ele>473.6</ele>
        <time>2020-08-18T13:49:08Z</time>
      </trkpt>
      <trkpt lat="48.68107" lon="7.31175">
        <ele>473.4</ele>
        <time>2020-08-18T13:49:10Z</time>
      </trkpt>
      <trkpt lat="48.68098" lon="7.31165">
        <ele>472.5</ele>
        <time>2020-08-18T13:49:13Z</time>
      </trkpt>
      <trkpt lat="48.68093" lon="7.31164">
        <ele>471.9</ele>
        <time>2020-08-18T13:49:15Z</time>
      </trkpt>
      <trkpt lat="48.68087" lon="7.31166">
        <ele>472.7</ele>
        <time>2020-08-18T13:49:17Z</time>
      </trkpt>
      <trkpt lat="48.6808" lon="7.31166">
        <ele>472.6</ele>
        <time>2020-08-18T13:49:19Z</time>
      </trkpt>
      <trkpt lat="48.68075" lon="7.31168">
        <ele>473.9</ele>
        <time>2020-08-18T13:49:22Z</time>
      </trkpt>
      <trkpt lat="48.68071" lon="7.3117">
        <ele>475.9</ele>
        <time>2020-08-18T13:49:30Z</time>
      </trkpt>
      <trkpt lat="48.68065" lon="7.3117">
        <ele>476.8</ele>
        <time>2020-08-18T13:49:35Z</time>
      </trkpt>
      <trkpt lat="48.6806" lon="7.31167">
        <ele>476.8</ele>
        <time>2020-08-18T13:49:38Z</time>
      </trkpt>
      <trkpt lat="48.68055" lon="7.31163">
        <ele>477.1</ele>
        <time>2020-08-18T13:49:40Z</time>
      </trkpt>
      <trkpt lat="48.68051" lon="7.31159">
        <ele>477.2</ele>
        <time>2020-08-18T13:49:42Z</time>
      </trkpt>
      <trkpt lat="48.68045" lon="7.31154">
        <ele>477.6</ele>
        <time>2020-08-18T13:49:45Z</time>
      </trkpt>
      <trkpt lat="48.6804" lon="7.31151">
        <ele>478.3</ele>
        <time>2020-08-18T13:49:47Z</time>
      </trkpt>
      <trkpt lat="48.68034" lon="7.31149">
        <ele>477.9</ele>
        <time>2020-08-18T13:49:49Z</time>
      </trkpt>
      <trkpt lat="48.68029" lon="7.31146">
        <ele>477.9</ele>
        <time>2020-08-18T13:49:51Z</time>
      </trkpt>
      <trkpt lat="48.68023" lon="7.31143">
        <ele>479</ele>
        <time>2020-08-18T13:49:54Z</time>
      </trkpt>
      <trkpt lat="48.68018" lon="7.31138">
        <ele>479.9</ele>
        <time>2020-08-18T13:49:56Z</time>
      </trkpt>
      <trkpt lat="48.68012" lon="7.31132">
        <ele>480.5</ele>
        <time>2020-08-18T13:49:59Z</time>
      </trkpt>
      <trkpt lat="48.68004" lon="7.31127">
        <ele>482.1</ele>
        <time>2020-08-18T13:50:01Z</time>
      </trkpt>
      <trkpt lat="48.67998" lon="7.31124">
        <ele>482.4</ele>
        <time>2020-08-18T13:50:03Z</time>
      </trkpt>
      <trkpt lat="48.67994" lon="7.3112">
        <ele>483.3</ele>
        <time>2020-08-18T13:50:05Z</time>
      </trkpt>
      <trkpt lat="48.67987" lon="7.31116">
        <ele>485</ele>
        <time>2020-08-18T13:50:08Z</time>
      </trkpt>
      <trkpt lat="48.67982" lon="7.31117">
        <ele>484.9</ele>
        <time>2020-08-18T13:50:10Z</time>
      </trkpt>
      <trkpt lat="48.67977" lon="7.31118">
        <ele>485.8</ele>
        <time>2020-08-18T13:50:12Z</time>
      </trkpt>
      <trkpt lat="48.67973" lon="7.31121">
        <ele>486.9</ele>
        <time>2020-08-18T13:50:19Z</time>
      </trkpt>
      <trkpt lat="48.67974" lon="7.31114">
        <ele>486.2</ele>
        <time>2020-08-18T13:50:25Z</time>
      </trkpt>
      <trkpt lat="48.67974" lon="7.31107">
        <ele>487.9</ele>
        <time>2020-08-18T13:50:30Z</time>
      </trkpt>
      <trkpt lat="48.67976" lon="7.31101">
        <ele>489.6</ele>
        <time>2020-08-18T13:50:34Z</time>
      </trkpt>
      <trkpt lat="48.67979" lon="7.31095">
        <ele>491</ele>
        <time>2020-08-18T13:50:38Z</time>
      </trkpt>
      <trkpt lat="48.67979" lon="7.31087">
        <ele>492.4</ele>
        <time>2020-08-18T13:50:42Z</time>
      </trkpt>
      <trkpt lat="48.67976" lon="7.31081">
        <ele>495.2</ele>
        <time>2020-08-18T13:50:51Z</time>
      </trkpt>
      <trkpt lat="48.67972" lon="7.31075">
        <ele>495.9</ele>
        <time>2020-08-18T13:50:54Z</time>
      </trkpt>
      <trkpt lat="48.67968" lon="7.31067">
        <ele>496.2</ele>
        <time>2020-08-18T13:50:57Z</time>
      </trkpt>
      <trkpt lat="48.67965" lon="7.31055">
        <ele>496.7</ele>
        <time>2020-08-18T13:51:00Z</time>
      </trkpt>
      <trkpt lat="48.67964" lon="7.31047">
        <ele>496.5</ele>
        <time>2020-08-18T13:51:02Z</time>
      </trkpt>
      <trkpt lat="48.67963" lon="7.31038">
        <ele>497.4</ele>
        <time>2020-08-18T13:51:04Z</time>
      </trkpt>
      <trkpt lat="48.67962" lon="7.3103">
        <ele>498.1</ele>
        <time>2020-08-18T13:51:06Z</time>
      </trkpt>
      <trkpt lat="48.6796" lon="7.31015">
        <ele>499.8</ele>
        <time>2020-08-18T13:51:09Z</time>
      </trkpt>
      <trkpt lat="48.67959" lon="7.31007">
        <ele>500.7</ele>
        <time>2020-08-18T13:51:11Z</time>
      </trkpt>
      <trkpt lat="48.67958" lon="7.31">
        <ele>501.1</ele>
        <time>2020-08-18T13:51:13Z</time>
      </trkpt>
      <trkpt lat="48.67958" lon="7.30992">
        <ele>501.4</ele>
        <time>2020-08-18T13:51:15Z</time>
      </trkpt>
      <trkpt lat="48.67958" lon="7.30978">
        <ele>502.2</ele>
        <time>2020-08-18T13:51:18Z</time>
      </trkpt>
      <trkpt lat="48.67958" lon="7.30965">
        <ele>503.3</ele>
        <time>2020-08-18T13:51:21Z</time>
      </trkpt>
      <trkpt lat="48.67959" lon="7.30956">
        <ele>502.7</ele>
        <time>2020-08-18T13:51:23Z</time>
      </trkpt>
      <trkpt lat="48.67963" lon="7.30944">
        <ele>502.6</ele>
        <time>2020-08-18T13:51:26Z</time>
      </trkpt>
      <trkpt lat="48.67965" lon="7.30937">
        <ele>502.4</ele>
        <time>2020-08-18T13:51:28Z</time>
      </trkpt>
      <trkpt lat="48.67968" lon="7.3093">
        <ele>501.9</ele>
        <time>2020-08-18T13:51:30Z</time>
      </trkpt>
      <trkpt lat="48.67971" lon="7.30921">
        <ele>502</ele>
        <time>2020-08-18T13:51:33Z</time>
      </trkpt>
      <trkpt lat="48.67972" lon="7.30912">
        <ele>503.1</ele>
        <time>2020-08-18T13:51:35Z</time>
      </trkpt>
      <trkpt lat="48.67973" lon="7.30904">
        <ele>502.5</ele>
        <time>2020-08-18T13:51:37Z</time>
      </trkpt>
      <trkpt lat="48.67974" lon="7.30896">
        <ele>503.1</ele>
        <time>2020-08-18T13:51:39Z</time>
      </trkpt>
      <trkpt lat="48.67975" lon="7.30888">
        <ele>502.9</ele>
        <time>2020-08-18T13:51:41Z</time>
      </trkpt>
      <trkpt lat="48.67975" lon="7.30879">
        <ele>502.1</ele>
        <time>2020-08-18T13:51:43Z</time>
      </trkpt>
      <trkpt lat="48.67976" lon="7.30871">
        <ele>501.5</ele>
        <time>2020-08-18T13:51:45Z</time>
      </trkpt>
      <trkpt lat="48.67976" lon="7.30863">
        <ele>501.3</ele>
        <time>2020-08-18T13:51:47Z</time>
      </trkpt>
      <trkpt lat="48.67975" lon="7.30856">
        <ele>501.1</ele>
        <time>2020-08-18T13:51:49Z</time>
      </trkpt>
      <trkpt lat="48.67974" lon="7.30849">
        <ele>501.1</ele>
        <time>2020-08-18T13:51:51Z</time>
      </trkpt>
      <trkpt lat="48.67974" lon="7.30839">
        <ele>500.4</ele>
        <time>2020-08-18T13:51:54Z</time>
      </trkpt>
      <trkpt lat="48.67974" lon="7.30829">
        <ele>500.8</ele>
        <time>2020-08-18T13:51:57Z</time>
      </trkpt>
      <trkpt lat="48.67973" lon="7.3082">
        <ele>501.2</ele>
        <time>2020-08-18T13:52:00Z</time>
      </trkpt>
      <trkpt lat="48.67971" lon="7.30807">
        <ele>501.9</ele>
        <time>2020-08-18T13:52:03Z</time>
      </trkpt>
      <trkpt lat="48.67969" lon="7.30795">
        <ele>502.5</ele>
        <time>2020-08-18T13:52:06Z</time>
      </trkpt>
      <trkpt lat="48.67967" lon="7.30788">
        <ele>503</ele>
        <time>2020-08-18T13:52:08Z</time>
      </trkpt>
      <trkpt lat="48.67965" lon="7.30778">
        <ele>503.5</ele>
        <time>2020-08-18T13:52:11Z</time>
      </trkpt>
      <trkpt lat="48.67962" lon="7.30771">
        <ele>505</ele>
        <time>2020-08-18T13:52:13Z</time>
      </trkpt>
      <trkpt lat="48.6796" lon="7.30765">
        <ele>506.3</ele>
        <time>2020-08-18T13:52:15Z</time>
      </trkpt>
      <trkpt lat="48.67959" lon="7.30758">
        <ele>507.7</ele>
        <time>2020-08-18T13:52:17Z</time>
      </trkpt>
      <trkpt lat="48.67952" lon="7.30746">
        <ele>510</ele>
        <time>2020-08-18T13:52:20Z</time>
      </trkpt>
      <trkpt lat="48.6795" lon="7.30739">
        <ele>511.3</ele>
        <time>2020-08-18T13:52:22Z</time>
      </trkpt>
      <trkpt lat="48.67947" lon="7.30729">
        <ele>511.7</ele>
        <time>2020-08-18T13:52:24Z</time>
      </trkpt>
      <trkpt lat="48.67946" lon="7.3072">
        <ele>513.6</ele>
        <time>2020-08-18T13:52:27Z</time>
      </trkpt>
      <trkpt lat="48.67944" lon="7.30712">
        <ele>514.3</ele>
        <time>2020-08-18T13:52:29Z</time>
      </trkpt>
      <trkpt lat="48.67942" lon="7.30703">
        <ele>514.7</ele>
        <time>2020-08-18T13:52:32Z</time>
      </trkpt>
      <trkpt lat="48.6794" lon="7.30696">
        <ele>515.2</ele>
        <time>2020-08-18T13:52:35Z</time>
      </trkpt>
      <trkpt lat="48.67938" lon="7.3069">
        <ele>515.2</ele>
        <time>2020-08-18T13:52:37Z</time>
      </trkpt>
      <trkpt lat="48.67937" lon="7.30683">
        <ele>516.7</ele>
        <time>2020-08-18T13:52:39Z</time>
      </trkpt>
      <trkpt lat="48.67936" lon="7.30674">
        <ele>517.3</ele>
        <time>2020-08-18T13:52:42Z</time>
      </trkpt>
      <trkpt lat="48.67935" lon="7.30667">
        <ele>519</ele>
        <time>2020-08-18T13:52:43Z</time>
      </trkpt>
      <trkpt lat="48.67933" lon="7.30659">
        <ele>518.9</ele>
        <time>2020-08-18T13:52:46Z</time>
      </trkpt>
      <trkpt lat="48.6793" lon="7.30649">
        <ele>519.1</ele>
        <time>2020-08-18T13:52:48Z</time>
      </trkpt>
      <trkpt lat="48.67927" lon="7.30641">
        <ele>518.8</ele>
        <time>2020-08-18T13:52:50Z</time>
      </trkpt>
      <trkpt lat="48.67924" lon="7.30634">
        <ele>519.8</ele>
        <time>2020-08-18T13:52:52Z</time>
      </trkpt>
      <trkpt lat="48.67923" lon="7.30623">
        <ele>520.2</ele>
        <time>2020-08-18T13:52:55Z</time>
      </trkpt>
      <trkpt lat="48.67922" lon="7.30613">
        <ele>521.3</ele>
        <time>2020-08-18T13:52:58Z</time>
      </trkpt>
      <trkpt lat="48.67921" lon="7.30605">
        <ele>520.8</ele>
        <time>2020-08-18T13:53:00Z</time>
      </trkpt>
      <trkpt lat="48.67918" lon="7.30597">
        <ele>521.5</ele>
        <time>2020-08-18T13:53:02Z</time>
      </trkpt>
      <trkpt lat="48.67913" lon="7.30587">
        <ele>521.7</ele>
        <time>2020-08-18T13:53:05Z</time>
      </trkpt>
      <trkpt lat="48.6791" lon="7.30578">
        <ele>521.9</ele>
        <time>2020-08-18T13:53:07Z</time>
      </trkpt>
      <trkpt lat="48.67907" lon="7.30571">
        <ele>522.2</ele>
        <time>2020-08-18T13:53:09Z</time>
      </trkpt>
      <trkpt lat="48.67904" lon="7.30565">
        <ele>522.5</ele>
        <time>2020-08-18T13:53:11Z</time>
      </trkpt>
      <trkpt lat="48.67901" lon="7.30558">
        <ele>523</ele>
        <time>2020-08-18T13:53:13Z</time>
      </trkpt>
      <trkpt lat="48.67899" lon="7.30551">
        <ele>523.2</ele>
        <time>2020-08-18T13:53:15Z</time>
      </trkpt>
      <trkpt lat="48.67897" lon="7.30544">
        <ele>524</ele>
        <time>2020-08-18T13:53:17Z</time>
      </trkpt>
      <trkpt lat="48.67893" lon="7.30534">
        <ele>525.1</ele>
        <time>2020-08-18T13:53:20Z</time>
      </trkpt>
      <trkpt lat="48.6789" lon="7.30526">
        <ele>526.4</ele>
        <time>2020-08-18T13:53:23Z</time>
      </trkpt>
      <trkpt lat="48.67888" lon="7.30518">
        <ele>527</ele>
        <time>2020-08-18T13:53:25Z</time>
      </trkpt>
      <trkpt lat="48.67885" lon="7.30511">
        <ele>526.8</ele>
        <time>2020-08-18T13:53:27Z</time>
      </trkpt>
      <trkpt lat="48.67882" lon="7.30505">
        <ele>526.6</ele>
        <time>2020-08-18T13:53:29Z</time>
      </trkpt>
      <trkpt lat="48.67879" lon="7.30499">
        <ele>526.1</ele>
        <time>2020-08-18T13:53:32Z</time>
      </trkpt>
      <trkpt lat="48.67876" lon="7.30493">
        <ele>525.3</ele>
        <time>2020-08-18T13:53:34Z</time>
      </trkpt>
      <trkpt lat="48.67872" lon="7.30485">
        <ele>526</ele>
        <time>2020-08-18T13:53:36Z</time>
      </trkpt>
      <trkpt lat="48.67869" lon="7.30477">
        <ele>526.2</ele>
        <time>2020-08-18T13:53:38Z</time>
      </trkpt>
      <trkpt lat="48.67866" lon="7.3047">
        <ele>526.6</ele>
        <time>2020-08-18T13:53:40Z</time>
      </trkpt>
      <trkpt lat="48.67863" lon="7.30463">
        <ele>526.6</ele>
        <time>2020-08-18T13:53:42Z</time>
      </trkpt>
      <trkpt lat="48.67859" lon="7.30457">
        <ele>527.4</ele>
        <time>2020-08-18T13:53:45Z</time>
      </trkpt>
      <trkpt lat="48.67855" lon="7.30449">
        <ele>528.1</ele>
        <time>2020-08-18T13:53:48Z</time>
      </trkpt>
      <trkpt lat="48.67854" lon="7.30441">
        <ele>527.9</ele>
        <time>2020-08-18T13:53:51Z</time>
      </trkpt>
      <trkpt lat="48.67851" lon="7.30434">
        <ele>527.9</ele>
        <time>2020-08-18T13:53:53Z</time>
      </trkpt>
      <trkpt lat="48.67849" lon="7.30427">
        <ele>528.2</ele>
        <time>2020-08-18T13:53:55Z</time>
      </trkpt>
      <trkpt lat="48.67845" lon="7.30419">
        <ele>528.4</ele>
        <time>2020-08-18T13:53:58Z</time>
      </trkpt>
      <trkpt lat="48.67841" lon="7.30411">
        <ele>529.3</ele>
        <time>2020-08-18T13:54:01Z</time>
      </trkpt>
      <trkpt lat="48.67837" lon="7.30405">
        <ele>529.9</ele>
        <time>2020-08-18T13:54:03Z</time>
      </trkpt>
      <trkpt lat="48.67834" lon="7.30401">
        <ele>530.2</ele>
        <time>2020-08-18T13:54:05Z</time>
      </trkpt>
      <trkpt lat="48.67829" lon="7.30395">
        <ele>530.7</ele>
        <time>2020-08-18T13:54:07Z</time>
      </trkpt>
      <trkpt lat="48.67824" lon="7.30389">
        <ele>531.9</ele>
        <time>2020-08-18T13:54:10Z</time>
      </trkpt>
      <trkpt lat="48.67818" lon="7.30382">
        <ele>533</ele>
        <time>2020-08-18T13:54:13Z</time>
      </trkpt>
      <trkpt lat="48.67813" lon="7.30377">
        <ele>533.5</ele>
        <time>2020-08-18T13:54:16Z</time>
      </trkpt>
      <trkpt lat="48.67808" lon="7.30372">
        <ele>534.2</ele>
        <time>2020-08-18T13:54:18Z</time>
      </trkpt>
      <trkpt lat="48.67804" lon="7.30368">
        <ele>535.6</ele>
        <time>2020-08-18T13:54:20Z</time>
      </trkpt>
      <trkpt lat="48.678" lon="7.30362">
        <ele>535.9</ele>
        <time>2020-08-18T13:54:23Z</time>
      </trkpt>
      <trkpt lat="48.67795" lon="7.30358">
        <ele>536.6</ele>
        <time>2020-08-18T13:54:25Z</time>
      </trkpt>
      <trkpt lat="48.67788" lon="7.3035">
        <ele>537.5</ele>
        <time>2020-08-18T13:54:28Z</time>
      </trkpt>
      <trkpt lat="48.67784" lon="7.30344">
        <ele>537.4</ele>
        <time>2020-08-18T13:54:30Z</time>
      </trkpt>
      <trkpt lat="48.67779" lon="7.3034">
        <ele>537.7</ele>
        <time>2020-08-18T13:54:32Z</time>
      </trkpt>
      <trkpt lat="48.67773" lon="7.30334">
        <ele>538.2</ele>
        <time>2020-08-18T13:54:35Z</time>
      </trkpt>
      <trkpt lat="48.67769" lon="7.3033">
        <ele>538</ele>
        <time>2020-08-18T13:54:37Z</time>
      </trkpt>
      <trkpt lat="48.67764" lon="7.30326">
        <ele>538.4</ele>
        <time>2020-08-18T13:54:39Z</time>
      </trkpt>
      <trkpt lat="48.6776" lon="7.30322">
        <ele>539</ele>
        <time>2020-08-18T13:54:41Z</time>
      </trkpt>
      <trkpt lat="48.67753" lon="7.30317">
        <ele>539.8</ele>
        <time>2020-08-18T13:54:44Z</time>
      </trkpt>
      <trkpt lat="48.67749" lon="7.30313">
        <ele>540.5</ele>
        <time>2020-08-18T13:54:46Z</time>
      </trkpt>
      <trkpt lat="48.67744" lon="7.30308">
        <ele>540.7</ele>
        <time>2020-08-18T13:54:49Z</time>
      </trkpt>
      <trkpt lat="48.67739" lon="7.30304">
        <ele>540.8</ele>
        <time>2020-08-18T13:54:51Z</time>
      </trkpt>
      <trkpt lat="48.67735" lon="7.303">
        <ele>541.1</ele>
        <time>2020-08-18T13:54:53Z</time>
      </trkpt>
      <trkpt lat="48.67731" lon="7.30296">
        <ele>541.5</ele>
        <time>2020-08-18T13:54:55Z</time>
      </trkpt>
      <trkpt lat="48.67724" lon="7.3029">
        <ele>542.8</ele>
        <time>2020-08-18T13:54:58Z</time>
      </trkpt>
      <trkpt lat="48.67717" lon="7.30286">
        <ele>543.8</ele>
        <time>2020-08-18T13:55:01Z</time>
      </trkpt>
      <trkpt lat="48.67711" lon="7.30281">
        <ele>544.9</ele>
        <time>2020-08-18T13:55:04Z</time>
      </trkpt>
      <trkpt lat="48.67707" lon="7.30278">
        <ele>545.7</ele>
        <time>2020-08-18T13:55:06Z</time>
      </trkpt>
      <trkpt lat="48.67704" lon="7.30274">
        <ele>546.1</ele>
        <time>2020-08-18T13:55:08Z</time>
      </trkpt>
      <trkpt lat="48.677" lon="7.30269">
        <ele>546.5</ele>
        <time>2020-08-18T13:55:10Z</time>
      </trkpt>
      <trkpt lat="48.67696" lon="7.30262">
        <ele>548.1</ele>
        <time>2020-08-18T13:55:12Z</time>
      </trkpt>
      <trkpt lat="48.67693" lon="7.30255">
        <ele>548.3</ele>
        <time>2020-08-18T13:55:14Z</time>
      </trkpt>
      <trkpt lat="48.6769" lon="7.30246">
        <ele>549.4</ele>
        <time>2020-08-18T13:55:17Z</time>
      </trkpt>
      <trkpt lat="48.67684" lon="7.30236">
        <ele>550.2</ele>
        <time>2020-08-18T13:55:20Z</time>
      </trkpt>
      <trkpt lat="48.67679" lon="7.30228">
        <ele>549.8</ele>
        <time>2020-08-18T13:55:23Z</time>
      </trkpt>
      <trkpt lat="48.67675" lon="7.30223">
        <ele>549.7</ele>
        <time>2020-08-18T13:55:25Z</time>
      </trkpt>
      <trkpt lat="48.67672" lon="7.30218">
        <ele>549.5</ele>
        <time>2020-08-18T13:55:27Z</time>
      </trkpt>
      <trkpt lat="48.67668" lon="7.30213">
        <ele>549.1</ele>
        <time>2020-08-18T13:55:29Z</time>
      </trkpt>
      <trkpt lat="48.67664" lon="7.30209">
        <ele>548.9</ele>
        <time>2020-08-18T13:55:31Z</time>
      </trkpt>
      <trkpt lat="48.6766" lon="7.30206">
        <ele>548.4</ele>
        <time>2020-08-18T13:55:35Z</time>
      </trkpt>
      <trkpt lat="48.67662" lon="7.30212">
        <ele>544.6</ele>
        <time>2020-08-18T13:55:42Z</time>
      </trkpt>
      <trkpt lat="48.67658" lon="7.30206">
        <ele>544.4</ele>
        <time>2020-08-18T13:55:47Z</time>
      </trkpt>
      <trkpt lat="48.67654" lon="7.30198">
        <ele>544.5</ele>
        <time>2020-08-18T13:55:50Z</time>
      </trkpt>
      <trkpt lat="48.6765" lon="7.3019">
        <ele>544.8</ele>
        <time>2020-08-18T13:55:53Z</time>
      </trkpt>
      <trkpt lat="48.67646" lon="7.30183">
        <ele>546</ele>
        <time>2020-08-18T13:55:56Z</time>
      </trkpt>
      <trkpt lat="48.67643" lon="7.30177">
        <ele>546.7</ele>
        <time>2020-08-18T13:55:58Z</time>
      </trkpt>
      <trkpt lat="48.6764" lon="7.3017">
        <ele>546.5</ele>
        <time>2020-08-18T13:56:00Z</time>
      </trkpt>
      <trkpt lat="48.67637" lon="7.30164">
        <ele>548.3</ele>
        <time>2020-08-18T13:56:02Z</time>
      </trkpt>
      <trkpt lat="48.67633" lon="7.30157">
        <ele>549.1</ele>
        <time>2020-08-18T13:56:04Z</time>
      </trkpt>
      <trkpt lat="48.67628" lon="7.3015">
        <ele>549.9</ele>
        <time>2020-08-18T13:56:07Z</time>
      </trkpt>
      <trkpt lat="48.67625" lon="7.30144">
        <ele>551</ele>
        <time>2020-08-18T13:56:09Z</time>
      </trkpt>
      <trkpt lat="48.67623" lon="7.30138">
        <ele>551.5</ele>
        <time>2020-08-18T13:56:11Z</time>
      </trkpt>
      <trkpt lat="48.67619" lon="7.30131">
        <ele>552.4</ele>
        <time>2020-08-18T13:56:13Z</time>
      </trkpt>
      <trkpt lat="48.67616" lon="7.30119">
        <ele>552.9</ele>
        <time>2020-08-18T13:56:16Z</time>
      </trkpt>
      <trkpt lat="48.67614" lon="7.30111">
        <ele>553.5</ele>
        <time>2020-08-18T13:56:18Z</time>
      </trkpt>
      <trkpt lat="48.67611" lon="7.30102">
        <ele>553.8</ele>
        <time>2020-08-18T13:56:20Z</time>
      </trkpt>
      <trkpt lat="48.67608" lon="7.30095">
        <ele>553.9</ele>
        <time>2020-08-18T13:56:22Z</time>
      </trkpt>
      <trkpt lat="48.67605" lon="7.30086">
        <ele>554.6</ele>
        <time>2020-08-18T13:56:24Z</time>
      </trkpt>
      <trkpt lat="48.67603" lon="7.30078">
        <ele>553.8</ele>
        <time>2020-08-18T13:56:26Z</time>
      </trkpt>
      <trkpt lat="48.676" lon="7.30071">
        <ele>553.7</ele>
        <time>2020-08-18T13:56:28Z</time>
      </trkpt>
      <trkpt lat="48.67597" lon="7.30064">
        <ele>553.2</ele>
        <time>2020-08-18T13:56:30Z</time>
      </trkpt>
      <trkpt lat="48.67595" lon="7.30056">
        <ele>553.6</ele>
        <time>2020-08-18T13:56:32Z</time>
      </trkpt>
      <trkpt lat="48.67591" lon="7.30048">
        <ele>553.3</ele>
        <time>2020-08-18T13:56:34Z</time>
      </trkpt>
      <trkpt lat="48.67587" lon="7.30037">
        <ele>553.6</ele>
        <time>2020-08-18T13:56:37Z</time>
      </trkpt>
      <trkpt lat="48.67583" lon="7.3003">
        <ele>554.2</ele>
        <time>2020-08-18T13:56:39Z</time>
      </trkpt>
      <trkpt lat="48.6758" lon="7.30021">
        <ele>553.7</ele>
        <time>2020-08-18T13:56:41Z</time>
      </trkpt>
      <trkpt lat="48.67576" lon="7.3001">
        <ele>554</ele>
        <time>2020-08-18T13:56:44Z</time>
      </trkpt>
      <trkpt lat="48.67573" lon="7.30004">
        <ele>553.2</ele>
        <time>2020-08-18T13:56:46Z</time>
      </trkpt>
      <trkpt lat="48.67568" lon="7.29998">
        <ele>554.3</ele>
        <time>2020-08-18T13:56:49Z</time>
      </trkpt>
      <trkpt lat="48.67564" lon="7.29991">
        <ele>555.3</ele>
        <time>2020-08-18T13:56:52Z</time>
      </trkpt>
      <trkpt lat="48.67561" lon="7.29984">
        <ele>555.8</ele>
        <time>2020-08-18T13:56:54Z</time>
      </trkpt>
      <trkpt lat="48.67557" lon="7.29977">
        <ele>555.6</ele>
        <time>2020-08-18T13:56:57Z</time>
      </trkpt>
      <trkpt lat="48.67552" lon="7.29969">
        <ele>556.6</ele>
        <time>2020-08-18T13:57:00Z</time>
      </trkpt>
      <trkpt lat="48.67547" lon="7.29963">
        <ele>556.2</ele>
        <time>2020-08-18T13:57:03Z</time>
      </trkpt>
      <trkpt lat="48.67543" lon="7.29958">
        <ele>556</ele>
        <time>2020-08-18T13:57:05Z</time>
      </trkpt>
      <trkpt lat="48.67539" lon="7.29954">
        <ele>556.3</ele>
        <time>2020-08-18T13:57:07Z</time>
      </trkpt>
      <trkpt lat="48.67535" lon="7.29949">
        <ele>557</ele>
        <time>2020-08-18T13:57:09Z</time>
      </trkpt>
      <trkpt lat="48.67531" lon="7.29942">
        <ele>556.6</ele>
        <time>2020-08-18T13:57:12Z</time>
      </trkpt>
      <trkpt lat="48.67527" lon="7.29936">
        <ele>557.2</ele>
        <time>2020-08-18T13:57:15Z</time>
      </trkpt>
      <trkpt lat="48.67523" lon="7.29931">
        <ele>557.5</ele>
        <time>2020-08-18T13:57:18Z</time>
      </trkpt>
      <trkpt lat="48.67519" lon="7.29925">
        <ele>558.1</ele>
        <time>2020-08-18T13:57:21Z</time>
      </trkpt>
      <trkpt lat="48.67516" lon="7.29918">
        <ele>557.8</ele>
        <time>2020-08-18T13:57:23Z</time>
      </trkpt>
      <trkpt lat="48.67513" lon="7.29911">
        <ele>558.1</ele>
        <time>2020-08-18T13:57:25Z</time>
      </trkpt>
      <trkpt lat="48.67506" lon="7.29903">
        <ele>557.9</ele>
        <time>2020-08-18T13:57:28Z</time>
      </trkpt>
      <trkpt lat="48.67502" lon="7.29896">
        <ele>558.2</ele>
        <time>2020-08-18T13:57:30Z</time>
      </trkpt>
      <trkpt lat="48.67499" lon="7.29889">
        <ele>558.6</ele>
        <time>2020-08-18T13:57:32Z</time>
      </trkpt>
      <trkpt lat="48.67495" lon="7.29883">
        <ele>558.5</ele>
        <time>2020-08-18T13:57:35Z</time>
      </trkpt>
      <trkpt lat="48.67492" lon="7.29875">
        <ele>558.3</ele>
        <time>2020-08-18T13:57:38Z</time>
      </trkpt>
      <trkpt lat="48.67488" lon="7.29867">
        <ele>558.7</ele>
        <time>2020-08-18T13:57:41Z</time>
      </trkpt>
      <trkpt lat="48.67485" lon="7.2986">
        <ele>559.9</ele>
        <time>2020-08-18T13:57:44Z</time>
      </trkpt>
      <trkpt lat="48.67482" lon="7.29853">
        <ele>559.8</ele>
        <time>2020-08-18T13:57:47Z</time>
      </trkpt>
      <trkpt lat="48.6748" lon="7.29846">
        <ele>558.9</ele>
        <time>2020-08-18T13:57:54Z</time>
      </trkpt>
      <trkpt lat="48.67479" lon="7.29839">
        <ele>559.7</ele>
        <time>2020-08-18T13:58:05Z</time>
      </trkpt>
      <trkpt lat="48.67475" lon="7.29833">
        <ele>559.8</ele>
        <time>2020-08-18T13:58:10Z</time>
      </trkpt>
      <trkpt lat="48.67473" lon="7.29826">
        <ele>560.3</ele>
        <time>2020-08-18T13:58:13Z</time>
      </trkpt>
      <trkpt lat="48.6747" lon="7.29819">
        <ele>560.2</ele>
        <time>2020-08-18T13:58:16Z</time>
      </trkpt>
      <trkpt lat="48.67467" lon="7.29812">
        <ele>561.3</ele>
        <time>2020-08-18T13:58:19Z</time>
      </trkpt>
      <trkpt lat="48.67464" lon="7.29805">
        <ele>561.7</ele>
        <time>2020-08-18T13:58:21Z</time>
      </trkpt>
      <trkpt lat="48.67461" lon="7.29799">
        <ele>563</ele>
        <time>2020-08-18T13:58:23Z</time>
      </trkpt>
      <trkpt lat="48.67458" lon="7.29793">
        <ele>563.3</ele>
        <time>2020-08-18T13:58:25Z</time>
      </trkpt>
      <trkpt lat="48.67454" lon="7.29787">
        <ele>563.4</ele>
        <time>2020-08-18T13:58:27Z</time>
      </trkpt>
      <trkpt lat="48.67451" lon="7.2978">
        <ele>562.8</ele>
        <time>2020-08-18T13:58:30Z</time>
      </trkpt>
      <trkpt lat="48.67449" lon="7.29771">
        <ele>562.5</ele>
        <time>2020-08-18T13:58:33Z</time>
      </trkpt>
      <trkpt lat="48.67447" lon="7.29764">
        <ele>561.9</ele>
        <time>2020-08-18T13:58:35Z</time>
      </trkpt>
      <trkpt lat="48.67444" lon="7.29757">
        <ele>562.3</ele>
        <time>2020-08-18T13:58:37Z</time>
      </trkpt>
      <trkpt lat="48.6744" lon="7.29747">
        <ele>561.9</ele>
        <time>2020-08-18T13:58:40Z</time>
      </trkpt>
      <trkpt lat="48.67433" lon="7.29739">
        <ele>562</ele>
        <time>2020-08-18T13:58:43Z</time>
      </trkpt>
      <trkpt lat="48.67427" lon="7.29737">
        <ele>562.4</ele>
        <time>2020-08-18T13:58:46Z</time>
      </trkpt>
      <trkpt lat="48.67422" lon="7.29735">
        <ele>562.9</ele>
        <time>2020-08-18T13:58:49Z</time>
      </trkpt>
      <trkpt lat="48.67419" lon="7.29728">
        <ele>562.5</ele>
        <time>2020-08-18T13:58:52Z</time>
      </trkpt>
      <trkpt lat="48.67419" lon="7.29722">
        <ele>562.2</ele>
        <time>2020-08-18T13:59:02Z</time>
      </trkpt>
      <trkpt lat="48.67418" lon="7.29714">
        <ele>562.9</ele>
        <time>2020-08-18T13:59:06Z</time>
      </trkpt>
      <trkpt lat="48.67418" lon="7.29705">
        <ele>563.5</ele>
        <time>2020-08-18T13:59:09Z</time>
      </trkpt>
      <trkpt lat="48.67418" lon="7.29696">
        <ele>563.9</ele>
        <time>2020-08-18T13:59:12Z</time>
      </trkpt>
      <trkpt lat="48.6742" lon="7.29688">
        <ele>563.9</ele>
        <time>2020-08-18T13:59:15Z</time>
      </trkpt>
      <trkpt lat="48.67421" lon="7.29681">
        <ele>564.5</ele>
        <time>2020-08-18T13:59:18Z</time>
      </trkpt>
      <trkpt lat="48.67424" lon="7.29673">
        <ele>565.5</ele>
        <time>2020-08-18T13:59:21Z</time>
      </trkpt>
      <trkpt lat="48.67425" lon="7.29664">
        <ele>566.3</ele>
        <time>2020-08-18T13:59:24Z</time>
      </trkpt>
      <trkpt lat="48.67427" lon="7.29656">
        <ele>566.8</ele>
        <time>2020-08-18T13:59:27Z</time>
      </trkpt>
      <trkpt lat="48.67429" lon="7.29648">
        <ele>566.8</ele>
        <time>2020-08-18T13:59:30Z</time>
      </trkpt>
      <trkpt lat="48.67431" lon="7.29639">
        <ele>567.2</ele>
        <time>2020-08-18T13:59:33Z</time>
      </trkpt>
      <trkpt lat="48.67433" lon="7.2963">
        <ele>567.8</ele>
        <time>2020-08-18T13:59:36Z</time>
      </trkpt>
      <trkpt lat="48.67435" lon="7.29622">
        <ele>568.8</ele>
        <time>2020-08-18T13:59:39Z</time>
      </trkpt>
      <trkpt lat="48.67439" lon="7.29613">
        <ele>570.4</ele>
        <time>2020-08-18T13:59:41Z</time>
      </trkpt>
      <trkpt lat="48.67441" lon="7.29606">
        <ele>569.7</ele>
        <time>2020-08-18T13:59:43Z</time>
      </trkpt>
      <trkpt lat="48.67443" lon="7.29599">
        <ele>570.5</ele>
        <time>2020-08-18T13:59:45Z</time>
      </trkpt>
      <trkpt lat="48.67445" lon="7.29593">
        <ele>570.9</ele>
        <time>2020-08-18T13:59:47Z</time>
      </trkpt>
      <trkpt lat="48.67446" lon="7.29587">
        <ele>570.6</ele>
        <time>2020-08-18T13:59:49Z</time>
      </trkpt>
      <trkpt lat="48.67448" lon="7.2958">
        <ele>570.9</ele>
        <time>2020-08-18T13:59:51Z</time>
      </trkpt>
      <trkpt lat="48.6745" lon="7.29571">
        <ele>571.5</ele>
        <time>2020-08-18T13:59:54Z</time>
      </trkpt>
      <trkpt lat="48.67453" lon="7.29562">
        <ele>572.3</ele>
        <time>2020-08-18T13:59:57Z</time>
      </trkpt>
      <trkpt lat="48.67453" lon="7.29554">
        <ele>573.5</ele>
        <time>2020-08-18T13:59:59Z</time>
      </trkpt>
      <trkpt lat="48.67454" lon="7.29546">
        <ele>575.4</ele>
        <time>2020-08-18T14:00:02Z</time>
      </trkpt>
      <trkpt lat="48.67456" lon="7.29536">
        <ele>576.7</ele>
        <time>2020-08-18T14:00:05Z</time>
      </trkpt>
      <trkpt lat="48.67457" lon="7.2953">
        <ele>577.2</ele>
        <time>2020-08-18T14:00:07Z</time>
      </trkpt>
      <trkpt lat="48.67459" lon="7.2952">
        <ele>578.1</ele>
        <time>2020-08-18T14:00:10Z</time>
      </trkpt>
      <trkpt lat="48.6746" lon="7.29513">
        <ele>578.8</ele>
        <time>2020-08-18T14:00:12Z</time>
      </trkpt>
      <trkpt lat="48.6746" lon="7.29506">
        <ele>579.7</ele>
        <time>2020-08-18T14:00:16Z</time>
      </trkpt>
      <trkpt lat="48.67461" lon="7.29499">
        <ele>580.4</ele>
        <time>2020-08-18T14:00:20Z</time>
      </trkpt>
      <trkpt lat="48.67461" lon="7.29492">
        <ele>581.1</ele>
        <time>2020-08-18T14:00:24Z</time>
      </trkpt>
      <trkpt lat="48.67463" lon="7.29484">
        <ele>583.2</ele>
        <time>2020-08-18T14:00:30Z</time>
      </trkpt>
      <trkpt lat="48.67463" lon="7.29477">
        <ele>583.8</ele>
        <time>2020-08-18T14:00:35Z</time>
      </trkpt>
      <trkpt lat="48.67463" lon="7.29469">
        <ele>584.8</ele>
        <time>2020-08-18T14:00:40Z</time>
      </trkpt>
      <trkpt lat="48.67464" lon="7.29463">
        <ele>586.3</ele>
        <time>2020-08-18T14:00:44Z</time>
      </trkpt>
      <trkpt lat="48.6746" lon="7.29458">
        <ele>588.4</ele>
        <time>2020-08-18T14:00:51Z</time>
      </trkpt>
      <trkpt lat="48.67456" lon="7.29461">
        <ele>589.6</ele>
        <time>2020-08-18T14:01:00Z</time>
      </trkpt>
      <trkpt lat="48.67452" lon="7.29465">
        <ele>591.9</ele>
        <time>2020-08-18T14:01:11Z</time>
      </trkpt>
      <trkpt lat="48.67447" lon="7.29468">
        <ele>594.1</ele>
        <time>2020-08-18T14:01:19Z</time>
      </trkpt>
      <trkpt lat="48.67443" lon="7.2947">
        <ele>596.9</ele>
        <time>2020-08-18T14:01:26Z</time>
      </trkpt>
      <trkpt lat="48.6744" lon="7.29475">
        <ele>597.9</ele>
        <time>2020-08-18T14:01:30Z</time>
      </trkpt>
      <trkpt lat="48.67438" lon="7.29468">
        <ele>600.8</ele>
        <time>2020-08-18T14:01:45Z</time>
      </trkpt>
      <trkpt lat="48.67438" lon="7.29461">
        <ele>601</ele>
        <time>2020-08-18T14:01:51Z</time>
      </trkpt>
      <trkpt lat="48.67439" lon="7.29453">
        <ele>601.7</ele>
        <time>2020-08-18T14:01:56Z</time>
      </trkpt>
      <trkpt lat="48.67434" lon="7.29454">
        <ele>604.1</ele>
        <time>2020-08-18T14:02:05Z</time>
      </trkpt>
      <trkpt lat="48.6743" lon="7.29449">
        <ele>605.7</ele>
        <time>2020-08-18T14:02:12Z</time>
      </trkpt>
      <trkpt lat="48.67428" lon="7.29443">
        <ele>606.8</ele>
        <time>2020-08-18T14:02:18Z</time>
      </trkpt>
      <trkpt lat="48.67423" lon="7.29445">
        <ele>608.1</ele>
        <time>2020-08-18T14:02:30Z</time>
      </trkpt>
      <trkpt lat="48.67418" lon="7.29446">
        <ele>608.4</ele>
        <time>2020-08-18T14:02:35Z</time>
      </trkpt>
      <trkpt lat="48.67413" lon="7.29445">
        <ele>608.3</ele>
        <time>2020-08-18T14:02:50Z</time>
      </trkpt>
      <trkpt lat="48.67408" lon="7.29443">
        <ele>608.2</ele>
        <time>2020-08-18T14:02:53Z</time>
      </trkpt>
      <trkpt lat="48.67403" lon="7.2944">
        <ele>608.4</ele>
        <time>2020-08-18T14:02:56Z</time>
      </trkpt>
      <trkpt lat="48.67398" lon="7.29436">
        <ele>608.4</ele>
        <time>2020-08-18T14:02:59Z</time>
      </trkpt>
      <trkpt lat="48.67394" lon="7.29431">
        <ele>608.3</ele>
        <time>2020-08-18T14:03:02Z</time>
      </trkpt>
      <trkpt lat="48.6739" lon="7.29422">
        <ele>608.4</ele>
        <time>2020-08-18T14:03:05Z</time>
      </trkpt>
      <trkpt lat="48.67388" lon="7.29413">
        <ele>608.7</ele>
        <time>2020-08-18T14:03:07Z</time>
      </trkpt>
      <trkpt lat="48.67384" lon="7.29405">
        <ele>609.1</ele>
        <time>2020-08-18T14:03:09Z</time>
      </trkpt>
      <trkpt lat="48.67379" lon="7.29398">
        <ele>609.3</ele>
        <time>2020-08-18T14:03:11Z</time>
      </trkpt>
      <trkpt lat="48.67374" lon="7.29394">
        <ele>609.3</ele>
        <time>2020-08-18T14:03:13Z</time>
      </trkpt>
      <trkpt lat="48.67369" lon="7.29392">
        <ele>609.8</ele>
        <time>2020-08-18T14:03:15Z</time>
      </trkpt>
      <trkpt lat="48.67364" lon="7.29391">
        <ele>609.8</ele>
        <time>2020-08-18T14:03:17Z</time>
      </trkpt>
      <trkpt lat="48.67359" lon="7.29391">
        <ele>609.3</ele>
        <time>2020-08-18T14:03:19Z</time>
      </trkpt>
      <trkpt lat="48.67353" lon="7.29389">
        <ele>609.4</ele>
        <time>2020-08-18T14:03:21Z</time>
      </trkpt>
      <trkpt lat="48.67347" lon="7.29388">
        <ele>609.8</ele>
        <time>2020-08-18T14:03:23Z</time>
      </trkpt>
      <trkpt lat="48.67342" lon="7.29384">
        <ele>610.1</ele>
        <time>2020-08-18T14:03:25Z</time>
      </trkpt>
      <trkpt lat="48.67337" lon="7.29377">
        <ele>609.8</ele>
        <time>2020-08-18T14:03:27Z</time>
      </trkpt>
      <trkpt lat="48.67331" lon="7.29368">
        <ele>609.1</ele>
        <time>2020-08-18T14:03:29Z</time>
      </trkpt>
      <trkpt lat="48.67325" lon="7.29359">
        <ele>608.9</ele>
        <time>2020-08-18T14:03:31Z</time>
      </trkpt>
      <trkpt lat="48.67319" lon="7.29354">
        <ele>608.9</ele>
        <time>2020-08-18T14:03:33Z</time>
      </trkpt>
      <trkpt lat="48.67313" lon="7.29349">
        <ele>608.9</ele>
        <time>2020-08-18T14:03:35Z</time>
      </trkpt>
      <trkpt lat="48.67308" lon="7.29347">
        <ele>608.9</ele>
        <time>2020-08-18T14:03:37Z</time>
      </trkpt>
      <trkpt lat="48.67303" lon="7.29343">
        <ele>609.2</ele>
        <time>2020-08-18T14:03:39Z</time>
      </trkpt>
      <trkpt lat="48.67299" lon="7.29338">
        <ele>609.1</ele>
        <time>2020-08-18T14:03:41Z</time>
      </trkpt>
      <trkpt lat="48.67295" lon="7.29332">
        <ele>609.7</ele>
        <time>2020-08-18T14:03:43Z</time>
      </trkpt>
      <trkpt lat="48.67292" lon="7.29327">
        <ele>609.8</ele>
        <time>2020-08-18T14:03:45Z</time>
      </trkpt>
      <trkpt lat="48.67287" lon="7.29322">
        <ele>610.7</ele>
        <time>2020-08-18T14:03:47Z</time>
      </trkpt>
      <trkpt lat="48.67282" lon="7.29317">
        <ele>610.8</ele>
        <time>2020-08-18T14:03:49Z</time>
      </trkpt>
      <trkpt lat="48.67277" lon="7.29313">
        <ele>611.4</ele>
        <time>2020-08-18T14:03:51Z</time>
      </trkpt>
      <trkpt lat="48.67272" lon="7.2931">
        <ele>611.6</ele>
        <time>2020-08-18T14:03:53Z</time>
      </trkpt>
      <trkpt lat="48.67267" lon="7.29304">
        <ele>611.4</ele>
        <time>2020-08-18T14:03:55Z</time>
      </trkpt>
      <trkpt lat="48.67262" lon="7.29299">
        <ele>611.8</ele>
        <time>2020-08-18T14:03:57Z</time>
      </trkpt>
      <trkpt lat="48.67258" lon="7.29295">
        <ele>611.8</ele>
        <time>2020-08-18T14:03:59Z</time>
      </trkpt>
      <trkpt lat="48.67253" lon="7.29291">
        <ele>611.9</ele>
        <time>2020-08-18T14:04:01Z</time>
      </trkpt>
      <trkpt lat="48.67248" lon="7.29286">
        <ele>611.8</ele>
        <time>2020-08-18T14:04:03Z</time>
      </trkpt>
      <trkpt lat="48.67244" lon="7.29281">
        <ele>612</ele>
        <time>2020-08-18T14:04:05Z</time>
      </trkpt>
      <trkpt lat="48.6724" lon="7.29274">
        <ele>612</ele>
        <time>2020-08-18T14:04:07Z</time>
      </trkpt>
      <trkpt lat="48.67236" lon="7.29269">
        <ele>612.3</ele>
        <time>2020-08-18T14:04:09Z</time>
      </trkpt>
      <trkpt lat="48.67232" lon="7.29265">
        <ele>612.3</ele>
        <time>2020-08-18T14:04:11Z</time>
      </trkpt>
      <trkpt lat="48.67227" lon="7.2926">
        <ele>612.3</ele>
        <time>2020-08-18T14:04:14Z</time>
      </trkpt>
      <trkpt lat="48.67223" lon="7.29256">
        <ele>612.8</ele>
        <time>2020-08-18T14:04:16Z</time>
      </trkpt>
      <trkpt lat="48.67218" lon="7.2925">
        <ele>612.7</ele>
        <time>2020-08-18T14:04:19Z</time>
      </trkpt>
      <trkpt lat="48.67212" lon="7.29245">
        <ele>612.2</ele>
        <time>2020-08-18T14:04:22Z</time>
      </trkpt>
      <trkpt lat="48.67207" lon="7.29241">
        <ele>611.8</ele>
        <time>2020-08-18T14:04:25Z</time>
      </trkpt>
      <trkpt lat="48.67203" lon="7.29238">
        <ele>611.6</ele>
        <time>2020-08-18T14:04:28Z</time>
      </trkpt>
      <trkpt lat="48.67199" lon="7.29231">
        <ele>610.2</ele>
        <time>2020-08-18T14:04:44Z</time>
      </trkpt>
      <trkpt lat="48.67197" lon="7.29226">
        <ele>610.9</ele>
        <time>2020-08-18T14:04:47Z</time>
      </trkpt>
      <trkpt lat="48.67194" lon="7.29219">
        <ele>611.6</ele>
        <time>2020-08-18T14:04:50Z</time>
      </trkpt>
      <trkpt lat="48.67191" lon="7.2921">
        <ele>612</ele>
        <time>2020-08-18T14:04:53Z</time>
      </trkpt>
      <trkpt lat="48.67187" lon="7.29203">
        <ele>612.6</ele>
        <time>2020-08-18T14:04:56Z</time>
      </trkpt>
      <trkpt lat="48.67183" lon="7.29195">
        <ele>612.9</ele>
        <time>2020-08-18T14:04:59Z</time>
      </trkpt>
      <trkpt lat="48.6718" lon="7.29189">
        <ele>612.9</ele>
        <time>2020-08-18T14:05:01Z</time>
      </trkpt>
      <trkpt lat="48.67177" lon="7.29181">
        <ele>612.9</ele>
        <time>2020-08-18T14:05:04Z</time>
      </trkpt>
      <trkpt lat="48.67174" lon="7.29175">
        <ele>613.6</ele>
        <time>2020-08-18T14:05:08Z</time>
      </trkpt>
      <trkpt lat="48.67173" lon="7.29167">
        <ele>613.8</ele>
        <time>2020-08-18T14:05:19Z</time>
      </trkpt>
      <trkpt lat="48.67168" lon="7.29166">
        <ele>614.3</ele>
        <time>2020-08-18T14:05:36Z</time>
      </trkpt>
      <trkpt lat="48.67172" lon="7.2917">
        <ele>614.4</ele>
        <time>2020-08-18T14:05:44Z</time>
      </trkpt>
      <trkpt lat="48.6717" lon="7.29177">
        <ele>615.4</ele>
        <time>2020-08-18T14:05:58Z</time>
      </trkpt>
      <trkpt lat="48.67172" lon="7.29184">
        <ele>614</ele>
        <time>2020-08-18T14:10:05Z</time>
      </trkpt>
      <trkpt lat="48.67177" lon="7.29191">
        <ele>614.4</ele>
        <time>2020-08-18T14:10:09Z</time>
      </trkpt>
      <trkpt lat="48.67181" lon="7.29198">
        <ele>614.5</ele>
        <time>2020-08-18T14:10:11Z</time>
      </trkpt>
      <trkpt lat="48.67185" lon="7.29205">
        <ele>614.7</ele>
        <time>2020-08-18T14:10:13Z</time>
      </trkpt>
      <trkpt lat="48.67189" lon="7.29212">
        <ele>614.7</ele>
        <time>2020-08-18T14:10:15Z</time>
      </trkpt>
      <trkpt lat="48.67192" lon="7.2922">
        <ele>614.9</ele>
        <time>2020-08-18T14:10:17Z</time>
      </trkpt>
      <trkpt lat="48.67195" lon="7.29228">
        <ele>614.7</ele>
        <time>2020-08-18T14:10:20Z</time>
      </trkpt>
      <trkpt lat="48.67197" lon="7.29235">
        <ele>614.4</ele>
        <time>2020-08-18T14:10:23Z</time>
      </trkpt>
      <trkpt lat="48.67195" lon="7.29241">
        <ele>612.9</ele>
        <time>2020-08-18T14:10:41Z</time>
      </trkpt>
      <trkpt lat="48.67189" lon="7.29242">
        <ele>612.6</ele>
        <time>2020-08-18T14:10:54Z</time>
      </trkpt>
      <trkpt lat="48.67185" lon="7.29247">
        <ele>611.4</ele>
        <time>2020-08-18T14:10:59Z</time>
      </trkpt>
      <trkpt lat="48.6718" lon="7.29243">
        <ele>610.2</ele>
        <time>2020-08-18T14:11:07Z</time>
      </trkpt>
      <trkpt lat="48.67177" lon="7.29238">
        <ele>609.1</ele>
        <time>2020-08-18T14:11:09Z</time>
      </trkpt>
      <trkpt lat="48.67174" lon="7.2923">
        <ele>607.3</ele>
        <time>2020-08-18T14:11:12Z</time>
      </trkpt>
      <trkpt lat="48.6717" lon="7.29222">
        <ele>605.6</ele>
        <time>2020-08-18T14:11:15Z</time>
      </trkpt>
      <trkpt lat="48.67165" lon="7.29221">
        <ele>605.1</ele>
        <time>2020-08-18T14:11:18Z</time>
      </trkpt>
      <trkpt lat="48.67165" lon="7.29232">
        <ele>604</ele>
        <time>2020-08-18T14:11:21Z</time>
      </trkpt>
      <trkpt lat="48.67166" lon="7.29242">
        <ele>603.6</ele>
        <time>2020-08-18T14:11:23Z</time>
      </trkpt>
      <trkpt lat="48.67166" lon="7.29251">
        <ele>602.8</ele>
        <time>2020-08-18T14:11:25Z</time>
      </trkpt>
      <trkpt lat="48.67167" lon="7.29259">
        <ele>601.5</ele>
        <time>2020-08-18T14:11:28Z</time>
      </trkpt>
      <trkpt lat="48.67169" lon="7.29265">
        <ele>600.3</ele>
        <time>2020-08-18T14:11:35Z</time>
      </trkpt>
      <trkpt lat="48.67163" lon="7.29264">
        <ele>599.3</ele>
        <time>2020-08-18T14:11:48Z</time>
      </trkpt>
      <trkpt lat="48.6716" lon="7.29257">
        <ele>598.1</ele>
        <time>2020-08-18T14:11:51Z</time>
      </trkpt>
      <trkpt lat="48.67156" lon="7.29251">
        <ele>597.3</ele>
        <time>2020-08-18T14:11:53Z</time>
      </trkpt>
      <trkpt lat="48.67153" lon="7.29244">
        <ele>596.2</ele>
        <time>2020-08-18T14:11:55Z</time>
      </trkpt>
      <trkpt lat="48.67149" lon="7.29236">
        <ele>595.4</ele>
        <time>2020-08-18T14:11:57Z</time>
      </trkpt>
      <trkpt lat="48.67147" lon="7.29229">
        <ele>594.2</ele>
        <time>2020-08-18T14:12:06Z</time>
      </trkpt>
      <trkpt lat="48.67144" lon="7.29223">
        <ele>591.4</ele>
        <time>2020-08-18T14:12:09Z</time>
      </trkpt>
      <trkpt lat="48.6714" lon="7.29218">
        <ele>590.2</ele>
        <time>2020-08-18T14:12:11Z</time>
      </trkpt>
      <trkpt lat="48.67135" lon="7.29213">
        <ele>589.3</ele>
        <time>2020-08-18T14:12:13Z</time>
      </trkpt>
      <trkpt lat="48.6713" lon="7.29205">
        <ele>587.8</ele>
        <time>2020-08-18T14:12:15Z</time>
      </trkpt>
      <trkpt lat="48.67126" lon="7.29199">
        <ele>586.4</ele>
        <time>2020-08-18T14:12:17Z</time>
      </trkpt>
      <trkpt lat="48.67123" lon="7.29194">
        <ele>584.7</ele>
        <time>2020-08-18T14:12:19Z</time>
      </trkpt>
      <trkpt lat="48.6712" lon="7.29188">
        <ele>583.8</ele>
        <time>2020-08-18T14:12:21Z</time>
      </trkpt>
      <trkpt lat="48.67117" lon="7.2918">
        <ele>583.4</ele>
        <time>2020-08-18T14:12:23Z</time>
      </trkpt>
      <trkpt lat="48.67114" lon="7.2917">
        <ele>583.1</ele>
        <time>2020-08-18T14:12:25Z</time>
      </trkpt>
      <trkpt lat="48.67111" lon="7.2916">
        <ele>582.6</ele>
        <time>2020-08-18T14:12:27Z</time>
      </trkpt>
      <trkpt lat="48.67109" lon="7.29149">
        <ele>582.3</ele>
        <time>2020-08-18T14:12:29Z</time>
      </trkpt>
      <trkpt lat="48.67109" lon="7.29139">
        <ele>581.9</ele>
        <time>2020-08-18T14:12:31Z</time>
      </trkpt>
      <trkpt lat="48.6711" lon="7.2913">
        <ele>581.7</ele>
        <time>2020-08-18T14:12:33Z</time>
      </trkpt>
      <trkpt lat="48.6711" lon="7.29122">
        <ele>581.9</ele>
        <time>2020-08-18T14:12:36Z</time>
      </trkpt>
      <trkpt lat="48.67109" lon="7.29115">
        <ele>582.7</ele>
        <time>2020-08-18T14:12:40Z</time>
      </trkpt>
      <trkpt lat="48.67106" lon="7.29108">
        <ele>581.1</ele>
        <time>2020-08-18T14:12:54Z</time>
      </trkpt>
      <trkpt lat="48.67099" lon="7.29101">
        <ele>580.4</ele>
        <time>2020-08-18T14:12:57Z</time>
      </trkpt>
      <trkpt lat="48.67091" lon="7.29104">
        <ele>579.8</ele>
        <time>2020-08-18T14:13:00Z</time>
      </trkpt>
      <trkpt lat="48.67087" lon="7.29108">
        <ele>579.3</ele>
        <time>2020-08-18T14:13:02Z</time>
      </trkpt>
      <trkpt lat="48.67084" lon="7.29115">
        <ele>578.8</ele>
        <time>2020-08-18T14:13:05Z</time>
      </trkpt>
      <trkpt lat="48.67081" lon="7.29121">
        <ele>578.1</ele>
        <time>2020-08-18T14:13:08Z</time>
      </trkpt>
      <trkpt lat="48.67077" lon="7.29127">
        <ele>577.1</ele>
        <time>2020-08-18T14:13:11Z</time>
      </trkpt>
      <trkpt lat="48.67072" lon="7.29129">
        <ele>576.2</ele>
        <time>2020-08-18T14:13:14Z</time>
      </trkpt>
      <trkpt lat="48.67065" lon="7.29126">
        <ele>574.8</ele>
        <time>2020-08-18T14:13:17Z</time>
      </trkpt>
      <trkpt lat="48.6706" lon="7.29123">
        <ele>572.1</ele>
        <time>2020-08-18T14:13:22Z</time>
      </trkpt>
      <trkpt lat="48.67057" lon="7.29118">
        <ele>569.3</ele>
        <time>2020-08-18T14:13:28Z</time>
      </trkpt>
      <trkpt lat="48.67052" lon="7.29108">
        <ele>568.7</ele>
        <time>2020-08-18T14:13:31Z</time>
      </trkpt>
      <trkpt lat="48.6705" lon="7.29098">
        <ele>568.3</ele>
        <time>2020-08-18T14:13:33Z</time>
      </trkpt>
      <trkpt lat="48.67049" lon="7.29088">
        <ele>567.8</ele>
        <time>2020-08-18T14:13:36Z</time>
      </trkpt>
      <trkpt lat="48.67048" lon="7.29082">
        <ele>567.6</ele>
        <time>2020-08-18T14:13:40Z</time>
      </trkpt>
      <trkpt lat="48.67046" lon="7.29074">
        <ele>567.7</ele>
        <time>2020-08-18T14:13:45Z</time>
      </trkpt>
      <trkpt lat="48.67048" lon="7.29066">
        <ele>568.2</ele>
        <time>2020-08-18T14:13:49Z</time>
      </trkpt>
      <trkpt lat="48.67049" lon="7.29058">
        <ele>567</ele>
        <time>2020-08-18T14:13:52Z</time>
      </trkpt>
      <trkpt lat="48.67049" lon="7.29039">
        <ele>565.6</ele>
        <time>2020-08-18T14:13:55Z</time>
      </trkpt>
      <trkpt lat="48.67049" lon="7.29029">
        <ele>563.9</ele>
        <time>2020-08-18T14:13:57Z</time>
      </trkpt>
      <trkpt lat="48.67052" lon="7.29015">
        <ele>561.2</ele>
        <time>2020-08-18T14:14:00Z</time>
      </trkpt>
      <trkpt lat="48.67055" lon="7.29002">
        <ele>559.2</ele>
        <time>2020-08-18T14:14:03Z</time>
      </trkpt>
      <trkpt lat="48.67058" lon="7.28995">
        <ele>557.5</ele>
        <time>2020-08-18T14:14:05Z</time>
      </trkpt>
      <trkpt lat="48.67058" lon="7.28988">
        <ele>555.2</ele>
        <time>2020-08-18T14:14:09Z</time>
      </trkpt>
      <trkpt lat="48.67053" lon="7.28984">
        <ele>552.7</ele>
        <time>2020-08-18T14:14:18Z</time>
      </trkpt>
      <trkpt lat="48.67048" lon="7.28986">
        <ele>551.9</ele>
        <time>2020-08-18T14:14:21Z</time>
      </trkpt>
      <trkpt lat="48.67042" lon="7.2899">
        <ele>548.9</ele>
        <time>2020-08-18T14:14:34Z</time>
      </trkpt>
      <trkpt lat="48.67036" lon="7.28989">
        <ele>550</ele>
        <time>2020-08-18T14:14:37Z</time>
      </trkpt>
      <trkpt lat="48.67029" lon="7.28988">
        <ele>549.8</ele>
        <time>2020-08-18T14:14:39Z</time>
      </trkpt>
      <trkpt lat="48.67025" lon="7.28989">
        <ele>548.9</ele>
        <time>2020-08-18T14:14:41Z</time>
      </trkpt>
      <trkpt lat="48.6702" lon="7.28989">
        <ele>548.5</ele>
        <time>2020-08-18T14:14:45Z</time>
      </trkpt>
      <trkpt lat="48.67017" lon="7.28995">
        <ele>551</ele>
        <time>2020-08-18T14:14:51Z</time>
      </trkpt>
      <trkpt lat="48.67009" lon="7.2899">
        <ele>554.3</ele>
        <time>2020-08-18T14:15:00Z</time>
      </trkpt>
      <trkpt lat="48.67005" lon="7.28986">
        <ele>552.6</ele>
        <time>2020-08-18T14:15:02Z</time>
      </trkpt>
      <trkpt lat="48.67002" lon="7.28979">
        <ele>550</ele>
        <time>2020-08-18T14:15:06Z</time>
      </trkpt>
      <trkpt lat="48.67001" lon="7.28971">
        <ele>548.5</ele>
        <time>2020-08-18T14:15:10Z</time>
      </trkpt>
      <trkpt lat="48.66996" lon="7.28968">
        <ele>545.9</ele>
        <time>2020-08-18T14:15:19Z</time>
      </trkpt>
      <trkpt lat="48.66992" lon="7.28969">
        <ele>544.3</ele>
        <time>2020-08-18T14:15:24Z</time>
      </trkpt>
      <trkpt lat="48.66987" lon="7.28968">
        <ele>544.6</ele>
        <time>2020-08-18T14:15:27Z</time>
      </trkpt>
      <trkpt lat="48.66982" lon="7.28965">
        <ele>544.2</ele>
        <time>2020-08-18T14:15:30Z</time>
      </trkpt>
      <trkpt lat="48.66978" lon="7.2896">
        <ele>540.8</ele>
        <time>2020-08-18T14:15:34Z</time>
      </trkpt>
      <trkpt lat="48.66973" lon="7.2895">
        <ele>537.5</ele>
        <time>2020-08-18T14:15:38Z</time>
      </trkpt>
      <trkpt lat="48.66967" lon="7.28946">
        <ele>534.2</ele>
        <time>2020-08-18T14:15:41Z</time>
      </trkpt>
      <trkpt lat="48.66963" lon="7.28942">
        <ele>532.6</ele>
        <time>2020-08-18T14:15:43Z</time>
      </trkpt>
      <trkpt lat="48.66959" lon="7.28936">
        <ele>529.4</ele>
        <time>2020-08-18T14:15:47Z</time>
      </trkpt>
      <trkpt lat="48.66954" lon="7.28929">
        <ele>526.7</ele>
        <time>2020-08-18T14:15:50Z</time>
      </trkpt>
      <trkpt lat="48.66947" lon="7.28923">
        <ele>525</ele>
        <time>2020-08-18T14:15:52Z</time>
      </trkpt>
      <trkpt lat="48.6694" lon="7.28917">
        <ele>523.2</ele>
        <time>2020-08-18T14:15:54Z</time>
      </trkpt>
      <trkpt lat="48.66933" lon="7.28909">
        <ele>521.3</ele>
        <time>2020-08-18T14:15:56Z</time>
      </trkpt>
      <trkpt lat="48.66919" lon="7.28892">
        <ele>518.8</ele>
        <time>2020-08-18T14:15:59Z</time>
      </trkpt>
      <trkpt lat="48.66911" lon="7.28884">
        <ele>516.8</ele>
        <time>2020-08-18T14:16:01Z</time>
      </trkpt>
      <trkpt lat="48.66901" lon="7.28874">
        <ele>516.5</ele>
        <time>2020-08-18T14:16:03Z</time>
      </trkpt>
      <trkpt lat="48.66894" lon="7.28866">
        <ele>515.4</ele>
        <time>2020-08-18T14:16:05Z</time>
      </trkpt>
      <trkpt lat="48.6689" lon="7.28862">
        <ele>514.3</ele>
        <time>2020-08-18T14:16:08Z</time>
      </trkpt>
      <trkpt lat="48.66888" lon="7.28856">
        <ele>513.4</ele>
        <time>2020-08-18T14:16:15Z</time>
      </trkpt>
      <trkpt lat="48.66886" lon="7.28848">
        <ele>513</ele>
        <time>2020-08-18T14:16:19Z</time>
      </trkpt>
      <trkpt lat="48.66883" lon="7.28842">
        <ele>509.7</ele>
        <time>2020-08-18T14:16:31Z</time>
      </trkpt>
      <trkpt lat="48.66882" lon="7.28834">
        <ele>510</ele>
        <time>2020-08-18T14:16:34Z</time>
      </trkpt>
      <trkpt lat="48.66881" lon="7.28824">
        <ele>511.2</ele>
        <time>2020-08-18T14:16:37Z</time>
      </trkpt>
      <trkpt lat="48.66879" lon="7.28817">
        <ele>512.2</ele>
        <time>2020-08-18T14:16:39Z</time>
      </trkpt>
      <trkpt lat="48.66876" lon="7.2881">
        <ele>513</ele>
        <time>2020-08-18T14:16:41Z</time>
      </trkpt>
      <trkpt lat="48.66871" lon="7.28799">
        <ele>514.9</ele>
        <time>2020-08-18T14:16:44Z</time>
      </trkpt>
      <trkpt lat="48.66867" lon="7.28792">
        <ele>515.7</ele>
        <time>2020-08-18T14:16:46Z</time>
      </trkpt>
      <trkpt lat="48.66858" lon="7.28784">
        <ele>517.1</ele>
        <time>2020-08-18T14:16:49Z</time>
      </trkpt>
      <trkpt lat="48.66849" lon="7.28778">
        <ele>517.4</ele>
        <time>2020-08-18T14:16:52Z</time>
      </trkpt>
      <trkpt lat="48.66844" lon="7.28771">
        <ele>518.1</ele>
        <time>2020-08-18T14:16:54Z</time>
      </trkpt>
      <trkpt lat="48.6684" lon="7.28765">
        <ele>518.5</ele>
        <time>2020-08-18T14:16:56Z</time>
      </trkpt>
      <trkpt lat="48.66834" lon="7.28756">
        <ele>518.7</ele>
        <time>2020-08-18T14:16:59Z</time>
      </trkpt>
      <trkpt lat="48.66831" lon="7.28749">
        <ele>518.7</ele>
        <time>2020-08-18T14:17:01Z</time>
      </trkpt>
      <trkpt lat="48.66829" lon="7.28741">
        <ele>519</ele>
        <time>2020-08-18T14:17:03Z</time>
      </trkpt>
      <trkpt lat="48.66828" lon="7.28732">
        <ele>519</ele>
        <time>2020-08-18T14:17:05Z</time>
      </trkpt>
      <trkpt lat="48.66823" lon="7.28713">
        <ele>520.4</ele>
        <time>2020-08-18T14:17:08Z</time>
      </trkpt>
      <trkpt lat="48.66822" lon="7.287">
        <ele>520.8</ele>
        <time>2020-08-18T14:17:10Z</time>
      </trkpt>
      <trkpt lat="48.66821" lon="7.28681">
        <ele>521.5</ele>
        <time>2020-08-18T14:17:13Z</time>
      </trkpt>
      <trkpt lat="48.66819" lon="7.28669">
        <ele>522.3</ele>
        <time>2020-08-18T14:17:15Z</time>
      </trkpt>
      <trkpt lat="48.66815" lon="7.28649">
        <ele>523.3</ele>
        <time>2020-08-18T14:17:18Z</time>
      </trkpt>
      <trkpt lat="48.66812" lon="7.28639">
        <ele>524.1</ele>
        <time>2020-08-18T14:17:20Z</time>
      </trkpt>
      <trkpt lat="48.66806" lon="7.28623">
        <ele>524.9</ele>
        <time>2020-08-18T14:17:23Z</time>
      </trkpt>
      <trkpt lat="48.66802" lon="7.28608">
        <ele>526.2</ele>
        <time>2020-08-18T14:17:26Z</time>
      </trkpt>
      <trkpt lat="48.66801" lon="7.286">
        <ele>526.1</ele>
        <time>2020-08-18T14:17:28Z</time>
      </trkpt>
      <trkpt lat="48.66799" lon="7.2859">
        <ele>527.4</ele>
        <time>2020-08-18T14:17:30Z</time>
      </trkpt>
      <trkpt lat="48.66798" lon="7.28582">
        <ele>529</ele>
        <time>2020-08-18T14:17:32Z</time>
      </trkpt>
      <trkpt lat="48.66796" lon="7.28576">
        <ele>530.9</ele>
        <time>2020-08-18T14:17:35Z</time>
      </trkpt>
      <trkpt lat="48.66793" lon="7.28568">
        <ele>531.9</ele>
        <time>2020-08-18T14:17:38Z</time>
      </trkpt>
      <trkpt lat="48.66794" lon="7.28561">
        <ele>533.3</ele>
        <time>2020-08-18T14:17:42Z</time>
      </trkpt>
      <trkpt lat="48.66794" lon="7.28552">
        <ele>533.9</ele>
        <time>2020-08-18T14:17:46Z</time>
      </trkpt>
      <trkpt lat="48.66793" lon="7.28545">
        <ele>535</ele>
        <time>2020-08-18T14:17:54Z</time>
      </trkpt>
      <trkpt lat="48.6679" lon="7.28537">
        <ele>534.2</ele>
        <time>2020-08-18T14:17:58Z</time>
      </trkpt>
      <trkpt lat="48.66786" lon="7.28532">
        <ele>533.9</ele>
        <time>2020-08-18T14:18:01Z</time>
      </trkpt>
      <trkpt lat="48.66778" lon="7.28523">
        <ele>531.5</ele>
        <time>2020-08-18T14:18:04Z</time>
      </trkpt>
      <trkpt lat="48.66774" lon="7.28514">
        <ele>531.6</ele>
        <time>2020-08-18T14:18:06Z</time>
      </trkpt>
      <trkpt lat="48.66769" lon="7.28503">
        <ele>531.9</ele>
        <time>2020-08-18T14:18:08Z</time>
      </trkpt>
      <trkpt lat="48.66766" lon="7.28493">
        <ele>532.4</ele>
        <time>2020-08-18T14:18:10Z</time>
      </trkpt>
      <trkpt lat="48.6676" lon="7.28473">
        <ele>532.7</ele>
        <time>2020-08-18T14:18:13Z</time>
      </trkpt>
      <trkpt lat="48.66754" lon="7.28463">
        <ele>532.7</ele>
        <time>2020-08-18T14:18:15Z</time>
      </trkpt>
      <trkpt lat="48.66749" lon="7.28456">
        <ele>533.7</ele>
        <time>2020-08-18T14:18:17Z</time>
      </trkpt>
      <trkpt lat="48.66745" lon="7.28451">
        <ele>534.2</ele>
        <time>2020-08-18T14:18:19Z</time>
      </trkpt>
      <trkpt lat="48.6674" lon="7.2845">
        <ele>535.5</ele>
        <time>2020-08-18T14:18:31Z</time>
      </trkpt>
      <trkpt lat="48.66733" lon="7.28447">
        <ele>535.9</ele>
        <time>2020-08-18T14:18:34Z</time>
      </trkpt>
      <trkpt lat="48.66727" lon="7.28442">
        <ele>535.5</ele>
        <time>2020-08-18T14:18:36Z</time>
      </trkpt>
      <trkpt lat="48.66721" lon="7.28441">
        <ele>536.1</ele>
        <time>2020-08-18T14:18:38Z</time>
      </trkpt>
      <trkpt lat="48.66714" lon="7.28439">
        <ele>536.1</ele>
        <time>2020-08-18T14:18:40Z</time>
      </trkpt>
      <trkpt lat="48.66709" lon="7.28436">
        <ele>536.8</ele>
        <time>2020-08-18T14:18:42Z</time>
      </trkpt>
      <trkpt lat="48.66703" lon="7.28433">
        <ele>535.6</ele>
        <time>2020-08-18T14:18:44Z</time>
      </trkpt>
      <trkpt lat="48.66696" lon="7.28429">
        <ele>536</ele>
        <time>2020-08-18T14:18:46Z</time>
      </trkpt>
      <trkpt lat="48.6669" lon="7.28424">
        <ele>536.4</ele>
        <time>2020-08-18T14:18:48Z</time>
      </trkpt>
      <trkpt lat="48.66683" lon="7.28423">
        <ele>536.7</ele>
        <time>2020-08-18T14:18:50Z</time>
      </trkpt>
      <trkpt lat="48.66676" lon="7.2842">
        <ele>537.1</ele>
        <time>2020-08-18T14:18:52Z</time>
      </trkpt>
      <trkpt lat="48.66665" lon="7.2841">
        <ele>536.7</ele>
        <time>2020-08-18T14:18:55Z</time>
      </trkpt>
      <trkpt lat="48.66658" lon="7.28406">
        <ele>537.4</ele>
        <time>2020-08-18T14:18:57Z</time>
      </trkpt>
      <trkpt lat="48.66649" lon="7.28402">
        <ele>538</ele>
        <time>2020-08-18T14:18:59Z</time>
      </trkpt>
      <trkpt lat="48.66642" lon="7.284">
        <ele>538.9</ele>
        <time>2020-08-18T14:19:01Z</time>
      </trkpt>
      <trkpt lat="48.66635" lon="7.284">
        <ele>539.8</ele>
        <time>2020-08-18T14:19:03Z</time>
      </trkpt>
      <trkpt lat="48.66628" lon="7.28395">
        <ele>540.4</ele>
        <time>2020-08-18T14:19:05Z</time>
      </trkpt>
      <trkpt lat="48.66623" lon="7.28394">
        <ele>538.6</ele>
        <time>2020-08-18T14:19:07Z</time>
      </trkpt>
      <trkpt lat="48.66615" lon="7.28392">
        <ele>538.7</ele>
        <time>2020-08-18T14:19:09Z</time>
      </trkpt>
      <trkpt lat="48.66606" lon="7.28391">
        <ele>538.7</ele>
        <time>2020-08-18T14:19:11Z</time>
      </trkpt>
      <trkpt lat="48.66598" lon="7.28386">
        <ele>539.5</ele>
        <time>2020-08-18T14:19:13Z</time>
      </trkpt>
      <trkpt lat="48.6659" lon="7.28381">
        <ele>537.5</ele>
        <time>2020-08-18T14:19:15Z</time>
      </trkpt>
      <trkpt lat="48.66582" lon="7.28377">
        <ele>539.2</ele>
        <time>2020-08-18T14:19:17Z</time>
      </trkpt>
      <trkpt lat="48.66574" lon="7.28372">
        <ele>539.5</ele>
        <time>2020-08-18T14:19:19Z</time>
      </trkpt>
      <trkpt lat="48.66567" lon="7.28367">
        <ele>539.6</ele>
        <time>2020-08-18T14:19:21Z</time>
      </trkpt>
      <trkpt lat="48.66559" lon="7.28363">
        <ele>539.2</ele>
        <time>2020-08-18T14:19:23Z</time>
      </trkpt>
      <trkpt lat="48.66548" lon="7.28356">
        <ele>538.8</ele>
        <time>2020-08-18T14:19:26Z</time>
      </trkpt>
      <trkpt lat="48.66542" lon="7.28352">
        <ele>539.1</ele>
        <time>2020-08-18T14:19:28Z</time>
      </trkpt>
      <trkpt lat="48.66533" lon="7.28348">
        <ele>539.6</ele>
        <time>2020-08-18T14:19:30Z</time>
      </trkpt>
      <trkpt lat="48.66525" lon="7.28345">
        <ele>539.8</ele>
        <time>2020-08-18T14:19:32Z</time>
      </trkpt>
      <trkpt lat="48.66514" lon="7.2834">
        <ele>539.9</ele>
        <time>2020-08-18T14:19:34Z</time>
      </trkpt>
      <trkpt lat="48.66506" lon="7.28338">
        <ele>540.4</ele>
        <time>2020-08-18T14:19:36Z</time>
      </trkpt>
      <trkpt lat="48.66499" lon="7.28335">
        <ele>541.7</ele>
        <time>2020-08-18T14:19:38Z</time>
      </trkpt>
      <trkpt lat="48.66492" lon="7.28331">
        <ele>542.6</ele>
        <time>2020-08-18T14:19:40Z</time>
      </trkpt>
      <trkpt lat="48.66483" lon="7.28329">
        <ele>543.4</ele>
        <time>2020-08-18T14:19:42Z</time>
      </trkpt>
      <trkpt lat="48.66475" lon="7.28325">
        <ele>543.3</ele>
        <time>2020-08-18T14:19:44Z</time>
      </trkpt>
      <trkpt lat="48.66466" lon="7.28321">
        <ele>544.9</ele>
        <time>2020-08-18T14:19:46Z</time>
      </trkpt>
      <trkpt lat="48.66458" lon="7.28314">
        <ele>545.9</ele>
        <time>2020-08-18T14:19:48Z</time>
      </trkpt>
      <trkpt lat="48.66451" lon="7.28307">
        <ele>547.1</ele>
        <time>2020-08-18T14:19:50Z</time>
      </trkpt>
      <trkpt lat="48.66443" lon="7.28301">
        <ele>547.9</ele>
        <time>2020-08-18T14:19:52Z</time>
      </trkpt>
      <trkpt lat="48.66438" lon="7.28294">
        <ele>547.4</ele>
        <time>2020-08-18T14:19:54Z</time>
      </trkpt>
      <trkpt lat="48.66431" lon="7.28287">
        <ele>544.2</ele>
        <time>2020-08-18T14:19:56Z</time>
      </trkpt>
      <trkpt lat="48.66426" lon="7.2828">
        <ele>545.4</ele>
        <time>2020-08-18T14:19:58Z</time>
      </trkpt>
      <trkpt lat="48.66422" lon="7.28273">
        <ele>545.5</ele>
        <time>2020-08-18T14:20:00Z</time>
      </trkpt>
      <trkpt lat="48.66417" lon="7.28263">
        <ele>547.5</ele>
        <time>2020-08-18T14:20:02Z</time>
      </trkpt>
      <trkpt lat="48.66412" lon="7.28248">
        <ele>549.6</ele>
        <time>2020-08-18T14:20:05Z</time>
      </trkpt>
      <trkpt lat="48.66407" lon="7.28239">
        <ele>552</ele>
        <time>2020-08-18T14:20:07Z</time>
      </trkpt>
      <trkpt lat="48.66401" lon="7.28228">
        <ele>553.8</ele>
        <time>2020-08-18T14:20:09Z</time>
      </trkpt>
      <trkpt lat="48.66398" lon="7.28217">
        <ele>555.1</ele>
        <time>2020-08-18T14:20:11Z</time>
      </trkpt>
      <trkpt lat="48.66396" lon="7.28207">
        <ele>557.2</ele>
        <time>2020-08-18T14:20:13Z</time>
      </trkpt>
      <trkpt lat="48.66393" lon="7.282">
        <ele>558.6</ele>
        <time>2020-08-18T14:20:15Z</time>
      </trkpt>
      <trkpt lat="48.66388" lon="7.28194">
        <ele>558.1</ele>
        <time>2020-08-18T14:20:17Z</time>
      </trkpt>
      <trkpt lat="48.66385" lon="7.28187">
        <ele>558.5</ele>
        <time>2020-08-18T14:20:19Z</time>
      </trkpt>
      <trkpt lat="48.6638" lon="7.28177">
        <ele>559.6</ele>
        <time>2020-08-18T14:20:21Z</time>
      </trkpt>
      <trkpt lat="48.66376" lon="7.28167">
        <ele>559.9</ele>
        <time>2020-08-18T14:20:23Z</time>
      </trkpt>
      <trkpt lat="48.66372" lon="7.28159">
        <ele>561.1</ele>
        <time>2020-08-18T14:20:26Z</time>
      </trkpt>
      <trkpt lat="48.66367" lon="7.28152">
        <ele>561.7</ele>
        <time>2020-08-18T14:20:28Z</time>
      </trkpt>
      <trkpt lat="48.66361" lon="7.28146">
        <ele>562.2</ele>
        <time>2020-08-18T14:20:30Z</time>
      </trkpt>
      <trkpt lat="48.66353" lon="7.28138">
        <ele>563.5</ele>
        <time>2020-08-18T14:20:32Z</time>
      </trkpt>
      <trkpt lat="48.66346" lon="7.28133">
        <ele>565.3</ele>
        <time>2020-08-18T14:20:34Z</time>
      </trkpt>
      <trkpt lat="48.66338" lon="7.28121">
        <ele>566.1</ele>
        <time>2020-08-18T14:20:37Z</time>
      </trkpt>
      <trkpt lat="48.66333" lon="7.28117">
        <ele>567.9</ele>
        <time>2020-08-18T14:20:39Z</time>
      </trkpt>
      <trkpt lat="48.66326" lon="7.28113">
        <ele>568.9</ele>
        <time>2020-08-18T14:20:41Z</time>
      </trkpt>
      <trkpt lat="48.66321" lon="7.28108">
        <ele>569.9</ele>
        <time>2020-08-18T14:20:43Z</time>
      </trkpt>
      <trkpt lat="48.66317" lon="7.28102">
        <ele>570.5</ele>
        <time>2020-08-18T14:20:45Z</time>
      </trkpt>
      <trkpt lat="48.66309" lon="7.28099">
        <ele>570.8</ele>
        <time>2020-08-18T14:20:47Z</time>
      </trkpt>
      <trkpt lat="48.66301" lon="7.28095">
        <ele>555.4</ele>
        <time>2020-08-18T14:20:49Z</time>
      </trkpt>
      <trkpt lat="48.66294" lon="7.28092">
        <ele>554.6</ele>
        <time>2020-08-18T14:20:51Z</time>
      </trkpt>
      <trkpt lat="48.66288" lon="7.28089">
        <ele>551.2</ele>
        <time>2020-08-18T14:20:53Z</time>
      </trkpt>
      <trkpt lat="48.66278" lon="7.28088">
        <ele>551.5</ele>
        <time>2020-08-18T14:20:55Z</time>
      </trkpt>
      <trkpt lat="48.66269" lon="7.2809">
        <ele>553</ele>
        <time>2020-08-18T14:20:57Z</time>
      </trkpt>
      <trkpt lat="48.6626" lon="7.28091">
        <ele>545.4</ele>
        <time>2020-08-18T14:20:59Z</time>
      </trkpt>
      <trkpt lat="48.66251" lon="7.28093">
        <ele>546.1</ele>
        <time>2020-08-18T14:21:01Z</time>
      </trkpt>
      <trkpt lat="48.66239" lon="7.28097">
        <ele>542.6</ele>
        <time>2020-08-18T14:21:04Z</time>
      </trkpt>
      <trkpt lat="48.66233" lon="7.28097">
        <ele>551.7</ele>
        <time>2020-08-18T14:21:06Z</time>
      </trkpt>
      <trkpt lat="48.66226" lon="7.28099">
        <ele>554.1</ele>
        <time>2020-08-18T14:21:08Z</time>
      </trkpt>
      <trkpt lat="48.66219" lon="7.28102">
        <ele>557.7</ele>
        <time>2020-08-18T14:21:10Z</time>
      </trkpt>
      <trkpt lat="48.66212" lon="7.28105">
        <ele>560.1</ele>
        <time>2020-08-18T14:21:12Z</time>
      </trkpt>
      <trkpt lat="48.66203" lon="7.28104">
        <ele>562.9</ele>
        <time>2020-08-18T14:21:15Z</time>
      </trkpt>
      <trkpt lat="48.66193" lon="7.28108">
        <ele>563.5</ele>
        <time>2020-08-18T14:21:17Z</time>
      </trkpt>
      <trkpt lat="48.66184" lon="7.28109">
        <ele>562.5</ele>
        <time>2020-08-18T14:21:20Z</time>
      </trkpt>
      <trkpt lat="48.66177" lon="7.28111">
        <ele>561.8</ele>
        <time>2020-08-18T14:21:22Z</time>
      </trkpt>
      <trkpt lat="48.66166" lon="7.2811">
        <ele>561.3</ele>
        <time>2020-08-18T14:21:25Z</time>
      </trkpt>
      <trkpt lat="48.66156" lon="7.28114">
        <ele>538.8</ele>
        <time>2020-08-18T14:21:28Z</time>
      </trkpt>
      <trkpt lat="48.66146" lon="7.28115">
        <ele>537.5</ele>
        <time>2020-08-18T14:21:31Z</time>
      </trkpt>
      <trkpt lat="48.66138" lon="7.28119">
        <ele>537.5</ele>
        <time>2020-08-18T14:21:33Z</time>
      </trkpt>
      <trkpt lat="48.66128" lon="7.28123">
        <ele>538.1</ele>
        <time>2020-08-18T14:21:36Z</time>
      </trkpt>
      <trkpt lat="48.66121" lon="7.28125">
        <ele>540.7</ele>
        <time>2020-08-18T14:21:38Z</time>
      </trkpt>
      <trkpt lat="48.66111" lon="7.28125">
        <ele>542.3</ele>
        <time>2020-08-18T14:21:41Z</time>
      </trkpt>
      <trkpt lat="48.66107" lon="7.28127">
        <ele>543.3</ele>
        <time>2020-08-18T14:21:43Z</time>
      </trkpt>
      <trkpt lat="48.661" lon="7.28127">
        <ele>544.7</ele>
        <time>2020-08-18T14:21:45Z</time>
      </trkpt>
      <trkpt lat="48.66091" lon="7.28128">
        <ele>546.9</ele>
        <time>2020-08-18T14:21:48Z</time>
      </trkpt>
      <trkpt lat="48.66086" lon="7.28127">
        <ele>548.6</ele>
        <time>2020-08-18T14:21:50Z</time>
      </trkpt>
      <trkpt lat="48.66079" lon="7.28125">
        <ele>549.6</ele>
        <time>2020-08-18T14:21:52Z</time>
      </trkpt>
      <trkpt lat="48.66072" lon="7.28122">
        <ele>550.4</ele>
        <time>2020-08-18T14:21:54Z</time>
      </trkpt>
      <trkpt lat="48.66065" lon="7.28119">
        <ele>526.1</ele>
        <time>2020-08-18T14:21:56Z</time>
      </trkpt>
      <trkpt lat="48.66059" lon="7.28117">
        <ele>522.3</ele>
        <time>2020-08-18T14:21:58Z</time>
      </trkpt>
      <trkpt lat="48.66051" lon="7.28116">
        <ele>519</ele>
        <time>2020-08-18T14:22:00Z</time>
      </trkpt>
      <trkpt lat="48.66044" lon="7.28115">
        <ele>520.1</ele>
        <time>2020-08-18T14:22:02Z</time>
      </trkpt>
      <trkpt lat="48.66037" lon="7.28113">
        <ele>522.3</ele>
        <time>2020-08-18T14:22:04Z</time>
      </trkpt>
      <trkpt lat="48.66029" lon="7.2811">
        <ele>526.4</ele>
        <time>2020-08-18T14:22:06Z</time>
      </trkpt>
      <trkpt lat="48.6602" lon="7.28107">
        <ele>531.5</ele>
        <time>2020-08-18T14:22:08Z</time>
      </trkpt>
      <trkpt lat="48.6601" lon="7.28103">
        <ele>538.1</ele>
        <time>2020-08-18T14:22:11Z</time>
      </trkpt>
      <trkpt lat="48.66003" lon="7.28101">
        <ele>542.4</ele>
        <time>2020-08-18T14:22:13Z</time>
      </trkpt>
      <trkpt lat="48.65997" lon="7.28098">
        <ele>547</ele>
        <time>2020-08-18T14:22:15Z</time>
      </trkpt>
      <trkpt lat="48.65992" lon="7.28093">
        <ele>550.1</ele>
        <time>2020-08-18T14:22:17Z</time>
      </trkpt>
      <trkpt lat="48.65986" lon="7.28087">
        <ele>553.8</ele>
        <time>2020-08-18T14:22:19Z</time>
      </trkpt>
      <trkpt lat="48.65979" lon="7.28081">
        <ele>557.5</ele>
        <time>2020-08-18T14:22:21Z</time>
      </trkpt>
      <trkpt lat="48.65972" lon="7.28075">
        <ele>561.3</ele>
        <time>2020-08-18T14:22:23Z</time>
      </trkpt>
      <trkpt lat="48.65965" lon="7.2807">
        <ele>563.9</ele>
        <time>2020-08-18T14:22:25Z</time>
      </trkpt>
      <trkpt lat="48.65959" lon="7.28065">
        <ele>565.9</ele>
        <time>2020-08-18T14:22:27Z</time>
      </trkpt>
      <trkpt lat="48.65953" lon="7.2806">
        <ele>566.9</ele>
        <time>2020-08-18T14:22:29Z</time>
      </trkpt>
      <trkpt lat="48.65947" lon="7.28056">
        <ele>567.9</ele>
        <time>2020-08-18T14:22:31Z</time>
      </trkpt>
      <trkpt lat="48.65939" lon="7.28053">
        <ele>569</ele>
        <time>2020-08-18T14:22:33Z</time>
      </trkpt>
      <trkpt lat="48.65932" lon="7.28052">
        <ele>569.1</ele>
        <time>2020-08-18T14:22:35Z</time>
      </trkpt>
      <trkpt lat="48.65926" lon="7.28054">
        <ele>569.2</ele>
        <time>2020-08-18T14:22:37Z</time>
      </trkpt>
      <trkpt lat="48.65922" lon="7.28058">
        <ele>569.9</ele>
        <time>2020-08-18T14:22:43Z</time>
      </trkpt>
      <trkpt lat="48.65917" lon="7.28055">
        <ele>573.8</ele>
        <time>2020-08-18T14:24:55Z</time>
      </trkpt>
      <trkpt lat="48.65911" lon="7.28053">
        <ele>573.6</ele>
        <time>2020-08-18T14:24:58Z</time>
      </trkpt>
      <trkpt lat="48.65904" lon="7.28052">
        <ele>571.8</ele>
        <time>2020-08-18T14:25:01Z</time>
      </trkpt>
      <trkpt lat="48.65899" lon="7.28052">
        <ele>571.1</ele>
        <time>2020-08-18T14:25:03Z</time>
      </trkpt>
      <trkpt lat="48.65893" lon="7.28052">
        <ele>571.1</ele>
        <time>2020-08-18T14:25:05Z</time>
      </trkpt>
      <trkpt lat="48.65888" lon="7.28052">
        <ele>571.3</ele>
        <time>2020-08-18T14:25:07Z</time>
      </trkpt>
      <trkpt lat="48.65883" lon="7.28053">
        <ele>571.3</ele>
        <time>2020-08-18T14:25:09Z</time>
      </trkpt>
      <trkpt lat="48.65878" lon="7.28052">
        <ele>571</ele>
        <time>2020-08-18T14:25:11Z</time>
      </trkpt>
      <trkpt lat="48.65873" lon="7.28051">
        <ele>571.4</ele>
        <time>2020-08-18T14:25:13Z</time>
      </trkpt>
      <trkpt lat="48.65867" lon="7.28049">
        <ele>571.8</ele>
        <time>2020-08-18T14:25:15Z</time>
      </trkpt>
      <trkpt lat="48.65862" lon="7.28049">
        <ele>571.9</ele>
        <time>2020-08-18T14:25:17Z</time>
      </trkpt>
      <trkpt lat="48.65857" lon="7.2805">
        <ele>571.5</ele>
        <time>2020-08-18T14:25:19Z</time>
      </trkpt>
      <trkpt lat="48.65852" lon="7.28052">
        <ele>570.9</ele>
        <time>2020-08-18T14:25:21Z</time>
      </trkpt>
      <trkpt lat="48.65846" lon="7.28055">
        <ele>569.8</ele>
        <time>2020-08-18T14:25:24Z</time>
      </trkpt>
      <trkpt lat="48.65842" lon="7.28055">
        <ele>569.3</ele>
        <time>2020-08-18T14:25:26Z</time>
      </trkpt>
      <trkpt lat="48.65835" lon="7.28055">
        <ele>568.6</ele>
        <time>2020-08-18T14:25:28Z</time>
      </trkpt>
      <trkpt lat="48.65827" lon="7.28057">
        <ele>568.8</ele>
        <time>2020-08-18T14:25:30Z</time>
      </trkpt>
      <trkpt lat="48.6582" lon="7.28058">
        <ele>568.3</ele>
        <time>2020-08-18T14:25:32Z</time>
      </trkpt>
      <trkpt lat="48.65812" lon="7.28059">
        <ele>568.4</ele>
        <time>2020-08-18T14:25:34Z</time>
      </trkpt>
      <trkpt lat="48.65805" lon="7.28061">
        <ele>568.4</ele>
        <time>2020-08-18T14:25:36Z</time>
      </trkpt>
      <trkpt lat="48.65797" lon="7.28064">
        <ele>568.8</ele>
        <time>2020-08-18T14:25:38Z</time>
      </trkpt>
      <trkpt lat="48.65788" lon="7.28067">
        <ele>569.8</ele>
        <time>2020-08-18T14:25:40Z</time>
      </trkpt>
      <trkpt lat="48.6578" lon="7.28071">
        <ele>570.8</ele>
        <time>2020-08-18T14:25:42Z</time>
      </trkpt>
      <trkpt lat="48.65773" lon="7.28074">
        <ele>572.2</ele>
        <time>2020-08-18T14:25:44Z</time>
      </trkpt>
      <trkpt lat="48.65767" lon="7.28078">
        <ele>572.4</ele>
        <time>2020-08-18T14:25:46Z</time>
      </trkpt>
      <trkpt lat="48.6576" lon="7.28083">
        <ele>573</ele>
        <time>2020-08-18T14:25:48Z</time>
      </trkpt>
      <trkpt lat="48.65753" lon="7.28089">
        <ele>573.3</ele>
        <time>2020-08-18T14:25:50Z</time>
      </trkpt>
      <trkpt lat="48.65746" lon="7.28095">
        <ele>573.8</ele>
        <time>2020-08-18T14:25:52Z</time>
      </trkpt>
      <trkpt lat="48.6574" lon="7.28102">
        <ele>574.6</ele>
        <time>2020-08-18T14:25:54Z</time>
      </trkpt>
      <trkpt lat="48.6573" lon="7.28115">
        <ele>580.4</ele>
        <time>2020-08-18T14:25:56Z</time>
      </trkpt>
      <trkpt lat="48.65723" lon="7.28122">
        <ele>580.6</ele>
        <time>2020-08-18T14:25:58Z</time>
      </trkpt>
      <trkpt lat="48.65718" lon="7.28129">
        <ele>581</ele>
        <time>2020-08-18T14:26:00Z</time>
      </trkpt>
      <trkpt lat="48.65713" lon="7.28136">
        <ele>581.3</ele>
        <time>2020-08-18T14:26:02Z</time>
      </trkpt>
      <trkpt lat="48.65708" lon="7.28142">
        <ele>581.6</ele>
        <time>2020-08-18T14:26:04Z</time>
      </trkpt>
      <trkpt lat="48.65703" lon="7.28147">
        <ele>582.4</ele>
        <time>2020-08-18T14:26:06Z</time>
      </trkpt>
      <trkpt lat="48.65697" lon="7.28152">
        <ele>582.9</ele>
        <time>2020-08-18T14:26:08Z</time>
      </trkpt>
      <trkpt lat="48.65692" lon="7.28156">
        <ele>583.6</ele>
        <time>2020-08-18T14:26:10Z</time>
      </trkpt>
      <trkpt lat="48.65687" lon="7.2816">
        <ele>583.2</ele>
        <time>2020-08-18T14:26:12Z</time>
      </trkpt>
      <trkpt lat="48.65682" lon="7.28165">
        <ele>583.3</ele>
        <time>2020-08-18T14:26:14Z</time>
      </trkpt>
      <trkpt lat="48.65676" lon="7.28171">
        <ele>582.7</ele>
        <time>2020-08-18T14:26:16Z</time>
      </trkpt>
      <trkpt lat="48.6567" lon="7.28176">
        <ele>581.9</ele>
        <time>2020-08-18T14:26:18Z</time>
      </trkpt>
      <trkpt lat="48.65664" lon="7.2818">
        <ele>582.1</ele>
        <time>2020-08-18T14:26:20Z</time>
      </trkpt>
      <trkpt lat="48.65659" lon="7.28183">
        <ele>582.5</ele>
        <time>2020-08-18T14:26:22Z</time>
      </trkpt>
      <trkpt lat="48.65654" lon="7.28185">
        <ele>582.2</ele>
        <time>2020-08-18T14:26:24Z</time>
      </trkpt>
      <trkpt lat="48.65649" lon="7.28188">
        <ele>582.1</ele>
        <time>2020-08-18T14:26:26Z</time>
      </trkpt>
      <trkpt lat="48.65643" lon="7.2819">
        <ele>582.1</ele>
        <time>2020-08-18T14:26:28Z</time>
      </trkpt>
      <trkpt lat="48.65636" lon="7.28192">
        <ele>582.3</ele>
        <time>2020-08-18T14:26:30Z</time>
      </trkpt>
      <trkpt lat="48.6563" lon="7.28196">
        <ele>582.3</ele>
        <time>2020-08-18T14:26:32Z</time>
      </trkpt>
      <trkpt lat="48.65624" lon="7.28201">
        <ele>582.9</ele>
        <time>2020-08-18T14:26:34Z</time>
      </trkpt>
      <trkpt lat="48.65617" lon="7.28207">
        <ele>582.5</ele>
        <time>2020-08-18T14:26:36Z</time>
      </trkpt>
      <trkpt lat="48.65612" lon="7.28211">
        <ele>582.3</ele>
        <time>2020-08-18T14:26:38Z</time>
      </trkpt>
      <trkpt lat="48.65607" lon="7.28215">
        <ele>582.5</ele>
        <time>2020-08-18T14:26:40Z</time>
      </trkpt>
      <trkpt lat="48.65601" lon="7.28219">
        <ele>582.5</ele>
        <time>2020-08-18T14:26:42Z</time>
      </trkpt>
      <trkpt lat="48.65594" lon="7.28222">
        <ele>582.4</ele>
        <time>2020-08-18T14:26:44Z</time>
      </trkpt>
      <trkpt lat="48.65587" lon="7.28222">
        <ele>582.8</ele>
        <time>2020-08-18T14:26:46Z</time>
      </trkpt>
      <trkpt lat="48.6558" lon="7.28222">
        <ele>582.8</ele>
        <time>2020-08-18T14:26:48Z</time>
      </trkpt>
      <trkpt lat="48.65573" lon="7.28223">
        <ele>582.5</ele>
        <time>2020-08-18T14:26:50Z</time>
      </trkpt>
      <trkpt lat="48.65565" lon="7.28226">
        <ele>582.1</ele>
        <time>2020-08-18T14:26:52Z</time>
      </trkpt>
      <trkpt lat="48.65558" lon="7.28229">
        <ele>582.2</ele>
        <time>2020-08-18T14:26:54Z</time>
      </trkpt>
      <trkpt lat="48.65551" lon="7.28232">
        <ele>582.4</ele>
        <time>2020-08-18T14:26:56Z</time>
      </trkpt>
      <trkpt lat="48.65544" lon="7.28234">
        <ele>583.1</ele>
        <time>2020-08-18T14:26:58Z</time>
      </trkpt>
      <trkpt lat="48.65537" lon="7.28235">
        <ele>583.6</ele>
        <time>2020-08-18T14:27:00Z</time>
      </trkpt>
      <trkpt lat="48.6553" lon="7.28235">
        <ele>584.2</ele>
        <time>2020-08-18T14:27:02Z</time>
      </trkpt>
      <trkpt lat="48.65522" lon="7.28235">
        <ele>584.6</ele>
        <time>2020-08-18T14:27:04Z</time>
      </trkpt>
      <trkpt lat="48.65513" lon="7.28234">
        <ele>585.1</ele>
        <time>2020-08-18T14:27:06Z</time>
      </trkpt>
      <trkpt lat="48.65504" lon="7.28235">
        <ele>585.9</ele>
        <time>2020-08-18T14:27:08Z</time>
      </trkpt>
      <trkpt lat="48.65494" lon="7.28236">
        <ele>587</ele>
        <time>2020-08-18T14:27:10Z</time>
      </trkpt>
      <trkpt lat="48.65486" lon="7.28235">
        <ele>587.5</ele>
        <time>2020-08-18T14:27:12Z</time>
      </trkpt>
      <trkpt lat="48.65477" lon="7.28233">
        <ele>587.4</ele>
        <time>2020-08-18T14:27:14Z</time>
      </trkpt>
      <trkpt lat="48.65469" lon="7.28232">
        <ele>587.2</ele>
        <time>2020-08-18T14:27:16Z</time>
      </trkpt>
      <trkpt lat="48.65462" lon="7.2823">
        <ele>588.4</ele>
        <time>2020-08-18T14:27:18Z</time>
      </trkpt>
      <trkpt lat="48.65454" lon="7.28229">
        <ele>588.9</ele>
        <time>2020-08-18T14:27:20Z</time>
      </trkpt>
      <trkpt lat="48.65447" lon="7.2823">
        <ele>589.3</ele>
        <time>2020-08-18T14:27:22Z</time>
      </trkpt>
      <trkpt lat="48.6544" lon="7.28231">
        <ele>590.2</ele>
        <time>2020-08-18T14:27:24Z</time>
      </trkpt>
      <trkpt lat="48.65429" lon="7.28233">
        <ele>591.3</ele>
        <time>2020-08-18T14:27:26Z</time>
      </trkpt>
      <trkpt lat="48.6542" lon="7.28233">
        <ele>590.5</ele>
        <time>2020-08-18T14:27:28Z</time>
      </trkpt>
      <trkpt lat="48.65413" lon="7.28232">
        <ele>589.7</ele>
        <time>2020-08-18T14:27:30Z</time>
      </trkpt>
      <trkpt lat="48.65406" lon="7.2823">
        <ele>589.4</ele>
        <time>2020-08-18T14:27:32Z</time>
      </trkpt>
      <trkpt lat="48.65399" lon="7.2823">
        <ele>588.8</ele>
        <time>2020-08-18T14:27:34Z</time>
      </trkpt>
      <trkpt lat="48.65393" lon="7.2823">
        <ele>588.4</ele>
        <time>2020-08-18T14:27:36Z</time>
      </trkpt>
      <trkpt lat="48.65387" lon="7.2823">
        <ele>588.2</ele>
        <time>2020-08-18T14:27:38Z</time>
      </trkpt>
      <trkpt lat="48.65382" lon="7.2823">
        <ele>587.6</ele>
        <time>2020-08-18T14:27:40Z</time>
      </trkpt>
      <trkpt lat="48.65376" lon="7.28229">
        <ele>587.5</ele>
        <time>2020-08-18T14:27:42Z</time>
      </trkpt>
      <trkpt lat="48.6537" lon="7.28227">
        <ele>587.5</ele>
        <time>2020-08-18T14:27:44Z</time>
      </trkpt>
      <trkpt lat="48.65362" lon="7.28226">
        <ele>588</ele>
        <time>2020-08-18T14:27:46Z</time>
      </trkpt>
      <trkpt lat="48.65354" lon="7.28227">
        <ele>588.7</ele>
        <time>2020-08-18T14:27:48Z</time>
      </trkpt>
      <trkpt lat="48.65345" lon="7.28229">
        <ele>590</ele>
        <time>2020-08-18T14:27:50Z</time>
      </trkpt>
      <trkpt lat="48.65335" lon="7.28232">
        <ele>590.9</ele>
        <time>2020-08-18T14:27:52Z</time>
      </trkpt>
      <trkpt lat="48.65325" lon="7.28237">
        <ele>591.4</ele>
        <time>2020-08-18T14:27:54Z</time>
      </trkpt>
      <trkpt lat="48.65317" lon="7.28241">
        <ele>591.7</ele>
        <time>2020-08-18T14:27:56Z</time>
      </trkpt>
      <trkpt lat="48.65308" lon="7.28246">
        <ele>592.3</ele>
        <time>2020-08-18T14:27:58Z</time>
      </trkpt>
      <trkpt lat="48.65301" lon="7.28252">
        <ele>592.4</ele>
        <time>2020-08-18T14:28:00Z</time>
      </trkpt>
      <trkpt lat="48.65294" lon="7.28257">
        <ele>592.4</ele>
        <time>2020-08-18T14:28:02Z</time>
      </trkpt>
      <trkpt lat="48.65287" lon="7.28261">
        <ele>592.7</ele>
        <time>2020-08-18T14:28:04Z</time>
      </trkpt>
      <trkpt lat="48.65281" lon="7.28267">
        <ele>593.2</ele>
        <time>2020-08-18T14:28:06Z</time>
      </trkpt>
      <trkpt lat="48.65274" lon="7.28274">
        <ele>593</ele>
        <time>2020-08-18T14:28:08Z</time>
      </trkpt>
      <trkpt lat="48.65268" lon="7.28282">
        <ele>592.8</ele>
        <time>2020-08-18T14:28:10Z</time>
      </trkpt>
      <trkpt lat="48.65262" lon="7.28292">
        <ele>593.4</ele>
        <time>2020-08-18T14:28:12Z</time>
      </trkpt>
      <trkpt lat="48.65256" lon="7.283">
        <ele>593.7</ele>
        <time>2020-08-18T14:28:14Z</time>
      </trkpt>
      <trkpt lat="48.6525" lon="7.28307">
        <ele>594.5</ele>
        <time>2020-08-18T14:28:16Z</time>
      </trkpt>
      <trkpt lat="48.65243" lon="7.28314">
        <ele>595</ele>
        <time>2020-08-18T14:28:18Z</time>
      </trkpt>
      <trkpt lat="48.65238" lon="7.28322">
        <ele>595.5</ele>
        <time>2020-08-18T14:28:20Z</time>
      </trkpt>
      <trkpt lat="48.65233" lon="7.28331">
        <ele>596.1</ele>
        <time>2020-08-18T14:28:22Z</time>
      </trkpt>
      <trkpt lat="48.65227" lon="7.28339">
        <ele>596.9</ele>
        <time>2020-08-18T14:28:24Z</time>
      </trkpt>
      <trkpt lat="48.65221" lon="7.28346">
        <ele>597.1</ele>
        <time>2020-08-18T14:28:26Z</time>
      </trkpt>
      <trkpt lat="48.65216" lon="7.28351">
        <ele>597.6</ele>
        <time>2020-08-18T14:28:28Z</time>
      </trkpt>
      <trkpt lat="48.6521" lon="7.28356">
        <ele>596.6</ele>
        <time>2020-08-18T14:28:30Z</time>
      </trkpt>
      <trkpt lat="48.65204" lon="7.28363">
        <ele>596.8</ele>
        <time>2020-08-18T14:28:32Z</time>
      </trkpt>
      <trkpt lat="48.65199" lon="7.28371">
        <ele>596.6</ele>
        <time>2020-08-18T14:28:34Z</time>
      </trkpt>
      <trkpt lat="48.65193" lon="7.28379">
        <ele>596.6</ele>
        <time>2020-08-18T14:28:36Z</time>
      </trkpt>
      <trkpt lat="48.65187" lon="7.28387">
        <ele>597.2</ele>
        <time>2020-08-18T14:28:38Z</time>
      </trkpt>
      <trkpt lat="48.65181" lon="7.28394">
        <ele>596.9</ele>
        <time>2020-08-18T14:28:40Z</time>
      </trkpt>
      <trkpt lat="48.65174" lon="7.28402">
        <ele>597</ele>
        <time>2020-08-18T14:28:42Z</time>
      </trkpt>
      <trkpt lat="48.65168" lon="7.28408">
        <ele>596.9</ele>
        <time>2020-08-18T14:28:44Z</time>
      </trkpt>
      <trkpt lat="48.65162" lon="7.28414">
        <ele>597.1</ele>
        <time>2020-08-18T14:28:46Z</time>
      </trkpt>
      <trkpt lat="48.65156" lon="7.2842">
        <ele>596.9</ele>
        <time>2020-08-18T14:28:48Z</time>
      </trkpt>
      <trkpt lat="48.6515" lon="7.28426">
        <ele>596.6</ele>
        <time>2020-08-18T14:28:50Z</time>
      </trkpt>
      <trkpt lat="48.65144" lon="7.28429">
        <ele>596.3</ele>
        <time>2020-08-18T14:28:52Z</time>
      </trkpt>
      <trkpt lat="48.65138" lon="7.28433">
        <ele>596.2</ele>
        <time>2020-08-18T14:28:54Z</time>
      </trkpt>
      <trkpt lat="48.65131" lon="7.2844">
        <ele>597</ele>
        <time>2020-08-18T14:28:56Z</time>
      </trkpt>
      <trkpt lat="48.65125" lon="7.28446">
        <ele>597.1</ele>
        <time>2020-08-18T14:28:58Z</time>
      </trkpt>
      <trkpt lat="48.65119" lon="7.28453">
        <ele>597</ele>
        <time>2020-08-18T14:29:00Z</time>
      </trkpt>
      <trkpt lat="48.65113" lon="7.2846">
        <ele>596.9</ele>
        <time>2020-08-18T14:29:02Z</time>
      </trkpt>
      <trkpt lat="48.65107" lon="7.28466">
        <ele>597.1</ele>
        <time>2020-08-18T14:29:04Z</time>
      </trkpt>
      <trkpt lat="48.65102" lon="7.28473">
        <ele>597.4</ele>
        <time>2020-08-18T14:29:06Z</time>
      </trkpt>
      <trkpt lat="48.65097" lon="7.28479">
        <ele>597.1</ele>
        <time>2020-08-18T14:29:08Z</time>
      </trkpt>
      <trkpt lat="48.65092" lon="7.28485">
        <ele>597.2</ele>
        <time>2020-08-18T14:29:10Z</time>
      </trkpt>
      <trkpt lat="48.65085" lon="7.2849">
        <ele>597.6</ele>
        <time>2020-08-18T14:29:12Z</time>
      </trkpt>
      <trkpt lat="48.65079" lon="7.28497">
        <ele>597.6</ele>
        <time>2020-08-18T14:29:14Z</time>
      </trkpt>
      <trkpt lat="48.65073" lon="7.28504">
        <ele>598.6</ele>
        <time>2020-08-18T14:29:16Z</time>
      </trkpt>
      <trkpt lat="48.65067" lon="7.2851">
        <ele>599.9</ele>
        <time>2020-08-18T14:29:18Z</time>
      </trkpt>
      <trkpt lat="48.65061" lon="7.28515">
        <ele>601.2</ele>
        <time>2020-08-18T14:29:20Z</time>
      </trkpt>
      <trkpt lat="48.65055" lon="7.2852">
        <ele>602.6</ele>
        <time>2020-08-18T14:29:22Z</time>
      </trkpt>
      <trkpt lat="48.65048" lon="7.28526">
        <ele>604.1</ele>
        <time>2020-08-18T14:29:24Z</time>
      </trkpt>
      <trkpt lat="48.65042" lon="7.28533">
        <ele>604.9</ele>
        <time>2020-08-18T14:29:26Z</time>
      </trkpt>
      <trkpt lat="48.65035" lon="7.28541">
        <ele>606.5</ele>
        <time>2020-08-18T14:29:28Z</time>
      </trkpt>
      <trkpt lat="48.65028" lon="7.28547">
        <ele>605.9</ele>
        <time>2020-08-18T14:29:30Z</time>
      </trkpt>
      <trkpt lat="48.65022" lon="7.28552">
        <ele>605.7</ele>
        <time>2020-08-18T14:29:32Z</time>
      </trkpt>
      <trkpt lat="48.65015" lon="7.28558">
        <ele>605.7</ele>
        <time>2020-08-18T14:29:34Z</time>
      </trkpt>
      <trkpt lat="48.65009" lon="7.28566">
        <ele>606</ele>
        <time>2020-08-18T14:29:36Z</time>
      </trkpt>
      <trkpt lat="48.65002" lon="7.28572">
        <ele>604.1</ele>
        <time>2020-08-18T14:29:38Z</time>
      </trkpt>
      <trkpt lat="48.64996" lon="7.28577">
        <ele>603.1</ele>
        <time>2020-08-18T14:29:40Z</time>
      </trkpt>
      <trkpt lat="48.6499" lon="7.28581">
        <ele>602.2</ele>
        <time>2020-08-18T14:29:42Z</time>
      </trkpt>
      <trkpt lat="48.64984" lon="7.28584">
        <ele>600.2</ele>
        <time>2020-08-18T14:29:44Z</time>
      </trkpt>
      <trkpt lat="48.64976" lon="7.28586">
        <ele>600.7</ele>
        <time>2020-08-18T14:29:46Z</time>
      </trkpt>
      <trkpt lat="48.64968" lon="7.28588">
        <ele>600.8</ele>
        <time>2020-08-18T14:29:48Z</time>
      </trkpt>
      <trkpt lat="48.64961" lon="7.2859">
        <ele>601.2</ele>
        <time>2020-08-18T14:29:50Z</time>
      </trkpt>
      <trkpt lat="48.64954" lon="7.28592">
        <ele>601.5</ele>
        <time>2020-08-18T14:29:52Z</time>
      </trkpt>
      <trkpt lat="48.64946" lon="7.28592">
        <ele>601.3</ele>
        <time>2020-08-18T14:29:54Z</time>
      </trkpt>
      <trkpt lat="48.64939" lon="7.28592">
        <ele>599.4</ele>
        <time>2020-08-18T14:29:56Z</time>
      </trkpt>
      <trkpt lat="48.64931" lon="7.28592">
        <ele>600.1</ele>
        <time>2020-08-18T14:29:58Z</time>
      </trkpt>
      <trkpt lat="48.64923" lon="7.28592">
        <ele>601.1</ele>
        <time>2020-08-18T14:30:00Z</time>
      </trkpt>
      <trkpt lat="48.64915" lon="7.28592">
        <ele>602.8</ele>
        <time>2020-08-18T14:30:02Z</time>
      </trkpt>
      <trkpt lat="48.64907" lon="7.28592">
        <ele>604.8</ele>
        <time>2020-08-18T14:30:04Z</time>
      </trkpt>
      <trkpt lat="48.649" lon="7.28591">
        <ele>607</ele>
        <time>2020-08-18T14:30:06Z</time>
      </trkpt>
      <trkpt lat="48.64893" lon="7.28589">
        <ele>608.8</ele>
        <time>2020-08-18T14:30:08Z</time>
      </trkpt>
      <trkpt lat="48.64886" lon="7.28585">
        <ele>610.5</ele>
        <time>2020-08-18T14:30:10Z</time>
      </trkpt>
      <trkpt lat="48.64879" lon="7.28582">
        <ele>611.9</ele>
        <time>2020-08-18T14:30:12Z</time>
      </trkpt>
      <trkpt lat="48.64872" lon="7.28578">
        <ele>613.1</ele>
        <time>2020-08-18T14:30:14Z</time>
      </trkpt>
      <trkpt lat="48.64866" lon="7.28574">
        <ele>614</ele>
        <time>2020-08-18T14:30:16Z</time>
      </trkpt>
      <trkpt lat="48.6486" lon="7.2857">
        <ele>615.5</ele>
        <time>2020-08-18T14:30:18Z</time>
      </trkpt>
      <trkpt lat="48.64854" lon="7.28565">
        <ele>616.8</ele>
        <time>2020-08-18T14:30:20Z</time>
      </trkpt>
      <trkpt lat="48.64848" lon="7.28559">
        <ele>618</ele>
        <time>2020-08-18T14:30:22Z</time>
      </trkpt>
      <trkpt lat="48.64843" lon="7.28551">
        <ele>618.6</ele>
        <time>2020-08-18T14:30:24Z</time>
      </trkpt>
      <trkpt lat="48.64838" lon="7.28543">
        <ele>619.7</ele>
        <time>2020-08-18T14:30:26Z</time>
      </trkpt>
      <trkpt lat="48.64834" lon="7.28535">
        <ele>620.1</ele>
        <time>2020-08-18T14:30:28Z</time>
      </trkpt>
      <trkpt lat="48.6483" lon="7.28525">
        <ele>620.4</ele>
        <time>2020-08-18T14:30:30Z</time>
      </trkpt>
      <trkpt lat="48.64827" lon="7.28515">
        <ele>621</ele>
        <time>2020-08-18T14:30:32Z</time>
      </trkpt>
      <trkpt lat="48.64824" lon="7.28506">
        <ele>621.1</ele>
        <time>2020-08-18T14:30:34Z</time>
      </trkpt>
      <trkpt lat="48.64822" lon="7.28496">
        <ele>621.7</ele>
        <time>2020-08-18T14:30:36Z</time>
      </trkpt>
      <trkpt lat="48.64821" lon="7.28486">
        <ele>622.1</ele>
        <time>2020-08-18T14:30:38Z</time>
      </trkpt>
      <trkpt lat="48.64819" lon="7.28476">
        <ele>622.4</ele>
        <time>2020-08-18T14:30:40Z</time>
      </trkpt>
      <trkpt lat="48.64817" lon="7.28466">
        <ele>623</ele>
        <time>2020-08-18T14:30:42Z</time>
      </trkpt>
      <trkpt lat="48.64816" lon="7.28454">
        <ele>624</ele>
        <time>2020-08-18T14:30:44Z</time>
      </trkpt>
      <trkpt lat="48.64815" lon="7.28445">
        <ele>624.8</ele>
        <time>2020-08-18T14:30:46Z</time>
      </trkpt>
      <trkpt lat="48.64815" lon="7.28435">
        <ele>626</ele>
        <time>2020-08-18T14:30:48Z</time>
      </trkpt>
      <trkpt lat="48.64814" lon="7.28425">
        <ele>627.2</ele>
        <time>2020-08-18T14:30:50Z</time>
      </trkpt>
      <trkpt lat="48.64812" lon="7.28415">
        <ele>627.6</ele>
        <time>2020-08-18T14:30:52Z</time>
      </trkpt>
      <trkpt lat="48.64811" lon="7.28405">
        <ele>628.8</ele>
        <time>2020-08-18T14:30:54Z</time>
      </trkpt>
      <trkpt lat="48.64809" lon="7.28395">
        <ele>629.3</ele>
        <time>2020-08-18T14:30:56Z</time>
      </trkpt>
      <trkpt lat="48.64807" lon="7.28385">
        <ele>629.9</ele>
        <time>2020-08-18T14:30:58Z</time>
      </trkpt>
      <trkpt lat="48.64805" lon="7.28375">
        <ele>630.5</ele>
        <time>2020-08-18T14:31:00Z</time>
      </trkpt>
      <trkpt lat="48.64803" lon="7.28366">
        <ele>631.1</ele>
        <time>2020-08-18T14:31:02Z</time>
      </trkpt>
      <trkpt lat="48.64799" lon="7.28356">
        <ele>631.2</ele>
        <time>2020-08-18T14:31:04Z</time>
      </trkpt>
      <trkpt lat="48.64797" lon="7.28347">
        <ele>631.5</ele>
        <time>2020-08-18T14:31:06Z</time>
      </trkpt>
      <trkpt lat="48.64794" lon="7.28337">
        <ele>632.3</ele>
        <time>2020-08-18T14:31:08Z</time>
      </trkpt>
      <trkpt lat="48.64791" lon="7.28327">
        <ele>633.2</ele>
        <time>2020-08-18T14:31:10Z</time>
      </trkpt>
      <trkpt lat="48.64787" lon="7.28317">
        <ele>634.1</ele>
        <time>2020-08-18T14:31:12Z</time>
      </trkpt>
      <trkpt lat="48.64784" lon="7.28308">
        <ele>634.6</ele>
        <time>2020-08-18T14:31:14Z</time>
      </trkpt>
      <trkpt lat="48.6478" lon="7.28298">
        <ele>635.5</ele>
        <time>2020-08-18T14:31:16Z</time>
      </trkpt>
      <trkpt lat="48.64777" lon="7.28288">
        <ele>636.2</ele>
        <time>2020-08-18T14:31:18Z</time>
      </trkpt>
      <trkpt lat="48.64774" lon="7.28279">
        <ele>636.9</ele>
        <time>2020-08-18T14:31:20Z</time>
      </trkpt>
      <trkpt lat="48.6477" lon="7.2827">
        <ele>636.1</ele>
        <time>2020-08-18T14:31:22Z</time>
      </trkpt>
      <trkpt lat="48.64767" lon="7.28261">
        <ele>635.9</ele>
        <time>2020-08-18T14:31:24Z</time>
      </trkpt>
      <trkpt lat="48.64763" lon="7.28253">
        <ele>635.7</ele>
        <time>2020-08-18T14:31:26Z</time>
      </trkpt>
      <trkpt lat="48.6476" lon="7.28247">
        <ele>635.5</ele>
        <time>2020-08-18T14:31:28Z</time>
      </trkpt>
      <trkpt lat="48.64757" lon="7.28241">
        <ele>635.4</ele>
        <time>2020-08-18T14:31:30Z</time>
      </trkpt>
      <trkpt lat="48.64753" lon="7.28234">
        <ele>635.3</ele>
        <time>2020-08-18T14:31:32Z</time>
      </trkpt>
      <trkpt lat="48.64749" lon="7.28227">
        <ele>635.3</ele>
        <time>2020-08-18T14:31:34Z</time>
      </trkpt>
      <trkpt lat="48.64745" lon="7.28221">
        <ele>635.1</ele>
        <time>2020-08-18T14:31:36Z</time>
      </trkpt>
      <trkpt lat="48.64741" lon="7.28214">
        <ele>635</ele>
        <time>2020-08-18T14:31:38Z</time>
      </trkpt>
      <trkpt lat="48.64735" lon="7.28209">
        <ele>634.4</ele>
        <time>2020-08-18T14:31:40Z</time>
      </trkpt>
      <trkpt lat="48.6473" lon="7.28205">
        <ele>634.3</ele>
        <time>2020-08-18T14:31:42Z</time>
      </trkpt>
      <trkpt lat="48.64724" lon="7.28201">
        <ele>634.2</ele>
        <time>2020-08-18T14:31:44Z</time>
      </trkpt>
      <trkpt lat="48.64717" lon="7.28198">
        <ele>634</ele>
        <time>2020-08-18T14:31:46Z</time>
      </trkpt>
      <trkpt lat="48.64711" lon="7.28195">
        <ele>633.7</ele>
        <time>2020-08-18T14:31:48Z</time>
      </trkpt>
      <trkpt lat="48.64704" lon="7.28193">
        <ele>633.6</ele>
        <time>2020-08-18T14:31:50Z</time>
      </trkpt>
      <trkpt lat="48.64698" lon="7.28192">
        <ele>633.4</ele>
        <time>2020-08-18T14:31:52Z</time>
      </trkpt>
      <trkpt lat="48.64692" lon="7.28191">
        <ele>633.3</ele>
        <time>2020-08-18T14:31:54Z</time>
      </trkpt>
      <trkpt lat="48.64686" lon="7.28189">
        <ele>633.1</ele>
        <time>2020-08-18T14:31:56Z</time>
      </trkpt>
      <trkpt lat="48.6468" lon="7.28185">
        <ele>633.2</ele>
        <time>2020-08-18T14:31:58Z</time>
      </trkpt>
      <trkpt lat="48.64674" lon="7.28181">
        <ele>633.2</ele>
        <time>2020-08-18T14:32:00Z</time>
      </trkpt>
      <trkpt lat="48.6467" lon="7.28176">
        <ele>632.3</ele>
        <time>2020-08-18T14:32:02Z</time>
      </trkpt>
      <trkpt lat="48.64666" lon="7.2817">
        <ele>632.6</ele>
        <time>2020-08-18T14:32:04Z</time>
      </trkpt>
      <trkpt lat="48.64662" lon="7.28163">
        <ele>632.6</ele>
        <time>2020-08-18T14:32:06Z</time>
      </trkpt>
      <trkpt lat="48.64658" lon="7.28155">
        <ele>632.7</ele>
        <time>2020-08-18T14:32:08Z</time>
      </trkpt>
      <trkpt lat="48.64653" lon="7.28145">
        <ele>633</ele>
        <time>2020-08-18T14:32:10Z</time>
      </trkpt>
      <trkpt lat="48.64649" lon="7.28136">
        <ele>633.1</ele>
        <time>2020-08-18T14:32:12Z</time>
      </trkpt>
      <trkpt lat="48.64646" lon="7.28127">
        <ele>633.8</ele>
        <time>2020-08-18T14:32:14Z</time>
      </trkpt>
      <trkpt lat="48.64642" lon="7.28118">
        <ele>634</ele>
        <time>2020-08-18T14:32:16Z</time>
      </trkpt>
      <trkpt lat="48.64638" lon="7.28112">
        <ele>633.6</ele>
        <time>2020-08-18T14:32:18Z</time>
      </trkpt>
      <trkpt lat="48.64634" lon="7.28105">
        <ele>633.9</ele>
        <time>2020-08-18T14:32:20Z</time>
      </trkpt>
      <trkpt lat="48.64631" lon="7.28097">
        <ele>633.6</ele>
        <time>2020-08-18T14:32:22Z</time>
      </trkpt>
      <trkpt lat="48.64627" lon="7.28089">
        <ele>633.8</ele>
        <time>2020-08-18T14:32:24Z</time>
      </trkpt>
      <trkpt lat="48.64623" lon="7.28082">
        <ele>633.9</ele>
        <time>2020-08-18T14:32:26Z</time>
      </trkpt>
      <trkpt lat="48.6462" lon="7.28076">
        <ele>633.8</ele>
        <time>2020-08-18T14:32:28Z</time>
      </trkpt>
      <trkpt lat="48.64615" lon="7.28071">
        <ele>635.7</ele>
        <time>2020-08-18T14:32:48Z</time>
      </trkpt>
      <trkpt lat="48.64612" lon="7.28063">
        <ele>636.1</ele>
        <time>2020-08-18T14:32:50Z</time>
      </trkpt>
      <trkpt lat="48.64606" lon="7.28053">
        <ele>636.6</ele>
        <time>2020-08-18T14:32:52Z</time>
      </trkpt>
      <trkpt lat="48.646" lon="7.28041">
        <ele>636.9</ele>
        <time>2020-08-18T14:32:54Z</time>
      </trkpt>
      <trkpt lat="48.64595" lon="7.28029">
        <ele>637.3</ele>
        <time>2020-08-18T14:32:56Z</time>
      </trkpt>
      <trkpt lat="48.6459" lon="7.28016">
        <ele>637.7</ele>
        <time>2020-08-18T14:32:58Z</time>
      </trkpt>
      <trkpt lat="48.64587" lon="7.28003">
        <ele>638.1</ele>
        <time>2020-08-18T14:33:00Z</time>
      </trkpt>
      <trkpt lat="48.64585" lon="7.27991">
        <ele>638.3</ele>
        <time>2020-08-18T14:33:02Z</time>
      </trkpt>
      <trkpt lat="48.64582" lon="7.27979">
        <ele>638.6</ele>
        <time>2020-08-18T14:33:04Z</time>
      </trkpt>
      <trkpt lat="48.64579" lon="7.27967">
        <ele>639.2</ele>
        <time>2020-08-18T14:33:06Z</time>
      </trkpt>
      <trkpt lat="48.64576" lon="7.27955">
        <ele>639.8</ele>
        <time>2020-08-18T14:33:08Z</time>
      </trkpt>
      <trkpt lat="48.64573" lon="7.27944">
        <ele>640.1</ele>
        <time>2020-08-18T14:33:10Z</time>
      </trkpt>
      <trkpt lat="48.64569" lon="7.27933">
        <ele>640.2</ele>
        <time>2020-08-18T14:33:12Z</time>
      </trkpt>
      <trkpt lat="48.64566" lon="7.27922">
        <ele>640.3</ele>
        <time>2020-08-18T14:33:14Z</time>
      </trkpt>
      <trkpt lat="48.64563" lon="7.27912">
        <ele>640</ele>
        <time>2020-08-18T14:33:16Z</time>
      </trkpt>
      <trkpt lat="48.6456" lon="7.27901">
        <ele>640.4</ele>
        <time>2020-08-18T14:33:18Z</time>
      </trkpt>
      <trkpt lat="48.64558" lon="7.2789">
        <ele>640.7</ele>
        <time>2020-08-18T14:33:20Z</time>
      </trkpt>
      <trkpt lat="48.64556" lon="7.27879">
        <ele>641.1</ele>
        <time>2020-08-18T14:33:22Z</time>
      </trkpt>
      <trkpt lat="48.64553" lon="7.27868">
        <ele>641.7</ele>
        <time>2020-08-18T14:33:24Z</time>
      </trkpt>
      <trkpt lat="48.64551" lon="7.27857">
        <ele>642.4</ele>
        <time>2020-08-18T14:33:26Z</time>
      </trkpt>
      <trkpt lat="48.64548" lon="7.27846">
        <ele>642.7</ele>
        <time>2020-08-18T14:33:28Z</time>
      </trkpt>
      <trkpt lat="48.64546" lon="7.27835">
        <ele>643.4</ele>
        <time>2020-08-18T14:33:30Z</time>
      </trkpt>
      <trkpt lat="48.64543" lon="7.27824">
        <ele>643.9</ele>
        <time>2020-08-18T14:33:32Z</time>
      </trkpt>
      <trkpt lat="48.6454" lon="7.27813">
        <ele>644.2</ele>
        <time>2020-08-18T14:33:34Z</time>
      </trkpt>
      <trkpt lat="48.64536" lon="7.27802">
        <ele>644.3</ele>
        <time>2020-08-18T14:33:36Z</time>
      </trkpt>
      <trkpt lat="48.64533" lon="7.27791">
        <ele>644.4</ele>
        <time>2020-08-18T14:33:38Z</time>
      </trkpt>
      <trkpt lat="48.64529" lon="7.2778">
        <ele>643.9</ele>
        <time>2020-08-18T14:33:40Z</time>
      </trkpt>
      <trkpt lat="48.64524" lon="7.27769">
        <ele>643.7</ele>
        <time>2020-08-18T14:33:42Z</time>
      </trkpt>
      <trkpt lat="48.6452" lon="7.27758">
        <ele>643.7</ele>
        <time>2020-08-18T14:33:44Z</time>
      </trkpt>
      <trkpt lat="48.64517" lon="7.27746">
        <ele>643</ele>
        <time>2020-08-18T14:33:46Z</time>
      </trkpt>
      <trkpt lat="48.64513" lon="7.27734">
        <ele>642.8</ele>
        <time>2020-08-18T14:33:48Z</time>
      </trkpt>
      <trkpt lat="48.64509" lon="7.27723">
        <ele>642.5</ele>
        <time>2020-08-18T14:33:50Z</time>
      </trkpt>
      <trkpt lat="48.64506" lon="7.27712">
        <ele>642.6</ele>
        <time>2020-08-18T14:33:52Z</time>
      </trkpt>
      <trkpt lat="48.64502" lon="7.277">
        <ele>642.4</ele>
        <time>2020-08-18T14:33:54Z</time>
      </trkpt>
      <trkpt lat="48.64498" lon="7.27689">
        <ele>642.2</ele>
        <time>2020-08-18T14:33:56Z</time>
      </trkpt>
      <trkpt lat="48.64494" lon="7.27678">
        <ele>642.1</ele>
        <time>2020-08-18T14:33:58Z</time>
      </trkpt>
      <trkpt lat="48.64491" lon="7.27666">
        <ele>641.5</ele>
        <time>2020-08-18T14:34:00Z</time>
      </trkpt>
      <trkpt lat="48.64487" lon="7.27655">
        <ele>641.3</ele>
        <time>2020-08-18T14:34:02Z</time>
      </trkpt>
      <trkpt lat="48.64484" lon="7.27644">
        <ele>641.2</ele>
        <time>2020-08-18T14:34:04Z</time>
      </trkpt>
      <trkpt lat="48.6448" lon="7.27631">
        <ele>641.4</ele>
        <time>2020-08-18T14:34:06Z</time>
      </trkpt>
      <trkpt lat="48.64477" lon="7.27619">
        <ele>641.6</ele>
        <time>2020-08-18T14:34:08Z</time>
      </trkpt>
      <trkpt lat="48.64473" lon="7.27607">
        <ele>641.6</ele>
        <time>2020-08-18T14:34:10Z</time>
      </trkpt>
      <trkpt lat="48.64469" lon="7.27595">
        <ele>641.5</ele>
        <time>2020-08-18T14:34:12Z</time>
      </trkpt>
      <trkpt lat="48.64464" lon="7.27584">
        <ele>641.4</ele>
        <time>2020-08-18T14:34:14Z</time>
      </trkpt>
      <trkpt lat="48.64459" lon="7.27574">
        <ele>641.7</ele>
        <time>2020-08-18T14:34:16Z</time>
      </trkpt>
      <trkpt lat="48.64454" lon="7.27565">
        <ele>642</ele>
        <time>2020-08-18T14:34:18Z</time>
      </trkpt>
      <trkpt lat="48.64448" lon="7.27556">
        <ele>641.9</ele>
        <time>2020-08-18T14:34:20Z</time>
      </trkpt>
      <trkpt lat="48.64442" lon="7.27546">
        <ele>641.8</ele>
        <time>2020-08-18T14:34:22Z</time>
      </trkpt>
      <trkpt lat="48.64435" lon="7.27537">
        <ele>641.4</ele>
        <time>2020-08-18T14:34:24Z</time>
      </trkpt>
      <trkpt lat="48.64427" lon="7.27528">
        <ele>641</ele>
        <time>2020-08-18T14:34:26Z</time>
      </trkpt>
      <trkpt lat="48.64419" lon="7.27521">
        <ele>640.9</ele>
        <time>2020-08-18T14:34:28Z</time>
      </trkpt>
      <trkpt lat="48.6441" lon="7.27515">
        <ele>640.8</ele>
        <time>2020-08-18T14:34:30Z</time>
      </trkpt>
      <trkpt lat="48.64402" lon="7.2751">
        <ele>640.7</ele>
        <time>2020-08-18T14:34:32Z</time>
      </trkpt>
      <trkpt lat="48.64398" lon="7.27505">
        <ele>640.6</ele>
        <time>2020-08-18T14:34:34Z</time>
      </trkpt>
      <trkpt lat="48.64393" lon="7.275">
        <ele>641.9</ele>
        <time>2020-08-18T14:34:48Z</time>
      </trkpt>
      <trkpt lat="48.64388" lon="7.27495">
        <ele>642.1</ele>
        <time>2020-08-18T14:34:51Z</time>
      </trkpt>
      <trkpt lat="48.64383" lon="7.27493">
        <ele>642.1</ele>
        <time>2020-08-18T14:34:54Z</time>
      </trkpt>
      <trkpt lat="48.64378" lon="7.27494">
        <ele>642.4</ele>
        <time>2020-08-18T14:34:56Z</time>
      </trkpt>
      <trkpt lat="48.6437" lon="7.275">
        <ele>642.3</ele>
        <time>2020-08-18T14:34:58Z</time>
      </trkpt>
      <trkpt lat="48.64362" lon="7.27505">
        <ele>642.1</ele>
        <time>2020-08-18T14:35:00Z</time>
      </trkpt>
      <trkpt lat="48.64354" lon="7.27509">
        <ele>641.5</ele>
        <time>2020-08-18T14:35:02Z</time>
      </trkpt>
      <trkpt lat="48.64347" lon="7.27514">
        <ele>640.7</ele>
        <time>2020-08-18T14:35:04Z</time>
      </trkpt>
      <trkpt lat="48.64343" lon="7.27518">
        <ele>640</ele>
        <time>2020-08-18T14:35:06Z</time>
      </trkpt>
      <trkpt lat="48.64338" lon="7.27522">
        <ele>639.4</ele>
        <time>2020-08-18T14:35:11Z</time>
      </trkpt>
      <trkpt lat="48.64333" lon="7.27525">
        <ele>639.6</ele>
        <time>2020-08-18T14:35:15Z</time>
      </trkpt>
      <trkpt lat="48.64327" lon="7.27529">
        <ele>639.7</ele>
        <time>2020-08-18T14:35:18Z</time>
      </trkpt>
      <trkpt lat="48.64314" lon="7.27534">
        <ele>639.4</ele>
        <time>2020-08-18T14:35:20Z</time>
      </trkpt>
      <trkpt lat="48.643" lon="7.27538">
        <ele>639.2</ele>
        <time>2020-08-18T14:35:22Z</time>
      </trkpt>
      <trkpt lat="48.64285" lon="7.27543">
        <ele>638.9</ele>
        <time>2020-08-18T14:35:24Z</time>
      </trkpt>
      <trkpt lat="48.6427" lon="7.27548">
        <ele>638.5</ele>
        <time>2020-08-18T14:35:26Z</time>
      </trkpt>
      <trkpt lat="48.64254" lon="7.27556">
        <ele>637.7</ele>
        <time>2020-08-18T14:35:28Z</time>
      </trkpt>
      <trkpt lat="48.6424" lon="7.27565">
        <ele>637.5</ele>
        <time>2020-08-18T14:35:30Z</time>
      </trkpt>
      <trkpt lat="48.64227" lon="7.27572">
        <ele>636.9</ele>
        <time>2020-08-18T14:35:32Z</time>
      </trkpt>
      <trkpt lat="48.64212" lon="7.27577">
        <ele>636.7</ele>
        <time>2020-08-18T14:35:34Z</time>
      </trkpt>
      <trkpt lat="48.64199" lon="7.27581">
        <ele>636.4</ele>
        <time>2020-08-18T14:35:36Z</time>
      </trkpt>
      <trkpt lat="48.64186" lon="7.27584">
        <ele>635.9</ele>
        <time>2020-08-18T14:35:38Z</time>
      </trkpt>
      <trkpt lat="48.64172" lon="7.27588">
        <ele>635.9</ele>
        <time>2020-08-18T14:35:40Z</time>
      </trkpt>
      <trkpt lat="48.64159" lon="7.27591">
        <ele>634.7</ele>
        <time>2020-08-18T14:35:42Z</time>
      </trkpt>
      <trkpt lat="48.64146" lon="7.27592">
        <ele>634</ele>
        <time>2020-08-18T14:35:44Z</time>
      </trkpt>
      <trkpt lat="48.64131" lon="7.27591">
        <ele>633.8</ele>
        <time>2020-08-18T14:35:46Z</time>
      </trkpt>
      <trkpt lat="48.64116" lon="7.27589">
        <ele>633.2</ele>
        <time>2020-08-18T14:35:48Z</time>
      </trkpt>
      <trkpt lat="48.64102" lon="7.27584">
        <ele>632.3</ele>
        <time>2020-08-18T14:35:50Z</time>
      </trkpt>
      <trkpt lat="48.64085" lon="7.2758">
        <ele>631.7</ele>
        <time>2020-08-18T14:35:52Z</time>
      </trkpt>
      <trkpt lat="48.64069" lon="7.27575">
        <ele>630.8</ele>
        <time>2020-08-18T14:35:54Z</time>
      </trkpt>
      <trkpt lat="48.64055" lon="7.27571">
        <ele>629.6</ele>
        <time>2020-08-18T14:35:56Z</time>
      </trkpt>
      <trkpt lat="48.64044" lon="7.27566">
        <ele>628.6</ele>
        <time>2020-08-18T14:35:58Z</time>
      </trkpt>
      <trkpt lat="48.64036" lon="7.27558">
        <ele>627.3</ele>
        <time>2020-08-18T14:36:00Z</time>
      </trkpt>
      <trkpt lat="48.64029" lon="7.27551">
        <ele>626.7</ele>
        <time>2020-08-18T14:36:02Z</time>
      </trkpt>
      <trkpt lat="48.64025" lon="7.27542">
        <ele>625.8</ele>
        <time>2020-08-18T14:36:04Z</time>
      </trkpt>
      <trkpt lat="48.64021" lon="7.2753">
        <ele>624.9</ele>
        <time>2020-08-18T14:36:06Z</time>
      </trkpt>
      <trkpt lat="48.64019" lon="7.27515">
        <ele>624.3</ele>
        <time>2020-08-18T14:36:08Z</time>
      </trkpt>
      <trkpt lat="48.64018" lon="7.27499">
        <ele>622.9</ele>
        <time>2020-08-18T14:36:10Z</time>
      </trkpt>
      <trkpt lat="48.64019" lon="7.27483">
        <ele>621.6</ele>
        <time>2020-08-18T14:36:12Z</time>
      </trkpt>
      <trkpt lat="48.6402" lon="7.27466">
        <ele>621</ele>
        <time>2020-08-18T14:36:14Z</time>
      </trkpt>
      <trkpt lat="48.64022" lon="7.27452">
        <ele>620.5</ele>
        <time>2020-08-18T14:36:16Z</time>
      </trkpt>
      <trkpt lat="48.64023" lon="7.27442">
        <ele>620</ele>
        <time>2020-08-18T14:36:18Z</time>
      </trkpt>
      <trkpt lat="48.64024" lon="7.27433">
        <ele>618.7</ele>
        <time>2020-08-18T14:36:20Z</time>
      </trkpt>
      <trkpt lat="48.64025" lon="7.27421">
        <ele>617.4</ele>
        <time>2020-08-18T14:36:22Z</time>
      </trkpt>
      <trkpt lat="48.64026" lon="7.27412">
        <ele>616.1</ele>
        <time>2020-08-18T14:36:24Z</time>
      </trkpt>
      <trkpt lat="48.64024" lon="7.27402">
        <ele>615.4</ele>
        <time>2020-08-18T14:36:26Z</time>
      </trkpt>
      <trkpt lat="48.64022" lon="7.27393">
        <ele>614.7</ele>
        <time>2020-08-18T14:36:28Z</time>
      </trkpt>
      <trkpt lat="48.64019" lon="7.27386">
        <ele>614.3</ele>
        <time>2020-08-18T14:36:30Z</time>
      </trkpt>
      <trkpt lat="48.64018" lon="7.2738">
        <ele>613.5</ele>
        <time>2020-08-18T14:36:32Z</time>
      </trkpt>
      <trkpt lat="48.64015" lon="7.27371">
        <ele>613.2</ele>
        <time>2020-08-18T14:36:34Z</time>
      </trkpt>
      <trkpt lat="48.64013" lon="7.27362">
        <ele>613</ele>
        <time>2020-08-18T14:36:36Z</time>
      </trkpt>
      <trkpt lat="48.6401" lon="7.27354">
        <ele>613.1</ele>
        <time>2020-08-18T14:36:38Z</time>
      </trkpt>
      <trkpt lat="48.64008" lon="7.27348">
        <ele>612.9</ele>
        <time>2020-08-18T14:36:40Z</time>
      </trkpt>
      <trkpt lat="48.64004" lon="7.27339">
        <ele>612.9</ele>
        <time>2020-08-18T14:36:42Z</time>
      </trkpt>
      <trkpt lat="48.64001" lon="7.27329">
        <ele>612.9</ele>
        <time>2020-08-18T14:36:44Z</time>
      </trkpt>
      <trkpt lat="48.63998" lon="7.2732">
        <ele>613.5</ele>
        <time>2020-08-18T14:36:46Z</time>
      </trkpt>
      <trkpt lat="48.63996" lon="7.2731">
        <ele>613.9</ele>
        <time>2020-08-18T14:36:48Z</time>
      </trkpt>
      <trkpt lat="48.63992" lon="7.27297">
        <ele>614.7</ele>
        <time>2020-08-18T14:36:50Z</time>
      </trkpt>
      <trkpt lat="48.6399" lon="7.27287">
        <ele>614.9</ele>
        <time>2020-08-18T14:36:52Z</time>
      </trkpt>
      <trkpt lat="48.63988" lon="7.2728">
        <ele>613.1</ele>
        <time>2020-08-18T14:36:57Z</time>
      </trkpt>
      <trkpt lat="48.63992" lon="7.27276">
        <ele>605</ele>
        <time>2020-08-18T14:37:13Z</time>
      </trkpt>
      <trkpt lat="48.6399" lon="7.27265">
        <ele>606.3</ele>
        <time>2020-08-18T14:37:16Z</time>
      </trkpt>
      <trkpt lat="48.63989" lon="7.27256">
        <ele>605.1</ele>
        <time>2020-08-18T14:37:18Z</time>
      </trkpt>
      <trkpt lat="48.63987" lon="7.27245">
        <ele>606</ele>
        <time>2020-08-18T14:37:20Z</time>
      </trkpt>
      <trkpt lat="48.63986" lon="7.27234">
        <ele>606.8</ele>
        <time>2020-08-18T14:37:22Z</time>
      </trkpt>
      <trkpt lat="48.63984" lon="7.27225">
        <ele>607</ele>
        <time>2020-08-18T14:37:24Z</time>
      </trkpt>
      <trkpt lat="48.63983" lon="7.27216">
        <ele>607.5</ele>
        <time>2020-08-18T14:37:26Z</time>
      </trkpt>
      <trkpt lat="48.63981" lon="7.27207">
        <ele>607.8</ele>
        <time>2020-08-18T14:37:28Z</time>
      </trkpt>
      <trkpt lat="48.63978" lon="7.27198">
        <ele>608.2</ele>
        <time>2020-08-18T14:37:30Z</time>
      </trkpt>
      <trkpt lat="48.63975" lon="7.27188">
        <ele>608.6</ele>
        <time>2020-08-18T14:37:32Z</time>
      </trkpt>
      <trkpt lat="48.63973" lon="7.27177">
        <ele>609.5</ele>
        <time>2020-08-18T14:37:34Z</time>
      </trkpt>
      <trkpt lat="48.6397" lon="7.27166">
        <ele>610</ele>
        <time>2020-08-18T14:37:36Z</time>
      </trkpt>
      <trkpt lat="48.63969" lon="7.27156">
        <ele>610.6</ele>
        <time>2020-08-18T14:37:38Z</time>
      </trkpt>
      <trkpt lat="48.63969" lon="7.27144">
        <ele>611.5</ele>
        <time>2020-08-18T14:37:40Z</time>
      </trkpt>
      <trkpt lat="48.63969" lon="7.27135">
        <ele>613.1</ele>
        <time>2020-08-18T14:37:42Z</time>
      </trkpt>
      <trkpt lat="48.6397" lon="7.27127">
        <ele>614.6</ele>
        <time>2020-08-18T14:37:44Z</time>
      </trkpt>
      <trkpt lat="48.63971" lon="7.2712">
        <ele>615.8</ele>
        <time>2020-08-18T14:37:46Z</time>
      </trkpt>
      <trkpt lat="48.63974" lon="7.27112">
        <ele>616.8</ele>
        <time>2020-08-18T14:37:49Z</time>
      </trkpt>
      <trkpt lat="48.63974" lon="7.27105">
        <ele>619.2</ele>
        <time>2020-08-18T14:37:53Z</time>
      </trkpt>
      <trkpt lat="48.63975" lon="7.27097">
        <ele>620.3</ele>
        <time>2020-08-18T14:38:00Z</time>
      </trkpt>
      <trkpt lat="48.63978" lon="7.2709">
        <ele>620.9</ele>
        <time>2020-08-18T14:38:04Z</time>
      </trkpt>
      <trkpt lat="48.6398" lon="7.27083">
        <ele>621.6</ele>
        <time>2020-08-18T14:38:08Z</time>
      </trkpt>
      <trkpt lat="48.63984" lon="7.27077">
        <ele>621.5</ele>
        <time>2020-08-18T14:38:12Z</time>
      </trkpt>
      <trkpt lat="48.63986" lon="7.2707">
        <ele>620.9</ele>
        <time>2020-08-18T14:38:16Z</time>
      </trkpt>
      <trkpt lat="48.63989" lon="7.27062">
        <ele>619.1</ele>
        <time>2020-08-18T14:38:20Z</time>
      </trkpt>
      <trkpt lat="48.63991" lon="7.27054">
        <ele>617.5</ele>
        <time>2020-08-18T14:38:25Z</time>
      </trkpt>
      <trkpt lat="48.63994" lon="7.27048">
        <ele>618</ele>
        <time>2020-08-18T14:38:29Z</time>
      </trkpt>
      <trkpt lat="48.63996" lon="7.27041">
        <ele>617.9</ele>
        <time>2020-08-18T14:38:34Z</time>
      </trkpt>
      <trkpt lat="48.63999" lon="7.27034">
        <ele>618.2</ele>
        <time>2020-08-18T14:38:38Z</time>
      </trkpt>
      <trkpt lat="48.64" lon="7.27028">
        <ele>618.8</ele>
        <time>2020-08-18T14:38:42Z</time>
      </trkpt>
      <trkpt lat="48.64001" lon="7.2702">
        <ele>618.7</ele>
        <time>2020-08-18T14:38:46Z</time>
      </trkpt>
      <trkpt lat="48.64002" lon="7.27012">
        <ele>618.8</ele>
        <time>2020-08-18T14:38:49Z</time>
      </trkpt>
      <trkpt lat="48.64003" lon="7.27005">
        <ele>619.7</ele>
        <time>2020-08-18T14:38:53Z</time>
      </trkpt>
      <trkpt lat="48.64004" lon="7.26997">
        <ele>620.7</ele>
        <time>2020-08-18T14:38:57Z</time>
      </trkpt>
      <trkpt lat="48.64005" lon="7.26989">
        <ele>622.9</ele>
        <time>2020-08-18T14:39:02Z</time>
      </trkpt>
      <trkpt lat="48.64003" lon="7.26982">
        <ele>624.4</ele>
        <time>2020-08-18T14:39:07Z</time>
      </trkpt>
      <trkpt lat="48.64001" lon="7.26975">
        <ele>623.6</ele>
        <time>2020-08-18T14:39:12Z</time>
      </trkpt>
      <trkpt lat="48.64" lon="7.26967">
        <ele>624.2</ele>
        <time>2020-08-18T14:39:17Z</time>
      </trkpt>
      <trkpt lat="48.63999" lon="7.26959">
        <ele>624.9</ele>
        <time>2020-08-18T14:39:22Z</time>
      </trkpt>
      <trkpt lat="48.63998" lon="7.26951">
        <ele>625.2</ele>
        <time>2020-08-18T14:39:26Z</time>
      </trkpt>
      <trkpt lat="48.63998" lon="7.26943">
        <ele>626</ele>
        <time>2020-08-18T14:39:30Z</time>
      </trkpt>
      <trkpt lat="48.63996" lon="7.26936">
        <ele>627.7</ele>
        <time>2020-08-18T14:39:34Z</time>
      </trkpt>
      <trkpt lat="48.63995" lon="7.26929">
        <ele>628.7</ele>
        <time>2020-08-18T14:39:39Z</time>
      </trkpt>
      <trkpt lat="48.63994" lon="7.26921">
        <ele>630.4</ele>
        <time>2020-08-18T14:39:43Z</time>
      </trkpt>
      <trkpt lat="48.63995" lon="7.26913">
        <ele>632.1</ele>
        <time>2020-08-18T14:39:48Z</time>
      </trkpt>
      <trkpt lat="48.63995" lon="7.26906">
        <ele>633</ele>
        <time>2020-08-18T14:39:52Z</time>
      </trkpt>
      <trkpt lat="48.63995" lon="7.26899">
        <ele>634.1</ele>
        <time>2020-08-18T14:39:56Z</time>
      </trkpt>
      <trkpt lat="48.63995" lon="7.26892">
        <ele>633.9</ele>
        <time>2020-08-18T14:40:05Z</time>
      </trkpt>
      <trkpt lat="48.63993" lon="7.26884">
        <ele>633.3</ele>
        <time>2020-08-18T14:40:09Z</time>
      </trkpt>
      <trkpt lat="48.6399" lon="7.26877">
        <ele>632.2</ele>
        <time>2020-08-18T14:40:14Z</time>
      </trkpt>
      <trkpt lat="48.63987" lon="7.26872">
        <ele>632.1</ele>
        <time>2020-08-18T14:40:18Z</time>
      </trkpt>
      <trkpt lat="48.63986" lon="7.26864">
        <ele>633.3</ele>
        <time>2020-08-18T14:40:22Z</time>
      </trkpt>
      <trkpt lat="48.63985" lon="7.26855">
        <ele>634.2</ele>
        <time>2020-08-18T14:40:26Z</time>
      </trkpt>
      <trkpt lat="48.63984" lon="7.26849">
        <ele>634.6</ele>
        <time>2020-08-18T14:40:29Z</time>
      </trkpt>
      <trkpt lat="48.63984" lon="7.26841">
        <ele>634</ele>
        <time>2020-08-18T14:40:33Z</time>
      </trkpt>
      <trkpt lat="48.63983" lon="7.26833">
        <ele>633.4</ele>
        <time>2020-08-18T14:40:37Z</time>
      </trkpt>
      <trkpt lat="48.63982" lon="7.26826">
        <ele>633.1</ele>
        <time>2020-08-18T14:40:41Z</time>
      </trkpt>
      <trkpt lat="48.6398" lon="7.26819">
        <ele>633.9</ele>
        <time>2020-08-18T14:40:45Z</time>
      </trkpt>
      <trkpt lat="48.63979" lon="7.26812">
        <ele>633.8</ele>
        <time>2020-08-18T14:40:49Z</time>
      </trkpt>
      <trkpt lat="48.63979" lon="7.26804">
        <ele>635</ele>
        <time>2020-08-18T14:40:53Z</time>
      </trkpt>
      <trkpt lat="48.63978" lon="7.26796">
        <ele>634.8</ele>
        <time>2020-08-18T14:40:58Z</time>
      </trkpt>
      <trkpt lat="48.63975" lon="7.26789">
        <ele>634.7</ele>
        <time>2020-08-18T14:41:02Z</time>
      </trkpt>
      <trkpt lat="48.63973" lon="7.26781">
        <ele>635.6</ele>
        <time>2020-08-18T14:41:06Z</time>
      </trkpt>
      <trkpt lat="48.63971" lon="7.26775">
        <ele>635.7</ele>
        <time>2020-08-18T14:41:10Z</time>
      </trkpt>
      <trkpt lat="48.63971" lon="7.26767">
        <ele>636.5</ele>
        <time>2020-08-18T14:41:15Z</time>
      </trkpt>
      <trkpt lat="48.63971" lon="7.26759">
        <ele>636.4</ele>
        <time>2020-08-18T14:41:20Z</time>
      </trkpt>
      <trkpt lat="48.63969" lon="7.26752">
        <ele>636.2</ele>
        <time>2020-08-18T14:41:24Z</time>
      </trkpt>
      <trkpt lat="48.63966" lon="7.26746">
        <ele>636.4</ele>
        <time>2020-08-18T14:41:28Z</time>
      </trkpt>
      <trkpt lat="48.63965" lon="7.26739">
        <ele>633.8</ele>
        <time>2020-08-18T14:41:43Z</time>
      </trkpt>
      <trkpt lat="48.63962" lon="7.26732">
        <ele>633</ele>
        <time>2020-08-18T14:41:50Z</time>
      </trkpt>
      <trkpt lat="48.6396" lon="7.26725">
        <ele>631.7</ele>
        <time>2020-08-18T14:41:53Z</time>
      </trkpt>
      <trkpt lat="48.63958" lon="7.26719">
        <ele>630.5</ele>
        <time>2020-08-18T14:41:55Z</time>
      </trkpt>
      <trkpt lat="48.63955" lon="7.2671">
        <ele>628.9</ele>
        <time>2020-08-18T14:41:58Z</time>
      </trkpt>
      <trkpt lat="48.63954" lon="7.26703">
        <ele>628.1</ele>
        <time>2020-08-18T14:42:00Z</time>
      </trkpt>
      <trkpt lat="48.63951" lon="7.26695">
        <ele>622.4</ele>
        <time>2020-08-18T14:42:02Z</time>
      </trkpt>
      <trkpt lat="48.63949" lon="7.26688">
        <ele>620.1</ele>
        <time>2020-08-18T14:42:04Z</time>
      </trkpt>
      <trkpt lat="48.63946" lon="7.26681">
        <ele>618.2</ele>
        <time>2020-08-18T14:42:06Z</time>
      </trkpt>
      <trkpt lat="48.63945" lon="7.26674">
        <ele>615.8</ele>
        <time>2020-08-18T14:42:08Z</time>
      </trkpt>
      <trkpt lat="48.63944" lon="7.26667">
        <ele>614.5</ele>
        <time>2020-08-18T14:42:10Z</time>
      </trkpt>
      <trkpt lat="48.63943" lon="7.26659">
        <ele>616.1</ele>
        <time>2020-08-18T14:42:12Z</time>
      </trkpt>
      <trkpt lat="48.63942" lon="7.26652">
        <ele>617.3</ele>
        <time>2020-08-18T14:42:14Z</time>
      </trkpt>
      <trkpt lat="48.63942" lon="7.26643">
        <ele>618.2</ele>
        <time>2020-08-18T14:42:17Z</time>
      </trkpt>
      <trkpt lat="48.6394" lon="7.26636">
        <ele>619.6</ele>
        <time>2020-08-18T14:42:19Z</time>
      </trkpt>
      <trkpt lat="48.63938" lon="7.26629">
        <ele>621.3</ele>
        <time>2020-08-18T14:42:21Z</time>
      </trkpt>
      <trkpt lat="48.63936" lon="7.26623">
        <ele>623</ele>
        <time>2020-08-18T14:42:23Z</time>
      </trkpt>
      <trkpt lat="48.63934" lon="7.26617">
        <ele>625.4</ele>
        <time>2020-08-18T14:42:25Z</time>
      </trkpt>
      <trkpt lat="48.63931" lon="7.2661">
        <ele>627</ele>
        <time>2020-08-18T14:42:27Z</time>
      </trkpt>
      <trkpt lat="48.63928" lon="7.26604">
        <ele>629</ele>
        <time>2020-08-18T14:42:29Z</time>
      </trkpt>
      <trkpt lat="48.63925" lon="7.26597">
        <ele>631.2</ele>
        <time>2020-08-18T14:42:31Z</time>
      </trkpt>
      <trkpt lat="48.63922" lon="7.2659">
        <ele>633.5</ele>
        <time>2020-08-18T14:42:33Z</time>
      </trkpt>
      <trkpt lat="48.63918" lon="7.26583">
        <ele>634.5</ele>
        <time>2020-08-18T14:42:35Z</time>
      </trkpt>
      <trkpt lat="48.63915" lon="7.26576">
        <ele>635.7</ele>
        <time>2020-08-18T14:42:37Z</time>
      </trkpt>
      <trkpt lat="48.63913" lon="7.26568">
        <ele>636.3</ele>
        <time>2020-08-18T14:42:39Z</time>
      </trkpt>
      <trkpt lat="48.63911" lon="7.26562">
        <ele>637.5</ele>
        <time>2020-08-18T14:42:41Z</time>
      </trkpt>
      <trkpt lat="48.63908" lon="7.26556">
        <ele>638.4</ele>
        <time>2020-08-18T14:42:43Z</time>
      </trkpt>
      <trkpt lat="48.63906" lon="7.2655">
        <ele>639.5</ele>
        <time>2020-08-18T14:42:45Z</time>
      </trkpt>
      <trkpt lat="48.63902" lon="7.26545">
        <ele>640.2</ele>
        <time>2020-08-18T14:42:47Z</time>
      </trkpt>
      <trkpt lat="48.63898" lon="7.2654">
        <ele>640.9</ele>
        <time>2020-08-18T14:42:49Z</time>
      </trkpt>
      <trkpt lat="48.63894" lon="7.26535">
        <ele>641</ele>
        <time>2020-08-18T14:42:51Z</time>
      </trkpt>
      <trkpt lat="48.6389" lon="7.2653">
        <ele>640.3</ele>
        <time>2020-08-18T14:42:53Z</time>
      </trkpt>
      <trkpt lat="48.63886" lon="7.26525">
        <ele>640.4</ele>
        <time>2020-08-18T14:42:55Z</time>
      </trkpt>
      <trkpt lat="48.63882" lon="7.2652">
        <ele>640.4</ele>
        <time>2020-08-18T14:42:57Z</time>
      </trkpt>
      <trkpt lat="48.63878" lon="7.26517">
        <ele>640.5</ele>
        <time>2020-08-18T14:42:59Z</time>
      </trkpt>
      <trkpt lat="48.63873" lon="7.26514">
        <ele>641.2</ele>
        <time>2020-08-18T14:43:01Z</time>
      </trkpt>
      <trkpt lat="48.63868" lon="7.2651">
        <ele>642.1</ele>
        <time>2020-08-18T14:43:04Z</time>
      </trkpt>
      <trkpt lat="48.63862" lon="7.26505">
        <ele>642.7</ele>
        <time>2020-08-18T14:43:07Z</time>
      </trkpt>
      <trkpt lat="48.63858" lon="7.26501">
        <ele>643.3</ele>
        <time>2020-08-18T14:43:09Z</time>
      </trkpt>
      <trkpt lat="48.63854" lon="7.26497">
        <ele>643.8</ele>
        <time>2020-08-18T14:43:11Z</time>
      </trkpt>
      <trkpt lat="48.63849" lon="7.26493">
        <ele>638</ele>
        <time>2020-08-18T14:43:13Z</time>
      </trkpt>
      <trkpt lat="48.63844" lon="7.2649">
        <ele>636.3</ele>
        <time>2020-08-18T14:43:15Z</time>
      </trkpt>
      <trkpt lat="48.63839" lon="7.26488">
        <ele>633.4</ele>
        <time>2020-08-18T14:43:17Z</time>
      </trkpt>
      <trkpt lat="48.63835" lon="7.26485">
        <ele>634.3</ele>
        <time>2020-08-18T14:43:19Z</time>
      </trkpt>
      <trkpt lat="48.63831" lon="7.26481">
        <ele>635</ele>
        <time>2020-08-18T14:43:21Z</time>
      </trkpt>
      <trkpt lat="48.63827" lon="7.26476">
        <ele>632.6</ele>
        <time>2020-08-18T14:43:23Z</time>
      </trkpt>
      <trkpt lat="48.63823" lon="7.26472">
        <ele>634.1</ele>
        <time>2020-08-18T14:43:25Z</time>
      </trkpt>
      <trkpt lat="48.63818" lon="7.26468">
        <ele>636</ele>
        <time>2020-08-18T14:43:27Z</time>
      </trkpt>
      <trkpt lat="48.63813" lon="7.26464">
        <ele>637.6</ele>
        <time>2020-08-18T14:43:29Z</time>
      </trkpt>
      <trkpt lat="48.63806" lon="7.2646">
        <ele>639.4</ele>
        <time>2020-08-18T14:43:31Z</time>
      </trkpt>
      <trkpt lat="48.638" lon="7.26457">
        <ele>640.1</ele>
        <time>2020-08-18T14:43:33Z</time>
      </trkpt>
      <trkpt lat="48.63793" lon="7.26455">
        <ele>641.1</ele>
        <time>2020-08-18T14:43:35Z</time>
      </trkpt>
      <trkpt lat="48.63788" lon="7.26454">
        <ele>642.3</ele>
        <time>2020-08-18T14:43:37Z</time>
      </trkpt>
      <trkpt lat="48.63782" lon="7.26453">
        <ele>644.6</ele>
        <time>2020-08-18T14:43:40Z</time>
      </trkpt>
      <trkpt lat="48.63778" lon="7.26457">
        <ele>649.9</ele>
        <time>2020-08-18T14:43:51Z</time>
      </trkpt>
      <trkpt lat="48.63771" lon="7.26458">
        <ele>652.2</ele>
        <time>2020-08-18T14:44:15Z</time>
      </trkpt>
      <trkpt lat="48.63764" lon="7.26459">
        <ele>651.3</ele>
        <time>2020-08-18T14:44:17Z</time>
      </trkpt>
      <trkpt lat="48.63752" lon="7.26459">
        <ele>650.6</ele>
        <time>2020-08-18T14:44:19Z</time>
      </trkpt>
      <trkpt lat="48.63741" lon="7.26457">
        <ele>649.4</ele>
        <time>2020-08-18T14:44:21Z</time>
      </trkpt>
      <trkpt lat="48.6373" lon="7.26455">
        <ele>648.3</ele>
        <time>2020-08-18T14:44:23Z</time>
      </trkpt>
      <trkpt lat="48.6372" lon="7.26452">
        <ele>647.6</ele>
        <time>2020-08-18T14:44:25Z</time>
      </trkpt>
      <trkpt lat="48.6371" lon="7.2645">
        <ele>647.1</ele>
        <time>2020-08-18T14:44:27Z</time>
      </trkpt>
      <trkpt lat="48.637" lon="7.26447">
        <ele>647.4</ele>
        <time>2020-08-18T14:44:29Z</time>
      </trkpt>
      <trkpt lat="48.63692" lon="7.2644">
        <ele>647.4</ele>
        <time>2020-08-18T14:44:32Z</time>
      </trkpt>
      <trkpt lat="48.63684" lon="7.2643">
        <ele>648.1</ele>
        <time>2020-08-18T14:44:34Z</time>
      </trkpt>
      <trkpt lat="48.63678" lon="7.26423">
        <ele>648.3</ele>
        <time>2020-08-18T14:44:36Z</time>
      </trkpt>
      <trkpt lat="48.63674" lon="7.26418">
        <ele>648.8</ele>
        <time>2020-08-18T14:44:38Z</time>
      </trkpt>
      <trkpt lat="48.63668" lon="7.26411">
        <ele>649.7</ele>
        <time>2020-08-18T14:44:40Z</time>
      </trkpt>
      <trkpt lat="48.63664" lon="7.26402">
        <ele>650.2</ele>
        <time>2020-08-18T14:44:42Z</time>
      </trkpt>
      <trkpt lat="48.6366" lon="7.26391">
        <ele>650.8</ele>
        <time>2020-08-18T14:44:44Z</time>
      </trkpt>
      <trkpt lat="48.63656" lon="7.26382">
        <ele>651.6</ele>
        <time>2020-08-18T14:44:46Z</time>
      </trkpt>
      <trkpt lat="48.63651" lon="7.26374">
        <ele>652.3</ele>
        <time>2020-08-18T14:44:48Z</time>
      </trkpt>
      <trkpt lat="48.63646" lon="7.26367">
        <ele>652.8</ele>
        <time>2020-08-18T14:44:50Z</time>
      </trkpt>
      <trkpt lat="48.63642" lon="7.2636">
        <ele>653.5</ele>
        <time>2020-08-18T14:44:52Z</time>
      </trkpt>
      <trkpt lat="48.63639" lon="7.26353">
        <ele>654.1</ele>
        <time>2020-08-18T14:44:54Z</time>
      </trkpt>
      <trkpt lat="48.63636" lon="7.26346">
        <ele>654.7</ele>
        <time>2020-08-18T14:44:56Z</time>
      </trkpt>
      <trkpt lat="48.63634" lon="7.2634">
        <ele>654.2</ele>
        <time>2020-08-18T14:44:58Z</time>
      </trkpt>
      <trkpt lat="48.63631" lon="7.26331">
        <ele>653.3</ele>
        <time>2020-08-18T14:45:01Z</time>
      </trkpt>
      <trkpt lat="48.63628" lon="7.26323">
        <ele>652.3</ele>
        <time>2020-08-18T14:45:04Z</time>
      </trkpt>
      <trkpt lat="48.63626" lon="7.26317">
        <ele>651.1</ele>
        <time>2020-08-18T14:45:06Z</time>
      </trkpt>
      <trkpt lat="48.63624" lon="7.2631">
        <ele>650.1</ele>
        <time>2020-08-18T14:45:08Z</time>
      </trkpt>
      <trkpt lat="48.63622" lon="7.26302">
        <ele>649.8</ele>
        <time>2020-08-18T14:45:10Z</time>
      </trkpt>
      <trkpt lat="48.63619" lon="7.26295">
        <ele>649.9</ele>
        <time>2020-08-18T14:45:12Z</time>
      </trkpt>
      <trkpt lat="48.63618" lon="7.26287">
        <ele>649.6</ele>
        <time>2020-08-18T14:45:14Z</time>
      </trkpt>
      <trkpt lat="48.63617" lon="7.26279">
        <ele>649.2</ele>
        <time>2020-08-18T14:45:16Z</time>
      </trkpt>
      <trkpt lat="48.63616" lon="7.26269">
        <ele>648.2</ele>
        <time>2020-08-18T14:45:18Z</time>
      </trkpt>
      <trkpt lat="48.63614" lon="7.2626">
        <ele>647.3</ele>
        <time>2020-08-18T14:45:20Z</time>
      </trkpt>
      <trkpt lat="48.63613" lon="7.26251">
        <ele>646.3</ele>
        <time>2020-08-18T14:45:22Z</time>
      </trkpt>
      <trkpt lat="48.63611" lon="7.26244">
        <ele>645.4</ele>
        <time>2020-08-18T14:45:25Z</time>
      </trkpt>
      <trkpt lat="48.63608" lon="7.26238">
        <ele>643.5</ele>
        <time>2020-08-18T14:45:32Z</time>
      </trkpt>
      <trkpt lat="48.63607" lon="7.26229">
        <ele>644</ele>
        <time>2020-08-18T14:45:49Z</time>
      </trkpt>
      <trkpt lat="48.63605" lon="7.26221">
        <ele>644.3</ele>
        <time>2020-08-18T14:45:52Z</time>
      </trkpt>
      <trkpt lat="48.63604" lon="7.26213">
        <ele>645.7</ele>
        <time>2020-08-18T14:45:54Z</time>
      </trkpt>
      <trkpt lat="48.63602" lon="7.26207">
        <ele>646.4</ele>
        <time>2020-08-18T14:45:56Z</time>
      </trkpt>
      <trkpt lat="48.636" lon="7.262">
        <ele>646.8</ele>
        <time>2020-08-18T14:45:58Z</time>
      </trkpt>
      <trkpt lat="48.63598" lon="7.26192">
        <ele>647.8</ele>
        <time>2020-08-18T14:46:00Z</time>
      </trkpt>
      <trkpt lat="48.63598" lon="7.26184">
        <ele>648.2</ele>
        <time>2020-08-18T14:46:02Z</time>
      </trkpt>
      <trkpt lat="48.63597" lon="7.26176">
        <ele>649.2</ele>
        <time>2020-08-18T14:46:04Z</time>
      </trkpt>
      <trkpt lat="48.63597" lon="7.26168">
        <ele>648.3</ele>
        <time>2020-08-18T14:46:06Z</time>
      </trkpt>
      <trkpt lat="48.63597" lon="7.26161">
        <ele>647.8</ele>
        <time>2020-08-18T14:46:08Z</time>
      </trkpt>
      <trkpt lat="48.63597" lon="7.26154">
        <ele>646.8</ele>
        <time>2020-08-18T14:46:10Z</time>
      </trkpt>
      <trkpt lat="48.63596" lon="7.26146">
        <ele>646.2</ele>
        <time>2020-08-18T14:46:12Z</time>
      </trkpt>
      <trkpt lat="48.63596" lon="7.26138">
        <ele>645.9</ele>
        <time>2020-08-18T14:46:14Z</time>
      </trkpt>
      <trkpt lat="48.63597" lon="7.26129">
        <ele>646.4</ele>
        <time>2020-08-18T14:46:16Z</time>
      </trkpt>
      <trkpt lat="48.63597" lon="7.26122">
        <ele>646.9</ele>
        <time>2020-08-18T14:46:18Z</time>
      </trkpt>
      <trkpt lat="48.63596" lon="7.26115">
        <ele>648.2</ele>
        <time>2020-08-18T14:46:20Z</time>
      </trkpt>
      <trkpt lat="48.63595" lon="7.26108">
        <ele>649.8</ele>
        <time>2020-08-18T14:46:22Z</time>
      </trkpt>
      <trkpt lat="48.63594" lon="7.26101">
        <ele>651.1</ele>
        <time>2020-08-18T14:46:24Z</time>
      </trkpt>
      <trkpt lat="48.63592" lon="7.26094">
        <ele>652.3</ele>
        <time>2020-08-18T14:46:26Z</time>
      </trkpt>
      <trkpt lat="48.63591" lon="7.26087">
        <ele>653.4</ele>
        <time>2020-08-18T14:46:28Z</time>
      </trkpt>
      <trkpt lat="48.6359" lon="7.26079">
        <ele>653.6</ele>
        <time>2020-08-18T14:46:30Z</time>
      </trkpt>
      <trkpt lat="48.63589" lon="7.26072">
        <ele>653.6</ele>
        <time>2020-08-18T14:46:32Z</time>
      </trkpt>
      <trkpt lat="48.63588" lon="7.26062">
        <ele>654.4</ele>
        <time>2020-08-18T14:46:35Z</time>
      </trkpt>
      <trkpt lat="48.63587" lon="7.26056">
        <ele>655.5</ele>
        <time>2020-08-18T14:46:37Z</time>
      </trkpt>
      <trkpt lat="48.63584" lon="7.26048">
        <ele>642.2</ele>
        <time>2020-08-18T14:46:39Z</time>
      </trkpt>
      <trkpt lat="48.63582" lon="7.26039">
        <ele>643.5</ele>
        <time>2020-08-18T14:46:41Z</time>
      </trkpt>
      <trkpt lat="48.6358" lon="7.26031">
        <ele>644.5</ele>
        <time>2020-08-18T14:46:43Z</time>
      </trkpt>
      <trkpt lat="48.63578" lon="7.26024">
        <ele>646.5</ele>
        <time>2020-08-18T14:46:45Z</time>
      </trkpt>
      <trkpt lat="48.63577" lon="7.26017">
        <ele>649</ele>
        <time>2020-08-18T14:46:47Z</time>
      </trkpt>
      <trkpt lat="48.63575" lon="7.26009">
        <ele>652.3</ele>
        <time>2020-08-18T14:46:49Z</time>
      </trkpt>
      <trkpt lat="48.63573" lon="7.26001">
        <ele>655.3</ele>
        <time>2020-08-18T14:46:51Z</time>
      </trkpt>
      <trkpt lat="48.6357" lon="7.25993">
        <ele>657.9</ele>
        <time>2020-08-18T14:46:53Z</time>
      </trkpt>
      <trkpt lat="48.63568" lon="7.25985">
        <ele>659.9</ele>
        <time>2020-08-18T14:46:55Z</time>
      </trkpt>
      <trkpt lat="48.63565" lon="7.25979">
        <ele>660.8</ele>
        <time>2020-08-18T14:46:57Z</time>
      </trkpt>
      <trkpt lat="48.63561" lon="7.25976">
        <ele>661.8</ele>
        <time>2020-08-18T14:47:00Z</time>
      </trkpt>
      <trkpt lat="48.63555" lon="7.25974">
        <ele>662.2</ele>
        <time>2020-08-18T14:47:03Z</time>
      </trkpt>
      <trkpt lat="48.63549" lon="7.25969">
        <ele>662.4</ele>
        <time>2020-08-18T14:47:06Z</time>
      </trkpt>
      <trkpt lat="48.63544" lon="7.25964">
        <ele>662.3</ele>
        <time>2020-08-18T14:47:08Z</time>
      </trkpt>
      <trkpt lat="48.6354" lon="7.25959">
        <ele>662</ele>
        <time>2020-08-18T14:47:11Z</time>
      </trkpt>
      <trkpt lat="48.63535" lon="7.25959">
        <ele>664.1</ele>
        <time>2020-08-18T14:47:39Z</time>
      </trkpt>
      <trkpt lat="48.63531" lon="7.25961">
        <ele>664</ele>
        <time>2020-08-18T14:47:42Z</time>
      </trkpt>
      <trkpt lat="48.63526" lon="7.25963">
        <ele>663.7</ele>
        <time>2020-08-18T14:47:46Z</time>
      </trkpt>
      <trkpt lat="48.6353" lon="7.25959">
        <ele>666.3</ele>
        <time>2020-08-18T14:48:05Z</time>
      </trkpt>
      <trkpt lat="48.63536" lon="7.25955">
        <ele>665.3</ele>
        <time>2020-08-18T14:48:09Z</time>
      </trkpt>
      <trkpt lat="48.63537" lon="7.25947">
        <ele>664.4</ele>
        <time>2020-08-18T14:48:11Z</time>
      </trkpt>
      <trkpt lat="48.63539" lon="7.25939">
        <ele>662.9</ele>
        <time>2020-08-18T14:48:13Z</time>
      </trkpt>
      <trkpt lat="48.63541" lon="7.25933">
        <ele>661</ele>
        <time>2020-08-18T14:48:19Z</time>
      </trkpt>
      <trkpt lat="48.63544" lon="7.25925">
        <ele>659.1</ele>
        <time>2020-08-18T14:48:23Z</time>
      </trkpt>
      <trkpt lat="48.63545" lon="7.25916">
        <ele>658.5</ele>
        <time>2020-08-18T14:48:25Z</time>
      </trkpt>
      <trkpt lat="48.63548" lon="7.25904">
        <ele>658.1</ele>
        <time>2020-08-18T14:48:27Z</time>
      </trkpt>
      <trkpt lat="48.63551" lon="7.25894">
        <ele>658.1</ele>
        <time>2020-08-18T14:48:29Z</time>
      </trkpt>
      <trkpt lat="48.63557" lon="7.25885">
        <ele>657.5</ele>
        <time>2020-08-18T14:48:31Z</time>
      </trkpt>
      <trkpt lat="48.63564" lon="7.25874">
        <ele>656.7</ele>
        <time>2020-08-18T14:48:33Z</time>
      </trkpt>
      <trkpt lat="48.6357" lon="7.25864">
        <ele>654.6</ele>
        <time>2020-08-18T14:48:35Z</time>
      </trkpt>
      <trkpt lat="48.63577" lon="7.25854">
        <ele>653.4</ele>
        <time>2020-08-18T14:48:37Z</time>
      </trkpt>
      <trkpt lat="48.63584" lon="7.25842">
        <ele>652.7</ele>
        <time>2020-08-18T14:48:39Z</time>
      </trkpt>
      <trkpt lat="48.63592" lon="7.25832">
        <ele>651.5</ele>
        <time>2020-08-18T14:48:41Z</time>
      </trkpt>
      <trkpt lat="48.636" lon="7.25827">
        <ele>650.1</ele>
        <time>2020-08-18T14:48:43Z</time>
      </trkpt>
      <trkpt lat="48.63605" lon="7.25822">
        <ele>649.2</ele>
        <time>2020-08-18T14:48:45Z</time>
      </trkpt>
      <trkpt lat="48.63609" lon="7.25815">
        <ele>649</ele>
        <time>2020-08-18T14:48:47Z</time>
      </trkpt>
      <trkpt lat="48.63613" lon="7.25805">
        <ele>652.7</ele>
        <time>2020-08-18T14:48:49Z</time>
      </trkpt>
      <trkpt lat="48.63616" lon="7.25795">
        <ele>653.7</ele>
        <time>2020-08-18T14:48:51Z</time>
      </trkpt>
      <trkpt lat="48.63618" lon="7.25786">
        <ele>654.2</ele>
        <time>2020-08-18T14:48:53Z</time>
      </trkpt>
      <trkpt lat="48.6362" lon="7.25776">
        <ele>654.9</ele>
        <time>2020-08-18T14:48:56Z</time>
      </trkpt>
      <trkpt lat="48.6362" lon="7.25769">
        <ele>655</ele>
        <time>2020-08-18T14:49:03Z</time>
      </trkpt>
      <trkpt lat="48.63622" lon="7.2576">
        <ele>654.8</ele>
        <time>2020-08-18T14:49:06Z</time>
      </trkpt>
      <trkpt lat="48.63623" lon="7.25753">
        <ele>654.8</ele>
        <time>2020-08-18T14:49:08Z</time>
      </trkpt>
      <trkpt lat="48.63624" lon="7.25746">
        <ele>655.3</ele>
        <time>2020-08-18T14:49:10Z</time>
      </trkpt>
      <trkpt lat="48.63626" lon="7.25737">
        <ele>655.6</ele>
        <time>2020-08-18T14:49:12Z</time>
      </trkpt>
      <trkpt lat="48.63628" lon="7.25727">
        <ele>655.3</ele>
        <time>2020-08-18T14:49:14Z</time>
      </trkpt>
      <trkpt lat="48.63631" lon="7.25716">
        <ele>656.1</ele>
        <time>2020-08-18T14:49:17Z</time>
      </trkpt>
      <trkpt lat="48.63633" lon="7.25704">
        <ele>656.8</ele>
        <time>2020-08-18T14:49:19Z</time>
      </trkpt>
      <trkpt lat="48.63637" lon="7.25686">
        <ele>657.4</ele>
        <time>2020-08-18T14:49:22Z</time>
      </trkpt>
      <trkpt lat="48.6364" lon="7.25674">
        <ele>657.8</ele>
        <time>2020-08-18T14:49:24Z</time>
      </trkpt>
      <trkpt lat="48.63643" lon="7.25662">
        <ele>658</ele>
        <time>2020-08-18T14:49:25Z</time>
      </trkpt>
      <trkpt lat="48.63646" lon="7.25651">
        <ele>658</ele>
        <time>2020-08-18T14:49:27Z</time>
      </trkpt>
      <trkpt lat="48.63651" lon="7.25641">
        <ele>658</ele>
        <time>2020-08-18T14:49:29Z</time>
      </trkpt>
      <trkpt lat="48.63654" lon="7.25631">
        <ele>657.9</ele>
        <time>2020-08-18T14:49:32Z</time>
      </trkpt>
      <trkpt lat="48.63659" lon="7.25617">
        <ele>657.4</ele>
        <time>2020-08-18T14:49:34Z</time>
      </trkpt>
      <trkpt lat="48.63662" lon="7.25609">
        <ele>656.9</ele>
        <time>2020-08-18T14:49:36Z</time>
      </trkpt>
      <trkpt lat="48.63665" lon="7.25599">
        <ele>655.7</ele>
        <time>2020-08-18T14:49:38Z</time>
      </trkpt>
      <trkpt lat="48.63668" lon="7.25589">
        <ele>654.6</ele>
        <time>2020-08-18T14:49:40Z</time>
      </trkpt>
      <trkpt lat="48.6367" lon="7.25579">
        <ele>653.9</ele>
        <time>2020-08-18T14:49:42Z</time>
      </trkpt>
      <trkpt lat="48.63675" lon="7.25567">
        <ele>653.2</ele>
        <time>2020-08-18T14:49:45Z</time>
      </trkpt>
      <trkpt lat="48.63677" lon="7.2556">
        <ele>651.6</ele>
        <time>2020-08-18T14:49:49Z</time>
      </trkpt>
      <trkpt lat="48.63678" lon="7.25553">
        <ele>647.2</ele>
        <time>2020-08-18T14:49:59Z</time>
      </trkpt>
      <trkpt lat="48.6368" lon="7.25544">
        <ele>646.6</ele>
        <time>2020-08-18T14:50:06Z</time>
      </trkpt>
      <trkpt lat="48.63682" lon="7.25536">
        <ele>646.4</ele>
        <time>2020-08-18T14:50:08Z</time>
      </trkpt>
      <trkpt lat="48.63686" lon="7.25526">
        <ele>644.9</ele>
        <time>2020-08-18T14:50:10Z</time>
      </trkpt>
      <trkpt lat="48.6369" lon="7.25518">
        <ele>644.3</ele>
        <time>2020-08-18T14:50:12Z</time>
      </trkpt>
      <trkpt lat="48.63695" lon="7.2551">
        <ele>644.2</ele>
        <time>2020-08-18T14:50:14Z</time>
      </trkpt>
      <trkpt lat="48.63698" lon="7.25499">
        <ele>643.7</ele>
        <time>2020-08-18T14:50:16Z</time>
      </trkpt>
      <trkpt lat="48.63702" lon="7.25488">
        <ele>643.1</ele>
        <time>2020-08-18T14:50:18Z</time>
      </trkpt>
      <trkpt lat="48.6371" lon="7.25467">
        <ele>642</ele>
        <time>2020-08-18T14:50:21Z</time>
      </trkpt>
      <trkpt lat="48.63715" lon="7.25444">
        <ele>642.6</ele>
        <time>2020-08-18T14:50:24Z</time>
      </trkpt>
      <trkpt lat="48.63717" lon="7.25429">
        <ele>643.9</ele>
        <time>2020-08-18T14:50:26Z</time>
      </trkpt>
      <trkpt lat="48.63723" lon="7.2541">
        <ele>646.1</ele>
        <time>2020-08-18T14:50:29Z</time>
      </trkpt>
      <trkpt lat="48.63727" lon="7.25398">
        <ele>645.2</ele>
        <time>2020-08-18T14:50:31Z</time>
      </trkpt>
      <trkpt lat="48.63735" lon="7.25385">
        <ele>644.9</ele>
        <time>2020-08-18T14:50:34Z</time>
      </trkpt>
      <trkpt lat="48.63739" lon="7.25375">
        <ele>644.5</ele>
        <time>2020-08-18T14:50:37Z</time>
      </trkpt>
      <trkpt lat="48.63741" lon="7.25363">
        <ele>643.6</ele>
        <time>2020-08-18T14:50:40Z</time>
      </trkpt>
      <trkpt lat="48.63745" lon="7.25351">
        <ele>643.5</ele>
        <time>2020-08-18T14:50:42Z</time>
      </trkpt>
      <trkpt lat="48.63749" lon="7.25336">
        <ele>642.4</ele>
        <time>2020-08-18T14:50:44Z</time>
      </trkpt>
      <trkpt lat="48.63753" lon="7.25321">
        <ele>641.1</ele>
        <time>2020-08-18T14:50:46Z</time>
      </trkpt>
      <trkpt lat="48.63758" lon="7.25306">
        <ele>640.2</ele>
        <time>2020-08-18T14:50:48Z</time>
      </trkpt>
      <trkpt lat="48.63762" lon="7.25291">
        <ele>639</ele>
        <time>2020-08-18T14:50:50Z</time>
      </trkpt>
      <trkpt lat="48.63767" lon="7.25277">
        <ele>638.2</ele>
        <time>2020-08-18T14:50:52Z</time>
      </trkpt>
      <trkpt lat="48.63773" lon="7.25262">
        <ele>637.3</ele>
        <time>2020-08-18T14:50:54Z</time>
      </trkpt>
      <trkpt lat="48.63778" lon="7.25247">
        <ele>636.8</ele>
        <time>2020-08-18T14:50:56Z</time>
      </trkpt>
      <trkpt lat="48.63785" lon="7.25222">
        <ele>635.9</ele>
        <time>2020-08-18T14:50:59Z</time>
      </trkpt>
      <trkpt lat="48.63789" lon="7.25205">
        <ele>635.4</ele>
        <time>2020-08-18T14:51:01Z</time>
      </trkpt>
      <trkpt lat="48.63795" lon="7.25188">
        <ele>634.2</ele>
        <time>2020-08-18T14:51:03Z</time>
      </trkpt>
      <trkpt lat="48.63802" lon="7.25174">
        <ele>633</ele>
        <time>2020-08-18T14:51:05Z</time>
      </trkpt>
      <trkpt lat="48.63808" lon="7.25158">
        <ele>631.9</ele>
        <time>2020-08-18T14:51:07Z</time>
      </trkpt>
      <trkpt lat="48.63815" lon="7.25145">
        <ele>630.4</ele>
        <time>2020-08-18T14:51:09Z</time>
      </trkpt>
      <trkpt lat="48.63821" lon="7.25131">
        <ele>629.4</ele>
        <time>2020-08-18T14:51:11Z</time>
      </trkpt>
      <trkpt lat="48.6383" lon="7.25118">
        <ele>627.9</ele>
        <time>2020-08-18T14:51:13Z</time>
      </trkpt>
      <trkpt lat="48.63839" lon="7.25107">
        <ele>626.1</ele>
        <time>2020-08-18T14:51:15Z</time>
      </trkpt>
      <trkpt lat="48.63851" lon="7.25089">
        <ele>624.8</ele>
        <time>2020-08-18T14:51:17Z</time>
      </trkpt>
      <trkpt lat="48.63857" lon="7.25078">
        <ele>624.3</ele>
        <time>2020-08-18T14:51:20Z</time>
      </trkpt>
      <trkpt lat="48.63869" lon="7.25061">
        <ele>623.5</ele>
        <time>2020-08-18T14:51:22Z</time>
      </trkpt>
      <trkpt lat="48.63881" lon="7.25045">
        <ele>623</ele>
        <time>2020-08-18T14:51:25Z</time>
      </trkpt>
      <trkpt lat="48.63889" lon="7.25031">
        <ele>622.9</ele>
        <time>2020-08-18T14:51:27Z</time>
      </trkpt>
      <trkpt lat="48.63897" lon="7.25017">
        <ele>622.4</ele>
        <time>2020-08-18T14:51:29Z</time>
      </trkpt>
      <trkpt lat="48.63905" lon="7.25004">
        <ele>622.5</ele>
        <time>2020-08-18T14:51:31Z</time>
      </trkpt>
      <trkpt lat="48.63912" lon="7.24993">
        <ele>622.8</ele>
        <time>2020-08-18T14:51:33Z</time>
      </trkpt>
      <trkpt lat="48.63919" lon="7.24982">
        <ele>623.5</ele>
        <time>2020-08-18T14:51:35Z</time>
      </trkpt>
      <trkpt lat="48.63925" lon="7.2497">
        <ele>624</ele>
        <time>2020-08-18T14:51:37Z</time>
      </trkpt>
      <trkpt lat="48.63928" lon="7.24957">
        <ele>624.3</ele>
        <time>2020-08-18T14:51:39Z</time>
      </trkpt>
      <trkpt lat="48.63931" lon="7.24942">
        <ele>625.2</ele>
        <time>2020-08-18T14:51:41Z</time>
      </trkpt>
      <trkpt lat="48.63933" lon="7.24926">
        <ele>625.5</ele>
        <time>2020-08-18T14:51:43Z</time>
      </trkpt>
      <trkpt lat="48.63938" lon="7.24911">
        <ele>625.3</ele>
        <time>2020-08-18T14:51:45Z</time>
      </trkpt>
      <trkpt lat="48.63943" lon="7.24889">
        <ele>624.7</ele>
        <time>2020-08-18T14:51:48Z</time>
      </trkpt>
      <trkpt lat="48.63945" lon="7.24872">
        <ele>624.8</ele>
        <time>2020-08-18T14:51:50Z</time>
      </trkpt>
      <trkpt lat="48.63945" lon="7.24857">
        <ele>625.2</ele>
        <time>2020-08-18T14:51:52Z</time>
      </trkpt>
      <trkpt lat="48.63945" lon="7.24849">
        <ele>625.4</ele>
        <time>2020-08-18T14:51:54Z</time>
      </trkpt>
      <trkpt lat="48.63947" lon="7.24842">
        <ele>625.5</ele>
        <time>2020-08-18T14:51:59Z</time>
      </trkpt>
      <trkpt lat="48.6395" lon="7.24836">
        <ele>628</ele>
        <time>2020-08-18T14:52:19Z</time>
      </trkpt>
      <trkpt lat="48.63955" lon="7.2483">
        <ele>626.9</ele>
        <time>2020-08-18T14:52:22Z</time>
      </trkpt>
      <trkpt lat="48.6396" lon="7.24821">
        <ele>625.6</ele>
        <time>2020-08-18T14:52:24Z</time>
      </trkpt>
      <trkpt lat="48.63966" lon="7.24814">
        <ele>624.4</ele>
        <time>2020-08-18T14:52:26Z</time>
      </trkpt>
      <trkpt lat="48.63972" lon="7.24807">
        <ele>623.4</ele>
        <time>2020-08-18T14:52:28Z</time>
      </trkpt>
      <trkpt lat="48.63978" lon="7.248">
        <ele>623</ele>
        <time>2020-08-18T14:52:30Z</time>
      </trkpt>
      <trkpt lat="48.63987" lon="7.24791">
        <ele>622.6</ele>
        <time>2020-08-18T14:52:33Z</time>
      </trkpt>
      <trkpt lat="48.63994" lon="7.24782">
        <ele>622.2</ele>
        <time>2020-08-18T14:52:36Z</time>
      </trkpt>
      <trkpt lat="48.64001" lon="7.24778">
        <ele>622.2</ele>
        <time>2020-08-18T14:52:38Z</time>
      </trkpt>
      <trkpt lat="48.64008" lon="7.24773">
        <ele>621.8</ele>
        <time>2020-08-18T14:52:40Z</time>
      </trkpt>
      <trkpt lat="48.64014" lon="7.2477">
        <ele>621.2</ele>
        <time>2020-08-18T14:52:42Z</time>
      </trkpt>
      <trkpt lat="48.64021" lon="7.24765">
        <ele>620.2</ele>
        <time>2020-08-18T14:52:44Z</time>
      </trkpt>
      <trkpt lat="48.64029" lon="7.24759">
        <ele>620.4</ele>
        <time>2020-08-18T14:52:46Z</time>
      </trkpt>
      <trkpt lat="48.64039" lon="7.2475">
        <ele>620.8</ele>
        <time>2020-08-18T14:52:48Z</time>
      </trkpt>
      <trkpt lat="48.64048" lon="7.24743">
        <ele>620.7</ele>
        <time>2020-08-18T14:52:50Z</time>
      </trkpt>
      <trkpt lat="48.64057" lon="7.24739">
        <ele>621.5</ele>
        <time>2020-08-18T14:52:52Z</time>
      </trkpt>
      <trkpt lat="48.64066" lon="7.24736">
        <ele>621.4</ele>
        <time>2020-08-18T14:52:54Z</time>
      </trkpt>
      <trkpt lat="48.64074" lon="7.24735">
        <ele>621.5</ele>
        <time>2020-08-18T14:52:56Z</time>
      </trkpt>
      <trkpt lat="48.64083" lon="7.24737">
        <ele>621.6</ele>
        <time>2020-08-18T14:52:58Z</time>
      </trkpt>
      <trkpt lat="48.64091" lon="7.2474">
        <ele>621.2</ele>
        <time>2020-08-18T14:53:00Z</time>
      </trkpt>
      <trkpt lat="48.64106" lon="7.24745">
        <ele>620.8</ele>
        <time>2020-08-18T14:53:03Z</time>
      </trkpt>
      <trkpt lat="48.64116" lon="7.2475">
        <ele>620.1</ele>
        <time>2020-08-18T14:53:05Z</time>
      </trkpt>
      <trkpt lat="48.64126" lon="7.24755">
        <ele>619.1</ele>
        <time>2020-08-18T14:53:07Z</time>
      </trkpt>
      <trkpt lat="48.64138" lon="7.24761">
        <ele>618.7</ele>
        <time>2020-08-18T14:53:09Z</time>
      </trkpt>
      <trkpt lat="48.64152" lon="7.24771">
        <ele>617.8</ele>
        <time>2020-08-18T14:53:12Z</time>
      </trkpt>
      <trkpt lat="48.64158" lon="7.24778">
        <ele>616.7</ele>
        <time>2020-08-18T14:53:14Z</time>
      </trkpt>
      <trkpt lat="48.64162" lon="7.24784">
        <ele>616.1</ele>
        <time>2020-08-18T14:53:16Z</time>
      </trkpt>
      <trkpt lat="48.64165" lon="7.2479">
        <ele>616.1</ele>
        <time>2020-08-18T14:53:18Z</time>
      </trkpt>
      <trkpt lat="48.64169" lon="7.24795">
        <ele>616.2</ele>
        <time>2020-08-18T14:53:20Z</time>
      </trkpt>
      <trkpt lat="48.64173" lon="7.248">
        <ele>615.6</ele>
        <time>2020-08-18T14:53:22Z</time>
      </trkpt>
      <trkpt lat="48.64177" lon="7.24808">
        <ele>615.5</ele>
        <time>2020-08-18T14:53:25Z</time>
      </trkpt>
      <trkpt lat="48.64181" lon="7.24813">
        <ele>615.2</ele>
        <time>2020-08-18T14:53:27Z</time>
      </trkpt>
      <trkpt lat="48.64185" lon="7.24817">
        <ele>615.8</ele>
        <time>2020-08-18T14:53:29Z</time>
      </trkpt>
      <trkpt lat="48.6419" lon="7.2482">
        <ele>615.7</ele>
        <time>2020-08-18T14:53:31Z</time>
      </trkpt>
      <trkpt lat="48.64194" lon="7.24825">
        <ele>614.7</ele>
        <time>2020-08-18T14:53:33Z</time>
      </trkpt>
      <trkpt lat="48.64203" lon="7.24833">
        <ele>614.6</ele>
        <time>2020-08-18T14:53:36Z</time>
      </trkpt>
      <trkpt lat="48.64209" lon="7.24839">
        <ele>613.8</ele>
        <time>2020-08-18T14:53:38Z</time>
      </trkpt>
      <trkpt lat="48.64215" lon="7.24846">
        <ele>613.7</ele>
        <time>2020-08-18T14:53:40Z</time>
      </trkpt>
      <trkpt lat="48.6422" lon="7.24854">
        <ele>612.8</ele>
        <time>2020-08-18T14:53:42Z</time>
      </trkpt>
      <trkpt lat="48.64224" lon="7.24861">
        <ele>612</ele>
        <time>2020-08-18T14:53:44Z</time>
      </trkpt>
      <trkpt lat="48.64227" lon="7.24868">
        <ele>610.8</ele>
        <time>2020-08-18T14:53:46Z</time>
      </trkpt>
      <trkpt lat="48.64231" lon="7.24875">
        <ele>610</ele>
        <time>2020-08-18T14:53:48Z</time>
      </trkpt>
      <trkpt lat="48.64235" lon="7.24883">
        <ele>609.2</ele>
        <time>2020-08-18T14:53:50Z</time>
      </trkpt>
      <trkpt lat="48.64239" lon="7.2489">
        <ele>608.5</ele>
        <time>2020-08-18T14:53:52Z</time>
      </trkpt>
      <trkpt lat="48.64241" lon="7.24898">
        <ele>607.6</ele>
        <time>2020-08-18T14:53:54Z</time>
      </trkpt>
      <trkpt lat="48.64244" lon="7.24906">
        <ele>606.3</ele>
        <time>2020-08-18T14:53:56Z</time>
      </trkpt>
      <trkpt lat="48.64247" lon="7.24914">
        <ele>605</ele>
        <time>2020-08-18T14:53:58Z</time>
      </trkpt>
      <trkpt lat="48.64251" lon="7.24923">
        <ele>603.8</ele>
        <time>2020-08-18T14:54:00Z</time>
      </trkpt>
      <trkpt lat="48.64256" lon="7.24933">
        <ele>603</ele>
        <time>2020-08-18T14:54:02Z</time>
      </trkpt>
      <trkpt lat="48.64263" lon="7.24949">
        <ele>601</ele>
        <time>2020-08-18T14:54:05Z</time>
      </trkpt>
      <trkpt lat="48.64267" lon="7.2496">
        <ele>599.4</ele>
        <time>2020-08-18T14:54:07Z</time>
      </trkpt>
      <trkpt lat="48.64271" lon="7.24973">
        <ele>598.5</ele>
        <time>2020-08-18T14:54:09Z</time>
      </trkpt>
      <trkpt lat="48.64276" lon="7.24988">
        <ele>596.8</ele>
        <time>2020-08-18T14:54:11Z</time>
      </trkpt>
      <trkpt lat="48.64281" lon="7.25002">
        <ele>595.7</ele>
        <time>2020-08-18T14:54:13Z</time>
      </trkpt>
      <trkpt lat="48.64285" lon="7.25014">
        <ele>594.7</ele>
        <time>2020-08-18T14:54:15Z</time>
      </trkpt>
      <trkpt lat="48.64287" lon="7.25021">
        <ele>593.3</ele>
        <time>2020-08-18T14:54:18Z</time>
      </trkpt>
      <trkpt lat="48.6429" lon="7.25025">
        <ele>593</ele>
        <time>2020-08-18T14:54:32Z</time>
      </trkpt>
      <trkpt lat="48.64294" lon="7.25032">
        <ele>592.7</ele>
        <time>2020-08-18T14:54:35Z</time>
      </trkpt>
      <trkpt lat="48.643" lon="7.25039">
        <ele>592.4</ele>
        <time>2020-08-18T14:54:38Z</time>
      </trkpt>
      <trkpt lat="48.64305" lon="7.25042">
        <ele>591.9</ele>
        <time>2020-08-18T14:54:40Z</time>
      </trkpt>
      <trkpt lat="48.64309" lon="7.25041">
        <ele>591.8</ele>
        <time>2020-08-18T14:54:45Z</time>
      </trkpt>
      <trkpt lat="48.64315" lon="7.2504">
        <ele>590.5</ele>
        <time>2020-08-18T14:54:51Z</time>
      </trkpt>
      <trkpt lat="48.6432" lon="7.25033">
        <ele>590.9</ele>
        <time>2020-08-18T14:54:54Z</time>
      </trkpt>
      <trkpt lat="48.64325" lon="7.25024">
        <ele>591.2</ele>
        <time>2020-08-18T14:54:57Z</time>
      </trkpt>
      <trkpt lat="48.64327" lon="7.25015">
        <ele>591.8</ele>
        <time>2020-08-18T14:55:00Z</time>
      </trkpt>
      <trkpt lat="48.64329" lon="7.25008">
        <ele>592</ele>
        <time>2020-08-18T14:55:02Z</time>
      </trkpt>
      <trkpt lat="48.64332" lon="7.25001">
        <ele>592.2</ele>
        <time>2020-08-18T14:55:04Z</time>
      </trkpt>
      <trkpt lat="48.64336" lon="7.24994">
        <ele>592.2</ele>
        <time>2020-08-18T14:55:06Z</time>
      </trkpt>
      <trkpt lat="48.64339" lon="7.24987">
        <ele>592</ele>
        <time>2020-08-18T14:55:08Z</time>
      </trkpt>
      <trkpt lat="48.64342" lon="7.24981">
        <ele>592.5</ele>
        <time>2020-08-18T14:55:10Z</time>
      </trkpt>
      <trkpt lat="48.64345" lon="7.24973">
        <ele>592.8</ele>
        <time>2020-08-18T14:55:12Z</time>
      </trkpt>
      <trkpt lat="48.64347" lon="7.24966">
        <ele>593.3</ele>
        <time>2020-08-18T14:55:14Z</time>
      </trkpt>
      <trkpt lat="48.6435" lon="7.2496">
        <ele>593.6</ele>
        <time>2020-08-18T14:55:16Z</time>
      </trkpt>
      <trkpt lat="48.64353" lon="7.24954">
        <ele>594.6</ele>
        <time>2020-08-18T14:55:18Z</time>
      </trkpt>
      <trkpt lat="48.64356" lon="7.24949">
        <ele>595.1</ele>
        <time>2020-08-18T14:55:20Z</time>
      </trkpt>
      <trkpt lat="48.64357" lon="7.24942">
        <ele>597.5</ele>
        <time>2020-08-18T14:55:24Z</time>
      </trkpt>
      <trkpt lat="48.64361" lon="7.24935">
        <ele>599.3</ele>
        <time>2020-08-18T14:55:29Z</time>
      </trkpt>
      <trkpt lat="48.64365" lon="7.24932">
        <ele>599.1</ele>
        <time>2020-08-18T14:55:31Z</time>
      </trkpt>
      <trkpt lat="48.6437" lon="7.24927">
        <ele>599.1</ele>
        <time>2020-08-18T14:55:33Z</time>
      </trkpt>
      <trkpt lat="48.64377" lon="7.24923">
        <ele>598.3</ele>
        <time>2020-08-18T14:55:35Z</time>
      </trkpt>
      <trkpt lat="48.64385" lon="7.24919">
        <ele>597.6</ele>
        <time>2020-08-18T14:55:37Z</time>
      </trkpt>
      <trkpt lat="48.64393" lon="7.24915">
        <ele>596.2</ele>
        <time>2020-08-18T14:55:39Z</time>
      </trkpt>
      <trkpt lat="48.64403" lon="7.24911">
        <ele>594.8</ele>
        <time>2020-08-18T14:55:42Z</time>
      </trkpt>
      <trkpt lat="48.64408" lon="7.24907">
        <ele>594.9</ele>
        <time>2020-08-18T14:55:44Z</time>
      </trkpt>
      <trkpt lat="48.64416" lon="7.24898">
        <ele>594</ele>
        <time>2020-08-18T14:55:46Z</time>
      </trkpt>
      <trkpt lat="48.64432" lon="7.24887">
        <ele>593</ele>
        <time>2020-08-18T14:55:49Z</time>
      </trkpt>
      <trkpt lat="48.64442" lon="7.2488">
        <ele>592.7</ele>
        <time>2020-08-18T14:55:51Z</time>
      </trkpt>
      <trkpt lat="48.64453" lon="7.24875">
        <ele>593</ele>
        <time>2020-08-18T14:55:54Z</time>
      </trkpt>
      <trkpt lat="48.64458" lon="7.24874">
        <ele>592.6</ele>
        <time>2020-08-18T14:55:56Z</time>
      </trkpt>
      <trkpt lat="48.64463" lon="7.24872">
        <ele>591.5</ele>
        <time>2020-08-18T14:55:59Z</time>
      </trkpt>
      <trkpt lat="48.64474" lon="7.24871">
        <ele>589.1</ele>
        <time>2020-08-18T14:56:02Z</time>
      </trkpt>
      <trkpt lat="48.64483" lon="7.24868">
        <ele>588.3</ele>
        <time>2020-08-18T14:56:04Z</time>
      </trkpt>
      <trkpt lat="48.64492" lon="7.24862">
        <ele>587.8</ele>
        <time>2020-08-18T14:56:06Z</time>
      </trkpt>
      <trkpt lat="48.64501" lon="7.24856">
        <ele>586.8</ele>
        <time>2020-08-18T14:56:08Z</time>
      </trkpt>
      <trkpt lat="48.6451" lon="7.24851">
        <ele>586.2</ele>
        <time>2020-08-18T14:56:10Z</time>
      </trkpt>
      <trkpt lat="48.64517" lon="7.24848">
        <ele>583.8</ele>
        <time>2020-08-18T14:56:12Z</time>
      </trkpt>
      <trkpt lat="48.64528" lon="7.24845">
        <ele>581.4</ele>
        <time>2020-08-18T14:56:14Z</time>
      </trkpt>
      <trkpt lat="48.64541" lon="7.24842">
        <ele>579.6</ele>
        <time>2020-08-18T14:56:16Z</time>
      </trkpt>
      <trkpt lat="48.64556" lon="7.24842">
        <ele>577.7</ele>
        <time>2020-08-18T14:56:18Z</time>
      </trkpt>
      <trkpt lat="48.6457" lon="7.2484">
        <ele>576.6</ele>
        <time>2020-08-18T14:56:20Z</time>
      </trkpt>
      <trkpt lat="48.64579" lon="7.24837">
        <ele>576.1</ele>
        <time>2020-08-18T14:56:22Z</time>
      </trkpt>
      <trkpt lat="48.64584" lon="7.24835">
        <ele>576.3</ele>
        <time>2020-08-18T14:56:24Z</time>
      </trkpt>
      <trkpt lat="48.64589" lon="7.24832">
        <ele>577.9</ele>
        <time>2020-08-18T14:56:28Z</time>
      </trkpt>
      <trkpt lat="48.64592" lon="7.24826">
        <ele>582</ele>
        <time>2020-08-18T14:56:35Z</time>
      </trkpt>
      <trkpt lat="48.64598" lon="7.24825">
        <ele>582.6</ele>
        <time>2020-08-18T14:56:37Z</time>
      </trkpt>
      <trkpt lat="48.64606" lon="7.24825">
        <ele>583.1</ele>
        <time>2020-08-18T14:56:39Z</time>
      </trkpt>
      <trkpt lat="48.64618" lon="7.24826">
        <ele>583.2</ele>
        <time>2020-08-18T14:56:42Z</time>
      </trkpt>
      <trkpt lat="48.64627" lon="7.24828">
        <ele>583.2</ele>
        <time>2020-08-18T14:56:44Z</time>
      </trkpt>
      <trkpt lat="48.64636" lon="7.2483">
        <ele>583</ele>
        <time>2020-08-18T14:56:46Z</time>
      </trkpt>
      <trkpt lat="48.64642" lon="7.24833">
        <ele>583.5</ele>
        <time>2020-08-18T14:56:48Z</time>
      </trkpt>
      <trkpt lat="48.64648" lon="7.24835">
        <ele>584.3</ele>
        <time>2020-08-18T14:56:51Z</time>
      </trkpt>
      <trkpt lat="48.64652" lon="7.24838">
        <ele>583.7</ele>
        <time>2020-08-18T14:56:58Z</time>
      </trkpt>
      <trkpt lat="48.64657" lon="7.24844">
        <ele>582.9</ele>
        <time>2020-08-18T14:57:02Z</time>
      </trkpt>
      <trkpt lat="48.64661" lon="7.24848">
        <ele>582.4</ele>
        <time>2020-08-18T14:57:04Z</time>
      </trkpt>
      <trkpt lat="48.64666" lon="7.24853">
        <ele>582.1</ele>
        <time>2020-08-18T14:57:06Z</time>
      </trkpt>
      <trkpt lat="48.64671" lon="7.24857">
        <ele>582.2</ele>
        <time>2020-08-18T14:57:08Z</time>
      </trkpt>
      <trkpt lat="48.64676" lon="7.24859">
        <ele>581.9</ele>
        <time>2020-08-18T14:57:11Z</time>
      </trkpt>
      <trkpt lat="48.6468" lon="7.2486">
        <ele>580.5</ele>
        <time>2020-08-18T14:57:22Z</time>
      </trkpt>
      <trkpt lat="48.64684" lon="7.24866">
        <ele>579.5</ele>
        <time>2020-08-18T14:57:24Z</time>
      </trkpt>
      <trkpt lat="48.64688" lon="7.24873">
        <ele>578.9</ele>
        <time>2020-08-18T14:57:26Z</time>
      </trkpt>
      <trkpt lat="48.64692" lon="7.2488">
        <ele>578.6</ele>
        <time>2020-08-18T14:57:28Z</time>
      </trkpt>
      <trkpt lat="48.64697" lon="7.24889">
        <ele>578</ele>
        <time>2020-08-18T14:57:30Z</time>
      </trkpt>
      <trkpt lat="48.647" lon="7.24898">
        <ele>577.6</ele>
        <time>2020-08-18T14:57:32Z</time>
      </trkpt>
      <trkpt lat="48.64702" lon="7.24905">
        <ele>577.4</ele>
        <time>2020-08-18T14:57:34Z</time>
      </trkpt>
      <trkpt lat="48.64706" lon="7.24911">
        <ele>577.4</ele>
        <time>2020-08-18T14:57:36Z</time>
      </trkpt>
      <trkpt lat="48.64713" lon="7.24917">
        <ele>575.5</ele>
        <time>2020-08-18T14:57:38Z</time>
      </trkpt>
      <trkpt lat="48.6472" lon="7.24923">
        <ele>574.6</ele>
        <time>2020-08-18T14:57:40Z</time>
      </trkpt>
      <trkpt lat="48.64725" lon="7.24927">
        <ele>573.9</ele>
        <time>2020-08-18T14:57:42Z</time>
      </trkpt>
      <trkpt lat="48.6473" lon="7.24929">
        <ele>572.7</ele>
        <time>2020-08-18T14:57:45Z</time>
      </trkpt>
      <trkpt lat="48.64735" lon="7.24926">
        <ele>571.4</ele>
        <time>2020-08-18T14:57:50Z</time>
      </trkpt>
      <trkpt lat="48.64739" lon="7.24923">
        <ele>571.5</ele>
        <time>2020-08-18T14:57:52Z</time>
      </trkpt>
      <trkpt lat="48.64745" lon="7.24918">
        <ele>571.4</ele>
        <time>2020-08-18T14:57:54Z</time>
      </trkpt>
      <trkpt lat="48.64752" lon="7.24914">
        <ele>571.3</ele>
        <time>2020-08-18T14:57:56Z</time>
      </trkpt>
      <trkpt lat="48.64757" lon="7.24911">
        <ele>571.5</ele>
        <time>2020-08-18T14:57:59Z</time>
      </trkpt>
      <trkpt lat="48.64761" lon="7.24906">
        <ele>570.6</ele>
        <time>2020-08-18T14:58:02Z</time>
      </trkpt>
      <trkpt lat="48.64765" lon="7.24899">
        <ele>569.8</ele>
        <time>2020-08-18T14:58:04Z</time>
      </trkpt>
      <trkpt lat="48.64769" lon="7.24894">
        <ele>569</ele>
        <time>2020-08-18T14:58:07Z</time>
      </trkpt>
      <trkpt lat="48.64774" lon="7.24889">
        <ele>567.4</ele>
        <time>2020-08-18T14:58:11Z</time>
      </trkpt>
      <trkpt lat="48.6478" lon="7.24883">
        <ele>567</ele>
        <time>2020-08-18T14:58:13Z</time>
      </trkpt>
      <trkpt lat="48.64787" lon="7.24873">
        <ele>566.5</ele>
        <time>2020-08-18T14:58:15Z</time>
      </trkpt>
      <trkpt lat="48.64794" lon="7.24863">
        <ele>566</ele>
        <time>2020-08-18T14:58:17Z</time>
      </trkpt>
      <trkpt lat="48.64801" lon="7.24856">
        <ele>564.8</ele>
        <time>2020-08-18T14:58:19Z</time>
      </trkpt>
      <trkpt lat="48.64806" lon="7.24847">
        <ele>563.9</ele>
        <time>2020-08-18T14:58:21Z</time>
      </trkpt>
      <trkpt lat="48.64811" lon="7.24838">
        <ele>563.8</ele>
        <time>2020-08-18T14:58:23Z</time>
      </trkpt>
      <trkpt lat="48.64815" lon="7.24827">
        <ele>564.3</ele>
        <time>2020-08-18T14:58:25Z</time>
      </trkpt>
      <trkpt lat="48.64817" lon="7.24821">
        <ele>564.8</ele>
        <time>2020-08-18T14:58:27Z</time>
      </trkpt>
      <trkpt lat="48.64817" lon="7.24814">
        <ele>566.1</ele>
        <time>2020-08-18T14:58:40Z</time>
      </trkpt>
      <trkpt lat="48.64815" lon="7.24819">
        <ele>565.7</ele>
        <time>2020-08-18T14:59:08Z</time>
      </trkpt>
      <trkpt lat="48.64811" lon="7.24826">
        <ele>565</ele>
        <time>2020-08-18T14:59:10Z</time>
      </trkpt>
      <trkpt lat="48.64807" lon="7.24833">
        <ele>564.4</ele>
        <time>2020-08-18T14:59:12Z</time>
      </trkpt>
      <trkpt lat="48.64803" lon="7.24839">
        <ele>564.2</ele>
        <time>2020-08-18T14:59:15Z</time>
      </trkpt>
      <trkpt lat="48.64799" lon="7.24845">
        <ele>563.4</ele>
        <time>2020-08-18T14:59:18Z</time>
      </trkpt>
      <trkpt lat="48.64795" lon="7.24853">
        <ele>562.7</ele>
        <time>2020-08-18T14:59:20Z</time>
      </trkpt>
      <trkpt lat="48.64789" lon="7.24864">
        <ele>562.6</ele>
        <time>2020-08-18T14:59:22Z</time>
      </trkpt>
      <trkpt lat="48.64785" lon="7.24874">
        <ele>562.9</ele>
        <time>2020-08-18T14:59:24Z</time>
      </trkpt>
      <trkpt lat="48.6478" lon="7.24882">
        <ele>562.8</ele>
        <time>2020-08-18T14:59:26Z</time>
      </trkpt>
      <trkpt lat="48.64776" lon="7.24889">
        <ele>563</ele>
        <time>2020-08-18T14:59:28Z</time>
      </trkpt>
      <trkpt lat="48.64773" lon="7.24897">
        <ele>563.2</ele>
        <time>2020-08-18T14:59:30Z</time>
      </trkpt>
      <trkpt lat="48.64772" lon="7.24904">
        <ele>563.8</ele>
        <time>2020-08-18T14:59:33Z</time>
      </trkpt>
      <trkpt lat="48.64777" lon="7.24905">
        <ele>565</ele>
        <time>2020-08-18T14:59:41Z</time>
      </trkpt>
      <trkpt lat="48.64782" lon="7.249">
        <ele>565.1</ele>
        <time>2020-08-18T14:59:44Z</time>
      </trkpt>
      <trkpt lat="48.64788" lon="7.24895">
        <ele>565.1</ele>
        <time>2020-08-18T14:59:46Z</time>
      </trkpt>
      <trkpt lat="48.64801" lon="7.24885">
        <ele>564.2</ele>
        <time>2020-08-18T14:59:49Z</time>
      </trkpt>
      <trkpt lat="48.64805" lon="7.24881">
        <ele>563.1</ele>
        <time>2020-08-18T14:59:51Z</time>
      </trkpt>
      <trkpt lat="48.64811" lon="7.24876">
        <ele>558.8</ele>
        <time>2020-08-18T15:00:02Z</time>
      </trkpt>
      <trkpt lat="48.64823" lon="7.24871">
        <ele>558.2</ele>
        <time>2020-08-18T15:00:05Z</time>
      </trkpt>
      <trkpt lat="48.64831" lon="7.24867">
        <ele>558.7</ele>
        <time>2020-08-18T15:00:07Z</time>
      </trkpt>
      <trkpt lat="48.64841" lon="7.24863">
        <ele>558.6</ele>
        <time>2020-08-18T15:00:09Z</time>
      </trkpt>
      <trkpt lat="48.64853" lon="7.24859">
        <ele>558.4</ele>
        <time>2020-08-18T15:00:11Z</time>
      </trkpt>
      <trkpt lat="48.64871" lon="7.24859">
        <ele>558.3</ele>
        <time>2020-08-18T15:00:14Z</time>
      </trkpt>
      <trkpt lat="48.64888" lon="7.24861">
        <ele>558</ele>
        <time>2020-08-18T15:00:16Z</time>
      </trkpt>
      <trkpt lat="48.64906" lon="7.24862">
        <ele>558.1</ele>
        <time>2020-08-18T15:00:18Z</time>
      </trkpt>
      <trkpt lat="48.64924" lon="7.24862">
        <ele>558.3</ele>
        <time>2020-08-18T15:00:20Z</time>
      </trkpt>
      <trkpt lat="48.64941" lon="7.24863">
        <ele>557.4</ele>
        <time>2020-08-18T15:00:22Z</time>
      </trkpt>
      <trkpt lat="48.64958" lon="7.24864">
        <ele>557.6</ele>
        <time>2020-08-18T15:00:24Z</time>
      </trkpt>
      <trkpt lat="48.64975" lon="7.24867">
        <ele>556</ele>
        <time>2020-08-18T15:00:26Z</time>
      </trkpt>
      <trkpt lat="48.6499" lon="7.24874">
        <ele>555.5</ele>
        <time>2020-08-18T15:00:28Z</time>
      </trkpt>
      <trkpt lat="48.65005" lon="7.2488">
        <ele>553.8</ele>
        <time>2020-08-18T15:00:30Z</time>
      </trkpt>
      <trkpt lat="48.65019" lon="7.24886">
        <ele>552.1</ele>
        <time>2020-08-18T15:00:32Z</time>
      </trkpt>
      <trkpt lat="48.65035" lon="7.24891">
        <ele>550</ele>
        <time>2020-08-18T15:00:34Z</time>
      </trkpt>
      <trkpt lat="48.65052" lon="7.24895">
        <ele>548.5</ele>
        <time>2020-08-18T15:00:36Z</time>
      </trkpt>
      <trkpt lat="48.65069" lon="7.24897">
        <ele>547.1</ele>
        <time>2020-08-18T15:00:38Z</time>
      </trkpt>
      <trkpt lat="48.65086" lon="7.24896">
        <ele>545.6</ele>
        <time>2020-08-18T15:00:40Z</time>
      </trkpt>
      <trkpt lat="48.65102" lon="7.24891">
        <ele>544.9</ele>
        <time>2020-08-18T15:00:42Z</time>
      </trkpt>
      <trkpt lat="48.65116" lon="7.24884">
        <ele>544.2</ele>
        <time>2020-08-18T15:00:44Z</time>
      </trkpt>
      <trkpt lat="48.65131" lon="7.24877">
        <ele>543.9</ele>
        <time>2020-08-18T15:00:46Z</time>
      </trkpt>
      <trkpt lat="48.65153" lon="7.2486">
        <ele>542.9</ele>
        <time>2020-08-18T15:00:49Z</time>
      </trkpt>
      <trkpt lat="48.65174" lon="7.24837">
        <ele>542.1</ele>
        <time>2020-08-18T15:00:52Z</time>
      </trkpt>
      <trkpt lat="48.65185" lon="7.24821">
        <ele>541.5</ele>
        <time>2020-08-18T15:00:54Z</time>
      </trkpt>
      <trkpt lat="48.65196" lon="7.24804">
        <ele>540.8</ele>
        <time>2020-08-18T15:00:56Z</time>
      </trkpt>
      <trkpt lat="48.65208" lon="7.24785">
        <ele>540.8</ele>
        <time>2020-08-18T15:00:58Z</time>
      </trkpt>
      <trkpt lat="48.65217" lon="7.24766">
        <ele>540.6</ele>
        <time>2020-08-18T15:01:00Z</time>
      </trkpt>
      <trkpt lat="48.65227" lon="7.24746">
        <ele>540.5</ele>
        <time>2020-08-18T15:01:02Z</time>
      </trkpt>
      <trkpt lat="48.65238" lon="7.24725">
        <ele>540.6</ele>
        <time>2020-08-18T15:01:04Z</time>
      </trkpt>
      <trkpt lat="48.65247" lon="7.24706">
        <ele>540.5</ele>
        <time>2020-08-18T15:01:06Z</time>
      </trkpt>
      <trkpt lat="48.65256" lon="7.2469">
        <ele>540.5</ele>
        <time>2020-08-18T15:01:08Z</time>
      </trkpt>
      <trkpt lat="48.65258" lon="7.24681">
        <ele>539.3</ele>
        <time>2020-08-18T15:01:10Z</time>
      </trkpt>
      <trkpt lat="48.65259" lon="7.24674">
        <ele>538.1</ele>
        <time>2020-08-18T15:01:14Z</time>
      </trkpt>
      <trkpt lat="48.65263" lon="7.24672">
        <ele>536.9</ele>
        <time>2020-08-18T15:01:24Z</time>
      </trkpt>
      <trkpt lat="48.65268" lon="7.24667">
        <ele>536.1</ele>
        <time>2020-08-18T15:01:26Z</time>
      </trkpt>
      <trkpt lat="48.65274" lon="7.2466">
        <ele>535.5</ele>
        <time>2020-08-18T15:01:28Z</time>
      </trkpt>
      <trkpt lat="48.65278" lon="7.2465">
        <ele>534.5</ele>
        <time>2020-08-18T15:01:30Z</time>
      </trkpt>
      <trkpt lat="48.6528" lon="7.24642">
        <ele>533</ele>
        <time>2020-08-18T15:01:33Z</time>
      </trkpt>
      <trkpt lat="48.65283" lon="7.24634">
        <ele>531</ele>
        <time>2020-08-18T15:01:37Z</time>
      </trkpt>
      <trkpt lat="48.65286" lon="7.24624">
        <ele>530.3</ele>
        <time>2020-08-18T15:01:39Z</time>
      </trkpt>
      <trkpt lat="48.65289" lon="7.24611">
        <ele>529.6</ele>
        <time>2020-08-18T15:01:41Z</time>
      </trkpt>
      <trkpt lat="48.65293" lon="7.24597">
        <ele>529.3</ele>
        <time>2020-08-18T15:01:43Z</time>
      </trkpt>
      <trkpt lat="48.65295" lon="7.24581">
        <ele>528.6</ele>
        <time>2020-08-18T15:01:45Z</time>
      </trkpt>
      <trkpt lat="48.65298" lon="7.24565">
        <ele>527.8</ele>
        <time>2020-08-18T15:01:47Z</time>
      </trkpt>
      <trkpt lat="48.65298" lon="7.24546">
        <ele>528</ele>
        <time>2020-08-18T15:01:49Z</time>
      </trkpt>
      <trkpt lat="48.65298" lon="7.24528">
        <ele>528</ele>
        <time>2020-08-18T15:01:51Z</time>
      </trkpt>
      <trkpt lat="48.65298" lon="7.24509">
        <ele>527.8</ele>
        <time>2020-08-18T15:01:53Z</time>
      </trkpt>
      <trkpt lat="48.65298" lon="7.24489">
        <ele>527.4</ele>
        <time>2020-08-18T15:01:55Z</time>
      </trkpt>
      <trkpt lat="48.65299" lon="7.24468">
        <ele>527.1</ele>
        <time>2020-08-18T15:01:57Z</time>
      </trkpt>
      <trkpt lat="48.65298" lon="7.24447">
        <ele>526.7</ele>
        <time>2020-08-18T15:01:59Z</time>
      </trkpt>
      <trkpt lat="48.65298" lon="7.24425">
        <ele>526</ele>
        <time>2020-08-18T15:02:01Z</time>
      </trkpt>
      <trkpt lat="48.65298" lon="7.24404">
        <ele>525.1</ele>
        <time>2020-08-18T15:02:03Z</time>
      </trkpt>
      <trkpt lat="48.65298" lon="7.24382">
        <ele>524.2</ele>
        <time>2020-08-18T15:02:05Z</time>
      </trkpt>
      <trkpt lat="48.65298" lon="7.24359">
        <ele>523.2</ele>
        <time>2020-08-18T15:02:07Z</time>
      </trkpt>
      <trkpt lat="48.65298" lon="7.24336">
        <ele>522.2</ele>
        <time>2020-08-18T15:02:09Z</time>
      </trkpt>
      <trkpt lat="48.65298" lon="7.24313">
        <ele>521.2</ele>
        <time>2020-08-18T15:02:11Z</time>
      </trkpt>
      <trkpt lat="48.65298" lon="7.24289">
        <ele>520.1</ele>
        <time>2020-08-18T15:02:13Z</time>
      </trkpt>
      <trkpt lat="48.65298" lon="7.24264">
        <ele>518.8</ele>
        <time>2020-08-18T15:02:15Z</time>
      </trkpt>
      <trkpt lat="48.65299" lon="7.2424">
        <ele>517.8</ele>
        <time>2020-08-18T15:02:17Z</time>
      </trkpt>
      <trkpt lat="48.65299" lon="7.24217">
        <ele>516.5</ele>
        <time>2020-08-18T15:02:19Z</time>
      </trkpt>
      <trkpt lat="48.653" lon="7.24196">
        <ele>514.9</ele>
        <time>2020-08-18T15:02:21Z</time>
      </trkpt>
      <trkpt lat="48.65301" lon="7.24174">
        <ele>513.6</ele>
        <time>2020-08-18T15:02:23Z</time>
      </trkpt>
      <trkpt lat="48.65303" lon="7.24152">
        <ele>512.3</ele>
        <time>2020-08-18T15:02:25Z</time>
      </trkpt>
      <trkpt lat="48.65306" lon="7.2413">
        <ele>511.4</ele>
        <time>2020-08-18T15:02:27Z</time>
      </trkpt>
      <trkpt lat="48.65308" lon="7.24106">
        <ele>510.5</ele>
        <time>2020-08-18T15:02:29Z</time>
      </trkpt>
      <trkpt lat="48.65309" lon="7.24084">
        <ele>509.8</ele>
        <time>2020-08-18T15:02:31Z</time>
      </trkpt>
      <trkpt lat="48.65311" lon="7.24062">
        <ele>509.4</ele>
        <time>2020-08-18T15:02:33Z</time>
      </trkpt>
      <trkpt lat="48.65315" lon="7.24039">
        <ele>508</ele>
        <time>2020-08-18T15:02:35Z</time>
      </trkpt>
      <trkpt lat="48.65318" lon="7.24012">
        <ele>506.9</ele>
        <time>2020-08-18T15:02:37Z</time>
      </trkpt>
      <trkpt lat="48.65321" lon="7.23985">
        <ele>505.8</ele>
        <time>2020-08-18T15:02:39Z</time>
      </trkpt>
      <trkpt lat="48.65324" lon="7.23959">
        <ele>504.2</ele>
        <time>2020-08-18T15:02:41Z</time>
      </trkpt>
      <trkpt lat="48.65328" lon="7.23935">
        <ele>503.1</ele>
        <time>2020-08-18T15:02:43Z</time>
      </trkpt>
      <trkpt lat="48.65331" lon="7.23912">
        <ele>501.3</ele>
        <time>2020-08-18T15:02:45Z</time>
      </trkpt>
      <trkpt lat="48.65333" lon="7.23889">
        <ele>499.7</ele>
        <time>2020-08-18T15:02:47Z</time>
      </trkpt>
      <trkpt lat="48.65334" lon="7.23867">
        <ele>498.3</ele>
        <time>2020-08-18T15:02:49Z</time>
      </trkpt>
      <trkpt lat="48.65333" lon="7.2385">
        <ele>497.4</ele>
        <time>2020-08-18T15:02:51Z</time>
      </trkpt>
      <trkpt lat="48.65332" lon="7.23841">
        <ele>497.4</ele>
        <time>2020-08-18T15:02:53Z</time>
      </trkpt>
      <trkpt lat="48.65331" lon="7.23831">
        <ele>497.3</ele>
        <time>2020-08-18T15:03:00Z</time>
      </trkpt>
      <trkpt lat="48.65331" lon="7.23823">
        <ele>497.1</ele>
        <time>2020-08-18T15:03:02Z</time>
      </trkpt>
      <trkpt lat="48.6533" lon="7.23811">
        <ele>496.8</ele>
        <time>2020-08-18T15:03:04Z</time>
      </trkpt>
      <trkpt lat="48.6533" lon="7.23797">
        <ele>496</ele>
        <time>2020-08-18T15:03:06Z</time>
      </trkpt>
      <trkpt lat="48.6533" lon="7.23781">
        <ele>494.9</ele>
        <time>2020-08-18T15:03:08Z</time>
      </trkpt>
      <trkpt lat="48.6533" lon="7.23762">
        <ele>493.5</ele>
        <time>2020-08-18T15:03:10Z</time>
      </trkpt>
      <trkpt lat="48.65331" lon="7.23743">
        <ele>491.6</ele>
        <time>2020-08-18T15:03:12Z</time>
      </trkpt>
      <trkpt lat="48.65332" lon="7.23723">
        <ele>489.6</ele>
        <time>2020-08-18T15:03:14Z</time>
      </trkpt>
      <trkpt lat="48.65333" lon="7.23704">
        <ele>488</ele>
        <time>2020-08-18T15:03:16Z</time>
      </trkpt>
      <trkpt lat="48.65336" lon="7.2369">
        <ele>486.6</ele>
        <time>2020-08-18T15:03:18Z</time>
      </trkpt>
      <trkpt lat="48.65339" lon="7.23684">
        <ele>485.7</ele>
        <time>2020-08-18T15:03:20Z</time>
      </trkpt>
      <trkpt lat="48.65341" lon="7.23678">
        <ele>483.3</ele>
        <time>2020-08-18T15:03:26Z</time>
      </trkpt>
      <trkpt lat="48.65343" lon="7.23671">
        <ele>481.6</ele>
        <time>2020-08-18T15:03:40Z</time>
      </trkpt>
      <trkpt lat="48.65345" lon="7.23663">
        <ele>480.5</ele>
        <time>2020-08-18T15:03:43Z</time>
      </trkpt>
      <trkpt lat="48.65343" lon="7.23656">
        <ele>480.4</ele>
        <time>2020-08-18T15:03:51Z</time>
      </trkpt>
      <trkpt lat="48.65337" lon="7.23651">
        <ele>480.1</ele>
        <time>2020-08-18T15:03:54Z</time>
      </trkpt>
      <trkpt lat="48.65332" lon="7.23645">
        <ele>480.3</ele>
        <time>2020-08-18T15:03:56Z</time>
      </trkpt>
      <trkpt lat="48.65326" lon="7.23638">
        <ele>480.6</ele>
        <time>2020-08-18T15:03:58Z</time>
      </trkpt>
      <trkpt lat="48.65322" lon="7.23628">
        <ele>480.5</ele>
        <time>2020-08-18T15:04:00Z</time>
      </trkpt>
      <trkpt lat="48.65321" lon="7.23616">
        <ele>480.3</ele>
        <time>2020-08-18T15:04:02Z</time>
      </trkpt>
      <trkpt lat="48.6532" lon="7.23603">
        <ele>479.6</ele>
        <time>2020-08-18T15:04:04Z</time>
      </trkpt>
      <trkpt lat="48.65322" lon="7.23591">
        <ele>478.8</ele>
        <time>2020-08-18T15:04:06Z</time>
      </trkpt>
      <trkpt lat="48.65328" lon="7.23579">
        <ele>478.6</ele>
        <time>2020-08-18T15:04:08Z</time>
      </trkpt>
      <trkpt lat="48.65336" lon="7.23569">
        <ele>478.6</ele>
        <time>2020-08-18T15:04:10Z</time>
      </trkpt>
      <trkpt lat="48.65345" lon="7.23559">
        <ele>478.3</ele>
        <time>2020-08-18T15:04:12Z</time>
      </trkpt>
      <trkpt lat="48.65349" lon="7.23553">
        <ele>478.3</ele>
        <time>2020-08-18T15:04:14Z</time>
      </trkpt>
      <trkpt lat="48.65351" lon="7.23546">
        <ele>474.9</ele>
        <time>2020-08-18T15:04:28Z</time>
      </trkpt>
      <trkpt lat="48.65356" lon="7.2354">
        <ele>474.1</ele>
        <time>2020-08-18T15:04:31Z</time>
      </trkpt>
      <trkpt lat="48.65359" lon="7.23533">
        <ele>473</ele>
        <time>2020-08-18T15:04:33Z</time>
      </trkpt>
      <trkpt lat="48.65366" lon="7.23525">
        <ele>472.6</ele>
        <time>2020-08-18T15:04:35Z</time>
      </trkpt>
      <trkpt lat="48.65374" lon="7.2352">
        <ele>471.8</ele>
        <time>2020-08-18T15:04:37Z</time>
      </trkpt>
      <trkpt lat="48.65384" lon="7.23515">
        <ele>471.2</ele>
        <time>2020-08-18T15:04:39Z</time>
      </trkpt>
      <trkpt lat="48.65392" lon="7.23512">
        <ele>471.1</ele>
        <time>2020-08-18T15:04:41Z</time>
      </trkpt>
      <trkpt lat="48.65396" lon="7.23509">
        <ele>470.7</ele>
        <time>2020-08-18T15:04:44Z</time>
      </trkpt>
      <trkpt lat="48.65396" lon="7.235">
        <ele>470.6</ele>
        <time>2020-08-18T15:04:48Z</time>
      </trkpt>
      <trkpt lat="48.65396" lon="7.23493">
        <ele>470.6</ele>
        <time>2020-08-18T15:04:50Z</time>
      </trkpt>
      <trkpt lat="48.65396" lon="7.23485">
        <ele>470.4</ele>
        <time>2020-08-18T15:04:52Z</time>
      </trkpt>
      <trkpt lat="48.65396" lon="7.23475">
        <ele>470.8</ele>
        <time>2020-08-18T15:04:54Z</time>
      </trkpt>
      <trkpt lat="48.65396" lon="7.23464">
        <ele>471.4</ele>
        <time>2020-08-18T15:04:56Z</time>
      </trkpt>
      <trkpt lat="48.65396" lon="7.23451">
        <ele>471.9</ele>
        <time>2020-08-18T15:04:58Z</time>
      </trkpt>
      <trkpt lat="48.65397" lon="7.23436">
        <ele>472.1</ele>
        <time>2020-08-18T15:05:00Z</time>
      </trkpt>
      <trkpt lat="48.65397" lon="7.23421">
        <ele>472</ele>
        <time>2020-08-18T15:05:02Z</time>
      </trkpt>
      <trkpt lat="48.65397" lon="7.23407">
        <ele>472</ele>
        <time>2020-08-18T15:05:04Z</time>
      </trkpt>
      <trkpt lat="48.65398" lon="7.23392">
        <ele>473.1</ele>
        <time>2020-08-18T15:05:06Z</time>
      </trkpt>
      <trkpt lat="48.654" lon="7.23378">
        <ele>473.6</ele>
        <time>2020-08-18T15:05:08Z</time>
      </trkpt>
      <trkpt lat="48.654" lon="7.23368">
        <ele>474.5</ele>
        <time>2020-08-18T15:05:10Z</time>
      </trkpt>
      <trkpt lat="48.65402" lon="7.23361">
        <ele>474.6</ele>
        <time>2020-08-18T15:05:21Z</time>
      </trkpt>
      <trkpt lat="48.65408" lon="7.23361">
        <ele>475.1</ele>
        <time>2020-08-18T15:05:26Z</time>
      </trkpt>
      <trkpt lat="48.65413" lon="7.23361">
        <ele>475.2</ele>
        <time>2020-08-18T15:05:30Z</time>
      </trkpt>
      <trkpt lat="48.65419" lon="7.23361">
        <ele>475.5</ele>
        <time>2020-08-18T15:05:34Z</time>
      </trkpt>
      <trkpt lat="48.65424" lon="7.23359">
        <ele>475.6</ele>
        <time>2020-08-18T15:05:38Z</time>
      </trkpt>
      <trkpt lat="48.65429" lon="7.23356">
        <ele>475.4</ele>
        <time>2020-08-18T15:05:42Z</time>
      </trkpt>
      <trkpt lat="48.65433" lon="7.23353">
        <ele>474.6</ele>
        <time>2020-08-18T15:05:46Z</time>
      </trkpt>
      <trkpt lat="48.65438" lon="7.23347">
        <ele>474.9</ele>
        <time>2020-08-18T15:05:51Z</time>
      </trkpt>
      <trkpt lat="48.65441" lon="7.23343">
        <ele>475.8</ele>
        <time>2020-08-18T15:05:55Z</time>
      </trkpt>
      <trkpt lat="48.65445" lon="7.23339">
        <ele>476.5</ele>
        <time>2020-08-18T15:06:06Z</time>
      </trkpt>
      <trkpt lat="48.65449" lon="7.23334">
        <ele>475.8</ele>
        <time>2020-08-18T15:06:11Z</time>
      </trkpt>
      <trkpt lat="48.65453" lon="7.23329">
        <ele>476</ele>
        <time>2020-08-18T15:06:15Z</time>
      </trkpt>
      <trkpt lat="48.65456" lon="7.23323">
        <ele>477</ele>
        <time>2020-08-18T15:06:19Z</time>
      </trkpt>
      <trkpt lat="48.65459" lon="7.23317">
        <ele>478.1</ele>
        <time>2020-08-18T15:06:23Z</time>
      </trkpt>
      <trkpt lat="48.65463" lon="7.23312">
        <ele>478.7</ele>
        <time>2020-08-18T15:06:27Z</time>
      </trkpt>
      <trkpt lat="48.65465" lon="7.23306">
        <ele>478.4</ele>
        <time>2020-08-18T15:06:31Z</time>
      </trkpt>
      <trkpt lat="48.65467" lon="7.23298">
        <ele>478.2</ele>
        <time>2020-08-18T15:06:35Z</time>
      </trkpt>
      <trkpt lat="48.65468" lon="7.23289">
        <ele>478.2</ele>
        <time>2020-08-18T15:06:39Z</time>
      </trkpt>
      <trkpt lat="48.65469" lon="7.23282">
        <ele>478.4</ele>
        <time>2020-08-18T15:06:42Z</time>
      </trkpt>
      <trkpt lat="48.65472" lon="7.23275">
        <ele>477.7</ele>
        <time>2020-08-18T15:06:46Z</time>
      </trkpt>
      <trkpt lat="48.65475" lon="7.23267">
        <ele>477.6</ele>
        <time>2020-08-18T15:06:50Z</time>
      </trkpt>
      <trkpt lat="48.65477" lon="7.23261">
        <ele>478</ele>
        <time>2020-08-18T15:06:54Z</time>
      </trkpt>
      <trkpt lat="48.65481" lon="7.23255">
        <ele>477.9</ele>
        <time>2020-08-18T15:06:58Z</time>
      </trkpt>
      <trkpt lat="48.65481" lon="7.23248">
        <ele>479.3</ele>
        <time>2020-08-18T15:07:02Z</time>
      </trkpt>
      <trkpt lat="48.65483" lon="7.23239">
        <ele>481.5</ele>
        <time>2020-08-18T15:08:06Z</time>
      </trkpt>
      <trkpt lat="48.65484" lon="7.23232">
        <ele>482</ele>
        <time>2020-08-18T15:08:08Z</time>
      </trkpt>
      <trkpt lat="48.65486" lon="7.23222">
        <ele>481.8</ele>
        <time>2020-08-18T15:08:10Z</time>
      </trkpt>
      <trkpt lat="48.65488" lon="7.23211">
        <ele>481.9</ele>
        <time>2020-08-18T15:08:12Z</time>
      </trkpt>
      <trkpt lat="48.65489" lon="7.23198">
        <ele>482.2</ele>
        <time>2020-08-18T15:08:14Z</time>
      </trkpt>
      <trkpt lat="48.6549" lon="7.23184">
        <ele>482.4</ele>
        <time>2020-08-18T15:08:16Z</time>
      </trkpt>
      <trkpt lat="48.65492" lon="7.2317">
        <ele>483.1</ele>
        <time>2020-08-18T15:08:18Z</time>
      </trkpt>
      <trkpt lat="48.65494" lon="7.23156">
        <ele>483.7</ele>
        <time>2020-08-18T15:08:20Z</time>
      </trkpt>
      <trkpt lat="48.65496" lon="7.23142">
        <ele>484</ele>
        <time>2020-08-18T15:08:22Z</time>
      </trkpt>
      <trkpt lat="48.65497" lon="7.23128">
        <ele>483.4</ele>
        <time>2020-08-18T15:08:24Z</time>
      </trkpt>
      <trkpt lat="48.65499" lon="7.23115">
        <ele>484.1</ele>
        <time>2020-08-18T15:08:26Z</time>
      </trkpt>
      <trkpt lat="48.655" lon="7.23105">
        <ele>484.4</ele>
        <time>2020-08-18T15:08:28Z</time>
      </trkpt>
      <trkpt lat="48.655" lon="7.23096">
        <ele>484.7</ele>
        <time>2020-08-18T15:08:30Z</time>
      </trkpt>
      <trkpt lat="48.655" lon="7.23087">
        <ele>484.8</ele>
        <time>2020-08-18T15:08:32Z</time>
      </trkpt>
      <trkpt lat="48.655" lon="7.23078">
        <ele>485.1</ele>
        <time>2020-08-18T15:08:34Z</time>
      </trkpt>
      <trkpt lat="48.65501" lon="7.2307">
        <ele>485.6</ele>
        <time>2020-08-18T15:08:36Z</time>
      </trkpt>
      <trkpt lat="48.65502" lon="7.23062">
        <ele>486.1</ele>
        <time>2020-08-18T15:08:38Z</time>
      </trkpt>
      <trkpt lat="48.65503" lon="7.23054">
        <ele>485.8</ele>
        <time>2020-08-18T15:08:40Z</time>
      </trkpt>
      <trkpt lat="48.65503" lon="7.23046">
        <ele>485.9</ele>
        <time>2020-08-18T15:08:42Z</time>
      </trkpt>
      <trkpt lat="48.65503" lon="7.23037">
        <ele>485.7</ele>
        <time>2020-08-18T15:08:44Z</time>
      </trkpt>
      <trkpt lat="48.65504" lon="7.23028">
        <ele>485.8</ele>
        <time>2020-08-18T15:08:46Z</time>
      </trkpt>
      <trkpt lat="48.65505" lon="7.2302">
        <ele>486.1</ele>
        <time>2020-08-18T15:08:48Z</time>
      </trkpt>
      <trkpt lat="48.65506" lon="7.23011">
        <ele>486.2</ele>
        <time>2020-08-18T15:08:50Z</time>
      </trkpt>
      <trkpt lat="48.65508" lon="7.23002">
        <ele>486.5</ele>
        <time>2020-08-18T15:08:52Z</time>
      </trkpt>
      <trkpt lat="48.65511" lon="7.22988">
        <ele>486.5</ele>
        <time>2020-08-18T15:08:55Z</time>
      </trkpt>
      <trkpt lat="48.65513" lon="7.2298">
        <ele>486.3</ele>
        <time>2020-08-18T15:08:57Z</time>
      </trkpt>
      <trkpt lat="48.65516" lon="7.2297">
        <ele>486.2</ele>
        <time>2020-08-18T15:08:59Z</time>
      </trkpt>
      <trkpt lat="48.65519" lon="7.22961">
        <ele>486.3</ele>
        <time>2020-08-18T15:09:01Z</time>
      </trkpt>
      <trkpt lat="48.65522" lon="7.22951">
        <ele>486.8</ele>
        <time>2020-08-18T15:09:03Z</time>
      </trkpt>
      <trkpt lat="48.65525" lon="7.22942">
        <ele>486.8</ele>
        <time>2020-08-18T15:09:05Z</time>
      </trkpt>
      <trkpt lat="48.65529" lon="7.22934">
        <ele>487</ele>
        <time>2020-08-18T15:09:07Z</time>
      </trkpt>
      <trkpt lat="48.65533" lon="7.22927">
        <ele>487.2</ele>
        <time>2020-08-18T15:09:09Z</time>
      </trkpt>
      <trkpt lat="48.65536" lon="7.22921">
        <ele>489</ele>
        <time>2020-08-18T15:12:51Z</time>
      </trkpt>
      <trkpt lat="48.65538" lon="7.22913">
        <ele>489</ele>
        <time>2020-08-18T15:12:55Z</time>
      </trkpt>
      <trkpt lat="48.65542" lon="7.22906">
        <ele>489.5</ele>
        <time>2020-08-18T15:12:57Z</time>
      </trkpt>
      <trkpt lat="48.65548" lon="7.22898">
        <ele>489.2</ele>
        <time>2020-08-18T15:12:59Z</time>
      </trkpt>
      <trkpt lat="48.65555" lon="7.22889">
        <ele>488.6</ele>
        <time>2020-08-18T15:13:01Z</time>
      </trkpt>
      <trkpt lat="48.65564" lon="7.2288">
        <ele>487.9</ele>
        <time>2020-08-18T15:13:03Z</time>
      </trkpt>
      <trkpt lat="48.65574" lon="7.22869">
        <ele>487.3</ele>
        <time>2020-08-18T15:13:05Z</time>
      </trkpt>
      <trkpt lat="48.65585" lon="7.22859">
        <ele>486.5</ele>
        <time>2020-08-18T15:13:07Z</time>
      </trkpt>
      <trkpt lat="48.65596" lon="7.22851">
        <ele>486</ele>
        <time>2020-08-18T15:13:09Z</time>
      </trkpt>
      <trkpt lat="48.65607" lon="7.22845">
        <ele>485.6</ele>
        <time>2020-08-18T15:13:11Z</time>
      </trkpt>
      <trkpt lat="48.65619" lon="7.22843">
        <ele>485.7</ele>
        <time>2020-08-18T15:13:13Z</time>
      </trkpt>
      <trkpt lat="48.6563" lon="7.22842">
        <ele>485.6</ele>
        <time>2020-08-18T15:13:15Z</time>
      </trkpt>
      <trkpt lat="48.6564" lon="7.22843">
        <ele>485.5</ele>
        <time>2020-08-18T15:13:17Z</time>
      </trkpt>
      <trkpt lat="48.65651" lon="7.22844">
        <ele>486.1</ele>
        <time>2020-08-18T15:13:19Z</time>
      </trkpt>
      <trkpt lat="48.65662" lon="7.22843">
        <ele>485.3</ele>
        <time>2020-08-18T15:13:21Z</time>
      </trkpt>
      <trkpt lat="48.65673" lon="7.22839">
        <ele>484</ele>
        <time>2020-08-18T15:13:23Z</time>
      </trkpt>
      <trkpt lat="48.65685" lon="7.22831">
        <ele>482.2</ele>
        <time>2020-08-18T15:13:25Z</time>
      </trkpt>
      <trkpt lat="48.65695" lon="7.22821">
        <ele>481</ele>
        <time>2020-08-18T15:13:27Z</time>
      </trkpt>
      <trkpt lat="48.65704" lon="7.22812">
        <ele>480.2</ele>
        <time>2020-08-18T15:13:29Z</time>
      </trkpt>
      <trkpt lat="48.6571" lon="7.22801">
        <ele>480.3</ele>
        <time>2020-08-18T15:13:31Z</time>
      </trkpt>
      <trkpt lat="48.65717" lon="7.22791">
        <ele>480.2</ele>
        <time>2020-08-18T15:13:33Z</time>
      </trkpt>
      <trkpt lat="48.65723" lon="7.22781">
        <ele>480.2</ele>
        <time>2020-08-18T15:13:35Z</time>
      </trkpt>
      <trkpt lat="48.65726" lon="7.2277">
        <ele>480.5</ele>
        <time>2020-08-18T15:13:37Z</time>
      </trkpt>
      <trkpt lat="48.65727" lon="7.22759">
        <ele>480.9</ele>
        <time>2020-08-18T15:13:39Z</time>
      </trkpt>
      <trkpt lat="48.65728" lon="7.2275">
        <ele>481.3</ele>
        <time>2020-08-18T15:13:41Z</time>
      </trkpt>
      <trkpt lat="48.65726" lon="7.22743">
        <ele>482.3</ele>
        <time>2020-08-18T15:13:44Z</time>
      </trkpt>
      <trkpt lat="48.65726" lon="7.22752">
        <ele>481.2</ele>
        <time>2020-08-18T15:13:49Z</time>
      </trkpt>
      <trkpt lat="48.65727" lon="7.2276">
        <ele>481.4</ele>
        <time>2020-08-18T15:13:51Z</time>
      </trkpt>
      <trkpt lat="48.65724" lon="7.2277">
        <ele>481.6</ele>
        <time>2020-08-18T15:13:53Z</time>
      </trkpt>
      <trkpt lat="48.65719" lon="7.2278">
        <ele>481.5</ele>
        <time>2020-08-18T15:13:55Z</time>
      </trkpt>
      <trkpt lat="48.65715" lon="7.22787">
        <ele>481.4</ele>
        <time>2020-08-18T15:13:57Z</time>
      </trkpt>
      <trkpt lat="48.65713" lon="7.22794">
        <ele>481</ele>
        <time>2020-08-18T15:13:59Z</time>
      </trkpt>
      <trkpt lat="48.6572" lon="7.22794">
        <ele>481.3</ele>
        <time>2020-08-18T15:14:03Z</time>
      </trkpt>
      <trkpt lat="48.65726" lon="7.22791">
        <ele>481.5</ele>
        <time>2020-08-18T15:14:05Z</time>
      </trkpt>
      <trkpt lat="48.65732" lon="7.22787">
        <ele>481.4</ele>
        <time>2020-08-18T15:14:07Z</time>
      </trkpt>
      <trkpt lat="48.65739" lon="7.22784">
        <ele>481.4</ele>
        <time>2020-08-18T15:14:09Z</time>
      </trkpt>
      <trkpt lat="48.65745" lon="7.2278">
        <ele>481.8</ele>
        <time>2020-08-18T15:14:11Z</time>
      </trkpt>
      <trkpt lat="48.65753" lon="7.22774">
        <ele>482.2</ele>
        <time>2020-08-18T15:14:13Z</time>
      </trkpt>
      <trkpt lat="48.6576" lon="7.2277">
        <ele>482.2</ele>
        <time>2020-08-18T15:14:15Z</time>
      </trkpt>
      <trkpt lat="48.65768" lon="7.22765">
        <ele>481.7</ele>
        <time>2020-08-18T15:14:17Z</time>
      </trkpt>
      <trkpt lat="48.65778" lon="7.22757">
        <ele>481.6</ele>
        <time>2020-08-18T15:14:19Z</time>
      </trkpt>
      <trkpt lat="48.65788" lon="7.22748">
        <ele>481.6</ele>
        <time>2020-08-18T15:14:21Z</time>
      </trkpt>
      <trkpt lat="48.65799" lon="7.22737">
        <ele>481.1</ele>
        <time>2020-08-18T15:14:23Z</time>
      </trkpt>
      <trkpt lat="48.65809" lon="7.22723">
        <ele>481.5</ele>
        <time>2020-08-18T15:14:25Z</time>
      </trkpt>
      <trkpt lat="48.65817" lon="7.22707">
        <ele>481.4</ele>
        <time>2020-08-18T15:14:27Z</time>
      </trkpt>
      <trkpt lat="48.65824" lon="7.22692">
        <ele>480.8</ele>
        <time>2020-08-18T15:14:29Z</time>
      </trkpt>
      <trkpt lat="48.65833" lon="7.22678">
        <ele>481.3</ele>
        <time>2020-08-18T15:14:31Z</time>
      </trkpt>
      <trkpt lat="48.65842" lon="7.22663">
        <ele>481.1</ele>
        <time>2020-08-18T15:14:33Z</time>
      </trkpt>
      <trkpt lat="48.65851" lon="7.22647">
        <ele>480.6</ele>
        <time>2020-08-18T15:14:35Z</time>
      </trkpt>
      <trkpt lat="48.65858" lon="7.22632">
        <ele>480</ele>
        <time>2020-08-18T15:14:37Z</time>
      </trkpt>
      <trkpt lat="48.65865" lon="7.22615">
        <ele>478.8</ele>
        <time>2020-08-18T15:14:39Z</time>
      </trkpt>
      <trkpt lat="48.65871" lon="7.22596">
        <ele>478.2</ele>
        <time>2020-08-18T15:14:41Z</time>
      </trkpt>
      <trkpt lat="48.65876" lon="7.22582">
        <ele>477.5</ele>
        <time>2020-08-18T15:14:43Z</time>
      </trkpt>
      <trkpt lat="48.65879" lon="7.22575">
        <ele>476.9</ele>
        <time>2020-08-18T15:14:45Z</time>
      </trkpt>
      <trkpt lat="48.65881" lon="7.22567">
        <ele>475.2</ele>
        <time>2020-08-18T15:14:48Z</time>
      </trkpt>
      <trkpt lat="48.65884" lon="7.22558">
        <ele>473.7</ele>
        <time>2020-08-18T15:14:53Z</time>
      </trkpt>
      <trkpt lat="48.65886" lon="7.2255">
        <ele>473.6</ele>
        <time>2020-08-18T15:14:55Z</time>
      </trkpt>
      <trkpt lat="48.65889" lon="7.22537">
        <ele>472.8</ele>
        <time>2020-08-18T15:14:57Z</time>
      </trkpt>
      <trkpt lat="48.65892" lon="7.22521">
        <ele>472.7</ele>
        <time>2020-08-18T15:14:59Z</time>
      </trkpt>
      <trkpt lat="48.65894" lon="7.22506">
        <ele>472</ele>
        <time>2020-08-18T15:15:01Z</time>
      </trkpt>
      <trkpt lat="48.65894" lon="7.22494">
        <ele>470.6</ele>
        <time>2020-08-18T15:15:03Z</time>
      </trkpt>
      <trkpt lat="48.65894" lon="7.22483">
        <ele>470.1</ele>
        <time>2020-08-18T15:15:05Z</time>
      </trkpt>
      <trkpt lat="48.65894" lon="7.22475">
        <ele>494.8</ele>
        <time>2020-08-18T15:15:15Z</time>
      </trkpt>
      <trkpt lat="48.65895" lon="7.22465">
        <ele>497.4</ele>
        <time>2020-08-18T15:15:18Z</time>
      </trkpt>
      <trkpt lat="48.65895" lon="7.22455">
        <ele>495.2</ele>
        <time>2020-08-18T15:15:20Z</time>
      </trkpt>
      <trkpt lat="48.65894" lon="7.22445">
        <ele>492.5</ele>
        <time>2020-08-18T15:15:22Z</time>
      </trkpt>
      <trkpt lat="48.65891" lon="7.22431">
        <ele>489</ele>
        <time>2020-08-18T15:15:24Z</time>
      </trkpt>
      <trkpt lat="48.65888" lon="7.22419">
        <ele>485.4</ele>
        <time>2020-08-18T15:15:26Z</time>
      </trkpt>
      <trkpt lat="48.65886" lon="7.22409">
        <ele>482.7</ele>
        <time>2020-08-18T15:15:28Z</time>
      </trkpt>
      <trkpt lat="48.65886" lon="7.22402">
        <ele>480.3</ele>
        <time>2020-08-18T15:15:30Z</time>
      </trkpt>
      <trkpt lat="48.65884" lon="7.22395">
        <ele>475.7</ele>
        <time>2020-08-18T15:15:34Z</time>
      </trkpt>
      <trkpt lat="48.65883" lon="7.22386">
        <ele>473.5</ele>
        <time>2020-08-18T15:15:37Z</time>
      </trkpt>
      <trkpt lat="48.65883" lon="7.22378">
        <ele>472.8</ele>
        <time>2020-08-18T15:15:39Z</time>
      </trkpt>
      <trkpt lat="48.65884" lon="7.22371">
        <ele>472.5</ele>
        <time>2020-08-18T15:15:41Z</time>
      </trkpt>
      <trkpt lat="48.65885" lon="7.22363">
        <ele>471.9</ele>
        <time>2020-08-18T15:15:43Z</time>
      </trkpt>
      <trkpt lat="48.65886" lon="7.22354">
        <ele>471.4</ele>
        <time>2020-08-18T15:15:45Z</time>
      </trkpt>
      <trkpt lat="48.65887" lon="7.22345">
        <ele>471.4</ele>
        <time>2020-08-18T15:15:47Z</time>
      </trkpt>
      <trkpt lat="48.65889" lon="7.22337">
        <ele>471.7</ele>
        <time>2020-08-18T15:15:49Z</time>
      </trkpt>
      <trkpt lat="48.65892" lon="7.2233">
        <ele>472</ele>
        <time>2020-08-18T15:15:51Z</time>
      </trkpt>
      <trkpt lat="48.65896" lon="7.22324">
        <ele>472</ele>
        <time>2020-08-18T15:15:53Z</time>
      </trkpt>
      <trkpt lat="48.659" lon="7.22318">
        <ele>473.3</ele>
        <time>2020-08-18T15:15:55Z</time>
      </trkpt>
      <trkpt lat="48.65902" lon="7.2231">
        <ele>473.2</ele>
        <time>2020-08-18T15:15:57Z</time>
      </trkpt>
      <trkpt lat="48.65905" lon="7.22302">
        <ele>473.4</ele>
        <time>2020-08-18T15:15:59Z</time>
      </trkpt>
      <trkpt lat="48.65908" lon="7.22291">
        <ele>473</ele>
        <time>2020-08-18T15:16:01Z</time>
      </trkpt>
      <trkpt lat="48.65912" lon="7.2228">
        <ele>474.1</ele>
        <time>2020-08-18T15:16:03Z</time>
      </trkpt>
      <trkpt lat="48.65917" lon="7.22269">
        <ele>475</ele>
        <time>2020-08-18T15:16:05Z</time>
      </trkpt>
      <trkpt lat="48.65921" lon="7.22259">
        <ele>476.4</ele>
        <time>2020-08-18T15:16:07Z</time>
      </trkpt>
      <trkpt lat="48.65924" lon="7.22248">
        <ele>478.2</ele>
        <time>2020-08-18T15:16:09Z</time>
      </trkpt>
      <trkpt lat="48.65927" lon="7.22239">
        <ele>479.3</ele>
        <time>2020-08-18T15:16:11Z</time>
      </trkpt>
      <trkpt lat="48.65932" lon="7.2223">
        <ele>480.6</ele>
        <time>2020-08-18T15:16:13Z</time>
      </trkpt>
      <trkpt lat="48.65937" lon="7.22221">
        <ele>482.1</ele>
        <time>2020-08-18T15:16:15Z</time>
      </trkpt>
      <trkpt lat="48.65942" lon="7.22214">
        <ele>484.2</ele>
        <time>2020-08-18T15:16:17Z</time>
      </trkpt>
      <trkpt lat="48.65947" lon="7.22208">
        <ele>486.3</ele>
        <time>2020-08-18T15:16:19Z</time>
      </trkpt>
      <trkpt lat="48.65953" lon="7.222">
        <ele>487.5</ele>
        <time>2020-08-18T15:16:21Z</time>
      </trkpt>
      <trkpt lat="48.65959" lon="7.22193">
        <ele>489</ele>
        <time>2020-08-18T15:16:23Z</time>
      </trkpt>
      <trkpt lat="48.65965" lon="7.22187">
        <ele>489.4</ele>
        <time>2020-08-18T15:16:25Z</time>
      </trkpt>
      <trkpt lat="48.65972" lon="7.22181">
        <ele>490.4</ele>
        <time>2020-08-18T15:16:27Z</time>
      </trkpt>
      <trkpt lat="48.6598" lon="7.22176">
        <ele>491</ele>
        <time>2020-08-18T15:16:29Z</time>
      </trkpt>
      <trkpt lat="48.65989" lon="7.22169">
        <ele>491.8</ele>
        <time>2020-08-18T15:16:31Z</time>
      </trkpt>
      <trkpt lat="48.65999" lon="7.2216">
        <ele>492.2</ele>
        <time>2020-08-18T15:16:33Z</time>
      </trkpt>
      <trkpt lat="48.66008" lon="7.2215">
        <ele>493.7</ele>
        <time>2020-08-18T15:16:35Z</time>
      </trkpt>
      <trkpt lat="48.66016" lon="7.22141">
        <ele>495.2</ele>
        <time>2020-08-18T15:16:37Z</time>
      </trkpt>
      <trkpt lat="48.66023" lon="7.22134">
        <ele>496.3</ele>
        <time>2020-08-18T15:16:39Z</time>
      </trkpt>
      <trkpt lat="48.66031" lon="7.22129">
        <ele>496.9</ele>
        <time>2020-08-18T15:16:41Z</time>
      </trkpt>
      <trkpt lat="48.66043" lon="7.22123">
        <ele>496.7</ele>
        <time>2020-08-18T15:16:43Z</time>
      </trkpt>
      <trkpt lat="48.66056" lon="7.22117">
        <ele>497</ele>
        <time>2020-08-18T15:16:45Z</time>
      </trkpt>
      <trkpt lat="48.66069" lon="7.22111">
        <ele>497.2</ele>
        <time>2020-08-18T15:16:47Z</time>
      </trkpt>
      <trkpt lat="48.66084" lon="7.22102">
        <ele>497.4</ele>
        <time>2020-08-18T15:16:49Z</time>
      </trkpt>
      <trkpt lat="48.66097" lon="7.22094">
        <ele>497.3</ele>
        <time>2020-08-18T15:16:51Z</time>
      </trkpt>
      <trkpt lat="48.66108" lon="7.22084">
        <ele>497.9</ele>
        <time>2020-08-18T15:16:53Z</time>
      </trkpt>
      <trkpt lat="48.66118" lon="7.22071">
        <ele>498.2</ele>
        <time>2020-08-18T15:16:55Z</time>
      </trkpt>
      <trkpt lat="48.66125" lon="7.22055">
        <ele>498.2</ele>
        <time>2020-08-18T15:16:57Z</time>
      </trkpt>
      <trkpt lat="48.66132" lon="7.2204">
        <ele>498.4</ele>
        <time>2020-08-18T15:16:59Z</time>
      </trkpt>
      <trkpt lat="48.6614" lon="7.22022">
        <ele>523.4</ele>
        <time>2020-08-18T15:17:01Z</time>
      </trkpt>
      <trkpt lat="48.66148" lon="7.22004">
        <ele>537.3</ele>
        <time>2020-08-18T15:17:03Z</time>
      </trkpt>
      <trkpt lat="48.66157" lon="7.21989">
        <ele>538.9</ele>
        <time>2020-08-18T15:17:05Z</time>
      </trkpt>
      <trkpt lat="48.66163" lon="7.21972">
        <ele>539</ele>
        <time>2020-08-18T15:17:07Z</time>
      </trkpt>
      <trkpt lat="48.66167" lon="7.21952">
        <ele>534.4</ele>
        <time>2020-08-18T15:17:09Z</time>
      </trkpt>
      <trkpt lat="48.66172" lon="7.21933">
        <ele>529</ele>
        <time>2020-08-18T15:17:11Z</time>
      </trkpt>
      <trkpt lat="48.66179" lon="7.21915">
        <ele>524.6</ele>
        <time>2020-08-18T15:17:13Z</time>
      </trkpt>
      <trkpt lat="48.66187" lon="7.21897">
        <ele>520.6</ele>
        <time>2020-08-18T15:17:15Z</time>
      </trkpt>
      <trkpt lat="48.66195" lon="7.21881">
        <ele>539.4</ele>
        <time>2020-08-18T15:17:17Z</time>
      </trkpt>
      <trkpt lat="48.66204" lon="7.21869">
        <ele>539.1</ele>
        <time>2020-08-18T15:17:19Z</time>
      </trkpt>
      <trkpt lat="48.66213" lon="7.21855">
        <ele>534.9</ele>
        <time>2020-08-18T15:17:21Z</time>
      </trkpt>
      <trkpt lat="48.66225" lon="7.21841">
        <ele>531</ele>
        <time>2020-08-18T15:17:23Z</time>
      </trkpt>
      <trkpt lat="48.66234" lon="7.21828">
        <ele>525.7</ele>
        <time>2020-08-18T15:17:25Z</time>
      </trkpt>
      <trkpt lat="48.66241" lon="7.21815">
        <ele>544.9</ele>
        <time>2020-08-18T15:17:27Z</time>
      </trkpt>
      <trkpt lat="48.66252" lon="7.21803">
        <ele>541.4</ele>
        <time>2020-08-18T15:17:29Z</time>
      </trkpt>
      <trkpt lat="48.66261" lon="7.2179">
        <ele>543</ele>
        <time>2020-08-18T15:17:31Z</time>
      </trkpt>
      <trkpt lat="48.6627" lon="7.21775">
        <ele>541</ele>
        <time>2020-08-18T15:17:33Z</time>
      </trkpt>
      <trkpt lat="48.66277" lon="7.21763">
        <ele>535.7</ele>
        <time>2020-08-18T15:17:35Z</time>
      </trkpt>
      <trkpt lat="48.66285" lon="7.21752">
        <ele>531.5</ele>
        <time>2020-08-18T15:17:37Z</time>
      </trkpt>
      <trkpt lat="48.66296" lon="7.21739">
        <ele>526.3</ele>
        <time>2020-08-18T15:17:39Z</time>
      </trkpt>
      <trkpt lat="48.66308" lon="7.21729">
        <ele>521.4</ele>
        <time>2020-08-18T15:17:41Z</time>
      </trkpt>
      <trkpt lat="48.66315" lon="7.2172">
        <ele>517.9</ele>
        <time>2020-08-18T15:17:43Z</time>
      </trkpt>
      <trkpt lat="48.6632" lon="7.21711">
        <ele>514.7</ele>
        <time>2020-08-18T15:17:45Z</time>
      </trkpt>
      <trkpt lat="48.66325" lon="7.217">
        <ele>512.3</ele>
        <time>2020-08-18T15:17:47Z</time>
      </trkpt>
      <trkpt lat="48.66333" lon="7.21687">
        <ele>509.3</ele>
        <time>2020-08-18T15:17:49Z</time>
      </trkpt>
      <trkpt lat="48.66337" lon="7.21675">
        <ele>506.7</ele>
        <time>2020-08-18T15:17:51Z</time>
      </trkpt>
      <trkpt lat="48.6634" lon="7.21663">
        <ele>504.4</ele>
        <time>2020-08-18T15:17:53Z</time>
      </trkpt>
      <trkpt lat="48.66342" lon="7.21649">
        <ele>501.7</ele>
        <time>2020-08-18T15:17:55Z</time>
      </trkpt>
      <trkpt lat="48.66346" lon="7.21631">
        <ele>500</ele>
        <time>2020-08-18T15:17:57Z</time>
      </trkpt>
      <trkpt lat="48.6635" lon="7.21616">
        <ele>498.6</ele>
        <time>2020-08-18T15:17:59Z</time>
      </trkpt>
      <trkpt lat="48.66354" lon="7.21602">
        <ele>497.3</ele>
        <time>2020-08-18T15:18:01Z</time>
      </trkpt>
      <trkpt lat="48.66357" lon="7.21591">
        <ele>496.6</ele>
        <time>2020-08-18T15:18:03Z</time>
      </trkpt>
      <trkpt lat="48.66361" lon="7.2158">
        <ele>495</ele>
        <time>2020-08-18T15:18:05Z</time>
      </trkpt>
      <trkpt lat="48.66365" lon="7.2157">
        <ele>494.5</ele>
        <time>2020-08-18T15:18:07Z</time>
      </trkpt>
      <trkpt lat="48.66369" lon="7.21559">
        <ele>494.2</ele>
        <time>2020-08-18T15:18:09Z</time>
      </trkpt>
      <trkpt lat="48.66374" lon="7.21546">
        <ele>494.3</ele>
        <time>2020-08-18T15:18:11Z</time>
      </trkpt>
      <trkpt lat="48.66378" lon="7.21533">
        <ele>494.7</ele>
        <time>2020-08-18T15:18:13Z</time>
      </trkpt>
      <trkpt lat="48.66381" lon="7.2152">
        <ele>495.3</ele>
        <time>2020-08-18T15:18:15Z</time>
      </trkpt>
      <trkpt lat="48.66384" lon="7.2151">
        <ele>495.1</ele>
        <time>2020-08-18T15:18:17Z</time>
      </trkpt>
      <trkpt lat="48.66388" lon="7.21499">
        <ele>494.7</ele>
        <time>2020-08-18T15:18:19Z</time>
      </trkpt>
      <trkpt lat="48.66392" lon="7.21486">
        <ele>495.5</ele>
        <time>2020-08-18T15:18:21Z</time>
      </trkpt>
      <trkpt lat="48.66398" lon="7.21474">
        <ele>494.9</ele>
        <time>2020-08-18T15:18:23Z</time>
      </trkpt>
      <trkpt lat="48.66403" lon="7.21462">
        <ele>495</ele>
        <time>2020-08-18T15:18:25Z</time>
      </trkpt>
      <trkpt lat="48.66406" lon="7.21452">
        <ele>494.7</ele>
        <time>2020-08-18T15:18:27Z</time>
      </trkpt>
      <trkpt lat="48.66408" lon="7.21444">
        <ele>494.8</ele>
        <time>2020-08-18T15:18:31Z</time>
      </trkpt>
      <trkpt lat="48.66412" lon="7.21439">
        <ele>498.3</ele>
        <time>2020-08-18T15:18:46Z</time>
      </trkpt>
      <trkpt lat="48.66416" lon="7.21433">
        <ele>499.8</ele>
        <time>2020-08-18T15:18:49Z</time>
      </trkpt>
      <trkpt lat="48.66427" lon="7.21422">
        <ele>499.8</ele>
        <time>2020-08-18T15:18:51Z</time>
      </trkpt>
      <trkpt lat="48.6644" lon="7.21405">
        <ele>500.5</ele>
        <time>2020-08-18T15:18:53Z</time>
      </trkpt>
      <trkpt lat="48.66453" lon="7.21388">
        <ele>500.7</ele>
        <time>2020-08-18T15:18:55Z</time>
      </trkpt>
      <trkpt lat="48.66462" lon="7.21378">
        <ele>501</ele>
        <time>2020-08-18T15:18:57Z</time>
      </trkpt>
      <trkpt lat="48.66468" lon="7.21369">
        <ele>500.6</ele>
        <time>2020-08-18T15:18:59Z</time>
      </trkpt>
      <trkpt lat="48.66473" lon="7.21361">
        <ele>500.5</ele>
        <time>2020-08-18T15:19:01Z</time>
      </trkpt>
      <trkpt lat="48.66477" lon="7.21355">
        <ele>500.4</ele>
        <time>2020-08-18T15:19:03Z</time>
      </trkpt>
      <trkpt lat="48.66482" lon="7.21347">
        <ele>500.8</ele>
        <time>2020-08-18T15:19:06Z</time>
      </trkpt>
      <trkpt lat="48.66486" lon="7.2134">
        <ele>500.8</ele>
        <time>2020-08-18T15:19:08Z</time>
      </trkpt>
      <trkpt lat="48.66491" lon="7.21335">
        <ele>500.9</ele>
        <time>2020-08-18T15:19:10Z</time>
      </trkpt>
      <trkpt lat="48.66498" lon="7.2133">
        <ele>500.9</ele>
        <time>2020-08-18T15:19:12Z</time>
      </trkpt>
      <trkpt lat="48.66505" lon="7.21324">
        <ele>501.7</ele>
        <time>2020-08-18T15:19:14Z</time>
      </trkpt>
      <trkpt lat="48.66514" lon="7.21318">
        <ele>501.8</ele>
        <time>2020-08-18T15:19:16Z</time>
      </trkpt>
      <trkpt lat="48.66523" lon="7.21313">
        <ele>501.6</ele>
        <time>2020-08-18T15:19:18Z</time>
      </trkpt>
      <trkpt lat="48.66539" lon="7.21309">
        <ele>501.4</ele>
        <time>2020-08-18T15:19:20Z</time>
      </trkpt>
      <trkpt lat="48.66549" lon="7.21304">
        <ele>501.4</ele>
        <time>2020-08-18T15:19:22Z</time>
      </trkpt>
      <trkpt lat="48.66554" lon="7.21301">
        <ele>501.5</ele>
        <time>2020-08-18T15:19:24Z</time>
      </trkpt>
      <trkpt lat="48.66558" lon="7.21297">
        <ele>501.9</ele>
        <time>2020-08-18T15:19:27Z</time>
      </trkpt>
      <trkpt lat="48.66562" lon="7.21294">
        <ele>501.1</ele>
        <time>2020-08-18T15:19:33Z</time>
      </trkpt>
      <trkpt lat="48.66567" lon="7.21292">
        <ele>500.3</ele>
        <time>2020-08-18T15:19:40Z</time>
      </trkpt>
      <trkpt lat="48.66573" lon="7.21291">
        <ele>497.9</ele>
        <time>2020-08-18T15:19:51Z</time>
      </trkpt>
      <trkpt lat="48.66578" lon="7.21291">
        <ele>495.7</ele>
        <time>2020-08-18T15:19:55Z</time>
      </trkpt>
      <trkpt lat="48.66582" lon="7.21294">
        <ele>492.9</ele>
        <time>2020-08-18T15:20:02Z</time>
      </trkpt>
      <trkpt lat="48.66587" lon="7.21297">
        <ele>491.2</ele>
        <time>2020-08-18T15:20:07Z</time>
      </trkpt>
      <trkpt lat="48.66592" lon="7.21297">
        <ele>490.6</ele>
        <time>2020-08-18T15:20:12Z</time>
      </trkpt>
      <trkpt lat="48.66597" lon="7.21296">
        <ele>490.2</ele>
        <time>2020-08-18T15:20:15Z</time>
      </trkpt>
      <trkpt lat="48.66603" lon="7.21293">
        <ele>489.9</ele>
        <time>2020-08-18T15:20:19Z</time>
      </trkpt>
      <trkpt lat="48.66608" lon="7.21292">
        <ele>489</ele>
        <time>2020-08-18T15:20:23Z</time>
      </trkpt>
      <trkpt lat="48.66612" lon="7.21291">
        <ele>488.5</ele>
        <time>2020-08-18T15:20:28Z</time>
      </trkpt>
      <trkpt lat="48.66617" lon="7.21288">
        <ele>489.5</ele>
        <time>2020-08-18T15:20:40Z</time>
      </trkpt>
      <trkpt lat="48.6662" lon="7.21284">
        <ele>491.5</ele>
        <time>2020-08-18T15:20:49Z</time>
      </trkpt>
      <trkpt lat="48.66625" lon="7.21283">
        <ele>491.1</ele>
        <time>2020-08-18T15:20:54Z</time>
      </trkpt>
      <trkpt lat="48.6663" lon="7.21283">
        <ele>491.5</ele>
        <time>2020-08-18T15:20:56Z</time>
      </trkpt>
      <trkpt lat="48.66638" lon="7.2128">
        <ele>491.2</ele>
        <time>2020-08-18T15:20:58Z</time>
      </trkpt>
      <trkpt lat="48.66647" lon="7.21277">
        <ele>491.6</ele>
        <time>2020-08-18T15:21:00Z</time>
      </trkpt>
      <trkpt lat="48.66661" lon="7.21272">
        <ele>491.9</ele>
        <time>2020-08-18T15:21:02Z</time>
      </trkpt>
      <trkpt lat="48.66672" lon="7.21266">
        <ele>491.6</ele>
        <time>2020-08-18T15:21:04Z</time>
      </trkpt>
      <trkpt lat="48.66681" lon="7.2126">
        <ele>491.5</ele>
        <time>2020-08-18T15:21:06Z</time>
      </trkpt>
      <trkpt lat="48.66687" lon="7.21252">
        <ele>491.3</ele>
        <time>2020-08-18T15:21:08Z</time>
      </trkpt>
      <trkpt lat="48.66692" lon="7.21242">
        <ele>490.5</ele>
        <time>2020-08-18T15:21:10Z</time>
      </trkpt>
      <trkpt lat="48.66698" lon="7.21233">
        <ele>490.3</ele>
        <time>2020-08-18T15:21:12Z</time>
      </trkpt>
      <trkpt lat="48.66702" lon="7.21221">
        <ele>490.4</ele>
        <time>2020-08-18T15:21:14Z</time>
      </trkpt>
      <trkpt lat="48.66704" lon="7.21206">
        <ele>490.1</ele>
        <time>2020-08-18T15:21:16Z</time>
      </trkpt>
      <trkpt lat="48.66705" lon="7.21189">
        <ele>490</ele>
        <time>2020-08-18T15:21:18Z</time>
      </trkpt>
      <trkpt lat="48.66708" lon="7.21176">
        <ele>489.5</ele>
        <time>2020-08-18T15:21:20Z</time>
      </trkpt>
      <trkpt lat="48.6671" lon="7.21164">
        <ele>488.1</ele>
        <time>2020-08-18T15:21:22Z</time>
      </trkpt>
      <trkpt lat="48.66712" lon="7.2115">
        <ele>486.5</ele>
        <time>2020-08-18T15:21:24Z</time>
      </trkpt>
      <trkpt lat="48.66715" lon="7.21136">
        <ele>484.9</ele>
        <time>2020-08-18T15:21:26Z</time>
      </trkpt>
      <trkpt lat="48.66721" lon="7.21121">
        <ele>484</ele>
        <time>2020-08-18T15:21:28Z</time>
      </trkpt>
      <trkpt lat="48.66726" lon="7.21104">
        <ele>482.8</ele>
        <time>2020-08-18T15:21:30Z</time>
      </trkpt>
      <trkpt lat="48.66731" lon="7.21087">
        <ele>482.8</ele>
        <time>2020-08-18T15:21:32Z</time>
      </trkpt>
      <trkpt lat="48.66734" lon="7.21072">
        <ele>481.7</ele>
        <time>2020-08-18T15:21:34Z</time>
      </trkpt>
      <trkpt lat="48.66738" lon="7.21055">
        <ele>481.3</ele>
        <time>2020-08-18T15:21:36Z</time>
      </trkpt>
      <trkpt lat="48.66742" lon="7.21037">
        <ele>481.2</ele>
        <time>2020-08-18T15:21:38Z</time>
      </trkpt>
      <trkpt lat="48.66744" lon="7.21023">
        <ele>481.4</ele>
        <time>2020-08-18T15:21:40Z</time>
      </trkpt>
      <trkpt lat="48.66745" lon="7.21012">
        <ele>481.2</ele>
        <time>2020-08-18T15:21:42Z</time>
      </trkpt>
      <trkpt lat="48.66744" lon="7.21">
        <ele>481</ele>
        <time>2020-08-18T15:21:44Z</time>
      </trkpt>
      <trkpt lat="48.6674" lon="7.20986">
        <ele>481.2</ele>
        <time>2020-08-18T15:21:46Z</time>
      </trkpt>
      <trkpt lat="48.66738" lon="7.20973">
        <ele>482</ele>
        <time>2020-08-18T15:21:48Z</time>
      </trkpt>
      <trkpt lat="48.66738" lon="7.20959">
        <ele>482.7</ele>
        <time>2020-08-18T15:21:50Z</time>
      </trkpt>
      <trkpt lat="48.66739" lon="7.20947">
        <ele>482.9</ele>
        <time>2020-08-18T15:21:52Z</time>
      </trkpt>
      <trkpt lat="48.66741" lon="7.20937">
        <ele>483.2</ele>
        <time>2020-08-18T15:21:54Z</time>
      </trkpt>
      <trkpt lat="48.66743" lon="7.20928">
        <ele>483.2</ele>
        <time>2020-08-18T15:21:56Z</time>
      </trkpt>
      <trkpt lat="48.66743" lon="7.20921">
        <ele>484.4</ele>
        <time>2020-08-18T15:21:59Z</time>
      </trkpt>
      <trkpt lat="48.66746" lon="7.20914">
        <ele>486.4</ele>
        <time>2020-08-18T15:22:07Z</time>
      </trkpt>
      <trkpt lat="48.66749" lon="7.20905">
        <ele>486.4</ele>
        <time>2020-08-18T15:22:10Z</time>
      </trkpt>
      <trkpt lat="48.66754" lon="7.20897">
        <ele>485.9</ele>
        <time>2020-08-18T15:22:12Z</time>
      </trkpt>
      <trkpt lat="48.66759" lon="7.20888">
        <ele>484.7</ele>
        <time>2020-08-18T15:22:14Z</time>
      </trkpt>
      <trkpt lat="48.66766" lon="7.20875">
        <ele>483.3</ele>
        <time>2020-08-18T15:22:16Z</time>
      </trkpt>
      <trkpt lat="48.66772" lon="7.20859">
        <ele>481.9</ele>
        <time>2020-08-18T15:22:18Z</time>
      </trkpt>
      <trkpt lat="48.66775" lon="7.20845">
        <ele>485</ele>
        <time>2020-08-18T15:22:20Z</time>
      </trkpt>
      <trkpt lat="48.66779" lon="7.20832">
        <ele>485.8</ele>
        <time>2020-08-18T15:22:22Z</time>
      </trkpt>
      <trkpt lat="48.66784" lon="7.20817">
        <ele>485.7</ele>
        <time>2020-08-18T15:22:24Z</time>
      </trkpt>
      <trkpt lat="48.66789" lon="7.20803">
        <ele>484.8</ele>
        <time>2020-08-18T15:22:26Z</time>
      </trkpt>
      <trkpt lat="48.66793" lon="7.20788">
        <ele>483.8</ele>
        <time>2020-08-18T15:22:28Z</time>
      </trkpt>
      <trkpt lat="48.66798" lon="7.20774">
        <ele>482.9</ele>
        <time>2020-08-18T15:22:30Z</time>
      </trkpt>
      <trkpt lat="48.66801" lon="7.20759">
        <ele>481.7</ele>
        <time>2020-08-18T15:22:32Z</time>
      </trkpt>
      <trkpt lat="48.66805" lon="7.20748">
        <ele>480.9</ele>
        <time>2020-08-18T15:22:34Z</time>
      </trkpt>
      <trkpt lat="48.66811" lon="7.20735">
        <ele>480.6</ele>
        <time>2020-08-18T15:22:36Z</time>
      </trkpt>
      <trkpt lat="48.66818" lon="7.20722">
        <ele>479.3</ele>
        <time>2020-08-18T15:22:38Z</time>
      </trkpt>
      <trkpt lat="48.66828" lon="7.20709">
        <ele>478.4</ele>
        <time>2020-08-18T15:22:40Z</time>
      </trkpt>
      <trkpt lat="48.66839" lon="7.20695">
        <ele>478.1</ele>
        <time>2020-08-18T15:22:42Z</time>
      </trkpt>
      <trkpt lat="48.66848" lon="7.20685">
        <ele>478</ele>
        <time>2020-08-18T15:22:44Z</time>
      </trkpt>
      <trkpt lat="48.66856" lon="7.20671">
        <ele>477.4</ele>
        <time>2020-08-18T15:22:46Z</time>
      </trkpt>
      <trkpt lat="48.66864" lon="7.20657">
        <ele>476.8</ele>
        <time>2020-08-18T15:22:48Z</time>
      </trkpt>
      <trkpt lat="48.66871" lon="7.20642">
        <ele>475.3</ele>
        <time>2020-08-18T15:22:50Z</time>
      </trkpt>
      <trkpt lat="48.66875" lon="7.20624">
        <ele>475.4</ele>
        <time>2020-08-18T15:22:52Z</time>
      </trkpt>
      <trkpt lat="48.66879" lon="7.20607">
        <ele>475.7</ele>
        <time>2020-08-18T15:22:54Z</time>
      </trkpt>
      <trkpt lat="48.66883" lon="7.20592">
        <ele>474</ele>
        <time>2020-08-18T15:22:56Z</time>
      </trkpt>
      <trkpt lat="48.66889" lon="7.20579">
        <ele>473.2</ele>
        <time>2020-08-18T15:22:58Z</time>
      </trkpt>
      <trkpt lat="48.66896" lon="7.20565">
        <ele>471.5</ele>
        <time>2020-08-18T15:23:00Z</time>
      </trkpt>
      <trkpt lat="48.66903" lon="7.20554">
        <ele>470.1</ele>
        <time>2020-08-18T15:23:02Z</time>
      </trkpt>
      <trkpt lat="48.66912" lon="7.20544">
        <ele>469.1</ele>
        <time>2020-08-18T15:23:04Z</time>
      </trkpt>
      <trkpt lat="48.66923" lon="7.20534">
        <ele>472.3</ele>
        <time>2020-08-18T15:23:06Z</time>
      </trkpt>
      <trkpt lat="48.66935" lon="7.20527">
        <ele>471.7</ele>
        <time>2020-08-18T15:23:08Z</time>
      </trkpt>
      <trkpt lat="48.66947" lon="7.2052">
        <ele>473.6</ele>
        <time>2020-08-18T15:23:10Z</time>
      </trkpt>
      <trkpt lat="48.66959" lon="7.20514">
        <ele>473.4</ele>
        <time>2020-08-18T15:23:12Z</time>
      </trkpt>
      <trkpt lat="48.6697" lon="7.2051">
        <ele>471.6</ele>
        <time>2020-08-18T15:23:14Z</time>
      </trkpt>
      <trkpt lat="48.6698" lon="7.20505">
        <ele>470.1</ele>
        <time>2020-08-18T15:23:16Z</time>
      </trkpt>
      <trkpt lat="48.6699" lon="7.205">
        <ele>467.4</ele>
        <time>2020-08-18T15:23:18Z</time>
      </trkpt>
      <trkpt lat="48.66999" lon="7.20495">
        <ele>465</ele>
        <time>2020-08-18T15:23:20Z</time>
      </trkpt>
      <trkpt lat="48.67009" lon="7.20493">
        <ele>461.6</ele>
        <time>2020-08-18T15:23:22Z</time>
      </trkpt>
      <trkpt lat="48.67019" lon="7.2049">
        <ele>459.1</ele>
        <time>2020-08-18T15:23:24Z</time>
      </trkpt>
      <trkpt lat="48.67029" lon="7.20486">
        <ele>456.6</ele>
        <time>2020-08-18T15:23:26Z</time>
      </trkpt>
      <trkpt lat="48.67035" lon="7.20484">
        <ele>454.7</ele>
        <time>2020-08-18T15:23:28Z</time>
      </trkpt>
      <trkpt lat="48.67037" lon="7.20477">
        <ele>450.5</ele>
        <time>2020-08-18T15:23:54Z</time>
      </trkpt>
      <trkpt lat="48.67041" lon="7.20471">
        <ele>450.1</ele>
        <time>2020-08-18T15:23:56Z</time>
      </trkpt>
      <trkpt lat="48.67045" lon="7.20462">
        <ele>455.1</ele>
        <time>2020-08-18T15:23:58Z</time>
      </trkpt>
      <trkpt lat="48.67049" lon="7.20452">
        <ele>454</ele>
        <time>2020-08-18T15:24:00Z</time>
      </trkpt>
      <trkpt lat="48.67053" lon="7.20442">
        <ele>453.6</ele>
        <time>2020-08-18T15:24:02Z</time>
      </trkpt>
      <trkpt lat="48.67058" lon="7.20436">
        <ele>453.9</ele>
        <time>2020-08-18T15:24:04Z</time>
      </trkpt>
      <trkpt lat="48.6706" lon="7.20426">
        <ele>447</ele>
        <time>2020-08-18T15:24:20Z</time>
      </trkpt>
      <trkpt lat="48.67063" lon="7.20417">
        <ele>445.3</ele>
        <time>2020-08-18T15:24:22Z</time>
      </trkpt>
      <trkpt lat="48.67066" lon="7.20406">
        <ele>444.2</ele>
        <time>2020-08-18T15:24:24Z</time>
      </trkpt>
      <trkpt lat="48.67071" lon="7.20393">
        <ele>443.3</ele>
        <time>2020-08-18T15:24:26Z</time>
      </trkpt>
      <trkpt lat="48.67076" lon="7.20382">
        <ele>442.1</ele>
        <time>2020-08-18T15:24:28Z</time>
      </trkpt>
      <trkpt lat="48.6708" lon="7.20373">
        <ele>441.4</ele>
        <time>2020-08-18T15:24:30Z</time>
      </trkpt>
      <trkpt lat="48.67082" lon="7.20366">
        <ele>440.6</ele>
        <time>2020-08-18T15:24:34Z</time>
      </trkpt>
      <trkpt lat="48.67083" lon="7.20359">
        <ele>439.3</ele>
        <time>2020-08-18T15:24:44Z</time>
      </trkpt>
      <trkpt lat="48.67084" lon="7.20352">
        <ele>437.2</ele>
        <time>2020-08-18T15:24:54Z</time>
      </trkpt>
      <trkpt lat="48.67087" lon="7.20343">
        <ele>436.3</ele>
        <time>2020-08-18T15:24:57Z</time>
      </trkpt>
      <trkpt lat="48.67088" lon="7.20334">
        <ele>435.4</ele>
        <time>2020-08-18T15:24:59Z</time>
      </trkpt>
      <trkpt lat="48.67087" lon="7.20327">
        <ele>434.4</ele>
        <time>2020-08-18T15:25:01Z</time>
      </trkpt>
      <trkpt lat="48.67087" lon="7.2032">
        <ele>432.5</ele>
        <time>2020-08-18T15:25:06Z</time>
      </trkpt>
      <trkpt lat="48.67086" lon="7.20313">
        <ele>430.4</ele>
        <time>2020-08-18T15:25:14Z</time>
      </trkpt>
      <trkpt lat="48.67088" lon="7.20304">
        <ele>427.2</ele>
        <time>2020-08-18T15:25:29Z</time>
      </trkpt>
      <trkpt lat="48.67089" lon="7.20295">
        <ele>427.3</ele>
        <time>2020-08-18T15:25:32Z</time>
      </trkpt>
      <trkpt lat="48.67094" lon="7.20286">
        <ele>426.7</ele>
        <time>2020-08-18T15:25:34Z</time>
      </trkpt>
      <trkpt lat="48.67101" lon="7.20278">
        <ele>426</ele>
        <time>2020-08-18T15:25:36Z</time>
      </trkpt>
      <trkpt lat="48.67108" lon="7.2027">
        <ele>425.6</ele>
        <time>2020-08-18T15:25:38Z</time>
      </trkpt>
      <trkpt lat="48.67113" lon="7.20266">
        <ele>426.2</ele>
        <time>2020-08-18T15:25:40Z</time>
      </trkpt>
      <trkpt lat="48.67118" lon="7.20261">
        <ele>425.7</ele>
        <time>2020-08-18T15:25:42Z</time>
      </trkpt>
      <trkpt lat="48.67124" lon="7.20257">
        <ele>425.4</ele>
        <time>2020-08-18T15:25:44Z</time>
      </trkpt>
      <trkpt lat="48.67129" lon="7.20253">
        <ele>425.2</ele>
        <time>2020-08-18T15:25:46Z</time>
      </trkpt>
      <trkpt lat="48.67133" lon="7.20247">
        <ele>425.1</ele>
        <time>2020-08-18T15:25:49Z</time>
      </trkpt>
      <trkpt lat="48.67137" lon="7.20244">
        <ele>422.9</ele>
        <time>2020-08-18T15:25:53Z</time>
      </trkpt>
      <trkpt lat="48.67133" lon="7.20241">
        <ele>419.1</ele>
        <time>2020-08-18T15:26:09Z</time>
      </trkpt>
      <trkpt lat="48.67128" lon="7.20239">
        <ele>419.9</ele>
        <time>2020-08-18T15:26:11Z</time>
      </trkpt>
      <trkpt lat="48.67121" lon="7.20238">
        <ele>419.8</ele>
        <time>2020-08-18T15:26:13Z</time>
      </trkpt>
      <trkpt lat="48.67114" lon="7.2024">
        <ele>419.7</ele>
        <time>2020-08-18T15:26:15Z</time>
      </trkpt>
      <trkpt lat="48.6711" lon="7.20242">
        <ele>419.5</ele>
        <time>2020-08-18T15:26:17Z</time>
      </trkpt>
      <trkpt lat="48.67106" lon="7.20247">
        <ele>420.2</ele>
        <time>2020-08-18T15:26:21Z</time>
      </trkpt>
      <trkpt lat="48.67103" lon="7.20252">
        <ele>420.8</ele>
        <time>2020-08-18T15:26:27Z</time>
      </trkpt>
      <trkpt lat="48.67105" lon="7.20244">
        <ele>420.6</ele>
        <time>2020-08-18T15:26:36Z</time>
      </trkpt>
      <trkpt lat="48.67108" lon="7.20236">
        <ele>419.4</ele>
        <time>2020-08-18T15:26:39Z</time>
      </trkpt>
      <trkpt lat="48.67111" lon="7.2023">
        <ele>417.2</ele>
        <time>2020-08-18T15:26:44Z</time>
      </trkpt>
      <trkpt lat="48.67115" lon="7.20225">
        <ele>416.8</ele>
        <time>2020-08-18T15:26:46Z</time>
      </trkpt>
      <trkpt lat="48.6712" lon="7.20219">
        <ele>416</ele>
        <time>2020-08-18T15:26:48Z</time>
      </trkpt>
      <trkpt lat="48.67125" lon="7.20214">
        <ele>414.7</ele>
        <time>2020-08-18T15:26:50Z</time>
      </trkpt>
      <trkpt lat="48.67129" lon="7.2021">
        <ele>413.5</ele>
        <time>2020-08-18T15:26:52Z</time>
      </trkpt>
      <trkpt lat="48.67134" lon="7.20206">
        <ele>412.3</ele>
        <time>2020-08-18T15:26:55Z</time>
      </trkpt>
      <trkpt lat="48.6714" lon="7.20203">
        <ele>409.7</ele>
        <time>2020-08-18T15:26:58Z</time>
      </trkpt>
      <trkpt lat="48.67145" lon="7.20201">
        <ele>406</ele>
        <time>2020-08-18T15:27:03Z</time>
      </trkpt>
      <trkpt lat="48.67147" lon="7.20196">
        <ele>404.2</ele>
        <time>2020-08-18T15:27:10Z</time>
      </trkpt>
      <trkpt lat="48.67153" lon="7.20192">
        <ele>403.9</ele>
        <time>2020-08-18T15:27:20Z</time>
      </trkpt>
      <trkpt lat="48.67159" lon="7.20194">
        <ele>403.6</ele>
        <time>2020-08-18T15:27:22Z</time>
      </trkpt>
      <trkpt lat="48.67167" lon="7.20196">
        <ele>403</ele>
        <time>2020-08-18T15:27:24Z</time>
      </trkpt>
      <trkpt lat="48.67174" lon="7.20197">
        <ele>404.6</ele>
        <time>2020-08-18T15:27:26Z</time>
      </trkpt>
      <trkpt lat="48.6718" lon="7.20194">
        <ele>405.3</ele>
        <time>2020-08-18T15:27:29Z</time>
      </trkpt>
      <trkpt lat="48.67182" lon="7.20187">
        <ele>404.6</ele>
        <time>2020-08-18T15:27:33Z</time>
      </trkpt>
      <trkpt lat="48.67183" lon="7.2018">
        <ele>403.5</ele>
        <time>2020-08-18T15:27:39Z</time>
      </trkpt>
      <trkpt lat="48.67181" lon="7.20173">
        <ele>400.2</ele>
        <time>2020-08-18T15:27:46Z</time>
      </trkpt>
      <trkpt lat="48.67176" lon="7.2017">
        <ele>396.3</ele>
        <time>2020-08-18T15:27:52Z</time>
      </trkpt>
      <trkpt lat="48.67172" lon="7.20169">
        <ele>394.3</ele>
        <time>2020-08-18T15:27:56Z</time>
      </trkpt>
      <trkpt lat="48.67166" lon="7.20169">
        <ele>388.1</ele>
        <time>2020-08-18T15:28:02Z</time>
      </trkpt>
      <trkpt lat="48.67162" lon="7.20163">
        <ele>385</ele>
        <time>2020-08-18T15:28:06Z</time>
      </trkpt>
      <trkpt lat="48.67163" lon="7.20156">
        <ele>380.8</ele>
        <time>2020-08-18T15:28:19Z</time>
      </trkpt>
      <trkpt lat="48.67169" lon="7.2015">
        <ele>379.8</ele>
        <time>2020-08-18T15:28:22Z</time>
      </trkpt>
      <trkpt lat="48.67179" lon="7.20147">
        <ele>379</ele>
        <time>2020-08-18T15:28:24Z</time>
      </trkpt>
      <trkpt lat="48.67185" lon="7.20145">
        <ele>378.6</ele>
        <time>2020-08-18T15:28:26Z</time>
      </trkpt>
      <trkpt lat="48.67189" lon="7.20143">
        <ele>378.4</ele>
        <time>2020-08-18T15:28:31Z</time>
      </trkpt>
      <trkpt lat="48.67192" lon="7.20137">
        <ele>378.9</ele>
        <time>2020-08-18T15:28:44Z</time>
      </trkpt>
      <trkpt lat="48.67187" lon="7.20138">
        <ele>381.8</ele>
        <time>2020-08-18T15:29:01Z</time>
      </trkpt>
      <trkpt lat="48.67182" lon="7.2014">
        <ele>382.4</ele>
        <time>2020-08-18T15:29:05Z</time>
      </trkpt>
      <trkpt lat="48.67177" lon="7.20142">
        <ele>382.9</ele>
        <time>2020-08-18T15:29:09Z</time>
      </trkpt>
      <trkpt lat="48.67172" lon="7.20146">
        <ele>382.9</ele>
        <time>2020-08-18T15:29:13Z</time>
      </trkpt>
      <trkpt lat="48.67169" lon="7.20151">
        <ele>383.6</ele>
        <time>2020-08-18T15:29:18Z</time>
      </trkpt>
      <trkpt lat="48.67163" lon="7.2015">
        <ele>395.3</ele>
        <time>2020-08-18T15:29:34Z</time>
      </trkpt>
      <trkpt lat="48.67157" lon="7.2015">
        <ele>394.7</ele>
        <time>2020-08-18T15:29:37Z</time>
      </trkpt>
      <trkpt lat="48.67151" lon="7.20149">
        <ele>394</ele>
        <time>2020-08-18T15:29:40Z</time>
      </trkpt>
      <trkpt lat="48.67146" lon="7.20148">
        <ele>393.1</ele>
        <time>2020-08-18T15:29:42Z</time>
      </trkpt>
      <trkpt lat="48.67142" lon="7.2015">
        <ele>391.5</ele>
        <time>2020-08-18T15:29:45Z</time>
      </trkpt>
      <trkpt lat="48.67148" lon="7.20153">
        <ele>389</ele>
        <time>2020-08-18T15:29:49Z</time>
      </trkpt>
      <trkpt lat="48.67154" lon="7.20154">
        <ele>387.8</ele>
        <time>2020-08-18T15:29:51Z</time>
      </trkpt>
      <trkpt lat="48.67162" lon="7.20155">
        <ele>387.4</ele>
        <time>2020-08-18T15:29:53Z</time>
      </trkpt>
      <trkpt lat="48.6717" lon="7.20156">
        <ele>386.6</ele>
        <time>2020-08-18T15:29:55Z</time>
      </trkpt>
      <trkpt lat="48.67178" lon="7.20159">
        <ele>386.2</ele>
        <time>2020-08-18T15:29:57Z</time>
      </trkpt>
      <trkpt lat="48.67185" lon="7.20162">
        <ele>385.9</ele>
        <time>2020-08-18T15:29:59Z</time>
      </trkpt>
      <trkpt lat="48.67193" lon="7.20166">
        <ele>384.9</ele>
        <time>2020-08-18T15:30:01Z</time>
      </trkpt>
      <trkpt lat="48.672" lon="7.20173">
        <ele>384.3</ele>
        <time>2020-08-18T15:30:03Z</time>
      </trkpt>
      <trkpt lat="48.67206" lon="7.20179">
        <ele>383.5</ele>
        <time>2020-08-18T15:30:05Z</time>
      </trkpt>
      <trkpt lat="48.67211" lon="7.20184">
        <ele>382.7</ele>
        <time>2020-08-18T15:30:07Z</time>
      </trkpt>
      <trkpt lat="48.67206" lon="7.20181">
        <ele>382.7</ele>
        <time>2020-08-18T15:30:36Z</time>
      </trkpt>
      <trkpt lat="48.672" lon="7.20176">
        <ele>382</ele>
        <time>2020-08-18T15:30:39Z</time>
      </trkpt>
      <trkpt lat="48.67196" lon="7.20173">
        <ele>381.8</ele>
        <time>2020-08-18T15:30:41Z</time>
      </trkpt>
      <trkpt lat="48.6719" lon="7.20169">
        <ele>381.2</ele>
        <time>2020-08-18T15:30:43Z</time>
      </trkpt>
      <trkpt lat="48.67184" lon="7.20165">
        <ele>380.7</ele>
        <time>2020-08-18T15:30:45Z</time>
      </trkpt>
      <trkpt lat="48.67179" lon="7.20161">
        <ele>380.7</ele>
        <time>2020-08-18T15:30:47Z</time>
      </trkpt>
      <trkpt lat="48.67172" lon="7.20158">
        <ele>381.1</ele>
        <time>2020-08-18T15:30:49Z</time>
      </trkpt>
      <trkpt lat="48.67168" lon="7.20158">
        <ele>381.6</ele>
        <time>2020-08-18T15:30:53Z</time>
      </trkpt>
      <trkpt lat="48.67163" lon="7.20158">
        <ele>383.3</ele>
        <time>2020-08-18T15:31:05Z</time>
      </trkpt>
      <trkpt lat="48.6716" lon="7.20152">
        <ele>413.1</ele>
        <time>2020-08-18T15:31:37Z</time>
      </trkpt>
      <trkpt lat="48.67154" lon="7.20152">
        <ele>420.5</ele>
        <time>2020-08-18T15:31:43Z</time>
      </trkpt>
      <trkpt lat="48.67149" lon="7.2015">
        <ele>412.3</ele>
        <time>2020-08-18T15:31:48Z</time>
      </trkpt>
      <trkpt lat="48.67144" lon="7.2015">
        <ele>404.8</ele>
        <time>2020-08-18T15:31:53Z</time>
      </trkpt>
      <trkpt lat="48.67149" lon="7.20152">
        <ele>397.3</ele>
        <time>2020-08-18T15:32:01Z</time>
      </trkpt>
      <trkpt lat="48.67154" lon="7.20153">
        <ele>395.8</ele>
        <time>2020-08-18T15:32:03Z</time>
      </trkpt>
      <trkpt lat="48.67159" lon="7.20153">
        <ele>392.9</ele>
        <time>2020-08-18T15:32:06Z</time>
      </trkpt>
      <trkpt lat="48.67163" lon="7.20148">
        <ele>388.1</ele>
        <time>2020-08-18T15:32:36Z</time>
      </trkpt>
      <trkpt lat="48.67168" lon="7.20146">
        <ele>386.3</ele>
        <time>2020-08-18T15:32:38Z</time>
      </trkpt>
      <trkpt lat="48.67174" lon="7.20144">
        <ele>384.6</ele>
        <time>2020-08-18T15:32:40Z</time>
      </trkpt>
      <trkpt lat="48.6718" lon="7.20142">
        <ele>383.6</ele>
        <time>2020-08-18T15:32:42Z</time>
      </trkpt>
      <trkpt lat="48.67186" lon="7.20141">
        <ele>382.1</ele>
        <time>2020-08-18T15:32:45Z</time>
      </trkpt>
      <trkpt lat="48.6719" lon="7.20141">
        <ele>381.8</ele>
        <time>2020-08-18T15:32:47Z</time>
      </trkpt>
      <trkpt lat="48.67199" lon="7.20138">
        <ele>380.3</ele>
        <time>2020-08-18T15:32:49Z</time>
      </trkpt>
      <trkpt lat="48.67209" lon="7.20138">
        <ele>378.9</ele>
        <time>2020-08-18T15:32:51Z</time>
      </trkpt>
      <trkpt lat="48.67221" lon="7.20141">
        <ele>377.6</ele>
        <time>2020-08-18T15:32:53Z</time>
      </trkpt>
      <trkpt lat="48.67235" lon="7.20142">
        <ele>376.5</ele>
        <time>2020-08-18T15:32:55Z</time>
      </trkpt>
      <trkpt lat="48.67249" lon="7.20142">
        <ele>376.2</ele>
        <time>2020-08-18T15:32:57Z</time>
      </trkpt>
      <trkpt lat="48.67262" lon="7.20143">
        <ele>375.1</ele>
        <time>2020-08-18T15:32:59Z</time>
      </trkpt>
      <trkpt lat="48.67272" lon="7.20149">
        <ele>372.9</ele>
        <time>2020-08-18T15:33:01Z</time>
      </trkpt>
      <trkpt lat="48.67279" lon="7.20156">
        <ele>371.7</ele>
        <time>2020-08-18T15:33:03Z</time>
      </trkpt>
      <trkpt lat="48.67285" lon="7.20166">
        <ele>370.1</ele>
        <time>2020-08-18T15:33:05Z</time>
      </trkpt>
      <trkpt lat="48.6729" lon="7.20177">
        <ele>378.4</ele>
        <time>2020-08-18T15:33:07Z</time>
      </trkpt>
      <trkpt lat="48.67293" lon="7.20189">
        <ele>377.6</ele>
        <time>2020-08-18T15:33:09Z</time>
      </trkpt>
      <trkpt lat="48.67295" lon="7.20201">
        <ele>379.1</ele>
        <time>2020-08-18T15:33:11Z</time>
      </trkpt>
      <trkpt lat="48.67294" lon="7.20215">
        <ele>377.3</ele>
        <time>2020-08-18T15:33:13Z</time>
      </trkpt>
      <trkpt lat="48.67295" lon="7.20229">
        <ele>376.3</ele>
        <time>2020-08-18T15:33:15Z</time>
      </trkpt>
      <trkpt lat="48.67295" lon="7.20245">
        <ele>374.7</ele>
        <time>2020-08-18T15:33:17Z</time>
      </trkpt>
      <trkpt lat="48.67291" lon="7.2026">
        <ele>383.8</ele>
        <time>2020-08-18T15:33:19Z</time>
      </trkpt>
      <trkpt lat="48.67289" lon="7.20277">
        <ele>382.4</ele>
        <time>2020-08-18T15:33:21Z</time>
      </trkpt>
      <trkpt lat="48.67284" lon="7.20294">
        <ele>380.8</ele>
        <time>2020-08-18T15:33:23Z</time>
      </trkpt>
      <trkpt lat="48.67282" lon="7.20307">
        <ele>378.3</ele>
        <time>2020-08-18T15:33:25Z</time>
      </trkpt>
      <trkpt lat="48.67282" lon="7.20315">
        <ele>376.8</ele>
        <time>2020-08-18T15:33:27Z</time>
      </trkpt>
      <trkpt lat="48.67285" lon="7.20321">
        <ele>372.3</ele>
        <time>2020-08-18T15:33:33Z</time>
      </trkpt>
      <trkpt lat="48.67289" lon="7.20317">
        <ele>369.6</ele>
        <time>2020-08-18T15:33:36Z</time>
      </trkpt>
      <trkpt lat="48.67294" lon="7.20311">
        <ele>367.4</ele>
        <time>2020-08-18T15:33:38Z</time>
      </trkpt>
      <trkpt lat="48.673" lon="7.20303">
        <ele>366</ele>
        <time>2020-08-18T15:33:40Z</time>
      </trkpt>
      <trkpt lat="48.67306" lon="7.20292">
        <ele>365</ele>
        <time>2020-08-18T15:33:42Z</time>
      </trkpt>
      <trkpt lat="48.67311" lon="7.20279">
        <ele>364</ele>
        <time>2020-08-18T15:33:44Z</time>
      </trkpt>
      <trkpt lat="48.67316" lon="7.20265">
        <ele>362.2</ele>
        <time>2020-08-18T15:33:46Z</time>
      </trkpt>
      <trkpt lat="48.67321" lon="7.20249">
        <ele>360.6</ele>
        <time>2020-08-18T15:33:48Z</time>
      </trkpt>
      <trkpt lat="48.67326" lon="7.20235">
        <ele>358.8</ele>
        <time>2020-08-18T15:33:50Z</time>
      </trkpt>
      <trkpt lat="48.67332" lon="7.20222">
        <ele>357.4</ele>
        <time>2020-08-18T15:33:52Z</time>
      </trkpt>
      <trkpt lat="48.67334" lon="7.20208">
        <ele>354.9</ele>
        <time>2020-08-18T15:33:54Z</time>
      </trkpt>
      <trkpt lat="48.67336" lon="7.202">
        <ele>354</ele>
        <time>2020-08-18T15:33:56Z</time>
      </trkpt>
      <trkpt lat="48.6734" lon="7.20195">
        <ele>352.7</ele>
        <time>2020-08-18T15:34:00Z</time>
      </trkpt>
      <trkpt lat="48.67344" lon="7.20188">
        <ele>351.3</ele>
        <time>2020-08-18T15:34:08Z</time>
      </trkpt>
      <trkpt lat="48.67344" lon="7.2018">
        <ele>349.7</ele>
        <time>2020-08-18T15:34:10Z</time>
      </trkpt>
      <trkpt lat="48.67344" lon="7.20171">
        <ele>348.2</ele>
        <time>2020-08-18T15:34:12Z</time>
      </trkpt>
      <trkpt lat="48.67343" lon="7.20162">
        <ele>346.3</ele>
        <time>2020-08-18T15:34:15Z</time>
      </trkpt>
      <trkpt lat="48.67341" lon="7.20153">
        <ele>344.9</ele>
        <time>2020-08-18T15:34:17Z</time>
      </trkpt>
      <trkpt lat="48.67338" lon="7.20143">
        <ele>343.6</ele>
        <time>2020-08-18T15:34:19Z</time>
      </trkpt>
      <trkpt lat="48.67333" lon="7.20133">
        <ele>342.7</ele>
        <time>2020-08-18T15:34:21Z</time>
      </trkpt>
      <trkpt lat="48.67328" lon="7.20123">
        <ele>342.1</ele>
        <time>2020-08-18T15:34:23Z</time>
      </trkpt>
      <trkpt lat="48.67323" lon="7.20114">
        <ele>341.5</ele>
        <time>2020-08-18T15:34:25Z</time>
      </trkpt>
      <trkpt lat="48.67315" lon="7.20105">
        <ele>340.6</ele>
        <time>2020-08-18T15:34:27Z</time>
      </trkpt>
      <trkpt lat="48.67308" lon="7.20095">
        <ele>339.6</ele>
        <time>2020-08-18T15:34:29Z</time>
      </trkpt>
      <trkpt lat="48.67303" lon="7.20084">
        <ele>339.1</ele>
        <time>2020-08-18T15:34:31Z</time>
      </trkpt>
      <trkpt lat="48.67297" lon="7.20073">
        <ele>338.4</ele>
        <time>2020-08-18T15:34:33Z</time>
      </trkpt>
      <trkpt lat="48.6729" lon="7.20059">
        <ele>337.7</ele>
        <time>2020-08-18T15:34:35Z</time>
      </trkpt>
      <trkpt lat="48.67284" lon="7.20047">
        <ele>337.9</ele>
        <time>2020-08-18T15:34:37Z</time>
      </trkpt>
      <trkpt lat="48.67275" lon="7.20037">
        <ele>337.6</ele>
        <time>2020-08-18T15:34:39Z</time>
      </trkpt>
      <trkpt lat="48.67264" lon="7.20028">
        <ele>337.2</ele>
        <time>2020-08-18T15:34:41Z</time>
      </trkpt>
      <trkpt lat="48.67254" lon="7.20021">
        <ele>337.6</ele>
        <time>2020-08-18T15:34:43Z</time>
      </trkpt>
      <trkpt lat="48.67244" lon="7.20015">
        <ele>337</ele>
        <time>2020-08-18T15:34:45Z</time>
      </trkpt>
      <trkpt lat="48.67235" lon="7.20008">
        <ele>337.1</ele>
        <time>2020-08-18T15:34:47Z</time>
      </trkpt>
      <trkpt lat="48.67232" lon="7.20003">
        <ele>336.9</ele>
        <time>2020-08-18T15:34:49Z</time>
      </trkpt>
      <trkpt lat="48.67228" lon="7.19998">
        <ele>329.3</ele>
        <time>2020-08-18T15:35:34Z</time>
      </trkpt>
      <trkpt lat="48.67223" lon="7.19992">
        <ele>328.4</ele>
        <time>2020-08-18T15:35:36Z</time>
      </trkpt>
      <trkpt lat="48.67218" lon="7.19985">
        <ele>328</ele>
        <time>2020-08-18T15:35:38Z</time>
      </trkpt>
      <trkpt lat="48.67213" lon="7.1998">
        <ele>328.2</ele>
        <time>2020-08-18T15:35:39Z</time>
      </trkpt>
      <trkpt lat="48.67203" lon="7.19973">
        <ele>327.9</ele>
        <time>2020-08-18T15:35:41Z</time>
      </trkpt>
      <trkpt lat="48.67193" lon="7.19965">
        <ele>327.3</ele>
        <time>2020-08-18T15:35:43Z</time>
      </trkpt>
      <trkpt lat="48.67183" lon="7.19957">
        <ele>326.9</ele>
        <time>2020-08-18T15:35:45Z</time>
      </trkpt>
      <trkpt lat="48.67172" lon="7.1995">
        <ele>327</ele>
        <time>2020-08-18T15:35:47Z</time>
      </trkpt>
      <trkpt lat="48.67162" lon="7.19942">
        <ele>327.1</ele>
        <time>2020-08-18T15:35:49Z</time>
      </trkpt>
      <trkpt lat="48.67151" lon="7.19935">
        <ele>327.4</ele>
        <time>2020-08-18T15:35:51Z</time>
      </trkpt>
      <trkpt lat="48.6714" lon="7.19927">
        <ele>327.7</ele>
        <time>2020-08-18T15:35:53Z</time>
      </trkpt>
      <trkpt lat="48.67127" lon="7.19918">
        <ele>327.6</ele>
        <time>2020-08-18T15:35:55Z</time>
      </trkpt>
      <trkpt lat="48.67114" lon="7.19909">
        <ele>327.2</ele>
        <time>2020-08-18T15:35:57Z</time>
      </trkpt>
      <trkpt lat="48.67102" lon="7.19901">
        <ele>327.3</ele>
        <time>2020-08-18T15:35:59Z</time>
      </trkpt>
      <trkpt lat="48.6709" lon="7.19894">
        <ele>327.2</ele>
        <time>2020-08-18T15:36:01Z</time>
      </trkpt>
      <trkpt lat="48.67077" lon="7.19889">
        <ele>326.7</ele>
        <time>2020-08-18T15:36:03Z</time>
      </trkpt>
      <trkpt lat="48.67064" lon="7.19885">
        <ele>326.5</ele>
        <time>2020-08-18T15:36:05Z</time>
      </trkpt>
      <trkpt lat="48.67054" lon="7.19882">
        <ele>326.3</ele>
        <time>2020-08-18T15:36:07Z</time>
      </trkpt>
      <trkpt lat="48.67043" lon="7.19881">
        <ele>325.4</ele>
        <time>2020-08-18T15:36:09Z</time>
      </trkpt>
      <trkpt lat="48.67032" lon="7.19882">
        <ele>324.9</ele>
        <time>2020-08-18T15:36:11Z</time>
      </trkpt>
      <trkpt lat="48.67021" lon="7.19884">
        <ele>323.6</ele>
        <time>2020-08-18T15:36:13Z</time>
      </trkpt>
      <trkpt lat="48.67015" lon="7.19886">
        <ele>321.7</ele>
        <time>2020-08-18T15:36:15Z</time>
      </trkpt>
      <trkpt lat="48.6701" lon="7.19885">
        <ele>336.6</ele>
        <time>2020-08-18T15:36:27Z</time>
      </trkpt>
      <trkpt lat="48.67012" lon="7.19878">
        <ele>334.8</ele>
        <time>2020-08-18T15:36:31Z</time>
      </trkpt>
      <trkpt lat="48.67017" lon="7.19875">
        <ele>332.8</ele>
        <time>2020-08-18T15:36:33Z</time>
      </trkpt>
      <trkpt lat="48.67023" lon="7.19871">
        <ele>330.3</ele>
        <time>2020-08-18T15:36:35Z</time>
      </trkpt>
      <trkpt lat="48.67031" lon="7.19866">
        <ele>327.9</ele>
        <time>2020-08-18T15:36:37Z</time>
      </trkpt>
      <trkpt lat="48.6704" lon="7.1986">
        <ele>325.3</ele>
        <time>2020-08-18T15:36:39Z</time>
      </trkpt>
      <trkpt lat="48.67051" lon="7.19853">
        <ele>323.4</ele>
        <time>2020-08-18T15:36:41Z</time>
      </trkpt>
      <trkpt lat="48.67065" lon="7.19848">
        <ele>321.4</ele>
        <time>2020-08-18T15:36:43Z</time>
      </trkpt>
      <trkpt lat="48.67079" lon="7.19842">
        <ele>319.8</ele>
        <time>2020-08-18T15:36:45Z</time>
      </trkpt>
      <trkpt lat="48.67092" lon="7.19837">
        <ele>318.1</ele>
        <time>2020-08-18T15:36:47Z</time>
      </trkpt>
      <trkpt lat="48.67105" lon="7.19833">
        <ele>316.2</ele>
        <time>2020-08-18T15:36:49Z</time>
      </trkpt>
      <trkpt lat="48.67119" lon="7.19829">
        <ele>314.7</ele>
        <time>2020-08-18T15:36:51Z</time>
      </trkpt>
      <trkpt lat="48.67134" lon="7.19826">
        <ele>312.6</ele>
        <time>2020-08-18T15:36:53Z</time>
      </trkpt>
      <trkpt lat="48.67151" lon="7.19822">
        <ele>311.1</ele>
        <time>2020-08-18T15:36:55Z</time>
      </trkpt>
      <trkpt lat="48.67166" lon="7.19819">
        <ele>310</ele>
        <time>2020-08-18T15:36:57Z</time>
      </trkpt>
      <trkpt lat="48.67181" lon="7.19814">
        <ele>309.3</ele>
        <time>2020-08-18T15:36:59Z</time>
      </trkpt>
      <trkpt lat="48.67197" lon="7.19811">
        <ele>308.5</ele>
        <time>2020-08-18T15:37:01Z</time>
      </trkpt>
      <trkpt lat="48.67214" lon="7.19808">
        <ele>308.4</ele>
        <time>2020-08-18T15:37:03Z</time>
      </trkpt>
      <trkpt lat="48.67233" lon="7.19806">
        <ele>307.5</ele>
        <time>2020-08-18T15:37:05Z</time>
      </trkpt>
      <trkpt lat="48.67247" lon="7.19808">
        <ele>304.4</ele>
        <time>2020-08-18T15:37:07Z</time>
      </trkpt>
      <trkpt lat="48.67254" lon="7.1981">
        <ele>302.8</ele>
        <time>2020-08-18T15:37:09Z</time>
      </trkpt>
      <trkpt lat="48.67259" lon="7.19808">
        <ele>297.5</ele>
        <time>2020-08-18T15:37:17Z</time>
      </trkpt>
      <trkpt lat="48.67264" lon="7.19806">
        <ele>296.7</ele>
        <time>2020-08-18T15:37:20Z</time>
      </trkpt>
      <trkpt lat="48.67271" lon="7.19804">
        <ele>295.4</ele>
        <time>2020-08-18T15:37:23Z</time>
      </trkpt>
      <trkpt lat="48.67275" lon="7.19802">
        <ele>294.1</ele>
        <time>2020-08-18T15:37:25Z</time>
      </trkpt>
      <trkpt lat="48.67282" lon="7.19799">
        <ele>292.2</ele>
        <time>2020-08-18T15:37:28Z</time>
      </trkpt>
      <trkpt lat="48.67287" lon="7.19796">
        <ele>290.9</ele>
        <time>2020-08-18T15:37:30Z</time>
      </trkpt>
      <trkpt lat="48.67295" lon="7.19789">
        <ele>290.5</ele>
        <time>2020-08-18T15:37:32Z</time>
      </trkpt>
      <trkpt lat="48.67301" lon="7.19783">
        <ele>307.8</ele>
        <time>2020-08-18T15:37:34Z</time>
      </trkpt>
      <trkpt lat="48.67304" lon="7.19778">
        <ele>309.7</ele>
        <time>2020-08-18T15:37:36Z</time>
      </trkpt>
      <trkpt lat="48.67308" lon="7.19773">
        <ele>317.4</ele>
        <time>2020-08-18T15:37:40Z</time>
      </trkpt>
      <trkpt lat="48.67313" lon="7.19768">
        <ele>312.5</ele>
        <time>2020-08-18T15:37:42Z</time>
      </trkpt>
      <trkpt lat="48.6732" lon="7.19763">
        <ele>307.4</ele>
        <time>2020-08-18T15:37:44Z</time>
      </trkpt>
      <trkpt lat="48.67328" lon="7.19757">
        <ele>302.9</ele>
        <time>2020-08-18T15:37:46Z</time>
      </trkpt>
      <trkpt lat="48.67335" lon="7.19752">
        <ele>298.6</ele>
        <time>2020-08-18T15:37:48Z</time>
      </trkpt>
      <trkpt lat="48.67339" lon="7.19749">
        <ele>293.7</ele>
        <time>2020-08-18T15:37:50Z</time>
      </trkpt>
      <trkpt lat="48.67343" lon="7.19746">
        <ele>286</ele>
        <time>2020-08-18T15:37:55Z</time>
      </trkpt>
      <trkpt lat="48.6735" lon="7.19746">
        <ele>282.6</ele>
        <time>2020-08-18T15:37:58Z</time>
      </trkpt>
      <trkpt lat="48.67356" lon="7.19746">
        <ele>281.2</ele>
        <time>2020-08-18T15:38:00Z</time>
      </trkpt>
      <trkpt lat="48.67363" lon="7.19748">
        <ele>306.1</ele>
        <time>2020-08-18T15:38:02Z</time>
      </trkpt>
      <trkpt lat="48.6737" lon="7.1975">
        <ele>310.9</ele>
        <time>2020-08-18T15:38:04Z</time>
      </trkpt>
      <trkpt lat="48.67378" lon="7.19754">
        <ele>309.6</ele>
        <time>2020-08-18T15:38:06Z</time>
      </trkpt>
      <trkpt lat="48.67385" lon="7.19758">
        <ele>307.4</ele>
        <time>2020-08-18T15:38:08Z</time>
      </trkpt>
      <trkpt lat="48.67394" lon="7.19762">
        <ele>305.8</ele>
        <time>2020-08-18T15:38:10Z</time>
      </trkpt>
      <trkpt lat="48.67404" lon="7.1977">
        <ele>300.4</ele>
        <time>2020-08-18T15:38:12Z</time>
      </trkpt>
      <trkpt lat="48.67414" lon="7.19777">
        <ele>295.3</ele>
        <time>2020-08-18T15:38:14Z</time>
      </trkpt>
      <trkpt lat="48.67424" lon="7.19784">
        <ele>292.7</ele>
        <time>2020-08-18T15:38:16Z</time>
      </trkpt>
      <trkpt lat="48.67434" lon="7.19791">
        <ele>288</ele>
        <time>2020-08-18T15:38:18Z</time>
      </trkpt>
      <trkpt lat="48.67446" lon="7.19798">
        <ele>286.7</ele>
        <time>2020-08-18T15:38:20Z</time>
      </trkpt>
      <trkpt lat="48.67456" lon="7.19806">
        <ele>284.7</ele>
        <time>2020-08-18T15:38:22Z</time>
      </trkpt>
      <trkpt lat="48.67467" lon="7.19812">
        <ele>284</ele>
        <time>2020-08-18T15:38:24Z</time>
      </trkpt>
      <trkpt lat="48.67476" lon="7.19817">
        <ele>283.7</ele>
        <time>2020-08-18T15:38:26Z</time>
      </trkpt>
      <trkpt lat="48.67486" lon="7.19821">
        <ele>283.2</ele>
        <time>2020-08-18T15:38:28Z</time>
      </trkpt>
      <trkpt lat="48.67495" lon="7.19825">
        <ele>283</ele>
        <time>2020-08-18T15:38:30Z</time>
      </trkpt>
      <trkpt lat="48.67503" lon="7.19826">
        <ele>283.1</ele>
        <time>2020-08-18T15:38:32Z</time>
      </trkpt>
      <trkpt lat="48.67511" lon="7.19829">
        <ele>282.4</ele>
        <time>2020-08-18T15:38:34Z</time>
      </trkpt>
      <trkpt lat="48.67519" lon="7.19832">
        <ele>282.4</ele>
        <time>2020-08-18T15:38:36Z</time>
      </trkpt>
      <trkpt lat="48.67526" lon="7.19835">
        <ele>282.5</ele>
        <time>2020-08-18T15:38:38Z</time>
      </trkpt>
      <trkpt lat="48.67532" lon="7.19838">
        <ele>282.8</ele>
        <time>2020-08-18T15:38:40Z</time>
      </trkpt>
      <trkpt lat="48.67538" lon="7.19842">
        <ele>282.6</ele>
        <time>2020-08-18T15:38:42Z</time>
      </trkpt>
      <trkpt lat="48.67547" lon="7.19844">
        <ele>304.6</ele>
        <time>2020-08-18T15:38:44Z</time>
      </trkpt>
      <trkpt lat="48.67558" lon="7.19846">
        <ele>310.8</ele>
        <time>2020-08-18T15:38:46Z</time>
      </trkpt>
      <trkpt lat="48.67568" lon="7.19849">
        <ele>311.2</ele>
        <time>2020-08-18T15:38:48Z</time>
      </trkpt>
      <trkpt lat="48.67579" lon="7.19854">
        <ele>305</ele>
        <time>2020-08-18T15:38:50Z</time>
      </trkpt>
      <trkpt lat="48.6759" lon="7.19859">
        <ele>300.2</ele>
        <time>2020-08-18T15:38:52Z</time>
      </trkpt>
      <trkpt lat="48.67604" lon="7.19865">
        <ele>293</ele>
        <time>2020-08-18T15:38:54Z</time>
      </trkpt>
      <trkpt lat="48.67616" lon="7.1987">
        <ele>288.7</ele>
        <time>2020-08-18T15:38:56Z</time>
      </trkpt>
      <trkpt lat="48.67627" lon="7.19874">
        <ele>285.9</ele>
        <time>2020-08-18T15:38:58Z</time>
      </trkpt>
      <trkpt lat="48.67637" lon="7.19877">
        <ele>284.3</ele>
        <time>2020-08-18T15:39:00Z</time>
      </trkpt>
      <trkpt lat="48.67645" lon="7.19878">
        <ele>282.4</ele>
        <time>2020-08-18T15:39:02Z</time>
      </trkpt>
      <trkpt lat="48.67649" lon="7.1988">
        <ele>280.5</ele>
        <time>2020-08-18T15:39:05Z</time>
      </trkpt>
      <trkpt lat="48.67655" lon="7.1988">
        <ele>276.3</ele>
        <time>2020-08-18T15:39:17Z</time>
      </trkpt>
      <trkpt lat="48.6766" lon="7.1988">
        <ele>276</ele>
        <time>2020-08-18T15:39:19Z</time>
      </trkpt>
      <trkpt lat="48.67666" lon="7.1988">
        <ele>275.9</ele>
        <time>2020-08-18T15:39:21Z</time>
      </trkpt>
      <trkpt lat="48.67674" lon="7.19876">
        <ele>275.4</ele>
        <time>2020-08-18T15:39:23Z</time>
      </trkpt>
      <trkpt lat="48.67684" lon="7.19872">
        <ele>275</ele>
        <time>2020-08-18T15:39:25Z</time>
      </trkpt>
      <trkpt lat="48.67695" lon="7.19866">
        <ele>274.2</ele>
        <time>2020-08-18T15:39:27Z</time>
      </trkpt>
      <trkpt lat="48.67708" lon="7.1986">
        <ele>273.4</ele>
        <time>2020-08-18T15:39:29Z</time>
      </trkpt>
      <trkpt lat="48.67722" lon="7.19852">
        <ele>272.6</ele>
        <time>2020-08-18T15:39:31Z</time>
      </trkpt>
      <trkpt lat="48.67738" lon="7.19842">
        <ele>271.6</ele>
        <time>2020-08-18T15:39:33Z</time>
      </trkpt>
      <trkpt lat="48.67754" lon="7.19829">
        <ele>270.7</ele>
        <time>2020-08-18T15:39:35Z</time>
      </trkpt>
      <trkpt lat="48.67771" lon="7.19814">
        <ele>269.3</ele>
        <time>2020-08-18T15:39:37Z</time>
      </trkpt>
      <trkpt lat="48.67788" lon="7.198">
        <ele>268.3</ele>
        <time>2020-08-18T15:39:39Z</time>
      </trkpt>
      <trkpt lat="48.67806" lon="7.19785">
        <ele>266.8</ele>
        <time>2020-08-18T15:39:41Z</time>
      </trkpt>
      <trkpt lat="48.67825" lon="7.1977">
        <ele>265.7</ele>
        <time>2020-08-18T15:39:43Z</time>
      </trkpt>
      <trkpt lat="48.67844" lon="7.19755">
        <ele>264.6</ele>
        <time>2020-08-18T15:39:45Z</time>
      </trkpt>
      <trkpt lat="48.67863" lon="7.1974">
        <ele>264</ele>
        <time>2020-08-18T15:39:47Z</time>
      </trkpt>
      <trkpt lat="48.67883" lon="7.19727">
        <ele>262.9</ele>
        <time>2020-08-18T15:39:49Z</time>
      </trkpt>
      <trkpt lat="48.67903" lon="7.19715">
        <ele>261.6</ele>
        <time>2020-08-18T15:39:51Z</time>
      </trkpt>
      <trkpt lat="48.67923" lon="7.19706">
        <ele>260.6</ele>
        <time>2020-08-18T15:39:53Z</time>
      </trkpt>
      <trkpt lat="48.67944" lon="7.19699">
        <ele>259.5</ele>
        <time>2020-08-18T15:39:55Z</time>
      </trkpt>
      <trkpt lat="48.67966" lon="7.19696">
        <ele>258.4</ele>
        <time>2020-08-18T15:39:57Z</time>
      </trkpt>
      <trkpt lat="48.67987" lon="7.19697">
        <ele>257.3</ele>
        <time>2020-08-18T15:39:59Z</time>
      </trkpt>
      <trkpt lat="48.68009" lon="7.19703">
        <ele>256.2</ele>
        <time>2020-08-18T15:40:01Z</time>
      </trkpt>
      <trkpt lat="48.6803" lon="7.1971">
        <ele>255.2</ele>
        <time>2020-08-18T15:40:03Z</time>
      </trkpt>
      <trkpt lat="48.6805" lon="7.19718">
        <ele>254.6</ele>
        <time>2020-08-18T15:40:05Z</time>
      </trkpt>
      <trkpt lat="48.6807" lon="7.19724">
        <ele>253.6</ele>
        <time>2020-08-18T15:40:07Z</time>
      </trkpt>
      <trkpt lat="48.6809" lon="7.19729">
        <ele>253.1</ele>
        <time>2020-08-18T15:40:09Z</time>
      </trkpt>
      <trkpt lat="48.6811" lon="7.19729">
        <ele>252.4</ele>
        <time>2020-08-18T15:40:11Z</time>
      </trkpt>
      <trkpt lat="48.68129" lon="7.19728">
        <ele>251.7</ele>
        <time>2020-08-18T15:40:13Z</time>
      </trkpt>
      <trkpt lat="48.68147" lon="7.19726">
        <ele>251.1</ele>
        <time>2020-08-18T15:40:15Z</time>
      </trkpt>
      <trkpt lat="48.68161" lon="7.19724">
        <ele>250.9</ele>
        <time>2020-08-18T15:40:17Z</time>
      </trkpt>
      <trkpt lat="48.68173" lon="7.19722">
        <ele>250.9</ele>
        <time>2020-08-18T15:40:19Z</time>
      </trkpt>
      <trkpt lat="48.68183" lon="7.19725">
        <ele>250.9</ele>
        <time>2020-08-18T15:40:21Z</time>
      </trkpt>
      <trkpt lat="48.68187" lon="7.1973">
        <ele>251.6</ele>
        <time>2020-08-18T15:40:23Z</time>
      </trkpt>
      <trkpt lat="48.68187" lon="7.19737">
        <ele>252.2</ele>
        <time>2020-08-18T15:40:25Z</time>
      </trkpt>
      <trkpt lat="48.68183" lon="7.19744">
        <ele>253.2</ele>
        <time>2020-08-18T15:40:27Z</time>
      </trkpt>
      <trkpt lat="48.68177" lon="7.1975">
        <ele>253.2</ele>
        <time>2020-08-18T15:40:29Z</time>
      </trkpt>
      <trkpt lat="48.68171" lon="7.19753">
        <ele>253.6</ele>
        <time>2020-08-18T15:40:31Z</time>
      </trkpt>
      <trkpt lat="48.68164" lon="7.19757">
        <ele>253.4</ele>
        <time>2020-08-18T15:40:33Z</time>
      </trkpt>
      <trkpt lat="48.68158" lon="7.19762">
        <ele>253.6</ele>
        <time>2020-08-18T15:40:35Z</time>
      </trkpt>
      <trkpt lat="48.68155" lon="7.19769">
        <ele>253.4</ele>
        <time>2020-08-18T15:40:37Z</time>
      </trkpt>
      <trkpt lat="48.68154" lon="7.19776">
        <ele>253.9</ele>
        <time>2020-08-18T15:40:39Z</time>
      </trkpt>
      <trkpt lat="48.68153" lon="7.19784">
        <ele>254.2</ele>
        <time>2020-08-18T15:40:44Z</time>
      </trkpt>
      <trkpt lat="48.68152" lon="7.19792">
        <ele>256.9</ele>
        <time>2020-08-18T15:40:57Z</time>
      </trkpt>
      <trkpt lat="48.68149" lon="7.19797">
        <ele>257.7</ele>
        <time>2020-08-18T15:40:59Z</time>
      </trkpt>
      <trkpt lat="48.68144" lon="7.19802">
        <ele>258.6</ele>
        <time>2020-08-18T15:41:01Z</time>
      </trkpt>
      <trkpt lat="48.68139" lon="7.19807">
        <ele>258.8</ele>
        <time>2020-08-18T15:41:03Z</time>
      </trkpt>
      <trkpt lat="48.68134" lon="7.19811">
        <ele>259.2</ele>
        <time>2020-08-18T15:41:05Z</time>
      </trkpt>
      <trkpt lat="48.68128" lon="7.19816">
        <ele>259.3</ele>
        <time>2020-08-18T15:41:07Z</time>
      </trkpt>
      <trkpt lat="48.68122" lon="7.19822">
        <ele>259.2</ele>
        <time>2020-08-18T15:41:09Z</time>
      </trkpt>
      <trkpt lat="48.68116" lon="7.19827">
        <ele>259.4</ele>
        <time>2020-08-18T15:41:11Z</time>
      </trkpt>
      <trkpt lat="48.68109" lon="7.19833">
        <ele>259.1</ele>
        <time>2020-08-18T15:41:13Z</time>
      </trkpt>
      <trkpt lat="48.68099" lon="7.19838">
        <ele>259.1</ele>
        <time>2020-08-18T15:41:15Z</time>
      </trkpt>
      <trkpt lat="48.68087" lon="7.19844">
        <ele>256.9</ele>
        <time>2020-08-18T15:41:17Z</time>
      </trkpt>
      <trkpt lat="48.68075" lon="7.19848">
        <ele>256.4</ele>
        <time>2020-08-18T15:41:19Z</time>
      </trkpt>
      <trkpt lat="48.68064" lon="7.1985">
        <ele>256.1</ele>
        <time>2020-08-18T15:41:21Z</time>
      </trkpt>
      <trkpt lat="48.68055" lon="7.19854">
        <ele>255</ele>
        <time>2020-08-18T15:41:23Z</time>
      </trkpt>
      <trkpt lat="48.68046" lon="7.19857">
        <ele>255.2</ele>
        <time>2020-08-18T15:41:25Z</time>
      </trkpt>
      <trkpt lat="48.68038" lon="7.1986">
        <ele>254.4</ele>
        <time>2020-08-18T15:41:27Z</time>
      </trkpt>
      <trkpt lat="48.68029" lon="7.19865">
        <ele>253.9</ele>
        <time>2020-08-18T15:41:29Z</time>
      </trkpt>
      <trkpt lat="48.68021" lon="7.19872">
        <ele>253.2</ele>
        <time>2020-08-18T15:41:31Z</time>
      </trkpt>
      <trkpt lat="48.68013" lon="7.19879">
        <ele>253.4</ele>
        <time>2020-08-18T15:41:33Z</time>
      </trkpt>
      <trkpt lat="48.68005" lon="7.1989">
        <ele>253.2</ele>
        <time>2020-08-18T15:41:35Z</time>
      </trkpt>
      <trkpt lat="48.67997" lon="7.19901">
        <ele>254</ele>
        <time>2020-08-18T15:41:37Z</time>
      </trkpt>
      <trkpt lat="48.67993" lon="7.19913">
        <ele>253.7</ele>
        <time>2020-08-18T15:41:39Z</time>
      </trkpt>
      <trkpt lat="48.67989" lon="7.19927">
        <ele>253.6</ele>
        <time>2020-08-18T15:41:41Z</time>
      </trkpt>
      <trkpt lat="48.67988" lon="7.19943">
        <ele>253.6</ele>
        <time>2020-08-18T15:41:43Z</time>
      </trkpt>
      <trkpt lat="48.67988" lon="7.19959">
        <ele>253.6</ele>
        <time>2020-08-18T15:41:45Z</time>
      </trkpt>
      <trkpt lat="48.67988" lon="7.19974">
        <ele>253.7</ele>
        <time>2020-08-18T15:41:47Z</time>
      </trkpt>
      <trkpt lat="48.6799" lon="7.19987">
        <ele>254</ele>
        <time>2020-08-18T15:41:49Z</time>
      </trkpt>
      <trkpt lat="48.67992" lon="7.20001">
        <ele>254.7</ele>
        <time>2020-08-18T15:41:51Z</time>
      </trkpt>
      <trkpt lat="48.67995" lon="7.20017">
        <ele>254.8</ele>
        <time>2020-08-18T15:41:53Z</time>
      </trkpt>
      <trkpt lat="48.68001" lon="7.20031">
        <ele>254.4</ele>
        <time>2020-08-18T15:41:55Z</time>
      </trkpt>
      <trkpt lat="48.68007" lon="7.20045">
        <ele>299.9</ele>
        <time>2020-08-18T15:41:57Z</time>
      </trkpt>
      <trkpt lat="48.6801" lon="7.20062">
        <ele>305.1</ele>
        <time>2020-08-18T15:41:59Z</time>
      </trkpt>
      <trkpt lat="48.68011" lon="7.20081">
        <ele>303.2</ele>
        <time>2020-08-18T15:42:01Z</time>
      </trkpt>
      <trkpt lat="48.6801" lon="7.20102">
        <ele>297.9</ele>
        <time>2020-08-18T15:42:03Z</time>
      </trkpt>
      <trkpt lat="48.68005" lon="7.20124">
        <ele>290.5</ele>
        <time>2020-08-18T15:42:05Z</time>
      </trkpt>
      <trkpt lat="48.68001" lon="7.20145">
        <ele>284.3</ele>
        <time>2020-08-18T15:42:07Z</time>
      </trkpt>
      <trkpt lat="48.67998" lon="7.20164">
        <ele>278.5</ele>
        <time>2020-08-18T15:42:09Z</time>
      </trkpt>
      <trkpt lat="48.67995" lon="7.20183">
        <ele>274.9</ele>
        <time>2020-08-18T15:42:11Z</time>
      </trkpt>
      <trkpt lat="48.67991" lon="7.20202">
        <ele>271.3</ele>
        <time>2020-08-18T15:42:13Z</time>
      </trkpt>
      <trkpt lat="48.67985" lon="7.20218">
        <ele>268.5</ele>
        <time>2020-08-18T15:42:15Z</time>
      </trkpt>
      <trkpt lat="48.67979" lon="7.20234">
        <ele>266.4</ele>
        <time>2020-08-18T15:42:17Z</time>
      </trkpt>
      <trkpt lat="48.67974" lon="7.20249">
        <ele>265.3</ele>
        <time>2020-08-18T15:42:19Z</time>
      </trkpt>
      <trkpt lat="48.6797" lon="7.20261">
        <ele>264.6</ele>
        <time>2020-08-18T15:42:21Z</time>
      </trkpt>
      <trkpt lat="48.67961" lon="7.2027">
        <ele>263.5</ele>
        <time>2020-08-18T15:42:23Z</time>
      </trkpt>
      <trkpt lat="48.67952" lon="7.20277">
        <ele>262</ele>
        <time>2020-08-18T15:42:25Z</time>
      </trkpt>
      <trkpt lat="48.67943" lon="7.20287">
        <ele>262.7</ele>
        <time>2020-08-18T15:42:27Z</time>
      </trkpt>
      <trkpt lat="48.67935" lon="7.203">
        <ele>262.7</ele>
        <time>2020-08-18T15:42:29Z</time>
      </trkpt>
      <trkpt lat="48.67927" lon="7.20313">
        <ele>263.1</ele>
        <time>2020-08-18T15:42:31Z</time>
      </trkpt>
      <trkpt lat="48.67917" lon="7.20328">
        <ele>263.5</ele>
        <time>2020-08-18T15:42:33Z</time>
      </trkpt>
      <trkpt lat="48.67909" lon="7.20341">
        <ele>263.4</ele>
        <time>2020-08-18T15:42:35Z</time>
      </trkpt>
      <trkpt lat="48.67903" lon="7.20352">
        <ele>263.8</ele>
        <time>2020-08-18T15:42:37Z</time>
      </trkpt>
      <trkpt lat="48.67896" lon="7.20364">
        <ele>263.6</ele>
        <time>2020-08-18T15:42:39Z</time>
      </trkpt>
      <trkpt lat="48.67891" lon="7.20377">
        <ele>263.1</ele>
        <time>2020-08-18T15:42:41Z</time>
      </trkpt>
      <trkpt lat="48.67885" lon="7.20389">
        <ele>263.6</ele>
        <time>2020-08-18T15:42:43Z</time>
      </trkpt>
      <trkpt lat="48.6788" lon="7.20402">
        <ele>262.8</ele>
        <time>2020-08-18T15:42:45Z</time>
      </trkpt>
      <trkpt lat="48.67876" lon="7.20419">
        <ele>262.6</ele>
        <time>2020-08-18T15:42:47Z</time>
      </trkpt>
      <trkpt lat="48.67874" lon="7.20435">
        <ele>262.1</ele>
        <time>2020-08-18T15:42:49Z</time>
      </trkpt>
      <trkpt lat="48.6787" lon="7.20454">
        <ele>261.6</ele>
        <time>2020-08-18T15:42:51Z</time>
      </trkpt>
      <trkpt lat="48.67866" lon="7.20474">
        <ele>261.3</ele>
        <time>2020-08-18T15:42:53Z</time>
      </trkpt>
      <trkpt lat="48.67862" lon="7.20492">
        <ele>261.1</ele>
        <time>2020-08-18T15:42:55Z</time>
      </trkpt>
      <trkpt lat="48.67856" lon="7.20507">
        <ele>261.2</ele>
        <time>2020-08-18T15:42:57Z</time>
      </trkpt>
      <trkpt lat="48.67851" lon="7.20522">
        <ele>260.3</ele>
        <time>2020-08-18T15:42:59Z</time>
      </trkpt>
      <trkpt lat="48.67847" lon="7.20536">
        <ele>260.3</ele>
        <time>2020-08-18T15:43:01Z</time>
      </trkpt>
      <trkpt lat="48.67846" lon="7.20553">
        <ele>260</ele>
        <time>2020-08-18T15:43:03Z</time>
      </trkpt>
      <trkpt lat="48.67844" lon="7.2057">
        <ele>260.3</ele>
        <time>2020-08-18T15:43:05Z</time>
      </trkpt>
      <trkpt lat="48.6784" lon="7.20587">
        <ele>260.1</ele>
        <time>2020-08-18T15:43:07Z</time>
      </trkpt>
      <trkpt lat="48.67836" lon="7.20605">
        <ele>260.9</ele>
        <time>2020-08-18T15:43:09Z</time>
      </trkpt>
      <trkpt lat="48.67834" lon="7.20621">
        <ele>260.8</ele>
        <time>2020-08-18T15:43:11Z</time>
      </trkpt>
      <trkpt lat="48.67834" lon="7.20635">
        <ele>260.8</ele>
        <time>2020-08-18T15:43:13Z</time>
      </trkpt>
      <trkpt lat="48.67833" lon="7.20649">
        <ele>261.5</ele>
        <time>2020-08-18T15:43:15Z</time>
      </trkpt>
      <trkpt lat="48.67829" lon="7.20666">
        <ele>262</ele>
        <time>2020-08-18T15:43:17Z</time>
      </trkpt>
      <trkpt lat="48.67826" lon="7.20686">
        <ele>262.6</ele>
        <time>2020-08-18T15:43:19Z</time>
      </trkpt>
      <trkpt lat="48.67821" lon="7.20707">
        <ele>263.4</ele>
        <time>2020-08-18T15:43:21Z</time>
      </trkpt>
      <trkpt lat="48.67817" lon="7.20726">
        <ele>264.7</ele>
        <time>2020-08-18T15:43:23Z</time>
      </trkpt>
      <trkpt lat="48.6781" lon="7.20744">
        <ele>265.5</ele>
        <time>2020-08-18T15:43:25Z</time>
      </trkpt>
      <trkpt lat="48.678" lon="7.20762">
        <ele>266.1</ele>
        <time>2020-08-18T15:43:27Z</time>
      </trkpt>
      <trkpt lat="48.67789" lon="7.20779">
        <ele>266.4</ele>
        <time>2020-08-18T15:43:29Z</time>
      </trkpt>
      <trkpt lat="48.67784" lon="7.20791">
        <ele>266.8</ele>
        <time>2020-08-18T15:43:31Z</time>
      </trkpt>
      <trkpt lat="48.67786" lon="7.20799">
        <ele>267.6</ele>
        <time>2020-08-18T15:43:33Z</time>
      </trkpt>
      <trkpt lat="48.67788" lon="7.20806">
        <ele>267.8</ele>
        <time>2020-08-18T15:43:37Z</time>
      </trkpt>
      <trkpt lat="48.67792" lon="7.20806">
        <ele>272.4</ele>
        <time>2020-08-18T15:43:49Z</time>
      </trkpt>
      <trkpt lat="48.67792" lon="7.20814">
        <ele>274.2</ele>
        <time>2020-08-18T15:43:55Z</time>
      </trkpt>
      <trkpt lat="48.67789" lon="7.20822">
        <ele>273.5</ele>
        <time>2020-08-18T15:43:57Z</time>
      </trkpt>
      <trkpt lat="48.67782" lon="7.20833">
        <ele>272.9</ele>
        <time>2020-08-18T15:43:59Z</time>
      </trkpt>
      <trkpt lat="48.67774" lon="7.20846">
        <ele>272.1</ele>
        <time>2020-08-18T15:44:01Z</time>
      </trkpt>
      <trkpt lat="48.67764" lon="7.20858">
        <ele>271.2</ele>
        <time>2020-08-18T15:44:03Z</time>
      </trkpt>
      <trkpt lat="48.67755" lon="7.2087">
        <ele>270.9</ele>
        <time>2020-08-18T15:44:05Z</time>
      </trkpt>
      <trkpt lat="48.67747" lon="7.20881">
        <ele>270.5</ele>
        <time>2020-08-18T15:44:07Z</time>
      </trkpt>
      <trkpt lat="48.67739" lon="7.20893">
        <ele>270.8</ele>
        <time>2020-08-18T15:44:09Z</time>
      </trkpt>
      <trkpt lat="48.67731" lon="7.20907">
        <ele>271.1</ele>
        <time>2020-08-18T15:44:11Z</time>
      </trkpt>
      <trkpt lat="48.67724" lon="7.20921">
        <ele>271.1</ele>
        <time>2020-08-18T15:44:13Z</time>
      </trkpt>
      <trkpt lat="48.6772" lon="7.20935">
        <ele>271.5</ele>
        <time>2020-08-18T15:44:15Z</time>
      </trkpt>
      <trkpt lat="48.67716" lon="7.20948">
        <ele>271.7</ele>
        <time>2020-08-18T15:44:17Z</time>
      </trkpt>
      <trkpt lat="48.67712" lon="7.20961">
        <ele>271.8</ele>
        <time>2020-08-18T15:44:19Z</time>
      </trkpt>
      <trkpt lat="48.67709" lon="7.20973">
        <ele>271.5</ele>
        <time>2020-08-18T15:44:21Z</time>
      </trkpt>
      <trkpt lat="48.67708" lon="7.2098">
        <ele>271.6</ele>
        <time>2020-08-18T15:44:23Z</time>
      </trkpt>
      <trkpt lat="48.67711" lon="7.20987">
        <ele>272</ele>
        <time>2020-08-18T15:44:28Z</time>
      </trkpt>
      <trkpt lat="48.67714" lon="7.20992">
        <ele>272.5</ele>
        <time>2020-08-18T15:44:35Z</time>
      </trkpt>
      <trkpt lat="48.67714" lon="7.21002">
        <ele>272.9</ele>
        <time>2020-08-18T15:44:38Z</time>
      </trkpt>
      <trkpt lat="48.67714" lon="7.21012">
        <ele>273.4</ele>
        <time>2020-08-18T15:44:40Z</time>
      </trkpt>
      <trkpt lat="48.67714" lon="7.21023">
        <ele>273</ele>
        <time>2020-08-18T15:44:42Z</time>
      </trkpt>
      <trkpt lat="48.67715" lon="7.21034">
        <ele>272.7</ele>
        <time>2020-08-18T15:44:44Z</time>
      </trkpt>
      <trkpt lat="48.67715" lon="7.21046">
        <ele>272.9</ele>
        <time>2020-08-18T15:44:46Z</time>
      </trkpt>
      <trkpt lat="48.67715" lon="7.21058">
        <ele>273.4</ele>
        <time>2020-08-18T15:44:48Z</time>
      </trkpt>
      <trkpt lat="48.67712" lon="7.21071">
        <ele>274.2</ele>
        <time>2020-08-18T15:44:50Z</time>
      </trkpt>
      <trkpt lat="48.6771" lon="7.21083">
        <ele>274.7</ele>
        <time>2020-08-18T15:44:52Z</time>
      </trkpt>
      <trkpt lat="48.6771" lon="7.21095">
        <ele>275.4</ele>
        <time>2020-08-18T15:44:54Z</time>
      </trkpt>
      <trkpt lat="48.67709" lon="7.21109">
        <ele>277.1</ele>
        <time>2020-08-18T15:44:56Z</time>
      </trkpt>
      <trkpt lat="48.67709" lon="7.21122">
        <ele>278.8</ele>
        <time>2020-08-18T15:44:58Z</time>
      </trkpt>
      <trkpt lat="48.67709" lon="7.21135">
        <ele>279.9</ele>
        <time>2020-08-18T15:45:00Z</time>
      </trkpt>
      <trkpt lat="48.67707" lon="7.21147">
        <ele>281.4</ele>
        <time>2020-08-18T15:45:02Z</time>
      </trkpt>
      <trkpt lat="48.67705" lon="7.21159">
        <ele>282.3</ele>
        <time>2020-08-18T15:45:04Z</time>
      </trkpt>
      <trkpt lat="48.67702" lon="7.2117">
        <ele>283.7</ele>
        <time>2020-08-18T15:45:06Z</time>
      </trkpt>
      <trkpt lat="48.67699" lon="7.21181">
        <ele>285.1</ele>
        <time>2020-08-18T15:45:08Z</time>
      </trkpt>
      <trkpt lat="48.67695" lon="7.21192">
        <ele>286.7</ele>
        <time>2020-08-18T15:45:10Z</time>
      </trkpt>
      <trkpt lat="48.67692" lon="7.21204">
        <ele>288</ele>
        <time>2020-08-18T15:45:12Z</time>
      </trkpt>
      <trkpt lat="48.67689" lon="7.21217">
        <ele>288.8</ele>
        <time>2020-08-18T15:45:14Z</time>
      </trkpt>
      <trkpt lat="48.67686" lon="7.21229">
        <ele>289.7</ele>
        <time>2020-08-18T15:45:16Z</time>
      </trkpt>
      <trkpt lat="48.67684" lon="7.21242">
        <ele>290.6</ele>
        <time>2020-08-18T15:45:18Z</time>
      </trkpt>
      <trkpt lat="48.67682" lon="7.21254">
        <ele>291.6</ele>
        <time>2020-08-18T15:45:20Z</time>
      </trkpt>
      <trkpt lat="48.67679" lon="7.21268">
        <ele>292.9</ele>
        <time>2020-08-18T15:45:22Z</time>
      </trkpt>
      <trkpt lat="48.67678" lon="7.21281">
        <ele>293.5</ele>
        <time>2020-08-18T15:45:24Z</time>
      </trkpt>
      <trkpt lat="48.67677" lon="7.21293">
        <ele>294.4</ele>
        <time>2020-08-18T15:45:26Z</time>
      </trkpt>
      <trkpt lat="48.67676" lon="7.21305">
        <ele>295.6</ele>
        <time>2020-08-18T15:45:28Z</time>
      </trkpt>
      <trkpt lat="48.67675" lon="7.21317">
        <ele>294.5</ele>
        <time>2020-08-18T15:45:30Z</time>
      </trkpt>
      <trkpt lat="48.67673" lon="7.21328">
        <ele>294.8</ele>
        <time>2020-08-18T15:45:32Z</time>
      </trkpt>
      <trkpt lat="48.67673" lon="7.2134">
        <ele>295.1</ele>
        <time>2020-08-18T15:45:34Z</time>
      </trkpt>
      <trkpt lat="48.67675" lon="7.21351">
        <ele>295.4</ele>
        <time>2020-08-18T15:45:36Z</time>
      </trkpt>
      <trkpt lat="48.67678" lon="7.21362">
        <ele>295.4</ele>
        <time>2020-08-18T15:45:38Z</time>
      </trkpt>
      <trkpt lat="48.67679" lon="7.21372">
        <ele>296</ele>
        <time>2020-08-18T15:45:40Z</time>
      </trkpt>
      <trkpt lat="48.67679" lon="7.21381">
        <ele>295.9</ele>
        <time>2020-08-18T15:45:42Z</time>
      </trkpt>
      <trkpt lat="48.67679" lon="7.21391">
        <ele>295.7</ele>
        <time>2020-08-18T15:45:44Z</time>
      </trkpt>
      <trkpt lat="48.67681" lon="7.21401">
        <ele>296.4</ele>
        <time>2020-08-18T15:45:46Z</time>
      </trkpt>
      <trkpt lat="48.67684" lon="7.21411">
        <ele>296.9</ele>
        <time>2020-08-18T15:45:48Z</time>
      </trkpt>
      <trkpt lat="48.6769" lon="7.2142">
        <ele>297.2</ele>
        <time>2020-08-18T15:45:50Z</time>
      </trkpt>
      <trkpt lat="48.67696" lon="7.21429">
        <ele>297.1</ele>
        <time>2020-08-18T15:45:52Z</time>
      </trkpt>
      <trkpt lat="48.67703" lon="7.21437">
        <ele>297.8</ele>
        <time>2020-08-18T15:45:54Z</time>
      </trkpt>
      <trkpt lat="48.67709" lon="7.21446">
        <ele>297.9</ele>
        <time>2020-08-18T15:45:56Z</time>
      </trkpt>
      <trkpt lat="48.67715" lon="7.21455">
        <ele>298.3</ele>
        <time>2020-08-18T15:45:58Z</time>
      </trkpt>
      <trkpt lat="48.67721" lon="7.21463">
        <ele>299.3</ele>
        <time>2020-08-18T15:46:00Z</time>
      </trkpt>
      <trkpt lat="48.67727" lon="7.21472">
        <ele>300.5</ele>
        <time>2020-08-18T15:46:02Z</time>
      </trkpt>
      <trkpt lat="48.67733" lon="7.2148">
        <ele>301.3</ele>
        <time>2020-08-18T15:46:04Z</time>
      </trkpt>
      <trkpt lat="48.67739" lon="7.21488">
        <ele>301.6</ele>
        <time>2020-08-18T15:46:06Z</time>
      </trkpt>
      <trkpt lat="48.67745" lon="7.21495">
        <ele>302.2</ele>
        <time>2020-08-18T15:46:08Z</time>
      </trkpt>
      <trkpt lat="48.67753" lon="7.21501">
        <ele>303.6</ele>
        <time>2020-08-18T15:46:10Z</time>
      </trkpt>
      <trkpt lat="48.67761" lon="7.21508">
        <ele>304</ele>
        <time>2020-08-18T15:46:12Z</time>
      </trkpt>
      <trkpt lat="48.67768" lon="7.21516">
        <ele>305.2</ele>
        <time>2020-08-18T15:46:14Z</time>
      </trkpt>
      <trkpt lat="48.67776" lon="7.21523">
        <ele>306.4</ele>
        <time>2020-08-18T15:46:16Z</time>
      </trkpt>
      <trkpt lat="48.67783" lon="7.2153">
        <ele>307.7</ele>
        <time>2020-08-18T15:46:18Z</time>
      </trkpt>
      <trkpt lat="48.67791" lon="7.21536">
        <ele>308.8</ele>
        <time>2020-08-18T15:46:20Z</time>
      </trkpt>
      <trkpt lat="48.67799" lon="7.21541">
        <ele>309.2</ele>
        <time>2020-08-18T15:46:22Z</time>
      </trkpt>
      <trkpt lat="48.67805" lon="7.2155">
        <ele>309.1</ele>
        <time>2020-08-18T15:46:24Z</time>
      </trkpt>
      <trkpt lat="48.67813" lon="7.21558">
        <ele>309.3</ele>
        <time>2020-08-18T15:46:26Z</time>
      </trkpt>
      <trkpt lat="48.67819" lon="7.21565">
        <ele>309.7</ele>
        <time>2020-08-18T15:46:28Z</time>
      </trkpt>
      <trkpt lat="48.67827" lon="7.21572">
        <ele>310</ele>
        <time>2020-08-18T15:46:30Z</time>
      </trkpt>
      <trkpt lat="48.67834" lon="7.21579">
        <ele>310.1</ele>
        <time>2020-08-18T15:46:32Z</time>
      </trkpt>
      <trkpt lat="48.67841" lon="7.21585">
        <ele>310.6</ele>
        <time>2020-08-18T15:46:34Z</time>
      </trkpt>
      <trkpt lat="48.67848" lon="7.21593">
        <ele>311.1</ele>
        <time>2020-08-18T15:46:36Z</time>
      </trkpt>
      <trkpt lat="48.67856" lon="7.216">
        <ele>311</ele>
        <time>2020-08-18T15:46:38Z</time>
      </trkpt>
      <trkpt lat="48.67864" lon="7.21607">
        <ele>310.4</ele>
        <time>2020-08-18T15:46:40Z</time>
      </trkpt>
      <trkpt lat="48.67871" lon="7.21615">
        <ele>310.1</ele>
        <time>2020-08-18T15:46:42Z</time>
      </trkpt>
      <trkpt lat="48.67877" lon="7.21623">
        <ele>310.6</ele>
        <time>2020-08-18T15:46:44Z</time>
      </trkpt>
      <trkpt lat="48.67884" lon="7.21629">
        <ele>311.5</ele>
        <time>2020-08-18T15:46:46Z</time>
      </trkpt>
      <trkpt lat="48.67891" lon="7.21636">
        <ele>311.6</ele>
        <time>2020-08-18T15:46:48Z</time>
      </trkpt>
      <trkpt lat="48.67899" lon="7.21645">
        <ele>312.6</ele>
        <time>2020-08-18T15:46:50Z</time>
      </trkpt>
      <trkpt lat="48.67906" lon="7.21651">
        <ele>313.4</ele>
        <time>2020-08-18T15:46:52Z</time>
      </trkpt>
      <trkpt lat="48.67914" lon="7.21657">
        <ele>314.4</ele>
        <time>2020-08-18T15:46:54Z</time>
      </trkpt>
      <trkpt lat="48.67921" lon="7.2166">
        <ele>316</ele>
        <time>2020-08-18T15:46:56Z</time>
      </trkpt>
      <trkpt lat="48.67928" lon="7.21662">
        <ele>316.8</ele>
        <time>2020-08-18T15:46:58Z</time>
      </trkpt>
      <trkpt lat="48.67933" lon="7.21663">
        <ele>317.7</ele>
        <time>2020-08-18T15:47:00Z</time>
      </trkpt>
      <trkpt lat="48.67938" lon="7.21663">
        <ele>318.5</ele>
        <time>2020-08-18T15:47:02Z</time>
      </trkpt>
      <trkpt lat="48.67943" lon="7.21663">
        <ele>319.6</ele>
        <time>2020-08-18T15:47:04Z</time>
      </trkpt>
      <trkpt lat="48.67948" lon="7.21662">
        <ele>320.8</ele>
        <time>2020-08-18T15:47:06Z</time>
      </trkpt>
      <trkpt lat="48.67953" lon="7.21661">
        <ele>321.4</ele>
        <time>2020-08-18T15:47:08Z</time>
      </trkpt>
      <trkpt lat="48.67959" lon="7.21659">
        <ele>322</ele>
        <time>2020-08-18T15:47:10Z</time>
      </trkpt>
      <trkpt lat="48.67965" lon="7.21657">
        <ele>322.6</ele>
        <time>2020-08-18T15:47:12Z</time>
      </trkpt>
      <trkpt lat="48.67973" lon="7.21655">
        <ele>322.6</ele>
        <time>2020-08-18T15:47:14Z</time>
      </trkpt>
      <trkpt lat="48.6798" lon="7.21653">
        <ele>324.2</ele>
        <time>2020-08-18T15:47:16Z</time>
      </trkpt>
      <trkpt lat="48.67987" lon="7.2165">
        <ele>326.2</ele>
        <time>2020-08-18T15:47:18Z</time>
      </trkpt>
      <trkpt lat="48.67992" lon="7.21646">
        <ele>327.6</ele>
        <time>2020-08-18T15:47:20Z</time>
      </trkpt>
      <trkpt lat="48.67997" lon="7.21643">
        <ele>329.8</ele>
        <time>2020-08-18T15:47:23Z</time>
      </trkpt>
      <trkpt lat="48.68003" lon="7.21641">
        <ele>330.5</ele>
        <time>2020-08-18T15:47:27Z</time>
      </trkpt>
      <trkpt lat="48.68008" lon="7.21641">
        <ele>331.9</ele>
        <time>2020-08-18T15:47:30Z</time>
      </trkpt>
      <trkpt lat="48.68014" lon="7.2164">
        <ele>333</ele>
        <time>2020-08-18T15:47:33Z</time>
      </trkpt>
      <trkpt lat="48.6802" lon="7.21639">
        <ele>333.9</ele>
        <time>2020-08-18T15:47:36Z</time>
      </trkpt>
      <trkpt lat="48.68025" lon="7.21637">
        <ele>334.9</ele>
        <time>2020-08-18T15:47:39Z</time>
      </trkpt>
      <trkpt lat="48.6803" lon="7.21639">
        <ele>335.3</ele>
        <time>2020-08-18T15:47:42Z</time>
      </trkpt>
      <trkpt lat="48.68035" lon="7.21642">
        <ele>335.8</ele>
        <time>2020-08-18T15:47:45Z</time>
      </trkpt>
      <trkpt lat="48.6804" lon="7.21649">
        <ele>336.4</ele>
        <time>2020-08-18T15:47:48Z</time>
      </trkpt>
      <trkpt lat="48.68044" lon="7.21655">
        <ele>336.3</ele>
        <time>2020-08-18T15:47:50Z</time>
      </trkpt>
      <trkpt lat="48.68047" lon="7.21665">
        <ele>336.1</ele>
        <time>2020-08-18T15:47:52Z</time>
      </trkpt>
      <trkpt lat="48.68049" lon="7.21677">
        <ele>336.1</ele>
        <time>2020-08-18T15:47:54Z</time>
      </trkpt>
      <trkpt lat="48.68052" lon="7.2169">
        <ele>335.8</ele>
        <time>2020-08-18T15:47:56Z</time>
      </trkpt>
      <trkpt lat="48.68055" lon="7.21703">
        <ele>337.3</ele>
        <time>2020-08-18T15:47:58Z</time>
      </trkpt>
      <trkpt lat="48.68062" lon="7.21722">
        <ele>338</ele>
        <time>2020-08-18T15:48:00Z</time>
      </trkpt>
      <trkpt lat="48.68065" lon="7.21737">
        <ele>338.7</ele>
        <time>2020-08-18T15:48:02Z</time>
      </trkpt>
      <trkpt lat="48.68065" lon="7.2175">
        <ele>339.4</ele>
        <time>2020-08-18T15:48:04Z</time>
      </trkpt>
      <trkpt lat="48.68061" lon="7.21763">
        <ele>339.5</ele>
        <time>2020-08-18T15:48:06Z</time>
      </trkpt>
      <trkpt lat="48.68056" lon="7.21776">
        <ele>339.7</ele>
        <time>2020-08-18T15:48:08Z</time>
      </trkpt>
      <trkpt lat="48.68048" lon="7.21787">
        <ele>339</ele>
        <time>2020-08-18T15:48:10Z</time>
      </trkpt>
      <trkpt lat="48.68038" lon="7.21794">
        <ele>339.4</ele>
        <time>2020-08-18T15:48:12Z</time>
      </trkpt>
      <trkpt lat="48.68029" lon="7.21801">
        <ele>339.8</ele>
        <time>2020-08-18T15:48:14Z</time>
      </trkpt>
      <trkpt lat="48.68024" lon="7.21809">
        <ele>339.4</ele>
        <time>2020-08-18T15:48:16Z</time>
      </trkpt>
      <trkpt lat="48.6802" lon="7.2182">
        <ele>353.3</ele>
        <time>2020-08-18T15:48:18Z</time>
      </trkpt>
      <trkpt lat="48.68017" lon="7.21831">
        <ele>354.7</ele>
        <time>2020-08-18T15:48:20Z</time>
      </trkpt>
      <trkpt lat="48.68016" lon="7.21842">
        <ele>355.1</ele>
        <time>2020-08-18T15:48:22Z</time>
      </trkpt>
      <trkpt lat="48.68017" lon="7.21852">
        <ele>355.5</ele>
        <time>2020-08-18T15:48:24Z</time>
      </trkpt>
      <trkpt lat="48.68021" lon="7.21868">
        <ele>353.3</ele>
        <time>2020-08-18T15:48:26Z</time>
      </trkpt>
      <trkpt lat="48.68024" lon="7.2188">
        <ele>352.7</ele>
        <time>2020-08-18T15:48:28Z</time>
      </trkpt>
      <trkpt lat="48.68025" lon="7.21892">
        <ele>350.8</ele>
        <time>2020-08-18T15:48:30Z</time>
      </trkpt>
      <trkpt lat="48.68027" lon="7.21904">
        <ele>350.2</ele>
        <time>2020-08-18T15:48:32Z</time>
      </trkpt>
      <trkpt lat="48.68032" lon="7.21914">
        <ele>350.2</ele>
        <time>2020-08-18T15:48:34Z</time>
      </trkpt>
      <trkpt lat="48.68035" lon="7.21927">
        <ele>349.7</ele>
        <time>2020-08-18T15:48:36Z</time>
      </trkpt>
      <trkpt lat="48.68038" lon="7.2194">
        <ele>349.5</ele>
        <time>2020-08-18T15:48:38Z</time>
      </trkpt>
      <trkpt lat="48.68041" lon="7.21952">
        <ele>369.4</ele>
        <time>2020-08-18T15:48:40Z</time>
      </trkpt>
      <trkpt lat="48.68044" lon="7.21963">
        <ele>371.1</ele>
        <time>2020-08-18T15:48:42Z</time>
      </trkpt>
      <trkpt lat="48.68047" lon="7.21973">
        <ele>380.5</ele>
        <time>2020-08-18T15:48:44Z</time>
      </trkpt>
      <trkpt lat="48.6805" lon="7.21984">
        <ele>391.8</ele>
        <time>2020-08-18T15:48:46Z</time>
      </trkpt>
      <trkpt lat="48.68052" lon="7.21994">
        <ele>398.7</ele>
        <time>2020-08-18T15:48:48Z</time>
      </trkpt>
      <trkpt lat="48.68053" lon="7.22005">
        <ele>402.4</ele>
        <time>2020-08-18T15:48:50Z</time>
      </trkpt>
      <trkpt lat="48.68054" lon="7.22015">
        <ele>400.9</ele>
        <time>2020-08-18T15:48:52Z</time>
      </trkpt>
      <trkpt lat="48.68056" lon="7.22026">
        <ele>396.7</ele>
        <time>2020-08-18T15:48:54Z</time>
      </trkpt>
      <trkpt lat="48.6806" lon="7.22037">
        <ele>391.7</ele>
        <time>2020-08-18T15:48:56Z</time>
      </trkpt>
      <trkpt lat="48.68065" lon="7.22049">
        <ele>386.2</ele>
        <time>2020-08-18T15:48:58Z</time>
      </trkpt>
      <trkpt lat="48.68071" lon="7.22061">
        <ele>382.6</ele>
        <time>2020-08-18T15:49:00Z</time>
      </trkpt>
      <trkpt lat="48.68078" lon="7.22076">
        <ele>379.6</ele>
        <time>2020-08-18T15:49:02Z</time>
      </trkpt>
      <trkpt lat="48.68081" lon="7.22092">
        <ele>376.1</ele>
        <time>2020-08-18T15:49:04Z</time>
      </trkpt>
      <trkpt lat="48.68084" lon="7.22106">
        <ele>373.3</ele>
        <time>2020-08-18T15:49:06Z</time>
      </trkpt>
      <trkpt lat="48.68088" lon="7.2212">
        <ele>370.7</ele>
        <time>2020-08-18T15:49:08Z</time>
      </trkpt>
      <trkpt lat="48.68089" lon="7.22133">
        <ele>368.5</ele>
        <time>2020-08-18T15:49:10Z</time>
      </trkpt>
      <trkpt lat="48.68088" lon="7.22146">
        <ele>383.1</ele>
        <time>2020-08-18T15:49:12Z</time>
      </trkpt>
      <trkpt lat="48.68089" lon="7.22157">
        <ele>382.1</ele>
        <time>2020-08-18T15:49:14Z</time>
      </trkpt>
      <trkpt lat="48.68091" lon="7.22168">
        <ele>380</ele>
        <time>2020-08-18T15:49:16Z</time>
      </trkpt>
      <trkpt lat="48.68092" lon="7.2218">
        <ele>377.4</ele>
        <time>2020-08-18T15:49:18Z</time>
      </trkpt>
      <trkpt lat="48.68094" lon="7.22192">
        <ele>373.9</ele>
        <time>2020-08-18T15:49:20Z</time>
      </trkpt>
      <trkpt lat="48.68095" lon="7.22204">
        <ele>371.7</ele>
        <time>2020-08-18T15:49:22Z</time>
      </trkpt>
      <trkpt lat="48.68097" lon="7.22216">
        <ele>370.6</ele>
        <time>2020-08-18T15:49:24Z</time>
      </trkpt>
      <trkpt lat="48.68098" lon="7.22227">
        <ele>369.4</ele>
        <time>2020-08-18T15:49:26Z</time>
      </trkpt>
      <trkpt lat="48.68099" lon="7.22239">
        <ele>368.4</ele>
        <time>2020-08-18T15:49:28Z</time>
      </trkpt>
      <trkpt lat="48.68098" lon="7.22251">
        <ele>367.2</ele>
        <time>2020-08-18T15:49:30Z</time>
      </trkpt>
      <trkpt lat="48.68097" lon="7.22264">
        <ele>366.6</ele>
        <time>2020-08-18T15:49:32Z</time>
      </trkpt>
      <trkpt lat="48.68096" lon="7.22277">
        <ele>367.1</ele>
        <time>2020-08-18T15:49:34Z</time>
      </trkpt>
      <trkpt lat="48.68094" lon="7.22291">
        <ele>366.5</ele>
        <time>2020-08-18T15:49:36Z</time>
      </trkpt>
      <trkpt lat="48.68092" lon="7.22304">
        <ele>366.9</ele>
        <time>2020-08-18T15:49:38Z</time>
      </trkpt>
      <trkpt lat="48.68092" lon="7.22323">
        <ele>367.3</ele>
        <time>2020-08-18T15:49:40Z</time>
      </trkpt>
      <trkpt lat="48.68088" lon="7.22336">
        <ele>367.6</ele>
        <time>2020-08-18T15:49:42Z</time>
      </trkpt>
      <trkpt lat="48.68083" lon="7.22349">
        <ele>368.1</ele>
        <time>2020-08-18T15:49:44Z</time>
      </trkpt>
      <trkpt lat="48.68076" lon="7.22357">
        <ele>368.2</ele>
        <time>2020-08-18T15:49:46Z</time>
      </trkpt>
      <trkpt lat="48.68067" lon="7.22364">
        <ele>390.5</ele>
        <time>2020-08-18T15:49:48Z</time>
      </trkpt>
      <trkpt lat="48.6806" lon="7.22362">
        <ele>392.2</ele>
        <time>2020-08-18T15:49:50Z</time>
      </trkpt>
      <trkpt lat="48.68053" lon="7.22358">
        <ele>390.4</ele>
        <time>2020-08-18T15:49:52Z</time>
      </trkpt>
      <trkpt lat="48.68045" lon="7.22352">
        <ele>388</ele>
        <time>2020-08-18T15:49:54Z</time>
      </trkpt>
      <trkpt lat="48.68038" lon="7.22344">
        <ele>385.2</ele>
        <time>2020-08-18T15:49:56Z</time>
      </trkpt>
      <trkpt lat="48.68032" lon="7.22337">
        <ele>391.8</ele>
        <time>2020-08-18T15:49:58Z</time>
      </trkpt>
      <trkpt lat="48.68027" lon="7.2233">
        <ele>391.3</ele>
        <time>2020-08-18T15:50:00Z</time>
      </trkpt>
      <trkpt lat="48.68021" lon="7.22324">
        <ele>390.3</ele>
        <time>2020-08-18T15:50:02Z</time>
      </trkpt>
      <trkpt lat="48.68015" lon="7.22314">
        <ele>388.2</ele>
        <time>2020-08-18T15:50:04Z</time>
      </trkpt>
      <trkpt lat="48.68007" lon="7.22304">
        <ele>386.3</ele>
        <time>2020-08-18T15:50:06Z</time>
      </trkpt>
      <trkpt lat="48.67998" lon="7.22294">
        <ele>384.9</ele>
        <time>2020-08-18T15:50:08Z</time>
      </trkpt>
      <trkpt lat="48.67989" lon="7.22287">
        <ele>383.4</ele>
        <time>2020-08-18T15:50:10Z</time>
      </trkpt>
      <trkpt lat="48.67981" lon="7.22281">
        <ele>382.9</ele>
        <time>2020-08-18T15:50:12Z</time>
      </trkpt>
      <trkpt lat="48.67974" lon="7.22274">
        <ele>382.5</ele>
        <time>2020-08-18T15:50:14Z</time>
      </trkpt>
      <trkpt lat="48.67967" lon="7.22269">
        <ele>382.3</ele>
        <time>2020-08-18T15:50:16Z</time>
      </trkpt>
      <trkpt lat="48.67959" lon="7.22263">
        <ele>381.6</ele>
        <time>2020-08-18T15:50:18Z</time>
      </trkpt>
      <trkpt lat="48.67952" lon="7.22256">
        <ele>381.4</ele>
        <time>2020-08-18T15:50:20Z</time>
      </trkpt>
      <trkpt lat="48.67945" lon="7.22251">
        <ele>381.4</ele>
        <time>2020-08-18T15:50:22Z</time>
      </trkpt>
      <trkpt lat="48.67936" lon="7.22245">
        <ele>381.6</ele>
        <time>2020-08-18T15:50:24Z</time>
      </trkpt>
      <trkpt lat="48.67927" lon="7.22239">
        <ele>382.2</ele>
        <time>2020-08-18T15:50:26Z</time>
      </trkpt>
      <trkpt lat="48.67918" lon="7.22233">
        <ele>382.3</ele>
        <time>2020-08-18T15:50:28Z</time>
      </trkpt>
      <trkpt lat="48.67909" lon="7.22226">
        <ele>382.4</ele>
        <time>2020-08-18T15:50:30Z</time>
      </trkpt>
      <trkpt lat="48.679" lon="7.22221">
        <ele>382.4</ele>
        <time>2020-08-18T15:50:32Z</time>
      </trkpt>
      <trkpt lat="48.67894" lon="7.22217">
        <ele>383.3</ele>
        <time>2020-08-18T15:50:34Z</time>
      </trkpt>
      <trkpt lat="48.67886" lon="7.22212">
        <ele>383.6</ele>
        <time>2020-08-18T15:50:36Z</time>
      </trkpt>
      <trkpt lat="48.67879" lon="7.22208">
        <ele>384.4</ele>
        <time>2020-08-18T15:50:38Z</time>
      </trkpt>
      <trkpt lat="48.67872" lon="7.22205">
        <ele>384.9</ele>
        <time>2020-08-18T15:50:40Z</time>
      </trkpt>
      <trkpt lat="48.67864" lon="7.22201">
        <ele>386.4</ele>
        <time>2020-08-18T15:50:42Z</time>
      </trkpt>
      <trkpt lat="48.67857" lon="7.22196">
        <ele>387.1</ele>
        <time>2020-08-18T15:50:44Z</time>
      </trkpt>
      <trkpt lat="48.67849" lon="7.2219">
        <ele>388.9</ele>
        <time>2020-08-18T15:50:46Z</time>
      </trkpt>
      <trkpt lat="48.67842" lon="7.22185">
        <ele>390.8</ele>
        <time>2020-08-18T15:50:48Z</time>
      </trkpt>
      <trkpt lat="48.67835" lon="7.2218">
        <ele>391.2</ele>
        <time>2020-08-18T15:50:50Z</time>
      </trkpt>
      <trkpt lat="48.67829" lon="7.22176">
        <ele>393</ele>
        <time>2020-08-18T15:50:52Z</time>
      </trkpt>
      <trkpt lat="48.67822" lon="7.22172">
        <ele>394.2</ele>
        <time>2020-08-18T15:50:54Z</time>
      </trkpt>
      <trkpt lat="48.67815" lon="7.22168">
        <ele>394.9</ele>
        <time>2020-08-18T15:50:56Z</time>
      </trkpt>
      <trkpt lat="48.67807" lon="7.22164">
        <ele>395.7</ele>
        <time>2020-08-18T15:50:58Z</time>
      </trkpt>
      <trkpt lat="48.67798" lon="7.22162">
        <ele>395.7</ele>
        <time>2020-08-18T15:51:00Z</time>
      </trkpt>
      <trkpt lat="48.67788" lon="7.22158">
        <ele>395.7</ele>
        <time>2020-08-18T15:51:02Z</time>
      </trkpt>
      <trkpt lat="48.6778" lon="7.22154">
        <ele>394.5</ele>
        <time>2020-08-18T15:51:04Z</time>
      </trkpt>
      <trkpt lat="48.67772" lon="7.22149">
        <ele>393.3</ele>
        <time>2020-08-18T15:51:06Z</time>
      </trkpt>
      <trkpt lat="48.67766" lon="7.22145">
        <ele>391.9</ele>
        <time>2020-08-18T15:51:08Z</time>
      </trkpt>
      <trkpt lat="48.67758" lon="7.22141">
        <ele>391.4</ele>
        <time>2020-08-18T15:51:10Z</time>
      </trkpt>
      <trkpt lat="48.67749" lon="7.22138">
        <ele>391</ele>
        <time>2020-08-18T15:51:12Z</time>
      </trkpt>
      <trkpt lat="48.67736" lon="7.22136">
        <ele>390.9</ele>
        <time>2020-08-18T15:51:14Z</time>
      </trkpt>
      <trkpt lat="48.67725" lon="7.22132">
        <ele>391.6</ele>
        <time>2020-08-18T15:51:16Z</time>
      </trkpt>
      <trkpt lat="48.67716" lon="7.22128">
        <ele>392.2</ele>
        <time>2020-08-18T15:51:18Z</time>
      </trkpt>
      <trkpt lat="48.67708" lon="7.22124">
        <ele>391.9</ele>
        <time>2020-08-18T15:51:20Z</time>
      </trkpt>
      <trkpt lat="48.677" lon="7.22123">
        <ele>391.7</ele>
        <time>2020-08-18T15:51:22Z</time>
      </trkpt>
      <trkpt lat="48.67691" lon="7.22123">
        <ele>391.6</ele>
        <time>2020-08-18T15:51:24Z</time>
      </trkpt>
      <trkpt lat="48.67683" lon="7.22124">
        <ele>391.3</ele>
        <time>2020-08-18T15:51:26Z</time>
      </trkpt>
      <trkpt lat="48.67674" lon="7.22126">
        <ele>391.2</ele>
        <time>2020-08-18T15:51:28Z</time>
      </trkpt>
      <trkpt lat="48.67665" lon="7.2213">
        <ele>391.5</ele>
        <time>2020-08-18T15:51:30Z</time>
      </trkpt>
      <trkpt lat="48.67657" lon="7.22134">
        <ele>391.9</ele>
        <time>2020-08-18T15:51:32Z</time>
      </trkpt>
      <trkpt lat="48.6765" lon="7.22139">
        <ele>391.4</ele>
        <time>2020-08-18T15:51:34Z</time>
      </trkpt>
      <trkpt lat="48.67644" lon="7.22145">
        <ele>391.2</ele>
        <time>2020-08-18T15:51:36Z</time>
      </trkpt>
      <trkpt lat="48.67638" lon="7.22151">
        <ele>391</ele>
        <time>2020-08-18T15:51:38Z</time>
      </trkpt>
      <trkpt lat="48.67632" lon="7.22157">
        <ele>391.3</ele>
        <time>2020-08-18T15:51:40Z</time>
      </trkpt>
      <trkpt lat="48.67628" lon="7.22164">
        <ele>392.2</ele>
        <time>2020-08-18T15:51:42Z</time>
      </trkpt>
      <trkpt lat="48.67626" lon="7.2217">
        <ele>392.9</ele>
        <time>2020-08-18T15:51:44Z</time>
      </trkpt>
      <trkpt lat="48.67625" lon="7.22177">
        <ele>396.8</ele>
        <time>2020-08-18T15:51:55Z</time>
      </trkpt>
      <trkpt lat="48.6762" lon="7.2218">
        <ele>399.8</ele>
        <time>2020-08-18T15:52:03Z</time>
      </trkpt>
      <trkpt lat="48.67611" lon="7.22184">
        <ele>399.9</ele>
        <time>2020-08-18T15:52:05Z</time>
      </trkpt>
      <trkpt lat="48.67601" lon="7.22189">
        <ele>399.5</ele>
        <time>2020-08-18T15:52:07Z</time>
      </trkpt>
      <trkpt lat="48.6759" lon="7.22197">
        <ele>401</ele>
        <time>2020-08-18T15:52:09Z</time>
      </trkpt>
      <trkpt lat="48.67579" lon="7.22205">
        <ele>400.1</ele>
        <time>2020-08-18T15:52:11Z</time>
      </trkpt>
      <trkpt lat="48.67568" lon="7.22214">
        <ele>399.8</ele>
        <time>2020-08-18T15:52:13Z</time>
      </trkpt>
      <trkpt lat="48.67559" lon="7.22223">
        <ele>399</ele>
        <time>2020-08-18T15:52:15Z</time>
      </trkpt>
      <trkpt lat="48.67553" lon="7.22233">
        <ele>398.4</ele>
        <time>2020-08-18T15:52:17Z</time>
      </trkpt>
      <trkpt lat="48.6755" lon="7.22239">
        <ele>397.5</ele>
        <time>2020-08-18T15:52:19Z</time>
      </trkpt>
      <trkpt lat="48.67548" lon="7.22246">
        <ele>396.5</ele>
        <time>2020-08-18T15:52:24Z</time>
      </trkpt>
      <trkpt lat="48.67549" lon="7.22254">
        <ele>395.9</ele>
        <time>2020-08-18T15:52:30Z</time>
      </trkpt>
      <trkpt lat="48.67545" lon="7.2226">
        <ele>396.7</ele>
        <time>2020-08-18T15:52:36Z</time>
      </trkpt>
      <trkpt lat="48.67542" lon="7.22268">
        <ele>395.7</ele>
        <time>2020-08-18T15:52:39Z</time>
      </trkpt>
      <trkpt lat="48.67541" lon="7.22277">
        <ele>395</ele>
        <time>2020-08-18T15:52:41Z</time>
      </trkpt>
      <trkpt lat="48.67538" lon="7.22288">
        <ele>394.4</ele>
        <time>2020-08-18T15:52:43Z</time>
      </trkpt>
      <trkpt lat="48.67535" lon="7.223">
        <ele>394</ele>
        <time>2020-08-18T15:52:45Z</time>
      </trkpt>
      <trkpt lat="48.67532" lon="7.22313">
        <ele>393.6</ele>
        <time>2020-08-18T15:52:47Z</time>
      </trkpt>
      <trkpt lat="48.6753" lon="7.22327">
        <ele>392.6</ele>
        <time>2020-08-18T15:52:49Z</time>
      </trkpt>
      <trkpt lat="48.67529" lon="7.22341">
        <ele>391.4</ele>
        <time>2020-08-18T15:52:51Z</time>
      </trkpt>
      <trkpt lat="48.67529" lon="7.22356">
        <ele>391</ele>
        <time>2020-08-18T15:52:53Z</time>
      </trkpt>
      <trkpt lat="48.67527" lon="7.22377">
        <ele>391.1</ele>
        <time>2020-08-18T15:52:55Z</time>
      </trkpt>
      <trkpt lat="48.67525" lon="7.22392">
        <ele>391.4</ele>
        <time>2020-08-18T15:52:57Z</time>
      </trkpt>
      <trkpt lat="48.67524" lon="7.22407">
        <ele>390.7</ele>
        <time>2020-08-18T15:52:59Z</time>
      </trkpt>
      <trkpt lat="48.67523" lon="7.22419">
        <ele>390.3</ele>
        <time>2020-08-18T15:53:01Z</time>
      </trkpt>
      <trkpt lat="48.67523" lon="7.22433">
        <ele>389.7</ele>
        <time>2020-08-18T15:53:03Z</time>
      </trkpt>
      <trkpt lat="48.67527" lon="7.22444">
        <ele>388.3</ele>
        <time>2020-08-18T15:53:05Z</time>
      </trkpt>
      <trkpt lat="48.67531" lon="7.22454">
        <ele>387.5</ele>
        <time>2020-08-18T15:53:07Z</time>
      </trkpt>
      <trkpt lat="48.67533" lon="7.22464">
        <ele>387.6</ele>
        <time>2020-08-18T15:53:09Z</time>
      </trkpt>
      <trkpt lat="48.67534" lon="7.22475">
        <ele>388.4</ele>
        <time>2020-08-18T15:53:11Z</time>
      </trkpt>
      <trkpt lat="48.67534" lon="7.22486">
        <ele>389.7</ele>
        <time>2020-08-18T15:53:13Z</time>
      </trkpt>
      <trkpt lat="48.67533" lon="7.22499">
        <ele>392.3</ele>
        <time>2020-08-18T15:53:15Z</time>
      </trkpt>
      <trkpt lat="48.67533" lon="7.22511">
        <ele>393.5</ele>
        <time>2020-08-18T15:53:17Z</time>
      </trkpt>
      <trkpt lat="48.67534" lon="7.22524">
        <ele>394.2</ele>
        <time>2020-08-18T15:53:19Z</time>
      </trkpt>
      <trkpt lat="48.67537" lon="7.22535">
        <ele>394.6</ele>
        <time>2020-08-18T15:53:21Z</time>
      </trkpt>
      <trkpt lat="48.6754" lon="7.22551">
        <ele>394.8</ele>
        <time>2020-08-18T15:53:23Z</time>
      </trkpt>
      <trkpt lat="48.67542" lon="7.22568">
        <ele>395.2</ele>
        <time>2020-08-18T15:53:25Z</time>
      </trkpt>
      <trkpt lat="48.67543" lon="7.22586">
        <ele>394.8</ele>
        <time>2020-08-18T15:53:27Z</time>
      </trkpt>
      <trkpt lat="48.67544" lon="7.226">
        <ele>395.7</ele>
        <time>2020-08-18T15:53:29Z</time>
      </trkpt>
      <trkpt lat="48.67546" lon="7.22614">
        <ele>396.2</ele>
        <time>2020-08-18T15:53:31Z</time>
      </trkpt>
      <trkpt lat="48.67547" lon="7.22627">
        <ele>398</ele>
        <time>2020-08-18T15:53:33Z</time>
      </trkpt>
      <trkpt lat="48.67548" lon="7.2264">
        <ele>399.4</ele>
        <time>2020-08-18T15:53:35Z</time>
      </trkpt>
      <trkpt lat="48.6755" lon="7.22653">
        <ele>400.4</ele>
        <time>2020-08-18T15:53:37Z</time>
      </trkpt>
      <trkpt lat="48.67552" lon="7.22665">
        <ele>400.9</ele>
        <time>2020-08-18T15:53:39Z</time>
      </trkpt>
      <trkpt lat="48.67554" lon="7.22676">
        <ele>401.4</ele>
        <time>2020-08-18T15:53:41Z</time>
      </trkpt>
      <trkpt lat="48.67557" lon="7.22687">
        <ele>401.8</ele>
        <time>2020-08-18T15:53:43Z</time>
      </trkpt>
      <trkpt lat="48.67559" lon="7.22699">
        <ele>402.2</ele>
        <time>2020-08-18T15:53:45Z</time>
      </trkpt>
      <trkpt lat="48.67562" lon="7.22712">
        <ele>402.6</ele>
        <time>2020-08-18T15:53:47Z</time>
      </trkpt>
      <trkpt lat="48.67565" lon="7.22725">
        <ele>403.2</ele>
        <time>2020-08-18T15:53:49Z</time>
      </trkpt>
      <trkpt lat="48.67568" lon="7.22736">
        <ele>403.6</ele>
        <time>2020-08-18T15:53:51Z</time>
      </trkpt>
      <trkpt lat="48.67572" lon="7.22745">
        <ele>404.8</ele>
        <time>2020-08-18T15:53:53Z</time>
      </trkpt>
      <trkpt lat="48.67578" lon="7.22755">
        <ele>405.8</ele>
        <time>2020-08-18T15:53:55Z</time>
      </trkpt>
      <trkpt lat="48.67584" lon="7.22766">
        <ele>407.3</ele>
        <time>2020-08-18T15:53:57Z</time>
      </trkpt>
      <trkpt lat="48.67589" lon="7.22777">
        <ele>407.8</ele>
        <time>2020-08-18T15:53:59Z</time>
      </trkpt>
      <trkpt lat="48.67592" lon="7.22787">
        <ele>408.5</ele>
        <time>2020-08-18T15:54:01Z</time>
      </trkpt>
      <trkpt lat="48.67595" lon="7.22798">
        <ele>409.3</ele>
        <time>2020-08-18T15:54:03Z</time>
      </trkpt>
      <trkpt lat="48.67598" lon="7.22811">
        <ele>410.3</ele>
        <time>2020-08-18T15:54:05Z</time>
      </trkpt>
      <trkpt lat="48.67603" lon="7.22825">
        <ele>411.3</ele>
        <time>2020-08-18T15:54:08Z</time>
      </trkpt>
      <trkpt lat="48.67606" lon="7.22835">
        <ele>412.6</ele>
        <time>2020-08-18T15:54:10Z</time>
      </trkpt>
      <trkpt lat="48.67608" lon="7.22851">
        <ele>411.8</ele>
        <time>2020-08-18T15:54:13Z</time>
      </trkpt>
      <trkpt lat="48.67609" lon="7.22861">
        <ele>411.5</ele>
        <time>2020-08-18T15:54:15Z</time>
      </trkpt>
      <trkpt lat="48.67609" lon="7.22872">
        <ele>411.1</ele>
        <time>2020-08-18T15:54:17Z</time>
      </trkpt>
      <trkpt lat="48.67609" lon="7.22888">
        <ele>412.1</ele>
        <time>2020-08-18T15:54:19Z</time>
      </trkpt>
      <trkpt lat="48.6761" lon="7.22903">
        <ele>412.3</ele>
        <time>2020-08-18T15:54:21Z</time>
      </trkpt>
      <trkpt lat="48.67612" lon="7.22917">
        <ele>412.5</ele>
        <time>2020-08-18T15:54:23Z</time>
      </trkpt>
      <trkpt lat="48.67615" lon="7.2293">
        <ele>412.8</ele>
        <time>2020-08-18T15:54:25Z</time>
      </trkpt>
      <trkpt lat="48.67618" lon="7.22944">
        <ele>412.5</ele>
        <time>2020-08-18T15:54:27Z</time>
      </trkpt>
      <trkpt lat="48.6762" lon="7.22957">
        <ele>412.4</ele>
        <time>2020-08-18T15:54:29Z</time>
      </trkpt>
      <trkpt lat="48.67622" lon="7.22968">
        <ele>412.9</ele>
        <time>2020-08-18T15:54:31Z</time>
      </trkpt>
      <trkpt lat="48.67623" lon="7.22979">
        <ele>412.9</ele>
        <time>2020-08-18T15:54:33Z</time>
      </trkpt>
      <trkpt lat="48.67623" lon="7.2299">
        <ele>413.6</ele>
        <time>2020-08-18T15:54:35Z</time>
      </trkpt>
      <trkpt lat="48.67622" lon="7.22999">
        <ele>414</ele>
        <time>2020-08-18T15:54:37Z</time>
      </trkpt>
      <trkpt lat="48.67624" lon="7.2301">
        <ele>438.8</ele>
        <time>2020-08-18T15:54:39Z</time>
      </trkpt>
      <trkpt lat="48.67625" lon="7.23021">
        <ele>444.7</ele>
        <time>2020-08-18T15:54:41Z</time>
      </trkpt>
      <trkpt lat="48.67627" lon="7.23032">
        <ele>446</ele>
        <time>2020-08-18T15:54:43Z</time>
      </trkpt>
      <trkpt lat="48.67628" lon="7.23044">
        <ele>444.8</ele>
        <time>2020-08-18T15:54:45Z</time>
      </trkpt>
      <trkpt lat="48.67629" lon="7.23058">
        <ele>440.9</ele>
        <time>2020-08-18T15:54:47Z</time>
      </trkpt>
      <trkpt lat="48.67631" lon="7.23071">
        <ele>438</ele>
        <time>2020-08-18T15:54:49Z</time>
      </trkpt>
      <trkpt lat="48.67631" lon="7.23083">
        <ele>435.1</ele>
        <time>2020-08-18T15:54:51Z</time>
      </trkpt>
      <trkpt lat="48.67632" lon="7.23096">
        <ele>432.3</ele>
        <time>2020-08-18T15:54:53Z</time>
      </trkpt>
      <trkpt lat="48.67633" lon="7.23106">
        <ele>429.8</ele>
        <time>2020-08-18T15:54:55Z</time>
      </trkpt>
      <trkpt lat="48.67633" lon="7.23118">
        <ele>428.8</ele>
        <time>2020-08-18T15:54:57Z</time>
      </trkpt>
      <trkpt lat="48.67633" lon="7.2313">
        <ele>427.9</ele>
        <time>2020-08-18T15:54:59Z</time>
      </trkpt>
      <trkpt lat="48.67635" lon="7.23142">
        <ele>427.2</ele>
        <time>2020-08-18T15:55:01Z</time>
      </trkpt>
      <trkpt lat="48.67636" lon="7.23153">
        <ele>427.5</ele>
        <time>2020-08-18T15:55:03Z</time>
      </trkpt>
      <trkpt lat="48.67637" lon="7.23163">
        <ele>427.3</ele>
        <time>2020-08-18T15:55:05Z</time>
      </trkpt>
      <trkpt lat="48.67637" lon="7.23175">
        <ele>427.1</ele>
        <time>2020-08-18T15:55:07Z</time>
      </trkpt>
      <trkpt lat="48.67637" lon="7.23187">
        <ele>427.3</ele>
        <time>2020-08-18T15:55:09Z</time>
      </trkpt>
      <trkpt lat="48.67638" lon="7.23201">
        <ele>426.8</ele>
        <time>2020-08-18T15:55:11Z</time>
      </trkpt>
      <trkpt lat="48.67641" lon="7.23214">
        <ele>427.3</ele>
        <time>2020-08-18T15:55:13Z</time>
      </trkpt>
      <trkpt lat="48.67643" lon="7.23227">
        <ele>427.9</ele>
        <time>2020-08-18T15:55:15Z</time>
      </trkpt>
      <trkpt lat="48.67644" lon="7.2324">
        <ele>428.2</ele>
        <time>2020-08-18T15:55:17Z</time>
      </trkpt>
      <trkpt lat="48.67646" lon="7.23251">
        <ele>428.9</ele>
        <time>2020-08-18T15:55:19Z</time>
      </trkpt>
      <trkpt lat="48.67648" lon="7.23261">
        <ele>429.3</ele>
        <time>2020-08-18T15:55:21Z</time>
      </trkpt>
      <trkpt lat="48.67651" lon="7.23273">
        <ele>428.7</ele>
        <time>2020-08-18T15:55:23Z</time>
      </trkpt>
      <trkpt lat="48.67655" lon="7.23284">
        <ele>428.5</ele>
        <time>2020-08-18T15:55:25Z</time>
      </trkpt>
      <trkpt lat="48.6766" lon="7.23295">
        <ele>428.7</ele>
        <time>2020-08-18T15:55:27Z</time>
      </trkpt>
      <trkpt lat="48.67663" lon="7.23307">
        <ele>428.7</ele>
        <time>2020-08-18T15:55:29Z</time>
      </trkpt>
      <trkpt lat="48.67665" lon="7.2332">
        <ele>429</ele>
        <time>2020-08-18T15:55:31Z</time>
      </trkpt>
      <trkpt lat="48.67667" lon="7.23332">
        <ele>430</ele>
        <time>2020-08-18T15:55:33Z</time>
      </trkpt>
      <trkpt lat="48.67668" lon="7.23346">
        <ele>430.5</ele>
        <time>2020-08-18T15:55:35Z</time>
      </trkpt>
      <trkpt lat="48.6767" lon="7.23361">
        <ele>430.8</ele>
        <time>2020-08-18T15:55:37Z</time>
      </trkpt>
      <trkpt lat="48.67673" lon="7.23376">
        <ele>430.4</ele>
        <time>2020-08-18T15:55:39Z</time>
      </trkpt>
      <trkpt lat="48.67676" lon="7.2339">
        <ele>430.4</ele>
        <time>2020-08-18T15:55:41Z</time>
      </trkpt>
      <trkpt lat="48.67676" lon="7.23403">
        <ele>430.9</ele>
        <time>2020-08-18T15:55:43Z</time>
      </trkpt>
      <trkpt lat="48.67674" lon="7.23414">
        <ele>431.5</ele>
        <time>2020-08-18T15:55:45Z</time>
      </trkpt>
      <trkpt lat="48.67673" lon="7.23423">
        <ele>431.8</ele>
        <time>2020-08-18T15:55:47Z</time>
      </trkpt>
      <trkpt lat="48.67672" lon="7.23435">
        <ele>432</ele>
        <time>2020-08-18T15:55:49Z</time>
      </trkpt>
      <trkpt lat="48.67674" lon="7.23448">
        <ele>432.8</ele>
        <time>2020-08-18T15:55:51Z</time>
      </trkpt>
      <trkpt lat="48.67677" lon="7.23461">
        <ele>481.7</ele>
        <time>2020-08-18T15:55:53Z</time>
      </trkpt>
      <trkpt lat="48.67679" lon="7.23473">
        <ele>490</ele>
        <time>2020-08-18T15:55:55Z</time>
      </trkpt>
      <trkpt lat="48.6768" lon="7.23485">
        <ele>515.7</ele>
        <time>2020-08-18T15:55:57Z</time>
      </trkpt>
      <trkpt lat="48.67682" lon="7.23498">
        <ele>514.7</ele>
        <time>2020-08-18T15:55:59Z</time>
      </trkpt>
      <trkpt lat="48.67683" lon="7.2351">
        <ele>506.2</ele>
        <time>2020-08-18T15:56:01Z</time>
      </trkpt>
      <trkpt lat="48.67686" lon="7.23522">
        <ele>526.9</ele>
        <time>2020-08-18T15:56:03Z</time>
      </trkpt>
      <trkpt lat="48.67689" lon="7.23534">
        <ele>523.4</ele>
        <time>2020-08-18T15:56:05Z</time>
      </trkpt>
      <trkpt lat="48.67691" lon="7.23544">
        <ele>515.5</ele>
        <time>2020-08-18T15:56:07Z</time>
      </trkpt>
      <trkpt lat="48.67693" lon="7.23555">
        <ele>507.3</ele>
        <time>2020-08-18T15:56:09Z</time>
      </trkpt>
      <trkpt lat="48.67694" lon="7.23565">
        <ele>498.6</ele>
        <time>2020-08-18T15:56:11Z</time>
      </trkpt>
      <trkpt lat="48.67695" lon="7.23574">
        <ele>489.4</ele>
        <time>2020-08-18T15:56:13Z</time>
      </trkpt>
      <trkpt lat="48.67696" lon="7.23583">
        <ele>517.3</ele>
        <time>2020-08-18T15:56:16Z</time>
      </trkpt>
      <trkpt lat="48.67695" lon="7.2359">
        <ele>489.7</ele>
        <time>2020-08-18T15:56:24Z</time>
      </trkpt>
      <trkpt lat="48.67697" lon="7.23596">
        <ele>457.8</ele>
        <time>2020-08-18T15:56:47Z</time>
      </trkpt>
      <trkpt lat="48.67701" lon="7.236">
        <ele>462</ele>
        <time>2020-08-18T15:56:54Z</time>
      </trkpt>
      <trkpt lat="48.67702" lon="7.23607">
        <ele>463.7</ele>
        <time>2020-08-18T15:56:59Z</time>
      </trkpt>
      <trkpt lat="48.67702" lon="7.23614">
        <ele>463.2</ele>
        <time>2020-08-18T15:57:02Z</time>
      </trkpt>
      <trkpt lat="48.67703" lon="7.23623">
        <ele>461.7</ele>
        <time>2020-08-18T15:57:05Z</time>
      </trkpt>
      <trkpt lat="48.67704" lon="7.23632">
        <ele>460.9</ele>
        <time>2020-08-18T15:57:08Z</time>
      </trkpt>
      <trkpt lat="48.67707" lon="7.23639">
        <ele>459.4</ele>
        <time>2020-08-18T15:57:10Z</time>
      </trkpt>
      <trkpt lat="48.67711" lon="7.23647">
        <ele>458.5</ele>
        <time>2020-08-18T15:57:12Z</time>
      </trkpt>
      <trkpt lat="48.67715" lon="7.23657">
        <ele>457</ele>
        <time>2020-08-18T15:57:14Z</time>
      </trkpt>
      <trkpt lat="48.67717" lon="7.23669">
        <ele>455.4</ele>
        <time>2020-08-18T15:57:16Z</time>
      </trkpt>
      <trkpt lat="48.67718" lon="7.23682">
        <ele>454.3</ele>
        <time>2020-08-18T15:57:18Z</time>
      </trkpt>
      <trkpt lat="48.67719" lon="7.23694">
        <ele>453.6</ele>
        <time>2020-08-18T15:57:20Z</time>
      </trkpt>
      <trkpt lat="48.67718" lon="7.23706">
        <ele>453</ele>
        <time>2020-08-18T15:57:22Z</time>
      </trkpt>
      <trkpt lat="48.67719" lon="7.23717">
        <ele>451.8</ele>
        <time>2020-08-18T15:57:24Z</time>
      </trkpt>
      <trkpt lat="48.67722" lon="7.23728">
        <ele>450.8</ele>
        <time>2020-08-18T15:57:26Z</time>
      </trkpt>
      <trkpt lat="48.67723" lon="7.23739">
        <ele>450.6</ele>
        <time>2020-08-18T15:57:28Z</time>
      </trkpt>
      <trkpt lat="48.67723" lon="7.2375">
        <ele>450.3</ele>
        <time>2020-08-18T15:57:30Z</time>
      </trkpt>
      <trkpt lat="48.67722" lon="7.23761">
        <ele>450</ele>
        <time>2020-08-18T15:57:32Z</time>
      </trkpt>
      <trkpt lat="48.67723" lon="7.23773">
        <ele>450.5</ele>
        <time>2020-08-18T15:57:34Z</time>
      </trkpt>
      <trkpt lat="48.67723" lon="7.23782">
        <ele>450.8</ele>
        <time>2020-08-18T15:57:36Z</time>
      </trkpt>
      <trkpt lat="48.67723" lon="7.23791">
        <ele>451.3</ele>
        <time>2020-08-18T15:57:38Z</time>
      </trkpt>
      <trkpt lat="48.67722" lon="7.238">
        <ele>452.4</ele>
        <time>2020-08-18T15:57:40Z</time>
      </trkpt>
      <trkpt lat="48.67722" lon="7.2381">
        <ele>453.9</ele>
        <time>2020-08-18T15:57:42Z</time>
      </trkpt>
      <trkpt lat="48.67723" lon="7.23822">
        <ele>455</ele>
        <time>2020-08-18T15:57:44Z</time>
      </trkpt>
      <trkpt lat="48.67723" lon="7.23834">
        <ele>455.9</ele>
        <time>2020-08-18T15:57:46Z</time>
      </trkpt>
      <trkpt lat="48.67723" lon="7.23847">
        <ele>455.7</ele>
        <time>2020-08-18T15:57:48Z</time>
      </trkpt>
      <trkpt lat="48.67725" lon="7.23861">
        <ele>456</ele>
        <time>2020-08-18T15:57:50Z</time>
      </trkpt>
      <trkpt lat="48.67727" lon="7.23874">
        <ele>456.8</ele>
        <time>2020-08-18T15:57:52Z</time>
      </trkpt>
      <trkpt lat="48.67727" lon="7.23886">
        <ele>456.6</ele>
        <time>2020-08-18T15:57:54Z</time>
      </trkpt>
      <trkpt lat="48.67727" lon="7.23898">
        <ele>456.7</ele>
        <time>2020-08-18T15:57:56Z</time>
      </trkpt>
      <trkpt lat="48.67727" lon="7.23909">
        <ele>475.6</ele>
        <time>2020-08-18T15:57:58Z</time>
      </trkpt>
      <trkpt lat="48.67726" lon="7.23919">
        <ele>478.4</ele>
        <time>2020-08-18T15:58:00Z</time>
      </trkpt>
      <trkpt lat="48.67725" lon="7.23931">
        <ele>479.5</ele>
        <time>2020-08-18T15:58:02Z</time>
      </trkpt>
      <trkpt lat="48.67724" lon="7.23941">
        <ele>480.2</ele>
        <time>2020-08-18T15:58:04Z</time>
      </trkpt>
      <trkpt lat="48.67723" lon="7.23951">
        <ele>479.9</ele>
        <time>2020-08-18T15:58:06Z</time>
      </trkpt>
      <trkpt lat="48.67721" lon="7.23962">
        <ele>479.7</ele>
        <time>2020-08-18T15:58:08Z</time>
      </trkpt>
      <trkpt lat="48.67719" lon="7.23974">
        <ele>478.7</ele>
        <time>2020-08-18T15:58:10Z</time>
      </trkpt>
      <trkpt lat="48.67718" lon="7.23986">
        <ele>477.6</ele>
        <time>2020-08-18T15:58:12Z</time>
      </trkpt>
      <trkpt lat="48.67718" lon="7.24">
        <ele>476.4</ele>
        <time>2020-08-18T15:58:14Z</time>
      </trkpt>
      <trkpt lat="48.67718" lon="7.24015">
        <ele>475</ele>
        <time>2020-08-18T15:58:16Z</time>
      </trkpt>
      <trkpt lat="48.67718" lon="7.24029">
        <ele>497.2</ele>
        <time>2020-08-18T15:58:18Z</time>
      </trkpt>
      <trkpt lat="48.67717" lon="7.24041">
        <ele>501.4</ele>
        <time>2020-08-18T15:58:20Z</time>
      </trkpt>
      <trkpt lat="48.67716" lon="7.24053">
        <ele>501.3</ele>
        <time>2020-08-18T15:58:22Z</time>
      </trkpt>
      <trkpt lat="48.67715" lon="7.24063">
        <ele>499.7</ele>
        <time>2020-08-18T15:58:24Z</time>
      </trkpt>
      <trkpt lat="48.67713" lon="7.24073">
        <ele>495.5</ele>
        <time>2020-08-18T15:58:26Z</time>
      </trkpt>
      <trkpt lat="48.67712" lon="7.24084">
        <ele>491.2</ele>
        <time>2020-08-18T15:58:28Z</time>
      </trkpt>
      <trkpt lat="48.67712" lon="7.24095">
        <ele>487.5</ele>
        <time>2020-08-18T15:58:30Z</time>
      </trkpt>
      <trkpt lat="48.67712" lon="7.24107">
        <ele>484.5</ele>
        <time>2020-08-18T15:58:32Z</time>
      </trkpt>
      <trkpt lat="48.67713" lon="7.24119">
        <ele>480.9</ele>
        <time>2020-08-18T15:58:34Z</time>
      </trkpt>
      <trkpt lat="48.67712" lon="7.24132">
        <ele>478.3</ele>
        <time>2020-08-18T15:58:36Z</time>
      </trkpt>
      <trkpt lat="48.67708" lon="7.24151">
        <ele>503</ele>
        <time>2020-08-18T15:58:38Z</time>
      </trkpt>
      <trkpt lat="48.67707" lon="7.24165">
        <ele>509.4</ele>
        <time>2020-08-18T15:58:40Z</time>
      </trkpt>
      <trkpt lat="48.67703" lon="7.2418">
        <ele>511.7</ele>
        <time>2020-08-18T15:58:42Z</time>
      </trkpt>
      <trkpt lat="48.677" lon="7.24195">
        <ele>508.5</ele>
        <time>2020-08-18T15:58:44Z</time>
      </trkpt>
      <trkpt lat="48.67695" lon="7.24207">
        <ele>503.9</ele>
        <time>2020-08-18T15:58:46Z</time>
      </trkpt>
      <trkpt lat="48.67691" lon="7.24219">
        <ele>497.5</ele>
        <time>2020-08-18T15:58:48Z</time>
      </trkpt>
      <trkpt lat="48.67688" lon="7.2423">
        <ele>490.2</ele>
        <time>2020-08-18T15:58:50Z</time>
      </trkpt>
      <trkpt lat="48.67686" lon="7.24245">
        <ele>484.7</ele>
        <time>2020-08-18T15:58:52Z</time>
      </trkpt>
      <trkpt lat="48.67682" lon="7.24261">
        <ele>479.4</ele>
        <time>2020-08-18T15:58:54Z</time>
      </trkpt>
      <trkpt lat="48.67675" lon="7.24272">
        <ele>476</ele>
        <time>2020-08-18T15:58:56Z</time>
      </trkpt>
      <trkpt lat="48.67669" lon="7.24284">
        <ele>488.2</ele>
        <time>2020-08-18T15:58:58Z</time>
      </trkpt>
      <trkpt lat="48.67663" lon="7.24296">
        <ele>489.2</ele>
        <time>2020-08-18T15:59:00Z</time>
      </trkpt>
      <trkpt lat="48.67658" lon="7.24304">
        <ele>487.4</ele>
        <time>2020-08-18T15:59:02Z</time>
      </trkpt>
      <trkpt lat="48.67654" lon="7.24311">
        <ele>485</ele>
        <time>2020-08-18T15:59:04Z</time>
      </trkpt>
      <trkpt lat="48.6765" lon="7.2432">
        <ele>482.8</ele>
        <time>2020-08-18T15:59:06Z</time>
      </trkpt>
      <trkpt lat="48.67646" lon="7.24331">
        <ele>491.9</ele>
        <time>2020-08-18T15:59:08Z</time>
      </trkpt>
      <trkpt lat="48.67642" lon="7.24343">
        <ele>492.1</ele>
        <time>2020-08-18T15:59:10Z</time>
      </trkpt>
      <trkpt lat="48.67635" lon="7.24356">
        <ele>490.5</ele>
        <time>2020-08-18T15:59:12Z</time>
      </trkpt>
      <trkpt lat="48.67626" lon="7.2437">
        <ele>488</ele>
        <time>2020-08-18T15:59:14Z</time>
      </trkpt>
      <trkpt lat="48.67621" lon="7.2438">
        <ele>485.2</ele>
        <time>2020-08-18T15:59:16Z</time>
      </trkpt>
      <trkpt lat="48.67614" lon="7.2439">
        <ele>481.8</ele>
        <time>2020-08-18T15:59:18Z</time>
      </trkpt>
      <trkpt lat="48.67608" lon="7.24398">
        <ele>479.4</ele>
        <time>2020-08-18T15:59:20Z</time>
      </trkpt>
      <trkpt lat="48.67603" lon="7.24408">
        <ele>477.6</ele>
        <time>2020-08-18T15:59:22Z</time>
      </trkpt>
      <trkpt lat="48.67597" lon="7.24419">
        <ele>475.1</ele>
        <time>2020-08-18T15:59:24Z</time>
      </trkpt>
      <trkpt lat="48.67592" lon="7.24432">
        <ele>473.9</ele>
        <time>2020-08-18T15:59:26Z</time>
      </trkpt>
      <trkpt lat="48.6759" lon="7.24439">
        <ele>472.4</ele>
        <time>2020-08-18T15:59:29Z</time>
      </trkpt>
      <trkpt lat="48.67587" lon="7.24445">
        <ele>468</ele>
        <time>2020-08-18T15:59:36Z</time>
      </trkpt>
      <trkpt lat="48.67586" lon="7.24453">
        <ele>467.1</ele>
        <time>2020-08-18T15:59:40Z</time>
      </trkpt>
      <trkpt lat="48.67581" lon="7.24459">
        <ele>466.6</ele>
        <time>2020-08-18T15:59:42Z</time>
      </trkpt>
      <trkpt lat="48.67571" lon="7.24478">
        <ele>465.1</ele>
        <time>2020-08-18T15:59:44Z</time>
      </trkpt>
      <trkpt lat="48.67559" lon="7.24495">
        <ele>463.8</ele>
        <time>2020-08-18T15:59:46Z</time>
      </trkpt>
      <trkpt lat="48.67548" lon="7.24513">
        <ele>463</ele>
        <time>2020-08-18T15:59:48Z</time>
      </trkpt>
      <trkpt lat="48.67538" lon="7.2453">
        <ele>461.4</ele>
        <time>2020-08-18T15:59:50Z</time>
      </trkpt>
      <trkpt lat="48.6753" lon="7.24547">
        <ele>461.1</ele>
        <time>2020-08-18T15:59:52Z</time>
      </trkpt>
      <trkpt lat="48.67524" lon="7.24565">
        <ele>460.9</ele>
        <time>2020-08-18T15:59:54Z</time>
      </trkpt>
      <trkpt lat="48.67519" lon="7.24584">
        <ele>460.9</ele>
        <time>2020-08-18T15:59:56Z</time>
      </trkpt>
      <trkpt lat="48.67514" lon="7.24602">
        <ele>460.4</ele>
        <time>2020-08-18T15:59:58Z</time>
      </trkpt>
      <trkpt lat="48.67509" lon="7.24617">
        <ele>459.8</ele>
        <time>2020-08-18T16:00:00Z</time>
      </trkpt>
      <trkpt lat="48.67505" lon="7.24634">
        <ele>459.1</ele>
        <time>2020-08-18T16:00:02Z</time>
      </trkpt>
      <trkpt lat="48.67502" lon="7.2465">
        <ele>458.7</ele>
        <time>2020-08-18T16:00:04Z</time>
      </trkpt>
      <trkpt lat="48.67501" lon="7.24666">
        <ele>458.4</ele>
        <time>2020-08-18T16:00:06Z</time>
      </trkpt>
      <trkpt lat="48.67501" lon="7.2468">
        <ele>458.8</ele>
        <time>2020-08-18T16:00:08Z</time>
      </trkpt>
      <trkpt lat="48.675" lon="7.24695">
        <ele>458.7</ele>
        <time>2020-08-18T16:00:10Z</time>
      </trkpt>
      <trkpt lat="48.67498" lon="7.24709">
        <ele>459.1</ele>
        <time>2020-08-18T16:00:12Z</time>
      </trkpt>
      <trkpt lat="48.67497" lon="7.24725">
        <ele>458.4</ele>
        <time>2020-08-18T16:00:14Z</time>
      </trkpt>
      <trkpt lat="48.67498" lon="7.24742">
        <ele>458.3</ele>
        <time>2020-08-18T16:00:16Z</time>
      </trkpt>
      <trkpt lat="48.67499" lon="7.24758">
        <ele>458.3</ele>
        <time>2020-08-18T16:00:18Z</time>
      </trkpt>
      <trkpt lat="48.675" lon="7.24774">
        <ele>458</ele>
        <time>2020-08-18T16:00:20Z</time>
      </trkpt>
      <trkpt lat="48.67501" lon="7.2479">
        <ele>457.5</ele>
        <time>2020-08-18T16:00:22Z</time>
      </trkpt>
      <trkpt lat="48.67502" lon="7.24805">
        <ele>456.9</ele>
        <time>2020-08-18T16:00:24Z</time>
      </trkpt>
      <trkpt lat="48.67501" lon="7.2482">
        <ele>456.5</ele>
        <time>2020-08-18T16:00:26Z</time>
      </trkpt>
      <trkpt lat="48.675" lon="7.24834">
        <ele>456.5</ele>
        <time>2020-08-18T16:00:28Z</time>
      </trkpt>
      <trkpt lat="48.67498" lon="7.24847">
        <ele>456.7</ele>
        <time>2020-08-18T16:00:30Z</time>
      </trkpt>
      <trkpt lat="48.67497" lon="7.24862">
        <ele>456.6</ele>
        <time>2020-08-18T16:00:32Z</time>
      </trkpt>
      <trkpt lat="48.67494" lon="7.24874">
        <ele>456.9</ele>
        <time>2020-08-18T16:00:34Z</time>
      </trkpt>
      <trkpt lat="48.67491" lon="7.24885">
        <ele>457</ele>
        <time>2020-08-18T16:00:36Z</time>
      </trkpt>
      <trkpt lat="48.67488" lon="7.24897">
        <ele>457</ele>
        <time>2020-08-18T16:00:38Z</time>
      </trkpt>
      <trkpt lat="48.67487" lon="7.24906">
        <ele>456.6</ele>
        <time>2020-08-18T16:00:40Z</time>
      </trkpt>
      <trkpt lat="48.67486" lon="7.24914">
        <ele>455.8</ele>
        <time>2020-08-18T16:00:44Z</time>
      </trkpt>
      <trkpt lat="48.67484" lon="7.2492">
        <ele>459.3</ele>
        <time>2020-08-18T16:00:50Z</time>
      </trkpt>
      <trkpt lat="48.67486" lon="7.24926">
        <ele>461.9</ele>
        <time>2020-08-18T16:00:58Z</time>
      </trkpt>
      <trkpt lat="48.67489" lon="7.24934">
        <ele>462.5</ele>
        <time>2020-08-18T16:01:06Z</time>
      </trkpt>
      <trkpt lat="48.67488" lon="7.24941">
        <ele>463.6</ele>
        <time>2020-08-18T16:01:11Z</time>
      </trkpt>
      <trkpt lat="48.67488" lon="7.2495">
        <ele>464.5</ele>
        <time>2020-08-18T16:01:16Z</time>
      </trkpt>
      <trkpt lat="48.67487" lon="7.24958">
        <ele>466.3</ele>
        <time>2020-08-18T16:01:21Z</time>
      </trkpt>
      <trkpt lat="48.67484" lon="7.24964">
        <ele>467.2</ele>
        <time>2020-08-18T16:01:24Z</time>
      </trkpt>
      <trkpt lat="48.67483" lon="7.2497">
        <ele>467.8</ele>
        <time>2020-08-18T16:01:27Z</time>
      </trkpt>
      <trkpt lat="48.67482" lon="7.24978">
        <ele>468.8</ele>
        <time>2020-08-18T16:01:31Z</time>
      </trkpt>
      <trkpt lat="48.67483" lon="7.24985">
        <ele>470.1</ele>
        <time>2020-08-18T16:01:36Z</time>
      </trkpt>
      <trkpt lat="48.67481" lon="7.24993">
        <ele>471.1</ele>
        <time>2020-08-18T16:01:40Z</time>
      </trkpt>
      <trkpt lat="48.67478" lon="7.24999">
        <ele>472.4</ele>
        <time>2020-08-18T16:01:44Z</time>
      </trkpt>
      <trkpt lat="48.67477" lon="7.25006">
        <ele>473.7</ele>
        <time>2020-08-18T16:01:48Z</time>
      </trkpt>
      <trkpt lat="48.67477" lon="7.25014">
        <ele>475.6</ele>
        <time>2020-08-18T16:01:52Z</time>
      </trkpt>
      <trkpt lat="48.67478" lon="7.25021">
        <ele>476.6</ele>
        <time>2020-08-18T16:01:56Z</time>
      </trkpt>
      <trkpt lat="48.6748" lon="7.25028">
        <ele>478.7</ele>
        <time>2020-08-18T16:02:01Z</time>
      </trkpt>
      <trkpt lat="48.67482" lon="7.25034">
        <ele>480.3</ele>
        <time>2020-08-18T16:02:07Z</time>
      </trkpt>
      <trkpt lat="48.67486" lon="7.25035">
        <ele>478.7</ele>
        <time>2020-08-18T16:02:14Z</time>
      </trkpt>
      <trkpt lat="48.67491" lon="7.25033">
        <ele>478.3</ele>
        <time>2020-08-18T16:02:16Z</time>
      </trkpt>
      <trkpt lat="48.67497" lon="7.25028">
        <ele>478</ele>
        <time>2020-08-18T16:02:18Z</time>
      </trkpt>
      <trkpt lat="48.67503" lon="7.25022">
        <ele>477.7</ele>
        <time>2020-08-18T16:02:20Z</time>
      </trkpt>
      <trkpt lat="48.6751" lon="7.25015">
        <ele>477.4</ele>
        <time>2020-08-18T16:02:22Z</time>
      </trkpt>
      <trkpt lat="48.67516" lon="7.25006">
        <ele>477</ele>
        <time>2020-08-18T16:02:24Z</time>
      </trkpt>
      <trkpt lat="48.67522" lon="7.24996">
        <ele>476.4</ele>
        <time>2020-08-18T16:02:26Z</time>
      </trkpt>
      <trkpt lat="48.67528" lon="7.24985">
        <ele>476.4</ele>
        <time>2020-08-18T16:02:28Z</time>
      </trkpt>
      <trkpt lat="48.67533" lon="7.24977">
        <ele>476.5</ele>
        <time>2020-08-18T16:02:30Z</time>
      </trkpt>
      <trkpt lat="48.67539" lon="7.24972">
        <ele>477.1</ele>
        <time>2020-08-18T16:02:32Z</time>
      </trkpt>
      <trkpt lat="48.67544" lon="7.24973">
        <ele>477.6</ele>
        <time>2020-08-18T16:02:34Z</time>
      </trkpt>
      <trkpt lat="48.67546" lon="7.24981">
        <ele>477.8</ele>
        <time>2020-08-18T16:02:37Z</time>
      </trkpt>
      <trkpt lat="48.67544" lon="7.24988">
        <ele>477.4</ele>
        <time>2020-08-18T16:02:39Z</time>
      </trkpt>
      <trkpt lat="48.67541" lon="7.24995">
        <ele>477.8</ele>
        <time>2020-08-18T16:02:41Z</time>
      </trkpt>
      <trkpt lat="48.67538" lon="7.25">
        <ele>478</ele>
        <time>2020-08-18T16:02:43Z</time>
      </trkpt>
      <trkpt lat="48.67534" lon="7.25004">
        <ele>478.3</ele>
        <time>2020-08-18T16:02:48Z</time>
      </trkpt>
      <trkpt lat="48.67533" lon="7.25011">
        <ele>478.9</ele>
        <time>2020-08-18T16:02:54Z</time>
      </trkpt>
      <trkpt lat="48.6753" lon="7.25018">
        <ele>479.7</ele>
        <time>2020-08-18T16:02:59Z</time>
      </trkpt>
      <trkpt lat="48.67526" lon="7.25024">
        <ele>480.8</ele>
        <time>2020-08-18T16:03:05Z</time>
      </trkpt>
      <trkpt lat="48.67522" lon="7.2503">
        <ele>479.8</ele>
        <time>2020-08-18T16:03:08Z</time>
      </trkpt>
      <trkpt lat="48.6752" lon="7.25036">
        <ele>479.8</ele>
        <time>2020-08-18T16:03:10Z</time>
      </trkpt>
      <trkpt lat="48.67517" lon="7.25042">
        <ele>480</ele>
        <time>2020-08-18T16:03:12Z</time>
      </trkpt>
      <trkpt lat="48.67512" lon="7.25048">
        <ele>478.9</ele>
        <time>2020-08-18T16:03:15Z</time>
      </trkpt>
      <trkpt lat="48.67509" lon="7.25055">
        <ele>478.1</ele>
        <time>2020-08-18T16:03:17Z</time>
      </trkpt>
      <trkpt lat="48.67501" lon="7.25064">
        <ele>478.3</ele>
        <time>2020-08-18T16:03:19Z</time>
      </trkpt>
      <trkpt lat="48.67493" lon="7.25071">
        <ele>478.3</ele>
        <time>2020-08-18T16:03:21Z</time>
      </trkpt>
      <trkpt lat="48.67484" lon="7.25081">
        <ele>478.5</ele>
        <time>2020-08-18T16:03:23Z</time>
      </trkpt>
      <trkpt lat="48.67478" lon="7.2509">
        <ele>479.6</ele>
        <time>2020-08-18T16:03:25Z</time>
      </trkpt>
      <trkpt lat="48.67474" lon="7.251">
        <ele>480.2</ele>
        <time>2020-08-18T16:03:27Z</time>
      </trkpt>
      <trkpt lat="48.67471" lon="7.25108">
        <ele>481.1</ele>
        <time>2020-08-18T16:03:29Z</time>
      </trkpt>
      <trkpt lat="48.67466" lon="7.25116">
        <ele>482.7</ele>
        <time>2020-08-18T16:03:31Z</time>
      </trkpt>
      <trkpt lat="48.67458" lon="7.25124">
        <ele>484.1</ele>
        <time>2020-08-18T16:03:34Z</time>
      </trkpt>
      <trkpt lat="48.67452" lon="7.25128">
        <ele>484.8</ele>
        <time>2020-08-18T16:03:36Z</time>
      </trkpt>
      <trkpt lat="48.67448" lon="7.25131">
        <ele>485.3</ele>
        <time>2020-08-18T16:03:38Z</time>
      </trkpt>
      <trkpt lat="48.67442" lon="7.25135">
        <ele>485.5</ele>
        <time>2020-08-18T16:03:40Z</time>
      </trkpt>
      <trkpt lat="48.67435" lon="7.2514">
        <ele>485.3</ele>
        <time>2020-08-18T16:03:42Z</time>
      </trkpt>
      <trkpt lat="48.6743" lon="7.25145">
        <ele>485.6</ele>
        <time>2020-08-18T16:03:44Z</time>
      </trkpt>
      <trkpt lat="48.67426" lon="7.2515">
        <ele>486.4</ele>
        <time>2020-08-18T16:03:46Z</time>
      </trkpt>
      <trkpt lat="48.6742" lon="7.2516">
        <ele>487.2</ele>
        <time>2020-08-18T16:03:48Z</time>
      </trkpt>
      <trkpt lat="48.67413" lon="7.25171">
        <ele>488</ele>
        <time>2020-08-18T16:03:50Z</time>
      </trkpt>
      <trkpt lat="48.6741" lon="7.25179">
        <ele>489.2</ele>
        <time>2020-08-18T16:03:52Z</time>
      </trkpt>
      <trkpt lat="48.67404" lon="7.25186">
        <ele>490.2</ele>
        <time>2020-08-18T16:03:54Z</time>
      </trkpt>
      <trkpt lat="48.67399" lon="7.25194">
        <ele>491.2</ele>
        <time>2020-08-18T16:03:56Z</time>
      </trkpt>
      <trkpt lat="48.67396" lon="7.25203">
        <ele>491.9</ele>
        <time>2020-08-18T16:03:58Z</time>
      </trkpt>
      <trkpt lat="48.67391" lon="7.25213">
        <ele>492.3</ele>
        <time>2020-08-18T16:04:00Z</time>
      </trkpt>
      <trkpt lat="48.67386" lon="7.25223">
        <ele>492.8</ele>
        <time>2020-08-18T16:04:02Z</time>
      </trkpt>
      <trkpt lat="48.6738" lon="7.25232">
        <ele>493.2</ele>
        <time>2020-08-18T16:04:04Z</time>
      </trkpt>
      <trkpt lat="48.67373" lon="7.25242">
        <ele>493.8</ele>
        <time>2020-08-18T16:04:06Z</time>
      </trkpt>
      <trkpt lat="48.67366" lon="7.25252">
        <ele>494</ele>
        <time>2020-08-18T16:04:08Z</time>
      </trkpt>
      <trkpt lat="48.6736" lon="7.25261">
        <ele>494</ele>
        <time>2020-08-18T16:04:10Z</time>
      </trkpt>
      <trkpt lat="48.67356" lon="7.25271">
        <ele>494.5</ele>
        <time>2020-08-18T16:04:12Z</time>
      </trkpt>
      <trkpt lat="48.67353" lon="7.25278">
        <ele>495.1</ele>
        <time>2020-08-18T16:04:14Z</time>
      </trkpt>
      <trkpt lat="48.67352" lon="7.25284">
        <ele>496.3</ele>
        <time>2020-08-18T16:04:19Z</time>
      </trkpt>
      <trkpt lat="48.67348" lon="7.25289">
        <ele>497.1</ele>
        <time>2020-08-18T16:04:26Z</time>
      </trkpt>
      <trkpt lat="48.67343" lon="7.25291">
        <ele>497.1</ele>
        <time>2020-08-18T16:04:34Z</time>
      </trkpt>
      <trkpt lat="48.67338" lon="7.25294">
        <ele>497.3</ele>
        <time>2020-08-18T16:04:37Z</time>
      </trkpt>
      <trkpt lat="48.67334" lon="7.25301">
        <ele>497.5</ele>
        <time>2020-08-18T16:04:40Z</time>
      </trkpt>
      <trkpt lat="48.6733" lon="7.25309">
        <ele>497.9</ele>
        <time>2020-08-18T16:04:42Z</time>
      </trkpt>
      <trkpt lat="48.67325" lon="7.25316">
        <ele>498.3</ele>
        <time>2020-08-18T16:04:44Z</time>
      </trkpt>
      <trkpt lat="48.67319" lon="7.25324">
        <ele>498.6</ele>
        <time>2020-08-18T16:04:46Z</time>
      </trkpt>
      <trkpt lat="48.67315" lon="7.25333">
        <ele>498.8</ele>
        <time>2020-08-18T16:04:48Z</time>
      </trkpt>
      <trkpt lat="48.67312" lon="7.25344">
        <ele>499.4</ele>
        <time>2020-08-18T16:04:50Z</time>
      </trkpt>
      <trkpt lat="48.67309" lon="7.25353">
        <ele>499.8</ele>
        <time>2020-08-18T16:04:52Z</time>
      </trkpt>
      <trkpt lat="48.67306" lon="7.25364">
        <ele>499.4</ele>
        <time>2020-08-18T16:04:54Z</time>
      </trkpt>
      <trkpt lat="48.67305" lon="7.25374">
        <ele>499.1</ele>
        <time>2020-08-18T16:04:56Z</time>
      </trkpt>
    </trkseg>
  </trk>
</gpx>